<?xml version='1.0' encoding='UTF-8'?><gpx version="1.1" creator="JPX - https://github.com/jenetics/jpx" xmlns="http://www.topografix.com/GPX/1/1"><trk><trkseg><trkpt lat="38.1786715" lon="15.6629008"><ele>67.0</ele><time>2026-05-01T05:53:45.98Z</time></trkpt><trkpt lat="38.1785601" lon="15.6627226"><ele>66.0</ele><time>2026-05-01T05:53:46.98Z</time></trkpt><trkpt lat="38.1784375" lon="15.6625363"><ele>65.0</ele><time>2026-05-01T05:53:47.979Z</time></trkpt><trkpt lat="38.1783109" lon="15.6623404"><ele>63.333333333333336</ele><time>2026-05-01T05:53:48.979Z</time></trkpt><trkpt lat="38.1781774" lon="15.6621402"><ele>61.66666666666667</ele><time>2026-05-01T05:53:49.979Z</time></trkpt><trkpt lat="38.178039" lon="15.6619404"><ele>60.0</ele><time>2026-05-01T05:53:50.979Z</time></trkpt><trkpt lat="38.1779" lon="15.6617381"><ele>59.33333333333333</ele><time>2026-05-01T05:53:51.979Z</time></trkpt><trkpt lat="38.1777581" lon="15.6615242"><ele>58.666666666666664</ele><time>2026-05-01T05:53:52.979Z</time></trkpt><trkpt lat="38.1776133" lon="15.6613146"><ele>58.0</ele><time>2026-05-01T05:53:53.979Z</time></trkpt><trkpt lat="38.177465" lon="15.6610954"><ele>57.0</ele><time>2026-05-01T05:53:54.979Z</time></trkpt><trkpt lat="38.1773107" lon="15.6608722"><ele>56.0</ele><time>2026-05-01T05:53:55.979Z</time></trkpt><trkpt lat="38.1771507" lon="15.6606531"><ele>56.0</ele><time>2026-05-01T05:53:56.979Z</time></trkpt><trkpt lat="38.1769906" lon="15.6604203"><ele>56.0</ele><time>2026-05-01T05:53:57.98Z</time></trkpt><trkpt lat="38.1768323" lon="15.660192"><ele>55.0</ele><time>2026-05-01T05:53:58.98Z</time></trkpt><trkpt lat="38.1766792" lon="15.6599561"><ele>54.0</ele><time>2026-05-01T05:53:59.979Z</time></trkpt><trkpt lat="38.1765248" lon="15.6597159"><ele>52.0</ele><time>2026-05-01T05:54:00.98Z</time></trkpt><trkpt lat="38.1763683" lon="15.6594741"><ele>50.0</ele><time>2026-05-01T05:54:01.979Z</time></trkpt><trkpt lat="38.176211" lon="15.6592328"><ele>50.0</ele><time>2026-05-01T05:54:02.98Z</time></trkpt><trkpt lat="38.1760555" lon="15.658991"><ele>50.0</ele><time>2026-05-01T05:54:03.979Z</time></trkpt><trkpt lat="38.1758962" lon="15.6587492"><ele>49.5</ele><time>2026-05-01T05:54:04.98Z</time></trkpt><trkpt lat="38.1757317" lon="15.6585138"><ele>49.0</ele><time>2026-05-01T05:54:05.979Z</time></trkpt><trkpt lat="38.1755635" lon="15.6582893"><ele>48.0</ele><time>2026-05-01T05:54:06.98Z</time></trkpt><trkpt lat="38.1753914" lon="15.6580836"><ele>47.0</ele><time>2026-05-01T05:54:07.98Z</time></trkpt><trkpt lat="38.1752083" lon="15.6579009"><ele>46.5</ele><time>2026-05-01T05:54:08.979Z</time></trkpt><trkpt lat="38.1750127" lon="15.6577352"><ele>46.0</ele><time>2026-05-01T05:54:09.98Z</time></trkpt><trkpt lat="38.1747989" lon="15.657589"><ele>44.5</ele><time>2026-05-01T05:54:10.979Z</time></trkpt><trkpt lat="38.174583" lon="15.6574581"><ele>43.0</ele><time>2026-05-01T05:54:11.98Z</time></trkpt><trkpt lat="38.1743622" lon="15.6573512"><ele>43.0</ele><time>2026-05-01T05:54:12.979Z</time></trkpt><trkpt lat="38.1741311" lon="15.6572672"><ele>43.0</ele><time>2026-05-01T05:54:13.979Z</time></trkpt><trkpt lat="38.1738997" lon="15.6571902"><ele>42.5</ele><time>2026-05-01T05:54:14.979Z</time></trkpt><trkpt lat="38.1736632" lon="15.6571127"><ele>42.0</ele><time>2026-05-01T05:54:15.979Z</time></trkpt><trkpt lat="38.1734157" lon="15.6570252"><ele>39.5</ele><time>2026-05-01T05:54:16.979Z</time></trkpt><trkpt lat="38.1731689" lon="15.6569334"><ele>37.0</ele><time>2026-05-01T05:54:17.979Z</time></trkpt><trkpt lat="38.172929" lon="15.6568401"><ele>37.0</ele><time>2026-05-01T05:54:18.98Z</time></trkpt><trkpt lat="38.1726963" lon="15.6567572"><ele>37.0</ele><time>2026-05-01T05:54:19.979Z</time></trkpt><trkpt lat="38.172482" lon="15.6566696"><ele>36.333333333333336</ele><time>2026-05-01T05:54:20.979Z</time></trkpt><trkpt lat="38.1722872" lon="15.6565812"><ele>35.666666666666664</ele><time>2026-05-01T05:54:21.979Z</time></trkpt><trkpt lat="38.1720941" lon="15.6564723"><ele>35.0</ele><time>2026-05-01T05:54:22.979Z</time></trkpt><trkpt lat="38.171909" lon="15.6563385"><ele>35.0</ele><time>2026-05-01T05:54:23.979Z</time></trkpt><trkpt lat="38.1717386" lon="15.6561668"><ele>35.0</ele><time>2026-05-01T05:54:24.979Z</time></trkpt><trkpt lat="38.1715905" lon="15.6559711"><ele>35.0</ele><time>2026-05-01T05:54:25.98Z</time></trkpt><trkpt lat="38.1714653" lon="15.6557519"><ele>35.0</ele><time>2026-05-01T05:54:26.979Z</time></trkpt><trkpt lat="38.1713562" lon="15.6555095"><ele>35.0</ele><time>2026-05-01T05:54:27.98Z</time></trkpt><trkpt lat="38.1712635" lon="15.6552499"><ele>35.0</ele><time>2026-05-01T05:54:28.979Z</time></trkpt><trkpt lat="38.1711748" lon="15.654976"><ele>33.5</ele><time>2026-05-01T05:54:29.98Z</time></trkpt><trkpt lat="38.1710975" lon="15.6546887"><ele>32.0</ele><time>2026-05-01T05:54:30.979Z</time></trkpt><trkpt lat="38.1710293" lon="15.6543922"><ele>30.5</ele><time>2026-05-01T05:54:31.979Z</time></trkpt><trkpt lat="38.1709669" lon="15.654096"><ele>29.0</ele><time>2026-05-01T05:54:32.98Z</time></trkpt><trkpt lat="38.1708967" lon="15.6538022"><ele>28.5</ele><time>2026-05-01T05:54:33.98Z</time></trkpt><trkpt lat="38.1707683" lon="15.6532738"><ele>28.0</ele><time>2026-05-01T05:54:35.979Z</time></trkpt><trkpt lat="38.170721" lon="15.6530393"><ele>27.666666666666668</ele><time>2026-05-01T05:54:36.98Z</time></trkpt><trkpt lat="38.170691" lon="15.652818"><ele>27.333333333333336</ele><time>2026-05-01T05:54:37.98Z</time></trkpt><trkpt lat="38.1706789" lon="15.6526142"><ele>27.0</ele><time>2026-05-01T05:54:38.979Z</time></trkpt><trkpt lat="38.1706898" lon="15.6524352"><ele>26.8</ele><time>2026-05-01T05:54:39.979Z</time></trkpt><trkpt lat="38.1707121" lon="15.6522876"><ele>26.6</ele><time>2026-05-01T05:54:40.979Z</time></trkpt><trkpt lat="38.1707535" lon="15.6521631"><ele>26.400000000000002</ele><time>2026-05-01T05:54:41.98Z</time></trkpt><trkpt lat="38.1708153" lon="15.6520738"><ele>26.200000000000003</ele><time>2026-05-01T05:54:42.98Z</time></trkpt><trkpt lat="38.1708894" lon="15.6520133"><ele>26.0</ele><time>2026-05-01T05:54:43.979Z</time></trkpt><trkpt lat="38.1709762" lon="15.6519614"><ele>26.0</ele><time>2026-05-01T05:54:44.979Z</time></trkpt><trkpt lat="38.1710779" lon="15.6519446"><ele>26.0</ele><time>2026-05-01T05:54:45.98Z</time></trkpt><trkpt lat="38.1711828" lon="15.6519631"><ele>26.0</ele><time>2026-05-01T05:54:46.979Z</time></trkpt><trkpt lat="38.1712827" lon="15.6520059"><ele>26.0</ele><time>2026-05-01T05:54:47.979Z</time></trkpt><trkpt lat="38.1713683" lon="15.6520756"><ele>26.0</ele><time>2026-05-01T05:54:48.98Z</time></trkpt><trkpt lat="38.1714483" lon="15.6521745"><ele>26.5</ele><time>2026-05-01T05:54:49.98Z</time></trkpt><trkpt lat="38.1715345" lon="15.6522895"><ele>27.0</ele><time>2026-05-01T05:54:50.979Z</time></trkpt><trkpt lat="38.1716102" lon="15.6524388"><ele>27.5</ele><time>2026-05-01T05:54:51.98Z</time></trkpt><trkpt lat="38.1716754" lon="15.6525965"><ele>28.0</ele><time>2026-05-01T05:54:52.98Z</time></trkpt><trkpt lat="38.1717332" lon="15.6527699"><ele>28.25</ele><time>2026-05-01T05:54:53.98Z</time></trkpt><trkpt lat="38.171787" lon="15.6529265"><ele>28.5</ele><time>2026-05-01T05:54:54.979Z</time></trkpt><trkpt lat="38.1718443" lon="15.6530593"><ele>28.75</ele><time>2026-05-01T05:54:55.979Z</time></trkpt><trkpt lat="38.1719109" lon="15.6531675"><ele>29.0</ele><time>2026-05-01T05:54:56.979Z</time></trkpt><trkpt lat="38.1719846" lon="15.6532477"><ele>29.0</ele><time>2026-05-01T05:54:57.979Z</time></trkpt><trkpt lat="38.1720832" lon="15.653315"><ele>29.0</ele><time>2026-05-01T05:54:58.979Z</time></trkpt><trkpt lat="38.1722063" lon="15.6533606"><ele>29.0</ele><time>2026-05-01T05:54:59.979Z</time></trkpt><trkpt lat="38.1723475" lon="15.6533791"><ele>29.0</ele><time>2026-05-01T05:55:00.979Z</time></trkpt><trkpt lat="38.1724974" lon="15.6533829"><ele>29.666666666666664</ele><time>2026-05-01T05:55:01.979Z</time></trkpt><trkpt lat="38.1726584" lon="15.6533583"><ele>30.333333333333336</ele><time>2026-05-01T05:55:02.98Z</time></trkpt><trkpt lat="38.17283" lon="15.6533124"><ele>31.0</ele><time>2026-05-01T05:55:03.979Z</time></trkpt><trkpt lat="38.173007" lon="15.6532618"><ele>31.0</ele><time>2026-05-01T05:55:04.979Z</time></trkpt><trkpt lat="38.1731892" lon="15.6532037"><ele>31.0</ele><time>2026-05-01T05:55:05.98Z</time></trkpt><trkpt lat="38.1733745" lon="15.6531528"><ele>31.0</ele><time>2026-05-01T05:55:06.979Z</time></trkpt><trkpt lat="38.1735425" lon="15.653108"><ele>31.0</ele><time>2026-05-01T05:55:07.98Z</time></trkpt><trkpt lat="38.1736925" lon="15.6530885"><ele>31.0</ele><time>2026-05-01T05:55:08.98Z</time></trkpt><trkpt lat="38.1738156" lon="15.6531141"><ele>31.0</ele><time>2026-05-01T05:55:09.979Z</time></trkpt><trkpt lat="38.1739295" lon="15.6531766"><ele>31.0</ele><time>2026-05-01T05:55:10.979Z</time></trkpt><trkpt lat="38.1740345" lon="15.6532648"><ele>32.0</ele><time>2026-05-01T05:55:11.979Z</time></trkpt><trkpt lat="38.1741257" lon="15.653386"><ele>33.0</ele><time>2026-05-01T05:55:12.98Z</time></trkpt><trkpt lat="38.1742022" lon="15.6535298"><ele>34.0</ele><time>2026-05-01T05:55:13.979Z</time></trkpt><trkpt lat="38.1742709" lon="15.6536917"><ele>35.0</ele><time>2026-05-01T05:55:14.98Z</time></trkpt><trkpt lat="38.1743077" lon="15.6538694"><ele>35.25</ele><time>2026-05-01T05:55:15.979Z</time></trkpt><trkpt lat="38.1743285" lon="15.6540395"><ele>35.5</ele><time>2026-05-01T05:55:16.979Z</time></trkpt><trkpt lat="38.174292" lon="15.6541958"><ele>35.75</ele><time>2026-05-01T05:55:17.98Z</time></trkpt><trkpt lat="38.1742217" lon="15.6543529"><ele>36.0</ele><time>2026-05-01T05:55:18.979Z</time></trkpt><trkpt lat="38.1741451" lon="15.6545019"><ele>36.0</ele><time>2026-05-01T05:55:19.979Z</time></trkpt><trkpt lat="38.1740513" lon="15.6546406"><ele>36.0</ele><time>2026-05-01T05:55:20.98Z</time></trkpt><trkpt lat="38.1739345" lon="15.6547468"><ele>36.0</ele><time>2026-05-01T05:55:21.98Z</time></trkpt><trkpt lat="38.1737983" lon="15.6548315"><ele>36.0</ele><time>2026-05-01T05:55:22.979Z</time></trkpt><trkpt lat="38.1736522" lon="15.6549032"><ele>35.333333333333336</ele><time>2026-05-01T05:55:23.979Z</time></trkpt><trkpt lat="38.1734982" lon="15.6549854"><ele>34.66666666666667</ele><time>2026-05-01T05:55:24.979Z</time></trkpt><trkpt lat="38.1733468" lon="15.6550675"><ele>34.0</ele><time>2026-05-01T05:55:25.979Z</time></trkpt><trkpt lat="38.1732193" lon="15.6551313"><ele>34.2</ele><time>2026-05-01T05:55:26.98Z</time></trkpt><trkpt lat="38.1731094" lon="15.6551738"><ele>34.4</ele><time>2026-05-01T05:55:27.979Z</time></trkpt><trkpt lat="38.1730084" lon="15.6551906"><ele>34.6</ele><time>2026-05-01T05:55:28.979Z</time></trkpt><trkpt lat="38.1729139" lon="15.6551613"><ele>34.8</ele><time>2026-05-01T05:55:29.979Z</time></trkpt><trkpt lat="38.1728357" lon="15.6551036"><ele>35.0</ele><time>2026-05-01T05:55:30.979Z</time></trkpt><trkpt lat="38.1727735" lon="15.655009"><ele>35.0</ele><time>2026-05-01T05:55:31.98Z</time></trkpt><trkpt lat="38.1727437" lon="15.6548894"><ele>35.0</ele><time>2026-05-01T05:55:32.979Z</time></trkpt><trkpt lat="38.1727356" lon="15.6547677"><ele>35.0</ele><time>2026-05-01T05:55:33.98Z</time></trkpt><trkpt lat="38.1727587" lon="15.6546456"><ele>35.0</ele><time>2026-05-01T05:55:34.979Z</time></trkpt><trkpt lat="38.1728081" lon="15.6545333"><ele>35.0</ele><time>2026-05-01T05:55:35.979Z</time></trkpt><trkpt lat="38.1728787" lon="15.6544434"><ele>34.75</ele><time>2026-05-01T05:55:36.98Z</time></trkpt><trkpt lat="38.172976" lon="15.6543716"><ele>34.5</ele><time>2026-05-01T05:55:37.98Z</time></trkpt><trkpt lat="38.1730917" lon="15.6543061"><ele>34.25</ele><time>2026-05-01T05:55:38.979Z</time></trkpt><trkpt lat="38.17323" lon="15.6542425"><ele>34.0</ele><time>2026-05-01T05:55:39.98Z</time></trkpt><trkpt lat="38.1734015" lon="15.6541697"><ele>34.0</ele><time>2026-05-01T05:55:40.98Z</time></trkpt><trkpt lat="38.1735869" lon="15.6540819"><ele>34.0</ele><time>2026-05-01T05:55:41.979Z</time></trkpt><trkpt lat="38.1737852" lon="15.6539884"><ele>34.0</ele><time>2026-05-01T05:55:42.98Z</time></trkpt><trkpt lat="38.1740077" lon="15.6538852"><ele>36.0</ele><time>2026-05-01T05:55:43.979Z</time></trkpt><trkpt lat="38.1742436" lon="15.6537804"><ele>38.0</ele><time>2026-05-01T05:55:44.98Z</time></trkpt><trkpt lat="38.1744913" lon="15.6536743"><ele>37.5</ele><time>2026-05-01T05:55:45.979Z</time></trkpt><trkpt lat="38.174752" lon="15.6535619"><ele>37.0</ele><time>2026-05-01T05:55:46.98Z</time></trkpt><trkpt lat="38.1750254" lon="15.6534478"><ele>37.0</ele><time>2026-05-01T05:55:47.979Z</time></trkpt><trkpt lat="38.1753072" lon="15.6533253"><ele>37.0</ele><time>2026-05-01T05:55:48.979Z</time></trkpt><trkpt lat="38.1755905" lon="15.6532021"><ele>39.0</ele><time>2026-05-01T05:55:49.979Z</time></trkpt><trkpt lat="38.1758833" lon="15.6530716"><ele>41.0</ele><time>2026-05-01T05:55:50.98Z</time></trkpt><trkpt lat="38.1761834" lon="15.6529409"><ele>41.0</ele><time>2026-05-01T05:55:51.979Z</time></trkpt><trkpt lat="38.1764827" lon="15.6527936"><ele>41.0</ele><time>2026-05-01T05:55:52.979Z</time></trkpt><trkpt lat="38.1767846" lon="15.6526493"><ele>45.0</ele><time>2026-05-01T05:55:53.98Z</time></trkpt><trkpt lat="38.1770893" lon="15.6525018"><ele>49.0</ele><time>2026-05-01T05:55:54.98Z</time></trkpt><trkpt lat="38.1773976" lon="15.65237"><ele>49.5</ele><time>2026-05-01T05:55:55.979Z</time></trkpt><trkpt lat="38.1777004" lon="15.6522397"><ele>50.0</ele><time>2026-05-01T05:55:56.98Z</time></trkpt><trkpt lat="38.1780003" lon="15.652107"><ele>48.5</ele><time>2026-05-01T05:55:57.979Z</time></trkpt><trkpt lat="38.1783013" lon="15.6519712"><ele>47.0</ele><time>2026-05-01T05:55:58.979Z</time></trkpt><trkpt lat="38.1786026" lon="15.6518417"><ele>46.5</ele><time>2026-05-01T05:55:59.979Z</time></trkpt><trkpt lat="38.1788972" lon="15.6517049"><ele>46.0</ele><time>2026-05-01T05:56:00.979Z</time></trkpt><trkpt lat="38.1792024" lon="15.6515804"><ele>49.0</ele><time>2026-05-01T05:56:01.979Z</time></trkpt><trkpt lat="38.1795079" lon="15.6514468"><ele>52.0</ele><time>2026-05-01T05:56:02.98Z</time></trkpt><trkpt lat="38.1798164" lon="15.6513104"><ele>54.0</ele><time>2026-05-01T05:56:03.979Z</time></trkpt><trkpt lat="38.1801216" lon="15.6511755"><ele>56.0</ele><time>2026-05-01T05:56:04.979Z</time></trkpt><trkpt lat="38.1804162" lon="15.6510283"><ele>49.5</ele><time>2026-05-01T05:56:05.979Z</time></trkpt><trkpt lat="38.1807201" lon="15.6508741"><ele>43.0</ele><time>2026-05-01T05:56:06.979Z</time></trkpt><trkpt lat="38.1810127" lon="15.6506962"><ele>43.0</ele><time>2026-05-01T05:56:07.979Z</time></trkpt><trkpt lat="38.1812954" lon="15.6504948"><ele>43.0</ele><time>2026-05-01T05:56:08.98Z</time></trkpt><trkpt lat="38.181568" lon="15.6502927"><ele>41.5</ele><time>2026-05-01T05:56:09.979Z</time></trkpt><trkpt lat="38.1818504" lon="15.6500873"><ele>40.0</ele><time>2026-05-01T05:56:10.979Z</time></trkpt><trkpt lat="38.1821264" lon="15.649874"><ele>41.0</ele><time>2026-05-01T05:56:11.98Z</time></trkpt><trkpt lat="38.1824053" lon="15.6496556"><ele>42.0</ele><time>2026-05-01T05:56:12.979Z</time></trkpt><trkpt lat="38.1826931" lon="15.6494436"><ele>42.0</ele><time>2026-05-01T05:56:13.98Z</time></trkpt><trkpt lat="38.1829821" lon="15.6492454"><ele>42.0</ele><time>2026-05-01T05:56:14.979Z</time></trkpt><trkpt lat="38.1832789" lon="15.6490499"><ele>41.0</ele><time>2026-05-01T05:56:15.98Z</time></trkpt><trkpt lat="38.183579" lon="15.6488544"><ele>40.0</ele><time>2026-05-01T05:56:16.98Z</time></trkpt><trkpt lat="38.1838899" lon="15.6486752"><ele>38.0</ele><time>2026-05-01T05:56:17.979Z</time></trkpt><trkpt lat="38.1841992" lon="15.648527"><ele>36.0</ele><time>2026-05-01T05:56:18.98Z</time></trkpt><trkpt lat="38.1845157" lon="15.6484058"><ele>36.0</ele><time>2026-05-01T05:56:19.98Z</time></trkpt><trkpt lat="38.1848421" lon="15.6483027"><ele>36.0</ele><time>2026-05-01T05:56:20.979Z</time></trkpt><trkpt lat="38.185174" lon="15.6482209"><ele>36.5</ele><time>2026-05-01T05:56:21.979Z</time></trkpt><trkpt lat="38.1855105" lon="15.6481525"><ele>37.0</ele><time>2026-05-01T05:56:22.979Z</time></trkpt><trkpt lat="38.1858459" lon="15.6481046"><ele>37.0</ele><time>2026-05-01T05:56:23.979Z</time></trkpt><trkpt lat="38.1861763" lon="15.6480851"><ele>37.0</ele><time>2026-05-01T05:56:24.979Z</time></trkpt><trkpt lat="38.1864943" lon="15.6481035"><ele>33.5</ele><time>2026-05-01T05:56:25.98Z</time></trkpt><trkpt lat="38.1868048" lon="15.6481421"><ele>30.0</ele><time>2026-05-01T05:56:26.979Z</time></trkpt><trkpt lat="38.18712" lon="15.6481978"><ele>30.0</ele><time>2026-05-01T05:56:27.979Z</time></trkpt><trkpt lat="38.1874245" lon="15.6482659"><ele>30.0</ele><time>2026-05-01T05:56:28.979Z</time></trkpt><trkpt lat="38.1877339" lon="15.6483644"><ele>30.0</ele><time>2026-05-01T05:56:29.98Z</time></trkpt><trkpt lat="38.1880502" lon="15.6484846"><ele>30.0</ele><time>2026-05-01T05:56:30.98Z</time></trkpt><trkpt lat="38.1883719" lon="15.6485977"><ele>31.0</ele><time>2026-05-01T05:56:31.979Z</time></trkpt><trkpt lat="38.1887009" lon="15.6486917"><ele>32.0</ele><time>2026-05-01T05:56:32.979Z</time></trkpt><trkpt lat="38.1890206" lon="15.6487796"><ele>30.0</ele><time>2026-05-01T05:56:33.979Z</time></trkpt><trkpt lat="38.1893307" lon="15.6488469"><ele>28.0</ele><time>2026-05-01T05:56:34.979Z</time></trkpt><trkpt lat="38.1896349" lon="15.6488794"><ele>28.0</ele><time>2026-05-01T05:56:35.98Z</time></trkpt><trkpt lat="38.1899321" lon="15.6488848"><ele>28.0</ele><time>2026-05-01T05:56:36.979Z</time></trkpt><trkpt lat="38.1902356" lon="15.6488519"><ele>28.0</ele><time>2026-05-01T05:56:37.98Z</time></trkpt><trkpt lat="38.1905263" lon="15.648791"><ele>28.0</ele><time>2026-05-01T05:56:38.98Z</time></trkpt><trkpt lat="38.1908249" lon="15.6487069"><ele>29.0</ele><time>2026-05-01T05:56:39.979Z</time></trkpt><trkpt lat="38.1911187" lon="15.6485855"><ele>30.0</ele><time>2026-05-01T05:56:40.979Z</time></trkpt><trkpt lat="38.191411" lon="15.6484377"><ele>31.0</ele><time>2026-05-01T05:56:41.98Z</time></trkpt><trkpt lat="38.1916947" lon="15.6482516"><ele>32.0</ele><time>2026-05-01T05:56:42.98Z</time></trkpt><trkpt lat="38.1919674" lon="15.6480537"><ele>32.0</ele><time>2026-05-01T05:56:43.979Z</time></trkpt><trkpt lat="38.1922288" lon="15.6478295"><ele>32.0</ele><time>2026-05-01T05:56:44.979Z</time></trkpt><trkpt lat="38.1924851" lon="15.6475819"><ele>32.5</ele><time>2026-05-01T05:56:45.979Z</time></trkpt><trkpt lat="38.1927311" lon="15.6473261"><ele>33.0</ele><time>2026-05-01T05:56:46.98Z</time></trkpt><trkpt lat="38.1929787" lon="15.6470656"><ele>34.5</ele><time>2026-05-01T05:56:47.979Z</time></trkpt><trkpt lat="38.193231" lon="15.6467944"><ele>36.0</ele><time>2026-05-01T05:56:48.979Z</time></trkpt><trkpt lat="38.1934863" lon="15.6465193"><ele>36.0</ele><time>2026-05-01T05:56:49.979Z</time></trkpt><trkpt lat="38.1937503" lon="15.6462394"><ele>36.0</ele><time>2026-05-01T05:56:50.979Z</time></trkpt><trkpt lat="38.1940172" lon="15.6459629"><ele>35.5</ele><time>2026-05-01T05:56:51.98Z</time></trkpt><trkpt lat="38.1942902" lon="15.6456843"><ele>35.0</ele><time>2026-05-01T05:56:52.979Z</time></trkpt><trkpt lat="38.1945622" lon="15.6454084"><ele>35.0</ele><time>2026-05-01T05:56:53.979Z</time></trkpt><trkpt lat="38.1948311" lon="15.6451349"><ele>35.0</ele><time>2026-05-01T05:56:54.979Z</time></trkpt><trkpt lat="38.1950939" lon="15.6448658"><ele>34.5</ele><time>2026-05-01T05:56:55.979Z</time></trkpt><trkpt lat="38.1953456" lon="15.644606"><ele>34.0</ele><time>2026-05-01T05:56:56.979Z</time></trkpt><trkpt lat="38.1955888" lon="15.6443517"><ele>36.5</ele><time>2026-05-01T05:56:57.979Z</time></trkpt><trkpt lat="38.1958249" lon="15.6441099"><ele>39.0</ele><time>2026-05-01T05:56:58.98Z</time></trkpt><trkpt lat="38.1960515" lon="15.6438755"><ele>39.0</ele><time>2026-05-01T05:56:59.98Z</time></trkpt><trkpt lat="38.1962728" lon="15.6436487"><ele>39.0</ele><time>2026-05-01T05:57:00.98Z</time></trkpt><trkpt lat="38.1964802" lon="15.6434249"><ele>46.0</ele><time>2026-05-01T05:57:01.98Z</time></trkpt><trkpt lat="38.1966908" lon="15.6432075"><ele>53.0</ele><time>2026-05-01T05:57:02.979Z</time></trkpt><trkpt lat="38.1969064" lon="15.642991"><ele>54.0</ele><time>2026-05-01T05:57:03.98Z</time></trkpt><trkpt lat="38.1971313" lon="15.6427855"><ele>55.0</ele><time>2026-05-01T05:57:04.979Z</time></trkpt><trkpt lat="38.1973768" lon="15.6425818"><ele>55.0</ele><time>2026-05-01T05:57:05.979Z</time></trkpt><trkpt lat="38.1976397" lon="15.642379"><ele>55.0</ele><time>2026-05-01T05:57:06.979Z</time></trkpt><trkpt lat="38.1979195" lon="15.6421932"><ele>55.0</ele><time>2026-05-01T05:57:07.98Z</time></trkpt><trkpt lat="38.1982244" lon="15.6420185"><ele>55.0</ele><time>2026-05-01T05:57:08.98Z</time></trkpt><trkpt lat="38.1985416" lon="15.641857"><ele>55.0</ele><time>2026-05-01T05:57:09.98Z</time></trkpt><trkpt lat="38.1988615" lon="15.641704"><ele>55.0</ele><time>2026-05-01T05:57:10.979Z</time></trkpt><trkpt lat="38.1991847" lon="15.6415634"><ele>57.0</ele><time>2026-05-01T05:57:11.98Z</time></trkpt><trkpt lat="38.1995127" lon="15.6414272"><ele>59.0</ele><time>2026-05-01T05:57:12.979Z</time></trkpt><trkpt lat="38.1998338" lon="15.6412963"><ele>60.0</ele><time>2026-05-01T05:57:13.979Z</time></trkpt><trkpt lat="38.2001551" lon="15.6411774"><ele>61.0</ele><time>2026-05-01T05:57:14.979Z</time></trkpt><trkpt lat="38.2004769" lon="15.6410754"><ele>58.0</ele><time>2026-05-01T05:57:15.98Z</time></trkpt><trkpt lat="38.2007987" lon="15.6409929"><ele>55.0</ele><time>2026-05-01T05:57:16.979Z</time></trkpt><trkpt lat="38.2011217" lon="15.6409276"><ele>55.0</ele><time>2026-05-01T05:57:17.98Z</time></trkpt><trkpt lat="38.201453" lon="15.640877"><ele>55.0</ele><time>2026-05-01T05:57:18.979Z</time></trkpt><trkpt lat="38.2017999" lon="15.6408361"><ele>56.0</ele><time>2026-05-01T05:57:19.979Z</time></trkpt><trkpt lat="38.2021577" lon="15.6408108"><ele>57.0</ele><time>2026-05-01T05:57:20.979Z</time></trkpt><trkpt lat="38.2025172" lon="15.6407952"><ele>56.5</ele><time>2026-05-01T05:57:21.979Z</time></trkpt><trkpt lat="38.2028867" lon="15.6407967"><ele>56.0</ele><time>2026-05-01T05:57:22.98Z</time></trkpt><trkpt lat="38.2032576" lon="15.6408163"><ele>56.0</ele><time>2026-05-01T05:57:23.979Z</time></trkpt><trkpt lat="38.2036372" lon="15.640839"><ele>56.0</ele><time>2026-05-01T05:57:24.979Z</time></trkpt><trkpt lat="38.2040197" lon="15.640851"><ele>54.5</ele><time>2026-05-01T05:57:25.979Z</time></trkpt><trkpt lat="38.2044004" lon="15.6408515"><ele>53.0</ele><time>2026-05-01T05:57:26.98Z</time></trkpt><trkpt lat="38.2047701" lon="15.6408614"><ele>53.0</ele><time>2026-05-01T05:57:27.979Z</time></trkpt><trkpt lat="38.2051278" lon="15.6408895"><ele>53.0</ele><time>2026-05-01T05:57:28.98Z</time></trkpt><trkpt lat="38.2054729" lon="15.6409342"><ele>55.0</ele><time>2026-05-01T05:57:29.979Z</time></trkpt><trkpt lat="38.2058061" lon="15.6409996"><ele>57.0</ele><time>2026-05-01T05:57:30.979Z</time></trkpt><trkpt lat="38.2061354" lon="15.6410736"><ele>59.0</ele><time>2026-05-01T05:57:31.98Z</time></trkpt><trkpt lat="38.2064635" lon="15.6411691"><ele>61.0</ele><time>2026-05-01T05:57:32.979Z</time></trkpt><trkpt lat="38.2067893" lon="15.6412793"><ele>61.0</ele><time>2026-05-01T05:57:33.98Z</time></trkpt><trkpt lat="38.2071172" lon="15.6414114"><ele>61.0</ele><time>2026-05-01T05:57:34.979Z</time></trkpt><trkpt lat="38.2074423" lon="15.6415567"><ele>58.0</ele><time>2026-05-01T05:57:35.979Z</time></trkpt><trkpt lat="38.2077576" lon="15.641715"><ele>55.0</ele><time>2026-05-01T05:57:36.979Z</time></trkpt><trkpt lat="38.2080644" lon="15.641885"><ele>58.0</ele><time>2026-05-01T05:57:37.979Z</time></trkpt><trkpt lat="38.2083492" lon="15.6420534"><ele>61.0</ele><time>2026-05-01T05:57:38.979Z</time></trkpt><trkpt lat="38.2085982" lon="15.6422142"><ele>61.0</ele><time>2026-05-01T05:57:39.979Z</time></trkpt><trkpt lat="38.2087952" lon="15.6423663"><ele>61.0</ele><time>2026-05-01T05:57:40.979Z</time></trkpt><trkpt lat="38.208956" lon="15.6425005"><ele>61.0</ele><time>2026-05-01T05:57:41.979Z</time></trkpt><trkpt lat="38.2091078" lon="15.6426385"><ele>62.33333333333333</ele><time>2026-05-01T05:57:42.98Z</time></trkpt><trkpt lat="38.2092709" lon="15.642765"><ele>63.66666666666667</ele><time>2026-05-01T05:57:43.979Z</time></trkpt><trkpt lat="38.2094214" lon="15.6428923"><ele>65.0</ele><time>2026-05-01T05:57:44.98Z</time></trkpt><trkpt lat="38.2095552" lon="15.643025"><ele>66.75</ele><time>2026-05-01T05:57:45.98Z</time></trkpt><trkpt lat="38.2096724" lon="15.6431401"><ele>68.5</ele><time>2026-05-01T05:57:46.979Z</time></trkpt><trkpt lat="38.20978" lon="15.6432356"><ele>70.25</ele><time>2026-05-01T05:57:47.979Z</time></trkpt><trkpt lat="38.2098663" lon="15.6433258"><ele>72.0</ele><time>2026-05-01T05:57:48.979Z</time></trkpt><trkpt lat="38.2099389" lon="15.6434039"><ele>72.33333333333333</ele><time>2026-05-01T05:57:49.979Z</time></trkpt><trkpt lat="38.2099943" lon="15.6434672"><ele>72.66666666666667</ele><time>2026-05-01T05:57:50.98Z</time></trkpt><trkpt lat="38.2100459" lon="15.6435226"><ele>73.0</ele><time>2026-05-01T05:57:51.979Z</time></trkpt><trkpt lat="38.2101298" lon="15.6436075"><ele>73.33333333333334</ele><time>2026-05-01T05:57:53.979Z</time></trkpt><trkpt lat="38.2101804" lon="15.6436635"><ele>73.66666666666667</ele><time>2026-05-01T05:57:54.979Z</time></trkpt><trkpt lat="38.210241" lon="15.6437403"><ele>74.0</ele><time>2026-05-01T05:57:55.979Z</time></trkpt><trkpt lat="38.2103322" lon="15.6438367"><ele>76.66666666666667</ele><time>2026-05-01T05:57:56.98Z</time></trkpt><trkpt lat="38.2104462" lon="15.6439573"><ele>79.33333333333333</ele><time>2026-05-01T05:57:57.98Z</time></trkpt><trkpt lat="38.2105733" lon="15.6440988"><ele>82.0</ele><time>2026-05-01T05:57:58.98Z</time></trkpt><trkpt lat="38.2107123" lon="15.6442444"><ele>82.0</ele><time>2026-05-01T05:57:59.979Z</time></trkpt><trkpt lat="38.2108534" lon="15.6443957"><ele>82.0</ele><time>2026-05-01T05:58:00.979Z</time></trkpt><trkpt lat="38.2110012" lon="15.6445478"><ele>82.0</ele><time>2026-05-01T05:58:01.98Z</time></trkpt><trkpt lat="38.2111497" lon="15.6447055"><ele>82.33333333333333</ele><time>2026-05-01T05:58:02.98Z</time></trkpt><trkpt lat="38.2112965" lon="15.6448608"><ele>82.66666666666667</ele><time>2026-05-01T05:58:03.98Z</time></trkpt><trkpt lat="38.2114365" lon="15.6450042"><ele>83.0</ele><time>2026-05-01T05:58:04.98Z</time></trkpt><trkpt lat="38.2115596" lon="15.6451391"><ele>83.0</ele><time>2026-05-01T05:58:05.979Z</time></trkpt><trkpt lat="38.2116734" lon="15.6452686"><ele>83.0</ele><time>2026-05-01T05:58:06.979Z</time></trkpt><trkpt lat="38.211793" lon="15.6453928"><ele>83.0</ele><time>2026-05-01T05:58:07.979Z</time></trkpt><trkpt lat="38.2119122" lon="15.645517"><ele>82.33333333333334</ele><time>2026-05-01T05:58:08.979Z</time></trkpt><trkpt lat="38.2120497" lon="15.6456574"><ele>81.66666666666667</ele><time>2026-05-01T05:58:09.979Z</time></trkpt><trkpt lat="38.2122079" lon="15.645814"><ele>81.0</ele><time>2026-05-01T05:58:10.979Z</time></trkpt><trkpt lat="38.2123921" lon="15.6459873"><ele>77.0</ele><time>2026-05-01T05:58:11.979Z</time></trkpt><trkpt lat="38.2125868" lon="15.6461694"><ele>73.0</ele><time>2026-05-01T05:58:12.979Z</time></trkpt><trkpt lat="38.2127858" lon="15.646347"><ele>73.0</ele><time>2026-05-01T05:58:13.979Z</time></trkpt><trkpt lat="38.2130008" lon="15.6465282"><ele>73.0</ele><time>2026-05-01T05:58:14.979Z</time></trkpt><trkpt lat="38.213229" lon="15.6467135"><ele>76.0</ele><time>2026-05-01T05:58:15.979Z</time></trkpt><trkpt lat="38.2134643" lon="15.6468859"><ele>79.0</ele><time>2026-05-01T05:58:16.979Z</time></trkpt><trkpt lat="38.2137116" lon="15.6470479"><ele>81.0</ele><time>2026-05-01T05:58:17.98Z</time></trkpt><trkpt lat="38.2139573" lon="15.6471922"><ele>83.0</ele><time>2026-05-01T05:58:18.98Z</time></trkpt><trkpt lat="38.2142066" lon="15.6473277"><ele>91.5</ele><time>2026-05-01T05:58:19.979Z</time></trkpt><trkpt lat="38.2144632" lon="15.6474627"><ele>100.0</ele><time>2026-05-01T05:58:20.979Z</time></trkpt><trkpt lat="38.2147147" lon="15.6475916"><ele>101.0</ele><time>2026-05-01T05:58:21.979Z</time></trkpt><trkpt lat="38.214976" lon="15.6477157"><ele>102.0</ele><time>2026-05-01T05:58:22.979Z</time></trkpt><trkpt lat="38.2152578" lon="15.6478008"><ele>106.5</ele><time>2026-05-01T05:58:23.979Z</time></trkpt><trkpt lat="38.2155325" lon="15.6478698"><ele>111.0</ele><time>2026-05-01T05:58:24.98Z</time></trkpt><trkpt lat="38.2158087" lon="15.6479221"><ele>112.0</ele><time>2026-05-01T05:58:25.979Z</time></trkpt><trkpt lat="38.2160769" lon="15.6479734"><ele>113.0</ele><time>2026-05-01T05:58:26.98Z</time></trkpt><trkpt lat="38.2163447" lon="15.648016"><ele>111.5</ele><time>2026-05-01T05:58:27.98Z</time></trkpt><trkpt lat="38.2166037" lon="15.6480595"><ele>110.0</ele><time>2026-05-01T05:58:28.98Z</time></trkpt><trkpt lat="38.2168537" lon="15.6480924"><ele>110.0</ele><time>2026-05-01T05:58:29.979Z</time></trkpt><trkpt lat="38.2171083" lon="15.6481169"><ele>110.0</ele><time>2026-05-01T05:58:30.979Z</time></trkpt><trkpt lat="38.2173675" lon="15.648127"><ele>111.5</ele><time>2026-05-01T05:58:31.979Z</time></trkpt><trkpt lat="38.2176351" lon="15.648123"><ele>113.0</ele><time>2026-05-01T05:58:32.98Z</time></trkpt><trkpt lat="38.2179168" lon="15.6481237"><ele>113.0</ele><time>2026-05-01T05:58:33.979Z</time></trkpt><trkpt lat="38.2182017" lon="15.6481041"><ele>113.0</ele><time>2026-05-01T05:58:34.979Z</time></trkpt><trkpt lat="38.2184809" lon="15.6480931"><ele>113.0</ele><time>2026-05-01T05:58:35.98Z</time></trkpt><trkpt lat="38.2187474" lon="15.6480661"><ele>113.0</ele><time>2026-05-01T05:58:36.98Z</time></trkpt><trkpt lat="38.2190069" lon="15.6480455"><ele>110.0</ele><time>2026-05-01T05:58:37.979Z</time></trkpt><trkpt lat="38.2192672" lon="15.6480269"><ele>107.0</ele><time>2026-05-01T05:58:38.979Z</time></trkpt><trkpt lat="38.2195383" lon="15.6480319"><ele>97.0</ele><time>2026-05-01T05:58:39.979Z</time></trkpt><trkpt lat="38.2198203" lon="15.648042"><ele>87.0</ele><time>2026-05-01T05:58:40.98Z</time></trkpt><trkpt lat="38.2201356" lon="15.6480512"><ele>87.0</ele><time>2026-05-01T05:58:41.98Z</time></trkpt><trkpt lat="38.2204592" lon="15.6480872"><ele>87.0</ele><time>2026-05-01T05:58:42.98Z</time></trkpt><trkpt lat="38.2207937" lon="15.648136"><ele>91.0</ele><time>2026-05-01T05:58:43.98Z</time></trkpt><trkpt lat="38.2211391" lon="15.6482014"><ele>95.0</ele><time>2026-05-01T05:58:44.979Z</time></trkpt><trkpt lat="38.2214914" lon="15.6482802"><ele>96.5</ele><time>2026-05-01T05:58:45.979Z</time></trkpt><trkpt lat="38.2218541" lon="15.6483614"><ele>98.0</ele><time>2026-05-01T05:58:46.98Z</time></trkpt><trkpt lat="38.2222214" lon="15.6484408"><ele>104.0</ele><time>2026-05-01T05:58:47.98Z</time></trkpt><trkpt lat="38.2225897" lon="15.6485209"><ele>110.0</ele><time>2026-05-01T05:58:48.979Z</time></trkpt><trkpt lat="38.222958" lon="15.6485973"><ele>111.5</ele><time>2026-05-01T05:58:49.979Z</time></trkpt><trkpt lat="38.2233265" lon="15.6486644"><ele>113.0</ele><time>2026-05-01T05:58:50.98Z</time></trkpt><trkpt lat="38.223695" lon="15.6487317"><ele>118.5</ele><time>2026-05-01T05:58:51.98Z</time></trkpt><trkpt lat="38.224063" lon="15.6487988"><ele>124.0</ele><time>2026-05-01T05:58:52.979Z</time></trkpt><trkpt lat="38.2287183" lon="15.6551"><ele>131.5</ele><time>2026-05-01T05:59:09.982Z</time></trkpt><trkpt lat="38.2289217" lon="15.6555325"><ele>139.0</ele><time>2026-05-01T05:59:10.982Z</time></trkpt><trkpt lat="38.2290716" lon="15.6559605"><ele>124.5</ele><time>2026-05-01T05:59:11.982Z</time></trkpt><trkpt lat="38.2292076" lon="15.6563925"><ele>110.0</ele><time>2026-05-01T05:59:12.983Z</time></trkpt><trkpt lat="38.2293423" lon="15.6568306"><ele>114.0</ele><time>2026-05-01T05:59:13.982Z</time></trkpt><trkpt lat="38.2294734" lon="15.657269"><ele>118.0</ele><time>2026-05-01T05:59:14.982Z</time></trkpt><trkpt lat="38.2295996" lon="15.6577087"><ele>119.5</ele><time>2026-05-01T05:59:15.983Z</time></trkpt><trkpt lat="38.2297303" lon="15.6581483"><ele>121.0</ele><time>2026-05-01T05:59:16.983Z</time></trkpt><trkpt lat="38.2298632" lon="15.6585869"><ele>110.0</ele><time>2026-05-01T05:59:17.982Z</time></trkpt><trkpt lat="38.2299921" lon="15.6590186"><ele>99.0</ele><time>2026-05-01T05:59:18.983Z</time></trkpt><trkpt lat="38.230119" lon="15.6594476"><ele>102.0</ele><time>2026-05-01T05:59:19.983Z</time></trkpt><trkpt lat="38.2302466" lon="15.6598655"><ele>105.0</ele><time>2026-05-01T05:59:20.983Z</time></trkpt><trkpt lat="38.2303746" lon="15.6602847"><ele>111.5</ele><time>2026-05-01T05:59:21.982Z</time></trkpt><trkpt lat="38.2305043" lon="15.6607018"><ele>118.0</ele><time>2026-05-01T05:59:22.982Z</time></trkpt><trkpt lat="38.2306278" lon="15.661125"><ele>112.5</ele><time>2026-05-01T05:59:23.982Z</time></trkpt><trkpt lat="38.2307472" lon="15.6615571"><ele>107.0</ele><time>2026-05-01T05:59:24.982Z</time></trkpt><trkpt lat="38.2308644" lon="15.661991"><ele>107.0</ele><time>2026-05-01T05:59:25.982Z</time></trkpt><trkpt lat="38.2309855" lon="15.6624249"><ele>107.0</ele><time>2026-05-01T05:59:26.982Z</time></trkpt><trkpt lat="38.2311086" lon="15.6628659"><ele>110.0</ele><time>2026-05-01T05:59:27.983Z</time></trkpt><trkpt lat="38.2312378" lon="15.6633068"><ele>113.0</ele><time>2026-05-01T05:59:28.983Z</time></trkpt><trkpt lat="38.2313665" lon="15.6637531"><ele>105.5</ele><time>2026-05-01T05:59:29.983Z</time></trkpt><trkpt lat="38.2315" lon="15.6642009"><ele>98.0</ele><time>2026-05-01T05:59:30.984Z</time></trkpt><trkpt lat="38.2316335" lon="15.6646382"><ele>98.0</ele><time>2026-05-01T05:59:31.983Z</time></trkpt><trkpt lat="38.2317716" lon="15.6650797"><ele>98.0</ele><time>2026-05-01T05:59:32.983Z</time></trkpt><trkpt lat="38.2319196" lon="15.6655167"><ele>103.0</ele><time>2026-05-01T05:59:33.984Z</time></trkpt><trkpt lat="38.2320677" lon="15.6659474"><ele>108.0</ele><time>2026-05-01T05:59:34.984Z</time></trkpt><trkpt lat="38.2322183" lon="15.6663798"><ele>107.5</ele><time>2026-05-01T05:59:35.983Z</time></trkpt><trkpt lat="38.2323631" lon="15.6668116"><ele>107.0</ele><time>2026-05-01T05:59:36.984Z</time></trkpt><trkpt lat="38.2325151" lon="15.6672374"><ele>107.0</ele><time>2026-05-01T05:59:37.983Z</time></trkpt><trkpt lat="38.2326529" lon="15.6676713"><ele>107.0</ele><time>2026-05-01T05:59:38.983Z</time></trkpt><trkpt lat="38.232794" lon="15.6681051"><ele>108.0</ele><time>2026-05-01T05:59:39.983Z</time></trkpt><trkpt lat="38.2329385" lon="15.668543"><ele>109.0</ele><time>2026-05-01T05:59:40.983Z</time></trkpt><trkpt lat="38.2330765" lon="15.6689801"><ele>107.5</ele><time>2026-05-01T05:59:41.984Z</time></trkpt><trkpt lat="38.2332162" lon="15.669421"><ele>106.0</ele><time>2026-05-01T05:59:42.983Z</time></trkpt><trkpt lat="38.2333632" lon="15.6698615"><ele>115.5</ele><time>2026-05-01T05:59:43.983Z</time></trkpt><trkpt lat="38.2335073" lon="15.6702989"><ele>125.0</ele><time>2026-05-01T05:59:44.983Z</time></trkpt><trkpt lat="38.2336628" lon="15.670738"><ele>128.0</ele><time>2026-05-01T05:59:45.984Z</time></trkpt><trkpt lat="38.2338351" lon="15.6711652"><ele>131.0</ele><time>2026-05-01T05:59:46.983Z</time></trkpt><trkpt lat="38.2340095" lon="15.6715863"><ele>128.5</ele><time>2026-05-01T05:59:47.984Z</time></trkpt><trkpt lat="38.2341931" lon="15.672008"><ele>126.0</ele><time>2026-05-01T05:59:48.984Z</time></trkpt><trkpt lat="38.2343747" lon="15.6724208"><ele>130.5</ele><time>2026-05-01T05:59:49.984Z</time></trkpt><trkpt lat="38.2345577" lon="15.6728337"><ele>135.0</ele><time>2026-05-01T05:59:50.983Z</time></trkpt><trkpt lat="38.2347438" lon="15.6732543"><ele>128.5</ele><time>2026-05-01T05:59:51.983Z</time></trkpt><trkpt lat="38.234932" lon="15.6736718"><ele>122.0</ele><time>2026-05-01T05:59:52.983Z</time></trkpt><trkpt lat="38.2351233" lon="15.6740905"><ele>128.0</ele><time>2026-05-01T05:59:53.983Z</time></trkpt><trkpt lat="38.2353164" lon="15.6745147"><ele>134.0</ele><time>2026-05-01T05:59:54.983Z</time></trkpt><trkpt lat="38.235503" lon="15.6749458"><ele>117.5</ele><time>2026-05-01T05:59:55.983Z</time></trkpt><trkpt lat="38.2356869" lon="15.6753791"><ele>101.0</ele><time>2026-05-01T05:59:56.983Z</time></trkpt><trkpt lat="38.2358732" lon="15.6758054"><ele>112.0</ele><time>2026-05-01T05:59:57.984Z</time></trkpt><trkpt lat="38.2360596" lon="15.6762318"><ele>123.0</ele><time>2026-05-01T05:59:58.983Z</time></trkpt><trkpt lat="38.2362489" lon="15.6766551"><ele>123.0</ele><time>2026-05-01T05:59:59.983Z</time></trkpt><trkpt lat="38.2364462" lon="15.6770654"><ele>123.0</ele><time>2026-05-01T06:00:00.984Z</time></trkpt><trkpt lat="38.2366472" lon="15.6774505"><ele>132.5</ele><time>2026-05-01T06:00:01.983Z</time></trkpt><trkpt lat="38.2368514" lon="15.6778173"><ele>142.0</ele><time>2026-05-01T06:00:02.983Z</time></trkpt><trkpt lat="38.2370674" lon="15.6781735"><ele>142.0</ele><time>2026-05-01T06:00:03.983Z</time></trkpt><trkpt lat="38.2372934" lon="15.678515"><ele>142.0</ele><time>2026-05-01T06:00:04.983Z</time></trkpt><trkpt lat="38.2375249" lon="15.6788403"><ele>137.5</ele><time>2026-05-01T06:00:05.983Z</time></trkpt><trkpt lat="38.2377591" lon="15.6791451"><ele>133.0</ele><time>2026-05-01T06:00:06.983Z</time></trkpt><trkpt lat="38.2380102" lon="15.6794308"><ele>119.5</ele><time>2026-05-01T06:00:07.983Z</time></trkpt><trkpt lat="38.2382695" lon="15.6797136"><ele>106.0</ele><time>2026-05-01T06:00:08.983Z</time></trkpt><trkpt lat="38.2385511" lon="15.6799831"><ele>106.0</ele><time>2026-05-01T06:00:09.983Z</time></trkpt><trkpt lat="38.2388491" lon="15.6802421"><ele>106.0</ele><time>2026-05-01T06:00:10.983Z</time></trkpt><trkpt lat="38.2391559" lon="15.6804974"><ele>111.0</ele><time>2026-05-01T06:00:11.983Z</time></trkpt><trkpt lat="38.2394586" lon="15.6807598"><ele>116.0</ele><time>2026-05-01T06:00:12.983Z</time></trkpt><trkpt lat="38.2397687" lon="15.6810144"><ele>130.0</ele><time>2026-05-01T06:00:13.983Z</time></trkpt><trkpt lat="38.2400833" lon="15.6812683"><ele>144.0</ele><time>2026-05-01T06:00:14.983Z</time></trkpt><trkpt lat="38.2403865" lon="15.6815312"><ele>139.5</ele><time>2026-05-01T06:00:15.983Z</time></trkpt><trkpt lat="38.2406736" lon="15.6818121"><ele>135.0</ele><time>2026-05-01T06:00:16.984Z</time></trkpt><trkpt lat="38.2409612" lon="15.6820948"><ele>139.5</ele><time>2026-05-01T06:00:17.984Z</time></trkpt><trkpt lat="38.2412463" lon="15.6823824"><ele>144.0</ele><time>2026-05-01T06:00:18.984Z</time></trkpt><trkpt lat="38.2415294" lon="15.6826764"><ele>155.5</ele><time>2026-05-01T06:00:19.983Z</time></trkpt><trkpt lat="38.2418109" lon="15.6829853"><ele>167.0</ele><time>2026-05-01T06:00:20.983Z</time></trkpt><trkpt lat="38.2420833" lon="15.6832933"><ele>181.5</ele><time>2026-05-01T06:00:21.983Z</time></trkpt><trkpt lat="38.2423502" lon="15.6836006"><ele>196.0</ele><time>2026-05-01T06:00:22.983Z</time></trkpt><trkpt lat="38.2426166" lon="15.6839015"><ele>196.0</ele><time>2026-05-01T06:00:23.984Z</time></trkpt><trkpt lat="38.2429079" lon="15.6841752"><ele>196.0</ele><time>2026-05-01T06:00:24.984Z</time></trkpt><trkpt lat="38.243206" lon="15.6844432"><ele>206.5</ele><time>2026-05-01T06:00:25.983Z</time></trkpt><trkpt lat="38.2434924" lon="15.6847272"><ele>217.0</ele><time>2026-05-01T06:00:26.984Z</time></trkpt><trkpt lat="38.24453" lon="15.6893633"><ele>167.5</ele><time>2026-05-01T06:00:35.983Z</time></trkpt><trkpt lat="38.244656" lon="15.6897869"><ele>118.0</ele><time>2026-05-01T06:00:36.983Z</time></trkpt><trkpt lat="38.2447849" lon="15.6902136"><ele>141.5</ele><time>2026-05-01T06:00:37.984Z</time></trkpt><trkpt lat="38.2449299" lon="15.6906302"><ele>165.0</ele><time>2026-05-01T06:00:38.983Z</time></trkpt><trkpt lat="38.2450861" lon="15.6910391"><ele>188.5</ele><time>2026-05-01T06:00:39.983Z</time></trkpt><trkpt lat="38.2452452" lon="15.6914435"><ele>212.0</ele><time>2026-05-01T06:00:40.983Z</time></trkpt><trkpt lat="38.2454023" lon="15.6918483"><ele>233.5</ele><time>2026-05-01T06:00:41.984Z</time></trkpt><trkpt lat="38.245556" lon="15.6922577"><ele>255.0</ele><time>2026-05-01T06:00:42.983Z</time></trkpt><trkpt lat="38.2483633" lon="15.7149167"><ele>193.0</ele><time>2026-05-01T06:01:33.981Z</time></trkpt><trkpt lat="38.2484011" lon="15.7153865"><ele>131.0</ele><time>2026-05-01T06:01:34.981Z</time></trkpt><trkpt lat="38.2484428" lon="15.7158582"><ele>143.0</ele><time>2026-05-01T06:01:35.981Z</time></trkpt><trkpt lat="38.2484891" lon="15.7163303"><ele>155.0</ele><time>2026-05-01T06:01:36.98Z</time></trkpt><trkpt lat="38.2485174" lon="15.7167989"><ele>158.0</ele><time>2026-05-01T06:01:37.981Z</time></trkpt><trkpt lat="38.2485492" lon="15.7172637"><ele>161.0</ele><time>2026-05-01T06:01:38.98Z</time></trkpt><trkpt lat="38.2485595" lon="15.7177311"><ele>157.5</ele><time>2026-05-01T06:01:39.98Z</time></trkpt><trkpt lat="38.2485639" lon="15.7181949"><ele>154.0</ele><time>2026-05-01T06:01:40.98Z</time></trkpt><trkpt lat="38.2485533" lon="15.7186697"><ele>152.0</ele><time>2026-05-01T06:01:41.98Z</time></trkpt><trkpt lat="38.2485303" lon="15.7191551"><ele>150.0</ele><time>2026-05-01T06:01:42.98Z</time></trkpt><trkpt lat="38.2485132" lon="15.7196278"><ele>149.5</ele><time>2026-05-01T06:01:43.98Z</time></trkpt><trkpt lat="38.2484963" lon="15.7201146"><ele>149.0</ele><time>2026-05-01T06:01:44.981Z</time></trkpt><trkpt lat="38.2484704" lon="15.7205884"><ele>145.5</ele><time>2026-05-01T06:01:45.981Z</time></trkpt><trkpt lat="38.2484555" lon="15.7210682"><ele>142.0</ele><time>2026-05-01T06:01:46.98Z</time></trkpt><trkpt lat="38.2484417" lon="15.7215531"><ele>141.5</ele><time>2026-05-01T06:01:47.98Z</time></trkpt><trkpt lat="38.2484317" lon="15.7220392"><ele>141.0</ele><time>2026-05-01T06:01:48.98Z</time></trkpt><trkpt lat="38.2484292" lon="15.7225181"><ele>145.0</ele><time>2026-05-01T06:01:49.981Z</time></trkpt><trkpt lat="38.2484263" lon="15.7229983"><ele>149.0</ele><time>2026-05-01T06:01:50.98Z</time></trkpt><trkpt lat="38.2484232" lon="15.7234792"><ele>149.5</ele><time>2026-05-01T06:01:51.981Z</time></trkpt><trkpt lat="38.2484164" lon="15.7239584"><ele>150.0</ele><time>2026-05-01T06:01:52.98Z</time></trkpt><trkpt lat="38.2484132" lon="15.724436"><ele>152.0</ele><time>2026-05-01T06:01:53.98Z</time></trkpt><trkpt lat="38.2484112" lon="15.7249184"><ele>154.0</ele><time>2026-05-01T06:01:54.98Z</time></trkpt><trkpt lat="38.2484169" lon="15.725407"><ele>154.0</ele><time>2026-05-01T06:01:55.98Z</time></trkpt><trkpt lat="38.2484259" lon="15.7258939"><ele>154.0</ele><time>2026-05-01T06:01:56.981Z</time></trkpt><trkpt lat="38.2484361" lon="15.7263808"><ele>147.5</ele><time>2026-05-01T06:01:57.98Z</time></trkpt><trkpt lat="38.2484463" lon="15.7268658"><ele>141.0</ele><time>2026-05-01T06:01:58.98Z</time></trkpt><trkpt lat="38.248461" lon="15.7273466"><ele>149.5</ele><time>2026-05-01T06:01:59.98Z</time></trkpt><trkpt lat="38.2484771" lon="15.7278213"><ele>158.0</ele><time>2026-05-01T06:02:00.98Z</time></trkpt><trkpt lat="38.2484918" lon="15.7282915"><ele>161.5</ele><time>2026-05-01T06:02:01.98Z</time></trkpt><trkpt lat="38.248504" lon="15.7287665"><ele>165.0</ele><time>2026-05-01T06:02:02.98Z</time></trkpt><trkpt lat="38.2485168" lon="15.7292386"><ele>169.0</ele><time>2026-05-01T06:02:03.98Z</time></trkpt><trkpt lat="38.2485231" lon="15.729709"><ele>173.0</ele><time>2026-05-01T06:02:04.981Z</time></trkpt><trkpt lat="38.2485262" lon="15.7301841"><ele>170.0</ele><time>2026-05-01T06:02:05.98Z</time></trkpt><trkpt lat="38.2485329" lon="15.7306597"><ele>167.0</ele><time>2026-05-01T06:02:06.98Z</time></trkpt><trkpt lat="38.2485385" lon="15.7311426"><ele>168.0</ele><time>2026-05-01T06:02:07.98Z</time></trkpt><trkpt lat="38.2485471" lon="15.7316266"><ele>169.0</ele><time>2026-05-01T06:02:08.981Z</time></trkpt><trkpt lat="38.2485521" lon="15.7321106"><ele>169.0</ele><time>2026-05-01T06:02:09.98Z</time></trkpt><trkpt lat="38.2485548" lon="15.7325885"><ele>169.0</ele><time>2026-05-01T06:02:10.98Z</time></trkpt><trkpt lat="38.2485637" lon="15.7330746"><ele>198.5</ele><time>2026-05-01T06:02:11.981Z</time></trkpt><trkpt lat="38.2485696" lon="15.7335614"><ele>228.0</ele><time>2026-05-01T06:02:12.98Z</time></trkpt><trkpt lat="38.2485728" lon="15.734047"><ele>235.5</ele><time>2026-05-01T06:02:13.98Z</time></trkpt><trkpt lat="38.2485682" lon="15.7345145"><ele>243.0</ele><time>2026-05-01T06:02:14.981Z</time></trkpt><trkpt lat="38.2485663" lon="15.7349863"><ele>252.5</ele><time>2026-05-01T06:02:15.981Z</time></trkpt><trkpt lat="38.2485708" lon="15.7354647"><ele>262.0</ele><time>2026-05-01T06:02:16.98Z</time></trkpt><trkpt lat="38.2485751" lon="15.7359427"><ele>207.0</ele><time>2026-05-01T06:02:17.98Z</time></trkpt><trkpt lat="38.250472" lon="15.7446742"><ele>207.0</ele><time>2026-05-01T06:02:37.981Z</time></trkpt><trkpt lat="38.2505295" lon="15.7450846"><ele>207.0</ele><time>2026-05-01T06:02:38.981Z</time></trkpt><trkpt lat="38.2505891" lon="15.7454963"><ele>211.0</ele><time>2026-05-01T06:02:39.982Z</time></trkpt><trkpt lat="38.2506504" lon="15.745903"><ele>215.0</ele><time>2026-05-01T06:02:40.982Z</time></trkpt><trkpt lat="38.2507109" lon="15.74632"><ele>230.0</ele><time>2026-05-01T06:02:41.981Z</time></trkpt><trkpt lat="38.2507713" lon="15.746739"><ele>245.0</ele><time>2026-05-01T06:02:42.981Z</time></trkpt><trkpt lat="38.2508308" lon="15.7471523"><ele>258.0</ele><time>2026-05-01T06:02:43.981Z</time></trkpt><trkpt lat="38.2508939" lon="15.7475664"><ele>271.0</ele><time>2026-05-01T06:02:44.982Z</time></trkpt><trkpt lat="38.2509635" lon="15.7479732"><ele>287.0</ele><time>2026-05-01T06:02:45.981Z</time></trkpt><trkpt lat="38.25103" lon="15.7483868"><ele>303.0</ele><time>2026-05-01T06:02:46.981Z</time></trkpt><trkpt lat="38.2510968" lon="15.7487997"><ele>193.0</ele><time>2026-05-01T06:02:47.981Z</time></trkpt><trkpt lat="38.25399" lon="15.7669717"><ele>193.0</ele><time>2026-05-01T06:03:26.979Z</time></trkpt><trkpt lat="38.2541519" lon="15.7673885"><ele>193.0</ele><time>2026-05-01T06:03:27.979Z</time></trkpt><trkpt lat="38.2543297" lon="15.7678012"><ele>195.5</ele><time>2026-05-01T06:03:28.979Z</time></trkpt><trkpt lat="38.2545093" lon="15.7681996"><ele>198.0</ele><time>2026-05-01T06:03:29.979Z</time></trkpt><trkpt lat="38.2546914" lon="15.7685913"><ele>217.5</ele><time>2026-05-01T06:03:30.979Z</time></trkpt><trkpt lat="38.2548761" lon="15.7689783"><ele>237.0</ele><time>2026-05-01T06:03:31.98Z</time></trkpt><trkpt lat="38.2550608" lon="15.7693571"><ele>258.0</ele><time>2026-05-01T06:03:32.979Z</time></trkpt><trkpt lat="38.2552497" lon="15.7697327"><ele>279.0</ele><time>2026-05-01T06:03:33.98Z</time></trkpt><trkpt lat="38.2554479" lon="15.7701019"><ele>307.0</ele><time>2026-05-01T06:03:34.979Z</time></trkpt><trkpt lat="38.2556506" lon="15.7704757"><ele>335.0</ele><time>2026-05-01T06:03:35.979Z</time></trkpt><trkpt lat="38.2558539" lon="15.7708605"><ele>360.0</ele><time>2026-05-01T06:03:36.979Z</time></trkpt><trkpt lat="38.2560525" lon="15.7712477"><ele>385.0</ele><time>2026-05-01T06:03:37.979Z</time></trkpt><trkpt lat="38.2562509" lon="15.771638"><ele>413.0</ele><time>2026-05-01T06:03:38.98Z</time></trkpt><trkpt lat="38.2564441" lon="15.772019"><ele>441.0</ele><time>2026-05-01T06:03:39.979Z</time></trkpt><trkpt lat="38.2566383" lon="15.772398"><ele>469.5</ele><time>2026-05-01T06:03:40.979Z</time></trkpt><trkpt lat="38.2568358" lon="15.7727755"><ele>498.0</ele><time>2026-05-01T06:03:41.979Z</time></trkpt><trkpt lat="38.2622033" lon="15.779955"><ele>454.0</ele><time>2026-05-01T06:04:02.982Z</time></trkpt><trkpt lat="38.2624295" lon="15.7803415"><ele>410.0</ele><time>2026-05-01T06:04:03.982Z</time></trkpt><trkpt lat="38.2626457" lon="15.7807281"><ele>281.0</ele><time>2026-05-01T06:04:04.981Z</time></trkpt><trkpt lat="38.2702954" lon="15.8003438"><ele>281.0</ele><time>2026-05-01T06:04:50.98Z</time></trkpt><trkpt lat="38.2704091" lon="15.8007391"><ele>281.0</ele><time>2026-05-01T06:04:51.98Z</time></trkpt><trkpt lat="38.2705137" lon="15.8011496"><ele>260.5</ele><time>2026-05-01T06:04:52.98Z</time></trkpt><trkpt lat="38.2706279" lon="15.8015803"><ele>240.0</ele><time>2026-05-01T06:04:53.98Z</time></trkpt><trkpt lat="38.270751" lon="15.8020116"><ele>220.0</ele><time>2026-05-01T06:04:54.98Z</time></trkpt><trkpt lat="38.2708783" lon="15.8024462"><ele>200.0</ele><time>2026-05-01T06:04:55.981Z</time></trkpt><trkpt lat="38.2710078" lon="15.8028858"><ele>194.5</ele><time>2026-05-01T06:04:56.981Z</time></trkpt><trkpt lat="38.2711379" lon="15.8033212"><ele>189.0</ele><time>2026-05-01T06:04:57.98Z</time></trkpt><trkpt lat="38.271273" lon="15.8037712"><ele>207.5</ele><time>2026-05-01T06:04:58.981Z</time></trkpt><trkpt lat="38.2714137" lon="15.8042169"><ele>226.0</ele><time>2026-05-01T06:04:59.98Z</time></trkpt><trkpt lat="38.2715492" lon="15.804658"><ele>257.5</ele><time>2026-05-01T06:05:00.98Z</time></trkpt><trkpt lat="38.2716748" lon="15.8050981"><ele>289.0</ele><time>2026-05-01T06:05:01.981Z</time></trkpt><trkpt lat="38.2717954" lon="15.8055408"><ele>304.0</ele><time>2026-05-01T06:05:02.98Z</time></trkpt><trkpt lat="38.2719154" lon="15.805989"><ele>319.0</ele><time>2026-05-01T06:05:03.98Z</time></trkpt><trkpt lat="38.2720392" lon="15.8064403"><ele>358.0</ele><time>2026-05-01T06:05:04.98Z</time></trkpt><trkpt lat="38.272166" lon="15.8068946"><ele>397.0</ele><time>2026-05-01T06:05:05.981Z</time></trkpt><trkpt lat="38.2722899" lon="15.8073522"><ele>430.5</ele><time>2026-05-01T06:05:06.981Z</time></trkpt><trkpt lat="38.2724135" lon="15.807805"><ele>464.0</ele><time>2026-05-01T06:05:07.98Z</time></trkpt><trkpt lat="38.2725365" lon="15.8082509"><ele>480.5</ele><time>2026-05-01T06:05:08.981Z</time></trkpt><trkpt lat="38.2726597" lon="15.8086951"><ele>497.0</ele><time>2026-05-01T06:05:09.98Z</time></trkpt><trkpt lat="38.272778" lon="15.8091363"><ele>507.0</ele><time>2026-05-01T06:05:10.98Z</time></trkpt><trkpt lat="38.2728894" lon="15.8095795"><ele>517.0</ele><time>2026-05-01T06:05:11.98Z</time></trkpt><trkpt lat="38.2730015" lon="15.8100288"><ele>521.5</ele><time>2026-05-01T06:05:12.981Z</time></trkpt><trkpt lat="38.2731153" lon="15.8104775"><ele>526.0</ele><time>2026-05-01T06:05:13.981Z</time></trkpt><trkpt lat="38.273231" lon="15.8109234"><ele>530.0</ele><time>2026-05-01T06:05:14.98Z</time></trkpt><trkpt lat="38.273336" lon="15.8113674"><ele>534.0</ele><time>2026-05-01T06:05:15.98Z</time></trkpt><trkpt lat="38.2734501" lon="15.8118128"><ele>497.0</ele><time>2026-05-01T06:05:16.981Z</time></trkpt><trkpt lat="38.29118" lon="15.8356967"><ele>498.5</ele><time>2026-05-01T06:06:27.981Z</time></trkpt><trkpt lat="38.2913125" lon="15.8359854"><ele>500.0</ele><time>2026-05-01T06:06:28.981Z</time></trkpt><trkpt lat="38.2914311" lon="15.836255"><ele>500.0</ele><time>2026-05-01T06:06:29.981Z</time></trkpt><trkpt lat="38.2915697" lon="15.8365096"><ele>500.0</ele><time>2026-05-01T06:06:30.98Z</time></trkpt><trkpt lat="38.2917142" lon="15.8367718"><ele>503.5</ele><time>2026-05-01T06:06:31.981Z</time></trkpt><trkpt lat="38.2918561" lon="15.8370345"><ele>507.0</ele><time>2026-05-01T06:06:32.98Z</time></trkpt><trkpt lat="38.2920001" lon="15.8373018"><ele>507.0</ele><time>2026-05-01T06:06:33.98Z</time></trkpt><trkpt lat="38.2921443" lon="15.8375663"><ele>507.0</ele><time>2026-05-01T06:06:34.98Z</time></trkpt><trkpt lat="38.2928314" lon="15.8387334"><ele>504.0</ele><time>2026-05-01T06:06:39.981Z</time></trkpt><trkpt lat="38.2929731" lon="15.8389595"><ele>501.0</ele><time>2026-05-01T06:06:40.98Z</time></trkpt><trkpt lat="38.2931266" lon="15.8391499"><ele>498.0</ele><time>2026-05-01T06:06:41.981Z</time></trkpt><trkpt lat="38.2932909" lon="15.8393469"><ele>493.0</ele><time>2026-05-01T06:06:42.98Z</time></trkpt><trkpt lat="38.2934498" lon="15.8395489"><ele>488.0</ele><time>2026-05-01T06:06:43.98Z</time></trkpt><trkpt lat="38.2936006" lon="15.8397401"><ele>483.0</ele><time>2026-05-01T06:06:44.98Z</time></trkpt><trkpt lat="38.2937506" lon="15.8399401"><ele>487.33333333333337</ele><time>2026-05-01T06:06:45.98Z</time></trkpt><trkpt lat="38.2939018" lon="15.840136"><ele>491.6666666666667</ele><time>2026-05-01T06:06:46.981Z</time></trkpt><trkpt lat="38.2940599" lon="15.8403243"><ele>496.0</ele><time>2026-05-01T06:06:47.98Z</time></trkpt><trkpt lat="38.2942191" lon="15.8404999"><ele>497.0</ele><time>2026-05-01T06:06:48.98Z</time></trkpt><trkpt lat="38.2943757" lon="15.840671"><ele>498.0</ele><time>2026-05-01T06:06:49.98Z</time></trkpt><trkpt lat="38.2945284" lon="15.840831"><ele>499.0</ele><time>2026-05-01T06:06:50.98Z</time></trkpt><trkpt lat="38.294686" lon="15.840988"><ele>509.33333333333337</ele><time>2026-05-01T06:06:51.98Z</time></trkpt><trkpt lat="38.2948467" lon="15.841141"><ele>519.6666666666666</ele><time>2026-05-01T06:06:52.98Z</time></trkpt><trkpt lat="38.295012" lon="15.8412934"><ele>530.0</ele><time>2026-05-01T06:06:53.98Z</time></trkpt><trkpt lat="38.2951775" lon="15.841455"><ele>558.0</ele><time>2026-05-01T06:06:54.98Z</time></trkpt><trkpt lat="38.2959824" lon="15.8422318"><ele>501.0</ele><time>2026-05-01T06:07:00.099Z</time></trkpt><trkpt lat="38.3024533" lon="15.843925"><ele>501.0</ele><time>2026-05-01T06:07:30.981Z</time></trkpt><trkpt lat="38.3026539" lon="15.8439453"><ele>501.0</ele><time>2026-05-01T06:07:31.98Z</time></trkpt><trkpt lat="38.302853" lon="15.8439548"><ele>501.0</ele><time>2026-05-01T06:07:32.981Z</time></trkpt><trkpt lat="38.3030518" lon="15.8439677"><ele>500.0</ele><time>2026-05-01T06:07:33.98Z</time></trkpt><trkpt lat="38.303258" lon="15.8439763"><ele>499.0</ele><time>2026-05-01T06:07:34.981Z</time></trkpt><trkpt lat="38.3034653" lon="15.844"><ele>498.0</ele><time>2026-05-01T06:07:35.98Z</time></trkpt><trkpt lat="38.3036669" lon="15.8440372"><ele>498.0</ele><time>2026-05-01T06:07:36.98Z</time></trkpt><trkpt lat="38.3038688" lon="15.8440694"><ele>498.0</ele><time>2026-05-01T06:07:37.98Z</time></trkpt><trkpt lat="38.3040771" lon="15.8440876"><ele>498.0</ele><time>2026-05-01T06:07:38.98Z</time></trkpt><trkpt lat="38.3042871" lon="15.8441117"><ele>496.0</ele><time>2026-05-01T06:07:39.98Z</time></trkpt><trkpt lat="38.3045035" lon="15.8441409"><ele>494.0</ele><time>2026-05-01T06:07:40.981Z</time></trkpt><trkpt lat="38.3047183" lon="15.8441709"><ele>492.0</ele><time>2026-05-01T06:07:41.98Z</time></trkpt><trkpt lat="38.3049345" lon="15.8441928"><ele>491.0</ele><time>2026-05-01T06:07:42.981Z</time></trkpt><trkpt lat="38.3051512" lon="15.8442144"><ele>490.0</ele><time>2026-05-01T06:07:43.981Z</time></trkpt><trkpt lat="38.3053635" lon="15.8442416"><ele>489.0</ele><time>2026-05-01T06:07:44.98Z</time></trkpt><trkpt lat="38.305572" lon="15.8442603"><ele>488.66666666666663</ele><time>2026-05-01T06:07:45.981Z</time></trkpt><trkpt lat="38.3057846" lon="15.8442775"><ele>488.3333333333333</ele><time>2026-05-01T06:07:46.98Z</time></trkpt><trkpt lat="38.3059907" lon="15.8443022"><ele>488.0</ele><time>2026-05-01T06:07:47.98Z</time></trkpt><trkpt lat="38.3061973" lon="15.8443292"><ele>488.66666666666663</ele><time>2026-05-01T06:07:48.98Z</time></trkpt><trkpt lat="38.3064052" lon="15.8443525"><ele>489.33333333333337</ele><time>2026-05-01T06:07:49.981Z</time></trkpt><trkpt lat="38.306617" lon="15.8443688"><ele>490.0</ele><time>2026-05-01T06:07:50.98Z</time></trkpt><trkpt lat="38.3068304" lon="15.8443749"><ele>488.6666666666667</ele><time>2026-05-01T06:07:51.98Z</time></trkpt><trkpt lat="38.3070483" lon="15.8443766"><ele>487.33333333333337</ele><time>2026-05-01T06:07:52.98Z</time></trkpt><trkpt lat="38.3072665" lon="15.844378"><ele>486.0</ele><time>2026-05-01T06:07:53.98Z</time></trkpt><trkpt lat="38.3074877" lon="15.8443771"><ele>485.33333333333337</ele><time>2026-05-01T06:07:54.98Z</time></trkpt><trkpt lat="38.3077068" lon="15.8443721"><ele>484.6666666666667</ele><time>2026-05-01T06:07:55.98Z</time></trkpt><trkpt lat="38.3079218" lon="15.8443634"><ele>484.0</ele><time>2026-05-01T06:07:56.981Z</time></trkpt><trkpt lat="38.3081296" lon="15.8443524"><ele>483.6666666666667</ele><time>2026-05-01T06:07:57.98Z</time></trkpt><trkpt lat="38.3083457" lon="15.8443394"><ele>483.33333333333337</ele><time>2026-05-01T06:07:58.98Z</time></trkpt><trkpt lat="38.3085631" lon="15.8443179"><ele>483.0</ele><time>2026-05-01T06:07:59.98Z</time></trkpt><trkpt lat="38.3087764" lon="15.8442891"><ele>482.33333333333337</ele><time>2026-05-01T06:08:00.981Z</time></trkpt><trkpt lat="38.3089845" lon="15.8442593"><ele>481.6666666666667</ele><time>2026-05-01T06:08:01.981Z</time></trkpt><trkpt lat="38.3091865" lon="15.8442304"><ele>481.0</ele><time>2026-05-01T06:08:02.98Z</time></trkpt><trkpt lat="38.309389" lon="15.8441997"><ele>481.0</ele><time>2026-05-01T06:08:03.981Z</time></trkpt><trkpt lat="38.3096012" lon="15.8441819"><ele>481.0</ele><time>2026-05-01T06:08:04.98Z</time></trkpt><trkpt lat="38.3098151" lon="15.844143"><ele>481.0</ele><time>2026-05-01T06:08:05.98Z</time></trkpt><trkpt lat="38.3100251" lon="15.8440984"><ele>480.6666666666667</ele><time>2026-05-01T06:08:06.98Z</time></trkpt><trkpt lat="38.3102336" lon="15.8440488"><ele>480.33333333333337</ele><time>2026-05-01T06:08:07.981Z</time></trkpt><trkpt lat="38.3104384" lon="15.8440066"><ele>480.0</ele><time>2026-05-01T06:08:08.981Z</time></trkpt><trkpt lat="38.3106394" lon="15.8439613"><ele>479.33333333333337</ele><time>2026-05-01T06:08:09.981Z</time></trkpt><trkpt lat="38.3108416" lon="15.8439161"><ele>478.6666666666667</ele><time>2026-05-01T06:08:10.98Z</time></trkpt><trkpt lat="38.3110454" lon="15.8438651"><ele>478.0</ele><time>2026-05-01T06:08:11.98Z</time></trkpt><trkpt lat="38.3112512" lon="15.8438099"><ele>477.33333333333337</ele><time>2026-05-01T06:08:12.981Z</time></trkpt><trkpt lat="38.3114553" lon="15.8437514"><ele>476.66666666666663</ele><time>2026-05-01T06:08:13.981Z</time></trkpt><trkpt lat="38.3116563" lon="15.8436942"><ele>476.0</ele><time>2026-05-01T06:08:14.98Z</time></trkpt><trkpt lat="38.3118566" lon="15.8436325"><ele>476.0</ele><time>2026-05-01T06:08:15.98Z</time></trkpt><trkpt lat="38.3120519" lon="15.8435719"><ele>476.0</ele><time>2026-05-01T06:08:16.98Z</time></trkpt><trkpt lat="38.3122426" lon="15.8435141"><ele>476.0</ele><time>2026-05-01T06:08:17.981Z</time></trkpt><trkpt lat="38.3124345" lon="15.8434563"><ele>477.0</ele><time>2026-05-01T06:08:18.981Z</time></trkpt><trkpt lat="38.3126232" lon="15.8434012"><ele>478.0</ele><time>2026-05-01T06:08:19.981Z</time></trkpt><trkpt lat="38.3128158" lon="15.8433379"><ele>479.0</ele><time>2026-05-01T06:08:20.98Z</time></trkpt><trkpt lat="38.3130065" lon="15.8432696"><ele>480.0</ele><time>2026-05-01T06:08:21.98Z</time></trkpt><trkpt lat="38.3131921" lon="15.8432002"><ele>481.0</ele><time>2026-05-01T06:08:22.98Z</time></trkpt><trkpt lat="38.3133774" lon="15.8431348"><ele>482.0</ele><time>2026-05-01T06:08:23.981Z</time></trkpt><trkpt lat="38.3135716" lon="15.8430705"><ele>482.0</ele><time>2026-05-01T06:08:24.98Z</time></trkpt><trkpt lat="38.3137774" lon="15.8430052"><ele>482.0</ele><time>2026-05-01T06:08:25.981Z</time></trkpt><trkpt lat="38.3139874" lon="15.8429427"><ele>482.0</ele><time>2026-05-01T06:08:26.981Z</time></trkpt><trkpt lat="38.3142005" lon="15.8428727"><ele>482.3333333333333</ele><time>2026-05-01T06:08:27.98Z</time></trkpt><trkpt lat="38.3144203" lon="15.842807"><ele>482.66666666666663</ele><time>2026-05-01T06:08:28.98Z</time></trkpt><trkpt lat="38.3146302" lon="15.8427473"><ele>483.0</ele><time>2026-05-01T06:08:29.98Z</time></trkpt><trkpt lat="38.3148365" lon="15.8426879"><ele>483.33333333333337</ele><time>2026-05-01T06:08:30.98Z</time></trkpt><trkpt lat="38.3150389" lon="15.8426248"><ele>483.6666666666667</ele><time>2026-05-01T06:08:31.98Z</time></trkpt><trkpt lat="38.3152417" lon="15.8425582"><ele>484.0</ele><time>2026-05-01T06:08:32.98Z</time></trkpt><trkpt lat="38.31545" lon="15.8424924"><ele>485.0</ele><time>2026-05-01T06:08:33.98Z</time></trkpt><trkpt lat="38.3156597" lon="15.8424212"><ele>486.0</ele><time>2026-05-01T06:08:34.98Z</time></trkpt><trkpt lat="38.3158642" lon="15.8423439"><ele>487.0</ele><time>2026-05-01T06:08:35.981Z</time></trkpt><trkpt lat="38.3160631" lon="15.8422648"><ele>487.0</ele><time>2026-05-01T06:08:36.98Z</time></trkpt><trkpt lat="38.3162574" lon="15.8421804"><ele>487.0</ele><time>2026-05-01T06:08:37.98Z</time></trkpt><trkpt lat="38.3164568" lon="15.8421023"><ele>487.0</ele><time>2026-05-01T06:08:38.98Z</time></trkpt><trkpt lat="38.3174365" lon="15.8417188"><ele>384.0</ele><time>2026-05-01T06:08:44.117Z</time></trkpt><trkpt lat="38.33311" lon="15.8588433"><ele>384.0</ele><time>2026-05-01T06:10:22.98Z</time></trkpt><trkpt lat="38.3332501" lon="15.8590517"><ele>384.0</ele><time>2026-05-01T06:10:23.98Z</time></trkpt><trkpt lat="38.3333894" lon="15.859265"><ele>384.0</ele><time>2026-05-01T06:10:24.98Z</time></trkpt><trkpt lat="38.3335323" lon="15.8594751"><ele>383.6666666666667</ele><time>2026-05-01T06:10:25.98Z</time></trkpt><trkpt lat="38.3336775" lon="15.859676"><ele>383.33333333333337</ele><time>2026-05-01T06:10:26.98Z</time></trkpt><trkpt lat="38.3338337" lon="15.8598739"><ele>383.0</ele><time>2026-05-01T06:10:27.98Z</time></trkpt><trkpt lat="38.3339911" lon="15.8600639"><ele>379.0</ele><time>2026-05-01T06:10:28.98Z</time></trkpt><trkpt lat="38.3341514" lon="15.8602504"><ele>375.0</ele><time>2026-05-01T06:10:29.98Z</time></trkpt><trkpt lat="38.3343106" lon="15.8604233"><ele>371.0</ele><time>2026-05-01T06:10:30.98Z</time></trkpt><trkpt lat="38.3344676" lon="15.8605781"><ele>371.0</ele><time>2026-05-01T06:10:31.98Z</time></trkpt><trkpt lat="38.3346207" lon="15.8607298"><ele>371.0</ele><time>2026-05-01T06:10:32.98Z</time></trkpt><trkpt lat="38.3347781" lon="15.8608808"><ele>371.0</ele><time>2026-05-01T06:10:33.98Z</time></trkpt><trkpt lat="38.3349455" lon="15.8610339"><ele>370.33333333333337</ele><time>2026-05-01T06:10:34.98Z</time></trkpt><trkpt lat="38.3351193" lon="15.8611931"><ele>369.6666666666667</ele><time>2026-05-01T06:10:35.981Z</time></trkpt><trkpt lat="38.3352903" lon="15.8613488"><ele>369.0</ele><time>2026-05-01T06:10:36.981Z</time></trkpt><trkpt lat="38.3354599" lon="15.8614859"><ele>369.6666666666667</ele><time>2026-05-01T06:10:37.98Z</time></trkpt><trkpt lat="38.3356273" lon="15.8616166"><ele>370.33333333333337</ele><time>2026-05-01T06:10:38.981Z</time></trkpt><trkpt lat="38.3357942" lon="15.86175"><ele>371.0</ele><time>2026-05-01T06:10:39.981Z</time></trkpt><trkpt lat="38.3359604" lon="15.8618895"><ele>367.6666666666667</ele><time>2026-05-01T06:10:40.98Z</time></trkpt><trkpt lat="38.3361273" lon="15.8620332"><ele>364.3333333333333</ele><time>2026-05-01T06:10:41.98Z</time></trkpt><trkpt lat="38.3362957" lon="15.8621716"><ele>361.0</ele><time>2026-05-01T06:10:42.981Z</time></trkpt><trkpt lat="38.3364617" lon="15.8623077"><ele>360.66666666666663</ele><time>2026-05-01T06:10:43.981Z</time></trkpt><trkpt lat="38.3366212" lon="15.8624499"><ele>360.3333333333333</ele><time>2026-05-01T06:10:44.981Z</time></trkpt><trkpt lat="38.3367825" lon="15.8625851"><ele>360.0</ele><time>2026-05-01T06:10:45.98Z</time></trkpt><trkpt lat="38.336942" lon="15.8627293"><ele>355.3333333333333</ele><time>2026-05-01T06:10:46.981Z</time></trkpt><trkpt lat="38.3371047" lon="15.8628735"><ele>350.66666666666663</ele><time>2026-05-01T06:10:47.981Z</time></trkpt><trkpt lat="38.337272" lon="15.8630188"><ele>346.0</ele><time>2026-05-01T06:10:48.981Z</time></trkpt><trkpt lat="38.3374468" lon="15.8631659"><ele>346.0</ele><time>2026-05-01T06:10:49.98Z</time></trkpt><trkpt lat="38.3376213" lon="15.8633087"><ele>346.0</ele><time>2026-05-01T06:10:50.98Z</time></trkpt><trkpt lat="38.3377953" lon="15.8634545"><ele>346.0</ele><time>2026-05-01T06:10:51.98Z</time></trkpt><trkpt lat="38.3379687" lon="15.8636"><ele>342.3333333333333</ele><time>2026-05-01T06:10:52.98Z</time></trkpt><trkpt lat="38.3381414" lon="15.863741"><ele>338.6666666666667</ele><time>2026-05-01T06:10:53.98Z</time></trkpt><trkpt lat="38.3383164" lon="15.8638821"><ele>335.0</ele><time>2026-05-01T06:10:54.98Z</time></trkpt><trkpt lat="38.3384932" lon="15.8640312"><ele>335.0</ele><time>2026-05-01T06:10:55.98Z</time></trkpt><trkpt lat="38.3386677" lon="15.8641834"><ele>335.0</ele><time>2026-05-01T06:10:56.981Z</time></trkpt><trkpt lat="38.3388391" lon="15.8643328"><ele>335.0</ele><time>2026-05-01T06:10:57.98Z</time></trkpt><trkpt lat="38.3390098" lon="15.8644804"><ele>336.0</ele><time>2026-05-01T06:10:58.98Z</time></trkpt><trkpt lat="38.3391777" lon="15.8646283"><ele>337.0</ele><time>2026-05-01T06:10:59.98Z</time></trkpt><trkpt lat="38.3393503" lon="15.8647683"><ele>338.0</ele><time>2026-05-01T06:11:00.98Z</time></trkpt><trkpt lat="38.3395248" lon="15.8649129"><ele>338.0</ele><time>2026-05-01T06:11:01.981Z</time></trkpt><trkpt lat="38.3397014" lon="15.8650523"><ele>338.0</ele><time>2026-05-01T06:11:02.981Z</time></trkpt><trkpt lat="38.339875" lon="15.8651983"><ele>338.0</ele><time>2026-05-01T06:11:03.98Z</time></trkpt><trkpt lat="38.3400485" lon="15.8653494"><ele>340.0</ele><time>2026-05-01T06:11:04.98Z</time></trkpt><trkpt lat="38.3402284" lon="15.8654961"><ele>342.0</ele><time>2026-05-01T06:11:05.98Z</time></trkpt><trkpt lat="38.3404065" lon="15.8656491"><ele>344.0</ele><time>2026-05-01T06:11:06.981Z</time></trkpt><trkpt lat="38.3405862" lon="15.8658082"><ele>339.0</ele><time>2026-05-01T06:11:07.98Z</time></trkpt><trkpt lat="38.3407738" lon="15.8659629"><ele>334.0</ele><time>2026-05-01T06:11:08.98Z</time></trkpt><trkpt lat="38.3409647" lon="15.8661192"><ele>334.0</ele><time>2026-05-01T06:11:09.981Z</time></trkpt><trkpt lat="38.3411516" lon="15.8662758"><ele>334.0</ele><time>2026-05-01T06:11:10.98Z</time></trkpt><trkpt lat="38.341338" lon="15.8664297"><ele>334.0</ele><time>2026-05-01T06:11:11.98Z</time></trkpt><trkpt lat="38.3415188" lon="15.8665773"><ele>330.3333333333333</ele><time>2026-05-01T06:11:12.98Z</time></trkpt><trkpt lat="38.3416961" lon="15.8667296"><ele>326.6666666666667</ele><time>2026-05-01T06:11:13.981Z</time></trkpt><trkpt lat="38.3418692" lon="15.8668822"><ele>323.0</ele><time>2026-05-01T06:11:14.98Z</time></trkpt><trkpt lat="38.3420426" lon="15.8670307"><ele>326.6666666666667</ele><time>2026-05-01T06:11:15.981Z</time></trkpt><trkpt lat="38.3422263" lon="15.8671801"><ele>330.3333333333333</ele><time>2026-05-01T06:11:16.98Z</time></trkpt><trkpt lat="38.3424097" lon="15.8673298"><ele>334.0</ele><time>2026-05-01T06:11:17.981Z</time></trkpt><trkpt lat="38.3425907" lon="15.8674774"><ele>330.0</ele><time>2026-05-01T06:11:18.98Z</time></trkpt><trkpt lat="38.3427707" lon="15.8676148"><ele>326.0</ele><time>2026-05-01T06:11:19.98Z</time></trkpt><trkpt lat="38.3429533" lon="15.867748"><ele>322.0</ele><time>2026-05-01T06:11:20.981Z</time></trkpt><trkpt lat="38.3431428" lon="15.8678812"><ele>322.0</ele><time>2026-05-01T06:11:21.98Z</time></trkpt><trkpt lat="38.3433334" lon="15.8680135"><ele>322.0</ele><time>2026-05-01T06:11:22.98Z</time></trkpt><trkpt lat="38.3435215" lon="15.8681509"><ele>322.0</ele><time>2026-05-01T06:11:23.981Z</time></trkpt><trkpt lat="38.343714" lon="15.868271"><ele>320.66666666666663</ele><time>2026-05-01T06:11:24.981Z</time></trkpt><trkpt lat="38.3439061" lon="15.8683965"><ele>319.3333333333333</ele><time>2026-05-01T06:11:25.98Z</time></trkpt><trkpt lat="38.3440993" lon="15.8685205"><ele>318.0</ele><time>2026-05-01T06:11:26.98Z</time></trkpt><trkpt lat="38.3442902" lon="15.8686528"><ele>318.0</ele><time>2026-05-01T06:11:27.981Z</time></trkpt><trkpt lat="38.3444821" lon="15.8687811"><ele>318.0</ele><time>2026-05-01T06:11:28.98Z</time></trkpt><trkpt lat="38.3446803" lon="15.8689014"><ele>318.0</ele><time>2026-05-01T06:11:29.98Z</time></trkpt><trkpt lat="38.3448788" lon="15.8690133"><ele>315.3333333333333</ele><time>2026-05-01T06:11:30.981Z</time></trkpt><trkpt lat="38.3450741" lon="15.869118"><ele>312.66666666666663</ele><time>2026-05-01T06:11:31.98Z</time></trkpt><trkpt lat="38.3452707" lon="15.8692171"><ele>310.0</ele><time>2026-05-01T06:11:32.98Z</time></trkpt><trkpt lat="38.3454678" lon="15.8693144"><ele>314.66666666666663</ele><time>2026-05-01T06:11:33.98Z</time></trkpt><trkpt lat="38.3456623" lon="15.8694092"><ele>319.3333333333333</ele><time>2026-05-01T06:11:34.98Z</time></trkpt><trkpt lat="38.3458542" lon="15.8695046"><ele>324.0</ele><time>2026-05-01T06:11:35.98Z</time></trkpt><trkpt lat="38.3460452" lon="15.8696005"><ele>324.0</ele><time>2026-05-01T06:11:36.98Z</time></trkpt><trkpt lat="38.346235" lon="15.8696979"><ele>324.0</ele><time>2026-05-01T06:11:37.981Z</time></trkpt><trkpt lat="38.3464282" lon="15.8697941"><ele>324.0</ele><time>2026-05-01T06:11:38.98Z</time></trkpt><trkpt lat="38.3466209" lon="15.8698899"><ele>329.0</ele><time>2026-05-01T06:11:39.981Z</time></trkpt><trkpt lat="38.3468129" lon="15.8699857"><ele>334.0</ele><time>2026-05-01T06:11:40.98Z</time></trkpt><trkpt lat="38.3477452" lon="15.8704513"><ele>327.0</ele><time>2026-05-01T06:11:46.108Z</time></trkpt><trkpt lat="38.3535883" lon="15.86867"><ele>327.0</ele><time>2026-05-01T06:12:11.981Z</time></trkpt><trkpt lat="38.3537917" lon="15.8685765"><ele>327.0</ele><time>2026-05-01T06:12:12.98Z</time></trkpt><trkpt lat="38.3539923" lon="15.8684534"><ele>327.0</ele><time>2026-05-01T06:12:13.98Z</time></trkpt><trkpt lat="38.3542073" lon="15.8682984"><ele>314.5</ele><time>2026-05-01T06:12:14.981Z</time></trkpt><trkpt lat="38.3544184" lon="15.8681329"><ele>302.0</ele><time>2026-05-01T06:12:15.98Z</time></trkpt><trkpt lat="38.3546191" lon="15.8679729"><ele>298.5</ele><time>2026-05-01T06:12:16.98Z</time></trkpt><trkpt lat="38.3548132" lon="15.867821"><ele>295.0</ele><time>2026-05-01T06:12:17.98Z</time></trkpt><trkpt lat="38.3550045" lon="15.8676702"><ele>298.5</ele><time>2026-05-01T06:12:18.98Z</time></trkpt><trkpt lat="38.3551919" lon="15.8675115"><ele>302.0</ele><time>2026-05-01T06:12:19.98Z</time></trkpt><trkpt lat="38.3553812" lon="15.8673543"><ele>299.0</ele><time>2026-05-01T06:12:20.98Z</time></trkpt><trkpt lat="38.3555737" lon="15.8671995"><ele>296.0</ele><time>2026-05-01T06:12:21.98Z</time></trkpt><trkpt lat="38.3557644" lon="15.8670495"><ele>296.0</ele><time>2026-05-01T06:12:22.981Z</time></trkpt><trkpt lat="38.355956" lon="15.8669052"><ele>296.0</ele><time>2026-05-01T06:12:23.98Z</time></trkpt><trkpt lat="38.3561516" lon="15.8667605"><ele>296.0</ele><time>2026-05-01T06:12:24.981Z</time></trkpt><trkpt lat="38.3563435" lon="15.8666214"><ele>294.0</ele><time>2026-05-01T06:12:25.981Z</time></trkpt><trkpt lat="38.3565342" lon="15.8664855"><ele>292.0</ele><time>2026-05-01T06:12:26.981Z</time></trkpt><trkpt lat="38.3567256" lon="15.8663634"><ele>290.0</ele><time>2026-05-01T06:12:27.981Z</time></trkpt><trkpt lat="38.3569166" lon="15.8662452"><ele>290.0</ele><time>2026-05-01T06:12:28.98Z</time></trkpt><trkpt lat="38.3571108" lon="15.8661331"><ele>290.0</ele><time>2026-05-01T06:12:29.981Z</time></trkpt><trkpt lat="38.3573043" lon="15.8660322"><ele>290.0</ele><time>2026-05-01T06:12:30.98Z</time></trkpt><trkpt lat="38.3575023" lon="15.8659268"><ele>291.0</ele><time>2026-05-01T06:12:31.98Z</time></trkpt><trkpt lat="38.3576967" lon="15.865831"><ele>292.0</ele><time>2026-05-01T06:12:32.98Z</time></trkpt><trkpt lat="38.3578916" lon="15.8657387"><ele>293.0</ele><time>2026-05-01T06:12:33.98Z</time></trkpt><trkpt lat="38.3580912" lon="15.865653"><ele>293.0</ele><time>2026-05-01T06:12:34.981Z</time></trkpt><trkpt lat="38.358291" lon="15.8655759"><ele>293.0</ele><time>2026-05-01T06:12:35.98Z</time></trkpt><trkpt lat="38.3584872" lon="15.8654998"><ele>293.0</ele><time>2026-05-01T06:12:36.98Z</time></trkpt><trkpt lat="38.3586797" lon="15.8654348"><ele>291.6666666666667</ele><time>2026-05-01T06:12:37.981Z</time></trkpt><trkpt lat="38.3588797" lon="15.8653758"><ele>290.3333333333333</ele><time>2026-05-01T06:12:38.98Z</time></trkpt><trkpt lat="38.3590867" lon="15.8653275"><ele>289.0</ele><time>2026-05-01T06:12:39.98Z</time></trkpt><trkpt lat="38.359284" lon="15.8652839"><ele>289.0</ele><time>2026-05-01T06:12:40.981Z</time></trkpt><trkpt lat="38.3594853" lon="15.8652496"><ele>289.0</ele><time>2026-05-01T06:12:41.98Z</time></trkpt><trkpt lat="38.3596868" lon="15.8652128"><ele>289.0</ele><time>2026-05-01T06:12:42.98Z</time></trkpt><trkpt lat="38.3598939" lon="15.8651808"><ele>287.66666666666663</ele><time>2026-05-01T06:12:43.98Z</time></trkpt><trkpt lat="38.3601078" lon="15.8651541"><ele>286.3333333333333</ele><time>2026-05-01T06:12:44.981Z</time></trkpt><trkpt lat="38.3603169" lon="15.8651336"><ele>285.0</ele><time>2026-05-01T06:12:45.981Z</time></trkpt><trkpt lat="38.3605266" lon="15.8651264"><ele>283.3333333333333</ele><time>2026-05-01T06:12:46.98Z</time></trkpt><trkpt lat="38.3607346" lon="15.8651245"><ele>281.66666666666663</ele><time>2026-05-01T06:12:47.98Z</time></trkpt><trkpt lat="38.3609507" lon="15.8651196"><ele>280.0</ele><time>2026-05-01T06:12:48.98Z</time></trkpt><trkpt lat="38.3611722" lon="15.8651218"><ele>278.0</ele><time>2026-05-01T06:12:49.98Z</time></trkpt><trkpt lat="38.3614009" lon="15.8651329"><ele>276.0</ele><time>2026-05-01T06:12:50.98Z</time></trkpt><trkpt lat="38.3616252" lon="15.8651368"><ele>276.0</ele><time>2026-05-01T06:12:51.98Z</time></trkpt><trkpt lat="38.361844" lon="15.8651392"><ele>276.0</ele><time>2026-05-01T06:12:52.98Z</time></trkpt><trkpt lat="38.3620601" lon="15.8651504"><ele>276.0</ele><time>2026-05-01T06:12:53.981Z</time></trkpt><trkpt lat="38.3622749" lon="15.865168"><ele>274.3333333333333</ele><time>2026-05-01T06:12:54.981Z</time></trkpt><trkpt lat="38.36249" lon="15.8651793"><ele>272.66666666666663</ele><time>2026-05-01T06:12:55.981Z</time></trkpt><trkpt lat="38.3627053" lon="15.8652044"><ele>271.0</ele><time>2026-05-01T06:12:56.98Z</time></trkpt><trkpt lat="38.3629205" lon="15.8652123"><ele>269.66666666666663</ele><time>2026-05-01T06:12:57.981Z</time></trkpt><trkpt lat="38.3631424" lon="15.8652135"><ele>268.3333333333333</ele><time>2026-05-01T06:12:58.981Z</time></trkpt><trkpt lat="38.3633654" lon="15.8652161"><ele>267.0</ele><time>2026-05-01T06:12:59.98Z</time></trkpt><trkpt lat="38.3635818" lon="15.8652237"><ele>267.0</ele><time>2026-05-01T06:13:00.981Z</time></trkpt><trkpt lat="38.363787" lon="15.8652228"><ele>267.0</ele><time>2026-05-01T06:13:01.98Z</time></trkpt><trkpt lat="38.364002" lon="15.8652375"><ele>267.0</ele><time>2026-05-01T06:13:02.98Z</time></trkpt><trkpt lat="38.3642208" lon="15.8652502"><ele>265.3333333333333</ele><time>2026-05-01T06:13:03.98Z</time></trkpt><trkpt lat="38.3644407" lon="15.8652668"><ele>263.66666666666663</ele><time>2026-05-01T06:13:04.98Z</time></trkpt><trkpt lat="38.3646556" lon="15.8652834"><ele>262.0</ele><time>2026-05-01T06:13:05.981Z</time></trkpt><trkpt lat="38.3648715" lon="15.8652963"><ele>261.0</ele><time>2026-05-01T06:13:06.981Z</time></trkpt><trkpt lat="38.3650867" lon="15.8653074"><ele>260.0</ele><time>2026-05-01T06:13:07.98Z</time></trkpt><trkpt lat="38.3652986" lon="15.8653189"><ele>259.0</ele><time>2026-05-01T06:13:08.98Z</time></trkpt><trkpt lat="38.365515" lon="15.8653317"><ele>257.3333333333333</ele><time>2026-05-01T06:13:09.98Z</time></trkpt><trkpt lat="38.3657352" lon="15.8653403"><ele>255.66666666666669</ele><time>2026-05-01T06:13:10.98Z</time></trkpt><trkpt lat="38.3659527" lon="15.8653545"><ele>254.0</ele><time>2026-05-01T06:13:11.98Z</time></trkpt><trkpt lat="38.3661643" lon="15.8653647"><ele>254.0</ele><time>2026-05-01T06:13:12.98Z</time></trkpt><trkpt lat="38.3663809" lon="15.8653736"><ele>254.0</ele><time>2026-05-01T06:13:13.98Z</time></trkpt><trkpt lat="38.366595" lon="15.8653867"><ele>254.0</ele><time>2026-05-01T06:13:14.98Z</time></trkpt><trkpt lat="38.3668077" lon="15.8653999"><ele>254.0</ele><time>2026-05-01T06:13:15.98Z</time></trkpt><trkpt lat="38.3670211" lon="15.8654084"><ele>254.0</ele><time>2026-05-01T06:13:16.98Z</time></trkpt><trkpt lat="38.3672391" lon="15.8654227"><ele>254.0</ele><time>2026-05-01T06:13:17.98Z</time></trkpt><trkpt lat="38.3674548" lon="15.865433"><ele>253.0</ele><time>2026-05-01T06:13:18.98Z</time></trkpt><trkpt lat="38.3676802" lon="15.8654491"><ele>252.0</ele><time>2026-05-01T06:13:19.98Z</time></trkpt><trkpt lat="38.367899" lon="15.8654611"><ele>251.0</ele><time>2026-05-01T06:13:20.98Z</time></trkpt><trkpt lat="38.3681112" lon="15.8654798"><ele>250.66666666666669</ele><time>2026-05-01T06:13:21.981Z</time></trkpt><trkpt lat="38.3683216" lon="15.8655031"><ele>250.33333333333331</ele><time>2026-05-01T06:13:22.981Z</time></trkpt><trkpt lat="38.3685385" lon="15.8655313"><ele>250.0</ele><time>2026-05-01T06:13:23.981Z</time></trkpt><trkpt lat="38.3687518" lon="15.8655646"><ele>249.33333333333331</ele><time>2026-05-01T06:13:24.981Z</time></trkpt><trkpt lat="38.3689626" lon="15.8656123"><ele>248.66666666666669</ele><time>2026-05-01T06:13:25.98Z</time></trkpt><trkpt lat="38.3691714" lon="15.865669"><ele>248.0</ele><time>2026-05-01T06:13:26.981Z</time></trkpt><trkpt lat="38.3693783" lon="15.8657333"><ele>248.0</ele><time>2026-05-01T06:13:27.981Z</time></trkpt><trkpt lat="38.3695843" lon="15.8658029"><ele>248.0</ele><time>2026-05-01T06:13:28.981Z</time></trkpt><trkpt lat="38.3697885" lon="15.8658838"><ele>248.0</ele><time>2026-05-01T06:13:29.98Z</time></trkpt><trkpt lat="38.3699936" lon="15.8659679"><ele>247.33333333333334</ele><time>2026-05-01T06:13:30.98Z</time></trkpt><trkpt lat="38.3702033" lon="15.8660557"><ele>246.66666666666669</ele><time>2026-05-01T06:13:31.981Z</time></trkpt><trkpt lat="38.3704045" lon="15.8661488"><ele>246.0</ele><time>2026-05-01T06:13:32.98Z</time></trkpt><trkpt lat="38.3706064" lon="15.866254"><ele>246.0</ele><time>2026-05-01T06:13:33.98Z</time></trkpt><trkpt lat="38.3708026" lon="15.8663766"><ele>246.0</ele><time>2026-05-01T06:13:34.98Z</time></trkpt><trkpt lat="38.3709999" lon="15.8664994"><ele>246.0</ele><time>2026-05-01T06:13:35.98Z</time></trkpt><trkpt lat="38.3711944" lon="15.8666295"><ele>246.0</ele><time>2026-05-01T06:13:36.981Z</time></trkpt><trkpt lat="38.3713846" lon="15.8667688"><ele>246.0</ele><time>2026-05-01T06:13:37.981Z</time></trkpt><trkpt lat="38.3715732" lon="15.8669058"><ele>246.0</ele><time>2026-05-01T06:13:38.981Z</time></trkpt><trkpt lat="38.3717547" lon="15.8670514"><ele>244.0</ele><time>2026-05-01T06:13:39.98Z</time></trkpt><trkpt lat="38.3719309" lon="15.8672034"><ele>242.0</ele><time>2026-05-01T06:13:40.981Z</time></trkpt><trkpt lat="38.3721047" lon="15.86736"><ele>240.0</ele><time>2026-05-01T06:13:41.98Z</time></trkpt><trkpt lat="38.3722784" lon="15.8675164"><ele>237.33333333333331</ele><time>2026-05-01T06:13:42.981Z</time></trkpt><trkpt lat="38.3724503" lon="15.8676718"><ele>234.66666666666666</ele><time>2026-05-01T06:13:43.98Z</time></trkpt><trkpt lat="38.3726194" lon="15.8678258"><ele>232.0</ele><time>2026-05-01T06:13:44.981Z</time></trkpt><trkpt lat="38.3727934" lon="15.8679852"><ele>232.0</ele><time>2026-05-01T06:13:45.981Z</time></trkpt><trkpt lat="38.3729625" lon="15.8681523"><ele>232.0</ele><time>2026-05-01T06:13:46.98Z</time></trkpt><trkpt lat="38.3731381" lon="15.8683103"><ele>232.0</ele><time>2026-05-01T06:13:47.98Z</time></trkpt><trkpt lat="38.373312" lon="15.8684663"><ele>231.0</ele><time>2026-05-01T06:13:48.981Z</time></trkpt><trkpt lat="38.3734785" lon="15.8686258"><ele>230.0</ele><time>2026-05-01T06:13:49.98Z</time></trkpt><trkpt lat="38.3736472" lon="15.8687776"><ele>229.0</ele><time>2026-05-01T06:13:50.98Z</time></trkpt><trkpt lat="38.3738142" lon="15.868937"><ele>226.66666666666666</ele><time>2026-05-01T06:13:51.98Z</time></trkpt><trkpt lat="38.3739833" lon="15.8690994"><ele>224.33333333333331</ele><time>2026-05-01T06:13:52.98Z</time></trkpt><trkpt lat="38.3741491" lon="15.8692633"><ele>222.0</ele><time>2026-05-01T06:13:53.98Z</time></trkpt><trkpt lat="38.3743166" lon="15.8694154"><ele>222.0</ele><time>2026-05-01T06:13:54.98Z</time></trkpt><trkpt lat="38.3744849" lon="15.8695739"><ele>222.0</ele><time>2026-05-01T06:13:55.981Z</time></trkpt><trkpt lat="38.3746546" lon="15.8697301"><ele>222.0</ele><time>2026-05-01T06:13:56.981Z</time></trkpt><trkpt lat="38.3748243" lon="15.8698785"><ele>222.0</ele><time>2026-05-01T06:13:57.98Z</time></trkpt><trkpt lat="38.3749933" lon="15.8700385"><ele>222.0</ele><time>2026-05-01T06:13:58.98Z</time></trkpt><trkpt lat="38.375162" lon="15.8701985"><ele>222.0</ele><time>2026-05-01T06:13:59.981Z</time></trkpt><trkpt lat="38.3753272" lon="15.8703599"><ele>219.33333333333331</ele><time>2026-05-01T06:14:00.98Z</time></trkpt><trkpt lat="38.3754909" lon="15.8705202"><ele>216.66666666666666</ele><time>2026-05-01T06:14:01.98Z</time></trkpt><trkpt lat="38.3756588" lon="15.8706733"><ele>214.0</ele><time>2026-05-01T06:14:02.98Z</time></trkpt><trkpt lat="38.3758316" lon="15.87083"><ele>211.0</ele><time>2026-05-01T06:14:03.98Z</time></trkpt><trkpt lat="38.3759969" lon="15.8709925"><ele>208.0</ele><time>2026-05-01T06:14:04.98Z</time></trkpt><trkpt lat="38.3761658" lon="15.8711559"><ele>205.0</ele><time>2026-05-01T06:14:05.981Z</time></trkpt><trkpt lat="38.3763378" lon="15.8713216"><ele>208.66666666666666</ele><time>2026-05-01T06:14:06.98Z</time></trkpt><trkpt lat="38.3765073" lon="15.8714857"><ele>212.33333333333331</ele><time>2026-05-01T06:14:07.98Z</time></trkpt><trkpt lat="38.3766749" lon="15.8716434"><ele>216.0</ele><time>2026-05-01T06:14:08.981Z</time></trkpt><trkpt lat="38.3768407" lon="15.8717989"><ele>216.0</ele><time>2026-05-01T06:14:09.98Z</time></trkpt><trkpt lat="38.3770092" lon="15.8719589"><ele>216.0</ele><time>2026-05-01T06:14:10.98Z</time></trkpt><trkpt lat="38.3771762" lon="15.8721229"><ele>216.0</ele><time>2026-05-01T06:14:11.98Z</time></trkpt><trkpt lat="38.3773465" lon="15.8722919"><ele>225.33333333333331</ele><time>2026-05-01T06:14:12.98Z</time></trkpt><trkpt lat="38.377523" lon="15.8724686"><ele>234.66666666666666</ele><time>2026-05-01T06:14:13.98Z</time></trkpt><trkpt lat="38.3776974" lon="15.8726408"><ele>244.0</ele><time>2026-05-01T06:14:14.98Z</time></trkpt><trkpt lat="38.3778704" lon="15.8728087"><ele>252.5</ele><time>2026-05-01T06:14:15.98Z</time></trkpt><trkpt lat="38.3780437" lon="15.8729769"><ele>261.0</ele><time>2026-05-01T06:14:16.981Z</time></trkpt><trkpt lat="38.3788903" lon="15.8737993"><ele>166.0</ele><time>2026-05-01T06:14:22.095Z</time></trkpt><trkpt lat="38.3821217" lon="15.88143"><ele>164.5</ele><time>2026-05-01T06:14:51.981Z</time></trkpt><trkpt lat="38.3821957" lon="15.8817435"><ele>163.0</ele><time>2026-05-01T06:14:52.98Z</time></trkpt><trkpt lat="38.3822553" lon="15.8820468"><ele>163.0</ele><time>2026-05-01T06:14:53.981Z</time></trkpt><trkpt lat="38.3823024" lon="15.8823503"><ele>163.0</ele><time>2026-05-01T06:14:54.981Z</time></trkpt><trkpt lat="38.3823464" lon="15.882654"><ele>160.0</ele><time>2026-05-01T06:14:55.98Z</time></trkpt><trkpt lat="38.3823923" lon="15.8829638"><ele>157.0</ele><time>2026-05-01T06:14:56.98Z</time></trkpt><trkpt lat="38.3824284" lon="15.8832763"><ele>155.0</ele><time>2026-05-01T06:14:57.98Z</time></trkpt><trkpt lat="38.3824636" lon="15.8835781"><ele>153.0</ele><time>2026-05-01T06:14:58.98Z</time></trkpt><trkpt lat="38.3824951" lon="15.8838868"><ele>153.0</ele><time>2026-05-01T06:14:59.981Z</time></trkpt><trkpt lat="38.3825288" lon="15.8841932"><ele>153.0</ele><time>2026-05-01T06:15:00.98Z</time></trkpt><trkpt lat="38.3825599" lon="15.8845124"><ele>151.0</ele><time>2026-05-01T06:15:01.98Z</time></trkpt><trkpt lat="38.3826028" lon="15.8848334"><ele>149.0</ele><time>2026-05-01T06:15:02.981Z</time></trkpt><trkpt lat="38.3826346" lon="15.8851489"><ele>147.0</ele><time>2026-05-01T06:15:03.98Z</time></trkpt><trkpt lat="38.3826742" lon="15.8854517"><ele>145.0</ele><time>2026-05-01T06:15:04.981Z</time></trkpt><trkpt lat="38.3827106" lon="15.8857581"><ele>143.5</ele><time>2026-05-01T06:15:05.981Z</time></trkpt><trkpt lat="38.3827484" lon="15.8860677"><ele>142.0</ele><time>2026-05-01T06:15:06.98Z</time></trkpt><trkpt lat="38.3827754" lon="15.8863837"><ele>142.0</ele><time>2026-05-01T06:15:07.98Z</time></trkpt><trkpt lat="38.3828113" lon="15.8866993"><ele>142.0</ele><time>2026-05-01T06:15:08.98Z</time></trkpt><trkpt lat="38.3828514" lon="15.8870103"><ele>141.0</ele><time>2026-05-01T06:15:09.98Z</time></trkpt><trkpt lat="38.3828972" lon="15.8873286"><ele>140.0</ele><time>2026-05-01T06:15:10.98Z</time></trkpt><trkpt lat="38.3829449" lon="15.8876426"><ele>139.5</ele><time>2026-05-01T06:15:11.98Z</time></trkpt><trkpt lat="38.3829966" lon="15.8879605"><ele>139.0</ele><time>2026-05-01T06:15:12.98Z</time></trkpt><trkpt lat="38.383052" lon="15.8882736"><ele>138.5</ele><time>2026-05-01T06:15:13.98Z</time></trkpt><trkpt lat="38.3831141" lon="15.8885779"><ele>138.0</ele><time>2026-05-01T06:15:14.98Z</time></trkpt><trkpt lat="38.3831739" lon="15.8888865"><ele>138.0</ele><time>2026-05-01T06:15:15.98Z</time></trkpt><trkpt lat="38.3832477" lon="15.8891897"><ele>138.0</ele><time>2026-05-01T06:15:16.98Z</time></trkpt><trkpt lat="38.3833214" lon="15.8895006"><ele>136.5</ele><time>2026-05-01T06:15:17.981Z</time></trkpt><trkpt lat="38.3833927" lon="15.8898018"><ele>135.0</ele><time>2026-05-01T06:15:18.981Z</time></trkpt><trkpt lat="38.3834727" lon="15.8901062"><ele>132.5</ele><time>2026-05-01T06:15:19.98Z</time></trkpt><trkpt lat="38.3835527" lon="15.8904129"><ele>130.0</ele><time>2026-05-01T06:15:20.981Z</time></trkpt><trkpt lat="38.383633" lon="15.8907245"><ele>127.0</ele><time>2026-05-01T06:15:21.98Z</time></trkpt><trkpt lat="38.3837143" lon="15.891035"><ele>124.0</ele><time>2026-05-01T06:15:22.98Z</time></trkpt><trkpt lat="38.3838038" lon="15.8913416"><ele>123.5</ele><time>2026-05-01T06:15:23.98Z</time></trkpt><trkpt lat="38.383888" lon="15.8916463"><ele>123.0</ele><time>2026-05-01T06:15:24.98Z</time></trkpt><trkpt lat="38.3839728" lon="15.8919512"><ele>123.0</ele><time>2026-05-01T06:15:25.981Z</time></trkpt><trkpt lat="38.3840542" lon="15.8922595"><ele>123.0</ele><time>2026-05-01T06:15:26.98Z</time></trkpt><trkpt lat="38.3841428" lon="15.8925632"><ele>122.5</ele><time>2026-05-01T06:15:27.98Z</time></trkpt><trkpt lat="38.3842315" lon="15.8928643"><ele>122.0</ele><time>2026-05-01T06:15:28.981Z</time></trkpt><trkpt lat="38.3843165" lon="15.8931761"><ele>120.0</ele><time>2026-05-01T06:15:29.981Z</time></trkpt><trkpt lat="38.3844028" lon="15.8934892"><ele>118.0</ele><time>2026-05-01T06:15:30.981Z</time></trkpt><trkpt lat="38.384493" lon="15.8938013"><ele>118.0</ele><time>2026-05-01T06:15:31.98Z</time></trkpt><trkpt lat="38.38459" lon="15.8941114"><ele>118.0</ele><time>2026-05-01T06:15:32.981Z</time></trkpt><trkpt lat="38.3846916" lon="15.8944104"><ele>118.0</ele><time>2026-05-01T06:15:33.981Z</time></trkpt><trkpt lat="38.3848082" lon="15.8947008"><ele>118.0</ele><time>2026-05-01T06:15:34.98Z</time></trkpt><trkpt lat="38.3849343" lon="15.8949878"><ele>114.5</ele><time>2026-05-01T06:15:35.98Z</time></trkpt><trkpt lat="38.38506" lon="15.8952813"><ele>111.0</ele><time>2026-05-01T06:15:36.98Z</time></trkpt><trkpt lat="38.3851864" lon="15.895569"><ele>111.0</ele><time>2026-05-01T06:15:37.98Z</time></trkpt><trkpt lat="38.3853223" lon="15.8958478"><ele>111.0</ele><time>2026-05-01T06:15:38.981Z</time></trkpt><trkpt lat="38.3854726" lon="15.8961167"><ele>107.5</ele><time>2026-05-01T06:15:39.98Z</time></trkpt><trkpt lat="38.3856291" lon="15.8963831"><ele>104.0</ele><time>2026-05-01T06:15:40.981Z</time></trkpt><trkpt lat="38.3857994" lon="15.8966417"><ele>97.5</ele><time>2026-05-01T06:15:41.98Z</time></trkpt><trkpt lat="38.3859781" lon="15.8968945"><ele>91.0</ele><time>2026-05-01T06:15:42.981Z</time></trkpt><trkpt lat="38.3861612" lon="15.8971424"><ele>91.0</ele><time>2026-05-01T06:15:43.98Z</time></trkpt><trkpt lat="38.3863511" lon="15.8973894"><ele>91.0</ele><time>2026-05-01T06:15:44.981Z</time></trkpt><trkpt lat="38.3865352" lon="15.8976359"><ele>91.0</ele><time>2026-05-01T06:15:45.981Z</time></trkpt><trkpt lat="38.3867256" lon="15.8978773"><ele>91.0</ele><time>2026-05-01T06:15:46.981Z</time></trkpt><trkpt lat="38.3869166" lon="15.8981109"><ele>91.0</ele><time>2026-05-01T06:15:47.98Z</time></trkpt><trkpt lat="38.3871069" lon="15.8983431"><ele>91.0</ele><time>2026-05-01T06:15:48.981Z</time></trkpt><trkpt lat="38.3872993" lon="15.8985714"><ele>91.0</ele><time>2026-05-01T06:15:49.98Z</time></trkpt><trkpt lat="38.3874863" lon="15.8988085"><ele>91.0</ele><time>2026-05-01T06:15:50.981Z</time></trkpt><trkpt lat="38.3876765" lon="15.899042"><ele>86.5</ele><time>2026-05-01T06:15:51.981Z</time></trkpt><trkpt lat="38.3878654" lon="15.8992718"><ele>82.0</ele><time>2026-05-01T06:15:52.98Z</time></trkpt><trkpt lat="38.3880515" lon="15.8995004"><ele>82.0</ele><time>2026-05-01T06:15:53.981Z</time></trkpt><trkpt lat="38.3882425" lon="15.8997358"><ele>82.0</ele><time>2026-05-01T06:15:54.98Z</time></trkpt><trkpt lat="38.3884332" lon="15.8999701"><ele>75.5</ele><time>2026-05-01T06:15:55.981Z</time></trkpt><trkpt lat="38.3886284" lon="15.9002111"><ele>69.0</ele><time>2026-05-01T06:15:56.981Z</time></trkpt><trkpt lat="38.3888258" lon="15.9004492"><ele>75.5</ele><time>2026-05-01T06:15:57.98Z</time></trkpt><trkpt lat="38.3890227" lon="15.9006875"><ele>82.0</ele><time>2026-05-01T06:15:58.981Z</time></trkpt><trkpt lat="38.3892191" lon="15.9009265"><ele>84.0</ele><time>2026-05-01T06:15:59.981Z</time></trkpt><trkpt lat="38.3894108" lon="15.9011589"><ele>86.0</ele><time>2026-05-01T06:16:00.98Z</time></trkpt><trkpt lat="38.3895938" lon="15.9013912"><ele>87.0</ele><time>2026-05-01T06:16:01.98Z</time></trkpt><trkpt lat="38.3897732" lon="15.9016271"><ele>88.0</ele><time>2026-05-01T06:16:02.98Z</time></trkpt><trkpt lat="38.3899501" lon="15.901857"><ele>88.0</ele><time>2026-05-01T06:16:03.98Z</time></trkpt><trkpt lat="38.390128" lon="15.9020882"><ele>88.0</ele><time>2026-05-01T06:16:04.98Z</time></trkpt><trkpt lat="38.3903085" lon="15.9023185"><ele>88.0</ele><time>2026-05-01T06:16:05.98Z</time></trkpt><trkpt lat="38.3904921" lon="15.902545"><ele>88.0</ele><time>2026-05-01T06:16:06.98Z</time></trkpt><trkpt lat="38.3906773" lon="15.9027669"><ele>85.5</ele><time>2026-05-01T06:16:07.981Z</time></trkpt><trkpt lat="38.3908647" lon="15.9029884"><ele>83.0</ele><time>2026-05-01T06:16:08.981Z</time></trkpt><trkpt lat="38.3910562" lon="15.903207"><ele>77.0</ele><time>2026-05-01T06:16:09.98Z</time></trkpt><trkpt lat="38.3912549" lon="15.9034172"><ele>71.0</ele><time>2026-05-01T06:16:10.98Z</time></trkpt><trkpt lat="38.3914541" lon="15.9036263"><ele>71.0</ele><time>2026-05-01T06:16:11.98Z</time></trkpt><trkpt lat="38.3916585" lon="15.9038345"><ele>71.0</ele><time>2026-05-01T06:16:12.98Z</time></trkpt><trkpt lat="38.3918721" lon="15.9040292"><ele>71.0</ele><time>2026-05-01T06:16:13.98Z</time></trkpt><trkpt lat="38.3920845" lon="15.9042194"><ele>71.0</ele><time>2026-05-01T06:16:14.981Z</time></trkpt><trkpt lat="38.3923033" lon="15.9044053"><ele>63.5</ele><time>2026-05-01T06:16:15.981Z</time></trkpt><trkpt lat="38.3925228" lon="15.9045825"><ele>56.0</ele><time>2026-05-01T06:16:16.981Z</time></trkpt><trkpt lat="38.3927508" lon="15.9047554"><ele>56.0</ele><time>2026-05-01T06:16:17.98Z</time></trkpt><trkpt lat="38.3929834" lon="15.9049208"><ele>56.0</ele><time>2026-05-01T06:16:18.98Z</time></trkpt><trkpt lat="38.3932194" lon="15.9050786"><ele>54.0</ele><time>2026-05-01T06:16:19.98Z</time></trkpt><trkpt lat="38.3934594" lon="15.905227"><ele>52.0</ele><time>2026-05-01T06:16:20.98Z</time></trkpt><trkpt lat="38.3937038" lon="15.9053689"><ele>51.5</ele><time>2026-05-01T06:16:21.981Z</time></trkpt><trkpt lat="38.3939467" lon="15.9055068"><ele>51.0</ele><time>2026-05-01T06:16:22.981Z</time></trkpt><trkpt lat="38.3941895" lon="15.9056422"><ele>51.0</ele><time>2026-05-01T06:16:23.98Z</time></trkpt><trkpt lat="38.3944365" lon="15.9057716"><ele>51.0</ele><time>2026-05-01T06:16:24.98Z</time></trkpt><trkpt lat="38.394687" lon="15.9059001"><ele>43.0</ele><time>2026-05-01T06:16:25.98Z</time></trkpt><trkpt lat="38.3949436" lon="15.9060248"><ele>35.0</ele><time>2026-05-01T06:16:26.98Z</time></trkpt><trkpt lat="38.3952005" lon="15.9061503"><ele>35.0</ele><time>2026-05-01T06:16:27.981Z</time></trkpt><trkpt lat="38.3954565" lon="15.9062692"><ele>35.0</ele><time>2026-05-01T06:16:28.98Z</time></trkpt><trkpt lat="38.395709" lon="15.906365"><ele>39.0</ele><time>2026-05-01T06:16:29.981Z</time></trkpt><trkpt lat="38.3959693" lon="15.9064437"><ele>43.0</ele><time>2026-05-01T06:16:30.98Z</time></trkpt><trkpt lat="38.3962325" lon="15.9065122"><ele>47.0</ele><time>2026-05-01T06:16:31.98Z</time></trkpt><trkpt lat="38.3965023" lon="15.9065754"><ele>51.0</ele><time>2026-05-01T06:16:32.98Z</time></trkpt><trkpt lat="38.3967681" lon="15.9066176"><ele>51.0</ele><time>2026-05-01T06:16:33.98Z</time></trkpt><trkpt lat="38.3970358" lon="15.9066488"><ele>51.0</ele><time>2026-05-01T06:16:34.98Z</time></trkpt><trkpt lat="38.3973044" lon="15.9066677"><ele>54.5</ele><time>2026-05-01T06:16:35.981Z</time></trkpt><trkpt lat="38.3975733" lon="15.9066862"><ele>58.0</ele><time>2026-05-01T06:16:36.981Z</time></trkpt><trkpt lat="38.3978434" lon="15.9066947"><ele>54.5</ele><time>2026-05-01T06:16:37.98Z</time></trkpt><trkpt lat="38.3981159" lon="15.9066981"><ele>51.0</ele><time>2026-05-01T06:16:38.98Z</time></trkpt><trkpt lat="38.3983828" lon="15.9067038"><ele>51.0</ele><time>2026-05-01T06:16:39.981Z</time></trkpt><trkpt lat="38.3986452" lon="15.9067198"><ele>51.0</ele><time>2026-05-01T06:16:40.981Z</time></trkpt><trkpt lat="38.3989119" lon="15.9067405"><ele>39.5</ele><time>2026-05-01T06:16:41.98Z</time></trkpt><trkpt lat="38.3991712" lon="15.906779"><ele>28.0</ele><time>2026-05-01T06:16:42.981Z</time></trkpt><trkpt lat="38.39943" lon="15.9068359"><ele>29.0</ele><time>2026-05-01T06:16:43.98Z</time></trkpt><trkpt lat="38.3996852" lon="15.9069067"><ele>30.0</ele><time>2026-05-01T06:16:44.98Z</time></trkpt><trkpt lat="38.3999398" lon="15.9069891"><ele>30.0</ele><time>2026-05-01T06:16:45.98Z</time></trkpt><trkpt lat="38.4001904" lon="15.9070839"><ele>30.0</ele><time>2026-05-01T06:16:46.98Z</time></trkpt><trkpt lat="38.4004402" lon="15.9071907"><ele>31.0</ele><time>2026-05-01T06:16:47.98Z</time></trkpt><trkpt lat="38.4006851" lon="15.9073069"><ele>32.0</ele><time>2026-05-01T06:16:48.98Z</time></trkpt><trkpt lat="38.400928" lon="15.907434"><ele>27.0</ele><time>2026-05-01T06:16:49.98Z</time></trkpt><trkpt lat="38.4011624" lon="15.9075823"><ele>22.0</ele><time>2026-05-01T06:16:50.98Z</time></trkpt><trkpt lat="38.4013905" lon="15.9077408"><ele>22.0</ele><time>2026-05-01T06:16:51.98Z</time></trkpt><trkpt lat="38.4016088" lon="15.907925"><ele>22.0</ele><time>2026-05-01T06:16:52.981Z</time></trkpt><trkpt lat="38.4018224" lon="15.9081095"><ele>22.0</ele><time>2026-05-01T06:16:53.981Z</time></trkpt><trkpt lat="38.4020366" lon="15.9082893"><ele>22.0</ele><time>2026-05-01T06:16:54.981Z</time></trkpt><trkpt lat="38.4022472" lon="15.9084733"><ele>22.5</ele><time>2026-05-01T06:16:55.98Z</time></trkpt><trkpt lat="38.4024597" lon="15.9086622"><ele>23.0</ele><time>2026-05-01T06:16:56.98Z</time></trkpt><trkpt lat="38.4026771" lon="15.9088563"><ele>23.0</ele><time>2026-05-01T06:16:57.98Z</time></trkpt><trkpt lat="38.4028913" lon="15.9090573"><ele>23.0</ele><time>2026-05-01T06:16:58.98Z</time></trkpt><trkpt lat="38.4031061" lon="15.9092528"><ele>23.0</ele><time>2026-05-01T06:16:59.98Z</time></trkpt><trkpt lat="38.4033188" lon="15.909448"><ele>23.0</ele><time>2026-05-01T06:17:00.981Z</time></trkpt><trkpt lat="38.4035342" lon="15.9096362"><ele>23.0</ele><time>2026-05-01T06:17:01.981Z</time></trkpt><trkpt lat="38.4037448" lon="15.9098235"><ele>23.0</ele><time>2026-05-01T06:17:02.98Z</time></trkpt><trkpt lat="38.4039621" lon="15.9100115"><ele>31.5</ele><time>2026-05-01T06:17:03.98Z</time></trkpt><trkpt lat="38.4041847" lon="15.9102057"><ele>40.0</ele><time>2026-05-01T06:17:04.98Z</time></trkpt><trkpt lat="38.4044" lon="15.9104028"><ele>40.0</ele><time>2026-05-01T06:17:05.98Z</time></trkpt><trkpt lat="38.4046214" lon="15.9106024"><ele>40.0</ele><time>2026-05-01T06:17:06.981Z</time></trkpt><trkpt lat="38.404842" lon="15.9108057"><ele>46.5</ele><time>2026-05-01T06:17:07.98Z</time></trkpt><trkpt lat="38.405072" lon="15.9110029"><ele>53.0</ele><time>2026-05-01T06:17:08.981Z</time></trkpt><trkpt lat="38.4052977" lon="15.9111999"><ele>46.5</ele><time>2026-05-01T06:17:09.981Z</time></trkpt><trkpt lat="38.4055254" lon="15.9114069"><ele>40.0</ele><time>2026-05-01T06:17:10.98Z</time></trkpt><trkpt lat="38.4057623" lon="15.9116212"><ele>47.0</ele><time>2026-05-01T06:17:11.98Z</time></trkpt><trkpt lat="38.4060053" lon="15.9118409"><ele>54.0</ele><time>2026-05-01T06:17:12.98Z</time></trkpt><trkpt lat="38.406252" lon="15.9120642"><ele>50.0</ele><time>2026-05-01T06:17:13.98Z</time></trkpt><trkpt lat="38.4065024" lon="15.91229"><ele>46.0</ele><time>2026-05-01T06:17:14.98Z</time></trkpt><trkpt lat="38.4067571" lon="15.9125231"><ele>49.5</ele><time>2026-05-01T06:17:15.98Z</time></trkpt><trkpt lat="38.4070147" lon="15.9127558"><ele>53.0</ele><time>2026-05-01T06:17:16.981Z</time></trkpt><trkpt lat="38.4072613" lon="15.9129967"><ele>53.0</ele><time>2026-05-01T06:17:17.98Z</time></trkpt><trkpt lat="38.4074985" lon="15.9132467"><ele>53.0</ele><time>2026-05-01T06:17:18.98Z</time></trkpt><trkpt lat="38.4077255" lon="15.9135009"><ele>56.5</ele><time>2026-05-01T06:17:19.981Z</time></trkpt><trkpt lat="38.4079405" lon="15.9137681"><ele>60.0</ele><time>2026-05-01T06:17:20.98Z</time></trkpt><trkpt lat="38.4081491" lon="15.9140377"><ele>62.0</ele><time>2026-05-01T06:17:21.98Z</time></trkpt><trkpt lat="38.4083627" lon="15.9143118"><ele>64.0</ele><time>2026-05-01T06:17:22.98Z</time></trkpt><trkpt lat="38.4085706" lon="15.914586"><ele>64.0</ele><time>2026-05-01T06:17:23.98Z</time></trkpt><trkpt lat="38.408785" lon="15.9148573"><ele>64.0</ele><time>2026-05-01T06:17:24.98Z</time></trkpt><trkpt lat="38.4090027" lon="15.9151329"><ele>64.5</ele><time>2026-05-01T06:17:25.981Z</time></trkpt><trkpt lat="38.4092234" lon="15.9154076"><ele>65.0</ele><time>2026-05-01T06:17:26.98Z</time></trkpt><trkpt lat="38.4094422" lon="15.9156901"><ele>64.0</ele><time>2026-05-01T06:17:27.98Z</time></trkpt><trkpt lat="38.4096631" lon="15.9159744"><ele>63.0</ele><time>2026-05-01T06:17:28.981Z</time></trkpt><trkpt lat="38.4098859" lon="15.9162587"><ele>63.0</ele><time>2026-05-01T06:17:29.981Z</time></trkpt><trkpt lat="38.4101101" lon="15.9165463"><ele>63.0</ele><time>2026-05-01T06:17:30.981Z</time></trkpt><trkpt lat="38.4103459" lon="15.9168295"><ele>62.5</ele><time>2026-05-01T06:17:31.98Z</time></trkpt><trkpt lat="38.410603" lon="15.917111"><ele>62.0</ele><time>2026-05-01T06:17:32.98Z</time></trkpt><trkpt lat="38.4108768" lon="15.9173971"><ele>62.5</ele><time>2026-05-01T06:17:33.981Z</time></trkpt><trkpt lat="38.4111622" lon="15.9176768"><ele>63.0</ele><time>2026-05-01T06:17:34.98Z</time></trkpt><trkpt lat="38.411467" lon="15.9179573"><ele>62.5</ele><time>2026-05-01T06:17:35.981Z</time></trkpt><trkpt lat="38.4117817" lon="15.9182358"><ele>62.0</ele><time>2026-05-01T06:17:36.98Z</time></trkpt><trkpt lat="38.4121129" lon="15.9185109"><ele>62.0</ele><time>2026-05-01T06:17:37.981Z</time></trkpt><trkpt lat="38.4124457" lon="15.9187741"><ele>62.0</ele><time>2026-05-01T06:17:38.98Z</time></trkpt><trkpt lat="38.4127775" lon="15.9190253"><ele>63.0</ele><time>2026-05-01T06:17:39.98Z</time></trkpt><trkpt lat="38.4131096" lon="15.9192607"><ele>64.0</ele><time>2026-05-01T06:17:40.98Z</time></trkpt><trkpt lat="38.4134465" lon="15.9194783"><ele>64.0</ele><time>2026-05-01T06:17:41.981Z</time></trkpt><trkpt lat="38.4137833" lon="15.9196916"><ele>64.0</ele><time>2026-05-01T06:17:42.98Z</time></trkpt><trkpt lat="38.4141284" lon="15.9198879"><ele>64.0</ele><time>2026-05-01T06:17:43.981Z</time></trkpt><trkpt lat="38.414478" lon="15.9200716"><ele>64.0</ele><time>2026-05-01T06:17:44.981Z</time></trkpt><trkpt lat="38.4148302" lon="15.92024"><ele>64.0</ele><time>2026-05-01T06:17:45.981Z</time></trkpt><trkpt lat="38.4151809" lon="15.9203976"><ele>64.0</ele><time>2026-05-01T06:17:46.98Z</time></trkpt><trkpt lat="38.4155368" lon="15.920549"><ele>63.5</ele><time>2026-05-01T06:17:47.98Z</time></trkpt><trkpt lat="38.4158959" lon="15.9206943"><ele>63.0</ele><time>2026-05-01T06:17:48.98Z</time></trkpt><trkpt lat="38.416255" lon="15.920835"><ele>62.5</ele><time>2026-05-01T06:17:49.981Z</time></trkpt><trkpt lat="38.4166139" lon="15.9209716"><ele>62.0</ele><time>2026-05-01T06:17:50.981Z</time></trkpt><trkpt lat="38.4169714" lon="15.9211036"><ele>61.0</ele><time>2026-05-01T06:17:51.981Z</time></trkpt><trkpt lat="38.4173369" lon="15.9212332"><ele>60.0</ele><time>2026-05-01T06:17:52.98Z</time></trkpt><trkpt lat="38.4176953" lon="15.9213744"><ele>60.0</ele><time>2026-05-01T06:17:53.98Z</time></trkpt><trkpt lat="38.4180557" lon="15.9215113"><ele>60.0</ele><time>2026-05-01T06:17:54.981Z</time></trkpt><trkpt lat="38.4184158" lon="15.9216503"><ele>60.0</ele><time>2026-05-01T06:17:55.98Z</time></trkpt><trkpt lat="38.4187753" lon="15.9217875"><ele>60.0</ele><time>2026-05-01T06:17:56.98Z</time></trkpt><trkpt lat="38.4191328" lon="15.921922"><ele>60.0</ele><time>2026-05-01T06:17:57.98Z</time></trkpt><trkpt lat="38.4194897" lon="15.922058"><ele>60.0</ele><time>2026-05-01T06:17:58.98Z</time></trkpt><trkpt lat="38.419845" lon="15.922191"><ele>59.5</ele><time>2026-05-01T06:17:59.98Z</time></trkpt><trkpt lat="38.4201894" lon="15.9223225"><ele>59.0</ele><time>2026-05-01T06:18:00.98Z</time></trkpt><trkpt lat="38.4205297" lon="15.9224567"><ele>60.0</ele><time>2026-05-01T06:18:01.98Z</time></trkpt><trkpt lat="38.4208574" lon="15.9225857"><ele>61.0</ele><time>2026-05-01T06:18:02.981Z</time></trkpt><trkpt lat="38.4211651" lon="15.9227054"><ele>59.5</ele><time>2026-05-01T06:18:03.981Z</time></trkpt><trkpt lat="38.4214522" lon="15.9228099"><ele>58.0</ele><time>2026-05-01T06:18:04.981Z</time></trkpt><trkpt lat="38.4217279" lon="15.9229212"><ele>58.0</ele><time>2026-05-01T06:18:05.98Z</time></trkpt><trkpt lat="38.4220062" lon="15.9230312"><ele>58.0</ele><time>2026-05-01T06:18:06.98Z</time></trkpt><trkpt lat="38.4222931" lon="15.9231441"><ele>54.5</ele><time>2026-05-01T06:18:07.98Z</time></trkpt><trkpt lat="38.4225891" lon="15.923261"><ele>51.0</ele><time>2026-05-01T06:18:08.98Z</time></trkpt><trkpt lat="38.4228895" lon="15.9233749"><ele>52.5</ele><time>2026-05-01T06:18:09.98Z</time></trkpt><trkpt lat="38.4231893" lon="15.9234929"><ele>54.0</ele><time>2026-05-01T06:18:10.98Z</time></trkpt><trkpt lat="38.4235008" lon="15.9236187"><ele>50.0</ele><time>2026-05-01T06:18:11.98Z</time></trkpt><trkpt lat="38.4238199" lon="15.9237438"><ele>46.0</ele><time>2026-05-01T06:18:12.98Z</time></trkpt><trkpt lat="38.4241438" lon="15.9238844"><ele>46.0</ele><time>2026-05-01T06:18:13.98Z</time></trkpt><trkpt lat="38.4244625" lon="15.9240388"><ele>46.0</ele><time>2026-05-01T06:18:14.981Z</time></trkpt><trkpt lat="38.4247767" lon="15.9241964"><ele>47.5</ele><time>2026-05-01T06:18:15.98Z</time></trkpt><trkpt lat="38.4250934" lon="15.9243591"><ele>49.0</ele><time>2026-05-01T06:18:16.98Z</time></trkpt><trkpt lat="38.4254095" lon="15.9245302"><ele>42.0</ele><time>2026-05-01T06:18:17.98Z</time></trkpt><trkpt lat="38.4257247" lon="15.9247077"><ele>35.0</ele><time>2026-05-01T06:18:18.98Z</time></trkpt><trkpt lat="38.4260412" lon="15.9249011"><ele>30.0</ele><time>2026-05-01T06:18:19.98Z</time></trkpt><trkpt lat="38.4263603" lon="15.9250985"><ele>25.0</ele><time>2026-05-01T06:18:20.981Z</time></trkpt><trkpt lat="38.4266782" lon="15.9253093"><ele>25.0</ele><time>2026-05-01T06:18:21.981Z</time></trkpt><trkpt lat="38.4269961" lon="15.9255203"><ele>25.0</ele><time>2026-05-01T06:18:22.981Z</time></trkpt><trkpt lat="38.4273069" lon="15.9257469"><ele>21.5</ele><time>2026-05-01T06:18:23.98Z</time></trkpt><trkpt lat="38.4276154" lon="15.9259875"><ele>18.0</ele><time>2026-05-01T06:18:24.98Z</time></trkpt><trkpt lat="38.4279186" lon="15.9262416"><ele>17.5</ele><time>2026-05-01T06:18:25.98Z</time></trkpt><trkpt lat="38.428221" lon="15.9264974"><ele>17.0</ele><time>2026-05-01T06:18:26.98Z</time></trkpt><trkpt lat="38.4285136" lon="15.9267594"><ele>17.0</ele><time>2026-05-01T06:18:27.981Z</time></trkpt><trkpt lat="38.4288058" lon="15.9270272"><ele>17.0</ele><time>2026-05-01T06:18:28.981Z</time></trkpt><trkpt lat="38.4290878" lon="15.9273028"><ele>17.5</ele><time>2026-05-01T06:18:29.98Z</time></trkpt><trkpt lat="38.4293637" lon="15.9275787"><ele>18.0</ele><time>2026-05-01T06:18:30.98Z</time></trkpt><trkpt lat="38.4296383" lon="15.9278655"><ele>18.0</ele><time>2026-05-01T06:18:31.98Z</time></trkpt><trkpt lat="38.429908" lon="15.928156"><ele>18.0</ele><time>2026-05-01T06:18:32.98Z</time></trkpt><trkpt lat="38.4301683" lon="15.9284498"><ele>18.0</ele><time>2026-05-01T06:18:33.98Z</time></trkpt><trkpt lat="38.4304254" lon="15.9287435"><ele>18.0</ele><time>2026-05-01T06:18:34.981Z</time></trkpt><trkpt lat="38.4306759" lon="15.9290447"><ele>18.0</ele><time>2026-05-01T06:18:35.98Z</time></trkpt><trkpt lat="38.4309254" lon="15.9293446"><ele>18.0</ele><time>2026-05-01T06:18:36.98Z</time></trkpt><trkpt lat="38.431174" lon="15.9296321"><ele>23.0</ele><time>2026-05-01T06:18:37.98Z</time></trkpt><trkpt lat="38.4314125" lon="15.9299239"><ele>28.0</ele><time>2026-05-01T06:18:38.981Z</time></trkpt><trkpt lat="38.43165" lon="15.9302092"><ele>28.5</ele><time>2026-05-01T06:18:39.981Z</time></trkpt><trkpt lat="38.4318888" lon="15.9304948"><ele>29.0</ele><time>2026-05-01T06:18:40.981Z</time></trkpt><trkpt lat="38.4321257" lon="15.9307727"><ele>27.0</ele><time>2026-05-01T06:18:41.981Z</time></trkpt><trkpt lat="38.4323573" lon="15.931056"><ele>25.0</ele><time>2026-05-01T06:18:42.981Z</time></trkpt><trkpt lat="38.4325897" lon="15.9313365"><ele>25.0</ele><time>2026-05-01T06:18:43.98Z</time></trkpt><trkpt lat="38.4328225" lon="15.9316106"><ele>25.0</ele><time>2026-05-01T06:18:44.981Z</time></trkpt><trkpt lat="38.4330574" lon="15.9318847"><ele>27.0</ele><time>2026-05-01T06:18:45.981Z</time></trkpt><trkpt lat="38.4332892" lon="15.9321605"><ele>29.0</ele><time>2026-05-01T06:18:46.98Z</time></trkpt><trkpt lat="38.4335232" lon="15.932437"><ele>30.5</ele><time>2026-05-01T06:18:47.98Z</time></trkpt><trkpt lat="38.4337613" lon="15.9327145"><ele>32.0</ele><time>2026-05-01T06:18:48.98Z</time></trkpt><trkpt lat="38.434003" lon="15.9329915"><ele>32.0</ele><time>2026-05-01T06:18:49.981Z</time></trkpt><trkpt lat="38.4342438" lon="15.9332662"><ele>32.0</ele><time>2026-05-01T06:18:50.98Z</time></trkpt><trkpt lat="38.4344796" lon="15.933547"><ele>35.5</ele><time>2026-05-01T06:18:51.981Z</time></trkpt><trkpt lat="38.4347175" lon="15.9338276"><ele>39.0</ele><time>2026-05-01T06:18:52.98Z</time></trkpt><trkpt lat="38.4349585" lon="15.9341084"><ele>39.0</ele><time>2026-05-01T06:18:53.98Z</time></trkpt><trkpt lat="38.4351989" lon="15.934389"><ele>39.0</ele><time>2026-05-01T06:18:54.98Z</time></trkpt><trkpt lat="38.4354372" lon="15.9346802"><ele>43.5</ele><time>2026-05-01T06:18:55.98Z</time></trkpt><trkpt lat="38.4356749" lon="15.9349751"><ele>48.0</ele><time>2026-05-01T06:18:56.98Z</time></trkpt><trkpt lat="38.4359111" lon="15.9352731"><ele>48.0</ele><time>2026-05-01T06:18:57.98Z</time></trkpt><trkpt lat="38.4361453" lon="15.9355721"><ele>48.0</ele><time>2026-05-01T06:18:58.98Z</time></trkpt><trkpt lat="38.436367" lon="15.9358809"><ele>49.0</ele><time>2026-05-01T06:18:59.98Z</time></trkpt><trkpt lat="38.4365827" lon="15.9361977"><ele>50.0</ele><time>2026-05-01T06:19:00.98Z</time></trkpt><trkpt lat="38.4367973" lon="15.9365085"><ele>51.0</ele><time>2026-05-01T06:19:01.981Z</time></trkpt><trkpt lat="38.4370118" lon="15.9368234"><ele>52.0</ele><time>2026-05-01T06:19:02.98Z</time></trkpt><trkpt lat="38.4372205" lon="15.9371442"><ele>52.5</ele><time>2026-05-01T06:19:03.98Z</time></trkpt><trkpt lat="38.4374249" lon="15.9374629"><ele>53.0</ele><time>2026-05-01T06:19:04.98Z</time></trkpt><trkpt lat="38.4376132" lon="15.9377883"><ele>53.5</ele><time>2026-05-01T06:19:05.981Z</time></trkpt><trkpt lat="38.4377977" lon="15.9381242"><ele>54.0</ele><time>2026-05-01T06:19:06.981Z</time></trkpt><trkpt lat="38.4379801" lon="15.9384689"><ele>54.0</ele><time>2026-05-01T06:19:07.98Z</time></trkpt><trkpt lat="38.4381597" lon="15.9388194"><ele>54.0</ele><time>2026-05-01T06:19:08.981Z</time></trkpt><trkpt lat="38.4383324" lon="15.9391685"><ele>55.0</ele><time>2026-05-01T06:19:09.98Z</time></trkpt><trkpt lat="38.4385003" lon="15.939519"><ele>56.0</ele><time>2026-05-01T06:19:10.98Z</time></trkpt><trkpt lat="38.4386654" lon="15.9398726"><ele>54.5</ele><time>2026-05-01T06:19:11.981Z</time></trkpt><trkpt lat="38.4388214" lon="15.9402224"><ele>53.0</ele><time>2026-05-01T06:19:12.981Z</time></trkpt><trkpt lat="38.4389702" lon="15.9405782"><ele>53.5</ele><time>2026-05-01T06:19:13.98Z</time></trkpt><trkpt lat="38.4391146" lon="15.9409327"><ele>54.0</ele><time>2026-05-01T06:19:14.981Z</time></trkpt><trkpt lat="38.4392476" lon="15.9412881"><ele>54.0</ele><time>2026-05-01T06:19:15.981Z</time></trkpt><trkpt lat="38.4393806" lon="15.9416527"><ele>54.0</ele><time>2026-05-01T06:19:16.98Z</time></trkpt><trkpt lat="38.4395079" lon="15.9420114"><ele>54.0</ele><time>2026-05-01T06:19:17.981Z</time></trkpt><trkpt lat="38.4396426" lon="15.9423666"><ele>54.0</ele><time>2026-05-01T06:19:18.98Z</time></trkpt><trkpt lat="38.4397713" lon="15.9427264"><ele>54.5</ele><time>2026-05-01T06:19:19.98Z</time></trkpt><trkpt lat="38.4398984" lon="15.9430815"><ele>55.0</ele><time>2026-05-01T06:19:20.981Z</time></trkpt><trkpt lat="38.4400262" lon="15.9434394"><ele>56.5</ele><time>2026-05-01T06:19:21.981Z</time></trkpt><trkpt lat="38.4401564" lon="15.943793"><ele>58.0</ele><time>2026-05-01T06:19:22.981Z</time></trkpt><trkpt lat="38.4402921" lon="15.9441398"><ele>59.0</ele><time>2026-05-01T06:19:23.98Z</time></trkpt><trkpt lat="38.4404242" lon="15.9444931"><ele>60.0</ele><time>2026-05-01T06:19:24.98Z</time></trkpt><trkpt lat="38.440563" lon="15.9448383"><ele>60.5</ele><time>2026-05-01T06:19:25.98Z</time></trkpt><trkpt lat="38.4407045" lon="15.9451919"><ele>61.0</ele><time>2026-05-01T06:19:26.98Z</time></trkpt><trkpt lat="38.4408501" lon="15.9455405"><ele>62.0</ele><time>2026-05-01T06:19:27.98Z</time></trkpt><trkpt lat="38.4409968" lon="15.945888"><ele>63.0</ele><time>2026-05-01T06:19:28.98Z</time></trkpt><trkpt lat="38.4411492" lon="15.9462339"><ele>61.0</ele><time>2026-05-01T06:19:29.98Z</time></trkpt><trkpt lat="38.4413082" lon="15.9465678"><ele>59.0</ele><time>2026-05-01T06:19:30.981Z</time></trkpt><trkpt lat="38.4414691" lon="15.9468981"><ele>59.0</ele><time>2026-05-01T06:19:31.98Z</time></trkpt><trkpt lat="38.4416366" lon="15.9472188"><ele>59.0</ele><time>2026-05-01T06:19:32.98Z</time></trkpt><trkpt lat="38.4418071" lon="15.9475326"><ele>60.0</ele><time>2026-05-01T06:19:33.981Z</time></trkpt><trkpt lat="38.4419855" lon="15.9478387"><ele>61.0</ele><time>2026-05-01T06:19:34.98Z</time></trkpt><trkpt lat="38.4421724" lon="15.9481452"><ele>61.5</ele><time>2026-05-01T06:19:35.98Z</time></trkpt><trkpt lat="38.4423623" lon="15.9484542"><ele>62.0</ele><time>2026-05-01T06:19:36.98Z</time></trkpt><trkpt lat="38.4425617" lon="15.9487621"><ele>62.0</ele><time>2026-05-01T06:19:37.98Z</time></trkpt><trkpt lat="38.4427671" lon="15.9490714"><ele>62.0</ele><time>2026-05-01T06:19:38.981Z</time></trkpt><trkpt lat="38.4429775" lon="15.9493773"><ele>62.5</ele><time>2026-05-01T06:19:39.98Z</time></trkpt><trkpt lat="38.4431917" lon="15.9496818"><ele>63.0</ele><time>2026-05-01T06:19:40.98Z</time></trkpt><trkpt lat="38.4434088" lon="15.9499786"><ele>63.5</ele><time>2026-05-01T06:19:41.98Z</time></trkpt><trkpt lat="38.4436257" lon="15.9502772"><ele>64.0</ele><time>2026-05-01T06:19:42.981Z</time></trkpt><trkpt lat="38.4438434" lon="15.9505782"><ele>64.0</ele><time>2026-05-01T06:19:43.981Z</time></trkpt><trkpt lat="38.4440623" lon="15.9508712"><ele>64.0</ele><time>2026-05-01T06:19:44.981Z</time></trkpt><trkpt lat="38.4442808" lon="15.9511619"><ele>64.5</ele><time>2026-05-01T06:19:45.98Z</time></trkpt><trkpt lat="38.4444978" lon="15.9514531"><ele>65.0</ele><time>2026-05-01T06:19:46.98Z</time></trkpt><trkpt lat="38.444716" lon="15.9517506"><ele>64.0</ele><time>2026-05-01T06:19:47.981Z</time></trkpt><trkpt lat="38.4449326" lon="15.952044"><ele>63.0</ele><time>2026-05-01T06:19:48.98Z</time></trkpt><trkpt lat="38.4451388" lon="15.952345"><ele>63.0</ele><time>2026-05-01T06:19:49.98Z</time></trkpt><trkpt lat="38.445344" lon="15.952649"><ele>63.0</ele><time>2026-05-01T06:19:50.98Z</time></trkpt><trkpt lat="38.4455386" lon="15.9529551"><ele>64.0</ele><time>2026-05-01T06:19:51.98Z</time></trkpt><trkpt lat="38.4457317" lon="15.9532638"><ele>65.0</ele><time>2026-05-01T06:19:52.98Z</time></trkpt><trkpt lat="38.4459223" lon="15.9535791"><ele>65.0</ele><time>2026-05-01T06:19:53.98Z</time></trkpt><trkpt lat="38.4461007" lon="15.953902"><ele>65.0</ele><time>2026-05-01T06:19:54.98Z</time></trkpt><trkpt lat="38.44627" lon="15.9542309"><ele>64.0</ele><time>2026-05-01T06:19:55.98Z</time></trkpt><trkpt lat="38.4464292" lon="15.9545697"><ele>63.0</ele><time>2026-05-01T06:19:56.981Z</time></trkpt><trkpt lat="38.4465819" lon="15.954919"><ele>65.0</ele><time>2026-05-01T06:19:57.98Z</time></trkpt><trkpt lat="38.4467367" lon="15.9552761"><ele>67.0</ele><time>2026-05-01T06:19:58.98Z</time></trkpt><trkpt lat="38.4468866" lon="15.9556488"><ele>67.0</ele><time>2026-05-01T06:19:59.98Z</time></trkpt><trkpt lat="38.4470286" lon="15.9560344"><ele>67.0</ele><time>2026-05-01T06:20:00.981Z</time></trkpt><trkpt lat="38.4471644" lon="15.9564299"><ele>66.5</ele><time>2026-05-01T06:20:01.98Z</time></trkpt><trkpt lat="38.447289" lon="15.9568378"><ele>66.0</ele><time>2026-05-01T06:20:02.98Z</time></trkpt><trkpt lat="38.447409" lon="15.9572496"><ele>66.0</ele><time>2026-05-01T06:20:03.98Z</time></trkpt><trkpt lat="38.4475163" lon="15.957663"><ele>66.0</ele><time>2026-05-01T06:20:04.981Z</time></trkpt><trkpt lat="38.447616" lon="15.9580648"><ele>67.5</ele><time>2026-05-01T06:20:05.98Z</time></trkpt><trkpt lat="38.4477098" lon="15.9584635"><ele>69.0</ele><time>2026-05-01T06:20:06.98Z</time></trkpt><trkpt lat="38.4478006" lon="15.958858"><ele>68.5</ele><time>2026-05-01T06:20:07.98Z</time></trkpt><trkpt lat="38.4478948" lon="15.9592653"><ele>68.0</ele><time>2026-05-01T06:20:08.98Z</time></trkpt><trkpt lat="38.4479933" lon="15.9596758"><ele>68.0</ele><time>2026-05-01T06:20:09.98Z</time></trkpt><trkpt lat="38.4480959" lon="15.9600825"><ele>68.0</ele><time>2026-05-01T06:20:10.98Z</time></trkpt><trkpt lat="38.4482063" lon="15.9604855"><ele>68.0</ele><time>2026-05-01T06:20:11.981Z</time></trkpt><trkpt lat="38.448324" lon="15.9608842"><ele>68.0</ele><time>2026-05-01T06:20:12.981Z</time></trkpt><trkpt lat="38.4484517" lon="15.9612697"><ele>68.0</ele><time>2026-05-01T06:20:13.98Z</time></trkpt><trkpt lat="38.44858" lon="15.9616483"><ele>68.0</ele><time>2026-05-01T06:20:14.98Z</time></trkpt><trkpt lat="38.4487126" lon="15.9620208"><ele>69.5</ele><time>2026-05-01T06:20:15.981Z</time></trkpt><trkpt lat="38.4488491" lon="15.9623893"><ele>71.0</ele><time>2026-05-01T06:20:16.98Z</time></trkpt><trkpt lat="38.4489848" lon="15.9627542"><ele>71.0</ele><time>2026-05-01T06:20:17.981Z</time></trkpt><trkpt lat="38.449126" lon="15.9631222"><ele>71.0</ele><time>2026-05-01T06:20:18.98Z</time></trkpt><trkpt lat="38.4492711" lon="15.963483"><ele>72.0</ele><time>2026-05-01T06:20:19.98Z</time></trkpt><trkpt lat="38.4494186" lon="15.9638328"><ele>73.0</ele><time>2026-05-01T06:20:20.98Z</time></trkpt><trkpt lat="38.4495682" lon="15.9641897"><ele>71.5</ele><time>2026-05-01T06:20:21.98Z</time></trkpt><trkpt lat="38.4497196" lon="15.9645387"><ele>70.0</ele><time>2026-05-01T06:20:22.98Z</time></trkpt><trkpt lat="38.4498773" lon="15.9648875"><ele>68.0</ele><time>2026-05-01T06:20:23.98Z</time></trkpt><trkpt lat="38.4500471" lon="15.9652338"><ele>66.0</ele><time>2026-05-01T06:20:24.98Z</time></trkpt><trkpt lat="38.4502161" lon="15.9655779"><ele>66.0</ele><time>2026-05-01T06:20:25.98Z</time></trkpt><trkpt lat="38.4503909" lon="15.9659194"><ele>66.0</ele><time>2026-05-01T06:20:26.98Z</time></trkpt><trkpt lat="38.4505645" lon="15.9662595"><ele>66.5</ele><time>2026-05-01T06:20:27.981Z</time></trkpt><trkpt lat="38.4507413" lon="15.9665915"><ele>67.0</ele><time>2026-05-01T06:20:28.98Z</time></trkpt><trkpt lat="38.4509199" lon="15.9669202"><ele>67.5</ele><time>2026-05-01T06:20:29.98Z</time></trkpt><trkpt lat="38.4511004" lon="15.9672351"><ele>68.0</ele><time>2026-05-01T06:20:30.981Z</time></trkpt><trkpt lat="38.4512825" lon="15.9675398"><ele>67.5</ele><time>2026-05-01T06:20:31.98Z</time></trkpt><trkpt lat="38.4514641" lon="15.9678383"><ele>67.0</ele><time>2026-05-01T06:20:32.98Z</time></trkpt><trkpt lat="38.4516511" lon="15.9681347"><ele>67.5</ele><time>2026-05-01T06:20:33.981Z</time></trkpt><trkpt lat="38.4518402" lon="15.9684274"><ele>68.0</ele><time>2026-05-01T06:20:34.98Z</time></trkpt><trkpt lat="38.4520317" lon="15.9687151"><ele>69.0</ele><time>2026-05-01T06:20:35.981Z</time></trkpt><trkpt lat="38.4522254" lon="15.9690004"><ele>70.0</ele><time>2026-05-01T06:20:36.98Z</time></trkpt><trkpt lat="38.4524197" lon="15.9692777"><ele>70.0</ele><time>2026-05-01T06:20:37.98Z</time></trkpt><trkpt lat="38.4526183" lon="15.9695493"><ele>70.0</ele><time>2026-05-01T06:20:38.981Z</time></trkpt><trkpt lat="38.4528171" lon="15.9698262"><ele>69.0</ele><time>2026-05-01T06:20:39.981Z</time></trkpt><trkpt lat="38.4530188" lon="15.9701021"><ele>68.0</ele><time>2026-05-01T06:20:40.981Z</time></trkpt><trkpt lat="38.4532244" lon="15.9703704"><ele>68.0</ele><time>2026-05-01T06:20:41.98Z</time></trkpt><trkpt lat="38.4534343" lon="15.9706281"><ele>68.0</ele><time>2026-05-01T06:20:42.98Z</time></trkpt><trkpt lat="38.4536473" lon="15.9708825"><ele>68.0</ele><time>2026-05-01T06:20:43.98Z</time></trkpt><trkpt lat="38.4538698" lon="15.9711277"><ele>68.0</ele><time>2026-05-01T06:20:44.98Z</time></trkpt><trkpt lat="38.4540938" lon="15.9713723"><ele>68.0</ele><time>2026-05-01T06:20:45.981Z</time></trkpt><trkpt lat="38.4543181" lon="15.971617"><ele>68.0</ele><time>2026-05-01T06:20:46.98Z</time></trkpt><trkpt lat="38.4545378" lon="15.9718606"><ele>70.0</ele><time>2026-05-01T06:20:47.981Z</time></trkpt><trkpt lat="38.4547623" lon="15.9720987"><ele>72.0</ele><time>2026-05-01T06:20:48.98Z</time></trkpt><trkpt lat="38.4549895" lon="15.9723404"><ele>73.0</ele><time>2026-05-01T06:20:49.981Z</time></trkpt><trkpt lat="38.4552201" lon="15.9725834"><ele>74.0</ele><time>2026-05-01T06:20:50.981Z</time></trkpt><trkpt lat="38.4554506" lon="15.9728279"><ele>73.5</ele><time>2026-05-01T06:20:51.98Z</time></trkpt><trkpt lat="38.4556804" lon="15.9730622"><ele>73.0</ele><time>2026-05-01T06:20:52.98Z</time></trkpt><trkpt lat="38.4559089" lon="15.9733074"><ele>73.0</ele><time>2026-05-01T06:20:53.981Z</time></trkpt><trkpt lat="38.4561336" lon="15.9735547"><ele>73.0</ele><time>2026-05-01T06:20:54.98Z</time></trkpt><trkpt lat="38.4563637" lon="15.9737983"><ele>73.0</ele><time>2026-05-01T06:20:55.98Z</time></trkpt><trkpt lat="38.4565949" lon="15.9740438"><ele>73.0</ele><time>2026-05-01T06:20:56.98Z</time></trkpt><trkpt lat="38.4568218" lon="15.9742877"><ele>73.5</ele><time>2026-05-01T06:20:57.98Z</time></trkpt><trkpt lat="38.4570525" lon="15.9745297"><ele>74.0</ele><time>2026-05-01T06:20:58.98Z</time></trkpt><trkpt lat="38.4572818" lon="15.9747794"><ele>75.0</ele><time>2026-05-01T06:20:59.981Z</time></trkpt><trkpt lat="38.4575089" lon="15.975025"><ele>76.0</ele><time>2026-05-01T06:21:00.981Z</time></trkpt><trkpt lat="38.4577276" lon="15.9752768"><ele>76.0</ele><time>2026-05-01T06:21:01.98Z</time></trkpt><trkpt lat="38.4579514" lon="15.9755248"><ele>76.0</ele><time>2026-05-01T06:21:02.98Z</time></trkpt><trkpt lat="38.4581758" lon="15.9757632"><ele>75.5</ele><time>2026-05-01T06:21:03.98Z</time></trkpt><trkpt lat="38.458401" lon="15.975992"><ele>75.0</ele><time>2026-05-01T06:21:04.981Z</time></trkpt><trkpt lat="38.4586227" lon="15.9762281"><ele>74.5</ele><time>2026-05-01T06:21:05.981Z</time></trkpt><trkpt lat="38.4588442" lon="15.9764679"><ele>74.0</ele><time>2026-05-01T06:21:06.98Z</time></trkpt><trkpt lat="38.4590702" lon="15.9767087"><ele>74.0</ele><time>2026-05-01T06:21:07.98Z</time></trkpt><trkpt lat="38.459292" lon="15.9769466"><ele>74.0</ele><time>2026-05-01T06:21:08.98Z</time></trkpt><trkpt lat="38.4595137" lon="15.9771904"><ele>72.0</ele><time>2026-05-01T06:21:09.98Z</time></trkpt><trkpt lat="38.4597366" lon="15.9774294"><ele>70.0</ele><time>2026-05-01T06:21:10.98Z</time></trkpt><trkpt lat="38.4599642" lon="15.9776666"><ele>70.0</ele><time>2026-05-01T06:21:11.98Z</time></trkpt><trkpt lat="38.4601935" lon="15.9778967"><ele>70.0</ele><time>2026-05-01T06:21:12.98Z</time></trkpt><trkpt lat="38.460421" lon="15.9781267"><ele>68.5</ele><time>2026-05-01T06:21:13.98Z</time></trkpt><trkpt lat="38.4606502" lon="15.9783624"><ele>67.0</ele><time>2026-05-01T06:21:14.98Z</time></trkpt><trkpt lat="38.4608766" lon="15.9785988"><ele>67.0</ele><time>2026-05-01T06:21:15.981Z</time></trkpt><trkpt lat="38.4611009" lon="15.978832"><ele>67.0</ele><time>2026-05-01T06:21:16.98Z</time></trkpt><trkpt lat="38.4613234" lon="15.9790664"><ele>65.5</ele><time>2026-05-01T06:21:17.98Z</time></trkpt><trkpt lat="38.4615449" lon="15.9792975"><ele>64.0</ele><time>2026-05-01T06:21:18.98Z</time></trkpt><trkpt lat="38.4617662" lon="15.979532"><ele>64.0</ele><time>2026-05-01T06:21:19.98Z</time></trkpt><trkpt lat="38.4619911" lon="15.9797679"><ele>64.0</ele><time>2026-05-01T06:21:20.98Z</time></trkpt><trkpt lat="38.4622136" lon="15.9800041"><ele>65.0</ele><time>2026-05-01T06:21:21.98Z</time></trkpt><trkpt lat="38.4624294" lon="15.9802415"><ele>66.0</ele><time>2026-05-01T06:21:22.98Z</time></trkpt><trkpt lat="38.4626482" lon="15.9804673"><ele>66.0</ele><time>2026-05-01T06:21:23.98Z</time></trkpt><trkpt lat="38.46286" lon="15.9807063"><ele>66.0</ele><time>2026-05-01T06:21:24.981Z</time></trkpt><trkpt lat="38.4630731" lon="15.9809457"><ele>66.5</ele><time>2026-05-01T06:21:25.98Z</time></trkpt><trkpt lat="38.4632799" lon="15.9811904"><ele>67.0</ele><time>2026-05-01T06:21:26.98Z</time></trkpt><trkpt lat="38.4634774" lon="15.9814422"><ele>67.5</ele><time>2026-05-01T06:21:27.98Z</time></trkpt><trkpt lat="38.4636742" lon="15.9816978"><ele>68.0</ele><time>2026-05-01T06:21:28.98Z</time></trkpt><trkpt lat="38.4638628" lon="15.9819526"><ele>65.5</ele><time>2026-05-01T06:21:29.98Z</time></trkpt><trkpt lat="38.4640485" lon="15.982221"><ele>63.0</ele><time>2026-05-01T06:21:30.98Z</time></trkpt><trkpt lat="38.4642347" lon="15.9824892"><ele>63.5</ele><time>2026-05-01T06:21:31.981Z</time></trkpt><trkpt lat="38.4644093" lon="15.9827627"><ele>64.0</ele><time>2026-05-01T06:21:32.981Z</time></trkpt><trkpt lat="38.4645794" lon="15.9830337"><ele>65.0</ele><time>2026-05-01T06:21:33.981Z</time></trkpt><trkpt lat="38.4647493" lon="15.9833061"><ele>66.0</ele><time>2026-05-01T06:21:34.981Z</time></trkpt><trkpt lat="38.4649155" lon="15.983581"><ele>66.0</ele><time>2026-05-01T06:21:35.981Z</time></trkpt><trkpt lat="38.4650756" lon="15.983859"><ele>66.0</ele><time>2026-05-01T06:21:36.982Z</time></trkpt><trkpt lat="38.4652387" lon="15.9841499"><ele>65.0</ele><time>2026-05-01T06:21:37.981Z</time></trkpt><trkpt lat="38.4654012" lon="15.984446"><ele>64.0</ele><time>2026-05-01T06:21:38.981Z</time></trkpt><trkpt lat="38.4655614" lon="15.9847443"><ele>62.5</ele><time>2026-05-01T06:21:39.981Z</time></trkpt><trkpt lat="38.465722" lon="15.985053"><ele>61.0</ele><time>2026-05-01T06:21:40.981Z</time></trkpt><trkpt lat="38.4658847" lon="15.9853607"><ele>61.0</ele><time>2026-05-01T06:21:41.982Z</time></trkpt><trkpt lat="38.4660468" lon="15.9856646"><ele>61.0</ele><time>2026-05-01T06:21:42.982Z</time></trkpt><trkpt lat="38.4662121" lon="15.9859647"><ele>59.0</ele><time>2026-05-01T06:21:43.982Z</time></trkpt><trkpt lat="38.466376" lon="15.9862715"><ele>57.0</ele><time>2026-05-01T06:21:44.982Z</time></trkpt><trkpt lat="38.4665391" lon="15.9865719"><ele>56.5</ele><time>2026-05-01T06:21:45.981Z</time></trkpt><trkpt lat="38.4667069" lon="15.9868696"><ele>56.0</ele><time>2026-05-01T06:21:46.981Z</time></trkpt><trkpt lat="38.4668681" lon="15.9871697"><ele>56.0</ele><time>2026-05-01T06:21:47.982Z</time></trkpt><trkpt lat="38.4670353" lon="15.9874672"><ele>56.0</ele><time>2026-05-01T06:21:48.981Z</time></trkpt><trkpt lat="38.4671973" lon="15.9877627"><ele>55.5</ele><time>2026-05-01T06:21:49.981Z</time></trkpt><trkpt lat="38.4673576" lon="15.9880571"><ele>55.0</ele><time>2026-05-01T06:21:50.982Z</time></trkpt><trkpt lat="38.4675245" lon="15.9883497"><ele>54.5</ele><time>2026-05-01T06:21:51.982Z</time></trkpt><trkpt lat="38.4676843" lon="15.9886471"><ele>54.0</ele><time>2026-05-01T06:21:52.982Z</time></trkpt><trkpt lat="38.4678487" lon="15.9889394"><ele>57.5</ele><time>2026-05-01T06:21:53.982Z</time></trkpt><trkpt lat="38.4680066" lon="15.9892358"><ele>61.0</ele><time>2026-05-01T06:21:54.981Z</time></trkpt><trkpt lat="38.4681603" lon="15.9895369"><ele>61.0</ele><time>2026-05-01T06:21:55.982Z</time></trkpt><trkpt lat="38.4683158" lon="15.9898373"><ele>61.0</ele><time>2026-05-01T06:21:56.981Z</time></trkpt><trkpt lat="38.4684686" lon="15.9901395"><ele>61.0</ele><time>2026-05-01T06:21:57.981Z</time></trkpt><trkpt lat="38.4686217" lon="15.9904415"><ele>61.0</ele><time>2026-05-01T06:21:58.982Z</time></trkpt><trkpt lat="38.468781" lon="15.9907433"><ele>59.5</ele><time>2026-05-01T06:21:59.981Z</time></trkpt><trkpt lat="38.4689439" lon="15.9910491"><ele>58.0</ele><time>2026-05-01T06:22:00.982Z</time></trkpt><trkpt lat="38.4691065" lon="15.9913561"><ele>58.0</ele><time>2026-05-01T06:22:01.982Z</time></trkpt><trkpt lat="38.4692711" lon="15.991667"><ele>58.0</ele><time>2026-05-01T06:22:02.981Z</time></trkpt><trkpt lat="38.4694302" lon="15.9919985"><ele>55.0</ele><time>2026-05-01T06:22:03.981Z</time></trkpt><trkpt lat="38.4695964" lon="15.9923099"><ele>52.0</ele><time>2026-05-01T06:22:04.981Z</time></trkpt><trkpt lat="38.469768" lon="15.9926046"><ele>41.5</ele><time>2026-05-01T06:22:05.982Z</time></trkpt><trkpt lat="38.4699292" lon="15.9928958"><ele>31.0</ele><time>2026-05-01T06:22:06.981Z</time></trkpt><trkpt lat="38.4701009" lon="15.9931835"><ele>31.5</ele><time>2026-05-01T06:22:07.981Z</time></trkpt><trkpt lat="38.4702727" lon="15.9934826"><ele>32.0</ele><time>2026-05-01T06:22:08.981Z</time></trkpt><trkpt lat="38.4704442" lon="15.9937767"><ele>32.5</ele><time>2026-05-01T06:22:09.981Z</time></trkpt><trkpt lat="38.4706293" lon="15.9940629"><ele>33.0</ele><time>2026-05-01T06:22:10.981Z</time></trkpt><trkpt lat="38.4708098" lon="15.994348"><ele>33.0</ele><time>2026-05-01T06:22:11.981Z</time></trkpt><trkpt lat="38.4709934" lon="15.9946307"><ele>33.0</ele><time>2026-05-01T06:22:12.981Z</time></trkpt><trkpt lat="38.4711839" lon="15.9949123"><ele>33.5</ele><time>2026-05-01T06:22:13.982Z</time></trkpt><trkpt lat="38.4713773" lon="15.9951789"><ele>34.0</ele><time>2026-05-01T06:22:14.982Z</time></trkpt><trkpt lat="38.4715787" lon="15.995436"><ele>34.0</ele><time>2026-05-01T06:22:15.981Z</time></trkpt><trkpt lat="38.4717872" lon="15.9956832"><ele>34.0</ele><time>2026-05-01T06:22:16.981Z</time></trkpt><trkpt lat="38.4720056" lon="15.9959205"><ele>35.0</ele><time>2026-05-01T06:22:17.982Z</time></trkpt><trkpt lat="38.4722242" lon="15.9961602"><ele>36.0</ele><time>2026-05-01T06:22:18.982Z</time></trkpt><trkpt lat="38.4724505" lon="15.9963814"><ele>36.0</ele><time>2026-05-01T06:22:19.982Z</time></trkpt><trkpt lat="38.4726861" lon="15.9965955"><ele>36.0</ele><time>2026-05-01T06:22:20.981Z</time></trkpt><trkpt lat="38.4729232" lon="15.9968023"><ele>35.5</ele><time>2026-05-01T06:22:21.982Z</time></trkpt><trkpt lat="38.4731686" lon="15.9969978"><ele>35.0</ele><time>2026-05-01T06:22:22.981Z</time></trkpt><trkpt lat="38.4734169" lon="15.9971969"><ele>35.0</ele><time>2026-05-01T06:22:23.981Z</time></trkpt><trkpt lat="38.4736615" lon="15.9973893"><ele>35.0</ele><time>2026-05-01T06:22:24.981Z</time></trkpt><trkpt lat="38.4739111" lon="15.9975798"><ele>34.5</ele><time>2026-05-01T06:22:25.981Z</time></trkpt><trkpt lat="38.4741604" lon="15.9977684"><ele>34.0</ele><time>2026-05-01T06:22:26.982Z</time></trkpt><trkpt lat="38.4744054" lon="15.9979578"><ele>34.5</ele><time>2026-05-01T06:22:27.982Z</time></trkpt><trkpt lat="38.4746546" lon="15.9981515"><ele>35.0</ele><time>2026-05-01T06:22:28.982Z</time></trkpt><trkpt lat="38.4749061" lon="15.9983391"><ele>35.0</ele><time>2026-05-01T06:22:29.981Z</time></trkpt><trkpt lat="38.4751542" lon="15.9985222"><ele>35.0</ele><time>2026-05-01T06:22:30.981Z</time></trkpt><trkpt lat="38.4754026" lon="15.998707"><ele>34.0</ele><time>2026-05-01T06:22:31.982Z</time></trkpt><trkpt lat="38.4756554" lon="15.9988859"><ele>33.0</ele><time>2026-05-01T06:22:32.981Z</time></trkpt><trkpt lat="38.4759033" lon="15.9990661"><ele>33.5</ele><time>2026-05-01T06:22:33.982Z</time></trkpt><trkpt lat="38.476142" lon="15.9992503"><ele>34.0</ele><time>2026-05-01T06:22:34.981Z</time></trkpt><trkpt lat="38.476384" lon="15.9994236"><ele>35.0</ele><time>2026-05-01T06:22:35.981Z</time></trkpt><trkpt lat="38.4766311" lon="15.9995833"><ele>36.0</ele><time>2026-05-01T06:22:36.982Z</time></trkpt><trkpt lat="38.4768852" lon="15.9997342"><ele>35.0</ele><time>2026-05-01T06:22:37.981Z</time></trkpt><trkpt lat="38.4771326" lon="15.9998862"><ele>34.0</ele><time>2026-05-01T06:22:38.982Z</time></trkpt><trkpt lat="38.4773881" lon="16.0000316"><ele>34.0</ele><time>2026-05-01T06:22:39.981Z</time></trkpt><trkpt lat="38.4776534" lon="16.0001648"><ele>34.0</ele><time>2026-05-01T06:22:40.981Z</time></trkpt><trkpt lat="38.4779167" lon="16.0002951"><ele>34.5</ele><time>2026-05-01T06:22:41.981Z</time></trkpt><trkpt lat="38.4781834" lon="16.0004247"><ele>35.0</ele><time>2026-05-01T06:22:42.982Z</time></trkpt><trkpt lat="38.4784508" lon="16.000547"><ele>35.0</ele><time>2026-05-01T06:22:43.982Z</time></trkpt><trkpt lat="38.4787189" lon="16.0006588"><ele>35.0</ele><time>2026-05-01T06:22:44.981Z</time></trkpt><trkpt lat="38.4789888" lon="16.0007637"><ele>35.5</ele><time>2026-05-01T06:22:45.982Z</time></trkpt><trkpt lat="38.4792631" lon="16.0008589"><ele>36.0</ele><time>2026-05-01T06:22:46.981Z</time></trkpt><trkpt lat="38.4795423" lon="16.0009392"><ele>37.0</ele><time>2026-05-01T06:22:47.981Z</time></trkpt><trkpt lat="38.4798248" lon="16.0010177"><ele>38.0</ele><time>2026-05-01T06:22:48.982Z</time></trkpt><trkpt lat="38.4801072" lon="16.0011025"><ele>38.0</ele><time>2026-05-01T06:22:49.981Z</time></trkpt><trkpt lat="38.4803879" lon="16.0011933"><ele>38.0</ele><time>2026-05-01T06:22:50.981Z</time></trkpt><trkpt lat="38.4806724" lon="16.0012838"><ele>42.0</ele><time>2026-05-01T06:22:51.981Z</time></trkpt><trkpt lat="38.4809571" lon="16.0013798"><ele>46.0</ele><time>2026-05-01T06:22:52.982Z</time></trkpt><trkpt lat="38.4812396" lon="16.0014695"><ele>49.5</ele><time>2026-05-01T06:22:53.982Z</time></trkpt><trkpt lat="38.4815183" lon="16.0015666"><ele>53.0</ele><time>2026-05-01T06:22:54.982Z</time></trkpt><trkpt lat="38.4817828" lon="16.0016637"><ele>52.0</ele><time>2026-05-01T06:22:55.982Z</time></trkpt><trkpt lat="38.4820471" lon="16.0017548"><ele>51.0</ele><time>2026-05-01T06:22:56.981Z</time></trkpt><trkpt lat="38.4823144" lon="16.0018308"><ele>51.0</ele><time>2026-05-01T06:22:57.982Z</time></trkpt><trkpt lat="38.4825817" lon="16.0019208"><ele>51.0</ele><time>2026-05-01T06:22:58.982Z</time></trkpt><trkpt lat="38.4828483" lon="16.0020232"><ele>50.0</ele><time>2026-05-01T06:22:59.981Z</time></trkpt><trkpt lat="38.4831029" lon="16.002138"><ele>49.0</ele><time>2026-05-01T06:23:00.981Z</time></trkpt><trkpt lat="38.483358" lon="16.0022603"><ele>49.0</ele><time>2026-05-01T06:23:01.982Z</time></trkpt><trkpt lat="38.4836072" lon="16.0023778"><ele>49.0</ele><time>2026-05-01T06:23:02.982Z</time></trkpt><trkpt lat="38.4838535" lon="16.0025034"><ele>46.0</ele><time>2026-05-01T06:23:03.981Z</time></trkpt><trkpt lat="38.4841338" lon="16.0027429"><ele>43.0</ele><time>2026-05-01T06:23:04.981Z</time></trkpt><trkpt lat="38.4844029" lon="16.0029685"><ele>38.5</ele><time>2026-05-01T06:23:05.981Z</time></trkpt><trkpt lat="38.4846717" lon="16.0031832"><ele>34.0</ele><time>2026-05-01T06:23:06.982Z</time></trkpt><trkpt lat="38.4849145" lon="16.0033939"><ele>33.0</ele><time>2026-05-01T06:23:07.981Z</time></trkpt><trkpt lat="38.4851513" lon="16.0036134"><ele>32.0</ele><time>2026-05-01T06:23:08.982Z</time></trkpt><trkpt lat="38.4853848" lon="16.0038386"><ele>31.5</ele><time>2026-05-01T06:23:09.981Z</time></trkpt><trkpt lat="38.4856086" lon="16.0040741"><ele>31.0</ele><time>2026-05-01T06:23:10.982Z</time></trkpt><trkpt lat="38.4858253" lon="16.0043146"><ele>30.5</ele><time>2026-05-01T06:23:11.982Z</time></trkpt><trkpt lat="38.4860354" lon="16.0045647"><ele>30.0</ele><time>2026-05-01T06:23:12.982Z</time></trkpt><trkpt lat="38.4862458" lon="16.0048179"><ele>30.5</ele><time>2026-05-01T06:23:13.981Z</time></trkpt><trkpt lat="38.4864446" lon="16.0050856"><ele>31.0</ele><time>2026-05-01T06:23:14.982Z</time></trkpt><trkpt lat="38.4866352" lon="16.0053679"><ele>31.0</ele><time>2026-05-01T06:23:15.981Z</time></trkpt><trkpt lat="38.4868206" lon="16.0056489"><ele>31.0</ele><time>2026-05-01T06:23:16.982Z</time></trkpt><trkpt lat="38.4870078" lon="16.0059278"><ele>31.0</ele><time>2026-05-01T06:23:17.981Z</time></trkpt><trkpt lat="38.4871922" lon="16.0062099"><ele>31.0</ele><time>2026-05-01T06:23:18.982Z</time></trkpt><trkpt lat="38.4873805" lon="16.0064869"><ele>30.0</ele><time>2026-05-01T06:23:19.981Z</time></trkpt><trkpt lat="38.4875709" lon="16.0067672"><ele>29.0</ele><time>2026-05-01T06:23:20.981Z</time></trkpt><trkpt lat="38.4877636" lon="16.0070401"><ele>29.0</ele><time>2026-05-01T06:23:21.981Z</time></trkpt><trkpt lat="38.4879635" lon="16.0073065"><ele>29.0</ele><time>2026-05-01T06:23:22.981Z</time></trkpt><trkpt lat="38.4881741" lon="16.007565"><ele>29.0</ele><time>2026-05-01T06:23:23.981Z</time></trkpt><trkpt lat="38.4883872" lon="16.0078157"><ele>29.0</ele><time>2026-05-01T06:23:24.982Z</time></trkpt><trkpt lat="38.4885972" lon="16.0080632"><ele>30.0</ele><time>2026-05-01T06:23:25.982Z</time></trkpt><trkpt lat="38.4888174" lon="16.0082947"><ele>31.0</ele><time>2026-05-01T06:23:26.981Z</time></trkpt><trkpt lat="38.489047" lon="16.0085231"><ele>31.5</ele><time>2026-05-01T06:23:27.982Z</time></trkpt><trkpt lat="38.4892827" lon="16.0087381"><ele>32.0</ele><time>2026-05-01T06:23:28.982Z</time></trkpt><trkpt lat="38.4895163" lon="16.0089453"><ele>32.5</ele><time>2026-05-01T06:23:29.982Z</time></trkpt><trkpt lat="38.4897583" lon="16.0091476"><ele>33.0</ele><time>2026-05-01T06:23:30.981Z</time></trkpt><trkpt lat="38.4900035" lon="16.0093368"><ele>33.5</ele><time>2026-05-01T06:23:31.982Z</time></trkpt><trkpt lat="38.4902491" lon="16.0095207"><ele>34.0</ele><time>2026-05-01T06:23:32.981Z</time></trkpt><trkpt lat="38.4905052" lon="16.0096933"><ele>33.0</ele><time>2026-05-01T06:23:33.981Z</time></trkpt><trkpt lat="38.4907674" lon="16.009859"><ele>32.0</ele><time>2026-05-01T06:23:34.981Z</time></trkpt><trkpt lat="38.4910333" lon="16.0100132"><ele>32.0</ele><time>2026-05-01T06:23:35.982Z</time></trkpt><trkpt lat="38.4913016" lon="16.0101595"><ele>32.0</ele><time>2026-05-01T06:23:36.981Z</time></trkpt><trkpt lat="38.4915594" lon="16.0103194"><ele>32.0</ele><time>2026-05-01T06:23:37.981Z</time></trkpt><trkpt lat="38.4918158" lon="16.010482"><ele>32.0</ele><time>2026-05-01T06:23:38.981Z</time></trkpt><trkpt lat="38.4920747" lon="16.010644"><ele>33.0</ele><time>2026-05-01T06:23:39.982Z</time></trkpt><trkpt lat="38.4923333" lon="16.0108057"><ele>34.0</ele><time>2026-05-01T06:23:40.981Z</time></trkpt><trkpt lat="38.4925951" lon="16.0109676"><ele>34.0</ele><time>2026-05-01T06:23:41.981Z</time></trkpt><trkpt lat="38.4928608" lon="16.011132"><ele>34.0</ele><time>2026-05-01T06:23:42.981Z</time></trkpt><trkpt lat="38.4931214" lon="16.0112983"><ele>35.0</ele><time>2026-05-01T06:23:43.981Z</time></trkpt><trkpt lat="38.4933764" lon="16.0114711"><ele>36.0</ele><time>2026-05-01T06:23:44.982Z</time></trkpt><trkpt lat="38.4936295" lon="16.011653"><ele>40.0</ele><time>2026-05-01T06:23:45.981Z</time></trkpt><trkpt lat="38.4938743" lon="16.0118437"><ele>44.0</ele><time>2026-05-01T06:23:46.981Z</time></trkpt><trkpt lat="38.4941182" lon="16.0120427"><ele>44.0</ele><time>2026-05-01T06:23:47.981Z</time></trkpt><trkpt lat="38.4943568" lon="16.0122468"><ele>44.0</ele><time>2026-05-01T06:23:48.982Z</time></trkpt><trkpt lat="38.494594" lon="16.0124677"><ele>44.5</ele><time>2026-05-01T06:23:49.982Z</time></trkpt><trkpt lat="38.4948242" lon="16.0127006"><ele>45.0</ele><time>2026-05-01T06:23:50.981Z</time></trkpt><trkpt lat="38.4950465" lon="16.0129353"><ele>45.0</ele><time>2026-05-01T06:23:51.982Z</time></trkpt><trkpt lat="38.4952648" lon="16.0131684"><ele>45.0</ele><time>2026-05-01T06:23:52.981Z</time></trkpt><trkpt lat="38.4954766" lon="16.0134208"><ele>43.0</ele><time>2026-05-01T06:23:53.981Z</time></trkpt><trkpt lat="38.495685" lon="16.0136822"><ele>41.0</ele><time>2026-05-01T06:23:54.982Z</time></trkpt><trkpt lat="38.4958807" lon="16.0139491"><ele>39.0</ele><time>2026-05-01T06:23:55.982Z</time></trkpt><trkpt lat="38.4960739" lon="16.0142267"><ele>37.0</ele><time>2026-05-01T06:23:56.981Z</time></trkpt><trkpt lat="38.4962628" lon="16.0145091"><ele>37.0</ele><time>2026-05-01T06:23:57.981Z</time></trkpt><trkpt lat="38.4964457" lon="16.0147947"><ele>37.0</ele><time>2026-05-01T06:23:58.981Z</time></trkpt><trkpt lat="38.4966251" lon="16.015085"><ele>39.5</ele><time>2026-05-01T06:23:59.982Z</time></trkpt><trkpt lat="38.4968004" lon="16.0153864"><ele>42.0</ele><time>2026-05-01T06:24:00.981Z</time></trkpt><trkpt lat="38.4969668" lon="16.0156913"><ele>37.5</ele><time>2026-05-01T06:24:01.981Z</time></trkpt><trkpt lat="38.4971263" lon="16.0159995"><ele>33.0</ele><time>2026-05-01T06:24:02.981Z</time></trkpt><trkpt lat="38.4972802" lon="16.0163123"><ele>33.0</ele><time>2026-05-01T06:24:03.982Z</time></trkpt><trkpt lat="38.4974277" lon="16.0166262"><ele>33.0</ele><time>2026-05-01T06:24:04.982Z</time></trkpt><trkpt lat="38.497578" lon="16.0169421"><ele>33.5</ele><time>2026-05-01T06:24:05.981Z</time></trkpt><trkpt lat="38.497721" lon="16.0172642"><ele>34.0</ele><time>2026-05-01T06:24:06.981Z</time></trkpt><trkpt lat="38.4978584" lon="16.0175859"><ele>32.0</ele><time>2026-05-01T06:24:07.981Z</time></trkpt><trkpt lat="38.4979892" lon="16.0179109"><ele>30.0</ele><time>2026-05-01T06:24:08.982Z</time></trkpt><trkpt lat="38.4981191" lon="16.0182431"><ele>30.5</ele><time>2026-05-01T06:24:09.982Z</time></trkpt><trkpt lat="38.4982454" lon="16.0185775"><ele>31.0</ele><time>2026-05-01T06:24:10.981Z</time></trkpt><trkpt lat="38.4983648" lon="16.0189086"><ele>34.0</ele><time>2026-05-01T06:24:11.981Z</time></trkpt><trkpt lat="38.4984783" lon="16.0192477"><ele>37.0</ele><time>2026-05-01T06:24:12.982Z</time></trkpt><trkpt lat="38.4985903" lon="16.0195854"><ele>37.0</ele><time>2026-05-01T06:24:13.981Z</time></trkpt><trkpt lat="38.4986986" lon="16.0199268"><ele>37.0</ele><time>2026-05-01T06:24:14.981Z</time></trkpt><trkpt lat="38.4988045" lon="16.020271"><ele>35.5</ele><time>2026-05-01T06:24:15.981Z</time></trkpt><trkpt lat="38.498906" lon="16.0206166"><ele>34.0</ele><time>2026-05-01T06:24:16.981Z</time></trkpt><trkpt lat="38.4989994" lon="16.0209673"><ele>34.0</ele><time>2026-05-01T06:24:17.981Z</time></trkpt><trkpt lat="38.4990856" lon="16.0213171"><ele>34.0</ele><time>2026-05-01T06:24:18.981Z</time></trkpt><trkpt lat="38.499173" lon="16.0216702"><ele>33.0</ele><time>2026-05-01T06:24:19.981Z</time></trkpt><trkpt lat="38.4992587" lon="16.0220263"><ele>32.0</ele><time>2026-05-01T06:24:20.982Z</time></trkpt><trkpt lat="38.4993357" lon="16.0223869"><ele>33.0</ele><time>2026-05-01T06:24:21.981Z</time></trkpt><trkpt lat="38.4994098" lon="16.0227488"><ele>34.0</ele><time>2026-05-01T06:24:22.982Z</time></trkpt><trkpt lat="38.4994807" lon="16.02311"><ele>34.0</ele><time>2026-05-01T06:24:23.981Z</time></trkpt><trkpt lat="38.4995509" lon="16.0234762"><ele>34.0</ele><time>2026-05-01T06:24:24.982Z</time></trkpt><trkpt lat="38.4996152" lon="16.0238405"><ele>34.5</ele><time>2026-05-01T06:24:25.981Z</time></trkpt><trkpt lat="38.4996809" lon="16.0242058"><ele>35.0</ele><time>2026-05-01T06:24:26.981Z</time></trkpt><trkpt lat="38.4997505" lon="16.0245698"><ele>35.0</ele><time>2026-05-01T06:24:27.981Z</time></trkpt><trkpt lat="38.4998212" lon="16.0249337"><ele>35.0</ele><time>2026-05-01T06:24:28.982Z</time></trkpt><trkpt lat="38.4998918" lon="16.0252983"><ele>35.0</ele><time>2026-05-01T06:24:29.981Z</time></trkpt><trkpt lat="38.4999609" lon="16.0256655"><ele>35.0</ele><time>2026-05-01T06:24:30.982Z</time></trkpt><trkpt lat="38.5000238" lon="16.0260322"><ele>35.5</ele><time>2026-05-01T06:24:31.982Z</time></trkpt><trkpt lat="38.5000881" lon="16.0263955"><ele>36.0</ele><time>2026-05-01T06:24:32.981Z</time></trkpt><trkpt lat="38.5001552" lon="16.0267556"><ele>36.5</ele><time>2026-05-01T06:24:33.981Z</time></trkpt><trkpt lat="38.500229" lon="16.0271157"><ele>37.0</ele><time>2026-05-01T06:24:34.981Z</time></trkpt><trkpt lat="38.5003106" lon="16.0274767"><ele>37.0</ele><time>2026-05-01T06:24:35.981Z</time></trkpt><trkpt lat="38.500387" lon="16.027832"><ele>37.0</ele><time>2026-05-01T06:24:36.982Z</time></trkpt><trkpt lat="38.5004718" lon="16.028187"><ele>37.5</ele><time>2026-05-01T06:24:37.981Z</time></trkpt><trkpt lat="38.5005536" lon="16.0285375"><ele>38.0</ele><time>2026-05-01T06:24:38.982Z</time></trkpt><trkpt lat="38.5006492" lon="16.0288831"><ele>37.0</ele><time>2026-05-01T06:24:39.981Z</time></trkpt><trkpt lat="38.5007515" lon="16.0292224"><ele>36.0</ele><time>2026-05-01T06:24:40.982Z</time></trkpt><trkpt lat="38.5008607" lon="16.0295592"><ele>36.0</ele><time>2026-05-01T06:24:41.981Z</time></trkpt><trkpt lat="38.5009814" lon="16.0298935"><ele>36.0</ele><time>2026-05-01T06:24:42.981Z</time></trkpt><trkpt lat="38.5011042" lon="16.0302264"><ele>37.0</ele><time>2026-05-01T06:24:43.981Z</time></trkpt><trkpt lat="38.5012324" lon="16.0305555"><ele>38.0</ele><time>2026-05-01T06:24:44.981Z</time></trkpt><trkpt lat="38.501367" lon="16.0308803"><ele>38.5</ele><time>2026-05-01T06:24:45.982Z</time></trkpt><trkpt lat="38.5015091" lon="16.0311998"><ele>39.0</ele><time>2026-05-01T06:24:46.981Z</time></trkpt><trkpt lat="38.5016583" lon="16.031518"><ele>39.0</ele><time>2026-05-01T06:24:47.982Z</time></trkpt><trkpt lat="38.5018166" lon="16.0318324"><ele>39.0</ele><time>2026-05-01T06:24:48.981Z</time></trkpt><trkpt lat="38.5019799" lon="16.0321428"><ele>39.0</ele><time>2026-05-01T06:24:49.982Z</time></trkpt><trkpt lat="38.5021481" lon="16.0324499"><ele>39.0</ele><time>2026-05-01T06:24:50.981Z</time></trkpt><trkpt lat="38.5023166" lon="16.032752"><ele>39.0</ele><time>2026-05-01T06:24:51.981Z</time></trkpt><trkpt lat="38.502485" lon="16.0330548"><ele>39.0</ele><time>2026-05-01T06:24:52.981Z</time></trkpt><trkpt lat="38.5026569" lon="16.0333558"><ele>39.0</ele><time>2026-05-01T06:24:53.981Z</time></trkpt><trkpt lat="38.5028322" lon="16.0336514"><ele>39.0</ele><time>2026-05-01T06:24:54.981Z</time></trkpt><trkpt lat="38.5030107" lon="16.0339419"><ele>39.5</ele><time>2026-05-01T06:24:55.981Z</time></trkpt><trkpt lat="38.5031898" lon="16.034236"><ele>40.0</ele><time>2026-05-01T06:24:56.981Z</time></trkpt><trkpt lat="38.503367" lon="16.0345278"><ele>40.0</ele><time>2026-05-01T06:24:57.982Z</time></trkpt><trkpt lat="38.5035458" lon="16.0348179"><ele>40.0</ele><time>2026-05-01T06:24:58.982Z</time></trkpt><trkpt lat="38.5037207" lon="16.0351089"><ele>39.5</ele><time>2026-05-01T06:24:59.982Z</time></trkpt><trkpt lat="38.5038944" lon="16.0354001"><ele>39.0</ele><time>2026-05-01T06:25:00.981Z</time></trkpt><trkpt lat="38.5040678" lon="16.0356858"><ele>39.0</ele><time>2026-05-01T06:25:01.982Z</time></trkpt><trkpt lat="38.5042445" lon="16.035971"><ele>39.0</ele><time>2026-05-01T06:25:02.981Z</time></trkpt><trkpt lat="38.5044155" lon="16.0362572"><ele>39.5</ele><time>2026-05-01T06:25:03.981Z</time></trkpt><trkpt lat="38.5045905" lon="16.036545"><ele>40.0</ele><time>2026-05-01T06:25:04.981Z</time></trkpt><trkpt lat="38.5047631" lon="16.0368354"><ele>40.0</ele><time>2026-05-01T06:25:05.982Z</time></trkpt><trkpt lat="38.5049376" lon="16.0371281"><ele>40.0</ele><time>2026-05-01T06:25:06.981Z</time></trkpt><trkpt lat="38.5051125" lon="16.0374191"><ele>40.0</ele><time>2026-05-01T06:25:07.982Z</time></trkpt><trkpt lat="38.5052899" lon="16.0377131"><ele>40.0</ele><time>2026-05-01T06:25:08.981Z</time></trkpt><trkpt lat="38.5054635" lon="16.038001"><ele>40.0</ele><time>2026-05-01T06:25:09.982Z</time></trkpt><trkpt lat="38.5056405" lon="16.0382953"><ele>40.0</ele><time>2026-05-01T06:25:10.981Z</time></trkpt><trkpt lat="38.5058172" lon="16.0385888"><ele>40.5</ele><time>2026-05-01T06:25:11.981Z</time></trkpt><trkpt lat="38.5059962" lon="16.0388822"><ele>41.0</ele><time>2026-05-01T06:25:12.981Z</time></trkpt><trkpt lat="38.5061747" lon="16.0391732"><ele>40.5</ele><time>2026-05-01T06:25:13.981Z</time></trkpt><trkpt lat="38.5063485" lon="16.0394658"><ele>40.0</ele><time>2026-05-01T06:25:14.981Z</time></trkpt><trkpt lat="38.5065266" lon="16.0397555"><ele>40.5</ele><time>2026-05-01T06:25:15.981Z</time></trkpt><trkpt lat="38.5067071" lon="16.0400489"><ele>41.0</ele><time>2026-05-01T06:25:16.981Z</time></trkpt><trkpt lat="38.5068887" lon="16.0403404"><ele>41.0</ele><time>2026-05-01T06:25:17.982Z</time></trkpt><trkpt lat="38.5070691" lon="16.0406318"><ele>41.0</ele><time>2026-05-01T06:25:18.982Z</time></trkpt><trkpt lat="38.5072502" lon="16.0409219"><ele>41.5</ele><time>2026-05-01T06:25:19.982Z</time></trkpt><trkpt lat="38.5074318" lon="16.0412085"><ele>42.0</ele><time>2026-05-01T06:25:20.981Z</time></trkpt><trkpt lat="38.5076077" lon="16.0414938"><ele>42.0</ele><time>2026-05-01T06:25:21.982Z</time></trkpt><trkpt lat="38.5077886" lon="16.0417764"><ele>42.0</ele><time>2026-05-01T06:25:22.982Z</time></trkpt><trkpt lat="38.5079702" lon="16.0420598"><ele>42.5</ele><time>2026-05-01T06:25:23.981Z</time></trkpt><trkpt lat="38.5081519" lon="16.0423454"><ele>43.0</ele><time>2026-05-01T06:25:24.982Z</time></trkpt><trkpt lat="38.5083381" lon="16.0426293"><ele>44.0</ele><time>2026-05-01T06:25:25.982Z</time></trkpt><trkpt lat="38.5085267" lon="16.0429045"><ele>45.0</ele><time>2026-05-01T06:25:26.981Z</time></trkpt><trkpt lat="38.5087168" lon="16.0431834"><ele>44.5</ele><time>2026-05-01T06:25:27.982Z</time></trkpt><trkpt lat="38.508909" lon="16.0434574"><ele>44.0</ele><time>2026-05-01T06:25:28.982Z</time></trkpt><trkpt lat="38.5091009" lon="16.0437377"><ele>44.0</ele><time>2026-05-01T06:25:29.981Z</time></trkpt><trkpt lat="38.5092996" lon="16.0440166"><ele>44.0</ele><time>2026-05-01T06:25:30.982Z</time></trkpt><trkpt lat="38.5094972" lon="16.0442897"><ele>44.5</ele><time>2026-05-01T06:25:31.981Z</time></trkpt><trkpt lat="38.5096964" lon="16.0445593"><ele>45.0</ele><time>2026-05-01T06:25:32.981Z</time></trkpt><trkpt lat="38.5098984" lon="16.0448231"><ele>44.5</ele><time>2026-05-01T06:25:33.982Z</time></trkpt><trkpt lat="38.5101021" lon="16.0450872"><ele>44.0</ele><time>2026-05-01T06:25:34.981Z</time></trkpt><trkpt lat="38.5103091" lon="16.0453474"><ele>44.0</ele><time>2026-05-01T06:25:35.981Z</time></trkpt><trkpt lat="38.5105157" lon="16.0456049"><ele>44.0</ele><time>2026-05-01T06:25:36.981Z</time></trkpt><trkpt lat="38.5107236" lon="16.0458594"><ele>44.0</ele><time>2026-05-01T06:25:37.982Z</time></trkpt><trkpt lat="38.5109316" lon="16.0461106"><ele>44.0</ele><time>2026-05-01T06:25:38.982Z</time></trkpt><trkpt lat="38.5111397" lon="16.0463606"><ele>44.5</ele><time>2026-05-01T06:25:39.981Z</time></trkpt><trkpt lat="38.5113525" lon="16.0466127"><ele>45.0</ele><time>2026-05-01T06:25:40.981Z</time></trkpt><trkpt lat="38.5115656" lon="16.0468621"><ele>45.5</ele><time>2026-05-01T06:25:41.982Z</time></trkpt><trkpt lat="38.5117801" lon="16.0471096"><ele>46.0</ele><time>2026-05-01T06:25:42.982Z</time></trkpt><trkpt lat="38.5120029" lon="16.0473494"><ele>46.0</ele><time>2026-05-01T06:25:43.981Z</time></trkpt><trkpt lat="38.5122269" lon="16.0475807"><ele>46.0</ele><time>2026-05-01T06:25:44.981Z</time></trkpt><trkpt lat="38.5124536" lon="16.047807"><ele>46.0</ele><time>2026-05-01T06:25:45.981Z</time></trkpt><trkpt lat="38.5126822" lon="16.0480282"><ele>46.0</ele><time>2026-05-01T06:25:46.982Z</time></trkpt><trkpt lat="38.512912" lon="16.048243"><ele>46.0</ele><time>2026-05-01T06:25:47.981Z</time></trkpt><trkpt lat="38.5131406" lon="16.0484518"><ele>46.0</ele><time>2026-05-01T06:25:48.981Z</time></trkpt><trkpt lat="38.5133727" lon="16.0486559"><ele>46.0</ele><time>2026-05-01T06:25:49.981Z</time></trkpt><trkpt lat="38.513611" lon="16.0488474"><ele>46.0</ele><time>2026-05-01T06:25:50.982Z</time></trkpt><trkpt lat="38.5138531" lon="16.0490403"><ele>47.0</ele><time>2026-05-01T06:25:51.982Z</time></trkpt><trkpt lat="38.5140997" lon="16.0492255"><ele>48.0</ele><time>2026-05-01T06:25:52.981Z</time></trkpt><trkpt lat="38.5143483" lon="16.0494031"><ele>48.5</ele><time>2026-05-01T06:25:53.982Z</time></trkpt><trkpt lat="38.514593" lon="16.0495807"><ele>49.0</ele><time>2026-05-01T06:25:54.982Z</time></trkpt><trkpt lat="38.5148407" lon="16.0497521"><ele>49.0</ele><time>2026-05-01T06:25:55.981Z</time></trkpt><trkpt lat="38.5150946" lon="16.0499169"><ele>49.0</ele><time>2026-05-01T06:25:56.981Z</time></trkpt><trkpt lat="38.5153503" lon="16.0500771"><ele>51.0</ele><time>2026-05-01T06:25:57.981Z</time></trkpt><trkpt lat="38.5156117" lon="16.0502428"><ele>53.0</ele><time>2026-05-01T06:25:58.982Z</time></trkpt><trkpt lat="38.5158712" lon="16.0504044"><ele>53.0</ele><time>2026-05-01T06:25:59.982Z</time></trkpt><trkpt lat="38.5161339" lon="16.05056"><ele>53.0</ele><time>2026-05-01T06:26:00.981Z</time></trkpt><trkpt lat="38.5163972" lon="16.0507128"><ele>53.5</ele><time>2026-05-01T06:26:01.982Z</time></trkpt><trkpt lat="38.5166588" lon="16.0508654"><ele>54.0</ele><time>2026-05-01T06:26:02.981Z</time></trkpt><trkpt lat="38.5169195" lon="16.0510195"><ele>57.5</ele><time>2026-05-01T06:26:03.981Z</time></trkpt><trkpt lat="38.5171836" lon="16.0511691"><ele>61.0</ele><time>2026-05-01T06:26:04.981Z</time></trkpt><trkpt lat="38.5174448" lon="16.0513141"><ele>61.0</ele><time>2026-05-01T06:26:05.982Z</time></trkpt><trkpt lat="38.517707" lon="16.0514552"><ele>61.0</ele><time>2026-05-01T06:26:06.981Z</time></trkpt><trkpt lat="38.5179755" lon="16.0515895"><ele>55.0</ele><time>2026-05-01T06:26:07.981Z</time></trkpt><trkpt lat="38.5182436" lon="16.0517228"><ele>49.0</ele><time>2026-05-01T06:26:08.982Z</time></trkpt><trkpt lat="38.5185122" lon="16.0518596"><ele>50.0</ele><time>2026-05-01T06:26:09.981Z</time></trkpt><trkpt lat="38.5187864" lon="16.0519917"><ele>51.0</ele><time>2026-05-01T06:26:10.981Z</time></trkpt><trkpt lat="38.5190603" lon="16.0521126"><ele>51.0</ele><time>2026-05-01T06:26:11.981Z</time></trkpt><trkpt lat="38.5193287" lon="16.0522322"><ele>51.0</ele><time>2026-05-01T06:26:12.982Z</time></trkpt><trkpt lat="38.5196015" lon="16.0523429"><ele>51.0</ele><time>2026-05-01T06:26:13.981Z</time></trkpt><trkpt lat="38.5198764" lon="16.05245"><ele>51.0</ele><time>2026-05-01T06:26:14.982Z</time></trkpt><trkpt lat="38.5201556" lon="16.0525505"><ele>51.0</ele><time>2026-05-01T06:26:15.982Z</time></trkpt><trkpt lat="38.5204356" lon="16.0526474"><ele>51.0</ele><time>2026-05-01T06:26:16.981Z</time></trkpt><trkpt lat="38.5207137" lon="16.0527288"><ele>51.0</ele><time>2026-05-01T06:26:17.981Z</time></trkpt><trkpt lat="38.5209937" lon="16.0528016"><ele>51.0</ele><time>2026-05-01T06:26:18.982Z</time></trkpt><trkpt lat="38.5212744" lon="16.0528687"><ele>54.0</ele><time>2026-05-01T06:26:19.982Z</time></trkpt><trkpt lat="38.5215556" lon="16.052934"><ele>57.0</ele><time>2026-05-01T06:26:20.981Z</time></trkpt><trkpt lat="38.5218364" lon="16.052984"><ele>63.5</ele><time>2026-05-01T06:26:21.981Z</time></trkpt><trkpt lat="38.5221179" lon="16.0530284"><ele>70.0</ele><time>2026-05-01T06:26:22.981Z</time></trkpt><trkpt lat="38.5224042" lon="16.0530631"><ele>70.0</ele><time>2026-05-01T06:26:23.982Z</time></trkpt><trkpt lat="38.5226908" lon="16.0530839"><ele>70.0</ele><time>2026-05-01T06:26:24.982Z</time></trkpt><trkpt lat="38.5229787" lon="16.053097"><ele>67.0</ele><time>2026-05-01T06:26:25.981Z</time></trkpt><trkpt lat="38.5232624" lon="16.0530986"><ele>64.0</ele><time>2026-05-01T06:26:26.981Z</time></trkpt><trkpt lat="38.5235485" lon="16.0530931"><ele>59.5</ele><time>2026-05-01T06:26:27.981Z</time></trkpt><trkpt lat="38.5238336" lon="16.053071"><ele>55.0</ele><time>2026-05-01T06:26:28.982Z</time></trkpt><trkpt lat="38.5241195" lon="16.0530471"><ele>55.0</ele><time>2026-05-01T06:26:29.981Z</time></trkpt><trkpt lat="38.5244048" lon="16.0530096"><ele>55.0</ele><time>2026-05-01T06:26:30.981Z</time></trkpt><trkpt lat="38.5246875" lon="16.0529682"><ele>53.5</ele><time>2026-05-01T06:26:31.982Z</time></trkpt><trkpt lat="38.5249727" lon="16.0529258"><ele>52.0</ele><time>2026-05-01T06:26:32.981Z</time></trkpt><trkpt lat="38.5252496" lon="16.0528792"><ele>52.5</ele><time>2026-05-01T06:26:33.981Z</time></trkpt><trkpt lat="38.5255289" lon="16.0528282"><ele>53.0</ele><time>2026-05-01T06:26:34.982Z</time></trkpt><trkpt lat="38.5258212" lon="16.0527774"><ele>53.0</ele><time>2026-05-01T06:26:35.981Z</time></trkpt><trkpt lat="38.5261084" lon="16.0527177"><ele>53.0</ele><time>2026-05-01T06:26:36.982Z</time></trkpt><trkpt lat="38.5263985" lon="16.0526556"><ele>53.5</ele><time>2026-05-01T06:26:37.981Z</time></trkpt><trkpt lat="38.5266877" lon="16.0525971"><ele>54.0</ele><time>2026-05-01T06:26:38.981Z</time></trkpt><trkpt lat="38.526976" lon="16.0525389"><ele>54.0</ele><time>2026-05-01T06:26:39.981Z</time></trkpt><trkpt lat="38.5272613" lon="16.0524846"><ele>54.0</ele><time>2026-05-01T06:26:40.981Z</time></trkpt><trkpt lat="38.5275457" lon="16.0524392"><ele>54.0</ele><time>2026-05-01T06:26:41.981Z</time></trkpt><trkpt lat="38.5278322" lon="16.0523996"><ele>54.0</ele><time>2026-05-01T06:26:42.981Z</time></trkpt><trkpt lat="38.5281146" lon="16.0523652"><ele>52.0</ele><time>2026-05-01T06:26:43.981Z</time></trkpt><trkpt lat="38.5283962" lon="16.0523546"><ele>50.0</ele><time>2026-05-01T06:26:44.981Z</time></trkpt><trkpt lat="38.5286838" lon="16.0523487"><ele>51.5</ele><time>2026-05-01T06:26:45.981Z</time></trkpt><trkpt lat="38.5289714" lon="16.0523537"><ele>53.0</ele><time>2026-05-01T06:26:46.981Z</time></trkpt><trkpt lat="38.5292568" lon="16.0523741"><ele>53.0</ele><time>2026-05-01T06:26:47.981Z</time></trkpt><trkpt lat="38.5295417" lon="16.0524104"><ele>53.0</ele><time>2026-05-01T06:26:48.981Z</time></trkpt><trkpt lat="38.5298229" lon="16.0524538"><ele>52.5</ele><time>2026-05-01T06:26:49.982Z</time></trkpt><trkpt lat="38.5301006" lon="16.0525109"><ele>52.0</ele><time>2026-05-01T06:26:50.981Z</time></trkpt><trkpt lat="38.530383" lon="16.0525783"><ele>52.0</ele><time>2026-05-01T06:26:51.982Z</time></trkpt><trkpt lat="38.5306695" lon="16.0526555"><ele>52.0</ele><time>2026-05-01T06:26:52.982Z</time></trkpt><trkpt lat="38.5309507" lon="16.0527487"><ele>54.0</ele><time>2026-05-01T06:26:53.982Z</time></trkpt><trkpt lat="38.5312244" lon="16.0528546"><ele>56.0</ele><time>2026-05-01T06:26:54.981Z</time></trkpt><trkpt lat="38.5314945" lon="16.0529785"><ele>56.0</ele><time>2026-05-01T06:26:55.981Z</time></trkpt><trkpt lat="38.5317604" lon="16.0531129"><ele>56.0</ele><time>2026-05-01T06:26:56.981Z</time></trkpt><trkpt lat="38.532026" lon="16.0532513"><ele>55.0</ele><time>2026-05-01T06:26:57.982Z</time></trkpt><trkpt lat="38.532286" lon="16.0533986"><ele>54.0</ele><time>2026-05-01T06:26:58.982Z</time></trkpt><trkpt lat="38.5325467" lon="16.0535593"><ele>54.0</ele><time>2026-05-01T06:26:59.981Z</time></trkpt><trkpt lat="38.532803" lon="16.0537255"><ele>54.0</ele><time>2026-05-01T06:27:00.982Z</time></trkpt><trkpt lat="38.533054" lon="16.0539108"><ele>55.5</ele><time>2026-05-01T06:27:01.981Z</time></trkpt><trkpt lat="38.5332963" lon="16.0541018"><ele>57.0</ele><time>2026-05-01T06:27:02.981Z</time></trkpt><trkpt lat="38.5335354" lon="16.0543034"><ele>60.0</ele><time>2026-05-01T06:27:03.981Z</time></trkpt><trkpt lat="38.5337655" lon="16.0545165"><ele>63.0</ele><time>2026-05-01T06:27:04.981Z</time></trkpt><trkpt lat="38.5339924" lon="16.0547327"><ele>59.5</ele><time>2026-05-01T06:27:05.981Z</time></trkpt><trkpt lat="38.5342113" lon="16.0549555"><ele>56.0</ele><time>2026-05-01T06:27:06.981Z</time></trkpt><trkpt lat="38.5344288" lon="16.0551883"><ele>57.0</ele><time>2026-05-01T06:27:07.982Z</time></trkpt><trkpt lat="38.5346484" lon="16.0554264"><ele>58.0</ele><time>2026-05-01T06:27:08.982Z</time></trkpt><trkpt lat="38.5348719" lon="16.0556674"><ele>56.0</ele><time>2026-05-01T06:27:09.981Z</time></trkpt><trkpt lat="38.5350961" lon="16.0559064"><ele>54.0</ele><time>2026-05-01T06:27:10.981Z</time></trkpt><trkpt lat="38.5353164" lon="16.0561473"><ele>55.0</ele><time>2026-05-01T06:27:11.981Z</time></trkpt><trkpt lat="38.5355355" lon="16.0563845"><ele>56.0</ele><time>2026-05-01T06:27:12.981Z</time></trkpt><trkpt lat="38.5357541" lon="16.0566191"><ele>56.0</ele><time>2026-05-01T06:27:13.981Z</time></trkpt><trkpt lat="38.5359763" lon="16.0568518"><ele>56.0</ele><time>2026-05-01T06:27:14.981Z</time></trkpt><trkpt lat="38.536204" lon="16.0570945"><ele>56.0</ele><time>2026-05-01T06:27:15.982Z</time></trkpt><trkpt lat="38.5364368" lon="16.0573421"><ele>56.0</ele><time>2026-05-01T06:27:16.981Z</time></trkpt><trkpt lat="38.5366826" lon="16.057597"><ele>56.5</ele><time>2026-05-01T06:27:17.981Z</time></trkpt><trkpt lat="38.5369385" lon="16.0578544"><ele>57.0</ele><time>2026-05-01T06:27:18.981Z</time></trkpt><trkpt lat="38.5372082" lon="16.0581138"><ele>59.5</ele><time>2026-05-01T06:27:19.981Z</time></trkpt><trkpt lat="38.5374823" lon="16.0583822"><ele>62.0</ele><time>2026-05-01T06:27:20.981Z</time></trkpt><trkpt lat="38.5377577" lon="16.0586545"><ele>63.0</ele><time>2026-05-01T06:27:21.981Z</time></trkpt><trkpt lat="38.5380344" lon="16.0589245"><ele>64.0</ele><time>2026-05-01T06:27:22.981Z</time></trkpt><trkpt lat="38.5383106" lon="16.0591883"><ele>64.0</ele><time>2026-05-01T06:27:23.982Z</time></trkpt><trkpt lat="38.5385841" lon="16.0594523"><ele>64.0</ele><time>2026-05-01T06:27:24.981Z</time></trkpt><trkpt lat="38.538853" lon="16.0597159"><ele>63.0</ele><time>2026-05-01T06:27:25.981Z</time></trkpt><trkpt lat="38.5391208" lon="16.0599786"><ele>62.0</ele><time>2026-05-01T06:27:26.981Z</time></trkpt><trkpt lat="38.5393851" lon="16.0602356"><ele>60.0</ele><time>2026-05-01T06:27:27.982Z</time></trkpt><trkpt lat="38.5396446" lon="16.0604974"><ele>58.0</ele><time>2026-05-01T06:27:28.981Z</time></trkpt><trkpt lat="38.5399082" lon="16.0607507"><ele>58.5</ele><time>2026-05-01T06:27:29.982Z</time></trkpt><trkpt lat="38.5401638" lon="16.0610116"><ele>59.0</ele><time>2026-05-01T06:27:30.981Z</time></trkpt><trkpt lat="38.5404165" lon="16.0612688"><ele>59.0</ele><time>2026-05-01T06:27:31.982Z</time></trkpt><trkpt lat="38.5406701" lon="16.061519"><ele>59.0</ele><time>2026-05-01T06:27:32.981Z</time></trkpt><trkpt lat="38.5409239" lon="16.0617627"><ele>59.5</ele><time>2026-05-01T06:27:33.981Z</time></trkpt><trkpt lat="38.5411774" lon="16.0620061"><ele>60.0</ele><time>2026-05-01T06:27:34.981Z</time></trkpt><trkpt lat="38.541425" lon="16.0622621"><ele>65.0</ele><time>2026-05-01T06:27:35.981Z</time></trkpt><trkpt lat="38.5416641" lon="16.0625208"><ele>70.0</ele><time>2026-05-01T06:27:36.981Z</time></trkpt><trkpt lat="38.5419111" lon="16.0627731"><ele>65.5</ele><time>2026-05-01T06:27:37.982Z</time></trkpt><trkpt lat="38.5421566" lon="16.0630281"><ele>61.0</ele><time>2026-05-01T06:27:38.981Z</time></trkpt><trkpt lat="38.5424135" lon="16.063272"><ele>62.5</ele><time>2026-05-01T06:27:39.981Z</time></trkpt><trkpt lat="38.542677" lon="16.0635173"><ele>64.0</ele><time>2026-05-01T06:27:40.982Z</time></trkpt><trkpt lat="38.5429483" lon="16.0637588"><ele>64.0</ele><time>2026-05-01T06:27:41.981Z</time></trkpt><trkpt lat="38.5432186" lon="16.0640023"><ele>64.0</ele><time>2026-05-01T06:27:42.981Z</time></trkpt><trkpt lat="38.5434904" lon="16.0642433"><ele>63.0</ele><time>2026-05-01T06:27:43.981Z</time></trkpt><trkpt lat="38.5437608" lon="16.0644787"><ele>62.0</ele><time>2026-05-01T06:27:44.981Z</time></trkpt><trkpt lat="38.5440357" lon="16.0647101"><ele>62.0</ele><time>2026-05-01T06:27:45.982Z</time></trkpt><trkpt lat="38.5443161" lon="16.0649312"><ele>62.0</ele><time>2026-05-01T06:27:46.981Z</time></trkpt><trkpt lat="38.5446053" lon="16.0651386"><ele>63.0</ele><time>2026-05-01T06:27:47.982Z</time></trkpt><trkpt lat="38.5448925" lon="16.0653455"><ele>64.0</ele><time>2026-05-01T06:27:48.981Z</time></trkpt><trkpt lat="38.5451786" lon="16.0655351"><ele>63.0</ele><time>2026-05-01T06:27:49.981Z</time></trkpt><trkpt lat="38.5454687" lon="16.065723"><ele>62.0</ele><time>2026-05-01T06:27:50.982Z</time></trkpt><trkpt lat="38.5457553" lon="16.0659137"><ele>64.0</ele><time>2026-05-01T06:27:51.982Z</time></trkpt><trkpt lat="38.5460405" lon="16.0661138"><ele>66.0</ele><time>2026-05-01T06:27:52.982Z</time></trkpt><trkpt lat="38.5463263" lon="16.0663064"><ele>67.5</ele><time>2026-05-01T06:27:53.981Z</time></trkpt><trkpt lat="38.5466078" lon="16.0664968"><ele>69.0</ele><time>2026-05-01T06:27:54.982Z</time></trkpt><trkpt lat="38.5468889" lon="16.0666774"><ele>74.5</ele><time>2026-05-01T06:27:55.981Z</time></trkpt><trkpt lat="38.5471786" lon="16.0668553"><ele>80.0</ele><time>2026-05-01T06:27:56.982Z</time></trkpt><trkpt lat="38.5474715" lon="16.0670314"><ele>80.0</ele><time>2026-05-01T06:27:57.982Z</time></trkpt><trkpt lat="38.5477602" lon="16.0672087"><ele>80.0</ele><time>2026-05-01T06:27:58.981Z</time></trkpt><trkpt lat="38.5480505" lon="16.0673888"><ele>77.5</ele><time>2026-05-01T06:27:59.981Z</time></trkpt><trkpt lat="38.5483402" lon="16.0675646"><ele>75.0</ele><time>2026-05-01T06:28:00.982Z</time></trkpt><trkpt lat="38.5486258" lon="16.0677555"><ele>81.5</ele><time>2026-05-01T06:28:01.981Z</time></trkpt><trkpt lat="38.5489173" lon="16.0679456"><ele>88.0</ele><time>2026-05-01T06:28:02.981Z</time></trkpt><trkpt lat="38.5492038" lon="16.0681315"><ele>82.0</ele><time>2026-05-01T06:28:03.981Z</time></trkpt><trkpt lat="38.5494901" lon="16.0683033"><ele>76.0</ele><time>2026-05-01T06:28:04.982Z</time></trkpt><trkpt lat="38.5497731" lon="16.0684884"><ele>76.0</ele><time>2026-05-01T06:28:05.981Z</time></trkpt><trkpt lat="38.5500512" lon="16.0686708"><ele>76.0</ele><time>2026-05-01T06:28:06.981Z</time></trkpt><trkpt lat="38.5503338" lon="16.0688503"><ele>80.5</ele><time>2026-05-01T06:28:07.981Z</time></trkpt><trkpt lat="38.5506213" lon="16.0690126"><ele>85.0</ele><time>2026-05-01T06:28:08.982Z</time></trkpt><trkpt lat="38.5509131" lon="16.0691668"><ele>85.0</ele><time>2026-05-01T06:28:09.982Z</time></trkpt><trkpt lat="38.5511957" lon="16.0693086"><ele>85.0</ele><time>2026-05-01T06:28:10.981Z</time></trkpt><trkpt lat="38.5514842" lon="16.0694407"><ele>87.5</ele><time>2026-05-01T06:28:11.981Z</time></trkpt><trkpt lat="38.5517697" lon="16.0695648"><ele>90.0</ele><time>2026-05-01T06:28:12.982Z</time></trkpt><trkpt lat="38.5520625" lon="16.069683"><ele>93.0</ele><time>2026-05-01T06:28:13.981Z</time></trkpt><trkpt lat="38.5523682" lon="16.0697839"><ele>96.0</ele><time>2026-05-01T06:28:14.982Z</time></trkpt><trkpt lat="38.5526624" lon="16.0698667"><ele>94.5</ele><time>2026-05-01T06:28:15.982Z</time></trkpt><trkpt lat="38.5529567" lon="16.0699356"><ele>93.0</ele><time>2026-05-01T06:28:16.982Z</time></trkpt><trkpt lat="38.5532547" lon="16.0699909"><ele>84.0</ele><time>2026-05-01T06:28:17.982Z</time></trkpt><trkpt lat="38.553562" lon="16.0700396"><ele>75.0</ele><time>2026-05-01T06:28:18.981Z</time></trkpt><trkpt lat="38.5538707" lon="16.0700727"><ele>72.5</ele><time>2026-05-01T06:28:19.981Z</time></trkpt><trkpt lat="38.5541863" lon="16.0701086"><ele>70.0</ele><time>2026-05-01T06:28:20.982Z</time></trkpt><trkpt lat="38.5545026" lon="16.0701495"><ele>70.0</ele><time>2026-05-01T06:28:21.982Z</time></trkpt><trkpt lat="38.5548289" lon="16.0701898"><ele>70.0</ele><time>2026-05-01T06:28:22.981Z</time></trkpt><trkpt lat="38.555151" lon="16.0702218"><ele>69.5</ele><time>2026-05-01T06:28:23.982Z</time></trkpt><trkpt lat="38.5554689" lon="16.0702546"><ele>69.0</ele><time>2026-05-01T06:28:24.982Z</time></trkpt><trkpt lat="38.5557809" lon="16.0703005"><ele>69.0</ele><time>2026-05-01T06:28:25.981Z</time></trkpt><trkpt lat="38.5560907" lon="16.0703523"><ele>69.0</ele><time>2026-05-01T06:28:26.981Z</time></trkpt><trkpt lat="38.5564041" lon="16.0704134"><ele>68.5</ele><time>2026-05-01T06:28:27.981Z</time></trkpt><trkpt lat="38.5567222" lon="16.0704892"><ele>68.0</ele><time>2026-05-01T06:28:28.981Z</time></trkpt><trkpt lat="38.5570375" lon="16.0705812"><ele>68.0</ele><time>2026-05-01T06:28:29.981Z</time></trkpt><trkpt lat="38.557349" lon="16.070691"><ele>68.0</ele><time>2026-05-01T06:28:30.982Z</time></trkpt><trkpt lat="38.5576694" lon="16.0708091"><ele>70.0</ele><time>2026-05-01T06:28:31.981Z</time></trkpt><trkpt lat="38.5579845" lon="16.0709379"><ele>72.0</ele><time>2026-05-01T06:28:32.981Z</time></trkpt><trkpt lat="38.5582961" lon="16.0710911"><ele>72.0</ele><time>2026-05-01T06:28:33.982Z</time></trkpt><trkpt lat="38.5586091" lon="16.0712566"><ele>72.0</ele><time>2026-05-01T06:28:34.982Z</time></trkpt><trkpt lat="38.5589187" lon="16.0714497"><ele>73.5</ele><time>2026-05-01T06:28:35.981Z</time></trkpt><trkpt lat="38.5592299" lon="16.0716516"><ele>75.0</ele><time>2026-05-01T06:28:36.981Z</time></trkpt><trkpt lat="38.559532" lon="16.0718773"><ele>77.5</ele><time>2026-05-01T06:28:37.982Z</time></trkpt><trkpt lat="38.559833" lon="16.0721133"><ele>80.0</ele><time>2026-05-01T06:28:38.981Z</time></trkpt><trkpt lat="38.5601207" lon="16.0723679"><ele>83.0</ele><time>2026-05-01T06:28:39.981Z</time></trkpt><trkpt lat="38.5604054" lon="16.0726308"><ele>86.0</ele><time>2026-05-01T06:28:40.981Z</time></trkpt><trkpt lat="38.5606825" lon="16.072911"><ele>86.0</ele><time>2026-05-01T06:28:41.981Z</time></trkpt><trkpt lat="38.5609417" lon="16.0732097"><ele>86.0</ele><time>2026-05-01T06:28:42.981Z</time></trkpt><trkpt lat="38.5611914" lon="16.0735229"><ele>85.5</ele><time>2026-05-01T06:28:43.982Z</time></trkpt><trkpt lat="38.561434" lon="16.0738396"><ele>85.0</ele><time>2026-05-01T06:28:44.982Z</time></trkpt><trkpt lat="38.5616554" lon="16.0741654"><ele>84.5</ele><time>2026-05-01T06:28:45.982Z</time></trkpt><trkpt lat="38.5618686" lon="16.0745004"><ele>84.0</ele><time>2026-05-01T06:28:46.982Z</time></trkpt><trkpt lat="38.562074" lon="16.074845"><ele>83.0</ele><time>2026-05-01T06:28:47.982Z</time></trkpt><trkpt lat="38.5622678" lon="16.0751982"><ele>82.0</ele><time>2026-05-01T06:28:48.982Z</time></trkpt><trkpt lat="38.5624432" lon="16.0755694"><ele>79.0</ele><time>2026-05-01T06:28:49.982Z</time></trkpt><trkpt lat="38.5625912" lon="16.0759501"><ele>76.0</ele><time>2026-05-01T06:28:50.981Z</time></trkpt><trkpt lat="38.5627509" lon="16.0763327"><ele>80.0</ele><time>2026-05-01T06:28:51.981Z</time></trkpt><trkpt lat="38.5628938" lon="16.076714"><ele>84.0</ele><time>2026-05-01T06:28:52.981Z</time></trkpt><trkpt lat="38.5630476" lon="16.0771015"><ele>82.0</ele><time>2026-05-01T06:28:53.982Z</time></trkpt><trkpt lat="38.5631992" lon="16.0774949"><ele>80.0</ele><time>2026-05-01T06:28:54.981Z</time></trkpt><trkpt lat="38.5633329" lon="16.0778863"><ele>76.5</ele><time>2026-05-01T06:28:55.981Z</time></trkpt><trkpt lat="38.5634609" lon="16.0782782"><ele>73.0</ele><time>2026-05-01T06:28:56.982Z</time></trkpt><trkpt lat="38.5635807" lon="16.0786715"><ele>73.0</ele><time>2026-05-01T06:28:57.982Z</time></trkpt><trkpt lat="38.5636926" lon="16.0790591"><ele>73.0</ele><time>2026-05-01T06:28:58.982Z</time></trkpt><trkpt lat="38.5638191" lon="16.0794415"><ele>74.5</ele><time>2026-05-01T06:28:59.981Z</time></trkpt><trkpt lat="38.5639552" lon="16.079813"><ele>76.0</ele><time>2026-05-01T06:29:00.981Z</time></trkpt><trkpt lat="38.564096" lon="16.0801794"><ele>76.0</ele><time>2026-05-01T06:29:01.982Z</time></trkpt><trkpt lat="38.5642387" lon="16.0805367"><ele>76.0</ele><time>2026-05-01T06:29:02.981Z</time></trkpt><trkpt lat="38.5643843" lon="16.0808921"><ele>76.0</ele><time>2026-05-01T06:29:03.981Z</time></trkpt><trkpt lat="38.5645343" lon="16.0812463"><ele>76.0</ele><time>2026-05-01T06:29:04.981Z</time></trkpt><trkpt lat="38.5646824" lon="16.0816036"><ele>78.5</ele><time>2026-05-01T06:29:05.981Z</time></trkpt><trkpt lat="38.5648323" lon="16.081968"><ele>81.0</ele><time>2026-05-01T06:29:06.981Z</time></trkpt><trkpt lat="38.5649919" lon="16.0823276"><ele>82.0</ele><time>2026-05-01T06:29:07.982Z</time></trkpt><trkpt lat="38.5651535" lon="16.0826901"><ele>83.0</ele><time>2026-05-01T06:29:08.981Z</time></trkpt><trkpt lat="38.5653132" lon="16.0830542"><ele>81.5</ele><time>2026-05-01T06:29:09.982Z</time></trkpt><trkpt lat="38.5654761" lon="16.0834207"><ele>80.0</ele><time>2026-05-01T06:29:10.983Z</time></trkpt><trkpt lat="38.5656456" lon="16.0837858"><ele>78.5</ele><time>2026-05-01T06:29:11.982Z</time></trkpt><trkpt lat="38.5658273" lon="16.0841418"><ele>77.0</ele><time>2026-05-01T06:29:12.982Z</time></trkpt><trkpt lat="38.5660175" lon="16.0844922"><ele>80.5</ele><time>2026-05-01T06:29:13.983Z</time></trkpt><trkpt lat="38.5662149" lon="16.0848342"><ele>84.0</ele><time>2026-05-01T06:29:14.982Z</time></trkpt><trkpt lat="38.5664159" lon="16.0851696"><ele>84.0</ele><time>2026-05-01T06:29:15.982Z</time></trkpt><trkpt lat="38.5666246" lon="16.0854986"><ele>84.0</ele><time>2026-05-01T06:29:16.982Z</time></trkpt><trkpt lat="38.5668403" lon="16.0858161"><ele>88.5</ele><time>2026-05-01T06:29:17.983Z</time></trkpt><trkpt lat="38.5670655" lon="16.0861223"><ele>93.0</ele><time>2026-05-01T06:29:18.982Z</time></trkpt><trkpt lat="38.5672972" lon="16.0864148"><ele>89.0</ele><time>2026-05-01T06:29:19.982Z</time></trkpt><trkpt lat="38.5675321" lon="16.0866983"><ele>85.0</ele><time>2026-05-01T06:29:20.982Z</time></trkpt><trkpt lat="38.5677703" lon="16.0869715"><ele>83.0</ele><time>2026-05-01T06:29:21.982Z</time></trkpt><trkpt lat="38.5680108" lon="16.0872442"><ele>81.0</ele><time>2026-05-01T06:29:22.982Z</time></trkpt><trkpt lat="38.5682557" lon="16.0875062"><ele>81.0</ele><time>2026-05-01T06:29:23.983Z</time></trkpt><trkpt lat="38.5685033" lon="16.0877651"><ele>81.0</ele><time>2026-05-01T06:29:24.983Z</time></trkpt><trkpt lat="38.5687501" lon="16.0880232"><ele>80.0</ele><time>2026-05-01T06:29:25.983Z</time></trkpt><trkpt lat="38.5689942" lon="16.0882764"><ele>79.0</ele><time>2026-05-01T06:29:26.983Z</time></trkpt><trkpt lat="38.5692328" lon="16.0885373"><ele>79.0</ele><time>2026-05-01T06:29:27.982Z</time></trkpt><trkpt lat="38.5694683" lon="16.0887992"><ele>79.0</ele><time>2026-05-01T06:29:28.983Z</time></trkpt><trkpt lat="38.5696987" lon="16.0890608"><ele>82.0</ele><time>2026-05-01T06:29:29.982Z</time></trkpt><trkpt lat="38.569931" lon="16.0893205"><ele>85.0</ele><time>2026-05-01T06:29:30.983Z</time></trkpt><trkpt lat="38.5701632" lon="16.0895864"><ele>88.5</ele><time>2026-05-01T06:29:31.982Z</time></trkpt><trkpt lat="38.5703976" lon="16.0898583"><ele>92.0</ele><time>2026-05-01T06:29:32.982Z</time></trkpt><trkpt lat="38.5706294" lon="16.090139"><ele>92.0</ele><time>2026-05-01T06:29:33.982Z</time></trkpt><trkpt lat="38.5708531" lon="16.090422"><ele>92.0</ele><time>2026-05-01T06:29:34.982Z</time></trkpt><trkpt lat="38.5710687" lon="16.0907165"><ele>89.0</ele><time>2026-05-01T06:29:35.983Z</time></trkpt><trkpt lat="38.5712797" lon="16.0910229"><ele>86.0</ele><time>2026-05-01T06:29:36.982Z</time></trkpt><trkpt lat="38.5714784" lon="16.0913384"><ele>91.5</ele><time>2026-05-01T06:29:37.982Z</time></trkpt><trkpt lat="38.5716749" lon="16.0916579"><ele>97.0</ele><time>2026-05-01T06:29:38.982Z</time></trkpt><trkpt lat="38.5718677" lon="16.0920006"><ele>102.5</ele><time>2026-05-01T06:29:39.983Z</time></trkpt><trkpt lat="38.5720465" lon="16.0923642"><ele>108.0</ele><time>2026-05-01T06:29:40.982Z</time></trkpt><trkpt lat="38.5722348" lon="16.0927109"><ele>108.0</ele><time>2026-05-01T06:29:41.982Z</time></trkpt><trkpt lat="38.5724289" lon="16.0930564"><ele>108.0</ele><time>2026-05-01T06:29:42.982Z</time></trkpt><trkpt lat="38.5726249" lon="16.0934039"><ele>103.0</ele><time>2026-05-01T06:29:43.982Z</time></trkpt><trkpt lat="38.5727938" lon="16.0937621"><ele>98.0</ele><time>2026-05-01T06:29:44.983Z</time></trkpt><trkpt lat="38.5728708" lon="16.0941661"><ele>98.0</ele><time>2026-05-01T06:29:45.982Z</time></trkpt><trkpt lat="38.5729483" lon="16.0945774"><ele>98.0</ele><time>2026-05-01T06:29:46.982Z</time></trkpt><trkpt lat="38.5730296" lon="16.0949984"><ele>97.0</ele><time>2026-05-01T06:29:47.982Z</time></trkpt><trkpt lat="38.5731113" lon="16.0954178"><ele>96.0</ele><time>2026-05-01T06:29:48.982Z</time></trkpt><trkpt lat="38.5731885" lon="16.0958304"><ele>93.0</ele><time>2026-05-01T06:29:49.983Z</time></trkpt><trkpt lat="38.5732619" lon="16.0962373"><ele>90.0</ele><time>2026-05-01T06:29:50.983Z</time></trkpt><trkpt lat="38.5733238" lon="16.0966523"><ele>88.5</ele><time>2026-05-01T06:29:51.982Z</time></trkpt><trkpt lat="38.5733775" lon="16.0970649"><ele>87.0</ele><time>2026-05-01T06:29:52.982Z</time></trkpt><trkpt lat="38.5734264" lon="16.0974738"><ele>86.0</ele><time>2026-05-01T06:29:53.983Z</time></trkpt><trkpt lat="38.573471" lon="16.0978773"><ele>85.0</ele><time>2026-05-01T06:29:54.982Z</time></trkpt><trkpt lat="38.5735085" lon="16.0982791"><ele>84.5</ele><time>2026-05-01T06:29:55.983Z</time></trkpt><trkpt lat="38.5735393" lon="16.0986827"><ele>84.0</ele><time>2026-05-01T06:29:56.982Z</time></trkpt><trkpt lat="38.5735782" lon="16.0990931"><ele>84.0</ele><time>2026-05-01T06:29:57.982Z</time></trkpt><trkpt lat="38.5736165" lon="16.099513"><ele>84.0</ele><time>2026-05-01T06:29:58.982Z</time></trkpt><trkpt lat="38.5736501" lon="16.099925"><ele>85.0</ele><time>2026-05-01T06:29:59.982Z</time></trkpt><trkpt lat="38.5736824" lon="16.1003365"><ele>86.0</ele><time>2026-05-01T06:30:00.982Z</time></trkpt><trkpt lat="38.5737084" lon="16.1007427"><ele>94.0</ele><time>2026-05-01T06:30:01.982Z</time></trkpt><trkpt lat="38.5737371" lon="16.1011474"><ele>102.0</ele><time>2026-05-01T06:30:02.983Z</time></trkpt><trkpt lat="38.5737645" lon="16.1015486"><ele>94.0</ele><time>2026-05-01T06:30:03.983Z</time></trkpt><trkpt lat="38.5737947" lon="16.1019474"><ele>86.0</ele><time>2026-05-01T06:30:04.982Z</time></trkpt><trkpt lat="38.5738294" lon="16.1023477"><ele>85.5</ele><time>2026-05-01T06:30:05.983Z</time></trkpt><trkpt lat="38.5738654" lon="16.1027531"><ele>85.0</ele><time>2026-05-01T06:30:06.982Z</time></trkpt><trkpt lat="38.5739019" lon="16.1031628"><ele>86.0</ele><time>2026-05-01T06:30:07.982Z</time></trkpt><trkpt lat="38.5739385" lon="16.1035705"><ele>87.0</ele><time>2026-05-01T06:30:08.982Z</time></trkpt><trkpt lat="38.573974" lon="16.1039785"><ele>88.0</ele><time>2026-05-01T06:30:09.982Z</time></trkpt><trkpt lat="38.5740056" lon="16.1043813"><ele>89.0</ele><time>2026-05-01T06:30:10.983Z</time></trkpt><trkpt lat="38.5740338" lon="16.1047788"><ele>90.5</ele><time>2026-05-01T06:30:11.982Z</time></trkpt><trkpt lat="38.5740642" lon="16.1051687"><ele>92.0</ele><time>2026-05-01T06:30:12.982Z</time></trkpt><trkpt lat="38.5740943" lon="16.1055583"><ele>93.5</ele><time>2026-05-01T06:30:13.983Z</time></trkpt><trkpt lat="38.5741255" lon="16.1059502"><ele>95.0</ele><time>2026-05-01T06:30:14.982Z</time></trkpt><trkpt lat="38.5741478" lon="16.1063395"><ele>92.0</ele><time>2026-05-01T06:30:15.983Z</time></trkpt><trkpt lat="38.5741697" lon="16.1067289"><ele>89.0</ele><time>2026-05-01T06:30:16.983Z</time></trkpt><trkpt lat="38.574196" lon="16.1071164"><ele>88.5</ele><time>2026-05-01T06:30:17.982Z</time></trkpt><trkpt lat="38.5742203" lon="16.1075007"><ele>88.0</ele><time>2026-05-01T06:30:18.983Z</time></trkpt><trkpt lat="38.5742485" lon="16.1078839"><ele>91.0</ele><time>2026-05-01T06:30:19.982Z</time></trkpt><trkpt lat="38.5742862" lon="16.108264"><ele>94.0</ele><time>2026-05-01T06:30:20.983Z</time></trkpt><trkpt lat="38.5743271" lon="16.1086439"><ele>94.0</ele><time>2026-05-01T06:30:21.982Z</time></trkpt><trkpt lat="38.5743747" lon="16.1090179"><ele>94.0</ele><time>2026-05-01T06:30:22.983Z</time></trkpt><trkpt lat="38.5744239" lon="16.1093916"><ele>94.0</ele><time>2026-05-01T06:30:23.983Z</time></trkpt><trkpt lat="38.5744636" lon="16.1097708"><ele>94.0</ele><time>2026-05-01T06:30:24.982Z</time></trkpt><trkpt lat="38.5745032" lon="16.1101648"><ele>94.5</ele><time>2026-05-01T06:30:25.983Z</time></trkpt><trkpt lat="38.5745435" lon="16.1105594"><ele>95.0</ele><time>2026-05-01T06:30:26.982Z</time></trkpt><trkpt lat="38.5745894" lon="16.1109608"><ele>93.5</ele><time>2026-05-01T06:30:27.983Z</time></trkpt><trkpt lat="38.5746432" lon="16.1113633"><ele>92.0</ele><time>2026-05-01T06:30:28.983Z</time></trkpt><trkpt lat="38.5746995" lon="16.1117664"><ele>97.5</ele><time>2026-05-01T06:30:29.982Z</time></trkpt><trkpt lat="38.5747554" lon="16.1121733"><ele>103.0</ele><time>2026-05-01T06:30:30.983Z</time></trkpt><trkpt lat="38.5748098" lon="16.1125733"><ele>110.5</ele><time>2026-05-01T06:30:31.983Z</time></trkpt><trkpt lat="38.5748697" lon="16.1129613"><ele>118.0</ele><time>2026-05-01T06:30:32.983Z</time></trkpt><trkpt lat="38.5749321" lon="16.1133435"><ele>124.0</ele><time>2026-05-01T06:30:33.982Z</time></trkpt><trkpt lat="38.5749939" lon="16.1137202"><ele>130.0</ele><time>2026-05-01T06:30:34.982Z</time></trkpt><trkpt lat="38.5750619" lon="16.1140956"><ele>141.0</ele><time>2026-05-01T06:30:35.982Z</time></trkpt><trkpt lat="38.5753904" lon="16.1160299"><ele>105.0</ele><time>2026-05-01T06:30:41.127Z</time></trkpt><trkpt lat="38.5778183" lon="16.1226733"><ele>106.5</ele><time>2026-05-01T06:30:59.98Z</time></trkpt><trkpt lat="38.5779632" lon="16.1230526"><ele>108.0</ele><time>2026-05-01T06:31:00.98Z</time></trkpt><trkpt lat="38.5781026" lon="16.1234042"><ele>108.0</ele><time>2026-05-01T06:31:01.98Z</time></trkpt><trkpt lat="38.578236" lon="16.1237428"><ele>108.0</ele><time>2026-05-01T06:31:02.98Z</time></trkpt><trkpt lat="38.5783708" lon="16.1240766"><ele>104.0</ele><time>2026-05-01T06:31:03.98Z</time></trkpt><trkpt lat="38.578509" lon="16.1244027"><ele>100.0</ele><time>2026-05-01T06:31:04.981Z</time></trkpt><trkpt lat="38.5786527" lon="16.124717"><ele>101.0</ele><time>2026-05-01T06:31:05.981Z</time></trkpt><trkpt lat="38.5787945" lon="16.1250261"><ele>102.0</ele><time>2026-05-01T06:31:06.981Z</time></trkpt><trkpt lat="38.5789417" lon="16.1253341"><ele>102.0</ele><time>2026-05-01T06:31:07.981Z</time></trkpt><trkpt lat="38.5790851" lon="16.1256468"><ele>102.0</ele><time>2026-05-01T06:31:08.98Z</time></trkpt><trkpt lat="38.5792274" lon="16.1259548"><ele>99.0</ele><time>2026-05-01T06:31:09.981Z</time></trkpt><trkpt lat="38.5793663" lon="16.1262653"><ele>96.0</ele><time>2026-05-01T06:31:10.981Z</time></trkpt><trkpt lat="38.5795081" lon="16.1265776"><ele>102.5</ele><time>2026-05-01T06:31:11.98Z</time></trkpt><trkpt lat="38.5796482" lon="16.1269003"><ele>109.0</ele><time>2026-05-01T06:31:12.98Z</time></trkpt><trkpt lat="38.5797931" lon="16.1272219"><ele>104.0</ele><time>2026-05-01T06:31:13.98Z</time></trkpt><trkpt lat="38.5799394" lon="16.1275458"><ele>99.0</ele><time>2026-05-01T06:31:14.98Z</time></trkpt><trkpt lat="38.5800898" lon="16.1278647"><ele>99.0</ele><time>2026-05-01T06:31:15.98Z</time></trkpt><trkpt lat="38.5802461" lon="16.1281818"><ele>99.0</ele><time>2026-05-01T06:31:16.98Z</time></trkpt><trkpt lat="38.580404" lon="16.1285025"><ele>101.5</ele><time>2026-05-01T06:31:17.981Z</time></trkpt><trkpt lat="38.5805681" lon="16.1288181"><ele>104.0</ele><time>2026-05-01T06:31:18.98Z</time></trkpt><trkpt lat="38.5807282" lon="16.1291328"><ele>104.0</ele><time>2026-05-01T06:31:19.98Z</time></trkpt><trkpt lat="38.5808951" lon="16.1294374"><ele>104.0</ele><time>2026-05-01T06:31:20.98Z</time></trkpt><trkpt lat="38.5810617" lon="16.129735"><ele>100.0</ele><time>2026-05-01T06:31:21.981Z</time></trkpt><trkpt lat="38.5812251" lon="16.1300428"><ele>96.0</ele><time>2026-05-01T06:31:22.981Z</time></trkpt><trkpt lat="38.5813876" lon="16.1303482"><ele>96.0</ele><time>2026-05-01T06:31:23.981Z</time></trkpt><trkpt lat="38.5815586" lon="16.1306464"><ele>96.0</ele><time>2026-05-01T06:31:24.98Z</time></trkpt><trkpt lat="38.5817382" lon="16.13094"><ele>95.5</ele><time>2026-05-01T06:31:25.981Z</time></trkpt><trkpt lat="38.581924" lon="16.1312251"><ele>95.0</ele><time>2026-05-01T06:31:26.98Z</time></trkpt><trkpt lat="38.5821123" lon="16.1315029"><ele>96.0</ele><time>2026-05-01T06:31:27.98Z</time></trkpt><trkpt lat="38.5823048" lon="16.1317705"><ele>97.0</ele><time>2026-05-01T06:31:28.981Z</time></trkpt><trkpt lat="38.5824984" lon="16.1320323"><ele>97.0</ele><time>2026-05-01T06:31:29.981Z</time></trkpt><trkpt lat="38.5826989" lon="16.1322899"><ele>97.0</ele><time>2026-05-01T06:31:30.981Z</time></trkpt><trkpt lat="38.5829119" lon="16.1325451"><ele>97.0</ele><time>2026-05-01T06:31:31.98Z</time></trkpt><trkpt lat="38.5831367" lon="16.1327949"><ele>97.0</ele><time>2026-05-01T06:31:32.98Z</time></trkpt><trkpt lat="38.5833614" lon="16.133031"><ele>95.5</ele><time>2026-05-01T06:31:33.98Z</time></trkpt><trkpt lat="38.5835916" lon="16.1332664"><ele>94.0</ele><time>2026-05-01T06:31:34.98Z</time></trkpt><trkpt lat="38.5838288" lon="16.1335012"><ele>98.0</ele><time>2026-05-01T06:31:35.98Z</time></trkpt><trkpt lat="38.58407" lon="16.1337253"><ele>102.0</ele><time>2026-05-01T06:31:36.981Z</time></trkpt><trkpt lat="38.5843164" lon="16.1339427"><ele>103.0</ele><time>2026-05-01T06:31:37.98Z</time></trkpt><trkpt lat="38.584568" lon="16.1341484"><ele>104.0</ele><time>2026-05-01T06:31:38.981Z</time></trkpt><trkpt lat="38.584824" lon="16.1343537"><ele>104.0</ele><time>2026-05-01T06:31:39.98Z</time></trkpt><trkpt lat="38.5850794" lon="16.1345474"><ele>104.0</ele><time>2026-05-01T06:31:40.981Z</time></trkpt><trkpt lat="38.58534" lon="16.1347273"><ele>103.5</ele><time>2026-05-01T06:31:41.981Z</time></trkpt><trkpt lat="38.585601" lon="16.1348996"><ele>103.0</ele><time>2026-05-01T06:31:42.98Z</time></trkpt><trkpt lat="38.5858696" lon="16.1350598"><ele>103.0</ele><time>2026-05-01T06:31:43.98Z</time></trkpt><trkpt lat="38.5861459" lon="16.1352122"><ele>103.0</ele><time>2026-05-01T06:31:44.98Z</time></trkpt><trkpt lat="38.5864301" lon="16.1353627"><ele>107.0</ele><time>2026-05-01T06:31:45.98Z</time></trkpt><trkpt lat="38.5867198" lon="16.135511"><ele>111.0</ele><time>2026-05-01T06:31:46.98Z</time></trkpt><trkpt lat="38.5870143" lon="16.1356426"><ele>107.0</ele><time>2026-05-01T06:31:47.98Z</time></trkpt><trkpt lat="38.5873186" lon="16.1357701"><ele>103.0</ele><time>2026-05-01T06:31:48.981Z</time></trkpt><trkpt lat="38.5876252" lon="16.1358889"><ele>103.5</ele><time>2026-05-01T06:31:49.98Z</time></trkpt><trkpt lat="38.5879338" lon="16.1359969"><ele>104.0</ele><time>2026-05-01T06:31:50.981Z</time></trkpt><trkpt lat="38.5882383" lon="16.1360907"><ele>104.0</ele><time>2026-05-01T06:31:51.98Z</time></trkpt><trkpt lat="38.5885356" lon="16.1361799"><ele>104.0</ele><time>2026-05-01T06:31:52.98Z</time></trkpt><trkpt lat="38.588828" lon="16.136259"><ele>106.0</ele><time>2026-05-01T06:31:53.98Z</time></trkpt><trkpt lat="38.5891251" lon="16.1363318"><ele>108.0</ele><time>2026-05-01T06:31:54.98Z</time></trkpt><trkpt lat="38.589418" lon="16.1364076"><ele>113.0</ele><time>2026-05-01T06:31:55.981Z</time></trkpt><trkpt lat="38.589709" lon="16.1364732"><ele>118.0</ele><time>2026-05-01T06:31:56.98Z</time></trkpt><trkpt lat="38.5900036" lon="16.1365346"><ele>110.0</ele><time>2026-05-01T06:31:57.981Z</time></trkpt><trkpt lat="38.5903012" lon="16.1365982"><ele>102.0</ele><time>2026-05-01T06:31:58.98Z</time></trkpt><trkpt lat="38.5905995" lon="16.1366495"><ele>102.0</ele><time>2026-05-01T06:31:59.98Z</time></trkpt><trkpt lat="38.5908937" lon="16.1367006"><ele>102.0</ele><time>2026-05-01T06:32:00.98Z</time></trkpt><trkpt lat="38.5911885" lon="16.1367459"><ele>102.5</ele><time>2026-05-01T06:32:01.98Z</time></trkpt><trkpt lat="38.5914852" lon="16.1367956"><ele>103.0</ele><time>2026-05-01T06:32:02.98Z</time></trkpt><trkpt lat="38.5917838" lon="16.136844"><ele>104.0</ele><time>2026-05-01T06:32:03.98Z</time></trkpt><trkpt lat="38.5920827" lon="16.1368983"><ele>105.0</ele><time>2026-05-01T06:32:04.981Z</time></trkpt><trkpt lat="38.5923809" lon="16.1369623"><ele>105.0</ele><time>2026-05-01T06:32:05.981Z</time></trkpt><trkpt lat="38.5926763" lon="16.1370266"><ele>105.0</ele><time>2026-05-01T06:32:06.98Z</time></trkpt><trkpt lat="38.5929731" lon="16.1371025"><ele>106.0</ele><time>2026-05-01T06:32:07.98Z</time></trkpt><trkpt lat="38.5932707" lon="16.1371753"><ele>107.0</ele><time>2026-05-01T06:32:08.98Z</time></trkpt><trkpt lat="38.5935637" lon="16.1372645"><ele>105.0</ele><time>2026-05-01T06:32:09.98Z</time></trkpt><trkpt lat="38.5938589" lon="16.1373633"><ele>103.0</ele><time>2026-05-01T06:32:10.981Z</time></trkpt><trkpt lat="38.5941522" lon="16.1374771"><ele>103.0</ele><time>2026-05-01T06:32:11.98Z</time></trkpt><trkpt lat="38.5944426" lon="16.1375998"><ele>103.0</ele><time>2026-05-01T06:32:12.981Z</time></trkpt><trkpt lat="38.5947281" lon="16.1377336"><ele>103.0</ele><time>2026-05-01T06:32:13.98Z</time></trkpt><trkpt lat="38.5950076" lon="16.1378825"><ele>103.0</ele><time>2026-05-01T06:32:14.98Z</time></trkpt><trkpt lat="38.5952877" lon="16.1380362"><ele>103.5</ele><time>2026-05-01T06:32:15.981Z</time></trkpt><trkpt lat="38.5955647" lon="16.1381953"><ele>104.0</ele><time>2026-05-01T06:32:16.981Z</time></trkpt><trkpt lat="38.5958427" lon="16.1383688"><ele>104.0</ele><time>2026-05-01T06:32:17.98Z</time></trkpt><trkpt lat="38.5961158" lon="16.1385514"><ele>104.0</ele><time>2026-05-01T06:32:18.98Z</time></trkpt><trkpt lat="38.5963873" lon="16.1387415"><ele>104.5</ele><time>2026-05-01T06:32:19.981Z</time></trkpt><trkpt lat="38.5966487" lon="16.138942"><ele>105.0</ele><time>2026-05-01T06:32:20.98Z</time></trkpt><trkpt lat="38.5969095" lon="16.1391407"><ele>109.0</ele><time>2026-05-01T06:32:21.98Z</time></trkpt><trkpt lat="38.5971684" lon="16.139337"><ele>113.0</ele><time>2026-05-01T06:32:22.981Z</time></trkpt><trkpt lat="38.597425" lon="16.139533"><ele>113.0</ele><time>2026-05-01T06:32:23.98Z</time></trkpt><trkpt lat="38.59768" lon="16.1397304"><ele>113.0</ele><time>2026-05-01T06:32:24.981Z</time></trkpt><trkpt lat="38.5979348" lon="16.1399262"><ele>112.5</ele><time>2026-05-01T06:32:25.98Z</time></trkpt><trkpt lat="38.5981882" lon="16.1401233"><ele>112.0</ele><time>2026-05-01T06:32:26.98Z</time></trkpt><trkpt lat="38.5984409" lon="16.1403209"><ele>111.0</ele><time>2026-05-01T06:32:27.981Z</time></trkpt><trkpt lat="38.5986932" lon="16.1405219"><ele>110.0</ele><time>2026-05-01T06:32:28.98Z</time></trkpt><trkpt lat="38.5989423" lon="16.1407217"><ele>110.0</ele><time>2026-05-01T06:32:29.981Z</time></trkpt><trkpt lat="38.5991939" lon="16.1409271"><ele>110.0</ele><time>2026-05-01T06:32:30.981Z</time></trkpt><trkpt lat="38.5994481" lon="16.1411276"><ele>115.0</ele><time>2026-05-01T06:32:31.981Z</time></trkpt><trkpt lat="38.5997033" lon="16.1413292"><ele>120.0</ele><time>2026-05-01T06:32:32.98Z</time></trkpt><trkpt lat="38.5999583" lon="16.1415251"><ele>114.0</ele><time>2026-05-01T06:32:33.981Z</time></trkpt><trkpt lat="38.6002148" lon="16.1417218"><ele>108.0</ele><time>2026-05-01T06:32:34.98Z</time></trkpt><trkpt lat="38.6004736" lon="16.1419161"><ele>108.0</ele><time>2026-05-01T06:32:35.981Z</time></trkpt><trkpt lat="38.6007263" lon="16.1421154"><ele>108.0</ele><time>2026-05-01T06:32:36.98Z</time></trkpt><trkpt lat="38.6009736" lon="16.1423141"><ele>107.5</ele><time>2026-05-01T06:32:37.98Z</time></trkpt><trkpt lat="38.6012242" lon="16.142521"><ele>107.0</ele><time>2026-05-01T06:32:38.98Z</time></trkpt><trkpt lat="38.6014732" lon="16.1427373"><ele>107.0</ele><time>2026-05-01T06:32:39.98Z</time></trkpt><trkpt lat="38.6017162" lon="16.1429589"><ele>107.0</ele><time>2026-05-01T06:32:40.981Z</time></trkpt><trkpt lat="38.601957" lon="16.1431796"><ele>107.5</ele><time>2026-05-01T06:32:41.98Z</time></trkpt><trkpt lat="38.6021963" lon="16.1434053"><ele>108.0</ele><time>2026-05-01T06:32:42.98Z</time></trkpt><trkpt lat="38.6024237" lon="16.1436433"><ele>108.0</ele><time>2026-05-01T06:32:43.98Z</time></trkpt><trkpt lat="38.6026483" lon="16.1438787"><ele>108.0</ele><time>2026-05-01T06:32:44.981Z</time></trkpt><trkpt lat="38.6028663" lon="16.1441256"><ele>109.5</ele><time>2026-05-01T06:32:45.98Z</time></trkpt><trkpt lat="38.6030847" lon="16.144376"><ele>111.0</ele><time>2026-05-01T06:32:46.98Z</time></trkpt><trkpt lat="38.6033087" lon="16.1446263"><ele>111.0</ele><time>2026-05-01T06:32:47.98Z</time></trkpt><trkpt lat="38.6035325" lon="16.1448764"><ele>111.0</ele><time>2026-05-01T06:32:48.98Z</time></trkpt><trkpt lat="38.6037555" lon="16.1451202"><ele>110.5</ele><time>2026-05-01T06:32:49.981Z</time></trkpt><trkpt lat="38.6039819" lon="16.1453623"><ele>110.0</ele><time>2026-05-01T06:32:50.981Z</time></trkpt><trkpt lat="38.6042053" lon="16.1456039"><ele>109.5</ele><time>2026-05-01T06:32:51.98Z</time></trkpt><trkpt lat="38.6044369" lon="16.1458409"><ele>109.0</ele><time>2026-05-01T06:32:52.981Z</time></trkpt><trkpt lat="38.6046754" lon="16.1460649"><ele>112.5</ele><time>2026-05-01T06:32:53.981Z</time></trkpt><trkpt lat="38.6049174" lon="16.1462848"><ele>116.0</ele><time>2026-05-01T06:32:54.98Z</time></trkpt><trkpt lat="38.6051616" lon="16.1465023"><ele>116.5</ele><time>2026-05-01T06:32:55.981Z</time></trkpt><trkpt lat="38.6054122" lon="16.1467133"><ele>117.0</ele><time>2026-05-01T06:32:56.98Z</time></trkpt><trkpt lat="38.6056672" lon="16.1469234"><ele>117.0</ele><time>2026-05-01T06:32:57.981Z</time></trkpt><trkpt lat="38.6059327" lon="16.1471181"><ele>117.0</ele><time>2026-05-01T06:32:58.98Z</time></trkpt><trkpt lat="38.6061916" lon="16.1473114"><ele>114.5</ele><time>2026-05-01T06:32:59.98Z</time></trkpt><trkpt lat="38.6064464" lon="16.1475074"><ele>112.0</ele><time>2026-05-01T06:33:00.981Z</time></trkpt><trkpt lat="38.6067039" lon="16.1476963"><ele>112.0</ele><time>2026-05-01T06:33:01.981Z</time></trkpt><trkpt lat="38.606956" lon="16.1478854"><ele>112.0</ele><time>2026-05-01T06:33:02.981Z</time></trkpt><trkpt lat="38.6072123" lon="16.1480733"><ele>112.0</ele><time>2026-05-01T06:33:03.981Z</time></trkpt><trkpt lat="38.607462" lon="16.1482681"><ele>112.0</ele><time>2026-05-01T06:33:04.981Z</time></trkpt><trkpt lat="38.6077132" lon="16.148458"><ele>114.5</ele><time>2026-05-01T06:33:05.981Z</time></trkpt><trkpt lat="38.6079637" lon="16.1486357"><ele>117.0</ele><time>2026-05-01T06:33:06.981Z</time></trkpt><trkpt lat="38.6082034" lon="16.1488163"><ele>117.0</ele><time>2026-05-01T06:33:07.981Z</time></trkpt><trkpt lat="38.6084385" lon="16.1489977"><ele>117.0</ele><time>2026-05-01T06:33:08.981Z</time></trkpt><trkpt lat="38.6086726" lon="16.1491741"><ele>115.0</ele><time>2026-05-01T06:33:09.98Z</time></trkpt><trkpt lat="38.6089039" lon="16.1493498"><ele>113.0</ele><time>2026-05-01T06:33:10.98Z</time></trkpt><trkpt lat="38.6091271" lon="16.1495306"><ele>113.0</ele><time>2026-05-01T06:33:11.98Z</time></trkpt><trkpt lat="38.6093483" lon="16.1496998"><ele>113.0</ele><time>2026-05-01T06:33:12.981Z</time></trkpt><trkpt lat="38.6095738" lon="16.1498634"><ele>112.0</ele><time>2026-05-01T06:33:13.98Z</time></trkpt><trkpt lat="38.6098003" lon="16.1500217"><ele>111.0</ele><time>2026-05-01T06:33:14.98Z</time></trkpt><trkpt lat="38.6100168" lon="16.1501913"><ele>111.0</ele><time>2026-05-01T06:33:15.98Z</time></trkpt><trkpt lat="38.6102342" lon="16.1503611"><ele>111.0</ele><time>2026-05-01T06:33:16.981Z</time></trkpt><trkpt lat="38.6104639" lon="16.1505524"><ele>110.5</ele><time>2026-05-01T06:33:17.981Z</time></trkpt><trkpt lat="38.6107113" lon="16.1507449"><ele>110.0</ele><time>2026-05-01T06:33:18.98Z</time></trkpt><trkpt lat="38.6109684" lon="16.1509527"><ele>110.0</ele><time>2026-05-01T06:33:19.981Z</time></trkpt><trkpt lat="38.6112346" lon="16.1511723"><ele>110.0</ele><time>2026-05-01T06:33:20.98Z</time></trkpt><trkpt lat="38.6115095" lon="16.151406"><ele>111.0</ele><time>2026-05-01T06:33:21.98Z</time></trkpt><trkpt lat="38.611786" lon="16.1516502"><ele>112.0</ele><time>2026-05-01T06:33:22.981Z</time></trkpt><trkpt lat="38.6120652" lon="16.1519084"><ele>112.0</ele><time>2026-05-01T06:33:23.98Z</time></trkpt><trkpt lat="38.6123366" lon="16.1521784"><ele>112.0</ele><time>2026-05-01T06:33:24.98Z</time></trkpt><trkpt lat="38.6126061" lon="16.1524445"><ele>113.0</ele><time>2026-05-01T06:33:25.981Z</time></trkpt><trkpt lat="38.6128705" lon="16.1527107"><ele>114.0</ele><time>2026-05-01T06:33:26.98Z</time></trkpt><trkpt lat="38.6131289" lon="16.1529769"><ele>115.0</ele><time>2026-05-01T06:33:27.98Z</time></trkpt><trkpt lat="38.6133831" lon="16.1532441"><ele>116.0</ele><time>2026-05-01T06:33:28.98Z</time></trkpt><trkpt lat="38.6136348" lon="16.1535097"><ele>116.0</ele><time>2026-05-01T06:33:29.981Z</time></trkpt><trkpt lat="38.6138807" lon="16.1537806"><ele>116.0</ele><time>2026-05-01T06:33:30.98Z</time></trkpt><trkpt lat="38.6141341" lon="16.1540512"><ele>116.0</ele><time>2026-05-01T06:33:31.98Z</time></trkpt><trkpt lat="38.6143909" lon="16.1543366"><ele>116.0</ele><time>2026-05-01T06:33:32.981Z</time></trkpt><trkpt lat="38.6146624" lon="16.1546229"><ele>117.5</ele><time>2026-05-01T06:33:33.981Z</time></trkpt><trkpt lat="38.6149404" lon="16.1549171"><ele>119.0</ele><time>2026-05-01T06:33:34.98Z</time></trkpt><trkpt lat="38.6152119" lon="16.1552132"><ele>119.5</ele><time>2026-05-01T06:33:35.98Z</time></trkpt><trkpt lat="38.615478" lon="16.1555052"><ele>120.0</ele><time>2026-05-01T06:33:36.981Z</time></trkpt><trkpt lat="38.6157382" lon="16.1557838"><ele>120.0</ele><time>2026-05-01T06:33:37.98Z</time></trkpt><trkpt lat="38.6159886" lon="16.1560611"><ele>120.0</ele><time>2026-05-01T06:33:38.98Z</time></trkpt><trkpt lat="38.6162415" lon="16.156329"><ele>121.5</ele><time>2026-05-01T06:33:39.98Z</time></trkpt><trkpt lat="38.6164933" lon="16.1565831"><ele>123.0</ele><time>2026-05-01T06:33:40.98Z</time></trkpt><trkpt lat="38.6167455" lon="16.1568222"><ele>119.5</ele><time>2026-05-01T06:33:41.98Z</time></trkpt><trkpt lat="38.617" lon="16.1570524"><ele>116.0</ele><time>2026-05-01T06:33:42.98Z</time></trkpt><trkpt lat="38.6172659" lon="16.1572701"><ele>118.5</ele><time>2026-05-01T06:33:43.98Z</time></trkpt><trkpt lat="38.6175293" lon="16.1574798"><ele>121.0</ele><time>2026-05-01T06:33:44.98Z</time></trkpt><trkpt lat="38.617794" lon="16.1576761"><ele>118.0</ele><time>2026-05-01T06:33:45.98Z</time></trkpt><trkpt lat="38.6180633" lon="16.157875"><ele>115.0</ele><time>2026-05-01T06:33:46.981Z</time></trkpt><trkpt lat="38.6183426" lon="16.1580776"><ele>116.0</ele><time>2026-05-01T06:33:47.981Z</time></trkpt><trkpt lat="38.618634" lon="16.1582753"><ele>117.0</ele><time>2026-05-01T06:33:48.981Z</time></trkpt><trkpt lat="38.6189227" lon="16.1584609"><ele>117.0</ele><time>2026-05-01T06:33:49.98Z</time></trkpt><trkpt lat="38.6192113" lon="16.1586342"><ele>117.0</ele><time>2026-05-01T06:33:50.98Z</time></trkpt><trkpt lat="38.6194984" lon="16.1588016"><ele>117.0</ele><time>2026-05-01T06:33:51.981Z</time></trkpt><trkpt lat="38.6197881" lon="16.1589581"><ele>117.0</ele><time>2026-05-01T06:33:52.98Z</time></trkpt><trkpt lat="38.6200829" lon="16.1590986"><ele>116.5</ele><time>2026-05-01T06:33:53.98Z</time></trkpt><trkpt lat="38.6203868" lon="16.159233"><ele>116.0</ele><time>2026-05-01T06:33:54.98Z</time></trkpt><trkpt lat="38.6206891" lon="16.1593681"><ele>116.0</ele><time>2026-05-01T06:33:55.981Z</time></trkpt><trkpt lat="38.620992" lon="16.1594942"><ele>116.0</ele><time>2026-05-01T06:33:56.98Z</time></trkpt><trkpt lat="38.6212898" lon="16.1596171"><ele>115.0</ele><time>2026-05-01T06:33:57.981Z</time></trkpt><trkpt lat="38.6215823" lon="16.1597272"><ele>114.0</ele><time>2026-05-01T06:33:58.98Z</time></trkpt><trkpt lat="38.6218696" lon="16.1598395"><ele>119.5</ele><time>2026-05-01T06:33:59.981Z</time></trkpt><trkpt lat="38.622153" lon="16.1599484"><ele>125.0</ele><time>2026-05-01T06:34:00.98Z</time></trkpt><trkpt lat="38.6224371" lon="16.160054"><ele>125.0</ele><time>2026-05-01T06:34:01.981Z</time></trkpt><trkpt lat="38.6227209" lon="16.1601563"><ele>125.0</ele><time>2026-05-01T06:34:02.981Z</time></trkpt><trkpt lat="38.6230034" lon="16.1602557"><ele>124.5</ele><time>2026-05-01T06:34:03.98Z</time></trkpt><trkpt lat="38.6232827" lon="16.1603558"><ele>124.0</ele><time>2026-05-01T06:34:04.981Z</time></trkpt><trkpt lat="38.623565" lon="16.1604595"><ele>122.0</ele><time>2026-05-01T06:34:05.981Z</time></trkpt><trkpt lat="38.6238415" lon="16.1605624"><ele>120.0</ele><time>2026-05-01T06:34:06.98Z</time></trkpt><trkpt lat="38.6241145" lon="16.1606748"><ele>121.5</ele><time>2026-05-01T06:34:07.98Z</time></trkpt><trkpt lat="38.624399" lon="16.1607935"><ele>123.0</ele><time>2026-05-01T06:34:08.98Z</time></trkpt><trkpt lat="38.6246864" lon="16.1609198"><ele>123.0</ele><time>2026-05-01T06:34:09.98Z</time></trkpt><trkpt lat="38.6249776" lon="16.1610492"><ele>123.0</ele><time>2026-05-01T06:34:10.98Z</time></trkpt><trkpt lat="38.6252719" lon="16.1611869"><ele>121.5</ele><time>2026-05-01T06:34:11.981Z</time></trkpt><trkpt lat="38.6255658" lon="16.1613489"><ele>120.0</ele><time>2026-05-01T06:34:12.98Z</time></trkpt><trkpt lat="38.6258528" lon="16.1615166"><ele>121.0</ele><time>2026-05-01T06:34:13.981Z</time></trkpt><trkpt lat="38.6261361" lon="16.1616923"><ele>122.0</ele><time>2026-05-01T06:34:14.981Z</time></trkpt><trkpt lat="38.6264191" lon="16.1618702"><ele>122.0</ele><time>2026-05-01T06:34:15.98Z</time></trkpt><trkpt lat="38.6266916" lon="16.1620568"><ele>122.0</ele><time>2026-05-01T06:34:16.98Z</time></trkpt><trkpt lat="38.6269546" lon="16.1622437"><ele>122.5</ele><time>2026-05-01T06:34:17.98Z</time></trkpt><trkpt lat="38.6272123" lon="16.1624321"><ele>123.0</ele><time>2026-05-01T06:34:18.981Z</time></trkpt><trkpt lat="38.6274604" lon="16.1626342"><ele>123.0</ele><time>2026-05-01T06:34:19.981Z</time></trkpt><trkpt lat="38.6276998" lon="16.1628335"><ele>123.0</ele><time>2026-05-01T06:34:20.981Z</time></trkpt><trkpt lat="38.6279403" lon="16.1630332"><ele>123.5</ele><time>2026-05-01T06:34:21.981Z</time></trkpt><trkpt lat="38.6281765" lon="16.163241"><ele>124.0</ele><time>2026-05-01T06:34:22.98Z</time></trkpt><trkpt lat="38.6284056" lon="16.1634478"><ele>124.0</ele><time>2026-05-01T06:34:23.98Z</time></trkpt><trkpt lat="38.6286278" lon="16.1636598"><ele>124.0</ele><time>2026-05-01T06:34:24.98Z</time></trkpt><trkpt lat="38.6288458" lon="16.1638783"><ele>125.0</ele><time>2026-05-01T06:34:25.98Z</time></trkpt><trkpt lat="38.6290636" lon="16.1640874"><ele>126.0</ele><time>2026-05-01T06:34:26.98Z</time></trkpt><trkpt lat="38.6292699" lon="16.1642945"><ele>126.0</ele><time>2026-05-01T06:34:27.981Z</time></trkpt><trkpt lat="38.6294649" lon="16.1645104"><ele>126.0</ele><time>2026-05-01T06:34:28.981Z</time></trkpt><trkpt lat="38.629651" lon="16.1647224"><ele>127.0</ele><time>2026-05-01T06:34:29.981Z</time></trkpt><trkpt lat="38.6298233" lon="16.1649241"><ele>128.0</ele><time>2026-05-01T06:34:30.98Z</time></trkpt><trkpt lat="38.6299804" lon="16.165115"><ele>128.0</ele><time>2026-05-01T06:34:31.981Z</time></trkpt><trkpt lat="38.6301229" lon="16.1653003"><ele>128.0</ele><time>2026-05-01T06:34:32.98Z</time></trkpt><trkpt lat="38.6302643" lon="16.165476"><ele>128.0</ele><time>2026-05-01T06:34:33.98Z</time></trkpt><trkpt lat="38.6304095" lon="16.1656553"><ele>128.66666666666666</ele><time>2026-05-01T06:34:34.98Z</time></trkpt><trkpt lat="38.6305466" lon="16.1658448"><ele>129.33333333333334</ele><time>2026-05-01T06:34:35.98Z</time></trkpt><trkpt lat="38.6306843" lon="16.1660396"><ele>130.0</ele><time>2026-05-01T06:34:36.981Z</time></trkpt><trkpt lat="38.6308209" lon="16.1662465"><ele>130.0</ele><time>2026-05-01T06:34:37.98Z</time></trkpt><trkpt lat="38.6309592" lon="16.1664545"><ele>130.0</ele><time>2026-05-01T06:34:38.98Z</time></trkpt><trkpt lat="38.6310976" lon="16.1666683"><ele>130.0</ele><time>2026-05-01T06:34:39.981Z</time></trkpt><trkpt lat="38.6312435" lon="16.1668848"><ele>129.5</ele><time>2026-05-01T06:34:40.98Z</time></trkpt><trkpt lat="38.6313935" lon="16.167111"><ele>129.0</ele><time>2026-05-01T06:34:41.981Z</time></trkpt><trkpt lat="38.6315426" lon="16.1673466"><ele>132.5</ele><time>2026-05-01T06:34:42.98Z</time></trkpt><trkpt lat="38.6316881" lon="16.167595"><ele>136.0</ele><time>2026-05-01T06:34:43.98Z</time></trkpt><trkpt lat="38.6318278" lon="16.1678509"><ele>136.0</ele><time>2026-05-01T06:34:44.981Z</time></trkpt><trkpt lat="38.6319711" lon="16.1681146"><ele>136.0</ele><time>2026-05-01T06:34:45.981Z</time></trkpt><trkpt lat="38.632114" lon="16.168381"><ele>132.5</ele><time>2026-05-01T06:34:46.981Z</time></trkpt><trkpt lat="38.6322591" lon="16.168652"><ele>129.0</ele><time>2026-05-01T06:34:47.981Z</time></trkpt><trkpt lat="38.6323997" lon="16.1689234"><ele>128.5</ele><time>2026-05-01T06:34:48.981Z</time></trkpt><trkpt lat="38.6325389" lon="16.1691997"><ele>128.0</ele><time>2026-05-01T06:34:49.981Z</time></trkpt><trkpt lat="38.6326817" lon="16.1694672"><ele>128.5</ele><time>2026-05-01T06:34:50.98Z</time></trkpt><trkpt lat="38.6328209" lon="16.1697318"><ele>129.0</ele><time>2026-05-01T06:34:51.981Z</time></trkpt><trkpt lat="38.6329625" lon="16.1699947"><ele>129.0</ele><time>2026-05-01T06:34:52.981Z</time></trkpt><trkpt lat="38.6331074" lon="16.1702542"><ele>129.0</ele><time>2026-05-01T06:34:53.98Z</time></trkpt><trkpt lat="38.6332453" lon="16.1705171"><ele>128.0</ele><time>2026-05-01T06:34:54.98Z</time></trkpt><trkpt lat="38.6333872" lon="16.1707783"><ele>127.0</ele><time>2026-05-01T06:34:55.98Z</time></trkpt><trkpt lat="38.6335271" lon="16.1710461"><ele>129.5</ele><time>2026-05-01T06:34:56.98Z</time></trkpt><trkpt lat="38.6336708" lon="16.171311"><ele>132.0</ele><time>2026-05-01T06:34:57.98Z</time></trkpt><trkpt lat="38.6338192" lon="16.1715765"><ele>132.0</ele><time>2026-05-01T06:34:58.981Z</time></trkpt><trkpt lat="38.6339713" lon="16.1718444"><ele>132.0</ele><time>2026-05-01T06:34:59.98Z</time></trkpt><trkpt lat="38.6341212" lon="16.1721189"><ele>131.0</ele><time>2026-05-01T06:35:00.98Z</time></trkpt><trkpt lat="38.6342771" lon="16.1723944"><ele>130.0</ele><time>2026-05-01T06:35:01.98Z</time></trkpt><trkpt lat="38.6344333" lon="16.1726752"><ele>130.5</ele><time>2026-05-01T06:35:02.98Z</time></trkpt><trkpt lat="38.6345984" lon="16.1729499"><ele>131.0</ele><time>2026-05-01T06:35:03.981Z</time></trkpt><trkpt lat="38.6347652" lon="16.1732239"><ele>131.0</ele><time>2026-05-01T06:35:04.98Z</time></trkpt><trkpt lat="38.6349388" lon="16.1735066"><ele>131.0</ele><time>2026-05-01T06:35:05.98Z</time></trkpt><trkpt lat="38.6351187" lon="16.1737869"><ele>131.0</ele><time>2026-05-01T06:35:06.981Z</time></trkpt><trkpt lat="38.6352967" lon="16.1740691"><ele>131.0</ele><time>2026-05-01T06:35:07.98Z</time></trkpt><trkpt lat="38.6354768" lon="16.1743463"><ele>131.0</ele><time>2026-05-01T06:35:08.98Z</time></trkpt><trkpt lat="38.6356629" lon="16.1746208"><ele>131.0</ele><time>2026-05-01T06:35:09.981Z</time></trkpt><trkpt lat="38.6358508" lon="16.1748948"><ele>131.0</ele><time>2026-05-01T06:35:10.98Z</time></trkpt><trkpt lat="38.6360353" lon="16.175158"><ele>131.0</ele><time>2026-05-01T06:35:11.981Z</time></trkpt><trkpt lat="38.6362201" lon="16.1754244"><ele>131.5</ele><time>2026-05-01T06:35:12.981Z</time></trkpt><trkpt lat="38.6364043" lon="16.1756978"><ele>132.0</ele><time>2026-05-01T06:35:13.981Z</time></trkpt><trkpt lat="38.6365977" lon="16.1759605"><ele>132.0</ele><time>2026-05-01T06:35:14.98Z</time></trkpt><trkpt lat="38.6367919" lon="16.1762198"><ele>132.0</ele><time>2026-05-01T06:35:15.981Z</time></trkpt><trkpt lat="38.6369875" lon="16.1764779"><ele>133.0</ele><time>2026-05-01T06:35:16.98Z</time></trkpt><trkpt lat="38.6371864" lon="16.1767315"><ele>134.0</ele><time>2026-05-01T06:35:17.981Z</time></trkpt><trkpt lat="38.637392" lon="16.1769842"><ele>134.0</ele><time>2026-05-01T06:35:18.98Z</time></trkpt><trkpt lat="38.6375936" lon="16.1772374"><ele>134.0</ele><time>2026-05-01T06:35:19.98Z</time></trkpt><trkpt lat="38.6377993" lon="16.1774843"><ele>134.5</ele><time>2026-05-01T06:35:20.98Z</time></trkpt><trkpt lat="38.6380056" lon="16.1777437"><ele>135.0</ele><time>2026-05-01T06:35:21.981Z</time></trkpt><trkpt lat="38.6382106" lon="16.1780019"><ele>135.5</ele><time>2026-05-01T06:35:22.98Z</time></trkpt><trkpt lat="38.6384204" lon="16.178265"><ele>136.0</ele><time>2026-05-01T06:35:23.98Z</time></trkpt><trkpt lat="38.6386375" lon="16.1785249"><ele>136.0</ele><time>2026-05-01T06:35:24.98Z</time></trkpt><trkpt lat="38.6388613" lon="16.1787748"><ele>136.0</ele><time>2026-05-01T06:35:25.98Z</time></trkpt><trkpt lat="38.6390873" lon="16.1790187"><ele>136.5</ele><time>2026-05-01T06:35:26.98Z</time></trkpt><trkpt lat="38.6393146" lon="16.1792595"><ele>137.0</ele><time>2026-05-01T06:35:27.98Z</time></trkpt><trkpt lat="38.6395439" lon="16.1794929"><ele>137.0</ele><time>2026-05-01T06:35:28.98Z</time></trkpt><trkpt lat="38.6397702" lon="16.1797225"><ele>137.0</ele><time>2026-05-01T06:35:29.981Z</time></trkpt><trkpt lat="38.6399954" lon="16.1799507"><ele>137.5</ele><time>2026-05-01T06:35:30.98Z</time></trkpt><trkpt lat="38.6402163" lon="16.1801799"><ele>138.0</ele><time>2026-05-01T06:35:31.98Z</time></trkpt><trkpt lat="38.6404403" lon="16.1804011"><ele>138.0</ele><time>2026-05-01T06:35:32.981Z</time></trkpt><trkpt lat="38.6406615" lon="16.1806184"><ele>138.0</ele><time>2026-05-01T06:35:33.98Z</time></trkpt><trkpt lat="38.6408815" lon="16.1808369"><ele>138.0</ele><time>2026-05-01T06:35:34.981Z</time></trkpt><trkpt lat="38.6411063" lon="16.1810484"><ele>138.0</ele><time>2026-05-01T06:35:35.98Z</time></trkpt><trkpt lat="38.6413319" lon="16.1812678"><ele>138.0</ele><time>2026-05-01T06:35:36.98Z</time></trkpt><trkpt lat="38.6415658" lon="16.1814755"><ele>138.0</ele><time>2026-05-01T06:35:37.98Z</time></trkpt><trkpt lat="38.6418002" lon="16.1816895"><ele>138.5</ele><time>2026-05-01T06:35:38.981Z</time></trkpt><trkpt lat="38.6420439" lon="16.1819053"><ele>139.0</ele><time>2026-05-01T06:35:39.98Z</time></trkpt><trkpt lat="38.6422987" lon="16.182119"><ele>139.0</ele><time>2026-05-01T06:35:40.981Z</time></trkpt><trkpt lat="38.6425529" lon="16.1823278"><ele>139.0</ele><time>2026-05-01T06:35:41.98Z</time></trkpt><trkpt lat="38.6428077" lon="16.1825339"><ele>140.0</ele><time>2026-05-01T06:35:42.981Z</time></trkpt><trkpt lat="38.6430618" lon="16.1827448"><ele>141.0</ele><time>2026-05-01T06:35:43.98Z</time></trkpt><trkpt lat="38.6433145" lon="16.1829529"><ele>141.0</ele><time>2026-05-01T06:35:44.981Z</time></trkpt><trkpt lat="38.6435717" lon="16.183149"><ele>141.0</ele><time>2026-05-01T06:35:45.98Z</time></trkpt><trkpt lat="38.6438324" lon="16.1833392"><ele>141.5</ele><time>2026-05-01T06:35:46.98Z</time></trkpt><trkpt lat="38.6440893" lon="16.183528"><ele>142.0</ele><time>2026-05-01T06:35:47.98Z</time></trkpt><trkpt lat="38.6443459" lon="16.1837172"><ele>141.5</ele><time>2026-05-01T06:35:48.98Z</time></trkpt><trkpt lat="38.6446027" lon="16.1838992"><ele>141.0</ele><time>2026-05-01T06:35:49.98Z</time></trkpt><trkpt lat="38.6448604" lon="16.1840775"><ele>141.0</ele><time>2026-05-01T06:35:50.98Z</time></trkpt><trkpt lat="38.6451134" lon="16.1842576"><ele>141.0</ele><time>2026-05-01T06:35:51.98Z</time></trkpt><trkpt lat="38.6453708" lon="16.1844305"><ele>141.0</ele><time>2026-05-01T06:35:52.98Z</time></trkpt><trkpt lat="38.6456303" lon="16.1846038"><ele>141.0</ele><time>2026-05-01T06:35:53.98Z</time></trkpt><trkpt lat="38.6458917" lon="16.1847786"><ele>142.0</ele><time>2026-05-01T06:35:54.98Z</time></trkpt><trkpt lat="38.6461519" lon="16.1849576"><ele>143.0</ele><time>2026-05-01T06:35:55.981Z</time></trkpt><trkpt lat="38.6464163" lon="16.1851391"><ele>143.0</ele><time>2026-05-01T06:35:56.98Z</time></trkpt><trkpt lat="38.6466796" lon="16.1853247"><ele>143.0</ele><time>2026-05-01T06:35:57.981Z</time></trkpt><trkpt lat="38.6469445" lon="16.1855067"><ele>144.5</ele><time>2026-05-01T06:35:58.98Z</time></trkpt><trkpt lat="38.647209" lon="16.1856882"><ele>146.0</ele><time>2026-05-01T06:35:59.98Z</time></trkpt><trkpt lat="38.6474707" lon="16.1858714"><ele>146.0</ele><time>2026-05-01T06:36:00.981Z</time></trkpt><trkpt lat="38.6477304" lon="16.1860508"><ele>146.0</ele><time>2026-05-01T06:36:01.98Z</time></trkpt><trkpt lat="38.6479887" lon="16.1862267"><ele>145.5</ele><time>2026-05-01T06:36:02.981Z</time></trkpt><trkpt lat="38.648248" lon="16.1863952"><ele>145.0</ele><time>2026-05-01T06:36:03.98Z</time></trkpt><trkpt lat="38.6485066" lon="16.186568"><ele>145.5</ele><time>2026-05-01T06:36:04.981Z</time></trkpt><trkpt lat="38.6487699" lon="16.1867403"><ele>146.0</ele><time>2026-05-01T06:36:05.98Z</time></trkpt><trkpt lat="38.6490314" lon="16.1869159"><ele>146.0</ele><time>2026-05-01T06:36:06.981Z</time></trkpt><trkpt lat="38.6492934" lon="16.1870925"><ele>146.0</ele><time>2026-05-01T06:36:07.98Z</time></trkpt><trkpt lat="38.6495522" lon="16.1872653"><ele>146.5</ele><time>2026-05-01T06:36:08.98Z</time></trkpt><trkpt lat="38.6498022" lon="16.1874367"><ele>147.0</ele><time>2026-05-01T06:36:09.981Z</time></trkpt><trkpt lat="38.6500572" lon="16.187603"><ele>147.5</ele><time>2026-05-01T06:36:10.98Z</time></trkpt><trkpt lat="38.6503201" lon="16.1877625"><ele>148.0</ele><time>2026-05-01T06:36:11.981Z</time></trkpt><trkpt lat="38.6505839" lon="16.1879235"><ele>148.0</ele><time>2026-05-01T06:36:12.981Z</time></trkpt><trkpt lat="38.6508519" lon="16.1880789"><ele>148.0</ele><time>2026-05-01T06:36:13.98Z</time></trkpt><trkpt lat="38.6511208" lon="16.1882278"><ele>159.0</ele><time>2026-05-01T06:36:14.98Z</time></trkpt><trkpt lat="38.6513893" lon="16.1883738"><ele>170.0</ele><time>2026-05-01T06:36:15.98Z</time></trkpt><trkpt lat="38.6516531" lon="16.1885251"><ele>170.0</ele><time>2026-05-01T06:36:16.981Z</time></trkpt><trkpt lat="38.6519163" lon="16.1886646"><ele>170.0</ele><time>2026-05-01T06:36:17.981Z</time></trkpt><trkpt lat="38.6521828" lon="16.1887984"><ele>177.5</ele><time>2026-05-01T06:36:18.981Z</time></trkpt><trkpt lat="38.6524542" lon="16.1889296"><ele>185.0</ele><time>2026-05-01T06:36:19.981Z</time></trkpt><trkpt lat="38.6527234" lon="16.1890629"><ele>178.0</ele><time>2026-05-01T06:36:20.98Z</time></trkpt><trkpt lat="38.6529927" lon="16.1891981"><ele>171.0</ele><time>2026-05-01T06:36:21.98Z</time></trkpt><trkpt lat="38.6564764" lon="16.1895078"><ele>171.0</ele><time>2026-05-01T06:36:32.98Z</time></trkpt><trkpt lat="38.6567867" lon="16.1894848"><ele>171.0</ele><time>2026-05-01T06:36:33.979Z</time></trkpt><trkpt lat="38.6570986" lon="16.1894367"><ele>167.5</ele><time>2026-05-01T06:36:34.98Z</time></trkpt><trkpt lat="38.6574007" lon="16.1894036"><ele>164.0</ele><time>2026-05-01T06:36:35.979Z</time></trkpt><trkpt lat="38.6577104" lon="16.1893495"><ele>160.0</ele><time>2026-05-01T06:36:36.98Z</time></trkpt><trkpt lat="38.6580178" lon="16.1892797"><ele>156.0</ele><time>2026-05-01T06:36:37.979Z</time></trkpt><trkpt lat="38.658329" lon="16.1891945"><ele>155.5</ele><time>2026-05-01T06:36:38.979Z</time></trkpt><trkpt lat="38.6586308" lon="16.1891117"><ele>155.0</ele><time>2026-05-01T06:36:39.979Z</time></trkpt><trkpt lat="38.6589331" lon="16.1890262"><ele>158.5</ele><time>2026-05-01T06:36:40.979Z</time></trkpt><trkpt lat="38.6592284" lon="16.1889283"><ele>162.0</ele><time>2026-05-01T06:36:41.979Z</time></trkpt><trkpt lat="38.6595261" lon="16.1888162"><ele>162.0</ele><time>2026-05-01T06:36:42.98Z</time></trkpt><trkpt lat="38.6598183" lon="16.188702"><ele>162.0</ele><time>2026-05-01T06:36:43.979Z</time></trkpt><trkpt lat="38.6601064" lon="16.1885885"><ele>162.5</ele><time>2026-05-01T06:36:44.979Z</time></trkpt><trkpt lat="38.6603932" lon="16.1884657"><ele>163.0</ele><time>2026-05-01T06:36:45.979Z</time></trkpt><trkpt lat="38.6606757" lon="16.1883432"><ele>163.0</ele><time>2026-05-01T06:36:46.979Z</time></trkpt><trkpt lat="38.6609609" lon="16.1882119"><ele>163.0</ele><time>2026-05-01T06:36:47.98Z</time></trkpt><trkpt lat="38.6612433" lon="16.1880739"><ele>169.0</ele><time>2026-05-01T06:36:48.979Z</time></trkpt><trkpt lat="38.6615326" lon="16.1879245"><ele>175.0</ele><time>2026-05-01T06:36:49.979Z</time></trkpt><trkpt lat="38.6618212" lon="16.1877819"><ele>171.0</ele><time>2026-05-01T06:36:50.98Z</time></trkpt><trkpt lat="38.662111" lon="16.1876391"><ele>167.0</ele><time>2026-05-01T06:36:51.979Z</time></trkpt><trkpt lat="38.6623949" lon="16.1874955"><ele>172.0</ele><time>2026-05-01T06:36:52.98Z</time></trkpt><trkpt lat="38.6626766" lon="16.1873425"><ele>177.0</ele><time>2026-05-01T06:36:53.979Z</time></trkpt><trkpt lat="38.6629629" lon="16.1872006"><ele>177.5</ele><time>2026-05-01T06:36:54.98Z</time></trkpt><trkpt lat="38.6632494" lon="16.187051"><ele>178.0</ele><time>2026-05-01T06:36:55.979Z</time></trkpt><trkpt lat="38.6635394" lon="16.1869068"><ele>173.0</ele><time>2026-05-01T06:36:56.98Z</time></trkpt><trkpt lat="38.6638303" lon="16.186758"><ele>168.0</ele><time>2026-05-01T06:36:57.98Z</time></trkpt><trkpt lat="38.664114" lon="16.1866201"><ele>168.5</ele><time>2026-05-01T06:36:58.979Z</time></trkpt><trkpt lat="38.6643949" lon="16.1864813"><ele>169.0</ele><time>2026-05-01T06:36:59.979Z</time></trkpt><trkpt lat="38.6646714" lon="16.1863384"><ele>169.0</ele><time>2026-05-01T06:37:00.979Z</time></trkpt><trkpt lat="38.664949" lon="16.1861963"><ele>169.0</ele><time>2026-05-01T06:37:01.979Z</time></trkpt><trkpt lat="38.6652288" lon="16.1860594"><ele>165.5</ele><time>2026-05-01T06:37:02.979Z</time></trkpt><trkpt lat="38.6655096" lon="16.1859229"><ele>162.0</ele><time>2026-05-01T06:37:03.98Z</time></trkpt><trkpt lat="38.6657898" lon="16.185784"><ele>163.5</ele><time>2026-05-01T06:37:04.979Z</time></trkpt><trkpt lat="38.6660721" lon="16.1856455"><ele>165.0</ele><time>2026-05-01T06:37:05.98Z</time></trkpt><trkpt lat="38.6663517" lon="16.1855024"><ele>167.0</ele><time>2026-05-01T06:37:06.98Z</time></trkpt><trkpt lat="38.6666296" lon="16.1853492"><ele>169.0</ele><time>2026-05-01T06:37:07.979Z</time></trkpt><trkpt lat="38.6669027" lon="16.1851892"><ele>167.5</ele><time>2026-05-01T06:37:08.979Z</time></trkpt><trkpt lat="38.6671645" lon="16.1850206"><ele>166.0</ele><time>2026-05-01T06:37:09.98Z</time></trkpt><trkpt lat="38.6674316" lon="16.1848472"><ele>172.0</ele><time>2026-05-01T06:37:10.98Z</time></trkpt><trkpt lat="38.6676862" lon="16.1846696"><ele>178.0</ele><time>2026-05-01T06:37:11.98Z</time></trkpt><trkpt lat="38.6679357" lon="16.1844904"><ele>178.0</ele><time>2026-05-01T06:37:12.98Z</time></trkpt><trkpt lat="38.6681863" lon="16.1843084"><ele>178.0</ele><time>2026-05-01T06:37:13.979Z</time></trkpt><trkpt lat="38.6684362" lon="16.1841094"><ele>181.0</ele><time>2026-05-01T06:37:14.979Z</time></trkpt><trkpt lat="38.6686776" lon="16.1839021"><ele>184.0</ele><time>2026-05-01T06:37:15.979Z</time></trkpt><trkpt lat="38.6689154" lon="16.1836919"><ele>184.0</ele><time>2026-05-01T06:37:16.979Z</time></trkpt><trkpt lat="38.6691497" lon="16.1834763"><ele>184.0</ele><time>2026-05-01T06:37:17.98Z</time></trkpt><trkpt lat="38.6693852" lon="16.1832572"><ele>190.0</ele><time>2026-05-01T06:37:18.979Z</time></trkpt><trkpt lat="38.6696145" lon="16.1830475"><ele>196.0</ele><time>2026-05-01T06:37:19.979Z</time></trkpt><trkpt lat="38.6698504" lon="16.1828291"><ele>196.0</ele><time>2026-05-01T06:37:20.979Z</time></trkpt><trkpt lat="38.6700888" lon="16.1826088"><ele>196.0</ele><time>2026-05-01T06:37:21.979Z</time></trkpt><trkpt lat="38.6703248" lon="16.1823842"><ele>196.5</ele><time>2026-05-01T06:37:22.979Z</time></trkpt><trkpt lat="38.6705622" lon="16.1821615"><ele>197.0</ele><time>2026-05-01T06:37:23.979Z</time></trkpt><trkpt lat="38.6708003" lon="16.1819423"><ele>197.0</ele><time>2026-05-01T06:37:24.98Z</time></trkpt><trkpt lat="38.6710433" lon="16.1817185"><ele>197.0</ele><time>2026-05-01T06:37:25.98Z</time></trkpt><trkpt lat="38.6712975" lon="16.1814901"><ele>198.5</ele><time>2026-05-01T06:37:26.979Z</time></trkpt><trkpt lat="38.6715535" lon="16.1812549"><ele>200.0</ele><time>2026-05-01T06:37:27.979Z</time></trkpt><trkpt lat="38.6718035" lon="16.1810203"><ele>195.5</ele><time>2026-05-01T06:37:28.979Z</time></trkpt><trkpt lat="38.6720517" lon="16.1807873"><ele>191.0</ele><time>2026-05-01T06:37:29.979Z</time></trkpt><trkpt lat="38.6722983" lon="16.1805547"><ele>191.0</ele><time>2026-05-01T06:37:30.979Z</time></trkpt><trkpt lat="38.6725508" lon="16.1803169"><ele>191.0</ele><time>2026-05-01T06:37:31.979Z</time></trkpt><trkpt lat="38.672806" lon="16.1800768"><ele>197.5</ele><time>2026-05-01T06:37:32.98Z</time></trkpt><trkpt lat="38.673055" lon="16.1798473"><ele>204.0</ele><time>2026-05-01T06:37:33.98Z</time></trkpt><trkpt lat="38.6732977" lon="16.1796207"><ele>204.0</ele><time>2026-05-01T06:37:34.979Z</time></trkpt><trkpt lat="38.6735403" lon="16.1793981"><ele>204.0</ele><time>2026-05-01T06:37:35.98Z</time></trkpt><trkpt lat="38.6737792" lon="16.1791778"><ele>211.0</ele><time>2026-05-01T06:37:36.979Z</time></trkpt><trkpt lat="38.6740235" lon="16.1789613"><ele>218.0</ele><time>2026-05-01T06:37:37.979Z</time></trkpt><trkpt lat="38.6742736" lon="16.1787392"><ele>213.5</ele><time>2026-05-01T06:37:38.979Z</time></trkpt><trkpt lat="38.674518" lon="16.1785221"><ele>209.0</ele><time>2026-05-01T06:37:39.98Z</time></trkpt><trkpt lat="38.674757" lon="16.1783031"><ele>213.0</ele><time>2026-05-01T06:37:40.98Z</time></trkpt><trkpt lat="38.6749929" lon="16.1780849"><ele>217.0</ele><time>2026-05-01T06:37:41.979Z</time></trkpt><trkpt lat="38.6752305" lon="16.1778632"><ele>212.0</ele><time>2026-05-01T06:37:42.98Z</time></trkpt><trkpt lat="38.6754661" lon="16.1776425"><ele>207.0</ele><time>2026-05-01T06:37:43.979Z</time></trkpt><trkpt lat="38.6756978" lon="16.1774248"><ele>212.0</ele><time>2026-05-01T06:37:44.98Z</time></trkpt><trkpt lat="38.675935" lon="16.1772034"><ele>217.0</ele><time>2026-05-01T06:37:45.979Z</time></trkpt><trkpt lat="38.6761741" lon="16.1769782"><ele>217.0</ele><time>2026-05-01T06:37:46.979Z</time></trkpt><trkpt lat="38.6764107" lon="16.1767503"><ele>217.0</ele><time>2026-05-01T06:37:47.98Z</time></trkpt><trkpt lat="38.6766423" lon="16.176518"><ele>215.0</ele><time>2026-05-01T06:37:48.979Z</time></trkpt><trkpt lat="38.6768732" lon="16.1762762"><ele>213.0</ele><time>2026-05-01T06:37:49.979Z</time></trkpt><trkpt lat="38.6771028" lon="16.1760314"><ele>213.0</ele><time>2026-05-01T06:37:50.979Z</time></trkpt><trkpt lat="38.6773294" lon="16.1757828"><ele>213.0</ele><time>2026-05-01T06:37:51.979Z</time></trkpt><trkpt lat="38.6775565" lon="16.1755334"><ele>200.5</ele><time>2026-05-01T06:37:52.98Z</time></trkpt><trkpt lat="38.6777745" lon="16.175275"><ele>188.0</ele><time>2026-05-01T06:37:53.98Z</time></trkpt><trkpt lat="38.6779931" lon="16.1750103"><ele>193.0</ele><time>2026-05-01T06:37:54.98Z</time></trkpt><trkpt lat="38.6782082" lon="16.1747509"><ele>198.0</ele><time>2026-05-01T06:37:55.979Z</time></trkpt><trkpt lat="38.6784243" lon="16.1744898"><ele>199.0</ele><time>2026-05-01T06:37:56.979Z</time></trkpt><trkpt lat="38.6786396" lon="16.1742211"><ele>200.0</ele><time>2026-05-01T06:37:57.98Z</time></trkpt><trkpt lat="38.6788552" lon="16.17395"><ele>200.0</ele><time>2026-05-01T06:37:58.979Z</time></trkpt><trkpt lat="38.6790671" lon="16.1736824"><ele>200.0</ele><time>2026-05-01T06:37:59.98Z</time></trkpt><trkpt lat="38.6792774" lon="16.1734016"><ele>214.0</ele><time>2026-05-01T06:38:00.979Z</time></trkpt><trkpt lat="38.6794799" lon="16.1731117"><ele>228.0</ele><time>2026-05-01T06:38:01.979Z</time></trkpt><trkpt lat="38.6796806" lon="16.1728153"><ele>228.0</ele><time>2026-05-01T06:38:02.979Z</time></trkpt><trkpt lat="38.6798713" lon="16.1725208"><ele>228.0</ele><time>2026-05-01T06:38:03.98Z</time></trkpt><trkpt lat="38.6800566" lon="16.1722279"><ele>227.0</ele><time>2026-05-01T06:38:04.979Z</time></trkpt><trkpt lat="38.6802362" lon="16.1719329"><ele>226.0</ele><time>2026-05-01T06:38:05.979Z</time></trkpt><trkpt lat="38.6804129" lon="16.1716338"><ele>227.0</ele><time>2026-05-01T06:38:06.98Z</time></trkpt><trkpt lat="38.6805886" lon="16.1713342"><ele>228.0</ele><time>2026-05-01T06:38:07.979Z</time></trkpt><trkpt lat="38.6807518" lon="16.1710444"><ele>228.0</ele><time>2026-05-01T06:38:08.979Z</time></trkpt><trkpt lat="38.6809111" lon="16.1707508"><ele>228.0</ele><time>2026-05-01T06:38:09.979Z</time></trkpt><trkpt lat="38.6810694" lon="16.1704497"><ele>228.5</ele><time>2026-05-01T06:38:10.98Z</time></trkpt><trkpt lat="38.6812256" lon="16.1701431"><ele>229.0</ele><time>2026-05-01T06:38:11.979Z</time></trkpt><trkpt lat="38.6813771" lon="16.1698281"><ele>237.5</ele><time>2026-05-01T06:38:12.979Z</time></trkpt><trkpt lat="38.6815256" lon="16.1695051"><ele>246.0</ele><time>2026-05-01T06:38:13.98Z</time></trkpt><trkpt lat="38.6816688" lon="16.1691781"><ele>243.0</ele><time>2026-05-01T06:38:14.98Z</time></trkpt><trkpt lat="38.681812" lon="16.1688489"><ele>240.0</ele><time>2026-05-01T06:38:15.979Z</time></trkpt><trkpt lat="38.6819524" lon="16.1685231"><ele>245.0</ele><time>2026-05-01T06:38:16.979Z</time></trkpt><trkpt lat="38.6820885" lon="16.1681877"><ele>250.0</ele><time>2026-05-01T06:38:17.979Z</time></trkpt><trkpt lat="38.6822254" lon="16.1678522"><ele>250.0</ele><time>2026-05-01T06:38:18.979Z</time></trkpt><trkpt lat="38.6823515" lon="16.1675182"><ele>250.0</ele><time>2026-05-01T06:38:19.98Z</time></trkpt><trkpt lat="38.6824766" lon="16.1671859"><ele>254.0</ele><time>2026-05-01T06:38:20.979Z</time></trkpt><trkpt lat="38.6826015" lon="16.1668533"><ele>258.0</ele><time>2026-05-01T06:38:21.979Z</time></trkpt><trkpt lat="38.682731" lon="16.1665122"><ele>254.0</ele><time>2026-05-01T06:38:22.979Z</time></trkpt><trkpt lat="38.6828594" lon="16.1661819"><ele>250.0</ele><time>2026-05-01T06:38:23.979Z</time></trkpt><trkpt lat="38.6829851" lon="16.1658516"><ele>252.5</ele><time>2026-05-01T06:38:24.979Z</time></trkpt><trkpt lat="38.6831103" lon="16.1655265"><ele>255.0</ele><time>2026-05-01T06:38:25.98Z</time></trkpt><trkpt lat="38.6832459" lon="16.1652037"><ele>255.0</ele><time>2026-05-01T06:38:26.98Z</time></trkpt><trkpt lat="38.6833906" lon="16.164886"><ele>255.0</ele><time>2026-05-01T06:38:27.979Z</time></trkpt><trkpt lat="38.6835495" lon="16.1645831"><ele>254.0</ele><time>2026-05-01T06:38:28.979Z</time></trkpt><trkpt lat="38.6837228" lon="16.1642874"><ele>253.0</ele><time>2026-05-01T06:38:29.98Z</time></trkpt><trkpt lat="38.6839092" lon="16.1639982"><ele>263.5</ele><time>2026-05-01T06:38:30.979Z</time></trkpt><trkpt lat="38.6841059" lon="16.1637198"><ele>274.0</ele><time>2026-05-01T06:38:31.98Z</time></trkpt><trkpt lat="38.6843104" lon="16.1634508"><ele>276.5</ele><time>2026-05-01T06:38:32.979Z</time></trkpt><trkpt lat="38.6845201" lon="16.163193"><ele>279.0</ele><time>2026-05-01T06:38:33.979Z</time></trkpt><trkpt lat="38.6847381" lon="16.16294"><ele>279.0</ele><time>2026-05-01T06:38:34.98Z</time></trkpt><trkpt lat="38.6849573" lon="16.1627001"><ele>279.0</ele><time>2026-05-01T06:38:35.98Z</time></trkpt><trkpt lat="38.6851798" lon="16.1624681"><ele>274.5</ele><time>2026-05-01T06:38:36.98Z</time></trkpt><trkpt lat="38.6854059" lon="16.1622454"><ele>270.0</ele><time>2026-05-01T06:38:37.98Z</time></trkpt><trkpt lat="38.6856315" lon="16.1620254"><ele>270.0</ele><time>2026-05-01T06:38:38.979Z</time></trkpt><trkpt lat="38.6858567" lon="16.1618011"><ele>270.0</ele><time>2026-05-01T06:38:39.979Z</time></trkpt><trkpt lat="38.6860793" lon="16.1615751"><ele>273.5</ele><time>2026-05-01T06:38:40.979Z</time></trkpt><trkpt lat="38.6863015" lon="16.1613498"><ele>277.0</ele><time>2026-05-01T06:38:41.98Z</time></trkpt><trkpt lat="38.6865222" lon="16.1611233"><ele>277.0</ele><time>2026-05-01T06:38:42.979Z</time></trkpt><trkpt lat="38.686747" lon="16.1608978"><ele>277.0</ele><time>2026-05-01T06:38:43.979Z</time></trkpt><trkpt lat="38.6869719" lon="16.1606681"><ele>284.5</ele><time>2026-05-01T06:38:44.979Z</time></trkpt><trkpt lat="38.6872013" lon="16.1604361"><ele>292.0</ele><time>2026-05-01T06:38:45.979Z</time></trkpt><trkpt lat="38.6874266" lon="16.1602043"><ele>292.0</ele><time>2026-05-01T06:38:46.98Z</time></trkpt><trkpt lat="38.6876552" lon="16.1599724"><ele>292.0</ele><time>2026-05-01T06:38:47.979Z</time></trkpt><trkpt lat="38.687879" lon="16.1597453"><ele>293.0</ele><time>2026-05-01T06:38:48.979Z</time></trkpt><trkpt lat="38.688102" lon="16.1595178"><ele>294.0</ele><time>2026-05-01T06:38:49.979Z</time></trkpt><trkpt lat="38.6883216" lon="16.1592935"><ele>294.0</ele><time>2026-05-01T06:38:50.979Z</time></trkpt><trkpt lat="38.6885442" lon="16.1590754"><ele>294.0</ele><time>2026-05-01T06:38:51.979Z</time></trkpt><trkpt lat="38.6887703" lon="16.1588649"><ele>295.5</ele><time>2026-05-01T06:38:52.979Z</time></trkpt><trkpt lat="38.6890031" lon="16.1586652"><ele>297.0</ele><time>2026-05-01T06:38:53.979Z</time></trkpt><trkpt lat="38.6892337" lon="16.158472"><ele>296.5</ele><time>2026-05-01T06:38:54.98Z</time></trkpt><trkpt lat="38.6894685" lon="16.1582912"><ele>296.0</ele><time>2026-05-01T06:38:55.979Z</time></trkpt><trkpt lat="38.6897108" lon="16.1581153"><ele>303.0</ele><time>2026-05-01T06:38:56.979Z</time></trkpt><trkpt lat="38.6899555" lon="16.1579456"><ele>310.0</ele><time>2026-05-01T06:38:57.98Z</time></trkpt><trkpt lat="38.6902015" lon="16.1577894"><ele>307.5</ele><time>2026-05-01T06:38:58.98Z</time></trkpt><trkpt lat="38.6904514" lon="16.1576497"><ele>305.0</ele><time>2026-05-01T06:38:59.979Z</time></trkpt><trkpt lat="38.6907123" lon="16.157515"><ele>305.0</ele><time>2026-05-01T06:39:00.979Z</time></trkpt><trkpt lat="38.6909807" lon="16.1573853"><ele>305.0</ele><time>2026-05-01T06:39:01.98Z</time></trkpt><trkpt lat="38.6912488" lon="16.1572745"><ele>306.0</ele><time>2026-05-01T06:39:02.979Z</time></trkpt><trkpt lat="38.6915269" lon="16.1571603"><ele>307.0</ele><time>2026-05-01T06:39:03.979Z</time></trkpt><trkpt lat="38.691815" lon="16.1570604"><ele>308.0</ele><time>2026-05-01T06:39:04.979Z</time></trkpt><trkpt lat="38.6921098" lon="16.156972"><ele>309.0</ele><time>2026-05-01T06:39:05.979Z</time></trkpt><trkpt lat="38.6924097" lon="16.1568952"><ele>309.0</ele><time>2026-05-01T06:39:06.979Z</time></trkpt><trkpt lat="38.6927053" lon="16.1568287"><ele>309.0</ele><time>2026-05-01T06:39:07.979Z</time></trkpt><trkpt lat="38.6930001" lon="16.1567508"><ele>311.5</ele><time>2026-05-01T06:39:08.979Z</time></trkpt><trkpt lat="38.6932928" lon="16.156663"><ele>314.0</ele><time>2026-05-01T06:39:09.979Z</time></trkpt><trkpt lat="38.6935743" lon="16.1565719"><ele>318.0</ele><time>2026-05-01T06:39:10.979Z</time></trkpt><trkpt lat="38.6938459" lon="16.156477"><ele>322.0</ele><time>2026-05-01T06:39:11.98Z</time></trkpt><trkpt lat="38.6941152" lon="16.1563847"><ele>322.0</ele><time>2026-05-01T06:39:12.979Z</time></trkpt><trkpt lat="38.6943851" lon="16.1563042"><ele>322.0</ele><time>2026-05-01T06:39:13.98Z</time></trkpt><trkpt lat="38.6946563" lon="16.1562385"><ele>322.5</ele><time>2026-05-01T06:39:14.979Z</time></trkpt><trkpt lat="38.6949221" lon="16.1561727"><ele>323.0</ele><time>2026-05-01T06:39:15.98Z</time></trkpt><trkpt lat="38.6951933" lon="16.1560998"><ele>324.0</ele><time>2026-05-01T06:39:16.979Z</time></trkpt><trkpt lat="38.695455" lon="16.1560324"><ele>325.0</ele><time>2026-05-01T06:39:17.98Z</time></trkpt><trkpt lat="38.6957116" lon="16.1559555"><ele>325.0</ele><time>2026-05-01T06:39:18.979Z</time></trkpt><trkpt lat="38.6959577" lon="16.1558821"><ele>325.0</ele><time>2026-05-01T06:39:19.979Z</time></trkpt><trkpt lat="38.6962" lon="16.1558138"><ele>326.5</ele><time>2026-05-01T06:39:20.979Z</time></trkpt><trkpt lat="38.6964307" lon="16.155746"><ele>328.0</ele><time>2026-05-01T06:39:21.979Z</time></trkpt><trkpt lat="38.696658" lon="16.1556748"><ele>328.0</ele><time>2026-05-01T06:39:22.979Z</time></trkpt><trkpt lat="38.6968821" lon="16.1556095"><ele>328.0</ele><time>2026-05-01T06:39:23.98Z</time></trkpt><trkpt lat="38.6970992" lon="16.1555528"><ele>327.66666666666663</ele><time>2026-05-01T06:39:24.979Z</time></trkpt><trkpt lat="38.6973153" lon="16.1555"><ele>327.3333333333333</ele><time>2026-05-01T06:39:25.979Z</time></trkpt><trkpt lat="38.6975342" lon="16.1554498"><ele>327.0</ele><time>2026-05-01T06:39:26.979Z</time></trkpt><trkpt lat="38.6977555" lon="16.1554107"><ele>329.5</ele><time>2026-05-01T06:39:27.98Z</time></trkpt><trkpt lat="38.6979825" lon="16.155388"><ele>332.0</ele><time>2026-05-01T06:39:28.979Z</time></trkpt><trkpt lat="38.6982133" lon="16.1553762"><ele>332.0</ele><time>2026-05-01T06:39:29.979Z</time></trkpt><trkpt lat="38.6984466" lon="16.1553828"><ele>332.0</ele><time>2026-05-01T06:39:30.98Z</time></trkpt><trkpt lat="38.6986787" lon="16.1554047"><ele>334.5</ele><time>2026-05-01T06:39:31.98Z</time></trkpt><trkpt lat="38.6989109" lon="16.1554461"><ele>337.0</ele><time>2026-05-01T06:39:32.98Z</time></trkpt><trkpt lat="38.6991488" lon="16.1554947"><ele>337.0</ele><time>2026-05-01T06:39:33.98Z</time></trkpt><trkpt lat="38.6993853" lon="16.1555449"><ele>337.0</ele><time>2026-05-01T06:39:34.981Z</time></trkpt><trkpt lat="38.6996103" lon="16.1555922"><ele>338.66666666666663</ele><time>2026-05-01T06:39:35.98Z</time></trkpt><trkpt lat="38.6998276" lon="16.1556241"><ele>340.3333333333333</ele><time>2026-05-01T06:39:36.981Z</time></trkpt><trkpt lat="38.7000361" lon="16.1556402"><ele>342.0</ele><time>2026-05-01T06:39:37.98Z</time></trkpt><trkpt lat="38.7002397" lon="16.1556476"><ele>343.6666666666667</ele><time>2026-05-01T06:39:38.98Z</time></trkpt><trkpt lat="38.7004366" lon="16.1556387"><ele>345.33333333333337</ele><time>2026-05-01T06:39:39.98Z</time></trkpt><trkpt lat="38.7006343" lon="16.1556179"><ele>347.0</ele><time>2026-05-01T06:39:40.98Z</time></trkpt><trkpt lat="38.7008344" lon="16.1555809"><ele>347.0</ele><time>2026-05-01T06:39:41.98Z</time></trkpt><trkpt lat="38.7010351" lon="16.1555297"><ele>347.0</ele><time>2026-05-01T06:39:42.98Z</time></trkpt><trkpt lat="38.7012359" lon="16.1554652"><ele>347.0</ele><time>2026-05-01T06:39:43.981Z</time></trkpt><trkpt lat="38.7014272" lon="16.155409"><ele>346.33333333333337</ele><time>2026-05-01T06:39:44.98Z</time></trkpt><trkpt lat="38.7016185" lon="16.1553431"><ele>345.6666666666667</ele><time>2026-05-01T06:39:45.981Z</time></trkpt><trkpt lat="38.7018078" lon="16.1552638"><ele>345.0</ele><time>2026-05-01T06:39:46.98Z</time></trkpt><trkpt lat="38.7019938" lon="16.1551748"><ele>345.0</ele><time>2026-05-01T06:39:47.98Z</time></trkpt><trkpt lat="38.70217" lon="16.1550743"><ele>345.0</ele><time>2026-05-01T06:39:48.98Z</time></trkpt><trkpt lat="38.7023488" lon="16.1549603"><ele>345.0</ele><time>2026-05-01T06:39:49.981Z</time></trkpt><trkpt lat="38.7025213" lon="16.154844"><ele>348.0</ele><time>2026-05-01T06:39:50.981Z</time></trkpt><trkpt lat="38.7026971" lon="16.1547225"><ele>351.0</ele><time>2026-05-01T06:39:51.98Z</time></trkpt><trkpt lat="38.7028776" lon="16.1546064"><ele>354.0</ele><time>2026-05-01T06:39:52.981Z</time></trkpt><trkpt lat="38.7030633" lon="16.1545012"><ele>355.3333333333333</ele><time>2026-05-01T06:39:53.981Z</time></trkpt><trkpt lat="38.7032462" lon="16.1543996"><ele>356.66666666666663</ele><time>2026-05-01T06:39:54.98Z</time></trkpt><trkpt lat="38.7034356" lon="16.1543105"><ele>358.0</ele><time>2026-05-01T06:39:55.98Z</time></trkpt><trkpt lat="38.7036309" lon="16.1542255"><ele>359.3333333333333</ele><time>2026-05-01T06:39:56.981Z</time></trkpt><trkpt lat="38.7038291" lon="16.1541488"><ele>360.6666666666667</ele><time>2026-05-01T06:39:57.98Z</time></trkpt><trkpt lat="38.7040342" lon="16.1540844"><ele>362.0</ele><time>2026-05-01T06:39:58.981Z</time></trkpt><trkpt lat="38.7042415" lon="16.1540366"><ele>363.6666666666667</ele><time>2026-05-01T06:39:59.981Z</time></trkpt><trkpt lat="38.7044491" lon="16.1539879"><ele>365.3333333333333</ele><time>2026-05-01T06:40:00.981Z</time></trkpt><trkpt lat="38.70466" lon="16.1539427"><ele>367.0</ele><time>2026-05-01T06:40:01.981Z</time></trkpt><trkpt lat="38.7048745" lon="16.1539094"><ele>367.0</ele><time>2026-05-01T06:40:02.981Z</time></trkpt><trkpt lat="38.7050873" lon="16.153887"><ele>367.0</ele><time>2026-05-01T06:40:03.981Z</time></trkpt><trkpt lat="38.705303" lon="16.1538793"><ele>367.0</ele><time>2026-05-01T06:40:04.98Z</time></trkpt><trkpt lat="38.7055219" lon="16.1538739"><ele>368.66666666666663</ele><time>2026-05-01T06:40:05.981Z</time></trkpt><trkpt lat="38.7057381" lon="16.1538761"><ele>370.3333333333333</ele><time>2026-05-01T06:40:06.98Z</time></trkpt><trkpt lat="38.705958" lon="16.1538749"><ele>372.0</ele><time>2026-05-01T06:40:07.98Z</time></trkpt><trkpt lat="38.706196" lon="16.1538711"><ele>374.0</ele><time>2026-05-01T06:40:08.98Z</time></trkpt><trkpt lat="38.7064462" lon="16.1538597"><ele>376.0</ele><time>2026-05-01T06:40:09.98Z</time></trkpt><trkpt lat="38.7067103" lon="16.1538535"><ele>376.0</ele><time>2026-05-01T06:40:10.98Z</time></trkpt><trkpt lat="38.7069842" lon="16.1538435"><ele>376.0</ele><time>2026-05-01T06:40:11.981Z</time></trkpt><trkpt lat="38.7072531" lon="16.1538439"><ele>376.0</ele><time>2026-05-01T06:40:12.98Z</time></trkpt><trkpt lat="38.7075255" lon="16.1538486"><ele>376.0</ele><time>2026-05-01T06:40:13.98Z</time></trkpt><trkpt lat="38.7077938" lon="16.1538645"><ele>371.0</ele><time>2026-05-01T06:40:14.981Z</time></trkpt><trkpt lat="38.7080589" lon="16.1538718"><ele>366.0</ele><time>2026-05-01T06:40:15.98Z</time></trkpt><trkpt lat="38.7083184" lon="16.1538724"><ele>366.0</ele><time>2026-05-01T06:40:16.981Z</time></trkpt><trkpt lat="38.7085649" lon="16.1538728"><ele>366.0</ele><time>2026-05-01T06:40:17.981Z</time></trkpt><trkpt lat="38.7087995" lon="16.1538704"><ele>364.5</ele><time>2026-05-01T06:40:18.98Z</time></trkpt><trkpt lat="38.7090294" lon="16.1538719"><ele>363.0</ele><time>2026-05-01T06:40:19.98Z</time></trkpt><trkpt lat="38.7092682" lon="16.153869"><ele>362.5</ele><time>2026-05-01T06:40:20.98Z</time></trkpt><trkpt lat="38.7095046" lon="16.1538692"><ele>362.0</ele><time>2026-05-01T06:40:21.98Z</time></trkpt><trkpt lat="38.7097478" lon="16.1538669"><ele>362.0</ele><time>2026-05-01T06:40:22.98Z</time></trkpt><trkpt lat="38.7099918" lon="16.1538685"><ele>362.0</ele><time>2026-05-01T06:40:23.98Z</time></trkpt><trkpt lat="38.7102371" lon="16.1538564"><ele>364.0</ele><time>2026-05-01T06:40:24.981Z</time></trkpt><trkpt lat="38.710479" lon="16.1538448"><ele>366.0</ele><time>2026-05-01T06:40:25.98Z</time></trkpt><trkpt lat="38.7107269" lon="16.15384"><ele>366.0</ele><time>2026-05-01T06:40:26.98Z</time></trkpt><trkpt lat="38.7109656" lon="16.1538328"><ele>366.0</ele><time>2026-05-01T06:40:27.98Z</time></trkpt><trkpt lat="38.7111898" lon="16.1538362"><ele>364.3333333333333</ele><time>2026-05-01T06:40:28.98Z</time></trkpt><trkpt lat="38.7114049" lon="16.1538384"><ele>362.66666666666663</ele><time>2026-05-01T06:40:29.981Z</time></trkpt><trkpt lat="38.7116125" lon="16.1538438"><ele>361.0</ele><time>2026-05-01T06:40:30.98Z</time></trkpt><trkpt lat="38.7118237" lon="16.1538376"><ele>354.66666666666663</ele><time>2026-05-01T06:40:31.981Z</time></trkpt><trkpt lat="38.7120277" lon="16.1538406"><ele>348.3333333333333</ele><time>2026-05-01T06:40:32.98Z</time></trkpt><trkpt lat="38.7122304" lon="16.1538565"><ele>342.0</ele><time>2026-05-01T06:40:33.981Z</time></trkpt><trkpt lat="38.7124249" lon="16.1538741"><ele>342.0</ele><time>2026-05-01T06:40:34.981Z</time></trkpt><trkpt lat="38.7126153" lon="16.1538901"><ele>342.0</ele><time>2026-05-01T06:40:35.981Z</time></trkpt><trkpt lat="38.7128043" lon="16.1539179"><ele>342.0</ele><time>2026-05-01T06:40:36.98Z</time></trkpt><trkpt lat="38.7129888" lon="16.1539417"><ele>338.6666666666667</ele><time>2026-05-01T06:40:37.981Z</time></trkpt><trkpt lat="38.7131711" lon="16.1539618"><ele>335.33333333333337</ele><time>2026-05-01T06:40:38.98Z</time></trkpt><trkpt lat="38.7133563" lon="16.1539807"><ele>332.0</ele><time>2026-05-01T06:40:39.98Z</time></trkpt><trkpt lat="38.7135489" lon="16.1540052"><ele>333.33333333333337</ele><time>2026-05-01T06:40:40.981Z</time></trkpt><trkpt lat="38.7137384" lon="16.1540359"><ele>334.6666666666667</ele><time>2026-05-01T06:40:41.981Z</time></trkpt><trkpt lat="38.71393" lon="16.154071"><ele>336.0</ele><time>2026-05-01T06:40:42.981Z</time></trkpt><trkpt lat="38.7141234" lon="16.1541051"><ele>336.0</ele><time>2026-05-01T06:40:43.98Z</time></trkpt><trkpt lat="38.7143154" lon="16.154155"><ele>336.0</ele><time>2026-05-01T06:40:44.98Z</time></trkpt><trkpt lat="38.7145137" lon="16.1541962"><ele>336.0</ele><time>2026-05-01T06:40:45.981Z</time></trkpt><trkpt lat="38.7147187" lon="16.1542414"><ele>333.3333333333333</ele><time>2026-05-01T06:40:46.98Z</time></trkpt><trkpt lat="38.7149284" lon="16.1542904"><ele>330.66666666666663</ele><time>2026-05-01T06:40:47.981Z</time></trkpt><trkpt lat="38.7151372" lon="16.1543359"><ele>328.0</ele><time>2026-05-01T06:40:48.98Z</time></trkpt><trkpt lat="38.7153497" lon="16.1543824"><ele>325.0</ele><time>2026-05-01T06:40:49.98Z</time></trkpt><trkpt lat="38.7155631" lon="16.1544278"><ele>322.0</ele><time>2026-05-01T06:40:50.98Z</time></trkpt><trkpt lat="38.7157733" lon="16.1544734"><ele>319.0</ele><time>2026-05-01T06:40:51.981Z</time></trkpt><trkpt lat="38.7159731" lon="16.1545146"><ele>314.66666666666663</ele><time>2026-05-01T06:40:52.98Z</time></trkpt><trkpt lat="38.7161644" lon="16.154557"><ele>310.3333333333333</ele><time>2026-05-01T06:40:53.981Z</time></trkpt><trkpt lat="38.7163527" lon="16.154601"><ele>306.0</ele><time>2026-05-01T06:40:54.98Z</time></trkpt><trkpt lat="38.7165515" lon="16.154645"><ele>306.0</ele><time>2026-05-01T06:40:55.981Z</time></trkpt><trkpt lat="38.7167548" lon="16.1546993"><ele>306.0</ele><time>2026-05-01T06:40:56.98Z</time></trkpt><trkpt lat="38.7169731" lon="16.154754"><ele>306.0</ele><time>2026-05-01T06:40:57.98Z</time></trkpt><trkpt lat="38.7171952" lon="16.1548085"><ele>312.0</ele><time>2026-05-01T06:40:58.981Z</time></trkpt><trkpt lat="38.7174239" lon="16.1548671"><ele>318.0</ele><time>2026-05-01T06:40:59.98Z</time></trkpt><trkpt lat="38.7176562" lon="16.1549245"><ele>314.0</ele><time>2026-05-01T06:41:00.98Z</time></trkpt><trkpt lat="38.7178895" lon="16.1549899"><ele>310.0</ele><time>2026-05-01T06:41:01.98Z</time></trkpt><trkpt lat="38.7181268" lon="16.1550701"><ele>310.0</ele><time>2026-05-01T06:41:02.98Z</time></trkpt><trkpt lat="38.718367" lon="16.1551742"><ele>310.0</ele><time>2026-05-01T06:41:03.98Z</time></trkpt><trkpt lat="38.7186049" lon="16.1553078"><ele>301.0</ele><time>2026-05-01T06:41:04.98Z</time></trkpt><trkpt lat="38.7188333" lon="16.1554636"><ele>292.0</ele><time>2026-05-01T06:41:05.98Z</time></trkpt><trkpt lat="38.7190557" lon="16.1556489"><ele>294.0</ele><time>2026-05-01T06:41:06.981Z</time></trkpt><trkpt lat="38.7192638" lon="16.155856"><ele>296.0</ele><time>2026-05-01T06:41:07.98Z</time></trkpt><trkpt lat="38.7194669" lon="16.1560776"><ele>296.0</ele><time>2026-05-01T06:41:08.98Z</time></trkpt><trkpt lat="38.7196539" lon="16.1563059"><ele>296.0</ele><time>2026-05-01T06:41:09.98Z</time></trkpt><trkpt lat="38.7198326" lon="16.1565371"><ele>305.0</ele><time>2026-05-01T06:41:10.98Z</time></trkpt><trkpt lat="38.7200106" lon="16.1567662"><ele>314.0</ele><time>2026-05-01T06:41:11.981Z</time></trkpt><trkpt lat="38.7201917" lon="16.1569897"><ele>306.0</ele><time>2026-05-01T06:41:12.98Z</time></trkpt><trkpt lat="38.7203733" lon="16.1572246"><ele>298.0</ele><time>2026-05-01T06:41:13.98Z</time></trkpt><trkpt lat="38.720565" lon="16.1574535"><ele>298.0</ele><time>2026-05-01T06:41:14.98Z</time></trkpt><trkpt lat="38.7207528" lon="16.1576919"><ele>298.0</ele><time>2026-05-01T06:41:15.981Z</time></trkpt><trkpt lat="38.7209411" lon="16.1579351"><ele>291.5</ele><time>2026-05-01T06:41:16.981Z</time></trkpt><trkpt lat="38.7211319" lon="16.1581775"><ele>285.0</ele><time>2026-05-01T06:41:17.981Z</time></trkpt><trkpt lat="38.7213224" lon="16.1584163"><ele>285.0</ele><time>2026-05-01T06:41:18.981Z</time></trkpt><trkpt lat="38.7215175" lon="16.1586582"><ele>285.0</ele><time>2026-05-01T06:41:19.981Z</time></trkpt><trkpt lat="38.7217224" lon="16.1588924"><ele>281.0</ele><time>2026-05-01T06:41:20.981Z</time></trkpt><trkpt lat="38.7219342" lon="16.1591351"><ele>277.0</ele><time>2026-05-01T06:41:21.98Z</time></trkpt><trkpt lat="38.722156" lon="16.1593753"><ele>277.0</ele><time>2026-05-01T06:41:22.98Z</time></trkpt><trkpt lat="38.7223848" lon="16.1596195"><ele>277.0</ele><time>2026-05-01T06:41:23.98Z</time></trkpt><trkpt lat="38.7226343" lon="16.1598563"><ele>276.0</ele><time>2026-05-01T06:41:24.98Z</time></trkpt><trkpt lat="38.7228897" lon="16.1600946"><ele>275.0</ele><time>2026-05-01T06:41:25.98Z</time></trkpt><trkpt lat="38.7231451" lon="16.1603254"><ele>275.0</ele><time>2026-05-01T06:41:26.98Z</time></trkpt><trkpt lat="38.7233947" lon="16.1605521"><ele>275.0</ele><time>2026-05-01T06:41:27.981Z</time></trkpt><trkpt lat="38.7236365" lon="16.1607642"><ele>273.5</ele><time>2026-05-01T06:41:28.981Z</time></trkpt><trkpt lat="38.723869" lon="16.1609705"><ele>272.0</ele><time>2026-05-01T06:41:29.981Z</time></trkpt><trkpt lat="38.7240875" lon="16.1611804"><ele>272.0</ele><time>2026-05-01T06:41:30.98Z</time></trkpt><trkpt lat="38.7243049" lon="16.1613749"><ele>272.0</ele><time>2026-05-01T06:41:31.981Z</time></trkpt><trkpt lat="38.7245218" lon="16.1615676"><ele>268.5</ele><time>2026-05-01T06:41:32.98Z</time></trkpt><trkpt lat="38.7247349" lon="16.161756"><ele>265.0</ele><time>2026-05-01T06:41:33.981Z</time></trkpt><trkpt lat="38.7249506" lon="16.1619528"><ele>265.0</ele><time>2026-05-01T06:41:34.98Z</time></trkpt><trkpt lat="38.725168" lon="16.1621489"><ele>265.0</ele><time>2026-05-01T06:41:35.981Z</time></trkpt><trkpt lat="38.7253873" lon="16.1623446"><ele>261.0</ele><time>2026-05-01T06:41:36.981Z</time></trkpt><trkpt lat="38.7256097" lon="16.162547"><ele>257.0</ele><time>2026-05-01T06:41:37.981Z</time></trkpt><trkpt lat="38.7258293" lon="16.1627523"><ele>257.0</ele><time>2026-05-01T06:41:38.98Z</time></trkpt><trkpt lat="38.7260447" lon="16.1629621"><ele>257.0</ele><time>2026-05-01T06:41:39.98Z</time></trkpt><trkpt lat="38.7262595" lon="16.1631626"><ele>254.5</ele><time>2026-05-01T06:41:40.981Z</time></trkpt><trkpt lat="38.7264664" lon="16.1633651"><ele>252.0</ele><time>2026-05-01T06:41:41.98Z</time></trkpt><trkpt lat="38.7266743" lon="16.1635666"><ele>252.0</ele><time>2026-05-01T06:41:42.981Z</time></trkpt><trkpt lat="38.7268863" lon="16.1637673"><ele>252.0</ele><time>2026-05-01T06:41:43.98Z</time></trkpt><trkpt lat="38.7270975" lon="16.1639638"><ele>256.0</ele><time>2026-05-01T06:41:44.981Z</time></trkpt><trkpt lat="38.7273089" lon="16.1641651"><ele>260.0</ele><time>2026-05-01T06:41:45.98Z</time></trkpt><trkpt lat="38.7275189" lon="16.1643641"><ele>244.0</ele><time>2026-05-01T06:41:46.98Z</time></trkpt><trkpt lat="38.7277312" lon="16.1645614"><ele>228.0</ele><time>2026-05-01T06:41:47.98Z</time></trkpt><trkpt lat="38.7279442" lon="16.1647548"><ele>237.0</ele><time>2026-05-01T06:41:48.981Z</time></trkpt><trkpt lat="38.7281574" lon="16.1649493"><ele>246.0</ele><time>2026-05-01T06:41:49.98Z</time></trkpt><trkpt lat="38.7283745" lon="16.1651422"><ele>234.0</ele><time>2026-05-01T06:41:50.98Z</time></trkpt><trkpt lat="38.7285885" lon="16.1653497"><ele>222.0</ele><time>2026-05-01T06:41:51.98Z</time></trkpt><trkpt lat="38.7288079" lon="16.1655519"><ele>233.5</ele><time>2026-05-01T06:41:52.98Z</time></trkpt><trkpt lat="38.7290364" lon="16.1657558"><ele>245.0</ele><time>2026-05-01T06:41:53.98Z</time></trkpt><trkpt lat="38.7292659" lon="16.1659672"><ele>230.5</ele><time>2026-05-01T06:41:54.981Z</time></trkpt><trkpt lat="38.7294924" lon="16.166184"><ele>216.0</ele><time>2026-05-01T06:41:55.981Z</time></trkpt><trkpt lat="38.729722" lon="16.166385"><ele>229.5</ele><time>2026-05-01T06:41:56.98Z</time></trkpt><trkpt lat="38.7299488" lon="16.1665906"><ele>243.0</ele><time>2026-05-01T06:41:57.98Z</time></trkpt><trkpt lat="38.7301758" lon="16.1667992"><ele>225.5</ele><time>2026-05-01T06:41:58.98Z</time></trkpt><trkpt lat="38.7303981" lon="16.1670072"><ele>208.0</ele><time>2026-05-01T06:41:59.981Z</time></trkpt><trkpt lat="38.7306184" lon="16.1672187"><ele>219.0</ele><time>2026-05-01T06:42:00.98Z</time></trkpt><trkpt lat="38.7308393" lon="16.16743"><ele>230.0</ele><time>2026-05-01T06:42:01.981Z</time></trkpt><trkpt lat="38.7310572" lon="16.1676417"><ele>208.5</ele><time>2026-05-01T06:42:02.98Z</time></trkpt><trkpt lat="38.7312757" lon="16.1678616"><ele>187.0</ele><time>2026-05-01T06:42:03.981Z</time></trkpt><trkpt lat="38.7314911" lon="16.1680847"><ele>177.5</ele><time>2026-05-01T06:42:04.98Z</time></trkpt><trkpt lat="38.7317009" lon="16.1683167"><ele>168.0</ele><time>2026-05-01T06:42:05.98Z</time></trkpt><trkpt lat="38.7318976" lon="16.1685649"><ele>168.0</ele><time>2026-05-01T06:42:06.98Z</time></trkpt><trkpt lat="38.7320904" lon="16.1688248"><ele>168.0</ele><time>2026-05-01T06:42:07.981Z</time></trkpt><trkpt lat="38.7322789" lon="16.1690899"><ele>179.0</ele><time>2026-05-01T06:42:08.981Z</time></trkpt><trkpt lat="38.7324595" lon="16.169362"><ele>190.0</ele><time>2026-05-01T06:42:09.981Z</time></trkpt><trkpt lat="38.7326305" lon="16.1696444"><ele>177.5</ele><time>2026-05-01T06:42:10.98Z</time></trkpt><trkpt lat="38.7327938" lon="16.1699344"><ele>165.0</ele><time>2026-05-01T06:42:11.98Z</time></trkpt><trkpt lat="38.7329476" lon="16.170224"><ele>165.0</ele><time>2026-05-01T06:42:12.981Z</time></trkpt><trkpt lat="38.7330986" lon="16.1705242"><ele>165.0</ele><time>2026-05-01T06:42:13.98Z</time></trkpt><trkpt lat="38.7332372" lon="16.1708309"><ele>173.0</ele><time>2026-05-01T06:42:14.98Z</time></trkpt><trkpt lat="38.7333718" lon="16.1711407"><ele>181.0</ele><time>2026-05-01T06:42:15.981Z</time></trkpt><trkpt lat="38.733496" lon="16.171457"><ele>172.5</ele><time>2026-05-01T06:42:16.98Z</time></trkpt><trkpt lat="38.7336124" lon="16.1717811"><ele>164.0</ele><time>2026-05-01T06:42:17.981Z</time></trkpt><trkpt lat="38.7337198" lon="16.1721202"><ele>170.0</ele><time>2026-05-01T06:42:18.98Z</time></trkpt><trkpt lat="38.7338151" lon="16.172465"><ele>176.0</ele><time>2026-05-01T06:42:19.98Z</time></trkpt><trkpt lat="38.7339042" lon="16.1728115"><ele>176.0</ele><time>2026-05-01T06:42:20.98Z</time></trkpt><trkpt lat="38.7339947" lon="16.1731626"><ele>176.0</ele><time>2026-05-01T06:42:21.98Z</time></trkpt><trkpt lat="38.7340742" lon="16.1735199"><ele>181.5</ele><time>2026-05-01T06:42:22.981Z</time></trkpt><trkpt lat="38.7341507" lon="16.1738622"><ele>187.0</ele><time>2026-05-01T06:42:23.98Z</time></trkpt><trkpt lat="38.7342267" lon="16.1741952"><ele>196.5</ele><time>2026-05-01T06:42:24.981Z</time></trkpt><trkpt lat="38.7343069" lon="16.1745147"><ele>206.0</ele><time>2026-05-01T06:42:25.98Z</time></trkpt><trkpt lat="38.7343831" lon="16.1748219"><ele>186.0</ele><time>2026-05-01T06:42:26.98Z</time></trkpt><trkpt lat="38.7344492" lon="16.1751367"><ele>166.0</ele><time>2026-05-01T06:42:27.98Z</time></trkpt><trkpt lat="38.7345238" lon="16.17545"><ele>174.5</ele><time>2026-05-01T06:42:28.98Z</time></trkpt><trkpt lat="38.7346022" lon="16.1757696"><ele>183.0</ele><time>2026-05-01T06:42:29.98Z</time></trkpt><trkpt lat="38.7346857" lon="16.1760944"><ele>183.0</ele><time>2026-05-01T06:42:30.98Z</time></trkpt><trkpt lat="38.734772" lon="16.1764221"><ele>183.0</ele><time>2026-05-01T06:42:31.98Z</time></trkpt><trkpt lat="38.734865" lon="16.1767524"><ele>191.0</ele><time>2026-05-01T06:42:32.98Z</time></trkpt><trkpt lat="38.7349636" lon="16.1770856"><ele>199.0</ele><time>2026-05-01T06:42:33.98Z</time></trkpt><trkpt lat="38.7350761" lon="16.177427"><ele>206.0</ele><time>2026-05-01T06:42:34.981Z</time></trkpt><trkpt lat="38.735202" lon="16.1777679"><ele>213.0</ele><time>2026-05-01T06:42:35.981Z</time></trkpt><trkpt lat="38.7353333" lon="16.1781079"><ele>200.0</ele><time>2026-05-01T06:42:36.981Z</time></trkpt><trkpt lat="38.7354807" lon="16.1784447"><ele>187.0</ele><time>2026-05-01T06:42:37.98Z</time></trkpt><trkpt lat="38.7356389" lon="16.1787783"><ele>194.0</ele><time>2026-05-01T06:42:38.98Z</time></trkpt><trkpt lat="38.7358071" lon="16.179103"><ele>201.0</ele><time>2026-05-01T06:42:39.98Z</time></trkpt><trkpt lat="38.7359861" lon="16.1794186"><ele>192.0</ele><time>2026-05-01T06:42:40.981Z</time></trkpt><trkpt lat="38.7361778" lon="16.1797233"><ele>183.0</ele><time>2026-05-01T06:42:41.98Z</time></trkpt><trkpt lat="38.7363747" lon="16.1800174"><ele>183.0</ele><time>2026-05-01T06:42:42.981Z</time></trkpt><trkpt lat="38.7365803" lon="16.1803047"><ele>183.0</ele><time>2026-05-01T06:42:43.98Z</time></trkpt><trkpt lat="38.7367972" lon="16.1805896"><ele>179.5</ele><time>2026-05-01T06:42:44.981Z</time></trkpt><trkpt lat="38.7370293" lon="16.1808617"><ele>176.0</ele><time>2026-05-01T06:42:45.981Z</time></trkpt><trkpt lat="38.7372669" lon="16.1811212"><ele>176.0</ele><time>2026-05-01T06:42:46.981Z</time></trkpt><trkpt lat="38.7375013" lon="16.1813652"><ele>176.0</ele><time>2026-05-01T06:42:47.98Z</time></trkpt><trkpt lat="38.7377381" lon="16.1815966"><ele>174.0</ele><time>2026-05-01T06:42:48.98Z</time></trkpt><trkpt lat="38.7379681" lon="16.1818256"><ele>172.0</ele><time>2026-05-01T06:42:49.981Z</time></trkpt><trkpt lat="38.738191" lon="16.1820502"><ele>172.0</ele><time>2026-05-01T06:42:50.98Z</time></trkpt><trkpt lat="38.738398" lon="16.1822907"><ele>172.0</ele><time>2026-05-01T06:42:51.98Z</time></trkpt><trkpt lat="38.7385827" lon="16.1825522"><ele>166.5</ele><time>2026-05-01T06:42:52.98Z</time></trkpt><trkpt lat="38.7387439" lon="16.1828368"><ele>161.0</ele><time>2026-05-01T06:42:53.98Z</time></trkpt><trkpt lat="38.738889" lon="16.1831473"><ele>167.0</ele><time>2026-05-01T06:42:54.98Z</time></trkpt><trkpt lat="38.7390238" lon="16.1834763"><ele>173.0</ele><time>2026-05-01T06:42:55.98Z</time></trkpt><trkpt lat="38.7391505" lon="16.1838054"><ele>175.5</ele><time>2026-05-01T06:42:56.981Z</time></trkpt><trkpt lat="38.7392781" lon="16.1841278"><ele>178.0</ele><time>2026-05-01T06:42:57.981Z</time></trkpt><trkpt lat="38.7394155" lon="16.1844451"><ele>173.5</ele><time>2026-05-01T06:42:58.981Z</time></trkpt><trkpt lat="38.7395591" lon="16.1847525"><ele>169.0</ele><time>2026-05-01T06:42:59.98Z</time></trkpt><trkpt lat="38.7397278" lon="16.185044"><ele>169.0</ele><time>2026-05-01T06:43:00.981Z</time></trkpt><trkpt lat="38.7399116" lon="16.1853119"><ele>169.0</ele><time>2026-05-01T06:43:01.98Z</time></trkpt><trkpt lat="38.7401067" lon="16.1855719"><ele>165.5</ele><time>2026-05-01T06:43:02.98Z</time></trkpt><trkpt lat="38.7403206" lon="16.1858195"><ele>162.0</ele><time>2026-05-01T06:43:03.98Z</time></trkpt><trkpt lat="38.7405521" lon="16.186051"><ele>162.0</ele><time>2026-05-01T06:43:04.98Z</time></trkpt><trkpt lat="38.7407992" lon="16.186259"><ele>162.0</ele><time>2026-05-01T06:43:05.981Z</time></trkpt><trkpt lat="38.7410544" lon="16.1864475"><ele>160.0</ele><time>2026-05-01T06:43:06.98Z</time></trkpt><trkpt lat="38.7413157" lon="16.1866279"><ele>158.0</ele><time>2026-05-01T06:43:07.981Z</time></trkpt><trkpt lat="38.7415747" lon="16.1868074"><ele>158.0</ele><time>2026-05-01T06:43:08.98Z</time></trkpt><trkpt lat="38.7418383" lon="16.1869905"><ele>158.0</ele><time>2026-05-01T06:43:09.98Z</time></trkpt><trkpt lat="38.7420999" lon="16.1871677"><ele>160.0</ele><time>2026-05-01T06:43:10.981Z</time></trkpt><trkpt lat="38.7423516" lon="16.1873543"><ele>162.0</ele><time>2026-05-01T06:43:11.98Z</time></trkpt><trkpt lat="38.7426003" lon="16.1875379"><ele>154.5</ele><time>2026-05-01T06:43:12.98Z</time></trkpt><trkpt lat="38.7428473" lon="16.1877133"><ele>147.0</ele><time>2026-05-01T06:43:13.981Z</time></trkpt><trkpt lat="38.7431015" lon="16.1878676"><ele>147.0</ele><time>2026-05-01T06:43:14.98Z</time></trkpt><trkpt lat="38.7433509" lon="16.1880283"><ele>147.0</ele><time>2026-05-01T06:43:15.981Z</time></trkpt><trkpt lat="38.7435994" lon="16.1881802"><ele>146.5</ele><time>2026-05-01T06:43:16.98Z</time></trkpt><trkpt lat="38.7438579" lon="16.18832"><ele>146.0</ele><time>2026-05-01T06:43:17.98Z</time></trkpt><trkpt lat="38.7441234" lon="16.1884574"><ele>142.5</ele><time>2026-05-01T06:43:18.98Z</time></trkpt><trkpt lat="38.7443896" lon="16.1885893"><ele>139.0</ele><time>2026-05-01T06:43:19.98Z</time></trkpt><trkpt lat="38.7446592" lon="16.1887149"><ele>139.0</ele><time>2026-05-01T06:43:20.981Z</time></trkpt><trkpt lat="38.7449307" lon="16.1888433"><ele>139.0</ele><time>2026-05-01T06:43:21.98Z</time></trkpt><trkpt lat="38.7452033" lon="16.1889656"><ele>142.5</ele><time>2026-05-01T06:43:22.981Z</time></trkpt><trkpt lat="38.7454769" lon="16.1890855"><ele>146.0</ele><time>2026-05-01T06:43:23.98Z</time></trkpt><trkpt lat="38.7457554" lon="16.1892014"><ele>146.0</ele><time>2026-05-01T06:43:24.98Z</time></trkpt><trkpt lat="38.7460402" lon="16.1893095"><ele>146.0</ele><time>2026-05-01T06:43:25.98Z</time></trkpt><trkpt lat="38.7463244" lon="16.1894147"><ele>141.5</ele><time>2026-05-01T06:43:26.98Z</time></trkpt><trkpt lat="38.7466035" lon="16.1895111"><ele>137.0</ele><time>2026-05-01T06:43:27.981Z</time></trkpt><trkpt lat="38.7468789" lon="16.1896138"><ele>133.5</ele><time>2026-05-01T06:43:28.98Z</time></trkpt><trkpt lat="38.7471577" lon="16.1897059"><ele>130.0</ele><time>2026-05-01T06:43:29.98Z</time></trkpt><trkpt lat="38.7474348" lon="16.189802"><ele>129.0</ele><time>2026-05-01T06:43:30.98Z</time></trkpt><trkpt lat="38.7477126" lon="16.1899032"><ele>128.0</ele><time>2026-05-01T06:43:31.981Z</time></trkpt><trkpt lat="38.7479847" lon="16.1900152"><ele>128.0</ele><time>2026-05-01T06:43:32.981Z</time></trkpt><trkpt lat="38.7482439" lon="16.1901529"><ele>128.0</ele><time>2026-05-01T06:43:33.981Z</time></trkpt><trkpt lat="38.7484913" lon="16.1903118"><ele>126.0</ele><time>2026-05-01T06:43:34.981Z</time></trkpt><trkpt lat="38.7487207" lon="16.1904966"><ele>124.0</ele><time>2026-05-01T06:43:35.981Z</time></trkpt><trkpt lat="38.7489336" lon="16.1906989"><ele>124.0</ele><time>2026-05-01T06:43:36.98Z</time></trkpt><trkpt lat="38.7491242" lon="16.1909144"><ele>124.0</ele><time>2026-05-01T06:43:37.981Z</time></trkpt><trkpt lat="38.7493103" lon="16.1911385"><ele>121.0</ele><time>2026-05-01T06:43:38.98Z</time></trkpt><trkpt lat="38.7494882" lon="16.1913637"><ele>118.0</ele><time>2026-05-01T06:43:39.98Z</time></trkpt><trkpt lat="38.7496678" lon="16.1915912"><ele>118.0</ele><time>2026-05-01T06:43:40.98Z</time></trkpt><trkpt lat="38.7498461" lon="16.1918135"><ele>118.0</ele><time>2026-05-01T06:43:41.98Z</time></trkpt><trkpt lat="38.7500334" lon="16.1920322"><ele>118.0</ele><time>2026-05-01T06:43:42.98Z</time></trkpt><trkpt lat="38.750239" lon="16.1922312"><ele>118.0</ele><time>2026-05-01T06:43:43.98Z</time></trkpt><trkpt lat="38.7504518" lon="16.1924233"><ele>118.0</ele><time>2026-05-01T06:43:44.98Z</time></trkpt><trkpt lat="38.7506817" lon="16.1926085"><ele>118.0</ele><time>2026-05-01T06:43:45.981Z</time></trkpt><trkpt lat="38.7509272" lon="16.1927693"><ele>113.0</ele><time>2026-05-01T06:43:46.98Z</time></trkpt><trkpt lat="38.751186" lon="16.1929166"><ele>108.0</ele><time>2026-05-01T06:43:47.981Z</time></trkpt><trkpt lat="38.7514517" lon="16.1930668"><ele>110.0</ele><time>2026-05-01T06:43:48.98Z</time></trkpt><trkpt lat="38.7517217" lon="16.1932199"><ele>112.0</ele><time>2026-05-01T06:43:49.98Z</time></trkpt><trkpt lat="38.75198" lon="16.1933715"><ele>112.0</ele><time>2026-05-01T06:43:50.981Z</time></trkpt><trkpt lat="38.7522176" lon="16.1935426"><ele>112.0</ele><time>2026-05-01T06:43:51.98Z</time></trkpt><trkpt lat="38.7524417" lon="16.1937381"><ele>112.0</ele><time>2026-05-01T06:43:52.981Z</time></trkpt><trkpt lat="38.7526535" lon="16.1939592"><ele>112.0</ele><time>2026-05-01T06:43:53.981Z</time></trkpt><trkpt lat="38.7528528" lon="16.194203"><ele>103.0</ele><time>2026-05-01T06:43:54.98Z</time></trkpt><trkpt lat="38.753034" lon="16.1944704"><ele>94.0</ele><time>2026-05-01T06:43:55.98Z</time></trkpt><trkpt lat="38.7531995" lon="16.1947591"><ele>99.5</ele><time>2026-05-01T06:43:56.98Z</time></trkpt><trkpt lat="38.753346" lon="16.1950657"><ele>105.0</ele><time>2026-05-01T06:43:57.981Z</time></trkpt><trkpt lat="38.7534766" lon="16.1953919"><ele>95.5</ele><time>2026-05-01T06:43:58.98Z</time></trkpt><trkpt lat="38.7535933" lon="16.1957254"><ele>86.0</ele><time>2026-05-01T06:43:59.981Z</time></trkpt><trkpt lat="38.7537108" lon="16.1960593"><ele>86.0</ele><time>2026-05-01T06:44:00.981Z</time></trkpt><trkpt lat="38.7538403" lon="16.1963935"><ele>86.0</ele><time>2026-05-01T06:44:01.98Z</time></trkpt><trkpt lat="38.7539737" lon="16.1967195"><ele>92.5</ele><time>2026-05-01T06:44:02.98Z</time></trkpt><trkpt lat="38.7541049" lon="16.197046"><ele>99.0</ele><time>2026-05-01T06:44:03.981Z</time></trkpt><trkpt lat="38.7542378" lon="16.1973679"><ele>101.0</ele><time>2026-05-01T06:44:04.98Z</time></trkpt><trkpt lat="38.7543702" lon="16.1976821"><ele>103.0</ele><time>2026-05-01T06:44:05.98Z</time></trkpt><trkpt lat="38.7545179" lon="16.1979717"><ele>95.0</ele><time>2026-05-01T06:44:06.98Z</time></trkpt><trkpt lat="38.7546802" lon="16.1982441"><ele>87.0</ele><time>2026-05-01T06:44:07.981Z</time></trkpt><trkpt lat="38.7548612" lon="16.1984919"><ele>87.0</ele><time>2026-05-01T06:44:08.98Z</time></trkpt><trkpt lat="38.7550629" lon="16.1987321"><ele>87.0</ele><time>2026-05-01T06:44:09.98Z</time></trkpt><trkpt lat="38.7552807" lon="16.1989539"><ele>86.5</ele><time>2026-05-01T06:44:10.98Z</time></trkpt><trkpt lat="38.7555109" lon="16.199168"><ele>86.0</ele><time>2026-05-01T06:44:11.98Z</time></trkpt><trkpt lat="38.7557509" lon="16.1993677"><ele>86.0</ele><time>2026-05-01T06:44:12.98Z</time></trkpt><trkpt lat="38.7559962" lon="16.1995602"><ele>86.0</ele><time>2026-05-01T06:44:13.981Z</time></trkpt><trkpt lat="38.7562487" lon="16.1997409"><ele>86.5</ele><time>2026-05-01T06:44:14.98Z</time></trkpt><trkpt lat="38.7565025" lon="16.1999171"><ele>87.0</ele><time>2026-05-01T06:44:15.981Z</time></trkpt><trkpt lat="38.7567551" lon="16.2000905"><ele>78.0</ele><time>2026-05-01T06:44:16.98Z</time></trkpt><trkpt lat="38.7569919" lon="16.2002708"><ele>69.0</ele><time>2026-05-01T06:44:17.981Z</time></trkpt><trkpt lat="38.7572205" lon="16.2004538"><ele>69.0</ele><time>2026-05-01T06:44:18.98Z</time></trkpt><trkpt lat="38.7574436" lon="16.2006554"><ele>69.0</ele><time>2026-05-01T06:44:19.981Z</time></trkpt><trkpt lat="38.7576652" lon="16.200849"><ele>69.0</ele><time>2026-05-01T06:44:20.98Z</time></trkpt><trkpt lat="38.7578858" lon="16.2010423"><ele>69.0</ele><time>2026-05-01T06:44:21.98Z</time></trkpt><trkpt lat="38.758115" lon="16.2012204"><ele>69.0</ele><time>2026-05-01T06:44:22.98Z</time></trkpt><trkpt lat="38.7583518" lon="16.2013831"><ele>69.0</ele><time>2026-05-01T06:44:23.98Z</time></trkpt><trkpt lat="38.7585922" lon="16.2015397"><ele>70.0</ele><time>2026-05-01T06:44:24.981Z</time></trkpt><trkpt lat="38.7588427" lon="16.20169"><ele>71.0</ele><time>2026-05-01T06:44:25.981Z</time></trkpt><trkpt lat="38.7591014" lon="16.2018382"><ele>71.0</ele><time>2026-05-01T06:44:26.98Z</time></trkpt><trkpt lat="38.7593579" lon="16.2019782"><ele>71.0</ele><time>2026-05-01T06:44:27.981Z</time></trkpt><trkpt lat="38.759608" lon="16.2021173"><ele>75.5</ele><time>2026-05-01T06:44:28.981Z</time></trkpt><trkpt lat="38.7598607" lon="16.2022585"><ele>80.0</ele><time>2026-05-01T06:44:29.98Z</time></trkpt><trkpt lat="38.7601314" lon="16.2023606"><ele>75.5</ele><time>2026-05-01T06:44:30.981Z</time></trkpt><trkpt lat="38.7604165" lon="16.2024411"><ele>71.0</ele><time>2026-05-01T06:44:31.981Z</time></trkpt><trkpt lat="38.7607043" lon="16.202526"><ele>71.0</ele><time>2026-05-01T06:44:32.98Z</time></trkpt><trkpt lat="38.7609893" lon="16.2026127"><ele>71.0</ele><time>2026-05-01T06:44:33.98Z</time></trkpt><trkpt lat="38.7612855" lon="16.202689"><ele>62.5</ele><time>2026-05-01T06:44:34.98Z</time></trkpt><trkpt lat="38.7615725" lon="16.2027752"><ele>54.0</ele><time>2026-05-01T06:44:35.981Z</time></trkpt><trkpt lat="38.7618391" lon="16.202876"><ele>42.5</ele><time>2026-05-01T06:44:36.98Z</time></trkpt><trkpt lat="38.7620987" lon="16.2029998"><ele>31.0</ele><time>2026-05-01T06:44:37.98Z</time></trkpt><trkpt lat="38.7623493" lon="16.2031497"><ele>34.5</ele><time>2026-05-01T06:44:38.98Z</time></trkpt><trkpt lat="38.7625899" lon="16.2033275"><ele>38.0</ele><time>2026-05-01T06:44:39.98Z</time></trkpt><trkpt lat="38.7628136" lon="16.2035321"><ele>38.0</ele><time>2026-05-01T06:44:40.98Z</time></trkpt><trkpt lat="38.7630224" lon="16.2037622"><ele>38.0</ele><time>2026-05-01T06:44:41.98Z</time></trkpt><trkpt lat="38.7632383" lon="16.2039885"><ele>39.0</ele><time>2026-05-01T06:44:42.98Z</time></trkpt><trkpt lat="38.7634594" lon="16.2041964"><ele>40.0</ele><time>2026-05-01T06:44:43.98Z</time></trkpt><trkpt lat="38.7636927" lon="16.2043814"><ele>40.0</ele><time>2026-05-01T06:44:44.981Z</time></trkpt><trkpt lat="38.7639384" lon="16.2045346"><ele>40.0</ele><time>2026-05-01T06:44:45.98Z</time></trkpt><trkpt lat="38.7641895" lon="16.2046716"><ele>43.5</ele><time>2026-05-01T06:44:46.98Z</time></trkpt><trkpt lat="38.7644386" lon="16.2047986"><ele>47.0</ele><time>2026-05-01T06:44:47.981Z</time></trkpt><trkpt lat="38.7646792" lon="16.2049195"><ele>47.0</ele><time>2026-05-01T06:44:48.98Z</time></trkpt><trkpt lat="38.7649117" lon="16.2050503"><ele>47.0</ele><time>2026-05-01T06:44:49.98Z</time></trkpt><trkpt lat="38.7651349" lon="16.2051832"><ele>36.5</ele><time>2026-05-01T06:44:50.981Z</time></trkpt><trkpt lat="38.76535" lon="16.2053192"><ele>26.0</ele><time>2026-05-01T06:44:51.98Z</time></trkpt><trkpt lat="38.765564" lon="16.2054477"><ele>26.0</ele><time>2026-05-01T06:44:52.98Z</time></trkpt><trkpt lat="38.7657771" lon="16.2055795"><ele>26.0</ele><time>2026-05-01T06:44:53.981Z</time></trkpt><trkpt lat="38.7659801" lon="16.2057213"><ele>26.5</ele><time>2026-05-01T06:44:54.981Z</time></trkpt><trkpt lat="38.7661809" lon="16.2058736"><ele>27.0</ele><time>2026-05-01T06:44:55.981Z</time></trkpt><trkpt lat="38.7663865" lon="16.2060213"><ele>27.0</ele><time>2026-05-01T06:44:56.98Z</time></trkpt><trkpt lat="38.7665903" lon="16.2061829"><ele>27.0</ele><time>2026-05-01T06:44:57.98Z</time></trkpt><trkpt lat="38.766799" lon="16.2063504"><ele>28.5</ele><time>2026-05-01T06:44:58.98Z</time></trkpt><trkpt lat="38.7670134" lon="16.2065268"><ele>30.0</ele><time>2026-05-01T06:44:59.981Z</time></trkpt><trkpt lat="38.7672324" lon="16.2067046"><ele>30.0</ele><time>2026-05-01T06:45:00.98Z</time></trkpt><trkpt lat="38.7674554" lon="16.206885"><ele>30.0</ele><time>2026-05-01T06:45:01.98Z</time></trkpt><trkpt lat="38.7676757" lon="16.2070667"><ele>26.5</ele><time>2026-05-01T06:45:02.98Z</time></trkpt><trkpt lat="38.7678926" lon="16.2072535"><ele>23.0</ele><time>2026-05-01T06:45:03.981Z</time></trkpt><trkpt lat="38.7681015" lon="16.2074506"><ele>23.0</ele><time>2026-05-01T06:45:04.98Z</time></trkpt><trkpt lat="38.7683043" lon="16.2076664"><ele>23.0</ele><time>2026-05-01T06:45:05.98Z</time></trkpt><trkpt lat="38.7684964" lon="16.2078952"><ele>20.0</ele><time>2026-05-01T06:45:06.98Z</time></trkpt><trkpt lat="38.768681" lon="16.2081309"><ele>17.0</ele><time>2026-05-01T06:45:07.981Z</time></trkpt><trkpt lat="38.7688613" lon="16.2083845"><ele>17.0</ele><time>2026-05-01T06:45:08.981Z</time></trkpt><trkpt lat="38.7690552" lon="16.2086609"><ele>17.0</ele><time>2026-05-01T06:45:09.98Z</time></trkpt><trkpt lat="38.7692574" lon="16.2089454"><ele>14.0</ele><time>2026-05-01T06:45:10.981Z</time></trkpt><trkpt lat="38.7694588" lon="16.2092304"><ele>11.0</ele><time>2026-05-01T06:45:11.981Z</time></trkpt><trkpt lat="38.7696504" lon="16.2095244"><ele>11.5</ele><time>2026-05-01T06:45:12.98Z</time></trkpt><trkpt lat="38.7698325" lon="16.2098352"><ele>12.0</ele><time>2026-05-01T06:45:13.98Z</time></trkpt><trkpt lat="38.7700078" lon="16.210157"><ele>12.0</ele><time>2026-05-01T06:45:14.981Z</time></trkpt><trkpt lat="38.7701808" lon="16.2104812"><ele>12.0</ele><time>2026-05-01T06:45:15.98Z</time></trkpt><trkpt lat="38.7703529" lon="16.2108073"><ele>10.5</ele><time>2026-05-01T06:45:16.981Z</time></trkpt><trkpt lat="38.7705196" lon="16.2111322"><ele>9.0</ele><time>2026-05-01T06:45:17.981Z</time></trkpt><trkpt lat="38.770686" lon="16.2114542"><ele>8.5</ele><time>2026-05-01T06:45:18.981Z</time></trkpt><trkpt lat="38.7708451" lon="16.2117714"><ele>8.0</ele><time>2026-05-01T06:45:19.981Z</time></trkpt><trkpt lat="38.7710028" lon="16.2120783"><ele>8.0</ele><time>2026-05-01T06:45:20.98Z</time></trkpt><trkpt lat="38.7711682" lon="16.2123768"><ele>8.0</ele><time>2026-05-01T06:45:21.98Z</time></trkpt><trkpt lat="38.7713381" lon="16.212659"><ele>8.0</ele><time>2026-05-01T06:45:22.98Z</time></trkpt><trkpt lat="38.7715198" lon="16.2129196"><ele>8.0</ele><time>2026-05-01T06:45:23.98Z</time></trkpt><trkpt lat="38.7717123" lon="16.2131606"><ele>8.0</ele><time>2026-05-01T06:45:24.98Z</time></trkpt><trkpt lat="38.7719166" lon="16.2133914"><ele>8.0</ele><time>2026-05-01T06:45:25.98Z</time></trkpt><trkpt lat="38.7721346" lon="16.2136122"><ele>8.0</ele><time>2026-05-01T06:45:26.98Z</time></trkpt><trkpt lat="38.7723664" lon="16.2138274"><ele>8.0</ele><time>2026-05-01T06:45:27.98Z</time></trkpt><trkpt lat="38.7726187" lon="16.2140249"><ele>9.0</ele><time>2026-05-01T06:45:28.981Z</time></trkpt><trkpt lat="38.772886" lon="16.2141992"><ele>10.0</ele><time>2026-05-01T06:45:29.98Z</time></trkpt><trkpt lat="38.7731668" lon="16.2143475"><ele>10.0</ele><time>2026-05-01T06:45:30.98Z</time></trkpt><trkpt lat="38.773456" lon="16.2144724"><ele>10.0</ele><time>2026-05-01T06:45:31.98Z</time></trkpt><trkpt lat="38.7737498" lon="16.2145828"><ele>9.0</ele><time>2026-05-01T06:45:32.981Z</time></trkpt><trkpt lat="38.7740453" lon="16.2146971"><ele>8.0</ele><time>2026-05-01T06:45:33.981Z</time></trkpt><trkpt lat="38.7743414" lon="16.2148118"><ele>6.5</ele><time>2026-05-01T06:45:34.981Z</time></trkpt><trkpt lat="38.7746469" lon="16.2149245"><ele>5.0</ele><time>2026-05-01T06:45:35.98Z</time></trkpt><trkpt lat="38.7749597" lon="16.2150406"><ele>5.0</ele><time>2026-05-01T06:45:36.981Z</time></trkpt><trkpt lat="38.775282" lon="16.2151553"><ele>5.0</ele><time>2026-05-01T06:45:37.98Z</time></trkpt><trkpt lat="38.7755979" lon="16.2152768"><ele>5.0</ele><time>2026-05-01T06:45:38.98Z</time></trkpt><trkpt lat="38.7759107" lon="16.2154041"><ele>5.0</ele><time>2026-05-01T06:45:39.98Z</time></trkpt><trkpt lat="38.7762179" lon="16.2155309"><ele>5.0</ele><time>2026-05-01T06:45:40.98Z</time></trkpt><trkpt lat="38.7765234" lon="16.2156575"><ele>5.0</ele><time>2026-05-01T06:45:41.98Z</time></trkpt><trkpt lat="38.7768303" lon="16.2157794"><ele>5.5</ele><time>2026-05-01T06:45:42.98Z</time></trkpt><trkpt lat="38.7771309" lon="16.2158998"><ele>6.0</ele><time>2026-05-01T06:45:43.981Z</time></trkpt><trkpt lat="38.7774327" lon="16.216022"><ele>6.5</ele><time>2026-05-01T06:45:44.98Z</time></trkpt><trkpt lat="38.7777279" lon="16.2161436"><ele>7.0</ele><time>2026-05-01T06:45:45.98Z</time></trkpt><trkpt lat="38.7780278" lon="16.2162691"><ele>7.0</ele><time>2026-05-01T06:45:46.981Z</time></trkpt><trkpt lat="38.778336" lon="16.2163908"><ele>7.0</ele><time>2026-05-01T06:45:47.98Z</time></trkpt><trkpt lat="38.7786511" lon="16.2165128"><ele>7.0</ele><time>2026-05-01T06:45:48.981Z</time></trkpt><trkpt lat="38.7789663" lon="16.2166304"><ele>7.0</ele><time>2026-05-01T06:45:49.98Z</time></trkpt><trkpt lat="38.7792738" lon="16.2167521"><ele>6.5</ele><time>2026-05-01T06:45:50.981Z</time></trkpt><trkpt lat="38.7795838" lon="16.216877"><ele>6.0</ele><time>2026-05-01T06:45:51.98Z</time></trkpt><trkpt lat="38.7798946" lon="16.217003"><ele>6.0</ele><time>2026-05-01T06:45:52.98Z</time></trkpt><trkpt lat="38.7802034" lon="16.2171293"><ele>6.0</ele><time>2026-05-01T06:45:53.981Z</time></trkpt><trkpt lat="38.7805131" lon="16.2172523"><ele>6.0</ele><time>2026-05-01T06:45:54.98Z</time></trkpt><trkpt lat="38.78082" lon="16.2173736"><ele>6.0</ele><time>2026-05-01T06:45:55.98Z</time></trkpt><trkpt lat="38.7811254" lon="16.2174973"><ele>6.5</ele><time>2026-05-01T06:45:56.98Z</time></trkpt><trkpt lat="38.7814384" lon="16.2176172"><ele>7.0</ele><time>2026-05-01T06:45:57.981Z</time></trkpt><trkpt lat="38.7817481" lon="16.217743"><ele>7.5</ele><time>2026-05-01T06:45:58.981Z</time></trkpt><trkpt lat="38.7820556" lon="16.2178647"><ele>8.0</ele><time>2026-05-01T06:45:59.98Z</time></trkpt><trkpt lat="38.7823604" lon="16.2179933"><ele>8.0</ele><time>2026-05-01T06:46:00.98Z</time></trkpt><trkpt lat="38.7826715" lon="16.2181137"><ele>8.0</ele><time>2026-05-01T06:46:01.98Z</time></trkpt><trkpt lat="38.7829852" lon="16.2182333"><ele>8.0</ele><time>2026-05-01T06:46:02.98Z</time></trkpt><trkpt lat="38.7832999" lon="16.2183531"><ele>8.0</ele><time>2026-05-01T06:46:03.98Z</time></trkpt><trkpt lat="38.7836159" lon="16.2184765"><ele>7.5</ele><time>2026-05-01T06:46:04.98Z</time></trkpt><trkpt lat="38.7839317" lon="16.2185961"><ele>7.0</ele><time>2026-05-01T06:46:05.98Z</time></trkpt><trkpt lat="38.7842418" lon="16.2187183"><ele>6.0</ele><time>2026-05-01T06:46:06.98Z</time></trkpt><trkpt lat="38.7845494" lon="16.2188476"><ele>5.0</ele><time>2026-05-01T06:46:07.981Z</time></trkpt><trkpt lat="38.7848435" lon="16.2189871"><ele>8.0</ele><time>2026-05-01T06:46:08.98Z</time></trkpt><trkpt lat="38.7851352" lon="16.2191364"><ele>11.0</ele><time>2026-05-01T06:46:09.981Z</time></trkpt><trkpt lat="38.7854209" lon="16.2192903"><ele>11.0</ele><time>2026-05-01T06:46:10.98Z</time></trkpt><trkpt lat="38.7857017" lon="16.2194605"><ele>11.0</ele><time>2026-05-01T06:46:11.981Z</time></trkpt><trkpt lat="38.7859831" lon="16.2196416"><ele>13.0</ele><time>2026-05-01T06:46:12.98Z</time></trkpt><trkpt lat="38.7862676" lon="16.2198355"><ele>15.0</ele><time>2026-05-01T06:46:13.98Z</time></trkpt><trkpt lat="38.7865436" lon="16.2200406"><ele>15.0</ele><time>2026-05-01T06:46:14.981Z</time></trkpt><trkpt lat="38.7868128" lon="16.2202571"><ele>15.0</ele><time>2026-05-01T06:46:15.98Z</time></trkpt><trkpt lat="38.7870692" lon="16.2204788"><ele>16.0</ele><time>2026-05-01T06:46:16.981Z</time></trkpt><trkpt lat="38.7873212" lon="16.2207018"><ele>17.0</ele><time>2026-05-01T06:46:17.98Z</time></trkpt><trkpt lat="38.7875764" lon="16.2209109"><ele>12.5</ele><time>2026-05-01T06:46:18.981Z</time></trkpt><trkpt lat="38.7878321" lon="16.221126"><ele>8.0</ele><time>2026-05-01T06:46:19.98Z</time></trkpt><trkpt lat="38.7880815" lon="16.2213467"><ele>9.5</ele><time>2026-05-01T06:46:20.981Z</time></trkpt><trkpt lat="38.7883371" lon="16.2215633"><ele>11.0</ele><time>2026-05-01T06:46:21.981Z</time></trkpt><trkpt lat="38.7885978" lon="16.2217855"><ele>11.0</ele><time>2026-05-01T06:46:22.981Z</time></trkpt><trkpt lat="38.7888596" lon="16.2220076"><ele>11.0</ele><time>2026-05-01T06:46:23.98Z</time></trkpt><trkpt lat="38.7891267" lon="16.2222273"><ele>11.0</ele><time>2026-05-01T06:46:24.981Z</time></trkpt><trkpt lat="38.7894003" lon="16.2224474"><ele>11.0</ele><time>2026-05-01T06:46:25.981Z</time></trkpt><trkpt lat="38.7896827" lon="16.2226559"><ele>11.0</ele><time>2026-05-01T06:46:26.98Z</time></trkpt><trkpt lat="38.7899698" lon="16.2228617"><ele>11.0</ele><time>2026-05-01T06:46:27.98Z</time></trkpt><trkpt lat="38.7902621" lon="16.2230616"><ele>13.0</ele><time>2026-05-01T06:46:28.981Z</time></trkpt><trkpt lat="38.7905616" lon="16.2232423"><ele>15.0</ele><time>2026-05-01T06:46:29.98Z</time></trkpt><trkpt lat="38.7908659" lon="16.2234064"><ele>13.0</ele><time>2026-05-01T06:46:30.98Z</time></trkpt><trkpt lat="38.7911813" lon="16.2235516"><ele>11.0</ele><time>2026-05-01T06:46:31.981Z</time></trkpt><trkpt lat="38.7915006" lon="16.2236844"><ele>11.0</ele><time>2026-05-01T06:46:32.981Z</time></trkpt><trkpt lat="38.7918247" lon="16.2238054"><ele>11.0</ele><time>2026-05-01T06:46:33.981Z</time></trkpt><trkpt lat="38.7921541" lon="16.2239087"><ele>12.5</ele><time>2026-05-01T06:46:34.98Z</time></trkpt><trkpt lat="38.7924815" lon="16.2240042"><ele>14.0</ele><time>2026-05-01T06:46:35.981Z</time></trkpt><trkpt lat="38.7928147" lon="16.2240935"><ele>14.0</ele><time>2026-05-01T06:46:36.98Z</time></trkpt><trkpt lat="38.7931495" lon="16.2241754"><ele>14.0</ele><time>2026-05-01T06:46:37.98Z</time></trkpt><trkpt lat="38.7934796" lon="16.2242593"><ele>13.5</ele><time>2026-05-01T06:46:38.981Z</time></trkpt><trkpt lat="38.7938075" lon="16.2243496"><ele>13.0</ele><time>2026-05-01T06:46:39.98Z</time></trkpt><trkpt lat="38.7941446" lon="16.2244448"><ele>13.0</ele><time>2026-05-01T06:46:40.98Z</time></trkpt><trkpt lat="38.7944822" lon="16.2245551"><ele>13.0</ele><time>2026-05-01T06:46:41.98Z</time></trkpt><trkpt lat="38.7948097" lon="16.224687"><ele>14.5</ele><time>2026-05-01T06:46:42.98Z</time></trkpt><trkpt lat="38.7951217" lon="16.2248404"><ele>16.0</ele><time>2026-05-01T06:46:43.981Z</time></trkpt><trkpt lat="38.7954222" lon="16.2250042"><ele>16.5</ele><time>2026-05-01T06:46:44.981Z</time></trkpt><trkpt lat="38.7957167" lon="16.225174"><ele>17.0</ele><time>2026-05-01T06:46:45.98Z</time></trkpt><trkpt lat="38.7960067" lon="16.2253484"><ele>16.0</ele><time>2026-05-01T06:46:46.98Z</time></trkpt><trkpt lat="38.796294" lon="16.2255307"><ele>15.0</ele><time>2026-05-01T06:46:47.981Z</time></trkpt><trkpt lat="38.7965812" lon="16.2257261"><ele>14.0</ele><time>2026-05-01T06:46:48.981Z</time></trkpt><trkpt lat="38.7968598" lon="16.2259403"><ele>13.0</ele><time>2026-05-01T06:46:49.981Z</time></trkpt><trkpt lat="38.7971165" lon="16.2261689"><ele>13.0</ele><time>2026-05-01T06:46:50.98Z</time></trkpt><trkpt lat="38.7973754" lon="16.2263993"><ele>13.0</ele><time>2026-05-01T06:46:51.981Z</time></trkpt><trkpt lat="38.7976365" lon="16.2266247"><ele>13.0</ele><time>2026-05-01T06:46:52.98Z</time></trkpt><trkpt lat="38.7978958" lon="16.2268505"><ele>13.0</ele><time>2026-05-01T06:46:53.98Z</time></trkpt><trkpt lat="38.7981543" lon="16.2270791"><ele>13.0</ele><time>2026-05-01T06:46:54.98Z</time></trkpt><trkpt lat="38.7984138" lon="16.2273111"><ele>13.0</ele><time>2026-05-01T06:46:55.981Z</time></trkpt><trkpt lat="38.7986691" lon="16.2275406"><ele>13.0</ele><time>2026-05-01T06:46:56.98Z</time></trkpt><trkpt lat="38.7989283" lon="16.2277712"><ele>13.0</ele><time>2026-05-01T06:46:57.98Z</time></trkpt><trkpt lat="38.7991854" lon="16.2280007"><ele>15.5</ele><time>2026-05-01T06:46:58.981Z</time></trkpt><trkpt lat="38.7994431" lon="16.2282184"><ele>18.0</ele><time>2026-05-01T06:46:59.981Z</time></trkpt><trkpt lat="38.7997009" lon="16.228429"><ele>18.0</ele><time>2026-05-01T06:47:00.98Z</time></trkpt><trkpt lat="38.7999607" lon="16.2286337"><ele>18.0</ele><time>2026-05-01T06:47:01.98Z</time></trkpt><trkpt lat="38.8002232" lon="16.2288353"><ele>17.5</ele><time>2026-05-01T06:47:02.98Z</time></trkpt><trkpt lat="38.8004908" lon="16.2290438"><ele>17.0</ele><time>2026-05-01T06:47:03.98Z</time></trkpt><trkpt lat="38.8007795" lon="16.2292122"><ele>17.0</ele><time>2026-05-01T06:47:04.98Z</time></trkpt><trkpt lat="38.8010813" lon="16.2293669"><ele>17.0</ele><time>2026-05-01T06:47:05.981Z</time></trkpt><trkpt lat="38.8013815" lon="16.2295159"><ele>17.0</ele><time>2026-05-01T06:47:06.981Z</time></trkpt><trkpt lat="38.8016954" lon="16.2296527"><ele>17.0</ele><time>2026-05-01T06:47:07.981Z</time></trkpt><trkpt lat="38.8020105" lon="16.2297878"><ele>18.0</ele><time>2026-05-01T06:47:08.98Z</time></trkpt><trkpt lat="38.8023199" lon="16.2299294"><ele>19.0</ele><time>2026-05-01T06:47:09.98Z</time></trkpt><trkpt lat="38.8026207" lon="16.2300734"><ele>17.5</ele><time>2026-05-01T06:47:10.98Z</time></trkpt><trkpt lat="38.802928" lon="16.230217"><ele>16.0</ele><time>2026-05-01T06:47:11.98Z</time></trkpt><trkpt lat="38.8032418" lon="16.2303547"><ele>15.0</ele><time>2026-05-01T06:47:12.981Z</time></trkpt><trkpt lat="38.8035531" lon="16.2304963"><ele>14.0</ele><time>2026-05-01T06:47:13.981Z</time></trkpt><trkpt lat="38.803868" lon="16.2306347"><ele>16.0</ele><time>2026-05-01T06:47:14.981Z</time></trkpt><trkpt lat="38.8041755" lon="16.2307839"><ele>18.0</ele><time>2026-05-01T06:47:15.98Z</time></trkpt><trkpt lat="38.8044856" lon="16.2309274"><ele>18.0</ele><time>2026-05-01T06:47:16.98Z</time></trkpt><trkpt lat="38.8048027" lon="16.2310685"><ele>18.0</ele><time>2026-05-01T06:47:17.98Z</time></trkpt><trkpt lat="38.8051185" lon="16.2312067"><ele>17.0</ele><time>2026-05-01T06:47:18.98Z</time></trkpt><trkpt lat="38.8054351" lon="16.2313438"><ele>16.0</ele><time>2026-05-01T06:47:19.981Z</time></trkpt><trkpt lat="38.8057512" lon="16.2314798"><ele>17.5</ele><time>2026-05-01T06:47:20.98Z</time></trkpt><trkpt lat="38.8060619" lon="16.2316231"><ele>19.0</ele><time>2026-05-01T06:47:21.98Z</time></trkpt><trkpt lat="38.8063691" lon="16.2317649"><ele>19.0</ele><time>2026-05-01T06:47:22.981Z</time></trkpt><trkpt lat="38.806685" lon="16.2319032"><ele>19.0</ele><time>2026-05-01T06:47:23.98Z</time></trkpt><trkpt lat="38.8069898" lon="16.2320483"><ele>19.5</ele><time>2026-05-01T06:47:24.98Z</time></trkpt><trkpt lat="38.8073014" lon="16.2321829"><ele>20.0</ele><time>2026-05-01T06:47:25.98Z</time></trkpt><trkpt lat="38.8076117" lon="16.23232"><ele>18.5</ele><time>2026-05-01T06:47:26.98Z</time></trkpt><trkpt lat="38.8079187" lon="16.232461"><ele>17.0</ele><time>2026-05-01T06:47:27.981Z</time></trkpt><trkpt lat="38.8082293" lon="16.2326015"><ele>15.0</ele><time>2026-05-01T06:47:28.98Z</time></trkpt><trkpt lat="38.8085384" lon="16.2327429"><ele>13.0</ele><time>2026-05-01T06:47:29.98Z</time></trkpt><trkpt lat="38.808845" lon="16.2328852"><ele>13.0</ele><time>2026-05-01T06:47:30.98Z</time></trkpt><trkpt lat="38.8091515" lon="16.2330236"><ele>13.0</ele><time>2026-05-01T06:47:31.98Z</time></trkpt><trkpt lat="38.8094558" lon="16.2331631"><ele>14.5</ele><time>2026-05-01T06:47:32.98Z</time></trkpt><trkpt lat="38.8097569" lon="16.2333016"><ele>16.0</ele><time>2026-05-01T06:47:33.981Z</time></trkpt><trkpt lat="38.8100558" lon="16.2334399"><ele>16.0</ele><time>2026-05-01T06:47:34.98Z</time></trkpt><trkpt lat="38.8103587" lon="16.2335759"><ele>16.0</ele><time>2026-05-01T06:47:35.98Z</time></trkpt><trkpt lat="38.8106631" lon="16.2337146"><ele>16.0</ele><time>2026-05-01T06:47:36.98Z</time></trkpt><trkpt lat="38.8109681" lon="16.233852"><ele>16.0</ele><time>2026-05-01T06:47:37.981Z</time></trkpt><trkpt lat="38.8112731" lon="16.2339867"><ele>16.5</ele><time>2026-05-01T06:47:38.98Z</time></trkpt><trkpt lat="38.8115781" lon="16.234125"><ele>17.0</ele><time>2026-05-01T06:47:39.98Z</time></trkpt><trkpt lat="38.8118792" lon="16.2342642"><ele>15.0</ele><time>2026-05-01T06:47:40.98Z</time></trkpt><trkpt lat="38.8121807" lon="16.2344028"><ele>13.0</ele><time>2026-05-01T06:47:41.98Z</time></trkpt><trkpt lat="38.8124822" lon="16.2345446"><ele>12.0</ele><time>2026-05-01T06:47:42.98Z</time></trkpt><trkpt lat="38.8127785" lon="16.2346838"><ele>11.0</ele><time>2026-05-01T06:47:43.981Z</time></trkpt><trkpt lat="38.8130712" lon="16.2348261"><ele>14.5</ele><time>2026-05-01T06:47:44.98Z</time></trkpt><trkpt lat="38.8133637" lon="16.2349655"><ele>18.0</ele><time>2026-05-01T06:47:45.98Z</time></trkpt><trkpt lat="38.8136542" lon="16.2351075"><ele>18.0</ele><time>2026-05-01T06:47:46.98Z</time></trkpt><trkpt lat="38.8139455" lon="16.2352457"><ele>18.0</ele><time>2026-05-01T06:47:47.98Z</time></trkpt><trkpt lat="38.8142375" lon="16.2353799"><ele>16.0</ele><time>2026-05-01T06:47:48.98Z</time></trkpt><trkpt lat="38.814524" lon="16.2355188"><ele>14.0</ele><time>2026-05-01T06:47:49.98Z</time></trkpt><trkpt lat="38.8148123" lon="16.2356603"><ele>16.5</ele><time>2026-05-01T06:47:50.98Z</time></trkpt><trkpt lat="38.8151033" lon="16.2358115"><ele>19.0</ele><time>2026-05-01T06:47:51.98Z</time></trkpt><trkpt lat="38.815395" lon="16.2359699"><ele>19.0</ele><time>2026-05-01T06:47:52.981Z</time></trkpt><trkpt lat="38.8156872" lon="16.2361379"><ele>19.0</ele><time>2026-05-01T06:47:53.981Z</time></trkpt><trkpt lat="38.8159812" lon="16.236312"><ele>20.0</ele><time>2026-05-01T06:47:54.981Z</time></trkpt><trkpt lat="38.8162731" lon="16.2364923"><ele>21.0</ele><time>2026-05-01T06:47:55.981Z</time></trkpt><trkpt lat="38.8165603" lon="16.23668"><ele>19.5</ele><time>2026-05-01T06:47:56.98Z</time></trkpt><trkpt lat="38.8168362" lon="16.2368787"><ele>18.0</ele><time>2026-05-01T06:47:57.98Z</time></trkpt><trkpt lat="38.8171062" lon="16.2370798"><ele>18.0</ele><time>2026-05-01T06:47:58.98Z</time></trkpt><trkpt lat="38.8173678" lon="16.2372919"><ele>18.0</ele><time>2026-05-01T06:47:59.98Z</time></trkpt><trkpt lat="38.8176209" lon="16.2375112"><ele>17.5</ele><time>2026-05-01T06:48:00.98Z</time></trkpt><trkpt lat="38.817865" lon="16.2377396"><ele>17.0</ele><time>2026-05-01T06:48:01.98Z</time></trkpt><trkpt lat="38.8181063" lon="16.2379733"><ele>17.0</ele><time>2026-05-01T06:48:02.98Z</time></trkpt><trkpt lat="38.8183452" lon="16.2382132"><ele>17.0</ele><time>2026-05-01T06:48:03.98Z</time></trkpt><trkpt lat="38.8185811" lon="16.2384633"><ele>15.5</ele><time>2026-05-01T06:48:04.981Z</time></trkpt><trkpt lat="38.8188093" lon="16.2387211"><ele>14.0</ele><time>2026-05-01T06:48:05.981Z</time></trkpt><trkpt lat="38.819038" lon="16.2389914"><ele>14.5</ele><time>2026-05-01T06:48:06.98Z</time></trkpt><trkpt lat="38.8192587" lon="16.2392708"><ele>15.0</ele><time>2026-05-01T06:48:07.98Z</time></trkpt><trkpt lat="38.8194759" lon="16.2395628"><ele>15.5</ele><time>2026-05-01T06:48:08.98Z</time></trkpt><trkpt lat="38.8196844" lon="16.2398587"><ele>16.0</ele><time>2026-05-01T06:48:09.981Z</time></trkpt><trkpt lat="38.8198847" lon="16.2401613"><ele>16.0</ele><time>2026-05-01T06:48:10.98Z</time></trkpt><trkpt lat="38.8200844" lon="16.2404706"><ele>16.0</ele><time>2026-05-01T06:48:11.981Z</time></trkpt><trkpt lat="38.8202712" lon="16.2407802"><ele>17.5</ele><time>2026-05-01T06:48:12.98Z</time></trkpt><trkpt lat="38.8204472" lon="16.241097"><ele>19.0</ele><time>2026-05-01T06:48:13.98Z</time></trkpt><trkpt lat="38.8206231" lon="16.2414144"><ele>19.5</ele><time>2026-05-01T06:48:14.981Z</time></trkpt><trkpt lat="38.8207858" lon="16.2417446"><ele>20.0</ele><time>2026-05-01T06:48:15.98Z</time></trkpt><trkpt lat="38.820943" lon="16.2420817"><ele>21.0</ele><time>2026-05-01T06:48:16.981Z</time></trkpt><trkpt lat="38.8210974" lon="16.2424236"><ele>22.0</ele><time>2026-05-01T06:48:17.98Z</time></trkpt><trkpt lat="38.8212555" lon="16.2427688"><ele>22.0</ele><time>2026-05-01T06:48:18.98Z</time></trkpt><trkpt lat="38.8214172" lon="16.2431112"><ele>22.0</ele><time>2026-05-01T06:48:19.98Z</time></trkpt><trkpt lat="38.821571" lon="16.2434579"><ele>22.0</ele><time>2026-05-01T06:48:20.98Z</time></trkpt><trkpt lat="38.8217269" lon="16.2438002"><ele>22.0</ele><time>2026-05-01T06:48:21.98Z</time></trkpt><trkpt lat="38.8218837" lon="16.2441552"><ele>21.0</ele><time>2026-05-01T06:48:22.98Z</time></trkpt><trkpt lat="38.822036" lon="16.2445095"><ele>20.0</ele><time>2026-05-01T06:48:23.98Z</time></trkpt><trkpt lat="38.8221837" lon="16.2448616"><ele>20.0</ele><time>2026-05-01T06:48:24.98Z</time></trkpt><trkpt lat="38.8223258" lon="16.245218"><ele>20.0</ele><time>2026-05-01T06:48:25.981Z</time></trkpt><trkpt lat="38.8224651" lon="16.2455683"><ele>20.0</ele><time>2026-05-01T06:48:26.98Z</time></trkpt><trkpt lat="38.8226067" lon="16.2459196"><ele>20.0</ele><time>2026-05-01T06:48:27.98Z</time></trkpt><trkpt lat="38.8227469" lon="16.2462681"><ele>20.0</ele><time>2026-05-01T06:48:28.98Z</time></trkpt><trkpt lat="38.8228944" lon="16.2466153"><ele>20.0</ele><time>2026-05-01T06:48:29.98Z</time></trkpt><trkpt lat="38.8230465" lon="16.2469664"><ele>19.5</ele><time>2026-05-01T06:48:30.98Z</time></trkpt><trkpt lat="38.8232057" lon="16.247315"><ele>19.0</ele><time>2026-05-01T06:48:31.981Z</time></trkpt><trkpt lat="38.8233738" lon="16.2476568"><ele>19.0</ele><time>2026-05-01T06:48:32.981Z</time></trkpt><trkpt lat="38.8235458" lon="16.2479961"><ele>19.0</ele><time>2026-05-01T06:48:33.981Z</time></trkpt><trkpt lat="38.8237195" lon="16.2483352"><ele>19.0</ele><time>2026-05-01T06:48:34.98Z</time></trkpt><trkpt lat="38.8239026" lon="16.248666"><ele>19.0</ele><time>2026-05-01T06:48:35.981Z</time></trkpt><trkpt lat="38.8240946" lon="16.2489931"><ele>18.5</ele><time>2026-05-01T06:48:36.98Z</time></trkpt><trkpt lat="38.8242873" lon="16.2493208"><ele>18.0</ele><time>2026-05-01T06:48:37.981Z</time></trkpt><trkpt lat="38.8244986" lon="16.2496436"><ele>18.5</ele><time>2026-05-01T06:48:38.98Z</time></trkpt><trkpt lat="38.8247208" lon="16.2499457"><ele>19.0</ele><time>2026-05-01T06:48:39.98Z</time></trkpt><trkpt lat="38.8249473" lon="16.2502468"><ele>19.0</ele><time>2026-05-01T06:48:40.981Z</time></trkpt><trkpt lat="38.8251753" lon="16.2505394"><ele>19.0</ele><time>2026-05-01T06:48:41.981Z</time></trkpt><trkpt lat="38.825407" lon="16.2508246"><ele>19.0</ele><time>2026-05-01T06:48:42.981Z</time></trkpt><trkpt lat="38.8256482" lon="16.2510988"><ele>19.0</ele><time>2026-05-01T06:48:43.98Z</time></trkpt><trkpt lat="38.8258872" lon="16.2513631"><ele>20.0</ele><time>2026-05-01T06:48:44.981Z</time></trkpt><trkpt lat="38.8261276" lon="16.2516165"><ele>21.0</ele><time>2026-05-01T06:48:45.98Z</time></trkpt><trkpt lat="38.8263669" lon="16.2518603"><ele>21.0</ele><time>2026-05-01T06:48:46.98Z</time></trkpt><trkpt lat="38.8266084" lon="16.2520992"><ele>21.0</ele><time>2026-05-01T06:48:47.98Z</time></trkpt><trkpt lat="38.8268529" lon="16.2523334"><ele>23.0</ele><time>2026-05-01T06:48:48.981Z</time></trkpt><trkpt lat="38.8271066" lon="16.2525534"><ele>25.0</ele><time>2026-05-01T06:48:49.98Z</time></trkpt><trkpt lat="38.8273697" lon="16.2527691"><ele>25.0</ele><time>2026-05-01T06:48:50.98Z</time></trkpt><trkpt lat="38.8276384" lon="16.2529832"><ele>25.0</ele><time>2026-05-01T06:48:51.98Z</time></trkpt><trkpt lat="38.8279011" lon="16.2531941"><ele>24.0</ele><time>2026-05-01T06:48:52.98Z</time></trkpt><trkpt lat="38.8281687" lon="16.2534006"><ele>23.0</ele><time>2026-05-01T06:48:53.981Z</time></trkpt><trkpt lat="38.8284372" lon="16.2536094"><ele>22.5</ele><time>2026-05-01T06:48:54.981Z</time></trkpt><trkpt lat="38.8287083" lon="16.2538169"><ele>22.0</ele><time>2026-05-01T06:48:55.98Z</time></trkpt><trkpt lat="38.8289829" lon="16.2540131"><ele>23.5</ele><time>2026-05-01T06:48:56.98Z</time></trkpt><trkpt lat="38.8292569" lon="16.2542117"><ele>25.0</ele><time>2026-05-01T06:48:57.98Z</time></trkpt><trkpt lat="38.8295367" lon="16.2544058"><ele>25.0</ele><time>2026-05-01T06:48:58.981Z</time></trkpt><trkpt lat="38.8298182" lon="16.2546018"><ele>25.0</ele><time>2026-05-01T06:48:59.981Z</time></trkpt><trkpt lat="38.8301038" lon="16.254795"><ele>25.5</ele><time>2026-05-01T06:49:00.98Z</time></trkpt><trkpt lat="38.8303845" lon="16.2549893"><ele>26.0</ele><time>2026-05-01T06:49:01.981Z</time></trkpt><trkpt lat="38.8306628" lon="16.2551845"><ele>26.0</ele><time>2026-05-01T06:49:02.981Z</time></trkpt><trkpt lat="38.8309341" lon="16.2553796"><ele>26.0</ele><time>2026-05-01T06:49:03.98Z</time></trkpt><trkpt lat="38.8312142" lon="16.2555662"><ele>27.5</ele><time>2026-05-01T06:49:04.98Z</time></trkpt><trkpt lat="38.8314923" lon="16.2557487"><ele>29.0</ele><time>2026-05-01T06:49:05.98Z</time></trkpt><trkpt lat="38.8317726" lon="16.2559316"><ele>27.5</ele><time>2026-05-01T06:49:06.981Z</time></trkpt><trkpt lat="38.8320535" lon="16.2561214"><ele>26.0</ele><time>2026-05-01T06:49:07.981Z</time></trkpt><trkpt lat="38.8323342" lon="16.2563092"><ele>26.0</ele><time>2026-05-01T06:49:08.98Z</time></trkpt><trkpt lat="38.8326178" lon="16.2564971"><ele>26.0</ele><time>2026-05-01T06:49:09.98Z</time></trkpt><trkpt lat="38.8329002" lon="16.2566875"><ele>26.0</ele><time>2026-05-01T06:49:10.98Z</time></trkpt><trkpt lat="38.833182" lon="16.2568766"><ele>26.0</ele><time>2026-05-01T06:49:11.98Z</time></trkpt><trkpt lat="38.8334607" lon="16.2570691"><ele>27.0</ele><time>2026-05-01T06:49:12.98Z</time></trkpt><trkpt lat="38.8337406" lon="16.2572626"><ele>28.0</ele><time>2026-05-01T06:49:13.98Z</time></trkpt><trkpt lat="38.8340173" lon="16.2574594"><ele>28.5</ele><time>2026-05-01T06:49:14.98Z</time></trkpt><trkpt lat="38.834298" lon="16.2576531"><ele>29.0</ele><time>2026-05-01T06:49:15.98Z</time></trkpt><trkpt lat="38.8345769" lon="16.257842"><ele>29.0</ele><time>2026-05-01T06:49:16.981Z</time></trkpt><trkpt lat="38.8348507" lon="16.2580339"><ele>29.0</ele><time>2026-05-01T06:49:17.98Z</time></trkpt><trkpt lat="38.8351313" lon="16.2582216"><ele>29.0</ele><time>2026-05-01T06:49:18.98Z</time></trkpt><trkpt lat="38.8354103" lon="16.2584108"><ele>29.0</ele><time>2026-05-01T06:49:19.98Z</time></trkpt><trkpt lat="38.8356857" lon="16.2586035"><ele>29.0</ele><time>2026-05-01T06:49:20.981Z</time></trkpt><trkpt lat="38.8359492" lon="16.2588038"><ele>29.0</ele><time>2026-05-01T06:49:21.98Z</time></trkpt><trkpt lat="38.8362128" lon="16.259008"><ele>29.0</ele><time>2026-05-01T06:49:22.98Z</time></trkpt><trkpt lat="38.8364739" lon="16.2592212"><ele>29.0</ele><time>2026-05-01T06:49:23.98Z</time></trkpt><trkpt lat="38.8367332" lon="16.2594374"><ele>28.0</ele><time>2026-05-01T06:49:24.98Z</time></trkpt><trkpt lat="38.8369893" lon="16.2596553"><ele>27.0</ele><time>2026-05-01T06:49:25.981Z</time></trkpt><trkpt lat="38.837243" lon="16.2598731"><ele>28.5</ele><time>2026-05-01T06:49:26.981Z</time></trkpt><trkpt lat="38.8374942" lon="16.2600872"><ele>30.0</ele><time>2026-05-01T06:49:27.981Z</time></trkpt><trkpt lat="38.8377422" lon="16.2603039"><ele>30.0</ele><time>2026-05-01T06:49:28.981Z</time></trkpt><trkpt lat="38.8379932" lon="16.2605123"><ele>30.0</ele><time>2026-05-01T06:49:29.98Z</time></trkpt><trkpt lat="38.8382483" lon="16.2607206"><ele>31.0</ele><time>2026-05-01T06:49:30.98Z</time></trkpt><trkpt lat="38.8385125" lon="16.260926"><ele>32.0</ele><time>2026-05-01T06:49:31.98Z</time></trkpt><trkpt lat="38.8387728" lon="16.2611312"><ele>32.0</ele><time>2026-05-01T06:49:32.981Z</time></trkpt><trkpt lat="38.8390411" lon="16.2613387"><ele>32.0</ele><time>2026-05-01T06:49:33.98Z</time></trkpt><trkpt lat="38.8393134" lon="16.2615485"><ele>34.0</ele><time>2026-05-01T06:49:34.98Z</time></trkpt><trkpt lat="38.8395873" lon="16.2617562"><ele>36.0</ele><time>2026-05-01T06:49:35.98Z</time></trkpt><trkpt lat="38.8398664" lon="16.2619559"><ele>34.0</ele><time>2026-05-01T06:49:36.98Z</time></trkpt><trkpt lat="38.8401569" lon="16.2621499"><ele>32.0</ele><time>2026-05-01T06:49:37.98Z</time></trkpt><trkpt lat="38.8404522" lon="16.2623397"><ele>32.0</ele><time>2026-05-01T06:49:38.981Z</time></trkpt><trkpt lat="38.8407424" lon="16.2625229"><ele>32.0</ele><time>2026-05-01T06:49:39.981Z</time></trkpt><trkpt lat="38.841034" lon="16.2626893"><ele>32.0</ele><time>2026-05-01T06:49:40.98Z</time></trkpt><trkpt lat="38.8413336" lon="16.2628405"><ele>32.0</ele><time>2026-05-01T06:49:41.981Z</time></trkpt><trkpt lat="38.8416301" lon="16.2629862"><ele>31.0</ele><time>2026-05-01T06:49:42.98Z</time></trkpt><trkpt lat="38.8419234" lon="16.2631315"><ele>30.0</ele><time>2026-05-01T06:49:43.98Z</time></trkpt><trkpt lat="38.8422155" lon="16.2632752"><ele>30.0</ele><time>2026-05-01T06:49:44.981Z</time></trkpt><trkpt lat="38.8425085" lon="16.2634188"><ele>30.0</ele><time>2026-05-01T06:49:45.98Z</time></trkpt><trkpt lat="38.8427996" lon="16.2635601"><ele>29.5</ele><time>2026-05-01T06:49:46.981Z</time></trkpt><trkpt lat="38.8430907" lon="16.2637058"><ele>29.0</ele><time>2026-05-01T06:49:47.98Z</time></trkpt><trkpt lat="38.8433822" lon="16.26385"><ele>28.5</ele><time>2026-05-01T06:49:48.98Z</time></trkpt><trkpt lat="38.8436724" lon="16.2640049"><ele>28.0</ele><time>2026-05-01T06:49:49.981Z</time></trkpt><trkpt lat="38.8439596" lon="16.2641606"><ele>28.0</ele><time>2026-05-01T06:49:50.981Z</time></trkpt><trkpt lat="38.8442453" lon="16.2643162"><ele>28.0</ele><time>2026-05-01T06:49:51.981Z</time></trkpt><trkpt lat="38.8445343" lon="16.2644721"><ele>28.5</ele><time>2026-05-01T06:49:52.981Z</time></trkpt><trkpt lat="38.8448196" lon="16.2646361"><ele>29.0</ele><time>2026-05-01T06:49:53.981Z</time></trkpt><trkpt lat="38.8451008" lon="16.264812"><ele>28.0</ele><time>2026-05-01T06:49:54.98Z</time></trkpt><trkpt lat="38.8453794" lon="16.2649905"><ele>27.0</ele><time>2026-05-01T06:49:55.98Z</time></trkpt><trkpt lat="38.8456587" lon="16.2651746"><ele>27.0</ele><time>2026-05-01T06:49:56.981Z</time></trkpt><trkpt lat="38.8459366" lon="16.2653702"><ele>27.0</ele><time>2026-05-01T06:49:57.981Z</time></trkpt><trkpt lat="38.846211" lon="16.2655703"><ele>27.0</ele><time>2026-05-01T06:49:58.981Z</time></trkpt><trkpt lat="38.84648" lon="16.2657772"><ele>27.0</ele><time>2026-05-01T06:49:59.981Z</time></trkpt><trkpt lat="38.8467487" lon="16.2659823"><ele>26.5</ele><time>2026-05-01T06:50:00.981Z</time></trkpt><trkpt lat="38.8470197" lon="16.2661989"><ele>26.0</ele><time>2026-05-01T06:50:01.981Z</time></trkpt><trkpt lat="38.8472907" lon="16.2664234"><ele>25.5</ele><time>2026-05-01T06:50:02.98Z</time></trkpt><trkpt lat="38.8475584" lon="16.2666436"><ele>25.0</ele><time>2026-05-01T06:50:03.98Z</time></trkpt><trkpt lat="38.8478217" lon="16.2668591"><ele>25.0</ele><time>2026-05-01T06:50:04.98Z</time></trkpt><trkpt lat="38.8480776" lon="16.2670607"><ele>25.0</ele><time>2026-05-01T06:50:05.98Z</time></trkpt><trkpt lat="38.8483228" lon="16.2672604"><ele>24.5</ele><time>2026-05-01T06:50:06.981Z</time></trkpt><trkpt lat="38.8485643" lon="16.2674562"><ele>24.0</ele><time>2026-05-01T06:50:07.98Z</time></trkpt><trkpt lat="38.8488091" lon="16.267658"><ele>24.0</ele><time>2026-05-01T06:50:08.98Z</time></trkpt><trkpt lat="38.8490632" lon="16.267863"><ele>24.0</ele><time>2026-05-01T06:50:09.98Z</time></trkpt><trkpt lat="38.8493216" lon="16.2680781"><ele>24.5</ele><time>2026-05-01T06:50:10.98Z</time></trkpt><trkpt lat="38.8495827" lon="16.2682933"><ele>25.0</ele><time>2026-05-01T06:50:11.98Z</time></trkpt><trkpt lat="38.8498464" lon="16.2685094"><ele>25.0</ele><time>2026-05-01T06:50:12.981Z</time></trkpt><trkpt lat="38.850104" lon="16.2687214"><ele>25.0</ele><time>2026-05-01T06:50:13.98Z</time></trkpt><trkpt lat="38.8503677" lon="16.2689384"><ele>24.0</ele><time>2026-05-01T06:50:14.981Z</time></trkpt><trkpt lat="38.8506386" lon="16.2691524"><ele>23.0</ele><time>2026-05-01T06:50:15.981Z</time></trkpt><trkpt lat="38.8509081" lon="16.2693706"><ele>22.0</ele><time>2026-05-01T06:50:16.98Z</time></trkpt><trkpt lat="38.8511735" lon="16.2695867"><ele>21.0</ele><time>2026-05-01T06:50:17.981Z</time></trkpt><trkpt lat="38.8514454" lon="16.2698054"><ele>21.0</ele><time>2026-05-01T06:50:18.981Z</time></trkpt><trkpt lat="38.8517137" lon="16.2700251"><ele>21.0</ele><time>2026-05-01T06:50:19.98Z</time></trkpt><trkpt lat="38.8519878" lon="16.2702415"><ele>22.0</ele><time>2026-05-01T06:50:20.98Z</time></trkpt><trkpt lat="38.8522569" lon="16.270457"><ele>23.0</ele><time>2026-05-01T06:50:21.98Z</time></trkpt><trkpt lat="38.8525231" lon="16.2706767"><ele>22.0</ele><time>2026-05-01T06:50:22.98Z</time></trkpt><trkpt lat="38.8527893" lon="16.2708894"><ele>21.0</ele><time>2026-05-01T06:50:23.98Z</time></trkpt><trkpt lat="38.8530545" lon="16.2711025"><ele>21.0</ele><time>2026-05-01T06:50:24.98Z</time></trkpt><trkpt lat="38.8533217" lon="16.2713156"><ele>21.0</ele><time>2026-05-01T06:50:25.98Z</time></trkpt><trkpt lat="38.8535861" lon="16.2715379"><ele>21.0</ele><time>2026-05-01T06:50:26.98Z</time></trkpt><trkpt lat="38.8538528" lon="16.271756"><ele>21.0</ele><time>2026-05-01T06:50:27.98Z</time></trkpt><trkpt lat="38.8541206" lon="16.2719672"><ele>21.0</ele><time>2026-05-01T06:50:28.98Z</time></trkpt><trkpt lat="38.8543783" lon="16.2721798"><ele>21.0</ele><time>2026-05-01T06:50:29.98Z</time></trkpt><trkpt lat="38.8546301" lon="16.2723836"><ele>21.0</ele><time>2026-05-01T06:50:30.981Z</time></trkpt><trkpt lat="38.8548749" lon="16.2725838"><ele>21.0</ele><time>2026-05-01T06:50:31.981Z</time></trkpt><trkpt lat="38.8551186" lon="16.2727752"><ele>20.5</ele><time>2026-05-01T06:50:32.981Z</time></trkpt><trkpt lat="38.8553595" lon="16.272961"><ele>20.0</ele><time>2026-05-01T06:50:33.981Z</time></trkpt><trkpt lat="38.8555963" lon="16.2731423"><ele>19.5</ele><time>2026-05-01T06:50:34.981Z</time></trkpt><trkpt lat="38.8558266" lon="16.2733218"><ele>19.0</ele><time>2026-05-01T06:50:35.98Z</time></trkpt><trkpt lat="38.8560571" lon="16.2735014"><ele>18.0</ele><time>2026-05-01T06:50:36.98Z</time></trkpt><trkpt lat="38.8562881" lon="16.2736857"><ele>17.0</ele><time>2026-05-01T06:50:37.981Z</time></trkpt><trkpt lat="38.8565272" lon="16.2738637"><ele>17.5</ele><time>2026-05-01T06:50:38.98Z</time></trkpt><trkpt lat="38.8567849" lon="16.274029"><ele>18.0</ele><time>2026-05-01T06:50:39.98Z</time></trkpt><trkpt lat="38.8570592" lon="16.274188"><ele>17.5</ele><time>2026-05-01T06:50:40.981Z</time></trkpt><trkpt lat="38.8573483" lon="16.2743441"><ele>17.0</ele><time>2026-05-01T06:50:41.981Z</time></trkpt><trkpt lat="38.8576503" lon="16.2744948"><ele>17.0</ele><time>2026-05-01T06:50:42.98Z</time></trkpt><trkpt lat="38.8579612" lon="16.2746341"><ele>17.0</ele><time>2026-05-01T06:50:43.98Z</time></trkpt><trkpt lat="38.8582865" lon="16.2747627"><ele>17.0</ele><time>2026-05-01T06:50:44.98Z</time></trkpt><trkpt lat="38.8586229" lon="16.2748777"><ele>17.0</ele><time>2026-05-01T06:50:45.98Z</time></trkpt><trkpt lat="38.858965" lon="16.2749856"><ele>18.0</ele><time>2026-05-01T06:50:46.98Z</time></trkpt><trkpt lat="38.8592948" lon="16.2750803"><ele>19.0</ele><time>2026-05-01T06:50:47.98Z</time></trkpt><trkpt lat="38.8596121" lon="16.2751648"><ele>19.0</ele><time>2026-05-01T06:50:48.981Z</time></trkpt><trkpt lat="38.8599145" lon="16.2752466"><ele>19.0</ele><time>2026-05-01T06:50:49.98Z</time></trkpt><trkpt lat="38.8602142" lon="16.2753231"><ele>18.0</ele><time>2026-05-01T06:50:50.98Z</time></trkpt><trkpt lat="38.860512" lon="16.2754019"><ele>17.0</ele><time>2026-05-01T06:50:51.98Z</time></trkpt><trkpt lat="38.8608132" lon="16.2754859"><ele>16.5</ele><time>2026-05-01T06:50:52.98Z</time></trkpt><trkpt lat="38.8611143" lon="16.2755783"><ele>16.0</ele><time>2026-05-01T06:50:53.981Z</time></trkpt><trkpt lat="38.8614119" lon="16.2756768"><ele>17.0</ele><time>2026-05-01T06:50:54.98Z</time></trkpt><trkpt lat="38.8617045" lon="16.2757806"><ele>18.0</ele><time>2026-05-01T06:50:55.98Z</time></trkpt><trkpt lat="38.8619913" lon="16.2759034"><ele>19.5</ele><time>2026-05-01T06:50:56.98Z</time></trkpt><trkpt lat="38.8622759" lon="16.2760405"><ele>21.0</ele><time>2026-05-01T06:50:57.98Z</time></trkpt><trkpt lat="38.8625683" lon="16.2761895"><ele>22.5</ele><time>2026-05-01T06:50:58.98Z</time></trkpt><trkpt lat="38.8628561" lon="16.2763549"><ele>24.0</ele><time>2026-05-01T06:50:59.98Z</time></trkpt><trkpt lat="38.8631422" lon="16.2765299"><ele>24.5</ele><time>2026-05-01T06:51:00.981Z</time></trkpt><trkpt lat="38.8634243" lon="16.2767174"><ele>25.0</ele><time>2026-05-01T06:51:01.98Z</time></trkpt><trkpt lat="38.8636952" lon="16.2769174"><ele>25.5</ele><time>2026-05-01T06:51:02.98Z</time></trkpt><trkpt lat="38.8639549" lon="16.2771331"><ele>26.0</ele><time>2026-05-01T06:51:03.981Z</time></trkpt><trkpt lat="38.8642091" lon="16.277356"><ele>27.5</ele><time>2026-05-01T06:51:04.98Z</time></trkpt><trkpt lat="38.8644647" lon="16.2775924"><ele>29.0</ele><time>2026-05-01T06:51:05.981Z</time></trkpt><trkpt lat="38.864707" lon="16.2778506"><ele>29.5</ele><time>2026-05-01T06:51:06.98Z</time></trkpt><trkpt lat="38.8649459" lon="16.278111"><ele>30.0</ele><time>2026-05-01T06:51:07.98Z</time></trkpt><trkpt lat="38.8651828" lon="16.2783653"><ele>30.0</ele><time>2026-05-01T06:51:08.981Z</time></trkpt><trkpt lat="38.8654235" lon="16.2786106"><ele>30.0</ele><time>2026-05-01T06:51:09.98Z</time></trkpt><trkpt lat="38.8656628" lon="16.2788556"><ele>30.5</ele><time>2026-05-01T06:51:10.981Z</time></trkpt><trkpt lat="38.8659024" lon="16.2790966"><ele>31.0</ele><time>2026-05-01T06:51:11.98Z</time></trkpt><trkpt lat="38.8661412" lon="16.2793322"><ele>31.0</ele><time>2026-05-01T06:51:12.981Z</time></trkpt><trkpt lat="38.8663805" lon="16.2795749"><ele>31.0</ele><time>2026-05-01T06:51:13.98Z</time></trkpt><trkpt lat="38.8666211" lon="16.2798171"><ele>30.5</ele><time>2026-05-01T06:51:14.98Z</time></trkpt><trkpt lat="38.8668642" lon="16.2800518"><ele>30.0</ele><time>2026-05-01T06:51:15.981Z</time></trkpt><trkpt lat="38.8671181" lon="16.2802708"><ele>30.0</ele><time>2026-05-01T06:51:16.981Z</time></trkpt><trkpt lat="38.8673867" lon="16.2804783"><ele>30.0</ele><time>2026-05-01T06:51:17.98Z</time></trkpt><trkpt lat="38.8676619" lon="16.280683"><ele>30.0</ele><time>2026-05-01T06:51:18.981Z</time></trkpt><trkpt lat="38.8679401" lon="16.2808712"><ele>30.0</ele><time>2026-05-01T06:51:19.98Z</time></trkpt><trkpt lat="38.8682343" lon="16.2810356"><ele>30.5</ele><time>2026-05-01T06:51:20.981Z</time></trkpt><trkpt lat="38.8685292" lon="16.2811874"><ele>31.0</ele><time>2026-05-01T06:51:21.98Z</time></trkpt><trkpt lat="38.8688243" lon="16.2813174"><ele>31.0</ele><time>2026-05-01T06:51:22.98Z</time></trkpt><trkpt lat="38.8691238" lon="16.2814191"><ele>31.0</ele><time>2026-05-01T06:51:23.98Z</time></trkpt><trkpt lat="38.8694227" lon="16.2815037"><ele>32.0</ele><time>2026-05-01T06:51:24.981Z</time></trkpt><trkpt lat="38.8697184" lon="16.2815752"><ele>33.0</ele><time>2026-05-01T06:51:25.98Z</time></trkpt><trkpt lat="38.8700197" lon="16.2816307"><ele>33.0</ele><time>2026-05-01T06:51:26.98Z</time></trkpt><trkpt lat="38.8703229" lon="16.281665"><ele>33.0</ele><time>2026-05-01T06:51:27.981Z</time></trkpt><trkpt lat="38.8706279" lon="16.2816749"><ele>33.0</ele><time>2026-05-01T06:51:28.981Z</time></trkpt><trkpt lat="38.8709339" lon="16.281693"><ele>33.0</ele><time>2026-05-01T06:51:29.98Z</time></trkpt><trkpt lat="38.8712341" lon="16.2816862"><ele>31.5</ele><time>2026-05-01T06:51:30.98Z</time></trkpt><trkpt lat="38.8715359" lon="16.2816626"><ele>30.0</ele><time>2026-05-01T06:51:31.98Z</time></trkpt><trkpt lat="38.871841" lon="16.2816375"><ele>29.5</ele><time>2026-05-01T06:51:32.98Z</time></trkpt><trkpt lat="38.8721411" lon="16.2816246"><ele>29.0</ele><time>2026-05-01T06:51:33.981Z</time></trkpt><trkpt lat="38.8724383" lon="16.281615"><ele>28.0</ele><time>2026-05-01T06:51:34.98Z</time></trkpt><trkpt lat="38.8727432" lon="16.2816064"><ele>27.0</ele><time>2026-05-01T06:51:35.98Z</time></trkpt><trkpt lat="38.8730624" lon="16.2816008"><ele>27.0</ele><time>2026-05-01T06:51:36.98Z</time></trkpt><trkpt lat="38.873388" lon="16.2815992"><ele>27.0</ele><time>2026-05-01T06:51:37.981Z</time></trkpt><trkpt lat="38.8737158" lon="16.2815894"><ele>27.0</ele><time>2026-05-01T06:51:38.98Z</time></trkpt><trkpt lat="38.8740527" lon="16.2815852"><ele>27.0</ele><time>2026-05-01T06:51:39.98Z</time></trkpt><trkpt lat="38.8743906" lon="16.2815861"><ele>27.5</ele><time>2026-05-01T06:51:40.98Z</time></trkpt><trkpt lat="38.8747284" lon="16.281583"><ele>28.0</ele><time>2026-05-01T06:51:41.98Z</time></trkpt><trkpt lat="38.8750617" lon="16.2815843"><ele>23.5</ele><time>2026-05-01T06:51:42.98Z</time></trkpt><trkpt lat="38.8753888" lon="16.2815802"><ele>19.0</ele><time>2026-05-01T06:51:43.98Z</time></trkpt><trkpt lat="38.8757148" lon="16.281572"><ele>19.5</ele><time>2026-05-01T06:51:44.981Z</time></trkpt><trkpt lat="38.8760405" lon="16.2815591"><ele>20.0</ele><time>2026-05-01T06:51:45.98Z</time></trkpt><trkpt lat="38.8763653" lon="16.2815427"><ele>20.0</ele><time>2026-05-01T06:51:46.98Z</time></trkpt><trkpt lat="38.8766828" lon="16.2815329"><ele>20.0</ele><time>2026-05-01T06:51:47.98Z</time></trkpt><trkpt lat="38.8769931" lon="16.2815253"><ele>20.0</ele><time>2026-05-01T06:51:48.98Z</time></trkpt><trkpt lat="38.8772976" lon="16.2815162"><ele>20.0</ele><time>2026-05-01T06:51:49.981Z</time></trkpt><trkpt lat="38.8775946" lon="16.28151"><ele>19.5</ele><time>2026-05-01T06:51:50.981Z</time></trkpt><trkpt lat="38.8778906" lon="16.2815021"><ele>19.0</ele><time>2026-05-01T06:51:51.98Z</time></trkpt><trkpt lat="38.8781837" lon="16.2814974"><ele>19.0</ele><time>2026-05-01T06:51:52.981Z</time></trkpt><trkpt lat="38.8784819" lon="16.2814981"><ele>19.0</ele><time>2026-05-01T06:51:53.98Z</time></trkpt><trkpt lat="38.8787872" lon="16.2814883"><ele>19.0</ele><time>2026-05-01T06:51:54.981Z</time></trkpt><trkpt lat="38.8790936" lon="16.2814806"><ele>19.0</ele><time>2026-05-01T06:51:55.98Z</time></trkpt><trkpt lat="38.8793951" lon="16.281476"><ele>19.5</ele><time>2026-05-01T06:51:56.981Z</time></trkpt><trkpt lat="38.879697" lon="16.2814651"><ele>20.0</ele><time>2026-05-01T06:51:57.98Z</time></trkpt><trkpt lat="38.8799936" lon="16.2814517"><ele>19.5</ele><time>2026-05-01T06:51:58.981Z</time></trkpt><trkpt lat="38.8802825" lon="16.2814352"><ele>19.0</ele><time>2026-05-01T06:51:59.98Z</time></trkpt><trkpt lat="38.8805774" lon="16.2814119"><ele>19.0</ele><time>2026-05-01T06:52:00.98Z</time></trkpt><trkpt lat="38.88087" lon="16.2813854"><ele>19.0</ele><time>2026-05-01T06:52:01.98Z</time></trkpt><trkpt lat="38.8811599" lon="16.2813499"><ele>19.5</ele><time>2026-05-01T06:52:02.981Z</time></trkpt><trkpt lat="38.8814557" lon="16.281311"><ele>20.0</ele><time>2026-05-01T06:52:03.98Z</time></trkpt><trkpt lat="38.8817612" lon="16.2812601"><ele>19.5</ele><time>2026-05-01T06:52:04.98Z</time></trkpt><trkpt lat="38.882068" lon="16.2812162"><ele>19.0</ele><time>2026-05-01T06:52:05.98Z</time></trkpt><trkpt lat="38.8823717" lon="16.2811681"><ele>19.5</ele><time>2026-05-01T06:52:06.98Z</time></trkpt><trkpt lat="38.882671" lon="16.281119"><ele>20.0</ele><time>2026-05-01T06:52:07.981Z</time></trkpt><trkpt lat="38.8829737" lon="16.2810728"><ele>20.0</ele><time>2026-05-01T06:52:08.98Z</time></trkpt><trkpt lat="38.8832732" lon="16.2810298"><ele>20.0</ele><time>2026-05-01T06:52:09.98Z</time></trkpt><trkpt lat="38.883573" lon="16.2809854"><ele>19.0</ele><time>2026-05-01T06:52:10.98Z</time></trkpt><trkpt lat="38.8838693" lon="16.2809474"><ele>18.0</ele><time>2026-05-01T06:52:11.98Z</time></trkpt><trkpt lat="38.8841697" lon="16.2809002"><ele>18.5</ele><time>2026-05-01T06:52:12.98Z</time></trkpt><trkpt lat="38.8844715" lon="16.2808521"><ele>19.0</ele><time>2026-05-01T06:52:13.98Z</time></trkpt><trkpt lat="38.8847772" lon="16.2808046"><ele>19.0</ele><time>2026-05-01T06:52:14.981Z</time></trkpt><trkpt lat="38.8850857" lon="16.2807523"><ele>19.0</ele><time>2026-05-01T06:52:15.981Z</time></trkpt><trkpt lat="38.8853879" lon="16.2807062"><ele>18.5</ele><time>2026-05-01T06:52:16.98Z</time></trkpt><trkpt lat="38.8856897" lon="16.2806562"><ele>18.0</ele><time>2026-05-01T06:52:17.98Z</time></trkpt><trkpt lat="38.8859876" lon="16.2806053"><ele>19.5</ele><time>2026-05-01T06:52:18.98Z</time></trkpt><trkpt lat="38.8862857" lon="16.2805615"><ele>21.0</ele><time>2026-05-01T06:52:19.98Z</time></trkpt><trkpt lat="38.8865802" lon="16.2805228"><ele>20.0</ele><time>2026-05-01T06:52:20.98Z</time></trkpt><trkpt lat="38.8868792" lon="16.2804799"><ele>19.0</ele><time>2026-05-01T06:52:21.98Z</time></trkpt><trkpt lat="38.8871818" lon="16.2804388"><ele>19.0</ele><time>2026-05-01T06:52:22.98Z</time></trkpt><trkpt lat="38.8874827" lon="16.2803871"><ele>19.0</ele><time>2026-05-01T06:52:23.98Z</time></trkpt><trkpt lat="38.8877825" lon="16.2803332"><ele>19.5</ele><time>2026-05-01T06:52:24.98Z</time></trkpt><trkpt lat="38.888074" lon="16.2802855"><ele>20.0</ele><time>2026-05-01T06:52:25.981Z</time></trkpt><trkpt lat="38.8883679" lon="16.2802396"><ele>20.0</ele><time>2026-05-01T06:52:26.981Z</time></trkpt><trkpt lat="38.8886656" lon="16.2801978"><ele>20.0</ele><time>2026-05-01T06:52:27.981Z</time></trkpt><trkpt lat="38.8889624" lon="16.2801584"><ele>20.0</ele><time>2026-05-01T06:52:28.98Z</time></trkpt><trkpt lat="38.8892572" lon="16.2801153"><ele>20.0</ele><time>2026-05-01T06:52:29.98Z</time></trkpt><trkpt lat="38.8895459" lon="16.2800754"><ele>19.5</ele><time>2026-05-01T06:52:30.98Z</time></trkpt><trkpt lat="38.889836" lon="16.2800302"><ele>19.0</ele><time>2026-05-01T06:52:31.98Z</time></trkpt><trkpt lat="38.8901284" lon="16.2799807"><ele>19.0</ele><time>2026-05-01T06:52:32.98Z</time></trkpt><trkpt lat="38.8904172" lon="16.279936"><ele>19.0</ele><time>2026-05-01T06:52:33.98Z</time></trkpt><trkpt lat="38.8907081" lon="16.27989"><ele>18.5</ele><time>2026-05-01T06:52:34.981Z</time></trkpt><trkpt lat="38.890999" lon="16.2798325"><ele>18.0</ele><time>2026-05-01T06:52:35.98Z</time></trkpt><trkpt lat="38.8912828" lon="16.279776"><ele>19.0</ele><time>2026-05-01T06:52:36.981Z</time></trkpt><trkpt lat="38.8915665" lon="16.2797219"><ele>20.0</ele><time>2026-05-01T06:52:37.98Z</time></trkpt><trkpt lat="38.8918447" lon="16.2796783"><ele>20.0</ele><time>2026-05-01T06:52:38.98Z</time></trkpt><trkpt lat="38.8921212" lon="16.2796381"><ele>20.0</ele><time>2026-05-01T06:52:39.98Z</time></trkpt><trkpt lat="38.892404" lon="16.2795958"><ele>20.0</ele><time>2026-05-01T06:52:40.98Z</time></trkpt><trkpt lat="38.892685" lon="16.2795537"><ele>20.0</ele><time>2026-05-01T06:52:41.98Z</time></trkpt><trkpt lat="38.8929679" lon="16.2795163"><ele>20.0</ele><time>2026-05-01T06:52:42.98Z</time></trkpt><trkpt lat="38.8932516" lon="16.2794708"><ele>20.0</ele><time>2026-05-01T06:52:43.98Z</time></trkpt><trkpt lat="38.8935411" lon="16.2794271"><ele>19.5</ele><time>2026-05-01T06:52:44.98Z</time></trkpt><trkpt lat="38.893837" lon="16.2793763"><ele>19.0</ele><time>2026-05-01T06:52:45.981Z</time></trkpt><trkpt lat="38.8941309" lon="16.279328"><ele>18.5</ele><time>2026-05-01T06:52:46.98Z</time></trkpt><trkpt lat="38.8944348" lon="16.2792839"><ele>18.0</ele><time>2026-05-01T06:52:47.98Z</time></trkpt><trkpt lat="38.8947386" lon="16.2792408"><ele>18.0</ele><time>2026-05-01T06:52:48.98Z</time></trkpt><trkpt lat="38.895051" lon="16.2791895"><ele>18.0</ele><time>2026-05-01T06:52:49.98Z</time></trkpt><trkpt lat="38.895362" lon="16.2791437"><ele>18.5</ele><time>2026-05-01T06:52:50.98Z</time></trkpt><trkpt lat="38.8956665" lon="16.2790984"><ele>19.0</ele><time>2026-05-01T06:52:51.98Z</time></trkpt><trkpt lat="38.895966" lon="16.2790524"><ele>18.0</ele><time>2026-05-01T06:52:52.981Z</time></trkpt><trkpt lat="38.8962554" lon="16.279007"><ele>17.0</ele><time>2026-05-01T06:52:53.981Z</time></trkpt><trkpt lat="38.8965404" lon="16.2789632"><ele>18.0</ele><time>2026-05-01T06:52:54.981Z</time></trkpt><trkpt lat="38.8968324" lon="16.2789229"><ele>19.0</ele><time>2026-05-01T06:52:55.98Z</time></trkpt><trkpt lat="38.8971356" lon="16.2788798"><ele>19.0</ele><time>2026-05-01T06:52:56.98Z</time></trkpt><trkpt lat="38.8974379" lon="16.2788319"><ele>19.0</ele><time>2026-05-01T06:52:57.981Z</time></trkpt><trkpt lat="38.8977436" lon="16.2787799"><ele>19.5</ele><time>2026-05-01T06:52:58.98Z</time></trkpt><trkpt lat="38.8980587" lon="16.2787282"><ele>20.0</ele><time>2026-05-01T06:52:59.981Z</time></trkpt><trkpt lat="38.8983741" lon="16.278683"><ele>19.0</ele><time>2026-05-01T06:53:00.98Z</time></trkpt><trkpt lat="38.8986871" lon="16.2786368"><ele>18.0</ele><time>2026-05-01T06:53:01.98Z</time></trkpt><trkpt lat="38.8990016" lon="16.278588"><ele>18.5</ele><time>2026-05-01T06:53:02.98Z</time></trkpt><trkpt lat="38.8993111" lon="16.2785309"><ele>19.0</ele><time>2026-05-01T06:53:03.98Z</time></trkpt><trkpt lat="38.8996225" lon="16.2784832"><ele>19.0</ele><time>2026-05-01T06:53:04.981Z</time></trkpt><trkpt lat="38.8999344" lon="16.2784381"><ele>19.0</ele><time>2026-05-01T06:53:05.98Z</time></trkpt><trkpt lat="38.9002441" lon="16.2783953"><ele>19.5</ele><time>2026-05-01T06:53:06.98Z</time></trkpt><trkpt lat="38.9005455" lon="16.2783523"><ele>20.0</ele><time>2026-05-01T06:53:07.98Z</time></trkpt><trkpt lat="38.9008426" lon="16.2783083"><ele>19.5</ele><time>2026-05-01T06:53:08.98Z</time></trkpt><trkpt lat="38.9011368" lon="16.2782694"><ele>19.0</ele><time>2026-05-01T06:53:09.981Z</time></trkpt><trkpt lat="38.901436" lon="16.2782142"><ele>19.0</ele><time>2026-05-01T06:53:10.98Z</time></trkpt><trkpt lat="38.9017355" lon="16.2781589"><ele>19.0</ele><time>2026-05-01T06:53:11.981Z</time></trkpt><trkpt lat="38.9020301" lon="16.278095"><ele>19.0</ele><time>2026-05-01T06:53:12.98Z</time></trkpt><trkpt lat="38.9023308" lon="16.2780077"><ele>19.0</ele><time>2026-05-01T06:53:13.98Z</time></trkpt><trkpt lat="38.9026305" lon="16.2779017"><ele>19.0</ele><time>2026-05-01T06:53:14.981Z</time></trkpt><trkpt lat="38.902929" lon="16.2777818"><ele>19.0</ele><time>2026-05-01T06:53:15.98Z</time></trkpt><trkpt lat="38.9032301" lon="16.2776451"><ele>19.0</ele><time>2026-05-01T06:53:16.981Z</time></trkpt><trkpt lat="38.9035291" lon="16.2775012"><ele>19.0</ele><time>2026-05-01T06:53:17.981Z</time></trkpt><trkpt lat="38.9038213" lon="16.2773443"><ele>20.0</ele><time>2026-05-01T06:53:18.98Z</time></trkpt><trkpt lat="38.9041073" lon="16.2771714"><ele>21.0</ele><time>2026-05-01T06:53:19.98Z</time></trkpt><trkpt lat="38.9044053" lon="16.2769798"><ele>21.0</ele><time>2026-05-01T06:53:20.98Z</time></trkpt><trkpt lat="38.9047047" lon="16.2767702"><ele>21.0</ele><time>2026-05-01T06:53:21.98Z</time></trkpt><trkpt lat="38.9049928" lon="16.27655"><ele>21.0</ele><time>2026-05-01T06:53:22.98Z</time></trkpt><trkpt lat="38.90527" lon="16.2763213"><ele>21.0</ele><time>2026-05-01T06:53:23.98Z</time></trkpt><trkpt lat="38.9055407" lon="16.2760876"><ele>21.0</ele><time>2026-05-01T06:53:24.98Z</time></trkpt><trkpt lat="38.9058075" lon="16.2758468"><ele>21.0</ele><time>2026-05-01T06:53:25.98Z</time></trkpt><trkpt lat="38.9060736" lon="16.2756117"><ele>22.0</ele><time>2026-05-01T06:53:26.98Z</time></trkpt><trkpt lat="38.9063474" lon="16.2753764"><ele>23.0</ele><time>2026-05-01T06:53:27.981Z</time></trkpt><trkpt lat="38.9066316" lon="16.2751411"><ele>24.5</ele><time>2026-05-01T06:53:28.981Z</time></trkpt><trkpt lat="38.9069115" lon="16.2749085"><ele>26.0</ele><time>2026-05-01T06:53:29.98Z</time></trkpt><trkpt lat="38.9071771" lon="16.2746805"><ele>26.0</ele><time>2026-05-01T06:53:30.981Z</time></trkpt><trkpt lat="38.9074466" lon="16.2744512"><ele>26.0</ele><time>2026-05-01T06:53:31.98Z</time></trkpt><trkpt lat="38.9077162" lon="16.2742307"><ele>26.5</ele><time>2026-05-01T06:53:32.981Z</time></trkpt><trkpt lat="38.9079874" lon="16.2740066"><ele>27.0</ele><time>2026-05-01T06:53:33.98Z</time></trkpt><trkpt lat="38.9082582" lon="16.2737824"><ele>26.5</ele><time>2026-05-01T06:53:34.981Z</time></trkpt><trkpt lat="38.9085398" lon="16.2735488"><ele>26.0</ele><time>2026-05-01T06:53:35.98Z</time></trkpt><trkpt lat="38.9088324" lon="16.2732969"><ele>26.0</ele><time>2026-05-01T06:53:36.98Z</time></trkpt><trkpt lat="38.9091392" lon="16.273034"><ele>26.0</ele><time>2026-05-01T06:53:37.98Z</time></trkpt><trkpt lat="38.9094622" lon="16.2727557"><ele>25.5</ele><time>2026-05-01T06:53:38.981Z</time></trkpt><trkpt lat="38.9097864" lon="16.2724707"><ele>25.0</ele><time>2026-05-01T06:53:39.98Z</time></trkpt><trkpt lat="38.9101208" lon="16.2721794"><ele>25.0</ele><time>2026-05-01T06:53:40.98Z</time></trkpt><trkpt lat="38.9104569" lon="16.2718787"><ele>25.0</ele><time>2026-05-01T06:53:41.98Z</time></trkpt><trkpt lat="38.9108022" lon="16.2715767"><ele>25.0</ele><time>2026-05-01T06:53:42.98Z</time></trkpt><trkpt lat="38.9111538" lon="16.2712699"><ele>25.0</ele><time>2026-05-01T06:53:43.981Z</time></trkpt><trkpt lat="38.9115089" lon="16.2709564"><ele>25.0</ele><time>2026-05-01T06:53:44.98Z</time></trkpt><trkpt lat="38.9118684" lon="16.2706432"><ele>25.0</ele><time>2026-05-01T06:53:45.98Z</time></trkpt><trkpt lat="38.9122268" lon="16.2703289"><ele>25.5</ele><time>2026-05-01T06:53:46.981Z</time></trkpt><trkpt lat="38.9125859" lon="16.2700067"><ele>26.0</ele><time>2026-05-01T06:53:47.981Z</time></trkpt><trkpt lat="38.9129394" lon="16.2696782"><ele>26.0</ele><time>2026-05-01T06:53:48.98Z</time></trkpt><trkpt lat="38.9132852" lon="16.26936"><ele>26.0</ele><time>2026-05-01T06:53:49.98Z</time></trkpt><trkpt lat="38.9136121" lon="16.2690691"><ele>26.0</ele><time>2026-05-01T06:53:50.98Z</time></trkpt><trkpt lat="38.9139246" lon="16.2688155"><ele>26.0</ele><time>2026-05-01T06:53:51.98Z</time></trkpt><trkpt lat="38.9142304" lon="16.2685773"><ele>26.0</ele><time>2026-05-01T06:53:52.98Z</time></trkpt><trkpt lat="38.9145298" lon="16.2683354"><ele>26.0</ele><time>2026-05-01T06:53:53.981Z</time></trkpt><trkpt lat="38.9148324" lon="16.2680868"><ele>27.0</ele><time>2026-05-01T06:53:54.98Z</time></trkpt><trkpt lat="38.9151388" lon="16.2678305"><ele>28.0</ele><time>2026-05-01T06:53:55.981Z</time></trkpt><trkpt lat="38.9154417" lon="16.2675739"><ele>28.0</ele><time>2026-05-01T06:53:56.98Z</time></trkpt><trkpt lat="38.9157335" lon="16.2673226"><ele>28.0</ele><time>2026-05-01T06:53:57.981Z</time></trkpt><trkpt lat="38.9160068" lon="16.26709"><ele>29.0</ele><time>2026-05-01T06:53:58.98Z</time></trkpt><trkpt lat="38.9162679" lon="16.2668709"><ele>30.0</ele><time>2026-05-01T06:53:59.98Z</time></trkpt><trkpt lat="38.9165166" lon="16.2666657"><ele>30.0</ele><time>2026-05-01T06:54:00.981Z</time></trkpt><trkpt lat="38.9167603" lon="16.2664604"><ele>30.0</ele><time>2026-05-01T06:54:01.98Z</time></trkpt><trkpt lat="38.9169973" lon="16.2662577"><ele>29.5</ele><time>2026-05-01T06:54:02.981Z</time></trkpt><trkpt lat="38.9172202" lon="16.2660827"><ele>29.0</ele><time>2026-05-01T06:54:03.98Z</time></trkpt><trkpt lat="38.9174268" lon="16.2659243"><ele>28.333333333333332</ele><time>2026-05-01T06:54:04.98Z</time></trkpt><trkpt lat="38.9176169" lon="16.2657862"><ele>27.666666666666664</ele><time>2026-05-01T06:54:05.98Z</time></trkpt><trkpt lat="38.9177906" lon="16.2656719"><ele>27.0</ele><time>2026-05-01T06:54:06.981Z</time></trkpt><trkpt lat="38.9179522" lon="16.2655927"><ele>27.0</ele><time>2026-05-01T06:54:07.981Z</time></trkpt><trkpt lat="38.9181049" lon="16.2655516"><ele>27.0</ele><time>2026-05-01T06:54:08.981Z</time></trkpt><trkpt lat="38.9182619" lon="16.2655415"><ele>27.0</ele><time>2026-05-01T06:54:09.981Z</time></trkpt><trkpt lat="38.9184111" lon="16.2655748"><ele>27.25</ele><time>2026-05-01T06:54:10.981Z</time></trkpt><trkpt lat="38.9185487" lon="16.2656504"><ele>27.5</ele><time>2026-05-01T06:54:11.981Z</time></trkpt><trkpt lat="38.9186721" lon="16.2657651"><ele>27.75</ele><time>2026-05-01T06:54:12.981Z</time></trkpt><trkpt lat="38.9187686" lon="16.2658991"><ele>28.0</ele><time>2026-05-01T06:54:13.98Z</time></trkpt><trkpt lat="38.9188378" lon="16.2660548"><ele>28.0</ele><time>2026-05-01T06:54:14.98Z</time></trkpt><trkpt lat="38.9188755" lon="16.2662191"><ele>28.0</ele><time>2026-05-01T06:54:15.98Z</time></trkpt><trkpt lat="38.91888" lon="16.266384"><ele>28.0</ele><time>2026-05-01T06:54:16.98Z</time></trkpt><trkpt lat="38.9188489" lon="16.2665464"><ele>28.0</ele><time>2026-05-01T06:54:17.981Z</time></trkpt><trkpt lat="38.9187848" lon="16.2666967"><ele>28.5</ele><time>2026-05-01T06:54:18.98Z</time></trkpt><trkpt lat="38.9186942" lon="16.2668258"><ele>29.0</ele><time>2026-05-01T06:54:19.98Z</time></trkpt><trkpt lat="38.9185729" lon="16.2669331"><ele>29.5</ele><time>2026-05-01T06:54:20.98Z</time></trkpt><trkpt lat="38.9184324" lon="16.2670131"><ele>30.0</ele><time>2026-05-01T06:54:21.98Z</time></trkpt><trkpt lat="38.9182703" lon="16.2670825"><ele>30.0</ele><time>2026-05-01T06:54:22.98Z</time></trkpt><trkpt lat="38.9181038" lon="16.2671348"><ele>30.0</ele><time>2026-05-01T06:54:23.98Z</time></trkpt><trkpt lat="38.9179346" lon="16.2671736"><ele>30.0</ele><time>2026-05-01T06:54:24.98Z</time></trkpt><trkpt lat="38.9177562" lon="16.2671831"><ele>30.0</ele><time>2026-05-01T06:54:25.98Z</time></trkpt><trkpt lat="38.9175816" lon="16.2671578"><ele>30.0</ele><time>2026-05-01T06:54:26.98Z</time></trkpt><trkpt lat="38.9174032" lon="16.2670959"><ele>30.0</ele><time>2026-05-01T06:54:27.98Z</time></trkpt><trkpt lat="38.9172361" lon="16.2669983"><ele>30.0</ele><time>2026-05-01T06:54:28.981Z</time></trkpt><trkpt lat="38.9170934" lon="16.2668809"><ele>30.0</ele><time>2026-05-01T06:54:29.98Z</time></trkpt><trkpt lat="38.9169674" lon="16.2667372"><ele>30.0</ele><time>2026-05-01T06:54:30.981Z</time></trkpt><trkpt lat="38.9168396" lon="16.266566"><ele>29.333333333333336</ele><time>2026-05-01T06:54:31.98Z</time></trkpt><trkpt lat="38.9167123" lon="16.266369"><ele>28.666666666666668</ele><time>2026-05-01T06:54:32.98Z</time></trkpt><trkpt lat="38.9165679" lon="16.2661713"><ele>28.0</ele><time>2026-05-01T06:54:33.98Z</time></trkpt><trkpt lat="38.916407" lon="16.2659751"><ele>28.0</ele><time>2026-05-01T06:54:34.981Z</time></trkpt><trkpt lat="38.9162313" lon="16.2657849"><ele>28.0</ele><time>2026-05-01T06:54:35.98Z</time></trkpt><trkpt lat="38.916027" lon="16.2655933"><ele>28.0</ele><time>2026-05-01T06:54:36.981Z</time></trkpt><trkpt lat="38.9158232" lon="16.2653963"><ele>28.0</ele><time>2026-05-01T06:54:37.981Z</time></trkpt><trkpt lat="38.9156205" lon="16.2651911"><ele>28.0</ele><time>2026-05-01T06:54:38.981Z</time></trkpt><trkpt lat="38.9154277" lon="16.2649739"><ele>28.0</ele><time>2026-05-01T06:54:39.982Z</time></trkpt><trkpt lat="38.9152498" lon="16.2647596"><ele>28.0</ele><time>2026-05-01T06:54:40.981Z</time></trkpt><trkpt lat="38.9150919" lon="16.2645451"><ele>28.0</ele><time>2026-05-01T06:54:41.981Z</time></trkpt><trkpt lat="38.9149424" lon="16.2643195"><ele>28.0</ele><time>2026-05-01T06:54:42.981Z</time></trkpt><trkpt lat="38.9148072" lon="16.2640701"><ele>28.0</ele><time>2026-05-01T06:54:43.981Z</time></trkpt><trkpt lat="38.9146902" lon="16.2637956"><ele>27.0</ele><time>2026-05-01T06:54:44.981Z</time></trkpt><trkpt lat="38.9145826" lon="16.2635018"><ele>26.0</ele><time>2026-05-01T06:54:45.982Z</time></trkpt><trkpt lat="38.9144851" lon="16.2631837"><ele>25.5</ele><time>2026-05-01T06:54:46.981Z</time></trkpt><trkpt lat="38.9143984" lon="16.2628617"><ele>25.0</ele><time>2026-05-01T06:54:47.981Z</time></trkpt><trkpt lat="38.9143262" lon="16.2625548"><ele>24.5</ele><time>2026-05-01T06:54:48.982Z</time></trkpt><trkpt lat="38.9142599" lon="16.2622606"><ele>24.0</ele><time>2026-05-01T06:54:49.982Z</time></trkpt><trkpt lat="38.9141917" lon="16.2619681"><ele>25.5</ele><time>2026-05-01T06:54:50.982Z</time></trkpt><trkpt lat="38.914115" lon="16.2616856"><ele>27.0</ele><time>2026-05-01T06:54:51.981Z</time></trkpt><trkpt lat="38.914034" lon="16.2614054"><ele>25.0</ele><time>2026-05-01T06:54:52.982Z</time></trkpt><trkpt lat="38.9139585" lon="16.2611336"><ele>23.0</ele><time>2026-05-01T06:54:53.981Z</time></trkpt><trkpt lat="38.913884" lon="16.2608688"><ele>21.0</ele><time>2026-05-01T06:54:54.981Z</time></trkpt><trkpt lat="38.9138135" lon="16.2606092"><ele>20.0</ele><time>2026-05-01T06:54:55.981Z</time></trkpt><trkpt lat="38.9137445" lon="16.2603739"><ele>19.0</ele><time>2026-05-01T06:54:56.981Z</time></trkpt><trkpt lat="38.9136812" lon="16.2601479"><ele>18.0</ele><time>2026-05-01T06:54:57.982Z</time></trkpt><trkpt lat="38.913625" lon="16.2599307"><ele>17.666666666666668</ele><time>2026-05-01T06:54:58.981Z</time></trkpt><trkpt lat="38.9135678" lon="16.2597155"><ele>17.333333333333336</ele><time>2026-05-01T06:54:59.981Z</time></trkpt><trkpt lat="38.913516" lon="16.2595035"><ele>17.0</ele><time>2026-05-01T06:55:00.982Z</time></trkpt><trkpt lat="38.9134626" lon="16.259309"><ele>17.0</ele><time>2026-05-01T06:55:01.981Z</time></trkpt><trkpt lat="38.9134142" lon="16.2591274"><ele>17.0</ele><time>2026-05-01T06:55:02.981Z</time></trkpt><trkpt lat="38.9133671" lon="16.258962"><ele>17.0</ele><time>2026-05-01T06:55:03.982Z</time></trkpt><trkpt lat="38.9133275" lon="16.258811"><ele>17.0</ele><time>2026-05-01T06:55:04.981Z</time></trkpt><trkpt lat="38.9132977" lon="16.25868"><ele>16.833333333333336</ele><time>2026-05-01T06:55:05.981Z</time></trkpt><trkpt lat="38.9132746" lon="16.2585761"><ele>16.666666666666668</ele><time>2026-05-01T06:55:06.981Z</time></trkpt><trkpt lat="38.9132438" lon="16.2585046"><ele>16.5</ele><time>2026-05-01T06:55:07.981Z</time></trkpt><trkpt lat="38.9131359" lon="16.258448"><ele>16.333333333333332</ele><time>2026-05-01T06:55:09.981Z</time></trkpt><trkpt lat="38.913063" lon="16.2584317"><ele>16.166666666666664</ele><time>2026-05-01T06:55:10.982Z</time></trkpt><trkpt lat="38.9130003" lon="16.2584155"><ele>16.0</ele><time>2026-05-01T06:55:11.982Z</time></trkpt><trkpt lat="38.9129418" lon="16.2583801"><ele>16.0</ele><time>2026-05-01T06:55:13.982Z</time></trkpt><trkpt lat="38.9129518" lon="16.2582781"><ele>15.999999999999998</ele><time>2026-05-01T06:55:23.981Z</time></trkpt><trkpt lat="38.9129997" lon="16.2583537"><ele>16.0</ele><time>2026-05-01T06:55:32.981Z</time></trkpt><trkpt lat="38.9130672" lon="16.2583923"><ele>16.0</ele><time>2026-05-01T06:55:43.981Z</time></trkpt><trkpt lat="38.9130933" lon="16.2582983"><ele>15.999999999999998</ele><time>2026-05-01T06:55:46.981Z</time></trkpt><trkpt lat="38.9130517" lon="16.25822"><ele>16.0</ele><time>2026-05-01T06:55:49.981Z</time></trkpt><trkpt lat="38.913005" lon="16.258165"><ele>16.0</ele><time>2026-05-01T06:55:53.982Z</time></trkpt><trkpt lat="38.9130367" lon="16.2582433"><ele>16.0</ele><time>2026-05-01T06:55:57.981Z</time></trkpt><trkpt lat="38.9131067" lon="16.2582817"><ele>16.0</ele><time>2026-05-01T07:01:23.981Z</time></trkpt><trkpt lat="38.9131617" lon="16.2584433"><ele>16.0</ele><time>2026-05-01T07:01:25.981Z</time></trkpt><trkpt lat="38.9132033" lon="16.2585267"><ele>16.0</ele><time>2026-05-01T07:01:26.982Z</time></trkpt><trkpt lat="38.9132433" lon="16.2586133"><ele>16.0</ele><time>2026-05-01T07:01:27.982Z</time></trkpt><trkpt lat="38.9132717" lon="16.2587267"><ele>16.0</ele><time>2026-05-01T07:01:28.981Z</time></trkpt><trkpt lat="38.913305" lon="16.25887"><ele>16.0</ele><time>2026-05-01T07:01:29.981Z</time></trkpt><trkpt lat="38.91335" lon="16.25903"><ele>16.0</ele><time>2026-05-01T07:01:30.981Z</time></trkpt><trkpt lat="38.9134017" lon="16.2592067"><ele>16.0</ele><time>2026-05-01T07:01:31.981Z</time></trkpt><trkpt lat="38.913455" lon="16.25939"><ele>16.333333333333332</ele><time>2026-05-01T07:01:32.981Z</time></trkpt><trkpt lat="38.9135117" lon="16.25958"><ele>16.666666666666668</ele><time>2026-05-01T07:01:33.981Z</time></trkpt><trkpt lat="38.91356" lon="16.2597733"><ele>17.0</ele><time>2026-05-01T07:01:34.981Z</time></trkpt><trkpt lat="38.9136183" lon="16.2599683"><ele>17.333333333333336</ele><time>2026-05-01T07:01:35.981Z</time></trkpt><trkpt lat="38.9136817" lon="16.26017"><ele>17.666666666666668</ele><time>2026-05-01T07:01:36.982Z</time></trkpt><trkpt lat="38.913745" lon="16.2603933"><ele>18.0</ele><time>2026-05-01T07:01:37.982Z</time></trkpt><trkpt lat="38.91381" lon="16.2606317"><ele>19.0</ele><time>2026-05-01T07:01:38.981Z</time></trkpt><trkpt lat="38.913875" lon="16.2608767"><ele>20.0</ele><time>2026-05-01T07:01:39.981Z</time></trkpt><trkpt lat="38.91393" lon="16.26112"><ele>21.0</ele><time>2026-05-01T07:01:40.981Z</time></trkpt><trkpt lat="38.914" lon="16.2613667"><ele>24.0</ele><time>2026-05-01T07:01:41.981Z</time></trkpt><trkpt lat="38.9141283" lon="16.2618633"><ele>27.0</ele><time>2026-05-01T07:01:43.981Z</time></trkpt><trkpt lat="38.914195" lon="16.26212"><ele>26.0</ele><time>2026-05-01T07:01:44.981Z</time></trkpt><trkpt lat="38.9142667" lon="16.26239"><ele>25.0</ele><time>2026-05-01T07:01:45.982Z</time></trkpt><trkpt lat="38.9143383" lon="16.262675"><ele>25.0</ele><time>2026-05-01T07:01:46.981Z</time></trkpt><trkpt lat="38.9144183" lon="16.2629583"><ele>25.0</ele><time>2026-05-01T07:01:47.982Z</time></trkpt><trkpt lat="38.914495" lon="16.2632433"><ele>25.5</ele><time>2026-05-01T07:01:48.981Z</time></trkpt><trkpt lat="38.9145783" lon="16.2635333"><ele>26.0</ele><time>2026-05-01T07:01:49.981Z</time></trkpt><trkpt lat="38.9146683" lon="16.2638233"><ele>27.0</ele><time>2026-05-01T07:01:50.981Z</time></trkpt><trkpt lat="38.914785" lon="16.2640967"><ele>28.0</ele><time>2026-05-01T07:01:51.981Z</time></trkpt><trkpt lat="38.9149267" lon="16.2643567"><ele>28.0</ele><time>2026-05-01T07:01:52.981Z</time></trkpt><trkpt lat="38.91509" lon="16.264605"><ele>28.0</ele><time>2026-05-01T07:01:53.982Z</time></trkpt><trkpt lat="38.9152683" lon="16.264835"><ele>28.0</ele><time>2026-05-01T07:01:54.981Z</time></trkpt><trkpt lat="38.91545" lon="16.26505"><ele>28.0</ele><time>2026-05-01T07:01:55.982Z</time></trkpt><trkpt lat="38.9156383" lon="16.2652583"><ele>28.0</ele><time>2026-05-01T07:01:56.982Z</time></trkpt><trkpt lat="38.9158083" lon="16.2654483"><ele>28.0</ele><time>2026-05-01T07:01:57.981Z</time></trkpt><trkpt lat="38.9159733" lon="16.2656433"><ele>28.0</ele><time>2026-05-01T07:01:58.982Z</time></trkpt><trkpt lat="38.916125" lon="16.2658233"><ele>28.0</ele><time>2026-05-01T07:01:59.981Z</time></trkpt><trkpt lat="38.9162667" lon="16.2660017"><ele>28.0</ele><time>2026-05-01T07:02:00.981Z</time></trkpt><trkpt lat="38.9164017" lon="16.2661783"><ele>28.0</ele><time>2026-05-01T07:02:01.982Z</time></trkpt><trkpt lat="38.9165283" lon="16.2663483"><ele>28.666666666666668</ele><time>2026-05-01T07:02:02.982Z</time></trkpt><trkpt lat="38.916645" lon="16.2665217"><ele>29.333333333333336</ele><time>2026-05-01T07:02:03.982Z</time></trkpt><trkpt lat="38.916755" lon="16.2666883"><ele>30.0</ele><time>2026-05-01T07:02:04.981Z</time></trkpt><trkpt lat="38.916865" lon="16.2668583"><ele>30.0</ele><time>2026-05-01T07:02:05.981Z</time></trkpt><trkpt lat="38.916975" lon="16.2670367"><ele>30.0</ele><time>2026-05-01T07:02:06.981Z</time></trkpt><trkpt lat="38.9170733" lon="16.26722"><ele>30.0</ele><time>2026-05-01T07:02:07.982Z</time></trkpt><trkpt lat="38.917175" lon="16.2674133"><ele>30.666666666666664</ele><time>2026-05-01T07:02:08.981Z</time></trkpt><trkpt lat="38.91726" lon="16.2676317"><ele>31.333333333333332</ele><time>2026-05-01T07:02:09.981Z</time></trkpt><trkpt lat="38.91733" lon="16.2678483"><ele>32.0</ele><time>2026-05-01T07:02:10.981Z</time></trkpt><trkpt lat="38.91738" lon="16.2680533"><ele>32.5</ele><time>2026-05-01T07:02:11.981Z</time></trkpt><trkpt lat="38.9174083" lon="16.2682383"><ele>33.0</ele><time>2026-05-01T07:02:12.981Z</time></trkpt><trkpt lat="38.9174233" lon="16.268415"><ele>33.5</ele><time>2026-05-01T07:02:13.982Z</time></trkpt><trkpt lat="38.9174017" lon="16.2686"><ele>34.0</ele><time>2026-05-01T07:02:14.981Z</time></trkpt><trkpt lat="38.9173583" lon="16.268785"><ele>34.333333333333336</ele><time>2026-05-01T07:02:15.981Z</time></trkpt><trkpt lat="38.917285" lon="16.2689633"><ele>34.666666666666664</ele><time>2026-05-01T07:02:16.982Z</time></trkpt><trkpt lat="38.917195" lon="16.2691283"><ele>35.0</ele><time>2026-05-01T07:02:17.982Z</time></trkpt><trkpt lat="38.9170917" lon="16.2692617"><ele>35.0</ele><time>2026-05-01T07:02:18.981Z</time></trkpt><trkpt lat="38.9169767" lon="16.26936"><ele>35.0</ele><time>2026-05-01T07:02:19.981Z</time></trkpt><trkpt lat="38.9168567" lon="16.2694267"><ele>35.0</ele><time>2026-05-01T07:02:20.981Z</time></trkpt><trkpt lat="38.916725" lon="16.269435"><ele>35.0</ele><time>2026-05-01T07:02:21.981Z</time></trkpt><trkpt lat="38.9166067" lon="16.2693883"><ele>34.75</ele><time>2026-05-01T07:02:22.982Z</time></trkpt><trkpt lat="38.9164933" lon="16.2693067"><ele>34.5</ele><time>2026-05-01T07:02:23.981Z</time></trkpt><trkpt lat="38.916415" lon="16.269175"><ele>34.25</ele><time>2026-05-01T07:02:24.982Z</time></trkpt><trkpt lat="38.916365" lon="16.2690033"><ele>34.0</ele><time>2026-05-01T07:02:25.981Z</time></trkpt><trkpt lat="38.91634" lon="16.2688183"><ele>33.5</ele><time>2026-05-01T07:02:26.981Z</time></trkpt><trkpt lat="38.9163367" lon="16.2686367"><ele>33.0</ele><time>2026-05-01T07:02:27.981Z</time></trkpt><trkpt lat="38.9163767" lon="16.2684583"><ele>32.5</ele><time>2026-05-01T07:02:28.981Z</time></trkpt><trkpt lat="38.9164417" lon="16.2683033"><ele>32.0</ele><time>2026-05-01T07:02:29.982Z</time></trkpt><trkpt lat="38.91654" lon="16.2681717"><ele>32.0</ele><time>2026-05-01T07:02:30.982Z</time></trkpt><trkpt lat="38.91667" lon="16.26806"><ele>32.0</ele><time>2026-05-01T07:02:31.981Z</time></trkpt><trkpt lat="38.9168267" lon="16.26797"><ele>32.0</ele><time>2026-05-01T07:02:32.982Z</time></trkpt><trkpt lat="38.917" lon="16.2678767"><ele>32.0</ele><time>2026-05-01T07:02:33.981Z</time></trkpt><trkpt lat="38.9171933" lon="16.267765"><ele>32.0</ele><time>2026-05-01T07:02:34.981Z</time></trkpt><trkpt lat="38.91738" lon="16.2676683"><ele>32.0</ele><time>2026-05-01T07:02:35.981Z</time></trkpt><trkpt lat="38.9175567" lon="16.267555"><ele>32.0</ele><time>2026-05-01T07:02:36.981Z</time></trkpt><trkpt lat="38.9177167" lon="16.267455"><ele>32.0</ele><time>2026-05-01T07:02:37.981Z</time></trkpt><trkpt lat="38.9178583" lon="16.2673633"><ele>32.0</ele><time>2026-05-01T07:02:38.981Z</time></trkpt><trkpt lat="38.918" lon="16.267275"><ele>31.666666666666664</ele><time>2026-05-01T07:02:39.982Z</time></trkpt><trkpt lat="38.91813" lon="16.2671933"><ele>31.333333333333336</ele><time>2026-05-01T07:02:40.981Z</time></trkpt><trkpt lat="38.9182717" lon="16.2671033"><ele>31.0</ele><time>2026-05-01T07:02:41.982Z</time></trkpt><trkpt lat="38.9184283" lon="16.267005"><ele>31.0</ele><time>2026-05-01T07:02:42.981Z</time></trkpt><trkpt lat="38.9185767" lon="16.26693"><ele>31.0</ele><time>2026-05-01T07:02:43.981Z</time></trkpt><trkpt lat="38.9187117" lon="16.26682"><ele>31.0</ele><time>2026-05-01T07:02:44.981Z</time></trkpt><trkpt lat="38.91883" lon="16.26671"><ele>31.0</ele><time>2026-05-01T07:02:45.981Z</time></trkpt><trkpt lat="38.9189217" lon="16.2665817"><ele>31.0</ele><time>2026-05-01T07:02:46.981Z</time></trkpt><trkpt lat="38.9189683" lon="16.2664317"><ele>31.0</ele><time>2026-05-01T07:02:47.981Z</time></trkpt><trkpt lat="38.918985" lon="16.266245"><ele>31.0</ele><time>2026-05-01T07:02:48.982Z</time></trkpt><trkpt lat="38.9189633" lon="16.2660433"><ele>30.0</ele><time>2026-05-01T07:02:49.981Z</time></trkpt><trkpt lat="38.9189183" lon="16.2658217"><ele>29.0</ele><time>2026-05-01T07:02:50.981Z</time></trkpt><trkpt lat="38.9188583" lon="16.2655767"><ele>28.0</ele><time>2026-05-01T07:02:51.981Z</time></trkpt><trkpt lat="38.918815" lon="16.2653167"><ele>28.0</ele><time>2026-05-01T07:02:52.981Z</time></trkpt><trkpt lat="38.9187967" lon="16.2650767"><ele>28.0</ele><time>2026-05-01T07:02:53.981Z</time></trkpt><trkpt lat="38.9188267" lon="16.26487"><ele>28.0</ele><time>2026-05-01T07:02:54.981Z</time></trkpt><trkpt lat="38.91889" lon="16.2646867"><ele>28.0</ele><time>2026-05-01T07:02:55.982Z</time></trkpt><trkpt lat="38.91898" lon="16.264525"><ele>28.0</ele><time>2026-05-01T07:02:56.981Z</time></trkpt><trkpt lat="38.9190967" lon="16.2643867"><ele>28.0</ele><time>2026-05-01T07:02:57.982Z</time></trkpt><trkpt lat="38.9192633" lon="16.264245"><ele>28.0</ele><time>2026-05-01T07:02:58.981Z</time></trkpt><trkpt lat="38.9194467" lon="16.2640933"><ele>28.0</ele><time>2026-05-01T07:02:59.981Z</time></trkpt><trkpt lat="38.9196383" lon="16.2639383"><ele>28.0</ele><time>2026-05-01T07:03:00.982Z</time></trkpt><trkpt lat="38.9198233" lon="16.2637667"><ele>28.0</ele><time>2026-05-01T07:03:01.982Z</time></trkpt><trkpt lat="38.920015" lon="16.26358"><ele>28.0</ele><time>2026-05-01T07:03:02.981Z</time></trkpt><trkpt lat="38.9202083" lon="16.2633933"><ele>27.5</ele><time>2026-05-01T07:03:03.982Z</time></trkpt><trkpt lat="38.9204033" lon="16.2632067"><ele>27.0</ele><time>2026-05-01T07:03:04.981Z</time></trkpt><trkpt lat="38.9205933" lon="16.2630217"><ele>28.0</ele><time>2026-05-01T07:03:05.982Z</time></trkpt><trkpt lat="38.920785" lon="16.262845"><ele>29.0</ele><time>2026-05-01T07:03:06.981Z</time></trkpt><trkpt lat="38.920985" lon="16.2626617"><ele>29.0</ele><time>2026-05-01T07:03:07.982Z</time></trkpt><trkpt lat="38.9211867" lon="16.26248"><ele>29.0</ele><time>2026-05-01T07:03:08.981Z</time></trkpt><trkpt lat="38.9213833" lon="16.2622883"><ele>29.5</ele><time>2026-05-01T07:03:09.981Z</time></trkpt><trkpt lat="38.9215783" lon="16.2621"><ele>30.0</ele><time>2026-05-01T07:03:10.981Z</time></trkpt><trkpt lat="38.9217567" lon="16.2619017"><ele>30.0</ele><time>2026-05-01T07:03:11.981Z</time></trkpt><trkpt lat="38.92193" lon="16.2616983"><ele>30.0</ele><time>2026-05-01T07:03:12.982Z</time></trkpt><trkpt lat="38.922095" lon="16.2614883"><ele>29.5</ele><time>2026-05-01T07:03:13.981Z</time></trkpt><trkpt lat="38.92226" lon="16.2612683"><ele>29.0</ele><time>2026-05-01T07:03:14.981Z</time></trkpt><trkpt lat="38.9224233" lon="16.2610467"><ele>31.0</ele><time>2026-05-01T07:03:15.981Z</time></trkpt><trkpt lat="38.9225783" lon="16.2608017"><ele>33.0</ele><time>2026-05-01T07:03:16.981Z</time></trkpt><trkpt lat="38.92273" lon="16.26056"><ele>33.0</ele><time>2026-05-01T07:03:17.981Z</time></trkpt><trkpt lat="38.922885" lon="16.260315"><ele>33.0</ele><time>2026-05-01T07:03:18.982Z</time></trkpt><trkpt lat="38.923045" lon="16.260045"><ele>32.0</ele><time>2026-05-01T07:03:19.981Z</time></trkpt><trkpt lat="38.9232" lon="16.25978"><ele>31.0</ele><time>2026-05-01T07:03:20.982Z</time></trkpt><trkpt lat="38.9233467" lon="16.2594867"><ele>31.5</ele><time>2026-05-01T07:03:21.981Z</time></trkpt><trkpt lat="38.9234883" lon="16.2591983"><ele>32.0</ele><time>2026-05-01T07:03:22.981Z</time></trkpt><trkpt lat="38.9236183" lon="16.2588917"><ele>32.0</ele><time>2026-05-01T07:03:23.982Z</time></trkpt><trkpt lat="38.9237433" lon="16.2585783"><ele>32.0</ele><time>2026-05-01T07:03:24.981Z</time></trkpt><trkpt lat="38.9238617" lon="16.258265"><ele>31.0</ele><time>2026-05-01T07:03:25.981Z</time></trkpt><trkpt lat="38.9239767" lon="16.257925"><ele>30.0</ele><time>2026-05-01T07:03:26.981Z</time></trkpt><trkpt lat="38.924095" lon="16.2575983"><ele>29.5</ele><time>2026-05-01T07:03:27.981Z</time></trkpt><trkpt lat="38.9242067" lon="16.2572583"><ele>29.0</ele><time>2026-05-01T07:03:28.981Z</time></trkpt><trkpt lat="38.9243033" lon="16.25692"><ele>30.5</ele><time>2026-05-01T07:03:29.981Z</time></trkpt><trkpt lat="38.924395" lon="16.2565683"><ele>32.0</ele><time>2026-05-01T07:03:30.982Z</time></trkpt><trkpt lat="38.9244867" lon="16.2562167"><ele>33.0</ele><time>2026-05-01T07:03:31.981Z</time></trkpt><trkpt lat="38.9245817" lon="16.2558617"><ele>34.0</ele><time>2026-05-01T07:03:32.982Z</time></trkpt><trkpt lat="38.9246833" lon="16.2554933"><ele>34.5</ele><time>2026-05-01T07:03:33.982Z</time></trkpt><trkpt lat="38.9247833" lon="16.2551283"><ele>35.0</ele><time>2026-05-01T07:03:34.981Z</time></trkpt><trkpt lat="38.9248867" lon="16.2547417"><ele>35.0</ele><time>2026-05-01T07:03:35.982Z</time></trkpt><trkpt lat="38.9249983" lon="16.2543583"><ele>35.0</ele><time>2026-05-01T07:03:36.981Z</time></trkpt><trkpt lat="38.9251117" lon="16.25398"><ele>36.0</ele><time>2026-05-01T07:03:37.981Z</time></trkpt><trkpt lat="38.9252233" lon="16.2535883"><ele>37.0</ele><time>2026-05-01T07:03:38.981Z</time></trkpt><trkpt lat="38.9253417" lon="16.253175"><ele>37.0</ele><time>2026-05-01T07:03:39.981Z</time></trkpt><trkpt lat="38.9254483" lon="16.2527667"><ele>37.0</ele><time>2026-05-01T07:03:40.981Z</time></trkpt><trkpt lat="38.9255583" lon="16.2523483"><ele>37.5</ele><time>2026-05-01T07:03:41.982Z</time></trkpt><trkpt lat="38.9256767" lon="16.2519183"><ele>38.0</ele><time>2026-05-01T07:03:42.982Z</time></trkpt><trkpt lat="38.925795" lon="16.25149"><ele>38.0</ele><time>2026-05-01T07:03:43.981Z</time></trkpt><trkpt lat="38.9259183" lon="16.25105"><ele>38.0</ele><time>2026-05-01T07:03:44.981Z</time></trkpt><trkpt lat="38.9260433" lon="16.2505983"><ele>37.0</ele><time>2026-05-01T07:03:45.981Z</time></trkpt><trkpt lat="38.9261733" lon="16.2501483"><ele>36.0</ele><time>2026-05-01T07:03:46.981Z</time></trkpt><trkpt lat="38.9262967" lon="16.2497183"><ele>35.0</ele><time>2026-05-01T07:03:47.981Z</time></trkpt><trkpt lat="38.92642" lon="16.249305"><ele>34.0</ele><time>2026-05-01T07:03:48.982Z</time></trkpt><trkpt lat="38.9265417" lon="16.2489033"><ele>32.5</ele><time>2026-05-01T07:03:49.982Z</time></trkpt><trkpt lat="38.9266583" lon="16.2485033"><ele>31.0</ele><time>2026-05-01T07:03:50.982Z</time></trkpt><trkpt lat="38.9267733" lon="16.2481067"><ele>30.5</ele><time>2026-05-01T07:03:51.981Z</time></trkpt><trkpt lat="38.92689" lon="16.24771"><ele>30.0</ele><time>2026-05-01T07:03:52.982Z</time></trkpt><trkpt lat="38.927005" lon="16.24731"><ele>29.5</ele><time>2026-05-01T07:03:53.981Z</time></trkpt><trkpt lat="38.9271233" lon="16.2468967"><ele>29.0</ele><time>2026-05-01T07:03:54.982Z</time></trkpt><trkpt lat="38.9272333" lon="16.2464883"><ele>29.0</ele><time>2026-05-01T07:03:55.981Z</time></trkpt><trkpt lat="38.9273533" lon="16.2460733"><ele>29.0</ele><time>2026-05-01T07:03:56.982Z</time></trkpt><trkpt lat="38.927465" lon="16.24567"><ele>30.5</ele><time>2026-05-01T07:03:57.981Z</time></trkpt><trkpt lat="38.9275833" lon="16.2452633"><ele>32.0</ele><time>2026-05-01T07:03:58.982Z</time></trkpt><trkpt lat="38.9276983" lon="16.24485"><ele>31.5</ele><time>2026-05-01T07:03:59.982Z</time></trkpt><trkpt lat="38.92781" lon="16.244435"><ele>31.0</ele><time>2026-05-01T07:04:00.981Z</time></trkpt><trkpt lat="38.9279217" lon="16.2440283"><ele>30.5</ele><time>2026-05-01T07:04:01.982Z</time></trkpt><trkpt lat="38.9280367" lon="16.24363"><ele>30.0</ele><time>2026-05-01T07:04:02.982Z</time></trkpt><trkpt lat="38.92816" lon="16.2432367"><ele>29.5</ele><time>2026-05-01T07:04:03.981Z</time></trkpt><trkpt lat="38.9282717" lon="16.2428517"><ele>29.0</ele><time>2026-05-01T07:04:04.981Z</time></trkpt><trkpt lat="38.928385" lon="16.2424883"><ele>29.5</ele><time>2026-05-01T07:04:05.981Z</time></trkpt><trkpt lat="38.928485" lon="16.2421217"><ele>30.0</ele><time>2026-05-01T07:04:06.982Z</time></trkpt><trkpt lat="38.928585" lon="16.2417583"><ele>29.0</ele><time>2026-05-01T07:04:07.982Z</time></trkpt><trkpt lat="38.9286883" lon="16.2413817"><ele>28.0</ele><time>2026-05-01T07:04:08.981Z</time></trkpt><trkpt lat="38.9287917" lon="16.2410167"><ele>28.0</ele><time>2026-05-01T07:04:09.981Z</time></trkpt><trkpt lat="38.9288867" lon="16.240675"><ele>28.0</ele><time>2026-05-01T07:04:10.982Z</time></trkpt><trkpt lat="38.9289767" lon="16.2403433"><ele>27.0</ele><time>2026-05-01T07:04:11.981Z</time></trkpt><trkpt lat="38.9290583" lon="16.240025"><ele>26.0</ele><time>2026-05-01T07:04:12.982Z</time></trkpt><trkpt lat="38.9291367" lon="16.2397183"><ele>26.0</ele><time>2026-05-01T07:04:13.981Z</time></trkpt><trkpt lat="38.9292117" lon="16.2394383"><ele>26.0</ele><time>2026-05-01T07:04:14.982Z</time></trkpt><trkpt lat="38.9292867" lon="16.2391683"><ele>25.333333333333332</ele><time>2026-05-01T07:04:15.982Z</time></trkpt><trkpt lat="38.92935" lon="16.2389233"><ele>24.666666666666664</ele><time>2026-05-01T07:04:16.982Z</time></trkpt><trkpt lat="38.9294067" lon="16.2386883"><ele>24.0</ele><time>2026-05-01T07:04:17.981Z</time></trkpt><trkpt lat="38.9294633" lon="16.238475"><ele>24.0</ele><time>2026-05-01T07:04:18.982Z</time></trkpt><trkpt lat="38.929525" lon="16.238285"><ele>24.0</ele><time>2026-05-01T07:04:19.981Z</time></trkpt><trkpt lat="38.9296" lon="16.2381117"><ele>24.0</ele><time>2026-05-01T07:04:20.981Z</time></trkpt><trkpt lat="38.9296833" lon="16.23795"><ele>24.25</ele><time>2026-05-01T07:04:21.981Z</time></trkpt><trkpt lat="38.9297717" lon="16.2378117"><ele>24.5</ele><time>2026-05-01T07:04:22.982Z</time></trkpt><trkpt lat="38.9298467" lon="16.2376883"><ele>24.75</ele><time>2026-05-01T07:04:23.981Z</time></trkpt><trkpt lat="38.929915" lon="16.2375717"><ele>25.0</ele><time>2026-05-01T07:04:24.981Z</time></trkpt><trkpt lat="38.9299717" lon="16.237445"><ele>25.000000000000004</ele><time>2026-05-01T07:04:25.981Z</time></trkpt><trkpt lat="38.9300133" lon="16.237325"><ele>25.0</ele><time>2026-05-01T07:04:26.981Z</time></trkpt><trkpt lat="38.9300467" lon="16.23722"><ele>25.0</ele><time>2026-05-01T07:04:27.981Z</time></trkpt><trkpt lat="38.9300717" lon="16.2371333"><ele>25.0</ele><time>2026-05-01T07:04:28.981Z</time></trkpt><trkpt lat="38.9301067" lon="16.23701"><ele>25.000000000000004</ele><time>2026-05-01T07:04:30.981Z</time></trkpt><trkpt lat="38.9301217" lon="16.2369233"><ele>25.0</ele><time>2026-05-01T07:04:34.981Z</time></trkpt><trkpt lat="38.9301517" lon="16.2368433"><ele>25.000000000000004</ele><time>2026-05-01T07:04:38.982Z</time></trkpt><trkpt lat="38.93025" lon="16.236795"><ele>25.0</ele><time>2026-05-01T07:05:35.982Z</time></trkpt><trkpt lat="38.930165" lon="16.236885"><ele>25.0</ele><time>2026-05-01T07:44:09.978Z</time></trkpt><trkpt lat="38.9301" lon="16.2368917"><ele>25.0</ele><time>2026-05-01T07:44:12.977Z</time></trkpt><trkpt lat="38.9300867" lon="16.2367917"><ele>25.000000000000004</ele><time>2026-05-01T07:44:17.977Z</time></trkpt><trkpt lat="38.9301367" lon="16.236715"><ele>25.0</ele><time>2026-05-01T07:44:20.977Z</time></trkpt><trkpt lat="38.93018" lon="16.2365933"><ele>25.000000000000004</ele><time>2026-05-01T07:45:23.977Z</time></trkpt><trkpt lat="38.9302083" lon="16.236515"><ele>25.0</ele><time>2026-05-01T07:45:25.978Z</time></trkpt><trkpt lat="38.9302417" lon="16.236445"><ele>25.0</ele><time>2026-05-01T07:45:27.977Z</time></trkpt><trkpt lat="38.9302417" lon="16.2363417"><ele>25.0</ele><time>2026-05-01T07:45:30.978Z</time></trkpt><trkpt lat="38.9302317" lon="16.236235"><ele>25.000000000000004</ele><time>2026-05-01T07:45:33.977Z</time></trkpt><trkpt lat="38.9302283" lon="16.23613"><ele>25.0</ele><time>2026-05-01T07:45:35.977Z</time></trkpt><trkpt lat="38.9302267" lon="16.2360267"><ele>24.666666666666668</ele><time>2026-05-01T07:45:37.978Z</time></trkpt><trkpt lat="38.93022" lon="16.2359233"><ele>24.333333333333336</ele><time>2026-05-01T07:45:39.977Z</time></trkpt><trkpt lat="38.9302" lon="16.2358233"><ele>24.0</ele><time>2026-05-01T07:45:41.977Z</time></trkpt><trkpt lat="38.930175" lon="16.23571"><ele>23.666666666666668</ele><time>2026-05-01T07:45:43.977Z</time></trkpt><trkpt lat="38.9301617" lon="16.2355667"><ele>23.333333333333336</ele><time>2026-05-01T07:45:45.978Z</time></trkpt><trkpt lat="38.930165" lon="16.2354783"><ele>23.0</ele><time>2026-05-01T07:45:46.977Z</time></trkpt><trkpt lat="38.9301717" lon="16.235375"><ele>22.599999999999998</ele><time>2026-05-01T07:45:47.977Z</time></trkpt><trkpt lat="38.93018" lon="16.235255"><ele>22.2</ele><time>2026-05-01T07:45:48.978Z</time></trkpt><trkpt lat="38.9301933" lon="16.2351383"><ele>21.8</ele><time>2026-05-01T07:45:49.977Z</time></trkpt><trkpt lat="38.930215" lon="16.2350283"><ele>21.4</ele><time>2026-05-01T07:45:50.978Z</time></trkpt><trkpt lat="38.9302433" lon="16.23492"><ele>21.0</ele><time>2026-05-01T07:45:51.978Z</time></trkpt><trkpt lat="38.9302683" lon="16.234805"><ele>20.8</ele><time>2026-05-01T07:45:52.977Z</time></trkpt><trkpt lat="38.930295" lon="16.2346867"><ele>20.6</ele><time>2026-05-01T07:45:53.978Z</time></trkpt><trkpt lat="38.9303167" lon="16.2345717"><ele>20.4</ele><time>2026-05-01T07:45:54.977Z</time></trkpt><trkpt lat="38.93034" lon="16.2344567"><ele>20.2</ele><time>2026-05-01T07:45:55.978Z</time></trkpt><trkpt lat="38.9303633" lon="16.2343417"><ele>20.0</ele><time>2026-05-01T07:45:56.978Z</time></trkpt><trkpt lat="38.9303817" lon="16.2342117"><ele>20.0</ele><time>2026-05-01T07:45:57.978Z</time></trkpt><trkpt lat="38.9304033" lon="16.2340483"><ele>20.0</ele><time>2026-05-01T07:45:58.978Z</time></trkpt><trkpt lat="38.930435" lon="16.233865"><ele>20.0</ele><time>2026-05-01T07:45:59.977Z</time></trkpt><trkpt lat="38.93047" lon="16.2336717"><ele>20.0</ele><time>2026-05-01T07:46:00.977Z</time></trkpt><trkpt lat="38.93051" lon="16.2334767"><ele>20.0</ele><time>2026-05-01T07:46:01.978Z</time></trkpt><trkpt lat="38.93055" lon="16.2332633"><ele>20.0</ele><time>2026-05-01T07:46:02.977Z</time></trkpt><trkpt lat="38.930595" lon="16.2330417"><ele>20.0</ele><time>2026-05-01T07:46:03.977Z</time></trkpt><trkpt lat="38.9306383" lon="16.23281"><ele>19.333333333333336</ele><time>2026-05-01T07:46:04.977Z</time></trkpt><trkpt lat="38.93069" lon="16.2325633"><ele>18.666666666666668</ele><time>2026-05-01T07:46:05.977Z</time></trkpt><trkpt lat="38.9307433" lon="16.2323167"><ele>18.0</ele><time>2026-05-01T07:46:06.977Z</time></trkpt><trkpt lat="38.9307967" lon="16.2320683"><ele>17.666666666666668</ele><time>2026-05-01T07:46:07.977Z</time></trkpt><trkpt lat="38.9308567" lon="16.2318083"><ele>17.333333333333336</ele><time>2026-05-01T07:46:08.977Z</time></trkpt><trkpt lat="38.9309167" lon="16.2315433"><ele>17.0</ele><time>2026-05-01T07:46:09.977Z</time></trkpt><trkpt lat="38.930975" lon="16.2312633"><ele>16.5</ele><time>2026-05-01T07:46:10.977Z</time></trkpt><trkpt lat="38.9310333" lon="16.2309783"><ele>16.0</ele><time>2026-05-01T07:46:11.978Z</time></trkpt><trkpt lat="38.9311" lon="16.2306967"><ele>16.0</ele><time>2026-05-01T07:46:12.978Z</time></trkpt><trkpt lat="38.9311683" lon="16.2304067"><ele>16.0</ele><time>2026-05-01T07:46:13.978Z</time></trkpt><trkpt lat="38.9312267" lon="16.2301167"><ele>16.0</ele><time>2026-05-01T07:46:14.978Z</time></trkpt><trkpt lat="38.9312967" lon="16.22983"><ele>16.0</ele><time>2026-05-01T07:46:15.977Z</time></trkpt><trkpt lat="38.9313683" lon="16.2295333"><ele>15.0</ele><time>2026-05-01T07:46:16.978Z</time></trkpt><trkpt lat="38.9314433" lon="16.2292267"><ele>14.0</ele><time>2026-05-01T07:46:17.978Z</time></trkpt><trkpt lat="38.931525" lon="16.2289067"><ele>13.5</ele><time>2026-05-01T07:46:18.977Z</time></trkpt><trkpt lat="38.93161" lon="16.228585"><ele>13.0</ele><time>2026-05-01T07:46:19.977Z</time></trkpt><trkpt lat="38.9316983" lon="16.228255"><ele>13.0</ele><time>2026-05-01T07:46:20.977Z</time></trkpt><trkpt lat="38.9317983" lon="16.2279233"><ele>13.0</ele><time>2026-05-01T07:46:21.977Z</time></trkpt><trkpt lat="38.9318983" lon="16.2275883"><ele>12.0</ele><time>2026-05-01T07:46:22.978Z</time></trkpt><trkpt lat="38.9319933" lon="16.2272517"><ele>11.0</ele><time>2026-05-01T07:46:23.978Z</time></trkpt><trkpt lat="38.9320867" lon="16.2269133"><ele>11.0</ele><time>2026-05-01T07:46:24.978Z</time></trkpt><trkpt lat="38.9321833" lon="16.2265733"><ele>11.0</ele><time>2026-05-01T07:46:25.977Z</time></trkpt><trkpt lat="38.93228" lon="16.22624"><ele>11.0</ele><time>2026-05-01T07:46:26.978Z</time></trkpt><trkpt lat="38.9323767" lon="16.2259117"><ele>11.0</ele><time>2026-05-01T07:46:27.977Z</time></trkpt><trkpt lat="38.932475" lon="16.2255767"><ele>9.5</ele><time>2026-05-01T07:46:28.977Z</time></trkpt><trkpt lat="38.9325767" lon="16.22524"><ele>8.0</ele><time>2026-05-01T07:46:29.977Z</time></trkpt><trkpt lat="38.9326817" lon="16.224905"><ele>7.0</ele><time>2026-05-01T07:46:30.977Z</time></trkpt><trkpt lat="38.932785" lon="16.2245683"><ele>6.0</ele><time>2026-05-01T07:46:31.977Z</time></trkpt><trkpt lat="38.932885" lon="16.224235"><ele>6.5</ele><time>2026-05-01T07:46:32.977Z</time></trkpt><trkpt lat="38.9329883" lon="16.2239017"><ele>7.0</ele><time>2026-05-01T07:46:33.977Z</time></trkpt><trkpt lat="38.9330917" lon="16.22358"><ele>7.0</ele><time>2026-05-01T07:46:34.977Z</time></trkpt><trkpt lat="38.9332" lon="16.2232617"><ele>7.0</ele><time>2026-05-01T07:46:35.977Z</time></trkpt><trkpt lat="38.93331" lon="16.2229533"><ele>7.0</ele><time>2026-05-01T07:46:36.978Z</time></trkpt><trkpt lat="38.9334117" lon="16.2226533"><ele>7.0</ele><time>2026-05-01T07:46:37.977Z</time></trkpt><trkpt lat="38.93351" lon="16.2223617"><ele>6.5</ele><time>2026-05-01T07:46:38.977Z</time></trkpt><trkpt lat="38.93361" lon="16.222065"><ele>6.0</ele><time>2026-05-01T07:46:39.977Z</time></trkpt><trkpt lat="38.9337117" lon="16.221775"><ele>6.0</ele><time>2026-05-01T07:46:40.978Z</time></trkpt><trkpt lat="38.9338083" lon="16.2214833"><ele>6.0</ele><time>2026-05-01T07:46:41.978Z</time></trkpt><trkpt lat="38.933905" lon="16.221205"><ele>6.0</ele><time>2026-05-01T07:46:42.978Z</time></trkpt><trkpt lat="38.933995" lon="16.2209333"><ele>6.0</ele><time>2026-05-01T07:46:43.977Z</time></trkpt><trkpt lat="38.9340817" lon="16.2206767"><ele>6.0</ele><time>2026-05-01T07:46:44.978Z</time></trkpt><trkpt lat="38.934165" lon="16.22044"><ele>6.0</ele><time>2026-05-01T07:46:45.977Z</time></trkpt><trkpt lat="38.9342383" lon="16.2202183"><ele>6.0</ele><time>2026-05-01T07:46:46.977Z</time></trkpt><trkpt lat="38.93431" lon="16.22001"><ele>6.0</ele><time>2026-05-01T07:46:47.978Z</time></trkpt><trkpt lat="38.9343817" lon="16.2198117"><ele>5.666666666666667</ele><time>2026-05-01T07:46:48.977Z</time></trkpt><trkpt lat="38.9344483" lon="16.2196183"><ele>5.333333333333334</ele><time>2026-05-01T07:46:49.977Z</time></trkpt><trkpt lat="38.9345167" lon="16.2194283"><ele>5.0</ele><time>2026-05-01T07:46:50.978Z</time></trkpt><trkpt lat="38.934585" lon="16.21923"><ele>5.0</ele><time>2026-05-01T07:46:51.978Z</time></trkpt><trkpt lat="38.9346483" lon="16.2190283"><ele>5.0</ele><time>2026-05-01T07:46:52.977Z</time></trkpt><trkpt lat="38.93472" lon="16.2188267"><ele>5.0</ele><time>2026-05-01T07:46:53.977Z</time></trkpt><trkpt lat="38.9347917" lon="16.218615"><ele>4.666666666666667</ele><time>2026-05-01T07:46:54.978Z</time></trkpt><trkpt lat="38.9348633" lon="16.2183983"><ele>4.333333333333333</ele><time>2026-05-01T07:46:55.977Z</time></trkpt><trkpt lat="38.9349383" lon="16.218185"><ele>4.0</ele><time>2026-05-01T07:46:56.978Z</time></trkpt><trkpt lat="38.9350133" lon="16.2179733"><ele>4.0</ele><time>2026-05-01T07:46:57.977Z</time></trkpt><trkpt lat="38.9350867" lon="16.2177533"><ele>4.0</ele><time>2026-05-01T07:46:58.977Z</time></trkpt><trkpt lat="38.9351633" lon="16.217525"><ele>4.0</ele><time>2026-05-01T07:46:59.977Z</time></trkpt><trkpt lat="38.9352433" lon="16.21731"><ele>4.333333333333333</ele><time>2026-05-01T07:47:00.977Z</time></trkpt><trkpt lat="38.9353217" lon="16.2170833"><ele>4.666666666666667</ele><time>2026-05-01T07:47:01.978Z</time></trkpt><trkpt lat="38.9354" lon="16.2168617"><ele>5.0</ele><time>2026-05-01T07:47:02.977Z</time></trkpt><trkpt lat="38.9354733" lon="16.2166383"><ele>4.666666666666667</ele><time>2026-05-01T07:47:03.977Z</time></trkpt><trkpt lat="38.9355417" lon="16.2164333"><ele>4.333333333333333</ele><time>2026-05-01T07:47:04.977Z</time></trkpt><trkpt lat="38.9356083" lon="16.2162217"><ele>4.0</ele><time>2026-05-01T07:47:05.977Z</time></trkpt><trkpt lat="38.9356783" lon="16.2160217"><ele>4.0</ele><time>2026-05-01T07:47:06.977Z</time></trkpt><trkpt lat="38.9357483" lon="16.215815"><ele>4.0</ele><time>2026-05-01T07:47:07.978Z</time></trkpt><trkpt lat="38.9358183" lon="16.215605"><ele>4.0</ele><time>2026-05-01T07:47:08.978Z</time></trkpt><trkpt lat="38.9358867" lon="16.2153867"><ele>4.0</ele><time>2026-05-01T07:47:09.977Z</time></trkpt><trkpt lat="38.9359617" lon="16.2151783"><ele>4.0</ele><time>2026-05-01T07:47:10.977Z</time></trkpt><trkpt lat="38.93604" lon="16.2149617"><ele>4.0</ele><time>2026-05-01T07:47:11.978Z</time></trkpt><trkpt lat="38.9361167" lon="16.2147383"><ele>3.333333333333333</ele><time>2026-05-01T07:47:12.977Z</time></trkpt><trkpt lat="38.936195" lon="16.2145133"><ele>2.6666666666666665</ele><time>2026-05-01T07:47:13.977Z</time></trkpt><trkpt lat="38.9362817" lon="16.214275"><ele>2.0</ele><time>2026-05-01T07:47:14.977Z</time></trkpt><trkpt lat="38.9363617" lon="16.2140367"><ele>1.6666666666666665</ele><time>2026-05-01T07:47:15.977Z</time></trkpt><trkpt lat="38.9364433" lon="16.2137933"><ele>1.3333333333333333</ele><time>2026-05-01T07:47:16.977Z</time></trkpt><trkpt lat="38.936525" lon="16.213545"><ele>1.0</ele><time>2026-05-01T07:47:17.978Z</time></trkpt><trkpt lat="38.9366033" lon="16.213305"><ele>1.0</ele><time>2026-05-01T07:47:18.977Z</time></trkpt><trkpt lat="38.936685" lon="16.2130633"><ele>1.0</ele><time>2026-05-01T07:47:19.977Z</time></trkpt><trkpt lat="38.9367617" lon="16.2128183"><ele>1.0</ele><time>2026-05-01T07:47:20.977Z</time></trkpt><trkpt lat="38.9368433" lon="16.2125767"><ele>1.6666666666666665</ele><time>2026-05-01T07:47:21.977Z</time></trkpt><trkpt lat="38.9369267" lon="16.2123433"><ele>2.3333333333333335</ele><time>2026-05-01T07:47:22.977Z</time></trkpt><trkpt lat="38.9370117" lon="16.2121117"><ele>3.0</ele><time>2026-05-01T07:47:23.977Z</time></trkpt><trkpt lat="38.9370967" lon="16.211875"><ele>3.0</ele><time>2026-05-01T07:47:24.977Z</time></trkpt><trkpt lat="38.9371783" lon="16.2116367"><ele>3.0</ele><time>2026-05-01T07:47:25.977Z</time></trkpt><trkpt lat="38.9372583" lon="16.211395"><ele>3.0</ele><time>2026-05-01T07:47:26.978Z</time></trkpt><trkpt lat="38.9373367" lon="16.2111533"><ele>3.0</ele><time>2026-05-01T07:47:27.978Z</time></trkpt><trkpt lat="38.937415" lon="16.2109183"><ele>3.0</ele><time>2026-05-01T07:47:28.977Z</time></trkpt><trkpt lat="38.93749" lon="16.2106833"><ele>3.0</ele><time>2026-05-01T07:47:29.977Z</time></trkpt><trkpt lat="38.93757" lon="16.21045"><ele>3.666666666666667</ele><time>2026-05-01T07:47:30.977Z</time></trkpt><trkpt lat="38.9376533" lon="16.2102267"><ele>4.333333333333334</ele><time>2026-05-01T07:47:31.977Z</time></trkpt><trkpt lat="38.937735" lon="16.20999"><ele>5.0</ele><time>2026-05-01T07:47:32.977Z</time></trkpt><trkpt lat="38.9378167" lon="16.2097567"><ele>5.0</ele><time>2026-05-01T07:47:33.977Z</time></trkpt><trkpt lat="38.9378917" lon="16.20952"><ele>5.0</ele><time>2026-05-01T07:47:34.977Z</time></trkpt><trkpt lat="38.937975" lon="16.2092817"><ele>5.0</ele><time>2026-05-01T07:47:35.977Z</time></trkpt><trkpt lat="38.93806" lon="16.2090383"><ele>4.666666666666667</ele><time>2026-05-01T07:47:36.978Z</time></trkpt><trkpt lat="38.9381367" lon="16.2087917"><ele>4.333333333333333</ele><time>2026-05-01T07:47:37.977Z</time></trkpt><trkpt lat="38.938215" lon="16.2085417"><ele>4.0</ele><time>2026-05-01T07:47:38.978Z</time></trkpt><trkpt lat="38.9382983" lon="16.2082867"><ele>5.0</ele><time>2026-05-01T07:47:39.978Z</time></trkpt><trkpt lat="38.9383867" lon="16.20804"><ele>6.0</ele><time>2026-05-01T07:47:40.978Z</time></trkpt><trkpt lat="38.9384767" lon="16.2077983"><ele>7.0</ele><time>2026-05-01T07:47:41.978Z</time></trkpt><trkpt lat="38.938565" lon="16.207545"><ele>6.666666666666667</ele><time>2026-05-01T07:47:42.977Z</time></trkpt><trkpt lat="38.9386483" lon="16.207295"><ele>6.333333333333334</ele><time>2026-05-01T07:47:43.977Z</time></trkpt><trkpt lat="38.9387317" lon="16.20704"><ele>6.0</ele><time>2026-05-01T07:47:44.978Z</time></trkpt><trkpt lat="38.9388167" lon="16.2067867"><ele>6.0</ele><time>2026-05-01T07:47:45.977Z</time></trkpt><trkpt lat="38.9389033" lon="16.2065283"><ele>6.0</ele><time>2026-05-01T07:47:46.977Z</time></trkpt><trkpt lat="38.9389933" lon="16.2062733"><ele>6.0</ele><time>2026-05-01T07:47:47.977Z</time></trkpt><trkpt lat="38.939085" lon="16.206015"><ele>6.333333333333334</ele><time>2026-05-01T07:47:48.977Z</time></trkpt><trkpt lat="38.9391733" lon="16.2057567"><ele>6.666666666666667</ele><time>2026-05-01T07:47:49.978Z</time></trkpt><trkpt lat="38.9392617" lon="16.205495"><ele>7.0</ele><time>2026-05-01T07:47:50.978Z</time></trkpt><trkpt lat="38.93935" lon="16.2052283"><ele>6.0</ele><time>2026-05-01T07:47:51.977Z</time></trkpt><trkpt lat="38.9394433" lon="16.20497"><ele>5.0</ele><time>2026-05-01T07:47:52.978Z</time></trkpt><trkpt lat="38.9395317" lon="16.2047083"><ele>4.0</ele><time>2026-05-01T07:47:53.978Z</time></trkpt><trkpt lat="38.93962" lon="16.2044417"><ele>4.0</ele><time>2026-05-01T07:47:54.978Z</time></trkpt><trkpt lat="38.939715" lon="16.204175"><ele>4.0</ele><time>2026-05-01T07:47:55.977Z</time></trkpt><trkpt lat="38.939805" lon="16.2039033"><ele>4.0</ele><time>2026-05-01T07:47:56.977Z</time></trkpt><trkpt lat="38.93989" lon="16.2036383"><ele>4.0</ele><time>2026-05-01T07:47:57.978Z</time></trkpt><trkpt lat="38.9399783" lon="16.20336"><ele>3.5</ele><time>2026-05-01T07:47:58.978Z</time></trkpt><trkpt lat="38.94007" lon="16.2030917"><ele>3.0</ele><time>2026-05-01T07:47:59.977Z</time></trkpt><trkpt lat="38.9401583" lon="16.2028183"><ele>3.0</ele><time>2026-05-01T07:48:00.977Z</time></trkpt><trkpt lat="38.9402467" lon="16.2025433"><ele>3.0</ele><time>2026-05-01T07:48:01.977Z</time></trkpt><trkpt lat="38.9403417" lon="16.2022717"><ele>3.0</ele><time>2026-05-01T07:48:02.977Z</time></trkpt><trkpt lat="38.9404333" lon="16.2019933"><ele>3.0</ele><time>2026-05-01T07:48:03.977Z</time></trkpt><trkpt lat="38.940525" lon="16.2017133"><ele>3.0</ele><time>2026-05-01T07:48:04.977Z</time></trkpt><trkpt lat="38.9406167" lon="16.2014333"><ele>3.0</ele><time>2026-05-01T07:48:05.978Z</time></trkpt><trkpt lat="38.9407083" lon="16.20115"><ele>3.0</ele><time>2026-05-01T07:48:06.977Z</time></trkpt><trkpt lat="38.940795" lon="16.20086"><ele>3.0</ele><time>2026-05-01T07:48:07.977Z</time></trkpt><trkpt lat="38.940875" lon="16.2005817"><ele>2.6666666666666665</ele><time>2026-05-01T07:48:08.977Z</time></trkpt><trkpt lat="38.9409583" lon="16.2003133"><ele>2.333333333333333</ele><time>2026-05-01T07:48:09.978Z</time></trkpt><trkpt lat="38.941035" lon="16.2000483"><ele>2.0</ele><time>2026-05-01T07:48:10.977Z</time></trkpt><trkpt lat="38.9411183" lon="16.19978"><ele>2.0</ele><time>2026-05-01T07:48:11.977Z</time></trkpt><trkpt lat="38.9411917" lon="16.199515"><ele>2.0</ele><time>2026-05-01T07:48:12.978Z</time></trkpt><trkpt lat="38.9412683" lon="16.199245"><ele>2.0</ele><time>2026-05-01T07:48:13.977Z</time></trkpt><trkpt lat="38.9413467" lon="16.19897"><ele>2.5</ele><time>2026-05-01T07:48:14.977Z</time></trkpt><trkpt lat="38.9414283" lon="16.19869"><ele>3.0</ele><time>2026-05-01T07:48:15.977Z</time></trkpt><trkpt lat="38.9415067" lon="16.1984117"><ele>3.0</ele><time>2026-05-01T07:48:16.978Z</time></trkpt><trkpt lat="38.9415867" lon="16.198135"><ele>3.0</ele><time>2026-05-01T07:48:17.977Z</time></trkpt><trkpt lat="38.941665" lon="16.1978633"><ele>2.3333333333333335</ele><time>2026-05-01T07:48:18.977Z</time></trkpt><trkpt lat="38.9417383" lon="16.1976033"><ele>1.6666666666666665</ele><time>2026-05-01T07:48:19.977Z</time></trkpt><trkpt lat="38.9418133" lon="16.1973467"><ele>1.0</ele><time>2026-05-01T07:48:20.978Z</time></trkpt><trkpt lat="38.9418867" lon="16.1970933"><ele>1.0</ele><time>2026-05-01T07:48:21.977Z</time></trkpt><trkpt lat="38.9419583" lon="16.19683"><ele>1.0</ele><time>2026-05-01T07:48:22.978Z</time></trkpt><trkpt lat="38.942045" lon="16.1965383"><ele>1.5</ele><time>2026-05-01T07:48:23.977Z</time></trkpt><trkpt lat="38.9421333" lon="16.1962167"><ele>2.0</ele><time>2026-05-01T07:48:24.977Z</time></trkpt><trkpt lat="38.9422317" lon="16.1958717"><ele>2.0</ele><time>2026-05-01T07:48:25.977Z</time></trkpt><trkpt lat="38.94234" lon="16.1955017"><ele>2.0</ele><time>2026-05-01T07:48:26.977Z</time></trkpt><trkpt lat="38.9424583" lon="16.195115"><ele>2.0</ele><time>2026-05-01T07:48:27.977Z</time></trkpt><trkpt lat="38.9425867" lon="16.1947133"><ele>2.0</ele><time>2026-05-01T07:48:28.977Z</time></trkpt><trkpt lat="38.9427217" lon="16.1943033"><ele>1.5</ele><time>2026-05-01T07:48:29.977Z</time></trkpt><trkpt lat="38.9428667" lon="16.1938983"><ele>1.0</ele><time>2026-05-01T07:48:30.978Z</time></trkpt><trkpt lat="38.9430317" lon="16.1935"><ele>1.0</ele><time>2026-05-01T07:48:31.978Z</time></trkpt><trkpt lat="38.9432033" lon="16.1931067"><ele>1.0</ele><time>2026-05-01T07:48:32.978Z</time></trkpt><trkpt lat="38.9433717" lon="16.192725"><ele>0.5</ele><time>2026-05-01T07:48:33.977Z</time></trkpt><trkpt lat="38.943535" lon="16.1923633"><ele>0.0</ele><time>2026-05-01T07:48:34.978Z</time></trkpt><trkpt lat="38.9436983" lon="16.19202"><ele>1.0</ele><time>2026-05-01T07:48:35.977Z</time></trkpt><trkpt lat="38.94386" lon="16.1916767"><ele>2.0</ele><time>2026-05-01T07:48:36.978Z</time></trkpt><trkpt lat="38.9440267" lon="16.1913417"><ele>2.0</ele><time>2026-05-01T07:48:37.977Z</time></trkpt><trkpt lat="38.9441967" lon="16.191015"><ele>2.0</ele><time>2026-05-01T07:48:38.977Z</time></trkpt><trkpt lat="38.9443683" lon="16.1906983"><ele>2.0</ele><time>2026-05-01T07:48:39.978Z</time></trkpt><trkpt lat="38.9445383" lon="16.19039"><ele>2.0</ele><time>2026-05-01T07:48:40.977Z</time></trkpt><trkpt lat="38.9447133" lon="16.1900817"><ele>1.5</ele><time>2026-05-01T07:48:41.977Z</time></trkpt><trkpt lat="38.9449033" lon="16.1897733"><ele>1.0</ele><time>2026-05-01T07:48:42.977Z</time></trkpt><trkpt lat="38.9451" lon="16.1894633"><ele>0.5</ele><time>2026-05-01T07:48:43.978Z</time></trkpt><trkpt lat="38.9453017" lon="16.1891567"><ele>0.0</ele><time>2026-05-01T07:48:44.977Z</time></trkpt><trkpt lat="38.9454983" lon="16.1888533"><ele>0.0</ele><time>2026-05-01T07:48:45.977Z</time></trkpt><trkpt lat="38.9456983" lon="16.1885533"><ele>0.0</ele><time>2026-05-01T07:48:46.977Z</time></trkpt><trkpt lat="38.9458917" lon="16.1882633"><ele>0.5</ele><time>2026-05-01T07:48:47.977Z</time></trkpt><trkpt lat="38.9460833" lon="16.1879733"><ele>1.0</ele><time>2026-05-01T07:48:48.978Z</time></trkpt><trkpt lat="38.9462767" lon="16.1876817"><ele>1.0</ele><time>2026-05-01T07:48:49.977Z</time></trkpt><trkpt lat="38.9464717" lon="16.18739"><ele>1.0</ele><time>2026-05-01T07:48:50.977Z</time></trkpt><trkpt lat="38.9466567" lon="16.187105"><ele>0.5</ele><time>2026-05-01T07:48:51.978Z</time></trkpt><trkpt lat="38.94683" lon="16.1868367"><ele>0.0</ele><time>2026-05-01T07:48:52.978Z</time></trkpt><trkpt lat="38.9469967" lon="16.186575"><ele>1.0</ele><time>2026-05-01T07:48:53.977Z</time></trkpt><trkpt lat="38.94716" lon="16.18633"><ele>2.0</ele><time>2026-05-01T07:48:54.977Z</time></trkpt><trkpt lat="38.9473183" lon="16.1860867"><ele>2.0</ele><time>2026-05-01T07:48:55.977Z</time></trkpt><trkpt lat="38.9474783" lon="16.1858367"><ele>2.0</ele><time>2026-05-01T07:48:56.977Z</time></trkpt><trkpt lat="38.9476333" lon="16.185585"><ele>1.5</ele><time>2026-05-01T07:48:57.977Z</time></trkpt><trkpt lat="38.9477867" lon="16.1853283"><ele>1.0</ele><time>2026-05-01T07:48:58.978Z</time></trkpt><trkpt lat="38.9479383" lon="16.1850683"><ele>1.5</ele><time>2026-05-01T07:48:59.978Z</time></trkpt><trkpt lat="38.948085" lon="16.1848"><ele>2.0</ele><time>2026-05-01T07:49:00.977Z</time></trkpt><trkpt lat="38.9482333" lon="16.1845217"><ele>2.0</ele><time>2026-05-01T07:49:01.978Z</time></trkpt><trkpt lat="38.948375" lon="16.1842317"><ele>2.0</ele><time>2026-05-01T07:49:02.977Z</time></trkpt><trkpt lat="38.9485167" lon="16.18394"><ele>2.5</ele><time>2026-05-01T07:49:03.977Z</time></trkpt><trkpt lat="38.9486633" lon="16.1836483"><ele>3.0</ele><time>2026-05-01T07:49:04.977Z</time></trkpt><trkpt lat="38.9488033" lon="16.1833433"><ele>3.0</ele><time>2026-05-01T07:49:05.978Z</time></trkpt><trkpt lat="38.948935" lon="16.1830317"><ele>3.0</ele><time>2026-05-01T07:49:06.978Z</time></trkpt><trkpt lat="38.9490617" lon="16.18272"><ele>3.0</ele><time>2026-05-01T07:49:07.977Z</time></trkpt><trkpt lat="38.9491783" lon="16.1824117"><ele>3.0</ele><time>2026-05-01T07:49:08.977Z</time></trkpt><trkpt lat="38.94929" lon="16.1820983"><ele>5.5</ele><time>2026-05-01T07:49:09.977Z</time></trkpt><trkpt lat="38.9493967" lon="16.1817783"><ele>8.0</ele><time>2026-05-01T07:49:10.977Z</time></trkpt><trkpt lat="38.9495017" lon="16.1814533"><ele>9.0</ele><time>2026-05-01T07:49:11.977Z</time></trkpt><trkpt lat="38.9496033" lon="16.18113"><ele>10.0</ele><time>2026-05-01T07:49:12.977Z</time></trkpt><trkpt lat="38.9497" lon="16.1808017"><ele>10.5</ele><time>2026-05-01T07:49:13.978Z</time></trkpt><trkpt lat="38.949785" lon="16.1804817"><ele>11.0</ele><time>2026-05-01T07:49:14.978Z</time></trkpt><trkpt lat="38.9498667" lon="16.180165"><ele>11.0</ele><time>2026-05-01T07:49:15.977Z</time></trkpt><trkpt lat="38.9499417" lon="16.1798583"><ele>11.0</ele><time>2026-05-01T07:49:16.977Z</time></trkpt><trkpt lat="38.9500083" lon="16.1795567"><ele>16.5</ele><time>2026-05-01T07:49:17.977Z</time></trkpt><trkpt lat="38.9500733" lon="16.1792533"><ele>22.0</ele><time>2026-05-01T07:49:18.977Z</time></trkpt><trkpt lat="38.95013" lon="16.1789467"><ele>22.0</ele><time>2026-05-01T07:49:19.978Z</time></trkpt><trkpt lat="38.9501867" lon="16.1786417"><ele>22.0</ele><time>2026-05-01T07:49:20.978Z</time></trkpt><trkpt lat="38.950235" lon="16.17833"><ele>22.0</ele><time>2026-05-01T07:49:21.977Z</time></trkpt><trkpt lat="38.95028" lon="16.1780167"><ele>22.0</ele><time>2026-05-01T07:49:22.978Z</time></trkpt><trkpt lat="38.95032" lon="16.1777033"><ele>22.0</ele><time>2026-05-01T07:49:23.978Z</time></trkpt><trkpt lat="38.9503583" lon="16.1773917"><ele>22.0</ele><time>2026-05-01T07:49:24.978Z</time></trkpt><trkpt lat="38.9503883" lon="16.1770733"><ele>22.0</ele><time>2026-05-01T07:49:25.977Z</time></trkpt><trkpt lat="38.95042" lon="16.1767533"><ele>22.0</ele><time>2026-05-01T07:49:26.977Z</time></trkpt><trkpt lat="38.9504483" lon="16.176435"><ele>20.5</ele><time>2026-05-01T07:49:27.977Z</time></trkpt><trkpt lat="38.9504767" lon="16.176115"><ele>19.0</ele><time>2026-05-01T07:49:28.978Z</time></trkpt><trkpt lat="38.9505033" lon="16.17578"><ele>18.5</ele><time>2026-05-01T07:49:29.977Z</time></trkpt><trkpt lat="38.950525" lon="16.17543"><ele>18.0</ele><time>2026-05-01T07:49:30.978Z</time></trkpt><trkpt lat="38.9505467" lon="16.17508"><ele>16.5</ele><time>2026-05-01T07:49:31.977Z</time></trkpt><trkpt lat="38.9505667" lon="16.1747283"><ele>15.0</ele><time>2026-05-01T07:49:32.977Z</time></trkpt><trkpt lat="38.9505817" lon="16.1743783"><ele>15.0</ele><time>2026-05-01T07:49:33.977Z</time></trkpt><trkpt lat="38.9506" lon="16.1740367"><ele>15.0</ele><time>2026-05-01T07:49:34.977Z</time></trkpt><trkpt lat="38.9506167" lon="16.1736883"><ele>15.0</ele><time>2026-05-01T07:49:35.978Z</time></trkpt><trkpt lat="38.9506317" lon="16.1733417"><ele>15.0</ele><time>2026-05-01T07:49:36.977Z</time></trkpt><trkpt lat="38.9506483" lon="16.1729867"><ele>14.0</ele><time>2026-05-01T07:49:37.978Z</time></trkpt><trkpt lat="38.9506633" lon="16.1726283"><ele>13.0</ele><time>2026-05-01T07:49:38.978Z</time></trkpt><trkpt lat="38.9506767" lon="16.172275"><ele>11.5</ele><time>2026-05-01T07:49:39.977Z</time></trkpt><trkpt lat="38.95069" lon="16.1719167"><ele>10.0</ele><time>2026-05-01T07:49:40.977Z</time></trkpt><trkpt lat="38.9507083" lon="16.1715633"><ele>9.0</ele><time>2026-05-01T07:49:41.977Z</time></trkpt><trkpt lat="38.9507267" lon="16.1712033"><ele>8.0</ele><time>2026-05-01T07:49:42.978Z</time></trkpt><trkpt lat="38.9507433" lon="16.170845"><ele>8.0</ele><time>2026-05-01T07:49:43.977Z</time></trkpt><trkpt lat="38.950765" lon="16.1704833"><ele>8.0</ele><time>2026-05-01T07:49:44.977Z</time></trkpt><trkpt lat="38.9507817" lon="16.17013"><ele>7.5</ele><time>2026-05-01T07:49:45.977Z</time></trkpt><trkpt lat="38.9508017" lon="16.1697767"><ele>7.0</ele><time>2026-05-01T07:49:46.977Z</time></trkpt><trkpt lat="38.9508217" lon="16.1694233"><ele>7.0</ele><time>2026-05-01T07:49:47.977Z</time></trkpt><trkpt lat="38.9508383" lon="16.1690617"><ele>7.0</ele><time>2026-05-01T07:49:48.977Z</time></trkpt><trkpt lat="38.9508583" lon="16.168695"><ele>6.5</ele><time>2026-05-01T07:49:49.977Z</time></trkpt><trkpt lat="38.9508733" lon="16.1683333"><ele>6.0</ele><time>2026-05-01T07:49:50.977Z</time></trkpt><trkpt lat="38.9508983" lon="16.1679867"><ele>10.5</ele><time>2026-05-01T07:49:51.978Z</time></trkpt><trkpt lat="38.950915" lon="16.16764"><ele>15.0</ele><time>2026-05-01T07:49:52.977Z</time></trkpt><trkpt lat="38.9509283" lon="16.1672967"><ele>16.5</ele><time>2026-05-01T07:49:53.977Z</time></trkpt><trkpt lat="38.950945" lon="16.1669617"><ele>18.0</ele><time>2026-05-01T07:49:54.977Z</time></trkpt><trkpt lat="38.95096" lon="16.1666317"><ele>23.0</ele><time>2026-05-01T07:49:55.977Z</time></trkpt><trkpt lat="38.9509783" lon="16.1663067"><ele>28.0</ele><time>2026-05-01T07:49:56.977Z</time></trkpt><trkpt lat="38.95099" lon="16.16597"><ele>31.5</ele><time>2026-05-01T07:49:57.977Z</time></trkpt><trkpt lat="38.9510067" lon="16.1656333"><ele>35.0</ele><time>2026-05-01T07:49:58.977Z</time></trkpt><trkpt lat="38.951025" lon="16.1652967"><ele>35.0</ele><time>2026-05-01T07:49:59.978Z</time></trkpt><trkpt lat="38.9510433" lon="16.164965"><ele>35.0</ele><time>2026-05-01T07:50:00.978Z</time></trkpt><trkpt lat="38.9510683" lon="16.1646317"><ele>35.0</ele><time>2026-05-01T07:50:01.978Z</time></trkpt><trkpt lat="38.9510933" lon="16.1643033"><ele>35.0</ele><time>2026-05-01T07:50:02.977Z</time></trkpt><trkpt lat="38.9511217" lon="16.16397"><ele>35.0</ele><time>2026-05-01T07:50:03.977Z</time></trkpt><trkpt lat="38.9511583" lon="16.16364"><ele>35.0</ele><time>2026-05-01T07:50:04.977Z</time></trkpt><trkpt lat="38.9511967" lon="16.1633133"><ele>36.0</ele><time>2026-05-01T07:50:05.977Z</time></trkpt><trkpt lat="38.9512467" lon="16.16299"><ele>37.0</ele><time>2026-05-01T07:50:06.978Z</time></trkpt><trkpt lat="38.9512983" lon="16.1626733"><ele>37.0</ele><time>2026-05-01T07:50:07.977Z</time></trkpt><trkpt lat="38.9513583" lon="16.162365"><ele>37.0</ele><time>2026-05-01T07:50:08.978Z</time></trkpt><trkpt lat="38.9514333" lon="16.162055"><ele>37.0</ele><time>2026-05-01T07:50:09.978Z</time></trkpt><trkpt lat="38.951515" lon="16.1617483"><ele>37.0</ele><time>2026-05-01T07:50:10.978Z</time></trkpt><trkpt lat="38.9516083" lon="16.161445"><ele>39.0</ele><time>2026-05-01T07:50:11.977Z</time></trkpt><trkpt lat="38.9517183" lon="16.1611483"><ele>41.0</ele><time>2026-05-01T07:50:12.978Z</time></trkpt><trkpt lat="38.95183" lon="16.160855"><ele>39.5</ele><time>2026-05-01T07:50:13.977Z</time></trkpt><trkpt lat="38.951955" lon="16.16057"><ele>38.0</ele><time>2026-05-01T07:50:14.977Z</time></trkpt><trkpt lat="38.95209" lon="16.1602867"><ele>38.0</ele><time>2026-05-01T07:50:15.977Z</time></trkpt><trkpt lat="38.952235" lon="16.1600033"><ele>38.0</ele><time>2026-05-01T07:50:16.977Z</time></trkpt><trkpt lat="38.9523933" lon="16.159725"><ele>38.0</ele><time>2026-05-01T07:50:17.978Z</time></trkpt><trkpt lat="38.9525633" lon="16.1594617"><ele>38.0</ele><time>2026-05-01T07:50:18.977Z</time></trkpt><trkpt lat="38.9527483" lon="16.1592017"><ele>35.5</ele><time>2026-05-01T07:50:19.978Z</time></trkpt><trkpt lat="38.95294" lon="16.1589467"><ele>33.0</ele><time>2026-05-01T07:50:20.977Z</time></trkpt><trkpt lat="38.9531433" lon="16.158695"><ele>33.0</ele><time>2026-05-01T07:50:21.977Z</time></trkpt><trkpt lat="38.9533517" lon="16.1584517"><ele>33.0</ele><time>2026-05-01T07:50:22.977Z</time></trkpt><trkpt lat="38.95357" lon="16.158225"><ele>29.0</ele><time>2026-05-01T07:50:23.978Z</time></trkpt><trkpt lat="38.9537933" lon="16.158015"><ele>25.0</ele><time>2026-05-01T07:50:24.977Z</time></trkpt><trkpt lat="38.9540267" lon="16.1578167"><ele>27.0</ele><time>2026-05-01T07:50:25.977Z</time></trkpt><trkpt lat="38.954265" lon="16.1576233"><ele>29.0</ele><time>2026-05-01T07:50:26.977Z</time></trkpt><trkpt lat="38.9545167" lon="16.1574383"><ele>26.0</ele><time>2026-05-01T07:50:27.977Z</time></trkpt><trkpt lat="38.95477" lon="16.1572617"><ele>23.0</ele><time>2026-05-01T07:50:28.977Z</time></trkpt><trkpt lat="38.9550233" lon="16.1571"><ele>25.5</ele><time>2026-05-01T07:50:29.978Z</time></trkpt><trkpt lat="38.9552767" lon="16.15695"><ele>28.0</ele><time>2026-05-01T07:50:30.977Z</time></trkpt><trkpt lat="38.9555317" lon="16.1568083"><ele>28.0</ele><time>2026-05-01T07:50:31.977Z</time></trkpt><trkpt lat="38.9557867" lon="16.156675"><ele>28.0</ele><time>2026-05-01T07:50:32.977Z</time></trkpt><trkpt lat="38.95605" lon="16.156555"><ele>22.5</ele><time>2026-05-01T07:50:33.977Z</time></trkpt><trkpt lat="38.956315" lon="16.1564433"><ele>17.0</ele><time>2026-05-01T07:50:34.978Z</time></trkpt><trkpt lat="38.9565717" lon="16.1563383"><ele>15.5</ele><time>2026-05-01T07:50:35.978Z</time></trkpt><trkpt lat="38.9568233" lon="16.15624"><ele>14.0</ele><time>2026-05-01T07:50:36.978Z</time></trkpt><trkpt lat="38.957065" lon="16.1561533"><ele>14.0</ele><time>2026-05-01T07:50:37.978Z</time></trkpt><trkpt lat="38.957305" lon="16.1560767"><ele>14.0</ele><time>2026-05-01T07:50:38.977Z</time></trkpt><trkpt lat="38.9575433" lon="16.1560117"><ele>14.5</ele><time>2026-05-01T07:50:39.978Z</time></trkpt><trkpt lat="38.957785" lon="16.1559483"><ele>15.0</ele><time>2026-05-01T07:50:40.977Z</time></trkpt><trkpt lat="38.958025" lon="16.1558867"><ele>15.0</ele><time>2026-05-01T07:50:41.977Z</time></trkpt><trkpt lat="38.9582667" lon="16.1558367"><ele>15.0</ele><time>2026-05-01T07:50:42.977Z</time></trkpt><trkpt lat="38.9585067" lon="16.1557817"><ele>15.5</ele><time>2026-05-01T07:50:43.977Z</time></trkpt><trkpt lat="38.9587533" lon="16.1557283"><ele>16.0</ele><time>2026-05-01T07:50:44.978Z</time></trkpt><trkpt lat="38.9589983" lon="16.1556917"><ele>12.5</ele><time>2026-05-01T07:50:45.978Z</time></trkpt><trkpt lat="38.95924" lon="16.1556617"><ele>9.0</ele><time>2026-05-01T07:50:46.977Z</time></trkpt><trkpt lat="38.9594817" lon="16.1556417"><ele>9.0</ele><time>2026-05-01T07:50:47.978Z</time></trkpt><trkpt lat="38.9597217" lon="16.1556233"><ele>9.0</ele><time>2026-05-01T07:50:48.978Z</time></trkpt><trkpt lat="38.95997" lon="16.1556083"><ele>9.5</ele><time>2026-05-01T07:50:49.977Z</time></trkpt><trkpt lat="38.960215" lon="16.1555967"><ele>10.0</ele><time>2026-05-01T07:50:50.977Z</time></trkpt><trkpt lat="38.9604583" lon="16.1555817"><ele>10.0</ele><time>2026-05-01T07:50:51.978Z</time></trkpt><trkpt lat="38.960705" lon="16.1555733"><ele>10.0</ele><time>2026-05-01T07:50:52.977Z</time></trkpt><trkpt lat="38.9609467" lon="16.1555617"><ele>10.5</ele><time>2026-05-01T07:50:53.978Z</time></trkpt><trkpt lat="38.9611983" lon="16.1555483"><ele>11.0</ele><time>2026-05-01T07:50:54.978Z</time></trkpt><trkpt lat="38.9614667" lon="16.155545"><ele>12.5</ele><time>2026-05-01T07:50:55.978Z</time></trkpt><trkpt lat="38.961745" lon="16.1555417"><ele>14.0</ele><time>2026-05-01T07:50:56.978Z</time></trkpt><trkpt lat="38.96203" lon="16.15554"><ele>14.0</ele><time>2026-05-01T07:50:57.977Z</time></trkpt><trkpt lat="38.9623017" lon="16.1555383"><ele>14.0</ele><time>2026-05-01T07:50:58.977Z</time></trkpt><trkpt lat="38.9625633" lon="16.1555417"><ele>15.5</ele><time>2026-05-01T07:50:59.977Z</time></trkpt><trkpt lat="38.96283" lon="16.155535"><ele>17.0</ele><time>2026-05-01T07:51:00.978Z</time></trkpt><trkpt lat="38.963095" lon="16.15552"><ele>17.0</ele><time>2026-05-01T07:51:01.977Z</time></trkpt><trkpt lat="38.9633483" lon="16.155495"><ele>17.0</ele><time>2026-05-01T07:51:02.978Z</time></trkpt><trkpt lat="38.9636" lon="16.15548"><ele>16.0</ele><time>2026-05-01T07:51:03.977Z</time></trkpt><trkpt lat="38.9638517" lon="16.1554617"><ele>15.0</ele><time>2026-05-01T07:51:04.978Z</time></trkpt><trkpt lat="38.9641" lon="16.155435"><ele>15.0</ele><time>2026-05-01T07:51:05.977Z</time></trkpt><trkpt lat="38.96434" lon="16.1554217"><ele>15.0</ele><time>2026-05-01T07:51:06.978Z</time></trkpt><trkpt lat="38.9645783" lon="16.1554017"><ele>15.0</ele><time>2026-05-01T07:51:07.977Z</time></trkpt><trkpt lat="38.964815" lon="16.1553783"><ele>15.0</ele><time>2026-05-01T07:51:08.977Z</time></trkpt><trkpt lat="38.96505" lon="16.1553467"><ele>15.5</ele><time>2026-05-01T07:51:09.978Z</time></trkpt><trkpt lat="38.9652767" lon="16.1553133"><ele>16.0</ele><time>2026-05-01T07:51:10.977Z</time></trkpt><trkpt lat="38.9655" lon="16.155275"><ele>16.0</ele><time>2026-05-01T07:51:11.978Z</time></trkpt><trkpt lat="38.9657233" lon="16.1552367"><ele>16.0</ele><time>2026-05-01T07:51:12.977Z</time></trkpt><trkpt lat="38.9659283" lon="16.1551933"><ele>16.0</ele><time>2026-05-01T07:51:13.978Z</time></trkpt><trkpt lat="38.9661217" lon="16.1551483"><ele>16.666666666666664</ele><time>2026-05-01T07:51:14.978Z</time></trkpt><trkpt lat="38.9663017" lon="16.1551"><ele>17.333333333333332</ele><time>2026-05-01T07:51:15.978Z</time></trkpt><trkpt lat="38.96647" lon="16.1550567"><ele>18.0</ele><time>2026-05-01T07:51:16.978Z</time></trkpt><trkpt lat="38.9666367" lon="16.1550117"><ele>17.666666666666668</ele><time>2026-05-01T07:51:17.977Z</time></trkpt><trkpt lat="38.966805" lon="16.1549617"><ele>17.333333333333336</ele><time>2026-05-01T07:51:18.978Z</time></trkpt><trkpt lat="38.9669717" lon="16.1549083"><ele>17.0</ele><time>2026-05-01T07:51:19.977Z</time></trkpt><trkpt lat="38.9671417" lon="16.1548533"><ele>15.333333333333334</ele><time>2026-05-01T07:51:20.977Z</time></trkpt><trkpt lat="38.96731" lon="16.1547983"><ele>13.666666666666668</ele><time>2026-05-01T07:51:21.977Z</time></trkpt><trkpt lat="38.9674833" lon="16.1547367"><ele>12.0</ele><time>2026-05-01T07:51:22.978Z</time></trkpt><trkpt lat="38.967665" lon="16.1546767"><ele>12.0</ele><time>2026-05-01T07:51:23.977Z</time></trkpt><trkpt lat="38.9678483" lon="16.154605"><ele>12.0</ele><time>2026-05-01T07:51:24.978Z</time></trkpt><trkpt lat="38.968035" lon="16.1545317"><ele>12.0</ele><time>2026-05-01T07:51:25.978Z</time></trkpt><trkpt lat="38.9682317" lon="16.1544533"><ele>13.0</ele><time>2026-05-01T07:51:26.977Z</time></trkpt><trkpt lat="38.96843" lon="16.154375"><ele>14.0</ele><time>2026-05-01T07:51:27.978Z</time></trkpt><trkpt lat="38.9686283" lon="16.1542933"><ele>15.0</ele><time>2026-05-01T07:51:28.977Z</time></trkpt><trkpt lat="38.9688217" lon="16.1542117"><ele>15.0</ele><time>2026-05-01T07:51:29.977Z</time></trkpt><trkpt lat="38.9690067" lon="16.1541367"><ele>15.0</ele><time>2026-05-01T07:51:30.977Z</time></trkpt><trkpt lat="38.969185" lon="16.154065"><ele>15.0</ele><time>2026-05-01T07:51:31.977Z</time></trkpt><trkpt lat="38.9693567" lon="16.1539867"><ele>15.0</ele><time>2026-05-01T07:51:32.977Z</time></trkpt><trkpt lat="38.9695167" lon="16.1539183"><ele>15.0</ele><time>2026-05-01T07:51:33.978Z</time></trkpt><trkpt lat="38.9696667" lon="16.1538517"><ele>15.0</ele><time>2026-05-01T07:51:34.977Z</time></trkpt><trkpt lat="38.96982" lon="16.15379"><ele>15.0</ele><time>2026-05-01T07:51:35.978Z</time></trkpt><trkpt lat="38.96998" lon="16.1537217"><ele>15.0</ele><time>2026-05-01T07:51:36.977Z</time></trkpt><trkpt lat="38.9701333" lon="16.153655"><ele>15.0</ele><time>2026-05-01T07:51:37.977Z</time></trkpt><trkpt lat="38.97029" lon="16.1535933"><ele>15.333333333333332</ele><time>2026-05-01T07:51:38.977Z</time></trkpt><trkpt lat="38.9704483" lon="16.1535283"><ele>15.666666666666666</ele><time>2026-05-01T07:51:39.977Z</time></trkpt><trkpt lat="38.9706117" lon="16.1534567"><ele>16.0</ele><time>2026-05-01T07:51:40.977Z</time></trkpt><trkpt lat="38.9707833" lon="16.1533883"><ele>15.666666666666666</ele><time>2026-05-01T07:51:41.978Z</time></trkpt><trkpt lat="38.970955" lon="16.1533217"><ele>15.333333333333332</ele><time>2026-05-01T07:51:42.977Z</time></trkpt><trkpt lat="38.9711383" lon="16.1532467"><ele>15.0</ele><time>2026-05-01T07:51:43.977Z</time></trkpt><trkpt lat="38.97133" lon="16.1531683"><ele>15.333333333333332</ele><time>2026-05-01T07:51:44.977Z</time></trkpt><trkpt lat="38.9715233" lon="16.1530867"><ele>15.666666666666666</ele><time>2026-05-01T07:51:45.978Z</time></trkpt><trkpt lat="38.97172" lon="16.1529983"><ele>16.0</ele><time>2026-05-01T07:51:46.977Z</time></trkpt><trkpt lat="38.971925" lon="16.1529017"><ele>16.0</ele><time>2026-05-01T07:51:47.977Z</time></trkpt><trkpt lat="38.9721367" lon="16.1527883"><ele>16.0</ele><time>2026-05-01T07:51:48.978Z</time></trkpt><trkpt lat="38.972345" lon="16.1526683"><ele>17.5</ele><time>2026-05-01T07:51:49.977Z</time></trkpt><trkpt lat="38.9725567" lon="16.1525383"><ele>19.0</ele><time>2026-05-01T07:51:50.978Z</time></trkpt><trkpt lat="38.97277" lon="16.1523983"><ele>16.5</ele><time>2026-05-01T07:51:51.978Z</time></trkpt><trkpt lat="38.9729867" lon="16.15225"><ele>14.0</ele><time>2026-05-01T07:51:52.978Z</time></trkpt><trkpt lat="38.9731983" lon="16.15209"><ele>14.5</ele><time>2026-05-01T07:51:53.977Z</time></trkpt><trkpt lat="38.9734133" lon="16.151915"><ele>15.0</ele><time>2026-05-01T07:51:54.977Z</time></trkpt><trkpt lat="38.9736267" lon="16.1517167"><ele>14.0</ele><time>2026-05-01T07:51:55.977Z</time></trkpt><trkpt lat="38.9738317" lon="16.1515117"><ele>13.0</ele><time>2026-05-01T07:51:56.977Z</time></trkpt><trkpt lat="38.9740383" lon="16.1512817"><ele>16.0</ele><time>2026-05-01T07:51:57.977Z</time></trkpt><trkpt lat="38.9742367" lon="16.15104"><ele>19.0</ele><time>2026-05-01T07:51:58.978Z</time></trkpt><trkpt lat="38.974425" lon="16.1507833"><ele>18.5</ele><time>2026-05-01T07:51:59.978Z</time></trkpt><trkpt lat="38.9746117" lon="16.15051"><ele>18.0</ele><time>2026-05-01T07:52:00.977Z</time></trkpt><trkpt lat="38.9747883" lon="16.1502217"><ele>18.0</ele><time>2026-05-01T07:52:01.977Z</time></trkpt><trkpt lat="38.9749583" lon="16.1499267"><ele>18.0</ele><time>2026-05-01T07:52:02.977Z</time></trkpt><trkpt lat="38.9751267" lon="16.1496167"><ele>25.0</ele><time>2026-05-01T07:52:03.977Z</time></trkpt><trkpt lat="38.975285" lon="16.1493"><ele>32.0</ele><time>2026-05-01T07:52:04.978Z</time></trkpt><trkpt lat="38.9754433" lon="16.148985"><ele>32.0</ele><time>2026-05-01T07:52:05.978Z</time></trkpt><trkpt lat="38.9756033" lon="16.1486683"><ele>32.0</ele><time>2026-05-01T07:52:06.978Z</time></trkpt><trkpt lat="38.9757717" lon="16.1483483"><ele>32.0</ele><time>2026-05-01T07:52:07.977Z</time></trkpt><trkpt lat="38.97594" lon="16.14804"><ele>32.0</ele><time>2026-05-01T07:52:08.978Z</time></trkpt><trkpt lat="38.9761167" lon="16.1477383"><ele>32.0</ele><time>2026-05-01T07:52:09.977Z</time></trkpt><trkpt lat="38.9763017" lon="16.147445"><ele>32.0</ele><time>2026-05-01T07:52:10.977Z</time></trkpt><trkpt lat="38.9764983" lon="16.147165"><ele>33.0</ele><time>2026-05-01T07:52:11.978Z</time></trkpt><trkpt lat="38.9767017" lon="16.14689"><ele>34.0</ele><time>2026-05-01T07:52:12.977Z</time></trkpt><trkpt lat="38.9769067" lon="16.146635"><ele>31.5</ele><time>2026-05-01T07:52:13.977Z</time></trkpt><trkpt lat="38.9771333" lon="16.1464033"><ele>29.0</ele><time>2026-05-01T07:52:14.978Z</time></trkpt><trkpt lat="38.97737" lon="16.1461867"><ele>32.5</ele><time>2026-05-01T07:52:15.978Z</time></trkpt><trkpt lat="38.9776167" lon="16.1459767"><ele>36.0</ele><time>2026-05-01T07:52:16.977Z</time></trkpt><trkpt lat="38.9778717" lon="16.1457767"><ele>32.5</ele><time>2026-05-01T07:52:17.977Z</time></trkpt><trkpt lat="38.9781317" lon="16.1455933"><ele>29.0</ele><time>2026-05-01T07:52:18.977Z</time></trkpt><trkpt lat="38.9784067" lon="16.1454283"><ele>29.0</ele><time>2026-05-01T07:52:19.977Z</time></trkpt><trkpt lat="38.978685" lon="16.1452767"><ele>29.0</ele><time>2026-05-01T07:52:20.978Z</time></trkpt><trkpt lat="38.9789783" lon="16.1451433"><ele>28.5</ele><time>2026-05-01T07:52:21.977Z</time></trkpt><trkpt lat="38.979275" lon="16.1450183"><ele>28.0</ele><time>2026-05-01T07:52:22.977Z</time></trkpt><trkpt lat="38.979575" lon="16.144915"><ele>24.0</ele><time>2026-05-01T07:52:23.978Z</time></trkpt><trkpt lat="38.9798767" lon="16.1448317"><ele>20.0</ele><time>2026-05-01T07:52:24.977Z</time></trkpt><trkpt lat="38.980185" lon="16.144765"><ele>20.0</ele><time>2026-05-01T07:52:25.978Z</time></trkpt><trkpt lat="38.9805083" lon="16.1447133"><ele>20.0</ele><time>2026-05-01T07:52:26.978Z</time></trkpt><trkpt lat="38.9808383" lon="16.144665"><ele>20.5</ele><time>2026-05-01T07:52:27.977Z</time></trkpt><trkpt lat="38.981175" lon="16.14462"><ele>21.0</ele><time>2026-05-01T07:52:28.978Z</time></trkpt><trkpt lat="38.9815167" lon="16.1445767"><ele>23.5</ele><time>2026-05-01T07:52:29.977Z</time></trkpt><trkpt lat="38.98186" lon="16.1445267"><ele>26.0</ele><time>2026-05-01T07:52:30.977Z</time></trkpt><trkpt lat="38.9822083" lon="16.1444667"><ele>27.5</ele><time>2026-05-01T07:52:31.978Z</time></trkpt><trkpt lat="38.9825567" lon="16.1443967"><ele>29.0</ele><time>2026-05-01T07:52:32.977Z</time></trkpt><trkpt lat="38.98291" lon="16.14431"><ele>29.0</ele><time>2026-05-01T07:52:33.977Z</time></trkpt><trkpt lat="38.9832583" lon="16.144205"><ele>29.0</ele><time>2026-05-01T07:52:34.977Z</time></trkpt><trkpt lat="38.983605" lon="16.14408"><ele>29.0</ele><time>2026-05-01T07:52:35.977Z</time></trkpt><trkpt lat="38.983945" lon="16.1439333"><ele>29.0</ele><time>2026-05-01T07:52:36.977Z</time></trkpt><trkpt lat="38.984275" lon="16.143775"><ele>30.0</ele><time>2026-05-01T07:52:37.977Z</time></trkpt><trkpt lat="38.9846017" lon="16.1435933"><ele>31.0</ele><time>2026-05-01T07:52:38.978Z</time></trkpt><trkpt lat="38.9849183" lon="16.1433883"><ele>30.5</ele><time>2026-05-01T07:52:39.977Z</time></trkpt><trkpt lat="38.9852333" lon="16.1431617"><ele>30.0</ele><time>2026-05-01T07:52:40.977Z</time></trkpt><trkpt lat="38.9855367" lon="16.1429267"><ele>30.0</ele><time>2026-05-01T07:52:41.978Z</time></trkpt><trkpt lat="38.9858367" lon="16.14267"><ele>30.0</ele><time>2026-05-01T07:52:42.977Z</time></trkpt><trkpt lat="38.9861283" lon="16.1424"><ele>30.5</ele><time>2026-05-01T07:52:43.977Z</time></trkpt><trkpt lat="38.9864133" lon="16.1421167"><ele>31.0</ele><time>2026-05-01T07:52:44.977Z</time></trkpt><trkpt lat="38.986695" lon="16.14183"><ele>34.0</ele><time>2026-05-01T07:52:45.977Z</time></trkpt><trkpt lat="38.9869733" lon="16.1415383"><ele>37.0</ele><time>2026-05-01T07:52:46.977Z</time></trkpt><trkpt lat="38.987235" lon="16.1412633"><ele>37.0</ele><time>2026-05-01T07:52:47.977Z</time></trkpt><trkpt lat="38.9874967" lon="16.1409917"><ele>37.0</ele><time>2026-05-01T07:52:48.978Z</time></trkpt><trkpt lat="38.9877583" lon="16.1407283"><ele>34.0</ele><time>2026-05-01T07:52:49.977Z</time></trkpt><trkpt lat="38.9880267" lon="16.14047"><ele>31.0</ele><time>2026-05-01T07:52:50.977Z</time></trkpt><trkpt lat="38.9882933" lon="16.140235"><ele>33.5</ele><time>2026-05-01T07:52:51.977Z</time></trkpt><trkpt lat="38.9885667" lon="16.140015"><ele>36.0</ele><time>2026-05-01T07:52:52.977Z</time></trkpt><trkpt lat="38.9888467" lon="16.1398117"><ele>30.0</ele><time>2026-05-01T07:52:53.977Z</time></trkpt><trkpt lat="38.98912" lon="16.1396317"><ele>24.0</ele><time>2026-05-01T07:52:54.978Z</time></trkpt><trkpt lat="38.9893933" lon="16.1394717"><ele>24.0</ele><time>2026-05-01T07:52:55.977Z</time></trkpt><trkpt lat="38.98967" lon="16.1393233"><ele>24.0</ele><time>2026-05-01T07:52:56.978Z</time></trkpt><trkpt lat="38.989945" lon="16.139185"><ele>19.5</ele><time>2026-05-01T07:52:57.978Z</time></trkpt><trkpt lat="38.99022" lon="16.139045"><ele>15.0</ele><time>2026-05-01T07:52:58.977Z</time></trkpt><trkpt lat="38.9904983" lon="16.1389083"><ele>15.0</ele><time>2026-05-01T07:52:59.978Z</time></trkpt><trkpt lat="38.9907667" lon="16.138775"><ele>15.0</ele><time>2026-05-01T07:53:00.977Z</time></trkpt><trkpt lat="38.991025" lon="16.1386467"><ele>16.5</ele><time>2026-05-01T07:53:01.978Z</time></trkpt><trkpt lat="38.9912767" lon="16.1385283"><ele>18.0</ele><time>2026-05-01T07:53:02.977Z</time></trkpt><trkpt lat="38.9915217" lon="16.1384083"><ele>17.5</ele><time>2026-05-01T07:53:03.977Z</time></trkpt><trkpt lat="38.9917633" lon="16.1382917"><ele>17.0</ele><time>2026-05-01T07:53:04.977Z</time></trkpt><trkpt lat="38.9920117" lon="16.1381733"><ele>17.0</ele><time>2026-05-01T07:53:05.978Z</time></trkpt><trkpt lat="38.9922533" lon="16.1380567"><ele>17.0</ele><time>2026-05-01T07:53:06.977Z</time></trkpt><trkpt lat="38.9924967" lon="16.13794"><ele>17.0</ele><time>2026-05-01T07:53:07.977Z</time></trkpt><trkpt lat="38.9927383" lon="16.1378183"><ele>17.0</ele><time>2026-05-01T07:53:08.977Z</time></trkpt><trkpt lat="38.9929833" lon="16.1377017"><ele>17.0</ele><time>2026-05-01T07:53:09.977Z</time></trkpt><trkpt lat="38.99323" lon="16.1375867"><ele>17.0</ele><time>2026-05-01T07:53:10.977Z</time></trkpt><trkpt lat="38.993475" lon="16.1374833"><ele>19.0</ele><time>2026-05-01T07:53:11.978Z</time></trkpt><trkpt lat="38.9937133" lon="16.137375"><ele>21.0</ele><time>2026-05-01T07:53:12.977Z</time></trkpt><trkpt lat="38.9939467" lon="16.1372733"><ele>21.0</ele><time>2026-05-01T07:53:13.977Z</time></trkpt><trkpt lat="38.9941733" lon="16.137165"><ele>21.0</ele><time>2026-05-01T07:53:14.978Z</time></trkpt><trkpt lat="38.9943933" lon="16.1370567"><ele>21.0</ele><time>2026-05-01T07:53:15.978Z</time></trkpt><trkpt lat="38.9946117" lon="16.136945"><ele>21.0</ele><time>2026-05-01T07:53:16.978Z</time></trkpt><trkpt lat="38.9948267" lon="16.1368367"><ele>19.666666666666668</ele><time>2026-05-01T07:53:17.978Z</time></trkpt><trkpt lat="38.9950417" lon="16.1367517"><ele>18.333333333333336</ele><time>2026-05-01T07:53:18.977Z</time></trkpt><trkpt lat="38.99524" lon="16.1366767"><ele>17.0</ele><time>2026-05-01T07:53:19.978Z</time></trkpt><trkpt lat="38.995425" lon="16.13661"><ele>15.333333333333334</ele><time>2026-05-01T07:53:20.977Z</time></trkpt><trkpt lat="38.9956" lon="16.13655"><ele>13.666666666666668</ele><time>2026-05-01T07:53:21.978Z</time></trkpt><trkpt lat="38.99578" lon="16.1364917"><ele>12.0</ele><time>2026-05-01T07:53:22.977Z</time></trkpt><trkpt lat="38.99596" lon="16.13644"><ele>11.0</ele><time>2026-05-01T07:53:23.977Z</time></trkpt><trkpt lat="38.99614" lon="16.13639"><ele>10.0</ele><time>2026-05-01T07:53:24.977Z</time></trkpt><trkpt lat="38.9963233" lon="16.13634"><ele>9.0</ele><time>2026-05-01T07:53:25.977Z</time></trkpt><trkpt lat="38.9965183" lon="16.1362917"><ele>8.333333333333334</ele><time>2026-05-01T07:53:26.978Z</time></trkpt><trkpt lat="38.9967183" lon="16.1362467"><ele>7.666666666666667</ele><time>2026-05-01T07:53:27.978Z</time></trkpt><trkpt lat="38.99692" lon="16.136195"><ele>7.0</ele><time>2026-05-01T07:53:28.977Z</time></trkpt><trkpt lat="38.9971167" lon="16.1361483"><ele>7.0</ele><time>2026-05-01T07:53:29.977Z</time></trkpt><trkpt lat="38.9973083" lon="16.1361083"><ele>7.0</ele><time>2026-05-01T07:53:30.977Z</time></trkpt><trkpt lat="38.997495" lon="16.1360683"><ele>7.0</ele><time>2026-05-01T07:53:31.978Z</time></trkpt><trkpt lat="38.9976783" lon="16.1360317"><ele>6.666666666666667</ele><time>2026-05-01T07:53:32.977Z</time></trkpt><trkpt lat="38.99785" lon="16.1359933"><ele>6.333333333333334</ele><time>2026-05-01T07:53:33.977Z</time></trkpt><trkpt lat="38.99802" lon="16.1359517"><ele>6.0</ele><time>2026-05-01T07:53:34.977Z</time></trkpt><trkpt lat="38.99818" lon="16.13592"><ele>6.0</ele><time>2026-05-01T07:53:35.977Z</time></trkpt><trkpt lat="38.9983283" lon="16.13589"><ele>6.0</ele><time>2026-05-01T07:53:36.978Z</time></trkpt><trkpt lat="38.99847" lon="16.1358517"><ele>6.0</ele><time>2026-05-01T07:53:37.978Z</time></trkpt><trkpt lat="38.9986" lon="16.1358283"><ele>6.0</ele><time>2026-05-01T07:53:38.977Z</time></trkpt><trkpt lat="38.9987233" lon="16.1358067"><ele>6.0</ele><time>2026-05-01T07:53:39.978Z</time></trkpt><trkpt lat="38.9988417" lon="16.1357817"><ele>6.0</ele><time>2026-05-01T07:53:40.978Z</time></trkpt><trkpt lat="38.9989583" lon="16.13575"><ele>6.0</ele><time>2026-05-01T07:53:41.978Z</time></trkpt><trkpt lat="38.9990683" lon="16.135725"><ele>6.0</ele><time>2026-05-01T07:53:42.977Z</time></trkpt><trkpt lat="38.9991667" lon="16.1357"><ele>6.0</ele><time>2026-05-01T07:53:43.978Z</time></trkpt><trkpt lat="38.9992617" lon="16.1356667"><ele>6.0</ele><time>2026-05-01T07:53:44.977Z</time></trkpt><trkpt lat="38.9993583" lon="16.1356483"><ele>6.0</ele><time>2026-05-01T07:53:45.978Z</time></trkpt><trkpt lat="38.999445" lon="16.1356267"><ele>6.0</ele><time>2026-05-01T07:53:46.977Z</time></trkpt><trkpt lat="38.9995317" lon="16.1356067"><ele>6.0</ele><time>2026-05-01T07:53:47.978Z</time></trkpt><trkpt lat="38.9996167" lon="16.1355867"><ele>6.0</ele><time>2026-05-01T07:53:48.977Z</time></trkpt><trkpt lat="38.9996983" lon="16.1355733"><ele>6.0</ele><time>2026-05-01T07:53:49.977Z</time></trkpt><trkpt lat="38.9997867" lon="16.135565"><ele>6.0</ele><time>2026-05-01T07:53:50.977Z</time></trkpt><trkpt lat="38.9998833" lon="16.135565"><ele>6.0</ele><time>2026-05-01T07:53:51.978Z</time></trkpt><trkpt lat="38.9999833" lon="16.1355833"><ele>6.0</ele><time>2026-05-01T07:53:52.977Z</time></trkpt><trkpt lat="39.0000867" lon="16.1356167"><ele>6.0</ele><time>2026-05-01T07:53:53.977Z</time></trkpt><trkpt lat="39.0001983" lon="16.1356717"><ele>6.0</ele><time>2026-05-01T07:53:54.977Z</time></trkpt><trkpt lat="39.0003167" lon="16.1357567"><ele>6.0</ele><time>2026-05-01T07:53:55.978Z</time></trkpt><trkpt lat="39.0004217" lon="16.13585"><ele>6.0</ele><time>2026-05-01T07:53:56.978Z</time></trkpt><trkpt lat="39.0005117" lon="16.1359483"><ele>6.0</ele><time>2026-05-01T07:53:57.977Z</time></trkpt><trkpt lat="39.0005983" lon="16.136055"><ele>6.0</ele><time>2026-05-01T07:53:58.977Z</time></trkpt><trkpt lat="39.0006783" lon="16.1361683"><ele>6.0</ele><time>2026-05-01T07:53:59.978Z</time></trkpt><trkpt lat="39.0007783" lon="16.136275"><ele>6.0</ele><time>2026-05-01T07:54:00.977Z</time></trkpt><trkpt lat="39.0009117" lon="16.13634"><ele>6.0</ele><time>2026-05-01T07:54:01.978Z</time></trkpt><trkpt lat="39.0010533" lon="16.1363533"><ele>6.0</ele><time>2026-05-01T07:54:02.978Z</time></trkpt><trkpt lat="39.0011883" lon="16.1363067"><ele>6.0</ele><time>2026-05-01T07:54:03.977Z</time></trkpt><trkpt lat="39.0013017" lon="16.13621"><ele>6.0</ele><time>2026-05-01T07:54:04.977Z</time></trkpt><trkpt lat="39.0013783" lon="16.1360867"><ele>6.0</ele><time>2026-05-01T07:54:05.978Z</time></trkpt><trkpt lat="39.00142" lon="16.1359417"><ele>6.0</ele><time>2026-05-01T07:54:06.978Z</time></trkpt><trkpt lat="39.00144" lon="16.135775"><ele>6.0</ele><time>2026-05-01T07:54:07.977Z</time></trkpt><trkpt lat="39.00144" lon="16.1356033"><ele>6.0</ele><time>2026-05-01T07:54:08.978Z</time></trkpt><trkpt lat="39.00142" lon="16.1354467"><ele>5.5</ele><time>2026-05-01T07:54:09.977Z</time></trkpt><trkpt lat="39.0013933" lon="16.135285"><ele>5.0</ele><time>2026-05-01T07:54:10.977Z</time></trkpt><trkpt lat="39.00137" lon="16.13512"><ele>4.5</ele><time>2026-05-01T07:54:11.977Z</time></trkpt><trkpt lat="39.0013483" lon="16.13496"><ele>4.0</ele><time>2026-05-01T07:54:12.978Z</time></trkpt><trkpt lat="39.0013233" lon="16.1348083"><ele>4.0</ele><time>2026-05-01T07:54:13.977Z</time></trkpt><trkpt lat="39.0012983" lon="16.134645"><ele>4.0</ele><time>2026-05-01T07:54:14.978Z</time></trkpt><trkpt lat="39.0012717" lon="16.134475"><ele>4.0</ele><time>2026-05-01T07:54:15.977Z</time></trkpt><trkpt lat="39.0012467" lon="16.1343133"><ele>4.0</ele><time>2026-05-01T07:54:16.977Z</time></trkpt><trkpt lat="39.0012217" lon="16.13415"><ele>4.0</ele><time>2026-05-01T07:54:17.978Z</time></trkpt><trkpt lat="39.0012033" lon="16.1339983"><ele>4.0</ele><time>2026-05-01T07:54:18.977Z</time></trkpt><trkpt lat="39.00118" lon="16.1338467"><ele>4.0</ele><time>2026-05-01T07:54:19.977Z</time></trkpt><trkpt lat="39.0011533" lon="16.1337067"><ele>4.0</ele><time>2026-05-01T07:54:20.978Z</time></trkpt><trkpt lat="39.0011233" lon="16.133585"><ele>4.0</ele><time>2026-05-01T07:54:21.977Z</time></trkpt><trkpt lat="39.0010867" lon="16.1334817"><ele>4.0</ele><time>2026-05-01T07:54:22.977Z</time></trkpt><trkpt lat="39.001055" lon="16.1333933"><ele>4.0</ele><time>2026-05-01T07:54:23.977Z</time></trkpt><trkpt lat="39.001005" lon="16.1332617"><ele>4.0</ele><time>2026-05-01T07:54:25.977Z</time></trkpt><trkpt lat="39.0009767" lon="16.1331383"><ele>4.0</ele><time>2026-05-01T07:54:27.977Z</time></trkpt><trkpt lat="39.00097" lon="16.133"><ele>4.2</ele><time>2026-05-01T07:54:29.977Z</time></trkpt><trkpt lat="39.0009883" lon="16.1328567"><ele>4.4</ele><time>2026-05-01T07:54:31.977Z</time></trkpt><trkpt lat="39.0009633" lon="16.1327267"><ele>4.6</ele><time>2026-05-01T07:54:33.977Z</time></trkpt><trkpt lat="39.0008567" lon="16.13264"><ele>4.8</ele><time>2026-05-01T07:54:35.978Z</time></trkpt><trkpt lat="39.000785" lon="16.1326333"><ele>5.0</ele><time>2026-05-01T07:54:36.977Z</time></trkpt><trkpt lat="39.00071" lon="16.1326667"><ele>5.0</ele><time>2026-05-01T07:54:37.978Z</time></trkpt><trkpt lat="39.0006517" lon="16.1327233"><ele>5.0</ele><time>2026-05-01T07:54:38.978Z</time></trkpt><trkpt lat="39.0006067" lon="16.13279"><ele>5.0</ele><time>2026-05-01T07:54:39.978Z</time></trkpt><trkpt lat="39.000565" lon="16.132865"><ele>5.0</ele><time>2026-05-01T07:54:40.977Z</time></trkpt><trkpt lat="39.0005167" lon="16.1329383"><ele>5.0</ele><time>2026-05-01T07:54:41.977Z</time></trkpt><trkpt lat="39.000455" lon="16.1330017"><ele>5.0</ele><time>2026-05-01T07:54:42.977Z</time></trkpt><trkpt lat="39.00038" lon="16.1330633"><ele>5.0</ele><time>2026-05-01T07:54:43.977Z</time></trkpt><trkpt lat="39.0002967" lon="16.133115"><ele>5.0</ele><time>2026-05-01T07:54:44.977Z</time></trkpt><trkpt lat="39.0002133" lon="16.133165"><ele>5.0</ele><time>2026-05-01T07:54:45.978Z</time></trkpt><trkpt lat="39.00014" lon="16.1332133"><ele>5.0</ele><time>2026-05-01T07:54:46.978Z</time></trkpt><trkpt lat="39.0000767" lon="16.1332533"><ele>5.0</ele><time>2026-05-01T07:54:47.978Z</time></trkpt><trkpt lat="39.0000183" lon="16.1332867"><ele>5.0</ele><time>2026-05-01T07:54:48.977Z</time></trkpt><trkpt lat="38.9999233" lon="16.133345"><ele>5.2</ele><time>2026-05-01T07:54:50.978Z</time></trkpt><trkpt lat="38.999845" lon="16.133405"><ele>5.4</ele><time>2026-05-01T07:54:52.977Z</time></trkpt><trkpt lat="38.9997667" lon="16.1334583"><ele>5.6</ele><time>2026-05-01T07:54:54.977Z</time></trkpt><trkpt lat="38.9996833" lon="16.1335183"><ele>5.8</ele><time>2026-05-01T07:54:56.978Z</time></trkpt><trkpt lat="38.9995917" lon="16.13359"><ele>6.0</ele><time>2026-05-01T07:54:58.977Z</time></trkpt><trkpt lat="38.99949" lon="16.1336633"><ele>6.0</ele><time>2026-05-01T07:55:00.977Z</time></trkpt><trkpt lat="38.999385" lon="16.1337483"><ele>6.0</ele><time>2026-05-01T07:55:02.977Z</time></trkpt><trkpt lat="38.9992833" lon="16.1338333"><ele>6.0</ele><time>2026-05-01T07:55:04.977Z</time></trkpt><trkpt lat="38.9992267" lon="16.1338717"><ele>6.0</ele><time>2026-05-01T07:55:05.977Z</time></trkpt><trkpt lat="38.9991167" lon="16.1339533"><ele>6.0</ele><time>2026-05-01T07:55:07.977Z</time></trkpt><trkpt lat="38.9990533" lon="16.133995"><ele>6.0</ele><time>2026-05-01T07:55:08.977Z</time></trkpt><trkpt lat="38.9989933" lon="16.1340417"><ele>6.0</ele><time>2026-05-01T07:55:09.977Z</time></trkpt><trkpt lat="38.99893" lon="16.13409"><ele>6.0</ele><time>2026-05-01T07:55:10.977Z</time></trkpt><trkpt lat="38.9988683" lon="16.1341317"><ele>6.0</ele><time>2026-05-01T07:55:11.977Z</time></trkpt><trkpt lat="38.9988" lon="16.1341717"><ele>6.0</ele><time>2026-05-01T07:55:12.978Z</time></trkpt><trkpt lat="38.9987267" lon="16.1342167"><ele>6.0</ele><time>2026-05-01T07:55:13.977Z</time></trkpt><trkpt lat="38.9986567" lon="16.13427"><ele>6.0</ele><time>2026-05-01T07:55:14.978Z</time></trkpt><trkpt lat="38.9985833" lon="16.13434"><ele>6.0</ele><time>2026-05-01T07:55:15.978Z</time></trkpt><trkpt lat="38.9985" lon="16.134405"><ele>6.0</ele><time>2026-05-01T07:55:16.977Z</time></trkpt><trkpt lat="38.9984167" lon="16.13447"><ele>6.0</ele><time>2026-05-01T07:55:17.977Z</time></trkpt><trkpt lat="38.9983383" lon="16.1345367"><ele>6.0</ele><time>2026-05-01T07:55:18.977Z</time></trkpt><trkpt lat="38.99826" lon="16.13459"><ele>6.4</ele><time>2026-05-01T07:55:19.977Z</time></trkpt><trkpt lat="38.9981717" lon="16.1346367"><ele>6.8</ele><time>2026-05-01T07:55:20.978Z</time></trkpt><trkpt lat="38.9980817" lon="16.1346767"><ele>7.200000000000001</ele><time>2026-05-01T07:55:21.978Z</time></trkpt><trkpt lat="38.9979933" lon="16.13473"><ele>7.6000000000000005</ele><time>2026-05-01T07:55:22.977Z</time></trkpt><trkpt lat="38.9979033" lon="16.1347717"><ele>8.0</ele><time>2026-05-01T07:55:23.978Z</time></trkpt><trkpt lat="38.9978133" lon="16.1348017"><ele>8.0</ele><time>2026-05-01T07:55:24.977Z</time></trkpt><trkpt lat="38.9977167" lon="16.1348117"><ele>8.0</ele><time>2026-05-01T07:55:25.978Z</time></trkpt><trkpt lat="38.9976267" lon="16.134795"><ele>8.0</ele><time>2026-05-01T07:55:26.977Z</time></trkpt><trkpt lat="38.9975283" lon="16.1347783"><ele>8.0</ele><time>2026-05-01T07:55:27.978Z</time></trkpt><trkpt lat="38.9974333" lon="16.1347517"><ele>8.0</ele><time>2026-05-01T07:55:28.978Z</time></trkpt><trkpt lat="38.9973417" lon="16.13471"><ele>7.5</ele><time>2026-05-01T07:55:29.977Z</time></trkpt><trkpt lat="38.9972567" lon="16.134655"><ele>7.0</ele><time>2026-05-01T07:55:30.977Z</time></trkpt><trkpt lat="38.9971383" lon="16.134585"><ele>6.5</ele><time>2026-05-01T07:55:31.977Z</time></trkpt><trkpt lat="38.996995" lon="16.1345033"><ele>6.0</ele><time>2026-05-01T07:55:32.977Z</time></trkpt><trkpt lat="38.996845" lon="16.13442"><ele>6.0</ele><time>2026-05-01T07:55:33.978Z</time></trkpt><trkpt lat="38.9967" lon="16.13434"><ele>6.0</ele><time>2026-05-01T07:55:34.977Z</time></trkpt><trkpt lat="38.9965633" lon="16.134265"><ele>6.0</ele><time>2026-05-01T07:55:35.978Z</time></trkpt><trkpt lat="38.9964117" lon="16.1342067"><ele>6.0</ele><time>2026-05-01T07:55:36.978Z</time></trkpt><trkpt lat="38.9962717" lon="16.1341517"><ele>6.0</ele><time>2026-05-01T07:55:37.977Z</time></trkpt><trkpt lat="38.99614" lon="16.1341067"><ele>6.0</ele><time>2026-05-01T07:55:38.977Z</time></trkpt><trkpt lat="38.9960083" lon="16.1340867"><ele>6.0</ele><time>2026-05-01T07:55:39.978Z</time></trkpt><trkpt lat="38.9958767" lon="16.1340917"><ele>6.0</ele><time>2026-05-01T07:55:40.977Z</time></trkpt><trkpt lat="38.9957517" lon="16.134125"><ele>6.0</ele><time>2026-05-01T07:55:41.977Z</time></trkpt><trkpt lat="38.99563" lon="16.1341683"><ele>6.0</ele><time>2026-05-01T07:55:42.978Z</time></trkpt><trkpt lat="38.9955183" lon="16.1342217"><ele>6.0</ele><time>2026-05-01T07:55:43.978Z</time></trkpt><trkpt lat="38.9954117" lon="16.1342683"><ele>6.0</ele><time>2026-05-01T07:55:44.978Z</time></trkpt><trkpt lat="38.9953067" lon="16.1343233"><ele>6.0</ele><time>2026-05-01T07:55:45.977Z</time></trkpt><trkpt lat="38.9952" lon="16.13437"><ele>6.0</ele><time>2026-05-01T07:55:46.977Z</time></trkpt><trkpt lat="38.995095" lon="16.1344117"><ele>6.0</ele><time>2026-05-01T07:55:47.977Z</time></trkpt><trkpt lat="38.9949883" lon="16.1344633"><ele>6.0</ele><time>2026-05-01T07:55:48.977Z</time></trkpt><trkpt lat="38.9948967" lon="16.134505"><ele>6.0</ele><time>2026-05-01T07:55:49.977Z</time></trkpt><trkpt lat="38.9948233" lon="16.134545"><ele>6.0</ele><time>2026-05-01T07:55:50.978Z</time></trkpt><trkpt lat="38.9947583" lon="16.1345817"><ele>6.0</ele><time>2026-05-01T07:55:51.977Z</time></trkpt><trkpt lat="38.9946667" lon="16.1346283"><ele>6.0</ele><time>2026-05-01T07:55:53.978Z</time></trkpt><trkpt lat="38.994585" lon="16.134635"><ele>6.0</ele><time>2026-05-01T07:55:55.977Z</time></trkpt><trkpt lat="38.9945317" lon="16.1345817"><ele>6.0</ele><time>2026-05-01T07:55:57.978Z</time></trkpt><trkpt lat="38.994545" lon="16.1344917"><ele>6.0</ele><time>2026-05-01T07:55:59.977Z</time></trkpt><trkpt lat="38.994645" lon="16.1343983"><ele>6.0</ele><time>2026-05-01T07:56:01.977Z</time></trkpt><trkpt lat="38.9947267" lon="16.1343517"><ele>6.0</ele><time>2026-05-01T07:56:02.978Z</time></trkpt><trkpt lat="38.9948183" lon="16.134295"><ele>6.0</ele><time>2026-05-01T07:56:03.977Z</time></trkpt><trkpt lat="38.9949133" lon="16.1342333"><ele>6.0</ele><time>2026-05-01T07:56:04.978Z</time></trkpt><trkpt lat="38.9950133" lon="16.1341667"><ele>6.0</ele><time>2026-05-01T07:56:05.977Z</time></trkpt><trkpt lat="38.9951183" lon="16.1341033"><ele>6.0</ele><time>2026-05-01T07:56:06.977Z</time></trkpt><trkpt lat="38.99523" lon="16.1340367"><ele>6.0</ele><time>2026-05-01T07:56:07.978Z</time></trkpt><trkpt lat="38.9953417" lon="16.1339683"><ele>6.0</ele><time>2026-05-01T07:56:08.978Z</time></trkpt><trkpt lat="38.9954567" lon="16.133905"><ele>6.0</ele><time>2026-05-01T07:56:09.978Z</time></trkpt><trkpt lat="38.9955767" lon="16.1338367"><ele>6.0</ele><time>2026-05-01T07:56:10.978Z</time></trkpt><trkpt lat="38.995705" lon="16.1337617"><ele>6.0</ele><time>2026-05-01T07:56:11.978Z</time></trkpt><trkpt lat="38.9958283" lon="16.1336883"><ele>6.0</ele><time>2026-05-01T07:56:12.978Z</time></trkpt><trkpt lat="38.9959467" lon="16.13361"><ele>6.0</ele><time>2026-05-01T07:56:13.978Z</time></trkpt><trkpt lat="38.996075" lon="16.13353"><ele>6.0</ele><time>2026-05-01T07:56:14.979Z</time></trkpt><trkpt lat="38.996205" lon="16.13346"><ele>6.0</ele><time>2026-05-01T07:56:15.978Z</time></trkpt><trkpt lat="38.9963367" lon="16.1333833"><ele>6.0</ele><time>2026-05-01T07:56:16.978Z</time></trkpt><trkpt lat="38.9964783" lon="16.1332933"><ele>6.0</ele><time>2026-05-01T07:56:17.979Z</time></trkpt><trkpt lat="38.9966183" lon="16.1332017"><ele>6.0</ele><time>2026-05-01T07:56:18.978Z</time></trkpt><trkpt lat="38.9967617" lon="16.1331017"><ele>5.666666666666667</ele><time>2026-05-01T07:56:19.978Z</time></trkpt><trkpt lat="38.9969117" lon="16.133015"><ele>5.333333333333334</ele><time>2026-05-01T07:56:20.978Z</time></trkpt><trkpt lat="38.997065" lon="16.1329233"><ele>5.0</ele><time>2026-05-01T07:56:21.979Z</time></trkpt><trkpt lat="38.997225" lon="16.13282"><ele>5.0</ele><time>2026-05-01T07:56:22.978Z</time></trkpt><trkpt lat="38.9973867" lon="16.1327167"><ele>5.0</ele><time>2026-05-01T07:56:23.978Z</time></trkpt><trkpt lat="38.9975533" lon="16.1326167"><ele>5.0</ele><time>2026-05-01T07:56:24.978Z</time></trkpt><trkpt lat="38.99772" lon="16.132515"><ele>4.333333333333334</ele><time>2026-05-01T07:56:25.978Z</time></trkpt><trkpt lat="38.9978883" lon="16.1324083"><ele>3.666666666666667</ele><time>2026-05-01T07:56:26.978Z</time></trkpt><trkpt lat="38.998055" lon="16.1323"><ele>3.0</ele><time>2026-05-01T07:56:27.978Z</time></trkpt><trkpt lat="38.9982167" lon="16.1321983"><ele>3.666666666666667</ele><time>2026-05-01T07:56:28.978Z</time></trkpt><trkpt lat="38.9983667" lon="16.1321083"><ele>4.333333333333334</ele><time>2026-05-01T07:56:29.978Z</time></trkpt><trkpt lat="38.9985117" lon="16.1320167"><ele>5.0</ele><time>2026-05-01T07:56:30.978Z</time></trkpt><trkpt lat="38.9986583" lon="16.1319367"><ele>5.0</ele><time>2026-05-01T07:56:31.979Z</time></trkpt><trkpt lat="38.9988033" lon="16.131855"><ele>5.0</ele><time>2026-05-01T07:56:32.978Z</time></trkpt><trkpt lat="38.9989533" lon="16.13177"><ele>5.0</ele><time>2026-05-01T07:56:33.979Z</time></trkpt><trkpt lat="38.9991033" lon="16.1316867"><ele>4.333333333333334</ele><time>2026-05-01T07:56:34.978Z</time></trkpt><trkpt lat="38.9992583" lon="16.1315883"><ele>3.666666666666667</ele><time>2026-05-01T07:56:35.978Z</time></trkpt><trkpt lat="38.9994083" lon="16.1314933"><ele>3.0</ele><time>2026-05-01T07:56:36.979Z</time></trkpt><trkpt lat="38.9995583" lon="16.1313983"><ele>3.0</ele><time>2026-05-01T07:56:37.979Z</time></trkpt><trkpt lat="38.9996967" lon="16.1313133"><ele>3.0</ele><time>2026-05-01T07:56:38.979Z</time></trkpt><trkpt lat="38.9998383" lon="16.1312333"><ele>3.0</ele><time>2026-05-01T07:56:39.978Z</time></trkpt><trkpt lat="38.99998" lon="16.1311483"><ele>3.0</ele><time>2026-05-01T07:56:40.978Z</time></trkpt><trkpt lat="39.0001233" lon="16.131065"><ele>3.0</ele><time>2026-05-01T07:56:41.979Z</time></trkpt><trkpt lat="39.000265" lon="16.13098"><ele>3.0</ele><time>2026-05-01T07:56:42.979Z</time></trkpt><trkpt lat="39.000405" lon="16.1308917"><ele>3.0</ele><time>2026-05-01T07:56:43.978Z</time></trkpt><trkpt lat="39.0005367" lon="16.130805"><ele>3.0</ele><time>2026-05-01T07:56:44.978Z</time></trkpt><trkpt lat="39.0006667" lon="16.1307317"><ele>3.0</ele><time>2026-05-01T07:56:45.979Z</time></trkpt><trkpt lat="39.00079" lon="16.130645"><ele>3.0</ele><time>2026-05-01T07:56:46.978Z</time></trkpt><trkpt lat="39.0009083" lon="16.13056"><ele>3.25</ele><time>2026-05-01T07:56:47.978Z</time></trkpt><trkpt lat="39.0010217" lon="16.1304833"><ele>3.5</ele><time>2026-05-01T07:56:48.979Z</time></trkpt><trkpt lat="39.001135" lon="16.1304083"><ele>3.75</ele><time>2026-05-01T07:56:49.978Z</time></trkpt><trkpt lat="39.0012517" lon="16.1303233"><ele>4.0</ele><time>2026-05-01T07:56:50.978Z</time></trkpt><trkpt lat="39.001365" lon="16.1302317"><ele>4.0</ele><time>2026-05-01T07:56:51.979Z</time></trkpt><trkpt lat="39.00148" lon="16.1301383"><ele>4.0</ele><time>2026-05-01T07:56:52.978Z</time></trkpt><trkpt lat="39.0015967" lon="16.1300383"><ele>4.0</ele><time>2026-05-01T07:56:53.978Z</time></trkpt><trkpt lat="39.0017183" lon="16.1299283"><ele>4.0</ele><time>2026-05-01T07:56:54.978Z</time></trkpt><trkpt lat="39.001845" lon="16.1298083"><ele>3.333333333333333</ele><time>2026-05-01T07:56:55.978Z</time></trkpt><trkpt lat="39.00197" lon="16.1296917"><ele>2.6666666666666665</ele><time>2026-05-01T07:56:56.979Z</time></trkpt><trkpt lat="39.0021067" lon="16.1295683"><ele>2.0</ele><time>2026-05-01T07:56:57.978Z</time></trkpt><trkpt lat="39.00225" lon="16.129435"><ele>2.0</ele><time>2026-05-01T07:56:58.978Z</time></trkpt><trkpt lat="39.002385" lon="16.1293067"><ele>2.0</ele><time>2026-05-01T07:56:59.978Z</time></trkpt><trkpt lat="39.0025217" lon="16.1291867"><ele>2.0</ele><time>2026-05-01T07:57:00.978Z</time></trkpt><trkpt lat="39.0026567" lon="16.1290617"><ele>2.333333333333333</ele><time>2026-05-01T07:57:01.978Z</time></trkpt><trkpt lat="39.002785" lon="16.1289417"><ele>2.6666666666666665</ele><time>2026-05-01T07:57:02.978Z</time></trkpt><trkpt lat="39.0029" lon="16.1288183"><ele>3.0</ele><time>2026-05-01T07:57:03.978Z</time></trkpt><trkpt lat="39.0030267" lon="16.1287083"><ele>3.0</ele><time>2026-05-01T07:57:04.978Z</time></trkpt><trkpt lat="39.0031417" lon="16.1285883"><ele>3.0</ele><time>2026-05-01T07:57:05.979Z</time></trkpt><trkpt lat="39.0032583" lon="16.12847"><ele>3.0</ele><time>2026-05-01T07:57:06.978Z</time></trkpt><trkpt lat="39.0033667" lon="16.1283617"><ele>3.0</ele><time>2026-05-01T07:57:07.978Z</time></trkpt><trkpt lat="39.0034767" lon="16.1282467"><ele>3.5</ele><time>2026-05-01T07:57:08.978Z</time></trkpt><trkpt lat="39.0035867" lon="16.12813"><ele>4.0</ele><time>2026-05-01T07:57:09.979Z</time></trkpt><trkpt lat="39.0037017" lon="16.1280167"><ele>4.5</ele><time>2026-05-01T07:57:10.979Z</time></trkpt><trkpt lat="39.0038217" lon="16.1278933"><ele>5.0</ele><time>2026-05-01T07:57:11.978Z</time></trkpt><trkpt lat="39.0039333" lon="16.1277733"><ele>5.0</ele><time>2026-05-01T07:57:12.978Z</time></trkpt><trkpt lat="39.00405" lon="16.1276583"><ele>5.0</ele><time>2026-05-01T07:57:13.978Z</time></trkpt><trkpt lat="39.0041633" lon="16.1275383"><ele>5.0</ele><time>2026-05-01T07:57:14.979Z</time></trkpt><trkpt lat="39.0042883" lon="16.1274217"><ele>5.0</ele><time>2026-05-01T07:57:15.978Z</time></trkpt><trkpt lat="39.004405" lon="16.1272983"><ele>4.333333333333334</ele><time>2026-05-01T07:57:16.978Z</time></trkpt><trkpt lat="39.0045217" lon="16.1271767"><ele>3.666666666666667</ele><time>2026-05-01T07:57:17.979Z</time></trkpt><trkpt lat="39.0046417" lon="16.1270533"><ele>3.0</ele><time>2026-05-01T07:57:18.978Z</time></trkpt><trkpt lat="39.0047733" lon="16.126925"><ele>3.0</ele><time>2026-05-01T07:57:19.979Z</time></trkpt><trkpt lat="39.004905" lon="16.1267933"><ele>3.0</ele><time>2026-05-01T07:57:20.978Z</time></trkpt><trkpt lat="39.0050333" lon="16.126665"><ele>3.0</ele><time>2026-05-01T07:57:21.978Z</time></trkpt><trkpt lat="39.0051617" lon="16.126545"><ele>3.333333333333333</ele><time>2026-05-01T07:57:22.978Z</time></trkpt><trkpt lat="39.0052833" lon="16.1264183"><ele>3.6666666666666665</ele><time>2026-05-01T07:57:23.978Z</time></trkpt><trkpt lat="39.0054017" lon="16.12629"><ele>4.0</ele><time>2026-05-01T07:57:24.978Z</time></trkpt><trkpt lat="39.0055267" lon="16.1261633"><ele>4.0</ele><time>2026-05-01T07:57:25.979Z</time></trkpt><trkpt lat="39.0056483" lon="16.1260367"><ele>4.0</ele><time>2026-05-01T07:57:26.979Z</time></trkpt><trkpt lat="39.0057767" lon="16.1259133"><ele>4.0</ele><time>2026-05-01T07:57:27.979Z</time></trkpt><trkpt lat="39.0059" lon="16.1257883"><ele>3.0</ele><time>2026-05-01T07:57:28.978Z</time></trkpt><trkpt lat="39.006025" lon="16.1256683"><ele>2.0</ele><time>2026-05-01T07:57:29.979Z</time></trkpt><trkpt lat="39.0061517" lon="16.1255433"><ele>1.0</ele><time>2026-05-01T07:57:30.978Z</time></trkpt><trkpt lat="39.0062783" lon="16.1254233"><ele>1.0</ele><time>2026-05-01T07:57:31.978Z</time></trkpt><trkpt lat="39.0064017" lon="16.1252967"><ele>1.0</ele><time>2026-05-01T07:57:32.978Z</time></trkpt><trkpt lat="39.006525" lon="16.1251717"><ele>1.0</ele><time>2026-05-01T07:57:33.978Z</time></trkpt><trkpt lat="39.0066433" lon="16.125045"><ele>1.0</ele><time>2026-05-01T07:57:34.979Z</time></trkpt><trkpt lat="39.0067583" lon="16.1249183"><ele>1.0</ele><time>2026-05-01T07:57:35.979Z</time></trkpt><trkpt lat="39.006875" lon="16.1247983"><ele>1.0</ele><time>2026-05-01T07:57:36.978Z</time></trkpt><trkpt lat="39.006995" lon="16.1246767"><ele>1.0</ele><time>2026-05-01T07:57:37.979Z</time></trkpt><trkpt lat="39.007115" lon="16.124555"><ele>1.0</ele><time>2026-05-01T07:57:38.979Z</time></trkpt><trkpt lat="39.0072467" lon="16.1244333"><ele>1.0</ele><time>2026-05-01T07:57:39.978Z</time></trkpt><trkpt lat="39.0073733" lon="16.12431"><ele>1.0</ele><time>2026-05-01T07:57:40.978Z</time></trkpt><trkpt lat="39.0074933" lon="16.1241917"><ele>1.0</ele><time>2026-05-01T07:57:41.978Z</time></trkpt><trkpt lat="39.0076167" lon="16.1240667"><ele>1.0</ele><time>2026-05-01T07:57:42.979Z</time></trkpt><trkpt lat="39.007735" lon="16.1239433"><ele>1.75</ele><time>2026-05-01T07:57:43.979Z</time></trkpt><trkpt lat="39.0078467" lon="16.1238317"><ele>2.5</ele><time>2026-05-01T07:57:44.978Z</time></trkpt><trkpt lat="39.0079483" lon="16.1237233"><ele>3.25</ele><time>2026-05-01T07:57:45.979Z</time></trkpt><trkpt lat="39.0080467" lon="16.12362"><ele>4.0</ele><time>2026-05-01T07:57:46.978Z</time></trkpt><trkpt lat="39.00814" lon="16.1235267"><ele>4.0</ele><time>2026-05-01T07:57:47.978Z</time></trkpt><trkpt lat="39.0082317" lon="16.1234383"><ele>4.0</ele><time>2026-05-01T07:57:48.979Z</time></trkpt><trkpt lat="39.0083217" lon="16.1233433"><ele>4.0</ele><time>2026-05-01T07:57:49.978Z</time></trkpt><trkpt lat="39.008415" lon="16.1232467"><ele>4.0</ele><time>2026-05-01T07:57:50.978Z</time></trkpt><trkpt lat="39.00851" lon="16.12315"><ele>4.0</ele><time>2026-05-01T07:57:51.979Z</time></trkpt><trkpt lat="39.0086067" lon="16.12305"><ele>4.0</ele><time>2026-05-01T07:57:52.979Z</time></trkpt><trkpt lat="39.0087083" lon="16.12295"><ele>4.0</ele><time>2026-05-01T07:57:53.978Z</time></trkpt><trkpt lat="39.0088117" lon="16.1228483"><ele>4.0</ele><time>2026-05-01T07:57:54.978Z</time></trkpt><trkpt lat="39.0089167" lon="16.1227433"><ele>4.0</ele><time>2026-05-01T07:57:55.978Z</time></trkpt><trkpt lat="39.0090267" lon="16.12264"><ele>4.0</ele><time>2026-05-01T07:57:56.979Z</time></trkpt><trkpt lat="39.0091367" lon="16.1225283"><ele>4.0</ele><time>2026-05-01T07:57:57.978Z</time></trkpt><trkpt lat="39.009245" lon="16.12241"><ele>4.0</ele><time>2026-05-01T07:57:58.978Z</time></trkpt><trkpt lat="39.0093617" lon="16.1222867"><ele>4.25</ele><time>2026-05-01T07:57:59.978Z</time></trkpt><trkpt lat="39.0094783" lon="16.1221683"><ele>4.5</ele><time>2026-05-01T07:58:00.979Z</time></trkpt><trkpt lat="39.009595" lon="16.1220567"><ele>4.75</ele><time>2026-05-01T07:58:01.979Z</time></trkpt><trkpt lat="39.0097017" lon="16.1219467"><ele>5.0</ele><time>2026-05-01T07:58:02.978Z</time></trkpt><trkpt lat="39.009805" lon="16.12184"><ele>5.0</ele><time>2026-05-01T07:58:03.979Z</time></trkpt><trkpt lat="39.0099067" lon="16.1217383"><ele>5.0</ele><time>2026-05-01T07:58:04.978Z</time></trkpt><trkpt lat="39.0100167" lon="16.12163"><ele>5.0</ele><time>2026-05-01T07:58:05.978Z</time></trkpt><trkpt lat="39.0101267" lon="16.121515"><ele>5.0</ele><time>2026-05-01T07:58:06.978Z</time></trkpt><trkpt lat="39.01024" lon="16.1214017"><ele>4.666666666666667</ele><time>2026-05-01T07:58:07.978Z</time></trkpt><trkpt lat="39.010355" lon="16.1212817"><ele>4.333333333333333</ele><time>2026-05-01T07:58:08.978Z</time></trkpt><trkpt lat="39.0104733" lon="16.1211683"><ele>4.0</ele><time>2026-05-01T07:58:09.979Z</time></trkpt><trkpt lat="39.0105917" lon="16.12104"><ele>4.0</ele><time>2026-05-01T07:58:10.979Z</time></trkpt><trkpt lat="39.010715" lon="16.1209117"><ele>4.0</ele><time>2026-05-01T07:58:11.978Z</time></trkpt><trkpt lat="39.0108433" lon="16.1207867"><ele>4.0</ele><time>2026-05-01T07:58:12.979Z</time></trkpt><trkpt lat="39.01097" lon="16.1206633"><ele>3.6666666666666665</ele><time>2026-05-01T07:58:13.979Z</time></trkpt><trkpt lat="39.0110983" lon="16.1205367"><ele>3.333333333333333</ele><time>2026-05-01T07:58:14.978Z</time></trkpt><trkpt lat="39.011225" lon="16.120405"><ele>3.0</ele><time>2026-05-01T07:58:15.978Z</time></trkpt><trkpt lat="39.0113517" lon="16.1202833"><ele>3.0</ele><time>2026-05-01T07:58:16.979Z</time></trkpt><trkpt lat="39.0114717" lon="16.1201633"><ele>3.0</ele><time>2026-05-01T07:58:17.978Z</time></trkpt><trkpt lat="39.0115917" lon="16.1200417"><ele>3.0</ele><time>2026-05-01T07:58:18.979Z</time></trkpt><trkpt lat="39.0117183" lon="16.11991"><ele>3.0</ele><time>2026-05-01T07:58:19.978Z</time></trkpt><trkpt lat="39.011845" lon="16.1197833"><ele>3.0</ele><time>2026-05-01T07:58:20.978Z</time></trkpt><trkpt lat="39.0119667" lon="16.1196517"><ele>3.0</ele><time>2026-05-01T07:58:21.978Z</time></trkpt><trkpt lat="39.0120933" lon="16.1195233"><ele>3.0</ele><time>2026-05-01T07:58:22.979Z</time></trkpt><trkpt lat="39.0122183" lon="16.1193917"><ele>3.0</ele><time>2026-05-01T07:58:23.979Z</time></trkpt><trkpt lat="39.0123567" lon="16.1192583"><ele>3.0</ele><time>2026-05-01T07:58:24.978Z</time></trkpt><trkpt lat="39.0125017" lon="16.1191167"><ele>3.666666666666667</ele><time>2026-05-01T07:58:25.978Z</time></trkpt><trkpt lat="39.0126483" lon="16.1189767"><ele>4.333333333333334</ele><time>2026-05-01T07:58:26.978Z</time></trkpt><trkpt lat="39.0127817" lon="16.11884"><ele>5.0</ele><time>2026-05-01T07:58:27.979Z</time></trkpt><trkpt lat="39.0129167" lon="16.11872"><ele>5.0</ele><time>2026-05-01T07:58:28.978Z</time></trkpt><trkpt lat="39.0130417" lon="16.1186033"><ele>5.0</ele><time>2026-05-01T07:58:29.978Z</time></trkpt><trkpt lat="39.013165" lon="16.118485"><ele>5.0</ele><time>2026-05-01T07:58:30.978Z</time></trkpt><trkpt lat="39.01329" lon="16.1183767"><ele>5.0</ele><time>2026-05-01T07:58:31.978Z</time></trkpt><trkpt lat="39.01342" lon="16.1182583"><ele>5.0</ele><time>2026-05-01T07:58:32.978Z</time></trkpt><trkpt lat="39.013545" lon="16.118155"><ele>5.0</ele><time>2026-05-01T07:58:33.978Z</time></trkpt><trkpt lat="39.01366" lon="16.1180433"><ele>5.0</ele><time>2026-05-01T07:58:34.978Z</time></trkpt><trkpt lat="39.01378" lon="16.1179383"><ele>5.0</ele><time>2026-05-01T07:58:35.979Z</time></trkpt><trkpt lat="39.0138933" lon="16.1178267"><ele>5.0</ele><time>2026-05-01T07:58:36.978Z</time></trkpt><trkpt lat="39.0140017" lon="16.1177133"><ele>5.0</ele><time>2026-05-01T07:58:37.978Z</time></trkpt><trkpt lat="39.014115" lon="16.1176033"><ele>4.75</ele><time>2026-05-01T07:58:38.979Z</time></trkpt><trkpt lat="39.014235" lon="16.1174967"><ele>4.5</ele><time>2026-05-01T07:58:39.979Z</time></trkpt><trkpt lat="39.0143417" lon="16.1173983"><ele>4.25</ele><time>2026-05-01T07:58:40.979Z</time></trkpt><trkpt lat="39.0144417" lon="16.1173033"><ele>4.0</ele><time>2026-05-01T07:58:41.978Z</time></trkpt><trkpt lat="39.0145417" lon="16.1172083"><ele>3.25</ele><time>2026-05-01T07:58:42.978Z</time></trkpt><trkpt lat="39.01464" lon="16.117115"><ele>2.5</ele><time>2026-05-01T07:58:43.979Z</time></trkpt><trkpt lat="39.01474" lon="16.1170167"><ele>1.75</ele><time>2026-05-01T07:58:44.978Z</time></trkpt><trkpt lat="39.014845" lon="16.11692"><ele>1.0</ele><time>2026-05-01T07:58:45.978Z</time></trkpt><trkpt lat="39.01495" lon="16.1168183"><ele>1.25</ele><time>2026-05-01T07:58:46.978Z</time></trkpt><trkpt lat="39.0150517" lon="16.1167183"><ele>1.5</ele><time>2026-05-01T07:58:47.979Z</time></trkpt><trkpt lat="39.0151583" lon="16.116615"><ele>1.75</ele><time>2026-05-01T07:58:48.979Z</time></trkpt><trkpt lat="39.01527" lon="16.1165083"><ele>2.0</ele><time>2026-05-01T07:58:49.978Z</time></trkpt><trkpt lat="39.0153867" lon="16.1164"><ele>2.0</ele><time>2026-05-01T07:58:50.978Z</time></trkpt><trkpt lat="39.015505" lon="16.116295"><ele>2.0</ele><time>2026-05-01T07:58:51.978Z</time></trkpt><trkpt lat="39.0156217" lon="16.1161833"><ele>2.0</ele><time>2026-05-01T07:58:52.979Z</time></trkpt><trkpt lat="39.01574" lon="16.1160717"><ele>2.0</ele><time>2026-05-01T07:58:53.978Z</time></trkpt><trkpt lat="39.0158633" lon="16.1159567"><ele>1.75</ele><time>2026-05-01T07:58:54.978Z</time></trkpt><trkpt lat="39.0159783" lon="16.11585"><ele>1.5</ele><time>2026-05-01T07:58:55.978Z</time></trkpt><trkpt lat="39.0160867" lon="16.11574"><ele>1.25</ele><time>2026-05-01T07:58:56.978Z</time></trkpt><trkpt lat="39.0161983" lon="16.1156383"><ele>1.0</ele><time>2026-05-01T07:58:57.978Z</time></trkpt><trkpt lat="39.0163067" lon="16.1155317"><ele>1.0</ele><time>2026-05-01T07:58:58.978Z</time></trkpt><trkpt lat="39.01642" lon="16.1154233"><ele>1.0</ele><time>2026-05-01T07:58:59.978Z</time></trkpt><trkpt lat="39.0165283" lon="16.1153183"><ele>1.0</ele><time>2026-05-01T07:59:00.978Z</time></trkpt><trkpt lat="39.0166333" lon="16.1152117"><ele>1.0</ele><time>2026-05-01T07:59:01.979Z</time></trkpt><trkpt lat="39.0167383" lon="16.1151167"><ele>1.25</ele><time>2026-05-01T07:59:02.978Z</time></trkpt><trkpt lat="39.016845" lon="16.1150217"><ele>1.5</ele><time>2026-05-01T07:59:03.978Z</time></trkpt><trkpt lat="39.0169433" lon="16.11493"><ele>1.75</ele><time>2026-05-01T07:59:04.978Z</time></trkpt><trkpt lat="39.017055" lon="16.1148417"><ele>2.0</ele><time>2026-05-01T07:59:05.978Z</time></trkpt><trkpt lat="39.0171567" lon="16.1147383"><ele>2.0</ele><time>2026-05-01T07:59:06.979Z</time></trkpt><trkpt lat="39.017255" lon="16.1146433"><ele>2.0</ele><time>2026-05-01T07:59:07.979Z</time></trkpt><trkpt lat="39.0173483" lon="16.1145517"><ele>2.0</ele><time>2026-05-01T07:59:08.979Z</time></trkpt><trkpt lat="39.017445" lon="16.1144583"><ele>2.0</ele><time>2026-05-01T07:59:09.979Z</time></trkpt><trkpt lat="39.01755" lon="16.114365"><ele>2.0</ele><time>2026-05-01T07:59:10.978Z</time></trkpt><trkpt lat="39.017655" lon="16.1142683"><ele>2.0</ele><time>2026-05-01T07:59:11.978Z</time></trkpt><trkpt lat="39.0177633" lon="16.1141733"><ele>2.0</ele><time>2026-05-01T07:59:12.978Z</time></trkpt><trkpt lat="39.0178783" lon="16.1140667"><ele>2.0</ele><time>2026-05-01T07:59:13.978Z</time></trkpt><trkpt lat="39.01801" lon="16.1139533"><ele>2.0</ele><time>2026-05-01T07:59:14.979Z</time></trkpt><trkpt lat="39.01814" lon="16.1138333"><ele>2.0</ele><time>2026-05-01T07:59:15.978Z</time></trkpt><trkpt lat="39.0182733" lon="16.1136983"><ele>2.0</ele><time>2026-05-01T07:59:16.978Z</time></trkpt><trkpt lat="39.0184167" lon="16.1135617"><ele>2.0</ele><time>2026-05-01T07:59:17.978Z</time></trkpt><trkpt lat="39.0185633" lon="16.113415"><ele>2.0</ele><time>2026-05-01T07:59:18.978Z</time></trkpt><trkpt lat="39.018715" lon="16.1132683"><ele>2.0</ele><time>2026-05-01T07:59:19.979Z</time></trkpt><trkpt lat="39.01887" lon="16.1131167"><ele>2.0</ele><time>2026-05-01T07:59:20.979Z</time></trkpt><trkpt lat="39.0190333" lon="16.1129583"><ele>2.0</ele><time>2026-05-01T07:59:21.978Z</time></trkpt><trkpt lat="39.0191883" lon="16.1128017"><ele>2.0</ele><time>2026-05-01T07:59:22.978Z</time></trkpt><trkpt lat="39.0193567" lon="16.112645"><ele>2.0</ele><time>2026-05-01T07:59:23.978Z</time></trkpt><trkpt lat="39.0195283" lon="16.11249"><ele>2.0</ele><time>2026-05-01T07:59:24.978Z</time></trkpt><trkpt lat="39.01971" lon="16.1123267"><ele>2.0</ele><time>2026-05-01T07:59:25.978Z</time></trkpt><trkpt lat="39.0198967" lon="16.1121567"><ele>1.5</ele><time>2026-05-01T07:59:26.979Z</time></trkpt><trkpt lat="39.0200833" lon="16.11199"><ele>1.0</ele><time>2026-05-01T07:59:27.978Z</time></trkpt><trkpt lat="39.0202717" lon="16.11182"><ele>1.0</ele><time>2026-05-01T07:59:28.978Z</time></trkpt><trkpt lat="39.020455" lon="16.11165"><ele>1.0</ele><time>2026-05-01T07:59:29.978Z</time></trkpt><trkpt lat="39.0206433" lon="16.111475"><ele>1.0</ele><time>2026-05-01T07:59:30.978Z</time></trkpt><trkpt lat="39.0208183" lon="16.11131"><ele>1.0</ele><time>2026-05-01T07:59:31.979Z</time></trkpt><trkpt lat="39.0209883" lon="16.11115"><ele>1.0</ele><time>2026-05-01T07:59:32.979Z</time></trkpt><trkpt lat="39.0211533" lon="16.1109867"><ele>1.0</ele><time>2026-05-01T07:59:33.978Z</time></trkpt><trkpt lat="39.0213217" lon="16.110835"><ele>1.0</ele><time>2026-05-01T07:59:34.979Z</time></trkpt><trkpt lat="39.0214883" lon="16.11067"><ele>1.0</ele><time>2026-05-01T07:59:35.978Z</time></trkpt><trkpt lat="39.0216583" lon="16.11052"><ele>1.0</ele><time>2026-05-01T07:59:36.979Z</time></trkpt><trkpt lat="39.02182" lon="16.1103633"><ele>1.0</ele><time>2026-05-01T07:59:37.978Z</time></trkpt><trkpt lat="39.0219833" lon="16.1102167"><ele>1.0</ele><time>2026-05-01T07:59:38.979Z</time></trkpt><trkpt lat="39.0221433" lon="16.1100683"><ele>1.0</ele><time>2026-05-01T07:59:39.978Z</time></trkpt><trkpt lat="39.022305" lon="16.109915"><ele>1.0</ele><time>2026-05-01T07:59:40.979Z</time></trkpt><trkpt lat="39.0224683" lon="16.1097683"><ele>1.0</ele><time>2026-05-01T07:59:41.978Z</time></trkpt><trkpt lat="39.0226217" lon="16.109625"><ele>1.6666666666666665</ele><time>2026-05-01T07:59:42.978Z</time></trkpt><trkpt lat="39.022765" lon="16.10949"><ele>2.3333333333333335</ele><time>2026-05-01T07:59:43.979Z</time></trkpt><trkpt lat="39.022895" lon="16.1093667"><ele>3.0</ele><time>2026-05-01T07:59:44.978Z</time></trkpt><trkpt lat="39.0230183" lon="16.1092517"><ele>3.0</ele><time>2026-05-01T07:59:45.978Z</time></trkpt><trkpt lat="39.0231367" lon="16.1091367"><ele>3.0</ele><time>2026-05-01T07:59:46.978Z</time></trkpt><trkpt lat="39.0232467" lon="16.1090367"><ele>3.0</ele><time>2026-05-01T07:59:47.978Z</time></trkpt><trkpt lat="39.0233583" lon="16.1089383"><ele>3.0</ele><time>2026-05-01T07:59:48.979Z</time></trkpt><trkpt lat="39.0234583" lon="16.108845"><ele>2.8</ele><time>2026-05-01T07:59:49.978Z</time></trkpt><trkpt lat="39.0235433" lon="16.1087667"><ele>2.5999999999999996</ele><time>2026-05-01T07:59:50.979Z</time></trkpt><trkpt lat="39.02363" lon="16.108685"><ele>2.4000000000000004</ele><time>2026-05-01T07:59:51.978Z</time></trkpt><trkpt lat="39.0237217" lon="16.1086017"><ele>2.2</ele><time>2026-05-01T07:59:52.978Z</time></trkpt><trkpt lat="39.023815" lon="16.10851"><ele>2.0</ele><time>2026-05-01T07:59:53.978Z</time></trkpt><trkpt lat="39.023915" lon="16.108415"><ele>2.0</ele><time>2026-05-01T07:59:54.979Z</time></trkpt><trkpt lat="39.0240133" lon="16.1083233"><ele>2.0</ele><time>2026-05-01T07:59:55.978Z</time></trkpt><trkpt lat="39.0241133" lon="16.1082283"><ele>2.0</ele><time>2026-05-01T07:59:56.978Z</time></trkpt><trkpt lat="39.0242167" lon="16.1081333"><ele>2.0</ele><time>2026-05-01T07:59:57.978Z</time></trkpt><trkpt lat="39.02432" lon="16.1080383"><ele>2.0</ele><time>2026-05-01T07:59:58.979Z</time></trkpt><trkpt lat="39.0244267" lon="16.107945"><ele>2.0</ele><time>2026-05-01T07:59:59.979Z</time></trkpt><trkpt lat="39.02454" lon="16.107835"><ele>2.0</ele><time>2026-05-01T08:00:00.978Z</time></trkpt><trkpt lat="39.0246567" lon="16.1077233"><ele>2.0</ele><time>2026-05-01T08:00:01.979Z</time></trkpt><trkpt lat="39.0247733" lon="16.10761"><ele>2.0</ele><time>2026-05-01T08:00:02.978Z</time></trkpt><trkpt lat="39.0248883" lon="16.107495"><ele>2.0</ele><time>2026-05-01T08:00:03.978Z</time></trkpt><trkpt lat="39.0250133" lon="16.1073817"><ele>2.0</ele><time>2026-05-01T08:00:04.979Z</time></trkpt><trkpt lat="39.0251267" lon="16.1072767"><ele>2.0</ele><time>2026-05-01T08:00:05.978Z</time></trkpt><trkpt lat="39.0252367" lon="16.10717"><ele>2.25</ele><time>2026-05-01T08:00:06.978Z</time></trkpt><trkpt lat="39.0253533" lon="16.1070567"><ele>2.5</ele><time>2026-05-01T08:00:07.978Z</time></trkpt><trkpt lat="39.0254717" lon="16.1069483"><ele>2.75</ele><time>2026-05-01T08:00:08.978Z</time></trkpt><trkpt lat="39.0255883" lon="16.106845"><ele>3.0</ele><time>2026-05-01T08:00:09.978Z</time></trkpt><trkpt lat="39.025705" lon="16.106735"><ele>3.0</ele><time>2026-05-01T08:00:10.978Z</time></trkpt><trkpt lat="39.02583" lon="16.1066233"><ele>3.0</ele><time>2026-05-01T08:00:11.979Z</time></trkpt><trkpt lat="39.0259633" lon="16.1064983"><ele>3.0</ele><time>2026-05-01T08:00:12.979Z</time></trkpt><trkpt lat="39.0261033" lon="16.106365"><ele>3.0</ele><time>2026-05-01T08:00:13.978Z</time></trkpt><trkpt lat="39.0262517" lon="16.1062283"><ele>3.0</ele><time>2026-05-01T08:00:14.978Z</time></trkpt><trkpt lat="39.026405" lon="16.10609"><ele>3.0</ele><time>2026-05-01T08:00:15.979Z</time></trkpt><trkpt lat="39.0265633" lon="16.105935"><ele>4.666666666666666</ele><time>2026-05-01T08:00:16.979Z</time></trkpt><trkpt lat="39.026715" lon="16.105795"><ele>6.333333333333333</ele><time>2026-05-01T08:00:17.979Z</time></trkpt><trkpt lat="39.0268667" lon="16.1056517"><ele>8.0</ele><time>2026-05-01T08:00:18.979Z</time></trkpt><trkpt lat="39.0270217" lon="16.1055083"><ele>8.333333333333332</ele><time>2026-05-01T08:00:19.979Z</time></trkpt><trkpt lat="39.02718" lon="16.10536"><ele>8.666666666666666</ele><time>2026-05-01T08:00:20.978Z</time></trkpt><trkpt lat="39.0273283" lon="16.105215"><ele>9.0</ele><time>2026-05-01T08:00:21.978Z</time></trkpt><trkpt lat="39.02747" lon="16.1050733"><ele>8.333333333333334</ele><time>2026-05-01T08:00:22.979Z</time></trkpt><trkpt lat="39.0276083" lon="16.1049317"><ele>7.666666666666667</ele><time>2026-05-01T08:00:23.978Z</time></trkpt><trkpt lat="39.02775" lon="16.1048033"><ele>7.0</ele><time>2026-05-01T08:00:24.979Z</time></trkpt><trkpt lat="39.0278967" lon="16.1046733"><ele>7.0</ele><time>2026-05-01T08:00:25.979Z</time></trkpt><trkpt lat="39.0280367" lon="16.1045383"><ele>7.0</ele><time>2026-05-01T08:00:26.978Z</time></trkpt><trkpt lat="39.02819" lon="16.1043967"><ele>7.0</ele><time>2026-05-01T08:00:27.978Z</time></trkpt><trkpt lat="39.0283367" lon="16.1042633"><ele>6.666666666666667</ele><time>2026-05-01T08:00:28.979Z</time></trkpt><trkpt lat="39.0284883" lon="16.1041317"><ele>6.333333333333334</ele><time>2026-05-01T08:00:29.978Z</time></trkpt><trkpt lat="39.0286417" lon="16.1039967"><ele>6.0</ele><time>2026-05-01T08:00:30.978Z</time></trkpt><trkpt lat="39.0287983" lon="16.1038717"><ele>6.0</ele><time>2026-05-01T08:00:31.979Z</time></trkpt><trkpt lat="39.0289533" lon="16.10376"><ele>6.0</ele><time>2026-05-01T08:00:32.978Z</time></trkpt><trkpt lat="39.0291183" lon="16.103655"><ele>6.0</ele><time>2026-05-01T08:00:33.979Z</time></trkpt><trkpt lat="39.02928" lon="16.1035517"><ele>5.666666666666667</ele><time>2026-05-01T08:00:34.978Z</time></trkpt><trkpt lat="39.0294417" lon="16.1034583"><ele>5.333333333333334</ele><time>2026-05-01T08:00:35.978Z</time></trkpt><trkpt lat="39.02961" lon="16.1033617"><ele>5.0</ele><time>2026-05-01T08:00:36.979Z</time></trkpt><trkpt lat="39.0297833" lon="16.1032617"><ele>5.0</ele><time>2026-05-01T08:00:37.978Z</time></trkpt><trkpt lat="39.0299583" lon="16.10317"><ele>5.0</ele><time>2026-05-01T08:00:38.978Z</time></trkpt><trkpt lat="39.0301383" lon="16.1030867"><ele>5.0</ele><time>2026-05-01T08:00:39.979Z</time></trkpt><trkpt lat="39.030315" lon="16.10301"><ele>4.666666666666667</ele><time>2026-05-01T08:00:40.978Z</time></trkpt><trkpt lat="39.0305" lon="16.1029333"><ele>4.333333333333333</ele><time>2026-05-01T08:00:41.978Z</time></trkpt><trkpt lat="39.030685" lon="16.1028617"><ele>4.0</ele><time>2026-05-01T08:00:42.978Z</time></trkpt><trkpt lat="39.030875" lon="16.10279"><ele>4.0</ele><time>2026-05-01T08:00:43.978Z</time></trkpt><trkpt lat="39.03107" lon="16.1027233"><ele>4.0</ele><time>2026-05-01T08:00:44.978Z</time></trkpt><trkpt lat="39.0312717" lon="16.10265"><ele>4.0</ele><time>2026-05-01T08:00:45.978Z</time></trkpt><trkpt lat="39.03147" lon="16.1025817"><ele>4.666666666666666</ele><time>2026-05-01T08:00:46.979Z</time></trkpt><trkpt lat="39.0316683" lon="16.10251"><ele>5.333333333333333</ele><time>2026-05-01T08:00:47.978Z</time></trkpt><trkpt lat="39.03187" lon="16.1024317"><ele>6.0</ele><time>2026-05-01T08:00:48.978Z</time></trkpt><trkpt lat="39.032065" lon="16.10236"><ele>6.0</ele><time>2026-05-01T08:00:49.979Z</time></trkpt><trkpt lat="39.0322617" lon="16.10229"><ele>6.0</ele><time>2026-05-01T08:00:50.979Z</time></trkpt><trkpt lat="39.032455" lon="16.1022217"><ele>6.0</ele><time>2026-05-01T08:00:51.978Z</time></trkpt><trkpt lat="39.0326483" lon="16.10216"><ele>6.0</ele><time>2026-05-01T08:00:52.979Z</time></trkpt><trkpt lat="39.0328283" lon="16.1020983"><ele>6.0</ele><time>2026-05-01T08:00:53.978Z</time></trkpt><trkpt lat="39.0330033" lon="16.1020383"><ele>6.0</ele><time>2026-05-01T08:00:54.978Z</time></trkpt><trkpt lat="39.0331617" lon="16.101975"><ele>6.0</ele><time>2026-05-01T08:00:55.978Z</time></trkpt><trkpt lat="39.0333267" lon="16.10192"><ele>6.0</ele><time>2026-05-01T08:00:56.978Z</time></trkpt><trkpt lat="39.0334883" lon="16.1018617"><ele>6.0</ele><time>2026-05-01T08:00:57.979Z</time></trkpt><trkpt lat="39.0336583" lon="16.1017983"><ele>6.0</ele><time>2026-05-01T08:00:58.978Z</time></trkpt><trkpt lat="39.033835" lon="16.101735"><ele>6.0</ele><time>2026-05-01T08:00:59.978Z</time></trkpt><trkpt lat="39.0340033" lon="16.101675"><ele>6.0</ele><time>2026-05-01T08:01:00.979Z</time></trkpt><trkpt lat="39.034175" lon="16.1016083"><ele>5.333333333333333</ele><time>2026-05-01T08:01:01.979Z</time></trkpt><trkpt lat="39.03434" lon="16.10155"><ele>4.666666666666666</ele><time>2026-05-01T08:01:02.978Z</time></trkpt><trkpt lat="39.03451" lon="16.1014933"><ele>4.0</ele><time>2026-05-01T08:01:03.979Z</time></trkpt><trkpt lat="39.0346883" lon="16.1014333"><ele>4.0</ele><time>2026-05-01T08:01:04.978Z</time></trkpt><trkpt lat="39.03486" lon="16.101375"><ele>4.0</ele><time>2026-05-01T08:01:05.978Z</time></trkpt><trkpt lat="39.0350267" lon="16.101305"><ele>4.0</ele><time>2026-05-01T08:01:06.979Z</time></trkpt><trkpt lat="39.0351983" lon="16.101245"><ele>4.333333333333333</ele><time>2026-05-01T08:01:07.979Z</time></trkpt><trkpt lat="39.0353717" lon="16.1011867"><ele>4.666666666666667</ele><time>2026-05-01T08:01:08.978Z</time></trkpt><trkpt lat="39.03555" lon="16.1011283"><ele>5.0</ele><time>2026-05-01T08:01:09.978Z</time></trkpt><trkpt lat="39.0357267" lon="16.10107"><ele>5.0</ele><time>2026-05-01T08:01:10.979Z</time></trkpt><trkpt lat="39.0359067" lon="16.1010083"><ele>5.0</ele><time>2026-05-01T08:01:11.978Z</time></trkpt><trkpt lat="39.03609" lon="16.1009433"><ele>5.0</ele><time>2026-05-01T08:01:12.978Z</time></trkpt><trkpt lat="39.036275" lon="16.1008767"><ele>5.0</ele><time>2026-05-01T08:01:13.979Z</time></trkpt><trkpt lat="39.0364633" lon="16.1008067"><ele>5.0</ele><time>2026-05-01T08:01:14.979Z</time></trkpt><trkpt lat="39.0366567" lon="16.100735"><ele>5.0</ele><time>2026-05-01T08:01:15.979Z</time></trkpt><trkpt lat="39.036855" lon="16.1006667"><ele>5.0</ele><time>2026-05-01T08:01:16.978Z</time></trkpt><trkpt lat="39.0370583" lon="16.1005983"><ele>5.0</ele><time>2026-05-01T08:01:17.978Z</time></trkpt><trkpt lat="39.03726" lon="16.100525"><ele>5.0</ele><time>2026-05-01T08:01:18.979Z</time></trkpt><trkpt lat="39.03747" lon="16.1004533"><ele>5.0</ele><time>2026-05-01T08:01:19.979Z</time></trkpt><trkpt lat="39.037685" lon="16.1003817"><ele>5.0</ele><time>2026-05-01T08:01:20.978Z</time></trkpt><trkpt lat="39.037895" lon="16.1003067"><ele>5.0</ele><time>2026-05-01T08:01:21.978Z</time></trkpt><trkpt lat="39.0381017" lon="16.1002283"><ele>5.0</ele><time>2026-05-01T08:01:22.979Z</time></trkpt><trkpt lat="39.0383083" lon="16.1001567"><ele>5.0</ele><time>2026-05-01T08:01:23.978Z</time></trkpt><trkpt lat="39.0385167" lon="16.100085"><ele>5.0</ele><time>2026-05-01T08:01:24.978Z</time></trkpt><trkpt lat="39.038715" lon="16.1000183"><ele>5.0</ele><time>2026-05-01T08:01:25.978Z</time></trkpt><trkpt lat="39.038905" lon="16.0999467"><ele>5.0</ele><time>2026-05-01T08:01:26.979Z</time></trkpt><trkpt lat="39.03908" lon="16.0998833"><ele>5.0</ele><time>2026-05-01T08:01:27.978Z</time></trkpt><trkpt lat="39.0392633" lon="16.0998167"><ele>4.666666666666667</ele><time>2026-05-01T08:01:28.978Z</time></trkpt><trkpt lat="39.039445" lon="16.0997467"><ele>4.333333333333333</ele><time>2026-05-01T08:01:29.979Z</time></trkpt><trkpt lat="39.0396217" lon="16.0996783"><ele>4.0</ele><time>2026-05-01T08:01:30.978Z</time></trkpt><trkpt lat="39.0398033" lon="16.0996083"><ele>3.6666666666666665</ele><time>2026-05-01T08:01:31.978Z</time></trkpt><trkpt lat="39.039985" lon="16.0995367"><ele>3.333333333333333</ele><time>2026-05-01T08:01:32.979Z</time></trkpt><trkpt lat="39.0401717" lon="16.0994717"><ele>3.0</ele><time>2026-05-01T08:01:33.979Z</time></trkpt><trkpt lat="39.04036" lon="16.09941"><ele>3.0</ele><time>2026-05-01T08:01:34.978Z</time></trkpt><trkpt lat="39.04055" lon="16.0993417"><ele>3.0</ele><time>2026-05-01T08:01:35.979Z</time></trkpt><trkpt lat="39.040745" lon="16.0992733"><ele>3.0</ele><time>2026-05-01T08:01:36.978Z</time></trkpt><trkpt lat="39.0409367" lon="16.0992117"><ele>3.0</ele><time>2026-05-01T08:01:37.978Z</time></trkpt><trkpt lat="39.0411267" lon="16.0991417"><ele>3.0</ele><time>2026-05-01T08:01:38.978Z</time></trkpt><trkpt lat="39.0413117" lon="16.0990767"><ele>3.0</ele><time>2026-05-01T08:01:39.978Z</time></trkpt><trkpt lat="39.041495" lon="16.0990067"><ele>3.333333333333333</ele><time>2026-05-01T08:01:40.978Z</time></trkpt><trkpt lat="39.0416867" lon="16.0989417"><ele>3.6666666666666665</ele><time>2026-05-01T08:01:41.979Z</time></trkpt><trkpt lat="39.0418783" lon="16.09888"><ele>4.0</ele><time>2026-05-01T08:01:42.978Z</time></trkpt><trkpt lat="39.0420667" lon="16.0988117"><ele>4.0</ele><time>2026-05-01T08:01:43.978Z</time></trkpt><trkpt lat="39.0422467" lon="16.0987417"><ele>4.0</ele><time>2026-05-01T08:01:44.978Z</time></trkpt><trkpt lat="39.04243" lon="16.0986733"><ele>4.0</ele><time>2026-05-01T08:01:45.978Z</time></trkpt><trkpt lat="39.04261" lon="16.0986133"><ele>4.0</ele><time>2026-05-01T08:01:46.978Z</time></trkpt><trkpt lat="39.0427983" lon="16.0985517"><ele>4.0</ele><time>2026-05-01T08:01:47.979Z</time></trkpt><trkpt lat="39.042985" lon="16.09849"><ele>4.0</ele><time>2026-05-01T08:01:48.979Z</time></trkpt><trkpt lat="39.0431733" lon="16.098425"><ele>4.0</ele><time>2026-05-01T08:01:49.978Z</time></trkpt><trkpt lat="39.0433583" lon="16.0983583"><ele>4.0</ele><time>2026-05-01T08:01:50.979Z</time></trkpt><trkpt lat="39.0435483" lon="16.0982933"><ele>4.0</ele><time>2026-05-01T08:01:51.978Z</time></trkpt><trkpt lat="39.043735" lon="16.0982267"><ele>3.6666666666666665</ele><time>2026-05-01T08:01:52.979Z</time></trkpt><trkpt lat="39.0439267" lon="16.09816"><ele>3.333333333333333</ele><time>2026-05-01T08:01:53.978Z</time></trkpt><trkpt lat="39.044115" lon="16.098095"><ele>3.0</ele><time>2026-05-01T08:01:54.978Z</time></trkpt><trkpt lat="39.0443017" lon="16.098025"><ele>3.0</ele><time>2026-05-01T08:01:55.979Z</time></trkpt><trkpt lat="39.0444867" lon="16.09796"><ele>3.0</ele><time>2026-05-01T08:01:56.978Z</time></trkpt><trkpt lat="39.044675" lon="16.0978933"><ele>3.0</ele><time>2026-05-01T08:01:57.978Z</time></trkpt><trkpt lat="39.04486" lon="16.0978267"><ele>3.0</ele><time>2026-05-01T08:01:58.978Z</time></trkpt><trkpt lat="39.0450483" lon="16.097765"><ele>3.0</ele><time>2026-05-01T08:01:59.978Z</time></trkpt><trkpt lat="39.0452333" lon="16.0976967"><ele>3.0</ele><time>2026-05-01T08:02:00.979Z</time></trkpt><trkpt lat="39.0454117" lon="16.09763"><ele>3.0</ele><time>2026-05-01T08:02:01.978Z</time></trkpt><trkpt lat="39.045595" lon="16.09756"><ele>3.0</ele><time>2026-05-01T08:02:02.978Z</time></trkpt><trkpt lat="39.0457733" lon="16.0974983"><ele>3.0</ele><time>2026-05-01T08:02:03.979Z</time></trkpt><trkpt lat="39.0459483" lon="16.0974433"><ele>3.0</ele><time>2026-05-01T08:02:04.979Z</time></trkpt><trkpt lat="39.0461167" lon="16.0973767"><ele>3.0</ele><time>2026-05-01T08:02:05.978Z</time></trkpt><trkpt lat="39.0462833" lon="16.0973183"><ele>3.0</ele><time>2026-05-01T08:02:06.978Z</time></trkpt><trkpt lat="39.04645" lon="16.097255"><ele>3.0</ele><time>2026-05-01T08:02:07.979Z</time></trkpt><trkpt lat="39.0466183" lon="16.0972"><ele>3.0</ele><time>2026-05-01T08:02:08.978Z</time></trkpt><trkpt lat="39.0467917" lon="16.09714"><ele>3.0</ele><time>2026-05-01T08:02:09.978Z</time></trkpt><trkpt lat="39.0469617" lon="16.0970833"><ele>3.0</ele><time>2026-05-01T08:02:10.979Z</time></trkpt><trkpt lat="39.0471317" lon="16.0970283"><ele>3.0</ele><time>2026-05-01T08:02:11.978Z</time></trkpt><trkpt lat="39.0473017" lon="16.0969717"><ele>3.0</ele><time>2026-05-01T08:02:12.978Z</time></trkpt><trkpt lat="39.0474683" lon="16.096915"><ele>3.0</ele><time>2026-05-01T08:02:13.979Z</time></trkpt><trkpt lat="39.0476333" lon="16.0968533"><ele>3.0</ele><time>2026-05-01T08:02:14.979Z</time></trkpt><trkpt lat="39.0478" lon="16.0967933"><ele>3.0</ele><time>2026-05-01T08:02:15.978Z</time></trkpt><trkpt lat="39.0479617" lon="16.0967333"><ele>3.0</ele><time>2026-05-01T08:02:16.978Z</time></trkpt><trkpt lat="39.0481267" lon="16.09667"><ele>3.0</ele><time>2026-05-01T08:02:17.978Z</time></trkpt><trkpt lat="39.04829" lon="16.09661"><ele>3.0</ele><time>2026-05-01T08:02:18.978Z</time></trkpt><trkpt lat="39.0484567" lon="16.09655"><ele>3.0</ele><time>2026-05-01T08:02:19.978Z</time></trkpt><trkpt lat="39.048625" lon="16.0964883"><ele>3.0</ele><time>2026-05-01T08:02:20.978Z</time></trkpt><trkpt lat="39.0487917" lon="16.0964333"><ele>3.0</ele><time>2026-05-01T08:02:21.978Z</time></trkpt><trkpt lat="39.048965" lon="16.09638"><ele>3.0</ele><time>2026-05-01T08:02:22.978Z</time></trkpt><trkpt lat="39.04914" lon="16.0963283"><ele>3.0</ele><time>2026-05-01T08:02:23.978Z</time></trkpt><trkpt lat="39.0493167" lon="16.0962667"><ele>3.0</ele><time>2026-05-01T08:02:24.978Z</time></trkpt><trkpt lat="39.0494983" lon="16.096205"><ele>3.0</ele><time>2026-05-01T08:02:25.979Z</time></trkpt><trkpt lat="39.0496783" lon="16.0961333"><ele>3.0</ele><time>2026-05-01T08:02:26.978Z</time></trkpt><trkpt lat="39.0498617" lon="16.0960683"><ele>3.0</ele><time>2026-05-01T08:02:27.978Z</time></trkpt><trkpt lat="39.05004" lon="16.096"><ele>3.333333333333333</ele><time>2026-05-01T08:02:28.979Z</time></trkpt><trkpt lat="39.05021" lon="16.09594"><ele>3.6666666666666665</ele><time>2026-05-01T08:02:29.978Z</time></trkpt><trkpt lat="39.050375" lon="16.09588"><ele>4.0</ele><time>2026-05-01T08:02:30.978Z</time></trkpt><trkpt lat="39.0505283" lon="16.095825"><ele>4.0</ele><time>2026-05-01T08:02:31.978Z</time></trkpt><trkpt lat="39.0506717" lon="16.0957717"><ele>4.0</ele><time>2026-05-01T08:02:32.979Z</time></trkpt><trkpt lat="39.05082" lon="16.09572"><ele>4.0</ele><time>2026-05-01T08:02:33.979Z</time></trkpt><trkpt lat="39.050965" lon="16.0956683"><ele>3.6666666666666665</ele><time>2026-05-01T08:02:34.978Z</time></trkpt><trkpt lat="39.05111" lon="16.0956167"><ele>3.333333333333333</ele><time>2026-05-01T08:02:35.978Z</time></trkpt><trkpt lat="39.051265" lon="16.095565"><ele>3.0</ele><time>2026-05-01T08:02:36.978Z</time></trkpt><trkpt lat="39.05142" lon="16.0955133"><ele>3.0</ele><time>2026-05-01T08:02:37.979Z</time></trkpt><trkpt lat="39.05157" lon="16.0954583"><ele>3.0</ele><time>2026-05-01T08:02:38.979Z</time></trkpt><trkpt lat="39.051725" lon="16.0953933"><ele>3.0</ele><time>2026-05-01T08:02:39.978Z</time></trkpt><trkpt lat="39.0518783" lon="16.09534"><ele>3.333333333333333</ele><time>2026-05-01T08:02:40.978Z</time></trkpt><trkpt lat="39.05203" lon="16.0952933"><ele>3.6666666666666665</ele><time>2026-05-01T08:02:41.978Z</time></trkpt><trkpt lat="39.0521733" lon="16.0952467"><ele>4.0</ele><time>2026-05-01T08:02:42.979Z</time></trkpt><trkpt lat="39.0523167" lon="16.095195"><ele>3.6666666666666665</ele><time>2026-05-01T08:02:43.979Z</time></trkpt><trkpt lat="39.0524667" lon="16.0951383"><ele>3.333333333333333</ele><time>2026-05-01T08:02:44.978Z</time></trkpt><trkpt lat="39.05262" lon="16.0950783"><ele>3.0</ele><time>2026-05-01T08:02:45.978Z</time></trkpt><trkpt lat="39.05278" lon="16.09502"><ele>3.0</ele><time>2026-05-01T08:02:46.979Z</time></trkpt><trkpt lat="39.0529417" lon="16.0949583"><ele>3.0</ele><time>2026-05-01T08:02:47.979Z</time></trkpt><trkpt lat="39.05311" lon="16.0948967"><ele>3.0</ele><time>2026-05-01T08:02:48.978Z</time></trkpt><trkpt lat="39.0532733" lon="16.09484"><ele>2.6666666666666665</ele><time>2026-05-01T08:02:49.979Z</time></trkpt><trkpt lat="39.0534433" lon="16.09478"><ele>2.333333333333333</ele><time>2026-05-01T08:02:50.979Z</time></trkpt><trkpt lat="39.05362" lon="16.0947183"><ele>2.0</ele><time>2026-05-01T08:02:51.979Z</time></trkpt><trkpt lat="39.0537967" lon="16.0946583"><ele>2.0</ele><time>2026-05-01T08:02:52.978Z</time></trkpt><trkpt lat="39.053965" lon="16.0946"><ele>2.0</ele><time>2026-05-01T08:02:53.979Z</time></trkpt><trkpt lat="39.0541383" lon="16.0945383"><ele>2.0</ele><time>2026-05-01T08:02:54.978Z</time></trkpt><trkpt lat="39.05431" lon="16.0944733"><ele>2.0</ele><time>2026-05-01T08:02:55.978Z</time></trkpt><trkpt lat="39.0544767" lon="16.0944033"><ele>2.0</ele><time>2026-05-01T08:02:56.978Z</time></trkpt><trkpt lat="39.0546483" lon="16.0943433"><ele>2.0</ele><time>2026-05-01T08:02:57.978Z</time></trkpt><trkpt lat="39.05482" lon="16.09428"><ele>2.6666666666666665</ele><time>2026-05-01T08:02:58.978Z</time></trkpt><trkpt lat="39.0549817" lon="16.09422"><ele>3.333333333333333</ele><time>2026-05-01T08:02:59.979Z</time></trkpt><trkpt lat="39.055145" lon="16.0941633"><ele>4.0</ele><time>2026-05-01T08:03:00.978Z</time></trkpt><trkpt lat="39.0553133" lon="16.0941133"><ele>3.0</ele><time>2026-05-01T08:03:01.979Z</time></trkpt><trkpt lat="39.0554817" lon="16.0940533"><ele>2.0</ele><time>2026-05-01T08:03:02.978Z</time></trkpt><trkpt lat="39.0556583" lon="16.0939967"><ele>1.0</ele><time>2026-05-01T08:03:03.978Z</time></trkpt><trkpt lat="39.055835" lon="16.0939333"><ele>1.0</ele><time>2026-05-01T08:03:04.978Z</time></trkpt><trkpt lat="39.056015" lon="16.0938633"><ele>1.0</ele><time>2026-05-01T08:03:05.979Z</time></trkpt><trkpt lat="39.056195" lon="16.093795"><ele>1.0</ele><time>2026-05-01T08:03:06.979Z</time></trkpt><trkpt lat="39.0563683" lon="16.093735"><ele>1.0</ele><time>2026-05-01T08:03:07.979Z</time></trkpt><trkpt lat="39.056525" lon="16.0936817"><ele>1.0</ele><time>2026-05-01T08:03:08.978Z</time></trkpt><trkpt lat="39.0566767" lon="16.093625"><ele>1.0</ele><time>2026-05-01T08:03:09.978Z</time></trkpt><trkpt lat="39.05683" lon="16.0935717"><ele>1.3333333333333333</ele><time>2026-05-01T08:03:10.979Z</time></trkpt><trkpt lat="39.0569967" lon="16.0935133"><ele>1.6666666666666665</ele><time>2026-05-01T08:03:11.978Z</time></trkpt><trkpt lat="39.0571933" lon="16.093445"><ele>2.0</ele><time>2026-05-01T08:03:12.978Z</time></trkpt><trkpt lat="39.057405" lon="16.09337"><ele>2.6666666666666665</ele><time>2026-05-01T08:03:13.978Z</time></trkpt><trkpt lat="39.0576183" lon="16.0932867"><ele>3.333333333333333</ele><time>2026-05-01T08:03:14.979Z</time></trkpt><trkpt lat="39.0578233" lon="16.0932117"><ele>4.0</ele><time>2026-05-01T08:03:15.979Z</time></trkpt><trkpt lat="39.0580383" lon="16.0931333"><ele>2.5</ele><time>2026-05-01T08:03:16.978Z</time></trkpt><trkpt lat="39.058275" lon="16.0930483"><ele>1.0</ele><time>2026-05-01T08:03:17.978Z</time></trkpt><trkpt lat="39.05852" lon="16.0929617"><ele>1.0</ele><time>2026-05-01T08:03:18.978Z</time></trkpt><trkpt lat="39.0587717" lon="16.092875"><ele>1.0</ele><time>2026-05-01T08:03:19.979Z</time></trkpt><trkpt lat="39.05902" lon="16.0927917"><ele>1.3333333333333333</ele><time>2026-05-01T08:03:20.978Z</time></trkpt><trkpt lat="39.05924" lon="16.092715"><ele>1.6666666666666665</ele><time>2026-05-01T08:03:21.979Z</time></trkpt><trkpt lat="39.0594367" lon="16.0926483"><ele>2.0</ele><time>2026-05-01T08:03:22.978Z</time></trkpt><trkpt lat="39.0596017" lon="16.0925917"><ele>2.0</ele><time>2026-05-01T08:03:23.978Z</time></trkpt><trkpt lat="39.05974" lon="16.0925383"><ele>2.0</ele><time>2026-05-01T08:03:24.979Z</time></trkpt><trkpt lat="39.059855" lon="16.09249"><ele>2.0</ele><time>2026-05-01T08:03:25.978Z</time></trkpt><trkpt lat="39.059955" lon="16.0924567"><ele>2.0</ele><time>2026-05-01T08:03:26.979Z</time></trkpt><trkpt lat="39.0600367" lon="16.0924267"><ele>1.6666666666666665</ele><time>2026-05-01T08:03:27.979Z</time></trkpt><trkpt lat="39.0601033" lon="16.0924117"><ele>1.3333333333333333</ele><time>2026-05-01T08:03:28.978Z</time></trkpt><trkpt lat="39.0601867" lon="16.0923867"><ele>1.0</ele><time>2026-05-01T08:03:30.978Z</time></trkpt><trkpt lat="39.0602733" lon="16.0923567"><ele>0.6666666666666666</ele><time>2026-05-01T08:03:33.979Z</time></trkpt><trkpt lat="39.0603383" lon="16.0923333"><ele>0.3333333333333333</ele><time>2026-05-01T08:03:35.979Z</time></trkpt><trkpt lat="39.0604017" lon="16.09231"><ele>0.0</ele><time>2026-05-01T08:03:37.979Z</time></trkpt><trkpt lat="39.060475" lon="16.0922933"><ele>0.0</ele><time>2026-05-01T08:03:40.978Z</time></trkpt><trkpt lat="39.06054" lon="16.0922633"><ele>0.0</ele><time>2026-05-01T08:03:45.978Z</time></trkpt><trkpt lat="39.0606417" lon="16.0922367"><ele>0.0</ele><time>2026-05-01T08:04:30.978Z</time></trkpt><trkpt lat="39.0607483" lon="16.0921983"><ele>0.0</ele><time>2026-05-01T08:04:32.977Z</time></trkpt><trkpt lat="39.0608517" lon="16.0921617"><ele>0.0</ele><time>2026-05-01T08:04:34.977Z</time></trkpt><trkpt lat="39.0609367" lon="16.0921317"><ele>0.3333333333333333</ele><time>2026-05-01T08:04:36.977Z</time></trkpt><trkpt lat="39.0610083" lon="16.0921033"><ele>0.6666666666666666</ele><time>2026-05-01T08:04:38.977Z</time></trkpt><trkpt lat="39.061085" lon="16.0920733"><ele>1.0</ele><time>2026-05-01T08:04:41.977Z</time></trkpt><trkpt lat="39.06115" lon="16.0920433"><ele>1.3333333333333333</ele><time>2026-05-01T08:04:45.977Z</time></trkpt><trkpt lat="39.0612233" lon="16.09202"><ele>1.6666666666666665</ele><time>2026-05-01T08:04:49.977Z</time></trkpt><trkpt lat="39.06129" lon="16.092005"><ele>2.0</ele><time>2026-05-01T08:05:28.978Z</time></trkpt><trkpt lat="39.0613717" lon="16.0919783"><ele>1.9999999999999998</ele><time>2026-05-01T08:05:31.977Z</time></trkpt><trkpt lat="39.0614483" lon="16.0919567"><ele>2.0</ele><time>2026-05-01T08:05:34.978Z</time></trkpt><trkpt lat="39.06152" lon="16.09192"><ele>2.0</ele><time>2026-05-01T08:05:38.977Z</time></trkpt><trkpt lat="39.06158" lon="16.091895"><ele>2.0</ele><time>2026-05-01T08:05:42.978Z</time></trkpt><trkpt lat="39.0616517" lon="16.0918733"><ele>1.9999999999999998</ele><time>2026-05-01T08:05:45.977Z</time></trkpt><trkpt lat="39.0617283" lon="16.09185"><ele>2.0</ele><time>2026-05-01T08:05:48.977Z</time></trkpt><trkpt lat="39.061805" lon="16.0918233"><ele>2.4000000000000004</ele><time>2026-05-01T08:05:51.978Z</time></trkpt><trkpt lat="39.06188" lon="16.09179"><ele>2.8000000000000003</ele><time>2026-05-01T08:05:54.977Z</time></trkpt><trkpt lat="39.062005" lon="16.091745"><ele>3.2</ele><time>2026-05-01T08:06:09.978Z</time></trkpt><trkpt lat="39.0620767" lon="16.09172"><ele>3.6</ele><time>2026-05-01T08:06:12.978Z</time></trkpt><trkpt lat="39.0621633" lon="16.0916867"><ele>4.0</ele><time>2026-05-01T08:06:15.977Z</time></trkpt><trkpt lat="39.0622433" lon="16.0916517"><ele>3.9999999999999996</ele><time>2026-05-01T08:06:18.978Z</time></trkpt><trkpt lat="39.0623167" lon="16.09163"><ele>4.0</ele><time>2026-05-01T08:06:21.977Z</time></trkpt><trkpt lat="39.0623883" lon="16.0916033"><ele>4.0</ele><time>2026-05-01T08:06:24.977Z</time></trkpt><trkpt lat="39.0624867" lon="16.0915633"><ele>4.0</ele><time>2026-05-01T08:06:31.978Z</time></trkpt><trkpt lat="39.0625533" lon="16.0915383"><ele>3.9999999999999996</ele><time>2026-05-01T08:06:33.978Z</time></trkpt><trkpt lat="39.0626383" lon="16.0915083"><ele>4.0</ele><time>2026-05-01T08:06:36.977Z</time></trkpt><trkpt lat="39.0627133" lon="16.09148"><ele>3.333333333333333</ele><time>2026-05-01T08:06:39.977Z</time></trkpt><trkpt lat="39.0627867" lon="16.09146"><ele>2.6666666666666665</ele><time>2026-05-01T08:06:42.977Z</time></trkpt><trkpt lat="39.0628683" lon="16.09143"><ele>2.0</ele><time>2026-05-01T08:06:45.978Z</time></trkpt><trkpt lat="39.0629467" lon="16.0914017"><ele>1.3333333333333333</ele><time>2026-05-01T08:06:48.978Z</time></trkpt><trkpt lat="39.0630567" lon="16.091375"><ele>0.6666666666666666</ele><time>2026-05-01T08:07:11.977Z</time></trkpt><trkpt lat="39.0631367" lon="16.0913517"><ele>0.0</ele><time>2026-05-01T08:07:14.978Z</time></trkpt><trkpt lat="39.0632117" lon="16.0913217"><ele>0.16666666666666666</ele><time>2026-05-01T08:07:17.977Z</time></trkpt><trkpt lat="39.0632883" lon="16.0912967"><ele>0.3333333333333333</ele><time>2026-05-01T08:07:20.977Z</time></trkpt><trkpt lat="39.063365" lon="16.0912667"><ele>0.5</ele><time>2026-05-01T08:07:23.977Z</time></trkpt><trkpt lat="39.0634267" lon="16.091235"><ele>0.6666666666666666</ele><time>2026-05-01T08:07:26.977Z</time></trkpt><trkpt lat="39.0634933" lon="16.0912117"><ele>0.8333333333333333</ele><time>2026-05-01T08:07:32.977Z</time></trkpt><trkpt lat="39.0635667" lon="16.091185"><ele>1.0</ele><time>2026-05-01T08:07:36.977Z</time></trkpt><trkpt lat="39.063645" lon="16.0911683"><ele>0.9999999999999999</ele><time>2026-05-01T08:07:39.978Z</time></trkpt><trkpt lat="39.0637217" lon="16.091135"><ele>1.0</ele><time>2026-05-01T08:07:42.977Z</time></trkpt><trkpt lat="39.0637983" lon="16.0911067"><ele>1.0</ele><time>2026-05-01T08:07:45.977Z</time></trkpt><trkpt lat="39.0638767" lon="16.0910783"><ele>1.0</ele><time>2026-05-01T08:07:48.977Z</time></trkpt><trkpt lat="39.063955" lon="16.09105"><ele>0.9999999999999999</ele><time>2026-05-01T08:07:52.977Z</time></trkpt><trkpt lat="39.0640217" lon="16.091025"><ele>1.0</ele><time>2026-05-01T08:08:15.978Z</time></trkpt><trkpt lat="39.0641017" lon="16.090995"><ele>1.1428571428571428</ele><time>2026-05-01T08:08:43.977Z</time></trkpt><trkpt lat="39.0641683" lon="16.0909767"><ele>1.2857142857142856</ele><time>2026-05-01T08:08:46.978Z</time></trkpt><trkpt lat="39.0642367" lon="16.090955"><ele>1.4285714285714284</ele><time>2026-05-01T08:08:49.977Z</time></trkpt><trkpt lat="39.06431" lon="16.09093"><ele>1.5714285714285714</ele><time>2026-05-01T08:08:52.978Z</time></trkpt><trkpt lat="39.064395" lon="16.0909133"><ele>1.714285714285714</ele><time>2026-05-01T08:08:55.977Z</time></trkpt><trkpt lat="39.064465" lon="16.0908983"><ele>1.857142857142857</ele><time>2026-05-01T08:08:58.977Z</time></trkpt><trkpt lat="39.06454" lon="16.09089"><ele>2.0</ele><time>2026-05-01T08:09:01.978Z</time></trkpt><trkpt lat="39.0646083" lon="16.0908883"><ele>1.9999999999999998</ele><time>2026-05-01T08:09:05.978Z</time></trkpt><trkpt lat="39.0646883" lon="16.0908967"><ele>2.0</ele><time>2026-05-01T08:09:12.977Z</time></trkpt><trkpt lat="39.0647633" lon="16.0909017"><ele>2.0</ele><time>2026-05-01T08:09:15.977Z</time></trkpt><trkpt lat="39.0648417" lon="16.0909017"><ele>2.0</ele><time>2026-05-01T08:09:18.977Z</time></trkpt><trkpt lat="39.064915" lon="16.0909183"><ele>1.9999999999999998</ele><time>2026-05-01T08:09:21.977Z</time></trkpt><trkpt lat="39.064995" lon="16.0909333"><ele>2.0</ele><time>2026-05-01T08:09:24.977Z</time></trkpt><trkpt lat="39.06508" lon="16.0909533"><ele>2.0</ele><time>2026-05-01T08:09:27.977Z</time></trkpt><trkpt lat="39.065145" lon="16.09098"><ele>2.0</ele><time>2026-05-01T08:09:57.978Z</time></trkpt><trkpt lat="39.0652117" lon="16.0910083"><ele>2.0</ele><time>2026-05-01T08:09:59.978Z</time></trkpt><trkpt lat="39.065295" lon="16.091045"><ele>2.0</ele><time>2026-05-01T08:10:01.977Z</time></trkpt><trkpt lat="39.0653833" lon="16.0910967"><ele>2.0</ele><time>2026-05-01T08:10:03.978Z</time></trkpt><trkpt lat="39.0654983" lon="16.0911667"><ele>1.9999999999999998</ele><time>2026-05-01T08:10:05.978Z</time></trkpt><trkpt lat="39.0656083" lon="16.0912433"><ele>2.0</ele><time>2026-05-01T08:10:07.978Z</time></trkpt><trkpt lat="39.0656883" lon="16.0913"><ele>2.0</ele><time>2026-05-01T08:10:09.977Z</time></trkpt><trkpt lat="39.0657533" lon="16.0913433"><ele>2.0</ele><time>2026-05-01T08:10:11.977Z</time></trkpt><trkpt lat="39.0658167" lon="16.091385"><ele>1.9999999999999998</ele><time>2026-05-01T08:10:13.977Z</time></trkpt><trkpt lat="39.06589" lon="16.0914367"><ele>2.0</ele><time>2026-05-01T08:10:16.977Z</time></trkpt><trkpt lat="39.065955" lon="16.0914867"><ele>2.1666666666666665</ele><time>2026-05-01T08:10:20.978Z</time></trkpt><trkpt lat="39.06601" lon="16.0915417"><ele>2.333333333333333</ele><time>2026-05-01T08:10:45.977Z</time></trkpt><trkpt lat="39.0660683" lon="16.091585"><ele>2.5</ele><time>2026-05-01T08:10:47.977Z</time></trkpt><trkpt lat="39.0661383" lon="16.091635"><ele>2.6666666666666665</ele><time>2026-05-01T08:10:49.977Z</time></trkpt><trkpt lat="39.0662217" lon="16.0917033"><ele>2.8333333333333335</ele><time>2026-05-01T08:10:51.978Z</time></trkpt><trkpt lat="39.066285" lon="16.0917567"><ele>3.0</ele><time>2026-05-01T08:10:53.977Z</time></trkpt><trkpt lat="39.0663517" lon="16.0918"><ele>4.4</ele><time>2026-05-01T08:10:55.978Z</time></trkpt><trkpt lat="39.0664183" lon="16.0918417"><ele>5.8</ele><time>2026-05-01T08:10:57.978Z</time></trkpt><trkpt lat="39.066485" lon="16.0918983"><ele>7.2</ele><time>2026-05-01T08:11:00.977Z</time></trkpt><trkpt lat="39.06654" lon="16.09196"><ele>8.6</ele><time>2026-05-01T08:11:04.977Z</time></trkpt><trkpt lat="39.0666267" lon="16.0920267"><ele>10.0</ele><time>2026-05-01T08:12:07.977Z</time></trkpt><trkpt lat="39.0667383" lon="16.092105"><ele>10.166666666666668</ele><time>2026-05-01T08:12:09.977Z</time></trkpt><trkpt lat="39.06681" lon="16.0921583"><ele>10.333333333333334</ele><time>2026-05-01T08:12:10.978Z</time></trkpt><trkpt lat="39.066885" lon="16.092215"><ele>10.5</ele><time>2026-05-01T08:12:11.978Z</time></trkpt><trkpt lat="39.066965" lon="16.0922667"><ele>10.666666666666666</ele><time>2026-05-01T08:12:12.978Z</time></trkpt><trkpt lat="39.0670333" lon="16.0923267"><ele>10.833333333333332</ele><time>2026-05-01T08:12:13.977Z</time></trkpt><trkpt lat="39.06711" lon="16.0923717"><ele>11.0</ele><time>2026-05-01T08:12:14.977Z</time></trkpt><trkpt lat="39.0672133" lon="16.0924183"><ele>12.200000000000001</ele><time>2026-05-01T08:12:15.977Z</time></trkpt><trkpt lat="39.0673217" lon="16.0924633"><ele>13.4</ele><time>2026-05-01T08:12:16.977Z</time></trkpt><trkpt lat="39.067405" lon="16.09249"><ele>14.6</ele><time>2026-05-01T08:12:17.978Z</time></trkpt><trkpt lat="39.0675033" lon="16.0925133"><ele>15.8</ele><time>2026-05-01T08:12:19.977Z</time></trkpt><trkpt lat="39.0675917" lon="16.0925133"><ele>17.0</ele><time>2026-05-01T08:12:21.977Z</time></trkpt><trkpt lat="39.0676883" lon="16.092495"><ele>17.0</ele><time>2026-05-01T08:12:23.977Z</time></trkpt><trkpt lat="39.0678017" lon="16.092465"><ele>17.0</ele><time>2026-05-01T08:12:25.977Z</time></trkpt><trkpt lat="39.067875" lon="16.09244"><ele>17.0</ele><time>2026-05-01T08:12:26.978Z</time></trkpt><trkpt lat="39.06796" lon="16.0924167"><ele>17.0</ele><time>2026-05-01T08:12:27.977Z</time></trkpt><trkpt lat="39.068045" lon="16.0923883"><ele>17.0</ele><time>2026-05-01T08:12:28.978Z</time></trkpt><trkpt lat="39.0681217" lon="16.0923633"><ele>17.0</ele><time>2026-05-01T08:12:29.977Z</time></trkpt><trkpt lat="39.0682" lon="16.092335"><ele>16.0</ele><time>2026-05-01T08:12:30.977Z</time></trkpt><trkpt lat="39.0682817" lon="16.092305"><ele>15.0</ele><time>2026-05-01T08:12:31.977Z</time></trkpt><trkpt lat="39.06837" lon="16.0922833"><ele>14.0</ele><time>2026-05-01T08:12:32.977Z</time></trkpt><trkpt lat="39.0684567" lon="16.092255"><ele>13.0</ele><time>2026-05-01T08:12:33.978Z</time></trkpt><trkpt lat="39.06855" lon="16.0922267"><ele>12.0</ele><time>2026-05-01T08:12:34.977Z</time></trkpt><trkpt lat="39.0686433" lon="16.0921983"><ele>12.0</ele><time>2026-05-01T08:12:35.977Z</time></trkpt><trkpt lat="39.0687383" lon="16.0921767"><ele>12.0</ele><time>2026-05-01T08:12:36.977Z</time></trkpt><trkpt lat="39.068835" lon="16.0921517"><ele>12.0</ele><time>2026-05-01T08:12:37.977Z</time></trkpt><trkpt lat="39.0689183" lon="16.0921217"><ele>12.0</ele><time>2026-05-01T08:12:38.977Z</time></trkpt><trkpt lat="39.0690067" lon="16.0921"><ele>12.0</ele><time>2026-05-01T08:12:39.978Z</time></trkpt><trkpt lat="39.0690867" lon="16.092085"><ele>12.0</ele><time>2026-05-01T08:12:40.977Z</time></trkpt><trkpt lat="39.0691717" lon="16.0920733"><ele>12.0</ele><time>2026-05-01T08:12:41.977Z</time></trkpt><trkpt lat="39.069255" lon="16.092065"><ele>12.0</ele><time>2026-05-01T08:12:42.978Z</time></trkpt><trkpt lat="39.0693367" lon="16.0920567"><ele>12.0</ele><time>2026-05-01T08:12:43.977Z</time></trkpt><trkpt lat="39.0694233" lon="16.0920467"><ele>12.0</ele><time>2026-05-01T08:12:44.978Z</time></trkpt><trkpt lat="39.0695083" lon="16.0920367"><ele>12.0</ele><time>2026-05-01T08:12:45.978Z</time></trkpt><trkpt lat="39.0695917" lon="16.092025"><ele>12.0</ele><time>2026-05-01T08:12:46.977Z</time></trkpt><trkpt lat="39.0696783" lon="16.0920117"><ele>12.0</ele><time>2026-05-01T08:12:47.978Z</time></trkpt><trkpt lat="39.0697683" lon="16.0920033"><ele>12.0</ele><time>2026-05-01T08:12:48.978Z</time></trkpt><trkpt lat="39.0698533" lon="16.09199"><ele>12.0</ele><time>2026-05-01T08:12:49.977Z</time></trkpt><trkpt lat="39.0699383" lon="16.091975"><ele>12.0</ele><time>2026-05-01T08:12:50.977Z</time></trkpt><trkpt lat="39.0700267" lon="16.0919583"><ele>12.0</ele><time>2026-05-01T08:12:51.977Z</time></trkpt><trkpt lat="39.0701167" lon="16.0919517"><ele>12.0</ele><time>2026-05-01T08:12:52.977Z</time></trkpt><trkpt lat="39.070205" lon="16.0919367"><ele>12.0</ele><time>2026-05-01T08:12:53.977Z</time></trkpt><trkpt lat="39.0702967" lon="16.0919283"><ele>12.0</ele><time>2026-05-01T08:12:54.978Z</time></trkpt><trkpt lat="39.0703917" lon="16.0919267"><ele>12.0</ele><time>2026-05-01T08:12:55.977Z</time></trkpt><trkpt lat="39.0704833" lon="16.0919133"><ele>12.0</ele><time>2026-05-01T08:12:56.977Z</time></trkpt><trkpt lat="39.070575" lon="16.0919133"><ele>12.0</ele><time>2026-05-01T08:12:57.977Z</time></trkpt><trkpt lat="39.07066" lon="16.091905"><ele>12.0</ele><time>2026-05-01T08:12:58.978Z</time></trkpt><trkpt lat="39.0707433" lon="16.0918933"><ele>12.0</ele><time>2026-05-01T08:12:59.977Z</time></trkpt><trkpt lat="39.070825" lon="16.09188"><ele>12.0</ele><time>2026-05-01T08:13:00.978Z</time></trkpt><trkpt lat="39.0709117" lon="16.0918683"><ele>12.0</ele><time>2026-05-01T08:13:01.978Z</time></trkpt><trkpt lat="39.0709967" lon="16.091855"><ele>12.0</ele><time>2026-05-01T08:13:02.978Z</time></trkpt><trkpt lat="39.0710883" lon="16.0918383"><ele>12.0</ele><time>2026-05-01T08:13:03.977Z</time></trkpt><trkpt lat="39.07118" lon="16.0918233"><ele>12.0</ele><time>2026-05-01T08:13:04.977Z</time></trkpt><trkpt lat="39.071265" lon="16.0918083"><ele>12.0</ele><time>2026-05-01T08:13:05.977Z</time></trkpt><trkpt lat="39.0713483" lon="16.09179"><ele>12.0</ele><time>2026-05-01T08:13:06.977Z</time></trkpt><trkpt lat="39.0714283" lon="16.09178"><ele>12.0</ele><time>2026-05-01T08:13:07.977Z</time></trkpt><trkpt lat="39.0715083" lon="16.0917667"><ele>12.0</ele><time>2026-05-01T08:13:08.978Z</time></trkpt><trkpt lat="39.07161" lon="16.0917567"><ele>11.75</ele><time>2026-05-01T08:13:09.978Z</time></trkpt><trkpt lat="39.0717333" lon="16.091745"><ele>11.5</ele><time>2026-05-01T08:13:10.977Z</time></trkpt><trkpt lat="39.071885" lon="16.091725"><ele>11.25</ele><time>2026-05-01T08:13:11.978Z</time></trkpt><trkpt lat="39.072025" lon="16.0917"><ele>11.0</ele><time>2026-05-01T08:13:12.977Z</time></trkpt><trkpt lat="39.0721567" lon="16.0916733"><ele>11.0</ele><time>2026-05-01T08:13:13.977Z</time></trkpt><trkpt lat="39.0722833" lon="16.091655"><ele>11.0</ele><time>2026-05-01T08:13:14.977Z</time></trkpt><trkpt lat="39.0723917" lon="16.091635"><ele>11.0</ele><time>2026-05-01T08:13:15.977Z</time></trkpt><trkpt lat="39.072495" lon="16.0916183"><ele>11.0</ele><time>2026-05-01T08:13:16.977Z</time></trkpt><trkpt lat="39.0725967" lon="16.0915917"><ele>11.0</ele><time>2026-05-01T08:13:17.977Z</time></trkpt><trkpt lat="39.0726967" lon="16.0915733"><ele>10.4</ele><time>2026-05-01T08:13:18.977Z</time></trkpt><trkpt lat="39.0728033" lon="16.0915417"><ele>9.8</ele><time>2026-05-01T08:13:19.978Z</time></trkpt><trkpt lat="39.07291" lon="16.0915083"><ele>9.200000000000001</ele><time>2026-05-01T08:13:20.978Z</time></trkpt><trkpt lat="39.0730183" lon="16.0914683"><ele>8.600000000000001</ele><time>2026-05-01T08:13:21.978Z</time></trkpt><trkpt lat="39.073125" lon="16.0914283"><ele>8.0</ele><time>2026-05-01T08:13:22.978Z</time></trkpt><trkpt lat="39.0732317" lon="16.091385"><ele>7.75</ele><time>2026-05-01T08:13:23.977Z</time></trkpt><trkpt lat="39.07334" lon="16.0913333"><ele>7.5</ele><time>2026-05-01T08:13:24.978Z</time></trkpt><trkpt lat="39.073445" lon="16.0912783"><ele>7.25</ele><time>2026-05-01T08:13:25.978Z</time></trkpt><trkpt lat="39.073555" lon="16.09122"><ele>7.0</ele><time>2026-05-01T08:13:26.978Z</time></trkpt><trkpt lat="39.0736683" lon="16.091175"><ele>7.0</ele><time>2026-05-01T08:13:27.977Z</time></trkpt><trkpt lat="39.0737883" lon="16.0911167"><ele>7.0</ele><time>2026-05-01T08:13:28.977Z</time></trkpt><trkpt lat="39.0739067" lon="16.0910567"><ele>7.0</ele><time>2026-05-01T08:13:29.977Z</time></trkpt><trkpt lat="39.07403" lon="16.0910017"><ele>7.0</ele><time>2026-05-01T08:13:30.978Z</time></trkpt><trkpt lat="39.07415" lon="16.0909483"><ele>7.0</ele><time>2026-05-01T08:13:31.977Z</time></trkpt><trkpt lat="39.0742733" lon="16.0908933"><ele>7.0</ele><time>2026-05-01T08:13:32.977Z</time></trkpt><trkpt lat="39.07439" lon="16.0908383"><ele>7.0</ele><time>2026-05-01T08:13:33.977Z</time></trkpt><trkpt lat="39.0745133" lon="16.090775"><ele>7.0</ele><time>2026-05-01T08:13:34.977Z</time></trkpt><trkpt lat="39.0746367" lon="16.090715"><ele>6.25</ele><time>2026-05-01T08:13:35.977Z</time></trkpt><trkpt lat="39.07476" lon="16.09066"><ele>5.5</ele><time>2026-05-01T08:13:36.977Z</time></trkpt><trkpt lat="39.074885" lon="16.0906033"><ele>4.75</ele><time>2026-05-01T08:13:37.977Z</time></trkpt><trkpt lat="39.07501" lon="16.0905417"><ele>4.0</ele><time>2026-05-01T08:13:38.977Z</time></trkpt><trkpt lat="39.0751367" lon="16.090485"><ele>5.75</ele><time>2026-05-01T08:13:39.977Z</time></trkpt><trkpt lat="39.0752567" lon="16.0904283"><ele>7.5</ele><time>2026-05-01T08:13:40.978Z</time></trkpt><trkpt lat="39.0753867" lon="16.0903783"><ele>9.25</ele><time>2026-05-01T08:13:41.977Z</time></trkpt><trkpt lat="39.0755033" lon="16.09033"><ele>11.0</ele><time>2026-05-01T08:13:42.977Z</time></trkpt><trkpt lat="39.0756133" lon="16.090285"><ele>11.0</ele><time>2026-05-01T08:13:43.977Z</time></trkpt><trkpt lat="39.0757183" lon="16.0902433"><ele>11.0</ele><time>2026-05-01T08:13:44.977Z</time></trkpt><trkpt lat="39.07582" lon="16.0901867"><ele>11.0</ele><time>2026-05-01T08:13:45.977Z</time></trkpt><trkpt lat="39.0759267" lon="16.0901333"><ele>11.0</ele><time>2026-05-01T08:13:46.977Z</time></trkpt><trkpt lat="39.0760333" lon="16.0900767"><ele>10.5</ele><time>2026-05-01T08:13:47.977Z</time></trkpt><trkpt lat="39.07615" lon="16.0900217"><ele>10.0</ele><time>2026-05-01T08:13:48.977Z</time></trkpt><trkpt lat="39.0762717" lon="16.0899617"><ele>9.5</ele><time>2026-05-01T08:13:49.978Z</time></trkpt><trkpt lat="39.0763967" lon="16.089905"><ele>9.0</ele><time>2026-05-01T08:13:50.977Z</time></trkpt><trkpt lat="39.0765183" lon="16.089845"><ele>8.75</ele><time>2026-05-01T08:13:51.977Z</time></trkpt><trkpt lat="39.0766383" lon="16.0897833"><ele>8.5</ele><time>2026-05-01T08:13:52.977Z</time></trkpt><trkpt lat="39.0767583" lon="16.089725"><ele>8.25</ele><time>2026-05-01T08:13:53.977Z</time></trkpt><trkpt lat="39.07687" lon="16.0896733"><ele>8.0</ele><time>2026-05-01T08:13:54.977Z</time></trkpt><trkpt lat="39.07698" lon="16.0896267"><ele>8.0</ele><time>2026-05-01T08:13:55.977Z</time></trkpt><trkpt lat="39.0770867" lon="16.0895783"><ele>8.0</ele><time>2026-05-01T08:13:56.977Z</time></trkpt><trkpt lat="39.077195" lon="16.0895333"><ele>8.0</ele><time>2026-05-01T08:13:57.977Z</time></trkpt><trkpt lat="39.0772983" lon="16.08949"><ele>8.0</ele><time>2026-05-01T08:13:58.978Z</time></trkpt><trkpt lat="39.0774033" lon="16.08944"><ele>8.0</ele><time>2026-05-01T08:13:59.977Z</time></trkpt><trkpt lat="39.0775067" lon="16.0893917"><ele>7.800000000000001</ele><time>2026-05-01T08:14:00.977Z</time></trkpt><trkpt lat="39.0776067" lon="16.08935"><ele>7.6000000000000005</ele><time>2026-05-01T08:14:01.978Z</time></trkpt><trkpt lat="39.0777033" lon="16.089305"><ele>7.3999999999999995</ele><time>2026-05-01T08:14:02.977Z</time></trkpt><trkpt lat="39.0778083" lon="16.0892483"><ele>7.199999999999999</ele><time>2026-05-01T08:14:03.978Z</time></trkpt><trkpt lat="39.0779117" lon="16.089195"><ele>7.0</ele><time>2026-05-01T08:14:04.978Z</time></trkpt><trkpt lat="39.0780167" lon="16.0891417"><ele>7.3999999999999995</ele><time>2026-05-01T08:14:05.977Z</time></trkpt><trkpt lat="39.07812" lon="16.0890917"><ele>7.799999999999999</ele><time>2026-05-01T08:14:06.977Z</time></trkpt><trkpt lat="39.078225" lon="16.0890433"><ele>8.2</ele><time>2026-05-01T08:14:07.977Z</time></trkpt><trkpt lat="39.078325" lon="16.089"><ele>8.6</ele><time>2026-05-01T08:14:08.977Z</time></trkpt><trkpt lat="39.0784217" lon="16.0889517"><ele>9.0</ele><time>2026-05-01T08:14:09.978Z</time></trkpt><trkpt lat="39.0785167" lon="16.088915"><ele>9.0</ele><time>2026-05-01T08:14:10.978Z</time></trkpt><trkpt lat="39.0786117" lon="16.0888667"><ele>9.0</ele><time>2026-05-01T08:14:11.977Z</time></trkpt><trkpt lat="39.0787133" lon="16.08881"><ele>9.0</ele><time>2026-05-01T08:14:12.977Z</time></trkpt><trkpt lat="39.0788217" lon="16.0887633"><ele>9.0</ele><time>2026-05-01T08:14:13.977Z</time></trkpt><trkpt lat="39.0789283" lon="16.0887117"><ele>9.0</ele><time>2026-05-01T08:14:14.977Z</time></trkpt><trkpt lat="39.07905" lon="16.0886567"><ele>8.75</ele><time>2026-05-01T08:14:15.977Z</time></trkpt><trkpt lat="39.0791767" lon="16.0886017"><ele>8.5</ele><time>2026-05-01T08:14:16.978Z</time></trkpt><trkpt lat="39.0793" lon="16.088545"><ele>8.25</ele><time>2026-05-01T08:14:17.977Z</time></trkpt><trkpt lat="39.0794233" lon="16.0884867"><ele>8.0</ele><time>2026-05-01T08:14:18.978Z</time></trkpt><trkpt lat="39.0795467" lon="16.08843"><ele>8.0</ele><time>2026-05-01T08:14:19.977Z</time></trkpt><trkpt lat="39.07966" lon="16.0883733"><ele>8.0</ele><time>2026-05-01T08:14:20.978Z</time></trkpt><trkpt lat="39.07977" lon="16.0883267"><ele>8.0</ele><time>2026-05-01T08:14:21.977Z</time></trkpt><trkpt lat="39.079875" lon="16.0882867"><ele>8.0</ele><time>2026-05-01T08:14:22.978Z</time></trkpt><trkpt lat="39.07998" lon="16.0882283"><ele>7.5</ele><time>2026-05-01T08:14:23.977Z</time></trkpt><trkpt lat="39.080095" lon="16.088175"><ele>7.0</ele><time>2026-05-01T08:14:24.977Z</time></trkpt><trkpt lat="39.0802017" lon="16.0881217"><ele>6.5</ele><time>2026-05-01T08:14:25.977Z</time></trkpt><trkpt lat="39.08031" lon="16.0880683"><ele>6.0</ele><time>2026-05-01T08:14:26.977Z</time></trkpt><trkpt lat="39.0804183" lon="16.0880317"><ele>6.0</ele><time>2026-05-01T08:14:27.978Z</time></trkpt><trkpt lat="39.080535" lon="16.0879883"><ele>6.0</ele><time>2026-05-01T08:14:28.978Z</time></trkpt><trkpt lat="39.08065" lon="16.0879433"><ele>6.0</ele><time>2026-05-01T08:14:29.977Z</time></trkpt><trkpt lat="39.0807767" lon="16.0879"><ele>6.0</ele><time>2026-05-01T08:14:30.977Z</time></trkpt><trkpt lat="39.0809033" lon="16.0878567"><ele>6.25</ele><time>2026-05-01T08:14:31.977Z</time></trkpt><trkpt lat="39.08103" lon="16.08782"><ele>6.5</ele><time>2026-05-01T08:14:32.977Z</time></trkpt><trkpt lat="39.08116" lon="16.08779"><ele>6.75</ele><time>2026-05-01T08:14:33.977Z</time></trkpt><trkpt lat="39.0812867" lon="16.0877517"><ele>7.0</ele><time>2026-05-01T08:14:34.977Z</time></trkpt><trkpt lat="39.0814117" lon="16.0877167"><ele>7.0</ele><time>2026-05-01T08:14:35.978Z</time></trkpt><trkpt lat="39.0815383" lon="16.0876733"><ele>7.0</ele><time>2026-05-01T08:14:36.977Z</time></trkpt><trkpt lat="39.081665" lon="16.087635"><ele>7.0</ele><time>2026-05-01T08:14:37.977Z</time></trkpt><trkpt lat="39.0818" lon="16.087605"><ele>7.0</ele><time>2026-05-01T08:14:38.977Z</time></trkpt><trkpt lat="39.0819333" lon="16.0875717"><ele>7.0</ele><time>2026-05-01T08:14:39.978Z</time></trkpt><trkpt lat="39.08207" lon="16.0875383"><ele>7.0</ele><time>2026-05-01T08:14:40.978Z</time></trkpt><trkpt lat="39.0822083" lon="16.0874933"><ele>7.0</ele><time>2026-05-01T08:14:41.977Z</time></trkpt><trkpt lat="39.0823417" lon="16.087455"><ele>7.0</ele><time>2026-05-01T08:14:42.977Z</time></trkpt><trkpt lat="39.08247" lon="16.0874217"><ele>7.0</ele><time>2026-05-01T08:14:43.977Z</time></trkpt><trkpt lat="39.0825933" lon="16.0873833"><ele>7.0</ele><time>2026-05-01T08:14:44.977Z</time></trkpt><trkpt lat="39.0827217" lon="16.0873517"><ele>7.0</ele><time>2026-05-01T08:14:45.977Z</time></trkpt><trkpt lat="39.0828517" lon="16.0873167"><ele>7.0</ele><time>2026-05-01T08:14:46.978Z</time></trkpt><trkpt lat="39.0829783" lon="16.0872817"><ele>7.0</ele><time>2026-05-01T08:14:47.977Z</time></trkpt><trkpt lat="39.0831083" lon="16.0872483"><ele>7.0</ele><time>2026-05-01T08:14:48.978Z</time></trkpt><trkpt lat="39.083245" lon="16.0872067"><ele>7.0</ele><time>2026-05-01T08:14:49.977Z</time></trkpt><trkpt lat="39.083375" lon="16.0871717"><ele>7.0</ele><time>2026-05-01T08:14:50.978Z</time></trkpt><trkpt lat="39.08351" lon="16.08714"><ele>7.0</ele><time>2026-05-01T08:14:51.977Z</time></trkpt><trkpt lat="39.08364" lon="16.087105"><ele>7.0</ele><time>2026-05-01T08:14:52.977Z</time></trkpt><trkpt lat="39.0837733" lon="16.0870617"><ele>7.0</ele><time>2026-05-01T08:14:53.977Z</time></trkpt><trkpt lat="39.0839017" lon="16.0870233"><ele>7.0</ele><time>2026-05-01T08:14:54.978Z</time></trkpt><trkpt lat="39.0840367" lon="16.0869867"><ele>7.5</ele><time>2026-05-01T08:14:55.977Z</time></trkpt><trkpt lat="39.0841667" lon="16.0869533"><ele>8.0</ele><time>2026-05-01T08:14:56.978Z</time></trkpt><trkpt lat="39.0842833" lon="16.0869183"><ele>8.5</ele><time>2026-05-01T08:14:57.978Z</time></trkpt><trkpt lat="39.08439" lon="16.0868867"><ele>9.0</ele><time>2026-05-01T08:14:58.977Z</time></trkpt><trkpt lat="39.0844933" lon="16.0868583"><ele>9.0</ele><time>2026-05-01T08:14:59.977Z</time></trkpt><trkpt lat="39.084595" lon="16.0868317"><ele>9.0</ele><time>2026-05-01T08:15:00.977Z</time></trkpt><trkpt lat="39.0847017" lon="16.0868033"><ele>9.0</ele><time>2026-05-01T08:15:01.978Z</time></trkpt><trkpt lat="39.0848133" lon="16.0867733"><ele>9.0</ele><time>2026-05-01T08:15:02.977Z</time></trkpt><trkpt lat="39.0849283" lon="16.0867483"><ele>9.0</ele><time>2026-05-01T08:15:03.978Z</time></trkpt><trkpt lat="39.0850367" lon="16.0867183"><ele>8.6</ele><time>2026-05-01T08:15:04.978Z</time></trkpt><trkpt lat="39.0851483" lon="16.0866883"><ele>8.2</ele><time>2026-05-01T08:15:05.977Z</time></trkpt><trkpt lat="39.0852567" lon="16.086655"><ele>7.799999999999999</ele><time>2026-05-01T08:15:06.977Z</time></trkpt><trkpt lat="39.0853633" lon="16.0866217"><ele>7.3999999999999995</ele><time>2026-05-01T08:15:07.977Z</time></trkpt><trkpt lat="39.0854633" lon="16.086595"><ele>7.0</ele><time>2026-05-01T08:15:08.978Z</time></trkpt><trkpt lat="39.0855617" lon="16.0865733"><ele>6.3999999999999995</ele><time>2026-05-01T08:15:09.977Z</time></trkpt><trkpt lat="39.0856483" lon="16.0865483"><ele>5.799999999999999</ele><time>2026-05-01T08:15:10.978Z</time></trkpt><trkpt lat="39.0857367" lon="16.086525"><ele>5.2</ele><time>2026-05-01T08:15:11.977Z</time></trkpt><trkpt lat="39.0858317" lon="16.0865033"><ele>4.6</ele><time>2026-05-01T08:15:12.977Z</time></trkpt><trkpt lat="39.0859333" lon="16.08648"><ele>4.0</ele><time>2026-05-01T08:15:13.977Z</time></trkpt><trkpt lat="39.0860383" lon="16.0864517"><ele>4.0</ele><time>2026-05-01T08:15:14.977Z</time></trkpt><trkpt lat="39.0861483" lon="16.0864217"><ele>4.0</ele><time>2026-05-01T08:15:15.978Z</time></trkpt><trkpt lat="39.086265" lon="16.0863917"><ele>4.0</ele><time>2026-05-01T08:15:16.977Z</time></trkpt><trkpt lat="39.0863883" lon="16.0863617"><ele>4.0</ele><time>2026-05-01T08:15:17.977Z</time></trkpt><trkpt lat="39.0865067" lon="16.08632"><ele>5.0</ele><time>2026-05-01T08:15:18.977Z</time></trkpt><trkpt lat="39.0866333" lon="16.08628"><ele>6.0</ele><time>2026-05-01T08:15:19.977Z</time></trkpt><trkpt lat="39.086765" lon="16.0862483"><ele>7.0</ele><time>2026-05-01T08:15:20.978Z</time></trkpt><trkpt lat="39.0869" lon="16.0862117"><ele>8.0</ele><time>2026-05-01T08:15:21.977Z</time></trkpt><trkpt lat="39.08703" lon="16.0861717"><ele>8.0</ele><time>2026-05-01T08:15:22.978Z</time></trkpt><trkpt lat="39.0871517" lon="16.0861283"><ele>8.0</ele><time>2026-05-01T08:15:23.977Z</time></trkpt><trkpt lat="39.0872833" lon="16.0860933"><ele>8.0</ele><time>2026-05-01T08:15:24.977Z</time></trkpt><trkpt lat="39.087415" lon="16.0860583"><ele>8.0</ele><time>2026-05-01T08:15:25.978Z</time></trkpt><trkpt lat="39.0875467" lon="16.086025"><ele>8.0</ele><time>2026-05-01T08:15:26.977Z</time></trkpt><trkpt lat="39.08768" lon="16.0859917"><ele>8.0</ele><time>2026-05-01T08:15:27.977Z</time></trkpt><trkpt lat="39.0878133" lon="16.0859533"><ele>8.0</ele><time>2026-05-01T08:15:28.978Z</time></trkpt><trkpt lat="39.0879433" lon="16.0859167"><ele>8.0</ele><time>2026-05-01T08:15:29.978Z</time></trkpt><trkpt lat="39.088075" lon="16.0858817"><ele>8.0</ele><time>2026-05-01T08:15:30.977Z</time></trkpt><trkpt lat="39.0882017" lon="16.08585"><ele>8.0</ele><time>2026-05-01T08:15:31.977Z</time></trkpt><trkpt lat="39.08833" lon="16.085815"><ele>8.0</ele><time>2026-05-01T08:15:32.978Z</time></trkpt><trkpt lat="39.088455" lon="16.0857783"><ele>8.0</ele><time>2026-05-01T08:15:33.977Z</time></trkpt><trkpt lat="39.08858" lon="16.0857517"><ele>7.0</ele><time>2026-05-01T08:15:34.977Z</time></trkpt><trkpt lat="39.0887" lon="16.0857183"><ele>6.0</ele><time>2026-05-01T08:15:35.977Z</time></trkpt><trkpt lat="39.0888233" lon="16.0856867"><ele>5.0</ele><time>2026-05-01T08:15:36.977Z</time></trkpt><trkpt lat="39.0889517" lon="16.0856567"><ele>4.0</ele><time>2026-05-01T08:15:37.977Z</time></trkpt><trkpt lat="39.0890733" lon="16.0856283"><ele>4.25</ele><time>2026-05-01T08:15:38.977Z</time></trkpt><trkpt lat="39.0892017" lon="16.0855917"><ele>4.5</ele><time>2026-05-01T08:15:39.977Z</time></trkpt><trkpt lat="39.089335" lon="16.085565"><ele>4.75</ele><time>2026-05-01T08:15:40.977Z</time></trkpt><trkpt lat="39.0894667" lon="16.08553"><ele>5.0</ele><time>2026-05-01T08:15:41.978Z</time></trkpt><trkpt lat="39.0895917" lon="16.085495"><ele>5.0</ele><time>2026-05-01T08:15:42.977Z</time></trkpt><trkpt lat="39.0897183" lon="16.0854583"><ele>5.0</ele><time>2026-05-01T08:15:43.977Z</time></trkpt><trkpt lat="39.0898517" lon="16.0854267"><ele>5.0</ele><time>2026-05-01T08:15:44.977Z</time></trkpt><trkpt lat="39.0899933" lon="16.085395"><ele>5.0</ele><time>2026-05-01T08:15:45.978Z</time></trkpt><trkpt lat="39.0901333" lon="16.0853683"><ele>5.25</ele><time>2026-05-01T08:15:46.978Z</time></trkpt><trkpt lat="39.09028" lon="16.0853433"><ele>5.5</ele><time>2026-05-01T08:15:47.977Z</time></trkpt><trkpt lat="39.0904267" lon="16.08534"><ele>5.75</ele><time>2026-05-01T08:15:48.978Z</time></trkpt><trkpt lat="39.0905733" lon="16.085345"><ele>6.0</ele><time>2026-05-01T08:15:49.977Z</time></trkpt><trkpt lat="39.0907283" lon="16.08534"><ele>6.25</ele><time>2026-05-01T08:15:50.977Z</time></trkpt><trkpt lat="39.09088" lon="16.0853433"><ele>6.5</ele><time>2026-05-01T08:15:51.978Z</time></trkpt><trkpt lat="39.0910283" lon="16.0853533"><ele>6.75</ele><time>2026-05-01T08:15:52.977Z</time></trkpt><trkpt lat="39.0911767" lon="16.085365"><ele>7.0</ele><time>2026-05-01T08:15:53.977Z</time></trkpt><trkpt lat="39.0913317" lon="16.0853767"><ele>7.0</ele><time>2026-05-01T08:15:54.977Z</time></trkpt><trkpt lat="39.0914933" lon="16.0853883"><ele>7.0</ele><time>2026-05-01T08:15:55.977Z</time></trkpt><trkpt lat="39.091665" lon="16.0854017"><ele>7.0</ele><time>2026-05-01T08:15:56.978Z</time></trkpt><trkpt lat="39.0918483" lon="16.08541"><ele>7.333333333333334</ele><time>2026-05-01T08:15:57.977Z</time></trkpt><trkpt lat="39.0920133" lon="16.085415"><ele>7.666666666666666</ele><time>2026-05-01T08:15:58.977Z</time></trkpt><trkpt lat="39.0921733" lon="16.08541"><ele>8.0</ele><time>2026-05-01T08:15:59.977Z</time></trkpt><trkpt lat="39.09234" lon="16.0853983"><ele>8.333333333333332</ele><time>2026-05-01T08:16:00.977Z</time></trkpt><trkpt lat="39.092505" lon="16.0853667"><ele>8.666666666666666</ele><time>2026-05-01T08:16:01.977Z</time></trkpt><trkpt lat="39.0926683" lon="16.0853417"><ele>9.0</ele><time>2026-05-01T08:16:02.977Z</time></trkpt><trkpt lat="39.09283" lon="16.0853083"><ele>9.0</ele><time>2026-05-01T08:16:03.977Z</time></trkpt><trkpt lat="39.0930033" lon="16.08528"><ele>9.0</ele><time>2026-05-01T08:16:04.978Z</time></trkpt><trkpt lat="39.09318" lon="16.0852383"><ele>9.0</ele><time>2026-05-01T08:16:05.978Z</time></trkpt><trkpt lat="39.0933433" lon="16.0851933"><ele>10.0</ele><time>2026-05-01T08:16:06.978Z</time></trkpt><trkpt lat="39.0935067" lon="16.0851617"><ele>11.0</ele><time>2026-05-01T08:16:07.978Z</time></trkpt><trkpt lat="39.0936683" lon="16.0851167"><ele>12.0</ele><time>2026-05-01T08:16:08.977Z</time></trkpt><trkpt lat="39.0938183" lon="16.0850817"><ele>12.0</ele><time>2026-05-01T08:16:09.977Z</time></trkpt><trkpt lat="39.09396" lon="16.0850433"><ele>12.0</ele><time>2026-05-01T08:16:10.977Z</time></trkpt><trkpt lat="39.0941017" lon="16.0850133"><ele>12.0</ele><time>2026-05-01T08:16:11.978Z</time></trkpt><trkpt lat="39.0942433" lon="16.0849883"><ele>12.0</ele><time>2026-05-01T08:16:12.977Z</time></trkpt><trkpt lat="39.0943833" lon="16.08496"><ele>11.75</ele><time>2026-05-01T08:16:13.977Z</time></trkpt><trkpt lat="39.0945133" lon="16.0849283"><ele>11.5</ele><time>2026-05-01T08:16:14.978Z</time></trkpt><trkpt lat="39.0946333" lon="16.0848983"><ele>11.25</ele><time>2026-05-01T08:16:15.977Z</time></trkpt><trkpt lat="39.094755" lon="16.084875"><ele>11.0</ele><time>2026-05-01T08:16:16.977Z</time></trkpt><trkpt lat="39.0948667" lon="16.0848383"><ele>12.25</ele><time>2026-05-01T08:16:17.977Z</time></trkpt><trkpt lat="39.0949683" lon="16.0848117"><ele>13.5</ele><time>2026-05-01T08:16:18.977Z</time></trkpt><trkpt lat="39.0950783" lon="16.084785"><ele>14.75</ele><time>2026-05-01T08:16:19.977Z</time></trkpt><trkpt lat="39.0951983" lon="16.0847583"><ele>16.0</ele><time>2026-05-01T08:16:20.978Z</time></trkpt><trkpt lat="39.09532" lon="16.084735"><ele>16.0</ele><time>2026-05-01T08:16:21.977Z</time></trkpt><trkpt lat="39.095445" lon="16.08471"><ele>16.0</ele><time>2026-05-01T08:16:22.978Z</time></trkpt><trkpt lat="39.0955683" lon="16.0846833"><ele>16.0</ele><time>2026-05-01T08:16:23.978Z</time></trkpt><trkpt lat="39.1037783" lon="16.0808083"><ele>14.5</ele><time>2026-05-01T08:17:30.98Z</time></trkpt><trkpt lat="39.1039183" lon="16.0807517"><ele>13.0</ele><time>2026-05-01T08:17:31.981Z</time></trkpt><trkpt lat="39.104055" lon="16.0806883"><ele>11.5</ele><time>2026-05-01T08:17:32.98Z</time></trkpt><trkpt lat="39.1041833" lon="16.08063"><ele>10.0</ele><time>2026-05-01T08:17:33.981Z</time></trkpt><trkpt lat="39.10432" lon="16.0805517"><ele>10.0</ele><time>2026-05-01T08:17:34.981Z</time></trkpt><trkpt lat="39.1044633" lon="16.0805"><ele>10.0</ele><time>2026-05-01T08:17:35.98Z</time></trkpt><trkpt lat="39.1045867" lon="16.080435"><ele>10.0</ele><time>2026-05-01T08:17:36.98Z</time></trkpt><trkpt lat="39.1047133" lon="16.0803767"><ele>10.0</ele><time>2026-05-01T08:17:37.981Z</time></trkpt><trkpt lat="39.1048367" lon="16.08032"><ele>10.0</ele><time>2026-05-01T08:17:38.981Z</time></trkpt><trkpt lat="39.1049517" lon="16.08027"><ele>10.0</ele><time>2026-05-01T08:17:39.98Z</time></trkpt><trkpt lat="39.1050583" lon="16.08022"><ele>10.0</ele><time>2026-05-01T08:17:40.98Z</time></trkpt><trkpt lat="39.10517" lon="16.080165"><ele>10.0</ele><time>2026-05-01T08:17:41.98Z</time></trkpt><trkpt lat="39.1052817" lon="16.0801033"><ele>10.0</ele><time>2026-05-01T08:17:42.981Z</time></trkpt><trkpt lat="39.105405" lon="16.0800517"><ele>10.0</ele><time>2026-05-01T08:17:43.98Z</time></trkpt><trkpt lat="39.1055267" lon="16.0799967"><ele>10.0</ele><time>2026-05-01T08:17:44.98Z</time></trkpt><trkpt lat="39.1056467" lon="16.07993"><ele>10.0</ele><time>2026-05-01T08:17:45.98Z</time></trkpt><trkpt lat="39.105775" lon="16.0798717"><ele>9.25</ele><time>2026-05-01T08:17:46.98Z</time></trkpt><trkpt lat="39.1059083" lon="16.07981"><ele>8.5</ele><time>2026-05-01T08:17:47.981Z</time></trkpt><trkpt lat="39.1060433" lon="16.0797533"><ele>7.75</ele><time>2026-05-01T08:17:48.98Z</time></trkpt><trkpt lat="39.1061817" lon="16.0796933"><ele>7.0</ele><time>2026-05-01T08:17:49.98Z</time></trkpt><trkpt lat="39.1063167" lon="16.079635"><ele>7.0</ele><time>2026-05-01T08:17:50.98Z</time></trkpt><trkpt lat="39.1064567" lon="16.0795683"><ele>7.0</ele><time>2026-05-01T08:17:51.981Z</time></trkpt><trkpt lat="39.1066" lon="16.0795033"><ele>7.0</ele><time>2026-05-01T08:17:52.98Z</time></trkpt><trkpt lat="39.1067467" lon="16.07943"><ele>7.333333333333334</ele><time>2026-05-01T08:17:53.98Z</time></trkpt><trkpt lat="39.1068967" lon="16.07936"><ele>7.666666666666666</ele><time>2026-05-01T08:17:54.98Z</time></trkpt><trkpt lat="39.1070417" lon="16.0792983"><ele>8.0</ele><time>2026-05-01T08:17:55.98Z</time></trkpt><trkpt lat="39.1071883" lon="16.0792317"><ele>8.0</ele><time>2026-05-01T08:17:56.981Z</time></trkpt><trkpt lat="39.1073383" lon="16.079175"><ele>8.0</ele><time>2026-05-01T08:17:57.98Z</time></trkpt><trkpt lat="39.107485" lon="16.07912"><ele>8.0</ele><time>2026-05-01T08:17:58.981Z</time></trkpt><trkpt lat="39.107635" lon="16.079075"><ele>7.666666666666666</ele><time>2026-05-01T08:17:59.98Z</time></trkpt><trkpt lat="39.107785" lon="16.0790283"><ele>7.333333333333334</ele><time>2026-05-01T08:18:00.98Z</time></trkpt><trkpt lat="39.1079433" lon="16.0789933"><ele>7.0</ele><time>2026-05-01T08:18:01.98Z</time></trkpt><trkpt lat="39.108105" lon="16.0789567"><ele>7.333333333333334</ele><time>2026-05-01T08:18:02.979Z</time></trkpt><trkpt lat="39.108275" lon="16.0789233"><ele>7.666666666666666</ele><time>2026-05-01T08:18:03.98Z</time></trkpt><trkpt lat="39.108445" lon="16.0788967"><ele>8.0</ele><time>2026-05-01T08:18:04.979Z</time></trkpt><trkpt lat="39.108615" lon="16.0788717"><ele>8.0</ele><time>2026-05-01T08:18:05.979Z</time></trkpt><trkpt lat="39.1087883" lon="16.0788417"><ele>8.0</ele><time>2026-05-01T08:18:06.979Z</time></trkpt><trkpt lat="39.10896" lon="16.07881"><ele>8.0</ele><time>2026-05-01T08:18:07.979Z</time></trkpt><trkpt lat="39.1091317" lon="16.0787833"><ele>8.0</ele><time>2026-05-01T08:18:08.979Z</time></trkpt><trkpt lat="39.10931" lon="16.0787533"><ele>8.0</ele><time>2026-05-01T08:18:09.979Z</time></trkpt><trkpt lat="39.109485" lon="16.0787267"><ele>8.0</ele><time>2026-05-01T08:18:10.98Z</time></trkpt><trkpt lat="39.109645" lon="16.0787033"><ele>8.0</ele><time>2026-05-01T08:18:11.979Z</time></trkpt><trkpt lat="39.10981" lon="16.07867"><ele>8.0</ele><time>2026-05-01T08:18:12.979Z</time></trkpt><trkpt lat="39.10998" lon="16.0786417"><ele>8.0</ele><time>2026-05-01T08:18:13.98Z</time></trkpt><trkpt lat="39.110155" lon="16.0786133"><ele>7.666666666666666</ele><time>2026-05-01T08:18:14.979Z</time></trkpt><trkpt lat="39.1103283" lon="16.0785883"><ele>7.333333333333334</ele><time>2026-05-01T08:18:15.979Z</time></trkpt><trkpt lat="39.1105033" lon="16.0785583"><ele>7.0</ele><time>2026-05-01T08:18:16.979Z</time></trkpt><trkpt lat="39.11068" lon="16.0785283"><ele>6.333333333333334</ele><time>2026-05-01T08:18:17.98Z</time></trkpt><trkpt lat="39.110865" lon="16.0784967"><ele>5.666666666666667</ele><time>2026-05-01T08:18:18.979Z</time></trkpt><trkpt lat="39.1110467" lon="16.07847"><ele>5.0</ele><time>2026-05-01T08:18:19.979Z</time></trkpt><trkpt lat="39.1112267" lon="16.0784333"><ele>5.0</ele><time>2026-05-01T08:18:20.98Z</time></trkpt><trkpt lat="39.1114067" lon="16.078405"><ele>5.0</ele><time>2026-05-01T08:18:21.979Z</time></trkpt><trkpt lat="39.111585" lon="16.0783717"><ele>5.0</ele><time>2026-05-01T08:18:22.98Z</time></trkpt><trkpt lat="39.111755" lon="16.0783367"><ele>5.0</ele><time>2026-05-01T08:18:23.98Z</time></trkpt><trkpt lat="39.11193" lon="16.0782883"><ele>5.0</ele><time>2026-05-01T08:18:24.979Z</time></trkpt><trkpt lat="39.1120883" lon="16.0782383"><ele>5.0</ele><time>2026-05-01T08:18:25.979Z</time></trkpt><trkpt lat="39.1122483" lon="16.0781833"><ele>5.0</ele><time>2026-05-01T08:18:26.979Z</time></trkpt><trkpt lat="39.112405" lon="16.0781233"><ele>5.0</ele><time>2026-05-01T08:18:27.979Z</time></trkpt><trkpt lat="39.1125633" lon="16.0780583"><ele>5.0</ele><time>2026-05-01T08:18:28.979Z</time></trkpt><trkpt lat="39.1127167" lon="16.0779883"><ele>5.25</ele><time>2026-05-01T08:18:29.98Z</time></trkpt><trkpt lat="39.1128633" lon="16.0779117"><ele>5.5</ele><time>2026-05-01T08:18:30.979Z</time></trkpt><trkpt lat="39.1130017" lon="16.0778483"><ele>5.75</ele><time>2026-05-01T08:18:31.98Z</time></trkpt><trkpt lat="39.1131317" lon="16.0777867"><ele>6.0</ele><time>2026-05-01T08:18:32.979Z</time></trkpt><trkpt lat="39.113255" lon="16.077725"><ele>6.0</ele><time>2026-05-01T08:18:33.98Z</time></trkpt><trkpt lat="39.11337" lon="16.0776733"><ele>6.0</ele><time>2026-05-01T08:18:34.979Z</time></trkpt><trkpt lat="39.113485" lon="16.077635"><ele>6.0</ele><time>2026-05-01T08:18:35.979Z</time></trkpt><trkpt lat="39.113595" lon="16.077605"><ele>6.0</ele><time>2026-05-01T08:18:36.979Z</time></trkpt><trkpt lat="39.113705" lon="16.0775833"><ele>6.0</ele><time>2026-05-01T08:18:37.979Z</time></trkpt><trkpt lat="39.113805" lon="16.077555"><ele>6.0</ele><time>2026-05-01T08:18:38.979Z</time></trkpt><trkpt lat="39.1138933" lon="16.0775183"><ele>6.0</ele><time>2026-05-01T08:18:39.979Z</time></trkpt><trkpt lat="39.1139767" lon="16.0774667"><ele>6.0</ele><time>2026-05-01T08:18:40.979Z</time></trkpt><trkpt lat="39.1140617" lon="16.0773983"><ele>6.0</ele><time>2026-05-01T08:18:41.98Z</time></trkpt><trkpt lat="39.1141567" lon="16.0773217"><ele>5.5</ele><time>2026-05-01T08:18:42.98Z</time></trkpt><trkpt lat="39.1142583" lon="16.077255"><ele>5.0</ele><time>2026-05-01T08:18:43.979Z</time></trkpt><trkpt lat="39.1143633" lon="16.0771967"><ele>4.5</ele><time>2026-05-01T08:18:44.979Z</time></trkpt><trkpt lat="39.1144833" lon="16.0771417"><ele>4.0</ele><time>2026-05-01T08:18:45.98Z</time></trkpt><trkpt lat="39.1146083" lon="16.0770833"><ele>4.0</ele><time>2026-05-01T08:18:46.98Z</time></trkpt><trkpt lat="39.1147483" lon="16.0770283"><ele>4.0</ele><time>2026-05-01T08:18:47.98Z</time></trkpt><trkpt lat="39.1148983" lon="16.0769633"><ele>4.0</ele><time>2026-05-01T08:18:48.979Z</time></trkpt><trkpt lat="39.1150483" lon="16.0768967"><ele>5.333333333333333</ele><time>2026-05-01T08:18:49.979Z</time></trkpt><trkpt lat="39.1151983" lon="16.0768217"><ele>6.666666666666666</ele><time>2026-05-01T08:18:50.979Z</time></trkpt><trkpt lat="39.115355" lon="16.0767467"><ele>8.0</ele><time>2026-05-01T08:18:51.979Z</time></trkpt><trkpt lat="39.1155067" lon="16.07667"><ele>7.333333333333333</ele><time>2026-05-01T08:18:52.98Z</time></trkpt><trkpt lat="39.1156567" lon="16.0766017"><ele>6.666666666666666</ele><time>2026-05-01T08:18:53.979Z</time></trkpt><trkpt lat="39.1158033" lon="16.0765333"><ele>6.0</ele><time>2026-05-01T08:18:54.979Z</time></trkpt><trkpt lat="39.1159517" lon="16.0764533"><ele>6.0</ele><time>2026-05-01T08:18:55.98Z</time></trkpt><trkpt lat="39.1160983" lon="16.076385"><ele>6.0</ele><time>2026-05-01T08:18:56.98Z</time></trkpt><trkpt lat="39.1162383" lon="16.0763133"><ele>6.0</ele><time>2026-05-01T08:18:57.979Z</time></trkpt><trkpt lat="39.11637" lon="16.0762467"><ele>6.0</ele><time>2026-05-01T08:18:58.979Z</time></trkpt><trkpt lat="39.1165" lon="16.0761883"><ele>6.25</ele><time>2026-05-01T08:18:59.979Z</time></trkpt><trkpt lat="39.1166267" lon="16.0761267"><ele>6.5</ele><time>2026-05-01T08:19:00.979Z</time></trkpt><trkpt lat="39.1167483" lon="16.07607"><ele>6.75</ele><time>2026-05-01T08:19:01.979Z</time></trkpt><trkpt lat="39.1168617" lon="16.0760167"><ele>7.0</ele><time>2026-05-01T08:19:02.979Z</time></trkpt><trkpt lat="39.1169783" lon="16.0759633"><ele>7.0</ele><time>2026-05-01T08:19:03.98Z</time></trkpt><trkpt lat="39.1170967" lon="16.0759133"><ele>7.0</ele><time>2026-05-01T08:19:04.979Z</time></trkpt><trkpt lat="39.1172117" lon="16.075855"><ele>7.0</ele><time>2026-05-01T08:19:05.979Z</time></trkpt><trkpt lat="39.1173283" lon="16.0758033"><ele>7.0</ele><time>2026-05-01T08:19:06.98Z</time></trkpt><trkpt lat="39.1174517" lon="16.0757517"><ele>7.5</ele><time>2026-05-01T08:19:07.98Z</time></trkpt><trkpt lat="39.117575" lon="16.0756917"><ele>8.0</ele><time>2026-05-01T08:19:08.979Z</time></trkpt><trkpt lat="39.1177017" lon="16.07563"><ele>8.5</ele><time>2026-05-01T08:19:09.98Z</time></trkpt><trkpt lat="39.1178233" lon="16.0755667"><ele>9.0</ele><time>2026-05-01T08:19:10.98Z</time></trkpt><trkpt lat="39.11794" lon="16.0755117"><ele>9.0</ele><time>2026-05-01T08:19:11.979Z</time></trkpt><trkpt lat="39.1180583" lon="16.0754567"><ele>9.0</ele><time>2026-05-01T08:19:12.98Z</time></trkpt><trkpt lat="39.11818" lon="16.0753983"><ele>9.0</ele><time>2026-05-01T08:19:13.979Z</time></trkpt><trkpt lat="39.1183" lon="16.07534"><ele>9.0</ele><time>2026-05-01T08:19:14.979Z</time></trkpt><trkpt lat="39.1184233" lon="16.075285"><ele>9.0</ele><time>2026-05-01T08:19:15.98Z</time></trkpt><trkpt lat="39.1185567" lon="16.0752167"><ele>9.0</ele><time>2026-05-01T08:19:16.979Z</time></trkpt><trkpt lat="39.1186833" lon="16.07516"><ele>9.0</ele><time>2026-05-01T08:19:17.979Z</time></trkpt><trkpt lat="39.1188183" lon="16.0751"><ele>9.0</ele><time>2026-05-01T08:19:18.979Z</time></trkpt><trkpt lat="39.11895" lon="16.07504"><ele>9.0</ele><time>2026-05-01T08:19:19.979Z</time></trkpt><trkpt lat="39.11909" lon="16.0749733"><ele>9.0</ele><time>2026-05-01T08:19:20.98Z</time></trkpt><trkpt lat="39.1192333" lon="16.0749033"><ele>9.0</ele><time>2026-05-01T08:19:21.98Z</time></trkpt><trkpt lat="39.1193767" lon="16.0748433"><ele>8.666666666666666</ele><time>2026-05-01T08:19:22.979Z</time></trkpt><trkpt lat="39.119515" lon="16.07478"><ele>8.333333333333332</ele><time>2026-05-01T08:19:23.98Z</time></trkpt><trkpt lat="39.1196567" lon="16.0747083"><ele>8.0</ele><time>2026-05-01T08:19:24.98Z</time></trkpt><trkpt lat="39.1198" lon="16.0746367"><ele>7.666666666666666</ele><time>2026-05-01T08:19:25.979Z</time></trkpt><trkpt lat="39.119945" lon="16.074575"><ele>7.333333333333334</ele><time>2026-05-01T08:19:26.979Z</time></trkpt><trkpt lat="39.1200917" lon="16.0745033"><ele>7.0</ele><time>2026-05-01T08:19:27.979Z</time></trkpt><trkpt lat="39.1202517" lon="16.074435"><ele>7.0</ele><time>2026-05-01T08:19:28.979Z</time></trkpt><trkpt lat="39.1204083" lon="16.0743567"><ele>7.0</ele><time>2026-05-01T08:19:29.979Z</time></trkpt><trkpt lat="39.1205583" lon="16.0742833"><ele>7.0</ele><time>2026-05-01T08:19:30.98Z</time></trkpt><trkpt lat="39.1207117" lon="16.0742117"><ele>7.0</ele><time>2026-05-01T08:19:31.979Z</time></trkpt><trkpt lat="39.1208617" lon="16.0741367"><ele>7.0</ele><time>2026-05-01T08:19:32.979Z</time></trkpt><trkpt lat="39.1210133" lon="16.074065"><ele>7.0</ele><time>2026-05-01T08:19:33.98Z</time></trkpt><trkpt lat="39.1211667" lon="16.0739983"><ele>6.333333333333334</ele><time>2026-05-01T08:19:34.979Z</time></trkpt><trkpt lat="39.1213217" lon="16.073925"><ele>5.666666666666667</ele><time>2026-05-01T08:19:35.98Z</time></trkpt><trkpt lat="39.121475" lon="16.073855"><ele>5.0</ele><time>2026-05-01T08:19:36.979Z</time></trkpt><trkpt lat="39.121625" lon="16.0737883"><ele>5.0</ele><time>2026-05-01T08:19:37.979Z</time></trkpt><trkpt lat="39.1217617" lon="16.0737233"><ele>5.0</ele><time>2026-05-01T08:19:38.979Z</time></trkpt><trkpt lat="39.1219017" lon="16.07366"><ele>5.0</ele><time>2026-05-01T08:19:39.979Z</time></trkpt><trkpt lat="39.12204" lon="16.073595"><ele>5.0</ele><time>2026-05-01T08:19:40.979Z</time></trkpt><trkpt lat="39.1221717" lon="16.0735367"><ele>5.0</ele><time>2026-05-01T08:19:41.979Z</time></trkpt><trkpt lat="39.122305" lon="16.0734717"><ele>5.0</ele><time>2026-05-01T08:19:42.979Z</time></trkpt><trkpt lat="39.122435" lon="16.073415"><ele>5.0</ele><time>2026-05-01T08:19:43.98Z</time></trkpt><trkpt lat="39.12257" lon="16.07336"><ele>5.0</ele><time>2026-05-01T08:19:44.979Z</time></trkpt><trkpt lat="39.1227017" lon="16.0733017"><ele>4.0</ele><time>2026-05-01T08:19:45.979Z</time></trkpt><trkpt lat="39.1228267" lon="16.073255"><ele>3.0</ele><time>2026-05-01T08:19:46.979Z</time></trkpt><trkpt lat="39.12295" lon="16.0732083"><ele>2.0</ele><time>2026-05-01T08:19:47.98Z</time></trkpt><trkpt lat="39.12307" lon="16.0731633"><ele>1.0</ele><time>2026-05-01T08:19:48.979Z</time></trkpt><trkpt lat="39.1231883" lon="16.0731217"><ele>1.5</ele><time>2026-05-01T08:19:49.98Z</time></trkpt><trkpt lat="39.1233017" lon="16.0730867"><ele>2.0</ele><time>2026-05-01T08:19:50.98Z</time></trkpt><trkpt lat="39.1234167" lon="16.073045"><ele>2.5</ele><time>2026-05-01T08:19:51.98Z</time></trkpt><trkpt lat="39.1235383" lon="16.0730033"><ele>3.0</ele><time>2026-05-01T08:19:52.979Z</time></trkpt><trkpt lat="39.12366" lon="16.0729567"><ele>3.0</ele><time>2026-05-01T08:19:53.98Z</time></trkpt><trkpt lat="39.1237867" lon="16.0729083"><ele>3.0</ele><time>2026-05-01T08:19:54.98Z</time></trkpt><trkpt lat="39.1239167" lon="16.0728583"><ele>3.0</ele><time>2026-05-01T08:19:55.979Z</time></trkpt><trkpt lat="39.12405" lon="16.07281"><ele>3.0</ele><time>2026-05-01T08:19:56.979Z</time></trkpt><trkpt lat="39.1241833" lon="16.07276"><ele>3.5</ele><time>2026-05-01T08:19:57.98Z</time></trkpt><trkpt lat="39.1243267" lon="16.0727"><ele>4.0</ele><time>2026-05-01T08:19:58.979Z</time></trkpt><trkpt lat="39.1244633" lon="16.072645"><ele>4.5</ele><time>2026-05-01T08:19:59.979Z</time></trkpt><trkpt lat="39.1246" lon="16.0725983"><ele>5.0</ele><time>2026-05-01T08:20:00.979Z</time></trkpt><trkpt lat="39.1247333" lon="16.0725517"><ele>5.0</ele><time>2026-05-01T08:20:01.979Z</time></trkpt><trkpt lat="39.1248583" lon="16.0725033"><ele>5.0</ele><time>2026-05-01T08:20:02.979Z</time></trkpt><trkpt lat="39.1249767" lon="16.0724633"><ele>5.0</ele><time>2026-05-01T08:20:03.98Z</time></trkpt><trkpt lat="39.1250867" lon="16.0724317"><ele>5.0</ele><time>2026-05-01T08:20:04.98Z</time></trkpt><trkpt lat="39.1252017" lon="16.0723883"><ele>4.8</ele><time>2026-05-01T08:20:05.98Z</time></trkpt><trkpt lat="39.1253167" lon="16.0723433"><ele>4.6</ele><time>2026-05-01T08:20:06.979Z</time></trkpt><trkpt lat="39.1254233" lon="16.0723"><ele>4.4</ele><time>2026-05-01T08:20:07.98Z</time></trkpt><trkpt lat="39.1255233" lon="16.0722567"><ele>4.2</ele><time>2026-05-01T08:20:08.979Z</time></trkpt><trkpt lat="39.1256217" lon="16.0722133"><ele>4.0</ele><time>2026-05-01T08:20:09.979Z</time></trkpt><trkpt lat="39.1257067" lon="16.072185"><ele>4.833333333333333</ele><time>2026-05-01T08:20:10.979Z</time></trkpt><trkpt lat="39.1257867" lon="16.0721583"><ele>5.666666666666666</ele><time>2026-05-01T08:20:11.979Z</time></trkpt><trkpt lat="39.125865" lon="16.0721317"><ele>6.5</ele><time>2026-05-01T08:20:12.979Z</time></trkpt><trkpt lat="39.1259383" lon="16.0721067"><ele>7.333333333333333</ele><time>2026-05-01T08:20:13.979Z</time></trkpt><trkpt lat="39.1260083" lon="16.07208"><ele>8.166666666666666</ele><time>2026-05-01T08:20:14.98Z</time></trkpt><trkpt lat="39.1260783" lon="16.07205"><ele>9.0</ele><time>2026-05-01T08:20:15.979Z</time></trkpt><trkpt lat="39.1261467" lon="16.07203"><ele>9.000000000000002</ele><time>2026-05-01T08:20:16.979Z</time></trkpt><trkpt lat="39.1262267" lon="16.0720117"><ele>9.0</ele><time>2026-05-01T08:20:17.979Z</time></trkpt><trkpt lat="39.126295" lon="16.0719883"><ele>9.0</ele><time>2026-05-01T08:20:18.98Z</time></trkpt><trkpt lat="39.12636" lon="16.0719583"><ele>9.0</ele><time>2026-05-01T08:20:19.98Z</time></trkpt><trkpt lat="39.1264283" lon="16.0719333"><ele>9.0</ele><time>2026-05-01T08:20:20.979Z</time></trkpt><trkpt lat="39.1265033" lon="16.0719067"><ele>9.000000000000002</ele><time>2026-05-01T08:20:21.979Z</time></trkpt><trkpt lat="39.1265733" lon="16.0718867"><ele>9.0</ele><time>2026-05-01T08:20:22.979Z</time></trkpt><trkpt lat="39.1266383" lon="16.0718667"><ele>8.666666666666666</ele><time>2026-05-01T08:20:23.979Z</time></trkpt><trkpt lat="39.1267333" lon="16.0718317"><ele>8.333333333333334</ele><time>2026-05-01T08:20:25.98Z</time></trkpt><trkpt lat="39.1268033" lon="16.0717983"><ele>8.0</ele><time>2026-05-01T08:20:27.979Z</time></trkpt><trkpt lat="39.1268783" lon="16.0717683"><ele>7.666666666666667</ele><time>2026-05-01T08:20:29.979Z</time></trkpt><trkpt lat="39.1269467" lon="16.071745"><ele>7.333333333333334</ele><time>2026-05-01T08:20:31.98Z</time></trkpt><trkpt lat="39.1270283" lon="16.0717067"><ele>7.0</ele><time>2026-05-01T08:20:34.979Z</time></trkpt><trkpt lat="39.1271117" lon="16.0716767"><ele>7.000000000000001</ele><time>2026-05-01T08:20:37.98Z</time></trkpt><trkpt lat="39.1271933" lon="16.0716533"><ele>7.0</ele><time>2026-05-01T08:20:41.979Z</time></trkpt><trkpt lat="39.1272667" lon="16.0716267"><ele>7.0</ele><time>2026-05-01T08:20:44.979Z</time></trkpt><trkpt lat="39.127345" lon="16.0715883"><ele>7.0</ele><time>2026-05-01T08:20:47.979Z</time></trkpt><trkpt lat="39.12742" lon="16.0715533"><ele>7.000000000000001</ele><time>2026-05-01T08:20:50.979Z</time></trkpt><trkpt lat="39.1274933" lon="16.0715267"><ele>7.0</ele><time>2026-05-01T08:20:53.98Z</time></trkpt><trkpt lat="39.12757" lon="16.0715017"><ele>6.500000000000001</ele><time>2026-05-01T08:20:56.979Z</time></trkpt><trkpt lat="39.12764" lon="16.07148"><ele>6.0</ele><time>2026-05-01T08:20:58.98Z</time></trkpt><trkpt lat="39.1277083" lon="16.0714517"><ele>5.5</ele><time>2026-05-01T08:21:00.979Z</time></trkpt><trkpt lat="39.127785" lon="16.0714167"><ele>5.0</ele><time>2026-05-01T08:21:02.979Z</time></trkpt><trkpt lat="39.12786" lon="16.0713983"><ele>4.5</ele><time>2026-05-01T08:21:04.979Z</time></trkpt><trkpt lat="39.1279317" lon="16.0713833"><ele>4.0</ele><time>2026-05-01T08:21:07.979Z</time></trkpt><trkpt lat="39.1280017" lon="16.0713433"><ele>4.0</ele><time>2026-05-01T08:21:11.98Z</time></trkpt><trkpt lat="39.1281117" lon="16.0712983"><ele>4.0</ele><time>2026-05-01T08:21:30.979Z</time></trkpt><trkpt lat="39.1282383" lon="16.07126"><ele>4.0</ele><time>2026-05-01T08:21:32.979Z</time></trkpt><trkpt lat="39.1283083" lon="16.0712317"><ele>4.0</ele><time>2026-05-01T08:21:33.979Z</time></trkpt><trkpt lat="39.1283767" lon="16.0712067"><ele>4.0</ele><time>2026-05-01T08:21:34.98Z</time></trkpt><trkpt lat="39.12845" lon="16.0711667"><ele>4.333333333333333</ele><time>2026-05-01T08:21:35.98Z</time></trkpt><trkpt lat="39.1285283" lon="16.0711417"><ele>4.666666666666666</ele><time>2026-05-01T08:21:36.979Z</time></trkpt><trkpt lat="39.12861" lon="16.0711067"><ele>5.0</ele><time>2026-05-01T08:21:37.98Z</time></trkpt><trkpt lat="39.1286883" lon="16.0710733"><ele>5.333333333333333</ele><time>2026-05-01T08:21:38.979Z</time></trkpt><trkpt lat="39.1287617" lon="16.0710383"><ele>5.666666666666667</ele><time>2026-05-01T08:21:39.979Z</time></trkpt><trkpt lat="39.1288283" lon="16.0710233"><ele>6.0</ele><time>2026-05-01T08:21:40.98Z</time></trkpt><trkpt lat="39.1288967" lon="16.0710133"><ele>6.0</ele><time>2026-05-01T08:21:41.98Z</time></trkpt><trkpt lat="39.1289633" lon="16.0710017"><ele>6.0</ele><time>2026-05-01T08:21:42.98Z</time></trkpt><trkpt lat="39.129095" lon="16.070975"><ele>6.0</ele><time>2026-05-01T08:21:44.979Z</time></trkpt><trkpt lat="39.1292017" lon="16.0709567"><ele>6.0</ele><time>2026-05-01T08:21:46.979Z</time></trkpt><trkpt lat="39.1292933" lon="16.0709383"><ele>6.0</ele><time>2026-05-01T08:21:48.979Z</time></trkpt><trkpt lat="39.1293767" lon="16.0709317"><ele>5.999999999999999</ele><time>2026-05-01T08:21:50.979Z</time></trkpt><trkpt lat="39.129455" lon="16.0709283"><ele>6.0</ele><time>2026-05-01T08:21:52.98Z</time></trkpt><trkpt lat="39.12953" lon="16.0709283"><ele>6.0</ele><time>2026-05-01T08:21:54.979Z</time></trkpt><trkpt lat="39.1296033" lon="16.0709333"><ele>6.0</ele><time>2026-05-01T08:21:56.979Z</time></trkpt><trkpt lat="39.12967" lon="16.0709317"><ele>6.0</ele><time>2026-05-01T08:21:58.979Z</time></trkpt><trkpt lat="39.1297583" lon="16.0709367"><ele>5.999999999999999</ele><time>2026-05-01T08:22:01.979Z</time></trkpt><trkpt lat="39.1298217" lon="16.0709167"><ele>6.0</ele><time>2026-05-01T08:22:04.979Z</time></trkpt><trkpt lat="39.12989" lon="16.0708867"><ele>6.166666666666667</ele><time>2026-05-01T08:22:28.98Z</time></trkpt><trkpt lat="39.1299583" lon="16.0708933"><ele>6.333333333333334</ele><time>2026-05-01T08:22:47.979Z</time></trkpt><trkpt lat="39.1300733" lon="16.0709"><ele>6.5</ele><time>2026-05-01T08:22:49.979Z</time></trkpt><trkpt lat="39.13014" lon="16.0709117"><ele>6.666666666666667</ele><time>2026-05-01T08:22:50.98Z</time></trkpt><trkpt lat="39.1302217" lon="16.0709333"><ele>6.833333333333334</ele><time>2026-05-01T08:22:51.979Z</time></trkpt><trkpt lat="39.1303217" lon="16.0709583"><ele>7.0</ele><time>2026-05-01T08:22:52.979Z</time></trkpt><trkpt lat="39.1304117" lon="16.0709783"><ele>7.0</ele><time>2026-05-01T08:22:53.979Z</time></trkpt><trkpt lat="39.130495" lon="16.070995"><ele>6.999999999999999</ele><time>2026-05-01T08:22:54.979Z</time></trkpt><trkpt lat="39.1305683" lon="16.071005"><ele>6.999999999999999</ele><time>2026-05-01T08:22:55.98Z</time></trkpt><trkpt lat="39.1306767" lon="16.0710283"><ele>7.0</ele><time>2026-05-01T08:22:57.979Z</time></trkpt><trkpt lat="39.1307667" lon="16.0710317"><ele>7.0</ele><time>2026-05-01T08:22:59.979Z</time></trkpt><trkpt lat="39.1308633" lon="16.0710467"><ele>7.166666666666667</ele><time>2026-05-01T08:23:01.98Z</time></trkpt><trkpt lat="39.1309533" lon="16.0710567"><ele>7.333333333333334</ele><time>2026-05-01T08:23:03.979Z</time></trkpt><trkpt lat="39.131025" lon="16.07108"><ele>7.5</ele><time>2026-05-01T08:23:05.98Z</time></trkpt><trkpt lat="39.1310933" lon="16.0711083"><ele>7.666666666666666</ele><time>2026-05-01T08:23:07.98Z</time></trkpt><trkpt lat="39.1311717" lon="16.0711283"><ele>7.833333333333333</ele><time>2026-05-01T08:23:09.979Z</time></trkpt><trkpt lat="39.1312683" lon="16.071165"><ele>8.0</ele><time>2026-05-01T08:23:11.979Z</time></trkpt><trkpt lat="39.1313333" lon="16.0711767"><ele>8.0</ele><time>2026-05-01T08:23:13.979Z</time></trkpt><trkpt lat="39.1314067" lon="16.07121"><ele>8.0</ele><time>2026-05-01T08:23:16.979Z</time></trkpt><trkpt lat="39.1314883" lon="16.07122"><ele>8.0</ele><time>2026-05-01T08:23:19.979Z</time></trkpt><trkpt lat="39.13156" lon="16.071215"><ele>8.0</ele><time>2026-05-01T08:23:22.979Z</time></trkpt><trkpt lat="39.1316833" lon="16.0711867"><ele>8.0</ele><time>2026-05-01T08:23:48.979Z</time></trkpt><trkpt lat="39.131785" lon="16.0712283"><ele>7.857142857142857</ele><time>2026-05-01T08:23:50.979Z</time></trkpt><trkpt lat="39.131855" lon="16.0712417"><ele>7.7142857142857135</ele><time>2026-05-01T08:23:51.979Z</time></trkpt><trkpt lat="39.1319317" lon="16.07125"><ele>7.571428571428571</ele><time>2026-05-01T08:23:52.979Z</time></trkpt><trkpt lat="39.1320033" lon="16.071255"><ele>7.428571428571429</ele><time>2026-05-01T08:23:53.98Z</time></trkpt><trkpt lat="39.1320717" lon="16.0712667"><ele>7.285714285714286</ele><time>2026-05-01T08:23:54.979Z</time></trkpt><trkpt lat="39.1321417" lon="16.07128"><ele>7.142857142857142</ele><time>2026-05-01T08:23:55.979Z</time></trkpt><trkpt lat="39.1322083" lon="16.0712883"><ele>7.0</ele><time>2026-05-01T08:23:56.98Z</time></trkpt><trkpt lat="39.1322833" lon="16.0712967"><ele>7.000000000000001</ele><time>2026-05-01T08:23:57.979Z</time></trkpt><trkpt lat="39.1323533" lon="16.0713133"><ele>7.0</ele><time>2026-05-01T08:23:58.979Z</time></trkpt><trkpt lat="39.132425" lon="16.0713117"><ele>7.0</ele><time>2026-05-01T08:23:59.98Z</time></trkpt><trkpt lat="39.1325183" lon="16.071325"><ele>7.0</ele><time>2026-05-01T08:24:00.98Z</time></trkpt><trkpt lat="39.132605" lon="16.0713417"><ele>7.000000000000001</ele><time>2026-05-01T08:24:01.98Z</time></trkpt><trkpt lat="39.13269" lon="16.0713633"><ele>7.0</ele><time>2026-05-01T08:24:02.979Z</time></trkpt><trkpt lat="39.132755" lon="16.0713883"><ele>7.000000000000001</ele><time>2026-05-01T08:24:03.98Z</time></trkpt><trkpt lat="39.1328417" lon="16.0713933"><ele>7.0</ele><time>2026-05-01T08:24:04.979Z</time></trkpt><trkpt lat="39.1329233" lon="16.0713983"><ele>7.0</ele><time>2026-05-01T08:24:05.979Z</time></trkpt><trkpt lat="39.1329883" lon="16.0714"><ele>7.0</ele><time>2026-05-01T08:24:06.979Z</time></trkpt><trkpt lat="39.1330683" lon="16.0714133"><ele>7.000000000000001</ele><time>2026-05-01T08:24:07.979Z</time></trkpt><trkpt lat="39.1331467" lon="16.07142"><ele>7.0</ele><time>2026-05-01T08:24:08.979Z</time></trkpt><trkpt lat="39.133225" lon="16.0714333"><ele>6.833333333333334</ele><time>2026-05-01T08:24:09.979Z</time></trkpt><trkpt lat="39.1332967" lon="16.0714317"><ele>6.666666666666667</ele><time>2026-05-01T08:24:10.979Z</time></trkpt><trkpt lat="39.1333733" lon="16.0714233"><ele>6.5</ele><time>2026-05-01T08:24:11.98Z</time></trkpt><trkpt lat="39.13347" lon="16.0714133"><ele>6.333333333333334</ele><time>2026-05-01T08:24:12.979Z</time></trkpt><trkpt lat="39.1335583" lon="16.0713917"><ele>6.166666666666667</ele><time>2026-05-01T08:24:13.98Z</time></trkpt><trkpt lat="39.1336433" lon="16.07138"><ele>6.0</ele><time>2026-05-01T08:24:14.98Z</time></trkpt><trkpt lat="39.13372" lon="16.071365"><ele>6.0</ele><time>2026-05-01T08:24:15.98Z</time></trkpt><trkpt lat="39.133815" lon="16.0713267"><ele>6.0</ele><time>2026-05-01T08:24:16.98Z</time></trkpt><trkpt lat="39.1338967" lon="16.0712983"><ele>6.0</ele><time>2026-05-01T08:24:17.98Z</time></trkpt><trkpt lat="39.133965" lon="16.071275"><ele>6.0</ele><time>2026-05-01T08:24:18.979Z</time></trkpt><trkpt lat="39.1340433" lon="16.071245"><ele>6.0</ele><time>2026-05-01T08:24:19.979Z</time></trkpt><trkpt lat="39.1341233" lon="16.07121"><ele>6.0</ele><time>2026-05-01T08:24:20.98Z</time></trkpt><trkpt lat="39.1342017" lon="16.0711717"><ele>5.8</ele><time>2026-05-01T08:24:21.98Z</time></trkpt><trkpt lat="39.1342767" lon="16.071125"><ele>5.6</ele><time>2026-05-01T08:24:22.979Z</time></trkpt><trkpt lat="39.13435" lon="16.07108"><ele>5.4</ele><time>2026-05-01T08:24:23.98Z</time></trkpt><trkpt lat="39.1344267" lon="16.0710233"><ele>5.2</ele><time>2026-05-01T08:24:24.98Z</time></trkpt><trkpt lat="39.1345183" lon="16.070965"><ele>5.0</ele><time>2026-05-01T08:24:25.979Z</time></trkpt><trkpt lat="39.1346267" lon="16.0709017"><ele>5.0</ele><time>2026-05-01T08:24:26.979Z</time></trkpt><trkpt lat="39.1347233" lon="16.0708283"><ele>5.0</ele><time>2026-05-01T08:24:27.979Z</time></trkpt><trkpt lat="39.134835" lon="16.070745"><ele>5.0</ele><time>2026-05-01T08:24:28.979Z</time></trkpt><trkpt lat="39.1349233" lon="16.0706783"><ele>5.0</ele><time>2026-05-01T08:24:29.98Z</time></trkpt><trkpt lat="39.1350133" lon="16.0706033"><ele>5.2</ele><time>2026-05-01T08:24:30.98Z</time></trkpt><trkpt lat="39.1351" lon="16.070545"><ele>5.4</ele><time>2026-05-01T08:24:31.979Z</time></trkpt><trkpt lat="39.135185" lon="16.0704933"><ele>5.6</ele><time>2026-05-01T08:24:32.979Z</time></trkpt><trkpt lat="39.135265" lon="16.0704417"><ele>5.8</ele><time>2026-05-01T08:24:33.979Z</time></trkpt><trkpt lat="39.1353517" lon="16.070385"><ele>6.0</ele><time>2026-05-01T08:24:34.979Z</time></trkpt><trkpt lat="39.1354533" lon="16.0703133"><ele>6.0</ele><time>2026-05-01T08:24:35.979Z</time></trkpt><trkpt lat="39.13556" lon="16.0702333"><ele>6.0</ele><time>2026-05-01T08:24:36.979Z</time></trkpt><trkpt lat="39.13567" lon="16.0701633"><ele>6.0</ele><time>2026-05-01T08:24:37.979Z</time></trkpt><trkpt lat="39.1357783" lon="16.0701033"><ele>6.0</ele><time>2026-05-01T08:24:38.979Z</time></trkpt><trkpt lat="39.1358867" lon="16.07004"><ele>6.25</ele><time>2026-05-01T08:24:39.979Z</time></trkpt><trkpt lat="39.136" lon="16.069975"><ele>6.5</ele><time>2026-05-01T08:24:40.979Z</time></trkpt><trkpt lat="39.1360967" lon="16.0699"><ele>6.75</ele><time>2026-05-01T08:24:41.979Z</time></trkpt><trkpt lat="39.1361967" lon="16.0698317"><ele>7.0</ele><time>2026-05-01T08:24:42.98Z</time></trkpt><trkpt lat="39.1362983" lon="16.06976"><ele>6.5</ele><time>2026-05-01T08:24:43.98Z</time></trkpt><trkpt lat="39.1363967" lon="16.06969"><ele>6.0</ele><time>2026-05-01T08:24:44.979Z</time></trkpt><trkpt lat="39.136495" lon="16.06962"><ele>5.5</ele><time>2026-05-01T08:24:45.98Z</time></trkpt><trkpt lat="39.1366117" lon="16.069535"><ele>5.0</ele><time>2026-05-01T08:24:46.98Z</time></trkpt><trkpt lat="39.1367283" lon="16.06945"><ele>5.0</ele><time>2026-05-01T08:24:47.98Z</time></trkpt><trkpt lat="39.1368333" lon="16.0693667"><ele>5.0</ele><time>2026-05-01T08:24:48.979Z</time></trkpt><trkpt lat="39.1369383" lon="16.0693"><ele>5.0</ele><time>2026-05-01T08:24:49.979Z</time></trkpt><trkpt lat="39.1370483" lon="16.0692417"><ele>5.0</ele><time>2026-05-01T08:24:50.979Z</time></trkpt><trkpt lat="39.1371667" lon="16.0691833"><ele>5.0</ele><time>2026-05-01T08:24:51.98Z</time></trkpt><trkpt lat="39.1372817" lon="16.069125"><ele>5.0</ele><time>2026-05-01T08:24:52.979Z</time></trkpt><trkpt lat="39.1374033" lon="16.0690867"><ele>5.0</ele><time>2026-05-01T08:24:53.98Z</time></trkpt><trkpt lat="39.1375317" lon="16.069035"><ele>5.0</ele><time>2026-05-01T08:24:54.98Z</time></trkpt><trkpt lat="39.1376617" lon="16.0689817"><ele>5.0</ele><time>2026-05-01T08:24:55.98Z</time></trkpt><trkpt lat="39.1377967" lon="16.0689267"><ele>5.0</ele><time>2026-05-01T08:24:56.979Z</time></trkpt><trkpt lat="39.13793" lon="16.0688767"><ele>5.0</ele><time>2026-05-01T08:24:57.979Z</time></trkpt><trkpt lat="39.1380633" lon="16.0688317"><ele>5.0</ele><time>2026-05-01T08:24:58.979Z</time></trkpt><trkpt lat="39.1382067" lon="16.068775"><ele>5.25</ele><time>2026-05-01T08:24:59.979Z</time></trkpt><trkpt lat="39.1383417" lon="16.0687233"><ele>5.5</ele><time>2026-05-01T08:25:00.979Z</time></trkpt><trkpt lat="39.1384783" lon="16.0686767"><ele>5.75</ele><time>2026-05-01T08:25:01.98Z</time></trkpt><trkpt lat="39.1386083" lon="16.06863"><ele>6.0</ele><time>2026-05-01T08:25:02.979Z</time></trkpt><trkpt lat="39.13873" lon="16.0685883"><ele>6.0</ele><time>2026-05-01T08:25:03.979Z</time></trkpt><trkpt lat="39.1388567" lon="16.0685483"><ele>6.0</ele><time>2026-05-01T08:25:04.979Z</time></trkpt><trkpt lat="39.13897" lon="16.06852"><ele>6.0</ele><time>2026-05-01T08:25:05.979Z</time></trkpt><trkpt lat="39.1390867" lon="16.06848"><ele>6.0</ele><time>2026-05-01T08:25:06.98Z</time></trkpt><trkpt lat="39.1391967" lon="16.068435"><ele>6.199999999999999</ele><time>2026-05-01T08:25:07.98Z</time></trkpt><trkpt lat="39.139305" lon="16.0683967"><ele>6.3999999999999995</ele><time>2026-05-01T08:25:08.98Z</time></trkpt><trkpt lat="39.1394083" lon="16.0683583"><ele>6.6</ele><time>2026-05-01T08:25:09.98Z</time></trkpt><trkpt lat="39.1395083" lon="16.0683183"><ele>6.8</ele><time>2026-05-01T08:25:10.98Z</time></trkpt><trkpt lat="39.1395983" lon="16.0682867"><ele>7.0</ele><time>2026-05-01T08:25:11.98Z</time></trkpt><trkpt lat="39.1396917" lon="16.0682667"><ele>6.666666666666667</ele><time>2026-05-01T08:25:12.98Z</time></trkpt><trkpt lat="39.1397767" lon="16.06825"><ele>6.333333333333334</ele><time>2026-05-01T08:25:13.979Z</time></trkpt><trkpt lat="39.1398583" lon="16.0682317"><ele>6.0</ele><time>2026-05-01T08:25:14.979Z</time></trkpt><trkpt lat="39.1399383" lon="16.0682233"><ele>5.666666666666667</ele><time>2026-05-01T08:25:15.979Z</time></trkpt><trkpt lat="39.140005" lon="16.0682233"><ele>5.333333333333334</ele><time>2026-05-01T08:25:16.979Z</time></trkpt><trkpt lat="39.1401217" lon="16.0682633"><ele>5.0</ele><time>2026-05-01T08:25:18.98Z</time></trkpt><trkpt lat="39.140205" lon="16.0683583"><ele>5.0</ele><time>2026-05-01T08:25:20.979Z</time></trkpt><trkpt lat="39.14025" lon="16.0684617"><ele>5.0</ele><time>2026-05-01T08:25:22.979Z</time></trkpt><trkpt lat="39.14025" lon="16.0685583"><ele>5.0</ele><time>2026-05-01T08:25:24.979Z</time></trkpt><trkpt lat="39.140225" lon="16.068655"><ele>5.0</ele><time>2026-05-01T08:25:26.979Z</time></trkpt><trkpt lat="39.140205" lon="16.0687517"><ele>5.0</ele><time>2026-05-01T08:25:28.979Z</time></trkpt><trkpt lat="39.1401833" lon="16.068835"><ele>5.0</ele><time>2026-05-01T08:25:30.979Z</time></trkpt><trkpt lat="39.1401767" lon="16.068925"><ele>5.0</ele><time>2026-05-01T08:25:32.98Z</time></trkpt><trkpt lat="39.14016" lon="16.0690283"><ele>5.0</ele><time>2026-05-01T08:25:35.979Z</time></trkpt><trkpt lat="39.1401417" lon="16.0691067"><ele>5.0</ele><time>2026-05-01T08:25:38.979Z</time></trkpt><trkpt lat="39.140135" lon="16.0691917"><ele>5.0</ele><time>2026-05-01T08:25:42.979Z</time></trkpt><trkpt lat="39.1401167" lon="16.0692833"><ele>5.0</ele><time>2026-05-01T08:25:46.979Z</time></trkpt><trkpt lat="39.1401117" lon="16.0694033"><ele>5.0</ele><time>2026-05-01T08:25:59.98Z</time></trkpt><trkpt lat="39.1401133" lon="16.06951"><ele>5.6</ele><time>2026-05-01T08:26:01.979Z</time></trkpt><trkpt lat="39.1401033" lon="16.0696567"><ele>6.2</ele><time>2026-05-01T08:26:03.979Z</time></trkpt><trkpt lat="39.1400817" lon="16.0698233"><ele>6.800000000000001</ele><time>2026-05-01T08:26:05.98Z</time></trkpt><trkpt lat="39.1400667" lon="16.06991"><ele>7.4</ele><time>2026-05-01T08:26:06.979Z</time></trkpt><trkpt lat="39.140055" lon="16.0700017"><ele>8.0</ele><time>2026-05-01T08:26:07.98Z</time></trkpt><trkpt lat="39.1400317" lon="16.0701533"><ele>10.0</ele><time>2026-05-01T08:26:09.98Z</time></trkpt><trkpt lat="39.14002" lon="16.0703133"><ele>12.0</ele><time>2026-05-01T08:26:11.979Z</time></trkpt><trkpt lat="39.1400067" lon="16.0704017"><ele>14.0</ele><time>2026-05-01T08:26:12.979Z</time></trkpt><trkpt lat="39.1399933" lon="16.0704983"><ele>16.0</ele><time>2026-05-01T08:26:13.98Z</time></trkpt><trkpt lat="39.13998" lon="16.0706"><ele>18.0</ele><time>2026-05-01T08:26:14.979Z</time></trkpt><trkpt lat="39.1399717" lon="16.0706867"><ele>20.0</ele><time>2026-05-01T08:26:15.98Z</time></trkpt><trkpt lat="39.1399583" lon="16.0707833"><ele>21.833333333333336</ele><time>2026-05-01T08:26:16.979Z</time></trkpt><trkpt lat="39.139935" lon="16.0708783"><ele>23.666666666666668</ele><time>2026-05-01T08:26:17.979Z</time></trkpt><trkpt lat="39.1399133" lon="16.0709883"><ele>25.5</ele><time>2026-05-01T08:26:18.979Z</time></trkpt><trkpt lat="39.1398983" lon="16.0710933"><ele>27.333333333333336</ele><time>2026-05-01T08:26:19.98Z</time></trkpt><trkpt lat="39.1398883" lon="16.071205"><ele>29.166666666666668</ele><time>2026-05-01T08:26:20.979Z</time></trkpt><trkpt lat="39.139875" lon="16.0713117"><ele>31.0</ele><time>2026-05-01T08:26:21.98Z</time></trkpt><trkpt lat="39.139865" lon="16.0714083"><ele>31.200000000000003</ele><time>2026-05-01T08:26:22.98Z</time></trkpt><trkpt lat="39.1398517" lon="16.0715017"><ele>31.400000000000002</ele><time>2026-05-01T08:26:23.98Z</time></trkpt><trkpt lat="39.1398433" lon="16.0715967"><ele>31.6</ele><time>2026-05-01T08:26:24.98Z</time></trkpt><trkpt lat="39.13984" lon="16.0716833"><ele>31.8</ele><time>2026-05-01T08:26:25.979Z</time></trkpt><trkpt lat="39.1398667" lon="16.0718733"><ele>32.0</ele><time>2026-05-01T08:26:27.979Z</time></trkpt><trkpt lat="39.139885" lon="16.071985"><ele>33.25</ele><time>2026-05-01T08:26:28.979Z</time></trkpt><trkpt lat="39.1399417" lon="16.0721083"><ele>34.5</ele><time>2026-05-01T08:26:29.979Z</time></trkpt><trkpt lat="39.1400217" lon="16.07227"><ele>35.75</ele><time>2026-05-01T08:26:30.98Z</time></trkpt><trkpt lat="39.1400983" lon="16.0724483"><ele>37.0</ele><time>2026-05-01T08:26:31.98Z</time></trkpt><trkpt lat="39.140175" lon="16.0726133"><ele>34.0</ele><time>2026-05-01T08:26:32.98Z</time></trkpt><trkpt lat="39.1402467" lon="16.0727783"><ele>31.0</ele><time>2026-05-01T08:26:33.98Z</time></trkpt><trkpt lat="39.140325" lon="16.0729417"><ele>28.0</ele><time>2026-05-01T08:26:34.979Z</time></trkpt><trkpt lat="39.140375" lon="16.0731117"><ele>25.0</ele><time>2026-05-01T08:26:35.979Z</time></trkpt><trkpt lat="39.1404117" lon="16.0732767"><ele>25.0</ele><time>2026-05-01T08:26:36.979Z</time></trkpt><trkpt lat="39.14043" lon="16.073435"><ele>25.0</ele><time>2026-05-01T08:26:37.979Z</time></trkpt><trkpt lat="39.14045" lon="16.0736017"><ele>25.0</ele><time>2026-05-01T08:26:38.979Z</time></trkpt><trkpt lat="39.14045" lon="16.0737817"><ele>25.0</ele><time>2026-05-01T08:26:39.98Z</time></trkpt><trkpt lat="39.1404283" lon="16.0739517"><ele>26.25</ele><time>2026-05-01T08:26:40.979Z</time></trkpt><trkpt lat="39.140395" lon="16.0741183"><ele>27.5</ele><time>2026-05-01T08:26:41.98Z</time></trkpt><trkpt lat="39.1403483" lon="16.0742867"><ele>28.75</ele><time>2026-05-01T08:26:42.98Z</time></trkpt><trkpt lat="39.1402917" lon="16.07445"><ele>30.0</ele><time>2026-05-01T08:26:43.979Z</time></trkpt><trkpt lat="39.1402217" lon="16.0746083"><ele>30.0</ele><time>2026-05-01T08:26:44.979Z</time></trkpt><trkpt lat="39.1401367" lon="16.0747717"><ele>30.0</ele><time>2026-05-01T08:26:45.979Z</time></trkpt><trkpt lat="39.1400483" lon="16.07495"><ele>30.0</ele><time>2026-05-01T08:26:46.98Z</time></trkpt><trkpt lat="39.1399683" lon="16.0751233"><ele>40.33333333333333</ele><time>2026-05-01T08:26:47.979Z</time></trkpt><trkpt lat="39.1398833" lon="16.0753117"><ele>50.666666666666664</ele><time>2026-05-01T08:26:48.979Z</time></trkpt><trkpt lat="39.1398" lon="16.0755017"><ele>61.0</ele><time>2026-05-01T08:26:49.98Z</time></trkpt><trkpt lat="39.13973" lon="16.075695"><ele>56.666666666666664</ele><time>2026-05-01T08:26:50.98Z</time></trkpt><trkpt lat="39.1396717" lon="16.0759"><ele>52.33333333333333</ele><time>2026-05-01T08:26:51.979Z</time></trkpt><trkpt lat="39.139615" lon="16.0761033"><ele>48.0</ele><time>2026-05-01T08:26:52.979Z</time></trkpt><trkpt lat="39.1395517" lon="16.0763033"><ele>48.0</ele><time>2026-05-01T08:26:53.979Z</time></trkpt><trkpt lat="39.1394933" lon="16.076495"><ele>48.0</ele><time>2026-05-01T08:26:54.98Z</time></trkpt><trkpt lat="39.1393817" lon="16.0768717"><ele>44.0</ele><time>2026-05-01T08:26:56.98Z</time></trkpt><trkpt lat="39.1393217" lon="16.0770533"><ele>40.0</ele><time>2026-05-01T08:26:57.979Z</time></trkpt><trkpt lat="39.1392617" lon="16.0772367"><ele>36.0</ele><time>2026-05-01T08:26:58.979Z</time></trkpt><trkpt lat="39.1392017" lon="16.0774067"><ele>33.666666666666664</ele><time>2026-05-01T08:26:59.979Z</time></trkpt><trkpt lat="39.1391283" lon="16.077575"><ele>31.333333333333332</ele><time>2026-05-01T08:27:00.98Z</time></trkpt><trkpt lat="39.1390417" lon="16.077745"><ele>29.0</ele><time>2026-05-01T08:27:01.98Z</time></trkpt><trkpt lat="39.1389433" lon="16.0779"><ele>32.666666666666664</ele><time>2026-05-01T08:27:02.98Z</time></trkpt><trkpt lat="39.1388333" lon="16.0780533"><ele>36.333333333333336</ele><time>2026-05-01T08:27:03.979Z</time></trkpt><trkpt lat="39.13872" lon="16.0782233"><ele>40.0</ele><time>2026-05-01T08:27:04.979Z</time></trkpt><trkpt lat="39.138605" lon="16.0783833"><ele>40.0</ele><time>2026-05-01T08:27:05.979Z</time></trkpt><trkpt lat="39.13849" lon="16.0785417"><ele>40.0</ele><time>2026-05-01T08:27:06.98Z</time></trkpt><trkpt lat="39.13838" lon="16.0787017"><ele>40.0</ele><time>2026-05-01T08:27:07.98Z</time></trkpt><trkpt lat="39.13827" lon="16.0788533"><ele>40.66666666666667</ele><time>2026-05-01T08:27:08.979Z</time></trkpt><trkpt lat="39.1381683" lon="16.0790033"><ele>41.333333333333336</ele><time>2026-05-01T08:27:09.979Z</time></trkpt><trkpt lat="39.1380583" lon="16.079145"><ele>42.0</ele><time>2026-05-01T08:27:10.98Z</time></trkpt><trkpt lat="39.1379533" lon="16.0792933"><ele>42.0</ele><time>2026-05-01T08:27:11.98Z</time></trkpt><trkpt lat="39.13786" lon="16.0794367"><ele>42.0</ele><time>2026-05-01T08:27:12.98Z</time></trkpt><trkpt lat="39.1377517" lon="16.0795783"><ele>42.0</ele><time>2026-05-01T08:27:13.979Z</time></trkpt><trkpt lat="39.1376467" lon="16.0797183"><ele>42.0</ele><time>2026-05-01T08:27:14.979Z</time></trkpt><trkpt lat="39.1375417" lon="16.079865"><ele>42.0</ele><time>2026-05-01T08:27:15.979Z</time></trkpt><trkpt lat="39.13744" lon="16.0800117"><ele>42.0</ele><time>2026-05-01T08:27:16.98Z</time></trkpt><trkpt lat="39.1373333" lon="16.0801633"><ele>43.666666666666664</ele><time>2026-05-01T08:27:17.979Z</time></trkpt><trkpt lat="39.137225" lon="16.080315"><ele>45.33333333333333</ele><time>2026-05-01T08:27:18.979Z</time></trkpt><trkpt lat="39.1371183" lon="16.0804667"><ele>47.0</ele><time>2026-05-01T08:27:19.98Z</time></trkpt><trkpt lat="39.1370133" lon="16.0806233"><ele>46.33333333333333</ele><time>2026-05-01T08:27:20.98Z</time></trkpt><trkpt lat="39.1369083" lon="16.080785"><ele>45.666666666666664</ele><time>2026-05-01T08:27:21.98Z</time></trkpt><trkpt lat="39.1368017" lon="16.0809483"><ele>45.0</ele><time>2026-05-01T08:27:22.979Z</time></trkpt><trkpt lat="39.1366983" lon="16.0811233"><ele>45.0</ele><time>2026-05-01T08:27:23.979Z</time></trkpt><trkpt lat="39.136595" lon="16.0813133"><ele>45.0</ele><time>2026-05-01T08:27:24.98Z</time></trkpt><trkpt lat="39.1364917" lon="16.0815133"><ele>45.0</ele><time>2026-05-01T08:27:25.979Z</time></trkpt><trkpt lat="39.1363767" lon="16.0817083"><ele>57.0</ele><time>2026-05-01T08:27:26.98Z</time></trkpt><trkpt lat="39.1362683" lon="16.081905"><ele>69.0</ele><time>2026-05-01T08:27:27.98Z</time></trkpt><trkpt lat="39.1361617" lon="16.0821083"><ele>81.0</ele><time>2026-05-01T08:27:28.98Z</time></trkpt><trkpt lat="39.1360533" lon="16.0823083"><ele>74.0</ele><time>2026-05-01T08:27:29.979Z</time></trkpt><trkpt lat="39.1359583" lon="16.0825117"><ele>67.0</ele><time>2026-05-01T08:27:30.98Z</time></trkpt><trkpt lat="39.1358567" lon="16.08272"><ele>60.0</ele><time>2026-05-01T08:27:31.979Z</time></trkpt><trkpt lat="39.1357733" lon="16.0829317"><ele>61.0</ele><time>2026-05-01T08:27:32.98Z</time></trkpt><trkpt lat="39.1357083" lon="16.0831483"><ele>62.0</ele><time>2026-05-01T08:27:33.98Z</time></trkpt><trkpt lat="39.1356567" lon="16.08337"><ele>63.0</ele><time>2026-05-01T08:27:34.98Z</time></trkpt><trkpt lat="39.1356333" lon="16.0836017"><ele>63.0</ele><time>2026-05-01T08:27:35.979Z</time></trkpt><trkpt lat="39.1356183" lon="16.0838383"><ele>63.0</ele><time>2026-05-01T08:27:36.98Z</time></trkpt><trkpt lat="39.13562" lon="16.0840717"><ele>63.0</ele><time>2026-05-01T08:27:37.979Z</time></trkpt><trkpt lat="39.1356467" lon="16.0843017"><ele>60.33333333333333</ele><time>2026-05-01T08:27:38.979Z</time></trkpt><trkpt lat="39.13569" lon="16.0845317"><ele>57.666666666666664</ele><time>2026-05-01T08:27:39.98Z</time></trkpt><trkpt lat="39.135745" lon="16.0847517"><ele>55.0</ele><time>2026-05-01T08:27:40.98Z</time></trkpt><trkpt lat="39.1358067" lon="16.0849767"><ele>52.33333333333333</ele><time>2026-05-01T08:27:41.98Z</time></trkpt><trkpt lat="39.135865" lon="16.0852033"><ele>49.666666666666664</ele><time>2026-05-01T08:27:42.979Z</time></trkpt><trkpt lat="39.13593" lon="16.0854217"><ele>47.0</ele><time>2026-05-01T08:27:43.979Z</time></trkpt><trkpt lat="39.1359967" lon="16.0856467"><ele>47.666666666666664</ele><time>2026-05-01T08:27:44.98Z</time></trkpt><trkpt lat="39.136075" lon="16.0858667"><ele>48.33333333333333</ele><time>2026-05-01T08:27:45.979Z</time></trkpt><trkpt lat="39.1361617" lon="16.086085"><ele>49.0</ele><time>2026-05-01T08:27:46.979Z</time></trkpt><trkpt lat="39.136255" lon="16.0862867"><ele>49.0</ele><time>2026-05-01T08:27:47.98Z</time></trkpt><trkpt lat="39.1363667" lon="16.0864883"><ele>49.0</ele><time>2026-05-01T08:27:48.98Z</time></trkpt><trkpt lat="39.13648" lon="16.08668"><ele>49.0</ele><time>2026-05-01T08:27:49.979Z</time></trkpt><trkpt lat="39.1366" lon="16.0868633"><ele>50.33333333333333</ele><time>2026-05-01T08:27:50.979Z</time></trkpt><trkpt lat="39.1367233" lon="16.0870367"><ele>51.66666666666667</ele><time>2026-05-01T08:27:51.98Z</time></trkpt><trkpt lat="39.1368533" lon="16.0871983"><ele>53.0</ele><time>2026-05-01T08:27:52.979Z</time></trkpt><trkpt lat="39.136975" lon="16.08736"><ele>53.66666666666667</ele><time>2026-05-01T08:27:53.98Z</time></trkpt><trkpt lat="39.13711" lon="16.0875083"><ele>54.33333333333333</ele><time>2026-05-01T08:27:54.979Z</time></trkpt><trkpt lat="39.1372567" lon="16.087645"><ele>55.0</ele><time>2026-05-01T08:27:55.98Z</time></trkpt><trkpt lat="39.1373933" lon="16.08778"><ele>55.0</ele><time>2026-05-01T08:27:56.98Z</time></trkpt><trkpt lat="39.1375483" lon="16.0879067"><ele>55.0</ele><time>2026-05-01T08:27:57.979Z</time></trkpt><trkpt lat="39.1377" lon="16.0880267"><ele>55.0</ele><time>2026-05-01T08:27:58.979Z</time></trkpt><trkpt lat="39.13785" lon="16.0881417"><ele>55.0</ele><time>2026-05-01T08:27:59.979Z</time></trkpt><trkpt lat="39.1380017" lon="16.0882533"><ele>55.0</ele><time>2026-05-01T08:28:00.979Z</time></trkpt><trkpt lat="39.1381467" lon="16.0883717"><ele>55.0</ele><time>2026-05-01T08:28:01.98Z</time></trkpt><trkpt lat="39.13829" lon="16.0885"><ele>55.666666666666664</ele><time>2026-05-01T08:28:02.979Z</time></trkpt><trkpt lat="39.138435" lon="16.0886183"><ele>56.33333333333333</ele><time>2026-05-01T08:28:03.979Z</time></trkpt><trkpt lat="39.13857" lon="16.0887283"><ele>57.0</ele><time>2026-05-01T08:28:04.979Z</time></trkpt><trkpt lat="39.1386983" lon="16.0888367"><ele>57.0</ele><time>2026-05-01T08:28:05.979Z</time></trkpt><trkpt lat="39.138825" lon="16.0889483"><ele>57.0</ele><time>2026-05-01T08:28:06.979Z</time></trkpt><trkpt lat="39.1389617" lon="16.089055"><ele>57.0</ele><time>2026-05-01T08:28:07.979Z</time></trkpt><trkpt lat="39.1391" lon="16.0891683"><ele>57.66666666666667</ele><time>2026-05-01T08:28:08.98Z</time></trkpt><trkpt lat="39.1392333" lon="16.0892783"><ele>58.333333333333336</ele><time>2026-05-01T08:28:09.98Z</time></trkpt><trkpt lat="39.13937" lon="16.0893933"><ele>59.0</ele><time>2026-05-01T08:28:10.979Z</time></trkpt><trkpt lat="39.1395117" lon="16.0895133"><ele>59.0</ele><time>2026-05-01T08:28:11.98Z</time></trkpt><trkpt lat="39.1396633" lon="16.0896417"><ele>59.0</ele><time>2026-05-01T08:28:12.98Z</time></trkpt><trkpt lat="39.1398217" lon="16.089765"><ele>59.0</ele><time>2026-05-01T08:28:13.98Z</time></trkpt><trkpt lat="39.1399867" lon="16.0899033"><ele>61.66666666666667</ele><time>2026-05-01T08:28:14.979Z</time></trkpt><trkpt lat="39.140165" lon="16.090055"><ele>64.33333333333333</ele><time>2026-05-01T08:28:15.98Z</time></trkpt><trkpt lat="39.1403367" lon="16.0902283"><ele>67.0</ele><time>2026-05-01T08:28:16.98Z</time></trkpt><trkpt lat="39.140495" lon="16.0904167"><ele>67.0</ele><time>2026-05-01T08:28:17.979Z</time></trkpt><trkpt lat="39.1406383" lon="16.0906133"><ele>67.0</ele><time>2026-05-01T08:28:18.979Z</time></trkpt><trkpt lat="39.1407683" lon="16.0908233"><ele>67.0</ele><time>2026-05-01T08:28:19.979Z</time></trkpt><trkpt lat="39.1408883" lon="16.0910367"><ele>67.66666666666666</ele><time>2026-05-01T08:28:20.979Z</time></trkpt><trkpt lat="39.1409933" lon="16.0912617"><ele>68.33333333333333</ele><time>2026-05-01T08:28:21.98Z</time></trkpt><trkpt lat="39.1410883" lon="16.091485"><ele>69.0</ele><time>2026-05-01T08:28:22.979Z</time></trkpt><trkpt lat="39.1411783" lon="16.0917317"><ele>71.0</ele><time>2026-05-01T08:28:23.98Z</time></trkpt><trkpt lat="39.1412583" lon="16.0919917"><ele>73.0</ele><time>2026-05-01T08:28:24.98Z</time></trkpt><trkpt lat="39.141335" lon="16.0922633"><ele>75.0</ele><time>2026-05-01T08:28:25.979Z</time></trkpt><trkpt lat="39.1414133" lon="16.0925283"><ele>74.33333333333333</ele><time>2026-05-01T08:28:26.98Z</time></trkpt><trkpt lat="39.141495" lon="16.09279"><ele>73.66666666666666</ele><time>2026-05-01T08:28:27.98Z</time></trkpt><trkpt lat="39.14157" lon="16.0930417"><ele>73.0</ele><time>2026-05-01T08:28:28.979Z</time></trkpt><trkpt lat="39.1416417" lon="16.0932833"><ele>75.33333333333333</ele><time>2026-05-01T08:28:29.979Z</time></trkpt><trkpt lat="39.14171" lon="16.0935267"><ele>77.66666666666667</ele><time>2026-05-01T08:28:30.979Z</time></trkpt><trkpt lat="39.1417817" lon="16.0937617"><ele>80.0</ele><time>2026-05-01T08:28:31.979Z</time></trkpt><trkpt lat="39.141845" lon="16.0940083"><ele>86.0</ele><time>2026-05-01T08:28:32.98Z</time></trkpt><trkpt lat="39.1419167" lon="16.0942533"><ele>92.0</ele><time>2026-05-01T08:28:33.98Z</time></trkpt><trkpt lat="39.1420033" lon="16.0945017"><ele>98.0</ele><time>2026-05-01T08:28:34.979Z</time></trkpt><trkpt lat="39.14209" lon="16.0947467"><ele>93.0</ele><time>2026-05-01T08:28:35.98Z</time></trkpt><trkpt lat="39.1421883" lon="16.0950017"><ele>88.0</ele><time>2026-05-01T08:28:36.98Z</time></trkpt><trkpt lat="39.14228" lon="16.0952517"><ele>83.0</ele><time>2026-05-01T08:28:37.979Z</time></trkpt><trkpt lat="39.1423817" lon="16.0954967"><ele>83.0</ele><time>2026-05-01T08:28:38.979Z</time></trkpt><trkpt lat="39.1424733" lon="16.0957267"><ele>83.0</ele><time>2026-05-01T08:28:39.98Z</time></trkpt><trkpt lat="39.1425783" lon="16.095945"><ele>83.0</ele><time>2026-05-01T08:28:40.979Z</time></trkpt><trkpt lat="39.1426717" lon="16.096165"><ele>87.66666666666667</ele><time>2026-05-01T08:28:41.979Z</time></trkpt><trkpt lat="39.142775" lon="16.09638"><ele>92.33333333333334</ele><time>2026-05-01T08:28:42.98Z</time></trkpt><trkpt lat="39.142875" lon="16.0966"><ele>97.0</ele><time>2026-05-01T08:28:43.979Z</time></trkpt><trkpt lat="39.1429783" lon="16.0968283"><ele>95.0</ele><time>2026-05-01T08:28:44.979Z</time></trkpt><trkpt lat="39.1430833" lon="16.0970533"><ele>93.0</ele><time>2026-05-01T08:28:45.979Z</time></trkpt><trkpt lat="39.1431833" lon="16.0972817"><ele>91.0</ele><time>2026-05-01T08:28:46.979Z</time></trkpt><trkpt lat="39.1432867" lon="16.0975067"><ele>91.0</ele><time>2026-05-01T08:28:47.979Z</time></trkpt><trkpt lat="39.14342" lon="16.0977183"><ele>91.0</ele><time>2026-05-01T08:28:48.98Z</time></trkpt><trkpt lat="39.1435533" lon="16.09793"><ele>91.0</ele><time>2026-05-01T08:28:49.979Z</time></trkpt><trkpt lat="39.1437083" lon="16.0981283"><ele>92.0</ele><time>2026-05-01T08:28:50.98Z</time></trkpt><trkpt lat="39.1438733" lon="16.09832"><ele>93.0</ele><time>2026-05-01T08:28:51.979Z</time></trkpt><trkpt lat="39.14404" lon="16.0984817"><ele>94.0</ele><time>2026-05-01T08:28:52.979Z</time></trkpt><trkpt lat="39.1442133" lon="16.0986283"><ele>94.0</ele><time>2026-05-01T08:28:53.979Z</time></trkpt><trkpt lat="39.144395" lon="16.09875"><ele>94.0</ele><time>2026-05-01T08:28:54.98Z</time></trkpt><trkpt lat="39.1445733" lon="16.0988533"><ele>94.0</ele><time>2026-05-01T08:28:55.98Z</time></trkpt><trkpt lat="39.1447683" lon="16.0989367"><ele>94.33333333333333</ele><time>2026-05-01T08:28:56.979Z</time></trkpt><trkpt lat="39.1449567" lon="16.0990067"><ele>94.66666666666667</ele><time>2026-05-01T08:28:57.98Z</time></trkpt><trkpt lat="39.1451417" lon="16.0990733"><ele>95.0</ele><time>2026-05-01T08:28:58.98Z</time></trkpt><trkpt lat="39.14533" lon="16.0991283"><ele>96.66666666666667</ele><time>2026-05-01T08:28:59.979Z</time></trkpt><trkpt lat="39.145525" lon="16.09917"><ele>98.33333333333334</ele><time>2026-05-01T08:29:00.979Z</time></trkpt><trkpt lat="39.145715" lon="16.09922"><ele>100.0</ele><time>2026-05-01T08:29:01.98Z</time></trkpt><trkpt lat="39.145905" lon="16.0992683"><ele>100.0</ele><time>2026-05-01T08:29:02.979Z</time></trkpt><trkpt lat="39.1460867" lon="16.0993233"><ele>100.0</ele><time>2026-05-01T08:29:03.979Z</time></trkpt><trkpt lat="39.1462633" lon="16.0993733"><ele>100.0</ele><time>2026-05-01T08:29:04.979Z</time></trkpt><trkpt lat="39.146435" lon="16.0994267"><ele>103.0</ele><time>2026-05-01T08:29:05.979Z</time></trkpt><trkpt lat="39.1466217" lon="16.09947"><ele>106.0</ele><time>2026-05-01T08:29:06.98Z</time></trkpt><trkpt lat="39.1468017" lon="16.0995183"><ele>109.0</ele><time>2026-05-01T08:29:07.979Z</time></trkpt><trkpt lat="39.14697" lon="16.0995717"><ele>109.0</ele><time>2026-05-01T08:29:08.979Z</time></trkpt><trkpt lat="39.1471367" lon="16.0996233"><ele>109.0</ele><time>2026-05-01T08:29:09.98Z</time></trkpt><trkpt lat="39.1472967" lon="16.099665"><ele>109.0</ele><time>2026-05-01T08:29:10.98Z</time></trkpt><trkpt lat="39.1474617" lon="16.0996917"><ele>109.0</ele><time>2026-05-01T08:29:11.979Z</time></trkpt><trkpt lat="39.147625" lon="16.0996833"><ele>109.0</ele><time>2026-05-01T08:29:12.979Z</time></trkpt><trkpt lat="39.1477967" lon="16.0996583"><ele>109.0</ele><time>2026-05-01T08:29:13.98Z</time></trkpt><trkpt lat="39.1479583" lon="16.0996217"><ele>109.0</ele><time>2026-05-01T08:29:14.979Z</time></trkpt><trkpt lat="39.14812" lon="16.0995533"><ele>109.0</ele><time>2026-05-01T08:29:15.979Z</time></trkpt><trkpt lat="39.148295" lon="16.0994717"><ele>109.0</ele><time>2026-05-01T08:29:16.98Z</time></trkpt><trkpt lat="39.1484683" lon="16.099395"><ele>108.66666666666667</ele><time>2026-05-01T08:29:17.979Z</time></trkpt><trkpt lat="39.1486467" lon="16.0993267"><ele>108.33333333333334</ele><time>2026-05-01T08:29:18.98Z</time></trkpt><trkpt lat="39.1488217" lon="16.0992583"><ele>108.0</ele><time>2026-05-01T08:29:19.979Z</time></trkpt><trkpt lat="39.1490017" lon="16.0991933"><ele>110.0</ele><time>2026-05-01T08:29:20.98Z</time></trkpt><trkpt lat="39.149175" lon="16.0991283"><ele>112.0</ele><time>2026-05-01T08:29:21.979Z</time></trkpt><trkpt lat="39.1493517" lon="16.099065"><ele>114.0</ele><time>2026-05-01T08:29:22.979Z</time></trkpt><trkpt lat="39.1495283" lon="16.0990183"><ele>114.66666666666666</ele><time>2026-05-01T08:29:23.98Z</time></trkpt><trkpt lat="39.1497" lon="16.0989833"><ele>115.33333333333333</ele><time>2026-05-01T08:29:24.98Z</time></trkpt><trkpt lat="39.1498817" lon="16.0989733"><ele>116.0</ele><time>2026-05-01T08:29:25.979Z</time></trkpt><trkpt lat="39.1500667" lon="16.09899"><ele>122.0</ele><time>2026-05-01T08:29:26.979Z</time></trkpt><trkpt lat="39.1502517" lon="16.099015"><ele>128.0</ele><time>2026-05-01T08:29:27.979Z</time></trkpt><trkpt lat="39.1504333" lon="16.099055"><ele>134.0</ele><time>2026-05-01T08:29:28.979Z</time></trkpt><trkpt lat="39.1506167" lon="16.099105"><ele>138.66666666666666</ele><time>2026-05-01T08:29:29.98Z</time></trkpt><trkpt lat="39.1508017" lon="16.0991567"><ele>143.33333333333334</ele><time>2026-05-01T08:29:30.98Z</time></trkpt><trkpt lat="39.1509867" lon="16.0992117"><ele>148.0</ele><time>2026-05-01T08:29:31.98Z</time></trkpt><trkpt lat="39.1511617" lon="16.0992867"><ele>148.0</ele><time>2026-05-01T08:29:32.979Z</time></trkpt><trkpt lat="39.1513183" lon="16.0994133"><ele>148.0</ele><time>2026-05-01T08:29:33.98Z</time></trkpt><trkpt lat="39.151465" lon="16.099565"><ele>148.0</ele><time>2026-05-01T08:29:34.979Z</time></trkpt><trkpt lat="39.1515917" lon="16.099745"><ele>150.0</ele><time>2026-05-01T08:29:35.979Z</time></trkpt><trkpt lat="39.1516983" lon="16.0999383"><ele>152.0</ele><time>2026-05-01T08:29:36.979Z</time></trkpt><trkpt lat="39.1518017" lon="16.10015"><ele>154.0</ele><time>2026-05-01T08:29:37.979Z</time></trkpt><trkpt lat="39.1518867" lon="16.10038"><ele>154.0</ele><time>2026-05-01T08:29:38.979Z</time></trkpt><trkpt lat="39.1519633" lon="16.1006167"><ele>154.0</ele><time>2026-05-01T08:29:39.98Z</time></trkpt><trkpt lat="39.1520333" lon="16.1008533"><ele>154.0</ele><time>2026-05-01T08:29:40.979Z</time></trkpt><trkpt lat="39.15211" lon="16.1010967"><ele>151.0</ele><time>2026-05-01T08:29:41.979Z</time></trkpt><trkpt lat="39.15219" lon="16.1013367"><ele>148.0</ele><time>2026-05-01T08:29:42.979Z</time></trkpt><trkpt lat="39.15229" lon="16.1015733"><ele>145.0</ele><time>2026-05-01T08:29:43.979Z</time></trkpt><trkpt lat="39.1524067" lon="16.1018"><ele>149.66666666666669</ele><time>2026-05-01T08:29:44.979Z</time></trkpt><trkpt lat="39.1525417" lon="16.1020233"><ele>154.33333333333334</ele><time>2026-05-01T08:29:45.98Z</time></trkpt><trkpt lat="39.1526667" lon="16.1022417"><ele>159.0</ele><time>2026-05-01T08:29:46.979Z</time></trkpt><trkpt lat="39.1527967" lon="16.1024683"><ele>159.0</ele><time>2026-05-01T08:29:47.98Z</time></trkpt><trkpt lat="39.1529133" lon="16.1026733"><ele>159.0</ele><time>2026-05-01T08:29:48.979Z</time></trkpt><trkpt lat="39.1530233" lon="16.10287"><ele>159.0</ele><time>2026-05-01T08:29:49.98Z</time></trkpt><trkpt lat="39.1531167" lon="16.1030583"><ele>156.33333333333334</ele><time>2026-05-01T08:29:50.98Z</time></trkpt><trkpt lat="39.153195" lon="16.1032617"><ele>153.66666666666669</ele><time>2026-05-01T08:29:51.98Z</time></trkpt><trkpt lat="39.1532467" lon="16.1034817"><ele>151.0</ele><time>2026-05-01T08:29:52.979Z</time></trkpt><trkpt lat="39.1532833" lon="16.10373"><ele>162.33333333333334</ele><time>2026-05-01T08:29:53.979Z</time></trkpt><trkpt lat="39.1533083" lon="16.1039967"><ele>173.66666666666666</ele><time>2026-05-01T08:29:54.979Z</time></trkpt><trkpt lat="39.1533317" lon="16.1042733"><ele>185.0</ele><time>2026-05-01T08:29:55.979Z</time></trkpt><trkpt lat="39.15336" lon="16.10455"><ele>185.0</ele><time>2026-05-01T08:29:56.98Z</time></trkpt><trkpt lat="39.1533817" lon="16.1048283"><ele>185.0</ele><time>2026-05-01T08:29:57.979Z</time></trkpt><trkpt lat="39.1534067" lon="16.1051067"><ele>185.0</ele><time>2026-05-01T08:29:58.979Z</time></trkpt><trkpt lat="39.153435" lon="16.1054017"><ele>184.5</ele><time>2026-05-01T08:29:59.98Z</time></trkpt><trkpt lat="39.153465" lon="16.105695"><ele>184.0</ele><time>2026-05-01T08:30:00.979Z</time></trkpt><trkpt lat="39.1534967" lon="16.1059967"><ele>183.5</ele><time>2026-05-01T08:30:01.979Z</time></trkpt><trkpt lat="39.1535233" lon="16.1063"><ele>183.0</ele><time>2026-05-01T08:30:02.979Z</time></trkpt><trkpt lat="39.1535483" lon="16.1065917"><ele>183.0</ele><time>2026-05-01T08:30:03.98Z</time></trkpt><trkpt lat="39.1535683" lon="16.1068633"><ele>183.0</ele><time>2026-05-01T08:30:04.979Z</time></trkpt><trkpt lat="39.15357" lon="16.10713"><ele>183.0</ele><time>2026-05-01T08:30:05.979Z</time></trkpt><trkpt lat="39.1535383" lon="16.107395"><ele>182.66666666666666</ele><time>2026-05-01T08:30:06.979Z</time></trkpt><trkpt lat="39.153485" lon="16.107665"><ele>182.33333333333331</ele><time>2026-05-01T08:30:07.979Z</time></trkpt><trkpt lat="39.1533967" lon="16.1079233"><ele>182.0</ele><time>2026-05-01T08:30:08.979Z</time></trkpt><trkpt lat="39.15331" lon="16.1081833"><ele>177.66666666666666</ele><time>2026-05-01T08:30:09.979Z</time></trkpt><trkpt lat="39.1532167" lon="16.1084433"><ele>173.33333333333334</ele><time>2026-05-01T08:30:10.979Z</time></trkpt><trkpt lat="39.1531333" lon="16.1087"><ele>169.0</ele><time>2026-05-01T08:30:11.979Z</time></trkpt><trkpt lat="39.1530567" lon="16.10894"><ele>165.0</ele><time>2026-05-01T08:30:12.979Z</time></trkpt><trkpt lat="39.1529833" lon="16.109175"><ele>161.0</ele><time>2026-05-01T08:30:13.98Z</time></trkpt><trkpt lat="39.1529083" lon="16.1094183"><ele>157.0</ele><time>2026-05-01T08:30:14.979Z</time></trkpt><trkpt lat="39.1528317" lon="16.109655"><ele>157.0</ele><time>2026-05-01T08:30:15.979Z</time></trkpt><trkpt lat="39.152755" lon="16.109885"><ele>157.0</ele><time>2026-05-01T08:30:16.98Z</time></trkpt><trkpt lat="39.1526833" lon="16.1101133"><ele>157.0</ele><time>2026-05-01T08:30:17.98Z</time></trkpt><trkpt lat="39.152615" lon="16.1103283"><ele>166.66666666666669</ele><time>2026-05-01T08:30:18.979Z</time></trkpt><trkpt lat="39.1525583" lon="16.1105383"><ele>176.33333333333334</ele><time>2026-05-01T08:30:19.979Z</time></trkpt><trkpt lat="39.1525067" lon="16.110755"><ele>186.0</ele><time>2026-05-01T08:30:20.979Z</time></trkpt><trkpt lat="39.1524883" lon="16.1109817"><ele>194.33333333333331</ele><time>2026-05-01T08:30:21.98Z</time></trkpt><trkpt lat="39.1524883" lon="16.1112183"><ele>202.66666666666666</ele><time>2026-05-01T08:30:22.98Z</time></trkpt><trkpt lat="39.152515" lon="16.1114567"><ele>211.0</ele><time>2026-05-01T08:30:23.979Z</time></trkpt><trkpt lat="39.15256" lon="16.11169"><ele>211.0</ele><time>2026-05-01T08:30:24.979Z</time></trkpt><trkpt lat="39.15262" lon="16.11192"><ele>211.0</ele><time>2026-05-01T08:30:25.979Z</time></trkpt><trkpt lat="39.1526917" lon="16.1121517"><ele>211.0</ele><time>2026-05-01T08:30:26.979Z</time></trkpt><trkpt lat="39.1527567" lon="16.1123783"><ele>210.33333333333331</ele><time>2026-05-01T08:30:27.979Z</time></trkpt><trkpt lat="39.15281" lon="16.1126033"><ele>209.66666666666669</ele><time>2026-05-01T08:30:28.979Z</time></trkpt><trkpt lat="39.1528517" lon="16.11283"><ele>209.0</ele><time>2026-05-01T08:30:29.979Z</time></trkpt><trkpt lat="39.1528683" lon="16.11307"><ele>210.33333333333334</ele><time>2026-05-01T08:30:30.979Z</time></trkpt><trkpt lat="39.1528717" lon="16.1133117"><ele>211.66666666666669</ele><time>2026-05-01T08:30:31.979Z</time></trkpt><trkpt lat="39.152855" lon="16.113555"><ele>213.0</ele><time>2026-05-01T08:30:32.98Z</time></trkpt><trkpt lat="39.1528383" lon="16.1137867"><ele>213.0</ele><time>2026-05-01T08:30:33.979Z</time></trkpt><trkpt lat="39.1528267" lon="16.1140217"><ele>213.0</ele><time>2026-05-01T08:30:34.98Z</time></trkpt><trkpt lat="39.152835" lon="16.1142517"><ele>213.0</ele><time>2026-05-01T08:30:35.979Z</time></trkpt><trkpt lat="39.15287" lon="16.114475"><ele>213.33333333333331</ele><time>2026-05-01T08:30:36.98Z</time></trkpt><trkpt lat="39.1529317" lon="16.11469"><ele>213.66666666666666</ele><time>2026-05-01T08:30:37.979Z</time></trkpt><trkpt lat="39.1530233" lon="16.11489"><ele>214.0</ele><time>2026-05-01T08:30:38.98Z</time></trkpt><trkpt lat="39.1531417" lon="16.1150667"><ele>226.33333333333331</ele><time>2026-05-01T08:30:39.979Z</time></trkpt><trkpt lat="39.1532667" lon="16.1152183"><ele>238.66666666666669</ele><time>2026-05-01T08:30:40.979Z</time></trkpt><trkpt lat="39.1533933" lon="16.11535"><ele>251.0</ele><time>2026-05-01T08:30:41.98Z</time></trkpt><trkpt lat="39.15351" lon="16.1154933"><ele>251.0</ele><time>2026-05-01T08:30:42.98Z</time></trkpt><trkpt lat="39.15362" lon="16.1156517"><ele>251.0</ele><time>2026-05-01T08:30:43.979Z</time></trkpt><trkpt lat="39.153725" lon="16.1158183"><ele>251.0</ele><time>2026-05-01T08:30:44.979Z</time></trkpt><trkpt lat="39.1538083" lon="16.116005"><ele>245.66666666666669</ele><time>2026-05-01T08:30:45.98Z</time></trkpt><trkpt lat="39.1538667" lon="16.1162067"><ele>240.33333333333331</ele><time>2026-05-01T08:30:46.979Z</time></trkpt><trkpt lat="39.1538933" lon="16.1164233"><ele>235.0</ele><time>2026-05-01T08:30:47.979Z</time></trkpt><trkpt lat="39.1539083" lon="16.1166417"><ele>234.66666666666666</ele><time>2026-05-01T08:30:48.98Z</time></trkpt><trkpt lat="39.1538983" lon="16.116865"><ele>234.33333333333331</ele><time>2026-05-01T08:30:49.98Z</time></trkpt><trkpt lat="39.1538567" lon="16.1170933"><ele>234.0</ele><time>2026-05-01T08:30:50.98Z</time></trkpt><trkpt lat="39.1537917" lon="16.1173117"><ele>236.33333333333331</ele><time>2026-05-01T08:30:51.979Z</time></trkpt><trkpt lat="39.1537067" lon="16.117535"><ele>238.66666666666666</ele><time>2026-05-01T08:30:52.98Z</time></trkpt><trkpt lat="39.1536183" lon="16.11776"><ele>241.0</ele><time>2026-05-01T08:30:53.979Z</time></trkpt><trkpt lat="39.15354" lon="16.117975"><ele>241.0</ele><time>2026-05-01T08:30:54.979Z</time></trkpt><trkpt lat="39.1534717" lon="16.1182017"><ele>241.0</ele><time>2026-05-01T08:30:55.98Z</time></trkpt><trkpt lat="39.1534333" lon="16.1184317"><ele>241.0</ele><time>2026-05-01T08:30:56.98Z</time></trkpt><trkpt lat="39.1534217" lon="16.11866"><ele>244.66666666666666</ele><time>2026-05-01T08:30:57.979Z</time></trkpt><trkpt lat="39.15344" lon="16.1189"><ele>248.33333333333331</ele><time>2026-05-01T08:30:58.979Z</time></trkpt><trkpt lat="39.1534817" lon="16.119135"><ele>252.0</ele><time>2026-05-01T08:30:59.979Z</time></trkpt><trkpt lat="39.1535317" lon="16.1193633"><ele>253.0</ele><time>2026-05-01T08:31:00.979Z</time></trkpt><trkpt lat="39.1535933" lon="16.1195967"><ele>254.0</ele><time>2026-05-01T08:31:01.979Z</time></trkpt><trkpt lat="39.1536633" lon="16.11983"><ele>255.0</ele><time>2026-05-01T08:31:02.98Z</time></trkpt><trkpt lat="39.1537367" lon="16.1200767"><ele>250.0</ele><time>2026-05-01T08:31:03.98Z</time></trkpt><trkpt lat="39.1538117" lon="16.12033"><ele>245.0</ele><time>2026-05-01T08:31:04.979Z</time></trkpt><trkpt lat="39.1538933" lon="16.1205867"><ele>240.0</ele><time>2026-05-01T08:31:05.98Z</time></trkpt><trkpt lat="39.153965" lon="16.1208367"><ele>251.66666666666669</ele><time>2026-05-01T08:31:06.979Z</time></trkpt><trkpt lat="39.1540417" lon="16.1210917"><ele>263.33333333333337</ele><time>2026-05-01T08:31:07.979Z</time></trkpt><trkpt lat="39.1541133" lon="16.12134"><ele>275.0</ele><time>2026-05-01T08:31:08.979Z</time></trkpt><trkpt lat="39.1541833" lon="16.1215833"><ele>275.0</ele><time>2026-05-01T08:31:09.979Z</time></trkpt><trkpt lat="39.154245" lon="16.1218233"><ele>275.0</ele><time>2026-05-01T08:31:10.98Z</time></trkpt><trkpt lat="39.15431" lon="16.12206"><ele>275.0</ele><time>2026-05-01T08:31:11.979Z</time></trkpt><trkpt lat="39.1543783" lon="16.1222983"><ele>273.0</ele><time>2026-05-01T08:31:12.98Z</time></trkpt><trkpt lat="39.1544333" lon="16.1225367"><ele>271.0</ele><time>2026-05-01T08:31:13.98Z</time></trkpt><trkpt lat="39.1544717" lon="16.1227783"><ele>269.0</ele><time>2026-05-01T08:31:14.98Z</time></trkpt><trkpt lat="39.1545017" lon="16.1230217"><ele>268.33333333333337</ele><time>2026-05-01T08:31:15.979Z</time></trkpt><trkpt lat="39.1545167" lon="16.123265"><ele>267.6666666666667</ele><time>2026-05-01T08:31:16.979Z</time></trkpt><trkpt lat="39.1545383" lon="16.123515"><ele>267.0</ele><time>2026-05-01T08:31:17.98Z</time></trkpt><trkpt lat="39.1545667" lon="16.12377"><ele>267.0</ele><time>2026-05-01T08:31:18.979Z</time></trkpt><trkpt lat="39.1545867" lon="16.12403"><ele>267.0</ele><time>2026-05-01T08:31:19.98Z</time></trkpt><trkpt lat="39.1546067" lon="16.1242867"><ele>267.0</ele><time>2026-05-01T08:31:20.98Z</time></trkpt><trkpt lat="39.15462" lon="16.1245433"><ele>266.3333333333333</ele><time>2026-05-01T08:31:21.979Z</time></trkpt><trkpt lat="39.1546317" lon="16.1248"><ele>265.66666666666663</ele><time>2026-05-01T08:31:22.979Z</time></trkpt><trkpt lat="39.1546433" lon="16.1250617"><ele>265.0</ele><time>2026-05-01T08:31:23.979Z</time></trkpt><trkpt lat="39.1546583" lon="16.1253167"><ele>262.66666666666663</ele><time>2026-05-01T08:31:24.979Z</time></trkpt><trkpt lat="39.1546783" lon="16.1255767"><ele>260.3333333333333</ele><time>2026-05-01T08:31:25.98Z</time></trkpt><trkpt lat="39.1547" lon="16.12583"><ele>258.0</ele><time>2026-05-01T08:31:26.98Z</time></trkpt><trkpt lat="39.15472" lon="16.1260833"><ele>258.0</ele><time>2026-05-01T08:31:27.979Z</time></trkpt><trkpt lat="39.1547567" lon="16.1263233"><ele>258.0</ele><time>2026-05-01T08:31:28.979Z</time></trkpt><trkpt lat="39.1547967" lon="16.126555"><ele>258.0</ele><time>2026-05-01T08:31:29.979Z</time></trkpt><trkpt lat="39.1548767" lon="16.12676"><ele>274.3333333333333</ele><time>2026-05-01T08:31:30.979Z</time></trkpt><trkpt lat="39.1549817" lon="16.1269517"><ele>290.66666666666663</ele><time>2026-05-01T08:31:31.98Z</time></trkpt><trkpt lat="39.1551067" lon="16.1271117"><ele>307.0</ele><time>2026-05-01T08:31:32.979Z</time></trkpt><trkpt lat="39.15525" lon="16.127265"><ele>311.3333333333333</ele><time>2026-05-01T08:31:33.98Z</time></trkpt><trkpt lat="39.1554017" lon="16.127405"><ele>315.6666666666667</ele><time>2026-05-01T08:31:34.98Z</time></trkpt><trkpt lat="39.1555683" lon="16.1275183"><ele>320.0</ele><time>2026-05-01T08:31:35.98Z</time></trkpt><trkpt lat="39.1557517" lon="16.12761"><ele>320.0</ele><time>2026-05-01T08:31:36.98Z</time></trkpt><trkpt lat="39.1559533" lon="16.1276733"><ele>320.0</ele><time>2026-05-01T08:31:37.98Z</time></trkpt><trkpt lat="39.1561467" lon="16.1277283"><ele>320.0</ele><time>2026-05-01T08:31:38.979Z</time></trkpt><trkpt lat="39.1563383" lon="16.1277833"><ele>325.6666666666667</ele><time>2026-05-01T08:31:39.979Z</time></trkpt><trkpt lat="39.15654" lon="16.1278233"><ele>331.3333333333333</ele><time>2026-05-01T08:31:40.979Z</time></trkpt><trkpt lat="39.1567533" lon="16.1278783"><ele>337.0</ele><time>2026-05-01T08:31:41.979Z</time></trkpt><trkpt lat="39.1569283" lon="16.12791"><ele>337.0</ele><time>2026-05-01T08:31:42.979Z</time></trkpt><trkpt lat="39.157105" lon="16.1279567"><ele>337.0</ele><time>2026-05-01T08:31:43.979Z</time></trkpt><trkpt lat="39.15727" lon="16.1280217"><ele>337.0</ele><time>2026-05-01T08:31:44.979Z</time></trkpt><trkpt lat="39.1574333" lon="16.128105"><ele>333.3333333333333</ele><time>2026-05-01T08:31:45.979Z</time></trkpt><trkpt lat="39.1575833" lon="16.1282033"><ele>329.6666666666667</ele><time>2026-05-01T08:31:46.98Z</time></trkpt><trkpt lat="39.15772" lon="16.1283383"><ele>326.0</ele><time>2026-05-01T08:31:47.98Z</time></trkpt><trkpt lat="39.1578617" lon="16.1284917"><ele>326.0</ele><time>2026-05-01T08:31:48.979Z</time></trkpt><trkpt lat="39.1579783" lon="16.1286633"><ele>326.0</ele><time>2026-05-01T08:31:49.979Z</time></trkpt><trkpt lat="39.1580883" lon="16.1288367"><ele>326.0</ele><time>2026-05-01T08:31:50.98Z</time></trkpt><trkpt lat="39.1581833" lon="16.1290233"><ele>325.33333333333337</ele><time>2026-05-01T08:31:51.98Z</time></trkpt><trkpt lat="39.1582583" lon="16.1292317"><ele>324.6666666666667</ele><time>2026-05-01T08:31:52.979Z</time></trkpt><trkpt lat="39.1583183" lon="16.1294417"><ele>324.0</ele><time>2026-05-01T08:31:53.979Z</time></trkpt><trkpt lat="39.1583517" lon="16.1296667"><ele>324.6666666666667</ele><time>2026-05-01T08:31:54.98Z</time></trkpt><trkpt lat="39.1583667" lon="16.1298967"><ele>325.33333333333337</ele><time>2026-05-01T08:31:55.979Z</time></trkpt><trkpt lat="39.1583633" lon="16.13013"><ele>326.0</ele><time>2026-05-01T08:31:56.979Z</time></trkpt><trkpt lat="39.1583317" lon="16.1303667"><ele>326.0</ele><time>2026-05-01T08:31:57.98Z</time></trkpt><trkpt lat="39.15829" lon="16.1306083"><ele>326.0</ele><time>2026-05-01T08:31:58.979Z</time></trkpt><trkpt lat="39.158235" lon="16.1308383"><ele>326.0</ele><time>2026-05-01T08:31:59.98Z</time></trkpt><trkpt lat="39.1581583" lon="16.13107"><ele>324.6666666666667</ele><time>2026-05-01T08:32:00.98Z</time></trkpt><trkpt lat="39.15808" lon="16.1313133"><ele>323.3333333333333</ele><time>2026-05-01T08:32:01.979Z</time></trkpt><trkpt lat="39.1580017" lon="16.1315433"><ele>322.0</ele><time>2026-05-01T08:32:02.979Z</time></trkpt><trkpt lat="39.15793" lon="16.1317817"><ele>322.0</ele><time>2026-05-01T08:32:03.979Z</time></trkpt><trkpt lat="39.1578583" lon="16.1320233"><ele>322.0</ele><time>2026-05-01T08:32:04.979Z</time></trkpt><trkpt lat="39.1577917" lon="16.1322683"><ele>322.0</ele><time>2026-05-01T08:32:05.979Z</time></trkpt><trkpt lat="39.1577383" lon="16.1324983"><ele>326.66666666666663</ele><time>2026-05-01T08:32:06.979Z</time></trkpt><trkpt lat="39.1576833" lon="16.1327267"><ele>331.3333333333333</ele><time>2026-05-01T08:32:07.98Z</time></trkpt><trkpt lat="39.1576533" lon="16.132955"><ele>336.0</ele><time>2026-05-01T08:32:08.979Z</time></trkpt><trkpt lat="39.1576517" lon="16.133195"><ele>338.3333333333333</ele><time>2026-05-01T08:32:09.979Z</time></trkpt><trkpt lat="39.157685" lon="16.1334533"><ele>340.66666666666663</ele><time>2026-05-01T08:32:10.98Z</time></trkpt><trkpt lat="39.1577467" lon="16.13369"><ele>343.0</ele><time>2026-05-01T08:32:11.979Z</time></trkpt><trkpt lat="39.1578267" lon="16.13392"><ele>339.0</ele><time>2026-05-01T08:32:12.979Z</time></trkpt><trkpt lat="39.1579217" lon="16.1341283"><ele>335.0</ele><time>2026-05-01T08:32:13.979Z</time></trkpt><trkpt lat="39.1580417" lon="16.13432"><ele>331.0</ele><time>2026-05-01T08:32:14.979Z</time></trkpt><trkpt lat="39.1581717" lon="16.134505"><ele>340.0</ele><time>2026-05-01T08:32:15.979Z</time></trkpt><trkpt lat="39.1583117" lon="16.13468"><ele>349.0</ele><time>2026-05-01T08:32:16.979Z</time></trkpt><trkpt lat="39.15846" lon="16.134865"><ele>358.0</ele><time>2026-05-01T08:32:17.979Z</time></trkpt><trkpt lat="39.15861" lon="16.135035"><ele>358.0</ele><time>2026-05-01T08:32:18.979Z</time></trkpt><trkpt lat="39.1587583" lon="16.1351983"><ele>358.0</ele><time>2026-05-01T08:32:19.98Z</time></trkpt><trkpt lat="39.1589" lon="16.135355"><ele>358.0</ele><time>2026-05-01T08:32:20.979Z</time></trkpt><trkpt lat="39.159055" lon="16.1354867"><ele>358.66666666666663</ele><time>2026-05-01T08:32:21.979Z</time></trkpt><trkpt lat="39.1592283" lon="16.135595"><ele>359.3333333333333</ele><time>2026-05-01T08:32:22.979Z</time></trkpt><trkpt lat="39.1594117" lon="16.1357017"><ele>360.0</ele><time>2026-05-01T08:32:23.979Z</time></trkpt><trkpt lat="39.159605" lon="16.1358033"><ele>360.0</ele><time>2026-05-01T08:32:24.979Z</time></trkpt><trkpt lat="39.15981" lon="16.1358983"><ele>360.0</ele><time>2026-05-01T08:32:25.98Z</time></trkpt><trkpt lat="39.1600167" lon="16.1359933"><ele>360.0</ele><time>2026-05-01T08:32:26.98Z</time></trkpt><trkpt lat="39.1602167" lon="16.1360833"><ele>365.6666666666667</ele><time>2026-05-01T08:32:27.98Z</time></trkpt><trkpt lat="39.1604233" lon="16.1361667"><ele>371.33333333333337</ele><time>2026-05-01T08:32:28.979Z</time></trkpt><trkpt lat="39.16063" lon="16.1362583"><ele>377.0</ele><time>2026-05-01T08:32:29.98Z</time></trkpt><trkpt lat="39.1608333" lon="16.1363583"><ele>375.0</ele><time>2026-05-01T08:32:30.979Z</time></trkpt><trkpt lat="39.1610533" lon="16.1364617"><ele>373.0</ele><time>2026-05-01T08:32:31.979Z</time></trkpt><trkpt lat="39.1612683" lon="16.1365683"><ele>373.0</ele><time>2026-05-01T08:32:32.979Z</time></trkpt><trkpt lat="39.1614733" lon="16.1366783"><ele>373.0</ele><time>2026-05-01T08:32:33.98Z</time></trkpt><trkpt lat="39.1616767" lon="16.1367767"><ele>373.0</ele><time>2026-05-01T08:32:34.979Z</time></trkpt><trkpt lat="39.1618783" lon="16.1368733"><ele>380.3333333333333</ele><time>2026-05-01T08:32:35.98Z</time></trkpt><trkpt lat="39.162075" lon="16.1369667"><ele>387.66666666666663</ele><time>2026-05-01T08:32:36.98Z</time></trkpt><trkpt lat="39.16228" lon="16.137035"><ele>395.0</ele><time>2026-05-01T08:32:37.979Z</time></trkpt><trkpt lat="39.1624917" lon="16.13709"><ele>404.0</ele><time>2026-05-01T08:32:38.98Z</time></trkpt><trkpt lat="39.1627117" lon="16.1371317"><ele>413.0</ele><time>2026-05-01T08:32:39.979Z</time></trkpt><trkpt lat="39.16294" lon="16.1371633"><ele>413.0</ele><time>2026-05-01T08:32:40.98Z</time></trkpt><trkpt lat="39.1631633" lon="16.1372"><ele>413.0</ele><time>2026-05-01T08:32:41.979Z</time></trkpt><trkpt lat="39.163395" lon="16.1372417"><ele>418.0</ele><time>2026-05-01T08:32:42.98Z</time></trkpt><trkpt lat="39.1636183" lon="16.1372917"><ele>423.0</ele><time>2026-05-01T08:32:43.979Z</time></trkpt><trkpt lat="39.16385" lon="16.137345"><ele>414.0</ele><time>2026-05-01T08:32:44.979Z</time></trkpt><trkpt lat="39.16408" lon="16.13739"><ele>405.0</ele><time>2026-05-01T08:32:45.979Z</time></trkpt><trkpt lat="39.164315" lon="16.1374283"><ele>405.0</ele><time>2026-05-01T08:32:46.98Z</time></trkpt><trkpt lat="39.164535" lon="16.1374667"><ele>405.0</ele><time>2026-05-01T08:32:47.98Z</time></trkpt><trkpt lat="39.1647567" lon="16.1374967"><ele>405.0</ele><time>2026-05-01T08:32:48.979Z</time></trkpt><trkpt lat="39.1649667" lon="16.1375117"><ele>407.66666666666663</ele><time>2026-05-01T08:32:49.979Z</time></trkpt><trkpt lat="39.1651733" lon="16.137505"><ele>410.3333333333333</ele><time>2026-05-01T08:32:50.98Z</time></trkpt><trkpt lat="39.16538" lon="16.1374767"><ele>413.0</ele><time>2026-05-01T08:32:51.979Z</time></trkpt><trkpt lat="39.16558" lon="16.13745"><ele>412.66666666666663</ele><time>2026-05-01T08:32:52.98Z</time></trkpt><trkpt lat="39.16577" lon="16.1374117"><ele>412.33333333333337</ele><time>2026-05-01T08:32:53.979Z</time></trkpt><trkpt lat="39.1659583" lon="16.13738"><ele>412.0</ele><time>2026-05-01T08:32:54.98Z</time></trkpt><trkpt lat="39.1661533" lon="16.13735"><ele>421.33333333333337</ele><time>2026-05-01T08:32:55.979Z</time></trkpt><trkpt lat="39.16634" lon="16.1373367"><ele>430.66666666666663</ele><time>2026-05-01T08:32:56.979Z</time></trkpt><trkpt lat="39.1665367" lon="16.1373483"><ele>440.0</ele><time>2026-05-01T08:32:57.98Z</time></trkpt><trkpt lat="39.1667183" lon="16.1373817"><ele>432.0</ele><time>2026-05-01T08:32:58.979Z</time></trkpt><trkpt lat="39.1668983" lon="16.13742"><ele>424.0</ele><time>2026-05-01T08:32:59.979Z</time></trkpt><trkpt lat="39.1670783" lon="16.1374383"><ele>416.0</ele><time>2026-05-01T08:33:00.979Z</time></trkpt><trkpt lat="39.1672583" lon="16.1374733"><ele>420.0</ele><time>2026-05-01T08:33:01.979Z</time></trkpt><trkpt lat="39.1674417" lon="16.1374883"><ele>424.0</ele><time>2026-05-01T08:33:02.98Z</time></trkpt><trkpt lat="39.167625" lon="16.1374983"><ele>428.0</ele><time>2026-05-01T08:33:03.979Z</time></trkpt><trkpt lat="39.1678017" lon="16.1375033"><ele>428.0</ele><time>2026-05-01T08:33:04.979Z</time></trkpt><trkpt lat="39.1679767" lon="16.1375017"><ele>428.0</ele><time>2026-05-01T08:33:05.979Z</time></trkpt><trkpt lat="39.1681467" lon="16.137505"><ele>428.0</ele><time>2026-05-01T08:33:06.979Z</time></trkpt><trkpt lat="39.16831" lon="16.1374733"><ele>429.66666666666663</ele><time>2026-05-01T08:33:07.979Z</time></trkpt><trkpt lat="39.1684883" lon="16.1374617"><ele>431.33333333333337</ele><time>2026-05-01T08:33:08.979Z</time></trkpt><trkpt lat="39.1686717" lon="16.137445"><ele>433.0</ele><time>2026-05-01T08:33:09.98Z</time></trkpt><trkpt lat="39.168855" lon="16.1374433"><ele>433.0</ele><time>2026-05-01T08:33:10.98Z</time></trkpt><trkpt lat="39.16904" lon="16.1374317"><ele>433.0</ele><time>2026-05-01T08:33:11.979Z</time></trkpt><trkpt lat="39.16925" lon="16.1374267"><ele>433.0</ele><time>2026-05-01T08:33:12.979Z</time></trkpt><trkpt lat="39.16948" lon="16.13742"><ele>433.0</ele><time>2026-05-01T08:33:13.98Z</time></trkpt><trkpt lat="39.1697217" lon="16.137425"><ele>433.0</ele><time>2026-05-01T08:33:14.979Z</time></trkpt><trkpt lat="39.16996" lon="16.137435"><ele>435.0</ele><time>2026-05-01T08:33:15.979Z</time></trkpt><trkpt lat="39.1702233" lon="16.1374417"><ele>437.0</ele><time>2026-05-01T08:33:16.979Z</time></trkpt><trkpt lat="39.170485" lon="16.1374617"><ele>443.5</ele><time>2026-05-01T08:33:17.979Z</time></trkpt><trkpt lat="39.17075" lon="16.1374733"><ele>450.0</ele><time>2026-05-01T08:33:18.979Z</time></trkpt><trkpt lat="39.1710083" lon="16.1374783"><ele>450.0</ele><time>2026-05-01T08:33:19.979Z</time></trkpt><trkpt lat="39.1712683" lon="16.13747"><ele>450.0</ele><time>2026-05-01T08:33:20.979Z</time></trkpt><trkpt lat="39.1715267" lon="16.137475"><ele>454.5</ele><time>2026-05-01T08:33:21.98Z</time></trkpt><trkpt lat="39.171785" lon="16.1374783"><ele>459.0</ele><time>2026-05-01T08:33:22.98Z</time></trkpt><trkpt lat="39.1720367" lon="16.1374967"><ele>459.0</ele><time>2026-05-01T08:33:23.979Z</time></trkpt><trkpt lat="39.17221" lon="16.1376383"><ele>459.0</ele><time>2026-05-01T08:33:24.979Z</time></trkpt><trkpt lat="39.17238" lon="16.137755"><ele>459.0</ele><time>2026-05-01T08:33:25.979Z</time></trkpt><trkpt lat="39.172515" lon="16.137925"><ele>456.33333333333337</ele><time>2026-05-01T08:33:26.979Z</time></trkpt><trkpt lat="39.17266" lon="16.138115"><ele>453.6666666666667</ele><time>2026-05-01T08:33:27.979Z</time></trkpt><trkpt lat="39.1728033" lon="16.1383217"><ele>451.0</ele><time>2026-05-01T08:33:28.979Z</time></trkpt><trkpt lat="39.1729417" lon="16.1385533"><ele>451.0</ele><time>2026-05-01T08:33:29.979Z</time></trkpt><trkpt lat="39.1730633" lon="16.1387917"><ele>451.0</ele><time>2026-05-01T08:33:30.98Z</time></trkpt><trkpt lat="39.17317" lon="16.1390317"><ele>451.0</ele><time>2026-05-01T08:33:31.98Z</time></trkpt><trkpt lat="39.173275" lon="16.1392533"><ele>458.0</ele><time>2026-05-01T08:33:32.979Z</time></trkpt><trkpt lat="39.173385" lon="16.1394667"><ele>465.0</ele><time>2026-05-01T08:33:33.979Z</time></trkpt><trkpt lat="39.1735033" lon="16.1396583"><ele>472.0</ele><time>2026-05-01T08:33:34.979Z</time></trkpt><trkpt lat="39.173615" lon="16.139845"><ele>469.33333333333337</ele><time>2026-05-01T08:33:35.98Z</time></trkpt><trkpt lat="39.173725" lon="16.1400233"><ele>466.66666666666663</ele><time>2026-05-01T08:33:36.979Z</time></trkpt><trkpt lat="39.1738533" lon="16.1401967"><ele>464.0</ele><time>2026-05-01T08:33:37.979Z</time></trkpt><trkpt lat="39.1739883" lon="16.1403717"><ele>466.3333333333333</ele><time>2026-05-01T08:33:38.979Z</time></trkpt><trkpt lat="39.1741167" lon="16.1405517"><ele>468.66666666666663</ele><time>2026-05-01T08:33:39.98Z</time></trkpt><trkpt lat="39.1742567" lon="16.1407383"><ele>471.0</ele><time>2026-05-01T08:33:40.979Z</time></trkpt><trkpt lat="39.174405" lon="16.1408867"><ele>471.0</ele><time>2026-05-01T08:33:41.98Z</time></trkpt><trkpt lat="39.1746517" lon="16.1409217"><ele>471.0</ele><time>2026-05-01T08:33:42.979Z</time></trkpt><trkpt lat="39.174895" lon="16.1409817"><ele>472.66666666666663</ele><time>2026-05-01T08:33:43.979Z</time></trkpt><trkpt lat="39.175085" lon="16.1411083"><ele>474.3333333333333</ele><time>2026-05-01T08:33:44.979Z</time></trkpt><trkpt lat="39.1752417" lon="16.1412683"><ele>476.0</ele><time>2026-05-01T08:33:45.979Z</time></trkpt><trkpt lat="39.1753733" lon="16.141445"><ele>470.0</ele><time>2026-05-01T08:33:46.98Z</time></trkpt><trkpt lat="39.1754933" lon="16.14164"><ele>464.0</ele><time>2026-05-01T08:33:47.979Z</time></trkpt><trkpt lat="39.1755833" lon="16.1418567"><ele>458.0</ele><time>2026-05-01T08:33:48.979Z</time></trkpt><trkpt lat="39.17564" lon="16.1420833"><ele>458.0</ele><time>2026-05-01T08:33:49.979Z</time></trkpt><trkpt lat="39.1756817" lon="16.142325"><ele>458.0</ele><time>2026-05-01T08:33:50.979Z</time></trkpt><trkpt lat="39.1757067" lon="16.1425817"><ele>458.0</ele><time>2026-05-01T08:33:51.979Z</time></trkpt><trkpt lat="39.175715" lon="16.142835"><ele>458.0</ele><time>2026-05-01T08:33:52.979Z</time></trkpt><trkpt lat="39.1756933" lon="16.143085"><ele>458.0</ele><time>2026-05-01T08:33:53.979Z</time></trkpt><trkpt lat="39.1756467" lon="16.1433317"><ele>458.0</ele><time>2026-05-01T08:33:54.98Z</time></trkpt><trkpt lat="39.1755817" lon="16.143575"><ele>458.0</ele><time>2026-05-01T08:33:55.979Z</time></trkpt><trkpt lat="39.175495" lon="16.1438067"><ele>458.0</ele><time>2026-05-01T08:33:56.979Z</time></trkpt><trkpt lat="39.17539" lon="16.144025"><ele>458.0</ele><time>2026-05-01T08:33:57.979Z</time></trkpt><trkpt lat="39.175265" lon="16.1442333"><ele>461.3333333333333</ele><time>2026-05-01T08:33:58.979Z</time></trkpt><trkpt lat="39.1751217" lon="16.14443"><ele>464.66666666666663</ele><time>2026-05-01T08:33:59.979Z</time></trkpt><trkpt lat="39.1749667" lon="16.144615"><ele>468.0</ele><time>2026-05-01T08:34:00.979Z</time></trkpt><trkpt lat="39.1748083" lon="16.1447867"><ele>477.66666666666663</ele><time>2026-05-01T08:34:01.98Z</time></trkpt><trkpt lat="39.1746667" lon="16.1449567"><ele>487.3333333333333</ele><time>2026-05-01T08:34:02.979Z</time></trkpt><trkpt lat="39.1745083" lon="16.1451333"><ele>497.0</ele><time>2026-05-01T08:34:03.979Z</time></trkpt><trkpt lat="39.1743533" lon="16.1453233"><ele>497.0</ele><time>2026-05-01T08:34:04.979Z</time></trkpt><trkpt lat="39.1741933" lon="16.145505"><ele>497.0</ele><time>2026-05-01T08:34:05.979Z</time></trkpt><trkpt lat="39.1740167" lon="16.14567"><ele>497.0</ele><time>2026-05-01T08:34:06.979Z</time></trkpt><trkpt lat="39.173825" lon="16.1458083"><ele>500.0</ele><time>2026-05-01T08:34:07.98Z</time></trkpt><trkpt lat="39.1736383" lon="16.1459283"><ele>503.0</ele><time>2026-05-01T08:34:08.979Z</time></trkpt><trkpt lat="39.17344" lon="16.1459883"><ele>506.0</ele><time>2026-05-01T08:34:09.979Z</time></trkpt><trkpt lat="39.1732283" lon="16.1460283"><ele>508.3333333333333</ele><time>2026-05-01T08:34:10.979Z</time></trkpt><trkpt lat="39.173015" lon="16.1460583"><ele>510.66666666666663</ele><time>2026-05-01T08:34:11.979Z</time></trkpt><trkpt lat="39.1727967" lon="16.1460833"><ele>513.0</ele><time>2026-05-01T08:34:12.979Z</time></trkpt><trkpt lat="39.1725767" lon="16.146115"><ele>515.0</ele><time>2026-05-01T08:34:13.98Z</time></trkpt><trkpt lat="39.1723533" lon="16.1461517"><ele>517.0</ele><time>2026-05-01T08:34:14.98Z</time></trkpt><trkpt lat="39.1721333" lon="16.1461933"><ele>519.0</ele><time>2026-05-01T08:34:15.98Z</time></trkpt><trkpt lat="39.1719133" lon="16.146245"><ele>519.0</ele><time>2026-05-01T08:34:16.979Z</time></trkpt><trkpt lat="39.1716917" lon="16.1463183"><ele>519.0</ele><time>2026-05-01T08:34:17.979Z</time></trkpt><trkpt lat="39.1714933" lon="16.1463867"><ele>519.0</ele><time>2026-05-01T08:34:18.979Z</time></trkpt><trkpt lat="39.1713033" lon="16.14648"><ele>521.3333333333334</ele><time>2026-05-01T08:34:19.98Z</time></trkpt><trkpt lat="39.1711233" lon="16.1465767"><ele>523.6666666666667</ele><time>2026-05-01T08:34:20.979Z</time></trkpt><trkpt lat="39.17095" lon="16.146685"><ele>526.0</ele><time>2026-05-01T08:34:21.98Z</time></trkpt><trkpt lat="39.1707783" lon="16.1467933"><ele>521.3333333333334</ele><time>2026-05-01T08:34:22.98Z</time></trkpt><trkpt lat="39.17061" lon="16.1469233"><ele>516.6666666666666</ele><time>2026-05-01T08:34:23.98Z</time></trkpt><trkpt lat="39.1704367" lon="16.14706"><ele>512.0</ele><time>2026-05-01T08:34:24.98Z</time></trkpt><trkpt lat="39.1702633" lon="16.1472067"><ele>512.0</ele><time>2026-05-01T08:34:25.979Z</time></trkpt><trkpt lat="39.1700933" lon="16.1473617"><ele>512.0</ele><time>2026-05-01T08:34:26.98Z</time></trkpt><trkpt lat="39.1699117" lon="16.1475283"><ele>512.0</ele><time>2026-05-01T08:34:27.979Z</time></trkpt><trkpt lat="39.1697383" lon="16.147695"><ele>513.3333333333333</ele><time>2026-05-01T08:34:28.98Z</time></trkpt><trkpt lat="39.1695783" lon="16.1478617"><ele>514.6666666666666</ele><time>2026-05-01T08:34:29.98Z</time></trkpt><trkpt lat="39.1694317" lon="16.1480233"><ele>516.0</ele><time>2026-05-01T08:34:30.98Z</time></trkpt><trkpt lat="39.1693033" lon="16.1482067"><ele>513.0</ele><time>2026-05-01T08:34:31.979Z</time></trkpt><trkpt lat="39.169195" lon="16.1483967"><ele>510.0</ele><time>2026-05-01T08:34:32.979Z</time></trkpt><trkpt lat="39.1690833" lon="16.1486033"><ele>507.0</ele><time>2026-05-01T08:34:33.979Z</time></trkpt><trkpt lat="39.1689917" lon="16.1488267"><ele>510.0</ele><time>2026-05-01T08:34:34.979Z</time></trkpt><trkpt lat="39.1688917" lon="16.149055"><ele>513.0</ele><time>2026-05-01T08:34:35.979Z</time></trkpt><trkpt lat="39.16881" lon="16.1493017"><ele>516.0</ele><time>2026-05-01T08:34:36.979Z</time></trkpt><trkpt lat="39.1687367" lon="16.1495533"><ele>516.0</ele><time>2026-05-01T08:34:37.979Z</time></trkpt><trkpt lat="39.1686633" lon="16.14981"><ele>516.0</ele><time>2026-05-01T08:34:38.979Z</time></trkpt><trkpt lat="39.1685833" lon="16.1500783"><ele>516.0</ele><time>2026-05-01T08:34:39.979Z</time></trkpt><trkpt lat="39.1685083" lon="16.1503467"><ele>517.5</ele><time>2026-05-01T08:34:40.979Z</time></trkpt><trkpt lat="39.1684417" lon="16.1506283"><ele>519.0</ele><time>2026-05-01T08:34:41.979Z</time></trkpt><trkpt lat="39.168365" lon="16.1509"><ele>522.0</ele><time>2026-05-01T08:34:42.979Z</time></trkpt><trkpt lat="39.1682867" lon="16.151165"><ele>525.0</ele><time>2026-05-01T08:34:43.98Z</time></trkpt><trkpt lat="39.1682117" lon="16.1514183"><ele>528.0</ele><time>2026-05-01T08:34:44.979Z</time></trkpt><trkpt lat="39.16814" lon="16.15168"><ele>521.0</ele><time>2026-05-01T08:34:45.979Z</time></trkpt><trkpt lat="39.16807" lon="16.1519367"><ele>514.0</ele><time>2026-05-01T08:34:46.979Z</time></trkpt><trkpt lat="39.1679967" lon="16.1521933"><ele>507.0</ele><time>2026-05-01T08:34:47.979Z</time></trkpt><trkpt lat="39.1679267" lon="16.1524583"><ele>506.0</ele><time>2026-05-01T08:34:48.979Z</time></trkpt><trkpt lat="39.1678517" lon="16.1527017"><ele>505.0</ele><time>2026-05-01T08:34:49.979Z</time></trkpt><trkpt lat="39.1677767" lon="16.15294"><ele>504.0</ele><time>2026-05-01T08:34:50.98Z</time></trkpt><trkpt lat="39.1676833" lon="16.15318"><ele>509.66666666666663</ele><time>2026-05-01T08:34:51.98Z</time></trkpt><trkpt lat="39.16757" lon="16.1533983"><ele>515.3333333333333</ele><time>2026-05-01T08:34:52.979Z</time></trkpt><trkpt lat="39.1674467" lon="16.15361"><ele>521.0</ele><time>2026-05-01T08:34:53.979Z</time></trkpt><trkpt lat="39.167305" lon="16.1538167"><ele>521.0</ele><time>2026-05-01T08:34:54.979Z</time></trkpt><trkpt lat="39.1671483" lon="16.15401"><ele>521.0</ele><time>2026-05-01T08:34:55.979Z</time></trkpt><trkpt lat="39.1669917" lon="16.15419"><ele>521.0</ele><time>2026-05-01T08:34:56.979Z</time></trkpt><trkpt lat="39.1668217" lon="16.1543517"><ele>524.3333333333333</ele><time>2026-05-01T08:34:57.979Z</time></trkpt><trkpt lat="39.1666533" lon="16.154495"><ele>527.6666666666666</ele><time>2026-05-01T08:34:58.98Z</time></trkpt><trkpt lat="39.1664783" lon="16.1546017"><ele>531.0</ele><time>2026-05-01T08:34:59.979Z</time></trkpt><trkpt lat="39.1663067" lon="16.1546883"><ele>531.0</ele><time>2026-05-01T08:35:00.979Z</time></trkpt><trkpt lat="39.1661433" lon="16.1547717"><ele>531.0</ele><time>2026-05-01T08:35:01.98Z</time></trkpt><trkpt lat="39.1659883" lon="16.1548467"><ele>531.0</ele><time>2026-05-01T08:35:02.979Z</time></trkpt><trkpt lat="39.165845" lon="16.1549183"><ele>535.5</ele><time>2026-05-01T08:35:03.979Z</time></trkpt><trkpt lat="39.165705" lon="16.1549717"><ele>540.0</ele><time>2026-05-01T08:35:04.979Z</time></trkpt><trkpt lat="39.165575" lon="16.15503"><ele>544.5</ele><time>2026-05-01T08:35:05.979Z</time></trkpt><trkpt lat="39.16545" lon="16.155095"><ele>549.0</ele><time>2026-05-01T08:35:06.979Z</time></trkpt><trkpt lat="39.1653317" lon="16.1551533"><ele>549.0</ele><time>2026-05-01T08:35:07.98Z</time></trkpt><trkpt lat="39.165205" lon="16.1552067"><ele>549.0</ele><time>2026-05-01T08:35:08.979Z</time></trkpt><trkpt lat="39.1650933" lon="16.1552667"><ele>549.0</ele><time>2026-05-01T08:35:09.979Z</time></trkpt><trkpt lat="39.1649917" lon="16.1553217"><ele>549.0</ele><time>2026-05-01T08:35:10.979Z</time></trkpt><trkpt lat="39.1649" lon="16.15536"><ele>547.7142857142857</ele><time>2026-05-01T08:35:11.979Z</time></trkpt><trkpt lat="39.1648217" lon="16.155395"><ele>546.4285714285714</ele><time>2026-05-01T08:35:12.979Z</time></trkpt><trkpt lat="39.1647483" lon="16.15543"><ele>545.1428571428571</ele><time>2026-05-01T08:35:13.98Z</time></trkpt><trkpt lat="39.1646717" lon="16.1554583"><ele>543.8571428571429</ele><time>2026-05-01T08:35:14.979Z</time></trkpt><trkpt lat="39.164605" lon="16.15549"><ele>542.5714285714286</ele><time>2026-05-01T08:35:15.98Z</time></trkpt><trkpt lat="39.1645367" lon="16.1555267"><ele>541.2857142857142</ele><time>2026-05-01T08:35:16.979Z</time></trkpt><trkpt lat="39.1644767" lon="16.1555517"><ele>540.0</ele><time>2026-05-01T08:35:17.979Z</time></trkpt><trkpt lat="39.16442" lon="16.1555883"><ele>540.0</ele><time>2026-05-01T08:35:18.98Z</time></trkpt><trkpt lat="39.1643117" lon="16.155645"><ele>540.0</ele><time>2026-05-01T08:35:20.979Z</time></trkpt><trkpt lat="39.1642033" lon="16.1557033"><ele>540.0</ele><time>2026-05-01T08:35:22.979Z</time></trkpt><trkpt lat="39.1641033" lon="16.15575"><ele>540.0</ele><time>2026-05-01T08:35:24.979Z</time></trkpt><trkpt lat="39.1640233" lon="16.1557733"><ele>540.0</ele><time>2026-05-01T08:35:26.979Z</time></trkpt><trkpt lat="39.16394" lon="16.1558067"><ele>545.4</ele><time>2026-05-01T08:35:28.979Z</time></trkpt><trkpt lat="39.163865" lon="16.1558683"><ele>550.8</ele><time>2026-05-01T08:35:30.979Z</time></trkpt><trkpt lat="39.1638133" lon="16.15594"><ele>556.2</ele><time>2026-05-01T08:35:32.98Z</time></trkpt><trkpt lat="39.16382" lon="16.1560567"><ele>561.6</ele><time>2026-05-01T08:35:34.98Z</time></trkpt><trkpt lat="39.1638983" lon="16.156145"><ele>567.0</ele><time>2026-05-01T08:35:36.979Z</time></trkpt><trkpt lat="39.164005" lon="16.15619"><ele>565.5</ele><time>2026-05-01T08:35:38.979Z</time></trkpt><trkpt lat="39.1640667" lon="16.1562133"><ele>564.0</ele><time>2026-05-01T08:35:39.98Z</time></trkpt><trkpt lat="39.1641417" lon="16.1562367"><ele>562.5</ele><time>2026-05-01T08:35:40.979Z</time></trkpt><trkpt lat="39.1642367" lon="16.1562617"><ele>561.0</ele><time>2026-05-01T08:35:41.979Z</time></trkpt><trkpt lat="39.1643233" lon="16.1562883"><ele>559.5</ele><time>2026-05-01T08:35:42.979Z</time></trkpt><trkpt lat="39.1643967" lon="16.1563183"><ele>558.0</ele><time>2026-05-01T08:35:43.979Z</time></trkpt><trkpt lat="39.164475" lon="16.1563267"><ele>558.0</ele><time>2026-05-01T08:35:44.979Z</time></trkpt><trkpt lat="39.1645567" lon="16.1562917"><ele>558.0</ele><time>2026-05-01T08:35:45.979Z</time></trkpt><trkpt lat="39.1646417" lon="16.1562367"><ele>558.0</ele><time>2026-05-01T08:35:46.98Z</time></trkpt><trkpt lat="39.1647267" lon="16.1561583"><ele>558.0</ele><time>2026-05-01T08:35:47.979Z</time></trkpt><trkpt lat="39.1648183" lon="16.1560433"><ele>558.0</ele><time>2026-05-01T08:35:48.979Z</time></trkpt><trkpt lat="39.1649167" lon="16.15593"><ele>559.8</ele><time>2026-05-01T08:35:49.979Z</time></trkpt><trkpt lat="39.1650183" lon="16.1558383"><ele>561.5999999999999</ele><time>2026-05-01T08:35:50.98Z</time></trkpt><trkpt lat="39.165115" lon="16.15577"><ele>563.4000000000001</ele><time>2026-05-01T08:35:51.98Z</time></trkpt><trkpt lat="39.1651967" lon="16.1557133"><ele>565.2</ele><time>2026-05-01T08:35:52.979Z</time></trkpt><trkpt lat="39.1652817" lon="16.155695"><ele>567.0</ele><time>2026-05-01T08:35:53.98Z</time></trkpt><trkpt lat="39.1653767" lon="16.1557017"><ele>567.0</ele><time>2026-05-01T08:35:54.979Z</time></trkpt><trkpt lat="39.165485" lon="16.1557183"><ele>567.0</ele><time>2026-05-01T08:35:55.979Z</time></trkpt><trkpt lat="39.165595" lon="16.1557333"><ele>567.0</ele><time>2026-05-01T08:35:56.98Z</time></trkpt><trkpt lat="39.1657217" lon="16.1557533"><ele>567.0</ele><time>2026-05-01T08:35:57.979Z</time></trkpt><trkpt lat="39.1658417" lon="16.15577"><ele>568.5</ele><time>2026-05-01T08:35:58.98Z</time></trkpt><trkpt lat="39.1659667" lon="16.1557867"><ele>570.0</ele><time>2026-05-01T08:35:59.979Z</time></trkpt><trkpt lat="39.1660983" lon="16.1557967"><ele>571.5</ele><time>2026-05-01T08:36:00.979Z</time></trkpt><trkpt lat="39.166225" lon="16.15581"><ele>573.0</ele><time>2026-05-01T08:36:01.979Z</time></trkpt><trkpt lat="39.1663517" lon="16.1558467"><ele>573.0</ele><time>2026-05-01T08:36:02.979Z</time></trkpt><trkpt lat="39.166475" lon="16.1559033"><ele>573.0</ele><time>2026-05-01T08:36:03.979Z</time></trkpt><trkpt lat="39.1666033" lon="16.155965"><ele>573.0</ele><time>2026-05-01T08:36:04.979Z</time></trkpt><trkpt lat="39.1667167" lon="16.1560467"><ele>573.0</ele><time>2026-05-01T08:36:05.98Z</time></trkpt><trkpt lat="39.16682" lon="16.156145"><ele>574.0</ele><time>2026-05-01T08:36:06.979Z</time></trkpt><trkpt lat="39.1669217" lon="16.1562567"><ele>575.0</ele><time>2026-05-01T08:36:07.979Z</time></trkpt><trkpt lat="39.167025" lon="16.156335"><ele>576.0</ele><time>2026-05-01T08:36:08.979Z</time></trkpt><trkpt lat="39.16712" lon="16.15642"><ele>577.0</ele><time>2026-05-01T08:36:09.979Z</time></trkpt><trkpt lat="39.1672183" lon="16.1565067"><ele>577.6</ele><time>2026-05-01T08:36:10.979Z</time></trkpt><trkpt lat="39.1673" lon="16.1566067"><ele>578.2</ele><time>2026-05-01T08:36:11.98Z</time></trkpt><trkpt lat="39.1673667" lon="16.1567033"><ele>578.8</ele><time>2026-05-01T08:36:12.979Z</time></trkpt><trkpt lat="39.16742" lon="16.1567883"><ele>579.4</ele><time>2026-05-01T08:36:13.979Z</time></trkpt><trkpt lat="39.16745" lon="16.1568683"><ele>580.0</ele><time>2026-05-01T08:36:14.98Z</time></trkpt><trkpt lat="39.167445" lon="16.1570067"><ele>581.8</ele><time>2026-05-01T08:36:16.98Z</time></trkpt><trkpt lat="39.167335" lon="16.1570067"><ele>583.6</ele><time>2026-05-01T08:36:18.979Z</time></trkpt><trkpt lat="39.1672783" lon="16.1569517"><ele>585.4</ele><time>2026-05-01T08:36:19.979Z</time></trkpt><trkpt lat="39.16721" lon="16.1568717"><ele>587.2</ele><time>2026-05-01T08:36:20.98Z</time></trkpt><trkpt lat="39.167125" lon="16.156795"><ele>589.0</ele><time>2026-05-01T08:36:21.979Z</time></trkpt><trkpt lat="39.1670333" lon="16.156745"><ele>589.0</ele><time>2026-05-01T08:36:22.979Z</time></trkpt><trkpt lat="39.16693" lon="16.15672"><ele>589.0</ele><time>2026-05-01T08:36:23.98Z</time></trkpt><trkpt lat="39.1668283" lon="16.1567183"><ele>589.0</ele><time>2026-05-01T08:36:24.979Z</time></trkpt><trkpt lat="39.1667267" lon="16.1567283"><ele>589.0</ele><time>2026-05-01T08:36:25.979Z</time></trkpt><trkpt lat="39.166605" lon="16.1567417"><ele>589.0</ele><time>2026-05-01T08:36:26.979Z</time></trkpt><trkpt lat="39.1664817" lon="16.1567633"><ele>589.25</ele><time>2026-05-01T08:36:27.98Z</time></trkpt><trkpt lat="39.1663683" lon="16.1567783"><ele>589.5</ele><time>2026-05-01T08:36:28.979Z</time></trkpt><trkpt lat="39.16624" lon="16.1567933"><ele>589.75</ele><time>2026-05-01T08:36:29.979Z</time></trkpt><trkpt lat="39.16612" lon="16.156775"><ele>590.0</ele><time>2026-05-01T08:36:30.98Z</time></trkpt><trkpt lat="39.1660133" lon="16.15673"><ele>590.0</ele><time>2026-05-01T08:36:31.98Z</time></trkpt><trkpt lat="39.1659133" lon="16.1566967"><ele>590.0</ele><time>2026-05-01T08:36:32.979Z</time></trkpt><trkpt lat="39.1658117" lon="16.156655"><ele>590.0</ele><time>2026-05-01T08:36:33.979Z</time></trkpt><trkpt lat="39.16573" lon="16.15672"><ele>590.0</ele><time>2026-05-01T08:36:34.979Z</time></trkpt><trkpt lat="39.165635" lon="16.1568033"><ele>590.0</ele><time>2026-05-01T08:36:35.98Z</time></trkpt><trkpt lat="39.1655417" lon="16.15688"><ele>588.25</ele><time>2026-05-01T08:36:36.98Z</time></trkpt><trkpt lat="39.165435" lon="16.15696"><ele>586.5</ele><time>2026-05-01T08:36:37.979Z</time></trkpt><trkpt lat="39.1653317" lon="16.15704"><ele>584.75</ele><time>2026-05-01T08:36:38.979Z</time></trkpt><trkpt lat="39.1652283" lon="16.1571267"><ele>583.0</ele><time>2026-05-01T08:36:39.98Z</time></trkpt><trkpt lat="39.1651333" lon="16.157225"><ele>583.0</ele><time>2026-05-01T08:36:40.979Z</time></trkpt><trkpt lat="39.165035" lon="16.1573517"><ele>583.0</ele><time>2026-05-01T08:36:41.979Z</time></trkpt><trkpt lat="39.164965" lon="16.15748"><ele>583.0</ele><time>2026-05-01T08:36:42.979Z</time></trkpt><trkpt lat="39.1649183" lon="16.1575967"><ele>583.0</ele><time>2026-05-01T08:36:43.979Z</time></trkpt><trkpt lat="39.1648717" lon="16.1576967"><ele>587.1666666666667</ele><time>2026-05-01T08:36:44.98Z</time></trkpt><trkpt lat="39.164825" lon="16.157775"><ele>591.3333333333334</ele><time>2026-05-01T08:36:45.979Z</time></trkpt><trkpt lat="39.1647583" lon="16.1577967"><ele>595.5</ele><time>2026-05-01T08:36:46.979Z</time></trkpt><trkpt lat="39.164695" lon="16.1577717"><ele>599.6666666666666</ele><time>2026-05-01T08:36:47.979Z</time></trkpt><trkpt lat="39.1646283" lon="16.1576983"><ele>603.8333333333333</ele><time>2026-05-01T08:36:48.98Z</time></trkpt><trkpt lat="39.164535" lon="16.1576133"><ele>608.0</ele><time>2026-05-01T08:36:49.979Z</time></trkpt><trkpt lat="39.16444" lon="16.1575483"><ele>608.0</ele><time>2026-05-01T08:36:50.979Z</time></trkpt><trkpt lat="39.1643333" lon="16.1575067"><ele>608.0</ele><time>2026-05-01T08:36:51.979Z</time></trkpt><trkpt lat="39.1642283" lon="16.1575017"><ele>608.0</ele><time>2026-05-01T08:36:52.979Z</time></trkpt><trkpt lat="39.1641183" lon="16.1575233"><ele>608.0</ele><time>2026-05-01T08:36:53.979Z</time></trkpt><trkpt lat="39.1639983" lon="16.1575617"><ele>609.0</ele><time>2026-05-01T08:36:54.979Z</time></trkpt><trkpt lat="39.1638833" lon="16.157625"><ele>610.0</ele><time>2026-05-01T08:36:55.979Z</time></trkpt><trkpt lat="39.1637733" lon="16.1576767"><ele>611.0</ele><time>2026-05-01T08:36:56.979Z</time></trkpt><trkpt lat="39.1636483" lon="16.1577033"><ele>612.0</ele><time>2026-05-01T08:36:57.98Z</time></trkpt><trkpt lat="39.1635233" lon="16.1577"><ele>612.0</ele><time>2026-05-01T08:36:58.979Z</time></trkpt><trkpt lat="39.1633833" lon="16.1576867"><ele>612.0</ele><time>2026-05-01T08:36:59.979Z</time></trkpt><trkpt lat="39.1632417" lon="16.157715"><ele>612.0</ele><time>2026-05-01T08:37:00.979Z</time></trkpt><trkpt lat="39.1631017" lon="16.1577733"><ele>612.0</ele><time>2026-05-01T08:37:01.98Z</time></trkpt><trkpt lat="39.1629617" lon="16.1578217"><ele>615.0</ele><time>2026-05-01T08:37:02.98Z</time></trkpt><trkpt lat="39.1628267" lon="16.157805"><ele>618.0</ele><time>2026-05-01T08:37:03.979Z</time></trkpt><trkpt lat="39.1626983" lon="16.1577283"><ele>621.0</ele><time>2026-05-01T08:37:04.979Z</time></trkpt><trkpt lat="39.162575" lon="16.1576417"><ele>624.0</ele><time>2026-05-01T08:37:05.979Z</time></trkpt><trkpt lat="39.1624533" lon="16.157565"><ele>621.25</ele><time>2026-05-01T08:37:06.979Z</time></trkpt><trkpt lat="39.1623333" lon="16.157485"><ele>618.5</ele><time>2026-05-01T08:37:07.979Z</time></trkpt><trkpt lat="39.1622183" lon="16.15741"><ele>615.75</ele><time>2026-05-01T08:37:08.98Z</time></trkpt><trkpt lat="39.1621117" lon="16.157345"><ele>613.0</ele><time>2026-05-01T08:37:09.979Z</time></trkpt><trkpt lat="39.1619917" lon="16.1572617"><ele>613.0</ele><time>2026-05-01T08:37:10.979Z</time></trkpt><trkpt lat="39.161885" lon="16.157175"><ele>613.0</ele><time>2026-05-01T08:37:11.979Z</time></trkpt><trkpt lat="39.16178" lon="16.1570967"><ele>613.0</ele><time>2026-05-01T08:37:12.979Z</time></trkpt><trkpt lat="39.16167" lon="16.157025"><ele>613.0</ele><time>2026-05-01T08:37:13.979Z</time></trkpt><trkpt lat="39.1615567" lon="16.1569833"><ele>613.25</ele><time>2026-05-01T08:37:14.979Z</time></trkpt><trkpt lat="39.1614467" lon="16.156975"><ele>613.5</ele><time>2026-05-01T08:37:15.979Z</time></trkpt><trkpt lat="39.1613317" lon="16.156995"><ele>613.75</ele><time>2026-05-01T08:37:16.979Z</time></trkpt><trkpt lat="39.1612067" lon="16.1570483"><ele>614.0</ele><time>2026-05-01T08:37:17.979Z</time></trkpt><trkpt lat="39.1610883" lon="16.157125"><ele>614.0</ele><time>2026-05-01T08:37:18.98Z</time></trkpt><trkpt lat="39.1609717" lon="16.1572083"><ele>614.0</ele><time>2026-05-01T08:37:19.979Z</time></trkpt><trkpt lat="39.16086" lon="16.1572817"><ele>614.0</ele><time>2026-05-01T08:37:20.98Z</time></trkpt><trkpt lat="39.1607567" lon="16.1573267"><ele>614.0</ele><time>2026-05-01T08:37:21.979Z</time></trkpt><trkpt lat="39.1606267" lon="16.1573483"><ele>614.5</ele><time>2026-05-01T08:37:22.979Z</time></trkpt><trkpt lat="39.1604967" lon="16.1573517"><ele>615.0</ele><time>2026-05-01T08:37:23.979Z</time></trkpt><trkpt lat="39.1603617" lon="16.1573567"><ele>615.5</ele><time>2026-05-01T08:37:24.979Z</time></trkpt><trkpt lat="39.1602283" lon="16.15737"><ele>616.0</ele><time>2026-05-01T08:37:25.979Z</time></trkpt><trkpt lat="39.160095" lon="16.157405"><ele>621.0</ele><time>2026-05-01T08:37:26.98Z</time></trkpt><trkpt lat="39.15997" lon="16.1574367"><ele>626.0</ele><time>2026-05-01T08:37:27.979Z</time></trkpt><trkpt lat="39.15985" lon="16.1574983"><ele>631.0</ele><time>2026-05-01T08:37:28.979Z</time></trkpt><trkpt lat="39.1597417" lon="16.1575933"><ele>636.0</ele><time>2026-05-01T08:37:29.979Z</time></trkpt><trkpt lat="39.1596333" lon="16.1577133"><ele>637.0</ele><time>2026-05-01T08:37:30.98Z</time></trkpt><trkpt lat="39.15952" lon="16.1578233"><ele>638.0</ele><time>2026-05-01T08:37:31.979Z</time></trkpt><trkpt lat="39.1594033" lon="16.1578867"><ele>639.0</ele><time>2026-05-01T08:37:32.979Z</time></trkpt><trkpt lat="39.159265" lon="16.1578917"><ele>640.0</ele><time>2026-05-01T08:37:33.979Z</time></trkpt><trkpt lat="39.1591267" lon="16.1578733"><ele>640.0</ele><time>2026-05-01T08:37:34.979Z</time></trkpt><trkpt lat="39.1589883" lon="16.1578783"><ele>640.0</ele><time>2026-05-01T08:37:35.98Z</time></trkpt><trkpt lat="39.1588433" lon="16.1579183"><ele>640.0</ele><time>2026-05-01T08:37:36.98Z</time></trkpt><trkpt lat="39.1587017" lon="16.1579817"><ele>640.0</ele><time>2026-05-01T08:37:37.979Z</time></trkpt><trkpt lat="39.1585633" lon="16.15805"><ele>640.0</ele><time>2026-05-01T08:37:38.979Z</time></trkpt><trkpt lat="39.1584367" lon="16.15812"><ele>640.0</ele><time>2026-05-01T08:37:39.979Z</time></trkpt><trkpt lat="39.15831" lon="16.1581783"><ele>640.0</ele><time>2026-05-01T08:37:40.98Z</time></trkpt><trkpt lat="39.1581833" lon="16.15824"><ele>640.0</ele><time>2026-05-01T08:37:41.979Z</time></trkpt><trkpt lat="39.1580517" lon="16.1583"><ele>645.5</ele><time>2026-05-01T08:37:42.979Z</time></trkpt><trkpt lat="39.15792" lon="16.1583567"><ele>651.0</ele><time>2026-05-01T08:37:43.979Z</time></trkpt><trkpt lat="39.157795" lon="16.1583917"><ele>656.5</ele><time>2026-05-01T08:37:44.979Z</time></trkpt><trkpt lat="39.1576483" lon="16.1583983"><ele>662.0</ele><time>2026-05-01T08:37:45.979Z</time></trkpt><trkpt lat="39.1574817" lon="16.1583983"><ele>663.3333333333333</ele><time>2026-05-01T08:37:46.979Z</time></trkpt><trkpt lat="39.157305" lon="16.1583933"><ele>664.6666666666666</ele><time>2026-05-01T08:37:47.979Z</time></trkpt><trkpt lat="39.1571333" lon="16.158385"><ele>666.0</ele><time>2026-05-01T08:37:48.98Z</time></trkpt><trkpt lat="39.1569633" lon="16.158385"><ele>666.0</ele><time>2026-05-01T08:37:49.98Z</time></trkpt><trkpt lat="39.156815" lon="16.15837"><ele>666.0</ele><time>2026-05-01T08:37:50.98Z</time></trkpt><trkpt lat="39.156675" lon="16.1583417"><ele>666.0</ele><time>2026-05-01T08:37:51.98Z</time></trkpt><trkpt lat="39.1565333" lon="16.1582933"><ele>666.0</ele><time>2026-05-01T08:37:52.98Z</time></trkpt><trkpt lat="39.15639" lon="16.1582417"><ele>661.0</ele><time>2026-05-01T08:37:53.98Z</time></trkpt><trkpt lat="39.1562483" lon="16.15819"><ele>656.0</ele><time>2026-05-01T08:37:54.979Z</time></trkpt><trkpt lat="39.1561017" lon="16.1581633"><ele>651.0</ele><time>2026-05-01T08:37:55.98Z</time></trkpt><trkpt lat="39.1559617" lon="16.15816"><ele>646.0</ele><time>2026-05-01T08:37:56.979Z</time></trkpt><trkpt lat="39.1558233" lon="16.15819"><ele>649.75</ele><time>2026-05-01T08:37:57.979Z</time></trkpt><trkpt lat="39.15569" lon="16.1582367"><ele>653.5</ele><time>2026-05-01T08:37:58.98Z</time></trkpt><trkpt lat="39.1555583" lon="16.158285"><ele>657.25</ele><time>2026-05-01T08:37:59.98Z</time></trkpt><trkpt lat="39.1554267" lon="16.15834"><ele>661.0</ele><time>2026-05-01T08:38:00.98Z</time></trkpt><trkpt lat="39.155305" lon="16.15838"><ele>661.0</ele><time>2026-05-01T08:38:01.979Z</time></trkpt><trkpt lat="39.155185" lon="16.1584067"><ele>661.0</ele><time>2026-05-01T08:38:02.979Z</time></trkpt><trkpt lat="39.1550817" lon="16.1584233"><ele>661.0</ele><time>2026-05-01T08:38:03.979Z</time></trkpt><trkpt lat="39.15499" lon="16.1584433"><ele>661.0</ele><time>2026-05-01T08:38:04.98Z</time></trkpt><trkpt lat="39.15492" lon="16.1584733"><ele>661.0</ele><time>2026-05-01T08:38:05.979Z</time></trkpt><trkpt lat="39.1548767" lon="16.1586033"><ele>661.0</ele><time>2026-05-01T08:38:07.98Z</time></trkpt><trkpt lat="39.1549117" lon="16.15869"><ele>661.0</ele><time>2026-05-01T08:38:08.98Z</time></trkpt><trkpt lat="39.1549883" lon="16.1587717"><ele>661.0</ele><time>2026-05-01T08:38:09.98Z</time></trkpt><trkpt lat="39.1550867" lon="16.15886"><ele>661.0</ele><time>2026-05-01T08:38:10.979Z</time></trkpt><trkpt lat="39.1551917" lon="16.158955"><ele>661.0</ele><time>2026-05-01T08:38:11.979Z</time></trkpt><trkpt lat="39.1552883" lon="16.1590517"><ele>660.0</ele><time>2026-05-01T08:38:12.979Z</time></trkpt><trkpt lat="39.1553733" lon="16.1591667"><ele>659.0</ele><time>2026-05-01T08:38:13.979Z</time></trkpt><trkpt lat="39.1554433" lon="16.1592983"><ele>658.0</ele><time>2026-05-01T08:38:14.98Z</time></trkpt><trkpt lat="39.1555017" lon="16.15945"><ele>657.0</ele><time>2026-05-01T08:38:15.979Z</time></trkpt><trkpt lat="39.1555567" lon="16.1596067"><ele>657.0</ele><time>2026-05-01T08:38:16.98Z</time></trkpt><trkpt lat="39.15564" lon="16.15976"><ele>657.0</ele><time>2026-05-01T08:38:17.979Z</time></trkpt><trkpt lat="39.15573" lon="16.1599083"><ele>657.0</ele><time>2026-05-01T08:38:18.979Z</time></trkpt><trkpt lat="39.1558117" lon="16.160075"><ele>657.0</ele><time>2026-05-01T08:38:19.979Z</time></trkpt><trkpt lat="39.1558933" lon="16.160235"><ele>661.3333333333334</ele><time>2026-05-01T08:38:20.979Z</time></trkpt><trkpt lat="39.1559633" lon="16.1604067"><ele>665.6666666666667</ele><time>2026-05-01T08:38:21.979Z</time></trkpt><trkpt lat="39.1560167" lon="16.160595"><ele>670.0</ele><time>2026-05-01T08:38:22.98Z</time></trkpt><trkpt lat="39.1560567" lon="16.1607967"><ele>670.0</ele><time>2026-05-01T08:38:23.979Z</time></trkpt><trkpt lat="39.1561233" lon="16.161"><ele>670.0</ele><time>2026-05-01T08:38:24.979Z</time></trkpt><trkpt lat="39.1562117" lon="16.1611883"><ele>670.0</ele><time>2026-05-01T08:38:25.979Z</time></trkpt><trkpt lat="39.1563167" lon="16.1613683"><ele>663.6666666666667</ele><time>2026-05-01T08:38:26.979Z</time></trkpt><trkpt lat="39.1564083" lon="16.1615683"><ele>657.3333333333334</ele><time>2026-05-01T08:38:27.98Z</time></trkpt><trkpt lat="39.15648" lon="16.161775"><ele>651.0</ele><time>2026-05-01T08:38:28.979Z</time></trkpt><trkpt lat="39.15655" lon="16.1619867"><ele>665.0</ele><time>2026-05-01T08:38:29.979Z</time></trkpt><trkpt lat="39.15663" lon="16.1621867"><ele>679.0</ele><time>2026-05-01T08:38:30.979Z</time></trkpt><trkpt lat="39.1567217" lon="16.1623867"><ele>693.0</ele><time>2026-05-01T08:38:31.979Z</time></trkpt><trkpt lat="39.1568233" lon="16.162575"><ele>693.0</ele><time>2026-05-01T08:38:32.979Z</time></trkpt><trkpt lat="39.1569317" lon="16.162755"><ele>693.0</ele><time>2026-05-01T08:38:33.979Z</time></trkpt><trkpt lat="39.15703" lon="16.1629117"><ele>693.0</ele><time>2026-05-01T08:38:34.98Z</time></trkpt><trkpt lat="39.15712" lon="16.1630583"><ele>693.0</ele><time>2026-05-01T08:38:35.979Z</time></trkpt><trkpt lat="39.1572033" lon="16.1631883"><ele>693.0</ele><time>2026-05-01T08:38:36.979Z</time></trkpt><trkpt lat="39.1572967" lon="16.16327"><ele>693.0</ele><time>2026-05-01T08:38:37.979Z</time></trkpt><trkpt lat="39.157425" lon="16.16332"><ele>693.0</ele><time>2026-05-01T08:38:38.98Z</time></trkpt><trkpt lat="39.1575617" lon="16.1633383"><ele>695.5</ele><time>2026-05-01T08:38:39.98Z</time></trkpt><trkpt lat="39.1577083" lon="16.16334"><ele>698.0</ele><time>2026-05-01T08:38:40.98Z</time></trkpt><trkpt lat="39.1578533" lon="16.1633217"><ele>700.5</ele><time>2026-05-01T08:38:41.979Z</time></trkpt><trkpt lat="39.1579833" lon="16.16329"><ele>703.0</ele><time>2026-05-01T08:38:42.98Z</time></trkpt><trkpt lat="39.15812" lon="16.1632383"><ele>705.25</ele><time>2026-05-01T08:38:43.98Z</time></trkpt><trkpt lat="39.1582667" lon="16.1632033"><ele>707.5</ele><time>2026-05-01T08:38:44.98Z</time></trkpt><trkpt lat="39.1584133" lon="16.16319"><ele>709.75</ele><time>2026-05-01T08:38:45.98Z</time></trkpt><trkpt lat="39.1585583" lon="16.1631867"><ele>712.0</ele><time>2026-05-01T08:38:46.979Z</time></trkpt><trkpt lat="39.1587133" lon="16.1632033"><ele>712.0</ele><time>2026-05-01T08:38:47.979Z</time></trkpt><trkpt lat="39.158875" lon="16.1632133"><ele>712.0</ele><time>2026-05-01T08:38:48.98Z</time></trkpt><trkpt lat="39.1590417" lon="16.1632183"><ele>712.0</ele><time>2026-05-01T08:38:49.979Z</time></trkpt><trkpt lat="39.1592217" lon="16.163245"><ele>714.0</ele><time>2026-05-01T08:38:50.979Z</time></trkpt><trkpt lat="39.1594067" lon="16.1632767"><ele>716.0</ele><time>2026-05-01T08:38:51.98Z</time></trkpt><trkpt lat="39.1595983" lon="16.1633183"><ele>718.0</ele><time>2026-05-01T08:38:52.98Z</time></trkpt><trkpt lat="39.1597683" lon="16.1633617"><ele>722.25</ele><time>2026-05-01T08:38:53.979Z</time></trkpt><trkpt lat="39.15993" lon="16.163405"><ele>726.5</ele><time>2026-05-01T08:38:54.98Z</time></trkpt><trkpt lat="39.1600667" lon="16.1634533"><ele>730.75</ele><time>2026-05-01T08:38:55.979Z</time></trkpt><trkpt lat="39.1601917" lon="16.1634967"><ele>735.0</ele><time>2026-05-01T08:38:56.979Z</time></trkpt><trkpt lat="39.16031" lon="16.16353"><ele>735.0</ele><time>2026-05-01T08:38:57.98Z</time></trkpt><trkpt lat="39.1604217" lon="16.1635683"><ele>735.0</ele><time>2026-05-01T08:38:58.98Z</time></trkpt><trkpt lat="39.1605317" lon="16.163615"><ele>735.0</ele><time>2026-05-01T08:38:59.98Z</time></trkpt><trkpt lat="39.16064" lon="16.163665"><ele>735.0</ele><time>2026-05-01T08:39:00.98Z</time></trkpt><trkpt lat="39.1607467" lon="16.163715"><ele>740.2</ele><time>2026-05-01T08:39:01.979Z</time></trkpt><trkpt lat="39.160845" lon="16.1637767"><ele>745.4</ele><time>2026-05-01T08:39:02.979Z</time></trkpt><trkpt lat="39.1609367" lon="16.1638367"><ele>750.5999999999999</ele><time>2026-05-01T08:39:03.98Z</time></trkpt><trkpt lat="39.1610267" lon="16.1638917"><ele>755.8</ele><time>2026-05-01T08:39:04.979Z</time></trkpt><trkpt lat="39.1611183" lon="16.163955"><ele>761.0</ele><time>2026-05-01T08:39:05.98Z</time></trkpt><trkpt lat="39.1612117" lon="16.1640267"><ele>759.8</ele><time>2026-05-01T08:39:06.979Z</time></trkpt><trkpt lat="39.16131" lon="16.1640867"><ele>758.5999999999999</ele><time>2026-05-01T08:39:07.979Z</time></trkpt><trkpt lat="39.1614067" lon="16.1641583"><ele>757.4</ele><time>2026-05-01T08:39:08.979Z</time></trkpt><trkpt lat="39.1615" lon="16.1642383"><ele>756.2</ele><time>2026-05-01T08:39:09.98Z</time></trkpt><trkpt lat="39.161595" lon="16.1643267"><ele>755.0</ele><time>2026-05-01T08:39:10.979Z</time></trkpt><trkpt lat="39.1616867" lon="16.164415"><ele>755.0</ele><time>2026-05-01T08:39:11.979Z</time></trkpt><trkpt lat="39.1617783" lon="16.1645217"><ele>755.0</ele><time>2026-05-01T08:39:12.979Z</time></trkpt><trkpt lat="39.1618667" lon="16.1646317"><ele>755.0</ele><time>2026-05-01T08:39:13.98Z</time></trkpt><trkpt lat="39.16195" lon="16.16476"><ele>755.0</ele><time>2026-05-01T08:39:14.979Z</time></trkpt><trkpt lat="39.1620317" lon="16.1648967"><ele>755.25</ele><time>2026-05-01T08:39:15.979Z</time></trkpt><trkpt lat="39.162115" lon="16.1650317"><ele>755.5</ele><time>2026-05-01T08:39:16.979Z</time></trkpt><trkpt lat="39.1622" lon="16.16516"><ele>755.75</ele><time>2026-05-01T08:39:17.98Z</time></trkpt><trkpt lat="39.1622833" lon="16.1652967"><ele>756.0</ele><time>2026-05-01T08:39:18.979Z</time></trkpt><trkpt lat="39.1623683" lon="16.1654283"><ele>756.0</ele><time>2026-05-01T08:39:19.979Z</time></trkpt><trkpt lat="39.1624483" lon="16.165565"><ele>756.0</ele><time>2026-05-01T08:39:20.979Z</time></trkpt><trkpt lat="39.1625333" lon="16.1657033"><ele>756.0</ele><time>2026-05-01T08:39:21.979Z</time></trkpt><trkpt lat="39.1626367" lon="16.1658267"><ele>756.0</ele><time>2026-05-01T08:39:22.979Z</time></trkpt><trkpt lat="39.162765" lon="16.1659383"><ele>749.6666666666666</ele><time>2026-05-01T08:39:23.979Z</time></trkpt><trkpt lat="39.1629067" lon="16.1660433"><ele>743.3333333333333</ele><time>2026-05-01T08:39:24.979Z</time></trkpt><trkpt lat="39.1630533" lon="16.1661483"><ele>737.0</ele><time>2026-05-01T08:39:25.979Z</time></trkpt><trkpt lat="39.1631933" lon="16.1662633"><ele>737.0</ele><time>2026-05-01T08:39:26.98Z</time></trkpt><trkpt lat="39.1633383" lon="16.166375"><ele>737.0</ele><time>2026-05-01T08:39:27.979Z</time></trkpt><trkpt lat="39.1634717" lon="16.1664967"><ele>737.0</ele><time>2026-05-01T08:39:28.979Z</time></trkpt><trkpt lat="39.1635983" lon="16.1666217"><ele>737.0</ele><time>2026-05-01T08:39:29.98Z</time></trkpt><trkpt lat="39.163725" lon="16.1667617"><ele>737.0</ele><time>2026-05-01T08:39:30.979Z</time></trkpt><trkpt lat="39.16384" lon="16.1669"><ele>737.0</ele><time>2026-05-01T08:39:31.979Z</time></trkpt><trkpt lat="39.1639583" lon="16.167035"><ele>740.6666666666666</ele><time>2026-05-01T08:39:32.98Z</time></trkpt><trkpt lat="39.164085" lon="16.1671583"><ele>744.3333333333334</ele><time>2026-05-01T08:39:33.98Z</time></trkpt><trkpt lat="39.1642283" lon="16.1672867"><ele>748.0</ele><time>2026-05-01T08:39:34.98Z</time></trkpt><trkpt lat="39.1643683" lon="16.1673967"><ele>748.0</ele><time>2026-05-01T08:39:35.98Z</time></trkpt><trkpt lat="39.1645233" lon="16.1674883"><ele>748.0</ele><time>2026-05-01T08:39:36.979Z</time></trkpt><trkpt lat="39.16467" lon="16.1675767"><ele>748.0</ele><time>2026-05-01T08:39:37.979Z</time></trkpt><trkpt lat="39.1648167" lon="16.1676517"><ele>753.6666666666667</ele><time>2026-05-01T08:39:38.979Z</time></trkpt><trkpt lat="39.1649667" lon="16.16772"><ele>759.3333333333334</ele><time>2026-05-01T08:39:39.979Z</time></trkpt><trkpt lat="39.1651183" lon="16.1677617"><ele>765.0</ele><time>2026-05-01T08:39:40.979Z</time></trkpt><trkpt lat="39.165275" lon="16.16777"><ele>765.0</ele><time>2026-05-01T08:39:41.979Z</time></trkpt><trkpt lat="39.1654117" lon="16.1677333"><ele>765.0</ele><time>2026-05-01T08:39:42.979Z</time></trkpt><trkpt lat="39.1655433" lon="16.1676583"><ele>765.0</ele><time>2026-05-01T08:39:43.98Z</time></trkpt><trkpt lat="39.16567" lon="16.1675617"><ele>765.0</ele><time>2026-05-01T08:39:44.979Z</time></trkpt><trkpt lat="39.1658017" lon="16.1674933"><ele>766.25</ele><time>2026-05-01T08:39:45.98Z</time></trkpt><trkpt lat="39.1659467" lon="16.1674467"><ele>767.5</ele><time>2026-05-01T08:39:46.98Z</time></trkpt><trkpt lat="39.16609" lon="16.1674083"><ele>768.75</ele><time>2026-05-01T08:39:47.981Z</time></trkpt><trkpt lat="39.1662183" lon="16.1673417"><ele>770.0</ele><time>2026-05-01T08:39:48.981Z</time></trkpt><trkpt lat="39.1663333" lon="16.1672367"><ele>770.0</ele><time>2026-05-01T08:39:49.98Z</time></trkpt><trkpt lat="39.1664533" lon="16.1671133"><ele>770.0</ele><time>2026-05-01T08:39:50.981Z</time></trkpt><trkpt lat="39.1665833" lon="16.1670083"><ele>770.0</ele><time>2026-05-01T08:39:51.98Z</time></trkpt><trkpt lat="39.1667183" lon="16.166915"><ele>770.0</ele><time>2026-05-01T08:39:52.98Z</time></trkpt><trkpt lat="39.1668567" lon="16.1668383"><ele>770.0</ele><time>2026-05-01T08:39:53.98Z</time></trkpt><trkpt lat="39.166995" lon="16.166765"><ele>770.0</ele><time>2026-05-01T08:39:54.98Z</time></trkpt><trkpt lat="39.1671367" lon="16.1666867"><ele>770.0</ele><time>2026-05-01T08:39:55.98Z</time></trkpt><trkpt lat="39.16728" lon="16.166595"><ele>770.0</ele><time>2026-05-01T08:39:56.98Z</time></trkpt><trkpt lat="39.167415" lon="16.1664833"><ele>770.0</ele><time>2026-05-01T08:39:57.98Z</time></trkpt><trkpt lat="39.1675433" lon="16.1663483"><ele>767.6666666666667</ele><time>2026-05-01T08:39:58.98Z</time></trkpt><trkpt lat="39.167675" lon="16.16623"><ele>765.3333333333334</ele><time>2026-05-01T08:39:59.98Z</time></trkpt><trkpt lat="39.1678217" lon="16.1661767"><ele>763.0</ele><time>2026-05-01T08:40:00.98Z</time></trkpt><trkpt lat="39.1679583" lon="16.1661133"><ele>763.0</ele><time>2026-05-01T08:40:01.98Z</time></trkpt><trkpt lat="39.1681" lon="16.1660633"><ele>763.0</ele><time>2026-05-01T08:40:02.98Z</time></trkpt><trkpt lat="39.1682383" lon="16.1660133"><ele>763.0</ele><time>2026-05-01T08:40:03.98Z</time></trkpt><trkpt lat="39.1683817" lon="16.1659483"><ele>763.0</ele><time>2026-05-01T08:40:04.98Z</time></trkpt><trkpt lat="39.1684967" lon="16.1658567"><ele>763.2</ele><time>2026-05-01T08:40:05.98Z</time></trkpt><trkpt lat="39.1685983" lon="16.1657483"><ele>763.4</ele><time>2026-05-01T08:40:06.981Z</time></trkpt><trkpt lat="39.1686733" lon="16.165655"><ele>763.6</ele><time>2026-05-01T08:40:07.981Z</time></trkpt><trkpt lat="39.168765" lon="16.1656033"><ele>763.8000000000001</ele><time>2026-05-01T08:40:08.98Z</time></trkpt><trkpt lat="39.1688733" lon="16.1655867"><ele>764.0</ele><time>2026-05-01T08:40:09.981Z</time></trkpt><trkpt lat="39.169" lon="16.16561"><ele>766.25</ele><time>2026-05-01T08:40:10.98Z</time></trkpt><trkpt lat="39.16914" lon="16.1656467"><ele>768.5</ele><time>2026-05-01T08:40:11.981Z</time></trkpt><trkpt lat="39.1692683" lon="16.16566"><ele>770.75</ele><time>2026-05-01T08:40:12.98Z</time></trkpt><trkpt lat="39.1694" lon="16.16562"><ele>773.0</ele><time>2026-05-01T08:40:13.981Z</time></trkpt><trkpt lat="39.1695283" lon="16.1655567"><ele>773.0</ele><time>2026-05-01T08:40:14.98Z</time></trkpt><trkpt lat="39.169655" lon="16.1654967"><ele>773.0</ele><time>2026-05-01T08:40:15.981Z</time></trkpt><trkpt lat="39.1697583" lon="16.165435"><ele>773.0</ele><time>2026-05-01T08:40:16.98Z</time></trkpt><trkpt lat="39.1698617" lon="16.16541"><ele>773.0</ele><time>2026-05-01T08:40:17.98Z</time></trkpt><trkpt lat="39.1699733" lon="16.1654333"><ele>773.25</ele><time>2026-05-01T08:40:18.981Z</time></trkpt><trkpt lat="39.1700833" lon="16.1655233"><ele>773.5</ele><time>2026-05-01T08:40:19.98Z</time></trkpt><trkpt lat="39.1701917" lon="16.1656567"><ele>773.75</ele><time>2026-05-01T08:40:20.98Z</time></trkpt><trkpt lat="39.1703" lon="16.1657983"><ele>774.0</ele><time>2026-05-01T08:40:21.98Z</time></trkpt><trkpt lat="39.1704017" lon="16.1659317"><ele>778.6666666666667</ele><time>2026-05-01T08:40:22.98Z</time></trkpt><trkpt lat="39.170515" lon="16.1660417"><ele>783.3333333333334</ele><time>2026-05-01T08:40:23.98Z</time></trkpt><trkpt lat="39.1706483" lon="16.1661317"><ele>788.0</ele><time>2026-05-01T08:40:24.98Z</time></trkpt><trkpt lat="39.17079" lon="16.1662267"><ele>788.0</ele><time>2026-05-01T08:40:25.98Z</time></trkpt><trkpt lat="39.170925" lon="16.1663283"><ele>788.0</ele><time>2026-05-01T08:40:26.98Z</time></trkpt><trkpt lat="39.1710617" lon="16.1664283"><ele>788.0</ele><time>2026-05-01T08:40:27.981Z</time></trkpt><trkpt lat="39.1712033" lon="16.1665"><ele>792.6666666666667</ele><time>2026-05-01T08:40:28.98Z</time></trkpt><trkpt lat="39.1713433" lon="16.1665783"><ele>797.3333333333333</ele><time>2026-05-01T08:40:29.981Z</time></trkpt><trkpt lat="39.1714633" lon="16.1666867"><ele>802.0</ele><time>2026-05-01T08:40:30.98Z</time></trkpt><trkpt lat="39.171575" lon="16.1668167"><ele>802.0</ele><time>2026-05-01T08:40:31.98Z</time></trkpt><trkpt lat="39.171665" lon="16.1669617"><ele>802.0</ele><time>2026-05-01T08:40:32.98Z</time></trkpt><trkpt lat="39.1717517" lon="16.1671167"><ele>802.0</ele><time>2026-05-01T08:40:33.98Z</time></trkpt><trkpt lat="39.1718317" lon="16.1672667"><ele>802.0</ele><time>2026-05-01T08:40:34.98Z</time></trkpt><trkpt lat="39.1719217" lon="16.1674083"><ele>806.0</ele><time>2026-05-01T08:40:35.98Z</time></trkpt><trkpt lat="39.1720067" lon="16.1675283"><ele>810.0</ele><time>2026-05-01T08:40:36.98Z</time></trkpt><trkpt lat="39.1721133" lon="16.1676133"><ele>814.0</ele><time>2026-05-01T08:40:37.981Z</time></trkpt><trkpt lat="39.1722283" lon="16.1676467"><ele>818.0</ele><time>2026-05-01T08:40:38.98Z</time></trkpt><trkpt lat="39.1723467" lon="16.1676633"><ele>816.8</ele><time>2026-05-01T08:40:39.981Z</time></trkpt><trkpt lat="39.1724617" lon="16.16766"><ele>815.5999999999999</ele><time>2026-05-01T08:40:40.981Z</time></trkpt><trkpt lat="39.1725567" lon="16.1676233"><ele>814.4000000000001</ele><time>2026-05-01T08:40:41.98Z</time></trkpt><trkpt lat="39.1726433" lon="16.16757"><ele>813.2</ele><time>2026-05-01T08:40:42.98Z</time></trkpt><trkpt lat="39.1727167" lon="16.1675467"><ele>812.0</ele><time>2026-05-01T08:40:43.981Z</time></trkpt><trkpt lat="39.1727867" lon="16.1675617"><ele>812.0</ele><time>2026-05-01T08:40:44.98Z</time></trkpt><trkpt lat="39.1728583" lon="16.1676617"><ele>812.0</ele><time>2026-05-01T08:40:46.98Z</time></trkpt><trkpt lat="39.172775" lon="16.1677417"><ele>812.0</ele><time>2026-05-01T08:40:48.981Z</time></trkpt><trkpt lat="39.1726817" lon="16.16774"><ele>812.0</ele><time>2026-05-01T08:40:49.98Z</time></trkpt><trkpt lat="39.1725767" lon="16.1677467"><ele>812.0</ele><time>2026-05-01T08:40:50.98Z</time></trkpt><trkpt lat="39.1724517" lon="16.1677583"><ele>813.5</ele><time>2026-05-01T08:40:51.98Z</time></trkpt><trkpt lat="39.1723133" lon="16.1677683"><ele>815.0</ele><time>2026-05-01T08:40:52.98Z</time></trkpt><trkpt lat="39.17217" lon="16.1677667"><ele>816.5</ele><time>2026-05-01T08:40:53.98Z</time></trkpt><trkpt lat="39.1720367" lon="16.1677567"><ele>818.0</ele><time>2026-05-01T08:40:54.98Z</time></trkpt><trkpt lat="39.17191" lon="16.1677183"><ele>818.0</ele><time>2026-05-01T08:40:55.98Z</time></trkpt><trkpt lat="39.1718117" lon="16.16763"><ele>818.0</ele><time>2026-05-01T08:40:56.98Z</time></trkpt><trkpt lat="39.171745" lon="16.1675067"><ele>818.0</ele><time>2026-05-01T08:40:57.98Z</time></trkpt><trkpt lat="39.1716883" lon="16.167405"><ele>818.0</ele><time>2026-05-01T08:40:58.98Z</time></trkpt><trkpt lat="39.1716317" lon="16.1673383"><ele>818.0</ele><time>2026-05-01T08:40:59.98Z</time></trkpt><trkpt lat="39.1715617" lon="16.1673"><ele>818.8</ele><time>2026-05-01T08:41:00.981Z</time></trkpt><trkpt lat="39.1714767" lon="16.1673067"><ele>819.5999999999999</ele><time>2026-05-01T08:41:01.98Z</time></trkpt><trkpt lat="39.171385" lon="16.167355"><ele>820.4000000000001</ele><time>2026-05-01T08:41:02.98Z</time></trkpt><trkpt lat="39.171305" lon="16.1674383"><ele>821.2</ele><time>2026-05-01T08:41:03.98Z</time></trkpt><trkpt lat="39.171215" lon="16.167545"><ele>822.0</ele><time>2026-05-01T08:41:04.98Z</time></trkpt><trkpt lat="39.1711117" lon="16.1676367"><ele>822.0</ele><time>2026-05-01T08:41:05.98Z</time></trkpt><trkpt lat="39.1709883" lon="16.1676967"><ele>822.0</ele><time>2026-05-01T08:41:06.98Z</time></trkpt><trkpt lat="39.1708683" lon="16.1677317"><ele>822.0</ele><time>2026-05-01T08:41:07.98Z</time></trkpt><trkpt lat="39.170735" lon="16.1677567"><ele>822.0</ele><time>2026-05-01T08:41:08.981Z</time></trkpt><trkpt lat="39.170585" lon="16.1677967"><ele>823.5</ele><time>2026-05-01T08:41:09.98Z</time></trkpt><trkpt lat="39.1704433" lon="16.167795"><ele>825.0</ele><time>2026-05-01T08:41:10.981Z</time></trkpt><trkpt lat="39.1703017" lon="16.1677433"><ele>826.5</ele><time>2026-05-01T08:41:11.981Z</time></trkpt><trkpt lat="39.170165" lon="16.1676517"><ele>828.0</ele><time>2026-05-01T08:41:12.98Z</time></trkpt><trkpt lat="39.170025" lon="16.1675633"><ele>828.0</ele><time>2026-05-01T08:41:13.981Z</time></trkpt><trkpt lat="39.1698733" lon="16.167525"><ele>828.0</ele><time>2026-05-01T08:41:14.98Z</time></trkpt><trkpt lat="39.1697133" lon="16.1675267"><ele>828.0</ele><time>2026-05-01T08:41:15.981Z</time></trkpt><trkpt lat="39.169565" lon="16.1675283"><ele>830.25</ele><time>2026-05-01T08:41:16.981Z</time></trkpt><trkpt lat="39.1694167" lon="16.16751"><ele>832.5</ele><time>2026-05-01T08:41:17.98Z</time></trkpt><trkpt lat="39.1692683" lon="16.1674517"><ele>834.75</ele><time>2026-05-01T08:41:18.98Z</time></trkpt><trkpt lat="39.1691467" lon="16.1673733"><ele>837.0</ele><time>2026-05-01T08:41:19.98Z</time></trkpt><trkpt lat="39.1690433" lon="16.1672933"><ele>835.8</ele><time>2026-05-01T08:41:20.981Z</time></trkpt><trkpt lat="39.168935" lon="16.16723"><ele>834.6</ele><time>2026-05-01T08:41:21.98Z</time></trkpt><trkpt lat="39.1688267" lon="16.16722"><ele>833.4</ele><time>2026-05-01T08:41:22.98Z</time></trkpt><trkpt lat="39.1687367" lon="16.1672683"><ele>832.1999999999999</ele><time>2026-05-01T08:41:23.98Z</time></trkpt><trkpt lat="39.1686617" lon="16.1673567"><ele>831.0</ele><time>2026-05-01T08:41:24.98Z</time></trkpt><trkpt lat="39.1685867" lon="16.1674567"><ele>831.0</ele><time>2026-05-01T08:41:25.98Z</time></trkpt><trkpt lat="39.1685133" lon="16.1675667"><ele>831.0</ele><time>2026-05-01T08:41:26.98Z</time></trkpt><trkpt lat="39.168435" lon="16.1676917"><ele>831.0</ele><time>2026-05-01T08:41:27.98Z</time></trkpt><trkpt lat="39.1683567" lon="16.1678117"><ele>831.0</ele><time>2026-05-01T08:41:28.98Z</time></trkpt><trkpt lat="39.168275" lon="16.167935"><ele>832.0</ele><time>2026-05-01T08:41:29.98Z</time></trkpt><trkpt lat="39.1681883" lon="16.1680617"><ele>833.0</ele><time>2026-05-01T08:41:30.98Z</time></trkpt><trkpt lat="39.1680983" lon="16.16818"><ele>834.0</ele><time>2026-05-01T08:41:31.98Z</time></trkpt><trkpt lat="39.1679917" lon="16.1682733"><ele>835.0</ele><time>2026-05-01T08:41:32.981Z</time></trkpt><trkpt lat="39.1678717" lon="16.1683517"><ele>835.0</ele><time>2026-05-01T08:41:33.98Z</time></trkpt><trkpt lat="39.16775" lon="16.168445"><ele>835.0</ele><time>2026-05-01T08:41:34.981Z</time></trkpt><trkpt lat="39.1676333" lon="16.1685333"><ele>835.0</ele><time>2026-05-01T08:41:35.98Z</time></trkpt><trkpt lat="39.1675383" lon="16.1686167"><ele>835.0</ele><time>2026-05-01T08:41:36.981Z</time></trkpt><trkpt lat="39.1674783" lon="16.1687167"><ele>835.0</ele><time>2026-05-01T08:41:37.98Z</time></trkpt><trkpt lat="39.16746" lon="16.1688317"><ele>835.0</ele><time>2026-05-01T08:41:38.98Z</time></trkpt><trkpt lat="39.1674867" lon="16.1689433"><ele>835.0</ele><time>2026-05-01T08:41:39.98Z</time></trkpt><trkpt lat="39.1675433" lon="16.1690417"><ele>835.0</ele><time>2026-05-01T08:41:40.981Z</time></trkpt><trkpt lat="39.1676233" lon="16.1691367"><ele>835.0</ele><time>2026-05-01T08:41:41.98Z</time></trkpt><trkpt lat="39.1677183" lon="16.169235"><ele>836.0</ele><time>2026-05-01T08:41:42.98Z</time></trkpt><trkpt lat="39.1678183" lon="16.1693367"><ele>837.0</ele><time>2026-05-01T08:41:43.981Z</time></trkpt><trkpt lat="39.1679033" lon="16.1694517"><ele>838.0</ele><time>2026-05-01T08:41:44.98Z</time></trkpt><trkpt lat="39.167965" lon="16.169575"><ele>839.0</ele><time>2026-05-01T08:41:45.98Z</time></trkpt><trkpt lat="39.1680033" lon="16.1696967"><ele>839.0</ele><time>2026-05-01T08:41:46.981Z</time></trkpt><trkpt lat="39.16801" lon="16.1698233"><ele>839.0</ele><time>2026-05-01T08:41:47.98Z</time></trkpt><trkpt lat="39.1679933" lon="16.1699517"><ele>839.0</ele><time>2026-05-01T08:41:48.98Z</time></trkpt><trkpt lat="39.16797" lon="16.1700983"><ele>839.0</ele><time>2026-05-01T08:41:49.98Z</time></trkpt><trkpt lat="39.1679583" lon="16.1702483"><ele>839.0</ele><time>2026-05-01T08:41:50.98Z</time></trkpt><trkpt lat="39.1679667" lon="16.1704133"><ele>837.75</ele><time>2026-05-01T08:41:51.981Z</time></trkpt><trkpt lat="39.1680167" lon="16.1705633"><ele>836.5</ele><time>2026-05-01T08:41:52.98Z</time></trkpt><trkpt lat="39.1681033" lon="16.1706883"><ele>835.25</ele><time>2026-05-01T08:41:53.981Z</time></trkpt><trkpt lat="39.1682083" lon="16.1707967"><ele>834.0</ele><time>2026-05-01T08:41:54.98Z</time></trkpt><trkpt lat="39.1683267" lon="16.1708983"><ele>841.25</ele><time>2026-05-01T08:41:55.98Z</time></trkpt><trkpt lat="39.1684283" lon="16.171005"><ele>848.5</ele><time>2026-05-01T08:41:56.981Z</time></trkpt><trkpt lat="39.1685217" lon="16.17112"><ele>855.75</ele><time>2026-05-01T08:41:57.98Z</time></trkpt><trkpt lat="39.1685683" lon="16.17128"><ele>863.0</ele><time>2026-05-01T08:41:58.98Z</time></trkpt><trkpt lat="39.1685933" lon="16.1714533"><ele>861.75</ele><time>2026-05-01T08:41:59.981Z</time></trkpt><trkpt lat="39.1686017" lon="16.1716217"><ele>860.5</ele><time>2026-05-01T08:42:00.98Z</time></trkpt><trkpt lat="39.1686033" lon="16.1717917"><ele>859.25</ele><time>2026-05-01T08:42:01.981Z</time></trkpt><trkpt lat="39.1686083" lon="16.1719583"><ele>858.0</ele><time>2026-05-01T08:42:02.981Z</time></trkpt><trkpt lat="39.1686233" lon="16.1721217"><ele>858.0</ele><time>2026-05-01T08:42:03.98Z</time></trkpt><trkpt lat="39.1686383" lon="16.1722917"><ele>858.0</ele><time>2026-05-01T08:42:04.98Z</time></trkpt><trkpt lat="39.1686667" lon="16.1724617"><ele>858.0</ele><time>2026-05-01T08:42:05.98Z</time></trkpt><trkpt lat="39.1687317" lon="16.17262"><ele>858.0</ele><time>2026-05-01T08:42:06.98Z</time></trkpt><trkpt lat="39.1688183" lon="16.1727717"><ele>858.3333333333333</ele><time>2026-05-01T08:42:07.98Z</time></trkpt><trkpt lat="39.168925" lon="16.1729167"><ele>858.6666666666666</ele><time>2026-05-01T08:42:08.98Z</time></trkpt><trkpt lat="39.1690217" lon="16.173065"><ele>859.0</ele><time>2026-05-01T08:42:09.98Z</time></trkpt><trkpt lat="39.16912" lon="16.1732083"><ele>862.75</ele><time>2026-05-01T08:42:10.98Z</time></trkpt><trkpt lat="39.1692167" lon="16.1733567"><ele>866.5</ele><time>2026-05-01T08:42:11.98Z</time></trkpt><trkpt lat="39.1692983" lon="16.17351"><ele>870.25</ele><time>2026-05-01T08:42:12.98Z</time></trkpt><trkpt lat="39.1693817" lon="16.173665"><ele>874.0</ele><time>2026-05-01T08:42:13.98Z</time></trkpt><trkpt lat="39.1694517" lon="16.1738267"><ele>874.0</ele><time>2026-05-01T08:42:14.98Z</time></trkpt><trkpt lat="39.16952" lon="16.1740067"><ele>874.0</ele><time>2026-05-01T08:42:15.98Z</time></trkpt><trkpt lat="39.1695833" lon="16.1741817"><ele>874.0</ele><time>2026-05-01T08:42:16.981Z</time></trkpt><trkpt lat="39.1696517" lon="16.1743583"><ele>878.3333333333333</ele><time>2026-05-01T08:42:17.98Z</time></trkpt><trkpt lat="39.16973" lon="16.1745383"><ele>882.6666666666667</ele><time>2026-05-01T08:42:18.98Z</time></trkpt><trkpt lat="39.1698083" lon="16.1747233"><ele>887.0</ele><time>2026-05-01T08:42:19.98Z</time></trkpt><trkpt lat="39.1698917" lon="16.1748933"><ele>887.0</ele><time>2026-05-01T08:42:20.98Z</time></trkpt><trkpt lat="39.16998" lon="16.17506"><ele>887.0</ele><time>2026-05-01T08:42:21.98Z</time></trkpt><trkpt lat="39.1700567" lon="16.1752367"><ele>887.0</ele><time>2026-05-01T08:42:22.98Z</time></trkpt><trkpt lat="39.17012" lon="16.1754283"><ele>887.0</ele><time>2026-05-01T08:42:23.98Z</time></trkpt><trkpt lat="39.1701717" lon="16.1756133"><ele>887.0</ele><time>2026-05-01T08:42:24.98Z</time></trkpt><trkpt lat="39.1702217" lon="16.1758017"><ele>887.0</ele><time>2026-05-01T08:42:25.98Z</time></trkpt><trkpt lat="39.1702667" lon="16.175995"><ele>884.0</ele><time>2026-05-01T08:42:26.981Z</time></trkpt><trkpt lat="39.17032" lon="16.17619"><ele>881.0</ele><time>2026-05-01T08:42:27.981Z</time></trkpt><trkpt lat="39.1703783" lon="16.1763867"><ele>878.0</ele><time>2026-05-01T08:42:28.98Z</time></trkpt><trkpt lat="39.1704283" lon="16.176585"><ele>877.6666666666667</ele><time>2026-05-01T08:42:29.98Z</time></trkpt><trkpt lat="39.1704817" lon="16.1767783"><ele>877.3333333333333</ele><time>2026-05-01T08:42:30.98Z</time></trkpt><trkpt lat="39.1705417" lon="16.1769817"><ele>877.0</ele><time>2026-05-01T08:42:31.98Z</time></trkpt><trkpt lat="39.1705983" lon="16.1771783"><ele>874.0</ele><time>2026-05-01T08:42:32.98Z</time></trkpt><trkpt lat="39.1706617" lon="16.1773683"><ele>871.0</ele><time>2026-05-01T08:42:33.98Z</time></trkpt><trkpt lat="39.1707383" lon="16.177565"><ele>868.0</ele><time>2026-05-01T08:42:34.981Z</time></trkpt><trkpt lat="39.1708317" lon="16.1777433"><ele>871.6666666666666</ele><time>2026-05-01T08:42:35.981Z</time></trkpt><trkpt lat="39.1709483" lon="16.17791"><ele>875.3333333333333</ele><time>2026-05-01T08:42:36.98Z</time></trkpt><trkpt lat="39.1710683" lon="16.1780633"><ele>879.0</ele><time>2026-05-01T08:42:37.98Z</time></trkpt><trkpt lat="39.1711983" lon="16.1782067"><ele>879.0</ele><time>2026-05-01T08:42:38.98Z</time></trkpt><trkpt lat="39.17133" lon="16.17833"><ele>879.0</ele><time>2026-05-01T08:42:39.98Z</time></trkpt><trkpt lat="39.1714533" lon="16.1784367"><ele>879.0</ele><time>2026-05-01T08:42:40.98Z</time></trkpt><trkpt lat="39.1715617" lon="16.1785217"><ele>879.0</ele><time>2026-05-01T08:42:41.981Z</time></trkpt><trkpt lat="39.1716417" lon="16.1786117"><ele>885.25</ele><time>2026-05-01T08:42:42.981Z</time></trkpt><trkpt lat="39.1716883" lon="16.1787217"><ele>891.5</ele><time>2026-05-01T08:42:43.98Z</time></trkpt><trkpt lat="39.1716933" lon="16.1788683"><ele>897.75</ele><time>2026-05-01T08:42:44.981Z</time></trkpt><trkpt lat="39.1716883" lon="16.179025"><ele>904.0</ele><time>2026-05-01T08:42:45.98Z</time></trkpt><trkpt lat="39.1716867" lon="16.179185"><ele>904.0</ele><time>2026-05-01T08:42:46.98Z</time></trkpt><trkpt lat="39.1716917" lon="16.17936"><ele>904.0</ele><time>2026-05-01T08:42:47.981Z</time></trkpt><trkpt lat="39.1716833" lon="16.179535"><ele>904.0</ele><time>2026-05-01T08:42:48.981Z</time></trkpt><trkpt lat="39.1716533" lon="16.1797017"><ele>904.0</ele><time>2026-05-01T08:42:49.981Z</time></trkpt><trkpt lat="39.1716283" lon="16.1798733"><ele>903.75</ele><time>2026-05-01T08:42:50.981Z</time></trkpt><trkpt lat="39.1716317" lon="16.1800433"><ele>903.5</ele><time>2026-05-01T08:42:51.98Z</time></trkpt><trkpt lat="39.1716617" lon="16.1802217"><ele>903.25</ele><time>2026-05-01T08:42:52.98Z</time></trkpt><trkpt lat="39.171715" lon="16.1804"><ele>903.0</ele><time>2026-05-01T08:42:53.98Z</time></trkpt><trkpt lat="39.1717567" lon="16.1805833"><ele>903.5</ele><time>2026-05-01T08:42:54.98Z</time></trkpt><trkpt lat="39.1717833" lon="16.18077"><ele>904.0</ele><time>2026-05-01T08:42:55.981Z</time></trkpt><trkpt lat="39.171765" lon="16.1809483"><ele>904.5</ele><time>2026-05-01T08:42:56.981Z</time></trkpt><trkpt lat="39.17172" lon="16.1811183"><ele>905.0</ele><time>2026-05-01T08:42:57.98Z</time></trkpt><trkpt lat="39.17166" lon="16.18127"><ele>905.0</ele><time>2026-05-01T08:42:58.98Z</time></trkpt><trkpt lat="39.1716317" lon="16.1814233"><ele>905.0</ele><time>2026-05-01T08:42:59.98Z</time></trkpt><trkpt lat="39.1716367" lon="16.1815767"><ele>905.0</ele><time>2026-05-01T08:43:00.98Z</time></trkpt><trkpt lat="39.1716967" lon="16.1817133"><ele>905.0</ele><time>2026-05-01T08:43:01.98Z</time></trkpt><trkpt lat="39.1718117" lon="16.1818333"><ele>905.5</ele><time>2026-05-01T08:43:02.98Z</time></trkpt><trkpt lat="39.1719467" lon="16.1819367"><ele>906.0</ele><time>2026-05-01T08:43:03.98Z</time></trkpt><trkpt lat="39.1720683" lon="16.18204"><ele>906.5</ele><time>2026-05-01T08:43:04.98Z</time></trkpt><trkpt lat="39.1721783" lon="16.1821583"><ele>907.0</ele><time>2026-05-01T08:43:05.981Z</time></trkpt><trkpt lat="39.17229" lon="16.1822767"><ele>911.0</ele><time>2026-05-01T08:43:06.981Z</time></trkpt><trkpt lat="39.1724017" lon="16.1824067"><ele>915.0</ele><time>2026-05-01T08:43:07.98Z</time></trkpt><trkpt lat="39.1725017" lon="16.1825567"><ele>919.0</ele><time>2026-05-01T08:43:08.98Z</time></trkpt><trkpt lat="39.1726167" lon="16.1827017"><ele>919.0</ele><time>2026-05-01T08:43:09.981Z</time></trkpt><trkpt lat="39.1727333" lon="16.1828417"><ele>919.0</ele><time>2026-05-01T08:43:10.981Z</time></trkpt><trkpt lat="39.1728517" lon="16.18298"><ele>919.0</ele><time>2026-05-01T08:43:11.98Z</time></trkpt><trkpt lat="39.17297" lon="16.1830983"><ele>921.75</ele><time>2026-05-01T08:43:12.98Z</time></trkpt><trkpt lat="39.17311" lon="16.1831883"><ele>924.5</ele><time>2026-05-01T08:43:13.98Z</time></trkpt><trkpt lat="39.173235" lon="16.18328"><ele>927.25</ele><time>2026-05-01T08:43:14.98Z</time></trkpt><trkpt lat="39.1733367" lon="16.18341"><ele>930.0</ele><time>2026-05-01T08:43:15.98Z</time></trkpt><trkpt lat="39.1733883" lon="16.183575"><ele>930.0</ele><time>2026-05-01T08:43:16.981Z</time></trkpt><trkpt lat="39.17342" lon="16.1837467"><ele>930.0</ele><time>2026-05-01T08:43:17.981Z</time></trkpt><trkpt lat="39.1734667" lon="16.1839283"><ele>930.0</ele><time>2026-05-01T08:43:18.981Z</time></trkpt><trkpt lat="39.173535" lon="16.1841017"><ele>930.0</ele><time>2026-05-01T08:43:19.98Z</time></trkpt><trkpt lat="39.1736233" lon="16.184265"><ele>928.0</ele><time>2026-05-01T08:43:20.981Z</time></trkpt><trkpt lat="39.1737183" lon="16.1844183"><ele>926.0</ele><time>2026-05-01T08:43:21.98Z</time></trkpt><trkpt lat="39.17381" lon="16.1845733"><ele>924.0</ele><time>2026-05-01T08:43:22.98Z</time></trkpt><trkpt lat="39.1738817" lon="16.18474"><ele>920.75</ele><time>2026-05-01T08:43:23.98Z</time></trkpt><trkpt lat="39.17394" lon="16.1849117"><ele>917.5</ele><time>2026-05-01T08:43:24.98Z</time></trkpt><trkpt lat="39.1739883" lon="16.185075"><ele>914.25</ele><time>2026-05-01T08:43:25.98Z</time></trkpt><trkpt lat="39.1740333" lon="16.1852317"><ele>911.0</ele><time>2026-05-01T08:43:26.98Z</time></trkpt><trkpt lat="39.1740367" lon="16.1853867"><ele>911.0</ele><time>2026-05-01T08:43:27.98Z</time></trkpt><trkpt lat="39.1740133" lon="16.1855483"><ele>911.0</ele><time>2026-05-01T08:43:28.981Z</time></trkpt><trkpt lat="39.173985" lon="16.1857117"><ele>911.0</ele><time>2026-05-01T08:43:29.98Z</time></trkpt><trkpt lat="39.173975" lon="16.1858767"><ele>911.0</ele><time>2026-05-01T08:43:30.98Z</time></trkpt><trkpt lat="39.1739733" lon="16.1860433"><ele>912.75</ele><time>2026-05-01T08:43:31.98Z</time></trkpt><trkpt lat="39.173985" lon="16.1862133"><ele>914.5</ele><time>2026-05-01T08:43:32.98Z</time></trkpt><trkpt lat="39.1740183" lon="16.1863717"><ele>916.25</ele><time>2026-05-01T08:43:33.98Z</time></trkpt><trkpt lat="39.174045" lon="16.1865033"><ele>918.0</ele><time>2026-05-01T08:43:34.98Z</time></trkpt><trkpt lat="39.1740683" lon="16.1866433"><ele>921.5</ele><time>2026-05-01T08:43:35.98Z</time></trkpt><trkpt lat="39.17405" lon="16.1867717"><ele>925.0</ele><time>2026-05-01T08:43:36.98Z</time></trkpt><trkpt lat="39.1740083" lon="16.1869"><ele>928.5</ele><time>2026-05-01T08:43:37.98Z</time></trkpt><trkpt lat="39.1739633" lon="16.187035"><ele>932.0</ele><time>2026-05-01T08:43:38.98Z</time></trkpt><trkpt lat="39.1739133" lon="16.1871867"><ele>932.0</ele><time>2026-05-01T08:43:39.98Z</time></trkpt><trkpt lat="39.173865" lon="16.187335"><ele>932.0</ele><time>2026-05-01T08:43:40.98Z</time></trkpt><trkpt lat="39.173815" lon="16.18748"><ele>932.0</ele><time>2026-05-01T08:43:41.98Z</time></trkpt><trkpt lat="39.1737833" lon="16.18763"><ele>932.0</ele><time>2026-05-01T08:43:42.98Z</time></trkpt><trkpt lat="39.1737833" lon="16.1877833"><ele>934.75</ele><time>2026-05-01T08:43:43.98Z</time></trkpt><trkpt lat="39.173825" lon="16.1879317"><ele>937.5</ele><time>2026-05-01T08:43:44.98Z</time></trkpt><trkpt lat="39.173875" lon="16.188075"><ele>940.25</ele><time>2026-05-01T08:43:45.981Z</time></trkpt><trkpt lat="39.1739383" lon="16.1881967"><ele>943.0</ele><time>2026-05-01T08:43:46.98Z</time></trkpt><trkpt lat="39.17401" lon="16.1882967"><ele>946.25</ele><time>2026-05-01T08:43:47.98Z</time></trkpt><trkpt lat="39.17411" lon="16.1883667"><ele>949.5</ele><time>2026-05-01T08:43:48.98Z</time></trkpt><trkpt lat="39.17422" lon="16.1883867"><ele>952.75</ele><time>2026-05-01T08:43:49.98Z</time></trkpt><trkpt lat="39.17433" lon="16.188405"><ele>956.0</ele><time>2026-05-01T08:43:50.98Z</time></trkpt><trkpt lat="39.1744633" lon="16.1884267"><ele>956.0</ele><time>2026-05-01T08:43:51.98Z</time></trkpt><trkpt lat="39.1746033" lon="16.18846"><ele>956.0</ele><time>2026-05-01T08:43:52.98Z</time></trkpt><trkpt lat="39.1747217" lon="16.1885217"><ele>956.0</ele><time>2026-05-01T08:43:53.981Z</time></trkpt><trkpt lat="39.1747983" lon="16.1886067"><ele>956.0</ele><time>2026-05-01T08:43:54.98Z</time></trkpt><trkpt lat="39.17486" lon="16.1887183"><ele>957.75</ele><time>2026-05-01T08:43:55.98Z</time></trkpt><trkpt lat="39.1749" lon="16.1888617"><ele>959.5</ele><time>2026-05-01T08:43:56.98Z</time></trkpt><trkpt lat="39.17494" lon="16.18901"><ele>961.25</ele><time>2026-05-01T08:43:57.98Z</time></trkpt><trkpt lat="39.1749917" lon="16.1891433"><ele>963.0</ele><time>2026-05-01T08:43:58.981Z</time></trkpt><trkpt lat="39.175075" lon="16.189275"><ele>963.0</ele><time>2026-05-01T08:43:59.981Z</time></trkpt><trkpt lat="39.1751917" lon="16.1893883"><ele>963.0</ele><time>2026-05-01T08:44:00.981Z</time></trkpt><trkpt lat="39.1753167" lon="16.1894883"><ele>963.0</ele><time>2026-05-01T08:44:01.98Z</time></trkpt><trkpt lat="39.1754333" lon="16.1895883"><ele>963.0</ele><time>2026-05-01T08:44:02.98Z</time></trkpt><trkpt lat="39.1755417" lon="16.1896983"><ele>963.0</ele><time>2026-05-01T08:44:03.98Z</time></trkpt><trkpt lat="39.17566" lon="16.1897833"><ele>963.0</ele><time>2026-05-01T08:44:04.98Z</time></trkpt><trkpt lat="39.1757983" lon="16.1898483"><ele>963.0</ele><time>2026-05-01T08:44:05.98Z</time></trkpt><trkpt lat="39.17593" lon="16.1899017"><ele>963.0</ele><time>2026-05-01T08:44:06.981Z</time></trkpt><trkpt lat="39.17605" lon="16.18997"><ele>962.6666666666667</ele><time>2026-05-01T08:44:07.98Z</time></trkpt><trkpt lat="39.1761783" lon="16.1900633"><ele>962.3333333333334</ele><time>2026-05-01T08:44:08.981Z</time></trkpt><trkpt lat="39.1762933" lon="16.1901933"><ele>962.0</ele><time>2026-05-01T08:44:09.981Z</time></trkpt><trkpt lat="39.17642" lon="16.1903183"><ele>963.0</ele><time>2026-05-01T08:44:10.98Z</time></trkpt><trkpt lat="39.1765533" lon="16.1904583"><ele>964.0</ele><time>2026-05-01T08:44:11.981Z</time></trkpt><trkpt lat="39.1766867" lon="16.1906133"><ele>965.0</ele><time>2026-05-01T08:44:12.98Z</time></trkpt><trkpt lat="39.176815" lon="16.1907733"><ele>965.0</ele><time>2026-05-01T08:44:13.981Z</time></trkpt><trkpt lat="39.1769583" lon="16.1909217"><ele>965.0</ele><time>2026-05-01T08:44:14.981Z</time></trkpt><trkpt lat="39.1770867" lon="16.191035"><ele>965.0</ele><time>2026-05-01T08:44:15.981Z</time></trkpt><trkpt lat="39.17721" lon="16.1911367"><ele>969.3333333333334</ele><time>2026-05-01T08:44:16.981Z</time></trkpt><trkpt lat="39.1773583" lon="16.1912283"><ele>973.6666666666667</ele><time>2026-05-01T08:44:17.98Z</time></trkpt><trkpt lat="39.1775083" lon="16.1913083"><ele>978.0</ele><time>2026-05-01T08:44:18.98Z</time></trkpt><trkpt lat="39.1776583" lon="16.191365"><ele>978.0</ele><time>2026-05-01T08:44:19.98Z</time></trkpt><trkpt lat="39.1777967" lon="16.1914167"><ele>978.0</ele><time>2026-05-01T08:44:20.98Z</time></trkpt><trkpt lat="39.17794" lon="16.1914683"><ele>978.0</ele><time>2026-05-01T08:44:21.98Z</time></trkpt><trkpt lat="39.17808" lon="16.19155"><ele>978.0</ele><time>2026-05-01T08:44:22.98Z</time></trkpt><trkpt lat="39.1782117" lon="16.1916683"><ele>976.6666666666667</ele><time>2026-05-01T08:44:23.98Z</time></trkpt><trkpt lat="39.178325" lon="16.1917967"><ele>975.3333333333334</ele><time>2026-05-01T08:44:24.98Z</time></trkpt><trkpt lat="39.178435" lon="16.19194"><ele>974.0</ele><time>2026-05-01T08:44:25.981Z</time></trkpt><trkpt lat="39.1785383" lon="16.1920783"><ele>974.0</ele><time>2026-05-01T08:44:26.981Z</time></trkpt><trkpt lat="39.1786317" lon="16.1922017"><ele>974.0</ele><time>2026-05-01T08:44:27.981Z</time></trkpt><trkpt lat="39.1787367" lon="16.1922833"><ele>974.0</ele><time>2026-05-01T08:44:28.98Z</time></trkpt><trkpt lat="39.1788567" lon="16.1923517"><ele>974.0</ele><time>2026-05-01T08:44:29.981Z</time></trkpt><trkpt lat="39.1789967" lon="16.1924033"><ele>974.25</ele><time>2026-05-01T08:44:30.98Z</time></trkpt><trkpt lat="39.1791333" lon="16.1924833"><ele>974.5</ele><time>2026-05-01T08:44:31.98Z</time></trkpt><trkpt lat="39.1792367" lon="16.1925867"><ele>974.75</ele><time>2026-05-01T08:44:32.98Z</time></trkpt><trkpt lat="39.1793433" lon="16.1926833"><ele>975.0</ele><time>2026-05-01T08:44:33.98Z</time></trkpt><trkpt lat="39.1794483" lon="16.1927417"><ele>975.0</ele><time>2026-05-01T08:44:34.981Z</time></trkpt><trkpt lat="39.1795683" lon="16.1927567"><ele>975.0</ele><time>2026-05-01T08:44:35.98Z</time></trkpt><trkpt lat="39.1796733" lon="16.192725"><ele>975.0</ele><time>2026-05-01T08:44:36.98Z</time></trkpt><trkpt lat="39.17979" lon="16.1927"><ele>975.0</ele><time>2026-05-01T08:44:37.981Z</time></trkpt><trkpt lat="39.179905" lon="16.19271"><ele>979.0</ele><time>2026-05-01T08:44:38.981Z</time></trkpt><trkpt lat="39.1800183" lon="16.19276"><ele>983.0</ele><time>2026-05-01T08:44:39.98Z</time></trkpt><trkpt lat="39.1801167" lon="16.1928417"><ele>987.0</ele><time>2026-05-01T08:44:40.98Z</time></trkpt><trkpt lat="39.18022" lon="16.192925"><ele>991.0</ele><time>2026-05-01T08:44:41.981Z</time></trkpt><trkpt lat="39.18034" lon="16.1929667"><ele>991.0</ele><time>2026-05-01T08:44:42.981Z</time></trkpt><trkpt lat="39.18048" lon="16.1929717"><ele>991.0</ele><time>2026-05-01T08:44:43.981Z</time></trkpt><trkpt lat="39.1806183" lon="16.1929617"><ele>991.0</ele><time>2026-05-01T08:44:44.981Z</time></trkpt><trkpt lat="39.18075" lon="16.1929333"><ele>991.0</ele><time>2026-05-01T08:44:45.98Z</time></trkpt><trkpt lat="39.1808817" lon="16.1928917"><ele>993.5</ele><time>2026-05-01T08:44:46.98Z</time></trkpt><trkpt lat="39.181015" lon="16.1928617"><ele>996.0</ele><time>2026-05-01T08:44:47.98Z</time></trkpt><trkpt lat="39.1811317" lon="16.1928617"><ele>998.5</ele><time>2026-05-01T08:44:48.98Z</time></trkpt><trkpt lat="39.1812283" lon="16.1929167"><ele>1001.0</ele><time>2026-05-01T08:44:49.98Z</time></trkpt><trkpt lat="39.1813167" lon="16.1929983"><ele>1001.0</ele><time>2026-05-01T08:44:50.98Z</time></trkpt><trkpt lat="39.1813967" lon="16.1931183"><ele>1001.0</ele><time>2026-05-01T08:44:51.98Z</time></trkpt><trkpt lat="39.1814717" lon="16.1932383"><ele>1001.0</ele><time>2026-05-01T08:44:52.981Z</time></trkpt><trkpt lat="39.1815483" lon="16.1933333"><ele>1001.0</ele><time>2026-05-01T08:44:53.981Z</time></trkpt><trkpt lat="39.1816483" lon="16.1933783"><ele>999.0</ele><time>2026-05-01T08:44:54.98Z</time></trkpt><trkpt lat="39.181755" lon="16.1933783"><ele>996.9999999999999</ele><time>2026-05-01T08:44:55.981Z</time></trkpt><trkpt lat="39.1818533" lon="16.1933617"><ele>994.9999999999999</ele><time>2026-05-01T08:44:56.98Z</time></trkpt><trkpt lat="39.1819667" lon="16.1933383"><ele>993.0</ele><time>2026-05-01T08:44:57.981Z</time></trkpt><trkpt lat="39.18208" lon="16.1933433"><ele>991.0</ele><time>2026-05-01T08:44:58.98Z</time></trkpt><trkpt lat="39.1821967" lon="16.1933917"><ele>991.0</ele><time>2026-05-01T08:44:59.981Z</time></trkpt><trkpt lat="39.1823067" lon="16.1934683"><ele>991.0</ele><time>2026-05-01T08:45:00.981Z</time></trkpt><trkpt lat="39.1824133" lon="16.19353"><ele>991.0</ele><time>2026-05-01T08:45:01.981Z</time></trkpt><trkpt lat="39.1825283" lon="16.1935717"><ele>991.0</ele><time>2026-05-01T08:45:02.98Z</time></trkpt><trkpt lat="39.182665" lon="16.1935933"><ele>993.25</ele><time>2026-05-01T08:45:03.98Z</time></trkpt><trkpt lat="39.1827767" lon="16.193625"><ele>995.5</ele><time>2026-05-01T08:45:04.98Z</time></trkpt><trkpt lat="39.1828867" lon="16.1936867"><ele>997.75</ele><time>2026-05-01T08:45:05.98Z</time></trkpt><trkpt lat="39.18299" lon="16.193765"><ele>1000.0</ele><time>2026-05-01T08:45:06.98Z</time></trkpt><trkpt lat="39.183085" lon="16.1938867"><ele>999.6666666666666</ele><time>2026-05-01T08:45:07.98Z</time></trkpt><trkpt lat="39.1831767" lon="16.1940417"><ele>999.3333333333333</ele><time>2026-05-01T08:45:08.98Z</time></trkpt><trkpt lat="39.1832583" lon="16.1942017"><ele>999.0</ele><time>2026-05-01T08:45:09.98Z</time></trkpt><trkpt lat="39.183355" lon="16.1943517"><ele>999.75</ele><time>2026-05-01T08:45:10.98Z</time></trkpt><trkpt lat="39.18348" lon="16.19445"><ele>1000.5</ele><time>2026-05-01T08:45:11.98Z</time></trkpt><trkpt lat="39.1836133" lon="16.1945467"><ele>1001.25</ele><time>2026-05-01T08:45:12.981Z</time></trkpt><trkpt lat="39.18373" lon="16.1946633"><ele>1002.0</ele><time>2026-05-01T08:45:13.98Z</time></trkpt><trkpt lat="39.18382" lon="16.1948017"><ele>1002.5</ele><time>2026-05-01T08:45:14.981Z</time></trkpt><trkpt lat="39.1839017" lon="16.1949533"><ele>1003.0</ele><time>2026-05-01T08:45:15.98Z</time></trkpt><trkpt lat="39.1839833" lon="16.19511"><ele>1003.5</ele><time>2026-05-01T08:45:16.98Z</time></trkpt><trkpt lat="39.1840717" lon="16.1952683"><ele>1004.0</ele><time>2026-05-01T08:45:17.98Z</time></trkpt><trkpt lat="39.1841667" lon="16.19541"><ele>1004.5</ele><time>2026-05-01T08:45:18.98Z</time></trkpt><trkpt lat="39.1842467" lon="16.19556"><ele>1005.0</ele><time>2026-05-01T08:45:19.98Z</time></trkpt><trkpt lat="39.184335" lon="16.1957"><ele>1005.5</ele><time>2026-05-01T08:45:20.981Z</time></trkpt><trkpt lat="39.1844183" lon="16.19585"><ele>1006.0</ele><time>2026-05-01T08:45:21.98Z</time></trkpt><trkpt lat="39.1845033" lon="16.1959967"><ele>1006.0</ele><time>2026-05-01T08:45:22.981Z</time></trkpt><trkpt lat="39.18459" lon="16.1961467"><ele>1006.0</ele><time>2026-05-01T08:45:23.98Z</time></trkpt><trkpt lat="39.1846833" lon="16.196295"><ele>1006.0</ele><time>2026-05-01T08:45:24.981Z</time></trkpt><trkpt lat="39.1847883" lon="16.1964383"><ele>1006.0</ele><time>2026-05-01T08:45:25.981Z</time></trkpt><trkpt lat="39.1849083" lon="16.1965767"><ele>1007.0</ele><time>2026-05-01T08:45:26.98Z</time></trkpt><trkpt lat="39.1850383" lon="16.1967183"><ele>1008.0</ele><time>2026-05-01T08:45:27.98Z</time></trkpt><trkpt lat="39.1851633" lon="16.19686"><ele>1009.0</ele><time>2026-05-01T08:45:28.981Z</time></trkpt><trkpt lat="39.1852883" lon="16.1970033"><ele>1009.0</ele><time>2026-05-01T08:45:29.98Z</time></trkpt><trkpt lat="39.18541" lon="16.1971467"><ele>1009.0</ele><time>2026-05-01T08:45:30.98Z</time></trkpt><trkpt lat="39.185535" lon="16.1972967"><ele>1009.0</ele><time>2026-05-01T08:45:31.98Z</time></trkpt><trkpt lat="39.1856583" lon="16.1974367"><ele>1009.6666666666666</ele><time>2026-05-01T08:45:32.981Z</time></trkpt><trkpt lat="39.1857867" lon="16.1975717"><ele>1010.3333333333333</ele><time>2026-05-01T08:45:33.98Z</time></trkpt><trkpt lat="39.18591" lon="16.1976933"><ele>1011.0</ele><time>2026-05-01T08:45:34.98Z</time></trkpt><trkpt lat="39.1860233" lon="16.1978233"><ele>1011.0</ele><time>2026-05-01T08:45:35.981Z</time></trkpt><trkpt lat="39.186135" lon="16.197955"><ele>1011.0</ele><time>2026-05-01T08:45:36.98Z</time></trkpt><trkpt lat="39.1862383" lon="16.1981"><ele>1011.0</ele><time>2026-05-01T08:45:37.98Z</time></trkpt><trkpt lat="39.18632" lon="16.1982583"><ele>1010.5</ele><time>2026-05-01T08:45:38.981Z</time></trkpt><trkpt lat="39.186385" lon="16.198425"><ele>1010.0</ele><time>2026-05-01T08:45:39.98Z</time></trkpt><trkpt lat="39.18643" lon="16.1986033"><ele>1009.5</ele><time>2026-05-01T08:45:40.98Z</time></trkpt><trkpt lat="39.186475" lon="16.198775"><ele>1009.0</ele><time>2026-05-01T08:45:41.98Z</time></trkpt><trkpt lat="39.1865417" lon="16.1989483"><ele>1009.0</ele><time>2026-05-01T08:45:42.981Z</time></trkpt><trkpt lat="39.186625" lon="16.1990967"><ele>1009.0</ele><time>2026-05-01T08:45:43.981Z</time></trkpt><trkpt lat="39.18672" lon="16.19925"><ele>1009.0</ele><time>2026-05-01T08:45:44.98Z</time></trkpt><trkpt lat="39.1868383" lon="16.1993867"><ele>1009.0</ele><time>2026-05-01T08:45:45.98Z</time></trkpt><trkpt lat="39.1869467" lon="16.1995417"><ele>1009.0</ele><time>2026-05-01T08:45:46.98Z</time></trkpt><trkpt lat="39.1870633" lon="16.19968"><ele>1009.0</ele><time>2026-05-01T08:45:47.981Z</time></trkpt><trkpt lat="39.187175" lon="16.19982"><ele>1009.0</ele><time>2026-05-01T08:45:48.98Z</time></trkpt><trkpt lat="39.18729" lon="16.1999717"><ele>1009.0</ele><time>2026-05-01T08:45:49.981Z</time></trkpt><trkpt lat="39.1874167" lon="16.2001317"><ele>1009.0</ele><time>2026-05-01T08:45:50.981Z</time></trkpt><trkpt lat="39.1875483" lon="16.2003067"><ele>1009.6666666666666</ele><time>2026-05-01T08:45:51.98Z</time></trkpt><trkpt lat="39.1876917" lon="16.2004883"><ele>1010.3333333333333</ele><time>2026-05-01T08:45:52.98Z</time></trkpt><trkpt lat="39.1878083" lon="16.2006717"><ele>1011.0</ele><time>2026-05-01T08:45:53.98Z</time></trkpt><trkpt lat="39.18794" lon="16.200835"><ele>1011.0</ele><time>2026-05-01T08:45:54.981Z</time></trkpt><trkpt lat="39.1880717" lon="16.2009783"><ele>1011.0</ele><time>2026-05-01T08:45:55.981Z</time></trkpt><trkpt lat="39.1882183" lon="16.2011017"><ele>1011.0</ele><time>2026-05-01T08:45:56.981Z</time></trkpt><trkpt lat="39.1883933" lon="16.2012067"><ele>1013.3333333333333</ele><time>2026-05-01T08:45:57.98Z</time></trkpt><trkpt lat="39.1885633" lon="16.201305"><ele>1015.6666666666666</ele><time>2026-05-01T08:45:58.98Z</time></trkpt><trkpt lat="39.1887317" lon="16.2014033"><ele>1018.0</ele><time>2026-05-01T08:45:59.98Z</time></trkpt><trkpt lat="39.1888833" lon="16.2015417"><ele>1019.6666666666666</ele><time>2026-05-01T08:46:00.98Z</time></trkpt><trkpt lat="39.1890317" lon="16.2016683"><ele>1021.3333333333333</ele><time>2026-05-01T08:46:01.98Z</time></trkpt><trkpt lat="39.1891817" lon="16.20181"><ele>1023.0</ele><time>2026-05-01T08:46:02.98Z</time></trkpt><trkpt lat="39.189315" lon="16.20196"><ele>1023.0</ele><time>2026-05-01T08:46:03.98Z</time></trkpt><trkpt lat="39.1894383" lon="16.2021117"><ele>1023.0</ele><time>2026-05-01T08:46:04.98Z</time></trkpt><trkpt lat="39.1895667" lon="16.2022617"><ele>1023.0</ele><time>2026-05-01T08:46:05.98Z</time></trkpt><trkpt lat="39.189655" lon="16.20241"><ele>1023.25</ele><time>2026-05-01T08:46:06.98Z</time></trkpt><trkpt lat="39.18974" lon="16.2025583"><ele>1023.5</ele><time>2026-05-01T08:46:07.981Z</time></trkpt><trkpt lat="39.1898367" lon="16.2027117"><ele>1023.75</ele><time>2026-05-01T08:46:08.981Z</time></trkpt><trkpt lat="39.1899233" lon="16.2028567"><ele>1024.0</ele><time>2026-05-01T08:46:09.98Z</time></trkpt><trkpt lat="39.189995" lon="16.2029933"><ele>1024.25</ele><time>2026-05-01T08:46:10.98Z</time></trkpt><trkpt lat="39.190075" lon="16.2031133"><ele>1024.5</ele><time>2026-05-01T08:46:11.98Z</time></trkpt><trkpt lat="39.1901683" lon="16.2032083"><ele>1024.75</ele><time>2026-05-01T08:46:12.98Z</time></trkpt><trkpt lat="39.1902683" lon="16.2032767"><ele>1025.0</ele><time>2026-05-01T08:46:13.981Z</time></trkpt><trkpt lat="39.1903917" lon="16.2033217"><ele>1024.5</ele><time>2026-05-01T08:46:14.98Z</time></trkpt><trkpt lat="39.190515" lon="16.2033167"><ele>1024.0</ele><time>2026-05-01T08:46:15.981Z</time></trkpt><trkpt lat="39.1906467" lon="16.203295"><ele>1023.5</ele><time>2026-05-01T08:46:16.98Z</time></trkpt><trkpt lat="39.1907717" lon="16.2032733"><ele>1023.0</ele><time>2026-05-01T08:46:17.981Z</time></trkpt><trkpt lat="39.1908883" lon="16.2032567"><ele>1022.3333333333334</ele><time>2026-05-01T08:46:18.98Z</time></trkpt><trkpt lat="39.190995" lon="16.2032383"><ele>1021.6666666666667</ele><time>2026-05-01T08:46:19.981Z</time></trkpt><trkpt lat="39.1910767" lon="16.20321"><ele>1021.0</ele><time>2026-05-01T08:46:20.98Z</time></trkpt><trkpt lat="39.1911467" lon="16.2031517"><ele>1020.3333333333334</ele><time>2026-05-01T08:46:21.98Z</time></trkpt><trkpt lat="39.1911983" lon="16.2030667"><ele>1019.6666666666667</ele><time>2026-05-01T08:46:22.981Z</time></trkpt><trkpt lat="39.19122" lon="16.202975"><ele>1019.0</ele><time>2026-05-01T08:46:23.98Z</time></trkpt><trkpt lat="39.1912033" lon="16.202875"><ele>1019.0</ele><time>2026-05-01T08:46:24.981Z</time></trkpt><trkpt lat="39.1911817" lon="16.2027717"><ele>1019.0000000000001</ele><time>2026-05-01T08:46:25.98Z</time></trkpt><trkpt lat="39.1911733" lon="16.2026767"><ele>1019.0000000000001</ele><time>2026-05-01T08:46:26.981Z</time></trkpt><trkpt lat="39.1911983" lon="16.2025967"><ele>1019.0</ele><time>2026-05-01T08:46:27.98Z</time></trkpt><trkpt lat="39.19133" lon="16.2025667"><ele>1019.0</ele><time>2026-05-01T08:46:29.98Z</time></trkpt><trkpt lat="39.19142" lon="16.2026167"><ele>1018.5</ele><time>2026-05-01T08:46:30.98Z</time></trkpt><trkpt lat="39.1915083" lon="16.202705"><ele>1018.0</ele><time>2026-05-01T08:46:31.98Z</time></trkpt><trkpt lat="39.1916033" lon="16.20282"><ele>1017.5</ele><time>2026-05-01T08:46:32.98Z</time></trkpt><trkpt lat="39.1917117" lon="16.20293"><ele>1017.0</ele><time>2026-05-01T08:46:33.98Z</time></trkpt><trkpt lat="39.1918333" lon="16.203015"><ele>1017.0</ele><time>2026-05-01T08:46:34.981Z</time></trkpt><trkpt lat="39.19195" lon="16.2030783"><ele>1017.0</ele><time>2026-05-01T08:46:35.98Z</time></trkpt><trkpt lat="39.19207" lon="16.203145"><ele>1017.0</ele><time>2026-05-01T08:46:36.981Z</time></trkpt><trkpt lat="39.1922067" lon="16.2031883"><ele>1017.0</ele><time>2026-05-01T08:46:37.981Z</time></trkpt><trkpt lat="39.1923283" lon="16.2032233"><ele>1015.6</ele><time>2026-05-01T08:46:38.98Z</time></trkpt><trkpt lat="39.1924383" lon="16.2032583"><ele>1014.2</ele><time>2026-05-01T08:46:39.98Z</time></trkpt><trkpt lat="39.192545" lon="16.20327"><ele>1012.8</ele><time>2026-05-01T08:46:40.981Z</time></trkpt><trkpt lat="39.1926383" lon="16.2032467"><ele>1011.4</ele><time>2026-05-01T08:46:41.98Z</time></trkpt><trkpt lat="39.1927133" lon="16.2031683"><ele>1010.0</ele><time>2026-05-01T08:46:42.981Z</time></trkpt><trkpt lat="39.1927667" lon="16.2030633"><ele>1010.0</ele><time>2026-05-01T08:46:43.981Z</time></trkpt><trkpt lat="39.1927817" lon="16.2029417"><ele>1010.0</ele><time>2026-05-01T08:46:44.98Z</time></trkpt><trkpt lat="39.1927867" lon="16.2028167"><ele>1010.0</ele><time>2026-05-01T08:46:45.981Z</time></trkpt><trkpt lat="39.192805" lon="16.2027017"><ele>1010.0</ele><time>2026-05-01T08:46:46.981Z</time></trkpt><trkpt lat="39.1928483" lon="16.2026233"><ele>1010.0</ele><time>2026-05-01T08:46:47.98Z</time></trkpt><trkpt lat="39.1929433" lon="16.2025983"><ele>1010.0</ele><time>2026-05-01T08:46:49.98Z</time></trkpt><trkpt lat="39.1930133" lon="16.2027467"><ele>1010.0</ele><time>2026-05-01T08:46:51.98Z</time></trkpt><trkpt lat="39.1930417" lon="16.2028767"><ele>1010.0</ele><time>2026-05-01T08:46:52.98Z</time></trkpt><trkpt lat="39.19308" lon="16.20302"><ele>1010.0</ele><time>2026-05-01T08:46:53.981Z</time></trkpt><trkpt lat="39.1931217" lon="16.2031767"><ele>1007.5</ele><time>2026-05-01T08:46:54.981Z</time></trkpt><trkpt lat="39.1931733" lon="16.20335"><ele>1005.0</ele><time>2026-05-01T08:46:55.98Z</time></trkpt><trkpt lat="39.1932367" lon="16.2035183"><ele>1002.5</ele><time>2026-05-01T08:46:56.98Z</time></trkpt><trkpt lat="39.19331" lon="16.203645"><ele>1000.0</ele><time>2026-05-01T08:46:57.98Z</time></trkpt><trkpt lat="39.1934083" lon="16.203745"><ele>1000.0</ele><time>2026-05-01T08:46:58.98Z</time></trkpt><trkpt lat="39.19352" lon="16.2038217"><ele>1000.0</ele><time>2026-05-01T08:46:59.98Z</time></trkpt><trkpt lat="39.193635" lon="16.203855"><ele>1000.0</ele><time>2026-05-01T08:47:00.98Z</time></trkpt><trkpt lat="39.1937417" lon="16.20387"><ele>1000.0</ele><time>2026-05-01T08:47:01.98Z</time></trkpt><trkpt lat="39.19385" lon="16.20388"><ele>1000.0</ele><time>2026-05-01T08:47:02.981Z</time></trkpt><trkpt lat="39.193965" lon="16.2038933"><ele>1000.0</ele><time>2026-05-01T08:47:03.981Z</time></trkpt><trkpt lat="39.1940833" lon="16.2039083"><ele>1000.0</ele><time>2026-05-01T08:47:04.981Z</time></trkpt><trkpt lat="39.1942083" lon="16.203935"><ele>1000.0</ele><time>2026-05-01T08:47:05.98Z</time></trkpt><trkpt lat="39.194335" lon="16.2039783"><ele>997.0</ele><time>2026-05-01T08:47:06.98Z</time></trkpt><trkpt lat="39.1944367" lon="16.20406"><ele>994.0</ele><time>2026-05-01T08:47:07.98Z</time></trkpt><trkpt lat="39.1945267" lon="16.20415"><ele>991.0</ele><time>2026-05-01T08:47:08.981Z</time></trkpt><trkpt lat="39.1946317" lon="16.20423"><ele>988.0</ele><time>2026-05-01T08:47:09.981Z</time></trkpt><trkpt lat="39.1947383" lon="16.204295"><ele>988.5999999999999</ele><time>2026-05-01T08:47:10.98Z</time></trkpt><trkpt lat="39.1948583" lon="16.20435"><ele>989.1999999999999</ele><time>2026-05-01T08:47:11.981Z</time></trkpt><trkpt lat="39.1949583" lon="16.20441"><ele>989.8</ele><time>2026-05-01T08:47:12.98Z</time></trkpt><trkpt lat="39.1950433" lon="16.2044683"><ele>990.4</ele><time>2026-05-01T08:47:13.981Z</time></trkpt><trkpt lat="39.1951117" lon="16.2045217"><ele>991.0</ele><time>2026-05-01T08:47:14.981Z</time></trkpt><trkpt lat="39.19519" lon="16.20455"><ele>991.0</ele><time>2026-05-01T08:47:15.981Z</time></trkpt><trkpt lat="39.19532" lon="16.2045117"><ele>991.0</ele><time>2026-05-01T08:47:17.98Z</time></trkpt><trkpt lat="39.195405" lon="16.204445"><ele>991.0</ele><time>2026-05-01T08:47:18.98Z</time></trkpt><trkpt lat="39.1955067" lon="16.2043683"><ele>991.0</ele><time>2026-05-01T08:47:19.98Z</time></trkpt><trkpt lat="39.195635" lon="16.2042817"><ele>987.3333333333333</ele><time>2026-05-01T08:47:20.98Z</time></trkpt><trkpt lat="39.19579" lon="16.204235"><ele>983.6666666666667</ele><time>2026-05-01T08:47:21.981Z</time></trkpt><trkpt lat="39.1959717" lon="16.204225"><ele>980.0</ele><time>2026-05-01T08:47:22.98Z</time></trkpt><trkpt lat="39.196155" lon="16.2042317"><ele>980.0</ele><time>2026-05-01T08:47:23.981Z</time></trkpt><trkpt lat="39.1963183" lon="16.20424"><ele>980.0</ele><time>2026-05-01T08:47:24.981Z</time></trkpt><trkpt lat="39.1964733" lon="16.20425"><ele>980.0</ele><time>2026-05-01T08:47:25.981Z</time></trkpt><trkpt lat="39.1966117" lon="16.204265"><ele>978.5</ele><time>2026-05-01T08:47:26.98Z</time></trkpt><trkpt lat="39.196745" lon="16.204285"><ele>977.0</ele><time>2026-05-01T08:47:27.981Z</time></trkpt><trkpt lat="39.19688" lon="16.204305"><ele>975.5</ele><time>2026-05-01T08:47:28.98Z</time></trkpt><trkpt lat="39.196985" lon="16.204325"><ele>974.0</ele><time>2026-05-01T08:47:29.981Z</time></trkpt><trkpt lat="39.197095" lon="16.20433"><ele>974.0</ele><time>2026-05-01T08:47:30.98Z</time></trkpt><trkpt lat="39.1972" lon="16.204295"><ele>974.0000000000001</ele><time>2026-05-01T08:47:31.98Z</time></trkpt><trkpt lat="39.19728" lon="16.2042133"><ele>974.0000000000001</ele><time>2026-05-01T08:47:32.981Z</time></trkpt><trkpt lat="39.1973633" lon="16.2041267"><ele>974.0</ele><time>2026-05-01T08:47:33.981Z</time></trkpt><trkpt lat="39.1974517" lon="16.2040483"><ele>974.0</ele><time>2026-05-01T08:47:34.98Z</time></trkpt><trkpt lat="39.1975417" lon="16.20402"><ele>973.0</ele><time>2026-05-01T08:47:35.98Z</time></trkpt><trkpt lat="39.19765" lon="16.2040433"><ele>972.0</ele><time>2026-05-01T08:47:36.98Z</time></trkpt><trkpt lat="39.1977633" lon="16.2040883"><ele>971.0</ele><time>2026-05-01T08:47:37.98Z</time></trkpt><trkpt lat="39.19786" lon="16.2041817"><ele>970.0</ele><time>2026-05-01T08:47:38.981Z</time></trkpt><trkpt lat="39.197945" lon="16.20429"><ele>970.0</ele><time>2026-05-01T08:47:39.981Z</time></trkpt><trkpt lat="39.1980383" lon="16.2043883"><ele>970.0</ele><time>2026-05-01T08:47:40.98Z</time></trkpt><trkpt lat="39.1981383" lon="16.2044667"><ele>970.0</ele><time>2026-05-01T08:47:41.98Z</time></trkpt><trkpt lat="39.19825" lon="16.2045417"><ele>970.0</ele><time>2026-05-01T08:47:42.981Z</time></trkpt><trkpt lat="39.1983533" lon="16.204615"><ele>967.8</ele><time>2026-05-01T08:47:43.981Z</time></trkpt><trkpt lat="39.1984483" lon="16.2046867"><ele>965.6</ele><time>2026-05-01T08:47:44.98Z</time></trkpt><trkpt lat="39.198535" lon="16.2047683"><ele>963.4000000000001</ele><time>2026-05-01T08:47:45.981Z</time></trkpt><trkpt lat="39.198615" lon="16.2048283"><ele>961.2</ele><time>2026-05-01T08:47:46.981Z</time></trkpt><trkpt lat="39.19869" lon="16.20487"><ele>959.0</ele><time>2026-05-01T08:47:47.981Z</time></trkpt><trkpt lat="39.198755" lon="16.2048667"><ele>959.0000000000001</ele><time>2026-05-01T08:47:48.98Z</time></trkpt><trkpt lat="39.1988083" lon="16.204815"><ele>959.0</ele><time>2026-05-01T08:47:49.98Z</time></trkpt><trkpt lat="39.19883" lon="16.2047367"><ele>959.0</ele><time>2026-05-01T08:47:50.98Z</time></trkpt><trkpt lat="39.198805" lon="16.20463"><ele>959.0</ele><time>2026-05-01T08:47:51.98Z</time></trkpt><trkpt lat="39.1987483" lon="16.20452"><ele>959.0000000000001</ele><time>2026-05-01T08:47:52.98Z</time></trkpt><trkpt lat="39.198685" lon="16.2044067"><ele>959.0</ele><time>2026-05-01T08:47:53.98Z</time></trkpt><trkpt lat="39.198615" lon="16.2043"><ele>959.0</ele><time>2026-05-01T08:47:54.98Z</time></trkpt><trkpt lat="39.1985383" lon="16.2041833"><ele>959.0000000000001</ele><time>2026-05-01T08:47:55.98Z</time></trkpt><trkpt lat="39.1984667" lon="16.2040783"><ele>959.0000000000001</ele><time>2026-05-01T08:47:56.98Z</time></trkpt><trkpt lat="39.1984033" lon="16.20397"><ele>959.0</ele><time>2026-05-01T08:47:57.98Z</time></trkpt><trkpt lat="39.19834" lon="16.2038517"><ele>959.0</ele><time>2026-05-01T08:47:58.98Z</time></trkpt><trkpt lat="39.1982917" lon="16.20374"><ele>958.5</ele><time>2026-05-01T08:47:59.98Z</time></trkpt><trkpt lat="39.1982583" lon="16.20361"><ele>958.0</ele><time>2026-05-01T08:48:00.98Z</time></trkpt><trkpt lat="39.1982417" lon="16.2034667"><ele>957.5</ele><time>2026-05-01T08:48:01.981Z</time></trkpt><trkpt lat="39.1982533" lon="16.2033083"><ele>957.0</ele><time>2026-05-01T08:48:02.981Z</time></trkpt><trkpt lat="39.1982733" lon="16.2031583"><ele>957.0</ele><time>2026-05-01T08:48:03.981Z</time></trkpt><trkpt lat="39.1983033" lon="16.2030017"><ele>957.0</ele><time>2026-05-01T08:48:04.981Z</time></trkpt><trkpt lat="39.1983517" lon="16.20284"><ele>957.0</ele><time>2026-05-01T08:48:05.981Z</time></trkpt><trkpt lat="39.1984017" lon="16.20267"><ele>957.0</ele><time>2026-05-01T08:48:06.98Z</time></trkpt><trkpt lat="39.1984417" lon="16.2024833"><ele>954.0</ele><time>2026-05-01T08:48:07.98Z</time></trkpt><trkpt lat="39.198475" lon="16.2023"><ele>951.0</ele><time>2026-05-01T08:48:08.98Z</time></trkpt><trkpt lat="39.1984817" lon="16.202125"><ele>948.0</ele><time>2026-05-01T08:48:09.98Z</time></trkpt><trkpt lat="39.1984783" lon="16.2019633"><ele>945.0</ele><time>2026-05-01T08:48:10.981Z</time></trkpt><trkpt lat="39.198455" lon="16.201805"><ele>945.0</ele><time>2026-05-01T08:48:11.98Z</time></trkpt><trkpt lat="39.1984167" lon="16.2016467"><ele>945.0</ele><time>2026-05-01T08:48:12.98Z</time></trkpt><trkpt lat="39.1983617" lon="16.2015117"><ele>945.0</ele><time>2026-05-01T08:48:13.98Z</time></trkpt><trkpt lat="39.1982933" lon="16.2014"><ele>945.0</ele><time>2026-05-01T08:48:14.98Z</time></trkpt><trkpt lat="39.1982117" lon="16.201335"><ele>944.1666666666666</ele><time>2026-05-01T08:48:15.98Z</time></trkpt><trkpt lat="39.1981183" lon="16.2013"><ele>943.3333333333333</ele><time>2026-05-01T08:48:16.98Z</time></trkpt><trkpt lat="39.1980167" lon="16.2012817"><ele>942.5</ele><time>2026-05-01T08:48:17.98Z</time></trkpt><trkpt lat="39.19793" lon="16.2012683"><ele>941.6666666666666</ele><time>2026-05-01T08:48:18.981Z</time></trkpt><trkpt lat="39.1978467" lon="16.201255"><ele>940.8333333333333</ele><time>2026-05-01T08:48:19.98Z</time></trkpt><trkpt lat="39.1977717" lon="16.2012383"><ele>940.0</ele><time>2026-05-01T08:48:20.98Z</time></trkpt><trkpt lat="39.1976683" lon="16.20118"><ele>940.0</ele><time>2026-05-01T08:48:22.981Z</time></trkpt><trkpt lat="39.1976467" lon="16.2010933"><ele>940.0</ele><time>2026-05-01T08:48:24.98Z</time></trkpt><trkpt lat="39.197765" lon="16.20106"><ele>940.0</ele><time>2026-05-01T08:48:26.981Z</time></trkpt><trkpt lat="39.19786" lon="16.2010933"><ele>940.0</ele><time>2026-05-01T08:48:27.98Z</time></trkpt><trkpt lat="39.1979517" lon="16.2011417"><ele>940.0</ele><time>2026-05-01T08:48:28.981Z</time></trkpt><trkpt lat="39.1980483" lon="16.201185"><ele>940.0</ele><time>2026-05-01T08:48:29.98Z</time></trkpt><trkpt lat="39.1981517" lon="16.2012183"><ele>940.0</ele><time>2026-05-01T08:48:30.98Z</time></trkpt><trkpt lat="39.19825" lon="16.201245"><ele>940.0</ele><time>2026-05-01T08:48:31.98Z</time></trkpt><trkpt lat="39.1983483" lon="16.2012833"><ele>940.0</ele><time>2026-05-01T08:48:32.98Z</time></trkpt><trkpt lat="39.1984283" lon="16.2013483"><ele>940.0</ele><time>2026-05-01T08:48:33.98Z</time></trkpt><trkpt lat="39.1985" lon="16.2014317"><ele>941.0</ele><time>2026-05-01T08:48:34.98Z</time></trkpt><trkpt lat="39.1985667" lon="16.20154"><ele>942.0</ele><time>2026-05-01T08:48:35.98Z</time></trkpt><trkpt lat="39.1986317" lon="16.201655"><ele>943.0</ele><time>2026-05-01T08:48:36.98Z</time></trkpt><trkpt lat="39.19868" lon="16.2017667"><ele>944.0</ele><time>2026-05-01T08:48:37.981Z</time></trkpt><trkpt lat="39.1987333" lon="16.2018917"><ele>945.0</ele><time>2026-05-01T08:48:38.981Z</time></trkpt><trkpt lat="39.19879" lon="16.2020217"><ele>945.0</ele><time>2026-05-01T08:48:39.98Z</time></trkpt><trkpt lat="39.19883" lon="16.2021667"><ele>945.0</ele><time>2026-05-01T08:48:40.98Z</time></trkpt><trkpt lat="39.1988517" lon="16.20233"><ele>945.0</ele><time>2026-05-01T08:48:41.98Z</time></trkpt><trkpt lat="39.1988533" lon="16.202495"><ele>945.0</ele><time>2026-05-01T08:48:42.981Z</time></trkpt><trkpt lat="39.1988417" lon="16.20266"><ele>948.0</ele><time>2026-05-01T08:48:43.98Z</time></trkpt><trkpt lat="39.1988367" lon="16.202835"><ele>951.0</ele><time>2026-05-01T08:48:44.981Z</time></trkpt><trkpt lat="39.1988417" lon="16.2030167"><ele>954.0</ele><time>2026-05-01T08:48:45.981Z</time></trkpt><trkpt lat="39.1988783" lon="16.203195"><ele>957.0</ele><time>2026-05-01T08:48:46.98Z</time></trkpt><trkpt lat="39.1989167" lon="16.2033833"><ele>957.0</ele><time>2026-05-01T08:48:47.981Z</time></trkpt><trkpt lat="39.198965" lon="16.203575"><ele>957.0</ele><time>2026-05-01T08:48:48.98Z</time></trkpt><trkpt lat="39.1990017" lon="16.203755"><ele>957.0</ele><time>2026-05-01T08:48:49.981Z</time></trkpt><trkpt lat="39.1990333" lon="16.2039183"><ele>957.0</ele><time>2026-05-01T08:48:50.981Z</time></trkpt><trkpt lat="39.19909" lon="16.20407"><ele>950.5</ele><time>2026-05-01T08:48:51.981Z</time></trkpt><trkpt lat="39.1991783" lon="16.2042"><ele>944.0</ele><time>2026-05-01T08:48:52.981Z</time></trkpt><trkpt lat="39.199285" lon="16.2043083"><ele>937.5</ele><time>2026-05-01T08:48:53.981Z</time></trkpt><trkpt lat="39.199395" lon="16.2043967"><ele>931.0</ele><time>2026-05-01T08:48:54.98Z</time></trkpt><trkpt lat="39.1994933" lon="16.2044967"><ele>931.0</ele><time>2026-05-01T08:48:55.98Z</time></trkpt><trkpt lat="39.1996117" lon="16.2045733"><ele>931.0</ele><time>2026-05-01T08:48:56.98Z</time></trkpt><trkpt lat="39.1997367" lon="16.2046383"><ele>931.0</ele><time>2026-05-01T08:48:57.981Z</time></trkpt><trkpt lat="39.199865" lon="16.2047233"><ele>931.0</ele><time>2026-05-01T08:48:58.98Z</time></trkpt><trkpt lat="39.19998" lon="16.2047883"><ele>927.5</ele><time>2026-05-01T08:48:59.98Z</time></trkpt><trkpt lat="39.200085" lon="16.2048767"><ele>924.0</ele><time>2026-05-01T08:49:00.98Z</time></trkpt><trkpt lat="39.2001867" lon="16.2049967"><ele>920.5</ele><time>2026-05-01T08:49:01.981Z</time></trkpt><trkpt lat="39.2002717" lon="16.2051383"><ele>917.0</ele><time>2026-05-01T08:49:02.98Z</time></trkpt><trkpt lat="39.20034" lon="16.2052783"><ele>917.0</ele><time>2026-05-01T08:49:03.98Z</time></trkpt><trkpt lat="39.2003983" lon="16.2054333"><ele>917.0</ele><time>2026-05-01T08:49:04.98Z</time></trkpt><trkpt lat="39.2004367" lon="16.2056033"><ele>917.0</ele><time>2026-05-01T08:49:05.98Z</time></trkpt><trkpt lat="39.2004567" lon="16.2057483"><ele>917.0</ele><time>2026-05-01T08:49:06.98Z</time></trkpt><trkpt lat="39.200455" lon="16.2058817"><ele>918.0</ele><time>2026-05-01T08:49:07.981Z</time></trkpt><trkpt lat="39.2004367" lon="16.2060117"><ele>919.0</ele><time>2026-05-01T08:49:08.98Z</time></trkpt><trkpt lat="39.2003883" lon="16.2061217"><ele>920.0</ele><time>2026-05-01T08:49:09.981Z</time></trkpt><trkpt lat="39.20032" lon="16.2061933"><ele>921.0</ele><time>2026-05-01T08:49:10.98Z</time></trkpt><trkpt lat="39.2002033" lon="16.2062267"><ele>922.0</ele><time>2026-05-01T08:49:11.981Z</time></trkpt><trkpt lat="39.2000833" lon="16.206225"><ele>922.0</ele><time>2026-05-01T08:49:12.98Z</time></trkpt><trkpt lat="39.1999783" lon="16.2062383"><ele>922.0</ele><time>2026-05-01T08:49:13.98Z</time></trkpt><trkpt lat="39.199875" lon="16.2062933"><ele>922.0</ele><time>2026-05-01T08:49:14.98Z</time></trkpt><trkpt lat="39.1998083" lon="16.206375"><ele>922.0</ele><time>2026-05-01T08:49:15.98Z</time></trkpt><trkpt lat="39.1997667" lon="16.206475"><ele>922.0</ele><time>2026-05-01T08:49:16.981Z</time></trkpt><trkpt lat="39.1997" lon="16.206575"><ele>916.75</ele><time>2026-05-01T08:49:17.98Z</time></trkpt><trkpt lat="39.1996333" lon="16.206645"><ele>911.5</ele><time>2026-05-01T08:49:18.98Z</time></trkpt><trkpt lat="39.1995317" lon="16.2066583"><ele>906.25</ele><time>2026-05-01T08:49:19.981Z</time></trkpt><trkpt lat="39.1994033" lon="16.20663"><ele>901.0</ele><time>2026-05-01T08:49:20.98Z</time></trkpt><trkpt lat="39.199265" lon="16.2066"><ele>901.0</ele><time>2026-05-01T08:49:21.98Z</time></trkpt><trkpt lat="39.1991233" lon="16.2065617"><ele>901.0</ele><time>2026-05-01T08:49:22.981Z</time></trkpt><trkpt lat="39.1989833" lon="16.206545"><ele>901.0</ele><time>2026-05-01T08:49:23.981Z</time></trkpt><trkpt lat="39.1988333" lon="16.20654"><ele>901.0</ele><time>2026-05-01T08:49:24.981Z</time></trkpt><trkpt lat="39.1986867" lon="16.2065433"><ele>900.0</ele><time>2026-05-01T08:49:25.98Z</time></trkpt><trkpt lat="39.198535" lon="16.2065617"><ele>899.0</ele><time>2026-05-01T08:49:26.98Z</time></trkpt><trkpt lat="39.19839" lon="16.2065933"><ele>898.0</ele><time>2026-05-01T08:49:27.98Z</time></trkpt><trkpt lat="39.1982367" lon="16.2066383"><ele>898.5</ele><time>2026-05-01T08:49:28.98Z</time></trkpt><trkpt lat="39.1981033" lon="16.2066783"><ele>899.0</ele><time>2026-05-01T08:49:29.98Z</time></trkpt><trkpt lat="39.1979817" lon="16.2067317"><ele>899.5</ele><time>2026-05-01T08:49:30.981Z</time></trkpt><trkpt lat="39.197875" lon="16.206795"><ele>900.0</ele><time>2026-05-01T08:49:31.98Z</time></trkpt><trkpt lat="39.1977767" lon="16.2068767"><ele>900.0</ele><time>2026-05-01T08:49:32.98Z</time></trkpt><trkpt lat="39.197675" lon="16.2069583"><ele>900.0</ele><time>2026-05-01T08:49:33.98Z</time></trkpt><trkpt lat="39.19758" lon="16.20704"><ele>900.0</ele><time>2026-05-01T08:49:34.98Z</time></trkpt><trkpt lat="39.197475" lon="16.20709"><ele>900.0</ele><time>2026-05-01T08:49:35.981Z</time></trkpt><trkpt lat="39.1973683" lon="16.2070933"><ele>899.2</ele><time>2026-05-01T08:49:36.98Z</time></trkpt><trkpt lat="39.197265" lon="16.2070533"><ele>898.4</ele><time>2026-05-01T08:49:37.98Z</time></trkpt><trkpt lat="39.1971667" lon="16.2070017"><ele>897.5999999999999</ele><time>2026-05-01T08:49:38.98Z</time></trkpt><trkpt lat="39.1970717" lon="16.2069483"><ele>896.8</ele><time>2026-05-01T08:49:39.98Z</time></trkpt><trkpt lat="39.1969933" lon="16.2069233"><ele>896.0</ele><time>2026-05-01T08:49:40.98Z</time></trkpt><trkpt lat="39.1969283" lon="16.2069433"><ele>896.0</ele><time>2026-05-01T08:49:41.98Z</time></trkpt><trkpt lat="39.196865" lon="16.2070583"><ele>895.9999999999999</ele><time>2026-05-01T08:49:43.98Z</time></trkpt><trkpt lat="39.196885" lon="16.2071433"><ele>895.9999999999999</ele><time>2026-05-01T08:49:44.98Z</time></trkpt><trkpt lat="39.1969483" lon="16.2072233"><ele>896.0</ele><time>2026-05-01T08:49:45.981Z</time></trkpt><trkpt lat="39.19704" lon="16.2073"><ele>896.0</ele><time>2026-05-01T08:49:46.981Z</time></trkpt><trkpt lat="39.1971517" lon="16.2073633"><ele>891.75</ele><time>2026-05-01T08:49:47.98Z</time></trkpt><trkpt lat="39.1972733" lon="16.207425"><ele>887.5</ele><time>2026-05-01T08:49:48.98Z</time></trkpt><trkpt lat="39.1974017" lon="16.2074783"><ele>883.25</ele><time>2026-05-01T08:49:49.98Z</time></trkpt><trkpt lat="39.1975417" lon="16.20748"><ele>879.0</ele><time>2026-05-01T08:49:50.98Z</time></trkpt><trkpt lat="39.1976833" lon="16.20744"><ele>879.0</ele><time>2026-05-01T08:49:51.98Z</time></trkpt><trkpt lat="39.1978217" lon="16.2073767"><ele>879.0</ele><time>2026-05-01T08:49:52.98Z</time></trkpt><trkpt lat="39.1979517" lon="16.20733"><ele>879.0</ele><time>2026-05-01T08:49:53.98Z</time></trkpt><trkpt lat="39.1980867" lon="16.2073117"><ele>879.0</ele><time>2026-05-01T08:49:54.98Z</time></trkpt><trkpt lat="39.1982283" lon="16.20733"><ele>877.6666666666667</ele><time>2026-05-01T08:49:55.98Z</time></trkpt><trkpt lat="39.1983783" lon="16.2073717"><ele>876.3333333333334</ele><time>2026-05-01T08:49:56.98Z</time></trkpt><trkpt lat="39.1985233" lon="16.207415"><ele>875.0</ele><time>2026-05-01T08:49:57.98Z</time></trkpt><trkpt lat="39.1986817" lon="16.2074433"><ele>875.0</ele><time>2026-05-01T08:49:58.981Z</time></trkpt><trkpt lat="39.1988467" lon="16.2074583"><ele>875.0</ele><time>2026-05-01T08:49:59.98Z</time></trkpt><trkpt lat="39.19901" lon="16.2074533"><ele>875.0</ele><time>2026-05-01T08:50:00.981Z</time></trkpt><trkpt lat="39.1991817" lon="16.2074367"><ele>873.6666666666667</ele><time>2026-05-01T08:50:01.98Z</time></trkpt><trkpt lat="39.1993583" lon="16.2074417"><ele>872.3333333333333</ele><time>2026-05-01T08:50:02.98Z</time></trkpt><trkpt lat="39.1995383" lon="16.2074633"><ele>871.0</ele><time>2026-05-01T08:50:03.98Z</time></trkpt><trkpt lat="39.1997217" lon="16.20748"><ele>869.6666666666666</ele><time>2026-05-01T08:50:04.98Z</time></trkpt><trkpt lat="39.1999" lon="16.2075117"><ele>868.3333333333333</ele><time>2026-05-01T08:50:05.982Z</time></trkpt><trkpt lat="39.2000717" lon="16.2075383"><ele>867.0</ele><time>2026-05-01T08:50:06.981Z</time></trkpt><trkpt lat="39.2002367" lon="16.20756"><ele>867.0</ele><time>2026-05-01T08:50:07.981Z</time></trkpt><trkpt lat="39.2004" lon="16.207575"><ele>867.0</ele><time>2026-05-01T08:50:08.981Z</time></trkpt><trkpt lat="39.200565" lon="16.2075767"><ele>867.0</ele><time>2026-05-01T08:50:09.981Z</time></trkpt><trkpt lat="39.2007217" lon="16.20758"><ele>866.0</ele><time>2026-05-01T08:50:10.981Z</time></trkpt><trkpt lat="39.2008683" lon="16.2075867"><ele>865.0</ele><time>2026-05-01T08:50:11.981Z</time></trkpt><trkpt lat="39.2010017" lon="16.2075817"><ele>864.0</ele><time>2026-05-01T08:50:12.982Z</time></trkpt><trkpt lat="39.2011233" lon="16.2075417"><ele>863.0</ele><time>2026-05-01T08:50:13.982Z</time></trkpt><trkpt lat="39.201225" lon="16.207455"><ele>861.0</ele><time>2026-05-01T08:50:14.982Z</time></trkpt><trkpt lat="39.201305" lon="16.207305"><ele>859.0</ele><time>2026-05-01T08:50:15.981Z</time></trkpt><trkpt lat="39.2013683" lon="16.2071517"><ele>857.0</ele><time>2026-05-01T08:50:16.981Z</time></trkpt><trkpt lat="39.20143" lon="16.2070017"><ele>855.0</ele><time>2026-05-01T08:50:17.982Z</time></trkpt><trkpt lat="39.2015167" lon="16.206845"><ele>855.0</ele><time>2026-05-01T08:50:18.982Z</time></trkpt><trkpt lat="39.2016" lon="16.2066967"><ele>855.0</ele><time>2026-05-01T08:50:19.981Z</time></trkpt><trkpt lat="39.201695" lon="16.206535"><ele>855.0</ele><time>2026-05-01T08:50:20.982Z</time></trkpt><trkpt lat="39.2018033" lon="16.2064083"><ele>855.0</ele><time>2026-05-01T08:50:21.981Z</time></trkpt><trkpt lat="39.2019283" lon="16.2062983"><ele>854.0</ele><time>2026-05-01T08:50:22.982Z</time></trkpt><trkpt lat="39.20206" lon="16.20623"><ele>853.0</ele><time>2026-05-01T08:50:23.981Z</time></trkpt><trkpt lat="39.2022" lon="16.206195"><ele>852.0</ele><time>2026-05-01T08:50:24.981Z</time></trkpt><trkpt lat="39.20234" lon="16.206205"><ele>851.0</ele><time>2026-05-01T08:50:25.981Z</time></trkpt><trkpt lat="39.2024683" lon="16.2062417"><ele>851.0</ele><time>2026-05-01T08:50:26.981Z</time></trkpt><trkpt lat="39.20258" lon="16.2062683"><ele>851.0</ele><time>2026-05-01T08:50:27.981Z</time></trkpt><trkpt lat="39.2026733" lon="16.206265"><ele>851.0</ele><time>2026-05-01T08:50:28.981Z</time></trkpt><trkpt lat="39.2027567" lon="16.20622"><ele>851.0</ele><time>2026-05-01T08:50:29.981Z</time></trkpt><trkpt lat="39.20282" lon="16.206135"><ele>851.0</ele><time>2026-05-01T08:50:30.981Z</time></trkpt><trkpt lat="39.2028733" lon="16.2060167"><ele>851.0</ele><time>2026-05-01T08:50:31.981Z</time></trkpt><trkpt lat="39.2029117" lon="16.2058833"><ele>851.0</ele><time>2026-05-01T08:50:32.982Z</time></trkpt><trkpt lat="39.2029183" lon="16.2057317"><ele>851.0</ele><time>2026-05-01T08:50:33.981Z</time></trkpt><trkpt lat="39.2029017" lon="16.2055933"><ele>851.0</ele><time>2026-05-01T08:50:34.981Z</time></trkpt><trkpt lat="39.2028433" lon="16.205455"><ele>848.25</ele><time>2026-05-01T08:50:35.981Z</time></trkpt><trkpt lat="39.2027667" lon="16.2053367"><ele>845.5</ele><time>2026-05-01T08:50:36.982Z</time></trkpt><trkpt lat="39.20267" lon="16.205215"><ele>842.75</ele><time>2026-05-01T08:50:37.981Z</time></trkpt><trkpt lat="39.2025683" lon="16.20509"><ele>840.0</ele><time>2026-05-01T08:50:38.981Z</time></trkpt><trkpt lat="39.202465" lon="16.2049533"><ele>840.6666666666667</ele><time>2026-05-01T08:50:39.982Z</time></trkpt><trkpt lat="39.2023417" lon="16.2048183"><ele>841.3333333333334</ele><time>2026-05-01T08:50:40.981Z</time></trkpt><trkpt lat="39.2022267" lon="16.2046967"><ele>842.0</ele><time>2026-05-01T08:50:41.981Z</time></trkpt><trkpt lat="39.2021133" lon="16.2045833"><ele>842.0</ele><time>2026-05-01T08:50:42.982Z</time></trkpt><trkpt lat="39.202" lon="16.204465"><ele>842.0</ele><time>2026-05-01T08:50:43.981Z</time></trkpt><trkpt lat="39.2019167" lon="16.2043467"><ele>842.0</ele><time>2026-05-01T08:50:44.981Z</time></trkpt><trkpt lat="39.2018667" lon="16.2042083"><ele>842.0</ele><time>2026-05-01T08:50:45.981Z</time></trkpt><trkpt lat="39.2018217" lon="16.204075"><ele>842.0</ele><time>2026-05-01T08:50:46.981Z</time></trkpt><trkpt lat="39.2017833" lon="16.2039717"><ele>842.0</ele><time>2026-05-01T08:50:47.982Z</time></trkpt><trkpt lat="39.2017817" lon="16.2038367"><ele>842.0</ele><time>2026-05-01T08:50:49.981Z</time></trkpt><trkpt lat="39.2018717" lon="16.203845"><ele>842.0</ele><time>2026-05-01T08:50:52.982Z</time></trkpt><trkpt lat="39.20194" lon="16.2039317"><ele>842.0</ele><time>2026-05-01T08:50:53.981Z</time></trkpt><trkpt lat="39.2020167" lon="16.204035"><ele>842.0</ele><time>2026-05-01T08:50:54.981Z</time></trkpt><trkpt lat="39.2021017" lon="16.2041483"><ele>842.0</ele><time>2026-05-01T08:50:55.981Z</time></trkpt><trkpt lat="39.2021867" lon="16.2042667"><ele>842.0</ele><time>2026-05-01T08:50:56.982Z</time></trkpt><trkpt lat="39.2022867" lon="16.20438"><ele>842.0</ele><time>2026-05-01T08:50:57.981Z</time></trkpt><trkpt lat="39.2023833" lon="16.2044883"><ele>837.25</ele><time>2026-05-01T08:50:58.981Z</time></trkpt><trkpt lat="39.202485" lon="16.204595"><ele>832.5</ele><time>2026-05-01T08:50:59.982Z</time></trkpt><trkpt lat="39.2025967" lon="16.204675"><ele>827.75</ele><time>2026-05-01T08:51:00.981Z</time></trkpt><trkpt lat="39.202725" lon="16.204735"><ele>823.0</ele><time>2026-05-01T08:51:01.982Z</time></trkpt><trkpt lat="39.202855" lon="16.2047833"><ele>822.0</ele><time>2026-05-01T08:51:02.981Z</time></trkpt><trkpt lat="39.2029833" lon="16.2048333"><ele>821.0</ele><time>2026-05-01T08:51:03.982Z</time></trkpt><trkpt lat="39.20312" lon="16.204885"><ele>820.0</ele><time>2026-05-01T08:51:04.981Z</time></trkpt><trkpt lat="39.2032467" lon="16.2049633"><ele>819.0</ele><time>2026-05-01T08:51:05.982Z</time></trkpt><trkpt lat="39.2033583" lon="16.2050783"><ele>819.0</ele><time>2026-05-01T08:51:06.981Z</time></trkpt><trkpt lat="39.2034533" lon="16.2052167"><ele>819.0</ele><time>2026-05-01T08:51:07.981Z</time></trkpt><trkpt lat="39.2035317" lon="16.2053633"><ele>819.0</ele><time>2026-05-01T08:51:08.981Z</time></trkpt><trkpt lat="39.2035933" lon="16.2055233"><ele>819.0</ele><time>2026-05-01T08:51:09.981Z</time></trkpt><trkpt lat="39.2036383" lon="16.2057017"><ele>821.25</ele><time>2026-05-01T08:51:10.981Z</time></trkpt><trkpt lat="39.2036483" lon="16.2058833"><ele>823.5</ele><time>2026-05-01T08:51:11.981Z</time></trkpt><trkpt lat="39.2036433" lon="16.20606"><ele>825.75</ele><time>2026-05-01T08:51:12.982Z</time></trkpt><trkpt lat="39.2036283" lon="16.2062417"><ele>828.0</ele><time>2026-05-01T08:51:13.981Z</time></trkpt><trkpt lat="39.2036333" lon="16.2064283"><ele>826.25</ele><time>2026-05-01T08:51:14.981Z</time></trkpt><trkpt lat="39.2036317" lon="16.2066"><ele>824.5</ele><time>2026-05-01T08:51:15.981Z</time></trkpt><trkpt lat="39.2036233" lon="16.2067767"><ele>822.75</ele><time>2026-05-01T08:51:16.981Z</time></trkpt><trkpt lat="39.2036067" lon="16.2069417"><ele>821.0</ele><time>2026-05-01T08:51:17.982Z</time></trkpt><trkpt lat="39.203575" lon="16.20709"><ele>821.0</ele><time>2026-05-01T08:51:18.982Z</time></trkpt><trkpt lat="39.203515" lon="16.20722"><ele>821.0</ele><time>2026-05-01T08:51:19.981Z</time></trkpt><trkpt lat="39.2034267" lon="16.20732"><ele>821.0</ele><time>2026-05-01T08:51:20.982Z</time></trkpt><trkpt lat="39.2033533" lon="16.20739"><ele>821.0</ele><time>2026-05-01T08:51:21.981Z</time></trkpt><trkpt lat="39.2032567" lon="16.2074617"><ele>821.0</ele><time>2026-05-01T08:51:22.982Z</time></trkpt><trkpt lat="39.2031517" lon="16.2075333"><ele>819.0</ele><time>2026-05-01T08:51:23.981Z</time></trkpt><trkpt lat="39.2030383" lon="16.207625"><ele>817.0</ele><time>2026-05-01T08:51:24.981Z</time></trkpt><trkpt lat="39.2029283" lon="16.2077267"><ele>815.0</ele><time>2026-05-01T08:51:25.982Z</time></trkpt><trkpt lat="39.2028267" lon="16.2078667"><ele>813.0</ele><time>2026-05-01T08:51:26.982Z</time></trkpt><trkpt lat="39.2027383" lon="16.2080317"><ele>809.5</ele><time>2026-05-01T08:51:27.981Z</time></trkpt><trkpt lat="39.2026883" lon="16.2082017"><ele>806.0</ele><time>2026-05-01T08:51:28.981Z</time></trkpt><trkpt lat="39.2026433" lon="16.2083833"><ele>802.5</ele><time>2026-05-01T08:51:29.981Z</time></trkpt><trkpt lat="39.2026033" lon="16.20856"><ele>799.0</ele><time>2026-05-01T08:51:30.981Z</time></trkpt><trkpt lat="39.2025683" lon="16.2087517"><ele>799.0</ele><time>2026-05-01T08:51:31.982Z</time></trkpt><trkpt lat="39.20253" lon="16.208935"><ele>799.0</ele><time>2026-05-01T08:51:32.981Z</time></trkpt><trkpt lat="39.20249" lon="16.2091217"><ele>799.0</ele><time>2026-05-01T08:51:33.982Z</time></trkpt><trkpt lat="39.2024533" lon="16.2092817"><ele>799.0</ele><time>2026-05-01T08:51:34.982Z</time></trkpt><trkpt lat="39.202415" lon="16.2094267"><ele>797.0</ele><time>2026-05-01T08:51:35.981Z</time></trkpt><trkpt lat="39.2023833" lon="16.2095483"><ele>795.0</ele><time>2026-05-01T08:51:36.981Z</time></trkpt><trkpt lat="39.202375" lon="16.2096533"><ele>793.0</ele><time>2026-05-01T08:51:37.981Z</time></trkpt><trkpt lat="39.2024117" lon="16.2097717"><ele>791.0</ele><time>2026-05-01T08:51:39.981Z</time></trkpt><trkpt lat="39.2024983" lon="16.2097383"><ele>789.0</ele><time>2026-05-01T08:51:41.982Z</time></trkpt><trkpt lat="39.2025583" lon="16.2096533"><ele>789.0</ele><time>2026-05-01T08:51:42.981Z</time></trkpt><trkpt lat="39.2026233" lon="16.2095367"><ele>789.0</ele><time>2026-05-01T08:51:43.982Z</time></trkpt><trkpt lat="39.2026733" lon="16.2094033"><ele>789.0</ele><time>2026-05-01T08:51:44.981Z</time></trkpt><trkpt lat="39.2027283" lon="16.2092567"><ele>789.0</ele><time>2026-05-01T08:51:45.982Z</time></trkpt><trkpt lat="39.2027767" lon="16.20906"><ele>791.5</ele><time>2026-05-01T08:51:46.981Z</time></trkpt><trkpt lat="39.20282" lon="16.2088967"><ele>794.0</ele><time>2026-05-01T08:51:47.982Z</time></trkpt><trkpt lat="39.20286" lon="16.2087467"><ele>796.5</ele><time>2026-05-01T08:51:48.981Z</time></trkpt><trkpt lat="39.20293" lon="16.2086067"><ele>799.0</ele><time>2026-05-01T08:51:49.981Z</time></trkpt><trkpt lat="39.2030267" lon="16.2084833"><ele>799.0</ele><time>2026-05-01T08:51:50.981Z</time></trkpt><trkpt lat="39.203135" lon="16.208385"><ele>799.0</ele><time>2026-05-01T08:51:51.981Z</time></trkpt><trkpt lat="39.2032517" lon="16.208305"><ele>799.0</ele><time>2026-05-01T08:51:52.981Z</time></trkpt><trkpt lat="39.20337" lon="16.2082533"><ele>799.0</ele><time>2026-05-01T08:51:53.982Z</time></trkpt><trkpt lat="39.2035133" lon="16.20825"><ele>793.25</ele><time>2026-05-01T08:51:54.982Z</time></trkpt><trkpt lat="39.2036533" lon="16.2082633"><ele>787.5</ele><time>2026-05-01T08:51:55.982Z</time></trkpt><trkpt lat="39.2037967" lon="16.2082833"><ele>781.75</ele><time>2026-05-01T08:51:56.981Z</time></trkpt><trkpt lat="39.20392" lon="16.208265"><ele>776.0</ele><time>2026-05-01T08:51:57.982Z</time></trkpt><trkpt lat="39.20403" lon="16.20821"><ele>776.75</ele><time>2026-05-01T08:51:58.981Z</time></trkpt><trkpt lat="39.20413" lon="16.2081167"><ele>777.5</ele><time>2026-05-01T08:51:59.981Z</time></trkpt><trkpt lat="39.2042183" lon="16.2079817"><ele>778.25</ele><time>2026-05-01T08:52:00.982Z</time></trkpt><trkpt lat="39.2042967" lon="16.2078267"><ele>779.0</ele><time>2026-05-01T08:52:01.981Z</time></trkpt><trkpt lat="39.2043617" lon="16.2076517"><ele>779.0</ele><time>2026-05-01T08:52:02.981Z</time></trkpt><trkpt lat="39.2044283" lon="16.207475"><ele>779.0</ele><time>2026-05-01T08:52:03.982Z</time></trkpt><trkpt lat="39.204495" lon="16.2072933"><ele>779.0</ele><time>2026-05-01T08:52:04.981Z</time></trkpt><trkpt lat="39.2045583" lon="16.2071217"><ele>782.6666666666667</ele><time>2026-05-01T08:52:05.981Z</time></trkpt><trkpt lat="39.2046267" lon="16.2069467"><ele>786.3333333333333</ele><time>2026-05-01T08:52:06.981Z</time></trkpt><trkpt lat="39.20469" lon="16.2067683"><ele>790.0</ele><time>2026-05-01T08:52:07.981Z</time></trkpt><trkpt lat="39.2047367" lon="16.2065733"><ele>790.0</ele><time>2026-05-01T08:52:08.981Z</time></trkpt><trkpt lat="39.20476" lon="16.20637"><ele>790.0</ele><time>2026-05-01T08:52:09.981Z</time></trkpt><trkpt lat="39.2047683" lon="16.206185"><ele>790.0</ele><time>2026-05-01T08:52:10.981Z</time></trkpt><trkpt lat="39.2047733" lon="16.20601"><ele>790.0</ele><time>2026-05-01T08:52:11.982Z</time></trkpt><trkpt lat="39.204785" lon="16.2058417"><ele>790.0</ele><time>2026-05-01T08:52:12.982Z</time></trkpt><trkpt lat="39.2048033" lon="16.2056833"><ele>790.0</ele><time>2026-05-01T08:52:13.981Z</time></trkpt><trkpt lat="39.2048383" lon="16.205535"><ele>790.0</ele><time>2026-05-01T08:52:14.981Z</time></trkpt><trkpt lat="39.2048767" lon="16.2054083"><ele>790.0</ele><time>2026-05-01T08:52:15.981Z</time></trkpt><trkpt lat="39.2049217" lon="16.2052883"><ele>778.75</ele><time>2026-05-01T08:52:16.982Z</time></trkpt><trkpt lat="39.20497" lon="16.205165"><ele>767.5</ele><time>2026-05-01T08:52:17.982Z</time></trkpt><trkpt lat="39.20499" lon="16.2050233"><ele>756.25</ele><time>2026-05-01T08:52:18.981Z</time></trkpt><trkpt lat="39.2049917" lon="16.2048733"><ele>745.0</ele><time>2026-05-01T08:52:19.982Z</time></trkpt><trkpt lat="39.204985" lon="16.2047167"><ele>744.5</ele><time>2026-05-01T08:52:20.981Z</time></trkpt><trkpt lat="39.2049933" lon="16.204565"><ele>744.0</ele><time>2026-05-01T08:52:21.981Z</time></trkpt><trkpt lat="39.205035" lon="16.2044033"><ele>743.5</ele><time>2026-05-01T08:52:22.981Z</time></trkpt><trkpt lat="39.205085" lon="16.2042467"><ele>743.0</ele><time>2026-05-01T08:52:23.981Z</time></trkpt><trkpt lat="39.20514" lon="16.2041033"><ele>743.0</ele><time>2026-05-01T08:52:24.982Z</time></trkpt><trkpt lat="39.2052033" lon="16.2039983"><ele>743.0</ele><time>2026-05-01T08:52:25.982Z</time></trkpt><trkpt lat="39.205275" lon="16.2039433"><ele>743.0</ele><time>2026-05-01T08:52:26.982Z</time></trkpt><trkpt lat="39.2053517" lon="16.20393"><ele>743.0</ele><time>2026-05-01T08:52:27.982Z</time></trkpt><trkpt lat="39.2054283" lon="16.20396"><ele>743.0</ele><time>2026-05-01T08:52:28.981Z</time></trkpt><trkpt lat="39.2055033" lon="16.2040283"><ele>743.0</ele><time>2026-05-01T08:52:29.981Z</time></trkpt><trkpt lat="39.2055833" lon="16.20412"><ele>745.75</ele><time>2026-05-01T08:52:30.982Z</time></trkpt><trkpt lat="39.2056667" lon="16.204235"><ele>748.5</ele><time>2026-05-01T08:52:31.981Z</time></trkpt><trkpt lat="39.2057467" lon="16.204355"><ele>751.25</ele><time>2026-05-01T08:52:32.982Z</time></trkpt><trkpt lat="39.2058233" lon="16.2044817"><ele>754.0</ele><time>2026-05-01T08:52:33.982Z</time></trkpt><trkpt lat="39.2058817" lon="16.2046183"><ele>754.0</ele><time>2026-05-01T08:52:34.981Z</time></trkpt><trkpt lat="39.205925" lon="16.204775"><ele>754.0</ele><time>2026-05-01T08:52:35.981Z</time></trkpt><trkpt lat="39.205965" lon="16.2049183"><ele>754.0</ele><time>2026-05-01T08:52:36.981Z</time></trkpt><trkpt lat="39.206" lon="16.2050567"><ele>754.0</ele><time>2026-05-01T08:52:37.981Z</time></trkpt><trkpt lat="39.2060467" lon="16.20517"><ele>751.8333333333334</ele><time>2026-05-01T08:52:38.981Z</time></trkpt><trkpt lat="39.2061" lon="16.2052567"><ele>749.6666666666667</ele><time>2026-05-01T08:52:39.982Z</time></trkpt><trkpt lat="39.206165" lon="16.20532"><ele>747.5</ele><time>2026-05-01T08:52:40.982Z</time></trkpt><trkpt lat="39.2062417" lon="16.205365"><ele>745.3333333333334</ele><time>2026-05-01T08:52:41.982Z</time></trkpt><trkpt lat="39.2063267" lon="16.2053817"><ele>743.1666666666666</ele><time>2026-05-01T08:52:42.982Z</time></trkpt><trkpt lat="39.2064083" lon="16.2053667"><ele>741.0</ele><time>2026-05-01T08:52:43.982Z</time></trkpt><trkpt lat="39.2064867" lon="16.20533"><ele>742.6666666666666</ele><time>2026-05-01T08:52:44.982Z</time></trkpt><trkpt lat="39.20657" lon="16.2052683"><ele>744.3333333333334</ele><time>2026-05-01T08:52:45.981Z</time></trkpt><trkpt lat="39.2066467" lon="16.20522"><ele>746.0</ele><time>2026-05-01T08:52:46.981Z</time></trkpt><trkpt lat="39.2067217" lon="16.2051683"><ele>747.6666666666667</ele><time>2026-05-01T08:52:47.981Z</time></trkpt><trkpt lat="39.20679" lon="16.2051183"><ele>749.3333333333334</ele><time>2026-05-01T08:52:48.981Z</time></trkpt><trkpt lat="39.2068767" lon="16.205065"><ele>751.0</ele><time>2026-05-01T08:52:49.981Z</time></trkpt><trkpt lat="39.2069817" lon="16.205035"><ele>751.0</ele><time>2026-05-01T08:52:50.981Z</time></trkpt><trkpt lat="39.2070983" lon="16.2050267"><ele>751.0</ele><time>2026-05-01T08:52:51.981Z</time></trkpt><trkpt lat="39.20723" lon="16.2050183"><ele>751.0</ele><time>2026-05-01T08:52:52.981Z</time></trkpt><trkpt lat="39.207375" lon="16.2050233"><ele>751.0</ele><time>2026-05-01T08:52:53.982Z</time></trkpt><trkpt lat="39.20752" lon="16.2050217"><ele>749.6666666666667</ele><time>2026-05-01T08:52:54.982Z</time></trkpt><trkpt lat="39.207665" lon="16.2050033"><ele>748.3333333333334</ele><time>2026-05-01T08:52:55.982Z</time></trkpt><trkpt lat="39.2078233" lon="16.2049833"><ele>747.0</ele><time>2026-05-01T08:52:56.982Z</time></trkpt><trkpt lat="39.2079767" lon="16.2049433"><ele>747.0</ele><time>2026-05-01T08:52:57.981Z</time></trkpt><trkpt lat="39.208125" lon="16.2048917"><ele>747.0</ele><time>2026-05-01T08:52:58.981Z</time></trkpt><trkpt lat="39.20827" lon="16.2048533"><ele>747.0</ele><time>2026-05-01T08:52:59.981Z</time></trkpt><trkpt lat="39.2084183" lon="16.2048317"><ele>746.75</ele><time>2026-05-01T08:53:00.982Z</time></trkpt><trkpt lat="39.2085667" lon="16.2048333"><ele>746.5</ele><time>2026-05-01T08:53:01.981Z</time></trkpt><trkpt lat="39.2087183" lon="16.204845"><ele>746.25</ele><time>2026-05-01T08:53:02.981Z</time></trkpt><trkpt lat="39.20886" lon="16.2049"><ele>746.0</ele><time>2026-05-01T08:53:03.981Z</time></trkpt><trkpt lat="39.2090033" lon="16.20498"><ele>746.0</ele><time>2026-05-01T08:53:04.981Z</time></trkpt><trkpt lat="39.2091383" lon="16.205075"><ele>746.0</ele><time>2026-05-01T08:53:05.981Z</time></trkpt><trkpt lat="39.2092733" lon="16.2051467"><ele>746.0</ele><time>2026-05-01T08:53:06.981Z</time></trkpt><trkpt lat="39.2094167" lon="16.205195"><ele>746.0</ele><time>2026-05-01T08:53:07.981Z</time></trkpt><trkpt lat="39.2095567" lon="16.2052367"><ele>746.0</ele><time>2026-05-01T08:53:08.981Z</time></trkpt><trkpt lat="39.2097017" lon="16.2052683"><ele>746.0</ele><time>2026-05-01T08:53:09.981Z</time></trkpt><trkpt lat="39.20984" lon="16.2052967"><ele>746.0</ele><time>2026-05-01T08:53:10.982Z</time></trkpt><trkpt lat="39.2099867" lon="16.2052733"><ele>746.0</ele><time>2026-05-01T08:53:11.981Z</time></trkpt><trkpt lat="39.2101217" lon="16.2052333"><ele>747.0</ele><time>2026-05-01T08:53:12.981Z</time></trkpt><trkpt lat="39.210255" lon="16.2051733"><ele>748.0</ele><time>2026-05-01T08:53:13.981Z</time></trkpt><trkpt lat="39.2103917" lon="16.2051183"><ele>749.0</ele><time>2026-05-01T08:53:14.981Z</time></trkpt><trkpt lat="39.2105333" lon="16.20507"><ele>750.0</ele><time>2026-05-01T08:53:15.982Z</time></trkpt><trkpt lat="39.2106817" lon="16.2050283"><ele>751.0</ele><time>2026-05-01T08:53:16.981Z</time></trkpt><trkpt lat="39.21084" lon="16.205"><ele>752.0</ele><time>2026-05-01T08:53:17.982Z</time></trkpt><trkpt lat="39.2109833" lon="16.205"><ele>753.0</ele><time>2026-05-01T08:53:18.981Z</time></trkpt><trkpt lat="39.2111267" lon="16.20504"><ele>753.0</ele><time>2026-05-01T08:53:19.981Z</time></trkpt><trkpt lat="39.21127" lon="16.2050917"><ele>753.0</ele><time>2026-05-01T08:53:20.981Z</time></trkpt><trkpt lat="39.211405" lon="16.205135"><ele>753.0</ele><time>2026-05-01T08:53:21.981Z</time></trkpt><trkpt lat="39.211545" lon="16.2051717"><ele>753.0</ele><time>2026-05-01T08:53:22.981Z</time></trkpt><trkpt lat="39.2116833" lon="16.2052017"><ele>755.6666666666666</ele><time>2026-05-01T08:53:23.981Z</time></trkpt><trkpt lat="39.2118333" lon="16.2052283"><ele>758.3333333333333</ele><time>2026-05-01T08:53:24.981Z</time></trkpt><trkpt lat="39.2119867" lon="16.2052617"><ele>761.0</ele><time>2026-05-01T08:53:25.981Z</time></trkpt><trkpt lat="39.2121283" lon="16.2053033"><ele>761.0</ele><time>2026-05-01T08:53:26.982Z</time></trkpt><trkpt lat="39.2122783" lon="16.2053233"><ele>761.0</ele><time>2026-05-01T08:53:27.981Z</time></trkpt><trkpt lat="39.212435" lon="16.2053667"><ele>761.0</ele><time>2026-05-01T08:53:28.982Z</time></trkpt><trkpt lat="39.2126017" lon="16.2054183"><ele>761.6666666666666</ele><time>2026-05-01T08:53:29.981Z</time></trkpt><trkpt lat="39.21277" lon="16.20546"><ele>762.3333333333334</ele><time>2026-05-01T08:53:30.981Z</time></trkpt><trkpt lat="39.212955" lon="16.2054767"><ele>763.0</ele><time>2026-05-01T08:53:31.981Z</time></trkpt><trkpt lat="39.213135" lon="16.2054783"><ele>762.6666666666667</ele><time>2026-05-01T08:53:32.982Z</time></trkpt><trkpt lat="39.2133133" lon="16.2054583"><ele>762.3333333333334</ele><time>2026-05-01T08:53:33.981Z</time></trkpt><trkpt lat="39.213485" lon="16.2054417"><ele>762.0</ele><time>2026-05-01T08:53:34.981Z</time></trkpt><trkpt lat="39.2136417" lon="16.2054467"><ele>762.0</ele><time>2026-05-01T08:53:35.981Z</time></trkpt><trkpt lat="39.2138017" lon="16.2054533"><ele>762.0</ele><time>2026-05-01T08:53:36.981Z</time></trkpt><trkpt lat="39.2139517" lon="16.205455"><ele>762.0</ele><time>2026-05-01T08:53:37.981Z</time></trkpt><trkpt lat="39.2141033" lon="16.2054333"><ele>762.75</ele><time>2026-05-01T08:53:38.981Z</time></trkpt><trkpt lat="39.2142583" lon="16.2054"><ele>763.5</ele><time>2026-05-01T08:53:39.982Z</time></trkpt><trkpt lat="39.2144" lon="16.205355"><ele>764.25</ele><time>2026-05-01T08:53:40.981Z</time></trkpt><trkpt lat="39.21454" lon="16.2053117"><ele>765.0</ele><time>2026-05-01T08:53:41.982Z</time></trkpt><trkpt lat="39.2146733" lon="16.205295"><ele>765.0</ele><time>2026-05-01T08:53:42.981Z</time></trkpt><trkpt lat="39.2148117" lon="16.2052983"><ele>765.0</ele><time>2026-05-01T08:53:43.982Z</time></trkpt><trkpt lat="39.2149367" lon="16.2053583"><ele>765.0</ele><time>2026-05-01T08:53:44.982Z</time></trkpt><trkpt lat="39.2150617" lon="16.205445"><ele>765.0</ele><time>2026-05-01T08:53:45.981Z</time></trkpt><trkpt lat="39.2151683" lon="16.20556"><ele>760.25</ele><time>2026-05-01T08:53:46.981Z</time></trkpt><trkpt lat="39.2152667" lon="16.2056767"><ele>755.5</ele><time>2026-05-01T08:53:47.982Z</time></trkpt><trkpt lat="39.215375" lon="16.2057717"><ele>750.75</ele><time>2026-05-01T08:53:48.982Z</time></trkpt><trkpt lat="39.2154917" lon="16.205845"><ele>746.0</ele><time>2026-05-01T08:53:49.982Z</time></trkpt><trkpt lat="39.2156117" lon="16.2058783"><ele>747.25</ele><time>2026-05-01T08:53:50.981Z</time></trkpt><trkpt lat="39.2157333" lon="16.2058917"><ele>748.5</ele><time>2026-05-01T08:53:51.982Z</time></trkpt><trkpt lat="39.2158533" lon="16.2058817"><ele>749.75</ele><time>2026-05-01T08:53:52.982Z</time></trkpt><trkpt lat="39.2159683" lon="16.2058667"><ele>751.0</ele><time>2026-05-01T08:53:53.982Z</time></trkpt><trkpt lat="39.2160733" lon="16.2058367"><ele>751.0</ele><time>2026-05-01T08:53:54.981Z</time></trkpt><trkpt lat="39.2161767" lon="16.2058117"><ele>751.0</ele><time>2026-05-01T08:53:55.981Z</time></trkpt><trkpt lat="39.2162733" lon="16.2057917"><ele>751.0</ele><time>2026-05-01T08:53:56.981Z</time></trkpt><trkpt lat="39.2163667" lon="16.2057983"><ele>751.0</ele><time>2026-05-01T08:53:57.981Z</time></trkpt><trkpt lat="39.2164533" lon="16.2057867"><ele>751.0</ele><time>2026-05-01T08:53:58.981Z</time></trkpt><trkpt lat="39.2165283" lon="16.2057883"><ele>751.3333333333334</ele><time>2026-05-01T08:53:59.982Z</time></trkpt><trkpt lat="39.2166" lon="16.2057883"><ele>751.6666666666667</ele><time>2026-05-01T08:54:00.981Z</time></trkpt><trkpt lat="39.2166783" lon="16.2057867"><ele>752.0</ele><time>2026-05-01T08:54:01.982Z</time></trkpt><trkpt lat="39.216755" lon="16.2057783"><ele>752.3333333333334</ele><time>2026-05-01T08:54:02.981Z</time></trkpt><trkpt lat="39.2168333" lon="16.2057767"><ele>752.6666666666666</ele><time>2026-05-01T08:54:03.982Z</time></trkpt><trkpt lat="39.2169133" lon="16.205775"><ele>753.0</ele><time>2026-05-01T08:54:04.982Z</time></trkpt><trkpt lat="39.2169967" lon="16.2057733"><ele>753.0</ele><time>2026-05-01T08:54:05.981Z</time></trkpt><trkpt lat="39.21709" lon="16.205785"><ele>753.0</ele><time>2026-05-01T08:54:06.981Z</time></trkpt><trkpt lat="39.2171767" lon="16.2057867"><ele>753.0</ele><time>2026-05-01T08:54:07.981Z</time></trkpt><trkpt lat="39.2172783" lon="16.2057817"><ele>753.0</ele><time>2026-05-01T08:54:08.982Z</time></trkpt><trkpt lat="39.2173717" lon="16.20578"><ele>753.0</ele><time>2026-05-01T08:54:09.982Z</time></trkpt><trkpt lat="39.21747" lon="16.20577"><ele>752.2</ele><time>2026-05-01T08:54:10.981Z</time></trkpt><trkpt lat="39.217565" lon="16.2057567"><ele>751.4</ele><time>2026-05-01T08:54:11.982Z</time></trkpt><trkpt lat="39.217665" lon="16.205745"><ele>750.6</ele><time>2026-05-01T08:54:12.981Z</time></trkpt><trkpt lat="39.2177567" lon="16.2057267"><ele>749.8000000000001</ele><time>2026-05-01T08:54:13.981Z</time></trkpt><trkpt lat="39.2178483" lon="16.2057217"><ele>749.0</ele><time>2026-05-01T08:54:14.982Z</time></trkpt><trkpt lat="39.217945" lon="16.2057083"><ele>749.0</ele><time>2026-05-01T08:54:15.981Z</time></trkpt><trkpt lat="39.2180433" lon="16.2057"><ele>749.0</ele><time>2026-05-01T08:54:16.981Z</time></trkpt><trkpt lat="39.2181317" lon="16.2057033"><ele>749.0</ele><time>2026-05-01T08:54:17.982Z</time></trkpt><trkpt lat="39.2182283" lon="16.2056867"><ele>749.0</ele><time>2026-05-01T08:54:18.981Z</time></trkpt><trkpt lat="39.21831" lon="16.2056883"><ele>749.0</ele><time>2026-05-01T08:54:19.981Z</time></trkpt><trkpt lat="39.21839" lon="16.2056883"><ele>749.0</ele><time>2026-05-01T08:54:20.982Z</time></trkpt><trkpt lat="39.21847" lon="16.205695"><ele>747.8000000000001</ele><time>2026-05-01T08:54:21.981Z</time></trkpt><trkpt lat="39.218535" lon="16.2056967"><ele>746.6</ele><time>2026-05-01T08:54:22.981Z</time></trkpt><trkpt lat="39.2186533" lon="16.205705"><ele>745.4</ele><time>2026-05-01T08:54:24.982Z</time></trkpt><trkpt lat="39.218785" lon="16.2057133"><ele>744.2</ele><time>2026-05-01T08:54:26.982Z</time></trkpt><trkpt lat="39.2188667" lon="16.2057133"><ele>743.0</ele><time>2026-05-01T08:54:27.982Z</time></trkpt><trkpt lat="39.2189667" lon="16.2057117"><ele>743.2</ele><time>2026-05-01T08:54:28.982Z</time></trkpt><trkpt lat="39.219065" lon="16.2057183"><ele>743.4</ele><time>2026-05-01T08:54:29.981Z</time></trkpt><trkpt lat="39.2191683" lon="16.2057217"><ele>743.6</ele><time>2026-05-01T08:54:30.982Z</time></trkpt><trkpt lat="39.21926" lon="16.20574"><ele>743.8000000000001</ele><time>2026-05-01T08:54:31.982Z</time></trkpt><trkpt lat="39.2193467" lon="16.20575"><ele>744.0</ele><time>2026-05-01T08:54:32.982Z</time></trkpt><trkpt lat="39.2194183" lon="16.2057833"><ele>744.0</ele><time>2026-05-01T08:54:33.981Z</time></trkpt><trkpt lat="39.2194883" lon="16.2058267"><ele>744.0</ele><time>2026-05-01T08:54:34.981Z</time></trkpt><trkpt lat="39.2195467" lon="16.2058767"><ele>744.0</ele><time>2026-05-01T08:54:35.982Z</time></trkpt><trkpt lat="39.2196" lon="16.20593"><ele>744.0</ele><time>2026-05-01T08:54:36.982Z</time></trkpt><trkpt lat="39.21971" lon="16.2060133"><ele>744.0</ele><time>2026-05-01T08:54:38.982Z</time></trkpt><trkpt lat="39.21983" lon="16.206045"><ele>744.8000000000001</ele><time>2026-05-01T08:54:40.981Z</time></trkpt><trkpt lat="39.2199067" lon="16.2060317"><ele>745.6</ele><time>2026-05-01T08:54:41.982Z</time></trkpt><trkpt lat="39.2200017" lon="16.2060167"><ele>746.4</ele><time>2026-05-01T08:54:42.981Z</time></trkpt><trkpt lat="39.22011" lon="16.2059883"><ele>747.2</ele><time>2026-05-01T08:54:43.981Z</time></trkpt><trkpt lat="39.2202283" lon="16.20597"><ele>748.0</ele><time>2026-05-01T08:54:44.982Z</time></trkpt><trkpt lat="39.2203433" lon="16.20597"><ele>748.0</ele><time>2026-05-01T08:54:45.982Z</time></trkpt><trkpt lat="39.22045" lon="16.2059783"><ele>748.0</ele><time>2026-05-01T08:54:46.981Z</time></trkpt><trkpt lat="39.2205683" lon="16.2059833"><ele>748.0</ele><time>2026-05-01T08:54:47.981Z</time></trkpt><trkpt lat="39.2206833" lon="16.2060233"><ele>748.0</ele><time>2026-05-01T08:54:48.982Z</time></trkpt><trkpt lat="39.220805" lon="16.2060817"><ele>753.75</ele><time>2026-05-01T08:54:49.982Z</time></trkpt><trkpt lat="39.2209217" lon="16.2061483"><ele>759.5</ele><time>2026-05-01T08:54:50.982Z</time></trkpt><trkpt lat="39.22103" lon="16.2062233"><ele>765.25</ele><time>2026-05-01T08:54:51.981Z</time></trkpt><trkpt lat="39.2211483" lon="16.206305"><ele>771.0</ele><time>2026-05-01T08:54:52.982Z</time></trkpt><trkpt lat="39.22126" lon="16.206405"><ele>763.0</ele><time>2026-05-01T08:54:53.981Z</time></trkpt><trkpt lat="39.22138" lon="16.2065117"><ele>755.0</ele><time>2026-05-01T08:54:54.981Z</time></trkpt><trkpt lat="39.2214967" lon="16.2066083"><ele>747.0</ele><time>2026-05-01T08:54:55.982Z</time></trkpt><trkpt lat="39.2216167" lon="16.206695"><ele>739.0</ele><time>2026-05-01T08:54:56.982Z</time></trkpt><trkpt lat="39.2217467" lon="16.2067517"><ele>739.0</ele><time>2026-05-01T08:54:57.981Z</time></trkpt><trkpt lat="39.221865" lon="16.2068167"><ele>739.0</ele><time>2026-05-01T08:54:58.981Z</time></trkpt><trkpt lat="39.2219783" lon="16.2068517"><ele>739.0</ele><time>2026-05-01T08:54:59.981Z</time></trkpt><trkpt lat="39.2220917" lon="16.2068367"><ele>739.0</ele><time>2026-05-01T08:55:00.981Z</time></trkpt><trkpt lat="39.2222083" lon="16.2068117"><ele>740.5</ele><time>2026-05-01T08:55:01.981Z</time></trkpt><trkpt lat="39.2223417" lon="16.20676"><ele>742.0</ele><time>2026-05-01T08:55:02.981Z</time></trkpt><trkpt lat="39.2224817" lon="16.2067267"><ele>743.5</ele><time>2026-05-01T08:55:03.981Z</time></trkpt><trkpt lat="39.22263" lon="16.2067067"><ele>745.0</ele><time>2026-05-01T08:55:04.981Z</time></trkpt><trkpt lat="39.2227717" lon="16.20672"><ele>745.0</ele><time>2026-05-01T08:55:05.981Z</time></trkpt><trkpt lat="39.222915" lon="16.20675"><ele>745.0</ele><time>2026-05-01T08:55:06.981Z</time></trkpt><trkpt lat="39.2230483" lon="16.2068"><ele>745.0</ele><time>2026-05-01T08:55:07.981Z</time></trkpt><trkpt lat="39.2231817" lon="16.2068717"><ele>745.0</ele><time>2026-05-01T08:55:08.981Z</time></trkpt><trkpt lat="39.223315" lon="16.20695"><ele>747.25</ele><time>2026-05-01T08:55:09.981Z</time></trkpt><trkpt lat="39.223435" lon="16.207035"><ele>749.5</ele><time>2026-05-01T08:55:10.981Z</time></trkpt><trkpt lat="39.2235433" lon="16.2071267"><ele>751.75</ele><time>2026-05-01T08:55:11.981Z</time></trkpt><trkpt lat="39.2236417" lon="16.207225"><ele>754.0</ele><time>2026-05-01T08:55:12.981Z</time></trkpt><trkpt lat="39.2237417" lon="16.2073317"><ele>750.0</ele><time>2026-05-01T08:55:13.981Z</time></trkpt><trkpt lat="39.2238283" lon="16.20747"><ele>746.0</ele><time>2026-05-01T08:55:14.981Z</time></trkpt><trkpt lat="39.223905" lon="16.2076233"><ele>742.0</ele><time>2026-05-01T08:55:15.981Z</time></trkpt><trkpt lat="39.2239767" lon="16.2077833"><ele>738.0</ele><time>2026-05-01T08:55:16.981Z</time></trkpt><trkpt lat="39.2240433" lon="16.207945"><ele>738.0</ele><time>2026-05-01T08:55:17.982Z</time></trkpt><trkpt lat="39.2240867" lon="16.2081233"><ele>738.0</ele><time>2026-05-01T08:55:18.981Z</time></trkpt><trkpt lat="39.224115" lon="16.2082967"><ele>738.0</ele><time>2026-05-01T08:55:19.981Z</time></trkpt><trkpt lat="39.2241667" lon="16.208475"><ele>738.0</ele><time>2026-05-01T08:55:20.981Z</time></trkpt><trkpt lat="39.2242333" lon="16.2086533"><ele>736.5</ele><time>2026-05-01T08:55:21.981Z</time></trkpt><trkpt lat="39.224325" lon="16.208805"><ele>735.0</ele><time>2026-05-01T08:55:22.981Z</time></trkpt><trkpt lat="39.2244267" lon="16.2089383"><ele>733.5</ele><time>2026-05-01T08:55:23.982Z</time></trkpt><trkpt lat="39.2245333" lon="16.2090617"><ele>732.0</ele><time>2026-05-01T08:55:24.981Z</time></trkpt><trkpt lat="39.2246367" lon="16.2091817"><ele>733.75</ele><time>2026-05-01T08:55:25.981Z</time></trkpt><trkpt lat="39.2247233" lon="16.2092883"><ele>735.5</ele><time>2026-05-01T08:55:26.982Z</time></trkpt><trkpt lat="39.2248" lon="16.2093983"><ele>737.25</ele><time>2026-05-01T08:55:27.981Z</time></trkpt><trkpt lat="39.2248783" lon="16.2095067"><ele>739.0</ele><time>2026-05-01T08:55:28.981Z</time></trkpt><trkpt lat="39.2249383" lon="16.2096367"><ele>739.0</ele><time>2026-05-01T08:55:29.981Z</time></trkpt><trkpt lat="39.22497" lon="16.2097867"><ele>739.0</ele><time>2026-05-01T08:55:30.982Z</time></trkpt><trkpt lat="39.224965" lon="16.209935"><ele>739.0</ele><time>2026-05-01T08:55:31.981Z</time></trkpt><trkpt lat="39.2249583" lon="16.21008"><ele>739.0</ele><time>2026-05-01T08:55:32.982Z</time></trkpt><trkpt lat="39.2249367" lon="16.2102133"><ele>737.6</ele><time>2026-05-01T08:55:33.981Z</time></trkpt><trkpt lat="39.224875" lon="16.2103233"><ele>736.2</ele><time>2026-05-01T08:55:34.981Z</time></trkpt><trkpt lat="39.2248017" lon="16.2104067"><ele>734.8000000000001</ele><time>2026-05-01T08:55:35.981Z</time></trkpt><trkpt lat="39.22473" lon="16.2105067"><ele>733.4000000000001</ele><time>2026-05-01T08:55:36.982Z</time></trkpt><trkpt lat="39.22468" lon="16.21061"><ele>732.0</ele><time>2026-05-01T08:55:37.981Z</time></trkpt><trkpt lat="39.2246533" lon="16.2107167"><ele>732.4000000000001</ele><time>2026-05-01T08:55:38.981Z</time></trkpt><trkpt lat="39.2246617" lon="16.2108267"><ele>732.8000000000001</ele><time>2026-05-01T08:55:39.982Z</time></trkpt><trkpt lat="39.2247" lon="16.21093"><ele>733.2</ele><time>2026-05-01T08:55:40.982Z</time></trkpt><trkpt lat="39.22477" lon="16.2110133"><ele>733.6</ele><time>2026-05-01T08:55:41.981Z</time></trkpt><trkpt lat="39.2248667" lon="16.211085"><ele>734.0</ele><time>2026-05-01T08:55:42.981Z</time></trkpt><trkpt lat="39.224975" lon="16.2111567"><ele>734.0</ele><time>2026-05-01T08:55:43.982Z</time></trkpt><trkpt lat="39.2250917" lon="16.21123"><ele>734.0</ele><time>2026-05-01T08:55:44.982Z</time></trkpt><trkpt lat="39.2252033" lon="16.2113183"><ele>734.0</ele><time>2026-05-01T08:55:45.981Z</time></trkpt><trkpt lat="39.22531" lon="16.2114067"><ele>734.0</ele><time>2026-05-01T08:55:46.982Z</time></trkpt><trkpt lat="39.2254233" lon="16.2114833"><ele>732.5</ele><time>2026-05-01T08:55:47.981Z</time></trkpt><trkpt lat="39.22554" lon="16.2115517"><ele>731.0</ele><time>2026-05-01T08:55:48.982Z</time></trkpt><trkpt lat="39.225655" lon="16.2116333"><ele>729.5</ele><time>2026-05-01T08:55:49.982Z</time></trkpt><trkpt lat="39.2257783" lon="16.2117183"><ele>728.0</ele><time>2026-05-01T08:55:50.982Z</time></trkpt><trkpt lat="39.2258917" lon="16.2118167"><ele>728.0</ele><time>2026-05-01T08:55:51.981Z</time></trkpt><trkpt lat="39.2260017" lon="16.2119283"><ele>728.0</ele><time>2026-05-01T08:55:52.981Z</time></trkpt><trkpt lat="39.2261133" lon="16.212035"><ele>728.0</ele><time>2026-05-01T08:55:53.981Z</time></trkpt><trkpt lat="39.2262333" lon="16.2121333"><ele>728.0</ele><time>2026-05-01T08:55:54.981Z</time></trkpt><trkpt lat="39.22636" lon="16.2122233"><ele>727.0</ele><time>2026-05-01T08:55:55.982Z</time></trkpt><trkpt lat="39.226475" lon="16.2123333"><ele>726.0</ele><time>2026-05-01T08:55:56.981Z</time></trkpt><trkpt lat="39.226595" lon="16.212445"><ele>725.0</ele><time>2026-05-01T08:55:57.982Z</time></trkpt><trkpt lat="39.2267033" lon="16.2125683"><ele>724.0</ele><time>2026-05-01T08:55:58.981Z</time></trkpt><trkpt lat="39.2268067" lon="16.2127"><ele>724.0</ele><time>2026-05-01T08:55:59.981Z</time></trkpt><trkpt lat="39.226905" lon="16.2128333"><ele>724.0</ele><time>2026-05-01T08:56:00.981Z</time></trkpt><trkpt lat="39.2269967" lon="16.2129883"><ele>724.0</ele><time>2026-05-01T08:56:01.982Z</time></trkpt><trkpt lat="39.22708" lon="16.2131467"><ele>724.0</ele><time>2026-05-01T08:56:02.982Z</time></trkpt><trkpt lat="39.2271617" lon="16.2132967"><ele>723.25</ele><time>2026-05-01T08:56:03.981Z</time></trkpt><trkpt lat="39.227245" lon="16.213435"><ele>722.5</ele><time>2026-05-01T08:56:04.981Z</time></trkpt><trkpt lat="39.2273417" lon="16.2135517"><ele>721.75</ele><time>2026-05-01T08:56:05.981Z</time></trkpt><trkpt lat="39.2274533" lon="16.2136517"><ele>721.0</ele><time>2026-05-01T08:56:06.982Z</time></trkpt><trkpt lat="39.2275833" lon="16.213735"><ele>721.0</ele><time>2026-05-01T08:56:07.981Z</time></trkpt><trkpt lat="39.2277133" lon="16.2138083"><ele>721.0</ele><time>2026-05-01T08:56:08.981Z</time></trkpt><trkpt lat="39.2278433" lon="16.213905"><ele>721.0</ele><time>2026-05-01T08:56:09.981Z</time></trkpt><trkpt lat="39.227965" lon="16.214005"><ele>721.0</ele><time>2026-05-01T08:56:10.982Z</time></trkpt><trkpt lat="39.2280833" lon="16.2140983"><ele>719.8</ele><time>2026-05-01T08:56:11.982Z</time></trkpt><trkpt lat="39.228185" lon="16.2141817"><ele>718.5999999999999</ele><time>2026-05-01T08:56:12.981Z</time></trkpt><trkpt lat="39.2282883" lon="16.2142283"><ele>717.4</ele><time>2026-05-01T08:56:13.981Z</time></trkpt><trkpt lat="39.228395" lon="16.2142367"><ele>716.2</ele><time>2026-05-01T08:56:14.982Z</time></trkpt><trkpt lat="39.22849" lon="16.214185"><ele>715.0</ele><time>2026-05-01T08:56:15.981Z</time></trkpt><trkpt lat="39.22857" lon="16.21408"><ele>716.0</ele><time>2026-05-01T08:56:16.981Z</time></trkpt><trkpt lat="39.2286333" lon="16.2139367"><ele>717.0</ele><time>2026-05-01T08:56:17.981Z</time></trkpt><trkpt lat="39.2287017" lon="16.2137817"><ele>718.0</ele><time>2026-05-01T08:56:18.982Z</time></trkpt><trkpt lat="39.2287683" lon="16.2136233"><ele>719.0</ele><time>2026-05-01T08:56:19.981Z</time></trkpt><trkpt lat="39.22884" lon="16.2134683"><ele>719.0</ele><time>2026-05-01T08:56:20.981Z</time></trkpt><trkpt lat="39.2289167" lon="16.2133217"><ele>719.0</ele><time>2026-05-01T08:56:21.982Z</time></trkpt><trkpt lat="39.2290117" lon="16.213215"><ele>719.0</ele><time>2026-05-01T08:56:22.982Z</time></trkpt><trkpt lat="39.229135" lon="16.21315"><ele>719.0</ele><time>2026-05-01T08:56:23.982Z</time></trkpt><trkpt lat="39.22928" lon="16.2131067"><ele>717.0</ele><time>2026-05-01T08:56:24.982Z</time></trkpt><trkpt lat="39.2294233" lon="16.2130567"><ele>715.0</ele><time>2026-05-01T08:56:25.981Z</time></trkpt><trkpt lat="39.22957" lon="16.2129933"><ele>713.0</ele><time>2026-05-01T08:56:26.981Z</time></trkpt><trkpt lat="39.2297183" lon="16.2129133"><ele>710.3333333333333</ele><time>2026-05-01T08:56:27.981Z</time></trkpt><trkpt lat="39.2298683" lon="16.2128133"><ele>707.6666666666666</ele><time>2026-05-01T08:56:28.981Z</time></trkpt><trkpt lat="39.2300083" lon="16.2126983"><ele>705.0</ele><time>2026-05-01T08:56:29.981Z</time></trkpt><trkpt lat="39.2301383" lon="16.212595"><ele>705.0</ele><time>2026-05-01T08:56:30.982Z</time></trkpt><trkpt lat="39.2302667" lon="16.2124883"><ele>705.0</ele><time>2026-05-01T08:56:31.981Z</time></trkpt><trkpt lat="39.2303683" lon="16.2123767"><ele>705.0</ele><time>2026-05-01T08:56:32.981Z</time></trkpt><trkpt lat="39.2304383" lon="16.2122533"><ele>705.0</ele><time>2026-05-01T08:56:33.981Z</time></trkpt><trkpt lat="39.2304833" lon="16.2121017"><ele>704.5</ele><time>2026-05-01T08:56:34.981Z</time></trkpt><trkpt lat="39.2304967" lon="16.2119233"><ele>704.0</ele><time>2026-05-01T08:56:35.982Z</time></trkpt><trkpt lat="39.2304717" lon="16.2117533"><ele>703.5</ele><time>2026-05-01T08:56:36.982Z</time></trkpt><trkpt lat="39.2304183" lon="16.21159"><ele>703.0</ele><time>2026-05-01T08:56:37.981Z</time></trkpt><trkpt lat="39.2303433" lon="16.2114433"><ele>701.25</ele><time>2026-05-01T08:56:38.981Z</time></trkpt><trkpt lat="39.2302617" lon="16.211305"><ele>699.5</ele><time>2026-05-01T08:56:39.981Z</time></trkpt><trkpt lat="39.2301717" lon="16.211175"><ele>697.75</ele><time>2026-05-01T08:56:40.982Z</time></trkpt><trkpt lat="39.2300967" lon="16.2110383"><ele>696.0</ele><time>2026-05-01T08:56:41.981Z</time></trkpt><trkpt lat="39.230015" lon="16.2108867"><ele>696.0</ele><time>2026-05-01T08:56:42.981Z</time></trkpt><trkpt lat="39.2299333" lon="16.210725"><ele>696.0</ele><time>2026-05-01T08:56:43.981Z</time></trkpt><trkpt lat="39.2298417" lon="16.2105583"><ele>696.0</ele><time>2026-05-01T08:56:44.982Z</time></trkpt><trkpt lat="39.2297483" lon="16.2103967"><ele>695.25</ele><time>2026-05-01T08:56:45.982Z</time></trkpt><trkpt lat="39.2296683" lon="16.2102317"><ele>694.5</ele><time>2026-05-01T08:56:46.981Z</time></trkpt><trkpt lat="39.22959" lon="16.21007"><ele>693.75</ele><time>2026-05-01T08:56:47.981Z</time></trkpt><trkpt lat="39.2295183" lon="16.2099017"><ele>693.0</ele><time>2026-05-01T08:56:48.982Z</time></trkpt><trkpt lat="39.2294583" lon="16.209735"><ele>693.0</ele><time>2026-05-01T08:56:49.981Z</time></trkpt><trkpt lat="39.229435" lon="16.2095433"><ele>693.0</ele><time>2026-05-01T08:56:50.981Z</time></trkpt><trkpt lat="39.22942" lon="16.209355"><ele>693.0</ele><time>2026-05-01T08:56:51.981Z</time></trkpt><trkpt lat="39.2293967" lon="16.2091633"><ele>693.0</ele><time>2026-05-01T08:56:52.981Z</time></trkpt><trkpt lat="39.2293767" lon="16.20898"><ele>692.5</ele><time>2026-05-01T08:56:53.981Z</time></trkpt><trkpt lat="39.2293633" lon="16.2087983"><ele>692.0</ele><time>2026-05-01T08:56:54.982Z</time></trkpt><trkpt lat="39.2293583" lon="16.20864"><ele>691.5</ele><time>2026-05-01T08:56:55.982Z</time></trkpt><trkpt lat="39.22938" lon="16.2084867"><ele>691.0</ele><time>2026-05-01T08:56:56.981Z</time></trkpt><trkpt lat="39.22943" lon="16.2083517"><ele>691.0</ele><time>2026-05-01T08:56:57.982Z</time></trkpt><trkpt lat="39.2295017" lon="16.2082267"><ele>691.0</ele><time>2026-05-01T08:56:58.981Z</time></trkpt><trkpt lat="39.22957" lon="16.2080983"><ele>691.0</ele><time>2026-05-01T08:56:59.981Z</time></trkpt><trkpt lat="39.2296333" lon="16.2079767"><ele>691.0</ele><time>2026-05-01T08:57:00.982Z</time></trkpt><trkpt lat="39.2296733" lon="16.2078433"><ele>691.25</ele><time>2026-05-01T08:57:01.981Z</time></trkpt><trkpt lat="39.22969" lon="16.2077017"><ele>691.5</ele><time>2026-05-01T08:57:02.981Z</time></trkpt><trkpt lat="39.2296667" lon="16.2075583"><ele>691.75</ele><time>2026-05-01T08:57:03.981Z</time></trkpt><trkpt lat="39.229595" lon="16.2074217"><ele>692.0</ele><time>2026-05-01T08:57:04.981Z</time></trkpt><trkpt lat="39.2295033" lon="16.2073017"><ele>691.4000000000001</ele><time>2026-05-01T08:57:05.981Z</time></trkpt><trkpt lat="39.229425" lon="16.2071733"><ele>690.8000000000001</ele><time>2026-05-01T08:57:06.981Z</time></trkpt><trkpt lat="39.229375" lon="16.20705"><ele>690.2</ele><time>2026-05-01T08:57:07.981Z</time></trkpt><trkpt lat="39.2293433" lon="16.2069367"><ele>689.6</ele><time>2026-05-01T08:57:08.982Z</time></trkpt><trkpt lat="39.22934" lon="16.2068283"><ele>689.0</ele><time>2026-05-01T08:57:09.981Z</time></trkpt><trkpt lat="39.22939" lon="16.20675"><ele>689.0</ele><time>2026-05-01T08:57:10.981Z</time></trkpt><trkpt lat="39.2294817" lon="16.2067167"><ele>689.0</ele><time>2026-05-01T08:57:11.982Z</time></trkpt><trkpt lat="39.22964" lon="16.2066917"><ele>689.0</ele><time>2026-05-01T08:57:12.981Z</time></trkpt><trkpt lat="39.229785" lon="16.2066467"><ele>689.0</ele><time>2026-05-01T08:57:13.982Z</time></trkpt><trkpt lat="39.22993" lon="16.20659"><ele>687.0</ele><time>2026-05-01T08:57:14.982Z</time></trkpt><trkpt lat="39.230065" lon="16.2065367"><ele>685.0</ele><time>2026-05-01T08:57:15.982Z</time></trkpt><trkpt lat="39.2302" lon="16.2065067"><ele>683.0</ele><time>2026-05-01T08:57:16.981Z</time></trkpt><trkpt lat="39.2303483" lon="16.2065133"><ele>681.0</ele><time>2026-05-01T08:57:17.981Z</time></trkpt><trkpt lat="39.2304983" lon="16.2065533"><ele>680.3333333333334</ele><time>2026-05-01T08:57:18.982Z</time></trkpt><trkpt lat="39.2306617" lon="16.206585"><ele>679.6666666666667</ele><time>2026-05-01T08:57:19.982Z</time></trkpt><trkpt lat="39.23084" lon="16.20662"><ele>679.0</ele><time>2026-05-01T08:57:20.981Z</time></trkpt><trkpt lat="39.2310117" lon="16.2066667"><ele>679.0</ele><time>2026-05-01T08:57:21.981Z</time></trkpt><trkpt lat="39.2311783" lon="16.2067383"><ele>679.0</ele><time>2026-05-01T08:57:22.982Z</time></trkpt><trkpt lat="39.23134" lon="16.2068217"><ele>679.0</ele><time>2026-05-01T08:57:23.982Z</time></trkpt><trkpt lat="39.2314883" lon="16.2069317"><ele>681.3333333333334</ele><time>2026-05-01T08:57:24.981Z</time></trkpt><trkpt lat="39.2316433" lon="16.20703"><ele>683.6666666666666</ele><time>2026-05-01T08:57:25.982Z</time></trkpt><trkpt lat="39.2318083" lon="16.2071283"><ele>686.0</ele><time>2026-05-01T08:57:26.981Z</time></trkpt><trkpt lat="39.2319733" lon="16.2072217"><ele>686.0</ele><time>2026-05-01T08:57:27.982Z</time></trkpt><trkpt lat="39.2321367" lon="16.2073183"><ele>686.0</ele><time>2026-05-01T08:57:28.981Z</time></trkpt><trkpt lat="39.2322967" lon="16.2073917"><ele>686.0</ele><time>2026-05-01T08:57:29.982Z</time></trkpt><trkpt lat="39.232455" lon="16.20746"><ele>684.0</ele><time>2026-05-01T08:57:30.981Z</time></trkpt><trkpt lat="39.232615" lon="16.20752"><ele>682.0</ele><time>2026-05-01T08:57:31.982Z</time></trkpt><trkpt lat="39.2327767" lon="16.20758"><ele>680.0</ele><time>2026-05-01T08:57:32.982Z</time></trkpt><trkpt lat="39.232935" lon="16.2076617"><ele>680.0</ele><time>2026-05-01T08:57:33.982Z</time></trkpt><trkpt lat="39.2330917" lon="16.2077533"><ele>680.0</ele><time>2026-05-01T08:57:34.981Z</time></trkpt><trkpt lat="39.23324" lon="16.2078383"><ele>680.0</ele><time>2026-05-01T08:57:35.982Z</time></trkpt><trkpt lat="39.2333833" lon="16.20792"><ele>678.6666666666666</ele><time>2026-05-01T08:57:36.982Z</time></trkpt><trkpt lat="39.2335233" lon="16.2079983"><ele>677.3333333333334</ele><time>2026-05-01T08:57:37.982Z</time></trkpt><trkpt lat="39.2336683" lon="16.2080817"><ele>676.0</ele><time>2026-05-01T08:57:38.981Z</time></trkpt><trkpt lat="39.2338067" lon="16.208165"><ele>676.0</ele><time>2026-05-01T08:57:39.982Z</time></trkpt><trkpt lat="39.2339433" lon="16.208245"><ele>676.0</ele><time>2026-05-01T08:57:40.981Z</time></trkpt><trkpt lat="39.2340733" lon="16.2083167"><ele>676.0</ele><time>2026-05-01T08:57:41.982Z</time></trkpt><trkpt lat="39.234195" lon="16.20838"><ele>676.0</ele><time>2026-05-01T08:57:42.982Z</time></trkpt><trkpt lat="39.2343217" lon="16.2084183"><ele>678.0</ele><time>2026-05-01T08:57:43.981Z</time></trkpt><trkpt lat="39.234455" lon="16.2084283"><ele>680.0</ele><time>2026-05-01T08:57:44.981Z</time></trkpt><trkpt lat="39.2345833" lon="16.2084067"><ele>682.0</ele><time>2026-05-01T08:57:45.981Z</time></trkpt><trkpt lat="39.234705" lon="16.20838"><ele>684.0</ele><time>2026-05-01T08:57:46.982Z</time></trkpt><trkpt lat="39.2348267" lon="16.2083517"><ele>684.0</ele><time>2026-05-01T08:57:47.982Z</time></trkpt><trkpt lat="39.234945" lon="16.2083283"><ele>684.0</ele><time>2026-05-01T08:57:48.982Z</time></trkpt><trkpt lat="39.235065" lon="16.2083083"><ele>684.0</ele><time>2026-05-01T08:57:49.982Z</time></trkpt><trkpt lat="39.235185" lon="16.2083183"><ele>684.0</ele><time>2026-05-01T08:57:50.982Z</time></trkpt><trkpt lat="39.235305" lon="16.20836"><ele>684.0</ele><time>2026-05-01T08:57:51.981Z</time></trkpt><trkpt lat="39.2354233" lon="16.2084433"><ele>684.0</ele><time>2026-05-01T08:57:52.981Z</time></trkpt><trkpt lat="39.2355383" lon="16.2085367"><ele>684.0</ele><time>2026-05-01T08:57:53.981Z</time></trkpt><trkpt lat="39.2356567" lon="16.2086483"><ele>684.0</ele><time>2026-05-01T08:57:54.982Z</time></trkpt><trkpt lat="39.2357767" lon="16.2087617"><ele>683.6666666666666</ele><time>2026-05-01T08:57:55.982Z</time></trkpt><trkpt lat="39.235895" lon="16.2088883"><ele>683.3333333333333</ele><time>2026-05-01T08:57:56.981Z</time></trkpt><trkpt lat="39.2360133" lon="16.2090267"><ele>683.0</ele><time>2026-05-01T08:57:57.982Z</time></trkpt><trkpt lat="39.2361233" lon="16.209185"><ele>683.0</ele><time>2026-05-01T08:57:58.982Z</time></trkpt><trkpt lat="39.236215" lon="16.2093633"><ele>683.0</ele><time>2026-05-01T08:57:59.982Z</time></trkpt><trkpt lat="39.236295" lon="16.2095567"><ele>683.0</ele><time>2026-05-01T08:58:00.982Z</time></trkpt><trkpt lat="39.23637" lon="16.2097583"><ele>680.6666666666666</ele><time>2026-05-01T08:58:01.982Z</time></trkpt><trkpt lat="39.23644" lon="16.2099517"><ele>678.3333333333334</ele><time>2026-05-01T08:58:02.981Z</time></trkpt><trkpt lat="39.236515" lon="16.2101333"><ele>676.0</ele><time>2026-05-01T08:58:03.981Z</time></trkpt><trkpt lat="39.2365867" lon="16.2103083"><ele>678.0</ele><time>2026-05-01T08:58:04.981Z</time></trkpt><trkpt lat="39.2366533" lon="16.2104867"><ele>680.0</ele><time>2026-05-01T08:58:05.981Z</time></trkpt><trkpt lat="39.2367083" lon="16.2106783"><ele>682.0</ele><time>2026-05-01T08:58:06.981Z</time></trkpt><trkpt lat="39.2367533" lon="16.2108833"><ele>682.0</ele><time>2026-05-01T08:58:07.982Z</time></trkpt><trkpt lat="39.23679" lon="16.211105"><ele>682.0</ele><time>2026-05-01T08:58:08.981Z</time></trkpt><trkpt lat="39.23682" lon="16.2113267"><ele>682.0</ele><time>2026-05-01T08:58:09.981Z</time></trkpt><trkpt lat="39.2368467" lon="16.2115567"><ele>681.0</ele><time>2026-05-01T08:58:10.981Z</time></trkpt><trkpt lat="39.236885" lon="16.2117867"><ele>680.0</ele><time>2026-05-01T08:58:11.982Z</time></trkpt><trkpt lat="39.23692" lon="16.2120233"><ele>679.0</ele><time>2026-05-01T08:58:12.981Z</time></trkpt><trkpt lat="39.2369383" lon="16.212255"><ele>678.3333333333334</ele><time>2026-05-01T08:58:13.982Z</time></trkpt><trkpt lat="39.2369517" lon="16.2124717"><ele>677.6666666666666</ele><time>2026-05-01T08:58:14.982Z</time></trkpt><trkpt lat="39.2369567" lon="16.212665"><ele>677.0</ele><time>2026-05-01T08:58:15.982Z</time></trkpt><trkpt lat="39.2369567" lon="16.2128517"><ele>677.0</ele><time>2026-05-01T08:58:16.981Z</time></trkpt><trkpt lat="39.23695" lon="16.2130233"><ele>677.0</ele><time>2026-05-01T08:58:17.981Z</time></trkpt><trkpt lat="39.2369533" lon="16.2131817"><ele>677.0</ele><time>2026-05-01T08:58:18.981Z</time></trkpt><trkpt lat="39.2369833" lon="16.2133283"><ele>677.0</ele><time>2026-05-01T08:58:19.981Z</time></trkpt><trkpt lat="39.2370433" lon="16.2134567"><ele>677.5</ele><time>2026-05-01T08:58:20.981Z</time></trkpt><trkpt lat="39.2371317" lon="16.213575"><ele>678.0</ele><time>2026-05-01T08:58:21.982Z</time></trkpt><trkpt lat="39.2372317" lon="16.2136767"><ele>678.5</ele><time>2026-05-01T08:58:22.982Z</time></trkpt><trkpt lat="39.2373517" lon="16.2137567"><ele>679.0</ele><time>2026-05-01T08:58:23.982Z</time></trkpt><trkpt lat="39.237495" lon="16.2138117"><ele>681.3333333333334</ele><time>2026-05-01T08:58:24.982Z</time></trkpt><trkpt lat="39.2376433" lon="16.2138367"><ele>683.6666666666666</ele><time>2026-05-01T08:58:25.982Z</time></trkpt><trkpt lat="39.2378" lon="16.213855"><ele>686.0</ele><time>2026-05-01T08:58:26.981Z</time></trkpt><trkpt lat="39.2379567" lon="16.2138833"><ele>686.0</ele><time>2026-05-01T08:58:27.981Z</time></trkpt><trkpt lat="39.238105" lon="16.2139333"><ele>686.0</ele><time>2026-05-01T08:58:28.981Z</time></trkpt><trkpt lat="39.2382467" lon="16.2140033"><ele>686.0</ele><time>2026-05-01T08:58:29.982Z</time></trkpt><trkpt lat="39.2383817" lon="16.2140917"><ele>683.5</ele><time>2026-05-01T08:58:30.981Z</time></trkpt><trkpt lat="39.2385167" lon="16.214195"><ele>681.0</ele><time>2026-05-01T08:58:31.981Z</time></trkpt><trkpt lat="39.2386333" lon="16.214315"><ele>678.5</ele><time>2026-05-01T08:58:32.981Z</time></trkpt><trkpt lat="39.238745" lon="16.2144167"><ele>676.0</ele><time>2026-05-01T08:58:33.981Z</time></trkpt><trkpt lat="39.2388633" lon="16.2144983"><ele>675.5</ele><time>2026-05-01T08:58:34.982Z</time></trkpt><trkpt lat="39.2389967" lon="16.2145517"><ele>675.0</ele><time>2026-05-01T08:58:35.982Z</time></trkpt><trkpt lat="39.23914" lon="16.2145567"><ele>674.5</ele><time>2026-05-01T08:58:36.982Z</time></trkpt><trkpt lat="39.23929" lon="16.2145317"><ele>674.0</ele><time>2026-05-01T08:58:37.981Z</time></trkpt><trkpt lat="39.2394383" lon="16.2144733"><ele>674.0</ele><time>2026-05-01T08:58:38.981Z</time></trkpt><trkpt lat="39.2395933" lon="16.2143933"><ele>674.0</ele><time>2026-05-01T08:58:39.981Z</time></trkpt><trkpt lat="39.2397617" lon="16.214315"><ele>674.0</ele><time>2026-05-01T08:58:40.982Z</time></trkpt><trkpt lat="39.239935" lon="16.21424"><ele>672.3333333333333</ele><time>2026-05-01T08:58:41.981Z</time></trkpt><trkpt lat="39.2401233" lon="16.21418"><ele>670.6666666666666</ele><time>2026-05-01T08:58:42.981Z</time></trkpt><trkpt lat="39.24031" lon="16.2141367"><ele>669.0</ele><time>2026-05-01T08:58:43.981Z</time></trkpt><trkpt lat="39.2404883" lon="16.2141133"><ele>668.0</ele><time>2026-05-01T08:58:44.982Z</time></trkpt><trkpt lat="39.2406633" lon="16.2141033"><ele>667.0</ele><time>2026-05-01T08:58:45.981Z</time></trkpt><trkpt lat="39.240835" lon="16.214105"><ele>666.0</ele><time>2026-05-01T08:58:46.981Z</time></trkpt><trkpt lat="39.24101" lon="16.2141383"><ele>666.0</ele><time>2026-05-01T08:58:47.982Z</time></trkpt><trkpt lat="39.24118" lon="16.2142067"><ele>666.0</ele><time>2026-05-01T08:58:48.981Z</time></trkpt><trkpt lat="39.2413517" lon="16.2142817"><ele>666.0</ele><time>2026-05-01T08:58:49.982Z</time></trkpt><trkpt lat="39.2415333" lon="16.2143417"><ele>665.3333333333334</ele><time>2026-05-01T08:58:50.981Z</time></trkpt><trkpt lat="39.241705" lon="16.2143633"><ele>664.6666666666667</ele><time>2026-05-01T08:58:51.981Z</time></trkpt><trkpt lat="39.2418733" lon="16.214365"><ele>664.0</ele><time>2026-05-01T08:58:52.981Z</time></trkpt><trkpt lat="39.2420367" lon="16.2143417"><ele>664.0</ele><time>2026-05-01T08:58:53.981Z</time></trkpt><trkpt lat="39.24221" lon="16.214295"><ele>664.0</ele><time>2026-05-01T08:58:54.982Z</time></trkpt><trkpt lat="39.2423883" lon="16.2142533"><ele>664.0</ele><time>2026-05-01T08:58:55.981Z</time></trkpt><trkpt lat="39.2425667" lon="16.2142317"><ele>663.0</ele><time>2026-05-01T08:58:56.981Z</time></trkpt><trkpt lat="39.24275" lon="16.2142433"><ele>662.0</ele><time>2026-05-01T08:58:57.981Z</time></trkpt><trkpt lat="39.2429417" lon="16.214275"><ele>661.0</ele><time>2026-05-01T08:58:58.981Z</time></trkpt><trkpt lat="39.2431267" lon="16.214315"><ele>661.6666666666667</ele><time>2026-05-01T08:58:59.982Z</time></trkpt><trkpt lat="39.24331" lon="16.2143367"><ele>662.3333333333334</ele><time>2026-05-01T08:59:00.982Z</time></trkpt><trkpt lat="39.2434817" lon="16.2143467"><ele>663.0</ele><time>2026-05-01T08:59:01.983Z</time></trkpt><trkpt lat="39.243645" lon="16.2143467"><ele>663.0</ele><time>2026-05-01T08:59:02.983Z</time></trkpt><trkpt lat="39.2437917" lon="16.2143683"><ele>663.0</ele><time>2026-05-01T08:59:03.983Z</time></trkpt><trkpt lat="39.2439233" lon="16.2144267"><ele>663.0</ele><time>2026-05-01T08:59:04.982Z</time></trkpt><trkpt lat="39.2440417" lon="16.2145367"><ele>663.0</ele><time>2026-05-01T08:59:05.983Z</time></trkpt><trkpt lat="39.2441333" lon="16.214695"><ele>659.3333333333334</ele><time>2026-05-01T08:59:06.982Z</time></trkpt><trkpt lat="39.2442" lon="16.2148967"><ele>655.6666666666667</ele><time>2026-05-01T08:59:07.983Z</time></trkpt><trkpt lat="39.244255" lon="16.2151"><ele>652.0</ele><time>2026-05-01T08:59:08.983Z</time></trkpt><trkpt lat="39.2443183" lon="16.2153017"><ele>652.0</ele><time>2026-05-01T08:59:09.983Z</time></trkpt><trkpt lat="39.2443867" lon="16.2155"><ele>652.0</ele><time>2026-05-01T08:59:10.982Z</time></trkpt><trkpt lat="39.2444483" lon="16.21568"><ele>652.0</ele><time>2026-05-01T08:59:11.982Z</time></trkpt><trkpt lat="39.2445083" lon="16.215855"><ele>653.5</ele><time>2026-05-01T08:59:12.983Z</time></trkpt><trkpt lat="39.2445683" lon="16.2160267"><ele>655.0</ele><time>2026-05-01T08:59:13.982Z</time></trkpt><trkpt lat="39.244635" lon="16.2161917"><ele>656.5</ele><time>2026-05-01T08:59:14.983Z</time></trkpt><trkpt lat="39.2447133" lon="16.2163383"><ele>658.0</ele><time>2026-05-01T08:59:15.983Z</time></trkpt><trkpt lat="39.2448083" lon="16.2164667"><ele>654.75</ele><time>2026-05-01T08:59:16.983Z</time></trkpt><trkpt lat="39.2449217" lon="16.2165683"><ele>651.5</ele><time>2026-05-01T08:59:17.982Z</time></trkpt><trkpt lat="39.24505" lon="16.2166533"><ele>648.25</ele><time>2026-05-01T08:59:18.983Z</time></trkpt><trkpt lat="39.2451917" lon="16.21672"><ele>645.0</ele><time>2026-05-01T08:59:19.983Z</time></trkpt><trkpt lat="39.2453317" lon="16.216765"><ele>645.0</ele><time>2026-05-01T08:59:20.982Z</time></trkpt><trkpt lat="39.2454733" lon="16.2168117"><ele>645.0</ele><time>2026-05-01T08:59:21.983Z</time></trkpt><trkpt lat="39.2456133" lon="16.2168683"><ele>645.0</ele><time>2026-05-01T08:59:22.982Z</time></trkpt><trkpt lat="39.2457667" lon="16.2169017"><ele>645.0</ele><time>2026-05-01T08:59:23.982Z</time></trkpt><trkpt lat="39.2459217" lon="16.2169083"><ele>645.0</ele><time>2026-05-01T08:59:24.983Z</time></trkpt><trkpt lat="39.246075" lon="16.2169"><ele>645.0</ele><time>2026-05-01T08:59:25.983Z</time></trkpt><trkpt lat="39.2462117" lon="16.2168733"><ele>645.0</ele><time>2026-05-01T08:59:26.982Z</time></trkpt><trkpt lat="39.2463517" lon="16.2168567"><ele>645.0</ele><time>2026-05-01T08:59:27.982Z</time></trkpt><trkpt lat="39.2464883" lon="16.2168533"><ele>645.0</ele><time>2026-05-01T08:59:28.983Z</time></trkpt><trkpt lat="39.2466217" lon="16.2168683"><ele>645.0</ele><time>2026-05-01T08:59:29.982Z</time></trkpt><trkpt lat="39.2467467" lon="16.2169217"><ele>645.0</ele><time>2026-05-01T08:59:30.982Z</time></trkpt><trkpt lat="39.2468467" lon="16.2170283"><ele>645.0</ele><time>2026-05-01T08:59:31.983Z</time></trkpt><trkpt lat="39.2469383" lon="16.217145"><ele>645.0</ele><time>2026-05-01T08:59:32.983Z</time></trkpt><trkpt lat="39.2470183" lon="16.2172433"><ele>645.0</ele><time>2026-05-01T08:59:33.982Z</time></trkpt><trkpt lat="39.2471017" lon="16.2173033"><ele>645.0</ele><time>2026-05-01T08:59:34.982Z</time></trkpt><trkpt lat="39.24721" lon="16.2173233"><ele>645.0</ele><time>2026-05-01T08:59:35.982Z</time></trkpt><trkpt lat="39.2473333" lon="16.2173167"><ele>645.0</ele><time>2026-05-01T08:59:36.983Z</time></trkpt><trkpt lat="39.2474417" lon="16.2172983"><ele>646.25</ele><time>2026-05-01T08:59:37.982Z</time></trkpt><trkpt lat="39.2475667" lon="16.217275"><ele>647.5</ele><time>2026-05-01T08:59:38.983Z</time></trkpt><trkpt lat="39.2476867" lon="16.2172983"><ele>648.75</ele><time>2026-05-01T08:59:39.982Z</time></trkpt><trkpt lat="39.2477917" lon="16.2173867"><ele>650.0</ele><time>2026-05-01T08:59:40.982Z</time></trkpt><trkpt lat="39.2478917" lon="16.217495"><ele>648.25</ele><time>2026-05-01T08:59:41.982Z</time></trkpt><trkpt lat="39.24799" lon="16.21761"><ele>646.5</ele><time>2026-05-01T08:59:42.982Z</time></trkpt><trkpt lat="39.2480933" lon="16.2177217"><ele>644.75</ele><time>2026-05-01T08:59:43.982Z</time></trkpt><trkpt lat="39.2481983" lon="16.21782"><ele>643.0</ele><time>2026-05-01T08:59:44.982Z</time></trkpt><trkpt lat="39.2482933" lon="16.217925"><ele>643.0</ele><time>2026-05-01T08:59:45.982Z</time></trkpt><trkpt lat="39.2483783" lon="16.2180267"><ele>643.0</ele><time>2026-05-01T08:59:46.982Z</time></trkpt><trkpt lat="39.2484683" lon="16.2181183"><ele>643.0</ele><time>2026-05-01T08:59:47.982Z</time></trkpt><trkpt lat="39.248555" lon="16.2181883"><ele>643.0</ele><time>2026-05-01T08:59:48.982Z</time></trkpt><trkpt lat="39.24864" lon="16.21823"><ele>643.0</ele><time>2026-05-01T08:59:49.982Z</time></trkpt><trkpt lat="39.2487433" lon="16.2182317"><ele>643.0</ele><time>2026-05-01T08:59:50.982Z</time></trkpt><trkpt lat="39.2488467" lon="16.2181917"><ele>643.0</ele><time>2026-05-01T08:59:51.983Z</time></trkpt><trkpt lat="39.2489567" lon="16.2181217"><ele>643.0</ele><time>2026-05-01T08:59:52.982Z</time></trkpt><trkpt lat="39.2490717" lon="16.2180683"><ele>643.0</ele><time>2026-05-01T08:59:53.983Z</time></trkpt><trkpt lat="39.2491867" lon="16.2180017"><ele>642.0</ele><time>2026-05-01T08:59:54.982Z</time></trkpt><trkpt lat="39.2493017" lon="16.217935"><ele>641.0</ele><time>2026-05-01T08:59:55.982Z</time></trkpt><trkpt lat="39.249415" lon="16.2178683"><ele>640.0</ele><time>2026-05-01T08:59:56.982Z</time></trkpt><trkpt lat="39.2495217" lon="16.2178083"><ele>639.0</ele><time>2026-05-01T08:59:57.983Z</time></trkpt><trkpt lat="39.2496267" lon="16.2177567"><ele>639.0</ele><time>2026-05-01T08:59:58.983Z</time></trkpt><trkpt lat="39.2497233" lon="16.21773"><ele>639.0</ele><time>2026-05-01T08:59:59.983Z</time></trkpt><trkpt lat="39.2498367" lon="16.2177383"><ele>639.0</ele><time>2026-05-01T09:00:00.982Z</time></trkpt><trkpt lat="39.2499583" lon="16.2177767"><ele>639.0</ele><time>2026-05-01T09:00:01.982Z</time></trkpt><trkpt lat="39.2500683" lon="16.2178367"><ele>637.0</ele><time>2026-05-01T09:00:02.982Z</time></trkpt><trkpt lat="39.25017" lon="16.2179233"><ele>635.0</ele><time>2026-05-01T09:00:03.982Z</time></trkpt><trkpt lat="39.2502583" lon="16.218015"><ele>633.0</ele><time>2026-05-01T09:00:04.982Z</time></trkpt><trkpt lat="39.2503483" lon="16.2181017"><ele>631.0</ele><time>2026-05-01T09:00:05.982Z</time></trkpt><trkpt lat="39.2504217" lon="16.218195"><ele>630.2</ele><time>2026-05-01T09:00:06.982Z</time></trkpt><trkpt lat="39.2504783" lon="16.2183117"><ele>629.4000000000001</ele><time>2026-05-01T09:00:07.982Z</time></trkpt><trkpt lat="39.2505283" lon="16.218435"><ele>628.6</ele><time>2026-05-01T09:00:08.982Z</time></trkpt><trkpt lat="39.2505733" lon="16.2185533"><ele>627.8000000000001</ele><time>2026-05-01T09:00:09.982Z</time></trkpt><trkpt lat="39.2506233" lon="16.2186583"><ele>627.0</ele><time>2026-05-01T09:00:10.982Z</time></trkpt><trkpt lat="39.2506917" lon="16.2187367"><ele>627.0</ele><time>2026-05-01T09:00:11.982Z</time></trkpt><trkpt lat="39.2507733" lon="16.2187833"><ele>627.0</ele><time>2026-05-01T09:00:12.982Z</time></trkpt><trkpt lat="39.25086" lon="16.21879"><ele>627.0</ele><time>2026-05-01T09:00:13.982Z</time></trkpt><trkpt lat="39.25096" lon="16.21877"><ele>627.0</ele><time>2026-05-01T09:00:14.983Z</time></trkpt><trkpt lat="39.251065" lon="16.21873"><ele>627.0</ele><time>2026-05-01T09:00:15.982Z</time></trkpt><trkpt lat="39.2511667" lon="16.2186767"><ele>627.0</ele><time>2026-05-01T09:00:16.982Z</time></trkpt><trkpt lat="39.251265" lon="16.2186433"><ele>627.0</ele><time>2026-05-01T09:00:17.982Z</time></trkpt><trkpt lat="39.25137" lon="16.2186267"><ele>627.0</ele><time>2026-05-01T09:00:18.982Z</time></trkpt><trkpt lat="39.251475" lon="16.2186267"><ele>627.0</ele><time>2026-05-01T09:00:19.982Z</time></trkpt><trkpt lat="39.25158" lon="16.2186417"><ele>627.0</ele><time>2026-05-01T09:00:20.982Z</time></trkpt><trkpt lat="39.2516817" lon="16.2186467"><ele>627.6</ele><time>2026-05-01T09:00:21.982Z</time></trkpt><trkpt lat="39.2517833" lon="16.2186633"><ele>628.2</ele><time>2026-05-01T09:00:22.982Z</time></trkpt><trkpt lat="39.2518867" lon="16.2186767"><ele>628.8</ele><time>2026-05-01T09:00:23.982Z</time></trkpt><trkpt lat="39.2519917" lon="16.2186817"><ele>629.4</ele><time>2026-05-01T09:00:24.982Z</time></trkpt><trkpt lat="39.25209" lon="16.218665"><ele>630.0</ele><time>2026-05-01T09:00:25.982Z</time></trkpt><trkpt lat="39.2521883" lon="16.2186367"><ele>630.0</ele><time>2026-05-01T09:00:26.982Z</time></trkpt><trkpt lat="39.2522833" lon="16.2186083"><ele>630.0</ele><time>2026-05-01T09:00:27.982Z</time></trkpt><trkpt lat="39.2523833" lon="16.21858"><ele>630.0</ele><time>2026-05-01T09:00:28.982Z</time></trkpt><trkpt lat="39.2524917" lon="16.218545"><ele>630.0</ele><time>2026-05-01T09:00:29.983Z</time></trkpt><trkpt lat="39.2525983" lon="16.218515"><ele>630.0</ele><time>2026-05-01T09:00:30.983Z</time></trkpt><trkpt lat="39.2527133" lon="16.2184883"><ele>628.0</ele><time>2026-05-01T09:00:31.982Z</time></trkpt><trkpt lat="39.2528317" lon="16.21847"><ele>626.0</ele><time>2026-05-01T09:00:32.983Z</time></trkpt><trkpt lat="39.252955" lon="16.2184617"><ele>624.0</ele><time>2026-05-01T09:00:33.983Z</time></trkpt><trkpt lat="39.2530783" lon="16.2184367"><ele>622.0</ele><time>2026-05-01T09:00:34.982Z</time></trkpt><trkpt lat="39.2531833" lon="16.2183933"><ele>621.2</ele><time>2026-05-01T09:00:35.982Z</time></trkpt><trkpt lat="39.2532967" lon="16.2183633"><ele>620.4000000000001</ele><time>2026-05-01T09:00:36.982Z</time></trkpt><trkpt lat="39.2533967" lon="16.21831"><ele>619.5999999999999</ele><time>2026-05-01T09:00:37.983Z</time></trkpt><trkpt lat="39.2534967" lon="16.2182467"><ele>618.8</ele><time>2026-05-01T09:00:38.982Z</time></trkpt><trkpt lat="39.25358" lon="16.2181883"><ele>618.0</ele><time>2026-05-01T09:00:39.982Z</time></trkpt><trkpt lat="39.2536767" lon="16.2181367"><ele>620.1999999999999</ele><time>2026-05-01T09:00:40.982Z</time></trkpt><trkpt lat="39.253785" lon="16.2180917"><ele>622.4</ele><time>2026-05-01T09:00:41.983Z</time></trkpt><trkpt lat="39.2538883" lon="16.21805"><ele>624.5999999999999</ele><time>2026-05-01T09:00:42.982Z</time></trkpt><trkpt lat="39.2539983" lon="16.2180283"><ele>626.8</ele><time>2026-05-01T09:00:43.982Z</time></trkpt><trkpt lat="39.2541067" lon="16.218015"><ele>629.0</ele><time>2026-05-01T09:00:44.982Z</time></trkpt><trkpt lat="39.25421" lon="16.21801"><ele>629.0</ele><time>2026-05-01T09:00:45.983Z</time></trkpt><trkpt lat="39.2543133" lon="16.218015"><ele>629.0</ele><time>2026-05-01T09:00:46.982Z</time></trkpt><trkpt lat="39.25441" lon="16.2180233"><ele>629.0</ele><time>2026-05-01T09:00:47.983Z</time></trkpt><trkpt lat="39.254505" lon="16.2180317"><ele>629.0</ele><time>2026-05-01T09:00:48.982Z</time></trkpt><trkpt lat="39.254595" lon="16.218045"><ele>629.0</ele><time>2026-05-01T09:00:49.983Z</time></trkpt><trkpt lat="39.2546767" lon="16.2180617"><ele>629.0</ele><time>2026-05-01T09:00:50.982Z</time></trkpt><trkpt lat="39.2547617" lon="16.218075"><ele>629.0</ele><time>2026-05-01T09:00:51.983Z</time></trkpt><trkpt lat="39.2548533" lon="16.21811"><ele>629.0</ele><time>2026-05-01T09:00:52.983Z</time></trkpt><trkpt lat="39.2549517" lon="16.218145"><ele>629.0</ele><time>2026-05-01T09:00:53.982Z</time></trkpt><trkpt lat="39.2550433" lon="16.2181833"><ele>629.0</ele><time>2026-05-01T09:00:54.983Z</time></trkpt><trkpt lat="39.2551433" lon="16.2182383"><ele>629.0</ele><time>2026-05-01T09:00:55.982Z</time></trkpt><trkpt lat="39.25524" lon="16.21829"><ele>629.0</ele><time>2026-05-01T09:00:56.982Z</time></trkpt><trkpt lat="39.2553283" lon="16.2183633"><ele>629.0</ele><time>2026-05-01T09:00:57.982Z</time></trkpt><trkpt lat="39.2554133" lon="16.2184617"><ele>629.0</ele><time>2026-05-01T09:00:58.982Z</time></trkpt><trkpt lat="39.2555" lon="16.2185617"><ele>629.0</ele><time>2026-05-01T09:00:59.982Z</time></trkpt><trkpt lat="39.2555867" lon="16.21867"><ele>629.5</ele><time>2026-05-01T09:01:00.983Z</time></trkpt><trkpt lat="39.2556717" lon="16.2187783"><ele>630.0</ele><time>2026-05-01T09:01:01.982Z</time></trkpt><trkpt lat="39.25576" lon="16.2188833"><ele>630.5</ele><time>2026-05-01T09:01:02.983Z</time></trkpt><trkpt lat="39.255855" lon="16.2189917"><ele>631.0</ele><time>2026-05-01T09:01:03.982Z</time></trkpt><trkpt lat="39.255955" lon="16.2191033"><ele>632.0</ele><time>2026-05-01T09:01:04.982Z</time></trkpt><trkpt lat="39.2560583" lon="16.2192267"><ele>633.0</ele><time>2026-05-01T09:01:05.982Z</time></trkpt><trkpt lat="39.2561567" lon="16.2193417"><ele>634.0</ele><time>2026-05-01T09:01:06.982Z</time></trkpt><trkpt lat="39.2562567" lon="16.2194433"><ele>635.0</ele><time>2026-05-01T09:01:07.983Z</time></trkpt><trkpt lat="39.2563433" lon="16.2195483"><ele>635.0</ele><time>2026-05-01T09:01:08.982Z</time></trkpt><trkpt lat="39.2564367" lon="16.2196533"><ele>635.0</ele><time>2026-05-01T09:01:09.982Z</time></trkpt><trkpt lat="39.25653" lon="16.21976"><ele>635.0</ele><time>2026-05-01T09:01:10.982Z</time></trkpt><trkpt lat="39.2566217" lon="16.21987"><ele>635.0</ele><time>2026-05-01T09:01:11.982Z</time></trkpt><trkpt lat="39.256715" lon="16.2199817"><ele>635.25</ele><time>2026-05-01T09:01:12.982Z</time></trkpt><trkpt lat="39.2568067" lon="16.2200983"><ele>635.5</ele><time>2026-05-01T09:01:13.982Z</time></trkpt><trkpt lat="39.2568967" lon="16.2202233"><ele>635.75</ele><time>2026-05-01T09:01:14.982Z</time></trkpt><trkpt lat="39.2569833" lon="16.2203567"><ele>636.0</ele><time>2026-05-01T09:01:15.982Z</time></trkpt><trkpt lat="39.257065" lon="16.2204883"><ele>636.0</ele><time>2026-05-01T09:01:16.983Z</time></trkpt><trkpt lat="39.2571383" lon="16.2206167"><ele>636.0</ele><time>2026-05-01T09:01:17.983Z</time></trkpt><trkpt lat="39.2572233" lon="16.2207433"><ele>636.0</ele><time>2026-05-01T09:01:18.982Z</time></trkpt><trkpt lat="39.2572933" lon="16.2208617"><ele>636.0</ele><time>2026-05-01T09:01:19.982Z</time></trkpt><trkpt lat="39.2573567" lon="16.2209733"><ele>635.4</ele><time>2026-05-01T09:01:20.982Z</time></trkpt><trkpt lat="39.257415" lon="16.2210817"><ele>634.8</ele><time>2026-05-01T09:01:21.982Z</time></trkpt><trkpt lat="39.2574717" lon="16.2211933"><ele>634.1999999999999</ele><time>2026-05-01T09:01:22.983Z</time></trkpt><trkpt lat="39.2575317" lon="16.2213033"><ele>633.6</ele><time>2026-05-01T09:01:23.982Z</time></trkpt><trkpt lat="39.25758" lon="16.2214217"><ele>633.0</ele><time>2026-05-01T09:01:24.982Z</time></trkpt><trkpt lat="39.25762" lon="16.2215567"><ele>633.0</ele><time>2026-05-01T09:01:25.983Z</time></trkpt><trkpt lat="39.2576633" lon="16.221695"><ele>633.0</ele><time>2026-05-01T09:01:26.983Z</time></trkpt><trkpt lat="39.2577083" lon="16.2218467"><ele>633.0</ele><time>2026-05-01T09:01:27.982Z</time></trkpt><trkpt lat="39.2577567" lon="16.221995"><ele>633.0</ele><time>2026-05-01T09:01:28.982Z</time></trkpt><trkpt lat="39.2578183" lon="16.22214"><ele>633.0</ele><time>2026-05-01T09:01:29.982Z</time></trkpt><trkpt lat="39.2578917" lon="16.2222717"><ele>633.0</ele><time>2026-05-01T09:01:30.983Z</time></trkpt><trkpt lat="39.257975" lon="16.222395"><ele>633.0</ele><time>2026-05-01T09:01:31.982Z</time></trkpt><trkpt lat="39.25806" lon="16.2225033"><ele>633.0</ele><time>2026-05-01T09:01:32.983Z</time></trkpt><trkpt lat="39.258155" lon="16.222595"><ele>632.25</ele><time>2026-05-01T09:01:33.982Z</time></trkpt><trkpt lat="39.2582467" lon="16.22267"><ele>631.5</ele><time>2026-05-01T09:01:34.983Z</time></trkpt><trkpt lat="39.2583567" lon="16.2227183"><ele>630.75</ele><time>2026-05-01T09:01:35.982Z</time></trkpt><trkpt lat="39.258475" lon="16.222765"><ele>630.0</ele><time>2026-05-01T09:01:36.983Z</time></trkpt><trkpt lat="39.2585967" lon="16.2227733"><ele>630.0</ele><time>2026-05-01T09:01:37.982Z</time></trkpt><trkpt lat="39.2587183" lon="16.222765"><ele>630.0</ele><time>2026-05-01T09:01:38.982Z</time></trkpt><trkpt lat="39.2588483" lon="16.222755"><ele>630.0</ele><time>2026-05-01T09:01:39.982Z</time></trkpt><trkpt lat="39.2589817" lon="16.22274"><ele>630.0</ele><time>2026-05-01T09:01:40.982Z</time></trkpt><trkpt lat="39.2591133" lon="16.2227"><ele>629.25</ele><time>2026-05-01T09:01:41.982Z</time></trkpt><trkpt lat="39.2592383" lon="16.2226317"><ele>628.5</ele><time>2026-05-01T09:01:42.983Z</time></trkpt><trkpt lat="39.2593717" lon="16.22253"><ele>627.75</ele><time>2026-05-01T09:01:43.982Z</time></trkpt><trkpt lat="39.2595017" lon="16.22246"><ele>627.0</ele><time>2026-05-01T09:01:44.982Z</time></trkpt><trkpt lat="39.2596317" lon="16.2224133"><ele>627.0</ele><time>2026-05-01T09:01:45.982Z</time></trkpt><trkpt lat="39.2597667" lon="16.2224"><ele>627.0</ele><time>2026-05-01T09:01:46.982Z</time></trkpt><trkpt lat="39.2599083" lon="16.22242"><ele>627.0</ele><time>2026-05-01T09:01:47.982Z</time></trkpt><trkpt lat="39.260045" lon="16.22242"><ele>627.0</ele><time>2026-05-01T09:01:48.982Z</time></trkpt><trkpt lat="39.260175" lon="16.2224033"><ele>626.75</ele><time>2026-05-01T09:01:49.983Z</time></trkpt><trkpt lat="39.2603" lon="16.2223967"><ele>626.5</ele><time>2026-05-01T09:01:50.983Z</time></trkpt><trkpt lat="39.2604283" lon="16.2223833"><ele>626.25</ele><time>2026-05-01T09:01:51.982Z</time></trkpt><trkpt lat="39.2605433" lon="16.2223633"><ele>626.0</ele><time>2026-05-01T09:01:52.982Z</time></trkpt><trkpt lat="39.260655" lon="16.2223467"><ele>625.8</ele><time>2026-05-01T09:01:53.982Z</time></trkpt><trkpt lat="39.26076" lon="16.2223183"><ele>625.6</ele><time>2026-05-01T09:01:54.982Z</time></trkpt><trkpt lat="39.2608567" lon="16.22227"><ele>625.4</ele><time>2026-05-01T09:01:55.983Z</time></trkpt><trkpt lat="39.260945" lon="16.2221917"><ele>625.2</ele><time>2026-05-01T09:01:56.983Z</time></trkpt><trkpt lat="39.261025" lon="16.2220883"><ele>625.0</ele><time>2026-05-01T09:01:57.982Z</time></trkpt><trkpt lat="39.2610967" lon="16.2219783"><ele>623.2</ele><time>2026-05-01T09:01:58.983Z</time></trkpt><trkpt lat="39.2611617" lon="16.2218617"><ele>621.4</ele><time>2026-05-01T09:01:59.982Z</time></trkpt><trkpt lat="39.2612217" lon="16.221745"><ele>619.6</ele><time>2026-05-01T09:02:00.982Z</time></trkpt><trkpt lat="39.2612867" lon="16.2216317"><ele>617.8</ele><time>2026-05-01T09:02:01.983Z</time></trkpt><trkpt lat="39.2613533" lon="16.2215267"><ele>616.0</ele><time>2026-05-01T09:02:02.983Z</time></trkpt><trkpt lat="39.26143" lon="16.22144"><ele>613.8</ele><time>2026-05-01T09:02:03.983Z</time></trkpt><trkpt lat="39.261515" lon="16.2213683"><ele>611.6</ele><time>2026-05-01T09:02:04.982Z</time></trkpt><trkpt lat="39.2616083" lon="16.22132"><ele>609.4</ele><time>2026-05-01T09:02:05.983Z</time></trkpt><trkpt lat="39.2617067" lon="16.2212883"><ele>607.2</ele><time>2026-05-01T09:02:06.982Z</time></trkpt><trkpt lat="39.2618083" lon="16.2212567"><ele>605.0</ele><time>2026-05-01T09:02:07.982Z</time></trkpt><trkpt lat="39.26191" lon="16.2212317"><ele>605.0</ele><time>2026-05-01T09:02:08.983Z</time></trkpt><trkpt lat="39.2620067" lon="16.2212017"><ele>605.0</ele><time>2026-05-01T09:02:09.982Z</time></trkpt><trkpt lat="39.2621033" lon="16.2211733"><ele>605.0</ele><time>2026-05-01T09:02:10.982Z</time></trkpt><trkpt lat="39.262195" lon="16.221155"><ele>605.0</ele><time>2026-05-01T09:02:11.983Z</time></trkpt><trkpt lat="39.2622833" lon="16.22115"><ele>605.0</ele><time>2026-05-01T09:02:12.983Z</time></trkpt><trkpt lat="39.26237" lon="16.2211717"><ele>605.0</ele><time>2026-05-01T09:02:13.983Z</time></trkpt><trkpt lat="39.262465" lon="16.2212383"><ele>605.0</ele><time>2026-05-01T09:02:14.982Z</time></trkpt><trkpt lat="39.2625733" lon="16.2213117"><ele>605.0</ele><time>2026-05-01T09:02:15.982Z</time></trkpt><trkpt lat="39.262685" lon="16.2213817"><ele>605.0</ele><time>2026-05-01T09:02:16.983Z</time></trkpt><trkpt lat="39.2627983" lon="16.2214467"><ele>605.75</ele><time>2026-05-01T09:02:17.983Z</time></trkpt><trkpt lat="39.262905" lon="16.2215033"><ele>606.5</ele><time>2026-05-01T09:02:18.983Z</time></trkpt><trkpt lat="39.2630233" lon="16.221535"><ele>607.25</ele><time>2026-05-01T09:02:19.982Z</time></trkpt><trkpt lat="39.2631417" lon="16.2215233"><ele>608.0</ele><time>2026-05-01T09:02:20.983Z</time></trkpt><trkpt lat="39.2632583" lon="16.22148"><ele>608.0</ele><time>2026-05-01T09:02:21.983Z</time></trkpt><trkpt lat="39.2633683" lon="16.2214133"><ele>608.0</ele><time>2026-05-01T09:02:22.982Z</time></trkpt><trkpt lat="39.2634717" lon="16.2213333"><ele>608.0</ele><time>2026-05-01T09:02:23.983Z</time></trkpt><trkpt lat="39.2635683" lon="16.2212"><ele>608.0</ele><time>2026-05-01T09:02:24.982Z</time></trkpt><trkpt lat="39.2636417" lon="16.2210517"><ele>608.0</ele><time>2026-05-01T09:02:25.982Z</time></trkpt><trkpt lat="39.2637083" lon="16.2208967"><ele>608.0</ele><time>2026-05-01T09:02:26.983Z</time></trkpt><trkpt lat="39.2637833" lon="16.2207283"><ele>608.0</ele><time>2026-05-01T09:02:27.983Z</time></trkpt><trkpt lat="39.2638717" lon="16.2205467"><ele>609.3333333333333</ele><time>2026-05-01T09:02:28.982Z</time></trkpt><trkpt lat="39.2639717" lon="16.2203533"><ele>610.6666666666666</ele><time>2026-05-01T09:02:29.982Z</time></trkpt><trkpt lat="39.2640633" lon="16.220165"><ele>612.0</ele><time>2026-05-01T09:02:30.983Z</time></trkpt><trkpt lat="39.26414" lon="16.219985"><ele>612.0</ele><time>2026-05-01T09:02:31.983Z</time></trkpt><trkpt lat="39.2641883" lon="16.2198317"><ele>612.0</ele><time>2026-05-01T09:02:32.982Z</time></trkpt><trkpt lat="39.2642017" lon="16.21969"><ele>612.0</ele><time>2026-05-01T09:02:33.983Z</time></trkpt><trkpt lat="39.2641917" lon="16.2195517"><ele>612.0</ele><time>2026-05-01T09:02:34.982Z</time></trkpt><trkpt lat="39.264155" lon="16.21942"><ele>613.0</ele><time>2026-05-01T09:02:35.982Z</time></trkpt><trkpt lat="39.264065" lon="16.2192933"><ele>614.0</ele><time>2026-05-01T09:02:36.982Z</time></trkpt><trkpt lat="39.26394" lon="16.2191633"><ele>615.0</ele><time>2026-05-01T09:02:37.982Z</time></trkpt><trkpt lat="39.26381" lon="16.2190283"><ele>610.25</ele><time>2026-05-01T09:02:38.982Z</time></trkpt><trkpt lat="39.2636917" lon="16.2189117"><ele>605.5</ele><time>2026-05-01T09:02:39.983Z</time></trkpt><trkpt lat="39.2635717" lon="16.2188033"><ele>600.75</ele><time>2026-05-01T09:02:40.982Z</time></trkpt><trkpt lat="39.2634667" lon="16.2186833"><ele>596.0</ele><time>2026-05-01T09:02:41.982Z</time></trkpt><trkpt lat="39.2633867" lon="16.2185467"><ele>596.0</ele><time>2026-05-01T09:02:42.982Z</time></trkpt><trkpt lat="39.26334" lon="16.2184033"><ele>596.0</ele><time>2026-05-01T09:02:43.983Z</time></trkpt><trkpt lat="39.26331" lon="16.2182533"><ele>596.0</ele><time>2026-05-01T09:02:44.983Z</time></trkpt><trkpt lat="39.2633117" lon="16.218105"><ele>596.0</ele><time>2026-05-01T09:02:45.982Z</time></trkpt><trkpt lat="39.2633367" lon="16.21796"><ele>593.0</ele><time>2026-05-01T09:02:46.983Z</time></trkpt><trkpt lat="39.2633933" lon="16.2178283"><ele>590.0</ele><time>2026-05-01T09:02:47.982Z</time></trkpt><trkpt lat="39.2634767" lon="16.2177083"><ele>587.0</ele><time>2026-05-01T09:02:48.982Z</time></trkpt><trkpt lat="39.2635783" lon="16.2176"><ele>584.0</ele><time>2026-05-01T09:02:49.982Z</time></trkpt><trkpt lat="39.2636867" lon="16.2174883"><ele>584.0</ele><time>2026-05-01T09:02:50.982Z</time></trkpt><trkpt lat="39.2637883" lon="16.2173783"><ele>584.0</ele><time>2026-05-01T09:02:51.982Z</time></trkpt><trkpt lat="39.2638883" lon="16.2172667"><ele>584.0</ele><time>2026-05-01T09:02:52.982Z</time></trkpt><trkpt lat="39.2639867" lon="16.2171567"><ele>584.0</ele><time>2026-05-01T09:02:53.983Z</time></trkpt><trkpt lat="39.26408" lon="16.2170467"><ele>586.0</ele><time>2026-05-01T09:02:54.982Z</time></trkpt><trkpt lat="39.2641717" lon="16.2169367"><ele>588.0</ele><time>2026-05-01T09:02:55.983Z</time></trkpt><trkpt lat="39.264265" lon="16.2168283"><ele>590.0</ele><time>2026-05-01T09:02:56.983Z</time></trkpt><trkpt lat="39.2643583" lon="16.2167183"><ele>592.0</ele><time>2026-05-01T09:02:57.982Z</time></trkpt><trkpt lat="39.264445" lon="16.2165983"><ele>584.25</ele><time>2026-05-01T09:02:58.982Z</time></trkpt><trkpt lat="39.2645333" lon="16.2164717"><ele>576.5</ele><time>2026-05-01T09:02:59.983Z</time></trkpt><trkpt lat="39.2646233" lon="16.2163417"><ele>568.75</ele><time>2026-05-01T09:03:00.982Z</time></trkpt><trkpt lat="39.264705" lon="16.21622"><ele>561.0</ele><time>2026-05-01T09:03:01.983Z</time></trkpt><trkpt lat="39.2647733" lon="16.2160917"><ele>567.0</ele><time>2026-05-01T09:03:02.982Z</time></trkpt><trkpt lat="39.2648433" lon="16.2159667"><ele>573.0</ele><time>2026-05-01T09:03:03.982Z</time></trkpt><trkpt lat="39.264925" lon="16.2158583"><ele>579.0</ele><time>2026-05-01T09:03:04.983Z</time></trkpt><trkpt lat="39.2650217" lon="16.21577"><ele>585.0</ele><time>2026-05-01T09:03:05.982Z</time></trkpt><trkpt lat="39.265125" lon="16.2157117"><ele>585.0</ele><time>2026-05-01T09:03:06.982Z</time></trkpt><trkpt lat="39.2652367" lon="16.21569"><ele>585.0</ele><time>2026-05-01T09:03:07.983Z</time></trkpt><trkpt lat="39.2653617" lon="16.2157183"><ele>585.0</ele><time>2026-05-01T09:03:08.982Z</time></trkpt><trkpt lat="39.26548" lon="16.2157633"><ele>585.0</ele><time>2026-05-01T09:03:09.982Z</time></trkpt><trkpt lat="39.2656" lon="16.2158317"><ele>582.25</ele><time>2026-05-01T09:03:10.982Z</time></trkpt><trkpt lat="39.2657167" lon="16.2158967"><ele>579.5</ele><time>2026-05-01T09:03:11.983Z</time></trkpt><trkpt lat="39.2658267" lon="16.21599"><ele>576.75</ele><time>2026-05-01T09:03:12.982Z</time></trkpt><trkpt lat="39.2659167" lon="16.2160983"><ele>574.0</ele><time>2026-05-01T09:03:13.982Z</time></trkpt><trkpt lat="39.2660017" lon="16.2162217"><ele>574.0</ele><time>2026-05-01T09:03:14.982Z</time></trkpt><trkpt lat="39.26609" lon="16.2163417"><ele>574.0</ele><time>2026-05-01T09:03:15.983Z</time></trkpt><trkpt lat="39.2661967" lon="16.21645"><ele>574.0</ele><time>2026-05-01T09:03:16.983Z</time></trkpt><trkpt lat="39.266315" lon="16.21654"><ele>574.0</ele><time>2026-05-01T09:03:17.982Z</time></trkpt><trkpt lat="39.2664433" lon="16.216615"><ele>573.75</ele><time>2026-05-01T09:03:18.982Z</time></trkpt><trkpt lat="39.2665683" lon="16.216675"><ele>573.5</ele><time>2026-05-01T09:03:19.982Z</time></trkpt><trkpt lat="39.266705" lon="16.21671"><ele>573.25</ele><time>2026-05-01T09:03:20.982Z</time></trkpt><trkpt lat="39.2668367" lon="16.216745"><ele>573.0</ele><time>2026-05-01T09:03:21.982Z</time></trkpt><trkpt lat="39.2669567" lon="16.21679"><ele>573.0</ele><time>2026-05-01T09:03:22.983Z</time></trkpt><trkpt lat="39.26707" lon="16.2168883"><ele>573.0</ele><time>2026-05-01T09:03:23.983Z</time></trkpt><trkpt lat="39.2671633" lon="16.2170133"><ele>573.0</ele><time>2026-05-01T09:03:24.982Z</time></trkpt><trkpt lat="39.2672283" lon="16.217155"><ele>573.0</ele><time>2026-05-01T09:03:25.983Z</time></trkpt><trkpt lat="39.2673083" lon="16.21727"><ele>572.25</ele><time>2026-05-01T09:03:26.983Z</time></trkpt><trkpt lat="39.2674067" lon="16.2173467"><ele>571.5</ele><time>2026-05-01T09:03:27.982Z</time></trkpt><trkpt lat="39.2675217" lon="16.2173883"><ele>570.75</ele><time>2026-05-01T09:03:28.982Z</time></trkpt><trkpt lat="39.26765" lon="16.2173933"><ele>570.0</ele><time>2026-05-01T09:03:29.983Z</time></trkpt><trkpt lat="39.2677783" lon="16.2173883"><ele>570.0</ele><time>2026-05-01T09:03:30.982Z</time></trkpt><trkpt lat="39.2679083" lon="16.2174"><ele>570.0</ele><time>2026-05-01T09:03:31.982Z</time></trkpt><trkpt lat="39.2680417" lon="16.2174333"><ele>570.0</ele><time>2026-05-01T09:03:32.982Z</time></trkpt><trkpt lat="39.2681767" lon="16.2174783"><ele>570.0</ele><time>2026-05-01T09:03:33.982Z</time></trkpt><trkpt lat="39.2683067" lon="16.2175267"><ele>566.0</ele><time>2026-05-01T09:03:34.982Z</time></trkpt><trkpt lat="39.2684383" lon="16.2175667"><ele>562.0</ele><time>2026-05-01T09:03:35.982Z</time></trkpt><trkpt lat="39.268565" lon="16.2175783"><ele>558.0</ele><time>2026-05-01T09:03:36.983Z</time></trkpt><trkpt lat="39.2686833" lon="16.2175633"><ele>554.0</ele><time>2026-05-01T09:03:37.983Z</time></trkpt><trkpt lat="39.268785" lon="16.21754"><ele>554.0</ele><time>2026-05-01T09:03:38.982Z</time></trkpt><trkpt lat="39.2688917" lon="16.2175517"><ele>554.0</ele><time>2026-05-01T09:03:39.982Z</time></trkpt><trkpt lat="39.2689967" lon="16.2176233"><ele>554.0</ele><time>2026-05-01T09:03:40.983Z</time></trkpt><trkpt lat="39.2690967" lon="16.2177183"><ele>554.0</ele><time>2026-05-01T09:03:41.983Z</time></trkpt><trkpt lat="39.2691817" lon="16.21783"><ele>554.0</ele><time>2026-05-01T09:03:42.983Z</time></trkpt><trkpt lat="39.26925" lon="16.2179633"><ele>554.0</ele><time>2026-05-01T09:03:43.983Z</time></trkpt><trkpt lat="39.2692983" lon="16.218115"><ele>554.0</ele><time>2026-05-01T09:03:44.982Z</time></trkpt><trkpt lat="39.2693317" lon="16.21827"><ele>554.0</ele><time>2026-05-01T09:03:45.983Z</time></trkpt><trkpt lat="39.2693483" lon="16.2184233"><ele>554.0</ele><time>2026-05-01T09:03:46.982Z</time></trkpt><trkpt lat="39.269395" lon="16.2185767"><ele>554.0</ele><time>2026-05-01T09:03:47.982Z</time></trkpt><trkpt lat="39.2694683" lon="16.21873"><ele>554.0</ele><time>2026-05-01T09:03:48.982Z</time></trkpt><trkpt lat="39.2695733" lon="16.2188533"><ele>554.0</ele><time>2026-05-01T09:03:49.982Z</time></trkpt><trkpt lat="39.2696833" lon="16.218945"><ele>550.75</ele><time>2026-05-01T09:03:50.982Z</time></trkpt><trkpt lat="39.2698033" lon="16.219005"><ele>547.5</ele><time>2026-05-01T09:03:51.982Z</time></trkpt><trkpt lat="39.26993" lon="16.2190533"><ele>544.25</ele><time>2026-05-01T09:03:52.982Z</time></trkpt><trkpt lat="39.27006" lon="16.2191083"><ele>541.0</ele><time>2026-05-01T09:03:53.982Z</time></trkpt><trkpt lat="39.2701833" lon="16.219185"><ele>541.0</ele><time>2026-05-01T09:03:54.982Z</time></trkpt><trkpt lat="39.2702967" lon="16.2192667"><ele>541.0</ele><time>2026-05-01T09:03:55.982Z</time></trkpt><trkpt lat="39.2704" lon="16.2193317"><ele>541.0</ele><time>2026-05-01T09:03:56.983Z</time></trkpt><trkpt lat="39.270505" lon="16.2193717"><ele>541.0</ele><time>2026-05-01T09:03:57.983Z</time></trkpt><trkpt lat="39.2706083" lon="16.2193717"><ele>536.5</ele><time>2026-05-01T09:03:58.983Z</time></trkpt><trkpt lat="39.27072" lon="16.219335"><ele>532.0</ele><time>2026-05-01T09:03:59.983Z</time></trkpt><trkpt lat="39.2708317" lon="16.21928"><ele>527.5</ele><time>2026-05-01T09:04:00.982Z</time></trkpt><trkpt lat="39.27094" lon="16.21923"><ele>523.0</ele><time>2026-05-01T09:04:01.982Z</time></trkpt><trkpt lat="39.271035" lon="16.2191633"><ele>523.0</ele><time>2026-05-01T09:04:02.982Z</time></trkpt><trkpt lat="39.2711067" lon="16.2190633"><ele>523.0</ele><time>2026-05-01T09:04:03.982Z</time></trkpt><trkpt lat="39.271165" lon="16.218935"><ele>523.0</ele><time>2026-05-01T09:04:04.983Z</time></trkpt><trkpt lat="39.2711783" lon="16.2187917"><ele>523.0</ele><time>2026-05-01T09:04:05.982Z</time></trkpt><trkpt lat="39.2711967" lon="16.21864"><ele>521.4</ele><time>2026-05-01T09:04:06.982Z</time></trkpt><trkpt lat="39.271245" lon="16.2185167"><ele>519.8</ele><time>2026-05-01T09:04:07.982Z</time></trkpt><trkpt lat="39.2713083" lon="16.2184267"><ele>518.2</ele><time>2026-05-01T09:04:08.983Z</time></trkpt><trkpt lat="39.2713917" lon="16.218365"><ele>516.6</ele><time>2026-05-01T09:04:09.982Z</time></trkpt><trkpt lat="39.27149" lon="16.2183383"><ele>515.0</ele><time>2026-05-01T09:04:10.982Z</time></trkpt><trkpt lat="39.2715883" lon="16.21833"><ele>513.6</ele><time>2026-05-01T09:04:11.983Z</time></trkpt><trkpt lat="39.2716917" lon="16.2183267"><ele>512.2</ele><time>2026-05-01T09:04:12.983Z</time></trkpt><trkpt lat="39.2718067" lon="16.2183333"><ele>510.79999999999995</ele><time>2026-05-01T09:04:13.983Z</time></trkpt><trkpt lat="39.27191" lon="16.21835"><ele>509.4</ele><time>2026-05-01T09:04:14.982Z</time></trkpt><trkpt lat="39.272025" lon="16.2183783"><ele>508.0</ele><time>2026-05-01T09:04:15.982Z</time></trkpt><trkpt lat="39.2721433" lon="16.218425"><ele>508.0</ele><time>2026-05-01T09:04:16.983Z</time></trkpt><trkpt lat="39.2722517" lon="16.218505"><ele>508.0</ele><time>2026-05-01T09:04:17.982Z</time></trkpt><trkpt lat="39.2723583" lon="16.2186017"><ele>508.0</ele><time>2026-05-01T09:04:18.983Z</time></trkpt><trkpt lat="39.2724633" lon="16.2187083"><ele>508.0</ele><time>2026-05-01T09:04:19.983Z</time></trkpt><trkpt lat="39.2725817" lon="16.218805"><ele>507.75</ele><time>2026-05-01T09:04:20.983Z</time></trkpt><trkpt lat="39.272705" lon="16.2189"><ele>507.5</ele><time>2026-05-01T09:04:21.982Z</time></trkpt><trkpt lat="39.272835" lon="16.21899"><ele>507.25</ele><time>2026-05-01T09:04:22.983Z</time></trkpt><trkpt lat="39.2729767" lon="16.2190717"><ele>507.0</ele><time>2026-05-01T09:04:23.982Z</time></trkpt><trkpt lat="39.2731217" lon="16.2191483"><ele>507.0</ele><time>2026-05-01T09:04:24.982Z</time></trkpt><trkpt lat="39.27327" lon="16.2192117"><ele>507.0</ele><time>2026-05-01T09:04:25.982Z</time></trkpt><trkpt lat="39.2734183" lon="16.219255"><ele>507.0</ele><time>2026-05-01T09:04:26.982Z</time></trkpt><trkpt lat="39.2735633" lon="16.2192817"><ele>507.0</ele><time>2026-05-01T09:04:27.983Z</time></trkpt><trkpt lat="39.27371" lon="16.2192883"><ele>507.0</ele><time>2026-05-01T09:04:28.982Z</time></trkpt><trkpt lat="39.273855" lon="16.2192867"><ele>507.0</ele><time>2026-05-01T09:04:29.982Z</time></trkpt><trkpt lat="39.2739983" lon="16.2192767"><ele>507.0</ele><time>2026-05-01T09:04:30.983Z</time></trkpt><trkpt lat="39.2741383" lon="16.21928"><ele>504.25</ele><time>2026-05-01T09:04:31.982Z</time></trkpt><trkpt lat="39.27428" lon="16.2192833"><ele>501.5</ele><time>2026-05-01T09:04:32.983Z</time></trkpt><trkpt lat="39.2744217" lon="16.219285"><ele>498.75</ele><time>2026-05-01T09:04:33.982Z</time></trkpt><trkpt lat="39.2745617" lon="16.21927"><ele>496.0</ele><time>2026-05-01T09:04:34.983Z</time></trkpt><trkpt lat="39.2747167" lon="16.21923"><ele>494.0</ele><time>2026-05-01T09:04:35.982Z</time></trkpt><trkpt lat="39.274855" lon="16.2191767"><ele>492.0</ele><time>2026-05-01T09:04:36.982Z</time></trkpt><trkpt lat="39.2749817" lon="16.2191517"><ele>490.0</ele><time>2026-05-01T09:04:37.982Z</time></trkpt><trkpt lat="39.2751067" lon="16.219175"><ele>488.0</ele><time>2026-05-01T09:04:38.983Z</time></trkpt><trkpt lat="39.2752233" lon="16.2192633"><ele>488.0</ele><time>2026-05-01T09:04:39.982Z</time></trkpt><trkpt lat="39.2753317" lon="16.2194"><ele>488.0</ele><time>2026-05-01T09:04:40.982Z</time></trkpt><trkpt lat="39.2754133" lon="16.2195617"><ele>488.0</ele><time>2026-05-01T09:04:41.983Z</time></trkpt><trkpt lat="39.27548" lon="16.21974"><ele>483.3333333333333</ele><time>2026-05-01T09:04:42.983Z</time></trkpt><trkpt lat="39.2755283" lon="16.2199217"><ele>478.66666666666663</ele><time>2026-05-01T09:04:43.982Z</time></trkpt><trkpt lat="39.2755767" lon="16.2201133"><ele>474.0</ele><time>2026-05-01T09:04:44.982Z</time></trkpt><trkpt lat="39.27563" lon="16.2202983"><ele>474.0</ele><time>2026-05-01T09:04:45.982Z</time></trkpt><trkpt lat="39.2756967" lon="16.22048"><ele>474.0</ele><time>2026-05-01T09:04:46.982Z</time></trkpt><trkpt lat="39.275785" lon="16.22065"><ele>474.0</ele><time>2026-05-01T09:04:47.982Z</time></trkpt><trkpt lat="39.27587" lon="16.2208217"><ele>477.0</ele><time>2026-05-01T09:04:48.982Z</time></trkpt><trkpt lat="39.27595" lon="16.220995"><ele>480.0</ele><time>2026-05-01T09:04:49.982Z</time></trkpt><trkpt lat="39.2760117" lon="16.2211733"><ele>483.0</ele><time>2026-05-01T09:04:50.983Z</time></trkpt><trkpt lat="39.276045" lon="16.2213567"><ele>483.0</ele><time>2026-05-01T09:04:51.982Z</time></trkpt><trkpt lat="39.2760567" lon="16.221545"><ele>483.0</ele><time>2026-05-01T09:04:52.982Z</time></trkpt><trkpt lat="39.2760517" lon="16.22174"><ele>483.0</ele><time>2026-05-01T09:04:53.982Z</time></trkpt><trkpt lat="39.2760483" lon="16.2219317"><ele>483.0</ele><time>2026-05-01T09:04:54.983Z</time></trkpt><trkpt lat="39.2760383" lon="16.2221"><ele>483.0</ele><time>2026-05-01T09:04:55.982Z</time></trkpt><trkpt lat="39.2760167" lon="16.22224"><ele>483.0</ele><time>2026-05-01T09:04:56.982Z</time></trkpt><trkpt lat="39.2759567" lon="16.2223533"><ele>483.0</ele><time>2026-05-01T09:04:57.983Z</time></trkpt><trkpt lat="39.27585" lon="16.222435"><ele>483.0</ele><time>2026-05-01T09:04:58.982Z</time></trkpt><trkpt lat="39.275715" lon="16.222475"><ele>483.0</ele><time>2026-05-01T09:04:59.983Z</time></trkpt><trkpt lat="39.275585" lon="16.2225267"><ele>483.0</ele><time>2026-05-01T09:05:00.982Z</time></trkpt><trkpt lat="39.2754533" lon="16.2225817"><ele>483.0</ele><time>2026-05-01T09:05:01.982Z</time></trkpt><trkpt lat="39.275315" lon="16.2226617"><ele>483.0</ele><time>2026-05-01T09:05:02.982Z</time></trkpt><trkpt lat="39.2751833" lon="16.2227583"><ele>483.0</ele><time>2026-05-01T09:05:03.982Z</time></trkpt><trkpt lat="39.27505" lon="16.2228483"><ele>483.0</ele><time>2026-05-01T09:05:04.982Z</time></trkpt><trkpt lat="39.27492" lon="16.2229433"><ele>483.0</ele><time>2026-05-01T09:05:05.983Z</time></trkpt><trkpt lat="39.2747967" lon="16.2230333"><ele>483.0</ele><time>2026-05-01T09:05:06.982Z</time></trkpt><trkpt lat="39.2746833" lon="16.22312"><ele>478.75</ele><time>2026-05-01T09:05:07.983Z</time></trkpt><trkpt lat="39.2745667" lon="16.2231917"><ele>474.5</ele><time>2026-05-01T09:05:08.982Z</time></trkpt><trkpt lat="39.2744567" lon="16.223265"><ele>470.25</ele><time>2026-05-01T09:05:09.983Z</time></trkpt><trkpt lat="39.2743517" lon="16.2233517"><ele>466.0</ele><time>2026-05-01T09:05:10.982Z</time></trkpt><trkpt lat="39.2742683" lon="16.2234333"><ele>466.0</ele><time>2026-05-01T09:05:11.983Z</time></trkpt><trkpt lat="39.2742083" lon="16.2235333"><ele>466.0</ele><time>2026-05-01T09:05:12.982Z</time></trkpt><trkpt lat="39.2741817" lon="16.223645"><ele>466.0</ele><time>2026-05-01T09:05:13.982Z</time></trkpt><trkpt lat="39.2742217" lon="16.22374"><ele>466.0</ele><time>2026-05-01T09:05:14.982Z</time></trkpt><trkpt lat="39.27431" lon="16.2238083"><ele>466.0</ele><time>2026-05-01T09:05:15.983Z</time></trkpt><trkpt lat="39.2744383" lon="16.22386"><ele>466.0</ele><time>2026-05-01T09:05:16.982Z</time></trkpt><trkpt lat="39.2745667" lon="16.22391"><ele>466.0</ele><time>2026-05-01T09:05:17.982Z</time></trkpt><trkpt lat="39.2747033" lon="16.22396"><ele>466.0</ele><time>2026-05-01T09:05:18.982Z</time></trkpt><trkpt lat="39.2748383" lon="16.2240167"><ele>466.0</ele><time>2026-05-01T09:05:19.983Z</time></trkpt><trkpt lat="39.2749783" lon="16.2240533"><ele>463.25</ele><time>2026-05-01T09:05:20.982Z</time></trkpt><trkpt lat="39.27511" lon="16.22408"><ele>460.5</ele><time>2026-05-01T09:05:21.982Z</time></trkpt><trkpt lat="39.27525" lon="16.2240933"><ele>457.75</ele><time>2026-05-01T09:05:22.983Z</time></trkpt><trkpt lat="39.2753817" lon="16.2240933"><ele>455.0</ele><time>2026-05-01T09:05:23.982Z</time></trkpt><trkpt lat="39.2755133" lon="16.2240983"><ele>452.5</ele><time>2026-05-01T09:05:24.983Z</time></trkpt><trkpt lat="39.2756433" lon="16.224135"><ele>450.0</ele><time>2026-05-01T09:05:25.983Z</time></trkpt><trkpt lat="39.2757867" lon="16.224205"><ele>447.5</ele><time>2026-05-01T09:05:26.982Z</time></trkpt><trkpt lat="39.2759333" lon="16.22429"><ele>445.0</ele><time>2026-05-01T09:05:27.983Z</time></trkpt><trkpt lat="39.276075" lon="16.224375"><ele>445.0</ele><time>2026-05-01T09:05:28.983Z</time></trkpt><trkpt lat="39.27621" lon="16.2244567"><ele>445.0</ele><time>2026-05-01T09:05:29.983Z</time></trkpt><trkpt lat="39.2763583" lon="16.22452"><ele>445.0</ele><time>2026-05-01T09:05:30.983Z</time></trkpt><trkpt lat="39.2764917" lon="16.22457"><ele>445.0</ele><time>2026-05-01T09:05:31.982Z</time></trkpt><trkpt lat="39.2766417" lon="16.224605"><ele>440.6666666666667</ele><time>2026-05-01T09:05:32.982Z</time></trkpt><trkpt lat="39.2767883" lon="16.2246117"><ele>436.33333333333337</ele><time>2026-05-01T09:05:33.982Z</time></trkpt><trkpt lat="39.2769517" lon="16.2245883"><ele>432.0</ele><time>2026-05-01T09:05:34.983Z</time></trkpt><trkpt lat="39.2770967" lon="16.2245933"><ele>432.0</ele><time>2026-05-01T09:05:35.982Z</time></trkpt><trkpt lat="39.2772417" lon="16.2246183"><ele>432.0</ele><time>2026-05-01T09:05:36.982Z</time></trkpt><trkpt lat="39.2773933" lon="16.2246633"><ele>432.0</ele><time>2026-05-01T09:05:37.982Z</time></trkpt><trkpt lat="39.277535" lon="16.2247233"><ele>432.75</ele><time>2026-05-01T09:05:38.983Z</time></trkpt><trkpt lat="39.2776767" lon="16.2248117"><ele>433.5</ele><time>2026-05-01T09:05:39.982Z</time></trkpt><trkpt lat="39.2778017" lon="16.22488"><ele>434.25</ele><time>2026-05-01T09:05:40.982Z</time></trkpt><trkpt lat="39.2779167" lon="16.2249183"><ele>435.0</ele><time>2026-05-01T09:05:41.982Z</time></trkpt><trkpt lat="39.2780483" lon="16.2249033"><ele>432.66666666666663</ele><time>2026-05-01T09:05:42.982Z</time></trkpt><trkpt lat="39.278195" lon="16.2248617"><ele>430.3333333333333</ele><time>2026-05-01T09:05:43.983Z</time></trkpt><trkpt lat="39.2783533" lon="16.22482"><ele>428.0</ele><time>2026-05-01T09:05:44.982Z</time></trkpt><trkpt lat="39.278505" lon="16.2247683"><ele>420.66666666666663</ele><time>2026-05-01T09:05:45.982Z</time></trkpt><trkpt lat="39.27867" lon="16.22472"><ele>413.33333333333337</ele><time>2026-05-01T09:05:46.982Z</time></trkpt><trkpt lat="39.2788233" lon="16.2246683"><ele>406.0</ele><time>2026-05-01T09:05:47.983Z</time></trkpt><trkpt lat="39.278975" lon="16.22462"><ele>404.33333333333337</ele><time>2026-05-01T09:05:48.983Z</time></trkpt><trkpt lat="39.27913" lon="16.2245633"><ele>402.66666666666663</ele><time>2026-05-01T09:05:49.982Z</time></trkpt><trkpt lat="39.2792817" lon="16.2244867"><ele>401.0</ele><time>2026-05-01T09:05:50.983Z</time></trkpt><trkpt lat="39.2794183" lon="16.2244033"><ele>401.0</ele><time>2026-05-01T09:05:51.982Z</time></trkpt><trkpt lat="39.279555" lon="16.22434"><ele>401.0</ele><time>2026-05-01T09:05:52.982Z</time></trkpt><trkpt lat="39.279695" lon="16.2243017"><ele>401.0</ele><time>2026-05-01T09:05:53.983Z</time></trkpt><trkpt lat="39.279835" lon="16.2243017"><ele>401.0</ele><time>2026-05-01T09:05:54.983Z</time></trkpt><trkpt lat="39.2799767" lon="16.2243433"><ele>400.0</ele><time>2026-05-01T09:05:55.982Z</time></trkpt><trkpt lat="39.2801067" lon="16.2244167"><ele>399.0</ele><time>2026-05-01T09:05:56.983Z</time></trkpt><trkpt lat="39.2802233" lon="16.224505"><ele>398.0</ele><time>2026-05-01T09:05:57.983Z</time></trkpt><trkpt lat="39.280325" lon="16.2246017"><ele>397.0</ele><time>2026-05-01T09:05:58.982Z</time></trkpt><trkpt lat="39.2804067" lon="16.2247083"><ele>402.0</ele><time>2026-05-01T09:05:59.983Z</time></trkpt><trkpt lat="39.280465" lon="16.2248317"><ele>407.0</ele><time>2026-05-01T09:06:00.982Z</time></trkpt><trkpt lat="39.2805" lon="16.2249867"><ele>412.0</ele><time>2026-05-01T09:06:01.982Z</time></trkpt><trkpt lat="39.2805167" lon="16.22515"><ele>417.0</ele><time>2026-05-01T09:06:02.982Z</time></trkpt><trkpt lat="39.2805567" lon="16.2252983"><ele>414.5</ele><time>2026-05-01T09:06:03.982Z</time></trkpt><trkpt lat="39.2806467" lon="16.2254233"><ele>412.0</ele><time>2026-05-01T09:06:04.983Z</time></trkpt><trkpt lat="39.2807533" lon="16.2255283"><ele>409.5</ele><time>2026-05-01T09:06:05.982Z</time></trkpt><trkpt lat="39.2808717" lon="16.2256017"><ele>407.0</ele><time>2026-05-01T09:06:06.982Z</time></trkpt><trkpt lat="39.28099" lon="16.22567"><ele>407.0</ele><time>2026-05-01T09:06:07.982Z</time></trkpt><trkpt lat="39.2810917" lon="16.2257433"><ele>407.0</ele><time>2026-05-01T09:06:08.983Z</time></trkpt><trkpt lat="39.2812" lon="16.2258217"><ele>407.0</ele><time>2026-05-01T09:06:09.982Z</time></trkpt><trkpt lat="39.28131" lon="16.2259333"><ele>407.0</ele><time>2026-05-01T09:06:10.982Z</time></trkpt><trkpt lat="39.2814267" lon="16.22605"><ele>403.25</ele><time>2026-05-01T09:06:11.982Z</time></trkpt><trkpt lat="39.281535" lon="16.2261733"><ele>399.5</ele><time>2026-05-01T09:06:12.982Z</time></trkpt><trkpt lat="39.2816383" lon="16.2262917"><ele>395.75</ele><time>2026-05-01T09:06:13.982Z</time></trkpt><trkpt lat="39.2817517" lon="16.226385"><ele>392.0</ele><time>2026-05-01T09:06:14.982Z</time></trkpt><trkpt lat="39.2818833" lon="16.2264583"><ele>392.75</ele><time>2026-05-01T09:06:15.982Z</time></trkpt><trkpt lat="39.282025" lon="16.226495"><ele>393.5</ele><time>2026-05-01T09:06:16.983Z</time></trkpt><trkpt lat="39.28217" lon="16.226535"><ele>394.25</ele><time>2026-05-01T09:06:17.983Z</time></trkpt><trkpt lat="39.2823233" lon="16.2265617"><ele>395.0</ele><time>2026-05-01T09:06:18.983Z</time></trkpt><trkpt lat="39.2824683" lon="16.2265883"><ele>393.0</ele><time>2026-05-01T09:06:19.983Z</time></trkpt><trkpt lat="39.2826217" lon="16.2266233"><ele>391.0</ele><time>2026-05-01T09:06:20.982Z</time></trkpt><trkpt lat="39.282775" lon="16.226655"><ele>389.0</ele><time>2026-05-01T09:06:21.982Z</time></trkpt><trkpt lat="39.28293" lon="16.2266867"><ele>389.0</ele><time>2026-05-01T09:06:22.982Z</time></trkpt><trkpt lat="39.2830733" lon="16.22672"><ele>389.0</ele><time>2026-05-01T09:06:23.982Z</time></trkpt><trkpt lat="39.28322" lon="16.2267417"><ele>389.0</ele><time>2026-05-01T09:06:24.982Z</time></trkpt><trkpt lat="39.2833467" lon="16.2267617"><ele>389.0</ele><time>2026-05-01T09:06:25.982Z</time></trkpt><trkpt lat="39.28347" lon="16.2267917"><ele>388.2</ele><time>2026-05-01T09:06:26.982Z</time></trkpt><trkpt lat="39.2835733" lon="16.2268417"><ele>387.4</ele><time>2026-05-01T09:06:27.982Z</time></trkpt><trkpt lat="39.2836667" lon="16.226935"><ele>386.6</ele><time>2026-05-01T09:06:28.982Z</time></trkpt><trkpt lat="39.2837367" lon="16.2270417"><ele>385.8</ele><time>2026-05-01T09:06:29.982Z</time></trkpt><trkpt lat="39.28378" lon="16.2271533"><ele>385.0</ele><time>2026-05-01T09:06:30.982Z</time></trkpt><trkpt lat="39.2837867" lon="16.2272633"><ele>383.6</ele><time>2026-05-01T09:06:31.983Z</time></trkpt><trkpt lat="39.2837683" lon="16.2273617"><ele>382.2</ele><time>2026-05-01T09:06:32.982Z</time></trkpt><trkpt lat="39.2837117" lon="16.227435"><ele>380.79999999999995</ele><time>2026-05-01T09:06:33.983Z</time></trkpt><trkpt lat="39.283595" lon="16.227475"><ele>379.4</ele><time>2026-05-01T09:06:34.983Z</time></trkpt><trkpt lat="39.28345" lon="16.2274917"><ele>378.0</ele><time>2026-05-01T09:06:35.983Z</time></trkpt><trkpt lat="39.283315" lon="16.2275283"><ele>378.0</ele><time>2026-05-01T09:06:36.983Z</time></trkpt><trkpt lat="39.28319" lon="16.2275467"><ele>378.0</ele><time>2026-05-01T09:06:37.982Z</time></trkpt><trkpt lat="39.283065" lon="16.2275333"><ele>378.0</ele><time>2026-05-01T09:06:38.983Z</time></trkpt><trkpt lat="39.2829483" lon="16.227495"><ele>378.0</ele><time>2026-05-01T09:06:39.982Z</time></trkpt><trkpt lat="39.2828383" lon="16.2274833"><ele>378.79999999999995</ele><time>2026-05-01T09:06:40.982Z</time></trkpt><trkpt lat="39.28274" lon="16.2275117"><ele>379.6</ele><time>2026-05-01T09:06:41.983Z</time></trkpt><trkpt lat="39.2826517" lon="16.2275817"><ele>380.4</ele><time>2026-05-01T09:06:42.982Z</time></trkpt><trkpt lat="39.282575" lon="16.2276767"><ele>381.20000000000005</ele><time>2026-05-01T09:06:43.982Z</time></trkpt><trkpt lat="39.282505" lon="16.2277817"><ele>382.0</ele><time>2026-05-01T09:06:44.982Z</time></trkpt><trkpt lat="39.2824333" lon="16.2278883"><ele>382.0</ele><time>2026-05-01T09:06:45.983Z</time></trkpt><trkpt lat="39.2823667" lon="16.227995"><ele>382.0</ele><time>2026-05-01T09:06:46.983Z</time></trkpt><trkpt lat="39.2822817" lon="16.228075"><ele>382.0</ele><time>2026-05-01T09:06:47.982Z</time></trkpt><trkpt lat="39.282185" lon="16.228105"><ele>382.0</ele><time>2026-05-01T09:06:48.983Z</time></trkpt><trkpt lat="39.28208" lon="16.2281"><ele>382.0</ele><time>2026-05-01T09:06:49.982Z</time></trkpt><trkpt lat="39.281965" lon="16.22805"><ele>382.0</ele><time>2026-05-01T09:06:50.982Z</time></trkpt><trkpt lat="39.2818383" lon="16.2279933"><ele>382.0</ele><time>2026-05-01T09:06:51.982Z</time></trkpt><trkpt lat="39.2817117" lon="16.2279483"><ele>382.0</ele><time>2026-05-01T09:06:52.982Z</time></trkpt><trkpt lat="39.2815717" lon="16.2279333"><ele>382.0</ele><time>2026-05-01T09:06:53.982Z</time></trkpt><trkpt lat="39.281435" lon="16.2279283"><ele>381.25</ele><time>2026-05-01T09:06:54.982Z</time></trkpt><trkpt lat="39.2812917" lon="16.2279317"><ele>380.5</ele><time>2026-05-01T09:06:55.982Z</time></trkpt><trkpt lat="39.281145" lon="16.2279433"><ele>379.75</ele><time>2026-05-01T09:06:56.982Z</time></trkpt><trkpt lat="39.281" lon="16.2279667"><ele>379.0</ele><time>2026-05-01T09:06:57.982Z</time></trkpt><trkpt lat="39.28085" lon="16.2279983"><ele>379.0</ele><time>2026-05-01T09:06:58.983Z</time></trkpt><trkpt lat="39.2807017" lon="16.2280233"><ele>379.0</ele><time>2026-05-01T09:06:59.982Z</time></trkpt><trkpt lat="39.28055" lon="16.2280583"><ele>379.0</ele><time>2026-05-01T09:07:00.983Z</time></trkpt><trkpt lat="39.2804083" lon="16.2280933"><ele>379.0</ele><time>2026-05-01T09:07:01.983Z</time></trkpt><trkpt lat="39.2802733" lon="16.2281467"><ele>373.25</ele><time>2026-05-01T09:07:02.982Z</time></trkpt><trkpt lat="39.280145" lon="16.22819"><ele>367.5</ele><time>2026-05-01T09:07:03.983Z</time></trkpt><trkpt lat="39.2800183" lon="16.22823"><ele>361.75</ele><time>2026-05-01T09:07:04.982Z</time></trkpt><trkpt lat="39.27989" lon="16.2282583"><ele>356.0</ele><time>2026-05-01T09:07:05.983Z</time></trkpt><trkpt lat="39.2797683" lon="16.2282817"><ele>357.75</ele><time>2026-05-01T09:07:06.982Z</time></trkpt><trkpt lat="39.2796517" lon="16.228295"><ele>359.5</ele><time>2026-05-01T09:07:07.983Z</time></trkpt><trkpt lat="39.27953" lon="16.2283"><ele>361.25</ele><time>2026-05-01T09:07:08.983Z</time></trkpt><trkpt lat="39.2794183" lon="16.2283017"><ele>363.0</ele><time>2026-05-01T09:07:09.982Z</time></trkpt><trkpt lat="39.2793117" lon="16.2283167"><ele>363.0</ele><time>2026-05-01T09:07:10.982Z</time></trkpt><trkpt lat="39.2792117" lon="16.2283467"><ele>363.0</ele><time>2026-05-01T09:07:11.982Z</time></trkpt><trkpt lat="39.2791267" lon="16.2283933"><ele>363.0</ele><time>2026-05-01T09:07:12.983Z</time></trkpt><trkpt lat="39.2790567" lon="16.22847"><ele>363.0</ele><time>2026-05-01T09:07:13.982Z</time></trkpt><trkpt lat="39.2790167" lon="16.2285633"><ele>363.0</ele><time>2026-05-01T09:07:14.983Z</time></trkpt><trkpt lat="39.279" lon="16.2286767"><ele>363.0</ele><time>2026-05-01T09:07:15.982Z</time></trkpt><trkpt lat="39.2790117" lon="16.228805"><ele>363.0</ele><time>2026-05-01T09:07:16.983Z</time></trkpt><trkpt lat="39.2790367" lon="16.2289383"><ele>363.0</ele><time>2026-05-01T09:07:17.982Z</time></trkpt><trkpt lat="39.27906" lon="16.229075"><ele>363.0</ele><time>2026-05-01T09:07:18.982Z</time></trkpt><trkpt lat="39.2790817" lon="16.2292083"><ele>363.0</ele><time>2026-05-01T09:07:19.982Z</time></trkpt><trkpt lat="39.2791017" lon="16.2293383"><ele>361.0</ele><time>2026-05-01T09:07:20.982Z</time></trkpt><trkpt lat="39.2791083" lon="16.2294717"><ele>359.0</ele><time>2026-05-01T09:07:21.983Z</time></trkpt><trkpt lat="39.2791033" lon="16.2295983"><ele>357.0</ele><time>2026-05-01T09:07:22.982Z</time></trkpt><trkpt lat="39.27909" lon="16.2297283"><ele>355.0</ele><time>2026-05-01T09:07:23.982Z</time></trkpt><trkpt lat="39.2790533" lon="16.2298533"><ele>353.0</ele><time>2026-05-01T09:07:24.983Z</time></trkpt><trkpt lat="39.2789983" lon="16.2299783"><ele>354.5</ele><time>2026-05-01T09:07:25.982Z</time></trkpt><trkpt lat="39.2789317" lon="16.2300917"><ele>356.0</ele><time>2026-05-01T09:07:26.982Z</time></trkpt><trkpt lat="39.2788433" lon="16.2302"><ele>357.5</ele><time>2026-05-01T09:07:27.982Z</time></trkpt><trkpt lat="39.2787533" lon="16.2303083"><ele>359.0</ele><time>2026-05-01T09:07:28.982Z</time></trkpt><trkpt lat="39.2786617" lon="16.2303917"><ele>359.0</ele><time>2026-05-01T09:07:29.982Z</time></trkpt><trkpt lat="39.2785667" lon="16.2304617"><ele>359.0</ele><time>2026-05-01T09:07:30.982Z</time></trkpt><trkpt lat="39.2784717" lon="16.2305167"><ele>359.0</ele><time>2026-05-01T09:07:31.982Z</time></trkpt><trkpt lat="39.2783717" lon="16.2305433"><ele>359.0</ele><time>2026-05-01T09:07:32.982Z</time></trkpt><trkpt lat="39.2782767" lon="16.2305667"><ele>359.0</ele><time>2026-05-01T09:07:33.982Z</time></trkpt><trkpt lat="39.2781983" lon="16.23059"><ele>355.1666666666667</ele><time>2026-05-01T09:07:34.982Z</time></trkpt><trkpt lat="39.2781633" lon="16.2306667"><ele>351.33333333333337</ele><time>2026-05-01T09:07:35.982Z</time></trkpt><trkpt lat="39.2781683" lon="16.2307483"><ele>347.5</ele><time>2026-05-01T09:07:36.982Z</time></trkpt><trkpt lat="39.278215" lon="16.2308033"><ele>343.6666666666667</ele><time>2026-05-01T09:07:37.982Z</time></trkpt><trkpt lat="39.27832" lon="16.2308083"><ele>339.8333333333333</ele><time>2026-05-01T09:07:38.982Z</time></trkpt><trkpt lat="39.2784433" lon="16.2307883"><ele>336.0</ele><time>2026-05-01T09:07:39.982Z</time></trkpt><trkpt lat="39.27856" lon="16.2307733"><ele>336.0</ele><time>2026-05-01T09:07:40.983Z</time></trkpt><trkpt lat="39.2786733" lon="16.2307617"><ele>336.0</ele><time>2026-05-01T09:07:41.983Z</time></trkpt><trkpt lat="39.278785" lon="16.2307517"><ele>336.0</ele><time>2026-05-01T09:07:42.982Z</time></trkpt><trkpt lat="39.2789017" lon="16.23074"><ele>336.0</ele><time>2026-05-01T09:07:43.982Z</time></trkpt><trkpt lat="39.279015" lon="16.230715"><ele>334.0</ele><time>2026-05-01T09:07:44.983Z</time></trkpt><trkpt lat="39.279125" lon="16.2306783"><ele>332.0</ele><time>2026-05-01T09:07:45.982Z</time></trkpt><trkpt lat="39.279235" lon="16.2306183"><ele>330.0</ele><time>2026-05-01T09:07:46.982Z</time></trkpt><trkpt lat="39.2793333" lon="16.2305317"><ele>328.0</ele><time>2026-05-01T09:07:47.982Z</time></trkpt><trkpt lat="39.2794267" lon="16.2304317"><ele>332.5</ele><time>2026-05-01T09:07:48.982Z</time></trkpt><trkpt lat="39.2795067" lon="16.230325"><ele>337.0</ele><time>2026-05-01T09:07:49.982Z</time></trkpt><trkpt lat="39.2795633" lon="16.2301883"><ele>341.5</ele><time>2026-05-01T09:07:50.982Z</time></trkpt><trkpt lat="39.279595" lon="16.230045"><ele>346.0</ele><time>2026-05-01T09:07:51.983Z</time></trkpt><trkpt lat="39.2795867" lon="16.2298967"><ele>347.4</ele><time>2026-05-01T09:07:52.982Z</time></trkpt><trkpt lat="39.2795783" lon="16.229755"><ele>348.8</ele><time>2026-05-01T09:07:53.982Z</time></trkpt><trkpt lat="39.2795883" lon="16.2296267"><ele>350.2</ele><time>2026-05-01T09:07:54.983Z</time></trkpt><trkpt lat="39.2796383" lon="16.229515"><ele>351.59999999999997</ele><time>2026-05-01T09:07:55.983Z</time></trkpt><trkpt lat="39.2797083" lon="16.2294517"><ele>353.0</ele><time>2026-05-01T09:07:56.982Z</time></trkpt><trkpt lat="39.279805" lon="16.229415"><ele>349.0</ele><time>2026-05-01T09:07:57.982Z</time></trkpt><trkpt lat="39.2799217" lon="16.229415"><ele>345.0</ele><time>2026-05-01T09:07:58.983Z</time></trkpt><trkpt lat="39.28006" lon="16.2294567"><ele>341.0</ele><time>2026-05-01T09:07:59.982Z</time></trkpt><trkpt lat="39.2802133" lon="16.2295183"><ele>337.0</ele><time>2026-05-01T09:08:00.983Z</time></trkpt><trkpt lat="39.2803583" lon="16.2295617"><ele>337.0</ele><time>2026-05-01T09:08:01.982Z</time></trkpt><trkpt lat="39.280505" lon="16.2295967"><ele>337.0</ele><time>2026-05-01T09:08:02.982Z</time></trkpt><trkpt lat="39.2806333" lon="16.2296217"><ele>337.0</ele><time>2026-05-01T09:08:03.983Z</time></trkpt><trkpt lat="39.2807433" lon="16.22966"><ele>337.0</ele><time>2026-05-01T09:08:04.982Z</time></trkpt><trkpt lat="39.280875" lon="16.2297183"><ele>336.75</ele><time>2026-05-01T09:08:05.982Z</time></trkpt><trkpt lat="39.2810017" lon="16.229805"><ele>336.5</ele><time>2026-05-01T09:08:06.982Z</time></trkpt><trkpt lat="39.28113" lon="16.229895"><ele>336.25</ele><time>2026-05-01T09:08:07.982Z</time></trkpt><trkpt lat="39.2812583" lon="16.2300033"><ele>336.0</ele><time>2026-05-01T09:08:08.983Z</time></trkpt><trkpt lat="39.281365" lon="16.2301233"><ele>333.0</ele><time>2026-05-01T09:08:09.982Z</time></trkpt><trkpt lat="39.2814717" lon="16.2302467"><ele>330.0</ele><time>2026-05-01T09:08:10.982Z</time></trkpt><trkpt lat="39.2815783" lon="16.23036"><ele>327.0</ele><time>2026-05-01T09:08:11.982Z</time></trkpt><trkpt lat="39.281685" lon="16.2304767"><ele>324.0</ele><time>2026-05-01T09:08:12.983Z</time></trkpt><trkpt lat="39.281805" lon="16.2306"><ele>318.6666666666667</ele><time>2026-05-01T09:08:13.982Z</time></trkpt><trkpt lat="39.28193" lon="16.23071"><ele>313.33333333333337</ele><time>2026-05-01T09:08:14.983Z</time></trkpt><trkpt lat="39.282075" lon="16.230795"><ele>308.0</ele><time>2026-05-01T09:08:15.983Z</time></trkpt><trkpt lat="39.2822183" lon="16.2308967"><ele>312.33333333333337</ele><time>2026-05-01T09:08:16.982Z</time></trkpt><trkpt lat="39.28237" lon="16.2309967"><ele>316.6666666666667</ele><time>2026-05-01T09:08:17.982Z</time></trkpt><trkpt lat="39.28251" lon="16.2311083"><ele>321.0</ele><time>2026-05-01T09:08:18.983Z</time></trkpt><trkpt lat="39.2826317" lon="16.2312117"><ele>321.0</ele><time>2026-05-01T09:08:19.983Z</time></trkpt><trkpt lat="39.28276" lon="16.231285"><ele>321.0</ele><time>2026-05-01T09:08:20.983Z</time></trkpt><trkpt lat="39.28289" lon="16.2313533"><ele>321.0</ele><time>2026-05-01T09:08:21.982Z</time></trkpt><trkpt lat="39.2830133" lon="16.2314167"><ele>321.0</ele><time>2026-05-01T09:08:22.982Z</time></trkpt><trkpt lat="39.2831267" lon="16.231485"><ele>318.5</ele><time>2026-05-01T09:08:23.983Z</time></trkpt><trkpt lat="39.28324" lon="16.23157"><ele>316.0</ele><time>2026-05-01T09:08:24.983Z</time></trkpt><trkpt lat="39.2833333" lon="16.23168"><ele>313.5</ele><time>2026-05-01T09:08:25.982Z</time></trkpt><trkpt lat="39.2833917" lon="16.2318117"><ele>311.0</ele><time>2026-05-01T09:08:26.983Z</time></trkpt><trkpt lat="39.283445" lon="16.2319783"><ele>311.0</ele><time>2026-05-01T09:08:27.982Z</time></trkpt><trkpt lat="39.2835017" lon="16.2321433"><ele>311.0</ele><time>2026-05-01T09:08:28.983Z</time></trkpt><trkpt lat="39.2835633" lon="16.232305"><ele>311.0</ele><time>2026-05-01T09:08:29.983Z</time></trkpt><trkpt lat="39.2836417" lon="16.2324733"><ele>311.0</ele><time>2026-05-01T09:08:30.982Z</time></trkpt><trkpt lat="39.2837233" lon="16.2326317"><ele>310.75</ele><time>2026-05-01T09:08:31.982Z</time></trkpt><trkpt lat="39.2838183" lon="16.232785"><ele>310.5</ele><time>2026-05-01T09:08:32.982Z</time></trkpt><trkpt lat="39.2839083" lon="16.232925"><ele>310.25</ele><time>2026-05-01T09:08:33.982Z</time></trkpt><trkpt lat="39.2840017" lon="16.2330633"><ele>310.0</ele><time>2026-05-01T09:08:34.982Z</time></trkpt><trkpt lat="39.2840933" lon="16.2331967"><ele>306.5</ele><time>2026-05-01T09:08:35.982Z</time></trkpt><trkpt lat="39.2842" lon="16.2333217"><ele>303.0</ele><time>2026-05-01T09:08:36.982Z</time></trkpt><trkpt lat="39.2843117" lon="16.2334167"><ele>299.5</ele><time>2026-05-01T09:08:37.982Z</time></trkpt><trkpt lat="39.284435" lon="16.2334933"><ele>296.0</ele><time>2026-05-01T09:08:38.982Z</time></trkpt><trkpt lat="39.284565" lon="16.2335567"><ele>296.0</ele><time>2026-05-01T09:08:39.982Z</time></trkpt><trkpt lat="39.2847017" lon="16.2336317"><ele>296.0</ele><time>2026-05-01T09:08:40.982Z</time></trkpt><trkpt lat="39.2848317" lon="16.2337217"><ele>296.0</ele><time>2026-05-01T09:08:41.982Z</time></trkpt><trkpt lat="39.2849417" lon="16.2338483"><ele>296.0</ele><time>2026-05-01T09:08:42.982Z</time></trkpt><trkpt lat="39.28504" lon="16.233995"><ele>294.0</ele><time>2026-05-01T09:08:43.983Z</time></trkpt><trkpt lat="39.2851433" lon="16.2341333"><ele>292.0</ele><time>2026-05-01T09:08:44.982Z</time></trkpt><trkpt lat="39.28526" lon="16.2342633"><ele>290.0</ele><time>2026-05-01T09:08:45.982Z</time></trkpt><trkpt lat="39.2853833" lon="16.234375"><ele>290.0</ele><time>2026-05-01T09:08:46.983Z</time></trkpt><trkpt lat="39.2855183" lon="16.234475"><ele>290.0</ele><time>2026-05-01T09:08:47.983Z</time></trkpt><trkpt lat="39.2856567" lon="16.23457"><ele>290.0</ele><time>2026-05-01T09:08:48.983Z</time></trkpt><trkpt lat="39.2857933" lon="16.2346533"><ele>290.75</ele><time>2026-05-01T09:08:49.982Z</time></trkpt><trkpt lat="39.2859333" lon="16.2347217"><ele>291.5</ele><time>2026-05-01T09:08:50.982Z</time></trkpt><trkpt lat="39.2860617" lon="16.234775"><ele>292.25</ele><time>2026-05-01T09:08:51.982Z</time></trkpt><trkpt lat="39.28619" lon="16.234795"><ele>293.0</ele><time>2026-05-01T09:08:52.982Z</time></trkpt><trkpt lat="39.2863167" lon="16.2347683"><ele>293.0</ele><time>2026-05-01T09:08:53.983Z</time></trkpt><trkpt lat="39.286425" lon="16.234675"><ele>293.0</ele><time>2026-05-01T09:08:54.983Z</time></trkpt><trkpt lat="39.2864967" lon="16.2345383"><ele>293.0</ele><time>2026-05-01T09:08:55.983Z</time></trkpt><trkpt lat="39.2865433" lon="16.2343933"><ele>293.0</ele><time>2026-05-01T09:08:56.982Z</time></trkpt><trkpt lat="39.2866" lon="16.2342683"><ele>290.2</ele><time>2026-05-01T09:08:57.983Z</time></trkpt><trkpt lat="39.2866717" lon="16.2341833"><ele>287.4</ele><time>2026-05-01T09:08:58.982Z</time></trkpt><trkpt lat="39.286745" lon="16.2341467"><ele>284.59999999999997</ele><time>2026-05-01T09:08:59.983Z</time></trkpt><trkpt lat="39.2868133" lon="16.23414"><ele>281.8</ele><time>2026-05-01T09:09:00.983Z</time></trkpt><trkpt lat="39.2869183" lon="16.2342483"><ele>279.0</ele><time>2026-05-01T09:09:02.983Z</time></trkpt><trkpt lat="39.2869683" lon="16.2343517"><ele>279.0</ele><time>2026-05-01T09:09:03.982Z</time></trkpt><trkpt lat="39.287005" lon="16.2344817"><ele>279.0</ele><time>2026-05-01T09:09:04.982Z</time></trkpt><trkpt lat="39.2870367" lon="16.2346167"><ele>279.0</ele><time>2026-05-01T09:09:05.982Z</time></trkpt><trkpt lat="39.287065" lon="16.234745"><ele>279.0</ele><time>2026-05-01T09:09:06.983Z</time></trkpt><trkpt lat="39.2871017" lon="16.2348817"><ele>279.0</ele><time>2026-05-01T09:09:07.983Z</time></trkpt><trkpt lat="39.287145" lon="16.2350233"><ele>277.25</ele><time>2026-05-01T09:09:08.983Z</time></trkpt><trkpt lat="39.2872017" lon="16.2351483"><ele>275.5</ele><time>2026-05-01T09:09:09.982Z</time></trkpt><trkpt lat="39.2872767" lon="16.2352683"><ele>273.75</ele><time>2026-05-01T09:09:10.982Z</time></trkpt><trkpt lat="39.28736" lon="16.235385"><ele>272.0</ele><time>2026-05-01T09:09:11.982Z</time></trkpt><trkpt lat="39.28746" lon="16.2354967"><ele>271.25</ele><time>2026-05-01T09:09:12.982Z</time></trkpt><trkpt lat="39.2875583" lon="16.2355983"><ele>270.5</ele><time>2026-05-01T09:09:13.982Z</time></trkpt><trkpt lat="39.287665" lon="16.23569"><ele>269.75</ele><time>2026-05-01T09:09:14.983Z</time></trkpt><trkpt lat="39.2877783" lon="16.2357767"><ele>269.0</ele><time>2026-05-01T09:09:15.983Z</time></trkpt><trkpt lat="39.2878867" lon="16.2358717"><ele>269.0</ele><time>2026-05-01T09:09:16.982Z</time></trkpt><trkpt lat="39.2879867" lon="16.2359633"><ele>269.0</ele><time>2026-05-01T09:09:17.983Z</time></trkpt><trkpt lat="39.288075" lon="16.2360617"><ele>269.0</ele><time>2026-05-01T09:09:18.982Z</time></trkpt><trkpt lat="39.28815" lon="16.236165"><ele>269.0</ele><time>2026-05-01T09:09:19.982Z</time></trkpt><trkpt lat="39.2882083" lon="16.23627"><ele>269.0</ele><time>2026-05-01T09:09:20.982Z</time></trkpt><trkpt lat="39.288245" lon="16.2363967"><ele>271.59999999999997</ele><time>2026-05-01T09:09:21.983Z</time></trkpt><trkpt lat="39.2882733" lon="16.2365317"><ele>274.2</ele><time>2026-05-01T09:09:22.982Z</time></trkpt><trkpt lat="39.2882883" lon="16.23667"><ele>276.79999999999995</ele><time>2026-05-01T09:09:23.982Z</time></trkpt><trkpt lat="39.2882933" lon="16.2368033"><ele>279.4</ele><time>2026-05-01T09:09:24.983Z</time></trkpt><trkpt lat="39.2882783" lon="16.23694"><ele>282.0</ele><time>2026-05-01T09:09:25.983Z</time></trkpt><trkpt lat="39.288265" lon="16.2370617"><ele>282.0</ele><time>2026-05-01T09:09:26.983Z</time></trkpt><trkpt lat="39.288275" lon="16.23718"><ele>282.0</ele><time>2026-05-01T09:09:27.982Z</time></trkpt><trkpt lat="39.2883133" lon="16.2373117"><ele>282.0</ele><time>2026-05-01T09:09:28.982Z</time></trkpt><trkpt lat="39.28837" lon="16.2374467"><ele>282.0</ele><time>2026-05-01T09:09:29.983Z</time></trkpt><trkpt lat="39.2884317" lon="16.2375833"><ele>282.0</ele><time>2026-05-01T09:09:30.983Z</time></trkpt><trkpt lat="39.288505" lon="16.2377267"><ele>280.25</ele><time>2026-05-01T09:09:31.982Z</time></trkpt><trkpt lat="39.2885517" lon="16.237875"><ele>278.5</ele><time>2026-05-01T09:09:32.982Z</time></trkpt><trkpt lat="39.2885767" lon="16.2380383"><ele>276.75</ele><time>2026-05-01T09:09:33.982Z</time></trkpt><trkpt lat="39.2885683" lon="16.2381917"><ele>275.0</ele><time>2026-05-01T09:09:34.982Z</time></trkpt><trkpt lat="39.2885717" lon="16.2383517"><ele>274.0</ele><time>2026-05-01T09:09:35.983Z</time></trkpt><trkpt lat="39.288575" lon="16.238505"><ele>273.0</ele><time>2026-05-01T09:09:36.982Z</time></trkpt><trkpt lat="39.2885967" lon="16.2386567"><ele>272.0</ele><time>2026-05-01T09:09:37.982Z</time></trkpt><trkpt lat="39.2886217" lon="16.238815"><ele>271.0</ele><time>2026-05-01T09:09:38.982Z</time></trkpt><trkpt lat="39.2886467" lon="16.2389667"><ele>271.0</ele><time>2026-05-01T09:09:39.982Z</time></trkpt><trkpt lat="39.2886767" lon="16.239125"><ele>271.0</ele><time>2026-05-01T09:09:40.983Z</time></trkpt><trkpt lat="39.28871" lon="16.2392833"><ele>271.0</ele><time>2026-05-01T09:09:41.982Z</time></trkpt><trkpt lat="39.2887417" lon="16.2394367"><ele>271.0</ele><time>2026-05-01T09:09:42.982Z</time></trkpt><trkpt lat="39.288775" lon="16.2395883"><ele>271.0</ele><time>2026-05-01T09:09:43.982Z</time></trkpt><trkpt lat="39.2888083" lon="16.2397367"><ele>271.0</ele><time>2026-05-01T09:09:44.983Z</time></trkpt><trkpt lat="39.28885" lon="16.239875"><ele>271.0</ele><time>2026-05-01T09:09:45.982Z</time></trkpt><trkpt lat="39.2888633" lon="16.2400283"><ele>271.0</ele><time>2026-05-01T09:09:46.982Z</time></trkpt><trkpt lat="39.2888917" lon="16.2401817"><ele>270.40000000000003</ele><time>2026-05-01T09:09:47.982Z</time></trkpt><trkpt lat="39.2889017" lon="16.2403333"><ele>269.8</ele><time>2026-05-01T09:09:48.983Z</time></trkpt><trkpt lat="39.2889033" lon="16.240475"><ele>269.20000000000005</ele><time>2026-05-01T09:09:49.982Z</time></trkpt><trkpt lat="39.28888" lon="16.2406083"><ele>268.6</ele><time>2026-05-01T09:09:50.983Z</time></trkpt><trkpt lat="39.288845" lon="16.2407333"><ele>268.0</ele><time>2026-05-01T09:09:51.982Z</time></trkpt><trkpt lat="39.2888167" lon="16.2408617"><ele>266.8</ele><time>2026-05-01T09:09:52.982Z</time></trkpt><trkpt lat="39.2888033" lon="16.240995"><ele>265.6</ele><time>2026-05-01T09:09:53.982Z</time></trkpt><trkpt lat="39.288815" lon="16.2411233"><ele>264.4</ele><time>2026-05-01T09:09:54.982Z</time></trkpt><trkpt lat="39.2888467" lon="16.24124"><ele>263.2</ele><time>2026-05-01T09:09:55.982Z</time></trkpt><trkpt lat="39.288885" lon="16.24134"><ele>262.0</ele><time>2026-05-01T09:09:56.983Z</time></trkpt><trkpt lat="39.2889267" lon="16.24143"><ele>266.4</ele><time>2026-05-01T09:09:57.983Z</time></trkpt><trkpt lat="39.2889617" lon="16.2415233"><ele>270.79999999999995</ele><time>2026-05-01T09:09:58.983Z</time></trkpt><trkpt lat="39.2890117" lon="16.2416233"><ele>275.2</ele><time>2026-05-01T09:09:59.983Z</time></trkpt><trkpt lat="39.28906" lon="16.2417417"><ele>279.59999999999997</ele><time>2026-05-01T09:10:00.982Z</time></trkpt><trkpt lat="39.2891083" lon="16.2418767"><ele>284.0</ele><time>2026-05-01T09:10:01.982Z</time></trkpt><trkpt lat="39.2891633" lon="16.24202"><ele>284.0</ele><time>2026-05-01T09:10:02.982Z</time></trkpt><trkpt lat="39.28922" lon="16.2421717"><ele>284.0</ele><time>2026-05-01T09:10:03.983Z</time></trkpt><trkpt lat="39.2892667" lon="16.2423233"><ele>284.0</ele><time>2026-05-01T09:10:04.983Z</time></trkpt><trkpt lat="39.2893" lon="16.2424683"><ele>284.0</ele><time>2026-05-01T09:10:05.983Z</time></trkpt><trkpt lat="39.2893267" lon="16.242615"><ele>281.59999999999997</ele><time>2026-05-01T09:10:06.983Z</time></trkpt><trkpt lat="39.2893533" lon="16.2427567"><ele>279.2</ele><time>2026-05-01T09:10:07.982Z</time></trkpt><trkpt lat="39.2894067" lon="16.242865"><ele>276.79999999999995</ele><time>2026-05-01T09:10:08.982Z</time></trkpt><trkpt lat="39.28941" lon="16.2429983"><ele>274.4</ele><time>2026-05-01T09:10:09.982Z</time></trkpt><trkpt lat="39.2894083" lon="16.2431317"><ele>272.0</ele><time>2026-05-01T09:10:10.983Z</time></trkpt><trkpt lat="39.2893967" lon="16.243275"><ele>271.6</ele><time>2026-05-01T09:10:11.982Z</time></trkpt><trkpt lat="39.2893633" lon="16.2434183"><ele>271.2</ele><time>2026-05-01T09:10:12.982Z</time></trkpt><trkpt lat="39.28933" lon="16.2435533"><ele>270.8</ele><time>2026-05-01T09:10:13.982Z</time></trkpt><trkpt lat="39.2893" lon="16.2436883"><ele>270.4</ele><time>2026-05-01T09:10:14.983Z</time></trkpt><trkpt lat="39.289285" lon="16.24381"><ele>270.0</ele><time>2026-05-01T09:10:15.982Z</time></trkpt><trkpt lat="39.2892817" lon="16.2439267"><ele>269.5</ele><time>2026-05-01T09:10:16.983Z</time></trkpt><trkpt lat="39.2892833" lon="16.2440383"><ele>269.0</ele><time>2026-05-01T09:10:17.982Z</time></trkpt><trkpt lat="39.2893017" lon="16.2441483"><ele>268.5</ele><time>2026-05-01T09:10:18.983Z</time></trkpt><trkpt lat="39.2893283" lon="16.2442533"><ele>268.0</ele><time>2026-05-01T09:10:19.982Z</time></trkpt><trkpt lat="39.2893483" lon="16.2443617"><ele>267.5</ele><time>2026-05-01T09:10:20.982Z</time></trkpt><trkpt lat="39.2893667" lon="16.24448"><ele>267.0</ele><time>2026-05-01T09:10:21.982Z</time></trkpt><trkpt lat="39.2893783" lon="16.2445983"><ele>267.0</ele><time>2026-05-01T09:10:22.982Z</time></trkpt><trkpt lat="39.2893917" lon="16.2447033"><ele>267.0</ele><time>2026-05-01T09:10:23.983Z</time></trkpt><trkpt lat="39.2894067" lon="16.2448"><ele>267.0</ele><time>2026-05-01T09:10:24.983Z</time></trkpt><trkpt lat="39.28942" lon="16.2448917"><ele>267.0</ele><time>2026-05-01T09:10:25.983Z</time></trkpt><trkpt lat="39.2894183" lon="16.24498"><ele>267.0</ele><time>2026-05-01T09:10:26.982Z</time></trkpt><trkpt lat="39.28942" lon="16.2451367"><ele>267.0</ele><time>2026-05-01T09:10:28.982Z</time></trkpt><trkpt lat="39.2894133" lon="16.2452983"><ele>266.5714285714286</ele><time>2026-05-01T09:10:30.983Z</time></trkpt><trkpt lat="39.2894083" lon="16.2453917"><ele>266.14285714285717</ele><time>2026-05-01T09:10:31.982Z</time></trkpt><trkpt lat="39.2894017" lon="16.245485"><ele>265.7142857142857</ele><time>2026-05-01T09:10:32.982Z</time></trkpt><trkpt lat="39.2893917" lon="16.245575"><ele>265.28571428571433</ele><time>2026-05-01T09:10:33.982Z</time></trkpt><trkpt lat="39.2893817" lon="16.24566"><ele>264.8571428571429</ele><time>2026-05-01T09:10:34.982Z</time></trkpt><trkpt lat="39.28937" lon="16.2457467"><ele>264.42857142857144</ele><time>2026-05-01T09:10:35.982Z</time></trkpt><trkpt lat="39.289355" lon="16.2458317"><ele>264.0</ele><time>2026-05-01T09:10:36.983Z</time></trkpt><trkpt lat="39.2893417" lon="16.2459167"><ele>263.8333333333333</ele><time>2026-05-01T09:10:37.982Z</time></trkpt><trkpt lat="39.289325" lon="16.2460083"><ele>263.6666666666667</ele><time>2026-05-01T09:10:38.983Z</time></trkpt><trkpt lat="39.2893033" lon="16.246105"><ele>263.5</ele><time>2026-05-01T09:10:39.982Z</time></trkpt><trkpt lat="39.2892833" lon="16.246205"><ele>263.33333333333337</ele><time>2026-05-01T09:10:40.983Z</time></trkpt><trkpt lat="39.2892583" lon="16.24631"><ele>263.1666666666667</ele><time>2026-05-01T09:10:41.982Z</time></trkpt><trkpt lat="39.28923" lon="16.24642"><ele>263.0</ele><time>2026-05-01T09:10:42.982Z</time></trkpt><trkpt lat="39.2892033" lon="16.2465333"><ele>263.4</ele><time>2026-05-01T09:10:43.982Z</time></trkpt><trkpt lat="39.2891833" lon="16.2466483"><ele>263.8</ele><time>2026-05-01T09:10:44.982Z</time></trkpt><trkpt lat="39.289165" lon="16.2467617"><ele>264.2</ele><time>2026-05-01T09:10:45.983Z</time></trkpt><trkpt lat="39.2891533" lon="16.2468833"><ele>264.6</ele><time>2026-05-01T09:10:46.982Z</time></trkpt><trkpt lat="39.2891483" lon="16.247005"><ele>265.0</ele><time>2026-05-01T09:10:47.982Z</time></trkpt><trkpt lat="39.2891333" lon="16.2471233"><ele>265.0</ele><time>2026-05-01T09:10:48.982Z</time></trkpt><trkpt lat="39.2891167" lon="16.247235"><ele>265.0</ele><time>2026-05-01T09:10:49.982Z</time></trkpt><trkpt lat="39.2891" lon="16.2473417"><ele>265.0</ele><time>2026-05-01T09:10:50.982Z</time></trkpt><trkpt lat="39.2891117" lon="16.2474467"><ele>265.0</ele><time>2026-05-01T09:10:51.982Z</time></trkpt><trkpt lat="39.289135" lon="16.2475517"><ele>265.0</ele><time>2026-05-01T09:10:52.983Z</time></trkpt><trkpt lat="39.2891533" lon="16.2476517"><ele>265.0</ele><time>2026-05-01T09:10:53.983Z</time></trkpt><trkpt lat="39.2891717" lon="16.2477467"><ele>264.16666666666663</ele><time>2026-05-01T09:10:54.982Z</time></trkpt><trkpt lat="39.2892" lon="16.2478417"><ele>263.3333333333333</ele><time>2026-05-01T09:10:55.983Z</time></trkpt><trkpt lat="39.2892267" lon="16.247925"><ele>262.5</ele><time>2026-05-01T09:10:56.982Z</time></trkpt><trkpt lat="39.289255" lon="16.2480033"><ele>261.6666666666667</ele><time>2026-05-01T09:10:57.982Z</time></trkpt><trkpt lat="39.2892883" lon="16.2480733"><ele>260.83333333333337</ele><time>2026-05-01T09:10:58.982Z</time></trkpt><trkpt lat="39.2893617" lon="16.2481883"><ele>260.0</ele><time>2026-05-01T09:11:00.982Z</time></trkpt><trkpt lat="39.2894567" lon="16.2482867"><ele>260.4</ele><time>2026-05-01T09:11:02.982Z</time></trkpt><trkpt lat="39.2895533" lon="16.2483617"><ele>260.8</ele><time>2026-05-01T09:11:04.983Z</time></trkpt><trkpt lat="39.2896383" lon="16.248425"><ele>261.2</ele><time>2026-05-01T09:11:06.982Z</time></trkpt><trkpt lat="39.2897367" lon="16.2484367"><ele>261.6</ele><time>2026-05-01T09:11:08.982Z</time></trkpt><trkpt lat="39.28986" lon="16.2483933"><ele>262.0</ele><time>2026-05-01T09:11:10.982Z</time></trkpt><trkpt lat="39.2899367" lon="16.2483733"><ele>262.0</ele><time>2026-05-01T09:11:11.982Z</time></trkpt><trkpt lat="39.29002" lon="16.2483667"><ele>262.0</ele><time>2026-05-01T09:11:12.982Z</time></trkpt><trkpt lat="39.2901133" lon="16.2483617"><ele>262.0</ele><time>2026-05-01T09:11:13.983Z</time></trkpt><trkpt lat="39.290195" lon="16.2483867"><ele>262.0</ele><time>2026-05-01T09:11:14.983Z</time></trkpt><trkpt lat="39.2902783" lon="16.2484167"><ele>262.0</ele><time>2026-05-01T09:11:15.982Z</time></trkpt><trkpt lat="39.2903583" lon="16.2484533"><ele>262.0</ele><time>2026-05-01T09:11:16.982Z</time></trkpt><trkpt lat="39.2904283" lon="16.2484833"><ele>262.0</ele><time>2026-05-01T09:11:17.983Z</time></trkpt><trkpt lat="39.2904867" lon="16.248515"><ele>262.0</ele><time>2026-05-01T09:11:18.983Z</time></trkpt><trkpt lat="39.2905867" lon="16.2485767"><ele>262.0</ele><time>2026-05-01T09:11:20.982Z</time></trkpt><trkpt lat="39.2906617" lon="16.248625"><ele>262.0</ele><time>2026-05-01T09:11:23.983Z</time></trkpt><trkpt lat="39.2907233" lon="16.248655"><ele>262.0</ele><time>2026-05-01T09:11:26.983Z</time></trkpt><trkpt lat="39.2908083" lon="16.248635"><ele>262.0</ele><time>2026-05-01T09:11:29.983Z</time></trkpt><trkpt lat="39.2908867" lon="16.2485867"><ele>263.16666666666663</ele><time>2026-05-01T09:11:31.982Z</time></trkpt><trkpt lat="39.29099" lon="16.248535"><ele>264.3333333333333</ele><time>2026-05-01T09:11:33.983Z</time></trkpt><trkpt lat="39.29105" lon="16.2485033"><ele>265.5</ele><time>2026-05-01T09:11:34.982Z</time></trkpt><trkpt lat="39.29112" lon="16.2484667"><ele>266.6666666666667</ele><time>2026-05-01T09:11:35.982Z</time></trkpt><trkpt lat="39.291195" lon="16.24842"><ele>267.83333333333337</ele><time>2026-05-01T09:11:36.983Z</time></trkpt><trkpt lat="39.2912783" lon="16.2483683"><ele>269.0</ele><time>2026-05-01T09:11:37.982Z</time></trkpt><trkpt lat="39.2913617" lon="16.2483183"><ele>269.0</ele><time>2026-05-01T09:11:38.982Z</time></trkpt><trkpt lat="39.29144" lon="16.2482683"><ele>269.0</ele><time>2026-05-01T09:11:39.982Z</time></trkpt><trkpt lat="39.2915167" lon="16.2482217"><ele>269.0</ele><time>2026-05-01T09:11:40.983Z</time></trkpt><trkpt lat="39.2915883" lon="16.2481883"><ele>269.0</ele><time>2026-05-01T09:11:41.982Z</time></trkpt><trkpt lat="39.2916533" lon="16.2481567"><ele>269.0</ele><time>2026-05-01T09:11:42.983Z</time></trkpt><trkpt lat="39.2917117" lon="16.2481217"><ele>269.0</ele><time>2026-05-01T09:11:43.983Z</time></trkpt><trkpt lat="39.2918083" lon="16.2480783"><ele>270.5</ele><time>2026-05-01T09:11:45.983Z</time></trkpt><trkpt lat="39.2918883" lon="16.2480733"><ele>272.0</ele><time>2026-05-01T09:11:48.982Z</time></trkpt><trkpt lat="39.2919517" lon="16.2480483"><ele>273.5</ele><time>2026-05-01T09:11:51.982Z</time></trkpt><trkpt lat="39.2920283" lon="16.248"><ele>275.0</ele><time>2026-05-01T09:11:54.982Z</time></trkpt><trkpt lat="39.2921017" lon="16.2479633"><ele>276.5</ele><time>2026-05-01T09:11:57.983Z</time></trkpt><trkpt lat="39.292175" lon="16.247915"><ele>278.0</ele><time>2026-05-01T09:12:00.982Z</time></trkpt><trkpt lat="39.29224" lon="16.2478933"><ele>276.33333333333337</ele><time>2026-05-01T09:12:03.982Z</time></trkpt><trkpt lat="39.2923" lon="16.2478667"><ele>274.6666666666667</ele><time>2026-05-01T09:12:07.982Z</time></trkpt><trkpt lat="39.29236" lon="16.2478"><ele>273.0</ele><time>2026-05-01T09:12:16.982Z</time></trkpt><trkpt lat="39.2924267" lon="16.2477717"><ele>271.3333333333333</ele><time>2026-05-01T09:12:34.983Z</time></trkpt><trkpt lat="39.2925083" lon="16.247815"><ele>269.66666666666663</ele><time>2026-05-01T09:12:37.983Z</time></trkpt><trkpt lat="39.292565" lon="16.2479067"><ele>268.0</ele><time>2026-05-01T09:12:39.982Z</time></trkpt><trkpt lat="39.2926067" lon="16.2480517"><ele>267.5</ele><time>2026-05-01T09:12:41.982Z</time></trkpt><trkpt lat="39.2926283" lon="16.24813"><ele>267.0</ele><time>2026-05-01T09:12:42.982Z</time></trkpt><trkpt lat="39.2926633" lon="16.2482083"><ele>266.5</ele><time>2026-05-01T09:12:43.982Z</time></trkpt><trkpt lat="39.2926883" lon="16.2482833"><ele>266.0</ele><time>2026-05-01T09:12:44.982Z</time></trkpt><trkpt lat="39.2927483" lon="16.2484317"><ele>265.5</ele><time>2026-05-01T09:12:46.982Z</time></trkpt><trkpt lat="39.2927783" lon="16.2485167"><ele>265.0</ele><time>2026-05-01T09:12:47.982Z</time></trkpt><trkpt lat="39.2928117" lon="16.24861"><ele>265.0</ele><time>2026-05-01T09:12:48.983Z</time></trkpt><trkpt lat="39.2928517" lon="16.2486817"><ele>265.0</ele><time>2026-05-01T09:12:49.982Z</time></trkpt><trkpt lat="39.2928817" lon="16.2487583"><ele>265.0</ele><time>2026-05-01T09:12:50.983Z</time></trkpt><trkpt lat="39.2929317" lon="16.2489067"><ele>265.0</ele><time>2026-05-01T09:12:52.982Z</time></trkpt><trkpt lat="39.2929683" lon="16.2490517"><ele>265.0</ele><time>2026-05-01T09:12:54.983Z</time></trkpt><trkpt lat="39.2929967" lon="16.2491967"><ele>264.8</ele><time>2026-05-01T09:12:56.982Z</time></trkpt><trkpt lat="39.2930017" lon="16.2493317"><ele>264.6</ele><time>2026-05-01T09:12:58.982Z</time></trkpt><trkpt lat="39.2929633" lon="16.2494483"><ele>264.4</ele><time>2026-05-01T09:13:00.982Z</time></trkpt><trkpt lat="39.29293" lon="16.24956"><ele>264.2</ele><time>2026-05-01T09:13:02.982Z</time></trkpt><trkpt lat="39.29294" lon="16.2496983"><ele>264.0</ele><time>2026-05-01T09:13:04.982Z</time></trkpt><trkpt lat="39.2929533" lon="16.2497917"><ele>262.8</ele><time>2026-05-01T09:13:05.982Z</time></trkpt><trkpt lat="39.29297" lon="16.249905"><ele>261.59999999999997</ele><time>2026-05-01T09:13:06.983Z</time></trkpt><trkpt lat="39.2929933" lon="16.2500217"><ele>260.4</ele><time>2026-05-01T09:13:07.982Z</time></trkpt><trkpt lat="39.2930133" lon="16.250135"><ele>259.2</ele><time>2026-05-01T09:13:08.982Z</time></trkpt><trkpt lat="39.2930367" lon="16.2502433"><ele>258.0</ele><time>2026-05-01T09:13:09.982Z</time></trkpt><trkpt lat="39.2930583" lon="16.2503633"><ele>258.0</ele><time>2026-05-01T09:13:10.982Z</time></trkpt><trkpt lat="39.29308" lon="16.2504933"><ele>258.0</ele><time>2026-05-01T09:13:11.982Z</time></trkpt><trkpt lat="39.2930983" lon="16.2506233"><ele>258.0</ele><time>2026-05-01T09:13:12.983Z</time></trkpt><trkpt lat="39.293115" lon="16.25075"><ele>258.0</ele><time>2026-05-01T09:13:13.982Z</time></trkpt><trkpt lat="39.2931417" lon="16.250855"><ele>258.0</ele><time>2026-05-01T09:13:14.982Z</time></trkpt><trkpt lat="39.2931717" lon="16.2509267"><ele>256.6666666666667</ele><time>2026-05-01T09:13:15.982Z</time></trkpt><trkpt lat="39.2932267" lon="16.2509967"><ele>255.33333333333331</ele><time>2026-05-01T09:13:17.983Z</time></trkpt><trkpt lat="39.2932983" lon="16.2510183"><ele>254.0</ele><time>2026-05-01T09:13:19.982Z</time></trkpt><trkpt lat="39.2933733" lon="16.251045"><ele>252.66666666666666</ele><time>2026-05-01T09:13:22.982Z</time></trkpt><trkpt lat="39.2934583" lon="16.2510067"><ele>251.33333333333331</ele><time>2026-05-01T09:13:26.983Z</time></trkpt><trkpt lat="39.2935233" lon="16.2509533"><ele>250.0</ele><time>2026-05-01T09:13:29.983Z</time></trkpt><trkpt lat="39.2935817" lon="16.2509067"><ele>249.99999999999997</ele><time>2026-05-01T09:13:32.982Z</time></trkpt><trkpt lat="39.2936283" lon="16.2508233"><ele>250.0</ele><time>2026-05-01T09:13:44.982Z</time></trkpt><trkpt lat="39.293715" lon="16.2507783"><ele>250.0</ele><time>2026-05-01T09:13:47.983Z</time></trkpt><trkpt lat="39.29378" lon="16.2507317"><ele>250.0</ele><time>2026-05-01T09:13:50.982Z</time></trkpt><trkpt lat="39.2938517" lon="16.2506617"><ele>249.99999999999997</ele><time>2026-05-01T09:13:53.983Z</time></trkpt><trkpt lat="39.2939133" lon="16.2506217"><ele>250.0</ele><time>2026-05-01T09:13:55.982Z</time></trkpt><trkpt lat="39.29398" lon="16.250585"><ele>251.8</ele><time>2026-05-01T09:13:57.983Z</time></trkpt><trkpt lat="39.294075" lon="16.2505583"><ele>253.6</ele><time>2026-05-01T09:13:59.983Z</time></trkpt><trkpt lat="39.2941667" lon="16.250525"><ele>255.39999999999998</ele><time>2026-05-01T09:14:01.982Z</time></trkpt><trkpt lat="39.29427" lon="16.2504917"><ele>257.2</ele><time>2026-05-01T09:14:03.982Z</time></trkpt><trkpt lat="39.2943917" lon="16.2504767"><ele>259.0</ele><time>2026-05-01T09:14:05.983Z</time></trkpt><trkpt lat="39.2944633" lon="16.2504717"><ele>259.0</ele><time>2026-05-01T09:14:06.982Z</time></trkpt><trkpt lat="39.2945367" lon="16.250465"><ele>259.0</ele><time>2026-05-01T09:14:07.982Z</time></trkpt><trkpt lat="39.2946133" lon="16.2504567"><ele>259.0</ele><time>2026-05-01T09:14:08.982Z</time></trkpt><trkpt lat="39.2947" lon="16.2504533"><ele>259.0</ele><time>2026-05-01T09:14:09.983Z</time></trkpt><trkpt lat="39.2947717" lon="16.2504517"><ele>259.0</ele><time>2026-05-01T09:14:10.982Z</time></trkpt><trkpt lat="39.2948433" lon="16.2504483"><ele>259.0</ele><time>2026-05-01T09:14:11.983Z</time></trkpt><trkpt lat="39.2949217" lon="16.250445"><ele>259.2</ele><time>2026-05-01T09:14:12.982Z</time></trkpt><trkpt lat="39.29504" lon="16.25042"><ele>259.4</ele><time>2026-05-01T09:14:14.982Z</time></trkpt><trkpt lat="39.2951183" lon="16.2504017"><ele>259.6</ele><time>2026-05-01T09:14:15.982Z</time></trkpt><trkpt lat="39.2951967" lon="16.2503717"><ele>259.8</ele><time>2026-05-01T09:14:16.982Z</time></trkpt><trkpt lat="39.2952783" lon="16.250335"><ele>260.0</ele><time>2026-05-01T09:14:17.982Z</time></trkpt><trkpt lat="39.2953583" lon="16.2502917"><ele>260.0</ele><time>2026-05-01T09:14:18.983Z</time></trkpt><trkpt lat="39.2954483" lon="16.250245"><ele>260.0</ele><time>2026-05-01T09:14:19.982Z</time></trkpt><trkpt lat="39.295545" lon="16.2502033"><ele>260.0</ele><time>2026-05-01T09:14:20.983Z</time></trkpt><trkpt lat="39.295625" lon="16.2501617"><ele>260.0</ele><time>2026-05-01T09:14:21.982Z</time></trkpt><trkpt lat="39.295715" lon="16.25011"><ele>260.0</ele><time>2026-05-01T09:14:22.983Z</time></trkpt><trkpt lat="39.2958" lon="16.250065"><ele>260.0</ele><time>2026-05-01T09:14:23.983Z</time></trkpt><trkpt lat="39.2958817" lon="16.250015"><ele>260.0</ele><time>2026-05-01T09:14:24.983Z</time></trkpt><trkpt lat="39.29594" lon="16.2499733"><ele>260.0</ele><time>2026-05-01T09:14:25.983Z</time></trkpt><trkpt lat="39.296025" lon="16.2499083"><ele>260.0</ele><time>2026-05-01T09:14:27.983Z</time></trkpt><trkpt lat="39.2961117" lon="16.2498533"><ele>260.0</ele><time>2026-05-01T09:14:29.982Z</time></trkpt><trkpt lat="39.296235" lon="16.2498017"><ele>259.83333333333337</ele><time>2026-05-01T09:14:31.982Z</time></trkpt><trkpt lat="39.2962983" lon="16.24978"><ele>259.6666666666667</ele><time>2026-05-01T09:14:32.982Z</time></trkpt><trkpt lat="39.2963667" lon="16.2497517"><ele>259.5</ele><time>2026-05-01T09:14:33.982Z</time></trkpt><trkpt lat="39.29644" lon="16.2497383"><ele>259.3333333333333</ele><time>2026-05-01T09:14:34.983Z</time></trkpt><trkpt lat="39.2965783" lon="16.2497333"><ele>259.16666666666663</ele><time>2026-05-01T09:14:36.982Z</time></trkpt><trkpt lat="39.29665" lon="16.2497417"><ele>259.0</ele><time>2026-05-01T09:14:37.983Z</time></trkpt><trkpt lat="39.296735" lon="16.2497383"><ele>259.3333333333333</ele><time>2026-05-01T09:14:38.982Z</time></trkpt><trkpt lat="39.2968167" lon="16.24974"><ele>259.66666666666663</ele><time>2026-05-01T09:14:39.982Z</time></trkpt><trkpt lat="39.2968833" lon="16.2497417"><ele>260.0</ele><time>2026-05-01T09:14:40.982Z</time></trkpt><trkpt lat="39.29695" lon="16.2497633"><ele>260.3333333333333</ele><time>2026-05-01T09:14:41.982Z</time></trkpt><trkpt lat="39.2970833" lon="16.24977"><ele>260.6666666666667</ele><time>2026-05-01T09:14:43.982Z</time></trkpt><trkpt lat="39.2971483" lon="16.249755"><ele>261.0</ele><time>2026-05-01T09:14:44.983Z</time></trkpt><trkpt lat="39.2972633" lon="16.2497533"><ele>261.0</ele><time>2026-05-01T09:14:46.982Z</time></trkpt><trkpt lat="39.2973617" lon="16.24976"><ele>261.0</ele><time>2026-05-01T09:14:48.982Z</time></trkpt><trkpt lat="39.2974667" lon="16.2497633"><ele>261.0</ele><time>2026-05-01T09:14:50.982Z</time></trkpt><trkpt lat="39.29756" lon="16.2497583"><ele>261.0</ele><time>2026-05-01T09:14:52.983Z</time></trkpt><trkpt lat="39.2976733" lon="16.24977"><ele>261.0</ele><time>2026-05-01T09:14:54.982Z</time></trkpt><trkpt lat="39.2977933" lon="16.2497733"><ele>261.0</ele><time>2026-05-01T09:14:56.982Z</time></trkpt><trkpt lat="39.2979133" lon="16.2497817"><ele>261.0</ele><time>2026-05-01T09:14:58.982Z</time></trkpt><trkpt lat="39.2979767" lon="16.2497817"><ele>261.0</ele><time>2026-05-01T09:14:59.982Z</time></trkpt><trkpt lat="39.2980467" lon="16.24978"><ele>261.0</ele><time>2026-05-01T09:15:00.982Z</time></trkpt><trkpt lat="39.2981217" lon="16.249785"><ele>261.0</ele><time>2026-05-01T09:15:01.982Z</time></trkpt><trkpt lat="39.2981933" lon="16.2498"><ele>261.0</ele><time>2026-05-01T09:15:02.982Z</time></trkpt><trkpt lat="39.29833" lon="16.2498067"><ele>260.5</ele><time>2026-05-01T09:15:04.982Z</time></trkpt><trkpt lat="39.2984417" lon="16.2498033"><ele>260.0</ele><time>2026-05-01T09:15:06.983Z</time></trkpt><trkpt lat="39.2985717" lon="16.2498067"><ele>259.5</ele><time>2026-05-01T09:15:08.982Z</time></trkpt><trkpt lat="39.2986367" lon="16.249805"><ele>259.0</ele><time>2026-05-01T09:15:09.982Z</time></trkpt><trkpt lat="39.2987017" lon="16.2498017"><ele>258.5</ele><time>2026-05-01T09:15:10.982Z</time></trkpt><trkpt lat="39.2987667" lon="16.2498033"><ele>258.0</ele><time>2026-05-01T09:15:11.983Z</time></trkpt><trkpt lat="39.2988433" lon="16.2498117"><ele>257.3333333333333</ele><time>2026-05-01T09:15:12.983Z</time></trkpt><trkpt lat="39.2989183" lon="16.249815"><ele>256.6666666666667</ele><time>2026-05-01T09:15:13.982Z</time></trkpt><trkpt lat="39.2989983" lon="16.24982"><ele>256.0</ele><time>2026-05-01T09:15:14.983Z</time></trkpt><trkpt lat="39.2990817" lon="16.2498217"><ele>255.33333333333334</ele><time>2026-05-01T09:15:15.982Z</time></trkpt><trkpt lat="39.2991633" lon="16.2498333"><ele>254.66666666666669</ele><time>2026-05-01T09:15:16.982Z</time></trkpt><trkpt lat="39.299235" lon="16.24983"><ele>254.0</ele><time>2026-05-01T09:15:17.982Z</time></trkpt><trkpt lat="39.2993083" lon="16.249825"><ele>254.00000000000003</ele><time>2026-05-01T09:15:18.983Z</time></trkpt><trkpt lat="39.299375" lon="16.2498183"><ele>254.0</ele><time>2026-05-01T09:15:19.982Z</time></trkpt><trkpt lat="39.2994867" lon="16.249835"><ele>254.0</ele><time>2026-05-01T09:15:21.982Z</time></trkpt><trkpt lat="39.2995767" lon="16.2498383"><ele>254.0</ele><time>2026-05-01T09:15:23.983Z</time></trkpt><trkpt lat="39.2996483" lon="16.249835"><ele>254.00000000000003</ele><time>2026-05-01T09:15:25.982Z</time></trkpt><trkpt lat="39.2997217" lon="16.249845"><ele>254.0</ele><time>2026-05-01T09:15:27.982Z</time></trkpt><trkpt lat="39.2997967" lon="16.2498517"><ele>254.33333333333334</ele><time>2026-05-01T09:15:30.983Z</time></trkpt><trkpt lat="39.29989" lon="16.24985"><ele>254.66666666666669</ele><time>2026-05-01T09:15:33.982Z</time></trkpt><trkpt lat="39.29997" lon="16.249845"><ele>255.0</ele><time>2026-05-01T09:15:35.983Z</time></trkpt><trkpt lat="39.3000383" lon="16.249855"><ele>255.33333333333331</ele><time>2026-05-01T09:15:37.982Z</time></trkpt><trkpt lat="39.30011" lon="16.2498533"><ele>255.66666666666666</ele><time>2026-05-01T09:15:40.983Z</time></trkpt><trkpt lat="39.3001667" lon="16.2498917"><ele>256.0</ele><time>2026-05-01T09:15:43.983Z</time></trkpt><trkpt lat="39.3002533" lon="16.2499217"><ele>255.99999999999997</ele><time>2026-05-01T09:15:48.982Z</time></trkpt><trkpt lat="39.3003167" lon="16.2499267"><ele>256.0</ele><time>2026-05-01T09:15:50.983Z</time></trkpt><trkpt lat="39.3004183" lon="16.2499317"><ele>256.0</ele><time>2026-05-01T09:15:53.983Z</time></trkpt><trkpt lat="39.30049" lon="16.2499233"><ele>256.0</ele><time>2026-05-01T09:15:55.982Z</time></trkpt><trkpt lat="39.3005617" lon="16.24992"><ele>255.99999999999997</ele><time>2026-05-01T09:15:58.982Z</time></trkpt><trkpt lat="39.3006367" lon="16.249915"><ele>256.0</ele><time>2026-05-01T09:16:00.982Z</time></trkpt><trkpt lat="39.3007217" lon="16.2498983"><ele>256.5</ele><time>2026-05-01T09:16:02.982Z</time></trkpt><trkpt lat="39.3007983" lon="16.24989"><ele>257.0</ele><time>2026-05-01T09:16:04.983Z</time></trkpt><trkpt lat="39.3008817" lon="16.24989"><ele>257.5</ele><time>2026-05-01T09:16:06.982Z</time></trkpt><trkpt lat="39.3009717" lon="16.2498883"><ele>258.0</ele><time>2026-05-01T09:16:08.983Z</time></trkpt><trkpt lat="39.3010867" lon="16.249885"><ele>258.5</ele><time>2026-05-01T09:16:10.982Z</time></trkpt><trkpt lat="39.3011517" lon="16.2499"><ele>259.0</ele><time>2026-05-01T09:16:11.982Z</time></trkpt><trkpt lat="39.301265" lon="16.2499183"><ele>259.0</ele><time>2026-05-01T09:16:13.982Z</time></trkpt><trkpt lat="39.301385" lon="16.24993"><ele>259.0</ele><time>2026-05-01T09:16:15.982Z</time></trkpt><trkpt lat="39.30145" lon="16.2499283"><ele>259.0</ele><time>2026-05-01T09:16:16.983Z</time></trkpt><trkpt lat="39.3015733" lon="16.24993"><ele>259.0</ele><time>2026-05-01T09:16:18.982Z</time></trkpt><trkpt lat="39.3017033" lon="16.2499233"><ele>259.0</ele><time>2026-05-01T09:16:20.982Z</time></trkpt><trkpt lat="39.30178" lon="16.2499217"><ele>258.5</ele><time>2026-05-01T09:16:21.982Z</time></trkpt><trkpt lat="39.3018633" lon="16.2499233"><ele>258.0</ele><time>2026-05-01T09:16:22.982Z</time></trkpt><trkpt lat="39.3019283" lon="16.2499283"><ele>257.5</ele><time>2026-05-01T09:16:23.983Z</time></trkpt><trkpt lat="39.3019933" lon="16.2499283"><ele>257.0</ele><time>2026-05-01T09:16:24.982Z</time></trkpt><trkpt lat="39.3021083" lon="16.2499317"><ele>256.5</ele><time>2026-05-01T09:16:26.983Z</time></trkpt><trkpt lat="39.3021717" lon="16.249935"><ele>256.0</ele><time>2026-05-01T09:16:27.983Z</time></trkpt><trkpt lat="39.3022417" lon="16.2499317"><ele>254.60000000000002</ele><time>2026-05-01T09:16:28.982Z</time></trkpt><trkpt lat="39.302345" lon="16.249935"><ele>253.20000000000002</ele><time>2026-05-01T09:16:30.982Z</time></trkpt><trkpt lat="39.3024483" lon="16.2499317"><ele>251.79999999999998</ele><time>2026-05-01T09:16:32.982Z</time></trkpt><trkpt lat="39.30254" lon="16.2499317"><ele>250.39999999999998</ele><time>2026-05-01T09:16:34.982Z</time></trkpt><trkpt lat="39.3026233" lon="16.2499333"><ele>249.0</ele><time>2026-05-01T09:16:37.982Z</time></trkpt><trkpt lat="39.302695" lon="16.2499333"><ele>249.0</ele><time>2026-05-01T09:16:39.982Z</time></trkpt><trkpt lat="39.3027583" lon="16.2499267"><ele>249.0</ele><time>2026-05-01T09:16:41.982Z</time></trkpt><trkpt lat="39.3028317" lon="16.2499033"><ele>249.0</ele><time>2026-05-01T09:16:43.982Z</time></trkpt><trkpt lat="39.3028917" lon="16.2498533"><ele>249.0</ele><time>2026-05-01T09:16:45.982Z</time></trkpt><trkpt lat="39.30293" lon="16.24977"><ele>249.0</ele><time>2026-05-01T09:16:47.982Z</time></trkpt><trkpt lat="39.30295" lon="16.2496567"><ele>249.0</ele><time>2026-05-01T09:16:49.982Z</time></trkpt><trkpt lat="39.30296" lon="16.2495367"><ele>249.79999999999998</ele><time>2026-05-01T09:16:51.982Z</time></trkpt><trkpt lat="39.3029833" lon="16.2494133"><ele>250.59999999999997</ele><time>2026-05-01T09:16:53.983Z</time></trkpt><trkpt lat="39.3029883" lon="16.2492767"><ele>251.4</ele><time>2026-05-01T09:16:55.982Z</time></trkpt><trkpt lat="39.30298" lon="16.2491483"><ele>252.2</ele><time>2026-05-01T09:16:57.983Z</time></trkpt><trkpt lat="39.3029767" lon="16.2490183"><ele>253.0</ele><time>2026-05-01T09:16:59.982Z</time></trkpt><trkpt lat="39.3029733" lon="16.2488683"><ele>254.33333333333331</ele><time>2026-05-01T09:17:01.982Z</time></trkpt><trkpt lat="39.302975" lon="16.2487033"><ele>255.66666666666666</ele><time>2026-05-01T09:17:03.983Z</time></trkpt><trkpt lat="39.302975" lon="16.2486167"><ele>257.0</ele><time>2026-05-01T09:17:04.982Z</time></trkpt><trkpt lat="39.3029683" lon="16.2485333"><ele>258.3333333333333</ele><time>2026-05-01T09:17:05.983Z</time></trkpt><trkpt lat="39.3029633" lon="16.24845"><ele>259.6666666666667</ele><time>2026-05-01T09:17:06.982Z</time></trkpt><trkpt lat="39.3029533" lon="16.2483033"><ele>261.0</ele><time>2026-05-01T09:17:08.982Z</time></trkpt><trkpt lat="39.3029533" lon="16.24818"><ele>260.8333333333333</ele><time>2026-05-01T09:17:10.982Z</time></trkpt><trkpt lat="39.3029617" lon="16.2480517"><ele>260.6666666666667</ele><time>2026-05-01T09:17:12.983Z</time></trkpt><trkpt lat="39.3029783" lon="16.2479183"><ele>260.5</ele><time>2026-05-01T09:17:14.982Z</time></trkpt><trkpt lat="39.303045" lon="16.2477967"><ele>260.33333333333337</ele><time>2026-05-01T09:17:16.983Z</time></trkpt><trkpt lat="39.3030867" lon="16.247735"><ele>260.1666666666667</ele><time>2026-05-01T09:17:17.983Z</time></trkpt><trkpt lat="39.3031283" lon="16.2476733"><ele>260.0</ele><time>2026-05-01T09:17:18.982Z</time></trkpt><trkpt lat="39.3031767" lon="16.24761"><ele>260.0</ele><time>2026-05-01T09:17:19.982Z</time></trkpt><trkpt lat="39.3032283" lon="16.247545"><ele>260.0</ele><time>2026-05-01T09:17:20.982Z</time></trkpt><trkpt lat="39.3032833" lon="16.2474783"><ele>260.0</ele><time>2026-05-01T09:17:21.982Z</time></trkpt><trkpt lat="39.3033483" lon="16.24741"><ele>260.0</ele><time>2026-05-01T09:17:22.982Z</time></trkpt><trkpt lat="39.303425" lon="16.2473283"><ele>260.0</ele><time>2026-05-01T09:17:23.982Z</time></trkpt><trkpt lat="39.303495" lon="16.247245"><ele>260.0</ele><time>2026-05-01T09:17:24.982Z</time></trkpt><trkpt lat="39.3035667" lon="16.2471633"><ele>259.6666666666667</ele><time>2026-05-01T09:17:25.982Z</time></trkpt><trkpt lat="39.30364" lon="16.2470867"><ele>259.33333333333337</ele><time>2026-05-01T09:17:26.983Z</time></trkpt><trkpt lat="39.3037083" lon="16.2470133"><ele>259.0</ele><time>2026-05-01T09:17:27.983Z</time></trkpt><trkpt lat="39.3037733" lon="16.2469533"><ele>258.6666666666667</ele><time>2026-05-01T09:17:28.982Z</time></trkpt><trkpt lat="39.3038333" lon="16.2468917"><ele>258.3333333333333</ele><time>2026-05-01T09:17:29.982Z</time></trkpt><trkpt lat="39.3038933" lon="16.2468367"><ele>258.0</ele><time>2026-05-01T09:17:30.982Z</time></trkpt><trkpt lat="39.30395" lon="16.24678"><ele>258.0</ele><time>2026-05-01T09:17:31.982Z</time></trkpt><trkpt lat="39.3039917" lon="16.2467133"><ele>258.0</ele><time>2026-05-01T09:17:32.982Z</time></trkpt><trkpt lat="39.3040817" lon="16.2465967"><ele>258.0</ele><time>2026-05-01T09:17:34.982Z</time></trkpt><trkpt lat="39.304135" lon="16.2465367"><ele>258.0</ele><time>2026-05-01T09:17:35.982Z</time></trkpt><trkpt lat="39.30419" lon="16.2464617"><ele>258.0</ele><time>2026-05-01T09:17:36.982Z</time></trkpt><trkpt lat="39.304245" lon="16.24639"><ele>258.0</ele><time>2026-05-01T09:17:37.982Z</time></trkpt><trkpt lat="39.304295" lon="16.2463283"><ele>259.0</ele><time>2026-05-01T09:17:38.982Z</time></trkpt><trkpt lat="39.30439" lon="16.2462233"><ele>260.0</ele><time>2026-05-01T09:17:40.983Z</time></trkpt><trkpt lat="39.3044833" lon="16.2461333"><ele>261.0</ele><time>2026-05-01T09:17:42.982Z</time></trkpt><trkpt lat="39.3045783" lon="16.2460517"><ele>262.0</ele><time>2026-05-01T09:17:44.983Z</time></trkpt><trkpt lat="39.3046833" lon="16.245945"><ele>262.0</ele><time>2026-05-01T09:17:46.983Z</time></trkpt><trkpt lat="39.3047433" lon="16.2458783"><ele>262.0</ele><time>2026-05-01T09:17:47.982Z</time></trkpt><trkpt lat="39.30481" lon="16.2458133"><ele>262.0</ele><time>2026-05-01T09:17:48.982Z</time></trkpt><trkpt lat="39.3048833" lon="16.245745"><ele>262.0</ele><time>2026-05-01T09:17:49.983Z</time></trkpt><trkpt lat="39.3049533" lon="16.2456783"><ele>262.0</ele><time>2026-05-01T09:17:50.982Z</time></trkpt><trkpt lat="39.3050267" lon="16.2456133"><ele>262.0</ele><time>2026-05-01T09:17:51.982Z</time></trkpt><trkpt lat="39.3051017" lon="16.24555"><ele>261.0</ele><time>2026-05-01T09:17:52.983Z</time></trkpt><trkpt lat="39.3051783" lon="16.2455"><ele>260.0</ele><time>2026-05-01T09:17:53.983Z</time></trkpt><trkpt lat="39.3052617" lon="16.2454617"><ele>259.0</ele><time>2026-05-01T09:17:54.982Z</time></trkpt><trkpt lat="39.3053383" lon="16.2454217"><ele>258.0</ele><time>2026-05-01T09:17:55.982Z</time></trkpt><trkpt lat="39.3054117" lon="16.245385"><ele>257.0</ele><time>2026-05-01T09:17:56.982Z</time></trkpt><trkpt lat="39.3054867" lon="16.2453417"><ele>256.0</ele><time>2026-05-01T09:17:57.982Z</time></trkpt><trkpt lat="39.305555" lon="16.2453017"><ele>255.8</ele><time>2026-05-01T09:17:58.982Z</time></trkpt><trkpt lat="39.30562" lon="16.24526"><ele>255.60000000000002</ele><time>2026-05-01T09:17:59.982Z</time></trkpt><trkpt lat="39.30568" lon="16.2452233"><ele>255.4</ele><time>2026-05-01T09:18:00.982Z</time></trkpt><trkpt lat="39.3057717" lon="16.2451483"><ele>255.2</ele><time>2026-05-01T09:18:02.982Z</time></trkpt><trkpt lat="39.3058733" lon="16.2450933"><ele>255.0</ele><time>2026-05-01T09:18:04.982Z</time></trkpt><trkpt lat="39.3059767" lon="16.2451033"><ele>255.0</ele><time>2026-05-01T09:18:06.982Z</time></trkpt><trkpt lat="39.3060367" lon="16.2451733"><ele>255.0</ele><time>2026-05-01T09:18:08.983Z</time></trkpt><trkpt lat="39.3060633" lon="16.2450983"><ele>255.0</ele><time>2026-05-01T09:18:12.982Z</time></trkpt><trkpt lat="39.3060817" lon="16.245005"><ele>255.0</ele><time>2026-05-01T09:18:16.982Z</time></trkpt><trkpt lat="39.306075" lon="16.2449233"><ele>255.0</ele><time>2026-05-01T09:18:18.979Z</time></trkpt><trkpt lat="39.30602" lon="16.244685"><ele>254.66666666666669</ele><time>2026-05-01T09:18:19.98Z</time></trkpt><trkpt lat="39.30592" lon="16.2443733"><ele>254.33333333333334</ele><time>2026-05-01T09:18:20.98Z</time></trkpt><trkpt lat="39.3058667" lon="16.2442267"><ele>254.0</ele><time>2026-05-01T09:18:21.979Z</time></trkpt><trkpt lat="39.305655" lon="16.24401"><ele>253.66666666666669</ele><time>2026-05-01T09:18:22.979Z</time></trkpt><trkpt lat="39.3054217" lon="16.24388"><ele>253.33333333333331</ele><time>2026-05-01T09:18:23.979Z</time></trkpt><trkpt lat="39.3053433" lon="16.2437633"><ele>253.0</ele><time>2026-05-01T09:18:24.979Z</time></trkpt><trkpt lat="39.3052933" lon="16.2436717"><ele>253.0</ele><time>2026-05-01T09:18:25.979Z</time></trkpt><trkpt lat="39.305255" lon="16.24358"><ele>253.0</ele><time>2026-05-01T09:18:26.979Z</time></trkpt><trkpt lat="39.3052083" lon="16.2434833"><ele>253.0</ele><time>2026-05-01T09:18:27.98Z</time></trkpt><trkpt lat="39.3051733" lon="16.24337"><ele>253.0</ele><time>2026-05-01T09:18:28.979Z</time></trkpt><trkpt lat="39.3051333" lon="16.2432517"><ele>253.0</ele><time>2026-05-01T09:18:29.979Z</time></trkpt><trkpt lat="39.305095" lon="16.2431117"><ele>253.25</ele><time>2026-05-01T09:18:30.98Z</time></trkpt><trkpt lat="39.3050517" lon="16.24295"><ele>253.5</ele><time>2026-05-01T09:18:31.979Z</time></trkpt><trkpt lat="39.3050067" lon="16.2427867"><ele>253.75</ele><time>2026-05-01T09:18:32.979Z</time></trkpt><trkpt lat="39.3049517" lon="16.2426067"><ele>254.0</ele><time>2026-05-01T09:18:33.98Z</time></trkpt><trkpt lat="39.3049033" lon="16.2424067"><ele>254.0</ele><time>2026-05-01T09:18:34.98Z</time></trkpt><trkpt lat="39.304835" lon="16.2422017"><ele>254.0</ele><time>2026-05-01T09:18:35.979Z</time></trkpt><trkpt lat="39.3047767" lon="16.2419883"><ele>254.0</ele><time>2026-05-01T09:18:36.979Z</time></trkpt><trkpt lat="39.304715" lon="16.2417967"><ele>255.33333333333334</ele><time>2026-05-01T09:18:37.979Z</time></trkpt><trkpt lat="39.3046467" lon="16.2416167"><ele>256.6666666666667</ele><time>2026-05-01T09:18:38.979Z</time></trkpt><trkpt lat="39.3045733" lon="16.2414183"><ele>258.0</ele><time>2026-05-01T09:18:39.979Z</time></trkpt><trkpt lat="39.3044733" lon="16.2412083"><ele>258.0</ele><time>2026-05-01T09:18:40.979Z</time></trkpt><trkpt lat="39.304345" lon="16.24097"><ele>258.0</ele><time>2026-05-01T09:18:41.979Z</time></trkpt><trkpt lat="39.3041817" lon="16.240715"><ele>256.5</ele><time>2026-05-01T09:18:42.979Z</time></trkpt><trkpt lat="39.3039917" lon="16.2404367"><ele>255.0</ele><time>2026-05-01T09:18:43.979Z</time></trkpt><trkpt lat="39.303775" lon="16.2401333"><ele>257.5</ele><time>2026-05-01T09:18:44.979Z</time></trkpt><trkpt lat="39.3035667" lon="16.2398267"><ele>260.0</ele><time>2026-05-01T09:18:45.979Z</time></trkpt><trkpt lat="39.3033717" lon="16.239535"><ele>260.0</ele><time>2026-05-01T09:18:46.98Z</time></trkpt><trkpt lat="39.3031983" lon="16.2392667"><ele>260.0</ele><time>2026-05-01T09:18:47.98Z</time></trkpt><trkpt lat="39.3030433" lon="16.239025"><ele>261.6666666666667</ele><time>2026-05-01T09:18:48.979Z</time></trkpt><trkpt lat="39.3029067" lon="16.2388183"><ele>263.3333333333333</ele><time>2026-05-01T09:18:49.979Z</time></trkpt><trkpt lat="39.302775" lon="16.238625"><ele>265.0</ele><time>2026-05-01T09:18:50.979Z</time></trkpt><trkpt lat="39.3026533" lon="16.2384567"><ele>265.0</ele><time>2026-05-01T09:18:51.979Z</time></trkpt><trkpt lat="39.3025417" lon="16.2383067"><ele>265.0</ele><time>2026-05-01T09:18:52.979Z</time></trkpt><trkpt lat="39.3024383" lon="16.23817"><ele>265.0</ele><time>2026-05-01T09:18:53.979Z</time></trkpt><trkpt lat="39.302335" lon="16.2380533"><ele>265.0</ele><time>2026-05-01T09:18:54.979Z</time></trkpt><trkpt lat="39.3022483" lon="16.23796"><ele>265.6</ele><time>2026-05-01T09:18:55.979Z</time></trkpt><trkpt lat="39.302165" lon="16.2378717"><ele>266.2</ele><time>2026-05-01T09:18:56.98Z</time></trkpt><trkpt lat="39.3020833" lon="16.2377867"><ele>266.8</ele><time>2026-05-01T09:18:57.979Z</time></trkpt><trkpt lat="39.302" lon="16.2377017"><ele>267.4</ele><time>2026-05-01T09:18:58.98Z</time></trkpt><trkpt lat="39.301915" lon="16.23761"><ele>268.0</ele><time>2026-05-01T09:18:59.979Z</time></trkpt><trkpt lat="39.3018233" lon="16.2375267"><ele>268.0</ele><time>2026-05-01T09:19:00.98Z</time></trkpt><trkpt lat="39.3017383" lon="16.2374433"><ele>268.0</ele><time>2026-05-01T09:19:01.979Z</time></trkpt><trkpt lat="39.3016567" lon="16.237355"><ele>268.0</ele><time>2026-05-01T09:19:02.979Z</time></trkpt><trkpt lat="39.3015717" lon="16.2372583"><ele>268.0</ele><time>2026-05-01T09:19:03.979Z</time></trkpt><trkpt lat="39.3014867" lon="16.2371467"><ele>268.0</ele><time>2026-05-01T09:19:04.98Z</time></trkpt><trkpt lat="39.3014233" lon="16.2370117"><ele>268.0</ele><time>2026-05-01T09:19:05.98Z</time></trkpt><trkpt lat="39.3013967" lon="16.2368717"><ele>268.0</ele><time>2026-05-01T09:19:06.98Z</time></trkpt><trkpt lat="39.301405" lon="16.23673"><ele>268.0</ele><time>2026-05-01T09:19:07.98Z</time></trkpt><trkpt lat="39.3014367" lon="16.2365967"><ele>268.0</ele><time>2026-05-01T09:19:08.979Z</time></trkpt><trkpt lat="39.3014917" lon="16.23648"><ele>268.0</ele><time>2026-05-01T09:19:09.98Z</time></trkpt><trkpt lat="39.30156" lon="16.2363833"><ele>268.4</ele><time>2026-05-01T09:19:10.98Z</time></trkpt><trkpt lat="39.3016517" lon="16.2363067"><ele>268.8</ele><time>2026-05-01T09:19:11.979Z</time></trkpt><trkpt lat="39.3017433" lon="16.2362617"><ele>269.2</ele><time>2026-05-01T09:19:12.98Z</time></trkpt><trkpt lat="39.3018533" lon="16.2362367"><ele>269.6</ele><time>2026-05-01T09:19:13.979Z</time></trkpt><trkpt lat="39.3019783" lon="16.2362233"><ele>270.0</ele><time>2026-05-01T09:19:14.979Z</time></trkpt><trkpt lat="39.3021183" lon="16.2362217"><ele>272.0</ele><time>2026-05-01T09:19:15.979Z</time></trkpt><trkpt lat="39.3022683" lon="16.23624"><ele>274.0</ele><time>2026-05-01T09:19:16.98Z</time></trkpt><trkpt lat="39.302445" lon="16.2362633"><ele>276.0</ele><time>2026-05-01T09:19:17.979Z</time></trkpt><trkpt lat="39.302655" lon="16.236285"><ele>276.0</ele><time>2026-05-01T09:19:18.98Z</time></trkpt><trkpt lat="39.30289" lon="16.2363233"><ele>276.0</ele><time>2026-05-01T09:19:19.979Z</time></trkpt><trkpt lat="39.30314" lon="16.2363767"><ele>275.5</ele><time>2026-05-01T09:19:20.979Z</time></trkpt><trkpt lat="39.3033883" lon="16.23645"><ele>275.0</ele><time>2026-05-01T09:19:21.979Z</time></trkpt><trkpt lat="39.3036333" lon="16.236505"><ele>275.0</ele><time>2026-05-01T09:19:22.979Z</time></trkpt><trkpt lat="39.3038833" lon="16.2365783"><ele>275.0</ele><time>2026-05-01T09:19:23.979Z</time></trkpt><trkpt lat="39.30412" lon="16.2366383"><ele>282.0</ele><time>2026-05-01T09:19:24.979Z</time></trkpt><trkpt lat="39.3043617" lon="16.23669"><ele>289.0</ele><time>2026-05-01T09:19:25.979Z</time></trkpt><trkpt lat="39.3046" lon="16.23675"><ele>275.0</ele><time>2026-05-01T09:19:26.98Z</time></trkpt><trkpt lat="39.3033574" lon="16.2364704"><ele>274.0</ele><time>2026-05-01T09:19:39.273Z</time></trkpt><trkpt lat="39.30853" lon="16.2381033"><ele>275.0</ele><time>2026-05-01T09:19:44.978Z</time></trkpt><trkpt lat="39.3087033" lon="16.2381917"><ele>276.0</ele><time>2026-05-01T09:19:45.978Z</time></trkpt><trkpt lat="39.3088817" lon="16.23828"><ele>277.0</ele><time>2026-05-01T09:19:46.978Z</time></trkpt><trkpt lat="39.30906" lon="16.2383367"><ele>273.66666666666663</ele><time>2026-05-01T09:19:47.978Z</time></trkpt><trkpt lat="39.3092333" lon="16.2383833"><ele>270.3333333333333</ele><time>2026-05-01T09:19:48.978Z</time></trkpt><trkpt lat="39.3094183" lon="16.2384383"><ele>267.0</ele><time>2026-05-01T09:19:49.979Z</time></trkpt><trkpt lat="39.3096033" lon="16.2384933"><ele>263.3333333333333</ele><time>2026-05-01T09:19:50.979Z</time></trkpt><trkpt lat="39.3097883" lon="16.2385517"><ele>259.66666666666663</ele><time>2026-05-01T09:19:51.978Z</time></trkpt><trkpt lat="39.3099783" lon="16.238615"><ele>256.0</ele><time>2026-05-01T09:19:52.978Z</time></trkpt><trkpt lat="39.31016" lon="16.2386783"><ele>256.0</ele><time>2026-05-01T09:19:53.978Z</time></trkpt><trkpt lat="39.31036" lon="16.2387433"><ele>256.0</ele><time>2026-05-01T09:19:54.978Z</time></trkpt><trkpt lat="39.3105633" lon="16.2388083"><ele>256.0</ele><time>2026-05-01T09:19:55.979Z</time></trkpt><trkpt lat="39.3107783" lon="16.2388717"><ele>256.3333333333333</ele><time>2026-05-01T09:19:56.979Z</time></trkpt><trkpt lat="39.310985" lon="16.238935"><ele>256.6666666666667</ele><time>2026-05-01T09:19:57.978Z</time></trkpt><trkpt lat="39.3111967" lon="16.2390117"><ele>257.0</ele><time>2026-05-01T09:19:58.978Z</time></trkpt><trkpt lat="39.3114" lon="16.2391067"><ele>254.0</ele><time>2026-05-01T09:19:59.978Z</time></trkpt><trkpt lat="39.3116017" lon="16.2391917"><ele>251.0</ele><time>2026-05-01T09:20:00.978Z</time></trkpt><trkpt lat="39.3118133" lon="16.2392833"><ele>248.0</ele><time>2026-05-01T09:20:01.978Z</time></trkpt><trkpt lat="39.3120133" lon="16.2393783"><ele>248.0</ele><time>2026-05-01T09:20:02.978Z</time></trkpt><trkpt lat="39.3122167" lon="16.2394917"><ele>248.0</ele><time>2026-05-01T09:20:03.978Z</time></trkpt><trkpt lat="39.3124067" lon="16.2396033"><ele>248.0</ele><time>2026-05-01T09:20:04.978Z</time></trkpt><trkpt lat="39.3125917" lon="16.23971"><ele>248.0</ele><time>2026-05-01T09:20:05.978Z</time></trkpt><trkpt lat="39.3127717" lon="16.239815"><ele>248.0</ele><time>2026-05-01T09:20:06.979Z</time></trkpt><trkpt lat="39.312945" lon="16.23992"><ele>248.0</ele><time>2026-05-01T09:20:07.978Z</time></trkpt><trkpt lat="39.3131083" lon="16.24003"><ele>243.0</ele><time>2026-05-01T09:20:08.978Z</time></trkpt><trkpt lat="39.3132733" lon="16.2401533"><ele>238.0</ele><time>2026-05-01T09:20:09.979Z</time></trkpt><trkpt lat="39.313445" lon="16.2402633"><ele>233.0</ele><time>2026-05-01T09:20:10.978Z</time></trkpt><trkpt lat="39.3136083" lon="16.240375"><ele>233.0</ele><time>2026-05-01T09:20:11.978Z</time></trkpt><trkpt lat="39.31378" lon="16.240485"><ele>233.0</ele><time>2026-05-01T09:20:12.978Z</time></trkpt><trkpt lat="39.3139533" lon="16.2405917"><ele>233.0</ele><time>2026-05-01T09:20:13.978Z</time></trkpt><trkpt lat="39.31413" lon="16.2406983"><ele>232.33333333333334</ele><time>2026-05-01T09:20:14.979Z</time></trkpt><trkpt lat="39.3143117" lon="16.2408017"><ele>231.66666666666669</ele><time>2026-05-01T09:20:15.979Z</time></trkpt><trkpt lat="39.314495" lon="16.2409"><ele>231.0</ele><time>2026-05-01T09:20:16.979Z</time></trkpt><trkpt lat="39.3146817" lon="16.24099"><ele>226.66666666666669</ele><time>2026-05-01T09:20:17.979Z</time></trkpt><trkpt lat="39.314865" lon="16.2410733"><ele>222.33333333333334</ele><time>2026-05-01T09:20:18.979Z</time></trkpt><trkpt lat="39.3150467" lon="16.2411483"><ele>218.0</ele><time>2026-05-01T09:20:19.978Z</time></trkpt><trkpt lat="39.3152267" lon="16.2412167"><ele>218.0</ele><time>2026-05-01T09:20:20.978Z</time></trkpt><trkpt lat="39.3154067" lon="16.2412783"><ele>218.0</ele><time>2026-05-01T09:20:21.979Z</time></trkpt><trkpt lat="39.3155883" lon="16.2413367"><ele>218.0</ele><time>2026-05-01T09:20:22.978Z</time></trkpt><trkpt lat="39.3157717" lon="16.241385"><ele>216.66666666666669</ele><time>2026-05-01T09:20:23.979Z</time></trkpt><trkpt lat="39.3159467" lon="16.2414283"><ele>215.33333333333331</ele><time>2026-05-01T09:20:24.978Z</time></trkpt><trkpt lat="39.3161267" lon="16.2414633"><ele>214.0</ele><time>2026-05-01T09:20:25.979Z</time></trkpt><trkpt lat="39.316305" lon="16.24149"><ele>213.66666666666666</ele><time>2026-05-01T09:20:26.978Z</time></trkpt><trkpt lat="39.3164817" lon="16.2415083"><ele>213.33333333333331</ele><time>2026-05-01T09:20:27.978Z</time></trkpt><trkpt lat="39.3166583" lon="16.2415167"><ele>213.0</ele><time>2026-05-01T09:20:28.978Z</time></trkpt><trkpt lat="39.3168317" lon="16.2415233"><ele>213.0</ele><time>2026-05-01T09:20:29.979Z</time></trkpt><trkpt lat="39.3170067" lon="16.2415317"><ele>213.0</ele><time>2026-05-01T09:20:30.978Z</time></trkpt><trkpt lat="39.3171833" lon="16.241525"><ele>213.0</ele><time>2026-05-01T09:20:31.978Z</time></trkpt><trkpt lat="39.31736" lon="16.2415083"><ele>212.33333333333331</ele><time>2026-05-01T09:20:32.978Z</time></trkpt><trkpt lat="39.3175333" lon="16.2414967"><ele>211.66666666666666</ele><time>2026-05-01T09:20:33.979Z</time></trkpt><trkpt lat="39.317705" lon="16.2414733"><ele>211.0</ele><time>2026-05-01T09:20:34.978Z</time></trkpt><trkpt lat="39.3178783" lon="16.2414467"><ele>210.66666666666666</ele><time>2026-05-01T09:20:35.978Z</time></trkpt><trkpt lat="39.31805" lon="16.241415"><ele>210.33333333333331</ele><time>2026-05-01T09:20:36.978Z</time></trkpt><trkpt lat="39.3182217" lon="16.2413783"><ele>210.0</ele><time>2026-05-01T09:20:37.978Z</time></trkpt><trkpt lat="39.3183933" lon="16.2413383"><ele>209.66666666666669</ele><time>2026-05-01T09:20:38.978Z</time></trkpt><trkpt lat="39.3185583" lon="16.2412933"><ele>209.33333333333334</ele><time>2026-05-01T09:20:39.978Z</time></trkpt><trkpt lat="39.31871" lon="16.241245"><ele>209.0</ele><time>2026-05-01T09:20:40.979Z</time></trkpt><trkpt lat="39.318855" lon="16.2411983"><ele>209.75</ele><time>2026-05-01T09:20:41.979Z</time></trkpt><trkpt lat="39.318995" lon="16.2411517"><ele>210.5</ele><time>2026-05-01T09:20:42.979Z</time></trkpt><trkpt lat="39.3191433" lon="16.2411017"><ele>211.25</ele><time>2026-05-01T09:20:43.978Z</time></trkpt><trkpt lat="39.3192883" lon="16.2410467"><ele>212.0</ele><time>2026-05-01T09:20:44.978Z</time></trkpt><trkpt lat="39.3194367" lon="16.2409883"><ele>212.0</ele><time>2026-05-01T09:20:45.978Z</time></trkpt><trkpt lat="39.319585" lon="16.24093"><ele>212.0</ele><time>2026-05-01T09:20:46.979Z</time></trkpt><trkpt lat="39.3197317" lon="16.2408733"><ele>212.0</ele><time>2026-05-01T09:20:47.979Z</time></trkpt><trkpt lat="39.3198817" lon="16.24081"><ele>211.66666666666669</ele><time>2026-05-01T09:20:48.979Z</time></trkpt><trkpt lat="39.3200417" lon="16.2407433"><ele>211.33333333333331</ele><time>2026-05-01T09:20:49.978Z</time></trkpt><trkpt lat="39.320205" lon="16.2406783"><ele>211.0</ele><time>2026-05-01T09:20:50.978Z</time></trkpt><trkpt lat="39.32037" lon="16.2406133"><ele>211.0</ele><time>2026-05-01T09:20:51.978Z</time></trkpt><trkpt lat="39.3205433" lon="16.24055"><ele>211.0</ele><time>2026-05-01T09:20:52.978Z</time></trkpt><trkpt lat="39.320725" lon="16.2404833"><ele>211.0</ele><time>2026-05-01T09:20:53.978Z</time></trkpt><trkpt lat="39.32091" lon="16.240415"><ele>211.66666666666666</ele><time>2026-05-01T09:20:54.978Z</time></trkpt><trkpt lat="39.3210967" lon="16.240345"><ele>212.33333333333331</ele><time>2026-05-01T09:20:55.978Z</time></trkpt><trkpt lat="39.3212883" lon="16.24028"><ele>213.0</ele><time>2026-05-01T09:20:56.978Z</time></trkpt><trkpt lat="39.321475" lon="16.2402117"><ele>213.66666666666669</ele><time>2026-05-01T09:20:57.978Z</time></trkpt><trkpt lat="39.321665" lon="16.2401533"><ele>214.33333333333334</ele><time>2026-05-01T09:20:58.979Z</time></trkpt><trkpt lat="39.3218617" lon="16.2401017"><ele>215.0</ele><time>2026-05-01T09:20:59.978Z</time></trkpt><trkpt lat="39.3220567" lon="16.2400533"><ele>215.66666666666669</ele><time>2026-05-01T09:21:00.979Z</time></trkpt><trkpt lat="39.3222467" lon="16.24001"><ele>216.33333333333331</ele><time>2026-05-01T09:21:01.978Z</time></trkpt><trkpt lat="39.322445" lon="16.2399617"><ele>217.0</ele><time>2026-05-01T09:21:02.978Z</time></trkpt><trkpt lat="39.322645" lon="16.239925"><ele>217.0</ele><time>2026-05-01T09:21:03.979Z</time></trkpt><trkpt lat="39.3228567" lon="16.239895"><ele>217.0</ele><time>2026-05-01T09:21:04.978Z</time></trkpt><trkpt lat="39.323055" lon="16.23987"><ele>217.0</ele><time>2026-05-01T09:21:05.979Z</time></trkpt><trkpt lat="39.32325" lon="16.23985"><ele>216.66666666666666</ele><time>2026-05-01T09:21:06.978Z</time></trkpt><trkpt lat="39.3234483" lon="16.2398333"><ele>216.33333333333331</ele><time>2026-05-01T09:21:07.979Z</time></trkpt><trkpt lat="39.323665" lon="16.2398167"><ele>216.0</ele><time>2026-05-01T09:21:08.978Z</time></trkpt><trkpt lat="39.3238767" lon="16.23981"><ele>217.0</ele><time>2026-05-01T09:21:09.978Z</time></trkpt><trkpt lat="39.3241017" lon="16.239805"><ele>218.0</ele><time>2026-05-01T09:21:10.978Z</time></trkpt><trkpt lat="39.3242917" lon="16.2398117"><ele>219.0</ele><time>2026-05-01T09:21:11.978Z</time></trkpt><trkpt lat="39.32451" lon="16.2398017"><ele>219.0</ele><time>2026-05-01T09:21:12.978Z</time></trkpt><trkpt lat="39.3247133" lon="16.2398033"><ele>219.0</ele><time>2026-05-01T09:21:13.979Z</time></trkpt><trkpt lat="39.3249017" lon="16.2398133"><ele>219.0</ele><time>2026-05-01T09:21:14.978Z</time></trkpt><trkpt lat="39.3251183" lon="16.2398183"><ele>219.33333333333331</ele><time>2026-05-01T09:21:15.978Z</time></trkpt><trkpt lat="39.3253367" lon="16.239825"><ele>219.66666666666666</ele><time>2026-05-01T09:21:16.979Z</time></trkpt><trkpt lat="39.3255567" lon="16.23982"><ele>220.0</ele><time>2026-05-01T09:21:17.978Z</time></trkpt><trkpt lat="39.325775" lon="16.2398233"><ele>220.0</ele><time>2026-05-01T09:21:18.979Z</time></trkpt><trkpt lat="39.32599" lon="16.2398183"><ele>220.0</ele><time>2026-05-01T09:21:19.978Z</time></trkpt><trkpt lat="39.326205" lon="16.23982"><ele>220.0</ele><time>2026-05-01T09:21:20.978Z</time></trkpt><trkpt lat="39.3264183" lon="16.239815"><ele>219.33333333333331</ele><time>2026-05-01T09:21:21.978Z</time></trkpt><trkpt lat="39.326635" lon="16.239815"><ele>218.66666666666669</ele><time>2026-05-01T09:21:22.978Z</time></trkpt><trkpt lat="39.3268533" lon="16.2398017"><ele>218.0</ele><time>2026-05-01T09:21:23.979Z</time></trkpt><trkpt lat="39.3270767" lon="16.23978"><ele>218.33333333333334</ele><time>2026-05-01T09:21:24.978Z</time></trkpt><trkpt lat="39.3272983" lon="16.2397567"><ele>218.66666666666669</ele><time>2026-05-01T09:21:25.979Z</time></trkpt><trkpt lat="39.3275167" lon="16.23973"><ele>219.0</ele><time>2026-05-01T09:21:26.979Z</time></trkpt><trkpt lat="39.3277433" lon="16.2396867"><ele>219.0</ele><time>2026-05-01T09:21:27.978Z</time></trkpt><trkpt lat="39.3279583" lon="16.23963"><ele>219.0</ele><time>2026-05-01T09:21:28.978Z</time></trkpt><trkpt lat="39.3281733" lon="16.239575"><ele>219.0</ele><time>2026-05-01T09:21:29.978Z</time></trkpt><trkpt lat="39.3283917" lon="16.2395117"><ele>218.33333333333331</ele><time>2026-05-01T09:21:30.978Z</time></trkpt><trkpt lat="39.3286083" lon="16.2394467"><ele>217.66666666666666</ele><time>2026-05-01T09:21:31.979Z</time></trkpt><trkpt lat="39.3288283" lon="16.23938"><ele>217.0</ele><time>2026-05-01T09:21:32.978Z</time></trkpt><trkpt lat="39.32905" lon="16.2393183"><ele>216.5</ele><time>2026-05-01T09:21:33.979Z</time></trkpt><trkpt lat="39.3292717" lon="16.2392317"><ele>216.0</ele><time>2026-05-01T09:21:34.979Z</time></trkpt><trkpt lat="39.3294833" lon="16.2391467"><ele>216.0</ele><time>2026-05-01T09:21:35.978Z</time></trkpt><trkpt lat="39.329695" lon="16.2390617"><ele>216.0</ele><time>2026-05-01T09:21:36.979Z</time></trkpt><trkpt lat="39.3299083" lon="16.23897"><ele>216.0</ele><time>2026-05-01T09:21:37.978Z</time></trkpt><trkpt lat="39.3301167" lon="16.23888"><ele>215.66666666666669</ele><time>2026-05-01T09:21:38.979Z</time></trkpt><trkpt lat="39.3303117" lon="16.2387917"><ele>215.33333333333334</ele><time>2026-05-01T09:21:39.978Z</time></trkpt><trkpt lat="39.3305233" lon="16.2387083"><ele>215.0</ele><time>2026-05-01T09:21:40.979Z</time></trkpt><trkpt lat="39.330725" lon="16.2386267"><ele>214.33333333333334</ele><time>2026-05-01T09:21:41.979Z</time></trkpt><trkpt lat="39.3309217" lon="16.23854"><ele>213.66666666666669</ele><time>2026-05-01T09:21:42.978Z</time></trkpt><trkpt lat="39.3311133" lon="16.238465"><ele>213.0</ele><time>2026-05-01T09:21:43.978Z</time></trkpt><trkpt lat="39.331305" lon="16.2383833"><ele>212.0</ele><time>2026-05-01T09:21:44.979Z</time></trkpt><trkpt lat="39.331495" lon="16.2383017"><ele>211.0</ele><time>2026-05-01T09:21:45.979Z</time></trkpt><trkpt lat="39.3316883" lon="16.2382217"><ele>210.0</ele><time>2026-05-01T09:21:46.978Z</time></trkpt><trkpt lat="39.3318717" lon="16.2381433"><ele>210.0</ele><time>2026-05-01T09:21:47.979Z</time></trkpt><trkpt lat="39.3320667" lon="16.2380683"><ele>210.0</ele><time>2026-05-01T09:21:48.978Z</time></trkpt><trkpt lat="39.3322583" lon="16.2379883"><ele>210.0</ele><time>2026-05-01T09:21:49.979Z</time></trkpt><trkpt lat="39.3324633" lon="16.237905"><ele>209.0</ele><time>2026-05-01T09:21:50.978Z</time></trkpt><trkpt lat="39.3326633" lon="16.2378233"><ele>208.0</ele><time>2026-05-01T09:21:51.978Z</time></trkpt><trkpt lat="39.3328583" lon="16.2377433"><ele>207.0</ele><time>2026-05-01T09:21:52.978Z</time></trkpt><trkpt lat="39.3330367" lon="16.237665"><ele>206.33333333333331</ele><time>2026-05-01T09:21:53.978Z</time></trkpt><trkpt lat="39.33321" lon="16.2375917"><ele>205.66666666666666</ele><time>2026-05-01T09:21:54.978Z</time></trkpt><trkpt lat="39.33339" lon="16.2375183"><ele>205.0</ele><time>2026-05-01T09:21:55.978Z</time></trkpt><trkpt lat="39.3335717" lon="16.23744"><ele>205.0</ele><time>2026-05-01T09:21:56.978Z</time></trkpt><trkpt lat="39.333745" lon="16.237365"><ele>205.0</ele><time>2026-05-01T09:21:57.979Z</time></trkpt><trkpt lat="39.3339133" lon="16.237295"><ele>205.0</ele><time>2026-05-01T09:21:58.978Z</time></trkpt><trkpt lat="39.33408" lon="16.2372217"><ele>203.66666666666666</ele><time>2026-05-01T09:21:59.979Z</time></trkpt><trkpt lat="39.3342517" lon="16.237155"><ele>202.33333333333331</ele><time>2026-05-01T09:22:00.979Z</time></trkpt><trkpt lat="39.3344283" lon="16.2370833"><ele>201.0</ele><time>2026-05-01T09:22:01.978Z</time></trkpt><trkpt lat="39.3346033" lon="16.237015"><ele>200.33333333333331</ele><time>2026-05-01T09:22:02.979Z</time></trkpt><trkpt lat="39.3347733" lon="16.2369417"><ele>199.66666666666666</ele><time>2026-05-01T09:22:03.978Z</time></trkpt><trkpt lat="39.3349467" lon="16.2368667"><ele>199.0</ele><time>2026-05-01T09:22:04.979Z</time></trkpt><trkpt lat="39.33513" lon="16.236795"><ele>199.0</ele><time>2026-05-01T09:22:05.978Z</time></trkpt><trkpt lat="39.3353117" lon="16.236725"><ele>199.0</ele><time>2026-05-01T09:22:06.979Z</time></trkpt><trkpt lat="39.3354883" lon="16.236645"><ele>199.0</ele><time>2026-05-01T09:22:07.978Z</time></trkpt><trkpt lat="39.3356783" lon="16.23656"><ele>198.33333333333331</ele><time>2026-05-01T09:22:08.978Z</time></trkpt><trkpt lat="39.3358783" lon="16.23647"><ele>197.66666666666669</ele><time>2026-05-01T09:22:09.978Z</time></trkpt><trkpt lat="39.3360717" lon="16.2363867"><ele>197.0</ele><time>2026-05-01T09:22:10.978Z</time></trkpt><trkpt lat="39.3362617" lon="16.2363033"><ele>196.0</ele><time>2026-05-01T09:22:11.978Z</time></trkpt><trkpt lat="39.33646" lon="16.2362233"><ele>195.0</ele><time>2026-05-01T09:22:12.978Z</time></trkpt><trkpt lat="39.336645" lon="16.23614"><ele>194.0</ele><time>2026-05-01T09:22:13.979Z</time></trkpt><trkpt lat="39.3368433" lon="16.2360533"><ele>194.0</ele><time>2026-05-01T09:22:14.978Z</time></trkpt><trkpt lat="39.3370433" lon="16.235975"><ele>194.0</ele><time>2026-05-01T09:22:15.979Z</time></trkpt><trkpt lat="39.3372383" lon="16.235895"><ele>194.0</ele><time>2026-05-01T09:22:16.979Z</time></trkpt><trkpt lat="39.3374333" lon="16.23581"><ele>194.33333333333334</ele><time>2026-05-01T09:22:17.978Z</time></trkpt><trkpt lat="39.3376367" lon="16.2357267"><ele>194.66666666666669</ele><time>2026-05-01T09:22:18.978Z</time></trkpt><trkpt lat="39.3378417" lon="16.2356417"><ele>195.0</ele><time>2026-05-01T09:22:19.979Z</time></trkpt><trkpt lat="39.3380467" lon="16.2355583"><ele>194.0</ele><time>2026-05-01T09:22:20.978Z</time></trkpt><trkpt lat="39.3382467" lon="16.235475"><ele>193.0</ele><time>2026-05-01T09:22:21.979Z</time></trkpt><trkpt lat="39.338435" lon="16.2353933"><ele>192.0</ele><time>2026-05-01T09:22:22.978Z</time></trkpt><trkpt lat="39.3386167" lon="16.235325"><ele>192.0</ele><time>2026-05-01T09:22:23.978Z</time></trkpt><trkpt lat="39.3387817" lon="16.2352633"><ele>192.0</ele><time>2026-05-01T09:22:24.979Z</time></trkpt><trkpt lat="39.33893" lon="16.2352"><ele>192.0</ele><time>2026-05-01T09:22:25.978Z</time></trkpt><trkpt lat="39.3390767" lon="16.2351467"><ele>192.33333333333331</ele><time>2026-05-01T09:22:26.978Z</time></trkpt><trkpt lat="39.3392283" lon="16.2350917"><ele>192.66666666666666</ele><time>2026-05-01T09:22:27.978Z</time></trkpt><trkpt lat="39.3393733" lon="16.2350417"><ele>193.0</ele><time>2026-05-01T09:22:28.978Z</time></trkpt><trkpt lat="39.3395317" lon="16.234985"><ele>193.0</ele><time>2026-05-01T09:22:29.978Z</time></trkpt><trkpt lat="39.3396867" lon="16.2349417"><ele>193.0</ele><time>2026-05-01T09:22:30.979Z</time></trkpt><trkpt lat="39.3398467" lon="16.2348983"><ele>193.0</ele><time>2026-05-01T09:22:31.979Z</time></trkpt><trkpt lat="39.3400033" lon="16.234855"><ele>193.0</ele><time>2026-05-01T09:22:32.978Z</time></trkpt><trkpt lat="39.3401517" lon="16.23482"><ele>193.0</ele><time>2026-05-01T09:22:33.978Z</time></trkpt><trkpt lat="39.3403133" lon="16.2347917"><ele>193.0</ele><time>2026-05-01T09:22:34.979Z</time></trkpt><trkpt lat="39.3404817" lon="16.2347633"><ele>194.66666666666666</ele><time>2026-05-01T09:22:35.979Z</time></trkpt><trkpt lat="39.3406517" lon="16.2347433"><ele>196.33333333333331</ele><time>2026-05-01T09:22:36.979Z</time></trkpt><trkpt lat="39.3408267" lon="16.2347167"><ele>198.0</ele><time>2026-05-01T09:22:37.978Z</time></trkpt><trkpt lat="39.3410017" lon="16.2347117"><ele>198.0</ele><time>2026-05-01T09:22:38.978Z</time></trkpt><trkpt lat="39.3411783" lon="16.234695"><ele>198.0</ele><time>2026-05-01T09:22:39.979Z</time></trkpt><trkpt lat="39.3413533" lon="16.2346833"><ele>198.0</ele><time>2026-05-01T09:22:40.978Z</time></trkpt><trkpt lat="39.3415167" lon="16.2346833"><ele>198.75</ele><time>2026-05-01T09:22:41.978Z</time></trkpt><trkpt lat="39.34167" lon="16.2346817"><ele>199.5</ele><time>2026-05-01T09:22:42.978Z</time></trkpt><trkpt lat="39.34181" lon="16.2346883"><ele>200.25</ele><time>2026-05-01T09:22:43.978Z</time></trkpt><trkpt lat="39.3419483" lon="16.2346917"><ele>201.0</ele><time>2026-05-01T09:22:44.979Z</time></trkpt><trkpt lat="39.3420767" lon="16.2347017"><ele>201.0</ele><time>2026-05-01T09:22:45.979Z</time></trkpt><trkpt lat="39.342205" lon="16.23472"><ele>201.0</ele><time>2026-05-01T09:22:46.979Z</time></trkpt><trkpt lat="39.3423317" lon="16.2347467"><ele>201.0</ele><time>2026-05-01T09:22:47.979Z</time></trkpt><trkpt lat="39.3424583" lon="16.2347717"><ele>201.0</ele><time>2026-05-01T09:22:48.978Z</time></trkpt><trkpt lat="39.3425883" lon="16.2348017"><ele>200.75</ele><time>2026-05-01T09:22:49.979Z</time></trkpt><trkpt lat="39.3427117" lon="16.23483"><ele>200.5</ele><time>2026-05-01T09:22:50.978Z</time></trkpt><trkpt lat="39.3428383" lon="16.234855"><ele>200.25</ele><time>2026-05-01T09:22:51.978Z</time></trkpt><trkpt lat="39.3429517" lon="16.2348683"><ele>200.0</ele><time>2026-05-01T09:22:52.978Z</time></trkpt><trkpt lat="39.3430917" lon="16.2348917"><ele>200.5</ele><time>2026-05-01T09:22:53.978Z</time></trkpt><trkpt lat="39.3432183" lon="16.23493"><ele>201.0</ele><time>2026-05-01T09:22:54.978Z</time></trkpt><trkpt lat="39.3433417" lon="16.2349633"><ele>201.5</ele><time>2026-05-01T09:22:55.979Z</time></trkpt><trkpt lat="39.3434583" lon="16.2349933"><ele>202.0</ele><time>2026-05-01T09:22:56.978Z</time></trkpt><trkpt lat="39.34357" lon="16.235025"><ele>202.0</ele><time>2026-05-01T09:22:57.978Z</time></trkpt><trkpt lat="39.3436817" lon="16.2350517"><ele>202.0</ele><time>2026-05-01T09:22:58.978Z</time></trkpt><trkpt lat="39.3437933" lon="16.2350867"><ele>202.0</ele><time>2026-05-01T09:22:59.978Z</time></trkpt><trkpt lat="39.343905" lon="16.235115"><ele>202.0</ele><time>2026-05-01T09:23:00.979Z</time></trkpt><trkpt lat="39.3440033" lon="16.2351433"><ele>202.0</ele><time>2026-05-01T09:23:01.978Z</time></trkpt><trkpt lat="39.3440917" lon="16.23517"><ele>201.85714285714286</ele><time>2026-05-01T09:23:02.978Z</time></trkpt><trkpt lat="39.3441667" lon="16.235205"><ele>201.71428571428572</ele><time>2026-05-01T09:23:03.979Z</time></trkpt><trkpt lat="39.344235" lon="16.2352417"><ele>201.57142857142856</ele><time>2026-05-01T09:23:04.978Z</time></trkpt><trkpt lat="39.3442917" lon="16.235285"><ele>201.42857142857144</ele><time>2026-05-01T09:23:05.978Z</time></trkpt><trkpt lat="39.3443483" lon="16.23534"><ele>201.2857142857143</ele><time>2026-05-01T09:23:06.979Z</time></trkpt><trkpt lat="39.3444083" lon="16.2353933"><ele>201.14285714285714</ele><time>2026-05-01T09:23:07.978Z</time></trkpt><trkpt lat="39.3444683" lon="16.2354517"><ele>201.0</ele><time>2026-05-01T09:23:08.978Z</time></trkpt><trkpt lat="39.3445317" lon="16.235495"><ele>201.0</ele><time>2026-05-01T09:23:09.978Z</time></trkpt><trkpt lat="39.3445917" lon="16.235535"><ele>201.0</ele><time>2026-05-01T09:23:10.978Z</time></trkpt><trkpt lat="39.3446533" lon="16.235555"><ele>201.0</ele><time>2026-05-01T09:23:11.978Z</time></trkpt><trkpt lat="39.344715" lon="16.2355733"><ele>201.0</ele><time>2026-05-01T09:23:12.978Z</time></trkpt><trkpt lat="39.3448283" lon="16.23559"><ele>201.0</ele><time>2026-05-01T09:23:14.978Z</time></trkpt><trkpt lat="39.3449017" lon="16.235585"><ele>201.0</ele><time>2026-05-01T09:23:16.978Z</time></trkpt><trkpt lat="39.3449817" lon="16.2355833"><ele>201.0</ele><time>2026-05-01T09:23:19.979Z</time></trkpt><trkpt lat="39.34506" lon="16.2355717"><ele>201.0</ele><time>2026-05-01T09:23:22.978Z</time></trkpt><trkpt lat="39.345135" lon="16.2355583"><ele>201.0</ele><time>2026-05-01T09:23:25.978Z</time></trkpt><trkpt lat="39.3451983" lon="16.2355383"><ele>201.0</ele><time>2026-05-01T09:23:28.979Z</time></trkpt><trkpt lat="39.3452783" lon="16.2355233"><ele>201.0</ele><time>2026-05-01T09:23:31.978Z</time></trkpt><trkpt lat="39.3453517" lon="16.23552"><ele>201.0</ele><time>2026-05-01T09:23:35.978Z</time></trkpt><trkpt lat="39.3453567" lon="16.2356083"><ele>201.0</ele><time>2026-05-01T09:55:47.973Z</time></trkpt><trkpt lat="39.3453967" lon="16.2356883"><ele>200.33333333333334</ele><time>2026-05-01T09:55:51.974Z</time></trkpt><trkpt lat="39.3454867" lon="16.2357033"><ele>199.66666666666669</ele><time>2026-05-01T09:57:49.973Z</time></trkpt><trkpt lat="39.3455717" lon="16.2356817"><ele>199.0</ele><time>2026-05-01T09:57:51.974Z</time></trkpt><trkpt lat="39.345645" lon="16.2356683"><ele>198.33333333333334</ele><time>2026-05-01T09:57:53.973Z</time></trkpt><trkpt lat="39.34573" lon="16.23566"><ele>197.66666666666669</ele><time>2026-05-01T09:57:55.974Z</time></trkpt><trkpt lat="39.3458317" lon="16.23565"><ele>197.0</ele><time>2026-05-01T09:57:57.973Z</time></trkpt><trkpt lat="39.345945" lon="16.23561"><ele>197.00000000000003</ele><time>2026-05-01T09:57:59.973Z</time></trkpt><trkpt lat="39.3460533" lon="16.2355367"><ele>197.0</ele><time>2026-05-01T09:58:01.974Z</time></trkpt><trkpt lat="39.3461117" lon="16.235495"><ele>197.0</ele><time>2026-05-01T09:58:02.973Z</time></trkpt><trkpt lat="39.346175" lon="16.2354483"><ele>197.0</ele><time>2026-05-01T09:58:03.973Z</time></trkpt><trkpt lat="39.3462483" lon="16.2354083"><ele>197.00000000000003</ele><time>2026-05-01T09:58:04.973Z</time></trkpt><trkpt lat="39.3463283" lon="16.23538"><ele>197.0</ele><time>2026-05-01T09:58:05.974Z</time></trkpt><trkpt lat="39.3464167" lon="16.2353517"><ele>196.2</ele><time>2026-05-01T09:58:06.973Z</time></trkpt><trkpt lat="39.34651" lon="16.235335"><ele>195.39999999999998</ele><time>2026-05-01T09:58:07.972Z</time></trkpt><trkpt lat="39.3466067" lon="16.23532"><ele>194.60000000000002</ele><time>2026-05-01T09:58:08.972Z</time></trkpt><trkpt lat="39.3467183" lon="16.23531"><ele>193.8</ele><time>2026-05-01T09:58:09.972Z</time></trkpt><trkpt lat="39.3468367" lon="16.235295"><ele>193.0</ele><time>2026-05-01T09:58:10.973Z</time></trkpt><trkpt lat="39.3469667" lon="16.2352717"><ele>193.0</ele><time>2026-05-01T09:58:11.972Z</time></trkpt><trkpt lat="39.3470983" lon="16.2352383"><ele>193.0</ele><time>2026-05-01T09:58:12.972Z</time></trkpt><trkpt lat="39.34723" lon="16.23522"><ele>193.0</ele><time>2026-05-01T09:58:13.973Z</time></trkpt><trkpt lat="39.3473483" lon="16.235185"><ele>193.0</ele><time>2026-05-01T09:58:14.972Z</time></trkpt><trkpt lat="39.34748" lon="16.2351617"><ele>193.25</ele><time>2026-05-01T09:58:15.973Z</time></trkpt><trkpt lat="39.3476167" lon="16.2351267"><ele>193.5</ele><time>2026-05-01T09:58:16.973Z</time></trkpt><trkpt lat="39.3477567" lon="16.23509"><ele>193.75</ele><time>2026-05-01T09:58:17.972Z</time></trkpt><trkpt lat="39.347895" lon="16.2350517"><ele>194.0</ele><time>2026-05-01T09:58:18.972Z</time></trkpt><trkpt lat="39.3480467" lon="16.235015"><ele>194.0</ele><time>2026-05-01T09:58:19.972Z</time></trkpt><trkpt lat="39.3482117" lon="16.23498"><ele>194.0</ele><time>2026-05-01T09:58:20.972Z</time></trkpt><trkpt lat="39.3483783" lon="16.23494"><ele>194.0</ele><time>2026-05-01T09:58:21.973Z</time></trkpt><trkpt lat="39.348545" lon="16.2348983"><ele>194.0</ele><time>2026-05-01T09:58:22.972Z</time></trkpt><trkpt lat="39.34872" lon="16.234855"><ele>194.0</ele><time>2026-05-01T09:58:23.972Z</time></trkpt><trkpt lat="39.3489033" lon="16.2348017"><ele>194.0</ele><time>2026-05-01T09:58:24.972Z</time></trkpt><trkpt lat="39.349095" lon="16.2347517"><ele>195.0</ele><time>2026-05-01T09:58:25.973Z</time></trkpt><trkpt lat="39.3492917" lon="16.2346967"><ele>196.0</ele><time>2026-05-01T09:58:26.972Z</time></trkpt><trkpt lat="39.3494917" lon="16.2346367"><ele>197.0</ele><time>2026-05-01T09:58:27.972Z</time></trkpt><trkpt lat="39.3496867" lon="16.234585"><ele>196.66666666666669</ele><time>2026-05-01T09:58:28.972Z</time></trkpt><trkpt lat="39.3498833" lon="16.2345283"><ele>196.33333333333331</ele><time>2026-05-01T09:58:29.973Z</time></trkpt><trkpt lat="39.35008" lon="16.234475"><ele>196.0</ele><time>2026-05-01T09:58:30.973Z</time></trkpt><trkpt lat="39.3502617" lon="16.2344133"><ele>196.0</ele><time>2026-05-01T09:58:31.973Z</time></trkpt><trkpt lat="39.350445" lon="16.2343583"><ele>196.0</ele><time>2026-05-01T09:58:32.973Z</time></trkpt><trkpt lat="39.35063" lon="16.2343133"><ele>196.0</ele><time>2026-05-01T09:58:33.972Z</time></trkpt><trkpt lat="39.350815" lon="16.2342733"><ele>196.0</ele><time>2026-05-01T09:58:34.973Z</time></trkpt><trkpt lat="39.3510017" lon="16.2342317"><ele>196.0</ele><time>2026-05-01T09:58:35.972Z</time></trkpt><trkpt lat="39.351195" lon="16.23419"><ele>196.0</ele><time>2026-05-01T09:58:36.972Z</time></trkpt><trkpt lat="39.351385" lon="16.2341483"><ele>196.66666666666666</ele><time>2026-05-01T09:58:37.972Z</time></trkpt><trkpt lat="39.35158" lon="16.2341"><ele>197.33333333333331</ele><time>2026-05-01T09:58:38.973Z</time></trkpt><trkpt lat="39.35177" lon="16.2340567"><ele>198.0</ele><time>2026-05-01T09:58:39.972Z</time></trkpt><trkpt lat="39.3519617" lon="16.234015"><ele>198.0</ele><time>2026-05-01T09:58:40.972Z</time></trkpt><trkpt lat="39.35215" lon="16.233975"><ele>198.0</ele><time>2026-05-01T09:58:41.972Z</time></trkpt><trkpt lat="39.3523433" lon="16.2339417"><ele>198.0</ele><time>2026-05-01T09:58:42.972Z</time></trkpt><trkpt lat="39.3525317" lon="16.233915"><ele>197.33333333333331</ele><time>2026-05-01T09:58:43.972Z</time></trkpt><trkpt lat="39.3527217" lon="16.2338867"><ele>196.66666666666666</ele><time>2026-05-01T09:58:44.973Z</time></trkpt><trkpt lat="39.352905" lon="16.233865"><ele>196.0</ele><time>2026-05-01T09:58:45.973Z</time></trkpt><trkpt lat="39.35309" lon="16.23384"><ele>196.0</ele><time>2026-05-01T09:58:46.973Z</time></trkpt><trkpt lat="39.3532733" lon="16.2338183"><ele>196.0</ele><time>2026-05-01T09:58:47.973Z</time></trkpt><trkpt lat="39.35346" lon="16.2338033"><ele>196.0</ele><time>2026-05-01T09:58:48.972Z</time></trkpt><trkpt lat="39.3536483" lon="16.2337833"><ele>196.0</ele><time>2026-05-01T09:58:49.972Z</time></trkpt><trkpt lat="39.3538483" lon="16.2337633"><ele>196.0</ele><time>2026-05-01T09:58:50.973Z</time></trkpt><trkpt lat="39.3540567" lon="16.2337483"><ele>196.0</ele><time>2026-05-01T09:58:51.972Z</time></trkpt><trkpt lat="39.3542617" lon="16.2337383"><ele>196.0</ele><time>2026-05-01T09:58:52.972Z</time></trkpt><trkpt lat="39.3544667" lon="16.2337317"><ele>196.0</ele><time>2026-05-01T09:58:53.972Z</time></trkpt><trkpt lat="39.3546733" lon="16.2337233"><ele>196.0</ele><time>2026-05-01T09:58:54.973Z</time></trkpt><trkpt lat="39.3548833" lon="16.2337117"><ele>196.0</ele><time>2026-05-01T09:58:55.972Z</time></trkpt><trkpt lat="39.355095" lon="16.2337"><ele>196.0</ele><time>2026-05-01T09:58:56.973Z</time></trkpt><trkpt lat="39.35532" lon="16.233695"><ele>196.0</ele><time>2026-05-01T09:58:57.973Z</time></trkpt><trkpt lat="39.3555383" lon="16.2336883"><ele>198.5</ele><time>2026-05-01T09:58:58.973Z</time></trkpt><trkpt lat="39.35576" lon="16.2336817"><ele>201.0</ele><time>2026-05-01T09:58:59.973Z</time></trkpt><trkpt lat="39.35599" lon="16.2336717"><ele>201.0</ele><time>2026-05-01T09:59:00.973Z</time></trkpt><trkpt lat="39.35622" lon="16.23366"><ele>201.0</ele><time>2026-05-01T09:59:01.972Z</time></trkpt><trkpt lat="39.3564567" lon="16.2336617"><ele>201.5</ele><time>2026-05-01T09:59:02.972Z</time></trkpt><trkpt lat="39.3567017" lon="16.233655"><ele>202.0</ele><time>2026-05-01T09:59:03.973Z</time></trkpt><trkpt lat="39.35694" lon="16.2336483"><ele>202.0</ele><time>2026-05-01T09:59:04.973Z</time></trkpt><trkpt lat="39.3571683" lon="16.23365"><ele>202.0</ele><time>2026-05-01T09:59:05.973Z</time></trkpt><trkpt lat="39.3573933" lon="16.2336417"><ele>199.5</ele><time>2026-05-01T09:59:06.972Z</time></trkpt><trkpt lat="39.3576133" lon="16.2336433"><ele>197.0</ele><time>2026-05-01T09:59:07.972Z</time></trkpt><trkpt lat="39.357845" lon="16.2336417"><ele>195.5</ele><time>2026-05-01T09:59:08.972Z</time></trkpt><trkpt lat="39.3580783" lon="16.2336433"><ele>194.0</ele><time>2026-05-01T09:59:09.972Z</time></trkpt><trkpt lat="39.358315" lon="16.23365"><ele>194.0</ele><time>2026-05-01T09:59:10.972Z</time></trkpt><trkpt lat="39.3585467" lon="16.233655"><ele>194.0</ele><time>2026-05-01T09:59:11.972Z</time></trkpt><trkpt lat="39.3587883" lon="16.2336617"><ele>190.5</ele><time>2026-05-01T09:59:12.973Z</time></trkpt><trkpt lat="39.359025" lon="16.2336767"><ele>187.0</ele><time>2026-05-01T09:59:13.972Z</time></trkpt><trkpt lat="39.3592633" lon="16.2336967"><ele>187.0</ele><time>2026-05-01T09:59:14.972Z</time></trkpt><trkpt lat="39.3595" lon="16.2337267"><ele>187.0</ele><time>2026-05-01T09:59:15.972Z</time></trkpt><trkpt lat="39.3597333" lon="16.2337617"><ele>187.0</ele><time>2026-05-01T09:59:16.972Z</time></trkpt><trkpt lat="39.35997" lon="16.2338017"><ele>187.0</ele><time>2026-05-01T09:59:17.972Z</time></trkpt><trkpt lat="39.3602067" lon="16.23385"><ele>187.0</ele><time>2026-05-01T09:59:18.973Z</time></trkpt><trkpt lat="39.3604467" lon="16.2339017"><ele>187.0</ele><time>2026-05-01T09:59:19.973Z</time></trkpt><trkpt lat="39.3606917" lon="16.2339583"><ele>185.5</ele><time>2026-05-01T09:59:20.972Z</time></trkpt><trkpt lat="39.3609333" lon="16.23402"><ele>184.0</ele><time>2026-05-01T09:59:21.972Z</time></trkpt><trkpt lat="39.3611667" lon="16.2340883"><ele>183.5</ele><time>2026-05-01T09:59:22.973Z</time></trkpt><trkpt lat="39.361405" lon="16.23417"><ele>183.0</ele><time>2026-05-01T09:59:23.973Z</time></trkpt><trkpt lat="39.3616467" lon="16.2342483"><ele>183.0</ele><time>2026-05-01T09:59:24.972Z</time></trkpt><trkpt lat="39.3618833" lon="16.2343317"><ele>183.0</ele><time>2026-05-01T09:59:25.972Z</time></trkpt><trkpt lat="39.3621183" lon="16.2344233"><ele>183.5</ele><time>2026-05-01T09:59:26.972Z</time></trkpt><trkpt lat="39.3623517" lon="16.2345167"><ele>184.0</ele><time>2026-05-01T09:59:27.972Z</time></trkpt><trkpt lat="39.36259" lon="16.234615"><ele>184.0</ele><time>2026-05-01T09:59:28.972Z</time></trkpt><trkpt lat="39.3628283" lon="16.2347183"><ele>184.0</ele><time>2026-05-01T09:59:29.972Z</time></trkpt><trkpt lat="39.36307" lon="16.2348167"><ele>180.5</ele><time>2026-05-01T09:59:30.972Z</time></trkpt><trkpt lat="39.3633167" lon="16.23492"><ele>177.0</ele><time>2026-05-01T09:59:31.972Z</time></trkpt><trkpt lat="39.363565" lon="16.2350183"><ele>177.0</ele><time>2026-05-01T09:59:32.972Z</time></trkpt><trkpt lat="39.3638033" lon="16.2351183"><ele>177.0</ele><time>2026-05-01T09:59:33.972Z</time></trkpt><trkpt lat="39.3640517" lon="16.2352133"><ele>178.5</ele><time>2026-05-01T09:59:34.972Z</time></trkpt><trkpt lat="39.3642933" lon="16.235315"><ele>180.0</ele><time>2026-05-01T09:59:35.972Z</time></trkpt><trkpt lat="39.3645383" lon="16.2354067"><ele>183.0</ele><time>2026-05-01T09:59:36.973Z</time></trkpt><trkpt lat="39.364785" lon="16.235505"><ele>186.0</ele><time>2026-05-01T09:59:37.972Z</time></trkpt><trkpt lat="39.36503" lon="16.235605"><ele>182.0</ele><time>2026-05-01T09:59:38.972Z</time></trkpt><trkpt lat="39.3652817" lon="16.2357117"><ele>178.0</ele><time>2026-05-01T09:59:39.973Z</time></trkpt><trkpt lat="39.3655283" lon="16.23582"><ele>179.5</ele><time>2026-05-01T09:59:40.972Z</time></trkpt><trkpt lat="39.3657817" lon="16.2359217"><ele>181.0</ele><time>2026-05-01T09:59:41.972Z</time></trkpt><trkpt lat="39.3660333" lon="16.2360233"><ele>181.0</ele><time>2026-05-01T09:59:42.972Z</time></trkpt><trkpt lat="39.36629" lon="16.2361183"><ele>181.0</ele><time>2026-05-01T09:59:43.972Z</time></trkpt><trkpt lat="39.3665517" lon="16.2362"><ele>181.0</ele><time>2026-05-01T09:59:44.972Z</time></trkpt><trkpt lat="39.36681" lon="16.2362817"><ele>181.0</ele><time>2026-05-01T09:59:45.972Z</time></trkpt><trkpt lat="39.3670833" lon="16.23636"><ele>182.5</ele><time>2026-05-01T09:59:46.972Z</time></trkpt><trkpt lat="39.3673483" lon="16.2364167"><ele>184.0</ele><time>2026-05-01T09:59:47.973Z</time></trkpt><trkpt lat="39.3676117" lon="16.2364617"><ele>180.0</ele><time>2026-05-01T09:59:48.972Z</time></trkpt><trkpt lat="39.3678783" lon="16.2364917"><ele>176.0</ele><time>2026-05-01T09:59:49.972Z</time></trkpt><trkpt lat="39.3681433" lon="16.2365117"><ele>176.0</ele><time>2026-05-01T09:59:50.972Z</time></trkpt><trkpt lat="39.368415" lon="16.2365317"><ele>176.0</ele><time>2026-05-01T09:59:51.972Z</time></trkpt><trkpt lat="39.368695" lon="16.236535"><ele>175.5</ele><time>2026-05-01T09:59:52.972Z</time></trkpt><trkpt lat="39.3689717" lon="16.2365383"><ele>175.0</ele><time>2026-05-01T09:59:53.973Z</time></trkpt><trkpt lat="39.3692383" lon="16.236545"><ele>175.0</ele><time>2026-05-01T09:59:54.972Z</time></trkpt><trkpt lat="39.369505" lon="16.23655"><ele>175.0</ele><time>2026-05-01T09:59:55.972Z</time></trkpt><trkpt lat="39.369775" lon="16.2365533"><ele>173.5</ele><time>2026-05-01T09:59:56.972Z</time></trkpt><trkpt lat="39.370055" lon="16.2365617"><ele>172.0</ele><time>2026-05-01T09:59:57.972Z</time></trkpt><trkpt lat="39.3703317" lon="16.23657"><ele>172.5</ele><time>2026-05-01T09:59:58.973Z</time></trkpt><trkpt lat="39.370595" lon="16.2365767"><ele>173.0</ele><time>2026-05-01T09:59:59.973Z</time></trkpt><trkpt lat="39.3708767" lon="16.23657"><ele>173.0</ele><time>2026-05-01T10:00:00.972Z</time></trkpt><trkpt lat="39.371145" lon="16.2365633"><ele>173.0</ele><time>2026-05-01T10:00:01.972Z</time></trkpt><trkpt lat="39.371425" lon="16.2365583"><ele>172.5</ele><time>2026-05-01T10:00:02.972Z</time></trkpt><trkpt lat="39.3717033" lon="16.2365517"><ele>172.0</ele><time>2026-05-01T10:00:03.973Z</time></trkpt><trkpt lat="39.3719767" lon="16.236545"><ele>173.0</ele><time>2026-05-01T10:00:04.972Z</time></trkpt><trkpt lat="39.3722667" lon="16.2365483"><ele>174.0</ele><time>2026-05-01T10:00:05.972Z</time></trkpt><trkpt lat="39.37256" lon="16.2365467"><ele>174.0</ele><time>2026-05-01T10:00:06.972Z</time></trkpt><trkpt lat="39.3728517" lon="16.2365383"><ele>174.0</ele><time>2026-05-01T10:00:07.972Z</time></trkpt><trkpt lat="39.3731417" lon="16.2365383"><ele>173.5</ele><time>2026-05-01T10:00:08.973Z</time></trkpt><trkpt lat="39.37343" lon="16.236535"><ele>173.0</ele><time>2026-05-01T10:00:09.972Z</time></trkpt><trkpt lat="39.37372" lon="16.2365417"><ele>171.0</ele><time>2026-05-01T10:00:10.972Z</time></trkpt><trkpt lat="39.3740083" lon="16.23654"><ele>169.0</ele><time>2026-05-01T10:00:11.973Z</time></trkpt><trkpt lat="39.3743" lon="16.2365383"><ele>169.0</ele><time>2026-05-01T10:00:12.972Z</time></trkpt><trkpt lat="39.3745917" lon="16.2365333"><ele>169.0</ele><time>2026-05-01T10:00:13.972Z</time></trkpt><trkpt lat="39.3748933" lon="16.2365267"><ele>169.5</ele><time>2026-05-01T10:00:14.973Z</time></trkpt><trkpt lat="39.3751867" lon="16.2365267"><ele>170.0</ele><time>2026-05-01T10:00:15.973Z</time></trkpt><trkpt lat="39.3754733" lon="16.2365167"><ele>171.5</ele><time>2026-05-01T10:00:16.972Z</time></trkpt><trkpt lat="39.3757633" lon="16.2365133"><ele>173.0</ele><time>2026-05-01T10:00:17.972Z</time></trkpt><trkpt lat="39.3760533" lon="16.2365083"><ele>173.0</ele><time>2026-05-01T10:00:18.972Z</time></trkpt><trkpt lat="39.3763433" lon="16.236505"><ele>173.0</ele><time>2026-05-01T10:00:19.973Z</time></trkpt><trkpt lat="39.376645" lon="16.236505"><ele>174.0</ele><time>2026-05-01T10:00:20.972Z</time></trkpt><trkpt lat="39.3769383" lon="16.2364983"><ele>175.0</ele><time>2026-05-01T10:00:21.973Z</time></trkpt><trkpt lat="39.3772317" lon="16.2364883"><ele>172.0</ele><time>2026-05-01T10:00:22.972Z</time></trkpt><trkpt lat="39.3775383" lon="16.2364817"><ele>169.0</ele><time>2026-05-01T10:00:23.972Z</time></trkpt><trkpt lat="39.37786" lon="16.2364867"><ele>167.0</ele><time>2026-05-01T10:00:24.972Z</time></trkpt><trkpt lat="39.378175" lon="16.236485"><ele>165.0</ele><time>2026-05-01T10:00:25.973Z</time></trkpt><trkpt lat="39.3784883" lon="16.23648"><ele>165.0</ele><time>2026-05-01T10:00:26.972Z</time></trkpt><trkpt lat="39.378805" lon="16.2364783"><ele>165.0</ele><time>2026-05-01T10:00:27.972Z</time></trkpt><trkpt lat="39.3791183" lon="16.2364733"><ele>164.5</ele><time>2026-05-01T10:00:28.973Z</time></trkpt><trkpt lat="39.3794283" lon="16.2364683"><ele>164.0</ele><time>2026-05-01T10:00:29.972Z</time></trkpt><trkpt lat="39.3797383" lon="16.2364667"><ele>163.0</ele><time>2026-05-01T10:00:30.972Z</time></trkpt><trkpt lat="39.3800467" lon="16.2364617"><ele>162.0</ele><time>2026-05-01T10:00:31.973Z</time></trkpt><trkpt lat="39.3803583" lon="16.2364633"><ele>161.5</ele><time>2026-05-01T10:00:32.972Z</time></trkpt><trkpt lat="39.3806667" lon="16.23646"><ele>161.0</ele><time>2026-05-01T10:00:33.973Z</time></trkpt><trkpt lat="39.3809767" lon="16.2364567"><ele>161.0</ele><time>2026-05-01T10:00:34.973Z</time></trkpt><trkpt lat="39.3812867" lon="16.2364517"><ele>161.0</ele><time>2026-05-01T10:00:35.972Z</time></trkpt><trkpt lat="39.3815983" lon="16.2364533"><ele>161.0</ele><time>2026-05-01T10:00:36.972Z</time></trkpt><trkpt lat="39.381905" lon="16.2364533"><ele>161.0</ele><time>2026-05-01T10:00:37.972Z</time></trkpt><trkpt lat="39.3822233" lon="16.2364567"><ele>160.0</ele><time>2026-05-01T10:00:38.973Z</time></trkpt><trkpt lat="39.382545" lon="16.23647"><ele>159.0</ele><time>2026-05-01T10:00:39.972Z</time></trkpt><trkpt lat="39.3828683" lon="16.2364883"><ele>158.0</ele><time>2026-05-01T10:00:40.972Z</time></trkpt><trkpt lat="39.383175" lon="16.23652"><ele>157.0</ele><time>2026-05-01T10:00:41.972Z</time></trkpt><trkpt lat="39.3834817" lon="16.2365667"><ele>157.0</ele><time>2026-05-01T10:00:42.972Z</time></trkpt><trkpt lat="39.38377" lon="16.23662"><ele>157.0</ele><time>2026-05-01T10:00:43.973Z</time></trkpt><trkpt lat="39.384055" lon="16.2366917"><ele>158.0</ele><time>2026-05-01T10:00:44.972Z</time></trkpt><trkpt lat="39.3843433" lon="16.236775"><ele>159.0</ele><time>2026-05-01T10:00:45.972Z</time></trkpt><trkpt lat="39.3846167" lon="16.2368617"><ele>159.0</ele><time>2026-05-01T10:00:46.972Z</time></trkpt><trkpt lat="39.3848817" lon="16.236965"><ele>159.0</ele><time>2026-05-01T10:00:47.972Z</time></trkpt><trkpt lat="39.3851417" lon="16.2370767"><ele>159.0</ele><time>2026-05-01T10:00:48.972Z</time></trkpt><trkpt lat="39.3854" lon="16.237195"><ele>159.0</ele><time>2026-05-01T10:00:49.973Z</time></trkpt><trkpt lat="39.38565" lon="16.2373233"><ele>160.0</ele><time>2026-05-01T10:00:50.972Z</time></trkpt><trkpt lat="39.3859033" lon="16.2374633"><ele>161.0</ele><time>2026-05-01T10:00:51.973Z</time></trkpt><trkpt lat="39.386145" lon="16.237615"><ele>163.0</ele><time>2026-05-01T10:00:52.972Z</time></trkpt><trkpt lat="39.38639" lon="16.237775"><ele>165.0</ele><time>2026-05-01T10:00:53.972Z</time></trkpt><trkpt lat="39.3866283" lon="16.2379467"><ele>165.0</ele><time>2026-05-01T10:00:54.972Z</time></trkpt><trkpt lat="39.3868633" lon="16.23813"><ele>165.0</ele><time>2026-05-01T10:00:55.973Z</time></trkpt><trkpt lat="39.3870833" lon="16.2383133"><ele>162.5</ele><time>2026-05-01T10:00:56.973Z</time></trkpt><trkpt lat="39.3872933" lon="16.2384917"><ele>160.0</ele><time>2026-05-01T10:00:57.972Z</time></trkpt><trkpt lat="39.3875083" lon="16.2386817"><ele>160.0</ele><time>2026-05-01T10:00:58.973Z</time></trkpt><trkpt lat="39.387715" lon="16.2388733"><ele>160.0</ele><time>2026-05-01T10:00:59.972Z</time></trkpt><trkpt lat="39.387925" lon="16.2390667"><ele>161.5</ele><time>2026-05-01T10:01:00.972Z</time></trkpt><trkpt lat="39.3881383" lon="16.2392617"><ele>163.0</ele><time>2026-05-01T10:01:01.973Z</time></trkpt><trkpt lat="39.3883367" lon="16.2394617"><ele>163.0</ele><time>2026-05-01T10:01:02.972Z</time></trkpt><trkpt lat="39.3885317" lon="16.2396533"><ele>163.0</ele><time>2026-05-01T10:01:03.973Z</time></trkpt><trkpt lat="39.38873" lon="16.23985"><ele>164.0</ele><time>2026-05-01T10:01:04.972Z</time></trkpt><trkpt lat="39.3889317" lon="16.24005"><ele>165.0</ele><time>2026-05-01T10:01:05.972Z</time></trkpt><trkpt lat="39.3891383" lon="16.240245"><ele>165.0</ele><time>2026-05-01T10:01:06.972Z</time></trkpt><trkpt lat="39.3893467" lon="16.2404383"><ele>165.0</ele><time>2026-05-01T10:01:07.972Z</time></trkpt><trkpt lat="39.3895583" lon="16.2406267"><ele>165.5</ele><time>2026-05-01T10:01:08.972Z</time></trkpt><trkpt lat="39.389775" lon="16.2408067"><ele>166.0</ele><time>2026-05-01T10:01:09.972Z</time></trkpt><trkpt lat="39.3899917" lon="16.2409817"><ele>166.0</ele><time>2026-05-01T10:01:10.972Z</time></trkpt><trkpt lat="39.3902017" lon="16.2411467"><ele>166.0</ele><time>2026-05-01T10:01:11.972Z</time></trkpt><trkpt lat="39.3904133" lon="16.241305"><ele>166.5</ele><time>2026-05-01T10:01:12.972Z</time></trkpt><trkpt lat="39.3906367" lon="16.24146"><ele>167.0</ele><time>2026-05-01T10:01:13.973Z</time></trkpt><trkpt lat="39.39086" lon="16.2416083"><ele>165.5</ele><time>2026-05-01T10:01:14.972Z</time></trkpt><trkpt lat="39.391095" lon="16.2417533"><ele>164.0</ele><time>2026-05-01T10:01:15.972Z</time></trkpt><trkpt lat="39.39134" lon="16.2418883"><ele>164.0</ele><time>2026-05-01T10:01:16.973Z</time></trkpt><trkpt lat="39.3915933" lon="16.2420183"><ele>164.0</ele><time>2026-05-01T10:01:17.972Z</time></trkpt><trkpt lat="39.391845" lon="16.2421367"><ele>164.0</ele><time>2026-05-01T10:01:18.973Z</time></trkpt><trkpt lat="39.39211" lon="16.2422467"><ele>164.0</ele><time>2026-05-01T10:01:19.973Z</time></trkpt><trkpt lat="39.392375" lon="16.2423533"><ele>162.0</ele><time>2026-05-01T10:01:20.972Z</time></trkpt><trkpt lat="39.392645" lon="16.242445"><ele>160.0</ele><time>2026-05-01T10:01:21.972Z</time></trkpt><trkpt lat="39.3929167" lon="16.2425267"><ele>160.0</ele><time>2026-05-01T10:01:22.972Z</time></trkpt><trkpt lat="39.3931933" lon="16.2426"><ele>160.0</ele><time>2026-05-01T10:01:23.972Z</time></trkpt><trkpt lat="39.3934683" lon="16.242655"><ele>160.0</ele><time>2026-05-01T10:01:24.972Z</time></trkpt><trkpt lat="39.3937467" lon="16.2427033"><ele>160.0</ele><time>2026-05-01T10:01:25.972Z</time></trkpt><trkpt lat="39.394025" lon="16.2427517"><ele>158.5</ele><time>2026-05-01T10:01:26.972Z</time></trkpt><trkpt lat="39.3943067" lon="16.242795"><ele>157.0</ele><time>2026-05-01T10:01:27.973Z</time></trkpt><trkpt lat="39.3945933" lon="16.2428333"><ele>156.5</ele><time>2026-05-01T10:01:28.973Z</time></trkpt><trkpt lat="39.39488" lon="16.242865"><ele>156.0</ele><time>2026-05-01T10:01:29.972Z</time></trkpt><trkpt lat="39.3951633" lon="16.2428983"><ele>156.0</ele><time>2026-05-01T10:01:30.972Z</time></trkpt><trkpt lat="39.395455" lon="16.2429383"><ele>156.0</ele><time>2026-05-01T10:01:31.972Z</time></trkpt><trkpt lat="39.395745" lon="16.24298"><ele>154.0</ele><time>2026-05-01T10:01:32.972Z</time></trkpt><trkpt lat="39.396035" lon="16.2430167"><ele>152.0</ele><time>2026-05-01T10:01:33.972Z</time></trkpt><trkpt lat="39.39633" lon="16.2430517"><ele>150.0</ele><time>2026-05-01T10:01:34.972Z</time></trkpt><trkpt lat="39.39662" lon="16.2430833"><ele>148.0</ele><time>2026-05-01T10:01:35.972Z</time></trkpt><trkpt lat="39.39691" lon="16.2431183"><ele>148.5</ele><time>2026-05-01T10:01:36.972Z</time></trkpt><trkpt lat="39.3971933" lon="16.2431567"><ele>149.0</ele><time>2026-05-01T10:01:37.972Z</time></trkpt><trkpt lat="39.39748" lon="16.2431917"><ele>149.0</ele><time>2026-05-01T10:01:38.973Z</time></trkpt><trkpt lat="39.3977717" lon="16.243225"><ele>149.0</ele><time>2026-05-01T10:01:39.972Z</time></trkpt><trkpt lat="39.3980583" lon="16.24326"><ele>147.0</ele><time>2026-05-01T10:01:40.972Z</time></trkpt><trkpt lat="39.3983433" lon="16.2432933"><ele>145.0</ele><time>2026-05-01T10:01:41.972Z</time></trkpt><trkpt lat="39.3986267" lon="16.2433267"><ele>144.5</ele><time>2026-05-01T10:01:42.972Z</time></trkpt><trkpt lat="39.3989217" lon="16.2433617"><ele>144.0</ele><time>2026-05-01T10:01:43.972Z</time></trkpt><trkpt lat="39.3992167" lon="16.2433967"><ele>144.0</ele><time>2026-05-01T10:01:44.972Z</time></trkpt><trkpt lat="39.3995217" lon="16.24344"><ele>144.0</ele><time>2026-05-01T10:01:45.973Z</time></trkpt><trkpt lat="39.399835" lon="16.24348"><ele>144.0</ele><time>2026-05-01T10:01:46.973Z</time></trkpt><trkpt lat="39.40015" lon="16.24352"><ele>144.0</ele><time>2026-05-01T10:01:47.972Z</time></trkpt><trkpt lat="39.40047" lon="16.2435617"><ele>144.5</ele><time>2026-05-01T10:01:48.972Z</time></trkpt><trkpt lat="39.400785" lon="16.2436017"><ele>145.0</ele><time>2026-05-01T10:01:49.972Z</time></trkpt><trkpt lat="39.4010967" lon="16.2436383"><ele>144.0</ele><time>2026-05-01T10:01:50.973Z</time></trkpt><trkpt lat="39.4014" lon="16.2436767"><ele>143.0</ele><time>2026-05-01T10:01:51.972Z</time></trkpt><trkpt lat="39.4017083" lon="16.2437117"><ele>143.0</ele><time>2026-05-01T10:01:52.973Z</time></trkpt><trkpt lat="39.4020117" lon="16.2437483"><ele>143.0</ele><time>2026-05-01T10:01:53.972Z</time></trkpt><trkpt lat="39.402315" lon="16.2437833"><ele>143.5</ele><time>2026-05-01T10:01:54.972Z</time></trkpt><trkpt lat="39.402615" lon="16.2438217"><ele>144.0</ele><time>2026-05-01T10:01:55.972Z</time></trkpt><trkpt lat="39.4029183" lon="16.2438583"><ele>146.0</ele><time>2026-05-01T10:01:56.973Z</time></trkpt><trkpt lat="39.4032217" lon="16.2438967"><ele>148.0</ele><time>2026-05-01T10:01:57.972Z</time></trkpt><trkpt lat="39.40353" lon="16.2439367"><ele>149.0</ele><time>2026-05-01T10:01:58.972Z</time></trkpt><trkpt lat="39.40384" lon="16.2439733"><ele>150.0</ele><time>2026-05-01T10:01:59.972Z</time></trkpt><trkpt lat="39.4041417" lon="16.24401"><ele>150.0</ele><time>2026-05-01T10:02:00.972Z</time></trkpt><trkpt lat="39.4044467" lon="16.2440467"><ele>150.0</ele><time>2026-05-01T10:02:01.972Z</time></trkpt><trkpt lat="39.40475" lon="16.2440783"><ele>150.0</ele><time>2026-05-01T10:02:02.972Z</time></trkpt><trkpt lat="39.4050483" lon="16.2441183"><ele>150.0</ele><time>2026-05-01T10:02:03.972Z</time></trkpt><trkpt lat="39.40535" lon="16.2441583"><ele>150.5</ele><time>2026-05-01T10:02:04.972Z</time></trkpt><trkpt lat="39.4056517" lon="16.2441933"><ele>151.0</ele><time>2026-05-01T10:02:05.972Z</time></trkpt><trkpt lat="39.4059517" lon="16.2442333"><ele>151.0</ele><time>2026-05-01T10:02:06.972Z</time></trkpt><trkpt lat="39.406245" lon="16.2442667"><ele>151.0</ele><time>2026-05-01T10:02:07.972Z</time></trkpt><trkpt lat="39.4065467" lon="16.2442983"><ele>151.0</ele><time>2026-05-01T10:02:08.972Z</time></trkpt><trkpt lat="39.4068533" lon="16.2443317"><ele>151.0</ele><time>2026-05-01T10:02:09.973Z</time></trkpt><trkpt lat="39.4071667" lon="16.2443717"><ele>149.5</ele><time>2026-05-01T10:02:10.972Z</time></trkpt><trkpt lat="39.4074767" lon="16.2444117"><ele>148.0</ele><time>2026-05-01T10:02:11.973Z</time></trkpt><trkpt lat="39.4077783" lon="16.2444567"><ele>149.0</ele><time>2026-05-01T10:02:12.972Z</time></trkpt><trkpt lat="39.4080817" lon="16.2444983"><ele>150.0</ele><time>2026-05-01T10:02:13.972Z</time></trkpt><trkpt lat="39.4083867" lon="16.2445417"><ele>150.0</ele><time>2026-05-01T10:02:14.973Z</time></trkpt><trkpt lat="39.4086883" lon="16.2445833"><ele>150.0</ele><time>2026-05-01T10:02:15.973Z</time></trkpt><trkpt lat="39.4089883" lon="16.2446283"><ele>149.5</ele><time>2026-05-01T10:02:16.973Z</time></trkpt><trkpt lat="39.4092933" lon="16.2446667"><ele>149.0</ele><time>2026-05-01T10:02:17.973Z</time></trkpt><trkpt lat="39.4096033" lon="16.24471"><ele>148.5</ele><time>2026-05-01T10:02:18.972Z</time></trkpt><trkpt lat="39.40991" lon="16.2447517"><ele>148.0</ele><time>2026-05-01T10:02:19.972Z</time></trkpt><trkpt lat="39.4102217" lon="16.2447983"><ele>145.0</ele><time>2026-05-01T10:02:20.973Z</time></trkpt><trkpt lat="39.4105333" lon="16.2448367"><ele>142.0</ele><time>2026-05-01T10:02:21.973Z</time></trkpt><trkpt lat="39.4108433" lon="16.244875"><ele>142.0</ele><time>2026-05-01T10:02:22.972Z</time></trkpt><trkpt lat="39.4111433" lon="16.2449133"><ele>142.0</ele><time>2026-05-01T10:02:23.972Z</time></trkpt><trkpt lat="39.4114533" lon="16.244945"><ele>143.0</ele><time>2026-05-01T10:02:24.973Z</time></trkpt><trkpt lat="39.411765" lon="16.24497"><ele>144.0</ele><time>2026-05-01T10:02:25.972Z</time></trkpt><trkpt lat="39.4120767" lon="16.2449933"><ele>143.0</ele><time>2026-05-01T10:02:26.972Z</time></trkpt><trkpt lat="39.4123967" lon="16.2449967"><ele>142.0</ele><time>2026-05-01T10:02:27.973Z</time></trkpt><trkpt lat="39.41271" lon="16.2449967"><ele>140.0</ele><time>2026-05-01T10:02:28.972Z</time></trkpt><trkpt lat="39.4130183" lon="16.2449917"><ele>138.0</ele><time>2026-05-01T10:02:29.973Z</time></trkpt><trkpt lat="39.413335" lon="16.2449683"><ele>138.0</ele><time>2026-05-01T10:02:30.973Z</time></trkpt><trkpt lat="39.4136583" lon="16.24493"><ele>138.0</ele><time>2026-05-01T10:02:31.973Z</time></trkpt><trkpt lat="39.4139817" lon="16.2448767"><ele>138.0</ele><time>2026-05-01T10:02:32.972Z</time></trkpt><trkpt lat="39.4143" lon="16.244815"><ele>138.0</ele><time>2026-05-01T10:02:33.972Z</time></trkpt><trkpt lat="39.414615" lon="16.244745"><ele>137.0</ele><time>2026-05-01T10:02:34.973Z</time></trkpt><trkpt lat="39.41492" lon="16.2446683"><ele>136.0</ele><time>2026-05-01T10:02:35.973Z</time></trkpt><trkpt lat="39.4152267" lon="16.2445783"><ele>133.5</ele><time>2026-05-01T10:02:36.972Z</time></trkpt><trkpt lat="39.41553" lon="16.2444833"><ele>131.0</ele><time>2026-05-01T10:02:37.973Z</time></trkpt><trkpt lat="39.415835" lon="16.2443883"><ele>131.0</ele><time>2026-05-01T10:02:38.972Z</time></trkpt><trkpt lat="39.416125" lon="16.2442883"><ele>131.0</ele><time>2026-05-01T10:02:39.972Z</time></trkpt><trkpt lat="39.4164117" lon="16.2441833"><ele>131.0</ele><time>2026-05-01T10:02:40.972Z</time></trkpt><trkpt lat="39.4167" lon="16.24408"><ele>131.0</ele><time>2026-05-01T10:02:41.972Z</time></trkpt><trkpt lat="39.416985" lon="16.2439767"><ele>136.5</ele><time>2026-05-01T10:02:42.972Z</time></trkpt><trkpt lat="39.4172717" lon="16.2438683"><ele>142.0</ele><time>2026-05-01T10:02:43.972Z</time></trkpt><trkpt lat="39.4175617" lon="16.2437617"><ele>142.0</ele><time>2026-05-01T10:02:44.973Z</time></trkpt><trkpt lat="39.4178467" lon="16.2436567"><ele>142.0</ele><time>2026-05-01T10:02:45.973Z</time></trkpt><trkpt lat="39.4181267" lon="16.2435517"><ele>142.0</ele><time>2026-05-01T10:02:46.973Z</time></trkpt><trkpt lat="39.4184017" lon="16.2434517"><ele>142.0</ele><time>2026-05-01T10:02:47.972Z</time></trkpt><trkpt lat="39.4186783" lon="16.243355"><ele>142.0</ele><time>2026-05-01T10:02:48.973Z</time></trkpt><trkpt lat="39.41895" lon="16.24326"><ele>142.0</ele><time>2026-05-01T10:02:49.972Z</time></trkpt><trkpt lat="39.4192317" lon="16.2431717"><ele>142.5</ele><time>2026-05-01T10:02:50.973Z</time></trkpt><trkpt lat="39.4195133" lon="16.2430967"><ele>143.0</ele><time>2026-05-01T10:02:51.972Z</time></trkpt><trkpt lat="39.41979" lon="16.2430317"><ele>143.5</ele><time>2026-05-01T10:02:52.972Z</time></trkpt><trkpt lat="39.420065" lon="16.2429683"><ele>144.0</ele><time>2026-05-01T10:02:53.972Z</time></trkpt><trkpt lat="39.420345" lon="16.2429017"><ele>143.5</ele><time>2026-05-01T10:02:54.972Z</time></trkpt><trkpt lat="39.4206233" lon="16.242845"><ele>143.0</ele><time>2026-05-01T10:02:55.973Z</time></trkpt><trkpt lat="39.4209117" lon="16.24279"><ele>143.0</ele><time>2026-05-01T10:02:56.973Z</time></trkpt><trkpt lat="39.4212" lon="16.2427367"><ele>143.0</ele><time>2026-05-01T10:02:57.972Z</time></trkpt><trkpt lat="39.4214783" lon="16.2426833"><ele>143.0</ele><time>2026-05-01T10:02:58.973Z</time></trkpt><trkpt lat="39.4217567" lon="16.2426283"><ele>143.0</ele><time>2026-05-01T10:02:59.972Z</time></trkpt><trkpt lat="39.4220317" lon="16.2425733"><ele>142.5</ele><time>2026-05-01T10:03:00.972Z</time></trkpt><trkpt lat="39.4223083" lon="16.2425167"><ele>142.0</ele><time>2026-05-01T10:03:01.972Z</time></trkpt><trkpt lat="39.4225883" lon="16.2424633"><ele>142.0</ele><time>2026-05-01T10:03:02.973Z</time></trkpt><trkpt lat="39.4228667" lon="16.2424083"><ele>142.0</ele><time>2026-05-01T10:03:03.972Z</time></trkpt><trkpt lat="39.4231433" lon="16.2423633"><ele>142.0</ele><time>2026-05-01T10:03:04.972Z</time></trkpt><trkpt lat="39.4234167" lon="16.2423083"><ele>142.0</ele><time>2026-05-01T10:03:05.972Z</time></trkpt><trkpt lat="39.423695" lon="16.2422517"><ele>142.5</ele><time>2026-05-01T10:03:06.972Z</time></trkpt><trkpt lat="39.4239683" lon="16.242195"><ele>143.0</ele><time>2026-05-01T10:03:07.972Z</time></trkpt><trkpt lat="39.42425" lon="16.2421417"><ele>143.0</ele><time>2026-05-01T10:03:08.973Z</time></trkpt><trkpt lat="39.4245317" lon="16.2420983"><ele>143.0</ele><time>2026-05-01T10:03:09.973Z</time></trkpt><trkpt lat="39.4248133" lon="16.2420483"><ele>142.0</ele><time>2026-05-01T10:03:10.972Z</time></trkpt><trkpt lat="39.4250983" lon="16.241995"><ele>141.0</ele><time>2026-05-01T10:03:11.973Z</time></trkpt><trkpt lat="39.4253883" lon="16.2419367"><ele>140.5</ele><time>2026-05-01T10:03:12.972Z</time></trkpt><trkpt lat="39.425675" lon="16.241885"><ele>140.0</ele><time>2026-05-01T10:03:13.972Z</time></trkpt><trkpt lat="39.4259583" lon="16.241835"><ele>140.0</ele><time>2026-05-01T10:03:14.972Z</time></trkpt><trkpt lat="39.4262517" lon="16.2417683"><ele>140.0</ele><time>2026-05-01T10:03:15.973Z</time></trkpt><trkpt lat="39.4265517" lon="16.2417117"><ele>140.0</ele><time>2026-05-01T10:03:16.972Z</time></trkpt><trkpt lat="39.4268533" lon="16.2416517"><ele>140.0</ele><time>2026-05-01T10:03:17.972Z</time></trkpt><trkpt lat="39.427155" lon="16.2415883"><ele>140.5</ele><time>2026-05-01T10:03:18.972Z</time></trkpt><trkpt lat="39.4274483" lon="16.2415333"><ele>141.0</ele><time>2026-05-01T10:03:19.973Z</time></trkpt><trkpt lat="39.4277467" lon="16.2414733"><ele>141.0</ele><time>2026-05-01T10:03:20.972Z</time></trkpt><trkpt lat="39.4280417" lon="16.24142"><ele>141.0</ele><time>2026-05-01T10:03:21.972Z</time></trkpt><trkpt lat="39.42834" lon="16.2413567"><ele>141.0</ele><time>2026-05-01T10:03:22.972Z</time></trkpt><trkpt lat="39.428635" lon="16.24131"><ele>141.0</ele><time>2026-05-01T10:03:23.973Z</time></trkpt><trkpt lat="39.428925" lon="16.2412583"><ele>138.0</ele><time>2026-05-01T10:03:24.973Z</time></trkpt><trkpt lat="39.42922" lon="16.2412083"><ele>135.0</ele><time>2026-05-01T10:03:25.973Z</time></trkpt><trkpt lat="39.4295167" lon="16.2411683"><ele>134.5</ele><time>2026-05-01T10:03:26.972Z</time></trkpt><trkpt lat="39.42982" lon="16.2411317"><ele>134.0</ele><time>2026-05-01T10:03:27.972Z</time></trkpt><trkpt lat="39.4301167" lon="16.241095"><ele>134.0</ele><time>2026-05-01T10:03:28.972Z</time></trkpt><trkpt lat="39.43042" lon="16.2410783"><ele>134.0</ele><time>2026-05-01T10:03:29.972Z</time></trkpt><trkpt lat="39.430725" lon="16.24107"><ele>133.5</ele><time>2026-05-01T10:03:30.972Z</time></trkpt><trkpt lat="39.4310333" lon="16.2410683"><ele>133.0</ele><time>2026-05-01T10:03:31.972Z</time></trkpt><trkpt lat="39.431335" lon="16.2410717"><ele>132.5</ele><time>2026-05-01T10:03:32.972Z</time></trkpt><trkpt lat="39.4316383" lon="16.2410733"><ele>132.0</ele><time>2026-05-01T10:03:33.972Z</time></trkpt><trkpt lat="39.4319333" lon="16.2410733"><ele>132.0</ele><time>2026-05-01T10:03:34.972Z</time></trkpt><trkpt lat="39.4322317" lon="16.2410733"><ele>132.0</ele><time>2026-05-01T10:03:35.972Z</time></trkpt><trkpt lat="39.43253" lon="16.2410683"><ele>132.0</ele><time>2026-05-01T10:03:36.972Z</time></trkpt><trkpt lat="39.4328233" lon="16.241065"><ele>132.0</ele><time>2026-05-01T10:03:37.973Z</time></trkpt><trkpt lat="39.4331317" lon="16.2410667"><ele>131.0</ele><time>2026-05-01T10:03:38.973Z</time></trkpt><trkpt lat="39.43344" lon="16.2410667"><ele>130.0</ele><time>2026-05-01T10:03:39.972Z</time></trkpt><trkpt lat="39.4337433" lon="16.2410633"><ele>129.5</ele><time>2026-05-01T10:03:40.972Z</time></trkpt><trkpt lat="39.4340517" lon="16.2410483"><ele>129.0</ele><time>2026-05-01T10:03:41.973Z</time></trkpt><trkpt lat="39.4343583" lon="16.2410417"><ele>128.0</ele><time>2026-05-01T10:03:42.972Z</time></trkpt><trkpt lat="39.4346667" lon="16.2410233"><ele>127.0</ele><time>2026-05-01T10:03:43.972Z</time></trkpt><trkpt lat="39.4349833" lon="16.241"><ele>127.0</ele><time>2026-05-01T10:03:44.972Z</time></trkpt><trkpt lat="39.435295" lon="16.2409617"><ele>127.0</ele><time>2026-05-01T10:03:45.972Z</time></trkpt><trkpt lat="39.4356083" lon="16.240915"><ele>127.0</ele><time>2026-05-01T10:03:46.972Z</time></trkpt><trkpt lat="39.4359183" lon="16.240845"><ele>127.0</ele><time>2026-05-01T10:03:47.973Z</time></trkpt><trkpt lat="39.43623" lon="16.2407667"><ele>127.0</ele><time>2026-05-01T10:03:48.973Z</time></trkpt><trkpt lat="39.43653" lon="16.2406717"><ele>127.0</ele><time>2026-05-01T10:03:49.973Z</time></trkpt><trkpt lat="39.43683" lon="16.2405567"><ele>127.0</ele><time>2026-05-01T10:03:50.972Z</time></trkpt><trkpt lat="39.4371283" lon="16.2404383"><ele>127.0</ele><time>2026-05-01T10:03:51.973Z</time></trkpt><trkpt lat="39.4374283" lon="16.240315"><ele>126.5</ele><time>2026-05-01T10:03:52.973Z</time></trkpt><trkpt lat="39.4377167" lon="16.24018"><ele>126.0</ele><time>2026-05-01T10:03:53.972Z</time></trkpt><trkpt lat="39.4380067" lon="16.24004"><ele>126.0</ele><time>2026-05-01T10:03:54.972Z</time></trkpt><trkpt lat="39.4383033" lon="16.2398983"><ele>126.0</ele><time>2026-05-01T10:03:55.972Z</time></trkpt><trkpt lat="39.4386017" lon="16.2397417"><ele>124.5</ele><time>2026-05-01T10:03:56.972Z</time></trkpt><trkpt lat="39.438905" lon="16.2395917"><ele>123.0</ele><time>2026-05-01T10:03:57.972Z</time></trkpt><trkpt lat="39.439205" lon="16.23944"><ele>123.0</ele><time>2026-05-01T10:03:58.972Z</time></trkpt><trkpt lat="39.439505" lon="16.2392883"><ele>123.0</ele><time>2026-05-01T10:03:59.972Z</time></trkpt><trkpt lat="39.43981" lon="16.2391367"><ele>121.0</ele><time>2026-05-01T10:04:00.972Z</time></trkpt><trkpt lat="39.4401283" lon="16.23899"><ele>119.0</ele><time>2026-05-01T10:04:01.972Z</time></trkpt><trkpt lat="39.440435" lon="16.2388283"><ele>119.0</ele><time>2026-05-01T10:04:02.972Z</time></trkpt><trkpt lat="39.4407367" lon="16.23867"><ele>119.0</ele><time>2026-05-01T10:04:03.973Z</time></trkpt><trkpt lat="39.441035" lon="16.238525"><ele>118.0</ele><time>2026-05-01T10:04:04.973Z</time></trkpt><trkpt lat="39.4413417" lon="16.23839"><ele>117.0</ele><time>2026-05-01T10:04:05.972Z</time></trkpt><trkpt lat="39.4416517" lon="16.2382633"><ele>117.0</ele><time>2026-05-01T10:04:06.972Z</time></trkpt><trkpt lat="39.4419667" lon="16.2381617"><ele>117.0</ele><time>2026-05-01T10:04:07.972Z</time></trkpt><trkpt lat="39.442285" lon="16.23807"><ele>119.0</ele><time>2026-05-01T10:04:08.972Z</time></trkpt><trkpt lat="39.44261" lon="16.2379933"><ele>121.0</ele><time>2026-05-01T10:04:09.972Z</time></trkpt><trkpt lat="39.4429183" lon="16.23793"><ele>123.0</ele><time>2026-05-01T10:04:10.972Z</time></trkpt><trkpt lat="39.44322" lon="16.2378933"><ele>125.0</ele><time>2026-05-01T10:04:11.972Z</time></trkpt><trkpt lat="39.443515" lon="16.237865"><ele>124.0</ele><time>2026-05-01T10:04:12.972Z</time></trkpt><trkpt lat="39.44381" lon="16.2378483"><ele>123.0</ele><time>2026-05-01T10:04:13.972Z</time></trkpt><trkpt lat="39.4440983" lon="16.2378433"><ele>123.0</ele><time>2026-05-01T10:04:14.973Z</time></trkpt><trkpt lat="39.4443833" lon="16.23785"><ele>123.0</ele><time>2026-05-01T10:04:15.973Z</time></trkpt><trkpt lat="39.44467" lon="16.2378583"><ele>123.5</ele><time>2026-05-01T10:04:16.973Z</time></trkpt><trkpt lat="39.44495" lon="16.2378767"><ele>124.0</ele><time>2026-05-01T10:04:17.972Z</time></trkpt><trkpt lat="39.4452317" lon="16.2379"><ele>123.5</ele><time>2026-05-01T10:04:18.972Z</time></trkpt><trkpt lat="39.4455083" lon="16.2379233"><ele>123.0</ele><time>2026-05-01T10:04:19.972Z</time></trkpt><trkpt lat="39.4457817" lon="16.2379483"><ele>123.0</ele><time>2026-05-01T10:04:20.972Z</time></trkpt><trkpt lat="39.4460583" lon="16.237965"><ele>123.0</ele><time>2026-05-01T10:04:21.972Z</time></trkpt><trkpt lat="39.4463367" lon="16.2379733"><ele>122.5</ele><time>2026-05-01T10:04:22.972Z</time></trkpt><trkpt lat="39.4466117" lon="16.23799"><ele>122.0</ele><time>2026-05-01T10:04:23.973Z</time></trkpt><trkpt lat="39.4468817" lon="16.2380017"><ele>120.5</ele><time>2026-05-01T10:04:24.973Z</time></trkpt><trkpt lat="39.4471483" lon="16.2380017"><ele>119.0</ele><time>2026-05-01T10:04:25.972Z</time></trkpt><trkpt lat="39.4474117" lon="16.23799"><ele>119.0</ele><time>2026-05-01T10:04:26.973Z</time></trkpt><trkpt lat="39.4476783" lon="16.23797"><ele>119.0</ele><time>2026-05-01T10:04:27.972Z</time></trkpt><trkpt lat="39.44794" lon="16.2379367"><ele>116.5</ele><time>2026-05-01T10:04:28.972Z</time></trkpt><trkpt lat="39.4482017" lon="16.2379017"><ele>114.0</ele><time>2026-05-01T10:04:29.972Z</time></trkpt><trkpt lat="39.44846" lon="16.2378617"><ele>114.0</ele><time>2026-05-01T10:04:30.972Z</time></trkpt><trkpt lat="39.44872" lon="16.2378117"><ele>114.0</ele><time>2026-05-01T10:04:31.973Z</time></trkpt><trkpt lat="39.448985" lon="16.2377567"><ele>113.0</ele><time>2026-05-01T10:04:32.973Z</time></trkpt><trkpt lat="39.4492483" lon="16.237685"><ele>112.0</ele><time>2026-05-01T10:04:33.972Z</time></trkpt><trkpt lat="39.4495117" lon="16.2376033"><ele>110.5</ele><time>2026-05-01T10:04:34.972Z</time></trkpt><trkpt lat="39.4497783" lon="16.2375083"><ele>109.0</ele><time>2026-05-01T10:04:35.973Z</time></trkpt><trkpt lat="39.4500517" lon="16.2374033"><ele>110.0</ele><time>2026-05-01T10:04:36.973Z</time></trkpt><trkpt lat="39.4503167" lon="16.23729"><ele>111.0</ele><time>2026-05-01T10:04:37.973Z</time></trkpt><trkpt lat="39.4505817" lon="16.23717"><ele>111.5</ele><time>2026-05-01T10:04:38.973Z</time></trkpt><trkpt lat="39.45084" lon="16.2370417"><ele>112.0</ele><time>2026-05-01T10:04:39.972Z</time></trkpt><trkpt lat="39.4511033" lon="16.2369017"><ele>111.5</ele><time>2026-05-01T10:04:40.973Z</time></trkpt><trkpt lat="39.45137" lon="16.236755"><ele>111.0</ele><time>2026-05-01T10:04:41.972Z</time></trkpt><trkpt lat="39.4516333" lon="16.2366"><ele>109.0</ele><time>2026-05-01T10:04:42.972Z</time></trkpt><trkpt lat="39.451895" lon="16.2364333"><ele>107.0</ele><time>2026-05-01T10:04:43.972Z</time></trkpt><trkpt lat="39.4521583" lon="16.2362533"><ele>106.5</ele><time>2026-05-01T10:04:44.973Z</time></trkpt><trkpt lat="39.4524117" lon="16.23607"><ele>106.0</ele><time>2026-05-01T10:04:45.973Z</time></trkpt><trkpt lat="39.4526617" lon="16.2358783"><ele>106.0</ele><time>2026-05-01T10:04:46.973Z</time></trkpt><trkpt lat="39.4528933" lon="16.235675"><ele>106.0</ele><time>2026-05-01T10:04:47.972Z</time></trkpt><trkpt lat="39.45312" lon="16.2354733"><ele>105.0</ele><time>2026-05-01T10:04:48.972Z</time></trkpt><trkpt lat="39.4533483" lon="16.2352633"><ele>104.0</ele><time>2026-05-01T10:04:49.972Z</time></trkpt><trkpt lat="39.4535683" lon="16.2350483"><ele>104.0</ele><time>2026-05-01T10:04:50.972Z</time></trkpt><trkpt lat="39.4537833" lon="16.23482"><ele>104.0</ele><time>2026-05-01T10:04:51.972Z</time></trkpt><trkpt lat="39.4539983" lon="16.2345883"><ele>104.0</ele><time>2026-05-01T10:04:52.972Z</time></trkpt><trkpt lat="39.4542133" lon="16.2343483"><ele>104.0</ele><time>2026-05-01T10:04:53.973Z</time></trkpt><trkpt lat="39.4544167" lon="16.2341"><ele>104.0</ele><time>2026-05-01T10:04:54.973Z</time></trkpt><trkpt lat="39.4546183" lon="16.2338433"><ele>104.0</ele><time>2026-05-01T10:04:55.973Z</time></trkpt><trkpt lat="39.4548217" lon="16.2335733"><ele>104.0</ele><time>2026-05-01T10:04:56.972Z</time></trkpt><trkpt lat="39.4550167" lon="16.233305"><ele>104.0</ele><time>2026-05-01T10:04:57.972Z</time></trkpt><trkpt lat="39.45521" lon="16.2330333"><ele>104.0</ele><time>2026-05-01T10:04:58.972Z</time></trkpt><trkpt lat="39.4554033" lon="16.232755"><ele>104.0</ele><time>2026-05-01T10:04:59.972Z</time></trkpt><trkpt lat="39.4555933" lon="16.2324817"><ele>104.0</ele><time>2026-05-01T10:05:00.972Z</time></trkpt><trkpt lat="39.4557883" lon="16.2322033"><ele>104.0</ele><time>2026-05-01T10:05:01.973Z</time></trkpt><trkpt lat="39.4559767" lon="16.2319283"><ele>104.0</ele><time>2026-05-01T10:05:02.972Z</time></trkpt><trkpt lat="39.4561667" lon="16.2316567"><ele>104.0</ele><time>2026-05-01T10:05:03.972Z</time></trkpt><trkpt lat="39.4563617" lon="16.2313917"><ele>103.5</ele><time>2026-05-01T10:05:04.972Z</time></trkpt><trkpt lat="39.45655" lon="16.2311233"><ele>103.0</ele><time>2026-05-01T10:05:05.973Z</time></trkpt><trkpt lat="39.4567433" lon="16.230855"><ele>102.5</ele><time>2026-05-01T10:05:06.972Z</time></trkpt><trkpt lat="39.4569417" lon="16.2305717"><ele>102.0</ele><time>2026-05-01T10:05:07.973Z</time></trkpt><trkpt lat="39.4571367" lon="16.2302883"><ele>101.5</ele><time>2026-05-01T10:05:08.973Z</time></trkpt><trkpt lat="39.457325" lon="16.2300083"><ele>101.0</ele><time>2026-05-01T10:05:09.972Z</time></trkpt><trkpt lat="39.4575183" lon="16.2297383"><ele>102.0</ele><time>2026-05-01T10:05:10.972Z</time></trkpt><trkpt lat="39.4577117" lon="16.229465"><ele>103.0</ele><time>2026-05-01T10:05:11.972Z</time></trkpt><trkpt lat="39.4579" lon="16.2291983"><ele>102.5</ele><time>2026-05-01T10:05:12.972Z</time></trkpt><trkpt lat="39.4580867" lon="16.2289283"><ele>102.0</ele><time>2026-05-01T10:05:13.973Z</time></trkpt><trkpt lat="39.45827" lon="16.22867"><ele>102.0</ele><time>2026-05-01T10:05:14.972Z</time></trkpt><trkpt lat="39.45845" lon="16.2284117"><ele>102.0</ele><time>2026-05-01T10:05:15.973Z</time></trkpt><trkpt lat="39.4586367" lon="16.2281417"><ele>101.5</ele><time>2026-05-01T10:05:16.972Z</time></trkpt><trkpt lat="39.4588233" lon="16.2278717"><ele>101.0</ele><time>2026-05-01T10:05:17.972Z</time></trkpt><trkpt lat="39.45901" lon="16.227605"><ele>101.0</ele><time>2026-05-01T10:05:18.972Z</time></trkpt><trkpt lat="39.4591883" lon="16.2273517"><ele>101.0</ele><time>2026-05-01T10:05:19.973Z</time></trkpt><trkpt lat="39.4593633" lon="16.2270967"><ele>100.5</ele><time>2026-05-01T10:05:20.973Z</time></trkpt><trkpt lat="39.4595433" lon="16.2268333"><ele>100.0</ele><time>2026-05-01T10:05:21.973Z</time></trkpt><trkpt lat="39.4597283" lon="16.2265717"><ele>100.0</ele><time>2026-05-01T10:05:22.972Z</time></trkpt><trkpt lat="39.459915" lon="16.2262983"><ele>100.0</ele><time>2026-05-01T10:05:23.973Z</time></trkpt><trkpt lat="39.4601033" lon="16.22603"><ele>100.0</ele><time>2026-05-01T10:05:24.973Z</time></trkpt><trkpt lat="39.460295" lon="16.2257567"><ele>100.0</ele><time>2026-05-01T10:05:25.973Z</time></trkpt><trkpt lat="39.460485" lon="16.2254833"><ele>100.0</ele><time>2026-05-01T10:05:26.972Z</time></trkpt><trkpt lat="39.4606733" lon="16.2252117"><ele>100.0</ele><time>2026-05-01T10:05:27.973Z</time></trkpt><trkpt lat="39.46087" lon="16.2249383"><ele>100.0</ele><time>2026-05-01T10:05:28.972Z</time></trkpt><trkpt lat="39.4610783" lon="16.22467"><ele>100.0</ele><time>2026-05-01T10:05:29.973Z</time></trkpt><trkpt lat="39.4612983" lon="16.2244067"><ele>100.0</ele><time>2026-05-01T10:05:30.973Z</time></trkpt><trkpt lat="39.4615217" lon="16.22415"><ele>100.0</ele><time>2026-05-01T10:05:31.972Z</time></trkpt><trkpt lat="39.4617383" lon="16.2238933"><ele>100.0</ele><time>2026-05-01T10:05:32.972Z</time></trkpt><trkpt lat="39.4619617" lon="16.2236483"><ele>100.0</ele><time>2026-05-01T10:05:33.973Z</time></trkpt><trkpt lat="39.462195" lon="16.223405"><ele>99.5</ele><time>2026-05-01T10:05:34.972Z</time></trkpt><trkpt lat="39.462435" lon="16.2231633"><ele>99.0</ele><time>2026-05-01T10:05:35.972Z</time></trkpt><trkpt lat="39.4626867" lon="16.2229267"><ele>99.0</ele><time>2026-05-01T10:05:36.973Z</time></trkpt><trkpt lat="39.462935" lon="16.22269"><ele>99.0</ele><time>2026-05-01T10:05:37.972Z</time></trkpt><trkpt lat="39.4631867" lon="16.2224633"><ele>98.5</ele><time>2026-05-01T10:05:38.972Z</time></trkpt><trkpt lat="39.4634417" lon="16.2222483"><ele>98.0</ele><time>2026-05-01T10:05:39.973Z</time></trkpt><trkpt lat="39.4637" lon="16.2220367"><ele>97.5</ele><time>2026-05-01T10:05:40.973Z</time></trkpt><trkpt lat="39.4639567" lon="16.221835"><ele>97.0</ele><time>2026-05-01T10:05:41.972Z</time></trkpt><trkpt lat="39.4642217" lon="16.22164"><ele>98.5</ele><time>2026-05-01T10:05:42.973Z</time></trkpt><trkpt lat="39.4644933" lon="16.2214433"><ele>100.0</ele><time>2026-05-01T10:05:43.972Z</time></trkpt><trkpt lat="39.4647633" lon="16.22126"><ele>100.0</ele><time>2026-05-01T10:05:44.972Z</time></trkpt><trkpt lat="39.465035" lon="16.2210833"><ele>100.0</ele><time>2026-05-01T10:05:45.972Z</time></trkpt><trkpt lat="39.465305" lon="16.22091"><ele>99.0</ele><time>2026-05-01T10:05:46.973Z</time></trkpt><trkpt lat="39.4655783" lon="16.2207517"><ele>98.0</ele><time>2026-05-01T10:05:47.973Z</time></trkpt><trkpt lat="39.4658533" lon="16.2206"><ele>98.0</ele><time>2026-05-01T10:05:48.973Z</time></trkpt><trkpt lat="39.46613" lon="16.22046"><ele>98.0</ele><time>2026-05-01T10:05:49.973Z</time></trkpt><trkpt lat="39.4664117" lon="16.22033"><ele>97.5</ele><time>2026-05-01T10:05:50.973Z</time></trkpt><trkpt lat="39.4666933" lon="16.2202033"><ele>97.0</ele><time>2026-05-01T10:05:51.972Z</time></trkpt><trkpt lat="39.46698" lon="16.2200767"><ele>97.0</ele><time>2026-05-01T10:05:52.972Z</time></trkpt><trkpt lat="39.4672667" lon="16.219955"><ele>97.0</ele><time>2026-05-01T10:05:53.973Z</time></trkpt><trkpt lat="39.4675533" lon="16.21983"><ele>97.0</ele><time>2026-05-01T10:05:54.972Z</time></trkpt><trkpt lat="39.4678367" lon="16.2197017"><ele>97.0</ele><time>2026-05-01T10:05:55.972Z</time></trkpt><trkpt lat="39.4681267" lon="16.2195733"><ele>97.0</ele><time>2026-05-01T10:05:56.972Z</time></trkpt><trkpt lat="39.4684183" lon="16.2194467"><ele>97.0</ele><time>2026-05-01T10:05:57.973Z</time></trkpt><trkpt lat="39.4687167" lon="16.2193233"><ele>97.0</ele><time>2026-05-01T10:05:58.973Z</time></trkpt><trkpt lat="39.4690117" lon="16.2192017"><ele>97.0</ele><time>2026-05-01T10:05:59.972Z</time></trkpt><trkpt lat="39.4693017" lon="16.2190783"><ele>96.5</ele><time>2026-05-01T10:06:00.973Z</time></trkpt><trkpt lat="39.4695983" lon="16.218955"><ele>96.0</ele><time>2026-05-01T10:06:01.973Z</time></trkpt><trkpt lat="39.4698817" lon="16.2188367"><ele>96.0</ele><time>2026-05-01T10:06:02.972Z</time></trkpt><trkpt lat="39.4701667" lon="16.2187183"><ele>96.0</ele><time>2026-05-01T10:06:03.973Z</time></trkpt><trkpt lat="39.4704567" lon="16.2186"><ele>96.5</ele><time>2026-05-01T10:06:04.972Z</time></trkpt><trkpt lat="39.470745" lon="16.2184667"><ele>97.0</ele><time>2026-05-01T10:06:05.973Z</time></trkpt><trkpt lat="39.4710383" lon="16.2183417"><ele>97.5</ele><time>2026-05-01T10:06:06.973Z</time></trkpt><trkpt lat="39.471325" lon="16.218215"><ele>98.0</ele><time>2026-05-01T10:06:07.973Z</time></trkpt><trkpt lat="39.4716167" lon="16.2180917"><ele>95.5</ele><time>2026-05-01T10:06:08.972Z</time></trkpt><trkpt lat="39.4719033" lon="16.2179633"><ele>93.0</ele><time>2026-05-01T10:06:09.973Z</time></trkpt><trkpt lat="39.4721933" lon="16.217835"><ele>93.0</ele><time>2026-05-01T10:06:10.972Z</time></trkpt><trkpt lat="39.4724833" lon="16.2177183"><ele>93.0</ele><time>2026-05-01T10:06:11.973Z</time></trkpt><trkpt lat="39.47277" lon="16.2175967"><ele>93.5</ele><time>2026-05-01T10:06:12.972Z</time></trkpt><trkpt lat="39.4730517" lon="16.2174683"><ele>94.0</ele><time>2026-05-01T10:06:13.972Z</time></trkpt><trkpt lat="39.4733417" lon="16.2173483"><ele>93.5</ele><time>2026-05-01T10:06:14.972Z</time></trkpt><trkpt lat="39.473635" lon="16.21723"><ele>93.0</ele><time>2026-05-01T10:06:15.973Z</time></trkpt><trkpt lat="39.4739217" lon="16.21711"><ele>93.0</ele><time>2026-05-01T10:06:16.972Z</time></trkpt><trkpt lat="39.474205" lon="16.2169883"><ele>93.0</ele><time>2026-05-01T10:06:17.973Z</time></trkpt><trkpt lat="39.4744883" lon="16.2168633"><ele>94.0</ele><time>2026-05-01T10:06:18.972Z</time></trkpt><trkpt lat="39.4747767" lon="16.21675"><ele>95.0</ele><time>2026-05-01T10:06:19.972Z</time></trkpt><trkpt lat="39.4750683" lon="16.21664"><ele>95.0</ele><time>2026-05-01T10:06:20.972Z</time></trkpt><trkpt lat="39.4753617" lon="16.2165417"><ele>95.0</ele><time>2026-05-01T10:06:21.973Z</time></trkpt><trkpt lat="39.4756533" lon="16.2164483"><ele>94.0</ele><time>2026-05-01T10:06:22.972Z</time></trkpt><trkpt lat="39.475945" lon="16.2163567"><ele>93.0</ele><time>2026-05-01T10:06:23.972Z</time></trkpt><trkpt lat="39.4762383" lon="16.2162733"><ele>93.0</ele><time>2026-05-01T10:06:24.973Z</time></trkpt><trkpt lat="39.4765367" lon="16.2161917"><ele>93.0</ele><time>2026-05-01T10:06:25.972Z</time></trkpt><trkpt lat="39.4768367" lon="16.216115"><ele>94.0</ele><time>2026-05-01T10:06:26.972Z</time></trkpt><trkpt lat="39.47713" lon="16.21603"><ele>95.0</ele><time>2026-05-01T10:06:27.973Z</time></trkpt><trkpt lat="39.4774267" lon="16.2159533"><ele>95.0</ele><time>2026-05-01T10:06:28.971Z</time></trkpt><trkpt lat="39.4777267" lon="16.2158767"><ele>95.0</ele><time>2026-05-01T10:06:29.971Z</time></trkpt><trkpt lat="39.478025" lon="16.215805"><ele>95.0</ele><time>2026-05-01T10:06:30.971Z</time></trkpt><trkpt lat="39.4783167" lon="16.2157333"><ele>95.0</ele><time>2026-05-01T10:06:31.972Z</time></trkpt><trkpt lat="39.4786133" lon="16.215665"><ele>95.0</ele><time>2026-05-01T10:06:32.972Z</time></trkpt><trkpt lat="39.4788983" lon="16.2155967"><ele>95.0</ele><time>2026-05-01T10:06:33.972Z</time></trkpt><trkpt lat="39.4791883" lon="16.2155233"><ele>95.0</ele><time>2026-05-01T10:06:34.971Z</time></trkpt><trkpt lat="39.4794833" lon="16.2154467"><ele>95.0</ele><time>2026-05-01T10:06:35.971Z</time></trkpt><trkpt lat="39.4797817" lon="16.2153733"><ele>95.5</ele><time>2026-05-01T10:06:36.972Z</time></trkpt><trkpt lat="39.4800833" lon="16.215295"><ele>96.0</ele><time>2026-05-01T10:06:37.971Z</time></trkpt><trkpt lat="39.4803867" lon="16.2152183"><ele>96.0</ele><time>2026-05-01T10:06:38.971Z</time></trkpt><trkpt lat="39.4807" lon="16.215145"><ele>96.0</ele><time>2026-05-01T10:06:39.972Z</time></trkpt><trkpt lat="39.4810033" lon="16.2150633"><ele>94.5</ele><time>2026-05-01T10:06:40.971Z</time></trkpt><trkpt lat="39.4813117" lon="16.2149883"><ele>93.0</ele><time>2026-05-01T10:06:41.971Z</time></trkpt><trkpt lat="39.4816217" lon="16.2149083"><ele>93.0</ele><time>2026-05-01T10:06:42.971Z</time></trkpt><trkpt lat="39.4819283" lon="16.21483"><ele>93.0</ele><time>2026-05-01T10:06:43.971Z</time></trkpt><trkpt lat="39.48223" lon="16.2147533"><ele>93.5</ele><time>2026-05-01T10:06:44.971Z</time></trkpt><trkpt lat="39.48253" lon="16.214675"><ele>94.0</ele><time>2026-05-01T10:06:45.971Z</time></trkpt><trkpt lat="39.4828217" lon="16.2145983"><ele>93.5</ele><time>2026-05-01T10:06:46.971Z</time></trkpt><trkpt lat="39.4831167" lon="16.214525"><ele>93.0</ele><time>2026-05-01T10:06:47.972Z</time></trkpt><trkpt lat="39.4834133" lon="16.21445"><ele>93.0</ele><time>2026-05-01T10:06:48.972Z</time></trkpt><trkpt lat="39.483715" lon="16.2143767"><ele>93.0</ele><time>2026-05-01T10:06:49.971Z</time></trkpt><trkpt lat="39.4840133" lon="16.2143033"><ele>92.5</ele><time>2026-05-01T10:06:50.972Z</time></trkpt><trkpt lat="39.4843133" lon="16.21423"><ele>92.0</ele><time>2026-05-01T10:06:51.971Z</time></trkpt><trkpt lat="39.4846167" lon="16.21416"><ele>91.0</ele><time>2026-05-01T10:06:52.971Z</time></trkpt><trkpt lat="39.4849183" lon="16.2140817"><ele>90.0</ele><time>2026-05-01T10:06:53.972Z</time></trkpt><trkpt lat="39.485215" lon="16.2140083"><ele>90.0</ele><time>2026-05-01T10:06:54.971Z</time></trkpt><trkpt lat="39.4855167" lon="16.2139367"><ele>90.0</ele><time>2026-05-01T10:06:55.971Z</time></trkpt><trkpt lat="39.485815" lon="16.2138633"><ele>90.0</ele><time>2026-05-01T10:06:56.971Z</time></trkpt><trkpt lat="39.4861133" lon="16.2137883"><ele>90.0</ele><time>2026-05-01T10:06:57.971Z</time></trkpt><trkpt lat="39.4864083" lon="16.2137133"><ele>90.0</ele><time>2026-05-01T10:06:58.971Z</time></trkpt><trkpt lat="39.4867083" lon="16.2136383"><ele>90.0</ele><time>2026-05-01T10:06:59.971Z</time></trkpt><trkpt lat="39.4870117" lon="16.2135617"><ele>89.5</ele><time>2026-05-01T10:07:00.972Z</time></trkpt><trkpt lat="39.487315" lon="16.21349"><ele>89.0</ele><time>2026-05-01T10:07:01.971Z</time></trkpt><trkpt lat="39.487615" lon="16.2134133"><ele>89.0</ele><time>2026-05-01T10:07:02.971Z</time></trkpt><trkpt lat="39.487915" lon="16.2133317"><ele>89.0</ele><time>2026-05-01T10:07:03.972Z</time></trkpt><trkpt lat="39.4882117" lon="16.213255"><ele>89.0</ele><time>2026-05-01T10:07:04.972Z</time></trkpt><trkpt lat="39.4885083" lon="16.2131767"><ele>89.0</ele><time>2026-05-01T10:07:05.971Z</time></trkpt><trkpt lat="39.488805" lon="16.2131033"><ele>89.0</ele><time>2026-05-01T10:07:06.971Z</time></trkpt><trkpt lat="39.4891133" lon="16.2130267"><ele>89.0</ele><time>2026-05-01T10:07:07.971Z</time></trkpt><trkpt lat="39.4894233" lon="16.21295"><ele>89.5</ele><time>2026-05-01T10:07:08.972Z</time></trkpt><trkpt lat="39.4897283" lon="16.2128717"><ele>90.0</ele><time>2026-05-01T10:07:09.971Z</time></trkpt><trkpt lat="39.49003" lon="16.21279"><ele>90.0</ele><time>2026-05-01T10:07:10.972Z</time></trkpt><trkpt lat="39.4903367" lon="16.2127117"><ele>90.0</ele><time>2026-05-01T10:07:11.971Z</time></trkpt><trkpt lat="39.4906333" lon="16.2126333"><ele>89.5</ele><time>2026-05-01T10:07:12.971Z</time></trkpt><trkpt lat="39.4909333" lon="16.2125517"><ele>89.0</ele><time>2026-05-01T10:07:13.972Z</time></trkpt><trkpt lat="39.491235" lon="16.21247"><ele>89.0</ele><time>2026-05-01T10:07:14.972Z</time></trkpt><trkpt lat="39.4915417" lon="16.212395"><ele>89.0</ele><time>2026-05-01T10:07:15.971Z</time></trkpt><trkpt lat="39.49185" lon="16.2123217"><ele>89.0</ele><time>2026-05-01T10:07:16.972Z</time></trkpt><trkpt lat="39.49215" lon="16.2122417"><ele>89.0</ele><time>2026-05-01T10:07:17.971Z</time></trkpt><trkpt lat="39.4924483" lon="16.21217"><ele>89.0</ele><time>2026-05-01T10:07:18.971Z</time></trkpt><trkpt lat="39.4927467" lon="16.2121033"><ele>89.0</ele><time>2026-05-01T10:07:19.971Z</time></trkpt><trkpt lat="39.4930517" lon="16.212035"><ele>88.5</ele><time>2026-05-01T10:07:20.972Z</time></trkpt><trkpt lat="39.4933567" lon="16.2119733"><ele>88.0</ele><time>2026-05-01T10:07:21.971Z</time></trkpt><trkpt lat="39.493655" lon="16.2119217"><ele>87.5</ele><time>2026-05-01T10:07:22.971Z</time></trkpt><trkpt lat="39.493955" lon="16.2118817"><ele>87.0</ele><time>2026-05-01T10:07:23.972Z</time></trkpt><trkpt lat="39.4942533" lon="16.2118433"><ele>87.0</ele><time>2026-05-01T10:07:24.972Z</time></trkpt><trkpt lat="39.49455" lon="16.2118083"><ele>87.0</ele><time>2026-05-01T10:07:25.972Z</time></trkpt><trkpt lat="39.4948467" lon="16.21177"><ele>88.0</ele><time>2026-05-01T10:07:26.971Z</time></trkpt><trkpt lat="39.4951433" lon="16.2117283"><ele>89.0</ele><time>2026-05-01T10:07:27.971Z</time></trkpt><trkpt lat="39.49544" lon="16.2116767"><ele>89.0</ele><time>2026-05-01T10:07:28.972Z</time></trkpt><trkpt lat="39.49573" lon="16.2116183"><ele>89.0</ele><time>2026-05-01T10:07:29.971Z</time></trkpt><trkpt lat="39.4960267" lon="16.2115533"><ele>89.0</ele><time>2026-05-01T10:07:30.971Z</time></trkpt><trkpt lat="39.4963317" lon="16.21148"><ele>89.0</ele><time>2026-05-01T10:07:31.972Z</time></trkpt><trkpt lat="39.496645" lon="16.2114"><ele>89.0</ele><time>2026-05-01T10:07:32.972Z</time></trkpt><trkpt lat="39.49696" lon="16.2113283"><ele>89.0</ele><time>2026-05-01T10:07:33.971Z</time></trkpt><trkpt lat="39.4972683" lon="16.211245"><ele>88.5</ele><time>2026-05-01T10:07:34.971Z</time></trkpt><trkpt lat="39.4975683" lon="16.2111633"><ele>88.0</ele><time>2026-05-01T10:07:35.971Z</time></trkpt><trkpt lat="39.4978767" lon="16.2110817"><ele>88.5</ele><time>2026-05-01T10:07:36.971Z</time></trkpt><trkpt lat="39.498175" lon="16.211005"><ele>89.0</ele><time>2026-05-01T10:07:37.971Z</time></trkpt><trkpt lat="39.4984717" lon="16.210935"><ele>89.0</ele><time>2026-05-01T10:07:38.971Z</time></trkpt><trkpt lat="39.4987717" lon="16.21086"><ele>89.0</ele><time>2026-05-01T10:07:39.972Z</time></trkpt><trkpt lat="39.49907" lon="16.2107833"><ele>89.0</ele><time>2026-05-01T10:07:40.972Z</time></trkpt><trkpt lat="39.4993667" lon="16.2107133"><ele>89.0</ele><time>2026-05-01T10:07:41.971Z</time></trkpt><trkpt lat="39.4996633" lon="16.210635"><ele>87.5</ele><time>2026-05-01T10:07:42.972Z</time></trkpt><trkpt lat="39.4999617" lon="16.210555"><ele>86.0</ele><time>2026-05-01T10:07:43.972Z</time></trkpt><trkpt lat="39.5002583" lon="16.2104767"><ele>85.5</ele><time>2026-05-01T10:07:44.971Z</time></trkpt><trkpt lat="39.5005533" lon="16.2104017"><ele>85.0</ele><time>2026-05-01T10:07:45.971Z</time></trkpt><trkpt lat="39.5008567" lon="16.2103217"><ele>85.0</ele><time>2026-05-01T10:07:46.972Z</time></trkpt><trkpt lat="39.5011633" lon="16.2102433"><ele>85.0</ele><time>2026-05-01T10:07:47.972Z</time></trkpt><trkpt lat="39.50147" lon="16.2101717"><ele>85.0</ele><time>2026-05-01T10:07:48.971Z</time></trkpt><trkpt lat="39.5017733" lon="16.210105"><ele>85.0</ele><time>2026-05-01T10:07:49.971Z</time></trkpt><trkpt lat="39.5020783" lon="16.2100417"><ele>84.5</ele><time>2026-05-01T10:07:50.971Z</time></trkpt><trkpt lat="39.5023833" lon="16.2099917"><ele>84.0</ele><time>2026-05-01T10:07:51.972Z</time></trkpt><trkpt lat="39.502685" lon="16.20995"><ele>84.0</ele><time>2026-05-01T10:07:52.971Z</time></trkpt><trkpt lat="39.5029917" lon="16.2099233"><ele>84.0</ele><time>2026-05-01T10:07:53.972Z</time></trkpt><trkpt lat="39.5032917" lon="16.2099017"><ele>84.0</ele><time>2026-05-01T10:07:54.972Z</time></trkpt><trkpt lat="39.5035933" lon="16.2098883"><ele>84.0</ele><time>2026-05-01T10:07:55.971Z</time></trkpt><trkpt lat="39.5039" lon="16.2098867"><ele>84.0</ele><time>2026-05-01T10:07:56.971Z</time></trkpt><trkpt lat="39.504205" lon="16.2098883"><ele>84.0</ele><time>2026-05-01T10:07:57.971Z</time></trkpt><trkpt lat="39.504505" lon="16.209895"><ele>85.0</ele><time>2026-05-01T10:07:58.971Z</time></trkpt><trkpt lat="39.5048033" lon="16.2099"><ele>86.0</ele><time>2026-05-01T10:07:59.972Z</time></trkpt><trkpt lat="39.5051083" lon="16.2099083"><ele>86.0</ele><time>2026-05-01T10:08:00.971Z</time></trkpt><trkpt lat="39.50541" lon="16.2099133"><ele>86.0</ele><time>2026-05-01T10:08:01.972Z</time></trkpt><trkpt lat="39.5057117" lon="16.2099217"><ele>86.0</ele><time>2026-05-01T10:08:02.971Z</time></trkpt><trkpt lat="39.5060183" lon="16.2099317"><ele>86.0</ele><time>2026-05-01T10:08:03.972Z</time></trkpt><trkpt lat="39.5063233" lon="16.20994"><ele>87.0</ele><time>2026-05-01T10:08:04.971Z</time></trkpt><trkpt lat="39.506625" lon="16.2099483"><ele>88.0</ele><time>2026-05-01T10:08:05.971Z</time></trkpt><trkpt lat="39.5069317" lon="16.2099567"><ele>88.0</ele><time>2026-05-01T10:08:06.971Z</time></trkpt><trkpt lat="39.50723" lon="16.2099633"><ele>88.0</ele><time>2026-05-01T10:08:07.971Z</time></trkpt><trkpt lat="39.5075283" lon="16.2099717"><ele>88.0</ele><time>2026-05-01T10:08:08.971Z</time></trkpt><trkpt lat="39.507835" lon="16.2099783"><ele>88.0</ele><time>2026-05-01T10:08:09.971Z</time></trkpt><trkpt lat="39.50814" lon="16.209985"><ele>88.5</ele><time>2026-05-01T10:08:10.971Z</time></trkpt><trkpt lat="39.5084467" lon="16.20999"><ele>89.0</ele><time>2026-05-01T10:08:11.971Z</time></trkpt><trkpt lat="39.5087533" lon="16.209995"><ele>89.5</ele><time>2026-05-01T10:08:12.971Z</time></trkpt><trkpt lat="39.5090517" lon="16.2099983"><ele>90.0</ele><time>2026-05-01T10:08:13.971Z</time></trkpt><trkpt lat="39.509355" lon="16.2100033"><ele>90.5</ele><time>2026-05-01T10:08:14.971Z</time></trkpt><trkpt lat="39.5096533" lon="16.2100083"><ele>91.0</ele><time>2026-05-01T10:08:15.971Z</time></trkpt><trkpt lat="39.5099583" lon="16.210015"><ele>91.0</ele><time>2026-05-01T10:08:16.971Z</time></trkpt><trkpt lat="39.5102717" lon="16.2100233"><ele>91.0</ele><time>2026-05-01T10:08:17.971Z</time></trkpt><trkpt lat="39.5105883" lon="16.2100267"><ele>91.0</ele><time>2026-05-01T10:08:18.971Z</time></trkpt><trkpt lat="39.5109067" lon="16.21003"><ele>91.0</ele><time>2026-05-01T10:08:19.971Z</time></trkpt><trkpt lat="39.5112217" lon="16.2100367"><ele>91.0</ele><time>2026-05-01T10:08:20.971Z</time></trkpt><trkpt lat="39.5115317" lon="16.2100467"><ele>91.0</ele><time>2026-05-01T10:08:21.972Z</time></trkpt><trkpt lat="39.5118433" lon="16.2100617"><ele>89.5</ele><time>2026-05-01T10:08:22.972Z</time></trkpt><trkpt lat="39.5121533" lon="16.210085"><ele>88.0</ele><time>2026-05-01T10:08:23.971Z</time></trkpt><trkpt lat="39.5124633" lon="16.21012"><ele>88.0</ele><time>2026-05-01T10:08:24.972Z</time></trkpt><trkpt lat="39.5127667" lon="16.2101667"><ele>88.0</ele><time>2026-05-01T10:08:25.971Z</time></trkpt><trkpt lat="39.5130767" lon="16.2102333"><ele>89.0</ele><time>2026-05-01T10:08:26.971Z</time></trkpt><trkpt lat="39.513375" lon="16.2103083"><ele>90.0</ele><time>2026-05-01T10:08:27.971Z</time></trkpt><trkpt lat="39.5136733" lon="16.210395"><ele>90.0</ele><time>2026-05-01T10:08:28.971Z</time></trkpt><trkpt lat="39.5139717" lon="16.210495"><ele>90.0</ele><time>2026-05-01T10:08:29.972Z</time></trkpt><trkpt lat="39.51426" lon="16.2105967"><ele>88.5</ele><time>2026-05-01T10:08:30.971Z</time></trkpt><trkpt lat="39.5145433" lon="16.210705"><ele>87.0</ele><time>2026-05-01T10:08:31.971Z</time></trkpt><trkpt lat="39.5148267" lon="16.2108167"><ele>87.0</ele><time>2026-05-01T10:08:32.971Z</time></trkpt><trkpt lat="39.5151167" lon="16.2109267"><ele>87.0</ele><time>2026-05-01T10:08:33.972Z</time></trkpt><trkpt lat="39.5154083" lon="16.2110383"><ele>88.5</ele><time>2026-05-01T10:08:34.971Z</time></trkpt><trkpt lat="39.5156983" lon="16.2111517"><ele>90.0</ele><time>2026-05-01T10:08:35.972Z</time></trkpt><trkpt lat="39.5159883" lon="16.21126"><ele>90.5</ele><time>2026-05-01T10:08:36.971Z</time></trkpt><trkpt lat="39.5162817" lon="16.2113717"><ele>91.0</ele><time>2026-05-01T10:08:37.971Z</time></trkpt><trkpt lat="39.5165817" lon="16.21149"><ele>89.0</ele><time>2026-05-01T10:08:38.971Z</time></trkpt><trkpt lat="39.5168733" lon="16.2116033"><ele>87.0</ele><time>2026-05-01T10:08:39.972Z</time></trkpt><trkpt lat="39.51717" lon="16.2117267"><ele>86.5</ele><time>2026-05-01T10:08:40.972Z</time></trkpt><trkpt lat="39.5174567" lon="16.2118467"><ele>86.0</ele><time>2026-05-01T10:08:41.971Z</time></trkpt><trkpt lat="39.5177533" lon="16.211965"><ele>86.0</ele><time>2026-05-01T10:08:42.972Z</time></trkpt><trkpt lat="39.5180483" lon="16.2120867"><ele>86.0</ele><time>2026-05-01T10:08:43.972Z</time></trkpt><trkpt lat="39.51834" lon="16.2122017"><ele>86.0</ele><time>2026-05-01T10:08:44.972Z</time></trkpt><trkpt lat="39.5186317" lon="16.21232"><ele>86.0</ele><time>2026-05-01T10:08:45.971Z</time></trkpt><trkpt lat="39.5189217" lon="16.2124317"><ele>83.5</ele><time>2026-05-01T10:08:46.971Z</time></trkpt><trkpt lat="39.5192083" lon="16.21254"><ele>81.0</ele><time>2026-05-01T10:08:47.972Z</time></trkpt><trkpt lat="39.5195" lon="16.2126517"><ele>82.0</ele><time>2026-05-01T10:08:48.971Z</time></trkpt><trkpt lat="39.5197983" lon="16.2127533"><ele>83.0</ele><time>2026-05-01T10:08:49.971Z</time></trkpt><trkpt lat="39.52009" lon="16.21286"><ele>83.0</ele><time>2026-05-01T10:08:50.971Z</time></trkpt><trkpt lat="39.5203833" lon="16.2129733"><ele>83.0</ele><time>2026-05-01T10:08:51.971Z</time></trkpt><trkpt lat="39.5206717" lon="16.213085"><ele>83.0</ele><time>2026-05-01T10:08:52.972Z</time></trkpt><trkpt lat="39.52096" lon="16.2131983"><ele>83.0</ele><time>2026-05-01T10:08:53.972Z</time></trkpt><trkpt lat="39.5212483" lon="16.2133167"><ele>83.0</ele><time>2026-05-01T10:08:54.972Z</time></trkpt><trkpt lat="39.5215367" lon="16.2134417"><ele>83.0</ele><time>2026-05-01T10:08:55.972Z</time></trkpt><trkpt lat="39.52182" lon="16.2135767"><ele>83.0</ele><time>2026-05-01T10:08:56.972Z</time></trkpt><trkpt lat="39.5221017" lon="16.2137183"><ele>83.0</ele><time>2026-05-01T10:08:57.971Z</time></trkpt><trkpt lat="39.5223767" lon="16.21387"><ele>81.0</ele><time>2026-05-01T10:08:58.972Z</time></trkpt><trkpt lat="39.52265" lon="16.2140367"><ele>79.0</ele><time>2026-05-01T10:08:59.971Z</time></trkpt><trkpt lat="39.52292" lon="16.2142183"><ele>79.0</ele><time>2026-05-01T10:09:00.971Z</time></trkpt><trkpt lat="39.52319" lon="16.2144133"><ele>79.0</ele><time>2026-05-01T10:09:01.971Z</time></trkpt><trkpt lat="39.5234517" lon="16.2146183"><ele>78.0</ele><time>2026-05-01T10:09:02.971Z</time></trkpt><trkpt lat="39.5237083" lon="16.2148367"><ele>77.0</ele><time>2026-05-01T10:09:03.971Z</time></trkpt><trkpt lat="39.5239617" lon="16.2150567"><ele>77.0</ele><time>2026-05-01T10:09:04.971Z</time></trkpt><trkpt lat="39.5242133" lon="16.2152767"><ele>77.0</ele><time>2026-05-01T10:09:05.972Z</time></trkpt><trkpt lat="39.5244633" lon="16.2155017"><ele>76.0</ele><time>2026-05-01T10:09:06.971Z</time></trkpt><trkpt lat="39.5247067" lon="16.215725"><ele>75.0</ele><time>2026-05-01T10:09:07.972Z</time></trkpt><trkpt lat="39.5249533" lon="16.2159467"><ele>75.0</ele><time>2026-05-01T10:09:08.972Z</time></trkpt><trkpt lat="39.5252017" lon="16.2161683"><ele>75.0</ele><time>2026-05-01T10:09:09.971Z</time></trkpt><trkpt lat="39.5254483" lon="16.2163983"><ele>74.5</ele><time>2026-05-01T10:09:10.971Z</time></trkpt><trkpt lat="39.5256967" lon="16.216625"><ele>74.0</ele><time>2026-05-01T10:09:11.971Z</time></trkpt><trkpt lat="39.5259467" lon="16.2168517"><ele>74.0</ele><time>2026-05-01T10:09:12.971Z</time></trkpt><trkpt lat="39.5262017" lon="16.2170683"><ele>74.0</ele><time>2026-05-01T10:09:13.972Z</time></trkpt><trkpt lat="39.5264533" lon="16.2172783"><ele>74.5</ele><time>2026-05-01T10:09:14.972Z</time></trkpt><trkpt lat="39.526705" lon="16.217485"><ele>75.0</ele><time>2026-05-01T10:09:15.972Z</time></trkpt><trkpt lat="39.5269567" lon="16.21768"><ele>76.0</ele><time>2026-05-01T10:09:16.972Z</time></trkpt><trkpt lat="39.5272117" lon="16.2178667"><ele>77.0</ele><time>2026-05-01T10:09:17.971Z</time></trkpt><trkpt lat="39.5274667" lon="16.21805"><ele>76.5</ele><time>2026-05-01T10:09:18.972Z</time></trkpt><trkpt lat="39.5277317" lon="16.2182283"><ele>76.0</ele><time>2026-05-01T10:09:19.971Z</time></trkpt><trkpt lat="39.5280033" lon="16.2184"><ele>77.0</ele><time>2026-05-01T10:09:20.971Z</time></trkpt><trkpt lat="39.5282817" lon="16.2185717"><ele>78.0</ele><time>2026-05-01T10:09:21.971Z</time></trkpt><trkpt lat="39.52856" lon="16.2187433"><ele>78.0</ele><time>2026-05-01T10:09:22.972Z</time></trkpt><trkpt lat="39.5288383" lon="16.2189133"><ele>78.0</ele><time>2026-05-01T10:09:23.971Z</time></trkpt><trkpt lat="39.52913" lon="16.2190867"><ele>77.5</ele><time>2026-05-01T10:09:24.972Z</time></trkpt><trkpt lat="39.5294183" lon="16.21925"><ele>77.0</ele><time>2026-05-01T10:09:25.972Z</time></trkpt><trkpt lat="39.5297033" lon="16.2194167"><ele>77.0</ele><time>2026-05-01T10:09:26.971Z</time></trkpt><trkpt lat="39.5299867" lon="16.2195817"><ele>77.0</ele><time>2026-05-01T10:09:27.972Z</time></trkpt><trkpt lat="39.530265" lon="16.21974"><ele>77.5</ele><time>2026-05-01T10:09:28.971Z</time></trkpt><trkpt lat="39.5305433" lon="16.2198983"><ele>78.0</ele><time>2026-05-01T10:09:29.971Z</time></trkpt><trkpt lat="39.53082" lon="16.2200633"><ele>78.0</ele><time>2026-05-01T10:09:30.971Z</time></trkpt><trkpt lat="39.5310933" lon="16.2202217"><ele>78.0</ele><time>2026-05-01T10:09:31.971Z</time></trkpt><trkpt lat="39.5313767" lon="16.22038"><ele>78.0</ele><time>2026-05-01T10:09:32.971Z</time></trkpt><trkpt lat="39.5316517" lon="16.2205417"><ele>78.0</ele><time>2026-05-01T10:09:33.971Z</time></trkpt><trkpt lat="39.5319333" lon="16.220705"><ele>79.5</ele><time>2026-05-01T10:09:34.971Z</time></trkpt><trkpt lat="39.5322117" lon="16.22087"><ele>81.0</ele><time>2026-05-01T10:09:35.971Z</time></trkpt><trkpt lat="39.5324933" lon="16.2210333"><ele>81.0</ele><time>2026-05-01T10:09:36.972Z</time></trkpt><trkpt lat="39.5327767" lon="16.2212"><ele>81.0</ele><time>2026-05-01T10:09:37.971Z</time></trkpt><trkpt lat="39.53306" lon="16.2213633"><ele>79.5</ele><time>2026-05-01T10:09:38.971Z</time></trkpt><trkpt lat="39.5333433" lon="16.2215233"><ele>78.0</ele><time>2026-05-01T10:09:39.971Z</time></trkpt><trkpt lat="39.5336283" lon="16.2216917"><ele>77.5</ele><time>2026-05-01T10:09:40.972Z</time></trkpt><trkpt lat="39.5339133" lon="16.2218583"><ele>77.0</ele><time>2026-05-01T10:09:41.971Z</time></trkpt><trkpt lat="39.5341967" lon="16.22202"><ele>77.0</ele><time>2026-05-01T10:09:42.971Z</time></trkpt><trkpt lat="39.5344783" lon="16.22218"><ele>77.0</ele><time>2026-05-01T10:09:43.971Z</time></trkpt><trkpt lat="39.5347583" lon="16.2223367"><ele>77.0</ele><time>2026-05-01T10:09:44.971Z</time></trkpt><trkpt lat="39.5350383" lon="16.2224917"><ele>77.0</ele><time>2026-05-01T10:09:45.972Z</time></trkpt><trkpt lat="39.53532" lon="16.2226517"><ele>77.0</ele><time>2026-05-01T10:09:46.971Z</time></trkpt><trkpt lat="39.5355967" lon="16.2228017"><ele>77.0</ele><time>2026-05-01T10:09:47.971Z</time></trkpt><trkpt lat="39.5358783" lon="16.2229467"><ele>77.0</ele><time>2026-05-01T10:09:48.971Z</time></trkpt><trkpt lat="39.5361633" lon="16.2230883"><ele>77.0</ele><time>2026-05-01T10:09:49.972Z</time></trkpt><trkpt lat="39.5364483" lon="16.2232217"><ele>76.5</ele><time>2026-05-01T10:09:50.971Z</time></trkpt><trkpt lat="39.5367383" lon="16.223355"><ele>76.0</ele><time>2026-05-01T10:09:51.971Z</time></trkpt><trkpt lat="39.5370267" lon="16.2234933"><ele>75.0</ele><time>2026-05-01T10:09:52.971Z</time></trkpt><trkpt lat="39.5373067" lon="16.223635"><ele>74.0</ele><time>2026-05-01T10:09:53.972Z</time></trkpt><trkpt lat="39.537595" lon="16.22377"><ele>74.0</ele><time>2026-05-01T10:09:54.972Z</time></trkpt><trkpt lat="39.5378817" lon="16.2239133"><ele>74.0</ele><time>2026-05-01T10:09:55.971Z</time></trkpt><trkpt lat="39.5381683" lon="16.22406"><ele>74.0</ele><time>2026-05-01T10:09:56.972Z</time></trkpt><trkpt lat="39.5384567" lon="16.2241967"><ele>74.0</ele><time>2026-05-01T10:09:57.971Z</time></trkpt><trkpt lat="39.538745" lon="16.22433"><ele>74.5</ele><time>2026-05-01T10:09:58.972Z</time></trkpt><trkpt lat="39.5390283" lon="16.2244683"><ele>75.0</ele><time>2026-05-01T10:09:59.972Z</time></trkpt><trkpt lat="39.5393233" lon="16.22461"><ele>75.5</ele><time>2026-05-01T10:10:00.971Z</time></trkpt><trkpt lat="39.5396217" lon="16.2247533"><ele>76.0</ele><time>2026-05-01T10:10:01.971Z</time></trkpt><trkpt lat="39.5399167" lon="16.224895"><ele>76.0</ele><time>2026-05-01T10:10:02.971Z</time></trkpt><trkpt lat="39.540215" lon="16.225035"><ele>76.0</ele><time>2026-05-01T10:10:03.971Z</time></trkpt><trkpt lat="39.5404983" lon="16.2251717"><ele>76.5</ele><time>2026-05-01T10:10:04.971Z</time></trkpt><trkpt lat="39.54078" lon="16.2253083"><ele>77.0</ele><time>2026-05-01T10:10:05.971Z</time></trkpt><trkpt lat="39.541065" lon="16.225445"><ele>75.5</ele><time>2026-05-01T10:10:06.971Z</time></trkpt><trkpt lat="39.5413483" lon="16.225575"><ele>74.0</ele><time>2026-05-01T10:10:07.971Z</time></trkpt><trkpt lat="39.5416267" lon="16.2257067"><ele>74.0</ele><time>2026-05-01T10:10:08.971Z</time></trkpt><trkpt lat="39.541905" lon="16.2258383"><ele>74.0</ele><time>2026-05-01T10:10:09.972Z</time></trkpt><trkpt lat="39.5421867" lon="16.2259767"><ele>73.5</ele><time>2026-05-01T10:10:10.971Z</time></trkpt><trkpt lat="39.5424667" lon="16.2261117"><ele>73.0</ele><time>2026-05-01T10:10:11.971Z</time></trkpt><trkpt lat="39.54276" lon="16.22625"><ele>73.0</ele><time>2026-05-01T10:10:12.971Z</time></trkpt><trkpt lat="39.5430467" lon="16.226385"><ele>73.0</ele><time>2026-05-01T10:10:13.971Z</time></trkpt><trkpt lat="39.54333" lon="16.22652"><ele>72.5</ele><time>2026-05-01T10:10:14.971Z</time></trkpt><trkpt lat="39.5436083" lon="16.2266467"><ele>72.0</ele><time>2026-05-01T10:10:15.971Z</time></trkpt><trkpt lat="39.5438967" lon="16.2267783"><ele>72.0</ele><time>2026-05-01T10:10:16.971Z</time></trkpt><trkpt lat="39.5441817" lon="16.2269183"><ele>72.0</ele><time>2026-05-01T10:10:17.972Z</time></trkpt><trkpt lat="39.5444683" lon="16.22706"><ele>72.5</ele><time>2026-05-01T10:10:18.971Z</time></trkpt><trkpt lat="39.5447533" lon="16.2271967"><ele>73.0</ele><time>2026-05-01T10:10:19.971Z</time></trkpt><trkpt lat="39.5450417" lon="16.2273367"><ele>72.0</ele><time>2026-05-01T10:10:20.971Z</time></trkpt><trkpt lat="39.5453317" lon="16.2274833"><ele>71.0</ele><time>2026-05-01T10:10:21.972Z</time></trkpt><trkpt lat="39.5456217" lon="16.2276233"><ele>70.5</ele><time>2026-05-01T10:10:22.971Z</time></trkpt><trkpt lat="39.5459083" lon="16.2277633"><ele>70.0</ele><time>2026-05-01T10:10:23.972Z</time></trkpt><trkpt lat="39.546195" lon="16.227905"><ele>70.0</ele><time>2026-05-01T10:10:24.971Z</time></trkpt><trkpt lat="39.5464783" lon="16.22804"><ele>70.0</ele><time>2026-05-01T10:10:25.971Z</time></trkpt><trkpt lat="39.5467533" lon="16.2281717"><ele>70.0</ele><time>2026-05-01T10:10:26.971Z</time></trkpt><trkpt lat="39.5470317" lon="16.2283033"><ele>70.0</ele><time>2026-05-01T10:10:27.971Z</time></trkpt><trkpt lat="39.547315" lon="16.2284383"><ele>70.5</ele><time>2026-05-01T10:10:28.971Z</time></trkpt><trkpt lat="39.5476033" lon="16.2285817"><ele>71.0</ele><time>2026-05-01T10:10:29.972Z</time></trkpt><trkpt lat="39.5478967" lon="16.2287167"><ele>71.0</ele><time>2026-05-01T10:10:30.972Z</time></trkpt><trkpt lat="39.5481867" lon="16.2288533"><ele>71.0</ele><time>2026-05-01T10:10:31.971Z</time></trkpt><trkpt lat="39.548475" lon="16.2289917"><ele>71.5</ele><time>2026-05-01T10:10:32.971Z</time></trkpt><trkpt lat="39.5487583" lon="16.2291317"><ele>72.0</ele><time>2026-05-01T10:10:33.971Z</time></trkpt><trkpt lat="39.549045" lon="16.2292683"><ele>72.0</ele><time>2026-05-01T10:10:34.971Z</time></trkpt><trkpt lat="39.54933" lon="16.2294083"><ele>72.0</ele><time>2026-05-01T10:10:35.971Z</time></trkpt><trkpt lat="39.5496167" lon="16.229545"><ele>72.0</ele><time>2026-05-01T10:10:36.972Z</time></trkpt><trkpt lat="39.5499033" lon="16.2296833"><ele>72.0</ele><time>2026-05-01T10:10:37.972Z</time></trkpt><trkpt lat="39.55019" lon="16.2298167"><ele>72.0</ele><time>2026-05-01T10:10:38.972Z</time></trkpt><trkpt lat="39.55048" lon="16.2299467"><ele>72.0</ele><time>2026-05-01T10:10:39.971Z</time></trkpt><trkpt lat="39.550765" lon="16.230085"><ele>72.0</ele><time>2026-05-01T10:10:40.971Z</time></trkpt><trkpt lat="39.5510483" lon="16.2302133"><ele>72.0</ele><time>2026-05-01T10:10:41.971Z</time></trkpt><trkpt lat="39.551335" lon="16.2303483"><ele>72.5</ele><time>2026-05-01T10:10:42.971Z</time></trkpt><trkpt lat="39.5516167" lon="16.23048"><ele>73.0</ele><time>2026-05-01T10:10:43.971Z</time></trkpt><trkpt lat="39.5518983" lon="16.230615"><ele>72.5</ele><time>2026-05-01T10:10:44.971Z</time></trkpt><trkpt lat="39.55218" lon="16.2307517"><ele>72.0</ele><time>2026-05-01T10:10:45.971Z</time></trkpt><trkpt lat="39.5524633" lon="16.23089"><ele>72.0</ele><time>2026-05-01T10:10:46.971Z</time></trkpt><trkpt lat="39.5527467" lon="16.231025"><ele>72.0</ele><time>2026-05-01T10:10:47.971Z</time></trkpt><trkpt lat="39.5530317" lon="16.2311617"><ele>72.0</ele><time>2026-05-01T10:10:48.971Z</time></trkpt><trkpt lat="39.5533117" lon="16.2313"><ele>72.0</ele><time>2026-05-01T10:10:49.972Z</time></trkpt><trkpt lat="39.5536" lon="16.231435"><ele>72.0</ele><time>2026-05-01T10:10:50.972Z</time></trkpt><trkpt lat="39.5538817" lon="16.2315683"><ele>72.0</ele><time>2026-05-01T10:10:51.971Z</time></trkpt><trkpt lat="39.5541683" lon="16.2317083"><ele>72.0</ele><time>2026-05-01T10:10:52.971Z</time></trkpt><trkpt lat="39.5544583" lon="16.2318367"><ele>72.0</ele><time>2026-05-01T10:10:53.971Z</time></trkpt><trkpt lat="39.55474" lon="16.2319683"><ele>72.5</ele><time>2026-05-01T10:10:54.971Z</time></trkpt><trkpt lat="39.55502" lon="16.232105"><ele>73.0</ele><time>2026-05-01T10:10:55.971Z</time></trkpt><trkpt lat="39.5553" lon="16.23224"><ele>72.5</ele><time>2026-05-01T10:10:56.971Z</time></trkpt><trkpt lat="39.555585" lon="16.232375"><ele>72.0</ele><time>2026-05-01T10:10:57.971Z</time></trkpt><trkpt lat="39.5558717" lon="16.2325067"><ele>72.0</ele><time>2026-05-01T10:10:58.971Z</time></trkpt><trkpt lat="39.5561617" lon="16.2326417"><ele>72.0</ele><time>2026-05-01T10:10:59.971Z</time></trkpt><trkpt lat="39.556445" lon="16.2327833"><ele>70.5</ele><time>2026-05-01T10:11:00.972Z</time></trkpt><trkpt lat="39.5567267" lon="16.232925"><ele>69.0</ele><time>2026-05-01T10:11:01.971Z</time></trkpt><trkpt lat="39.557005" lon="16.23306"><ele>69.5</ele><time>2026-05-01T10:11:02.971Z</time></trkpt><trkpt lat="39.5572817" lon="16.2331967"><ele>70.0</ele><time>2026-05-01T10:11:03.972Z</time></trkpt><trkpt lat="39.55756" lon="16.2333317"><ele>70.0</ele><time>2026-05-01T10:11:04.971Z</time></trkpt><trkpt lat="39.55784" lon="16.2334683"><ele>70.0</ele><time>2026-05-01T10:11:05.972Z</time></trkpt><trkpt lat="39.558125" lon="16.2336067"><ele>70.0</ele><time>2026-05-01T10:11:06.972Z</time></trkpt><trkpt lat="39.5584033" lon="16.2337483"><ele>70.0</ele><time>2026-05-01T10:11:07.972Z</time></trkpt><trkpt lat="39.55868" lon="16.2338833"><ele>69.5</ele><time>2026-05-01T10:11:08.971Z</time></trkpt><trkpt lat="39.5589667" lon="16.2340233"><ele>69.0</ele><time>2026-05-01T10:11:09.972Z</time></trkpt><trkpt lat="39.5592583" lon="16.23416"><ele>68.0</ele><time>2026-05-01T10:11:10.971Z</time></trkpt><trkpt lat="39.55955" lon="16.2342967"><ele>67.0</ele><time>2026-05-01T10:11:11.972Z</time></trkpt><trkpt lat="39.5598433" lon="16.2344267"><ele>67.0</ele><time>2026-05-01T10:11:12.972Z</time></trkpt><trkpt lat="39.5601317" lon="16.2345567"><ele>67.0</ele><time>2026-05-01T10:11:13.971Z</time></trkpt><trkpt lat="39.56042" lon="16.2346783"><ele>67.5</ele><time>2026-05-01T10:11:14.971Z</time></trkpt><trkpt lat="39.56071" lon="16.2347983"><ele>68.0</ele><time>2026-05-01T10:11:15.971Z</time></trkpt><trkpt lat="39.5610017" lon="16.234925"><ele>67.0</ele><time>2026-05-01T10:11:16.971Z</time></trkpt><trkpt lat="39.5612933" lon="16.235035"><ele>66.0</ele><time>2026-05-01T10:11:17.971Z</time></trkpt><trkpt lat="39.5615867" lon="16.2351417"><ele>66.0</ele><time>2026-05-01T10:11:18.971Z</time></trkpt><trkpt lat="39.56188" lon="16.235235"><ele>66.0</ele><time>2026-05-01T10:11:19.972Z</time></trkpt><trkpt lat="39.5621767" lon="16.2353317"><ele>65.5</ele><time>2026-05-01T10:11:20.971Z</time></trkpt><trkpt lat="39.5624717" lon="16.23543"><ele>65.0</ele><time>2026-05-01T10:11:21.971Z</time></trkpt><trkpt lat="39.56277" lon="16.2355267"><ele>65.0</ele><time>2026-05-01T10:11:22.971Z</time></trkpt><trkpt lat="39.5630733" lon="16.235625"><ele>65.0</ele><time>2026-05-01T10:11:23.971Z</time></trkpt><trkpt lat="39.563375" lon="16.2357167"><ele>65.0</ele><time>2026-05-01T10:11:24.971Z</time></trkpt><trkpt lat="39.56368" lon="16.2358083"><ele>65.0</ele><time>2026-05-01T10:11:25.971Z</time></trkpt><trkpt lat="39.5639833" lon="16.2358983"><ele>65.0</ele><time>2026-05-01T10:11:26.972Z</time></trkpt><trkpt lat="39.5642883" lon="16.2359933"><ele>65.0</ele><time>2026-05-01T10:11:27.971Z</time></trkpt><trkpt lat="39.56459" lon="16.2360883"><ele>65.0</ele><time>2026-05-01T10:11:28.972Z</time></trkpt><trkpt lat="39.564895" lon="16.2361833"><ele>65.0</ele><time>2026-05-01T10:11:29.971Z</time></trkpt><trkpt lat="39.5651933" lon="16.2362767"><ele>65.0</ele><time>2026-05-01T10:11:30.971Z</time></trkpt><trkpt lat="39.5654967" lon="16.236365"><ele>65.0</ele><time>2026-05-01T10:11:31.971Z</time></trkpt><trkpt lat="39.5657983" lon="16.2364583"><ele>64.5</ele><time>2026-05-01T10:11:32.971Z</time></trkpt><trkpt lat="39.5660967" lon="16.23655"><ele>64.0</ele><time>2026-05-01T10:11:33.971Z</time></trkpt><trkpt lat="39.566395" lon="16.2366433"><ele>63.5</ele><time>2026-05-01T10:11:34.972Z</time></trkpt><trkpt lat="39.5666917" lon="16.23674"><ele>63.0</ele><time>2026-05-01T10:11:35.971Z</time></trkpt><trkpt lat="39.56699" lon="16.2368283"><ele>63.0</ele><time>2026-05-01T10:11:36.972Z</time></trkpt><trkpt lat="39.5672867" lon="16.2369167"><ele>63.0</ele><time>2026-05-01T10:11:37.972Z</time></trkpt><trkpt lat="39.5675883" lon="16.2370017"><ele>64.0</ele><time>2026-05-01T10:11:38.971Z</time></trkpt><trkpt lat="39.5678867" lon="16.2370867"><ele>65.0</ele><time>2026-05-01T10:11:39.971Z</time></trkpt><trkpt lat="39.5681867" lon="16.23718"><ele>65.0</ele><time>2026-05-01T10:11:40.971Z</time></trkpt><trkpt lat="39.5684867" lon="16.23727"><ele>65.0</ele><time>2026-05-01T10:11:41.971Z</time></trkpt><trkpt lat="39.568785" lon="16.2373567"><ele>64.0</ele><time>2026-05-01T10:11:42.971Z</time></trkpt><trkpt lat="39.569085" lon="16.2374417"><ele>63.0</ele><time>2026-05-01T10:11:43.971Z</time></trkpt><trkpt lat="39.569385" lon="16.2375267"><ele>62.5</ele><time>2026-05-01T10:11:44.971Z</time></trkpt><trkpt lat="39.5696833" lon="16.237615"><ele>62.0</ele><time>2026-05-01T10:11:45.971Z</time></trkpt><trkpt lat="39.5699717" lon="16.2377017"><ele>62.0</ele><time>2026-05-01T10:11:46.972Z</time></trkpt><trkpt lat="39.5702633" lon="16.2377867"><ele>62.0</ele><time>2026-05-01T10:11:47.971Z</time></trkpt><trkpt lat="39.57056" lon="16.2378733"><ele>63.5</ele><time>2026-05-01T10:11:48.971Z</time></trkpt><trkpt lat="39.5708617" lon="16.23796"><ele>65.0</ele><time>2026-05-01T10:11:49.971Z</time></trkpt><trkpt lat="39.57116" lon="16.2380417"><ele>65.5</ele><time>2026-05-01T10:11:50.972Z</time></trkpt><trkpt lat="39.5714567" lon="16.2381233"><ele>66.0</ele><time>2026-05-01T10:11:51.971Z</time></trkpt><trkpt lat="39.571745" lon="16.2382133"><ele>65.0</ele><time>2026-05-01T10:11:52.971Z</time></trkpt><trkpt lat="39.5720383" lon="16.23832"><ele>64.0</ele><time>2026-05-01T10:11:53.971Z</time></trkpt><trkpt lat="39.5723367" lon="16.2384367"><ele>64.0</ele><time>2026-05-01T10:11:54.972Z</time></trkpt><trkpt lat="39.5726283" lon="16.2385683"><ele>64.0</ele><time>2026-05-01T10:11:55.971Z</time></trkpt><trkpt lat="39.57291" lon="16.23871"><ele>65.5</ele><time>2026-05-01T10:11:56.971Z</time></trkpt><trkpt lat="39.5731933" lon="16.23886"><ele>67.0</ele><time>2026-05-01T10:11:57.971Z</time></trkpt><trkpt lat="39.57348" lon="16.2390233"><ele>65.0</ele><time>2026-05-01T10:11:58.971Z</time></trkpt><trkpt lat="39.573755" lon="16.2391983"><ele>63.0</ele><time>2026-05-01T10:11:59.972Z</time></trkpt><trkpt lat="39.5740167" lon="16.2393783"><ele>63.0</ele><time>2026-05-01T10:12:00.971Z</time></trkpt><trkpt lat="39.574275" lon="16.23957"><ele>63.0</ele><time>2026-05-01T10:12:01.971Z</time></trkpt><trkpt lat="39.574535" lon="16.23977"><ele>63.0</ele><time>2026-05-01T10:12:02.971Z</time></trkpt><trkpt lat="39.5747883" lon="16.239985"><ele>63.0</ele><time>2026-05-01T10:12:03.971Z</time></trkpt><trkpt lat="39.5750367" lon="16.2402067"><ele>63.0</ele><time>2026-05-01T10:12:04.972Z</time></trkpt><trkpt lat="39.5752833" lon="16.2404317"><ele>63.0</ele><time>2026-05-01T10:12:05.972Z</time></trkpt><trkpt lat="39.57552" lon="16.2406567"><ele>63.5</ele><time>2026-05-01T10:12:06.971Z</time></trkpt><trkpt lat="39.575755" lon="16.2408867"><ele>64.0</ele><time>2026-05-01T10:12:07.972Z</time></trkpt><trkpt lat="39.575995" lon="16.24112"><ele>63.5</ele><time>2026-05-01T10:12:08.971Z</time></trkpt><trkpt lat="39.5762333" lon="16.2413533"><ele>63.0</ele><time>2026-05-01T10:12:09.971Z</time></trkpt><trkpt lat="39.57648" lon="16.2415867"><ele>63.0</ele><time>2026-05-01T10:12:10.971Z</time></trkpt><trkpt lat="39.5767267" lon="16.24181"><ele>63.0</ele><time>2026-05-01T10:12:11.972Z</time></trkpt><trkpt lat="39.576975" lon="16.242035"><ele>62.0</ele><time>2026-05-01T10:12:12.972Z</time></trkpt><trkpt lat="39.577225" lon="16.2422617"><ele>61.0</ele><time>2026-05-01T10:12:13.971Z</time></trkpt><trkpt lat="39.5774767" lon="16.2424817"><ele>61.0</ele><time>2026-05-01T10:12:14.971Z</time></trkpt><trkpt lat="39.5777217" lon="16.2426917"><ele>61.0</ele><time>2026-05-01T10:12:15.971Z</time></trkpt><trkpt lat="39.5779683" lon="16.2428983"><ele>61.5</ele><time>2026-05-01T10:12:16.971Z</time></trkpt><trkpt lat="39.57822" lon="16.2431017"><ele>62.0</ele><time>2026-05-01T10:12:17.971Z</time></trkpt><trkpt lat="39.5784733" lon="16.2433033"><ele>62.0</ele><time>2026-05-01T10:12:18.971Z</time></trkpt><trkpt lat="39.57873" lon="16.2435"><ele>62.0</ele><time>2026-05-01T10:12:19.971Z</time></trkpt><trkpt lat="39.5789817" lon="16.2436883"><ele>62.0</ele><time>2026-05-01T10:12:20.972Z</time></trkpt><trkpt lat="39.579245" lon="16.243865"><ele>62.0</ele><time>2026-05-01T10:12:21.972Z</time></trkpt><trkpt lat="39.57952" lon="16.2440367"><ele>62.0</ele><time>2026-05-01T10:12:22.971Z</time></trkpt><trkpt lat="39.5798017" lon="16.2442017"><ele>62.0</ele><time>2026-05-01T10:12:23.971Z</time></trkpt><trkpt lat="39.5800817" lon="16.2443583"><ele>60.5</ele><time>2026-05-01T10:12:24.971Z</time></trkpt><trkpt lat="39.5803617" lon="16.2445083"><ele>59.0</ele><time>2026-05-01T10:12:25.972Z</time></trkpt><trkpt lat="39.5806467" lon="16.2446533"><ele>59.0</ele><time>2026-05-01T10:12:26.971Z</time></trkpt><trkpt lat="39.5809383" lon="16.24479"><ele>59.0</ele><time>2026-05-01T10:12:27.972Z</time></trkpt><trkpt lat="39.5812383" lon="16.2449167"><ele>59.5</ele><time>2026-05-01T10:12:28.971Z</time></trkpt><trkpt lat="39.5815333" lon="16.24503"><ele>60.0</ele><time>2026-05-01T10:12:29.971Z</time></trkpt><trkpt lat="39.5818283" lon="16.2451467"><ele>61.0</ele><time>2026-05-01T10:12:30.971Z</time></trkpt><trkpt lat="39.582135" lon="16.2452533"><ele>62.0</ele><time>2026-05-01T10:12:31.971Z</time></trkpt><trkpt lat="39.5824383" lon="16.24535"><ele>62.0</ele><time>2026-05-01T10:12:32.972Z</time></trkpt><trkpt lat="39.5827383" lon="16.2454317"><ele>62.0</ele><time>2026-05-01T10:12:33.971Z</time></trkpt><trkpt lat="39.5830417" lon="16.245505"><ele>61.5</ele><time>2026-05-01T10:12:34.972Z</time></trkpt><trkpt lat="39.5833417" lon="16.24557"><ele>61.0</ele><time>2026-05-01T10:12:35.971Z</time></trkpt><trkpt lat="39.5836383" lon="16.2456167"><ele>60.5</ele><time>2026-05-01T10:12:36.971Z</time></trkpt><trkpt lat="39.583945" lon="16.2456533"><ele>60.0</ele><time>2026-05-01T10:12:37.971Z</time></trkpt><trkpt lat="39.58425" lon="16.2456883"><ele>60.5</ele><time>2026-05-01T10:12:38.971Z</time></trkpt><trkpt lat="39.5845517" lon="16.2457217"><ele>61.0</ele><time>2026-05-01T10:12:39.971Z</time></trkpt><trkpt lat="39.58485" lon="16.2457533"><ele>61.0</ele><time>2026-05-01T10:12:40.972Z</time></trkpt><trkpt lat="39.5851467" lon="16.2457767"><ele>61.0</ele><time>2026-05-01T10:12:41.971Z</time></trkpt><trkpt lat="39.5854483" lon="16.2458017"><ele>60.5</ele><time>2026-05-01T10:12:42.971Z</time></trkpt><trkpt lat="39.5857483" lon="16.24583"><ele>60.0</ele><time>2026-05-01T10:12:43.971Z</time></trkpt><trkpt lat="39.5860517" lon="16.2458517"><ele>60.0</ele><time>2026-05-01T10:12:44.971Z</time></trkpt><trkpt lat="39.5863583" lon="16.2458783"><ele>60.0</ele><time>2026-05-01T10:12:45.972Z</time></trkpt><trkpt lat="39.5866667" lon="16.2458967"><ele>60.0</ele><time>2026-05-01T10:12:46.971Z</time></trkpt><trkpt lat="39.5869783" lon="16.2459117"><ele>60.0</ele><time>2026-05-01T10:12:47.972Z</time></trkpt><trkpt lat="39.5872867" lon="16.2459217"><ele>60.5</ele><time>2026-05-01T10:12:48.972Z</time></trkpt><trkpt lat="39.5875933" lon="16.24593"><ele>61.0</ele><time>2026-05-01T10:12:49.972Z</time></trkpt><trkpt lat="39.5878983" lon="16.2459317"><ele>62.5</ele><time>2026-05-01T10:12:50.971Z</time></trkpt><trkpt lat="39.5882067" lon="16.2459333"><ele>64.0</ele><time>2026-05-01T10:12:51.971Z</time></trkpt><trkpt lat="39.588515" lon="16.2459367"><ele>66.5</ele><time>2026-05-01T10:12:52.972Z</time></trkpt><trkpt lat="39.58882" lon="16.2459467"><ele>69.0</ele><time>2026-05-01T10:12:53.971Z</time></trkpt><trkpt lat="39.5891233" lon="16.2459567"><ele>69.0</ele><time>2026-05-01T10:12:54.971Z</time></trkpt><trkpt lat="39.5894333" lon="16.245975"><ele>69.0</ele><time>2026-05-01T10:12:55.972Z</time></trkpt><trkpt lat="39.58974" lon="16.2459917"><ele>71.0</ele><time>2026-05-01T10:12:56.971Z</time></trkpt><trkpt lat="39.5900417" lon="16.2460017"><ele>73.0</ele><time>2026-05-01T10:12:57.971Z</time></trkpt><trkpt lat="39.5903433" lon="16.2460067"><ele>73.5</ele><time>2026-05-01T10:12:58.971Z</time></trkpt><trkpt lat="39.5906467" lon="16.2460133"><ele>74.0</ele><time>2026-05-01T10:12:59.971Z</time></trkpt><trkpt lat="39.5909467" lon="16.246015"><ele>76.5</ele><time>2026-05-01T10:13:00.971Z</time></trkpt><trkpt lat="39.591245" lon="16.2460017"><ele>79.0</ele><time>2026-05-01T10:13:01.972Z</time></trkpt><trkpt lat="39.59155" lon="16.2459783"><ele>79.0</ele><time>2026-05-01T10:13:02.972Z</time></trkpt><trkpt lat="39.5918417" lon="16.2459467"><ele>79.0</ele><time>2026-05-01T10:13:03.971Z</time></trkpt><trkpt lat="39.5921433" lon="16.2458983"><ele>75.0</ele><time>2026-05-01T10:13:04.971Z</time></trkpt><trkpt lat="39.59245" lon="16.245845"><ele>71.0</ele><time>2026-05-01T10:13:05.971Z</time></trkpt><trkpt lat="39.5927517" lon="16.24578"><ele>70.0</ele><time>2026-05-01T10:13:06.971Z</time></trkpt><trkpt lat="39.5930567" lon="16.2457033"><ele>69.0</ele><time>2026-05-01T10:13:07.971Z</time></trkpt><trkpt lat="39.593355" lon="16.24561"><ele>69.0</ele><time>2026-05-01T10:13:08.971Z</time></trkpt><trkpt lat="39.5936567" lon="16.2455033"><ele>69.0</ele><time>2026-05-01T10:13:09.971Z</time></trkpt><trkpt lat="39.5939467" lon="16.245385"><ele>77.5</ele><time>2026-05-01T10:13:10.971Z</time></trkpt><trkpt lat="39.594235" lon="16.245255"><ele>86.0</ele><time>2026-05-01T10:13:11.972Z</time></trkpt><trkpt lat="39.5945183" lon="16.245115"><ele>88.0</ele><time>2026-05-01T10:13:12.972Z</time></trkpt><trkpt lat="39.5947933" lon="16.2449667"><ele>90.0</ele><time>2026-05-01T10:13:13.971Z</time></trkpt><trkpt lat="39.5950717" lon="16.24481"><ele>94.0</ele><time>2026-05-01T10:13:14.971Z</time></trkpt><trkpt lat="39.5953467" lon="16.244645"><ele>98.0</ele><time>2026-05-01T10:13:15.972Z</time></trkpt><trkpt lat="39.5956217" lon="16.2444683"><ele>98.0</ele><time>2026-05-01T10:13:16.971Z</time></trkpt><trkpt lat="39.5958933" lon="16.244275"><ele>98.0</ele><time>2026-05-01T10:13:17.972Z</time></trkpt><trkpt lat="39.5961533" lon="16.2440883"><ele>103.0</ele><time>2026-05-01T10:13:18.972Z</time></trkpt><trkpt lat="39.5964067" lon="16.2438817"><ele>108.0</ele><time>2026-05-01T10:13:19.971Z</time></trkpt><trkpt lat="39.5966617" lon="16.243655"><ele>108.0</ele><time>2026-05-01T10:13:20.972Z</time></trkpt><trkpt lat="39.5969083" lon="16.2434317"><ele>108.0</ele><time>2026-05-01T10:13:21.971Z</time></trkpt><trkpt lat="39.5971433" lon="16.2431867"><ele>108.5</ele><time>2026-05-01T10:13:22.971Z</time></trkpt><trkpt lat="39.5973683" lon="16.2429333"><ele>109.0</ele><time>2026-05-01T10:13:23.971Z</time></trkpt><trkpt lat="39.5976033" lon="16.2426683"><ele>109.0</ele><time>2026-05-01T10:13:24.971Z</time></trkpt><trkpt lat="39.597825" lon="16.242395"><ele>109.0</ele><time>2026-05-01T10:13:25.971Z</time></trkpt><trkpt lat="39.598035" lon="16.2421233"><ele>109.0</ele><time>2026-05-01T10:13:26.971Z</time></trkpt><trkpt lat="39.5982483" lon="16.2418383"><ele>109.0</ele><time>2026-05-01T10:13:27.972Z</time></trkpt><trkpt lat="39.59845" lon="16.2415533"><ele>108.5</ele><time>2026-05-01T10:13:28.972Z</time></trkpt><trkpt lat="39.5986433" lon="16.241265"><ele>108.0</ele><time>2026-05-01T10:13:29.971Z</time></trkpt><trkpt lat="39.59883" lon="16.2409667"><ele>112.0</ele><time>2026-05-01T10:13:30.971Z</time></trkpt><trkpt lat="39.5990167" lon="16.2406633"><ele>116.0</ele><time>2026-05-01T10:13:31.971Z</time></trkpt><trkpt lat="39.5992033" lon="16.24036"><ele>116.0</ele><time>2026-05-01T10:13:32.972Z</time></trkpt><trkpt lat="39.5993917" lon="16.240055"><ele>116.0</ele><time>2026-05-01T10:13:33.971Z</time></trkpt><trkpt lat="39.5995833" lon="16.2397533"><ele>123.5</ele><time>2026-05-01T10:13:34.971Z</time></trkpt><trkpt lat="39.599775" lon="16.239445"><ele>131.0</ele><time>2026-05-01T10:13:35.971Z</time></trkpt><trkpt lat="39.5999733" lon="16.2391283"><ele>129.5</ele><time>2026-05-01T10:13:36.971Z</time></trkpt><trkpt lat="39.6001717" lon="16.2388183"><ele>128.0</ele><time>2026-05-01T10:13:37.971Z</time></trkpt><trkpt lat="39.60036" lon="16.2385167"><ele>133.5</ele><time>2026-05-01T10:13:38.972Z</time></trkpt><trkpt lat="39.6005617" lon="16.238195"><ele>139.0</ele><time>2026-05-01T10:13:39.971Z</time></trkpt><trkpt lat="39.6007517" lon="16.2378867"><ele>139.0</ele><time>2026-05-01T10:13:40.972Z</time></trkpt><trkpt lat="39.6009717" lon="16.2376033"><ele>139.0</ele><time>2026-05-01T10:13:41.972Z</time></trkpt><trkpt lat="39.6011583" lon="16.2373067"><ele>141.5</ele><time>2026-05-01T10:13:42.971Z</time></trkpt><trkpt lat="39.601355" lon="16.2370217"><ele>144.0</ele><time>2026-05-01T10:13:43.971Z</time></trkpt><trkpt lat="39.6015783" lon="16.2367483"><ele>144.0</ele><time>2026-05-01T10:13:44.971Z</time></trkpt><trkpt lat="39.6018033" lon="16.2364883"><ele>144.0</ele><time>2026-05-01T10:13:45.971Z</time></trkpt><trkpt lat="39.6020283" lon="16.2362283"><ele>153.5</ele><time>2026-05-01T10:13:46.972Z</time></trkpt><trkpt lat="39.602255" lon="16.2359683"><ele>163.0</ele><time>2026-05-01T10:13:47.971Z</time></trkpt><trkpt lat="39.602485" lon="16.2357117"><ele>162.5</ele><time>2026-05-01T10:13:48.971Z</time></trkpt><trkpt lat="39.6027067" lon="16.2354633"><ele>162.0</ele><time>2026-05-01T10:13:49.971Z</time></trkpt><trkpt lat="39.602925" lon="16.2352133"><ele>167.5</ele><time>2026-05-01T10:13:50.971Z</time></trkpt><trkpt lat="39.6031467" lon="16.2349617"><ele>173.0</ele><time>2026-05-01T10:13:51.971Z</time></trkpt><trkpt lat="39.6033733" lon="16.2347083"><ele>173.0</ele><time>2026-05-01T10:13:52.971Z</time></trkpt><trkpt lat="39.6035983" lon="16.234455"><ele>173.0</ele><time>2026-05-01T10:13:53.971Z</time></trkpt><trkpt lat="39.6022755" lon="16.235959"><ele>172.0</ele><time>2026-05-01T10:14:06.427Z</time></trkpt><trkpt lat="39.6114967" lon="16.2313133"><ele>172.0</ele><time>2026-05-01T10:14:20.978Z</time></trkpt><trkpt lat="39.6118067" lon="16.231205"><ele>172.0</ele><time>2026-05-01T10:14:21.978Z</time></trkpt><trkpt lat="39.612115" lon="16.23108"><ele>172.0</ele><time>2026-05-01T10:14:22.979Z</time></trkpt><trkpt lat="39.6124233" lon="16.2309583"><ele>172.0</ele><time>2026-05-01T10:14:23.978Z</time></trkpt><trkpt lat="39.612725" lon="16.2308467"><ele>173.0</ele><time>2026-05-01T10:14:24.978Z</time></trkpt><trkpt lat="39.6130267" lon="16.2307283"><ele>174.0</ele><time>2026-05-01T10:14:25.978Z</time></trkpt><trkpt lat="39.6133317" lon="16.23062"><ele>170.0</ele><time>2026-05-01T10:14:26.978Z</time></trkpt><trkpt lat="39.6136333" lon="16.2305133"><ele>166.0</ele><time>2026-05-01T10:14:27.978Z</time></trkpt><trkpt lat="39.613935" lon="16.2304217"><ele>164.0</ele><time>2026-05-01T10:14:28.979Z</time></trkpt><trkpt lat="39.6142367" lon="16.23033"><ele>162.0</ele><time>2026-05-01T10:14:29.979Z</time></trkpt><trkpt lat="39.6145367" lon="16.2302417"><ele>161.0</ele><time>2026-05-01T10:14:30.978Z</time></trkpt><trkpt lat="39.6148383" lon="16.2301683"><ele>160.0</ele><time>2026-05-01T10:14:31.978Z</time></trkpt><trkpt lat="39.6151433" lon="16.2301083"><ele>161.5</ele><time>2026-05-01T10:14:32.979Z</time></trkpt><trkpt lat="39.6154533" lon="16.2300617"><ele>163.0</ele><time>2026-05-01T10:14:33.979Z</time></trkpt><trkpt lat="39.6157617" lon="16.2300333"><ele>163.0</ele><time>2026-05-01T10:14:34.979Z</time></trkpt><trkpt lat="39.61607" lon="16.2300167"><ele>163.0</ele><time>2026-05-01T10:14:35.978Z</time></trkpt><trkpt lat="39.6163767" lon="16.23002"><ele>162.0</ele><time>2026-05-01T10:14:36.978Z</time></trkpt><trkpt lat="39.616685" lon="16.2300367"><ele>161.0</ele><time>2026-05-01T10:14:37.978Z</time></trkpt><trkpt lat="39.616985" lon="16.2300667"><ele>156.5</ele><time>2026-05-01T10:14:38.978Z</time></trkpt><trkpt lat="39.617285" lon="16.23009"><ele>152.0</ele><time>2026-05-01T10:14:39.978Z</time></trkpt><trkpt lat="39.6175883" lon="16.230115"><ele>152.0</ele><time>2026-05-01T10:14:40.978Z</time></trkpt><trkpt lat="39.617885" lon="16.23014"><ele>152.0</ele><time>2026-05-01T10:14:41.978Z</time></trkpt><trkpt lat="39.6181833" lon="16.2301617"><ele>152.0</ele><time>2026-05-01T10:14:42.978Z</time></trkpt><trkpt lat="39.61849" lon="16.2301683"><ele>152.0</ele><time>2026-05-01T10:14:43.978Z</time></trkpt><trkpt lat="39.6187967" lon="16.23017"><ele>150.5</ele><time>2026-05-01T10:14:44.978Z</time></trkpt><trkpt lat="39.6191017" lon="16.230145"><ele>149.0</ele><time>2026-05-01T10:14:45.978Z</time></trkpt><trkpt lat="39.6194083" lon="16.2301033"><ele>150.0</ele><time>2026-05-01T10:14:46.978Z</time></trkpt><trkpt lat="39.619705" lon="16.230045"><ele>151.0</ele><time>2026-05-01T10:14:47.978Z</time></trkpt><trkpt lat="39.6200117" lon="16.2299783"><ele>151.0</ele><time>2026-05-01T10:14:48.978Z</time></trkpt><trkpt lat="39.62031" lon="16.2299017"><ele>151.0</ele><time>2026-05-01T10:14:49.979Z</time></trkpt><trkpt lat="39.6205983" lon="16.229835"><ele>148.0</ele><time>2026-05-01T10:14:50.978Z</time></trkpt><trkpt lat="39.6208983" lon="16.2297583"><ele>145.0</ele><time>2026-05-01T10:14:51.978Z</time></trkpt><trkpt lat="39.621195" lon="16.229675"><ele>145.0</ele><time>2026-05-01T10:14:52.978Z</time></trkpt><trkpt lat="39.6214917" lon="16.2295917"><ele>145.0</ele><time>2026-05-01T10:14:53.978Z</time></trkpt><trkpt lat="39.621785" lon="16.2295133"><ele>142.0</ele><time>2026-05-01T10:14:54.978Z</time></trkpt><trkpt lat="39.6220833" lon="16.22944"><ele>139.0</ele><time>2026-05-01T10:14:55.979Z</time></trkpt><trkpt lat="39.6223817" lon="16.2293633"><ele>139.0</ele><time>2026-05-01T10:14:56.979Z</time></trkpt><trkpt lat="39.6226883" lon="16.2292883"><ele>139.0</ele><time>2026-05-01T10:14:57.979Z</time></trkpt><trkpt lat="39.6229917" lon="16.2292167"><ele>136.5</ele><time>2026-05-01T10:14:58.978Z</time></trkpt><trkpt lat="39.6232983" lon="16.2291467"><ele>134.0</ele><time>2026-05-01T10:14:59.979Z</time></trkpt><trkpt lat="39.623605" lon="16.22908"><ele>136.0</ele><time>2026-05-01T10:15:00.978Z</time></trkpt><trkpt lat="39.6239067" lon="16.22903"><ele>138.0</ele><time>2026-05-01T10:15:01.979Z</time></trkpt><trkpt lat="39.6242183" lon="16.228985"><ele>133.0</ele><time>2026-05-01T10:15:02.978Z</time></trkpt><trkpt lat="39.6245233" lon="16.2289617"><ele>128.0</ele><time>2026-05-01T10:15:03.978Z</time></trkpt><trkpt lat="39.6248267" lon="16.2289567"><ele>128.0</ele><time>2026-05-01T10:15:04.978Z</time></trkpt><trkpt lat="39.62513" lon="16.228965"><ele>128.0</ele><time>2026-05-01T10:15:05.978Z</time></trkpt><trkpt lat="39.6254283" lon="16.22898"><ele>130.0</ele><time>2026-05-01T10:15:06.979Z</time></trkpt><trkpt lat="39.6257217" lon="16.22902"><ele>132.0</ele><time>2026-05-01T10:15:07.979Z</time></trkpt><trkpt lat="39.62602" lon="16.22907"><ele>131.0</ele><time>2026-05-01T10:15:08.979Z</time></trkpt><trkpt lat="39.6263133" lon="16.22913"><ele>130.0</ele><time>2026-05-01T10:15:09.978Z</time></trkpt><trkpt lat="39.6266083" lon="16.2291967"><ele>130.0</ele><time>2026-05-01T10:15:10.978Z</time></trkpt><trkpt lat="39.6269067" lon="16.22926"><ele>130.0</ele><time>2026-05-01T10:15:11.978Z</time></trkpt><trkpt lat="39.6272033" lon="16.2293233"><ele>126.5</ele><time>2026-05-01T10:15:12.978Z</time></trkpt><trkpt lat="39.6275033" lon="16.229395"><ele>123.0</ele><time>2026-05-01T10:15:13.979Z</time></trkpt><trkpt lat="39.6277967" lon="16.2294667"><ele>122.0</ele><time>2026-05-01T10:15:14.978Z</time></trkpt><trkpt lat="39.6280933" lon="16.2295383"><ele>121.0</ele><time>2026-05-01T10:15:15.978Z</time></trkpt><trkpt lat="39.6283933" lon="16.22962"><ele>122.5</ele><time>2026-05-01T10:15:16.979Z</time></trkpt><trkpt lat="39.6286967" lon="16.229715"><ele>124.0</ele><time>2026-05-01T10:15:17.979Z</time></trkpt><trkpt lat="39.628995" lon="16.22982"><ele>124.0</ele><time>2026-05-01T10:15:18.979Z</time></trkpt><trkpt lat="39.62929" lon="16.2299333"><ele>124.0</ele><time>2026-05-01T10:15:19.978Z</time></trkpt><trkpt lat="39.629585" lon="16.23006"><ele>122.0</ele><time>2026-05-01T10:15:20.978Z</time></trkpt><trkpt lat="39.6298717" lon="16.2302033"><ele>120.0</ele><time>2026-05-01T10:15:21.978Z</time></trkpt><trkpt lat="39.630155" lon="16.2303617"><ele>117.0</ele><time>2026-05-01T10:15:22.979Z</time></trkpt><trkpt lat="39.6304317" lon="16.230515"><ele>114.0</ele><time>2026-05-01T10:15:23.979Z</time></trkpt><trkpt lat="39.6307133" lon="16.2306717"><ele>114.0</ele><time>2026-05-01T10:15:24.978Z</time></trkpt><trkpt lat="39.631" lon="16.2308233"><ele>114.0</ele><time>2026-05-01T10:15:25.979Z</time></trkpt><trkpt lat="39.6313017" lon="16.2309817"><ele>112.0</ele><time>2026-05-01T10:15:26.979Z</time></trkpt><trkpt lat="39.631615" lon="16.2311433"><ele>110.0</ele><time>2026-05-01T10:15:27.978Z</time></trkpt><trkpt lat="39.6319417" lon="16.231295"><ele>110.0</ele><time>2026-05-01T10:15:28.978Z</time></trkpt><trkpt lat="39.6322783" lon="16.2314467"><ele>110.0</ele><time>2026-05-01T10:15:29.979Z</time></trkpt><trkpt lat="39.6326133" lon="16.2315833"><ele>107.0</ele><time>2026-05-01T10:15:30.979Z</time></trkpt><trkpt lat="39.6329517" lon="16.2317033"><ele>104.0</ele><time>2026-05-01T10:15:31.979Z</time></trkpt><trkpt lat="39.6332817" lon="16.2317933"><ele>104.0</ele><time>2026-05-01T10:15:32.978Z</time></trkpt><trkpt lat="39.6336083" lon="16.231855"><ele>104.0</ele><time>2026-05-01T10:15:33.978Z</time></trkpt><trkpt lat="39.6339367" lon="16.2319017"><ele>103.0</ele><time>2026-05-01T10:15:34.979Z</time></trkpt><trkpt lat="39.6342683" lon="16.23193"><ele>102.0</ele><time>2026-05-01T10:15:35.979Z</time></trkpt><trkpt lat="39.6345917" lon="16.231945"><ele>101.0</ele><time>2026-05-01T10:15:36.979Z</time></trkpt><trkpt lat="39.634915" lon="16.2319367"><ele>100.0</ele><time>2026-05-01T10:15:37.978Z</time></trkpt><trkpt lat="39.6352383" lon="16.23192"><ele>97.5</ele><time>2026-05-01T10:15:38.978Z</time></trkpt><trkpt lat="39.6355567" lon="16.231895"><ele>95.0</ele><time>2026-05-01T10:15:39.979Z</time></trkpt><trkpt lat="39.63587" lon="16.2318467"><ele>93.5</ele><time>2026-05-01T10:15:40.978Z</time></trkpt><trkpt lat="39.6361917" lon="16.2317833"><ele>92.0</ele><time>2026-05-01T10:15:41.978Z</time></trkpt><trkpt lat="39.6365083" lon="16.2317033"><ele>92.0</ele><time>2026-05-01T10:15:42.978Z</time></trkpt><trkpt lat="39.636825" lon="16.2316183"><ele>92.0</ele><time>2026-05-01T10:15:43.978Z</time></trkpt><trkpt lat="39.6371467" lon="16.231505"><ele>91.0</ele><time>2026-05-01T10:15:44.979Z</time></trkpt><trkpt lat="39.6374717" lon="16.2313867"><ele>90.0</ele><time>2026-05-01T10:15:45.978Z</time></trkpt><trkpt lat="39.6377917" lon="16.2312533"><ele>89.0</ele><time>2026-05-01T10:15:46.978Z</time></trkpt><trkpt lat="39.6381117" lon="16.2311183"><ele>88.0</ele><time>2026-05-01T10:15:47.979Z</time></trkpt><trkpt lat="39.63843" lon="16.23099"><ele>87.5</ele><time>2026-05-01T10:15:48.979Z</time></trkpt><trkpt lat="39.6387483" lon="16.2308533"><ele>87.0</ele><time>2026-05-01T10:15:49.978Z</time></trkpt><trkpt lat="39.6390633" lon="16.2307267"><ele>87.0</ele><time>2026-05-01T10:15:50.979Z</time></trkpt><trkpt lat="39.6393817" lon="16.2305983"><ele>87.0</ele><time>2026-05-01T10:15:51.978Z</time></trkpt><trkpt lat="39.639695" lon="16.230475"><ele>85.5</ele><time>2026-05-01T10:15:52.978Z</time></trkpt><trkpt lat="39.6400067" lon="16.2303567"><ele>84.0</ele><time>2026-05-01T10:15:53.979Z</time></trkpt><trkpt lat="39.6403117" lon="16.2302317"><ele>82.5</ele><time>2026-05-01T10:15:54.978Z</time></trkpt><trkpt lat="39.6406167" lon="16.2301033"><ele>81.0</ele><time>2026-05-01T10:15:55.978Z</time></trkpt><trkpt lat="39.6409167" lon="16.2299683"><ele>81.0</ele><time>2026-05-01T10:15:56.978Z</time></trkpt><trkpt lat="39.6412" lon="16.229815"><ele>81.0</ele><time>2026-05-01T10:15:57.978Z</time></trkpt><trkpt lat="39.64148" lon="16.2296433"><ele>81.0</ele><time>2026-05-01T10:15:58.978Z</time></trkpt><trkpt lat="39.6417583" lon="16.2294583"><ele>81.0</ele><time>2026-05-01T10:15:59.978Z</time></trkpt><trkpt lat="39.64203" lon="16.229265"><ele>80.5</ele><time>2026-05-01T10:16:00.978Z</time></trkpt><trkpt lat="39.642305" lon="16.2290583"><ele>80.0</ele><time>2026-05-01T10:16:01.979Z</time></trkpt><trkpt lat="39.6425667" lon="16.2288367"><ele>81.5</ele><time>2026-05-01T10:16:02.978Z</time></trkpt><trkpt lat="39.6428233" lon="16.2286067"><ele>83.0</ele><time>2026-05-01T10:16:03.978Z</time></trkpt><trkpt lat="39.64307" lon="16.2283633"><ele>83.0</ele><time>2026-05-01T10:16:04.978Z</time></trkpt><trkpt lat="39.6433067" lon="16.22811"><ele>83.0</ele><time>2026-05-01T10:16:05.978Z</time></trkpt><trkpt lat="39.64354" lon="16.2278433"><ele>83.0</ele><time>2026-05-01T10:16:06.978Z</time></trkpt><trkpt lat="39.6437583" lon="16.2275717"><ele>83.0</ele><time>2026-05-01T10:16:07.978Z</time></trkpt><trkpt lat="39.6439733" lon="16.2272933"><ele>83.0</ele><time>2026-05-01T10:16:08.978Z</time></trkpt><trkpt lat="39.6441767" lon="16.227"><ele>83.0</ele><time>2026-05-01T10:16:09.978Z</time></trkpt><trkpt lat="39.6443717" lon="16.2267"><ele>83.0</ele><time>2026-05-01T10:16:10.978Z</time></trkpt><trkpt lat="39.6445633" lon="16.2263833"><ele>83.0</ele><time>2026-05-01T10:16:11.978Z</time></trkpt><trkpt lat="39.64474" lon="16.2260617"><ele>83.0</ele><time>2026-05-01T10:16:12.978Z</time></trkpt><trkpt lat="39.6449067" lon="16.2257367"><ele>83.0</ele><time>2026-05-01T10:16:13.979Z</time></trkpt><trkpt lat="39.6450717" lon="16.2254033"><ele>84.5</ele><time>2026-05-01T10:16:14.978Z</time></trkpt><trkpt lat="39.6452233" lon="16.2250533"><ele>86.0</ele><time>2026-05-01T10:16:15.978Z</time></trkpt><trkpt lat="39.64538" lon="16.2247"><ele>90.5</ele><time>2026-05-01T10:16:16.979Z</time></trkpt><trkpt lat="39.6455283" lon="16.2243383"><ele>95.0</ele><time>2026-05-01T10:16:17.979Z</time></trkpt><trkpt lat="39.64567" lon="16.2239717"><ele>98.5</ele><time>2026-05-01T10:16:18.979Z</time></trkpt><trkpt lat="39.64581" lon="16.2236083"><ele>102.0</ele><time>2026-05-01T10:16:19.979Z</time></trkpt><trkpt lat="39.6459483" lon="16.2232417"><ele>98.5</ele><time>2026-05-01T10:16:20.979Z</time></trkpt><trkpt lat="39.6460917" lon="16.22288"><ele>95.0</ele><time>2026-05-01T10:16:21.978Z</time></trkpt><trkpt lat="39.6462367" lon="16.2225133"><ele>95.0</ele><time>2026-05-01T10:16:22.978Z</time></trkpt><trkpt lat="39.6463867" lon="16.2221483"><ele>95.0</ele><time>2026-05-01T10:16:23.978Z</time></trkpt><trkpt lat="39.6465433" lon="16.2217883"><ele>96.0</ele><time>2026-05-01T10:16:24.979Z</time></trkpt><trkpt lat="39.6467083" lon="16.2214267"><ele>97.0</ele><time>2026-05-01T10:16:25.979Z</time></trkpt><trkpt lat="39.6468733" lon="16.2210667"><ele>93.0</ele><time>2026-05-01T10:16:26.978Z</time></trkpt><trkpt lat="39.6470533" lon="16.2207167"><ele>89.0</ele><time>2026-05-01T10:16:27.978Z</time></trkpt><trkpt lat="39.6472417" lon="16.22038"><ele>88.5</ele><time>2026-05-01T10:16:28.978Z</time></trkpt><trkpt lat="39.6474417" lon="16.22005"><ele>88.0</ele><time>2026-05-01T10:16:29.978Z</time></trkpt><trkpt lat="39.6476383" lon="16.2197383"><ele>91.5</ele><time>2026-05-01T10:16:30.978Z</time></trkpt><trkpt lat="39.6478417" lon="16.2194367"><ele>95.0</ele><time>2026-05-01T10:16:31.979Z</time></trkpt><trkpt lat="39.6480583" lon="16.21915"><ele>92.5</ele><time>2026-05-01T10:16:32.979Z</time></trkpt><trkpt lat="39.6482883" lon="16.2188683"><ele>90.0</ele><time>2026-05-01T10:16:33.978Z</time></trkpt><trkpt lat="39.6485267" lon="16.2185883"><ele>90.5</ele><time>2026-05-01T10:16:34.978Z</time></trkpt><trkpt lat="39.6487783" lon="16.218325"><ele>91.0</ele><time>2026-05-01T10:16:35.979Z</time></trkpt><trkpt lat="39.64904" lon="16.2180817"><ele>91.0</ele><time>2026-05-01T10:16:36.978Z</time></trkpt><trkpt lat="39.6493083" lon="16.2178483"><ele>91.0</ele><time>2026-05-01T10:16:37.978Z</time></trkpt><trkpt lat="39.6495767" lon="16.2176333"><ele>92.0</ele><time>2026-05-01T10:16:38.978Z</time></trkpt><trkpt lat="39.6498583" lon="16.217425"><ele>93.0</ele><time>2026-05-01T10:16:39.978Z</time></trkpt><trkpt lat="39.6501483" lon="16.217235"><ele>89.0</ele><time>2026-05-01T10:16:40.978Z</time></trkpt><trkpt lat="39.6504417" lon="16.21706"><ele>85.0</ele><time>2026-05-01T10:16:41.979Z</time></trkpt><trkpt lat="39.650735" lon="16.216905"><ele>85.0</ele><time>2026-05-01T10:16:42.979Z</time></trkpt><trkpt lat="39.65103" lon="16.216765"><ele>85.0</ele><time>2026-05-01T10:16:43.979Z</time></trkpt><trkpt lat="39.6513317" lon="16.21664"><ele>84.5</ele><time>2026-05-01T10:16:44.979Z</time></trkpt><trkpt lat="39.6516317" lon="16.2165317"><ele>84.0</ele><time>2026-05-01T10:16:45.979Z</time></trkpt><trkpt lat="39.6519317" lon="16.216435"><ele>83.5</ele><time>2026-05-01T10:16:46.979Z</time></trkpt><trkpt lat="39.652245" lon="16.2163533"><ele>83.0</ele><time>2026-05-01T10:16:47.978Z</time></trkpt><trkpt lat="39.65255" lon="16.21628"><ele>83.5</ele><time>2026-05-01T10:16:48.979Z</time></trkpt><trkpt lat="39.6528567" lon="16.21621"><ele>84.0</ele><time>2026-05-01T10:16:49.978Z</time></trkpt><trkpt lat="39.653165" lon="16.216145"><ele>84.0</ele><time>2026-05-01T10:16:50.978Z</time></trkpt><trkpt lat="39.6534683" lon="16.21608"><ele>84.0</ele><time>2026-05-01T10:16:51.979Z</time></trkpt><trkpt lat="39.6537667" lon="16.216015"><ele>84.0</ele><time>2026-05-01T10:16:52.979Z</time></trkpt><trkpt lat="39.6540667" lon="16.2159467"><ele>84.0</ele><time>2026-05-01T10:16:53.978Z</time></trkpt><trkpt lat="39.6543617" lon="16.2158767"><ele>83.5</ele><time>2026-05-01T10:16:54.979Z</time></trkpt><trkpt lat="39.6546683" lon="16.2158083"><ele>83.0</ele><time>2026-05-01T10:16:55.978Z</time></trkpt><trkpt lat="39.6549767" lon="16.2157433"><ele>83.0</ele><time>2026-05-01T10:16:56.978Z</time></trkpt><trkpt lat="39.65528" lon="16.2156733"><ele>83.0</ele><time>2026-05-01T10:16:57.978Z</time></trkpt><trkpt lat="39.65558" lon="16.2156033"><ele>83.0</ele><time>2026-05-01T10:16:58.979Z</time></trkpt><trkpt lat="39.6558833" lon="16.2155333"><ele>83.0</ele><time>2026-05-01T10:16:59.979Z</time></trkpt><trkpt lat="39.65619" lon="16.215465"><ele>83.0</ele><time>2026-05-01T10:17:00.978Z</time></trkpt><trkpt lat="39.6564983" lon="16.2153933"><ele>83.0</ele><time>2026-05-01T10:17:01.979Z</time></trkpt><trkpt lat="39.656805" lon="16.21532"><ele>83.0</ele><time>2026-05-01T10:17:02.979Z</time></trkpt><trkpt lat="39.6571133" lon="16.2152467"><ele>83.0</ele><time>2026-05-01T10:17:03.979Z</time></trkpt><trkpt lat="39.6574267" lon="16.2151767"><ele>83.0</ele><time>2026-05-01T10:17:04.979Z</time></trkpt><trkpt lat="39.6577267" lon="16.2151033"><ele>83.0</ele><time>2026-05-01T10:17:05.979Z</time></trkpt><trkpt lat="39.65803" lon="16.2150333"><ele>82.0</ele><time>2026-05-01T10:17:06.978Z</time></trkpt><trkpt lat="39.658335" lon="16.2149633"><ele>81.0</ele><time>2026-05-01T10:17:07.978Z</time></trkpt><trkpt lat="39.6586383" lon="16.2148983"><ele>81.0</ele><time>2026-05-01T10:17:08.978Z</time></trkpt><trkpt lat="39.65895" lon="16.2148283"><ele>81.0</ele><time>2026-05-01T10:17:09.978Z</time></trkpt><trkpt lat="39.6592583" lon="16.2147583"><ele>82.0</ele><time>2026-05-01T10:17:10.978Z</time></trkpt><trkpt lat="39.6595667" lon="16.21469"><ele>83.0</ele><time>2026-05-01T10:17:11.978Z</time></trkpt><trkpt lat="39.6598733" lon="16.2146217"><ele>83.0</ele><time>2026-05-01T10:17:12.978Z</time></trkpt><trkpt lat="39.6601867" lon="16.2145533"><ele>83.0</ele><time>2026-05-01T10:17:13.979Z</time></trkpt><trkpt lat="39.6604933" lon="16.2144817"><ele>83.0</ele><time>2026-05-01T10:17:14.978Z</time></trkpt><trkpt lat="39.6607983" lon="16.2144083"><ele>83.0</ele><time>2026-05-01T10:17:15.979Z</time></trkpt><trkpt lat="39.6611083" lon="16.2143433"><ele>82.5</ele><time>2026-05-01T10:17:16.978Z</time></trkpt><trkpt lat="39.661415" lon="16.2142767"><ele>82.0</ele><time>2026-05-01T10:17:17.978Z</time></trkpt><trkpt lat="39.66172" lon="16.2142167"><ele>82.5</ele><time>2026-05-01T10:17:18.979Z</time></trkpt><trkpt lat="39.662025" lon="16.21417"><ele>83.0</ele><time>2026-05-01T10:17:19.979Z</time></trkpt><trkpt lat="39.6623317" lon="16.214135"><ele>83.0</ele><time>2026-05-01T10:17:20.979Z</time></trkpt><trkpt lat="39.66265" lon="16.2141167"><ele>83.0</ele><time>2026-05-01T10:17:21.978Z</time></trkpt><trkpt lat="39.66296" lon="16.2141033"><ele>83.0</ele><time>2026-05-01T10:17:22.978Z</time></trkpt><trkpt lat="39.66327" lon="16.2141017"><ele>83.0</ele><time>2026-05-01T10:17:23.978Z</time></trkpt><trkpt lat="39.6635783" lon="16.2141083"><ele>83.5</ele><time>2026-05-01T10:17:24.979Z</time></trkpt><trkpt lat="39.6638867" lon="16.2141317"><ele>84.0</ele><time>2026-05-01T10:17:25.978Z</time></trkpt><trkpt lat="39.6641917" lon="16.2141617"><ele>84.0</ele><time>2026-05-01T10:17:26.979Z</time></trkpt><trkpt lat="39.664505" lon="16.2142"><ele>84.0</ele><time>2026-05-01T10:17:27.978Z</time></trkpt><trkpt lat="39.6648233" lon="16.21425"><ele>84.0</ele><time>2026-05-01T10:17:28.978Z</time></trkpt><trkpt lat="39.6651433" lon="16.2143083"><ele>84.0</ele><time>2026-05-01T10:17:29.978Z</time></trkpt><trkpt lat="39.665465" lon="16.2143867"><ele>84.0</ele><time>2026-05-01T10:17:30.978Z</time></trkpt><trkpt lat="39.6657883" lon="16.2144717"><ele>84.0</ele><time>2026-05-01T10:17:31.978Z</time></trkpt><trkpt lat="39.6661117" lon="16.2145667"><ele>84.5</ele><time>2026-05-01T10:17:32.979Z</time></trkpt><trkpt lat="39.6664333" lon="16.2146633"><ele>85.0</ele><time>2026-05-01T10:17:33.979Z</time></trkpt><trkpt lat="39.666745" lon="16.2147683"><ele>86.0</ele><time>2026-05-01T10:17:34.978Z</time></trkpt><trkpt lat="39.667055" lon="16.2148667"><ele>87.0</ele><time>2026-05-01T10:17:35.979Z</time></trkpt><trkpt lat="39.6673667" lon="16.2149667"><ele>87.0</ele><time>2026-05-01T10:17:36.978Z</time></trkpt><trkpt lat="39.6676783" lon="16.2150733"><ele>87.0</ele><time>2026-05-01T10:17:37.978Z</time></trkpt><trkpt lat="39.66799" lon="16.2151783"><ele>86.5</ele><time>2026-05-01T10:17:38.978Z</time></trkpt><trkpt lat="39.6683017" lon="16.2152833"><ele>86.0</ele><time>2026-05-01T10:17:39.978Z</time></trkpt><trkpt lat="39.6686117" lon="16.2153833"><ele>86.0</ele><time>2026-05-01T10:17:40.979Z</time></trkpt><trkpt lat="39.6689183" lon="16.215485"><ele>86.0</ele><time>2026-05-01T10:17:41.978Z</time></trkpt><trkpt lat="39.6692233" lon="16.2155883"><ele>86.5</ele><time>2026-05-01T10:17:42.978Z</time></trkpt><trkpt lat="39.669525" lon="16.2156883"><ele>87.0</ele><time>2026-05-01T10:17:43.978Z</time></trkpt><trkpt lat="39.6698267" lon="16.2157833"><ele>87.0</ele><time>2026-05-01T10:17:44.978Z</time></trkpt><trkpt lat="39.6701267" lon="16.2158833"><ele>87.0</ele><time>2026-05-01T10:17:45.979Z</time></trkpt><trkpt lat="39.67041" lon="16.2159767"><ele>87.5</ele><time>2026-05-01T10:17:46.978Z</time></trkpt><trkpt lat="39.6707" lon="16.2160783"><ele>88.0</ele><time>2026-05-01T10:17:47.978Z</time></trkpt><trkpt lat="39.6709917" lon="16.2161783"><ele>89.0</ele><time>2026-05-01T10:17:48.979Z</time></trkpt><trkpt lat="39.6712817" lon="16.2162783"><ele>90.0</ele><time>2026-05-01T10:17:49.978Z</time></trkpt><trkpt lat="39.67158" lon="16.216375"><ele>90.0</ele><time>2026-05-01T10:17:50.978Z</time></trkpt><trkpt lat="39.6718783" lon="16.21647"><ele>90.0</ele><time>2026-05-01T10:17:51.978Z</time></trkpt><trkpt lat="39.67218" lon="16.2165683"><ele>90.0</ele><time>2026-05-01T10:17:52.979Z</time></trkpt><trkpt lat="39.672495" lon="16.2166717"><ele>90.0</ele><time>2026-05-01T10:17:53.978Z</time></trkpt><trkpt lat="39.6728033" lon="16.2167767"><ele>91.0</ele><time>2026-05-01T10:17:54.978Z</time></trkpt><trkpt lat="39.6731183" lon="16.216885"><ele>92.0</ele><time>2026-05-01T10:17:55.978Z</time></trkpt><trkpt lat="39.67343" lon="16.21699"><ele>92.0</ele><time>2026-05-01T10:17:56.979Z</time></trkpt><trkpt lat="39.6737417" lon="16.217095"><ele>92.0</ele><time>2026-05-01T10:17:57.978Z</time></trkpt><trkpt lat="39.6740483" lon="16.2172017"><ele>92.0</ele><time>2026-05-01T10:17:58.979Z</time></trkpt><trkpt lat="39.6743467" lon="16.2173"><ele>92.0</ele><time>2026-05-01T10:17:59.978Z</time></trkpt><trkpt lat="39.6746417" lon="16.2173933"><ele>92.0</ele><time>2026-05-01T10:18:00.978Z</time></trkpt><trkpt lat="39.67494" lon="16.21749"><ele>92.0</ele><time>2026-05-01T10:18:01.979Z</time></trkpt><trkpt lat="39.6752467" lon="16.2175917"><ele>93.0</ele><time>2026-05-01T10:18:02.978Z</time></trkpt><trkpt lat="39.6755517" lon="16.2176933"><ele>94.0</ele><time>2026-05-01T10:18:03.978Z</time></trkpt><trkpt lat="39.6758567" lon="16.2177933"><ele>94.0</ele><time>2026-05-01T10:18:04.979Z</time></trkpt><trkpt lat="39.6761667" lon="16.2178967"><ele>94.0</ele><time>2026-05-01T10:18:05.978Z</time></trkpt><trkpt lat="39.67648" lon="16.2179983"><ele>94.0</ele><time>2026-05-01T10:18:06.979Z</time></trkpt><trkpt lat="39.6767917" lon="16.2181033"><ele>94.0</ele><time>2026-05-01T10:18:07.978Z</time></trkpt><trkpt lat="39.6771033" lon="16.2182117"><ele>93.5</ele><time>2026-05-01T10:18:08.978Z</time></trkpt><trkpt lat="39.6774183" lon="16.2183167"><ele>93.0</ele><time>2026-05-01T10:18:09.978Z</time></trkpt><trkpt lat="39.6777283" lon="16.2184167"><ele>93.0</ele><time>2026-05-01T10:18:10.978Z</time></trkpt><trkpt lat="39.6780317" lon="16.2185233"><ele>93.0</ele><time>2026-05-01T10:18:11.978Z</time></trkpt><trkpt lat="39.6783283" lon="16.2186267"><ele>92.5</ele><time>2026-05-01T10:18:12.979Z</time></trkpt><trkpt lat="39.678625" lon="16.2187283"><ele>92.0</ele><time>2026-05-01T10:18:13.978Z</time></trkpt><trkpt lat="39.6789283" lon="16.218835"><ele>92.0</ele><time>2026-05-01T10:18:14.978Z</time></trkpt><trkpt lat="39.6792183" lon="16.218955"><ele>92.0</ele><time>2026-05-01T10:18:15.979Z</time></trkpt><trkpt lat="39.6795067" lon="16.21908"><ele>92.5</ele><time>2026-05-01T10:18:16.979Z</time></trkpt><trkpt lat="39.6798083" lon="16.2192167"><ele>93.0</ele><time>2026-05-01T10:18:17.978Z</time></trkpt><trkpt lat="39.6801183" lon="16.2193717"><ele>92.0</ele><time>2026-05-01T10:18:18.979Z</time></trkpt><trkpt lat="39.6804167" lon="16.2195383"><ele>91.0</ele><time>2026-05-01T10:18:19.979Z</time></trkpt><trkpt lat="39.6807183" lon="16.2197217"><ele>91.0</ele><time>2026-05-01T10:18:20.978Z</time></trkpt><trkpt lat="39.6810117" lon="16.2199067"><ele>91.0</ele><time>2026-05-01T10:18:21.978Z</time></trkpt><trkpt lat="39.6812983" lon="16.2201017"><ele>90.5</ele><time>2026-05-01T10:18:22.978Z</time></trkpt><trkpt lat="39.68158" lon="16.220305"><ele>90.0</ele><time>2026-05-01T10:18:23.978Z</time></trkpt><trkpt lat="39.6818517" lon="16.2205167"><ele>90.0</ele><time>2026-05-01T10:18:24.979Z</time></trkpt><trkpt lat="39.6821167" lon="16.220735"><ele>90.0</ele><time>2026-05-01T10:18:25.978Z</time></trkpt><trkpt lat="39.6823783" lon="16.2209633"><ele>90.0</ele><time>2026-05-01T10:18:26.978Z</time></trkpt><trkpt lat="39.6826317" lon="16.221205"><ele>90.0</ele><time>2026-05-01T10:18:27.978Z</time></trkpt><trkpt lat="39.6828833" lon="16.22145"><ele>90.0</ele><time>2026-05-01T10:18:28.978Z</time></trkpt><trkpt lat="39.68313" lon="16.2217117"><ele>90.0</ele><time>2026-05-01T10:18:29.979Z</time></trkpt><trkpt lat="39.6833733" lon="16.2219867"><ele>89.5</ele><time>2026-05-01T10:18:30.979Z</time></trkpt><trkpt lat="39.6836167" lon="16.2222567"><ele>89.0</ele><time>2026-05-01T10:18:31.978Z</time></trkpt><trkpt lat="39.683855" lon="16.2225317"><ele>89.0</ele><time>2026-05-01T10:18:32.979Z</time></trkpt><trkpt lat="39.6840917" lon="16.2228183"><ele>89.0</ele><time>2026-05-01T10:18:33.979Z</time></trkpt><trkpt lat="39.684325" lon="16.2231133"><ele>89.5</ele><time>2026-05-01T10:18:34.978Z</time></trkpt><trkpt lat="39.6845567" lon="16.2234017"><ele>90.0</ele><time>2026-05-01T10:18:35.979Z</time></trkpt><trkpt lat="39.6847833" lon="16.2236917"><ele>90.0</ele><time>2026-05-01T10:18:36.978Z</time></trkpt><trkpt lat="39.6850067" lon="16.2239767"><ele>90.0</ele><time>2026-05-01T10:18:37.978Z</time></trkpt><trkpt lat="39.6852317" lon="16.224255"><ele>90.5</ele><time>2026-05-01T10:18:38.978Z</time></trkpt><trkpt lat="39.6854617" lon="16.2245283"><ele>91.0</ele><time>2026-05-01T10:18:39.978Z</time></trkpt><trkpt lat="39.68569" lon="16.22481"><ele>92.0</ele><time>2026-05-01T10:18:40.979Z</time></trkpt><trkpt lat="39.68592" lon="16.2250933"><ele>93.0</ele><time>2026-05-01T10:18:41.979Z</time></trkpt><trkpt lat="39.686145" lon="16.2253717"><ele>94.0</ele><time>2026-05-01T10:18:42.978Z</time></trkpt><trkpt lat="39.68637" lon="16.2256583"><ele>95.0</ele><time>2026-05-01T10:18:43.979Z</time></trkpt><trkpt lat="39.6866" lon="16.22594"><ele>95.0</ele><time>2026-05-01T10:18:44.978Z</time></trkpt><trkpt lat="39.6868267" lon="16.226225"><ele>95.0</ele><time>2026-05-01T10:18:45.979Z</time></trkpt><trkpt lat="39.6870417" lon="16.2265167"><ele>96.5</ele><time>2026-05-01T10:18:46.978Z</time></trkpt><trkpt lat="39.68726" lon="16.2268033"><ele>98.0</ele><time>2026-05-01T10:18:47.978Z</time></trkpt><trkpt lat="39.687475" lon="16.2270967"><ele>97.5</ele><time>2026-05-01T10:18:48.979Z</time></trkpt><trkpt lat="39.6876917" lon="16.227385"><ele>97.0</ele><time>2026-05-01T10:18:49.979Z</time></trkpt><trkpt lat="39.687895" lon="16.2276767"><ele>97.0</ele><time>2026-05-01T10:18:50.979Z</time></trkpt><trkpt lat="39.6881" lon="16.2279683"><ele>97.0</ele><time>2026-05-01T10:18:51.978Z</time></trkpt><trkpt lat="39.6883033" lon="16.2282617"><ele>97.0</ele><time>2026-05-01T10:18:52.978Z</time></trkpt><trkpt lat="39.6885083" lon="16.2285517"><ele>97.0</ele><time>2026-05-01T10:18:53.979Z</time></trkpt><trkpt lat="39.6887267" lon="16.228845"><ele>98.0</ele><time>2026-05-01T10:18:54.978Z</time></trkpt><trkpt lat="39.68894" lon="16.229145"><ele>99.0</ele><time>2026-05-01T10:18:55.979Z</time></trkpt><trkpt lat="39.689155" lon="16.229455"><ele>99.0</ele><time>2026-05-01T10:18:56.979Z</time></trkpt><trkpt lat="39.6893783" lon="16.2297667"><ele>99.0</ele><time>2026-05-01T10:18:57.978Z</time></trkpt><trkpt lat="39.689605" lon="16.23008"><ele>99.0</ele><time>2026-05-01T10:18:58.979Z</time></trkpt><trkpt lat="39.6898217" lon="16.2303817"><ele>99.0</ele><time>2026-05-01T10:18:59.979Z</time></trkpt><trkpt lat="39.6900433" lon="16.2306933"><ele>98.0</ele><time>2026-05-01T10:19:00.978Z</time></trkpt><trkpt lat="39.6902583" lon="16.2310033"><ele>97.0</ele><time>2026-05-01T10:19:01.978Z</time></trkpt><trkpt lat="39.6904733" lon="16.2312983"><ele>97.5</ele><time>2026-05-01T10:19:02.979Z</time></trkpt><trkpt lat="39.69068" lon="16.2315883"><ele>98.0</ele><time>2026-05-01T10:19:03.978Z</time></trkpt><trkpt lat="39.6908833" lon="16.2318783"><ele>98.0</ele><time>2026-05-01T10:19:04.979Z</time></trkpt><trkpt lat="39.69109" lon="16.23216"><ele>98.0</ele><time>2026-05-01T10:19:05.979Z</time></trkpt><trkpt lat="39.6912967" lon="16.2324567"><ele>96.0</ele><time>2026-05-01T10:19:06.978Z</time></trkpt><trkpt lat="39.6915083" lon="16.2327483"><ele>94.0</ele><time>2026-05-01T10:19:07.978Z</time></trkpt><trkpt lat="39.6917183" lon="16.2330367"><ele>93.0</ele><time>2026-05-01T10:19:08.978Z</time></trkpt><trkpt lat="39.691925" lon="16.2333267"><ele>92.0</ele><time>2026-05-01T10:19:09.979Z</time></trkpt><trkpt lat="39.692135" lon="16.2336117"><ele>92.0</ele><time>2026-05-01T10:19:10.978Z</time></trkpt><trkpt lat="39.692345" lon="16.2339083"><ele>92.0</ele><time>2026-05-01T10:19:11.978Z</time></trkpt><trkpt lat="39.6925683" lon="16.234205"><ele>91.5</ele><time>2026-05-01T10:19:12.978Z</time></trkpt><trkpt lat="39.6927933" lon="16.2344933"><ele>91.0</ele><time>2026-05-01T10:19:13.979Z</time></trkpt><trkpt lat="39.69302" lon="16.2347817"><ele>92.5</ele><time>2026-05-01T10:19:14.978Z</time></trkpt><trkpt lat="39.6932467" lon="16.2350633"><ele>94.0</ele><time>2026-05-01T10:19:15.979Z</time></trkpt><trkpt lat="39.6934883" lon="16.235325"><ele>93.5</ele><time>2026-05-01T10:19:16.978Z</time></trkpt><trkpt lat="39.6937333" lon="16.23558"><ele>93.0</ele><time>2026-05-01T10:19:17.978Z</time></trkpt><trkpt lat="39.6939783" lon="16.23583"><ele>93.0</ele><time>2026-05-01T10:19:18.978Z</time></trkpt><trkpt lat="39.6942367" lon="16.236075"><ele>93.0</ele><time>2026-05-01T10:19:19.978Z</time></trkpt><trkpt lat="39.6944983" lon="16.2363083"><ele>93.0</ele><time>2026-05-01T10:19:20.978Z</time></trkpt><trkpt lat="39.6947567" lon="16.236525"><ele>93.0</ele><time>2026-05-01T10:19:21.978Z</time></trkpt><trkpt lat="39.6950217" lon="16.2367383"><ele>92.0</ele><time>2026-05-01T10:19:22.978Z</time></trkpt><trkpt lat="39.6952967" lon="16.2369433"><ele>91.0</ele><time>2026-05-01T10:19:23.978Z</time></trkpt><trkpt lat="39.6955767" lon="16.23714"><ele>90.5</ele><time>2026-05-01T10:19:24.978Z</time></trkpt><trkpt lat="39.6958633" lon="16.2373233"><ele>90.0</ele><time>2026-05-01T10:19:25.978Z</time></trkpt><trkpt lat="39.6961433" lon="16.2375083"><ele>90.0</ele><time>2026-05-01T10:19:26.979Z</time></trkpt><trkpt lat="39.69643" lon="16.237685"><ele>90.0</ele><time>2026-05-01T10:19:27.978Z</time></trkpt><trkpt lat="39.696715" lon="16.23786"><ele>90.0</ele><time>2026-05-01T10:19:28.978Z</time></trkpt><trkpt lat="39.6969917" lon="16.23803"><ele>90.0</ele><time>2026-05-01T10:19:29.979Z</time></trkpt><trkpt lat="39.6972667" lon="16.2381933"><ele>90.0</ele><time>2026-05-01T10:19:30.978Z</time></trkpt><trkpt lat="39.6975433" lon="16.2383617"><ele>90.0</ele><time>2026-05-01T10:19:31.978Z</time></trkpt><trkpt lat="39.6978217" lon="16.2385317"><ele>89.0</ele><time>2026-05-01T10:19:32.978Z</time></trkpt><trkpt lat="39.6981033" lon="16.2387083"><ele>88.0</ele><time>2026-05-01T10:19:33.978Z</time></trkpt><trkpt lat="39.6983917" lon="16.2388817"><ele>87.5</ele><time>2026-05-01T10:19:34.978Z</time></trkpt><trkpt lat="39.6986767" lon="16.239055"><ele>87.0</ele><time>2026-05-01T10:19:35.978Z</time></trkpt><trkpt lat="39.698965" lon="16.23923"><ele>87.0</ele><time>2026-05-01T10:19:36.978Z</time></trkpt><trkpt lat="39.69925" lon="16.2394067"><ele>87.0</ele><time>2026-05-01T10:19:37.978Z</time></trkpt><trkpt lat="39.6995267" lon="16.2395817"><ele>87.5</ele><time>2026-05-01T10:19:38.978Z</time></trkpt><trkpt lat="39.6998033" lon="16.2397517"><ele>88.0</ele><time>2026-05-01T10:19:39.978Z</time></trkpt><trkpt lat="39.7000783" lon="16.2399167"><ele>88.5</ele><time>2026-05-01T10:19:40.978Z</time></trkpt><trkpt lat="39.70036" lon="16.2400817"><ele>89.0</ele><time>2026-05-01T10:19:41.979Z</time></trkpt><trkpt lat="39.7006317" lon="16.2402467"><ele>89.0</ele><time>2026-05-01T10:19:42.978Z</time></trkpt><trkpt lat="39.70091" lon="16.240415"><ele>89.0</ele><time>2026-05-01T10:19:43.978Z</time></trkpt><trkpt lat="39.7011917" lon="16.24058"><ele>88.0</ele><time>2026-05-01T10:19:44.978Z</time></trkpt><trkpt lat="39.7014767" lon="16.2407517"><ele>87.0</ele><time>2026-05-01T10:19:45.979Z</time></trkpt><trkpt lat="39.7017583" lon="16.2409217"><ele>88.5</ele><time>2026-05-01T10:19:46.978Z</time></trkpt><trkpt lat="39.70203" lon="16.2410933"><ele>90.0</ele><time>2026-05-01T10:19:47.979Z</time></trkpt><trkpt lat="39.7023017" lon="16.2412617"><ele>90.0</ele><time>2026-05-01T10:19:48.979Z</time></trkpt><trkpt lat="39.70258" lon="16.2414267"><ele>90.0</ele><time>2026-05-01T10:19:49.979Z</time></trkpt><trkpt lat="39.70287" lon="16.2416017"><ele>90.0</ele><time>2026-05-01T10:19:50.978Z</time></trkpt><trkpt lat="39.7031483" lon="16.241775"><ele>90.0</ele><time>2026-05-01T10:19:51.978Z</time></trkpt><trkpt lat="39.703435" lon="16.2419483"><ele>91.0</ele><time>2026-05-01T10:19:52.979Z</time></trkpt><trkpt lat="39.7037233" lon="16.2421217"><ele>92.0</ele><time>2026-05-01T10:19:53.979Z</time></trkpt><trkpt lat="39.7040133" lon="16.2422967"><ele>92.0</ele><time>2026-05-01T10:19:54.978Z</time></trkpt><trkpt lat="39.704295" lon="16.2424683"><ele>92.0</ele><time>2026-05-01T10:19:55.979Z</time></trkpt><trkpt lat="39.704585" lon="16.242635"><ele>92.0</ele><time>2026-05-01T10:19:56.978Z</time></trkpt><trkpt lat="39.7048683" lon="16.2427983"><ele>92.0</ele><time>2026-05-01T10:19:57.979Z</time></trkpt><trkpt lat="39.7051567" lon="16.2429633"><ele>92.5</ele><time>2026-05-01T10:19:58.978Z</time></trkpt><trkpt lat="39.7054467" lon="16.2431167"><ele>93.0</ele><time>2026-05-01T10:19:59.978Z</time></trkpt><trkpt lat="39.7057367" lon="16.2432617"><ele>93.0</ele><time>2026-05-01T10:20:00.979Z</time></trkpt><trkpt lat="39.7060333" lon="16.2433983"><ele>93.0</ele><time>2026-05-01T10:20:01.978Z</time></trkpt><trkpt lat="39.706335" lon="16.243525"><ele>95.5</ele><time>2026-05-01T10:20:02.978Z</time></trkpt><trkpt lat="39.706645" lon="16.2436383"><ele>98.0</ele><time>2026-05-01T10:20:03.978Z</time></trkpt><trkpt lat="39.70695" lon="16.243745"><ele>99.0</ele><time>2026-05-01T10:20:04.978Z</time></trkpt><trkpt lat="39.7072617" lon="16.2438367"><ele>100.0</ele><time>2026-05-01T10:20:05.978Z</time></trkpt><trkpt lat="39.7075717" lon="16.2439267"><ele>99.5</ele><time>2026-05-01T10:20:06.979Z</time></trkpt><trkpt lat="39.7078783" lon="16.2439983"><ele>99.0</ele><time>2026-05-01T10:20:07.979Z</time></trkpt><trkpt lat="39.7081933" lon="16.2440567"><ele>99.0</ele><time>2026-05-01T10:20:08.979Z</time></trkpt><trkpt lat="39.708525" lon="16.2441083"><ele>99.0</ele><time>2026-05-01T10:20:09.978Z</time></trkpt><trkpt lat="39.7088533" lon="16.244145"><ele>98.0</ele><time>2026-05-01T10:20:10.979Z</time></trkpt><trkpt lat="39.70918" lon="16.2441717"><ele>97.0</ele><time>2026-05-01T10:20:11.979Z</time></trkpt><trkpt lat="39.7095083" lon="16.2441833"><ele>96.5</ele><time>2026-05-01T10:20:12.978Z</time></trkpt><trkpt lat="39.709835" lon="16.2441867"><ele>96.0</ele><time>2026-05-01T10:20:13.978Z</time></trkpt><trkpt lat="39.7101633" lon="16.2441767"><ele>97.5</ele><time>2026-05-01T10:20:14.978Z</time></trkpt><trkpt lat="39.71049" lon="16.24416"><ele>99.0</ele><time>2026-05-01T10:20:15.978Z</time></trkpt><trkpt lat="39.710805" lon="16.2441317"><ele>97.0</ele><time>2026-05-01T10:20:16.979Z</time></trkpt><trkpt lat="39.7111233" lon="16.244095"><ele>95.0</ele><time>2026-05-01T10:20:17.978Z</time></trkpt><trkpt lat="39.7114317" lon="16.2440383"><ele>95.0</ele><time>2026-05-01T10:20:18.979Z</time></trkpt><trkpt lat="39.711745" lon="16.2439733"><ele>95.0</ele><time>2026-05-01T10:20:19.978Z</time></trkpt><trkpt lat="39.7120667" lon="16.2438967"><ele>91.5</ele><time>2026-05-01T10:20:20.979Z</time></trkpt><trkpt lat="39.71238" lon="16.243815"><ele>88.0</ele><time>2026-05-01T10:20:21.979Z</time></trkpt><trkpt lat="39.7126883" lon="16.243725"><ele>90.0</ele><time>2026-05-01T10:20:22.978Z</time></trkpt><trkpt lat="39.7129883" lon="16.2436217"><ele>92.0</ele><time>2026-05-01T10:20:23.978Z</time></trkpt><trkpt lat="39.713275" lon="16.2435133"><ele>92.0</ele><time>2026-05-01T10:20:24.978Z</time></trkpt><trkpt lat="39.71357" lon="16.24339"><ele>92.0</ele><time>2026-05-01T10:20:25.978Z</time></trkpt><trkpt lat="39.7138517" lon="16.2432533"><ele>96.5</ele><time>2026-05-01T10:20:26.978Z</time></trkpt><trkpt lat="39.71414" lon="16.243115"><ele>101.0</ele><time>2026-05-01T10:20:27.979Z</time></trkpt><trkpt lat="39.714425" lon="16.24297"><ele>103.5</ele><time>2026-05-01T10:20:28.979Z</time></trkpt><trkpt lat="39.71471" lon="16.24283"><ele>106.0</ele><time>2026-05-01T10:20:29.979Z</time></trkpt><trkpt lat="39.7149867" lon="16.24268"><ele>106.0</ele><time>2026-05-01T10:20:30.979Z</time></trkpt><trkpt lat="39.715265" lon="16.2425283"><ele>106.0</ele><time>2026-05-01T10:20:31.978Z</time></trkpt><trkpt lat="39.7155467" lon="16.2423867"><ele>108.0</ele><time>2026-05-01T10:20:32.979Z</time></trkpt><trkpt lat="39.715835" lon="16.2422417"><ele>110.0</ele><time>2026-05-01T10:20:33.979Z</time></trkpt><trkpt lat="39.71612" lon="16.2420983"><ele>110.0</ele><time>2026-05-01T10:20:34.978Z</time></trkpt><trkpt lat="39.7164" lon="16.2419467"><ele>110.0</ele><time>2026-05-01T10:20:35.979Z</time></trkpt><trkpt lat="39.7166867" lon="16.2417933"><ele>109.5</ele><time>2026-05-01T10:20:36.978Z</time></trkpt><trkpt lat="39.716975" lon="16.2416417"><ele>109.0</ele><time>2026-05-01T10:20:37.978Z</time></trkpt><trkpt lat="39.7172683" lon="16.241495"><ele>110.0</ele><time>2026-05-01T10:20:38.979Z</time></trkpt><trkpt lat="39.7175633" lon="16.2413433"><ele>111.0</ele><time>2026-05-01T10:20:39.979Z</time></trkpt><trkpt lat="39.7178567" lon="16.24119"><ele>109.0</ele><time>2026-05-01T10:20:40.979Z</time></trkpt><trkpt lat="39.7181433" lon="16.2410483"><ele>107.0</ele><time>2026-05-01T10:20:41.979Z</time></trkpt><trkpt lat="39.71843" lon="16.2408933"><ele>107.0</ele><time>2026-05-01T10:20:42.978Z</time></trkpt><trkpt lat="39.7187117" lon="16.2407383"><ele>107.0</ele><time>2026-05-01T10:20:43.978Z</time></trkpt><trkpt lat="39.719" lon="16.240575"><ele>107.0</ele><time>2026-05-01T10:20:44.978Z</time></trkpt><trkpt lat="39.7192967" lon="16.2404183"><ele>107.0</ele><time>2026-05-01T10:20:45.978Z</time></trkpt><trkpt lat="39.7195933" lon="16.2402667"><ele>107.5</ele><time>2026-05-01T10:20:46.978Z</time></trkpt><trkpt lat="39.7198933" lon="16.2401133"><ele>108.0</ele><time>2026-05-01T10:20:47.978Z</time></trkpt><trkpt lat="39.7201883" lon="16.2399617"><ele>108.0</ele><time>2026-05-01T10:20:48.979Z</time></trkpt><trkpt lat="39.7204867" lon="16.2398067"><ele>108.0</ele><time>2026-05-01T10:20:49.979Z</time></trkpt><trkpt lat="39.7207867" lon="16.23965"><ele>107.5</ele><time>2026-05-01T10:20:50.978Z</time></trkpt><trkpt lat="39.721085" lon="16.23949"><ele>107.0</ele><time>2026-05-01T10:20:51.978Z</time></trkpt><trkpt lat="39.7213867" lon="16.239335"><ele>107.0</ele><time>2026-05-01T10:20:52.979Z</time></trkpt><trkpt lat="39.7216717" lon="16.23919"><ele>107.0</ele><time>2026-05-01T10:20:53.978Z</time></trkpt><trkpt lat="39.7219617" lon="16.2390333"><ele>107.0</ele><time>2026-05-01T10:20:54.978Z</time></trkpt><trkpt lat="39.7222533" lon="16.2388767"><ele>107.0</ele><time>2026-05-01T10:20:55.979Z</time></trkpt><trkpt lat="39.7225417" lon="16.2387233"><ele>108.0</ele><time>2026-05-01T10:20:56.979Z</time></trkpt><trkpt lat="39.7228333" lon="16.238575"><ele>109.0</ele><time>2026-05-01T10:20:57.978Z</time></trkpt><trkpt lat="39.7231283" lon="16.238435"><ele>109.0</ele><time>2026-05-01T10:20:58.978Z</time></trkpt><trkpt lat="39.72342" lon="16.238285"><ele>109.0</ele><time>2026-05-01T10:20:59.978Z</time></trkpt><trkpt lat="39.7237133" lon="16.2381383"><ele>107.0</ele><time>2026-05-01T10:21:00.978Z</time></trkpt><trkpt lat="39.7239967" lon="16.2379883"><ele>105.0</ele><time>2026-05-01T10:21:01.978Z</time></trkpt><trkpt lat="39.724285" lon="16.2378333"><ele>105.0</ele><time>2026-05-01T10:21:02.979Z</time></trkpt><trkpt lat="39.7245683" lon="16.2376817"><ele>105.0</ele><time>2026-05-01T10:21:03.978Z</time></trkpt><trkpt lat="39.724855" lon="16.2375333"><ele>105.0</ele><time>2026-05-01T10:21:04.979Z</time></trkpt><trkpt lat="39.7251433" lon="16.2373883"><ele>105.0</ele><time>2026-05-01T10:21:05.978Z</time></trkpt><trkpt lat="39.7254417" lon="16.237235"><ele>104.5</ele><time>2026-05-01T10:21:06.978Z</time></trkpt><trkpt lat="39.725725" lon="16.2370817"><ele>104.0</ele><time>2026-05-01T10:21:07.978Z</time></trkpt><trkpt lat="39.7260067" lon="16.2369283"><ele>103.0</ele><time>2026-05-01T10:21:08.979Z</time></trkpt><trkpt lat="39.72629" lon="16.2367683"><ele>102.0</ele><time>2026-05-01T10:21:09.978Z</time></trkpt><trkpt lat="39.72657" lon="16.236615"><ele>102.0</ele><time>2026-05-01T10:21:10.979Z</time></trkpt><trkpt lat="39.72685" lon="16.236465"><ele>102.0</ele><time>2026-05-01T10:21:11.978Z</time></trkpt><trkpt lat="39.7271333" lon="16.2363117"><ele>102.0</ele><time>2026-05-01T10:21:12.979Z</time></trkpt><trkpt lat="39.72742" lon="16.23616"><ele>102.0</ele><time>2026-05-01T10:21:13.979Z</time></trkpt><trkpt lat="39.7277117" lon="16.2360117"><ele>101.5</ele><time>2026-05-01T10:21:14.978Z</time></trkpt><trkpt lat="39.728" lon="16.2358583"><ele>101.0</ele><time>2026-05-01T10:21:15.978Z</time></trkpt><trkpt lat="39.7282917" lon="16.2357017"><ele>101.5</ele><time>2026-05-01T10:21:16.978Z</time></trkpt><trkpt lat="39.7285783" lon="16.2355417"><ele>102.0</ele><time>2026-05-01T10:21:17.978Z</time></trkpt><trkpt lat="39.72887" lon="16.2353817"><ele>102.0</ele><time>2026-05-01T10:21:18.978Z</time></trkpt><trkpt lat="39.729165" lon="16.2352233"><ele>102.0</ele><time>2026-05-01T10:21:19.978Z</time></trkpt><trkpt lat="39.72946" lon="16.2350617"><ele>100.0</ele><time>2026-05-01T10:21:20.979Z</time></trkpt><trkpt lat="39.7297617" lon="16.2348917"><ele>98.0</ele><time>2026-05-01T10:21:21.978Z</time></trkpt><trkpt lat="39.7300817" lon="16.2347133"><ele>98.0</ele><time>2026-05-01T10:21:22.979Z</time></trkpt><trkpt lat="39.7304017" lon="16.2345267"><ele>98.0</ele><time>2026-05-01T10:21:23.978Z</time></trkpt><trkpt lat="39.73073" lon="16.23435"><ele>98.0</ele><time>2026-05-01T10:21:24.978Z</time></trkpt><trkpt lat="39.7310433" lon="16.2341783"><ele>98.0</ele><time>2026-05-01T10:21:25.978Z</time></trkpt><trkpt lat="39.73135" lon="16.2340033"><ele>99.5</ele><time>2026-05-01T10:21:26.978Z</time></trkpt><trkpt lat="39.7316583" lon="16.2338283"><ele>101.0</ele><time>2026-05-01T10:21:27.978Z</time></trkpt><trkpt lat="39.7319617" lon="16.23367"><ele>101.0</ele><time>2026-05-01T10:21:28.979Z</time></trkpt><trkpt lat="39.7322583" lon="16.2335033"><ele>101.0</ele><time>2026-05-01T10:21:29.978Z</time></trkpt><trkpt lat="39.732555" lon="16.23334"><ele>101.5</ele><time>2026-05-01T10:21:30.979Z</time></trkpt><trkpt lat="39.732855" lon="16.2331833"><ele>102.0</ele><time>2026-05-01T10:21:31.978Z</time></trkpt><trkpt lat="39.73315" lon="16.233025"><ele>102.5</ele><time>2026-05-01T10:21:32.979Z</time></trkpt><trkpt lat="39.7334583" lon="16.232885"><ele>103.0</ele><time>2026-05-01T10:21:33.979Z</time></trkpt><trkpt lat="39.7337683" lon="16.2327633"><ele>104.0</ele><time>2026-05-01T10:21:34.979Z</time></trkpt><trkpt lat="39.7340917" lon="16.2326517"><ele>105.0</ele><time>2026-05-01T10:21:35.978Z</time></trkpt><trkpt lat="39.7344167" lon="16.2325583"><ele>105.0</ele><time>2026-05-01T10:21:36.979Z</time></trkpt><trkpt lat="39.73474" lon="16.2324817"><ele>105.0</ele><time>2026-05-01T10:21:37.978Z</time></trkpt><trkpt lat="39.7350617" lon="16.2324217"><ele>104.0</ele><time>2026-05-01T10:21:38.979Z</time></trkpt><trkpt lat="39.7353867" lon="16.2323633"><ele>103.0</ele><time>2026-05-01T10:21:39.978Z</time></trkpt><trkpt lat="39.7357233" lon="16.2323"><ele>107.0</ele><time>2026-05-01T10:21:40.978Z</time></trkpt><trkpt lat="39.73605" lon="16.2322317"><ele>111.0</ele><time>2026-05-01T10:21:41.978Z</time></trkpt><trkpt lat="39.7363767" lon="16.2321667"><ele>111.0</ele><time>2026-05-01T10:21:42.978Z</time></trkpt><trkpt lat="39.7367017" lon="16.232095"><ele>111.0</ele><time>2026-05-01T10:21:43.978Z</time></trkpt><trkpt lat="39.7370217" lon="16.2320233"><ele>111.0</ele><time>2026-05-01T10:21:44.978Z</time></trkpt><trkpt lat="39.737335" lon="16.231935"><ele>111.0</ele><time>2026-05-01T10:21:45.978Z</time></trkpt><trkpt lat="39.7376467" lon="16.231825"><ele>110.5</ele><time>2026-05-01T10:21:46.978Z</time></trkpt><trkpt lat="39.7379617" lon="16.231685"><ele>110.0</ele><time>2026-05-01T10:21:47.978Z</time></trkpt><trkpt lat="39.7382867" lon="16.23153"><ele>115.5</ele><time>2026-05-01T10:21:48.978Z</time></trkpt><trkpt lat="39.7386233" lon="16.2313467"><ele>121.0</ele><time>2026-05-01T10:21:49.979Z</time></trkpt><trkpt lat="39.738965" lon="16.2311517"><ele>121.0</ele><time>2026-05-01T10:21:50.979Z</time></trkpt><trkpt lat="39.7393217" lon="16.2309317"><ele>121.0</ele><time>2026-05-01T10:21:51.978Z</time></trkpt><trkpt lat="39.7396817" lon="16.2306917"><ele>121.5</ele><time>2026-05-01T10:21:52.979Z</time></trkpt><trkpt lat="39.740035" lon="16.2304183"><ele>122.0</ele><time>2026-05-01T10:21:53.979Z</time></trkpt><trkpt lat="39.7403767" lon="16.2301283"><ele>122.0</ele><time>2026-05-01T10:21:54.978Z</time></trkpt><trkpt lat="39.7406967" lon="16.2298383"><ele>122.0</ele><time>2026-05-01T10:21:55.978Z</time></trkpt><trkpt lat="39.7410083" lon="16.2295583"><ele>121.0</ele><time>2026-05-01T10:21:56.978Z</time></trkpt><trkpt lat="39.74132" lon="16.2292783"><ele>120.0</ele><time>2026-05-01T10:21:57.978Z</time></trkpt><trkpt lat="39.74162" lon="16.229015"><ele>122.5</ele><time>2026-05-01T10:21:58.978Z</time></trkpt><trkpt lat="39.7419133" lon="16.2287583"><ele>125.0</ele><time>2026-05-01T10:21:59.978Z</time></trkpt><trkpt lat="39.7421867" lon="16.2285083"><ele>125.0</ele><time>2026-05-01T10:22:00.979Z</time></trkpt><trkpt lat="39.7424533" lon="16.22827"><ele>125.0</ele><time>2026-05-01T10:22:01.978Z</time></trkpt><trkpt lat="39.74272" lon="16.2280417"><ele>129.5</ele><time>2026-05-01T10:22:02.979Z</time></trkpt><trkpt lat="39.742975" lon="16.2278117"><ele>134.0</ele><time>2026-05-01T10:22:03.978Z</time></trkpt><trkpt lat="39.74323" lon="16.227585"><ele>134.0</ele><time>2026-05-01T10:22:04.978Z</time></trkpt><trkpt lat="39.74349" lon="16.2273617"><ele>134.0</ele><time>2026-05-01T10:22:05.979Z</time></trkpt><trkpt lat="39.74375" lon="16.2271433"><ele>138.0</ele><time>2026-05-01T10:22:06.979Z</time></trkpt><trkpt lat="39.744015" lon="16.2269467"><ele>142.0</ele><time>2026-05-01T10:22:07.979Z</time></trkpt><trkpt lat="39.7442767" lon="16.2267583"><ele>140.0</ele><time>2026-05-01T10:22:08.979Z</time></trkpt><trkpt lat="39.7445467" lon="16.22659"><ele>138.0</ele><time>2026-05-01T10:22:09.978Z</time></trkpt><trkpt lat="39.74482" lon="16.2264233"><ele>144.0</ele><time>2026-05-01T10:22:10.979Z</time></trkpt><trkpt lat="39.7450983" lon="16.226265"><ele>150.0</ele><time>2026-05-01T10:22:11.978Z</time></trkpt><trkpt lat="39.7453783" lon="16.2261233"><ele>152.0</ele><time>2026-05-01T10:22:12.978Z</time></trkpt><trkpt lat="39.7456667" lon="16.2259967"><ele>154.0</ele><time>2026-05-01T10:22:13.979Z</time></trkpt><trkpt lat="39.7459583" lon="16.2258817"><ele>150.0</ele><time>2026-05-01T10:22:14.979Z</time></trkpt><trkpt lat="39.746255" lon="16.225775"><ele>146.0</ele><time>2026-05-01T10:22:15.978Z</time></trkpt><trkpt lat="39.7465517" lon="16.2256833"><ele>149.5</ele><time>2026-05-01T10:22:16.978Z</time></trkpt><trkpt lat="39.746855" lon="16.225595"><ele>153.0</ele><time>2026-05-01T10:22:17.979Z</time></trkpt><trkpt lat="39.7471683" lon="16.2255167"><ele>157.5</ele><time>2026-05-01T10:22:18.979Z</time></trkpt><trkpt lat="39.7474833" lon="16.2254333"><ele>162.0</ele><time>2026-05-01T10:22:19.979Z</time></trkpt><trkpt lat="39.7478083" lon="16.2253583"><ele>164.5</ele><time>2026-05-01T10:22:20.978Z</time></trkpt><trkpt lat="39.7481283" lon="16.2252817"><ele>167.0</ele><time>2026-05-01T10:22:21.978Z</time></trkpt><trkpt lat="39.7484483" lon="16.2252033"><ele>169.0</ele><time>2026-05-01T10:22:22.979Z</time></trkpt><trkpt lat="39.7487667" lon="16.2251233"><ele>171.0</ele><time>2026-05-01T10:22:23.979Z</time></trkpt><trkpt lat="39.7490883" lon="16.2250383"><ele>170.0</ele><time>2026-05-01T10:22:24.978Z</time></trkpt><trkpt lat="39.7494117" lon="16.224955"><ele>169.0</ele><time>2026-05-01T10:22:25.979Z</time></trkpt><trkpt lat="39.7497317" lon="16.2248683"><ele>175.0</ele><time>2026-05-01T10:22:26.979Z</time></trkpt><trkpt lat="39.750055" lon="16.2247867"><ele>181.0</ele><time>2026-05-01T10:22:27.979Z</time></trkpt><trkpt lat="39.750375" lon="16.224705"><ele>181.0</ele><time>2026-05-01T10:22:28.978Z</time></trkpt><trkpt lat="39.7507017" lon="16.2246283"><ele>181.0</ele><time>2026-05-01T10:22:29.978Z</time></trkpt><trkpt lat="39.7510233" lon="16.2245483"><ele>179.5</ele><time>2026-05-01T10:22:30.979Z</time></trkpt><trkpt lat="39.7513533" lon="16.2244667"><ele>178.0</ele><time>2026-05-01T10:22:31.979Z</time></trkpt><trkpt lat="39.751675" lon="16.2243833"><ele>179.5</ele><time>2026-05-01T10:22:32.978Z</time></trkpt><trkpt lat="39.7519933" lon="16.2242933"><ele>181.0</ele><time>2026-05-01T10:22:33.979Z</time></trkpt><trkpt lat="39.7523017" lon="16.2242017"><ele>181.0</ele><time>2026-05-01T10:22:34.979Z</time></trkpt><trkpt lat="39.7526017" lon="16.224085"><ele>181.0</ele><time>2026-05-01T10:22:35.978Z</time></trkpt><trkpt lat="39.7528967" lon="16.2239367"><ele>187.5</ele><time>2026-05-01T10:22:36.978Z</time></trkpt><trkpt lat="39.753175" lon="16.2237533"><ele>194.0</ele><time>2026-05-01T10:22:37.979Z</time></trkpt><trkpt lat="39.75342" lon="16.22354"><ele>196.5</ele><time>2026-05-01T10:22:38.978Z</time></trkpt><trkpt lat="39.7536383" lon="16.2233033"><ele>199.0</ele><time>2026-05-01T10:22:39.978Z</time></trkpt><trkpt lat="39.753845" lon="16.223055"><ele>199.0</ele><time>2026-05-01T10:22:40.978Z</time></trkpt><trkpt lat="39.7540433" lon="16.22279"><ele>199.0</ele><time>2026-05-01T10:22:41.978Z</time></trkpt><trkpt lat="39.7542183" lon="16.2225317"><ele>201.0</ele><time>2026-05-01T10:22:42.978Z</time></trkpt><trkpt lat="39.7543967" lon="16.2222767"><ele>203.0</ele><time>2026-05-01T10:22:43.979Z</time></trkpt><trkpt lat="39.7545733" lon="16.222025"><ele>203.0</ele><time>2026-05-01T10:22:44.979Z</time></trkpt><trkpt lat="39.754765" lon="16.2217883"><ele>203.0</ele><time>2026-05-01T10:22:45.979Z</time></trkpt><trkpt lat="39.75497" lon="16.2215733"><ele>204.0</ele><time>2026-05-01T10:22:46.978Z</time></trkpt><trkpt lat="39.755175" lon="16.22138"><ele>205.0</ele><time>2026-05-01T10:22:47.978Z</time></trkpt><trkpt lat="39.755395" lon="16.2211983"><ele>205.0</ele><time>2026-05-01T10:22:48.978Z</time></trkpt><trkpt lat="39.755635" lon="16.2210467"><ele>205.0</ele><time>2026-05-01T10:22:49.978Z</time></trkpt><trkpt lat="39.7558817" lon="16.2209217"><ele>194.5</ele><time>2026-05-01T10:22:50.979Z</time></trkpt><trkpt lat="39.756125" lon="16.220825"><ele>184.0</ele><time>2026-05-01T10:22:51.979Z</time></trkpt><trkpt lat="39.75638" lon="16.220755"><ele>184.0</ele><time>2026-05-01T10:22:52.979Z</time></trkpt><trkpt lat="39.75664" lon="16.22071"><ele>184.0</ele><time>2026-05-01T10:22:53.978Z</time></trkpt><trkpt lat="39.75692" lon="16.2206883"><ele>166.5</ele><time>2026-05-01T10:22:54.978Z</time></trkpt><trkpt lat="39.7572017" lon="16.2206783"><ele>149.0</ele><time>2026-05-01T10:22:55.979Z</time></trkpt><trkpt lat="39.7574783" lon="16.2206717"><ele>144.0</ele><time>2026-05-01T10:22:56.979Z</time></trkpt><trkpt lat="39.7577567" lon="16.2206633"><ele>139.0</ele><time>2026-05-01T10:22:57.978Z</time></trkpt><trkpt lat="39.7580367" lon="16.2206517"><ele>141.0</ele><time>2026-05-01T10:22:58.978Z</time></trkpt><trkpt lat="39.7583183" lon="16.2206383"><ele>143.0</ele><time>2026-05-01T10:22:59.978Z</time></trkpt><trkpt lat="39.7586017" lon="16.2206217"><ele>143.0</ele><time>2026-05-01T10:23:00.978Z</time></trkpt><trkpt lat="39.7588833" lon="16.220605"><ele>143.0</ele><time>2026-05-01T10:23:01.978Z</time></trkpt><trkpt lat="39.759165" lon="16.220585"><ele>150.5</ele><time>2026-05-01T10:23:02.978Z</time></trkpt><trkpt lat="39.75945" lon="16.2205667"><ele>158.0</ele><time>2026-05-01T10:23:03.978Z</time></trkpt><trkpt lat="39.7597433" lon="16.220545"><ele>158.0</ele><time>2026-05-01T10:23:04.978Z</time></trkpt><trkpt lat="39.7600417" lon="16.2205267"><ele>158.0</ele><time>2026-05-01T10:23:05.978Z</time></trkpt><trkpt lat="39.7603367" lon="16.220505"><ele>170.5</ele><time>2026-05-01T10:23:06.978Z</time></trkpt><trkpt lat="39.7606217" lon="16.2204817"><ele>183.0</ele><time>2026-05-01T10:23:07.979Z</time></trkpt><trkpt lat="39.7609083" lon="16.220465"><ele>192.5</ele><time>2026-05-01T10:23:08.978Z</time></trkpt><trkpt lat="39.7611883" lon="16.2204667"><ele>202.0</ele><time>2026-05-01T10:23:09.979Z</time></trkpt><trkpt lat="39.7614633" lon="16.22049"><ele>202.0</ele><time>2026-05-01T10:23:10.978Z</time></trkpt><trkpt lat="39.7617383" lon="16.220545"><ele>202.0</ele><time>2026-05-01T10:23:11.978Z</time></trkpt><trkpt lat="39.7620083" lon="16.2206317"><ele>209.0</ele><time>2026-05-01T10:23:12.978Z</time></trkpt><trkpt lat="39.76227" lon="16.2207383"><ele>216.0</ele><time>2026-05-01T10:23:13.979Z</time></trkpt><trkpt lat="39.7625283" lon="16.2208567"><ele>225.0</ele><time>2026-05-01T10:23:14.978Z</time></trkpt><trkpt lat="39.7627933" lon="16.220985"><ele>234.0</ele><time>2026-05-01T10:23:15.978Z</time></trkpt><trkpt lat="39.7630517" lon="16.2211167"><ele>234.0</ele><time>2026-05-01T10:23:16.978Z</time></trkpt><trkpt lat="39.7633217" lon="16.2212483"><ele>234.0</ele><time>2026-05-01T10:23:17.978Z</time></trkpt><trkpt lat="39.7635883" lon="16.2213767"><ele>236.5</ele><time>2026-05-01T10:23:18.978Z</time></trkpt><trkpt lat="39.7638517" lon="16.22151"><ele>239.0</ele><time>2026-05-01T10:23:19.978Z</time></trkpt><trkpt lat="39.7641167" lon="16.2216417"><ele>245.0</ele><time>2026-05-01T10:23:20.979Z</time></trkpt><trkpt lat="39.7643833" lon="16.2217717"><ele>251.0</ele><time>2026-05-01T10:23:21.979Z</time></trkpt><trkpt lat="39.7646517" lon="16.2219"><ele>251.0</ele><time>2026-05-01T10:23:22.978Z</time></trkpt><trkpt lat="39.764925" lon="16.2220267"><ele>251.0</ele><time>2026-05-01T10:23:23.979Z</time></trkpt><trkpt lat="39.7651983" lon="16.22216"><ele>251.0</ele><time>2026-05-01T10:23:24.979Z</time></trkpt><trkpt lat="39.7654753" lon="16.2222926"><ele>251.0</ele><time>2026-05-01T10:23:25.978Z</time></trkpt><trkpt lat="39.7657494" lon="16.2224303"><ele>247.0</ele><time>2026-05-01T10:23:26.978Z</time></trkpt><trkpt lat="39.7660173" lon="16.2225644"><ele>243.0</ele><time>2026-05-01T10:23:27.978Z</time></trkpt><trkpt lat="39.7662795" lon="16.2226973"><ele>243.0</ele><time>2026-05-01T10:23:28.979Z</time></trkpt><trkpt lat="39.7665428" lon="16.2228266"><ele>243.0</ele><time>2026-05-01T10:23:29.978Z</time></trkpt><trkpt lat="39.7668092" lon="16.2229574"><ele>235.5</ele><time>2026-05-01T10:23:30.979Z</time></trkpt><trkpt lat="39.7670767" lon="16.2230893"><ele>228.0</ele><time>2026-05-01T10:23:31.978Z</time></trkpt><trkpt lat="39.7673452" lon="16.2232202"><ele>228.0</ele><time>2026-05-01T10:23:32.979Z</time></trkpt><trkpt lat="39.7676116" lon="16.2233497"><ele>228.0</ele><time>2026-05-01T10:23:33.978Z</time></trkpt><trkpt lat="39.7678729" lon="16.2234772"><ele>240.5</ele><time>2026-05-01T10:23:34.978Z</time></trkpt><trkpt lat="39.7681297" lon="16.2235987"><ele>253.0</ele><time>2026-05-01T10:23:35.979Z</time></trkpt><trkpt lat="39.7683869" lon="16.2237075"><ele>257.0</ele><time>2026-05-01T10:23:36.978Z</time></trkpt><trkpt lat="39.768652" lon="16.2238087"><ele>261.0</ele><time>2026-05-01T10:23:37.979Z</time></trkpt><trkpt lat="39.7689271" lon="16.2239"><ele>261.0</ele><time>2026-05-01T10:23:38.978Z</time></trkpt><trkpt lat="39.7692047" lon="16.2239799"><ele>261.0</ele><time>2026-05-01T10:23:39.978Z</time></trkpt><trkpt lat="39.7694884" lon="16.2240545"><ele>262.0</ele><time>2026-05-01T10:23:40.979Z</time></trkpt><trkpt lat="39.7697724" lon="16.2241141"><ele>263.0</ele><time>2026-05-01T10:23:41.978Z</time></trkpt><trkpt lat="39.7700579" lon="16.2241608"><ele>264.0</ele><time>2026-05-01T10:23:42.979Z</time></trkpt><trkpt lat="39.7703445" lon="16.2241979"><ele>265.0</ele><time>2026-05-01T10:23:43.978Z</time></trkpt><trkpt lat="39.7706355" lon="16.2242226"><ele>265.0</ele><time>2026-05-01T10:23:44.979Z</time></trkpt><trkpt lat="39.7709326" lon="16.2242342"><ele>265.0</ele><time>2026-05-01T10:23:45.979Z</time></trkpt><trkpt lat="39.7712316" lon="16.2242357"><ele>266.0</ele><time>2026-05-01T10:23:46.979Z</time></trkpt><trkpt lat="39.7715301" lon="16.224224"><ele>267.0</ele><time>2026-05-01T10:23:47.979Z</time></trkpt><trkpt lat="39.7718225" lon="16.2241978"><ele>268.0</ele><time>2026-05-01T10:23:48.978Z</time></trkpt><trkpt lat="39.7721021" lon="16.2241594"><ele>269.0</ele><time>2026-05-01T10:23:49.978Z</time></trkpt><trkpt lat="39.7723842" lon="16.2241079"><ele>269.0</ele><time>2026-05-01T10:23:50.978Z</time></trkpt><trkpt lat="39.7726746" lon="16.2240463"><ele>269.0</ele><time>2026-05-01T10:23:51.978Z</time></trkpt><trkpt lat="39.772963" lon="16.2239735"><ele>268.0</ele><time>2026-05-01T10:23:52.979Z</time></trkpt><trkpt lat="39.7732554" lon="16.2238922"><ele>267.0</ele><time>2026-05-01T10:23:53.978Z</time></trkpt><trkpt lat="39.7735451" lon="16.2238063"><ele>267.0</ele><time>2026-05-01T10:23:54.979Z</time></trkpt><trkpt lat="39.7738337" lon="16.2237175"><ele>267.0</ele><time>2026-05-01T10:23:55.979Z</time></trkpt><trkpt lat="39.7741207" lon="16.2236283"><ele>260.5</ele><time>2026-05-01T10:23:56.978Z</time></trkpt><trkpt lat="39.7744083" lon="16.2235438"><ele>254.0</ele><time>2026-05-01T10:23:57.978Z</time></trkpt><trkpt lat="39.7746867" lon="16.2234567"><ele>254.0</ele><time>2026-05-01T10:23:58.978Z</time></trkpt><trkpt lat="39.7749633" lon="16.223375"><ele>254.0</ele><time>2026-05-01T10:23:59.978Z</time></trkpt><trkpt lat="39.7752283" lon="16.2232967"><ele>258.0</ele><time>2026-05-01T10:24:00.979Z</time></trkpt><trkpt lat="39.7754917" lon="16.2232167"><ele>262.0</ele><time>2026-05-01T10:24:01.978Z</time></trkpt><trkpt lat="39.775755" lon="16.22314"><ele>266.0</ele><time>2026-05-01T10:24:02.978Z</time></trkpt><trkpt lat="39.776025" lon="16.2230783"><ele>270.0</ele><time>2026-05-01T10:24:03.978Z</time></trkpt><trkpt lat="39.7763" lon="16.223035"><ele>270.0</ele><time>2026-05-01T10:24:04.979Z</time></trkpt><trkpt lat="39.77657" lon="16.2229983"><ele>270.0</ele><time>2026-05-01T10:24:05.979Z</time></trkpt><trkpt lat="39.776845" lon="16.222975"><ele>271.0</ele><time>2026-05-01T10:24:06.978Z</time></trkpt><trkpt lat="39.7771283" lon="16.222975"><ele>272.0</ele><time>2026-05-01T10:24:07.978Z</time></trkpt><trkpt lat="39.7774183" lon="16.22299"><ele>271.0</ele><time>2026-05-01T10:24:08.978Z</time></trkpt><trkpt lat="39.7777133" lon="16.2230183"><ele>270.0</ele><time>2026-05-01T10:24:09.978Z</time></trkpt><trkpt lat="39.7780117" lon="16.2230667"><ele>270.0</ele><time>2026-05-01T10:24:10.978Z</time></trkpt><trkpt lat="39.7783033" lon="16.2231283"><ele>270.0</ele><time>2026-05-01T10:24:11.978Z</time></trkpt><trkpt lat="39.7785983" lon="16.2232167"><ele>255.5</ele><time>2026-05-01T10:24:12.978Z</time></trkpt><trkpt lat="39.7788967" lon="16.2233217"><ele>241.0</ele><time>2026-05-01T10:24:13.978Z</time></trkpt><trkpt lat="39.779195" lon="16.2234283"><ele>233.0</ele><time>2026-05-01T10:24:14.979Z</time></trkpt><trkpt lat="39.7795017" lon="16.2235467"><ele>225.0</ele><time>2026-05-01T10:24:15.978Z</time></trkpt><trkpt lat="39.7798183" lon="16.223665"><ele>225.0</ele><time>2026-05-01T10:24:16.979Z</time></trkpt><trkpt lat="39.78014" lon="16.2237817"><ele>225.0</ele><time>2026-05-01T10:24:17.978Z</time></trkpt><trkpt lat="39.78046" lon="16.2239033"><ele>202.0</ele><time>2026-05-01T10:24:18.978Z</time></trkpt><trkpt lat="39.780785" lon="16.2240283"><ele>179.0</ele><time>2026-05-01T10:24:19.978Z</time></trkpt><trkpt lat="39.78112" lon="16.2241583"><ele>179.0</ele><time>2026-05-01T10:24:20.978Z</time></trkpt><trkpt lat="39.7814517" lon="16.2242883"><ele>179.0</ele><time>2026-05-01T10:24:21.978Z</time></trkpt><trkpt lat="39.78177" lon="16.2244133"><ele>196.0</ele><time>2026-05-01T10:24:22.979Z</time></trkpt><trkpt lat="39.7820733" lon="16.2245283"><ele>213.0</ele><time>2026-05-01T10:24:23.978Z</time></trkpt><trkpt lat="39.7823733" lon="16.2246433"><ele>213.0</ele><time>2026-05-01T10:24:24.978Z</time></trkpt><trkpt lat="39.78267" lon="16.22475"><ele>213.0</ele><time>2026-05-01T10:24:25.979Z</time></trkpt><trkpt lat="39.782955" lon="16.2248567"><ele>239.5</ele><time>2026-05-01T10:24:26.979Z</time></trkpt><trkpt lat="39.7832433" lon="16.2249633"><ele>266.0</ele><time>2026-05-01T10:24:27.978Z</time></trkpt><trkpt lat="39.7835267" lon="16.2250717"><ele>283.5</ele><time>2026-05-01T10:24:28.978Z</time></trkpt><trkpt lat="39.7838083" lon="16.2251767"><ele>301.0</ele><time>2026-05-01T10:24:29.979Z</time></trkpt><trkpt lat="39.7840933" lon="16.2252833"><ele>305.5</ele><time>2026-05-01T10:24:30.979Z</time></trkpt><trkpt lat="39.7843733" lon="16.2253883"><ele>310.0</ele><time>2026-05-01T10:24:31.978Z</time></trkpt><trkpt lat="39.7846517" lon="16.2254917"><ele>310.0</ele><time>2026-05-01T10:24:32.978Z</time></trkpt><trkpt lat="39.7849383" lon="16.2255933"><ele>310.0</ele><time>2026-05-01T10:24:33.978Z</time></trkpt><trkpt lat="39.78522" lon="16.2257017"><ele>311.0</ele><time>2026-05-01T10:24:34.978Z</time></trkpt><trkpt lat="39.78551" lon="16.2258083"><ele>312.0</ele><time>2026-05-01T10:24:35.978Z</time></trkpt><trkpt lat="39.7858017" lon="16.2259167"><ele>315.0</ele><time>2026-05-01T10:24:36.978Z</time></trkpt><trkpt lat="39.78609" lon="16.2260283"><ele>318.0</ele><time>2026-05-01T10:24:37.979Z</time></trkpt><trkpt lat="39.7863783" lon="16.2261417"><ele>318.0</ele><time>2026-05-01T10:24:38.978Z</time></trkpt><trkpt lat="39.7866633" lon="16.2262517"><ele>318.0</ele><time>2026-05-01T10:24:39.978Z</time></trkpt><trkpt lat="39.7869583" lon="16.2263567"><ele>321.0</ele><time>2026-05-01T10:24:40.978Z</time></trkpt><trkpt lat="39.78725" lon="16.22646"><ele>324.0</ele><time>2026-05-01T10:24:41.978Z</time></trkpt><trkpt lat="39.7875383" lon="16.2265683"><ele>326.5</ele><time>2026-05-01T10:24:42.978Z</time></trkpt><trkpt lat="39.7878233" lon="16.226675"><ele>329.0</ele><time>2026-05-01T10:24:43.978Z</time></trkpt><trkpt lat="39.7881117" lon="16.2267883"><ele>329.0</ele><time>2026-05-01T10:24:44.978Z</time></trkpt><trkpt lat="39.7883933" lon="16.2268983"><ele>329.0</ele><time>2026-05-01T10:24:45.979Z</time></trkpt><trkpt lat="39.788685" lon="16.2270017"><ele>331.0</ele><time>2026-05-01T10:24:46.978Z</time></trkpt><trkpt lat="39.7889683" lon="16.2271067"><ele>333.0</ele><time>2026-05-01T10:24:47.978Z</time></trkpt><trkpt lat="39.7892583" lon="16.2272117"><ele>334.5</ele><time>2026-05-01T10:24:48.979Z</time></trkpt><trkpt lat="39.7895483" lon="16.227315"><ele>336.0</ele><time>2026-05-01T10:24:49.979Z</time></trkpt><trkpt lat="39.7898333" lon="16.2274167"><ele>336.0</ele><time>2026-05-01T10:24:50.978Z</time></trkpt><trkpt lat="39.79012" lon="16.2275233"><ele>336.0</ele><time>2026-05-01T10:24:51.978Z</time></trkpt><trkpt lat="39.7904" lon="16.2276367"><ele>334.5</ele><time>2026-05-01T10:24:52.978Z</time></trkpt><trkpt lat="39.79068" lon="16.22775"><ele>333.0</ele><time>2026-05-01T10:24:53.978Z</time></trkpt><trkpt lat="39.7909633" lon="16.2278567"><ele>330.5</ele><time>2026-05-01T10:24:54.979Z</time></trkpt><trkpt lat="39.7912367" lon="16.2279633"><ele>328.0</ele><time>2026-05-01T10:24:55.978Z</time></trkpt><trkpt lat="39.791515" lon="16.22808"><ele>331.0</ele><time>2026-05-01T10:24:56.978Z</time></trkpt><trkpt lat="39.7917917" lon="16.2282"><ele>334.0</ele><time>2026-05-01T10:24:57.978Z</time></trkpt><trkpt lat="39.7920667" lon="16.2283267"><ele>334.0</ele><time>2026-05-01T10:24:58.979Z</time></trkpt><trkpt lat="39.792335" lon="16.2284667"><ele>334.0</ele><time>2026-05-01T10:24:59.979Z</time></trkpt><trkpt lat="39.7926033" lon="16.2286183"><ele>333.5</ele><time>2026-05-01T10:25:00.978Z</time></trkpt><trkpt lat="39.79287" lon="16.2287917"><ele>333.0</ele><time>2026-05-01T10:25:01.978Z</time></trkpt><trkpt lat="39.7931367" lon="16.228975"><ele>334.5</ele><time>2026-05-01T10:25:02.979Z</time></trkpt><trkpt lat="39.793395" lon="16.2291683"><ele>336.0</ele><time>2026-05-01T10:25:03.979Z</time></trkpt><trkpt lat="39.79365" lon="16.2293783"><ele>336.0</ele><time>2026-05-01T10:25:04.978Z</time></trkpt><trkpt lat="39.7939" lon="16.2296033"><ele>336.0</ele><time>2026-05-01T10:25:05.978Z</time></trkpt><trkpt lat="39.794145" lon="16.2298383"><ele>338.0</ele><time>2026-05-01T10:25:06.979Z</time></trkpt><trkpt lat="39.79438" lon="16.2300783"><ele>340.0</ele><time>2026-05-01T10:25:07.979Z</time></trkpt><trkpt lat="39.7946083" lon="16.2303333"><ele>340.0</ele><time>2026-05-01T10:25:08.979Z</time></trkpt><trkpt lat="39.79483" lon="16.2305933"><ele>340.0</ele><time>2026-05-01T10:25:09.979Z</time></trkpt><trkpt lat="39.7950367" lon="16.230865"><ele>341.5</ele><time>2026-05-01T10:25:10.978Z</time></trkpt><trkpt lat="39.79524" lon="16.2311417"><ele>343.0</ele><time>2026-05-01T10:25:11.978Z</time></trkpt><trkpt lat="39.7954417" lon="16.2314267"><ele>346.0</ele><time>2026-05-01T10:25:12.978Z</time></trkpt><trkpt lat="39.79563" lon="16.2317233"><ele>349.0</ele><time>2026-05-01T10:25:13.979Z</time></trkpt><trkpt lat="39.7958067" lon="16.23203"><ele>350.0</ele><time>2026-05-01T10:25:14.979Z</time></trkpt><trkpt lat="39.7959767" lon="16.23234"><ele>351.0</ele><time>2026-05-01T10:25:15.978Z</time></trkpt><trkpt lat="39.7961433" lon="16.2326617"><ele>351.0</ele><time>2026-05-01T10:25:16.979Z</time></trkpt><trkpt lat="39.79631" lon="16.2329833"><ele>351.0</ele><time>2026-05-01T10:25:17.979Z</time></trkpt><trkpt lat="39.7964733" lon="16.2333217"><ele>350.5</ele><time>2026-05-01T10:25:18.979Z</time></trkpt><trkpt lat="39.7966167" lon="16.2336717"><ele>350.0</ele><time>2026-05-01T10:25:19.978Z</time></trkpt><trkpt lat="39.7967517" lon="16.2340283"><ele>348.0</ele><time>2026-05-01T10:25:20.979Z</time></trkpt><trkpt lat="39.7968767" lon="16.2343867"><ele>346.0</ele><time>2026-05-01T10:25:21.979Z</time></trkpt><trkpt lat="39.7969883" lon="16.2347467"><ele>347.0</ele><time>2026-05-01T10:25:22.979Z</time></trkpt><trkpt lat="39.7970917" lon="16.2351067"><ele>348.0</ele><time>2026-05-01T10:25:23.978Z</time></trkpt><trkpt lat="39.7971967" lon="16.2354667"><ele>349.0</ele><time>2026-05-01T10:25:24.978Z</time></trkpt><trkpt lat="39.7973033" lon="16.2358317"><ele>350.0</ele><time>2026-05-01T10:25:25.978Z</time></trkpt><trkpt lat="39.7974117" lon="16.2361933"><ele>351.0</ele><time>2026-05-01T10:25:26.978Z</time></trkpt><trkpt lat="39.7975233" lon="16.2365533"><ele>352.0</ele><time>2026-05-01T10:25:27.979Z</time></trkpt><trkpt lat="39.7976517" lon="16.236905"><ele>351.5</ele><time>2026-05-01T10:25:28.978Z</time></trkpt><trkpt lat="39.7977933" lon="16.2372433"><ele>351.0</ele><time>2026-05-01T10:25:29.978Z</time></trkpt><trkpt lat="39.7979433" lon="16.237565"><ele>351.0</ele><time>2026-05-01T10:25:30.978Z</time></trkpt><trkpt lat="39.798115" lon="16.2378733"><ele>351.0</ele><time>2026-05-01T10:25:31.978Z</time></trkpt><trkpt lat="39.7982967" lon="16.2381817"><ele>350.0</ele><time>2026-05-01T10:25:32.978Z</time></trkpt><trkpt lat="39.798495" lon="16.2384767"><ele>349.0</ele><time>2026-05-01T10:25:33.978Z</time></trkpt><trkpt lat="39.7987083" lon="16.2387583"><ele>349.0</ele><time>2026-05-01T10:25:34.979Z</time></trkpt><trkpt lat="39.7989517" lon="16.2390367"><ele>349.0</ele><time>2026-05-01T10:25:35.978Z</time></trkpt><trkpt lat="39.7992033" lon="16.2393317"><ele>350.0</ele><time>2026-05-01T10:25:36.979Z</time></trkpt><trkpt lat="39.7994583" lon="16.2396333"><ele>351.0</ele><time>2026-05-01T10:25:37.978Z</time></trkpt><trkpt lat="39.79972" lon="16.23995"><ele>351.0</ele><time>2026-05-01T10:25:38.978Z</time></trkpt><trkpt lat="39.799985" lon="16.240285"><ele>351.0</ele><time>2026-05-01T10:25:39.979Z</time></trkpt><trkpt lat="39.8002667" lon="16.2406283"><ele>352.5</ele><time>2026-05-01T10:25:40.978Z</time></trkpt><trkpt lat="39.8005483" lon="16.240965"><ele>354.0</ele><time>2026-05-01T10:25:41.978Z</time></trkpt><trkpt lat="39.8008183" lon="16.2412833"><ele>354.5</ele><time>2026-05-01T10:25:42.979Z</time></trkpt><trkpt lat="39.8010783" lon="16.2415883"><ele>355.0</ele><time>2026-05-01T10:25:43.979Z</time></trkpt><trkpt lat="39.801325" lon="16.24189"><ele>355.0</ele><time>2026-05-01T10:25:44.978Z</time></trkpt><trkpt lat="39.8015667" lon="16.24218"><ele>355.0</ele><time>2026-05-01T10:25:45.978Z</time></trkpt><trkpt lat="39.801805" lon="16.2424667"><ele>355.0</ele><time>2026-05-01T10:25:46.978Z</time></trkpt><trkpt lat="39.8020517" lon="16.2427533"><ele>355.0</ele><time>2026-05-01T10:25:47.978Z</time></trkpt><trkpt lat="39.802285" lon="16.2430367"><ele>355.0</ele><time>2026-05-01T10:25:48.978Z</time></trkpt><trkpt lat="39.80252" lon="16.2433233"><ele>355.0</ele><time>2026-05-01T10:25:49.979Z</time></trkpt><trkpt lat="39.8027567" lon="16.2436067"><ele>355.0</ele><time>2026-05-01T10:25:50.979Z</time></trkpt><trkpt lat="39.8029933" lon="16.2438917"><ele>355.0</ele><time>2026-05-01T10:25:51.979Z</time></trkpt><trkpt lat="39.8032267" lon="16.2441733"><ele>355.5</ele><time>2026-05-01T10:25:52.978Z</time></trkpt><trkpt lat="39.8034517" lon="16.24444"><ele>356.0</ele><time>2026-05-01T10:25:53.979Z</time></trkpt><trkpt lat="39.8036783" lon="16.244705"><ele>359.5</ele><time>2026-05-01T10:25:54.978Z</time></trkpt><trkpt lat="39.8039083" lon="16.244975"><ele>363.0</ele><time>2026-05-01T10:25:55.978Z</time></trkpt><trkpt lat="39.8041317" lon="16.24524"><ele>362.5</ele><time>2026-05-01T10:25:56.978Z</time></trkpt><trkpt lat="39.8043483" lon="16.2455067"><ele>362.0</ele><time>2026-05-01T10:25:57.979Z</time></trkpt><trkpt lat="39.804565" lon="16.2457667"><ele>365.0</ele><time>2026-05-01T10:25:58.978Z</time></trkpt><trkpt lat="39.80479" lon="16.2460233"><ele>368.0</ele><time>2026-05-01T10:25:59.978Z</time></trkpt><trkpt lat="39.805015" lon="16.2462867"><ele>369.0</ele><time>2026-05-01T10:26:00.978Z</time></trkpt><trkpt lat="39.80523" lon="16.246545"><ele>370.0</ele><time>2026-05-01T10:26:01.979Z</time></trkpt><trkpt lat="39.8054467" lon="16.246805"><ele>370.0</ele><time>2026-05-01T10:26:02.979Z</time></trkpt><trkpt lat="39.805665" lon="16.2470533"><ele>370.0</ele><time>2026-05-01T10:26:03.979Z</time></trkpt><trkpt lat="39.8058733" lon="16.2473"><ele>369.5</ele><time>2026-05-01T10:26:04.978Z</time></trkpt><trkpt lat="39.8060783" lon="16.2475367"><ele>369.0</ele><time>2026-05-01T10:26:05.978Z</time></trkpt><trkpt lat="39.8062883" lon="16.2477833"><ele>369.0</ele><time>2026-05-01T10:26:06.979Z</time></trkpt><trkpt lat="39.8065" lon="16.248035"><ele>369.0</ele><time>2026-05-01T10:26:07.979Z</time></trkpt><trkpt lat="39.806705" lon="16.2482833"><ele>372.0</ele><time>2026-05-01T10:26:08.978Z</time></trkpt><trkpt lat="39.806915" lon="16.2485267"><ele>375.0</ele><time>2026-05-01T10:26:09.979Z</time></trkpt><trkpt lat="39.80712" lon="16.24877"><ele>378.0</ele><time>2026-05-01T10:26:10.979Z</time></trkpt><trkpt lat="39.8073333" lon="16.2490117"><ele>381.0</ele><time>2026-05-01T10:26:11.978Z</time></trkpt><trkpt lat="39.8075383" lon="16.2492567"><ele>383.0</ele><time>2026-05-01T10:26:12.978Z</time></trkpt><trkpt lat="39.80775" lon="16.2495083"><ele>385.0</ele><time>2026-05-01T10:26:13.978Z</time></trkpt><trkpt lat="39.8079533" lon="16.2497683"><ele>386.0</ele><time>2026-05-01T10:26:14.979Z</time></trkpt><trkpt lat="39.8081667" lon="16.250015"><ele>387.0</ele><time>2026-05-01T10:26:15.978Z</time></trkpt><trkpt lat="39.808385" lon="16.2502717"><ele>386.5</ele><time>2026-05-01T10:26:16.979Z</time></trkpt><trkpt lat="39.8086" lon="16.2505283"><ele>386.0</ele><time>2026-05-01T10:26:17.979Z</time></trkpt><trkpt lat="39.8088167" lon="16.250785"><ele>385.5</ele><time>2026-05-01T10:26:18.978Z</time></trkpt><trkpt lat="39.8090417" lon="16.25104"><ele>385.0</ele><time>2026-05-01T10:26:19.978Z</time></trkpt><trkpt lat="39.8092483" lon="16.2512767"><ele>381.0</ele><time>2026-05-01T10:26:20.978Z</time></trkpt><trkpt lat="39.8094583" lon="16.251485"><ele>377.0</ele><time>2026-05-01T10:26:21.978Z</time></trkpt><trkpt lat="39.8096817" lon="16.2516783"><ele>377.0</ele><time>2026-05-01T10:26:22.978Z</time></trkpt><trkpt lat="39.809915" lon="16.2518583"><ele>377.0</ele><time>2026-05-01T10:26:23.979Z</time></trkpt><trkpt lat="39.8101533" lon="16.2520117"><ele>371.5</ele><time>2026-05-01T10:26:24.979Z</time></trkpt><trkpt lat="39.8103917" lon="16.25215"><ele>366.0</ele><time>2026-05-01T10:26:25.978Z</time></trkpt><trkpt lat="39.81063" lon="16.2522683"><ele>366.0</ele><time>2026-05-01T10:26:26.978Z</time></trkpt><trkpt lat="39.810865" lon="16.25237"><ele>366.0</ele><time>2026-05-01T10:26:27.979Z</time></trkpt><trkpt lat="39.8111033" lon="16.2524617"><ele>366.0</ele><time>2026-05-01T10:26:28.979Z</time></trkpt><trkpt lat="39.8113483" lon="16.2525417"><ele>366.0</ele><time>2026-05-01T10:26:29.979Z</time></trkpt><trkpt lat="39.8116" lon="16.2526267"><ele>369.5</ele><time>2026-05-01T10:26:30.979Z</time></trkpt><trkpt lat="39.81187" lon="16.252725"><ele>373.0</ele><time>2026-05-01T10:26:31.979Z</time></trkpt><trkpt lat="39.8121433" lon="16.2528267"><ele>373.0</ele><time>2026-05-01T10:26:32.979Z</time></trkpt><trkpt lat="39.8124133" lon="16.25293"><ele>373.0</ele><time>2026-05-01T10:26:33.978Z</time></trkpt><trkpt lat="39.8126883" lon="16.2530333"><ele>383.0</ele><time>2026-05-01T10:26:34.978Z</time></trkpt><trkpt lat="39.8129817" lon="16.25314"><ele>393.0</ele><time>2026-05-01T10:26:35.978Z</time></trkpt><trkpt lat="39.8132767" lon="16.25325"><ele>398.5</ele><time>2026-05-01T10:26:36.979Z</time></trkpt><trkpt lat="39.81359" lon="16.25336"><ele>404.0</ele><time>2026-05-01T10:26:37.979Z</time></trkpt><trkpt lat="39.8138983" lon="16.2534667"><ele>404.0</ele><time>2026-05-01T10:26:38.979Z</time></trkpt><trkpt lat="39.8141967" lon="16.2535767"><ele>404.0</ele><time>2026-05-01T10:26:39.979Z</time></trkpt><trkpt lat="39.8144933" lon="16.25369"><ele>406.5</ele><time>2026-05-01T10:26:40.978Z</time></trkpt><trkpt lat="39.8147783" lon="16.253795"><ele>409.0</ele><time>2026-05-01T10:26:41.978Z</time></trkpt><trkpt lat="39.8150667" lon="16.2539017"><ele>410.5</ele><time>2026-05-01T10:26:42.979Z</time></trkpt><trkpt lat="39.81536" lon="16.2540033"><ele>412.0</ele><time>2026-05-01T10:26:43.979Z</time></trkpt><trkpt lat="39.8156483" lon="16.2541083"><ele>412.0</ele><time>2026-05-01T10:26:44.978Z</time></trkpt><trkpt lat="39.8159367" lon="16.254215"><ele>412.0</ele><time>2026-05-01T10:26:45.978Z</time></trkpt><trkpt lat="39.8162317" lon="16.2543183"><ele>413.0</ele><time>2026-05-01T10:26:46.978Z</time></trkpt><trkpt lat="39.8165367" lon="16.25443"><ele>414.0</ele><time>2026-05-01T10:26:47.979Z</time></trkpt><trkpt lat="39.816835" lon="16.2545383"><ele>415.0</ele><time>2026-05-01T10:26:48.978Z</time></trkpt><trkpt lat="39.817135" lon="16.2546517"><ele>416.0</ele><time>2026-05-01T10:26:49.979Z</time></trkpt><trkpt lat="39.8174283" lon="16.2547583"><ele>417.5</ele><time>2026-05-01T10:26:50.978Z</time></trkpt><trkpt lat="39.8177217" lon="16.254865"><ele>419.0</ele><time>2026-05-01T10:26:51.979Z</time></trkpt><trkpt lat="39.81801" lon="16.2549733"><ele>419.0</ele><time>2026-05-01T10:26:52.979Z</time></trkpt><trkpt lat="39.8182933" lon="16.25508"><ele>419.0</ele><time>2026-05-01T10:26:53.979Z</time></trkpt><trkpt lat="39.81857" lon="16.255195"><ele>420.0</ele><time>2026-05-01T10:26:54.979Z</time></trkpt><trkpt lat="39.8188433" lon="16.2553117"><ele>421.0</ele><time>2026-05-01T10:26:55.978Z</time></trkpt><trkpt lat="39.8191167" lon="16.2554433"><ele>423.0</ele><time>2026-05-01T10:26:56.978Z</time></trkpt><trkpt lat="39.8193883" lon="16.25559"><ele>425.0</ele><time>2026-05-01T10:26:57.978Z</time></trkpt><trkpt lat="39.81966" lon="16.255745"><ele>426.5</ele><time>2026-05-01T10:26:58.979Z</time></trkpt><trkpt lat="39.8199317" lon="16.255905"><ele>428.0</ele><time>2026-05-01T10:26:59.979Z</time></trkpt><trkpt lat="39.8202083" lon="16.256075"><ele>431.5</ele><time>2026-05-01T10:27:00.979Z</time></trkpt><trkpt lat="39.8204917" lon="16.2562567"><ele>435.0</ele><time>2026-05-01T10:27:01.978Z</time></trkpt><trkpt lat="39.8207733" lon="16.256455"><ele>439.0</ele><time>2026-05-01T10:27:02.978Z</time></trkpt><trkpt lat="39.821065" lon="16.2566767"><ele>443.0</ele><time>2026-05-01T10:27:03.978Z</time></trkpt><trkpt lat="39.8213617" lon="16.2569117"><ele>443.0</ele><time>2026-05-01T10:27:04.978Z</time></trkpt><trkpt lat="39.8216567" lon="16.2571533"><ele>443.0</ele><time>2026-05-01T10:27:05.978Z</time></trkpt><trkpt lat="39.821965" lon="16.2574033"><ele>447.0</ele><time>2026-05-01T10:27:06.978Z</time></trkpt><trkpt lat="39.822265" lon="16.2576533"><ele>451.0</ele><time>2026-05-01T10:27:07.978Z</time></trkpt><trkpt lat="39.8225533" lon="16.2578867"><ele>453.5</ele><time>2026-05-01T10:27:08.979Z</time></trkpt><trkpt lat="39.8228267" lon="16.2581083"><ele>456.0</ele><time>2026-05-01T10:27:09.978Z</time></trkpt><trkpt lat="39.8230933" lon="16.25832"><ele>456.0</ele><time>2026-05-01T10:27:10.979Z</time></trkpt><trkpt lat="39.82335" lon="16.258525"><ele>456.0</ele><time>2026-05-01T10:27:11.978Z</time></trkpt><trkpt lat="39.8236083" lon="16.2587133"><ele>456.0</ele><time>2026-05-01T10:27:12.978Z</time></trkpt><trkpt lat="39.82387" lon="16.2588833"><ele>456.0</ele><time>2026-05-01T10:27:13.978Z</time></trkpt><trkpt lat="39.8241367" lon="16.259035"><ele>458.0</ele><time>2026-05-01T10:27:14.979Z</time></trkpt><trkpt lat="39.8244133" lon="16.259175"><ele>460.0</ele><time>2026-05-01T10:27:15.978Z</time></trkpt><trkpt lat="39.824705" lon="16.2593033"><ele>460.0</ele><time>2026-05-01T10:27:16.978Z</time></trkpt><trkpt lat="39.8250067" lon="16.2594183"><ele>460.0</ele><time>2026-05-01T10:27:17.978Z</time></trkpt><trkpt lat="39.8253233" lon="16.25951"><ele>461.0</ele><time>2026-05-01T10:27:18.978Z</time></trkpt><trkpt lat="39.8256383" lon="16.2595817"><ele>462.0</ele><time>2026-05-01T10:27:19.979Z</time></trkpt><trkpt lat="39.8259483" lon="16.259635"><ele>463.5</ele><time>2026-05-01T10:27:20.978Z</time></trkpt><trkpt lat="39.8262567" lon="16.25967"><ele>465.0</ele><time>2026-05-01T10:27:21.978Z</time></trkpt><trkpt lat="39.82657" lon="16.259695"><ele>465.0</ele><time>2026-05-01T10:27:22.978Z</time></trkpt><trkpt lat="39.82688" lon="16.2597"><ele>465.0</ele><time>2026-05-01T10:27:23.978Z</time></trkpt><trkpt lat="39.8271917" lon="16.2596883"><ele>465.0</ele><time>2026-05-01T10:27:24.978Z</time></trkpt><trkpt lat="39.8275033" lon="16.2596583"><ele>465.0</ele><time>2026-05-01T10:27:25.979Z</time></trkpt><trkpt lat="39.827815" lon="16.259605"><ele>465.5</ele><time>2026-05-01T10:27:26.978Z</time></trkpt><trkpt lat="39.828125" lon="16.2595383"><ele>466.0</ele><time>2026-05-01T10:27:27.978Z</time></trkpt><trkpt lat="39.8284317" lon="16.25945"><ele>466.5</ele><time>2026-05-01T10:27:28.978Z</time></trkpt><trkpt lat="39.8287267" lon="16.2593417"><ele>467.0</ele><time>2026-05-01T10:27:29.979Z</time></trkpt><trkpt lat="39.8290167" lon="16.2592183"><ele>466.5</ele><time>2026-05-01T10:27:30.978Z</time></trkpt><trkpt lat="39.8293117" lon="16.259075"><ele>466.0</ele><time>2026-05-01T10:27:31.978Z</time></trkpt><trkpt lat="39.8296" lon="16.2589283"><ele>466.0</ele><time>2026-05-01T10:27:32.978Z</time></trkpt><trkpt lat="39.8298917" lon="16.2587783"><ele>466.0</ele><time>2026-05-01T10:27:33.978Z</time></trkpt><trkpt lat="39.83018" lon="16.2586333"><ele>467.0</ele><time>2026-05-01T10:27:34.979Z</time></trkpt><trkpt lat="39.8304733" lon="16.2584883"><ele>468.0</ele><time>2026-05-01T10:27:35.979Z</time></trkpt><trkpt lat="39.8307683" lon="16.2583417"><ele>469.0</ele><time>2026-05-01T10:27:36.978Z</time></trkpt><trkpt lat="39.83107" lon="16.2582"><ele>470.0</ele><time>2026-05-01T10:27:37.978Z</time></trkpt><trkpt lat="39.83138" lon="16.258045"><ele>470.0</ele><time>2026-05-01T10:27:38.978Z</time></trkpt><trkpt lat="39.8316933" lon="16.257885"><ele>470.0</ele><time>2026-05-01T10:27:39.979Z</time></trkpt><trkpt lat="39.8319983" lon="16.2577317"><ele>471.5</ele><time>2026-05-01T10:27:40.979Z</time></trkpt><trkpt lat="39.8322967" lon="16.2575883"><ele>473.0</ele><time>2026-05-01T10:27:41.979Z</time></trkpt><trkpt lat="39.832595" lon="16.2574433"><ele>475.0</ele><time>2026-05-01T10:27:42.979Z</time></trkpt><trkpt lat="39.8328883" lon="16.257295"><ele>477.0</ele><time>2026-05-01T10:27:43.979Z</time></trkpt><trkpt lat="39.833175" lon="16.2571517"><ele>477.0</ele><time>2026-05-01T10:27:44.978Z</time></trkpt><trkpt lat="39.8334633" lon="16.2570133"><ele>477.0</ele><time>2026-05-01T10:27:45.978Z</time></trkpt><trkpt lat="39.833755" lon="16.2568683"><ele>479.5</ele><time>2026-05-01T10:27:46.978Z</time></trkpt><trkpt lat="39.8340433" lon="16.256725"><ele>482.0</ele><time>2026-05-01T10:27:47.978Z</time></trkpt><trkpt lat="39.83433" lon="16.256585"><ele>483.5</ele><time>2026-05-01T10:27:48.978Z</time></trkpt><trkpt lat="39.83461" lon="16.2564467"><ele>485.0</ele><time>2026-05-01T10:27:49.978Z</time></trkpt><trkpt lat="39.8348883" lon="16.2562967"><ele>488.0</ele><time>2026-05-01T10:27:50.978Z</time></trkpt><trkpt lat="39.8351633" lon="16.2561333"><ele>491.0</ele><time>2026-05-01T10:27:51.978Z</time></trkpt><trkpt lat="39.8354417" lon="16.2559533"><ele>491.0</ele><time>2026-05-01T10:27:52.978Z</time></trkpt><trkpt lat="39.8357217" lon="16.2557517"><ele>491.0</ele><time>2026-05-01T10:27:53.978Z</time></trkpt><trkpt lat="39.8359967" lon="16.2555333"><ele>494.0</ele><time>2026-05-01T10:27:54.979Z</time></trkpt><trkpt lat="39.8362733" lon="16.2553033"><ele>497.0</ele><time>2026-05-01T10:27:55.978Z</time></trkpt><trkpt lat="39.83654" lon="16.2550633"><ele>497.0</ele><time>2026-05-01T10:27:56.979Z</time></trkpt><trkpt lat="39.8367967" lon="16.2548167"><ele>497.0</ele><time>2026-05-01T10:27:57.979Z</time></trkpt><trkpt lat="39.8370383" lon="16.2545617"><ele>499.5</ele><time>2026-05-01T10:27:58.978Z</time></trkpt><trkpt lat="39.837275" lon="16.2542933"><ele>502.0</ele><time>2026-05-01T10:27:59.978Z</time></trkpt><trkpt lat="39.8375017" lon="16.2540217"><ele>506.5</ele><time>2026-05-01T10:28:00.978Z</time></trkpt><trkpt lat="39.83772" lon="16.2537367"><ele>511.0</ele><time>2026-05-01T10:28:01.979Z</time></trkpt><trkpt lat="39.83793" lon="16.2534483"><ele>511.0</ele><time>2026-05-01T10:28:02.979Z</time></trkpt><trkpt lat="39.83813" lon="16.2531467"><ele>511.0</ele><time>2026-05-01T10:28:03.978Z</time></trkpt><trkpt lat="39.8383333" lon="16.2528367"><ele>516.0</ele><time>2026-05-01T10:28:04.979Z</time></trkpt><trkpt lat="39.8385267" lon="16.2525167"><ele>521.0</ele><time>2026-05-01T10:28:05.978Z</time></trkpt><trkpt lat="39.8387183" lon="16.2521867"><ele>521.0</ele><time>2026-05-01T10:28:06.978Z</time></trkpt><trkpt lat="39.8389133" lon="16.2518533"><ele>521.0</ele><time>2026-05-01T10:28:07.979Z</time></trkpt><trkpt lat="39.8391117" lon="16.2515233"><ele>525.0</ele><time>2026-05-01T10:28:08.978Z</time></trkpt><trkpt lat="39.839305" lon="16.2511833"><ele>529.0</ele><time>2026-05-01T10:28:09.978Z</time></trkpt><trkpt lat="39.8394933" lon="16.250845"><ele>526.0</ele><time>2026-05-01T10:28:10.979Z</time></trkpt><trkpt lat="39.839675" lon="16.2505117"><ele>523.0</ele><time>2026-05-01T10:28:11.978Z</time></trkpt><trkpt lat="39.8398483" lon="16.2501867"><ele>523.0</ele><time>2026-05-01T10:28:12.978Z</time></trkpt><trkpt lat="39.8400217" lon="16.2498717"><ele>523.0</ele><time>2026-05-01T10:28:13.978Z</time></trkpt><trkpt lat="39.8402017" lon="16.2495467"><ele>524.5</ele><time>2026-05-01T10:28:14.978Z</time></trkpt><trkpt lat="39.8403867" lon="16.2492233"><ele>526.0</ele><time>2026-05-01T10:28:15.979Z</time></trkpt><trkpt lat="39.8405667" lon="16.2489033"><ele>526.0</ele><time>2026-05-01T10:28:16.978Z</time></trkpt><trkpt lat="39.84075" lon="16.248585"><ele>526.0</ele><time>2026-05-01T10:28:17.979Z</time></trkpt><trkpt lat="39.840935" lon="16.24827"><ele>530.5</ele><time>2026-05-01T10:28:18.979Z</time></trkpt><trkpt lat="39.8411117" lon="16.2479667"><ele>535.0</ele><time>2026-05-01T10:28:19.978Z</time></trkpt><trkpt lat="39.8412833" lon="16.24766"><ele>535.0</ele><time>2026-05-01T10:28:20.978Z</time></trkpt><trkpt lat="39.8414617" lon="16.2473533"><ele>535.0</ele><time>2026-05-01T10:28:21.979Z</time></trkpt><trkpt lat="39.8416383" lon="16.2470483"><ele>539.5</ele><time>2026-05-01T10:28:22.978Z</time></trkpt><trkpt lat="39.8418067" lon="16.2467283"><ele>544.0</ele><time>2026-05-01T10:28:23.978Z</time></trkpt><trkpt lat="39.8419683" lon="16.2464133"><ele>544.5</ele><time>2026-05-01T10:28:24.978Z</time></trkpt><trkpt lat="39.842125" lon="16.246085"><ele>545.0</ele><time>2026-05-01T10:28:25.978Z</time></trkpt><trkpt lat="39.8422783" lon="16.2457533"><ele>544.0</ele><time>2026-05-01T10:28:26.978Z</time></trkpt><trkpt lat="39.842425" lon="16.245415"><ele>543.0</ele><time>2026-05-01T10:28:27.978Z</time></trkpt><trkpt lat="39.8425683" lon="16.2450817"><ele>547.0</ele><time>2026-05-01T10:28:28.978Z</time></trkpt><trkpt lat="39.8427083" lon="16.2447517"><ele>551.0</ele><time>2026-05-01T10:28:29.978Z</time></trkpt><trkpt lat="39.8428517" lon="16.24442"><ele>551.0</ele><time>2026-05-01T10:28:30.979Z</time></trkpt><trkpt lat="39.8429933" lon="16.2440933"><ele>551.0</ele><time>2026-05-01T10:28:31.978Z</time></trkpt><trkpt lat="39.8431367" lon="16.24376"><ele>551.0</ele><time>2026-05-01T10:28:32.979Z</time></trkpt><trkpt lat="39.8432783" lon="16.2434267"><ele>551.0</ele><time>2026-05-01T10:28:33.979Z</time></trkpt><trkpt lat="39.8434233" lon="16.24309"><ele>557.0</ele><time>2026-05-01T10:28:34.978Z</time></trkpt><trkpt lat="39.8435633" lon="16.242745"><ele>563.0</ele><time>2026-05-01T10:28:35.978Z</time></trkpt><trkpt lat="39.8437117" lon="16.2423883"><ele>561.5</ele><time>2026-05-01T10:28:36.979Z</time></trkpt><trkpt lat="39.8438617" lon="16.24203"><ele>560.0</ele><time>2026-05-01T10:28:37.978Z</time></trkpt><trkpt lat="39.84401" lon="16.2416767"><ele>560.5</ele><time>2026-05-01T10:28:38.978Z</time></trkpt><trkpt lat="39.8441567" lon="16.24133"><ele>561.0</ele><time>2026-05-01T10:28:39.979Z</time></trkpt><trkpt lat="39.8443033" lon="16.2409817"><ele>565.5</ele><time>2026-05-01T10:28:40.978Z</time></trkpt><trkpt lat="39.844455" lon="16.2406383"><ele>570.0</ele><time>2026-05-01T10:28:41.978Z</time></trkpt><trkpt lat="39.844605" lon="16.24029"><ele>570.5</ele><time>2026-05-01T10:28:42.978Z</time></trkpt><trkpt lat="39.8447533" lon="16.2399417"><ele>571.0</ele><time>2026-05-01T10:28:43.978Z</time></trkpt><trkpt lat="39.8449033" lon="16.2396"><ele>572.0</ele><time>2026-05-01T10:28:44.978Z</time></trkpt><trkpt lat="39.845045" lon="16.2392533"><ele>573.0</ele><time>2026-05-01T10:28:45.978Z</time></trkpt><trkpt lat="39.8451917" lon="16.2389033"><ele>577.5</ele><time>2026-05-01T10:28:46.978Z</time></trkpt><trkpt lat="39.84534" lon="16.2385517"><ele>582.0</ele><time>2026-05-01T10:28:47.978Z</time></trkpt><trkpt lat="39.84549" lon="16.238205"><ele>582.0</ele><time>2026-05-01T10:28:48.979Z</time></trkpt><trkpt lat="39.8456383" lon="16.2378583"><ele>582.0</ele><time>2026-05-01T10:28:49.978Z</time></trkpt><trkpt lat="39.8457817" lon="16.237515"><ele>580.0</ele><time>2026-05-01T10:28:50.979Z</time></trkpt><trkpt lat="39.8459283" lon="16.23717"><ele>578.0</ele><time>2026-05-01T10:28:51.979Z</time></trkpt><trkpt lat="39.84608" lon="16.2368317"><ele>575.0</ele><time>2026-05-01T10:28:52.978Z</time></trkpt><trkpt lat="39.8462267" lon="16.2364817"><ele>572.0</ele><time>2026-05-01T10:28:53.978Z</time></trkpt><trkpt lat="39.8463683" lon="16.2361333"><ele>572.0</ele><time>2026-05-01T10:28:54.978Z</time></trkpt><trkpt lat="39.8465017" lon="16.2357767"><ele>572.0</ele><time>2026-05-01T10:28:55.978Z</time></trkpt><trkpt lat="39.84664" lon="16.23541"><ele>571.0</ele><time>2026-05-01T10:28:56.978Z</time></trkpt><trkpt lat="39.846765" lon="16.2350283"><ele>570.0</ele><time>2026-05-01T10:28:57.978Z</time></trkpt><trkpt lat="39.8468833" lon="16.2346533"><ele>576.5</ele><time>2026-05-01T10:28:58.978Z</time></trkpt><trkpt lat="39.8469833" lon="16.234275"><ele>583.0</ele><time>2026-05-01T10:28:59.978Z</time></trkpt><trkpt lat="39.8470733" lon="16.2338917"><ele>585.0</ele><time>2026-05-01T10:29:00.978Z</time></trkpt><trkpt lat="39.8471567" lon="16.2335167"><ele>587.0</ele><time>2026-05-01T10:29:01.978Z</time></trkpt><trkpt lat="39.8472333" lon="16.2331317"><ele>588.5</ele><time>2026-05-01T10:29:02.978Z</time></trkpt><trkpt lat="39.8473033" lon="16.232745"><ele>590.0</ele><time>2026-05-01T10:29:03.979Z</time></trkpt><trkpt lat="39.84737" lon="16.2323517"><ele>590.5</ele><time>2026-05-01T10:29:04.978Z</time></trkpt><trkpt lat="39.84743" lon="16.2319483"><ele>591.0</ele><time>2026-05-01T10:29:05.978Z</time></trkpt><trkpt lat="39.8474783" lon="16.2315433"><ele>593.0</ele><time>2026-05-01T10:29:06.978Z</time></trkpt><trkpt lat="39.8475183" lon="16.23113"><ele>595.0</ele><time>2026-05-01T10:29:07.979Z</time></trkpt><trkpt lat="39.8475483" lon="16.2307117"><ele>596.5</ele><time>2026-05-01T10:29:08.978Z</time></trkpt><trkpt lat="39.8475717" lon="16.2302983"><ele>598.0</ele><time>2026-05-01T10:29:09.979Z</time></trkpt><trkpt lat="39.8475883" lon="16.229895"><ele>599.5</ele><time>2026-05-01T10:29:10.978Z</time></trkpt><trkpt lat="39.8476033" lon="16.2294983"><ele>601.0</ele><time>2026-05-01T10:29:11.978Z</time></trkpt><trkpt lat="39.8476233" lon="16.2291067"><ele>608.0</ele><time>2026-05-01T10:29:12.978Z</time></trkpt><trkpt lat="39.8476417" lon="16.2287167"><ele>615.0</ele><time>2026-05-01T10:29:13.978Z</time></trkpt><trkpt lat="39.8476617" lon="16.2283217"><ele>618.0</ele><time>2026-05-01T10:29:14.979Z</time></trkpt><trkpt lat="39.847675" lon="16.22793"><ele>621.0</ele><time>2026-05-01T10:29:15.979Z</time></trkpt><trkpt lat="39.8476917" lon="16.227535"><ele>622.5</ele><time>2026-05-01T10:29:16.978Z</time></trkpt><trkpt lat="39.84771" lon="16.2271433"><ele>624.0</ele><time>2026-05-01T10:29:17.978Z</time></trkpt><trkpt lat="39.8477267" lon="16.2267583"><ele>624.5</ele><time>2026-05-01T10:29:18.978Z</time></trkpt><trkpt lat="39.8477383" lon="16.22637"><ele>625.0</ele><time>2026-05-01T10:29:19.978Z</time></trkpt><trkpt lat="39.8477533" lon="16.22598"><ele>626.0</ele><time>2026-05-01T10:29:20.979Z</time></trkpt><trkpt lat="39.84777" lon="16.22559"><ele>627.0</ele><time>2026-05-01T10:29:21.978Z</time></trkpt><trkpt lat="39.8477867" lon="16.2251917"><ele>628.5</ele><time>2026-05-01T10:29:22.979Z</time></trkpt><trkpt lat="39.8478017" lon="16.22479"><ele>630.0</ele><time>2026-05-01T10:29:23.979Z</time></trkpt><trkpt lat="39.847825" lon="16.2243967"><ele>630.0</ele><time>2026-05-01T10:29:24.979Z</time></trkpt><trkpt lat="39.8478483" lon="16.22401"><ele>630.0</ele><time>2026-05-01T10:29:25.978Z</time></trkpt><trkpt lat="39.8478683" lon="16.223625"><ele>631.0</ele><time>2026-05-01T10:29:26.979Z</time></trkpt><trkpt lat="39.8478883" lon="16.2232433"><ele>632.0</ele><time>2026-05-01T10:29:27.979Z</time></trkpt><trkpt lat="39.8479117" lon="16.222875"><ele>633.0</ele><time>2026-05-01T10:29:28.978Z</time></trkpt><trkpt lat="39.8479417" lon="16.2225183"><ele>634.0</ele><time>2026-05-01T10:29:29.978Z</time></trkpt><trkpt lat="39.847975" lon="16.2221767"><ele>634.0</ele><time>2026-05-01T10:29:30.978Z</time></trkpt><trkpt lat="39.8480133" lon="16.2218417"><ele>634.0</ele><time>2026-05-01T10:29:31.979Z</time></trkpt><trkpt lat="39.8480517" lon="16.2215117"><ele>634.5</ele><time>2026-05-01T10:29:32.978Z</time></trkpt><trkpt lat="39.84809" lon="16.2211767"><ele>635.0</ele><time>2026-05-01T10:29:33.979Z</time></trkpt><trkpt lat="39.848135" lon="16.2208433"><ele>635.5</ele><time>2026-05-01T10:29:34.978Z</time></trkpt><trkpt lat="39.8481783" lon="16.2205033"><ele>636.0</ele><time>2026-05-01T10:29:35.978Z</time></trkpt><trkpt lat="39.848225" lon="16.22015"><ele>636.0</ele><time>2026-05-01T10:29:36.978Z</time></trkpt><trkpt lat="39.8482767" lon="16.2197867"><ele>636.0</ele><time>2026-05-01T10:29:37.978Z</time></trkpt><trkpt lat="39.8483233" lon="16.219415"><ele>636.0</ele><time>2026-05-01T10:29:38.979Z</time></trkpt><trkpt lat="39.8483783" lon="16.2190383"><ele>636.0</ele><time>2026-05-01T10:29:39.979Z</time></trkpt><trkpt lat="39.8484317" lon="16.2186583"><ele>639.5</ele><time>2026-05-01T10:29:40.979Z</time></trkpt><trkpt lat="39.8484933" lon="16.2182833"><ele>643.0</ele><time>2026-05-01T10:29:41.979Z</time></trkpt><trkpt lat="39.8485483" lon="16.2179133"><ele>644.5</ele><time>2026-05-01T10:29:42.978Z</time></trkpt><trkpt lat="39.8486" lon="16.2175467"><ele>646.0</ele><time>2026-05-01T10:29:43.978Z</time></trkpt><trkpt lat="39.8486483" lon="16.21718"><ele>646.0</ele><time>2026-05-01T10:29:44.978Z</time></trkpt><trkpt lat="39.8487017" lon="16.21681"><ele>646.0</ele><time>2026-05-01T10:29:45.979Z</time></trkpt><trkpt lat="39.8487533" lon="16.2164367"><ele>644.0</ele><time>2026-05-01T10:29:46.978Z</time></trkpt><trkpt lat="39.8488067" lon="16.2160667"><ele>642.0</ele><time>2026-05-01T10:29:47.979Z</time></trkpt><trkpt lat="39.848855" lon="16.2156933"><ele>641.5</ele><time>2026-05-01T10:29:48.979Z</time></trkpt><trkpt lat="39.848905" lon="16.2153183"><ele>641.0</ele><time>2026-05-01T10:29:49.978Z</time></trkpt><trkpt lat="39.848965" lon="16.2149533"><ele>641.5</ele><time>2026-05-01T10:29:50.979Z</time></trkpt><trkpt lat="39.84902" lon="16.214585"><ele>642.0</ele><time>2026-05-01T10:29:51.978Z</time></trkpt><trkpt lat="39.8490633" lon="16.2142217"><ele>648.0</ele><time>2026-05-01T10:29:52.978Z</time></trkpt><trkpt lat="39.8491117" lon="16.21386"><ele>654.0</ele><time>2026-05-01T10:29:53.979Z</time></trkpt><trkpt lat="39.8491633" lon="16.2135083"><ele>654.0</ele><time>2026-05-01T10:29:54.978Z</time></trkpt><trkpt lat="39.8492133" lon="16.2131567"><ele>654.0</ele><time>2026-05-01T10:29:55.978Z</time></trkpt><trkpt lat="39.8492617" lon="16.212825"><ele>676.0</ele><time>2026-05-01T10:29:56.979Z</time></trkpt><trkpt lat="39.8493133" lon="16.2124917"><ele>698.0</ele><time>2026-05-01T10:29:57.979Z</time></trkpt><trkpt lat="39.8493633" lon="16.2121633"><ele>700.0</ele><time>2026-05-01T10:29:58.979Z</time></trkpt><trkpt lat="39.84942" lon="16.2118333"><ele>702.0</ele><time>2026-05-01T10:29:59.978Z</time></trkpt><trkpt lat="39.8494783" lon="16.2115117"><ele>696.5</ele><time>2026-05-01T10:30:00.978Z</time></trkpt><trkpt lat="39.849545" lon="16.2111933"><ele>691.0</ele><time>2026-05-01T10:30:01.979Z</time></trkpt><trkpt lat="39.8496117" lon="16.2108667"><ele>682.5</ele><time>2026-05-01T10:30:02.979Z</time></trkpt><trkpt lat="39.849685" lon="16.2105217"><ele>674.0</ele><time>2026-05-01T10:30:03.978Z</time></trkpt><trkpt lat="39.8497483" lon="16.21019"><ele>674.0</ele><time>2026-05-01T10:30:04.978Z</time></trkpt><trkpt lat="39.8498317" lon="16.2098333"><ele>674.0</ele><time>2026-05-01T10:30:05.978Z</time></trkpt><trkpt lat="39.8500233" lon="16.2095317"><ele>674.0</ele><time>2026-05-01T10:30:06.979Z</time></trkpt><trkpt lat="39.8502317" lon="16.2092033"><ele>674.0</ele><time>2026-05-01T10:30:07.979Z</time></trkpt><trkpt lat="39.85044" lon="16.208885"><ele>668.5</ele><time>2026-05-01T10:30:08.978Z</time></trkpt><trkpt lat="39.85061" lon="16.2085633"><ele>663.0</ele><time>2026-05-01T10:30:09.978Z</time></trkpt><trkpt lat="39.8507633" lon="16.2082433"><ele>657.5</ele><time>2026-05-01T10:30:10.978Z</time></trkpt><trkpt lat="39.8509133" lon="16.2079183"><ele>652.0</ele><time>2026-05-01T10:30:11.979Z</time></trkpt><trkpt lat="39.8510833" lon="16.2075817"><ele>648.0</ele><time>2026-05-01T10:30:12.979Z</time></trkpt><trkpt lat="39.8512433" lon="16.207245"><ele>644.0</ele><time>2026-05-01T10:30:13.979Z</time></trkpt><trkpt lat="39.8513983" lon="16.2069117"><ele>644.0</ele><time>2026-05-01T10:30:14.978Z</time></trkpt><trkpt lat="39.85154" lon="16.20659"><ele>644.0</ele><time>2026-05-01T10:30:15.978Z</time></trkpt><trkpt lat="39.8516733" lon="16.2062833"><ele>662.0</ele><time>2026-05-01T10:30:16.978Z</time></trkpt><trkpt lat="39.851815" lon="16.2059717"><ele>680.0</ele><time>2026-05-01T10:30:17.979Z</time></trkpt><trkpt lat="39.8519517" lon="16.20566"><ele>681.5</ele><time>2026-05-01T10:30:18.978Z</time></trkpt><trkpt lat="39.852095" lon="16.205355"><ele>683.0</ele><time>2026-05-01T10:30:19.978Z</time></trkpt><trkpt lat="39.8522383" lon="16.2050483"><ele>679.0</ele><time>2026-05-01T10:30:20.978Z</time></trkpt><trkpt lat="39.8523867" lon="16.2047333"><ele>675.0</ele><time>2026-05-01T10:30:21.978Z</time></trkpt><trkpt lat="39.8525417" lon="16.2044167"><ele>677.0</ele><time>2026-05-01T10:30:22.978Z</time></trkpt><trkpt lat="39.8527033" lon="16.2041017"><ele>679.0</ele><time>2026-05-01T10:30:23.979Z</time></trkpt><trkpt lat="39.8528833" lon="16.20378"><ele>679.0</ele><time>2026-05-01T10:30:24.978Z</time></trkpt><trkpt lat="39.8530783" lon="16.2034683"><ele>679.0</ele><time>2026-05-01T10:30:25.979Z</time></trkpt><trkpt lat="39.8532817" lon="16.2031567"><ele>679.5</ele><time>2026-05-01T10:30:26.978Z</time></trkpt><trkpt lat="39.8534833" lon="16.2028517"><ele>680.0</ele><time>2026-05-01T10:30:27.979Z</time></trkpt><trkpt lat="39.8536933" lon="16.2025467"><ele>680.5</ele><time>2026-05-01T10:30:28.978Z</time></trkpt><trkpt lat="39.8539033" lon="16.20224"><ele>681.0</ele><time>2026-05-01T10:30:29.979Z</time></trkpt><trkpt lat="39.85412" lon="16.2019267"><ele>683.5</ele><time>2026-05-01T10:30:30.978Z</time></trkpt><trkpt lat="39.8543367" lon="16.2016117"><ele>686.0</ele><time>2026-05-01T10:30:31.979Z</time></trkpt><trkpt lat="39.8545533" lon="16.201305"><ele>686.0</ele><time>2026-05-01T10:30:32.978Z</time></trkpt><trkpt lat="39.85476" lon="16.2009983"><ele>686.0</ele><time>2026-05-01T10:30:33.978Z</time></trkpt><trkpt lat="39.8549717" lon="16.2006867"><ele>691.0</ele><time>2026-05-01T10:30:34.979Z</time></trkpt><trkpt lat="39.8551833" lon="16.2003783"><ele>696.0</ele><time>2026-05-01T10:30:35.979Z</time></trkpt><trkpt lat="39.855395" lon="16.20007"><ele>696.5</ele><time>2026-05-01T10:30:36.979Z</time></trkpt><trkpt lat="39.8556017" lon="16.1997683"><ele>697.0</ele><time>2026-05-01T10:30:37.978Z</time></trkpt><trkpt lat="39.8558083" lon="16.1994633"><ele>700.5</ele><time>2026-05-01T10:30:38.978Z</time></trkpt><trkpt lat="39.8560117" lon="16.1991617"><ele>704.0</ele><time>2026-05-01T10:30:39.979Z</time></trkpt><trkpt lat="39.85621" lon="16.1988667"><ele>704.0</ele><time>2026-05-01T10:30:40.978Z</time></trkpt><trkpt lat="39.8564183" lon="16.198565"><ele>704.0</ele><time>2026-05-01T10:30:41.978Z</time></trkpt><trkpt lat="39.856625" lon="16.1982567"><ele>708.5</ele><time>2026-05-01T10:30:42.978Z</time></trkpt><trkpt lat="39.8568317" lon="16.1979533"><ele>713.0</ele><time>2026-05-01T10:30:43.979Z</time></trkpt><trkpt lat="39.8570367" lon="16.197645"><ele>713.0</ele><time>2026-05-01T10:30:44.978Z</time></trkpt><trkpt lat="39.857245" lon="16.1973467"><ele>713.0</ele><time>2026-05-01T10:30:45.978Z</time></trkpt><trkpt lat="39.8574517" lon="16.19705"><ele>715.0</ele><time>2026-05-01T10:30:46.978Z</time></trkpt><trkpt lat="39.8576567" lon="16.1967533"><ele>717.0</ele><time>2026-05-01T10:30:47.978Z</time></trkpt><trkpt lat="39.8578517" lon="16.1964633"><ele>717.0</ele><time>2026-05-01T10:30:48.978Z</time></trkpt><trkpt lat="39.8580533" lon="16.19617"><ele>717.0</ele><time>2026-05-01T10:30:49.978Z</time></trkpt><trkpt lat="39.8582567" lon="16.195875"><ele>720.5</ele><time>2026-05-01T10:30:50.978Z</time></trkpt><trkpt lat="39.8584517" lon="16.195585"><ele>724.0</ele><time>2026-05-01T10:30:51.978Z</time></trkpt><trkpt lat="39.8586433" lon="16.1952867"><ele>724.0</ele><time>2026-05-01T10:30:52.979Z</time></trkpt><trkpt lat="39.8588417" lon="16.1949883"><ele>724.0</ele><time>2026-05-01T10:30:53.978Z</time></trkpt><trkpt lat="39.859045" lon="16.194685"><ele>724.0</ele><time>2026-05-01T10:30:54.978Z</time></trkpt><trkpt lat="39.8592533" lon="16.1943833"><ele>724.0</ele><time>2026-05-01T10:30:55.978Z</time></trkpt><trkpt lat="39.8594583" lon="16.1940883"><ele>721.5</ele><time>2026-05-01T10:30:56.979Z</time></trkpt><trkpt lat="39.8596567" lon="16.1937967"><ele>719.0</ele><time>2026-05-01T10:30:57.978Z</time></trkpt><trkpt lat="39.8598533" lon="16.19351"><ele>719.0</ele><time>2026-05-01T10:30:58.978Z</time></trkpt><trkpt lat="39.8600483" lon="16.1932233"><ele>719.0</ele><time>2026-05-01T10:30:59.979Z</time></trkpt><trkpt lat="39.8602333" lon="16.1929467"><ele>721.0</ele><time>2026-05-01T10:31:00.978Z</time></trkpt><trkpt lat="39.860415" lon="16.192665"><ele>723.0</ele><time>2026-05-01T10:31:01.979Z</time></trkpt><trkpt lat="39.8606033" lon="16.1923767"><ele>720.0</ele><time>2026-05-01T10:31:02.979Z</time></trkpt><trkpt lat="39.86078" lon="16.1920833"><ele>717.0</ele><time>2026-05-01T10:31:03.978Z</time></trkpt><trkpt lat="39.8609517" lon="16.19178"><ele>720.5</ele><time>2026-05-01T10:31:04.979Z</time></trkpt><trkpt lat="39.8611233" lon="16.19147"><ele>724.0</ele><time>2026-05-01T10:31:05.978Z</time></trkpt><trkpt lat="39.8612917" lon="16.191145"><ele>724.0</ele><time>2026-05-01T10:31:06.978Z</time></trkpt><trkpt lat="39.8614617" lon="16.1908167"><ele>724.0</ele><time>2026-05-01T10:31:07.978Z</time></trkpt><trkpt lat="39.8616283" lon="16.19048"><ele>726.0</ele><time>2026-05-01T10:31:08.978Z</time></trkpt><trkpt lat="39.861795" lon="16.19013"><ele>728.0</ele><time>2026-05-01T10:31:09.979Z</time></trkpt><trkpt lat="39.8619583" lon="16.18978"><ele>728.0</ele><time>2026-05-01T10:31:10.978Z</time></trkpt><trkpt lat="39.8621267" lon="16.18943"><ele>728.0</ele><time>2026-05-01T10:31:11.978Z</time></trkpt><trkpt lat="39.8622967" lon="16.1890817"><ele>727.0</ele><time>2026-05-01T10:31:12.978Z</time></trkpt><trkpt lat="39.8624683" lon="16.1887367"><ele>726.0</ele><time>2026-05-01T10:31:13.978Z</time></trkpt><trkpt lat="39.8626417" lon="16.1883883"><ele>732.5</ele><time>2026-05-01T10:31:14.978Z</time></trkpt><trkpt lat="39.8628083" lon="16.1880383"><ele>739.0</ele><time>2026-05-01T10:31:15.978Z</time></trkpt><trkpt lat="39.86298" lon="16.1876867"><ele>734.0</ele><time>2026-05-01T10:31:16.978Z</time></trkpt><trkpt lat="39.8631483" lon="16.18733"><ele>729.0</ele><time>2026-05-01T10:31:17.979Z</time></trkpt><trkpt lat="39.86332" lon="16.1869783"><ele>729.0</ele><time>2026-05-01T10:31:18.979Z</time></trkpt><trkpt lat="39.8634917" lon="16.18662"><ele>729.0</ele><time>2026-05-01T10:31:19.978Z</time></trkpt><trkpt lat="39.8636567" lon="16.18627"><ele>729.0</ele><time>2026-05-01T10:31:20.978Z</time></trkpt><trkpt lat="39.8638217" lon="16.18593"><ele>729.0</ele><time>2026-05-01T10:31:21.979Z</time></trkpt><trkpt lat="39.8639767" lon="16.1855967"><ele>730.0</ele><time>2026-05-01T10:31:22.978Z</time></trkpt><trkpt lat="39.8641333" lon="16.185265"><ele>731.0</ele><time>2026-05-01T10:31:23.979Z</time></trkpt><trkpt lat="39.8642883" lon="16.1849467"><ele>736.5</ele><time>2026-05-01T10:31:24.978Z</time></trkpt><trkpt lat="39.86444" lon="16.1846333"><ele>742.0</ele><time>2026-05-01T10:31:25.978Z</time></trkpt><trkpt lat="39.8645983" lon="16.1843283"><ele>742.0</ele><time>2026-05-01T10:31:26.978Z</time></trkpt><trkpt lat="39.864755" lon="16.184025"><ele>742.0</ele><time>2026-05-01T10:31:27.978Z</time></trkpt><trkpt lat="39.86492" lon="16.183725"><ele>743.0</ele><time>2026-05-01T10:31:28.979Z</time></trkpt><trkpt lat="39.8650983" lon="16.1834267"><ele>744.0</ele><time>2026-05-01T10:31:29.978Z</time></trkpt><trkpt lat="39.86528" lon="16.1831267"><ele>748.5</ele><time>2026-05-01T10:31:30.978Z</time></trkpt><trkpt lat="39.8654683" lon="16.182825"><ele>753.0</ele><time>2026-05-01T10:31:31.978Z</time></trkpt><trkpt lat="39.8656633" lon="16.18252"><ele>752.0</ele><time>2026-05-01T10:31:32.978Z</time></trkpt><trkpt lat="39.8658617" lon="16.1822167"><ele>751.0</ele><time>2026-05-01T10:31:33.979Z</time></trkpt><trkpt lat="39.8660583" lon="16.18191"><ele>755.0</ele><time>2026-05-01T10:31:34.979Z</time></trkpt><trkpt lat="39.8662533" lon="16.1816067"><ele>759.0</ele><time>2026-05-01T10:31:35.978Z</time></trkpt><trkpt lat="39.8664417" lon="16.1813083"><ele>759.0</ele><time>2026-05-01T10:31:36.979Z</time></trkpt><trkpt lat="39.86663" lon="16.1810117"><ele>759.0</ele><time>2026-05-01T10:31:37.979Z</time></trkpt><trkpt lat="39.866815" lon="16.180725"><ele>762.5</ele><time>2026-05-01T10:31:38.978Z</time></trkpt><trkpt lat="39.8670017" lon="16.1804383"><ele>766.0</ele><time>2026-05-01T10:31:39.978Z</time></trkpt><trkpt lat="39.86719" lon="16.1801467"><ele>764.0</ele><time>2026-05-01T10:31:40.978Z</time></trkpt><trkpt lat="39.8673883" lon="16.17985"><ele>762.0</ele><time>2026-05-01T10:31:41.979Z</time></trkpt><trkpt lat="39.8675867" lon="16.1795567"><ele>763.0</ele><time>2026-05-01T10:31:42.979Z</time></trkpt><trkpt lat="39.8677867" lon="16.179255"><ele>764.0</ele><time>2026-05-01T10:31:43.978Z</time></trkpt><trkpt lat="39.86798" lon="16.17895"><ele>764.0</ele><time>2026-05-01T10:31:44.978Z</time></trkpt><trkpt lat="39.8681733" lon="16.1786483"><ele>764.0</ele><time>2026-05-01T10:31:45.978Z</time></trkpt><trkpt lat="39.8683633" lon="16.1783533"><ele>763.0</ele><time>2026-05-01T10:31:46.978Z</time></trkpt><trkpt lat="39.8685517" lon="16.1780567"><ele>762.0</ele><time>2026-05-01T10:31:47.978Z</time></trkpt><trkpt lat="39.868745" lon="16.177765"><ele>762.0</ele><time>2026-05-01T10:31:48.978Z</time></trkpt><trkpt lat="39.868935" lon="16.1774767"><ele>762.0</ele><time>2026-05-01T10:31:49.979Z</time></trkpt><trkpt lat="39.8691183" lon="16.1771917"><ele>765.5</ele><time>2026-05-01T10:31:50.978Z</time></trkpt><trkpt lat="39.8693033" lon="16.1769083"><ele>769.0</ele><time>2026-05-01T10:31:51.979Z</time></trkpt><trkpt lat="39.8694983" lon="16.176625"><ele>767.5</ele><time>2026-05-01T10:31:52.978Z</time></trkpt><trkpt lat="39.8696783" lon="16.1763467"><ele>766.0</ele><time>2026-05-01T10:31:53.979Z</time></trkpt><trkpt lat="39.8698617" lon="16.1760733"><ele>766.0</ele><time>2026-05-01T10:31:54.978Z</time></trkpt><trkpt lat="39.87004" lon="16.1758033"><ele>766.0</ele><time>2026-05-01T10:31:55.978Z</time></trkpt><trkpt lat="39.8702167" lon="16.17553"><ele>772.0</ele><time>2026-05-01T10:31:56.978Z</time></trkpt><trkpt lat="39.87039" lon="16.1752617"><ele>778.0</ele><time>2026-05-01T10:31:57.978Z</time></trkpt><trkpt lat="39.870565" lon="16.1749967"><ele>777.0</ele><time>2026-05-01T10:31:58.978Z</time></trkpt><trkpt lat="39.870745" lon="16.17473"><ele>776.0</ele><time>2026-05-01T10:31:59.979Z</time></trkpt><trkpt lat="39.8709167" lon="16.1744683"><ele>781.0</ele><time>2026-05-01T10:32:00.979Z</time></trkpt><trkpt lat="39.871085" lon="16.1742067"><ele>786.0</ele><time>2026-05-01T10:32:01.978Z</time></trkpt><trkpt lat="39.8712517" lon="16.1739417"><ele>786.0</ele><time>2026-05-01T10:32:02.979Z</time></trkpt><trkpt lat="39.8714233" lon="16.1736767"><ele>786.0</ele><time>2026-05-01T10:32:03.979Z</time></trkpt><trkpt lat="39.8716" lon="16.1734217"><ele>786.0</ele><time>2026-05-01T10:32:04.979Z</time></trkpt><trkpt lat="39.871775" lon="16.1731533"><ele>786.0</ele><time>2026-05-01T10:32:05.979Z</time></trkpt><trkpt lat="39.8719467" lon="16.172885"><ele>786.0</ele><time>2026-05-01T10:32:06.978Z</time></trkpt><trkpt lat="39.8721183" lon="16.1726167"><ele>786.0</ele><time>2026-05-01T10:32:07.978Z</time></trkpt><trkpt lat="39.872295" lon="16.17235"><ele>786.0</ele><time>2026-05-01T10:32:08.978Z</time></trkpt><trkpt lat="39.8724617" lon="16.172085"><ele>786.0</ele><time>2026-05-01T10:32:09.979Z</time></trkpt><trkpt lat="39.8726417" lon="16.1718133"><ele>789.0</ele><time>2026-05-01T10:32:10.979Z</time></trkpt><trkpt lat="39.8728267" lon="16.171535"><ele>792.0</ele><time>2026-05-01T10:32:11.979Z</time></trkpt><trkpt lat="39.8730167" lon="16.1712467"><ele>792.0</ele><time>2026-05-01T10:32:12.978Z</time></trkpt><trkpt lat="39.8732067" lon="16.170945"><ele>792.0</ele><time>2026-05-01T10:32:13.979Z</time></trkpt><trkpt lat="39.8734067" lon="16.1706217"><ele>795.0</ele><time>2026-05-01T10:32:14.978Z</time></trkpt><trkpt lat="39.873605" lon="16.1702933"><ele>798.0</ele><time>2026-05-01T10:32:15.979Z</time></trkpt><trkpt lat="39.8738083" lon="16.1699767"><ele>797.0</ele><time>2026-05-01T10:32:16.978Z</time></trkpt><trkpt lat="39.8740183" lon="16.169655"><ele>796.0</ele><time>2026-05-01T10:32:17.978Z</time></trkpt><trkpt lat="39.8742333" lon="16.1693283"><ele>798.5</ele><time>2026-05-01T10:32:18.978Z</time></trkpt><trkpt lat="39.8744633" lon="16.1690033"><ele>801.0</ele><time>2026-05-01T10:32:19.978Z</time></trkpt><trkpt lat="39.874705" lon="16.1686717"><ele>801.0</ele><time>2026-05-01T10:32:20.979Z</time></trkpt><trkpt lat="39.8749617" lon="16.16834"><ele>801.0</ele><time>2026-05-01T10:32:21.978Z</time></trkpt><trkpt lat="39.87523" lon="16.1680133"><ele>803.5</ele><time>2026-05-01T10:32:22.978Z</time></trkpt><trkpt lat="39.8755183" lon="16.16769"><ele>806.0</ele><time>2026-05-01T10:32:23.978Z</time></trkpt><trkpt lat="39.8758217" lon="16.1673783"><ele>807.5</ele><time>2026-05-01T10:32:24.978Z</time></trkpt><trkpt lat="39.8761433" lon="16.1670683"><ele>809.0</ele><time>2026-05-01T10:32:25.978Z</time></trkpt><trkpt lat="39.8764583" lon="16.1667733"><ele>809.0</ele><time>2026-05-01T10:32:26.978Z</time></trkpt><trkpt lat="39.8767717" lon="16.1664933"><ele>809.0</ele><time>2026-05-01T10:32:27.979Z</time></trkpt><trkpt lat="39.8770717" lon="16.1662217"><ele>809.0</ele><time>2026-05-01T10:32:28.978Z</time></trkpt><trkpt lat="39.87736" lon="16.165955"><ele>809.0</ele><time>2026-05-01T10:32:29.978Z</time></trkpt><trkpt lat="39.8776467" lon="16.1656883"><ele>812.5</ele><time>2026-05-01T10:32:30.979Z</time></trkpt><trkpt lat="39.87794" lon="16.1654167"><ele>816.0</ele><time>2026-05-01T10:32:31.979Z</time></trkpt><trkpt lat="39.8782367" lon="16.165135"><ele>819.0</ele><time>2026-05-01T10:32:32.978Z</time></trkpt><trkpt lat="39.8785317" lon="16.1648617"><ele>822.0</ele><time>2026-05-01T10:32:33.979Z</time></trkpt><trkpt lat="39.8788033" lon="16.1646067"><ele>822.0</ele><time>2026-05-01T10:32:34.978Z</time></trkpt><trkpt lat="39.8790633" lon="16.1643633"><ele>822.0</ele><time>2026-05-01T10:32:35.979Z</time></trkpt><trkpt lat="39.8793117" lon="16.164135"><ele>824.0</ele><time>2026-05-01T10:32:36.978Z</time></trkpt><trkpt lat="39.8795483" lon="16.1639117"><ele>826.0</ele><time>2026-05-01T10:32:37.978Z</time></trkpt><trkpt lat="39.87978" lon="16.1636967"><ele>826.0</ele><time>2026-05-01T10:32:38.978Z</time></trkpt><trkpt lat="39.8800133" lon="16.163485"><ele>826.0</ele><time>2026-05-01T10:32:39.979Z</time></trkpt><trkpt lat="39.8802433" lon="16.1632717"><ele>826.0</ele><time>2026-05-01T10:32:40.978Z</time></trkpt><trkpt lat="39.8804733" lon="16.163055"><ele>826.0</ele><time>2026-05-01T10:32:41.978Z</time></trkpt><trkpt lat="39.88071" lon="16.1628383"><ele>834.0</ele><time>2026-05-01T10:32:42.979Z</time></trkpt><trkpt lat="39.8809633" lon="16.1626167"><ele>842.0</ele><time>2026-05-01T10:32:43.978Z</time></trkpt><trkpt lat="39.8812133" lon="16.1623833"><ele>838.0</ele><time>2026-05-01T10:32:44.978Z</time></trkpt><trkpt lat="39.8814683" lon="16.1621467"><ele>834.0</ele><time>2026-05-01T10:32:45.978Z</time></trkpt><trkpt lat="39.881715" lon="16.16192"><ele>837.0</ele><time>2026-05-01T10:32:46.978Z</time></trkpt><trkpt lat="39.8819633" lon="16.1616967"><ele>840.0</ele><time>2026-05-01T10:32:47.978Z</time></trkpt><trkpt lat="39.882205" lon="16.16148"><ele>840.0</ele><time>2026-05-01T10:32:48.978Z</time></trkpt><trkpt lat="39.8824383" lon="16.161255"><ele>840.0</ele><time>2026-05-01T10:32:49.978Z</time></trkpt><trkpt lat="39.8826683" lon="16.161035"><ele>842.5</ele><time>2026-05-01T10:32:50.979Z</time></trkpt><trkpt lat="39.8828967" lon="16.1608267"><ele>845.0</ele><time>2026-05-01T10:32:51.979Z</time></trkpt><trkpt lat="39.8831217" lon="16.1606067"><ele>845.0</ele><time>2026-05-01T10:32:52.978Z</time></trkpt><trkpt lat="39.8833417" lon="16.1603783"><ele>845.0</ele><time>2026-05-01T10:32:53.978Z</time></trkpt><trkpt lat="39.8835783" lon="16.16018"><ele>845.0</ele><time>2026-05-01T10:32:54.978Z</time></trkpt><trkpt lat="39.88381" lon="16.159985"><ele>845.0</ele><time>2026-05-01T10:32:55.978Z</time></trkpt><trkpt lat="39.884035" lon="16.15979"><ele>845.0</ele><time>2026-05-01T10:32:56.979Z</time></trkpt><trkpt lat="39.8842533" lon="16.1595833"><ele>845.0</ele><time>2026-05-01T10:32:57.979Z</time></trkpt><trkpt lat="39.8844733" lon="16.1593617"><ele>846.5</ele><time>2026-05-01T10:32:58.979Z</time></trkpt><trkpt lat="39.8846883" lon="16.159125"><ele>848.0</ele><time>2026-05-01T10:32:59.978Z</time></trkpt><trkpt lat="39.8848967" lon="16.1588817"><ele>860.5</ele><time>2026-05-01T10:33:00.978Z</time></trkpt><trkpt lat="39.8851067" lon="16.1586317"><ele>873.0</ele><time>2026-05-01T10:33:01.979Z</time></trkpt><trkpt lat="39.8853167" lon="16.1583667"><ele>864.5</ele><time>2026-05-01T10:33:02.978Z</time></trkpt><trkpt lat="39.88552" lon="16.1580867"><ele>856.0</ele><time>2026-05-01T10:33:03.978Z</time></trkpt><trkpt lat="39.88571" lon="16.1577967"><ele>856.0</ele><time>2026-05-01T10:33:04.978Z</time></trkpt><trkpt lat="39.8858983" lon="16.1574983"><ele>856.0</ele><time>2026-05-01T10:33:05.978Z</time></trkpt><trkpt lat="39.88608" lon="16.1571933"><ele>856.5</ele><time>2026-05-01T10:33:06.979Z</time></trkpt><trkpt lat="39.8862633" lon="16.1568783"><ele>857.0</ele><time>2026-05-01T10:33:07.979Z</time></trkpt><trkpt lat="39.8864517" lon="16.1565617"><ele>856.5</ele><time>2026-05-01T10:33:08.978Z</time></trkpt><trkpt lat="39.886645" lon="16.1562417"><ele>856.0</ele><time>2026-05-01T10:33:09.978Z</time></trkpt><trkpt lat="39.8868417" lon="16.1559183"><ele>865.5</ele><time>2026-05-01T10:33:10.978Z</time></trkpt><trkpt lat="39.8870333" lon="16.1555817"><ele>875.0</ele><time>2026-05-01T10:33:11.979Z</time></trkpt><trkpt lat="39.8872367" lon="16.155235"><ele>875.0</ele><time>2026-05-01T10:33:12.978Z</time></trkpt><trkpt lat="39.8874317" lon="16.1548917"><ele>875.0</ele><time>2026-05-01T10:33:13.978Z</time></trkpt><trkpt lat="39.8876217" lon="16.15455"><ele>875.0</ele><time>2026-05-01T10:33:14.979Z</time></trkpt><trkpt lat="39.887805" lon="16.1542067"><ele>875.0</ele><time>2026-05-01T10:33:15.978Z</time></trkpt><trkpt lat="39.8879783" lon="16.15386"><ele>875.0</ele><time>2026-05-01T10:33:16.978Z</time></trkpt><trkpt lat="39.8881417" lon="16.153505"><ele>875.0</ele><time>2026-05-01T10:33:17.978Z</time></trkpt><trkpt lat="39.888295" lon="16.1531367"><ele>890.5</ele><time>2026-05-01T10:33:18.978Z</time></trkpt><trkpt lat="39.8884417" lon="16.1527633"><ele>906.0</ele><time>2026-05-01T10:33:19.978Z</time></trkpt><trkpt lat="39.8885767" lon="16.15239"><ele>908.0</ele><time>2026-05-01T10:33:20.979Z</time></trkpt><trkpt lat="39.8887167" lon="16.1520217"><ele>910.0</ele><time>2026-05-01T10:33:21.978Z</time></trkpt><trkpt lat="39.888855" lon="16.1516333"><ele>904.0</ele><time>2026-05-01T10:33:22.979Z</time></trkpt><trkpt lat="39.8890083" lon="16.1512533"><ele>898.0</ele><time>2026-05-01T10:33:23.978Z</time></trkpt><trkpt lat="39.8891467" lon="16.150885"><ele>899.0</ele><time>2026-05-01T10:33:24.978Z</time></trkpt><trkpt lat="39.8892833" lon="16.1505133"><ele>900.0</ele><time>2026-05-01T10:33:25.979Z</time></trkpt><trkpt lat="39.8893567" lon="16.150105"><ele>899.0</ele><time>2026-05-01T10:33:26.978Z</time></trkpt><trkpt lat="39.889435" lon="16.1497183"><ele>898.0</ele><time>2026-05-01T10:33:27.978Z</time></trkpt><trkpt lat="39.8895133" lon="16.1493367"><ele>898.5</ele><time>2026-05-01T10:33:28.978Z</time></trkpt><trkpt lat="39.8895783" lon="16.148965"><ele>899.0</ele><time>2026-05-01T10:33:29.978Z</time></trkpt><trkpt lat="39.8896383" lon="16.1485883"><ele>899.0</ele><time>2026-05-01T10:33:30.978Z</time></trkpt><trkpt lat="39.889695" lon="16.14821"><ele>899.0</ele><time>2026-05-01T10:33:31.979Z</time></trkpt><trkpt lat="39.8897483" lon="16.147825"><ele>895.5</ele><time>2026-05-01T10:33:32.978Z</time></trkpt><trkpt lat="39.8897983" lon="16.14743"><ele>892.0</ele><time>2026-05-01T10:33:33.978Z</time></trkpt><trkpt lat="39.88984" lon="16.1470367"><ele>891.0</ele><time>2026-05-01T10:33:34.978Z</time></trkpt><trkpt lat="39.8898733" lon="16.1466367"><ele>890.0</ele><time>2026-05-01T10:33:35.979Z</time></trkpt><trkpt lat="39.8898967" lon="16.14624"><ele>895.5</ele><time>2026-05-01T10:33:36.979Z</time></trkpt><trkpt lat="39.8899033" lon="16.1458417"><ele>901.0</ele><time>2026-05-01T10:33:37.978Z</time></trkpt><trkpt lat="39.8898967" lon="16.145445"><ele>898.5</ele><time>2026-05-01T10:33:38.978Z</time></trkpt><trkpt lat="39.88988" lon="16.145045"><ele>896.0</ele><time>2026-05-01T10:33:39.978Z</time></trkpt><trkpt lat="39.8898583" lon="16.1446467"><ele>896.0</ele><time>2026-05-01T10:33:40.978Z</time></trkpt><trkpt lat="39.8898267" lon="16.1442467"><ele>896.0</ele><time>2026-05-01T10:33:41.978Z</time></trkpt><trkpt lat="39.8897933" lon="16.1438517"><ele>895.5</ele><time>2026-05-01T10:33:42.978Z</time></trkpt><trkpt lat="39.8897467" lon="16.14346"><ele>895.0</ele><time>2026-05-01T10:33:43.979Z</time></trkpt><trkpt lat="39.8896917" lon="16.1430767"><ele>898.5</ele><time>2026-05-01T10:33:44.978Z</time></trkpt><trkpt lat="39.8896233" lon="16.1426983"><ele>902.0</ele><time>2026-05-01T10:33:45.978Z</time></trkpt><trkpt lat="39.8895533" lon="16.1423233"><ele>902.0</ele><time>2026-05-01T10:33:46.978Z</time></trkpt><trkpt lat="39.8894717" lon="16.14195"><ele>902.0</ele><time>2026-05-01T10:33:47.978Z</time></trkpt><trkpt lat="39.889385" lon="16.1415767"><ele>895.5</ele><time>2026-05-01T10:33:48.978Z</time></trkpt><trkpt lat="39.8892917" lon="16.1412133"><ele>889.0</ele><time>2026-05-01T10:33:49.978Z</time></trkpt><trkpt lat="39.8891967" lon="16.1408483"><ele>889.5</ele><time>2026-05-01T10:33:50.978Z</time></trkpt><trkpt lat="39.8890833" lon="16.1404867"><ele>890.0</ele><time>2026-05-01T10:33:51.978Z</time></trkpt><trkpt lat="39.8889467" lon="16.14013"><ele>903.5</ele><time>2026-05-01T10:33:52.979Z</time></trkpt><trkpt lat="39.8888283" lon="16.139775"><ele>917.0</ele><time>2026-05-01T10:33:53.978Z</time></trkpt><trkpt lat="39.8886983" lon="16.1394267"><ele>917.0</ele><time>2026-05-01T10:33:54.978Z</time></trkpt><trkpt lat="39.8885533" lon="16.1390733"><ele>917.0</ele><time>2026-05-01T10:33:55.979Z</time></trkpt><trkpt lat="39.88842" lon="16.138715"><ele>935.0</ele><time>2026-05-01T10:33:56.978Z</time></trkpt><trkpt lat="39.888285" lon="16.1383617"><ele>953.0</ele><time>2026-05-01T10:33:57.978Z</time></trkpt><trkpt lat="39.8881533" lon="16.13801"><ele>966.0</ele><time>2026-05-01T10:33:58.978Z</time></trkpt><trkpt lat="39.8880183" lon="16.1376667"><ele>979.0</ele><time>2026-05-01T10:33:59.978Z</time></trkpt><trkpt lat="39.8878783" lon="16.1373233"><ele>988.0</ele><time>2026-05-01T10:34:00.978Z</time></trkpt><trkpt lat="39.8877367" lon="16.1369717"><ele>997.0</ele><time>2026-05-01T10:34:01.978Z</time></trkpt><trkpt lat="39.8875917" lon="16.1366067"><ele>1002.5</ele><time>2026-05-01T10:34:02.978Z</time></trkpt><trkpt lat="39.88745" lon="16.1362383"><ele>1008.0</ele><time>2026-05-01T10:34:03.978Z</time></trkpt><trkpt lat="39.88731" lon="16.13588"><ele>1011.5</ele><time>2026-05-01T10:34:04.978Z</time></trkpt><trkpt lat="39.88717" lon="16.1355233"><ele>1015.0</ele><time>2026-05-01T10:34:05.979Z</time></trkpt><trkpt lat="39.88703" lon="16.135165"><ele>1014.0</ele><time>2026-05-01T10:34:06.979Z</time></trkpt><trkpt lat="39.8869067" lon="16.134785"><ele>1013.0</ele><time>2026-05-01T10:34:07.978Z</time></trkpt><trkpt lat="39.886765" lon="16.13443"><ele>935.0</ele><time>2026-05-01T10:34:08.979Z</time></trkpt><trkpt lat="39.8840817" lon="16.1335467"><ele>935.0</ele><time>2026-05-01T10:34:15.981Z</time></trkpt><trkpt lat="39.88381" lon="16.1333217"><ele>935.0</ele><time>2026-05-01T10:34:16.981Z</time></trkpt><trkpt lat="39.88356" lon="16.1330783"><ele>936.0</ele><time>2026-05-01T10:34:17.982Z</time></trkpt><trkpt lat="39.883295" lon="16.13283"><ele>937.0</ele><time>2026-05-01T10:34:18.981Z</time></trkpt><trkpt lat="39.88304" lon="16.1325917"><ele>938.5</ele><time>2026-05-01T10:34:19.981Z</time></trkpt><trkpt lat="39.882785" lon="16.13236"><ele>940.0</ele><time>2026-05-01T10:34:20.981Z</time></trkpt><trkpt lat="39.8825333" lon="16.1321267"><ele>940.0</ele><time>2026-05-01T10:34:21.981Z</time></trkpt><trkpt lat="39.882285" lon="16.1318783"><ele>940.0</ele><time>2026-05-01T10:34:22.981Z</time></trkpt><trkpt lat="39.8820483" lon="16.1316133"><ele>943.0</ele><time>2026-05-01T10:34:23.982Z</time></trkpt><trkpt lat="39.8818183" lon="16.1313417"><ele>946.0</ele><time>2026-05-01T10:34:24.981Z</time></trkpt><trkpt lat="39.8815883" lon="16.1310617"><ele>946.0</ele><time>2026-05-01T10:34:25.981Z</time></trkpt><trkpt lat="39.8813617" lon="16.13078"><ele>946.0</ele><time>2026-05-01T10:34:26.981Z</time></trkpt><trkpt lat="39.881125" lon="16.130495"><ele>937.5</ele><time>2026-05-01T10:34:27.981Z</time></trkpt><trkpt lat="39.8808833" lon="16.1302217"><ele>929.0</ele><time>2026-05-01T10:34:28.981Z</time></trkpt><trkpt lat="39.8806483" lon="16.12994"><ele>929.0</ele><time>2026-05-01T10:34:29.981Z</time></trkpt><trkpt lat="39.88041" lon="16.1296867"><ele>929.0</ele><time>2026-05-01T10:34:30.981Z</time></trkpt><trkpt lat="39.8801567" lon="16.129445"><ele>905.5</ele><time>2026-05-01T10:34:31.982Z</time></trkpt><trkpt lat="39.8799017" lon="16.129225"><ele>882.0</ele><time>2026-05-01T10:34:32.981Z</time></trkpt><trkpt lat="39.87964" lon="16.12901"><ele>878.0</ele><time>2026-05-01T10:34:33.982Z</time></trkpt><trkpt lat="39.879375" lon="16.1288033"><ele>874.0</ele><time>2026-05-01T10:34:34.981Z</time></trkpt><trkpt lat="39.8791217" lon="16.1286017"><ele>874.0</ele><time>2026-05-01T10:34:35.981Z</time></trkpt><trkpt lat="39.878865" lon="16.128395"><ele>874.0</ele><time>2026-05-01T10:34:36.981Z</time></trkpt><trkpt lat="39.8786083" lon="16.1281833"><ele>891.0</ele><time>2026-05-01T10:34:37.981Z</time></trkpt><trkpt lat="39.8783467" lon="16.12797"><ele>908.0</ele><time>2026-05-01T10:34:38.982Z</time></trkpt><trkpt lat="39.8780883" lon="16.127755"><ele>908.0</ele><time>2026-05-01T10:34:39.981Z</time></trkpt><trkpt lat="39.8778317" lon="16.1275417"><ele>908.0</ele><time>2026-05-01T10:34:40.981Z</time></trkpt><trkpt lat="39.87758" lon="16.1273333"><ele>933.0</ele><time>2026-05-01T10:34:41.981Z</time></trkpt><trkpt lat="39.8773283" lon="16.1271283"><ele>958.0</ele><time>2026-05-01T10:34:42.981Z</time></trkpt><trkpt lat="39.8770833" lon="16.1269333"><ele>958.0</ele><time>2026-05-01T10:34:43.981Z</time></trkpt><trkpt lat="39.876835" lon="16.12673"><ele>958.0</ele><time>2026-05-01T10:34:44.982Z</time></trkpt><trkpt lat="39.8765867" lon="16.126525"><ele>983.0</ele><time>2026-05-01T10:34:45.982Z</time></trkpt><trkpt lat="39.87634" lon="16.1263167"><ele>1008.0</ele><time>2026-05-01T10:34:46.982Z</time></trkpt><trkpt lat="39.8760867" lon="16.12611"><ele>1001.0</ele><time>2026-05-01T10:34:47.982Z</time></trkpt><trkpt lat="39.8758333" lon="16.12592"><ele>994.0</ele><time>2026-05-01T10:34:48.982Z</time></trkpt><trkpt lat="39.8755783" lon="16.1257333"><ele>993.5</ele><time>2026-05-01T10:34:49.982Z</time></trkpt><trkpt lat="39.8753183" lon="16.1255583"><ele>993.0</ele><time>2026-05-01T10:34:50.982Z</time></trkpt><trkpt lat="39.8750617" lon="16.12538"><ele>993.0</ele><time>2026-05-01T10:34:51.981Z</time></trkpt><trkpt lat="39.8747967" lon="16.1251817"><ele>993.0</ele><time>2026-05-01T10:34:52.982Z</time></trkpt><trkpt lat="39.874505" lon="16.124995"><ele>1001.0</ele><time>2026-05-01T10:34:53.982Z</time></trkpt><trkpt lat="39.8742417" lon="16.124815"><ele>1009.0</ele><time>2026-05-01T10:34:54.982Z</time></trkpt><trkpt lat="39.8739783" lon="16.1246333"><ele>1009.0</ele><time>2026-05-01T10:34:55.981Z</time></trkpt><trkpt lat="39.8737183" lon="16.124455"><ele>1009.0</ele><time>2026-05-01T10:34:56.981Z</time></trkpt><trkpt lat="39.87013" lon="16.1196067"><ele>981.0</ele><time>2026-05-01T10:35:14.983Z</time></trkpt><trkpt lat="39.8699817" lon="16.1193267"><ele>953.0</ele><time>2026-05-01T10:35:15.984Z</time></trkpt><trkpt lat="39.869875" lon="16.119005"><ele>953.0</ele><time>2026-05-01T10:35:16.984Z</time></trkpt><trkpt lat="39.869775" lon="16.11868"><ele>953.0</ele><time>2026-05-01T10:35:17.983Z</time></trkpt><trkpt lat="39.8696767" lon="16.1183467"><ele>964.5</ele><time>2026-05-01T10:35:18.984Z</time></trkpt><trkpt lat="39.8695817" lon="16.11799"><ele>976.0</ele><time>2026-05-01T10:35:19.983Z</time></trkpt><trkpt lat="39.8694917" lon="16.11761"><ele>983.0</ele><time>2026-05-01T10:35:20.983Z</time></trkpt><trkpt lat="39.8693983" lon="16.1172117"><ele>990.0</ele><time>2026-05-01T10:35:21.983Z</time></trkpt><trkpt lat="39.8693133" lon="16.1168017"><ele>985.0</ele><time>2026-05-01T10:35:22.984Z</time></trkpt><trkpt lat="39.8692317" lon="16.1163867"><ele>980.0</ele><time>2026-05-01T10:35:23.983Z</time></trkpt><trkpt lat="39.869145" lon="16.11595"><ele>978.5</ele><time>2026-05-01T10:35:24.983Z</time></trkpt><trkpt lat="39.8690567" lon="16.1155033"><ele>977.0</ele><time>2026-05-01T10:35:25.984Z</time></trkpt><trkpt lat="39.8689633" lon="16.1150617"><ele>971.5</ele><time>2026-05-01T10:35:26.984Z</time></trkpt><trkpt lat="39.8688667" lon="16.11462"><ele>966.0</ele><time>2026-05-01T10:35:27.984Z</time></trkpt><trkpt lat="39.8687733" lon="16.1141633"><ele>970.0</ele><time>2026-05-01T10:35:28.984Z</time></trkpt><trkpt lat="39.868685" lon="16.1136967"><ele>974.0</ele><time>2026-05-01T10:35:29.983Z</time></trkpt><trkpt lat="39.868605" lon="16.113235"><ele>982.0</ele><time>2026-05-01T10:35:30.983Z</time></trkpt><trkpt lat="39.868535" lon="16.1127683"><ele>990.0</ele><time>2026-05-01T10:35:31.983Z</time></trkpt><trkpt lat="39.86847" lon="16.1123"><ele>988.0</ele><time>2026-05-01T10:35:32.983Z</time></trkpt><trkpt lat="39.8684083" lon="16.1118383"><ele>986.0</ele><time>2026-05-01T10:35:33.983Z</time></trkpt><trkpt lat="39.8683517" lon="16.11138"><ele>986.0</ele><time>2026-05-01T10:35:34.983Z</time></trkpt><trkpt lat="39.8683" lon="16.1109383"><ele>986.0</ele><time>2026-05-01T10:35:35.984Z</time></trkpt><trkpt lat="39.868255" lon="16.1105033"><ele>986.0</ele><time>2026-05-01T10:35:36.983Z</time></trkpt><trkpt lat="39.8682067" lon="16.1100667"><ele>986.0</ele><time>2026-05-01T10:35:37.983Z</time></trkpt><trkpt lat="39.8681633" lon="16.109625"><ele>986.0</ele><time>2026-05-01T10:35:38.983Z</time></trkpt><trkpt lat="39.86812" lon="16.1091967"><ele>986.0</ele><time>2026-05-01T10:35:39.983Z</time></trkpt><trkpt lat="39.868075" lon="16.10877"><ele>995.5</ele><time>2026-05-01T10:35:40.983Z</time></trkpt><trkpt lat="39.8680283" lon="16.1083483"><ele>1005.0</ele><time>2026-05-01T10:35:41.984Z</time></trkpt><trkpt lat="39.8679867" lon="16.107925"><ele>1009.5</ele><time>2026-05-01T10:35:42.984Z</time></trkpt><trkpt lat="39.8679417" lon="16.1075033"><ele>1014.0</ele><time>2026-05-01T10:35:43.984Z</time></trkpt><trkpt lat="39.8678983" lon="16.1070867"><ele>1014.0</ele><time>2026-05-01T10:35:44.984Z</time></trkpt><trkpt lat="39.86786" lon="16.10668"><ele>1014.0</ele><time>2026-05-01T10:35:45.983Z</time></trkpt><trkpt lat="39.8678333" lon="16.10627"><ele>1011.5</ele><time>2026-05-01T10:35:46.984Z</time></trkpt><trkpt lat="39.8678117" lon="16.1058567"><ele>1009.0</ele><time>2026-05-01T10:35:47.983Z</time></trkpt><trkpt lat="39.8677983" lon="16.1054433"><ele>1009.0</ele><time>2026-05-01T10:35:48.983Z</time></trkpt><trkpt lat="39.86778" lon="16.1050267"><ele>1009.0</ele><time>2026-05-01T10:35:49.984Z</time></trkpt><trkpt lat="39.86776" lon="16.104615"><ele>1014.0</ele><time>2026-05-01T10:35:50.983Z</time></trkpt><trkpt lat="39.8677417" lon="16.104205"><ele>1019.0</ele><time>2026-05-01T10:35:51.983Z</time></trkpt><trkpt lat="39.8677267" lon="16.103795"><ele>1024.5</ele><time>2026-05-01T10:35:52.984Z</time></trkpt><trkpt lat="39.86771" lon="16.1033817"><ele>1030.0</ele><time>2026-05-01T10:35:53.984Z</time></trkpt><trkpt lat="39.867695" lon="16.102985"><ele>1036.5</ele><time>2026-05-01T10:35:54.983Z</time></trkpt><trkpt lat="39.8676817" lon="16.10258"><ele>1043.0</ele><time>2026-05-01T10:35:55.984Z</time></trkpt><trkpt lat="39.8676667" lon="16.1021767"><ele>1049.0</ele><time>2026-05-01T10:35:56.984Z</time></trkpt><trkpt lat="39.8676517" lon="16.1017767"><ele>1055.0</ele><time>2026-05-01T10:35:57.983Z</time></trkpt><trkpt lat="39.867635" lon="16.101375"><ele>1056.5</ele><time>2026-05-01T10:35:58.983Z</time></trkpt><trkpt lat="39.867625" lon="16.1009767"><ele>1058.0</ele><time>2026-05-01T10:35:59.983Z</time></trkpt><trkpt lat="39.8676033" lon="16.1005717"><ele>1029.0</ele><time>2026-05-01T10:36:00.984Z</time></trkpt><trkpt lat="39.8675817" lon="16.1001717"><ele>1000.0</ele><time>2026-05-01T10:36:01.984Z</time></trkpt><trkpt lat="39.8675567" lon="16.0997667"><ele>997.5</ele><time>2026-05-01T10:36:02.984Z</time></trkpt><trkpt lat="39.867525" lon="16.0993583"><ele>995.0</ele><time>2026-05-01T10:36:03.983Z</time></trkpt><trkpt lat="39.8674767" lon="16.0989583"><ele>1008.5</ele><time>2026-05-01T10:36:04.983Z</time></trkpt><trkpt lat="39.867415" lon="16.0985583"><ele>1022.0</ele><time>2026-05-01T10:36:05.984Z</time></trkpt><trkpt lat="39.8673433" lon="16.098165"><ele>1039.5</ele><time>2026-05-01T10:36:06.985Z</time></trkpt><trkpt lat="39.8672567" lon="16.09777"><ele>1057.0</ele><time>2026-05-01T10:36:07.984Z</time></trkpt><trkpt lat="39.8671583" lon="16.09735"><ele>1057.5</ele><time>2026-05-01T10:36:08.984Z</time></trkpt><trkpt lat="39.867065" lon="16.09694"><ele>1058.0</ele><time>2026-05-01T10:36:09.984Z</time></trkpt><trkpt lat="39.8669733" lon="16.0965283"><ele>1058.0</ele><time>2026-05-01T10:36:10.985Z</time></trkpt><trkpt lat="39.8668883" lon="16.0961217"><ele>1058.0</ele><time>2026-05-01T10:36:11.984Z</time></trkpt><trkpt lat="39.86681" lon="16.0957067"><ele>1061.0</ele><time>2026-05-01T10:36:12.985Z</time></trkpt><trkpt lat="39.8667267" lon="16.09529"><ele>1064.0</ele><time>2026-05-01T10:36:13.984Z</time></trkpt><trkpt lat="39.8666433" lon="16.0948817"><ele>1055.5</ele><time>2026-05-01T10:36:14.984Z</time></trkpt><trkpt lat="39.8665567" lon="16.094475"><ele>1047.0</ele><time>2026-05-01T10:36:15.984Z</time></trkpt><trkpt lat="39.8664717" lon="16.094065"><ele>1039.0</ele><time>2026-05-01T10:36:16.984Z</time></trkpt><trkpt lat="39.8663867" lon="16.093655"><ele>1031.0</ele><time>2026-05-01T10:36:17.985Z</time></trkpt><trkpt lat="39.866275" lon="16.09327"><ele>1028.5</ele><time>2026-05-01T10:36:18.984Z</time></trkpt><trkpt lat="39.86615" lon="16.0929167"><ele>1026.0</ele><time>2026-05-01T10:36:19.984Z</time></trkpt><trkpt lat="39.8657067" lon="16.092625"><ele>1023.0</ele><time>2026-05-01T10:36:20.984Z</time></trkpt><trkpt lat="39.86526" lon="16.0923217"><ele>1021.0</ele><time>2026-05-01T10:36:21.985Z</time></trkpt><trkpt lat="39.8650117" lon="16.0919383"><ele>1019.0</ele><time>2026-05-01T10:36:22.984Z</time></trkpt><trkpt lat="39.8648333" lon="16.0915333"><ele>1018.5</ele><time>2026-05-01T10:36:23.984Z</time></trkpt><trkpt lat="39.8646717" lon="16.0911367"><ele>1018.0</ele><time>2026-05-01T10:36:24.984Z</time></trkpt><trkpt lat="39.864525" lon="16.0907383"><ele>1017.0</ele><time>2026-05-01T10:36:25.984Z</time></trkpt><trkpt lat="39.8644" lon="16.0903267"><ele>1016.0</ele><time>2026-05-01T10:36:26.985Z</time></trkpt><trkpt lat="39.8643" lon="16.0899117"><ele>1013.0</ele><time>2026-05-01T10:36:27.985Z</time></trkpt><trkpt lat="39.8642133" lon="16.0894917"><ele>1010.0</ele><time>2026-05-01T10:36:28.985Z</time></trkpt><trkpt lat="39.8641517" lon="16.0890783"><ele>1009.0</ele><time>2026-05-01T10:36:29.985Z</time></trkpt><trkpt lat="39.8641083" lon="16.0886633"><ele>1008.0</ele><time>2026-05-01T10:36:30.984Z</time></trkpt><trkpt lat="39.86407" lon="16.08826"><ele>1007.5</ele><time>2026-05-01T10:36:31.985Z</time></trkpt><trkpt lat="39.8640467" lon="16.0878567"><ele>1007.0</ele><time>2026-05-01T10:36:32.984Z</time></trkpt><trkpt lat="39.8640383" lon="16.0874583"><ele>1006.0</ele><time>2026-05-01T10:36:33.985Z</time></trkpt><trkpt lat="39.8640467" lon="16.0870567"><ele>1005.0</ele><time>2026-05-01T10:36:34.984Z</time></trkpt><trkpt lat="39.8640617" lon="16.0866567"><ele>1004.5</ele><time>2026-05-01T10:36:35.984Z</time></trkpt><trkpt lat="39.86409" lon="16.0862617"><ele>1004.0</ele><time>2026-05-01T10:36:36.985Z</time></trkpt><trkpt lat="39.86413" lon="16.0858617"><ele>1004.5</ele><time>2026-05-01T10:36:37.984Z</time></trkpt><trkpt lat="39.8641883" lon="16.0854517"><ele>1005.0</ele><time>2026-05-01T10:36:38.985Z</time></trkpt><trkpt lat="39.8642633" lon="16.0850533"><ele>1010.0</ele><time>2026-05-01T10:36:39.984Z</time></trkpt><trkpt lat="39.864355" lon="16.0846517"><ele>1015.0</ele><time>2026-05-01T10:36:40.985Z</time></trkpt><trkpt lat="39.8644617" lon="16.084245"><ele>1017.0</ele><time>2026-05-01T10:36:41.984Z</time></trkpt><trkpt lat="39.8645817" lon="16.08385"><ele>1019.0</ele><time>2026-05-01T10:36:42.984Z</time></trkpt><trkpt lat="39.8647117" lon="16.0834667"><ele>1024.5</ele><time>2026-05-01T10:36:43.984Z</time></trkpt><trkpt lat="39.864855" lon="16.0830933"><ele>1030.0</ele><time>2026-05-01T10:36:44.984Z</time></trkpt><trkpt lat="39.865" lon="16.0827233"><ele>1046.0</ele><time>2026-05-01T10:36:45.985Z</time></trkpt><trkpt lat="39.865145" lon="16.0823417"><ele>1062.0</ele><time>2026-05-01T10:36:46.984Z</time></trkpt><trkpt lat="39.865315" lon="16.081955"><ele>1048.0</ele><time>2026-05-01T10:36:47.984Z</time></trkpt><trkpt lat="39.86547" lon="16.0815783"><ele>1034.0</ele><time>2026-05-01T10:36:48.984Z</time></trkpt><trkpt lat="39.8656333" lon="16.0812217"><ele>1034.0</ele><time>2026-05-01T10:36:49.984Z</time></trkpt><trkpt lat="39.86581" lon="16.0808817"><ele>1034.0</ele><time>2026-05-01T10:36:50.985Z</time></trkpt><trkpt lat="39.8659767" lon="16.080545"><ele>1023.5</ele><time>2026-05-01T10:36:51.984Z</time></trkpt><trkpt lat="39.8661517" lon="16.0802117"><ele>1013.0</ele><time>2026-05-01T10:36:52.984Z</time></trkpt><trkpt lat="39.8663017" lon="16.0798783"><ele>1000.5</ele><time>2026-05-01T10:36:53.985Z</time></trkpt><trkpt lat="39.8664367" lon="16.07958"><ele>988.0</ele><time>2026-05-01T10:36:54.984Z</time></trkpt><trkpt lat="39.8666167" lon="16.0791517"><ele>981.0</ele><time>2026-05-01T10:36:55.984Z</time></trkpt><trkpt lat="39.8668033" lon="16.078645"><ele>974.0</ele><time>2026-05-01T10:36:56.985Z</time></trkpt><trkpt lat="39.86698" lon="16.0782733"><ele>980.0</ele><time>2026-05-01T10:36:57.985Z</time></trkpt><trkpt lat="39.867655" lon="16.0784667"><ele>980.0</ele><time>2026-05-01T10:36:58.984Z</time></trkpt><trkpt lat="39.8680783" lon="16.0785117"><ele>980.0</ele><time>2026-05-01T10:36:59.984Z</time></trkpt><trkpt lat="39.8684333" lon="16.0785683"><ele>978.5</ele><time>2026-05-01T10:37:00.984Z</time></trkpt><trkpt lat="39.86866" lon="16.07845"><ele>977.0</ele><time>2026-05-01T10:37:01.984Z</time></trkpt><trkpt lat="39.8688867" lon="16.078255"><ele>977.0</ele><time>2026-05-01T10:37:02.984Z</time></trkpt><trkpt lat="39.869115" lon="16.0780533"><ele>977.0</ele><time>2026-05-01T10:37:03.984Z</time></trkpt><trkpt lat="39.8693383" lon="16.0778333"><ele>978.0</ele><time>2026-05-01T10:37:04.984Z</time></trkpt><trkpt lat="39.86956" lon="16.0776"><ele>979.0</ele><time>2026-05-01T10:37:05.984Z</time></trkpt><trkpt lat="39.8697817" lon="16.0773467"><ele>979.0</ele><time>2026-05-01T10:37:06.984Z</time></trkpt><trkpt lat="39.8700117" lon="16.0770883"><ele>979.0</ele><time>2026-05-01T10:37:07.984Z</time></trkpt><trkpt lat="39.8702233" lon="16.076815"><ele>980.0</ele><time>2026-05-01T10:37:08.985Z</time></trkpt><trkpt lat="39.87043" lon="16.0765333"><ele>981.0</ele><time>2026-05-01T10:37:09.984Z</time></trkpt><trkpt lat="39.87063" lon="16.0762317"><ele>981.0</ele><time>2026-05-01T10:37:10.984Z</time></trkpt><trkpt lat="39.8708317" lon="16.0759233"><ele>981.0</ele><time>2026-05-01T10:37:11.984Z</time></trkpt><trkpt lat="39.8710183" lon="16.07561"><ele>983.0</ele><time>2026-05-01T10:37:12.984Z</time></trkpt><trkpt lat="39.8712017" lon="16.0752967"><ele>985.0</ele><time>2026-05-01T10:37:13.984Z</time></trkpt><trkpt lat="39.871385" lon="16.07498"><ele>984.5</ele><time>2026-05-01T10:37:14.985Z</time></trkpt><trkpt lat="39.8715717" lon="16.0746617"><ele>984.0</ele><time>2026-05-01T10:37:15.984Z</time></trkpt><trkpt lat="39.87176" lon="16.074335"><ele>986.5</ele><time>2026-05-01T10:37:16.984Z</time></trkpt><trkpt lat="39.8719467" lon="16.074"><ele>989.0</ele><time>2026-05-01T10:37:17.984Z</time></trkpt><trkpt lat="39.8721333" lon="16.0736633"><ele>989.0</ele><time>2026-05-01T10:37:18.984Z</time></trkpt><trkpt lat="39.8723217" lon="16.0733317"><ele>989.0</ele><time>2026-05-01T10:37:19.985Z</time></trkpt><trkpt lat="39.87252" lon="16.0729933"><ele>991.5</ele><time>2026-05-01T10:37:20.984Z</time></trkpt><trkpt lat="39.8727233" lon="16.0726583"><ele>994.0</ele><time>2026-05-01T10:37:21.984Z</time></trkpt><trkpt lat="39.8729333" lon="16.0723283"><ele>994.0</ele><time>2026-05-01T10:37:22.984Z</time></trkpt><trkpt lat="39.8731433" lon="16.0720067"><ele>994.0</ele><time>2026-05-01T10:37:23.984Z</time></trkpt><trkpt lat="39.8733533" lon="16.07169"><ele>995.5</ele><time>2026-05-01T10:37:24.985Z</time></trkpt><trkpt lat="39.873565" lon="16.0713833"><ele>997.0</ele><time>2026-05-01T10:37:25.984Z</time></trkpt><trkpt lat="39.8737717" lon="16.071085"><ele>997.0</ele><time>2026-05-01T10:37:26.985Z</time></trkpt><trkpt lat="39.8739767" lon="16.07079"><ele>997.0</ele><time>2026-05-01T10:37:27.985Z</time></trkpt><trkpt lat="39.87418" lon="16.07049"><ele>996.0</ele><time>2026-05-01T10:37:28.984Z</time></trkpt><trkpt lat="39.8743833" lon="16.07019"><ele>995.0</ele><time>2026-05-01T10:37:29.984Z</time></trkpt><trkpt lat="39.874585" lon="16.0698833"><ele>992.5</ele><time>2026-05-01T10:37:30.984Z</time></trkpt><trkpt lat="39.87479" lon="16.0695783"><ele>990.0</ele><time>2026-05-01T10:37:31.985Z</time></trkpt><trkpt lat="39.874995" lon="16.0692683"><ele>989.0</ele><time>2026-05-01T10:37:32.985Z</time></trkpt><trkpt lat="39.8752033" lon="16.06896"><ele>988.0</ele><time>2026-05-01T10:37:33.984Z</time></trkpt><trkpt lat="39.8754167" lon="16.068645"><ele>988.0</ele><time>2026-05-01T10:37:34.984Z</time></trkpt><trkpt lat="39.8756267" lon="16.0683217"><ele>988.0</ele><time>2026-05-01T10:37:35.984Z</time></trkpt><trkpt lat="39.875835" lon="16.0679917"><ele>986.5</ele><time>2026-05-01T10:37:36.985Z</time></trkpt><trkpt lat="39.8760333" lon="16.06765"><ele>985.0</ele><time>2026-05-01T10:37:37.984Z</time></trkpt><trkpt lat="39.87623" lon="16.0672917"><ele>982.5</ele><time>2026-05-01T10:37:38.984Z</time></trkpt><trkpt lat="39.876415" lon="16.0669217"><ele>980.0</ele><time>2026-05-01T10:37:39.984Z</time></trkpt><trkpt lat="39.8765783" lon="16.0665567"><ele>979.0</ele><time>2026-05-01T10:37:40.985Z</time></trkpt><trkpt lat="39.8767283" lon="16.0661833"><ele>978.0</ele><time>2026-05-01T10:37:41.985Z</time></trkpt><trkpt lat="39.8768667" lon="16.065805"><ele>981.0</ele><time>2026-05-01T10:37:42.984Z</time></trkpt><trkpt lat="39.8770067" lon="16.0654233"><ele>984.0</ele><time>2026-05-01T10:37:43.984Z</time></trkpt><trkpt lat="39.8771383" lon="16.0650317"><ele>983.0</ele><time>2026-05-01T10:37:44.985Z</time></trkpt><trkpt lat="39.87725" lon="16.06464"><ele>982.0</ele><time>2026-05-01T10:37:45.984Z</time></trkpt><trkpt lat="39.8773633" lon="16.0642433"><ele>980.5</ele><time>2026-05-01T10:37:46.984Z</time></trkpt><trkpt lat="39.8774617" lon="16.0638367"><ele>979.0</ele><time>2026-05-01T10:37:47.984Z</time></trkpt><trkpt lat="39.8775633" lon="16.06343"><ele>981.0</ele><time>2026-05-01T10:37:48.984Z</time></trkpt><trkpt lat="39.8776733" lon="16.063025"><ele>983.0</ele><time>2026-05-01T10:37:49.984Z</time></trkpt><trkpt lat="39.8778" lon="16.06261"><ele>981.0</ele><time>2026-05-01T10:37:50.985Z</time></trkpt><trkpt lat="39.877925" lon="16.0622"><ele>979.0</ele><time>2026-05-01T10:37:51.984Z</time></trkpt><trkpt lat="39.8780617" lon="16.0617983"><ele>978.0</ele><time>2026-05-01T10:37:52.985Z</time></trkpt><trkpt lat="39.8782133" lon="16.0614083"><ele>977.0</ele><time>2026-05-01T10:37:53.984Z</time></trkpt><trkpt lat="39.878375" lon="16.0610367"><ele>976.0</ele><time>2026-05-01T10:37:54.984Z</time></trkpt><trkpt lat="39.8785367" lon="16.0606933"><ele>975.0</ele><time>2026-05-01T10:37:55.985Z</time></trkpt><trkpt lat="39.8787017" lon="16.0603633"><ele>975.0</ele><time>2026-05-01T10:37:56.984Z</time></trkpt><trkpt lat="39.8788783" lon="16.0600333"><ele>975.0</ele><time>2026-05-01T10:37:57.984Z</time></trkpt><trkpt lat="39.879065" lon="16.0597083"><ele>973.0</ele><time>2026-05-01T10:37:58.985Z</time></trkpt><trkpt lat="39.8792633" lon="16.05939"><ele>971.0</ele><time>2026-05-01T10:37:59.985Z</time></trkpt><trkpt lat="39.8794617" lon="16.05909"><ele>969.0</ele><time>2026-05-01T10:38:00.984Z</time></trkpt><trkpt lat="39.8796733" lon="16.0587883"><ele>967.0</ele><time>2026-05-01T10:38:01.984Z</time></trkpt><trkpt lat="39.8798967" lon="16.0584933"><ele>966.0</ele><time>2026-05-01T10:38:02.984Z</time></trkpt><trkpt lat="39.8801233" lon="16.0582067"><ele>965.0</ele><time>2026-05-01T10:38:03.984Z</time></trkpt><trkpt lat="39.880365" lon="16.0579233"><ele>965.0</ele><time>2026-05-01T10:38:04.984Z</time></trkpt><trkpt lat="39.88061" lon="16.057645"><ele>965.0</ele><time>2026-05-01T10:38:05.984Z</time></trkpt><trkpt lat="39.8808633" lon="16.0573683"><ele>962.0</ele><time>2026-05-01T10:38:06.984Z</time></trkpt><trkpt lat="39.8811117" lon="16.05709"><ele>959.0</ele><time>2026-05-01T10:38:07.984Z</time></trkpt><trkpt lat="39.8813667" lon="16.0568017"><ele>956.5</ele><time>2026-05-01T10:38:08.984Z</time></trkpt><trkpt lat="39.8816267" lon="16.056515"><ele>954.0</ele><time>2026-05-01T10:38:09.984Z</time></trkpt><trkpt lat="39.88188" lon="16.0562267"><ele>953.0</ele><time>2026-05-01T10:38:10.984Z</time></trkpt><trkpt lat="39.8821317" lon="16.0559417"><ele>952.0</ele><time>2026-05-01T10:38:11.985Z</time></trkpt><trkpt lat="39.8823833" lon="16.0556583"><ele>952.5</ele><time>2026-05-01T10:38:12.985Z</time></trkpt><trkpt lat="39.8826333" lon="16.0553783"><ele>953.0</ele><time>2026-05-01T10:38:13.985Z</time></trkpt><trkpt lat="39.8828867" lon="16.055095"><ele>950.0</ele><time>2026-05-01T10:38:14.985Z</time></trkpt><trkpt lat="39.88313" lon="16.0548217"><ele>947.0</ele><time>2026-05-01T10:38:15.984Z</time></trkpt><trkpt lat="39.8833683" lon="16.054555"><ele>946.5</ele><time>2026-05-01T10:38:16.984Z</time></trkpt><trkpt lat="39.8836033" lon="16.05429"><ele>946.0</ele><time>2026-05-01T10:38:17.984Z</time></trkpt><trkpt lat="39.8838333" lon="16.054035"><ele>945.5</ele><time>2026-05-01T10:38:18.984Z</time></trkpt><trkpt lat="39.8840583" lon="16.0537767"><ele>945.0</ele><time>2026-05-01T10:38:19.984Z</time></trkpt><trkpt lat="39.8842867" lon="16.0535183"><ele>946.0</ele><time>2026-05-01T10:38:20.984Z</time></trkpt><trkpt lat="39.8845167" lon="16.05326"><ele>947.0</ele><time>2026-05-01T10:38:21.984Z</time></trkpt><trkpt lat="39.8847483" lon="16.0530033"><ele>947.0</ele><time>2026-05-01T10:38:22.985Z</time></trkpt><trkpt lat="39.8849733" lon="16.0527483"><ele>947.0</ele><time>2026-05-01T10:38:23.984Z</time></trkpt><trkpt lat="39.8852" lon="16.0524967"><ele>952.0</ele><time>2026-05-01T10:38:24.984Z</time></trkpt><trkpt lat="39.8854267" lon="16.052245"><ele>957.0</ele><time>2026-05-01T10:38:25.985Z</time></trkpt><trkpt lat="39.8856517" lon="16.05198"><ele>957.0</ele><time>2026-05-01T10:38:26.984Z</time></trkpt><trkpt lat="39.8858833" lon="16.0517183"><ele>957.0</ele><time>2026-05-01T10:38:27.984Z</time></trkpt><trkpt lat="39.8861167" lon="16.05146"><ele>962.5</ele><time>2026-05-01T10:38:28.984Z</time></trkpt><trkpt lat="39.8863667" lon="16.0511983"><ele>968.0</ele><time>2026-05-01T10:38:29.985Z</time></trkpt><trkpt lat="39.8866017" lon="16.0509283"><ele>972.0</ele><time>2026-05-01T10:38:30.984Z</time></trkpt><trkpt lat="39.886835" lon="16.05066"><ele>976.0</ele><time>2026-05-01T10:38:31.985Z</time></trkpt><trkpt lat="39.887065" lon="16.0503917"><ele>976.0</ele><time>2026-05-01T10:38:32.984Z</time></trkpt><trkpt lat="39.887295" lon="16.0501233"><ele>976.0</ele><time>2026-05-01T10:38:33.985Z</time></trkpt><trkpt lat="39.8895217" lon="16.0405533"><ele>963.5</ele><time>2026-05-01T10:38:59.981Z</time></trkpt><trkpt lat="39.8895017" lon="16.0401417"><ele>951.0</ele><time>2026-05-01T10:39:00.981Z</time></trkpt><trkpt lat="39.8894417" lon="16.0397267"><ele>949.0</ele><time>2026-05-01T10:39:01.981Z</time></trkpt><trkpt lat="39.8893983" lon="16.0393267"><ele>947.0</ele><time>2026-05-01T10:39:02.981Z</time></trkpt><trkpt lat="39.8893717" lon="16.0389217"><ele>951.0</ele><time>2026-05-01T10:39:03.981Z</time></trkpt><trkpt lat="39.88934" lon="16.0385217"><ele>955.0</ele><time>2026-05-01T10:39:04.981Z</time></trkpt><trkpt lat="39.8893133" lon="16.0381167"><ele>962.0</ele><time>2026-05-01T10:39:05.981Z</time></trkpt><trkpt lat="39.8892833" lon="16.0377083"><ele>969.0</ele><time>2026-05-01T10:39:06.982Z</time></trkpt><trkpt lat="39.8892567" lon="16.037305"><ele>969.5</ele><time>2026-05-01T10:39:07.981Z</time></trkpt><trkpt lat="39.8892367" lon="16.0368933"><ele>970.0</ele><time>2026-05-01T10:39:08.981Z</time></trkpt><trkpt lat="39.8892317" lon="16.0364733"><ele>977.5</ele><time>2026-05-01T10:39:09.981Z</time></trkpt><trkpt lat="39.8892117" lon="16.036055"><ele>985.0</ele><time>2026-05-01T10:39:10.982Z</time></trkpt><trkpt lat="39.8891933" lon="16.03564"><ele>985.0</ele><time>2026-05-01T10:39:11.981Z</time></trkpt><trkpt lat="39.8891733" lon="16.0352267"><ele>985.0</ele><time>2026-05-01T10:39:12.982Z</time></trkpt><trkpt lat="39.8888417" lon="16.031455"><ele>961.5</ele><time>2026-05-01T10:39:21.98Z</time></trkpt><trkpt lat="39.8887317" lon="16.0309367"><ele>938.0</ele><time>2026-05-01T10:39:22.98Z</time></trkpt><trkpt lat="39.888675" lon="16.0304383"><ele>936.5</ele><time>2026-05-01T10:39:23.98Z</time></trkpt><trkpt lat="39.8885833" lon="16.02996"><ele>935.0</ele><time>2026-05-01T10:39:24.98Z</time></trkpt><trkpt lat="39.8884767" lon="16.02948"><ele>925.5</ele><time>2026-05-01T10:39:25.981Z</time></trkpt><trkpt lat="39.8883367" lon="16.0289933"><ele>916.0</ele><time>2026-05-01T10:39:26.981Z</time></trkpt><trkpt lat="39.888165" lon="16.028495"><ele>913.5</ele><time>2026-05-01T10:39:27.981Z</time></trkpt><trkpt lat="39.88797" lon="16.0279867"><ele>911.0</ele><time>2026-05-01T10:39:28.981Z</time></trkpt><trkpt lat="39.8877533" lon="16.027485"><ele>909.0</ele><time>2026-05-01T10:39:29.981Z</time></trkpt><trkpt lat="39.887535" lon="16.027015"><ele>907.0</ele><time>2026-05-01T10:39:30.981Z</time></trkpt><trkpt lat="39.8873283" lon="16.0265833"><ele>907.0</ele><time>2026-05-01T10:39:31.98Z</time></trkpt><trkpt lat="39.8871217" lon="16.0261867"><ele>907.0</ele><time>2026-05-01T10:39:32.98Z</time></trkpt><trkpt lat="39.8869317" lon="16.0258067"><ele>910.5</ele><time>2026-05-01T10:39:33.98Z</time></trkpt><trkpt lat="39.8867633" lon="16.025435"><ele>914.0</ele><time>2026-05-01T10:39:34.98Z</time></trkpt><trkpt lat="39.886605" lon="16.0250467"><ele>906.0</ele><time>2026-05-01T10:39:35.98Z</time></trkpt><trkpt lat="39.886455" lon="16.0246417"><ele>898.0</ele><time>2026-05-01T10:39:36.981Z</time></trkpt><trkpt lat="39.8863117" lon="16.024225"><ele>898.5</ele><time>2026-05-01T10:39:37.98Z</time></trkpt><trkpt lat="39.88618" lon="16.0238033"><ele>899.0</ele><time>2026-05-01T10:39:38.981Z</time></trkpt><trkpt lat="39.88606" lon="16.023375"><ele>896.0</ele><time>2026-05-01T10:39:39.98Z</time></trkpt><trkpt lat="39.885945" lon="16.02294"><ele>893.0</ele><time>2026-05-01T10:39:40.98Z</time></trkpt><trkpt lat="39.8858283" lon="16.0225067"><ele>885.0</ele><time>2026-05-01T10:39:41.981Z</time></trkpt><trkpt lat="39.8857033" lon="16.0220817"><ele>877.0</ele><time>2026-05-01T10:39:42.98Z</time></trkpt><trkpt lat="39.8855817" lon="16.0216567"><ele>878.0</ele><time>2026-05-01T10:39:43.981Z</time></trkpt><trkpt lat="39.8854667" lon="16.0212417"><ele>879.0</ele><time>2026-05-01T10:39:44.981Z</time></trkpt><trkpt lat="39.88535" lon="16.02083"><ele>884.5</ele><time>2026-05-01T10:39:45.981Z</time></trkpt><trkpt lat="39.8852433" lon="16.020435"><ele>890.0</ele><time>2026-05-01T10:39:46.98Z</time></trkpt><trkpt lat="39.8851467" lon="16.0200467"><ele>882.0</ele><time>2026-05-01T10:39:47.98Z</time></trkpt><trkpt lat="39.885055" lon="16.019655"><ele>874.0</ele><time>2026-05-01T10:39:48.981Z</time></trkpt><trkpt lat="39.8849717" lon="16.0192567"><ele>877.5</ele><time>2026-05-01T10:39:49.98Z</time></trkpt><trkpt lat="39.8848967" lon="16.01885"><ele>881.0</ele><time>2026-05-01T10:39:50.98Z</time></trkpt><trkpt lat="39.884825" lon="16.0184417"><ele>884.5</ele><time>2026-05-01T10:39:51.981Z</time></trkpt><trkpt lat="39.8847567" lon="16.0180233"><ele>888.0</ele><time>2026-05-01T10:39:52.98Z</time></trkpt><trkpt lat="39.88469" lon="16.0176033"><ele>892.5</ele><time>2026-05-01T10:39:53.98Z</time></trkpt><trkpt lat="39.88462" lon="16.0171883"><ele>897.0</ele><time>2026-05-01T10:39:54.98Z</time></trkpt><trkpt lat="39.8845533" lon="16.0167833"><ele>902.5</ele><time>2026-05-01T10:39:55.98Z</time></trkpt><trkpt lat="39.884485" lon="16.0163733"><ele>908.0</ele><time>2026-05-01T10:39:56.98Z</time></trkpt><trkpt lat="39.8844133" lon="16.0159783"><ele>909.5</ele><time>2026-05-01T10:39:57.98Z</time></trkpt><trkpt lat="39.884345" lon="16.01559"><ele>911.0</ele><time>2026-05-01T10:39:58.98Z</time></trkpt><trkpt lat="39.8842717" lon="16.01521"><ele>887.5</ele><time>2026-05-01T10:39:59.98Z</time></trkpt><trkpt lat="39.884185" lon="16.0148317"><ele>864.0</ele><time>2026-05-01T10:40:00.98Z</time></trkpt><trkpt lat="39.884085" lon="16.01446"><ele>863.0</ele><time>2026-05-01T10:40:01.981Z</time></trkpt><trkpt lat="39.88397" lon="16.0140983"><ele>862.0</ele><time>2026-05-01T10:40:02.981Z</time></trkpt><trkpt lat="39.88384" lon="16.013745"><ele>862.0</ele><time>2026-05-01T10:40:03.98Z</time></trkpt><trkpt lat="39.8836933" lon="16.0133933"><ele>862.0</ele><time>2026-05-01T10:40:04.98Z</time></trkpt><trkpt lat="39.883535" lon="16.0130433"><ele>852.0</ele><time>2026-05-01T10:40:05.98Z</time></trkpt><trkpt lat="39.88336" lon="16.0127017"><ele>842.0</ele><time>2026-05-01T10:40:06.98Z</time></trkpt><trkpt lat="39.88318" lon="16.0123717"><ele>842.0</ele><time>2026-05-01T10:40:07.98Z</time></trkpt><trkpt lat="39.8829883" lon="16.0120533"><ele>842.0</ele><time>2026-05-01T10:40:08.98Z</time></trkpt><trkpt lat="39.8827783" lon="16.0117483"><ele>840.5</ele><time>2026-05-01T10:40:09.98Z</time></trkpt><trkpt lat="39.8825483" lon="16.0114533"><ele>839.0</ele><time>2026-05-01T10:40:10.981Z</time></trkpt><trkpt lat="39.8823083" lon="16.0111667"><ele>839.0</ele><time>2026-05-01T10:40:11.981Z</time></trkpt><trkpt lat="39.882055" lon="16.0108967"><ele>839.0</ele><time>2026-05-01T10:40:12.98Z</time></trkpt><trkpt lat="39.8817983" lon="16.0106367"><ele>836.0</ele><time>2026-05-01T10:40:13.98Z</time></trkpt><trkpt lat="39.8815483" lon="16.0103667"><ele>833.0</ele><time>2026-05-01T10:40:14.98Z</time></trkpt><trkpt lat="39.881295" lon="16.0100967"><ele>831.5</ele><time>2026-05-01T10:40:15.981Z</time></trkpt><trkpt lat="39.8810467" lon="16.0098233"><ele>830.0</ele><time>2026-05-01T10:40:16.981Z</time></trkpt><trkpt lat="39.8808" lon="16.00955"><ele>830.0</ele><time>2026-05-01T10:40:17.981Z</time></trkpt><trkpt lat="39.8805667" lon="16.0092667"><ele>830.0</ele><time>2026-05-01T10:40:18.98Z</time></trkpt><trkpt lat="39.880345" lon="16.00897"><ele>828.0</ele><time>2026-05-01T10:40:19.98Z</time></trkpt><trkpt lat="39.8801267" lon="16.0086583"><ele>826.0</ele><time>2026-05-01T10:40:20.981Z</time></trkpt><trkpt lat="39.879925" lon="16.0083333"><ele>831.0</ele><time>2026-05-01T10:40:21.98Z</time></trkpt><trkpt lat="39.8797367" lon="16.0079933"><ele>836.0</ele><time>2026-05-01T10:40:22.981Z</time></trkpt><trkpt lat="39.879565" lon="16.0076467"><ele>842.0</ele><time>2026-05-01T10:40:23.98Z</time></trkpt><trkpt lat="39.8794067" lon="16.0072967"><ele>848.0</ele><time>2026-05-01T10:40:24.981Z</time></trkpt><trkpt lat="39.8792583" lon="16.0069367"><ele>836.0</ele><time>2026-05-01T10:40:25.981Z</time></trkpt><trkpt lat="39.8791233" lon="16.0065667"><ele>824.0</ele><time>2026-05-01T10:40:26.98Z</time></trkpt><trkpt lat="39.8789967" lon="16.00618"><ele>824.0</ele><time>2026-05-01T10:40:27.98Z</time></trkpt><trkpt lat="39.8788917" lon="16.0057817"><ele>824.0</ele><time>2026-05-01T10:40:28.98Z</time></trkpt><trkpt lat="39.878805" lon="16.0053667"><ele>821.5</ele><time>2026-05-01T10:40:29.98Z</time></trkpt><trkpt lat="39.878725" lon="16.00495"><ele>819.0</ele><time>2026-05-01T10:40:30.981Z</time></trkpt><trkpt lat="39.8786483" lon="16.0045333"><ele>817.0</ele><time>2026-05-01T10:40:31.98Z</time></trkpt><trkpt lat="39.878575" lon="16.0041183"><ele>815.0</ele><time>2026-05-01T10:40:32.98Z</time></trkpt><trkpt lat="39.8784983" lon="16.0037083"><ele>805.5</ele><time>2026-05-01T10:40:33.981Z</time></trkpt><trkpt lat="39.8784267" lon="16.0033017"><ele>796.0</ele><time>2026-05-01T10:40:34.98Z</time></trkpt><trkpt lat="39.878355" lon="16.002895"><ele>796.0</ele><time>2026-05-01T10:40:35.98Z</time></trkpt><trkpt lat="39.8782817" lon="16.002485"><ele>796.0</ele><time>2026-05-01T10:40:36.98Z</time></trkpt><trkpt lat="39.878205" lon="16.0020633"><ele>796.5</ele><time>2026-05-01T10:40:37.98Z</time></trkpt><trkpt lat="39.8781283" lon="16.0016333"><ele>797.0</ele><time>2026-05-01T10:40:38.98Z</time></trkpt><trkpt lat="39.8780483" lon="16.0011983"><ele>796.5</ele><time>2026-05-01T10:40:39.981Z</time></trkpt><trkpt lat="39.8779667" lon="16.0007633"><ele>796.0</ele><time>2026-05-01T10:40:40.98Z</time></trkpt><trkpt lat="39.8778883" lon="16.0003217"><ele>796.0</ele><time>2026-05-01T10:40:41.98Z</time></trkpt><trkpt lat="39.8778133" lon="15.9998767"><ele>796.0</ele><time>2026-05-01T10:40:42.98Z</time></trkpt><trkpt lat="39.8777367" lon="15.99944"><ele>791.0</ele><time>2026-05-01T10:40:43.98Z</time></trkpt><trkpt lat="39.8776617" lon="15.9990067"><ele>786.0</ele><time>2026-05-01T10:40:44.98Z</time></trkpt><trkpt lat="39.8775867" lon="15.998575"><ele>785.5</ele><time>2026-05-01T10:40:45.98Z</time></trkpt><trkpt lat="39.8775083" lon="15.9981417"><ele>785.0</ele><time>2026-05-01T10:40:46.98Z</time></trkpt><trkpt lat="39.877435" lon="15.997705"><ele>783.0</ele><time>2026-05-01T10:40:47.981Z</time></trkpt><trkpt lat="39.8773717" lon="15.9972717"><ele>781.0</ele><time>2026-05-01T10:40:48.981Z</time></trkpt><trkpt lat="39.8773017" lon="15.9968483"><ele>779.5</ele><time>2026-05-01T10:40:49.981Z</time></trkpt><trkpt lat="39.8772383" lon="15.9964233"><ele>778.0</ele><time>2026-05-01T10:40:50.98Z</time></trkpt><trkpt lat="39.8771833" lon="15.9960083"><ele>780.0</ele><time>2026-05-01T10:40:51.981Z</time></trkpt><trkpt lat="39.87714" lon="15.995595"><ele>782.0</ele><time>2026-05-01T10:40:52.981Z</time></trkpt><trkpt lat="39.8771033" lon="15.9951833"><ele>783.0</ele><time>2026-05-01T10:40:53.98Z</time></trkpt><trkpt lat="39.8770883" lon="15.9947667"><ele>784.0</ele><time>2026-05-01T10:40:54.98Z</time></trkpt><trkpt lat="39.8770967" lon="15.9943517"><ele>784.0</ele><time>2026-05-01T10:40:55.98Z</time></trkpt><trkpt lat="39.8771233" lon="15.9939333"><ele>784.0</ele><time>2026-05-01T10:40:56.981Z</time></trkpt><trkpt lat="39.8771667" lon="15.993525"><ele>782.5</ele><time>2026-05-01T10:40:57.98Z</time></trkpt><trkpt lat="39.8772283" lon="15.9931333"><ele>781.0</ele><time>2026-05-01T10:40:58.981Z</time></trkpt><trkpt lat="39.8773067" lon="15.9927467"><ele>778.5</ele><time>2026-05-01T10:40:59.98Z</time></trkpt><trkpt lat="39.8774033" lon="15.9923733"><ele>776.0</ele><time>2026-05-01T10:41:00.98Z</time></trkpt><trkpt lat="39.877515" lon="15.9920133"><ele>776.0</ele><time>2026-05-01T10:41:01.98Z</time></trkpt><trkpt lat="39.8776467" lon="15.9916667"><ele>776.0</ele><time>2026-05-01T10:41:02.98Z</time></trkpt><trkpt lat="39.8777867" lon="15.991335"><ele>776.0</ele><time>2026-05-01T10:41:03.98Z</time></trkpt><trkpt lat="39.87794" lon="15.9910083"><ele>776.0</ele><time>2026-05-01T10:41:04.981Z</time></trkpt><trkpt lat="39.87811" lon="15.9906833"><ele>778.5</ele><time>2026-05-01T10:41:05.981Z</time></trkpt><trkpt lat="39.8782883" lon="15.9903633"><ele>781.0</ele><time>2026-05-01T10:41:06.981Z</time></trkpt><trkpt lat="39.8784717" lon="15.9900483"><ele>783.0</ele><time>2026-05-01T10:41:07.98Z</time></trkpt><trkpt lat="39.8786583" lon="15.9897317"><ele>785.0</ele><time>2026-05-01T10:41:08.981Z</time></trkpt><trkpt lat="39.8788383" lon="15.9894133"><ele>777.5</ele><time>2026-05-01T10:41:09.98Z</time></trkpt><trkpt lat="39.879025" lon="15.9890933"><ele>770.0</ele><time>2026-05-01T10:41:10.98Z</time></trkpt><trkpt lat="39.8792117" lon="15.988775"><ele>770.0</ele><time>2026-05-01T10:41:11.98Z</time></trkpt><trkpt lat="39.87939" lon="15.9884617"><ele>770.0</ele><time>2026-05-01T10:41:12.98Z</time></trkpt><trkpt lat="39.8795767" lon="15.988135"><ele>758.5</ele><time>2026-05-01T10:41:13.98Z</time></trkpt><trkpt lat="39.8797717" lon="15.9877933"><ele>747.0</ele><time>2026-05-01T10:41:14.98Z</time></trkpt><trkpt lat="39.8799717" lon="15.9874433"><ele>746.5</ele><time>2026-05-01T10:41:15.98Z</time></trkpt><trkpt lat="39.8801733" lon="15.9871"><ele>746.0</ele><time>2026-05-01T10:41:16.98Z</time></trkpt><trkpt lat="39.8803683" lon="15.9867617"><ele>756.5</ele><time>2026-05-01T10:41:17.981Z</time></trkpt><trkpt lat="39.8805633" lon="15.9864233"><ele>767.0</ele><time>2026-05-01T10:41:18.98Z</time></trkpt><trkpt lat="39.88076" lon="15.9860917"><ele>773.0</ele><time>2026-05-01T10:41:19.981Z</time></trkpt><trkpt lat="39.88096" lon="15.9857617"><ele>779.0</ele><time>2026-05-01T10:41:20.981Z</time></trkpt><trkpt lat="39.8811617" lon="15.9854317"><ele>779.0</ele><time>2026-05-01T10:41:21.981Z</time></trkpt><trkpt lat="39.881365" lon="15.9851"><ele>779.0</ele><time>2026-05-01T10:41:22.98Z</time></trkpt><trkpt lat="39.8996267" lon="15.97609"><ele>719.0</ele><time>2026-05-01T10:42:27.98Z</time></trkpt><trkpt lat="39.8998083" lon="15.97575"><ele>659.0</ele><time>2026-05-01T10:42:28.98Z</time></trkpt><trkpt lat="39.89997" lon="15.97541"><ele>659.0</ele><time>2026-05-01T10:42:29.98Z</time></trkpt><trkpt lat="39.9001267" lon="15.9750617"><ele>659.0</ele><time>2026-05-01T10:42:30.98Z</time></trkpt><trkpt lat="39.900275" lon="15.9747133"><ele>659.0</ele><time>2026-05-01T10:42:31.98Z</time></trkpt><trkpt lat="39.9004167" lon="15.9743617"><ele>659.0</ele><time>2026-05-01T10:42:32.98Z</time></trkpt><trkpt lat="39.90056" lon="15.9740067"><ele>659.5</ele><time>2026-05-01T10:42:33.98Z</time></trkpt><trkpt lat="39.9006967" lon="15.9736483"><ele>660.0</ele><time>2026-05-01T10:42:34.981Z</time></trkpt><trkpt lat="39.9008367" lon="15.9732933"><ele>659.5</ele><time>2026-05-01T10:42:35.981Z</time></trkpt><trkpt lat="39.9009767" lon="15.9729333"><ele>659.0</ele><time>2026-05-01T10:42:36.98Z</time></trkpt><trkpt lat="39.9011117" lon="15.9725733"><ele>667.0</ele><time>2026-05-01T10:42:37.98Z</time></trkpt><trkpt lat="39.9012483" lon="15.9722067"><ele>675.0</ele><time>2026-05-01T10:42:38.981Z</time></trkpt><trkpt lat="39.9013917" lon="15.9718267"><ele>683.5</ele><time>2026-05-01T10:42:39.981Z</time></trkpt><trkpt lat="39.9015333" lon="15.9714533"><ele>692.0</ele><time>2026-05-01T10:42:40.98Z</time></trkpt><trkpt lat="39.904635" lon="15.9646567"><ele>662.0</ele><time>2026-05-01T10:42:59.979Z</time></trkpt><trkpt lat="39.9048467" lon="15.964345"><ele>632.0</ele><time>2026-05-01T10:43:00.98Z</time></trkpt><trkpt lat="39.905035" lon="15.9640717"><ele>629.0</ele><time>2026-05-01T10:43:01.979Z</time></trkpt><trkpt lat="39.9054683" lon="15.9635833"><ele>629.0</ele><time>2026-05-01T10:43:03.98Z</time></trkpt><trkpt lat="39.905715" lon="15.9633767"><ele>629.0</ele><time>2026-05-01T10:43:04.98Z</time></trkpt><trkpt lat="39.9059667" lon="15.9631783"><ele>623.0</ele><time>2026-05-01T10:43:05.979Z</time></trkpt><trkpt lat="39.9062167" lon="15.9630083"><ele>617.0</ele><time>2026-05-01T10:43:06.98Z</time></trkpt><trkpt lat="39.9064683" lon="15.96285"><ele>617.0</ele><time>2026-05-01T10:43:07.98Z</time></trkpt><trkpt lat="39.9067417" lon="15.962715"><ele>617.0</ele><time>2026-05-01T10:43:08.979Z</time></trkpt><trkpt lat="39.9070067" lon="15.9625867"><ele>615.0</ele><time>2026-05-01T10:43:09.979Z</time></trkpt><trkpt lat="39.9072867" lon="15.9624833"><ele>613.0</ele><time>2026-05-01T10:43:10.979Z</time></trkpt><trkpt lat="39.9075617" lon="15.9624083"><ele>614.5</ele><time>2026-05-01T10:43:11.979Z</time></trkpt><trkpt lat="39.9078383" lon="15.9623517"><ele>616.0</ele><time>2026-05-01T10:43:12.98Z</time></trkpt><trkpt lat="39.90812" lon="15.9623083"><ele>612.0</ele><time>2026-05-01T10:43:13.979Z</time></trkpt><trkpt lat="39.90841" lon="15.962285"><ele>608.0</ele><time>2026-05-01T10:43:14.979Z</time></trkpt><trkpt lat="39.9087217" lon="15.9622733"><ele>608.0</ele><time>2026-05-01T10:43:15.98Z</time></trkpt><trkpt lat="39.9090533" lon="15.9622867"><ele>608.0</ele><time>2026-05-01T10:43:16.98Z</time></trkpt><trkpt lat="39.9093917" lon="15.9623383"><ele>603.5</ele><time>2026-05-01T10:43:17.98Z</time></trkpt><trkpt lat="39.909705" lon="15.9624133"><ele>599.0</ele><time>2026-05-01T10:43:18.98Z</time></trkpt><trkpt lat="39.910015" lon="15.9625017"><ele>603.5</ele><time>2026-05-01T10:43:19.979Z</time></trkpt><trkpt lat="39.9103283" lon="15.9626067"><ele>608.0</ele><time>2026-05-01T10:43:20.98Z</time></trkpt><trkpt lat="39.9106267" lon="15.96273"><ele>601.5</ele><time>2026-05-01T10:43:21.979Z</time></trkpt><trkpt lat="39.9109233" lon="15.9628733"><ele>595.0</ele><time>2026-05-01T10:43:22.979Z</time></trkpt><trkpt lat="39.9112117" lon="15.9630333"><ele>595.0</ele><time>2026-05-01T10:43:23.979Z</time></trkpt><trkpt lat="39.9114917" lon="15.9632033"><ele>595.0</ele><time>2026-05-01T10:43:24.979Z</time></trkpt><trkpt lat="39.9117683" lon="15.9633783"><ele>594.5</ele><time>2026-05-01T10:43:25.98Z</time></trkpt><trkpt lat="39.9120433" lon="15.963555"><ele>594.0</ele><time>2026-05-01T10:43:26.98Z</time></trkpt><trkpt lat="39.9123233" lon="15.9637367"><ele>590.5</ele><time>2026-05-01T10:43:27.979Z</time></trkpt><trkpt lat="39.9126033" lon="15.9639117"><ele>587.0</ele><time>2026-05-01T10:43:28.98Z</time></trkpt><trkpt lat="39.9128817" lon="15.9640967"><ele>586.0</ele><time>2026-05-01T10:43:29.979Z</time></trkpt><trkpt lat="39.9131517" lon="15.9642717"><ele>585.0</ele><time>2026-05-01T10:43:30.979Z</time></trkpt><trkpt lat="39.9134233" lon="15.9644383"><ele>580.5</ele><time>2026-05-01T10:43:31.98Z</time></trkpt><trkpt lat="39.913705" lon="15.964605"><ele>576.0</ele><time>2026-05-01T10:43:32.98Z</time></trkpt><trkpt lat="39.91397" lon="15.9647733"><ele>576.0</ele><time>2026-05-01T10:43:33.98Z</time></trkpt><trkpt lat="39.9142283" lon="15.9649467"><ele>576.0</ele><time>2026-05-01T10:43:34.98Z</time></trkpt><trkpt lat="39.9145017" lon="15.9651333"><ele>577.0</ele><time>2026-05-01T10:43:35.979Z</time></trkpt><trkpt lat="39.9147833" lon="15.965315"><ele>578.0</ele><time>2026-05-01T10:43:36.979Z</time></trkpt><trkpt lat="39.9150717" lon="15.9654883"><ele>574.0</ele><time>2026-05-01T10:43:37.98Z</time></trkpt><trkpt lat="39.9153633" lon="15.96567"><ele>570.0</ele><time>2026-05-01T10:43:38.979Z</time></trkpt><trkpt lat="39.91565" lon="15.965855"><ele>571.5</ele><time>2026-05-01T10:43:39.98Z</time></trkpt><trkpt lat="39.915935" lon="15.966045"><ele>573.0</ele><time>2026-05-01T10:43:40.98Z</time></trkpt><trkpt lat="39.9162183" lon="15.9662217"><ele>573.0</ele><time>2026-05-01T10:43:41.98Z</time></trkpt><trkpt lat="39.9164983" lon="15.9663933"><ele>573.0</ele><time>2026-05-01T10:43:42.98Z</time></trkpt><trkpt lat="39.9167833" lon="15.9665667"><ele>572.5</ele><time>2026-05-01T10:43:43.979Z</time></trkpt><trkpt lat="39.917075" lon="15.9667333"><ele>572.0</ele><time>2026-05-01T10:43:44.979Z</time></trkpt><trkpt lat="39.9173683" lon="15.9668933"><ele>568.5</ele><time>2026-05-01T10:43:45.98Z</time></trkpt><trkpt lat="39.9176517" lon="15.96705"><ele>565.0</ele><time>2026-05-01T10:43:46.979Z</time></trkpt><trkpt lat="39.917925" lon="15.9672"><ele>565.0</ele><time>2026-05-01T10:43:47.979Z</time></trkpt><trkpt lat="39.9182117" lon="15.967335"><ele>565.0</ele><time>2026-05-01T10:43:48.979Z</time></trkpt><trkpt lat="39.9185017" lon="15.967445"><ele>570.0</ele><time>2026-05-01T10:43:49.98Z</time></trkpt><trkpt lat="39.918795" lon="15.96754"><ele>575.0</ele><time>2026-05-01T10:43:50.98Z</time></trkpt><trkpt lat="39.9190683" lon="15.9676183"><ele>573.0</ele><time>2026-05-01T10:43:51.979Z</time></trkpt><trkpt lat="39.91935" lon="15.9676717"><ele>571.0</ele><time>2026-05-01T10:43:52.979Z</time></trkpt><trkpt lat="39.9196433" lon="15.9677233"><ele>571.0</ele><time>2026-05-01T10:43:53.979Z</time></trkpt><trkpt lat="39.9199283" lon="15.9677517"><ele>571.0</ele><time>2026-05-01T10:43:54.98Z</time></trkpt><trkpt lat="39.92023" lon="15.9677717"><ele>570.0</ele><time>2026-05-01T10:43:55.979Z</time></trkpt><trkpt lat="39.9205317" lon="15.9677867"><ele>569.0</ele><time>2026-05-01T10:43:56.979Z</time></trkpt><trkpt lat="39.9208483" lon="15.9677833"><ele>570.0</ele><time>2026-05-01T10:43:57.98Z</time></trkpt><trkpt lat="39.9211667" lon="15.9677567"><ele>571.0</ele><time>2026-05-01T10:43:58.979Z</time></trkpt><trkpt lat="39.9214967" lon="15.9677183"><ele>571.0</ele><time>2026-05-01T10:43:59.979Z</time></trkpt><trkpt lat="39.9218167" lon="15.9676633"><ele>571.0</ele><time>2026-05-01T10:44:00.979Z</time></trkpt><trkpt lat="39.9221283" lon="15.9675867"><ele>560.5</ele><time>2026-05-01T10:44:01.98Z</time></trkpt><trkpt lat="39.9224433" lon="15.967485"><ele>550.0</ele><time>2026-05-01T10:44:02.979Z</time></trkpt><trkpt lat="39.9227617" lon="15.967375"><ele>550.0</ele><time>2026-05-01T10:44:03.979Z</time></trkpt><trkpt lat="39.92308" lon="15.9672517"><ele>550.0</ele><time>2026-05-01T10:44:04.98Z</time></trkpt><trkpt lat="39.9233967" lon="15.9671267"><ele>555.5</ele><time>2026-05-01T10:44:05.979Z</time></trkpt><trkpt lat="39.92371" lon="15.967"><ele>561.0</ele><time>2026-05-01T10:44:06.979Z</time></trkpt><trkpt lat="39.92402" lon="15.9668717"><ele>564.5</ele><time>2026-05-01T10:44:07.979Z</time></trkpt><trkpt lat="39.92433" lon="15.966755"><ele>568.0</ele><time>2026-05-01T10:44:08.979Z</time></trkpt><trkpt lat="39.924635" lon="15.966635"><ele>567.0</ele><time>2026-05-01T10:44:09.979Z</time></trkpt><trkpt lat="39.9249283" lon="15.9665167"><ele>566.0</ele><time>2026-05-01T10:44:10.98Z</time></trkpt><trkpt lat="39.9252217" lon="15.9664017"><ele>566.0</ele><time>2026-05-01T10:44:11.98Z</time></trkpt><trkpt lat="39.92553" lon="15.96628"><ele>566.0</ele><time>2026-05-01T10:44:12.98Z</time></trkpt><trkpt lat="39.9258317" lon="15.9661733"><ele>569.0</ele><time>2026-05-01T10:44:13.979Z</time></trkpt><trkpt lat="39.9261317" lon="15.96607"><ele>572.0</ele><time>2026-05-01T10:44:14.98Z</time></trkpt><trkpt lat="39.9264283" lon="15.9659867"><ele>508.0</ele><time>2026-05-01T10:44:15.979Z</time></trkpt><trkpt lat="39.9307817" lon="15.96391"><ele>509.0</ele><time>2026-05-01T10:44:30.979Z</time></trkpt><trkpt lat="39.9310533" lon="15.9637317"><ele>510.0</ele><time>2026-05-01T10:44:31.979Z</time></trkpt><trkpt lat="39.931315" lon="15.96354"><ele>505.5</ele><time>2026-05-01T10:44:32.979Z</time></trkpt><trkpt lat="39.9315883" lon="15.9633233"><ele>501.0</ele><time>2026-05-01T10:44:33.979Z</time></trkpt><trkpt lat="39.9318683" lon="15.9630867"><ele>501.0</ele><time>2026-05-01T10:44:34.98Z</time></trkpt><trkpt lat="39.9321617" lon="15.962845"><ele>501.0</ele><time>2026-05-01T10:44:35.979Z</time></trkpt><trkpt lat="39.932455" lon="15.9625867"><ele>501.0</ele><time>2026-05-01T10:44:36.98Z</time></trkpt><trkpt lat="39.93275" lon="15.9623383"><ele>501.0</ele><time>2026-05-01T10:44:37.979Z</time></trkpt><trkpt lat="39.933035" lon="15.9620967"><ele>501.0</ele><time>2026-05-01T10:44:38.979Z</time></trkpt><trkpt lat="39.9333133" lon="15.9618683"><ele>501.0</ele><time>2026-05-01T10:44:39.979Z</time></trkpt><trkpt lat="39.93358" lon="15.9616533"><ele>494.0</ele><time>2026-05-01T10:44:40.979Z</time></trkpt><trkpt lat="39.93385" lon="15.961445"><ele>487.0</ele><time>2026-05-01T10:44:41.98Z</time></trkpt><trkpt lat="39.9341283" lon="15.9612533"><ele>471.5</ele><time>2026-05-01T10:44:42.98Z</time></trkpt><trkpt lat="39.9344117" lon="15.9610767"><ele>456.0</ele><time>2026-05-01T10:44:43.979Z</time></trkpt><trkpt lat="39.93471" lon="15.9609233"><ele>456.0</ele><time>2026-05-01T10:44:44.979Z</time></trkpt><trkpt lat="39.9350117" lon="15.9607967"><ele>456.0</ele><time>2026-05-01T10:44:45.979Z</time></trkpt><trkpt lat="39.9353133" lon="15.9606867"><ele>441.5</ele><time>2026-05-01T10:44:46.979Z</time></trkpt><trkpt lat="39.9356217" lon="15.9605783"><ele>427.0</ele><time>2026-05-01T10:44:47.98Z</time></trkpt><trkpt lat="39.9359217" lon="15.960485"><ele>411.5</ele><time>2026-05-01T10:44:48.979Z</time></trkpt><trkpt lat="39.9362283" lon="15.9604017"><ele>396.0</ele><time>2026-05-01T10:44:49.98Z</time></trkpt><trkpt lat="39.9365317" lon="15.9603117"><ele>379.5</ele><time>2026-05-01T10:44:50.979Z</time></trkpt><trkpt lat="39.9368333" lon="15.9602233"><ele>363.0</ele><time>2026-05-01T10:44:51.979Z</time></trkpt><trkpt lat="39.9371283" lon="15.960135"><ele>363.0</ele><time>2026-05-01T10:44:52.979Z</time></trkpt><trkpt lat="39.9374383" lon="15.9600517"><ele>363.0</ele><time>2026-05-01T10:44:53.98Z</time></trkpt><trkpt lat="39.9377417" lon="15.959965"><ele>354.0</ele><time>2026-05-01T10:44:54.98Z</time></trkpt><trkpt lat="39.9380383" lon="15.9598883"><ele>345.0</ele><time>2026-05-01T10:44:55.979Z</time></trkpt><trkpt lat="39.9383333" lon="15.9598067"><ele>331.0</ele><time>2026-05-01T10:44:56.979Z</time></trkpt><trkpt lat="39.9386367" lon="15.9597167"><ele>317.0</ele><time>2026-05-01T10:44:57.979Z</time></trkpt><trkpt lat="39.9389467" lon="15.9596283"><ele>321.0</ele><time>2026-05-01T10:44:58.979Z</time></trkpt><trkpt lat="39.9392633" lon="15.9595383"><ele>325.0</ele><time>2026-05-01T10:44:59.979Z</time></trkpt><trkpt lat="39.9395867" lon="15.9594433"><ele>325.0</ele><time>2026-05-01T10:45:00.979Z</time></trkpt><trkpt lat="39.9399217" lon="15.9593567"><ele>325.0</ele><time>2026-05-01T10:45:01.979Z</time></trkpt><trkpt lat="39.9402483" lon="15.9592683"><ele>355.0</ele><time>2026-05-01T10:45:02.98Z</time></trkpt><trkpt lat="39.94057" lon="15.9592017"><ele>385.0</ele><time>2026-05-01T10:45:03.98Z</time></trkpt><trkpt lat="39.9408733" lon="15.9591667"><ele>408.0</ele><time>2026-05-01T10:45:04.979Z</time></trkpt><trkpt lat="39.9411633" lon="15.959165"><ele>431.0</ele><time>2026-05-01T10:45:05.979Z</time></trkpt><trkpt lat="39.9414467" lon="15.9591867"><ele>436.5</ele><time>2026-05-01T10:45:06.98Z</time></trkpt><trkpt lat="39.9417217" lon="15.95923"><ele>442.0</ele><time>2026-05-01T10:45:07.98Z</time></trkpt><trkpt lat="39.9420067" lon="15.9592767"><ele>442.0</ele><time>2026-05-01T10:45:08.98Z</time></trkpt><trkpt lat="39.9422867" lon="15.9593217"><ele>442.0</ele><time>2026-05-01T10:45:09.98Z</time></trkpt><trkpt lat="39.9425617" lon="15.9593533"><ele>461.5</ele><time>2026-05-01T10:45:10.979Z</time></trkpt><trkpt lat="39.942855" lon="15.95937"><ele>481.0</ele><time>2026-05-01T10:45:11.98Z</time></trkpt><trkpt lat="39.9431433" lon="15.959375"><ele>498.0</ele><time>2026-05-01T10:45:12.98Z</time></trkpt><trkpt lat="39.9434267" lon="15.95936"><ele>515.0</ele><time>2026-05-01T10:45:13.979Z</time></trkpt><trkpt lat="39.943705" lon="15.9593317"><ele>515.0</ele><time>2026-05-01T10:45:14.979Z</time></trkpt><trkpt lat="39.943995" lon="15.959295"><ele>515.0</ele><time>2026-05-01T10:45:15.979Z</time></trkpt><trkpt lat="39.94428" lon="15.95926"><ele>530.5</ele><time>2026-05-01T10:45:16.979Z</time></trkpt><trkpt lat="39.944565" lon="15.95923"><ele>546.0</ele><time>2026-05-01T10:45:17.98Z</time></trkpt><trkpt lat="39.9448483" lon="15.9591983"><ele>551.0</ele><time>2026-05-01T10:45:18.98Z</time></trkpt><trkpt lat="39.94513" lon="15.9591833"><ele>556.0</ele><time>2026-05-01T10:45:19.98Z</time></trkpt><trkpt lat="39.94541" lon="15.9591733"><ele>556.0</ele><time>2026-05-01T10:45:20.98Z</time></trkpt><trkpt lat="39.9456933" lon="15.9591517"><ele>556.0</ele><time>2026-05-01T10:45:21.98Z</time></trkpt><trkpt lat="39.955045" lon="15.9368817"><ele>535.5</ele><time>2026-05-01T10:46:23.982Z</time></trkpt><trkpt lat="39.9553067" lon="15.936635"><ele>515.0</ele><time>2026-05-01T10:46:24.981Z</time></trkpt><trkpt lat="39.9555733" lon="15.936395"><ele>515.0</ele><time>2026-05-01T10:46:25.981Z</time></trkpt><trkpt lat="39.9558467" lon="15.936175"><ele>515.0</ele><time>2026-05-01T10:46:26.981Z</time></trkpt><trkpt lat="39.956135" lon="15.9359583"><ele>483.5</ele><time>2026-05-01T10:46:27.981Z</time></trkpt><trkpt lat="39.95643" lon="15.935755"><ele>452.0</ele><time>2026-05-01T10:46:28.981Z</time></trkpt><trkpt lat="39.9567267" lon="15.9355583"><ele>432.0</ele><time>2026-05-01T10:46:29.982Z</time></trkpt><trkpt lat="39.95703" lon="15.9353667"><ele>412.0</ele><time>2026-05-01T10:46:30.981Z</time></trkpt><trkpt lat="39.9573267" lon="15.9351883"><ele>419.5</ele><time>2026-05-01T10:46:31.981Z</time></trkpt><trkpt lat="39.957625" lon="15.935025"><ele>427.0</ele><time>2026-05-01T10:46:32.981Z</time></trkpt><trkpt lat="39.9579117" lon="15.9348633"><ele>427.0</ele><time>2026-05-01T10:46:33.981Z</time></trkpt><trkpt lat="39.958205" lon="15.9346933"><ele>427.0</ele><time>2026-05-01T10:46:34.981Z</time></trkpt><trkpt lat="39.9584933" lon="15.9345333"><ele>434.5</ele><time>2026-05-01T10:46:35.981Z</time></trkpt><trkpt lat="39.9587767" lon="15.9343683"><ele>442.0</ele><time>2026-05-01T10:46:36.981Z</time></trkpt><trkpt lat="39.9590583" lon="15.9342083"><ele>464.5</ele><time>2026-05-01T10:46:37.981Z</time></trkpt><trkpt lat="39.95934" lon="15.9340417"><ele>487.0</ele><time>2026-05-01T10:46:38.981Z</time></trkpt><trkpt lat="39.9596133" lon="15.9338933"><ele>487.0</ele><time>2026-05-01T10:46:39.981Z</time></trkpt><trkpt lat="39.9598917" lon="15.9337533"><ele>487.0</ele><time>2026-05-01T10:46:40.982Z</time></trkpt><trkpt lat="39.96018" lon="15.9336283"><ele>497.5</ele><time>2026-05-01T10:46:41.981Z</time></trkpt><trkpt lat="39.96047" lon="15.933525"><ele>508.0</ele><time>2026-05-01T10:46:42.982Z</time></trkpt><trkpt lat="39.96076" lon="15.9334317"><ele>519.0</ele><time>2026-05-01T10:46:43.982Z</time></trkpt><trkpt lat="39.9610583" lon="15.9333433"><ele>530.0</ele><time>2026-05-01T10:46:44.982Z</time></trkpt><trkpt lat="39.96136" lon="15.93327"><ele>530.0</ele><time>2026-05-01T10:46:45.981Z</time></trkpt><trkpt lat="39.9616583" lon="15.9332067"><ele>530.0</ele><time>2026-05-01T10:46:46.981Z</time></trkpt><trkpt lat="39.96195" lon="15.9331483"><ele>533.0</ele><time>2026-05-01T10:46:47.981Z</time></trkpt><trkpt lat="39.9622367" lon="15.9330967"><ele>536.0</ele><time>2026-05-01T10:46:48.981Z</time></trkpt><trkpt lat="39.96252" lon="15.93304"><ele>541.0</ele><time>2026-05-01T10:46:49.981Z</time></trkpt><trkpt lat="39.9628033" lon="15.9329817"><ele>546.0</ele><time>2026-05-01T10:46:50.981Z</time></trkpt><trkpt lat="39.9630917" lon="15.9329133"><ele>549.5</ele><time>2026-05-01T10:46:51.981Z</time></trkpt><trkpt lat="39.963385" lon="15.9328517"><ele>553.0</ele><time>2026-05-01T10:46:52.981Z</time></trkpt><trkpt lat="39.963685" lon="15.9327883"><ele>553.0</ele><time>2026-05-01T10:46:53.982Z</time></trkpt><trkpt lat="39.96398" lon="15.9327383"><ele>553.0</ele><time>2026-05-01T10:46:54.982Z</time></trkpt><trkpt lat="39.96428" lon="15.9327033"><ele>554.0</ele><time>2026-05-01T10:46:55.981Z</time></trkpt><trkpt lat="39.9645867" lon="15.9326767"><ele>555.0</ele><time>2026-05-01T10:46:56.982Z</time></trkpt><trkpt lat="39.964875" lon="15.9326733"><ele>555.5</ele><time>2026-05-01T10:46:57.982Z</time></trkpt><trkpt lat="39.96515" lon="15.932675"><ele>556.0</ele><time>2026-05-01T10:46:58.981Z</time></trkpt><trkpt lat="39.96543" lon="15.9326783"><ele>556.0</ele><time>2026-05-01T10:46:59.981Z</time></trkpt><trkpt lat="39.9657167" lon="15.9326733"><ele>556.0</ele><time>2026-05-01T10:47:00.981Z</time></trkpt><trkpt lat="39.9659867" lon="15.9326617"><ele>557.5</ele><time>2026-05-01T10:47:01.982Z</time></trkpt><trkpt lat="39.9662583" lon="15.9326383"><ele>559.0</ele><time>2026-05-01T10:47:02.982Z</time></trkpt><trkpt lat="39.966535" lon="15.93262"><ele>560.0</ele><time>2026-05-01T10:47:03.981Z</time></trkpt><trkpt lat="39.9668183" lon="15.9326017"><ele>561.0</ele><time>2026-05-01T10:47:04.981Z</time></trkpt><trkpt lat="39.9670983" lon="15.9325883"><ele>561.0</ele><time>2026-05-01T10:47:05.981Z</time></trkpt><trkpt lat="39.9673733" lon="15.9325767"><ele>561.0</ele><time>2026-05-01T10:47:06.982Z</time></trkpt><trkpt lat="39.9676483" lon="15.9325767"><ele>561.5</ele><time>2026-05-01T10:47:07.981Z</time></trkpt><trkpt lat="39.9679283" lon="15.93256"><ele>562.0</ele><time>2026-05-01T10:47:08.981Z</time></trkpt><trkpt lat="39.96821" lon="15.9325583"><ele>564.5</ele><time>2026-05-01T10:47:09.981Z</time></trkpt><trkpt lat="39.96849" lon="15.9325867"><ele>567.0</ele><time>2026-05-01T10:47:10.981Z</time></trkpt><trkpt lat="39.9687733" lon="15.9326317"><ele>567.0</ele><time>2026-05-01T10:47:11.981Z</time></trkpt><trkpt lat="39.9690567" lon="15.9327133"><ele>567.0</ele><time>2026-05-01T10:47:12.981Z</time></trkpt><trkpt lat="39.9693367" lon="15.9328183"><ele>571.0</ele><time>2026-05-01T10:47:13.981Z</time></trkpt><trkpt lat="39.969605" lon="15.9329533"><ele>575.0</ele><time>2026-05-01T10:47:14.981Z</time></trkpt><trkpt lat="39.9698583" lon="15.9331167"><ele>575.0</ele><time>2026-05-01T10:47:15.982Z</time></trkpt><trkpt lat="39.9701" lon="15.933305"><ele>575.0</ele><time>2026-05-01T10:47:16.981Z</time></trkpt><trkpt lat="39.9703333" lon="15.93352"><ele>575.0</ele><time>2026-05-01T10:47:17.981Z</time></trkpt><trkpt lat="39.9705533" lon="15.933755"><ele>575.0</ele><time>2026-05-01T10:47:18.981Z</time></trkpt><trkpt lat="39.9707567" lon="15.934005"><ele>581.5</ele><time>2026-05-01T10:47:19.981Z</time></trkpt><trkpt lat="39.9709567" lon="15.9342583"><ele>588.0</ele><time>2026-05-01T10:47:20.982Z</time></trkpt><trkpt lat="39.9711567" lon="15.9345167"><ele>588.0</ele><time>2026-05-01T10:47:21.981Z</time></trkpt><trkpt lat="39.97135" lon="15.934775"><ele>588.0</ele><time>2026-05-01T10:47:22.981Z</time></trkpt><trkpt lat="39.9715417" lon="15.935025"><ele>591.0</ele><time>2026-05-01T10:47:23.981Z</time></trkpt><trkpt lat="39.9717417" lon="15.9352667"><ele>594.0</ele><time>2026-05-01T10:47:24.981Z</time></trkpt><trkpt lat="39.9719467" lon="15.93549"><ele>594.0</ele><time>2026-05-01T10:47:25.981Z</time></trkpt><trkpt lat="39.9721617" lon="15.9356967"><ele>594.0</ele><time>2026-05-01T10:47:26.982Z</time></trkpt><trkpt lat="39.972385" lon="15.9358817"><ele>594.0</ele><time>2026-05-01T10:47:27.982Z</time></trkpt><trkpt lat="39.9726233" lon="15.9360333"><ele>594.0</ele><time>2026-05-01T10:47:28.982Z</time></trkpt><trkpt lat="39.9728817" lon="15.9361667"><ele>594.0</ele><time>2026-05-01T10:47:29.981Z</time></trkpt><trkpt lat="39.97314" lon="15.9362733"><ele>594.0</ele><time>2026-05-01T10:47:30.981Z</time></trkpt><trkpt lat="39.973405" lon="15.9363617"><ele>596.0</ele><time>2026-05-01T10:47:31.981Z</time></trkpt><trkpt lat="39.973675" lon="15.9364233"><ele>598.0</ele><time>2026-05-01T10:47:32.981Z</time></trkpt><trkpt lat="39.9739367" lon="15.93646"><ele>601.5</ele><time>2026-05-01T10:47:33.981Z</time></trkpt><trkpt lat="39.9741917" lon="15.9364683"><ele>605.0</ele><time>2026-05-01T10:47:34.981Z</time></trkpt><trkpt lat="39.9744467" lon="15.9364533"><ele>605.0</ele><time>2026-05-01T10:47:35.982Z</time></trkpt><trkpt lat="39.9746933" lon="15.9364183"><ele>605.0</ele><time>2026-05-01T10:47:36.982Z</time></trkpt><trkpt lat="39.97493" lon="15.936365"><ele>606.0</ele><time>2026-05-01T10:47:37.981Z</time></trkpt><trkpt lat="39.97517" lon="15.9363133"><ele>607.0</ele><time>2026-05-01T10:47:38.981Z</time></trkpt><trkpt lat="39.9754117" lon="15.9362517"><ele>607.0</ele><time>2026-05-01T10:47:39.981Z</time></trkpt><trkpt lat="39.9756517" lon="15.9361933"><ele>607.0</ele><time>2026-05-01T10:47:40.981Z</time></trkpt><trkpt lat="39.9758999" lon="15.9361339"><ele>607.0</ele><time>2026-05-01T10:47:41.981Z</time></trkpt><trkpt lat="39.9761499" lon="15.9360744"><ele>607.0</ele><time>2026-05-01T10:47:42.981Z</time></trkpt><trkpt lat="39.9763918" lon="15.9360167"><ele>607.0</ele><time>2026-05-01T10:47:43.981Z</time></trkpt><trkpt lat="39.9766269" lon="15.9359617"><ele>607.0</ele><time>2026-05-01T10:47:44.981Z</time></trkpt><trkpt lat="39.9768653" lon="15.9359044"><ele>612.0</ele><time>2026-05-01T10:47:45.982Z</time></trkpt><trkpt lat="39.9771051" lon="15.935852"><ele>617.0</ele><time>2026-05-01T10:47:46.982Z</time></trkpt><trkpt lat="39.9773453" lon="15.9358001"><ele>620.0</ele><time>2026-05-01T10:47:47.981Z</time></trkpt><trkpt lat="39.9775881" lon="15.9357357"><ele>623.0</ele><time>2026-05-01T10:47:48.981Z</time></trkpt><trkpt lat="39.9778345" lon="15.9356763"><ele>623.0</ele><time>2026-05-01T10:47:49.981Z</time></trkpt><trkpt lat="39.9780819" lon="15.9356146"><ele>623.0</ele><time>2026-05-01T10:47:50.981Z</time></trkpt><trkpt lat="39.9783281" lon="15.9355567"><ele>615.5</ele><time>2026-05-01T10:47:51.981Z</time></trkpt><trkpt lat="39.9785771" lon="15.9354936"><ele>608.0</ele><time>2026-05-01T10:47:52.981Z</time></trkpt><trkpt lat="39.9788251" lon="15.9354389"><ele>608.0</ele><time>2026-05-01T10:47:53.981Z</time></trkpt><trkpt lat="39.9790648" lon="15.9353949"><ele>608.0</ele><time>2026-05-01T10:47:54.981Z</time></trkpt><trkpt lat="39.9793051" lon="15.9353501"><ele>598.5</ele><time>2026-05-01T10:47:55.981Z</time></trkpt><trkpt lat="39.979547" lon="15.9353063"><ele>589.0</ele><time>2026-05-01T10:47:56.981Z</time></trkpt><trkpt lat="39.9797934" lon="15.9352659"><ele>599.0</ele><time>2026-05-01T10:47:57.981Z</time></trkpt><trkpt lat="39.980042" lon="15.9352247"><ele>609.0</ele><time>2026-05-01T10:47:58.981Z</time></trkpt><trkpt lat="39.9802913" lon="15.9351929"><ele>609.0</ele><time>2026-05-01T10:47:59.982Z</time></trkpt><trkpt lat="39.9805409" lon="15.9351642"><ele>609.0</ele><time>2026-05-01T10:48:00.981Z</time></trkpt><trkpt lat="39.9807901" lon="15.9351359"><ele>614.5</ele><time>2026-05-01T10:48:01.981Z</time></trkpt><trkpt lat="39.981034" lon="15.9351115"><ele>620.0</ele><time>2026-05-01T10:48:02.982Z</time></trkpt><trkpt lat="39.9812817" lon="15.9350857"><ele>626.5</ele><time>2026-05-01T10:48:03.982Z</time></trkpt><trkpt lat="39.9815241" lon="15.9350502"><ele>633.0</ele><time>2026-05-01T10:48:04.981Z</time></trkpt><trkpt lat="39.9817695" lon="15.9350276"><ele>633.0</ele><time>2026-05-01T10:48:05.982Z</time></trkpt><trkpt lat="39.9820207" lon="15.9350055"><ele>633.0</ele><time>2026-05-01T10:48:06.982Z</time></trkpt><trkpt lat="39.9822681" lon="15.9349786"><ele>633.0</ele><time>2026-05-01T10:48:07.981Z</time></trkpt><trkpt lat="39.9825136" lon="15.9349523"><ele>633.0</ele><time>2026-05-01T10:48:08.982Z</time></trkpt><trkpt lat="39.9827624" lon="15.9349281"><ele>631.5</ele><time>2026-05-01T10:48:09.981Z</time></trkpt><trkpt lat="39.9830095" lon="15.9349034"><ele>630.0</ele><time>2026-05-01T10:48:10.981Z</time></trkpt><trkpt lat="39.9832595" lon="15.9348749"><ele>641.5</ele><time>2026-05-01T10:48:11.981Z</time></trkpt><trkpt lat="39.9835097" lon="15.9348449"><ele>653.0</ele><time>2026-05-01T10:48:12.981Z</time></trkpt><trkpt lat="39.9837644" lon="15.9348157"><ele>653.0</ele><time>2026-05-01T10:48:13.981Z</time></trkpt><trkpt lat="39.9840167" lon="15.9347833"><ele>653.0</ele><time>2026-05-01T10:48:14.981Z</time></trkpt><trkpt lat="39.9842667" lon="15.934745"><ele>657.0</ele><time>2026-05-01T10:48:15.981Z</time></trkpt><trkpt lat="39.9845217" lon="15.9347167"><ele>661.0</ele><time>2026-05-01T10:48:16.981Z</time></trkpt><trkpt lat="39.9847717" lon="15.9346833"><ele>653.5</ele><time>2026-05-01T10:48:17.981Z</time></trkpt><trkpt lat="39.9850217" lon="15.9346633"><ele>646.0</ele><time>2026-05-01T10:48:18.981Z</time></trkpt><trkpt lat="39.9852733" lon="15.93464"><ele>646.0</ele><time>2026-05-01T10:48:19.981Z</time></trkpt><trkpt lat="39.9855217" lon="15.9346117"><ele>646.0</ele><time>2026-05-01T10:48:20.981Z</time></trkpt><trkpt lat="39.985765" lon="15.9345833"><ele>637.5</ele><time>2026-05-01T10:48:21.981Z</time></trkpt><trkpt lat="39.9860083" lon="15.9345583"><ele>629.0</ele><time>2026-05-01T10:48:22.981Z</time></trkpt><trkpt lat="39.9862533" lon="15.9345367"><ele>629.0</ele><time>2026-05-01T10:48:23.981Z</time></trkpt><trkpt lat="39.986495" lon="15.93451"><ele>629.0</ele><time>2026-05-01T10:48:24.981Z</time></trkpt><trkpt lat="39.9867417" lon="15.9344817"><ele>631.5</ele><time>2026-05-01T10:48:25.981Z</time></trkpt><trkpt lat="39.9869883" lon="15.934455"><ele>634.0</ele><time>2026-05-01T10:48:26.981Z</time></trkpt><trkpt lat="39.9872317" lon="15.934415"><ele>634.0</ele><time>2026-05-01T10:48:27.981Z</time></trkpt><trkpt lat="39.98747" lon="15.934355"><ele>634.0</ele><time>2026-05-01T10:48:28.981Z</time></trkpt><trkpt lat="39.9877167" lon="15.934285"><ele>650.0</ele><time>2026-05-01T10:48:29.981Z</time></trkpt><trkpt lat="39.9879617" lon="15.9342117"><ele>666.0</ele><time>2026-05-01T10:48:30.982Z</time></trkpt><trkpt lat="39.9882083" lon="15.9341267"><ele>664.0</ele><time>2026-05-01T10:48:31.981Z</time></trkpt><trkpt lat="39.9884533" lon="15.9340217"><ele>662.0</ele><time>2026-05-01T10:48:32.981Z</time></trkpt><trkpt lat="39.98869" lon="15.9339133"><ele>662.0</ele><time>2026-05-01T10:48:33.981Z</time></trkpt><trkpt lat="39.988925" lon="15.9337983"><ele>662.0</ele><time>2026-05-01T10:48:34.982Z</time></trkpt><trkpt lat="39.9891567" lon="15.93367"><ele>666.0</ele><time>2026-05-01T10:48:35.981Z</time></trkpt><trkpt lat="39.9893883" lon="15.9335333"><ele>670.0</ele><time>2026-05-01T10:48:36.982Z</time></trkpt><trkpt lat="39.9896033" lon="15.9333917"><ele>671.0</ele><time>2026-05-01T10:48:37.982Z</time></trkpt><trkpt lat="39.98982" lon="15.9332333"><ele>672.0</ele><time>2026-05-01T10:48:38.982Z</time></trkpt><trkpt lat="39.9900317" lon="15.9330617"><ele>680.0</ele><time>2026-05-01T10:48:39.982Z</time></trkpt><trkpt lat="39.99024" lon="15.9328783"><ele>688.0</ele><time>2026-05-01T10:48:40.981Z</time></trkpt><trkpt lat="39.9904467" lon="15.9326783"><ele>687.0</ele><time>2026-05-01T10:48:41.982Z</time></trkpt><trkpt lat="39.9906467" lon="15.9324783"><ele>686.0</ele><time>2026-05-01T10:48:42.981Z</time></trkpt><trkpt lat="39.9908483" lon="15.9322733"><ele>699.5</ele><time>2026-05-01T10:48:43.981Z</time></trkpt><trkpt lat="39.9910217" lon="15.932055"><ele>713.0</ele><time>2026-05-01T10:48:44.981Z</time></trkpt><trkpt lat="39.99121" lon="15.93183"><ele>710.0</ele><time>2026-05-01T10:48:45.981Z</time></trkpt><trkpt lat="39.9913867" lon="15.931595"><ele>707.0</ele><time>2026-05-01T10:48:46.981Z</time></trkpt><trkpt lat="39.9915617" lon="15.9313533"><ele>708.5</ele><time>2026-05-01T10:48:47.981Z</time></trkpt><trkpt lat="39.99172" lon="15.9311117"><ele>710.0</ele><time>2026-05-01T10:48:48.982Z</time></trkpt><trkpt lat="39.9918833" lon="15.93087"><ele>710.0</ele><time>2026-05-01T10:48:49.981Z</time></trkpt><trkpt lat="39.9920383" lon="15.930625"><ele>710.0</ele><time>2026-05-01T10:48:50.982Z</time></trkpt><trkpt lat="39.99218" lon="15.9303817"><ele>710.0</ele><time>2026-05-01T10:48:51.982Z</time></trkpt><trkpt lat="39.9923283" lon="15.9301367"><ele>710.0</ele><time>2026-05-01T10:48:52.982Z</time></trkpt><trkpt lat="39.992475" lon="15.929895"><ele>720.0</ele><time>2026-05-01T10:48:53.981Z</time></trkpt><trkpt lat="39.9926183" lon="15.9296633"><ele>730.0</ele><time>2026-05-01T10:48:54.981Z</time></trkpt><trkpt lat="39.992755" lon="15.9294333"><ele>728.0</ele><time>2026-05-01T10:48:55.981Z</time></trkpt><trkpt lat="39.9928817" lon="15.9292167"><ele>726.0</ele><time>2026-05-01T10:48:56.981Z</time></trkpt><trkpt lat="39.9930167" lon="15.928995"><ele>724.0</ele><time>2026-05-01T10:48:57.981Z</time></trkpt><trkpt lat="39.993155" lon="15.9287667"><ele>724.0</ele><time>2026-05-01T10:48:58.982Z</time></trkpt><trkpt lat="39.9932917" lon="15.9285433"><ele>724.0</ele><time>2026-05-01T10:48:59.981Z</time></trkpt><trkpt lat="39.993435" lon="15.9283133"><ele>724.0</ele><time>2026-05-01T10:49:00.981Z</time></trkpt><trkpt lat="39.9935783" lon="15.9280817"><ele>751.0</ele><time>2026-05-01T10:49:01.981Z</time></trkpt><trkpt lat="40.00221" lon="15.9139917"><ele>751.0</ele><time>2026-05-01T10:49:47.979Z</time></trkpt><trkpt lat="40.0023967" lon="15.913705"><ele>751.0</ele><time>2026-05-01T10:49:48.98Z</time></trkpt><trkpt lat="40.0025567" lon="15.91346"><ele>744.5</ele><time>2026-05-01T10:49:49.98Z</time></trkpt><trkpt lat="40.0027217" lon="15.9132317"><ele>738.0</ele><time>2026-05-01T10:49:50.98Z</time></trkpt><trkpt lat="40.0029033" lon="15.9129967"><ele>738.0</ele><time>2026-05-01T10:49:51.979Z</time></trkpt><trkpt lat="40.003095" lon="15.91276"><ele>738.0</ele><time>2026-05-01T10:49:52.979Z</time></trkpt><trkpt lat="40.0032867" lon="15.9125217"><ele>736.0</ele><time>2026-05-01T10:49:53.979Z</time></trkpt><trkpt lat="40.00348" lon="15.9122817"><ele>734.0</ele><time>2026-05-01T10:49:54.979Z</time></trkpt><trkpt lat="40.0036783" lon="15.912035"><ele>734.0</ele><time>2026-05-01T10:49:55.979Z</time></trkpt><trkpt lat="40.003885" lon="15.9117917"><ele>734.0</ele><time>2026-05-01T10:49:56.979Z</time></trkpt><trkpt lat="40.0040933" lon="15.9115483"><ele>730.5</ele><time>2026-05-01T10:49:57.98Z</time></trkpt><trkpt lat="40.004285" lon="15.9113117"><ele>727.0</ele><time>2026-05-01T10:49:58.98Z</time></trkpt><trkpt lat="40.0044667" lon="15.91109"><ele>728.0</ele><time>2026-05-01T10:49:59.979Z</time></trkpt><trkpt lat="40.00464" lon="15.9108717"><ele>729.0</ele><time>2026-05-01T10:50:00.979Z</time></trkpt><trkpt lat="40.0048167" lon="15.9106533"><ele>726.5</ele><time>2026-05-01T10:50:01.98Z</time></trkpt><trkpt lat="40.0049967" lon="15.910425"><ele>724.0</ele><time>2026-05-01T10:50:02.979Z</time></trkpt><trkpt lat="40.00518" lon="15.9101883"><ele>724.5</ele><time>2026-05-01T10:50:03.98Z</time></trkpt><trkpt lat="40.0053567" lon="15.90995"><ele>725.0</ele><time>2026-05-01T10:50:04.979Z</time></trkpt><trkpt lat="40.0055317" lon="15.9097133"><ele>725.0</ele><time>2026-05-01T10:50:05.979Z</time></trkpt><trkpt lat="40.0057083" lon="15.90947"><ele>725.0</ele><time>2026-05-01T10:50:06.98Z</time></trkpt><trkpt lat="40.0058783" lon="15.9092233"><ele>723.0</ele><time>2026-05-01T10:50:07.979Z</time></trkpt><trkpt lat="40.00604" lon="15.90898"><ele>721.0</ele><time>2026-05-01T10:50:08.98Z</time></trkpt><trkpt lat="40.00619" lon="15.908735"><ele>721.0</ele><time>2026-05-01T10:50:09.979Z</time></trkpt><trkpt lat="40.0063433" lon="15.9084783"><ele>721.0</ele><time>2026-05-01T10:50:10.98Z</time></trkpt><trkpt lat="40.0065" lon="15.908215"><ele>721.0</ele><time>2026-05-01T10:50:11.979Z</time></trkpt><trkpt lat="40.006655" lon="15.9079433"><ele>721.0</ele><time>2026-05-01T10:50:12.98Z</time></trkpt><trkpt lat="40.0068083" lon="15.9076683"><ele>726.0</ele><time>2026-05-01T10:50:13.98Z</time></trkpt><trkpt lat="40.00696" lon="15.9073917"><ele>731.0</ele><time>2026-05-01T10:50:14.979Z</time></trkpt><trkpt lat="40.0071167" lon="15.9071033"><ele>731.0</ele><time>2026-05-01T10:50:15.979Z</time></trkpt><trkpt lat="40.0072817" lon="15.90681"><ele>731.0</ele><time>2026-05-01T10:50:16.979Z</time></trkpt><trkpt lat="40.0074467" lon="15.9065133"><ele>752.0</ele><time>2026-05-01T10:50:17.98Z</time></trkpt><trkpt lat="40.007605" lon="15.906225"><ele>773.0</ele><time>2026-05-01T10:50:18.979Z</time></trkpt><trkpt lat="40.0077683" lon="15.9059333"><ele>780.5</ele><time>2026-05-01T10:50:19.979Z</time></trkpt><trkpt lat="40.0079283" lon="15.9056417"><ele>788.0</ele><time>2026-05-01T10:50:20.98Z</time></trkpt><trkpt lat="40.0080867" lon="15.9053517"><ele>725.0</ele><time>2026-05-01T10:50:21.979Z</time></trkpt><trkpt lat="40.0130986" lon="15.9004942"><ele>731.0</ele><time>2026-05-01T10:50:39.437Z</time></trkpt><trkpt lat="40.0123033" lon="15.9001017"><ele>727.5</ele><time>2026-05-01T10:50:40.979Z</time></trkpt><trkpt lat="40.01249" lon="15.8998367"><ele>724.0</ele><time>2026-05-01T10:50:41.98Z</time></trkpt><trkpt lat="40.0126817" lon="15.899565"><ele>724.0</ele><time>2026-05-01T10:50:42.979Z</time></trkpt><trkpt lat="40.0128667" lon="15.8992967"><ele>724.0</ele><time>2026-05-01T10:50:43.98Z</time></trkpt><trkpt lat="40.0130467" lon="15.8990217"><ele>724.0</ele><time>2026-05-01T10:50:44.979Z</time></trkpt><trkpt lat="40.0132167" lon="15.8987433"><ele>724.0</ele><time>2026-05-01T10:50:45.98Z</time></trkpt><trkpt lat="40.0133833" lon="15.8984683"><ele>724.5</ele><time>2026-05-01T10:50:46.979Z</time></trkpt><trkpt lat="40.0135417" lon="15.8981817"><ele>725.0</ele><time>2026-05-01T10:50:47.98Z</time></trkpt><trkpt lat="40.0136967" lon="15.8978933"><ele>725.0</ele><time>2026-05-01T10:50:48.979Z</time></trkpt><trkpt lat="40.01385" lon="15.8976233"><ele>725.0</ele><time>2026-05-01T10:50:49.979Z</time></trkpt><trkpt lat="40.0140033" lon="15.8973433"><ele>725.0</ele><time>2026-05-01T10:50:50.979Z</time></trkpt><trkpt lat="40.0141467" lon="15.8970633"><ele>725.0</ele><time>2026-05-01T10:50:51.979Z</time></trkpt><trkpt lat="40.0142967" lon="15.8967783"><ele>724.5</ele><time>2026-05-01T10:50:52.98Z</time></trkpt><trkpt lat="40.014445" lon="15.8964917"><ele>724.0</ele><time>2026-05-01T10:50:53.979Z</time></trkpt><trkpt lat="40.014595" lon="15.8962067"><ele>723.5</ele><time>2026-05-01T10:50:54.98Z</time></trkpt><trkpt lat="40.0147467" lon="15.89592"><ele>723.0</ele><time>2026-05-01T10:50:55.98Z</time></trkpt><trkpt lat="40.014895" lon="15.8956333"><ele>724.0</ele><time>2026-05-01T10:50:56.98Z</time></trkpt><trkpt lat="40.0150483" lon="15.8953517"><ele>725.0</ele><time>2026-05-01T10:50:57.98Z</time></trkpt><trkpt lat="40.0151883" lon="15.8950733"><ele>727.5</ele><time>2026-05-01T10:50:58.98Z</time></trkpt><trkpt lat="40.0153317" lon="15.8948033"><ele>730.0</ele><time>2026-05-01T10:50:59.979Z</time></trkpt><trkpt lat="40.0154717" lon="15.8945383"><ele>730.0</ele><time>2026-05-01T10:51:00.98Z</time></trkpt><trkpt lat="40.0156117" lon="15.8942833"><ele>730.0</ele><time>2026-05-01T10:51:01.98Z</time></trkpt><trkpt lat="40.0157533" lon="15.8940217"><ele>729.0</ele><time>2026-05-01T10:51:02.979Z</time></trkpt><trkpt lat="40.015895" lon="15.8937467"><ele>728.0</ele><time>2026-05-01T10:51:03.979Z</time></trkpt><trkpt lat="40.0160467" lon="15.8934733"><ele>727.5</ele><time>2026-05-01T10:51:04.98Z</time></trkpt><trkpt lat="40.0161833" lon="15.8932183"><ele>727.0</ele><time>2026-05-01T10:51:05.98Z</time></trkpt><trkpt lat="40.0163067" lon="15.8929867"><ele>727.0</ele><time>2026-05-01T10:51:06.98Z</time></trkpt><trkpt lat="40.01642" lon="15.8927717"><ele>727.0</ele><time>2026-05-01T10:51:07.98Z</time></trkpt><trkpt lat="40.0165233" lon="15.8925833"><ele>727.0</ele><time>2026-05-01T10:51:08.979Z</time></trkpt><trkpt lat="40.0166317" lon="15.8924033"><ele>727.3333333333334</ele><time>2026-05-01T10:51:09.979Z</time></trkpt><trkpt lat="40.016725" lon="15.8922367"><ele>727.6666666666666</ele><time>2026-05-01T10:51:10.98Z</time></trkpt><trkpt lat="40.0168067" lon="15.8920767"><ele>728.0</ele><time>2026-05-01T10:51:11.979Z</time></trkpt><trkpt lat="40.0168833" lon="15.89191"><ele>727.3333333333333</ele><time>2026-05-01T10:51:12.979Z</time></trkpt><trkpt lat="40.016955" lon="15.8917367"><ele>726.6666666666666</ele><time>2026-05-01T10:51:13.979Z</time></trkpt><trkpt lat="40.0170317" lon="15.891555"><ele>726.0</ele><time>2026-05-01T10:51:14.979Z</time></trkpt><trkpt lat="40.017115" lon="15.8913617"><ele>726.0</ele><time>2026-05-01T10:51:15.98Z</time></trkpt><trkpt lat="40.0171933" lon="15.8911583"><ele>726.0</ele><time>2026-05-01T10:51:16.979Z</time></trkpt><trkpt lat="40.0172683" lon="15.8909433"><ele>726.0</ele><time>2026-05-01T10:51:17.979Z</time></trkpt><trkpt lat="40.0173433" lon="15.8907233"><ele>725.6666666666666</ele><time>2026-05-01T10:51:18.98Z</time></trkpt><trkpt lat="40.0174133" lon="15.890515"><ele>725.3333333333333</ele><time>2026-05-01T10:51:19.98Z</time></trkpt><trkpt lat="40.0174783" lon="15.8903117"><ele>725.0</ele><time>2026-05-01T10:51:20.979Z</time></trkpt><trkpt lat="40.0175483" lon="15.8901183"><ele>724.75</ele><time>2026-05-01T10:51:21.979Z</time></trkpt><trkpt lat="40.01761" lon="15.889935"><ele>724.5</ele><time>2026-05-01T10:51:22.979Z</time></trkpt><trkpt lat="40.0176733" lon="15.88977"><ele>724.25</ele><time>2026-05-01T10:51:23.979Z</time></trkpt><trkpt lat="40.0177417" lon="15.8896067"><ele>724.0</ele><time>2026-05-01T10:51:24.98Z</time></trkpt><trkpt lat="40.0178167" lon="15.8894633"><ele>724.0</ele><time>2026-05-01T10:51:25.979Z</time></trkpt><trkpt lat="40.017895" lon="15.8893367"><ele>724.0</ele><time>2026-05-01T10:51:26.979Z</time></trkpt><trkpt lat="40.0179817" lon="15.8892117"><ele>724.0</ele><time>2026-05-01T10:51:27.979Z</time></trkpt><trkpt lat="40.0180783" lon="15.8890917"><ele>724.0</ele><time>2026-05-01T10:51:28.979Z</time></trkpt><trkpt lat="40.018185" lon="15.888985"><ele>724.0</ele><time>2026-05-01T10:51:29.979Z</time></trkpt><trkpt lat="40.0183017" lon="15.88888"><ele>724.0</ele><time>2026-05-01T10:51:30.979Z</time></trkpt><trkpt lat="40.0184267" lon="15.8887867"><ele>724.0</ele><time>2026-05-01T10:51:31.979Z</time></trkpt><trkpt lat="40.018555" lon="15.8887017"><ele>724.0</ele><time>2026-05-01T10:51:32.979Z</time></trkpt><trkpt lat="40.01868" lon="15.888635"><ele>724.4000000000001</ele><time>2026-05-01T10:51:33.979Z</time></trkpt><trkpt lat="40.01879" lon="15.8885783"><ele>724.8</ele><time>2026-05-01T10:51:34.98Z</time></trkpt><trkpt lat="40.0188917" lon="15.8885317"><ele>725.2</ele><time>2026-05-01T10:51:35.979Z</time></trkpt><trkpt lat="40.0189877" lon="15.8884882"><ele>725.5999999999999</ele><time>2026-05-01T10:51:36.979Z</time></trkpt><trkpt lat="40.0190803" lon="15.888447"><ele>726.0</ele><time>2026-05-01T10:51:37.979Z</time></trkpt><trkpt lat="40.0191712" lon="15.8884096"><ele>726.4</ele><time>2026-05-01T10:51:38.98Z</time></trkpt><trkpt lat="40.0192667" lon="15.88837"><ele>726.8</ele><time>2026-05-01T10:51:39.98Z</time></trkpt><trkpt lat="40.0193633" lon="15.8883312"><ele>727.1999999999999</ele><time>2026-05-01T10:51:40.98Z</time></trkpt><trkpt lat="40.01946" lon="15.8882904"><ele>727.5999999999999</ele><time>2026-05-01T10:51:41.979Z</time></trkpt><trkpt lat="40.0195552" lon="15.8882514"><ele>728.0</ele><time>2026-05-01T10:51:42.979Z</time></trkpt><trkpt lat="40.0196507" lon="15.888211"><ele>728.0</ele><time>2026-05-01T10:51:43.98Z</time></trkpt><trkpt lat="40.0197452" lon="15.8881653"><ele>728.0</ele><time>2026-05-01T10:51:44.979Z</time></trkpt><trkpt lat="40.0198455" lon="15.8881208"><ele>728.0</ele><time>2026-05-01T10:51:45.979Z</time></trkpt><trkpt lat="40.0199477" lon="15.8880765"><ele>728.0</ele><time>2026-05-01T10:51:46.979Z</time></trkpt><trkpt lat="40.0200512" lon="15.8880305"><ele>728.0</ele><time>2026-05-01T10:51:47.98Z</time></trkpt><trkpt lat="40.0201525" lon="15.8879859"><ele>727.5999999999999</ele><time>2026-05-01T10:51:48.98Z</time></trkpt><trkpt lat="40.0202484" lon="15.8879449"><ele>727.1999999999999</ele><time>2026-05-01T10:51:49.98Z</time></trkpt><trkpt lat="40.0203424" lon="15.8879048"><ele>726.8</ele><time>2026-05-01T10:51:50.979Z</time></trkpt><trkpt lat="40.0204337" lon="15.8878694"><ele>726.4</ele><time>2026-05-01T10:51:51.979Z</time></trkpt><trkpt lat="40.020524" lon="15.8878359"><ele>726.0</ele><time>2026-05-01T10:51:52.979Z</time></trkpt><trkpt lat="40.0206072" lon="15.8878047"><ele>726.0</ele><time>2026-05-01T10:51:53.979Z</time></trkpt><trkpt lat="40.0206784" lon="15.8877766"><ele>726.0</ele><time>2026-05-01T10:51:54.979Z</time></trkpt><trkpt lat="40.0207745" lon="15.8877286"><ele>726.0</ele><time>2026-05-01T10:51:56.979Z</time></trkpt><trkpt lat="40.0208104" lon="15.8876532"><ele>726.0</ele><time>2026-05-01T10:51:58.979Z</time></trkpt><trkpt lat="40.0207929" lon="15.8875134"><ele>726.0</ele><time>2026-05-01T10:52:00.979Z</time></trkpt><trkpt lat="40.0207654" lon="15.8874161"><ele>726.0</ele><time>2026-05-01T10:52:01.98Z</time></trkpt><trkpt lat="40.0207228" lon="15.887305"><ele>726.5</ele><time>2026-05-01T10:52:02.979Z</time></trkpt><trkpt lat="40.0206743" lon="15.8871798"><ele>727.0</ele><time>2026-05-01T10:52:03.979Z</time></trkpt><trkpt lat="40.020623" lon="15.887039"><ele>727.5</ele><time>2026-05-01T10:52:04.98Z</time></trkpt><trkpt lat="40.0205685" lon="15.8868945"><ele>728.0</ele><time>2026-05-01T10:52:05.979Z</time></trkpt><trkpt lat="40.0205198" lon="15.8867565"><ele>728.0</ele><time>2026-05-01T10:52:06.979Z</time></trkpt><trkpt lat="40.0204735" lon="15.8866227"><ele>728.0</ele><time>2026-05-01T10:52:07.979Z</time></trkpt><trkpt lat="40.0204377" lon="15.886501"><ele>728.0</ele><time>2026-05-01T10:52:08.979Z</time></trkpt><trkpt lat="40.020405" lon="15.8863917"><ele>728.0</ele><time>2026-05-01T10:52:09.979Z</time></trkpt><trkpt lat="40.0203683" lon="15.8862933"><ele>728.0</ele><time>2026-05-01T10:52:10.98Z</time></trkpt><trkpt lat="40.0203283" lon="15.8861967"><ele>728.0</ele><time>2026-05-01T10:52:11.979Z</time></trkpt><trkpt lat="40.0203" lon="15.88611"><ele>728.0</ele><time>2026-05-01T10:52:12.979Z</time></trkpt><trkpt lat="40.020255" lon="15.8860067"><ele>728.0</ele><time>2026-05-01T10:52:14.979Z</time></trkpt><trkpt lat="40.02021" lon="15.885925"><ele>728.0</ele><time>2026-05-01T10:52:22.979Z</time></trkpt><trkpt lat="40.0201383" lon="15.8860067"><ele>728.0</ele><time>2026-05-01T10:52:53.979Z</time></trkpt><trkpt lat="40.020115" lon="15.8860833"><ele>728.0</ele><time>2026-05-01T10:52:55.98Z</time></trkpt><trkpt lat="40.0201" lon="15.8861883"><ele>728.0</ele><time>2026-05-01T10:52:58.98Z</time></trkpt><trkpt lat="40.0201033" lon="15.8863"><ele>728.0</ele><time>2026-05-01T10:53:01.98Z</time></trkpt><trkpt lat="40.0200867" lon="15.8863983"><ele>728.0</ele><time>2026-05-01T10:53:04.98Z</time></trkpt><trkpt lat="40.0200667" lon="15.8865083"><ele>728.0</ele><time>2026-05-01T10:53:08.979Z</time></trkpt><trkpt lat="40.02007" lon="15.8865967"><ele>728.0</ele><time>2026-05-01T10:53:11.979Z</time></trkpt><trkpt lat="40.02006" lon="15.8866833"><ele>728.0</ele><time>2026-05-01T10:53:15.979Z</time></trkpt><trkpt lat="40.020005" lon="15.8867383"><ele>728.0</ele><time>2026-05-01T10:53:21.98Z</time></trkpt></trkseg><trkseg><trkpt lat="40.0202165" lon="15.8862791"><ele>728.0</ele><time>2026-05-01T12:10:40.981Z</time></trkpt><trkpt lat="40.0201889" lon="15.8862035"><ele>728.0</ele><time>2026-05-01T12:10:43.981Z</time></trkpt><trkpt lat="40.0201511" lon="15.8861128"><ele>728.0</ele><time>2026-05-01T12:10:47.981Z</time></trkpt><trkpt lat="40.0201559" lon="15.8860128"><ele>728.0</ele><time>2026-05-01T12:10:51.98Z</time></trkpt><trkpt lat="40.0202035" lon="15.8859466"><ele>728.0</ele><time>2026-05-01T12:12:08.98Z</time></trkpt><trkpt lat="40.0202427" lon="15.8858656"><ele>728.0</ele><time>2026-05-01T12:12:11.98Z</time></trkpt><trkpt lat="40.0202516" lon="15.885782"><ele>728.0</ele><time>2026-05-01T12:12:14.98Z</time></trkpt><trkpt lat="40.0202454" lon="15.8856739"><ele>728.5</ele><time>2026-05-01T12:13:09.981Z</time></trkpt><trkpt lat="40.0201996" lon="15.8854957"><ele>729.0</ele><time>2026-05-01T12:13:11.981Z</time></trkpt><trkpt lat="40.020169" lon="15.885352"><ele>729.5</ele><time>2026-05-01T12:13:12.98Z</time></trkpt><trkpt lat="40.0201418" lon="15.885199"><ele>730.0</ele><time>2026-05-01T12:13:13.98Z</time></trkpt><trkpt lat="40.0201189" lon="15.8850409"><ele>731.0</ele><time>2026-05-01T12:13:14.98Z</time></trkpt><trkpt lat="40.0201" lon="15.8848848"><ele>732.0</ele><time>2026-05-01T12:13:15.98Z</time></trkpt><trkpt lat="40.0200826" lon="15.8847377"><ele>733.0</ele><time>2026-05-01T12:13:16.98Z</time></trkpt><trkpt lat="40.0200757" lon="15.8845881"><ele>734.0</ele><time>2026-05-01T12:13:17.98Z</time></trkpt><trkpt lat="40.0200663" lon="15.884433"><ele>734.0</ele><time>2026-05-01T12:13:18.98Z</time></trkpt><trkpt lat="40.0200581" lon="15.8842855"><ele>734.0</ele><time>2026-05-01T12:13:19.981Z</time></trkpt><trkpt lat="40.0200477" lon="15.8841376"><ele>734.0</ele><time>2026-05-01T12:13:20.98Z</time></trkpt><trkpt lat="40.0200425" lon="15.8839857"><ele>734.0</ele><time>2026-05-01T12:13:21.981Z</time></trkpt><trkpt lat="40.0200373" lon="15.8838385"><ele>734.25</ele><time>2026-05-01T12:13:22.981Z</time></trkpt><trkpt lat="40.0200285" lon="15.8836854"><ele>734.5</ele><time>2026-05-01T12:13:23.98Z</time></trkpt><trkpt lat="40.0200109" lon="15.8835342"><ele>734.75</ele><time>2026-05-01T12:13:24.981Z</time></trkpt><trkpt lat="40.0199908" lon="15.8833814"><ele>735.0</ele><time>2026-05-01T12:13:25.981Z</time></trkpt><trkpt lat="40.0199814" lon="15.8832176"><ele>734.25</ele><time>2026-05-01T12:13:26.98Z</time></trkpt><trkpt lat="40.0199777" lon="15.883046"><ele>733.5</ele><time>2026-05-01T12:13:27.981Z</time></trkpt><trkpt lat="40.0199526" lon="15.882885"><ele>732.75</ele><time>2026-05-01T12:13:28.98Z</time></trkpt><trkpt lat="40.0199324" lon="15.882727"><ele>732.0</ele><time>2026-05-01T12:13:29.98Z</time></trkpt><trkpt lat="40.0199264" lon="15.8825957"><ele>733.1666666666666</ele><time>2026-05-01T12:13:30.981Z</time></trkpt><trkpt lat="40.0199257" lon="15.8824735"><ele>734.3333333333334</ele><time>2026-05-01T12:13:31.981Z</time></trkpt><trkpt lat="40.019927" lon="15.8823585"><ele>735.5</ele><time>2026-05-01T12:13:32.98Z</time></trkpt><trkpt lat="40.0199262" lon="15.8822464"><ele>736.6666666666667</ele><time>2026-05-01T12:13:33.981Z</time></trkpt><trkpt lat="40.0199316" lon="15.8821351"><ele>737.8333333333334</ele><time>2026-05-01T12:13:34.981Z</time></trkpt><trkpt lat="40.0199373" lon="15.8820158"><ele>739.0</ele><time>2026-05-01T12:13:35.98Z</time></trkpt><trkpt lat="40.0199526" lon="15.8818882"><ele>738.0</ele><time>2026-05-01T12:13:36.98Z</time></trkpt><trkpt lat="40.0199893" lon="15.8817532"><ele>737.0</ele><time>2026-05-01T12:13:37.98Z</time></trkpt><trkpt lat="40.0200367" lon="15.8816223"><ele>736.0</ele><time>2026-05-01T12:13:38.98Z</time></trkpt><trkpt lat="40.0200941" lon="15.8814916"><ele>735.0</ele><time>2026-05-01T12:13:39.98Z</time></trkpt><trkpt lat="40.0201605" lon="15.8813648"><ele>735.0</ele><time>2026-05-01T12:13:40.98Z</time></trkpt><trkpt lat="40.0202268" lon="15.8812348"><ele>735.0</ele><time>2026-05-01T12:13:41.98Z</time></trkpt><trkpt lat="40.0202867" lon="15.8811072"><ele>735.0</ele><time>2026-05-01T12:13:42.98Z</time></trkpt><trkpt lat="40.0203409" lon="15.8809863"><ele>735.0</ele><time>2026-05-01T12:13:43.981Z</time></trkpt><trkpt lat="40.0203954" lon="15.8808701"><ele>735.0</ele><time>2026-05-01T12:13:44.98Z</time></trkpt><trkpt lat="40.0204453" lon="15.8807525"><ele>735.25</ele><time>2026-05-01T12:13:45.98Z</time></trkpt><trkpt lat="40.0205005" lon="15.8806231"><ele>735.5</ele><time>2026-05-01T12:13:46.981Z</time></trkpt><trkpt lat="40.0205643" lon="15.8804859"><ele>735.75</ele><time>2026-05-01T12:13:47.98Z</time></trkpt><trkpt lat="40.0206376" lon="15.8803438"><ele>736.0</ele><time>2026-05-01T12:13:48.98Z</time></trkpt><trkpt lat="40.0207215" lon="15.8801793"><ele>736.3333333333334</ele><time>2026-05-01T12:13:49.981Z</time></trkpt><trkpt lat="40.0208087" lon="15.8799997"><ele>736.6666666666666</ele><time>2026-05-01T12:13:50.981Z</time></trkpt><trkpt lat="40.0208908" lon="15.8798147"><ele>737.0</ele><time>2026-05-01T12:13:51.98Z</time></trkpt><trkpt lat="40.0209719" lon="15.8796344"><ele>738.0</ele><time>2026-05-01T12:13:52.98Z</time></trkpt><trkpt lat="40.0210465" lon="15.8794777"><ele>739.0</ele><time>2026-05-01T12:13:53.98Z</time></trkpt><trkpt lat="40.0211143" lon="15.8793365"><ele>740.0</ele><time>2026-05-01T12:13:54.98Z</time></trkpt><trkpt lat="40.0211758" lon="15.8791952"><ele>741.0</ele><time>2026-05-01T12:13:55.98Z</time></trkpt><trkpt lat="40.0212455" lon="15.8790708"><ele>743.0</ele><time>2026-05-01T12:13:56.981Z</time></trkpt><trkpt lat="40.021319" lon="15.8789325"><ele>745.0</ele><time>2026-05-01T12:13:57.981Z</time></trkpt><trkpt lat="40.0213874" lon="15.878785"><ele>747.0</ele><time>2026-05-01T12:13:58.98Z</time></trkpt><trkpt lat="40.0214562" lon="15.8786489"><ele>749.0</ele><time>2026-05-01T12:13:59.98Z</time></trkpt><trkpt lat="40.0215233" lon="15.8785112"><ele>752.25</ele><time>2026-05-01T12:14:00.98Z</time></trkpt><trkpt lat="40.0215899" lon="15.878366"><ele>755.5</ele><time>2026-05-01T12:14:01.98Z</time></trkpt><trkpt lat="40.0216624" lon="15.8782232"><ele>758.75</ele><time>2026-05-01T12:14:02.98Z</time></trkpt><trkpt lat="40.0217372" lon="15.8780788"><ele>762.0</ele><time>2026-05-01T12:14:03.98Z</time></trkpt><trkpt lat="40.0218129" lon="15.8779402"><ele>762.0</ele><time>2026-05-01T12:14:04.98Z</time></trkpt><trkpt lat="40.0218877" lon="15.8778165"><ele>762.0</ele><time>2026-05-01T12:14:05.98Z</time></trkpt><trkpt lat="40.0219713" lon="15.8777142"><ele>762.0</ele><time>2026-05-01T12:14:06.981Z</time></trkpt><trkpt lat="40.022049" lon="15.8776085"><ele>762.0</ele><time>2026-05-01T12:14:07.98Z</time></trkpt><trkpt lat="40.0221237" lon="15.8774888"><ele>764.5</ele><time>2026-05-01T12:14:08.981Z</time></trkpt><trkpt lat="40.0221971" lon="15.8773569"><ele>767.0</ele><time>2026-05-01T12:14:09.98Z</time></trkpt><trkpt lat="40.0222698" lon="15.8772127"><ele>769.5</ele><time>2026-05-01T12:14:10.98Z</time></trkpt><trkpt lat="40.0223378" lon="15.8770587"><ele>772.0</ele><time>2026-05-01T12:14:11.98Z</time></trkpt><trkpt lat="40.0224122" lon="15.8769081"><ele>767.0</ele><time>2026-05-01T12:14:12.98Z</time></trkpt><trkpt lat="40.0224861" lon="15.8767648"><ele>762.0</ele><time>2026-05-01T12:14:13.98Z</time></trkpt><trkpt lat="40.0225534" lon="15.8766122"><ele>757.0</ele><time>2026-05-01T12:14:14.98Z</time></trkpt><trkpt lat="40.0226211" lon="15.8764516"><ele>752.0</ele><time>2026-05-01T12:14:15.98Z</time></trkpt><trkpt lat="40.0226886" lon="15.8762886"><ele>752.0</ele><time>2026-05-01T12:14:16.981Z</time></trkpt><trkpt lat="40.0227463" lon="15.8761195"><ele>752.0</ele><time>2026-05-01T12:14:17.98Z</time></trkpt><trkpt lat="40.0227919" lon="15.8759467"><ele>752.0</ele><time>2026-05-01T12:14:18.981Z</time></trkpt><trkpt lat="40.0228318" lon="15.8757682"><ele>752.0</ele><time>2026-05-01T12:14:19.98Z</time></trkpt><trkpt lat="40.0228549" lon="15.8755665"><ele>756.0</ele><time>2026-05-01T12:14:20.98Z</time></trkpt><trkpt lat="40.0228808" lon="15.87534"><ele>760.0</ele><time>2026-05-01T12:14:21.98Z</time></trkpt><trkpt lat="40.0228983" lon="15.8750777"><ele>764.0</ele><time>2026-05-01T12:14:22.98Z</time></trkpt><trkpt lat="40.0229136" lon="15.8747934"><ele>765.3333333333333</ele><time>2026-05-01T12:14:23.981Z</time></trkpt><trkpt lat="40.0229277" lon="15.8745136"><ele>766.6666666666666</ele><time>2026-05-01T12:14:24.98Z</time></trkpt><trkpt lat="40.0229417" lon="15.8742526"><ele>768.0</ele><time>2026-05-01T12:14:25.98Z</time></trkpt><trkpt lat="40.0229511" lon="15.8740048"><ele>769.0</ele><time>2026-05-01T12:14:26.981Z</time></trkpt><trkpt lat="40.0229572" lon="15.8737738"><ele>770.0</ele><time>2026-05-01T12:14:27.98Z</time></trkpt><trkpt lat="40.0229708" lon="15.8735665"><ele>771.0</ele><time>2026-05-01T12:14:28.98Z</time></trkpt><trkpt lat="40.0229781" lon="15.8733925"><ele>775.0</ele><time>2026-05-01T12:14:29.98Z</time></trkpt><trkpt lat="40.0229894" lon="15.8732379"><ele>779.0</ele><time>2026-05-01T12:14:30.981Z</time></trkpt><trkpt lat="40.0230049" lon="15.8730943"><ele>783.0</ele><time>2026-05-01T12:14:31.981Z</time></trkpt><trkpt lat="40.0230324" lon="15.8729565"><ele>787.0</ele><time>2026-05-01T12:14:32.98Z</time></trkpt><trkpt lat="40.0230707" lon="15.8728211"><ele>787.0</ele><time>2026-05-01T12:14:33.98Z</time></trkpt><trkpt lat="40.0231291" lon="15.8726805"><ele>787.0</ele><time>2026-05-01T12:14:34.98Z</time></trkpt><trkpt lat="40.0231985" lon="15.8725406"><ele>787.0</ele><time>2026-05-01T12:14:35.98Z</time></trkpt><trkpt lat="40.0232745" lon="15.8723942"><ele>787.0</ele><time>2026-05-01T12:14:36.981Z</time></trkpt><trkpt lat="40.0233492" lon="15.8722416"><ele>779.0</ele><time>2026-05-01T12:14:37.98Z</time></trkpt><trkpt lat="40.0234241" lon="15.8720814"><ele>771.0</ele><time>2026-05-01T12:14:38.98Z</time></trkpt><trkpt lat="40.0235009" lon="15.871917"><ele>763.0</ele><time>2026-05-01T12:14:39.981Z</time></trkpt><trkpt lat="40.0235778" lon="15.8717623"><ele>755.0</ele><time>2026-05-01T12:14:40.98Z</time></trkpt><trkpt lat="40.0236484" lon="15.8716148"><ele>755.0</ele><time>2026-05-01T12:14:41.98Z</time></trkpt><trkpt lat="40.023719" lon="15.8714683"><ele>755.0</ele><time>2026-05-01T12:14:42.98Z</time></trkpt><trkpt lat="40.0237806" lon="15.8713126"><ele>755.0</ele><time>2026-05-01T12:14:43.981Z</time></trkpt><trkpt lat="40.0238348" lon="15.8711535"><ele>755.0</ele><time>2026-05-01T12:14:44.98Z</time></trkpt><trkpt lat="40.0238831" lon="15.8710027"><ele>757.4</ele><time>2026-05-01T12:14:45.98Z</time></trkpt><trkpt lat="40.0239249" lon="15.8708647"><ele>759.8</ele><time>2026-05-01T12:14:46.98Z</time></trkpt><trkpt lat="40.0239577" lon="15.870728"><ele>762.2</ele><time>2026-05-01T12:14:47.98Z</time></trkpt><trkpt lat="40.0239946" lon="15.870599"><ele>764.6</ele><time>2026-05-01T12:14:48.98Z</time></trkpt><trkpt lat="40.0240346" lon="15.8704746"><ele>767.0</ele><time>2026-05-01T12:14:49.98Z</time></trkpt><trkpt lat="40.0240937" lon="15.8703512"><ele>759.75</ele><time>2026-05-01T12:14:50.981Z</time></trkpt><trkpt lat="40.0241617" lon="15.8702384"><ele>752.5</ele><time>2026-05-01T12:14:51.98Z</time></trkpt><trkpt lat="40.0242471" lon="15.8701397"><ele>745.25</ele><time>2026-05-01T12:14:52.981Z</time></trkpt><trkpt lat="40.0243336" lon="15.8700452"><ele>738.0</ele><time>2026-05-01T12:14:53.98Z</time></trkpt><trkpt lat="40.0244207" lon="15.8699439"><ele>738.0</ele><time>2026-05-01T12:14:54.98Z</time></trkpt><trkpt lat="40.0244992" lon="15.8698508"><ele>738.0</ele><time>2026-05-01T12:14:55.98Z</time></trkpt><trkpt lat="40.0245726" lon="15.8697554"><ele>738.0</ele><time>2026-05-01T12:14:56.98Z</time></trkpt><trkpt lat="40.0246427" lon="15.8696591"><ele>738.0</ele><time>2026-05-01T12:14:57.98Z</time></trkpt><trkpt lat="40.0247189" lon="15.8695599"><ele>738.0</ele><time>2026-05-01T12:14:58.981Z</time></trkpt><trkpt lat="40.0247997" lon="15.86946"><ele>738.0</ele><time>2026-05-01T12:14:59.981Z</time></trkpt><trkpt lat="40.0248788" lon="15.8693558"><ele>738.0</ele><time>2026-05-01T12:15:00.981Z</time></trkpt><trkpt lat="40.024957" lon="15.8692467"><ele>738.0</ele><time>2026-05-01T12:15:01.98Z</time></trkpt><trkpt lat="40.0250302" lon="15.8691456"><ele>738.0</ele><time>2026-05-01T12:15:02.981Z</time></trkpt><trkpt lat="40.0251054" lon="15.869044"><ele>738.0</ele><time>2026-05-01T12:15:03.98Z</time></trkpt><trkpt lat="40.0251811" lon="15.8689446"><ele>737.5999999999999</ele><time>2026-05-01T12:15:04.98Z</time></trkpt><trkpt lat="40.0252518" lon="15.868841"><ele>737.1999999999999</ele><time>2026-05-01T12:15:05.98Z</time></trkpt><trkpt lat="40.0253119" lon="15.8687333"><ele>736.8</ele><time>2026-05-01T12:15:06.98Z</time></trkpt><trkpt lat="40.02536" lon="15.8686205"><ele>736.4</ele><time>2026-05-01T12:15:07.98Z</time></trkpt><trkpt lat="40.0254018" lon="15.8684975"><ele>736.0</ele><time>2026-05-01T12:15:08.981Z</time></trkpt><trkpt lat="40.0254449" lon="15.8683642"><ele>736.0</ele><time>2026-05-01T12:15:09.98Z</time></trkpt><trkpt lat="40.0254916" lon="15.8682343"><ele>736.0</ele><time>2026-05-01T12:15:10.98Z</time></trkpt><trkpt lat="40.0255406" lon="15.8681024"><ele>736.0</ele><time>2026-05-01T12:15:11.981Z</time></trkpt><trkpt lat="40.0255881" lon="15.8679674"><ele>736.0</ele><time>2026-05-01T12:15:12.98Z</time></trkpt><trkpt lat="40.0256436" lon="15.8678336"><ele>736.0</ele><time>2026-05-01T12:15:13.98Z</time></trkpt><trkpt lat="40.0257049" lon="15.8677089"><ele>736.0</ele><time>2026-05-01T12:15:14.98Z</time></trkpt><trkpt lat="40.0257826" lon="15.8676108"><ele>736.0</ele><time>2026-05-01T12:15:15.98Z</time></trkpt><trkpt lat="40.0258815" lon="15.8675254"><ele>736.0</ele><time>2026-05-01T12:15:16.98Z</time></trkpt><trkpt lat="40.0259895" lon="15.8674528"><ele>733.75</ele><time>2026-05-01T12:15:17.981Z</time></trkpt><trkpt lat="40.0260953" lon="15.8673775"><ele>731.5</ele><time>2026-05-01T12:15:18.981Z</time></trkpt><trkpt lat="40.0261973" lon="15.8672992"><ele>729.25</ele><time>2026-05-01T12:15:19.98Z</time></trkpt><trkpt lat="40.0262981" lon="15.8672206"><ele>727.0</ele><time>2026-05-01T12:15:20.98Z</time></trkpt><trkpt lat="40.0263971" lon="15.8671435"><ele>727.0</ele><time>2026-05-01T12:15:21.98Z</time></trkpt><trkpt lat="40.026495" lon="15.8670638"><ele>727.0</ele><time>2026-05-01T12:15:22.98Z</time></trkpt><trkpt lat="40.0265872" lon="15.8669953"><ele>727.0</ele><time>2026-05-01T12:15:23.98Z</time></trkpt><trkpt lat="40.0266741" lon="15.8669275"><ele>727.0</ele><time>2026-05-01T12:15:24.981Z</time></trkpt><trkpt lat="40.0267598" lon="15.8668654"><ele>727.0</ele><time>2026-05-01T12:15:25.981Z</time></trkpt><trkpt lat="40.0268353" lon="15.8668121"><ele>726.5</ele><time>2026-05-01T12:15:26.98Z</time></trkpt><trkpt lat="40.0269043" lon="15.8667644"><ele>726.0</ele><time>2026-05-01T12:15:27.98Z</time></trkpt><trkpt lat="40.0269696" lon="15.866712"><ele>725.5</ele><time>2026-05-01T12:15:28.981Z</time></trkpt><trkpt lat="40.0270345" lon="15.866661"><ele>725.0</ele><time>2026-05-01T12:15:29.981Z</time></trkpt><trkpt lat="40.027111" lon="15.8666273"><ele>724.5</ele><time>2026-05-01T12:15:30.98Z</time></trkpt><trkpt lat="40.0271961" lon="15.8666068"><ele>724.0</ele><time>2026-05-01T12:15:31.981Z</time></trkpt><trkpt lat="40.0272859" lon="15.8666042"><ele>724.0</ele><time>2026-05-01T12:15:32.98Z</time></trkpt><trkpt lat="40.0273749" lon="15.8666052"><ele>724.0</ele><time>2026-05-01T12:15:33.98Z</time></trkpt><trkpt lat="40.0274572" lon="15.8666042"><ele>724.0</ele><time>2026-05-01T12:15:34.981Z</time></trkpt><trkpt lat="40.0275353" lon="15.8665975"><ele>724.0</ele><time>2026-05-01T12:15:35.981Z</time></trkpt><trkpt lat="40.0276147" lon="15.8665709"><ele>724.0</ele><time>2026-05-01T12:15:36.98Z</time></trkpt><trkpt lat="40.0276977" lon="15.8665274"><ele>724.0</ele><time>2026-05-01T12:15:37.98Z</time></trkpt><trkpt lat="40.0277765" lon="15.866454"><ele>723.6</ele><time>2026-05-01T12:15:38.98Z</time></trkpt><trkpt lat="40.027846" lon="15.8663612"><ele>723.2</ele><time>2026-05-01T12:15:39.98Z</time></trkpt><trkpt lat="40.0279086" lon="15.8662453"><ele>722.8000000000001</ele><time>2026-05-01T12:15:40.981Z</time></trkpt><trkpt lat="40.0279631" lon="15.8661149"><ele>722.4000000000001</ele><time>2026-05-01T12:15:41.981Z</time></trkpt><trkpt lat="40.0280079" lon="15.8659689"><ele>722.0</ele><time>2026-05-01T12:15:42.98Z</time></trkpt><trkpt lat="40.0280497" lon="15.865816"><ele>722.0</ele><time>2026-05-01T12:15:43.98Z</time></trkpt><trkpt lat="40.028091" lon="15.8656687"><ele>722.0</ele><time>2026-05-01T12:15:44.98Z</time></trkpt><trkpt lat="40.0281311" lon="15.8655202"><ele>722.0</ele><time>2026-05-01T12:15:45.98Z</time></trkpt><trkpt lat="40.0281711" lon="15.8653726"><ele>722.0</ele><time>2026-05-01T12:15:46.98Z</time></trkpt><trkpt lat="40.0282184" lon="15.8652247"><ele>722.8</ele><time>2026-05-01T12:15:47.98Z</time></trkpt><trkpt lat="40.0282654" lon="15.8650903"><ele>723.6</ele><time>2026-05-01T12:15:48.98Z</time></trkpt><trkpt lat="40.0283178" lon="15.8649662"><ele>724.4</ele><time>2026-05-01T12:15:49.98Z</time></trkpt><trkpt lat="40.0283789" lon="15.8648524"><ele>725.1999999999999</ele><time>2026-05-01T12:15:50.98Z</time></trkpt><trkpt lat="40.02845" lon="15.8647546"><ele>726.0</ele><time>2026-05-01T12:15:51.981Z</time></trkpt><trkpt lat="40.0285362" lon="15.8646803"><ele>722.0</ele><time>2026-05-01T12:15:52.981Z</time></trkpt><trkpt lat="40.0286451" lon="15.8646207"><ele>718.0</ele><time>2026-05-01T12:15:53.98Z</time></trkpt><trkpt lat="40.0287659" lon="15.8645769"><ele>714.0</ele><time>2026-05-01T12:15:54.98Z</time></trkpt><trkpt lat="40.0288962" lon="15.8645415"><ele>710.0</ele><time>2026-05-01T12:15:55.98Z</time></trkpt><trkpt lat="40.0290303" lon="15.864501"><ele>707.5</ele><time>2026-05-01T12:15:56.98Z</time></trkpt><trkpt lat="40.0291608" lon="15.8644643"><ele>705.0</ele><time>2026-05-01T12:15:57.981Z</time></trkpt><trkpt lat="40.029287" lon="15.8644163"><ele>702.5</ele><time>2026-05-01T12:15:58.981Z</time></trkpt><trkpt lat="40.029408" lon="15.8643686"><ele>700.0</ele><time>2026-05-01T12:15:59.98Z</time></trkpt><trkpt lat="40.029524" lon="15.8643208"><ele>702.0</ele><time>2026-05-01T12:16:00.981Z</time></trkpt><trkpt lat="40.0296364" lon="15.8642719"><ele>704.0</ele><time>2026-05-01T12:16:01.98Z</time></trkpt><trkpt lat="40.0297451" lon="15.86421"><ele>706.0</ele><time>2026-05-01T12:16:02.98Z</time></trkpt><trkpt lat="40.0298576" lon="15.8641374"><ele>708.0</ele><time>2026-05-01T12:16:03.981Z</time></trkpt><trkpt lat="40.0299665" lon="15.8640518"><ele>705.75</ele><time>2026-05-01T12:16:04.981Z</time></trkpt><trkpt lat="40.0300717" lon="15.863971"><ele>703.5</ele><time>2026-05-01T12:16:05.98Z</time></trkpt><trkpt lat="40.0301712" lon="15.863894"><ele>701.25</ele><time>2026-05-01T12:16:06.98Z</time></trkpt><trkpt lat="40.0302707" lon="15.8638273"><ele>699.0</ele><time>2026-05-01T12:16:07.98Z</time></trkpt><trkpt lat="40.0303732" lon="15.8637688"><ele>699.0</ele><time>2026-05-01T12:16:08.98Z</time></trkpt><trkpt lat="40.0304767" lon="15.8637274"><ele>699.0</ele><time>2026-05-01T12:16:09.98Z</time></trkpt><trkpt lat="40.0305839" lon="15.8636854"><ele>699.0</ele><time>2026-05-01T12:16:10.98Z</time></trkpt><trkpt lat="40.0306865" lon="15.863647"><ele>699.0</ele><time>2026-05-01T12:16:11.981Z</time></trkpt><trkpt lat="40.0307842" lon="15.8636105"><ele>699.0</ele><time>2026-05-01T12:16:12.981Z</time></trkpt><trkpt lat="40.0308641" lon="15.8635683"><ele>699.0</ele><time>2026-05-01T12:16:13.98Z</time></trkpt><trkpt lat="40.0309217" lon="15.8635136"><ele>699.0</ele><time>2026-05-01T12:16:14.98Z</time></trkpt><trkpt lat="40.0309671" lon="15.8634363"><ele>699.0</ele><time>2026-05-01T12:16:15.981Z</time></trkpt><trkpt lat="40.0309898" lon="15.8633441"><ele>699.0</ele><time>2026-05-01T12:16:16.981Z</time></trkpt><trkpt lat="40.0309881" lon="15.8632442"><ele>699.0</ele><time>2026-05-01T12:16:17.98Z</time></trkpt><trkpt lat="40.0309624" lon="15.8631492"><ele>699.0</ele><time>2026-05-01T12:16:18.98Z</time></trkpt><trkpt lat="40.0309058" lon="15.8630637"><ele>699.0</ele><time>2026-05-01T12:16:19.98Z</time></trkpt><trkpt lat="40.0308243" lon="15.8629843"><ele>699.0</ele><time>2026-05-01T12:16:20.981Z</time></trkpt><trkpt lat="40.0307311" lon="15.8629036"><ele>699.0</ele><time>2026-05-01T12:16:21.98Z</time></trkpt><trkpt lat="40.0306296" lon="15.8628171"><ele>699.0</ele><time>2026-05-01T12:16:22.98Z</time></trkpt><trkpt lat="40.0305392" lon="15.862731"><ele>699.0</ele><time>2026-05-01T12:16:23.981Z</time></trkpt><trkpt lat="40.0304522" lon="15.8626407"><ele>698.0</ele><time>2026-05-01T12:16:24.98Z</time></trkpt><trkpt lat="40.0303693" lon="15.8625521"><ele>697.0</ele><time>2026-05-01T12:16:25.98Z</time></trkpt><trkpt lat="40.0302981" lon="15.8624647"><ele>696.0</ele><time>2026-05-01T12:16:26.98Z</time></trkpt><trkpt lat="40.0302398" lon="15.8623728"><ele>695.0</ele><time>2026-05-01T12:16:27.981Z</time></trkpt><trkpt lat="40.0301999" lon="15.8622602"><ele>694.0</ele><time>2026-05-01T12:16:28.98Z</time></trkpt><trkpt lat="40.0302007" lon="15.8621363"><ele>694.0</ele><time>2026-05-01T12:16:29.98Z</time></trkpt><trkpt lat="40.0302334" lon="15.862025"><ele>694.0</ele><time>2026-05-01T12:16:30.98Z</time></trkpt><trkpt lat="40.0302956" lon="15.8619414"><ele>694.0</ele><time>2026-05-01T12:16:31.98Z</time></trkpt><trkpt lat="40.0303653" lon="15.8618807"><ele>694.0</ele><time>2026-05-01T12:16:32.98Z</time></trkpt><trkpt lat="40.0304355" lon="15.8618628"><ele>694.0</ele><time>2026-05-01T12:16:33.98Z</time></trkpt><trkpt lat="40.0305168" lon="15.8618837"><ele>694.0</ele><time>2026-05-01T12:16:34.98Z</time></trkpt><trkpt lat="40.03061" lon="15.861953"><ele>694.0</ele><time>2026-05-01T12:16:35.98Z</time></trkpt><trkpt lat="40.0307107" lon="15.8620498"><ele>694.0</ele><time>2026-05-01T12:16:36.98Z</time></trkpt><trkpt lat="40.0307915" lon="15.8621578"><ele>694.0</ele><time>2026-05-01T12:16:37.981Z</time></trkpt><trkpt lat="40.0308664" lon="15.8622875"><ele>694.0</ele><time>2026-05-01T12:16:38.98Z</time></trkpt><trkpt lat="40.0309383" lon="15.8624053"><ele>693.4000000000001</ele><time>2026-05-01T12:16:39.98Z</time></trkpt><trkpt lat="40.0310079" lon="15.8625096"><ele>692.8</ele><time>2026-05-01T12:16:40.98Z</time></trkpt><trkpt lat="40.0310718" lon="15.862601"><ele>692.2</ele><time>2026-05-01T12:16:41.98Z</time></trkpt><trkpt lat="40.0311403" lon="15.8626725"><ele>691.5999999999999</ele><time>2026-05-01T12:16:42.981Z</time></trkpt><trkpt lat="40.0312204" lon="15.8627156"><ele>691.0</ele><time>2026-05-01T12:16:43.98Z</time></trkpt><trkpt lat="40.0313076" lon="15.8627315"><ele>691.0</ele><time>2026-05-01T12:16:44.98Z</time></trkpt><trkpt lat="40.0313974" lon="15.8627116"><ele>691.0</ele><time>2026-05-01T12:16:45.98Z</time></trkpt><trkpt lat="40.0314877" lon="15.8626627"><ele>691.0</ele><time>2026-05-01T12:16:46.98Z</time></trkpt><trkpt lat="40.0315757" lon="15.862594"><ele>691.0</ele><time>2026-05-01T12:16:47.98Z</time></trkpt><trkpt lat="40.0316667" lon="15.862521"><ele>691.0</ele><time>2026-05-01T12:16:48.981Z</time></trkpt><trkpt lat="40.0317573" lon="15.8624592"><ele>690.4</ele><time>2026-05-01T12:16:49.981Z</time></trkpt><trkpt lat="40.0318461" lon="15.8624045"><ele>689.8</ele><time>2026-05-01T12:16:50.981Z</time></trkpt><trkpt lat="40.0319216" lon="15.8623461"><ele>689.1999999999999</ele><time>2026-05-01T12:16:51.98Z</time></trkpt><trkpt lat="40.0319835" lon="15.8622959"><ele>688.5999999999999</ele><time>2026-05-01T12:16:52.98Z</time></trkpt><trkpt lat="40.0320481" lon="15.8621853"><ele>688.0</ele><time>2026-05-01T12:16:54.98Z</time></trkpt><trkpt lat="40.0320217" lon="15.8620691"><ele>688.0</ele><time>2026-05-01T12:16:56.98Z</time></trkpt><trkpt lat="40.031936" lon="15.8619922"><ele>688.0</ele><time>2026-05-01T12:16:58.981Z</time></trkpt><trkpt lat="40.0318764" lon="15.8619631"><ele>688.0</ele><time>2026-05-01T12:16:59.98Z</time></trkpt><trkpt lat="40.0318068" lon="15.8619395"><ele>688.0</ele><time>2026-05-01T12:17:00.981Z</time></trkpt><trkpt lat="40.0317359" lon="15.8619131"><ele>688.0</ele><time>2026-05-01T12:17:01.981Z</time></trkpt><trkpt lat="40.031664" lon="15.861881"><ele>688.0</ele><time>2026-05-01T12:17:02.98Z</time></trkpt><trkpt lat="40.0315949" lon="15.8618492"><ele>688.5</ele><time>2026-05-01T12:17:03.981Z</time></trkpt><trkpt lat="40.0315196" lon="15.8618062"><ele>689.0</ele><time>2026-05-01T12:17:04.98Z</time></trkpt><trkpt lat="40.031444" lon="15.8617627"><ele>689.5</ele><time>2026-05-01T12:17:05.98Z</time></trkpt><trkpt lat="40.0313713" lon="15.8617076"><ele>690.0</ele><time>2026-05-01T12:17:06.98Z</time></trkpt><trkpt lat="40.0313025" lon="15.8616379"><ele>690.5</ele><time>2026-05-01T12:17:07.98Z</time></trkpt><trkpt lat="40.0312358" lon="15.8615592"><ele>691.0</ele><time>2026-05-01T12:17:08.98Z</time></trkpt><trkpt lat="40.0311824" lon="15.861467"><ele>689.3333333333334</ele><time>2026-05-01T12:17:09.98Z</time></trkpt><trkpt lat="40.0311409" lon="15.8613784"><ele>687.6666666666667</ele><time>2026-05-01T12:17:10.98Z</time></trkpt><trkpt lat="40.0310971" lon="15.8612914"><ele>686.0</ele><time>2026-05-01T12:17:11.98Z</time></trkpt><trkpt lat="40.0310578" lon="15.8612054"><ele>684.3333333333334</ele><time>2026-05-01T12:17:12.981Z</time></trkpt><trkpt lat="40.0310184" lon="15.8611205"><ele>682.6666666666666</ele><time>2026-05-01T12:17:13.98Z</time></trkpt><trkpt lat="40.0309757" lon="15.8610365"><ele>681.0</ele><time>2026-05-01T12:17:14.98Z</time></trkpt><trkpt lat="40.030928" lon="15.8609475"><ele>680.1428571428572</ele><time>2026-05-01T12:17:15.98Z</time></trkpt><trkpt lat="40.030887" lon="15.860859"><ele>679.2857142857143</ele><time>2026-05-01T12:17:16.98Z</time></trkpt><trkpt lat="40.0308502" lon="15.8607756"><ele>678.4285714285714</ele><time>2026-05-01T12:17:17.981Z</time></trkpt><trkpt lat="40.0308203" lon="15.8606971"><ele>677.5714285714287</ele><time>2026-05-01T12:17:18.98Z</time></trkpt><trkpt lat="40.0307836" lon="15.8606233"><ele>676.7142857142858</ele><time>2026-05-01T12:17:19.98Z</time></trkpt><trkpt lat="40.0307486" lon="15.8605511"><ele>675.8571428571429</ele><time>2026-05-01T12:17:20.98Z</time></trkpt><trkpt lat="40.0307122" lon="15.8604784"><ele>675.0</ele><time>2026-05-01T12:17:21.98Z</time></trkpt><trkpt lat="40.0306701" lon="15.8603961"><ele>675.0</ele><time>2026-05-01T12:17:22.981Z</time></trkpt><trkpt lat="40.0306248" lon="15.8603024"><ele>675.0</ele><time>2026-05-01T12:17:23.98Z</time></trkpt><trkpt lat="40.0305719" lon="15.8601995"><ele>675.0</ele><time>2026-05-01T12:17:24.98Z</time></trkpt><trkpt lat="40.0305149" lon="15.860111"><ele>675.0</ele><time>2026-05-01T12:17:25.981Z</time></trkpt><trkpt lat="40.0304421" lon="15.860037"><ele>675.0</ele><time>2026-05-01T12:17:26.98Z</time></trkpt><trkpt lat="40.0303532" lon="15.8599878"><ele>674.0</ele><time>2026-05-01T12:17:27.981Z</time></trkpt><trkpt lat="40.0302582" lon="15.8599715"><ele>673.0</ele><time>2026-05-01T12:17:28.981Z</time></trkpt><trkpt lat="40.0301611" lon="15.8599912"><ele>672.0</ele><time>2026-05-01T12:17:29.98Z</time></trkpt><trkpt lat="40.0300611" lon="15.8600369"><ele>671.0</ele><time>2026-05-01T12:17:30.981Z</time></trkpt><trkpt lat="40.0299627" lon="15.8600949"><ele>670.0</ele><time>2026-05-01T12:17:31.98Z</time></trkpt><trkpt lat="40.0298661" lon="15.8601595"><ele>670.0</ele><time>2026-05-01T12:17:32.981Z</time></trkpt><trkpt lat="40.0297663" lon="15.860222"><ele>670.0</ele><time>2026-05-01T12:17:33.981Z</time></trkpt><trkpt lat="40.0296683" lon="15.8602655"><ele>670.0</ele><time>2026-05-01T12:17:34.981Z</time></trkpt><trkpt lat="40.0295661" lon="15.8602753"><ele>670.0</ele><time>2026-05-01T12:17:35.98Z</time></trkpt><trkpt lat="40.0294656" lon="15.8602466"><ele>670.0</ele><time>2026-05-01T12:17:36.98Z</time></trkpt><trkpt lat="40.0293733" lon="15.8601806"><ele>668.8</ele><time>2026-05-01T12:17:37.98Z</time></trkpt><trkpt lat="40.0292981" lon="15.8601008"><ele>667.6</ele><time>2026-05-01T12:17:38.98Z</time></trkpt><trkpt lat="40.0292256" lon="15.8600158"><ele>666.4000000000001</ele><time>2026-05-01T12:17:39.98Z</time></trkpt><trkpt lat="40.0291485" lon="15.8599239"><ele>665.2</ele><time>2026-05-01T12:17:40.98Z</time></trkpt><trkpt lat="40.0290785" lon="15.8598272"><ele>664.0</ele><time>2026-05-01T12:17:41.98Z</time></trkpt><trkpt lat="40.0290059" lon="15.8597252"><ele>664.0</ele><time>2026-05-01T12:17:42.98Z</time></trkpt><trkpt lat="40.0289512" lon="15.8596101"><ele>664.0</ele><time>2026-05-01T12:17:43.98Z</time></trkpt><trkpt lat="40.0289202" lon="15.8594885"><ele>664.0</ele><time>2026-05-01T12:17:44.98Z</time></trkpt><trkpt lat="40.0289171" lon="15.859353"><ele>664.0</ele><time>2026-05-01T12:17:45.981Z</time></trkpt><trkpt lat="40.0289349" lon="15.8592131"><ele>664.0</ele><time>2026-05-01T12:17:46.98Z</time></trkpt><trkpt lat="40.0289536" lon="15.8590661"><ele>663.75</ele><time>2026-05-01T12:17:47.981Z</time></trkpt><trkpt lat="40.0289497" lon="15.8589082"><ele>663.5</ele><time>2026-05-01T12:17:48.981Z</time></trkpt><trkpt lat="40.0289252" lon="15.8587486"><ele>663.25</ele><time>2026-05-01T12:17:49.98Z</time></trkpt><trkpt lat="40.0288807" lon="15.8585975"><ele>663.0</ele><time>2026-05-01T12:17:50.981Z</time></trkpt><trkpt lat="40.028823" lon="15.8584527"><ele>662.0</ele><time>2026-05-01T12:17:51.98Z</time></trkpt><trkpt lat="40.0287546" lon="15.8583126"><ele>661.0</ele><time>2026-05-01T12:17:52.98Z</time></trkpt><trkpt lat="40.0286767" lon="15.8581803"><ele>660.0</ele><time>2026-05-01T12:17:53.98Z</time></trkpt><trkpt lat="40.0286068" lon="15.8580531"><ele>659.0</ele><time>2026-05-01T12:17:54.98Z</time></trkpt><trkpt lat="40.0285459" lon="15.857931"><ele>659.0</ele><time>2026-05-01T12:17:55.98Z</time></trkpt><trkpt lat="40.0284869" lon="15.8578075"><ele>659.0</ele><time>2026-05-01T12:17:56.981Z</time></trkpt><trkpt lat="40.0284303" lon="15.8576839"><ele>659.0</ele><time>2026-05-01T12:17:57.981Z</time></trkpt><trkpt lat="40.0283805" lon="15.8575635"><ele>659.0</ele><time>2026-05-01T12:17:58.98Z</time></trkpt><trkpt lat="40.0283435" lon="15.8574404"><ele>659.0</ele><time>2026-05-01T12:17:59.98Z</time></trkpt><trkpt lat="40.0283157" lon="15.8573079"><ele>659.4000000000001</ele><time>2026-05-01T12:18:00.98Z</time></trkpt><trkpt lat="40.028298" lon="15.8571726"><ele>659.8</ele><time>2026-05-01T12:18:01.981Z</time></trkpt><trkpt lat="40.0282819" lon="15.8570304"><ele>660.2</ele><time>2026-05-01T12:18:02.981Z</time></trkpt><trkpt lat="40.0282518" lon="15.8568887"><ele>660.5999999999999</ele><time>2026-05-01T12:18:03.98Z</time></trkpt><trkpt lat="40.0282134" lon="15.8567384"><ele>661.0</ele><time>2026-05-01T12:18:04.98Z</time></trkpt><trkpt lat="40.0281578" lon="15.8565825"><ele>661.0</ele><time>2026-05-01T12:18:05.98Z</time></trkpt><trkpt lat="40.0280834" lon="15.856436"><ele>661.0</ele><time>2026-05-01T12:18:06.981Z</time></trkpt><trkpt lat="40.0280067" lon="15.8562909"><ele>661.0</ele><time>2026-05-01T12:18:07.98Z</time></trkpt><trkpt lat="40.0279454" lon="15.8561397"><ele>661.0</ele><time>2026-05-01T12:18:08.98Z</time></trkpt><trkpt lat="40.0278993" lon="15.8559873"><ele>657.25</ele><time>2026-05-01T12:18:09.98Z</time></trkpt><trkpt lat="40.0278849" lon="15.8558271"><ele>653.5</ele><time>2026-05-01T12:18:10.981Z</time></trkpt><trkpt lat="40.0278964" lon="15.8556663"><ele>649.75</ele><time>2026-05-01T12:18:11.981Z</time></trkpt><trkpt lat="40.0279066" lon="15.8555219"><ele>646.0</ele><time>2026-05-01T12:18:12.981Z</time></trkpt><trkpt lat="40.0278897" lon="15.8553992"><ele>646.0</ele><time>2026-05-01T12:18:13.98Z</time></trkpt><trkpt lat="40.0278502" lon="15.8552918"><ele>646.0</ele><time>2026-05-01T12:18:14.981Z</time></trkpt><trkpt lat="40.0277925" lon="15.8551968"><ele>646.0</ele><time>2026-05-01T12:18:15.98Z</time></trkpt><trkpt lat="40.0277137" lon="15.8551182"><ele>646.0</ele><time>2026-05-01T12:18:16.981Z</time></trkpt><trkpt lat="40.0276247" lon="15.8550476"><ele>646.0</ele><time>2026-05-01T12:18:17.98Z</time></trkpt><trkpt lat="40.0275286" lon="15.8549819"><ele>644.75</ele><time>2026-05-01T12:18:18.98Z</time></trkpt><trkpt lat="40.0274406" lon="15.8549006"><ele>643.5</ele><time>2026-05-01T12:18:19.98Z</time></trkpt><trkpt lat="40.0273616" lon="15.8547941"><ele>642.25</ele><time>2026-05-01T12:18:20.98Z</time></trkpt><trkpt lat="40.0272868" lon="15.8546633"><ele>641.0</ele><time>2026-05-01T12:18:21.98Z</time></trkpt><trkpt lat="40.0272257" lon="15.8545226"><ele>641.0</ele><time>2026-05-01T12:18:22.98Z</time></trkpt><trkpt lat="40.0271643" lon="15.8543769"><ele>641.0</ele><time>2026-05-01T12:18:23.98Z</time></trkpt><trkpt lat="40.0271098" lon="15.8542337"><ele>641.0</ele><time>2026-05-01T12:18:24.98Z</time></trkpt><trkpt lat="40.0270654" lon="15.8540895"><ele>641.0</ele><time>2026-05-01T12:18:25.98Z</time></trkpt><trkpt lat="40.0270346" lon="15.85395"><ele>638.75</ele><time>2026-05-01T12:18:26.98Z</time></trkpt><trkpt lat="40.0270152" lon="15.8538019"><ele>636.5</ele><time>2026-05-01T12:18:27.98Z</time></trkpt><trkpt lat="40.0270141" lon="15.8536471"><ele>634.25</ele><time>2026-05-01T12:18:28.981Z</time></trkpt><trkpt lat="40.0270215" lon="15.8534899"><ele>632.0</ele><time>2026-05-01T12:18:29.98Z</time></trkpt><trkpt lat="40.0270272" lon="15.8533442"><ele>631.5</ele><time>2026-05-01T12:18:30.981Z</time></trkpt><trkpt lat="40.0270283" lon="15.8532029"><ele>631.0</ele><time>2026-05-01T12:18:31.98Z</time></trkpt><trkpt lat="40.0270149" lon="15.8530578"><ele>630.5</ele><time>2026-05-01T12:18:32.98Z</time></trkpt><trkpt lat="40.0269933" lon="15.8529107"><ele>630.0</ele><time>2026-05-01T12:18:33.98Z</time></trkpt><trkpt lat="40.0269557" lon="15.8527628"><ele>628.0</ele><time>2026-05-01T12:18:34.98Z</time></trkpt><trkpt lat="40.0269137" lon="15.8526136"><ele>626.0</ele><time>2026-05-01T12:18:35.98Z</time></trkpt><trkpt lat="40.0268828" lon="15.852469"><ele>624.0</ele><time>2026-05-01T12:18:36.98Z</time></trkpt><trkpt lat="40.0268828" lon="15.8523307"><ele>622.0</ele><time>2026-05-01T12:18:37.981Z</time></trkpt><trkpt lat="40.0269118" lon="15.8521976"><ele>620.0</ele><time>2026-05-01T12:18:38.98Z</time></trkpt><trkpt lat="40.0269564" lon="15.8520591"><ele>620.0</ele><time>2026-05-01T12:18:39.98Z</time></trkpt><trkpt lat="40.0270053" lon="15.8519213"><ele>620.0</ele><time>2026-05-01T12:18:40.981Z</time></trkpt><trkpt lat="40.0270413" lon="15.8517898"><ele>620.0</ele><time>2026-05-01T12:18:41.98Z</time></trkpt><trkpt lat="40.0270542" lon="15.8516514"><ele>620.0</ele><time>2026-05-01T12:18:42.981Z</time></trkpt><trkpt lat="40.0270399" lon="15.8515099"><ele>620.0</ele><time>2026-05-01T12:18:43.98Z</time></trkpt><trkpt lat="40.0270079" lon="15.8513639"><ele>618.25</ele><time>2026-05-01T12:18:44.981Z</time></trkpt><trkpt lat="40.0269664" lon="15.8512085"><ele>616.5</ele><time>2026-05-01T12:18:45.98Z</time></trkpt><trkpt lat="40.0269195" lon="15.851053"><ele>614.75</ele><time>2026-05-01T12:18:46.98Z</time></trkpt><trkpt lat="40.026881" lon="15.8508989"><ele>613.0</ele><time>2026-05-01T12:18:47.98Z</time></trkpt><trkpt lat="40.0268402" lon="15.8507462"><ele>610.0</ele><time>2026-05-01T12:18:48.981Z</time></trkpt><trkpt lat="40.0267997" lon="15.8505963"><ele>607.0</ele><time>2026-05-01T12:18:49.981Z</time></trkpt><trkpt lat="40.0267675" lon="15.8504462"><ele>604.0</ele><time>2026-05-01T12:18:50.981Z</time></trkpt><trkpt lat="40.0267486" lon="15.8502997"><ele>601.0</ele><time>2026-05-01T12:18:51.981Z</time></trkpt><trkpt lat="40.0267328" lon="15.8501489"><ele>601.0</ele><time>2026-05-01T12:18:52.98Z</time></trkpt><trkpt lat="40.0267009" lon="15.8500102"><ele>601.0</ele><time>2026-05-01T12:18:53.981Z</time></trkpt><trkpt lat="40.0266519" lon="15.849886"><ele>601.0</ele><time>2026-05-01T12:18:54.98Z</time></trkpt><trkpt lat="40.0265825" lon="15.8497819"><ele>601.0</ele><time>2026-05-01T12:18:55.98Z</time></trkpt><trkpt lat="40.026496" lon="15.8496955"><ele>601.0</ele><time>2026-05-01T12:18:56.981Z</time></trkpt><trkpt lat="40.0264026" lon="15.8496165"><ele>601.0</ele><time>2026-05-01T12:18:57.981Z</time></trkpt><trkpt lat="40.0263215" lon="15.8495214"><ele>601.0</ele><time>2026-05-01T12:18:58.98Z</time></trkpt><trkpt lat="40.0262622" lon="15.8494063"><ele>601.0</ele><time>2026-05-01T12:18:59.981Z</time></trkpt><trkpt lat="40.0262153" lon="15.8492774"><ele>601.0</ele><time>2026-05-01T12:19:00.98Z</time></trkpt><trkpt lat="40.0261767" lon="15.8491514"><ele>601.0</ele><time>2026-05-01T12:19:01.981Z</time></trkpt><trkpt lat="40.026133" lon="15.8490299"><ele>597.6</ele><time>2026-05-01T12:19:02.981Z</time></trkpt><trkpt lat="40.0260803" lon="15.8489173"><ele>594.2</ele><time>2026-05-01T12:19:03.98Z</time></trkpt><trkpt lat="40.0260195" lon="15.8488179"><ele>590.8</ele><time>2026-05-01T12:19:04.98Z</time></trkpt><trkpt lat="40.0259429" lon="15.8487361"><ele>587.4</ele><time>2026-05-01T12:19:05.98Z</time></trkpt><trkpt lat="40.0258507" lon="15.8486834"><ele>584.0</ele><time>2026-05-01T12:19:06.98Z</time></trkpt><trkpt lat="40.0257529" lon="15.8486735"><ele>580.25</ele><time>2026-05-01T12:19:07.981Z</time></trkpt><trkpt lat="40.0256504" lon="15.8487131"><ele>576.5</ele><time>2026-05-01T12:19:08.98Z</time></trkpt><trkpt lat="40.0255482" lon="15.8487733"><ele>572.75</ele><time>2026-05-01T12:19:09.98Z</time></trkpt><trkpt lat="40.0254405" lon="15.848849"><ele>569.0</ele><time>2026-05-01T12:19:10.981Z</time></trkpt><trkpt lat="40.0253315" lon="15.8489227"><ele>569.0</ele><time>2026-05-01T12:19:11.98Z</time></trkpt><trkpt lat="40.0252299" lon="15.8490046"><ele>569.0</ele><time>2026-05-01T12:19:12.98Z</time></trkpt><trkpt lat="40.0251322" lon="15.849096"><ele>569.0</ele><time>2026-05-01T12:19:13.981Z</time></trkpt><trkpt lat="40.0250333" lon="15.8491867"><ele>569.0</ele><time>2026-05-01T12:19:14.981Z</time></trkpt><trkpt lat="40.0249298" lon="15.8492691"><ele>570.75</ele><time>2026-05-01T12:19:15.981Z</time></trkpt><trkpt lat="40.0248221" lon="15.8493354"><ele>572.5</ele><time>2026-05-01T12:19:16.98Z</time></trkpt><trkpt lat="40.0247081" lon="15.8493973"><ele>574.25</ele><time>2026-05-01T12:19:17.981Z</time></trkpt><trkpt lat="40.0245917" lon="15.8494497"><ele>576.0</ele><time>2026-05-01T12:19:18.981Z</time></trkpt><trkpt lat="40.0244834" lon="15.8495114"><ele>576.0</ele><time>2026-05-01T12:19:19.98Z</time></trkpt><trkpt lat="40.0243806" lon="15.8495813"><ele>576.0</ele><time>2026-05-01T12:19:20.98Z</time></trkpt><trkpt lat="40.0242856" lon="15.8496505"><ele>576.0</ele><time>2026-05-01T12:19:21.98Z</time></trkpt><trkpt lat="40.0241888" lon="15.849723"><ele>576.0</ele><time>2026-05-01T12:19:22.98Z</time></trkpt><trkpt lat="40.0240949" lon="15.8498011"><ele>576.0</ele><time>2026-05-01T12:19:23.98Z</time></trkpt><trkpt lat="40.0240018" lon="15.8498891"><ele>573.75</ele><time>2026-05-01T12:19:24.98Z</time></trkpt><trkpt lat="40.0239091" lon="15.8499863"><ele>571.5</ele><time>2026-05-01T12:19:25.98Z</time></trkpt><trkpt lat="40.0238154" lon="15.8500908"><ele>569.25</ele><time>2026-05-01T12:19:26.981Z</time></trkpt><trkpt lat="40.023729" lon="15.8501958"><ele>567.0</ele><time>2026-05-01T12:19:27.981Z</time></trkpt><trkpt lat="40.0236458" lon="15.8503116"><ele>567.0</ele><time>2026-05-01T12:19:28.981Z</time></trkpt><trkpt lat="40.0235597" lon="15.8504216"><ele>567.0</ele><time>2026-05-01T12:19:29.98Z</time></trkpt><trkpt lat="40.0234793" lon="15.8505425"><ele>567.0</ele><time>2026-05-01T12:19:30.98Z</time></trkpt><trkpt lat="40.0234129" lon="15.8506776"><ele>567.0</ele><time>2026-05-01T12:19:31.98Z</time></trkpt><trkpt lat="40.0233598" lon="15.8508072"><ele>567.0</ele><time>2026-05-01T12:19:32.98Z</time></trkpt><trkpt lat="40.023314" lon="15.8509328"><ele>567.0</ele><time>2026-05-01T12:19:33.98Z</time></trkpt><trkpt lat="40.0232735" lon="15.8510506"><ele>567.0</ele><time>2026-05-01T12:19:34.981Z</time></trkpt><trkpt lat="40.0232379" lon="15.8511652"><ele>567.0</ele><time>2026-05-01T12:19:35.98Z</time></trkpt><trkpt lat="40.0232003" lon="15.8512742"><ele>567.0</ele><time>2026-05-01T12:19:36.981Z</time></trkpt><trkpt lat="40.0231679" lon="15.8513793"><ele>566.8333333333334</ele><time>2026-05-01T12:19:37.98Z</time></trkpt><trkpt lat="40.0231337" lon="15.8514783"><ele>566.6666666666666</ele><time>2026-05-01T12:19:38.98Z</time></trkpt><trkpt lat="40.0230962" lon="15.8515632"><ele>566.5</ele><time>2026-05-01T12:19:39.981Z</time></trkpt><trkpt lat="40.0230543" lon="15.8516271"><ele>566.3333333333333</ele><time>2026-05-01T12:19:40.98Z</time></trkpt><trkpt lat="40.0229677" lon="15.851637"><ele>566.1666666666666</ele><time>2026-05-01T12:19:42.981Z</time></trkpt><trkpt lat="40.0229508" lon="15.8515264"><ele>566.0</ele><time>2026-05-01T12:19:44.98Z</time></trkpt><trkpt lat="40.0229917" lon="15.8514566"><ele>566.0</ele><time>2026-05-01T12:19:45.98Z</time></trkpt><trkpt lat="40.0230502" lon="15.8513678"><ele>566.0</ele><time>2026-05-01T12:19:46.98Z</time></trkpt><trkpt lat="40.02311" lon="15.8512712"><ele>566.0</ele><time>2026-05-01T12:19:47.98Z</time></trkpt><trkpt lat="40.0231583" lon="15.851165"><ele>566.0</ele><time>2026-05-01T12:19:48.98Z</time></trkpt><trkpt lat="40.0232003" lon="15.851058"><ele>566.0</ele><time>2026-05-01T12:19:49.98Z</time></trkpt><trkpt lat="40.0232439" lon="15.8509464"><ele>566.2</ele><time>2026-05-01T12:19:50.98Z</time></trkpt><trkpt lat="40.0232892" lon="15.8508316"><ele>566.4000000000001</ele><time>2026-05-01T12:19:51.981Z</time></trkpt><trkpt lat="40.0233323" lon="15.8507079"><ele>566.6</ele><time>2026-05-01T12:19:52.98Z</time></trkpt><trkpt lat="40.0233751" lon="15.8505846"><ele>566.8000000000001</ele><time>2026-05-01T12:19:53.98Z</time></trkpt><trkpt lat="40.0234255" lon="15.8504601"><ele>567.0</ele><time>2026-05-01T12:19:54.981Z</time></trkpt><trkpt lat="40.0234892" lon="15.8503334"><ele>567.0</ele><time>2026-05-01T12:19:55.98Z</time></trkpt><trkpt lat="40.0235647" lon="15.8502127"><ele>567.0</ele><time>2026-05-01T12:19:56.98Z</time></trkpt><trkpt lat="40.023652" lon="15.850095"><ele>567.0</ele><time>2026-05-01T12:19:57.98Z</time></trkpt><trkpt lat="40.023741" lon="15.8499756"><ele>567.0</ele><time>2026-05-01T12:19:58.98Z</time></trkpt><trkpt lat="40.0238371" lon="15.849864"><ele>569.25</ele><time>2026-05-01T12:19:59.98Z</time></trkpt><trkpt lat="40.0239285" lon="15.8497477"><ele>571.5</ele><time>2026-05-01T12:20:00.981Z</time></trkpt><trkpt lat="40.0240225" lon="15.8496326"><ele>573.75</ele><time>2026-05-01T12:20:01.98Z</time></trkpt><trkpt lat="40.0241244" lon="15.8495046"><ele>576.0</ele><time>2026-05-01T12:20:02.981Z</time></trkpt><trkpt lat="40.0242419" lon="15.8493749"><ele>567.6666666666666</ele><time>2026-05-01T12:20:03.981Z</time></trkpt><trkpt lat="40.0243789" lon="15.8492465"><ele>559.3333333333333</ele><time>2026-05-01T12:20:04.98Z</time></trkpt><trkpt lat="40.024526" lon="15.8491124"><ele>551.0</ele><time>2026-05-01T12:20:05.981Z</time></trkpt><trkpt lat="40.0246811" lon="15.8489718"><ele>551.0</ele><time>2026-05-01T12:20:06.981Z</time></trkpt><trkpt lat="40.0248329" lon="15.8488267"><ele>551.0</ele><time>2026-05-01T12:20:07.98Z</time></trkpt><trkpt lat="40.024984" lon="15.8486786"><ele>551.0</ele><time>2026-05-01T12:20:08.98Z</time></trkpt><trkpt lat="40.0251307" lon="15.848534"><ele>548.3333333333333</ele><time>2026-05-01T12:20:09.981Z</time></trkpt><trkpt lat="40.0252786" lon="15.8483908"><ele>545.6666666666666</ele><time>2026-05-01T12:20:10.981Z</time></trkpt><trkpt lat="40.0254278" lon="15.8482568"><ele>543.0</ele><time>2026-05-01T12:20:11.98Z</time></trkpt><trkpt lat="40.0255682" lon="15.8481201"><ele>543.0</ele><time>2026-05-01T12:20:12.981Z</time></trkpt><trkpt lat="40.0256935" lon="15.8479812"><ele>543.0</ele><time>2026-05-01T12:20:13.98Z</time></trkpt><trkpt lat="40.0258175" lon="15.8478428"><ele>543.0</ele><time>2026-05-01T12:20:14.981Z</time></trkpt><trkpt lat="40.0259411" lon="15.8477255"><ele>540.25</ele><time>2026-05-01T12:20:15.98Z</time></trkpt><trkpt lat="40.0260724" lon="15.8476347"><ele>537.5</ele><time>2026-05-01T12:20:16.98Z</time></trkpt><trkpt lat="40.0262004" lon="15.8475605"><ele>534.75</ele><time>2026-05-01T12:20:17.98Z</time></trkpt><trkpt lat="40.0263253" lon="15.8474794"><ele>532.0</ele><time>2026-05-01T12:20:18.981Z</time></trkpt><trkpt lat="40.0264394" lon="15.8473954"><ele>532.0</ele><time>2026-05-01T12:20:19.981Z</time></trkpt><trkpt lat="40.0265373" lon="15.8472978"><ele>532.0</ele><time>2026-05-01T12:20:20.98Z</time></trkpt><trkpt lat="40.0266228" lon="15.8471761"><ele>532.0</ele><time>2026-05-01T12:20:21.98Z</time></trkpt><trkpt lat="40.0266993" lon="15.8470393"><ele>532.0</ele><time>2026-05-01T12:20:22.98Z</time></trkpt><trkpt lat="40.0267697" lon="15.8468963"><ele>530.5</ele><time>2026-05-01T12:20:23.98Z</time></trkpt><trkpt lat="40.0268463" lon="15.8467605"><ele>529.0</ele><time>2026-05-01T12:20:24.981Z</time></trkpt><trkpt lat="40.0269262" lon="15.8466284"><ele>527.5</ele><time>2026-05-01T12:20:25.981Z</time></trkpt><trkpt lat="40.0270085" lon="15.8465119"><ele>526.0</ele><time>2026-05-01T12:20:26.98Z</time></trkpt><trkpt lat="40.0270944" lon="15.8464015"><ele>526.0</ele><time>2026-05-01T12:20:27.98Z</time></trkpt><trkpt lat="40.0271919" lon="15.8463059"><ele>526.0</ele><time>2026-05-01T12:20:28.981Z</time></trkpt><trkpt lat="40.0272859" lon="15.8462183"><ele>526.0</ele><time>2026-05-01T12:20:29.98Z</time></trkpt><trkpt lat="40.027382" lon="15.8461307"><ele>526.0</ele><time>2026-05-01T12:20:30.98Z</time></trkpt><trkpt lat="40.0274799" lon="15.8460692"><ele>527.0</ele><time>2026-05-01T12:20:31.98Z</time></trkpt><trkpt lat="40.027581" lon="15.846055"><ele>528.0</ele><time>2026-05-01T12:20:32.98Z</time></trkpt><trkpt lat="40.0276743" lon="15.8460873"><ele>529.0</ele><time>2026-05-01T12:20:33.98Z</time></trkpt><trkpt lat="40.0277511" lon="15.8461658"><ele>530.0</ele><time>2026-05-01T12:20:34.98Z</time></trkpt><trkpt lat="40.0278052" lon="15.8462716"><ele>531.0</ele><time>2026-05-01T12:20:35.981Z</time></trkpt><trkpt lat="40.0278318" lon="15.8464073"><ele>531.0</ele><time>2026-05-01T12:20:36.98Z</time></trkpt><trkpt lat="40.0278524" lon="15.8465726"><ele>531.0</ele><time>2026-05-01T12:20:37.98Z</time></trkpt><trkpt lat="40.0278815" lon="15.8467378"><ele>531.0</ele><time>2026-05-01T12:20:38.98Z</time></trkpt><trkpt lat="40.0279356" lon="15.8468857"><ele>531.0</ele><time>2026-05-01T12:20:39.98Z</time></trkpt><trkpt lat="40.0280159" lon="15.8470096"><ele>533.25</ele><time>2026-05-01T12:20:40.981Z</time></trkpt><trkpt lat="40.028103" lon="15.8471158"><ele>535.5</ele><time>2026-05-01T12:20:41.98Z</time></trkpt><trkpt lat="40.0281916" lon="15.8472143"><ele>537.75</ele><time>2026-05-01T12:20:42.981Z</time></trkpt><trkpt lat="40.028273" lon="15.8473095"><ele>540.0</ele><time>2026-05-01T12:20:43.981Z</time></trkpt><trkpt lat="40.0283489" lon="15.8474052"><ele>538.8</ele><time>2026-05-01T12:20:44.98Z</time></trkpt><trkpt lat="40.0284191" lon="15.8474961"><ele>537.6</ele><time>2026-05-01T12:20:45.98Z</time></trkpt><trkpt lat="40.0284886" lon="15.8475896"><ele>536.4</ele><time>2026-05-01T12:20:46.98Z</time></trkpt><trkpt lat="40.0285529" lon="15.8476772"><ele>535.2</ele><time>2026-05-01T12:20:47.98Z</time></trkpt><trkpt lat="40.0286116" lon="15.8477591"><ele>534.0</ele><time>2026-05-01T12:20:48.98Z</time></trkpt><trkpt lat="40.0286679" lon="15.8478207"><ele>534.0</ele><time>2026-05-01T12:20:49.98Z</time></trkpt><trkpt lat="40.0287316" lon="15.8478496"><ele>534.0</ele><time>2026-05-01T12:20:50.981Z</time></trkpt><trkpt lat="40.0288488" lon="15.8477836"><ele>534.0</ele><time>2026-05-01T12:20:52.98Z</time></trkpt><trkpt lat="40.0288627" lon="15.8476821"><ele>534.0</ele><time>2026-05-01T12:20:53.98Z</time></trkpt><trkpt lat="40.028841" lon="15.8475729"><ele>534.0</ele><time>2026-05-01T12:20:54.981Z</time></trkpt><trkpt lat="40.0287867" lon="15.8474775"><ele>531.6666666666666</ele><time>2026-05-01T12:20:55.981Z</time></trkpt><trkpt lat="40.028715" lon="15.8473953"><ele>529.3333333333334</ele><time>2026-05-01T12:20:56.98Z</time></trkpt><trkpt lat="40.028639" lon="15.8473218"><ele>527.0</ele><time>2026-05-01T12:20:57.98Z</time></trkpt><trkpt lat="40.0285637" lon="15.8472552"><ele>524.6666666666667</ele><time>2026-05-01T12:20:58.98Z</time></trkpt><trkpt lat="40.0284937" lon="15.8471885"><ele>522.3333333333334</ele><time>2026-05-01T12:20:59.981Z</time></trkpt><trkpt lat="40.0284343" lon="15.847126"><ele>520.0</ele><time>2026-05-01T12:21:00.98Z</time></trkpt><trkpt lat="40.0283918" lon="15.8470595"><ele>520.0</ele><time>2026-05-01T12:21:01.98Z</time></trkpt><trkpt lat="40.0283973" lon="15.8469331"><ele>520.0</ele><time>2026-05-01T12:21:03.98Z</time></trkpt><trkpt lat="40.0284537" lon="15.8468917"><ele>520.0</ele><time>2026-05-01T12:21:04.98Z</time></trkpt><trkpt lat="40.0285392" lon="15.8468861"><ele>520.0</ele><time>2026-05-01T12:21:05.98Z</time></trkpt><trkpt lat="40.0286444" lon="15.846899"><ele>520.0</ele><time>2026-05-01T12:21:06.98Z</time></trkpt><trkpt lat="40.0287633" lon="15.8469126"><ele>520.0</ele><time>2026-05-01T12:21:07.98Z</time></trkpt><trkpt lat="40.0288736" lon="15.8469149"><ele>520.0</ele><time>2026-05-01T12:21:08.98Z</time></trkpt><trkpt lat="40.0289756" lon="15.8469013"><ele>520.0</ele><time>2026-05-01T12:21:09.98Z</time></trkpt><trkpt lat="40.0290786" lon="15.8468662"><ele>520.0</ele><time>2026-05-01T12:21:10.98Z</time></trkpt><trkpt lat="40.0291799" lon="15.8468124"><ele>520.0</ele><time>2026-05-01T12:21:11.98Z</time></trkpt><trkpt lat="40.0292764" lon="15.8467536"><ele>513.6</ele><time>2026-05-01T12:21:12.981Z</time></trkpt><trkpt lat="40.0293663" lon="15.8466965"><ele>507.2</ele><time>2026-05-01T12:21:13.98Z</time></trkpt><trkpt lat="40.029461" lon="15.8466562"><ele>500.79999999999995</ele><time>2026-05-01T12:21:14.98Z</time></trkpt><trkpt lat="40.029558" lon="15.8466397"><ele>494.4</ele><time>2026-05-01T12:21:15.98Z</time></trkpt><trkpt lat="40.029663" lon="15.8466512"><ele>488.0</ele><time>2026-05-01T12:21:16.981Z</time></trkpt><trkpt lat="40.0297717" lon="15.8466779"><ele>487.99999999999994</ele><time>2026-05-01T12:21:17.981Z</time></trkpt><trkpt lat="40.0298742" lon="15.846685"><ele>488.0</ele><time>2026-05-01T12:21:18.981Z</time></trkpt><trkpt lat="40.0299651" lon="15.8466643"><ele>488.0</ele><time>2026-05-01T12:21:19.98Z</time></trkpt><trkpt lat="40.0300351" lon="15.8466126"><ele>488.0</ele><time>2026-05-01T12:21:20.981Z</time></trkpt><trkpt lat="40.0300924" lon="15.8465339"><ele>487.99999999999994</ele><time>2026-05-01T12:21:21.98Z</time></trkpt><trkpt lat="40.0301372" lon="15.8464417"><ele>488.0</ele><time>2026-05-01T12:21:22.98Z</time></trkpt><trkpt lat="40.0301798" lon="15.8463422"><ele>486.99999999999994</ele><time>2026-05-01T12:21:23.981Z</time></trkpt><trkpt lat="40.0302107" lon="15.8462365"><ele>486.0</ele><time>2026-05-01T12:21:24.98Z</time></trkpt><trkpt lat="40.0302207" lon="15.84613"><ele>485.0</ele><time>2026-05-01T12:21:25.981Z</time></trkpt><trkpt lat="40.0302055" lon="15.8460244"><ele>484.0</ele><time>2026-05-01T12:21:26.98Z</time></trkpt><trkpt lat="40.0301555" lon="15.8459363"><ele>482.99999999999994</ele><time>2026-05-01T12:21:27.98Z</time></trkpt><trkpt lat="40.030078" lon="15.8458691"><ele>482.0</ele><time>2026-05-01T12:21:28.98Z</time></trkpt><trkpt lat="40.0299829" lon="15.845809"><ele>480.40000000000003</ele><time>2026-05-01T12:21:29.98Z</time></trkpt><trkpt lat="40.0298858" lon="15.8457508"><ele>478.80000000000007</ele><time>2026-05-01T12:21:30.981Z</time></trkpt><trkpt lat="40.0298026" lon="15.8456733"><ele>477.2</ele><time>2026-05-01T12:21:31.98Z</time></trkpt><trkpt lat="40.0297389" lon="15.8455764"><ele>475.6</ele><time>2026-05-01T12:21:32.98Z</time></trkpt><trkpt lat="40.0296876" lon="15.8454541"><ele>474.0</ele><time>2026-05-01T12:21:33.98Z</time></trkpt><trkpt lat="40.0296674" lon="15.8453213"><ele>474.0</ele><time>2026-05-01T12:21:34.98Z</time></trkpt><trkpt lat="40.0296647" lon="15.8451801"><ele>474.0</ele><time>2026-05-01T12:21:35.98Z</time></trkpt><trkpt lat="40.0296663" lon="15.8450421"><ele>474.0</ele><time>2026-05-01T12:21:36.98Z</time></trkpt><trkpt lat="40.029671" lon="15.8449126"><ele>474.0</ele><time>2026-05-01T12:21:37.98Z</time></trkpt><trkpt lat="40.029691" lon="15.8448004"><ele>474.0</ele><time>2026-05-01T12:21:38.98Z</time></trkpt><trkpt lat="40.0297276" lon="15.84469"><ele>474.2</ele><time>2026-05-01T12:21:39.98Z</time></trkpt><trkpt lat="40.0297815" lon="15.844586"><ele>474.4</ele><time>2026-05-01T12:21:40.98Z</time></trkpt><trkpt lat="40.0298504" lon="15.8444821"><ele>474.6</ele><time>2026-05-01T12:21:41.981Z</time></trkpt><trkpt lat="40.0299291" lon="15.8443812"><ele>474.8</ele><time>2026-05-01T12:21:42.981Z</time></trkpt><trkpt lat="40.0300043" lon="15.8442812"><ele>475.0</ele><time>2026-05-01T12:21:43.981Z</time></trkpt><trkpt lat="40.0300784" lon="15.8441817"><ele>475.0</ele><time>2026-05-01T12:21:44.98Z</time></trkpt><trkpt lat="40.030155" lon="15.8440818"><ele>475.0</ele><time>2026-05-01T12:21:45.981Z</time></trkpt><trkpt lat="40.0302276" lon="15.8439823"><ele>475.0</ele><time>2026-05-01T12:21:46.98Z</time></trkpt><trkpt lat="40.0302983" lon="15.8438763"><ele>475.0</ele><time>2026-05-01T12:21:47.98Z</time></trkpt><trkpt lat="40.0303761" lon="15.8437721"><ele>475.0</ele><time>2026-05-01T12:21:48.981Z</time></trkpt><trkpt lat="40.0304489" lon="15.8436522"><ele>475.0</ele><time>2026-05-01T12:21:49.98Z</time></trkpt><trkpt lat="40.0305168" lon="15.8435257"><ele>475.0</ele><time>2026-05-01T12:21:50.98Z</time></trkpt><trkpt lat="40.0305819" lon="15.8434023"><ele>475.0</ele><time>2026-05-01T12:21:51.98Z</time></trkpt><trkpt lat="40.0306445" lon="15.8432853"><ele>475.0</ele><time>2026-05-01T12:21:52.98Z</time></trkpt><trkpt lat="40.0307061" lon="15.8431751"><ele>475.0</ele><time>2026-05-01T12:21:53.98Z</time></trkpt><trkpt lat="40.0307771" lon="15.8430773"><ele>473.6</ele><time>2026-05-01T12:21:54.981Z</time></trkpt><trkpt lat="40.0308534" lon="15.8429904"><ele>472.2</ele><time>2026-05-01T12:21:55.981Z</time></trkpt><trkpt lat="40.0309375" lon="15.8429503"><ele>470.79999999999995</ele><time>2026-05-01T12:21:56.981Z</time></trkpt><trkpt lat="40.0310206" lon="15.8429616"><ele>469.4</ele><time>2026-05-01T12:21:57.98Z</time></trkpt><trkpt lat="40.0311042" lon="15.8430061"><ele>468.0</ele><time>2026-05-01T12:21:58.981Z</time></trkpt><trkpt lat="40.0311858" lon="15.8430707"><ele>468.0</ele><time>2026-05-01T12:21:59.98Z</time></trkpt><trkpt lat="40.0312568" lon="15.8431396"><ele>467.99999999999994</ele><time>2026-05-01T12:22:00.98Z</time></trkpt><trkpt lat="40.0313228" lon="15.8431808"><ele>467.99999999999994</ele><time>2026-05-01T12:22:01.98Z</time></trkpt><trkpt lat="40.0314339" lon="15.8431429"><ele>468.0</ele><time>2026-05-01T12:22:03.98Z</time></trkpt><trkpt lat="40.0314619" lon="15.8429827"><ele>468.0</ele><time>2026-05-01T12:22:05.98Z</time></trkpt><trkpt lat="40.0314394" lon="15.8428899"><ele>468.0</ele><time>2026-05-01T12:22:06.981Z</time></trkpt><trkpt lat="40.0313888" lon="15.8428056"><ele>468.0</ele><time>2026-05-01T12:22:07.981Z</time></trkpt><trkpt lat="40.0313218" lon="15.8427275"><ele>468.0</ele><time>2026-05-01T12:22:08.981Z</time></trkpt><trkpt lat="40.0312546" lon="15.8426537"><ele>468.0</ele><time>2026-05-01T12:22:09.98Z</time></trkpt><trkpt lat="40.0311932" lon="15.8425797"><ele>468.0</ele><time>2026-05-01T12:22:10.98Z</time></trkpt><trkpt lat="40.0311406" lon="15.8425075"><ele>468.0</ele><time>2026-05-01T12:22:11.981Z</time></trkpt><trkpt lat="40.0310913" lon="15.8424351"><ele>466.7142857142857</ele><time>2026-05-01T12:22:12.98Z</time></trkpt><trkpt lat="40.0310515" lon="15.8423572"><ele>465.42857142857144</ele><time>2026-05-01T12:22:13.98Z</time></trkpt><trkpt lat="40.0310265" lon="15.842273"><ele>464.14285714285717</ele><time>2026-05-01T12:22:14.98Z</time></trkpt><trkpt lat="40.0310134" lon="15.8421836"><ele>462.8571428571429</ele><time>2026-05-01T12:22:15.981Z</time></trkpt><trkpt lat="40.0310142" lon="15.8420914"><ele>461.57142857142856</ele><time>2026-05-01T12:22:16.98Z</time></trkpt><trkpt lat="40.0310224" lon="15.8419945"><ele>460.28571428571433</ele><time>2026-05-01T12:22:17.981Z</time></trkpt><trkpt lat="40.0310434" lon="15.8418944"><ele>459.0</ele><time>2026-05-01T12:22:18.981Z</time></trkpt><trkpt lat="40.0310789" lon="15.8418032"><ele>457.3333333333333</ele><time>2026-05-01T12:22:19.98Z</time></trkpt><trkpt lat="40.031127" lon="15.8417191"><ele>455.66666666666663</ele><time>2026-05-01T12:22:20.981Z</time></trkpt><trkpt lat="40.0311866" lon="15.8416447"><ele>454.0</ele><time>2026-05-01T12:22:21.98Z</time></trkpt><trkpt lat="40.0312569" lon="15.8415857"><ele>452.3333333333333</ele><time>2026-05-01T12:22:22.98Z</time></trkpt><trkpt lat="40.0313327" lon="15.8415329"><ele>450.66666666666663</ele><time>2026-05-01T12:22:23.98Z</time></trkpt><trkpt lat="40.031399" lon="15.8414763"><ele>449.0</ele><time>2026-05-01T12:22:24.98Z</time></trkpt><trkpt lat="40.0314473" lon="15.8413849"><ele>449.0</ele><time>2026-05-01T12:22:25.981Z</time></trkpt><trkpt lat="40.031476" lon="15.8412775"><ele>449.0</ele><time>2026-05-01T12:22:26.98Z</time></trkpt><trkpt lat="40.0314828" lon="15.841154"><ele>449.0</ele><time>2026-05-01T12:22:27.98Z</time></trkpt><trkpt lat="40.0314679" lon="15.8410176"><ele>449.0</ele><time>2026-05-01T12:22:28.98Z</time></trkpt><trkpt lat="40.0314468" lon="15.8408796"><ele>449.0</ele><time>2026-05-01T12:22:29.98Z</time></trkpt><trkpt lat="40.0314315" lon="15.8407514"><ele>447.0</ele><time>2026-05-01T12:22:30.98Z</time></trkpt><trkpt lat="40.0314352" lon="15.8406231"><ele>445.0</ele><time>2026-05-01T12:22:31.98Z</time></trkpt><trkpt lat="40.0314585" lon="15.8405021"><ele>443.0</ele><time>2026-05-01T12:22:32.981Z</time></trkpt><trkpt lat="40.0315085" lon="15.8403918"><ele>441.0</ele><time>2026-05-01T12:22:33.98Z</time></trkpt><trkpt lat="40.0315688" lon="15.8402746"><ele>439.0</ele><time>2026-05-01T12:22:34.981Z</time></trkpt><trkpt lat="40.0316392" lon="15.8401545"><ele>436.79999999999995</ele><time>2026-05-01T12:22:35.98Z</time></trkpt><trkpt lat="40.0317119" lon="15.8400381"><ele>434.59999999999997</ele><time>2026-05-01T12:22:36.981Z</time></trkpt><trkpt lat="40.0317788" lon="15.8399273"><ele>432.4</ele><time>2026-05-01T12:22:37.98Z</time></trkpt><trkpt lat="40.0318456" lon="15.839822"><ele>430.2</ele><time>2026-05-01T12:22:38.98Z</time></trkpt><trkpt lat="40.0319161" lon="15.8397085"><ele>428.0</ele><time>2026-05-01T12:22:39.981Z</time></trkpt><trkpt lat="40.0319864" lon="15.8396022"><ele>428.0</ele><time>2026-05-01T12:22:40.98Z</time></trkpt><trkpt lat="40.0320545" lon="15.839487"><ele>427.99999999999994</ele><time>2026-05-01T12:22:41.981Z</time></trkpt><trkpt lat="40.0321219" lon="15.8393703"><ele>427.99999999999994</ele><time>2026-05-01T12:22:42.98Z</time></trkpt><trkpt lat="40.0321872" lon="15.8392544"><ele>428.0</ele><time>2026-05-01T12:22:43.98Z</time></trkpt><trkpt lat="40.0322575" lon="15.8391379"><ele>428.0</ele><time>2026-05-01T12:22:44.98Z</time></trkpt><trkpt lat="40.0323317" lon="15.8390191"><ele>425.25</ele><time>2026-05-01T12:22:45.981Z</time></trkpt><trkpt lat="40.0324151" lon="15.8389048"><ele>422.5</ele><time>2026-05-01T12:22:46.98Z</time></trkpt><trkpt lat="40.0325032" lon="15.8387963"><ele>419.75</ele><time>2026-05-01T12:22:47.981Z</time></trkpt><trkpt lat="40.0326061" lon="15.8387055"><ele>417.0</ele><time>2026-05-01T12:22:48.98Z</time></trkpt><trkpt lat="40.0327159" lon="15.8386195"><ele>416.75</ele><time>2026-05-01T12:22:49.981Z</time></trkpt><trkpt lat="40.0328239" lon="15.8385507"><ele>416.5</ele><time>2026-05-01T12:22:50.981Z</time></trkpt><trkpt lat="40.0329423" lon="15.8385043"><ele>416.25</ele><time>2026-05-01T12:22:51.981Z</time></trkpt><trkpt lat="40.0330672" lon="15.8384806"><ele>416.0</ele><time>2026-05-01T12:22:52.98Z</time></trkpt><trkpt lat="40.0331971" lon="15.8384791"><ele>414.0</ele><time>2026-05-01T12:22:53.981Z</time></trkpt><trkpt lat="40.0333276" lon="15.8384994"><ele>412.0</ele><time>2026-05-01T12:22:54.98Z</time></trkpt><trkpt lat="40.0334575" lon="15.8385274"><ele>410.0</ele><time>2026-05-01T12:22:55.98Z</time></trkpt><trkpt lat="40.0335834" lon="15.8385672"><ele>408.0</ele><time>2026-05-01T12:22:56.981Z</time></trkpt><trkpt lat="40.0337023" lon="15.8386337"><ele>408.0</ele><time>2026-05-01T12:22:57.98Z</time></trkpt><trkpt lat="40.0338253" lon="15.8386949"><ele>408.0</ele><time>2026-05-01T12:22:58.98Z</time></trkpt><trkpt lat="40.0339421" lon="15.8387623"><ele>408.0</ele><time>2026-05-01T12:22:59.98Z</time></trkpt><trkpt lat="40.034055" lon="15.838827"><ele>408.0</ele><time>2026-05-01T12:23:00.981Z</time></trkpt><trkpt lat="40.0341693" lon="15.8388869"><ele>405.75</ele><time>2026-05-01T12:23:01.981Z</time></trkpt><trkpt lat="40.034287" lon="15.838938"><ele>403.5</ele><time>2026-05-01T12:23:02.98Z</time></trkpt><trkpt lat="40.0344026" lon="15.8389729"><ele>401.25</ele><time>2026-05-01T12:23:03.981Z</time></trkpt><trkpt lat="40.0345292" lon="15.8389677"><ele>399.0</ele><time>2026-05-01T12:23:04.981Z</time></trkpt><trkpt lat="40.0346548" lon="15.8389249"><ele>399.0</ele><time>2026-05-01T12:23:05.981Z</time></trkpt><trkpt lat="40.0347704" lon="15.8388417"><ele>399.0</ele><time>2026-05-01T12:23:06.981Z</time></trkpt><trkpt lat="40.0348662" lon="15.8387439"><ele>399.0</ele><time>2026-05-01T12:23:07.98Z</time></trkpt><trkpt lat="40.0349515" lon="15.8386367"><ele>399.0</ele><time>2026-05-01T12:23:08.98Z</time></trkpt><trkpt lat="40.0350249" lon="15.8385235"><ele>397.2</ele><time>2026-05-01T12:23:09.98Z</time></trkpt><trkpt lat="40.035077" lon="15.8384093"><ele>395.4</ele><time>2026-05-01T12:23:10.98Z</time></trkpt><trkpt lat="40.0351093" lon="15.8382738"><ele>393.6</ele><time>2026-05-01T12:23:11.98Z</time></trkpt><trkpt lat="40.0351243" lon="15.8381263"><ele>391.8</ele><time>2026-05-01T12:23:12.98Z</time></trkpt><trkpt lat="40.0351199" lon="15.8379669"><ele>390.0</ele><time>2026-05-01T12:23:13.98Z</time></trkpt><trkpt lat="40.0351022" lon="15.8378134"><ele>390.0</ele><time>2026-05-01T12:23:14.98Z</time></trkpt><trkpt lat="40.0350867" lon="15.8376586"><ele>390.0</ele><time>2026-05-01T12:23:15.98Z</time></trkpt><trkpt lat="40.035073" lon="15.8375036"><ele>390.0</ele><time>2026-05-01T12:23:16.981Z</time></trkpt><trkpt lat="40.0350581" lon="15.8373495"><ele>390.0</ele><time>2026-05-01T12:23:17.98Z</time></trkpt><trkpt lat="40.0350452" lon="15.8371987"><ele>388.2</ele><time>2026-05-01T12:23:18.98Z</time></trkpt><trkpt lat="40.0350339" lon="15.8370474"><ele>386.4</ele><time>2026-05-01T12:23:19.981Z</time></trkpt><trkpt lat="40.0350299" lon="15.8369007"><ele>384.6</ele><time>2026-05-01T12:23:20.98Z</time></trkpt><trkpt lat="40.0350344" lon="15.8367582"><ele>382.8</ele><time>2026-05-01T12:23:21.981Z</time></trkpt><trkpt lat="40.0350403" lon="15.8366169"><ele>381.0</ele><time>2026-05-01T12:23:22.98Z</time></trkpt><trkpt lat="40.0350595" lon="15.8364787"><ele>379.8</ele><time>2026-05-01T12:23:23.981Z</time></trkpt><trkpt lat="40.0350802" lon="15.8363433"><ele>378.6</ele><time>2026-05-01T12:23:24.981Z</time></trkpt><trkpt lat="40.0351085" lon="15.8362143"><ele>377.4</ele><time>2026-05-01T12:23:25.98Z</time></trkpt><trkpt lat="40.0351441" lon="15.8360803"><ele>376.2</ele><time>2026-05-01T12:23:26.981Z</time></trkpt><trkpt lat="40.0351785" lon="15.8359518"><ele>375.0</ele><time>2026-05-01T12:23:27.981Z</time></trkpt><trkpt lat="40.0352119" lon="15.8358244"><ele>372.8</ele><time>2026-05-01T12:23:28.98Z</time></trkpt><trkpt lat="40.0352478" lon="15.8356968"><ele>370.6</ele><time>2026-05-01T12:23:29.98Z</time></trkpt><trkpt lat="40.0352758" lon="15.8355612"><ele>368.4</ele><time>2026-05-01T12:23:30.98Z</time></trkpt><trkpt lat="40.0353068" lon="15.835432"><ele>366.2</ele><time>2026-05-01T12:23:31.981Z</time></trkpt><trkpt lat="40.035337" lon="15.8353036"><ele>364.0</ele><time>2026-05-01T12:23:32.98Z</time></trkpt><trkpt lat="40.0353636" lon="15.8351737"><ele>362.5</ele><time>2026-05-01T12:23:33.981Z</time></trkpt><trkpt lat="40.0353899" lon="15.8350482"><ele>361.0</ele><time>2026-05-01T12:23:34.981Z</time></trkpt><trkpt lat="40.0354213" lon="15.8349317"><ele>359.5</ele><time>2026-05-01T12:23:35.98Z</time></trkpt><trkpt lat="40.035465" lon="15.8348336"><ele>358.0</ele><time>2026-05-01T12:23:36.98Z</time></trkpt><trkpt lat="40.0355212" lon="15.8347556"><ele>356.5</ele><time>2026-05-01T12:23:37.98Z</time></trkpt><trkpt lat="40.0355875" lon="15.8347114"><ele>355.0</ele><time>2026-05-01T12:23:38.98Z</time></trkpt><trkpt lat="40.0356537" lon="15.8346714"><ele>355.0</ele><time>2026-05-01T12:23:39.981Z</time></trkpt><trkpt lat="40.0357133" lon="15.8345456"><ele>355.0</ele><time>2026-05-01T12:23:41.981Z</time></trkpt><trkpt lat="40.0357049" lon="15.8344604"><ele>355.0</ele><time>2026-05-01T12:23:42.981Z</time></trkpt><trkpt lat="40.0356737" lon="15.8343746"><ele>355.0</ele><time>2026-05-01T12:23:43.98Z</time></trkpt><trkpt lat="40.0356217" lon="15.8343064"><ele>355.0</ele><time>2026-05-01T12:23:44.981Z</time></trkpt><trkpt lat="40.0355602" lon="15.8342466"><ele>355.0</ele><time>2026-05-01T12:23:45.98Z</time></trkpt><trkpt lat="40.0354977" lon="15.8341827"><ele>354.4</ele><time>2026-05-01T12:23:46.981Z</time></trkpt><trkpt lat="40.0354358" lon="15.8341001"><ele>353.8</ele><time>2026-05-01T12:23:47.98Z</time></trkpt><trkpt lat="40.0353798" lon="15.8339999"><ele>353.20000000000005</ele><time>2026-05-01T12:23:48.981Z</time></trkpt><trkpt lat="40.0353187" lon="15.8338837"><ele>352.6</ele><time>2026-05-01T12:23:49.98Z</time></trkpt><trkpt lat="40.0352597" lon="15.8337659"><ele>352.0</ele><time>2026-05-01T12:23:50.98Z</time></trkpt><trkpt lat="40.0351963" lon="15.8336476"><ele>352.0</ele><time>2026-05-01T12:23:51.98Z</time></trkpt><trkpt lat="40.0351277" lon="15.8335373"><ele>352.0</ele><time>2026-05-01T12:23:52.981Z</time></trkpt><trkpt lat="40.0350553" lon="15.8334263"><ele>352.0</ele><time>2026-05-01T12:23:53.98Z</time></trkpt><trkpt lat="40.0349732" lon="15.8333108"><ele>352.0</ele><time>2026-05-01T12:23:54.981Z</time></trkpt><trkpt lat="40.0348766" lon="15.8331821"><ele>349.25</ele><time>2026-05-01T12:23:55.98Z</time></trkpt><trkpt lat="40.0347681" lon="15.8330697"><ele>346.5</ele><time>2026-05-01T12:23:56.98Z</time></trkpt><trkpt lat="40.034629" lon="15.8330036"><ele>343.75</ele><time>2026-05-01T12:23:57.98Z</time></trkpt><trkpt lat="40.0344992" lon="15.8329676"><ele>341.0</ele><time>2026-05-01T12:23:58.981Z</time></trkpt><trkpt lat="40.0343474" lon="15.8329461"><ele>341.0</ele><time>2026-05-01T12:23:59.98Z</time></trkpt><trkpt lat="40.0341978" lon="15.8329441"><ele>341.0</ele><time>2026-05-01T12:24:00.981Z</time></trkpt><trkpt lat="40.0340503" lon="15.8329584"><ele>341.0</ele><time>2026-05-01T12:24:01.981Z</time></trkpt><trkpt lat="40.0339045" lon="15.8329715"><ele>341.0</ele><time>2026-05-01T12:24:02.98Z</time></trkpt><trkpt lat="40.0337544" lon="15.8329853"><ele>344.6666666666667</ele><time>2026-05-01T12:24:03.98Z</time></trkpt><trkpt lat="40.0335983" lon="15.8329898"><ele>348.3333333333333</ele><time>2026-05-01T12:24:04.98Z</time></trkpt><trkpt lat="40.0334397" lon="15.8329894"><ele>352.0</ele><time>2026-05-01T12:24:05.98Z</time></trkpt><trkpt lat="40.0332875" lon="15.832972"><ele>353.25</ele><time>2026-05-01T12:24:06.981Z</time></trkpt><trkpt lat="40.0331432" lon="15.83295"><ele>354.5</ele><time>2026-05-01T12:24:07.981Z</time></trkpt><trkpt lat="40.0330075" lon="15.8329254"><ele>355.75</ele><time>2026-05-01T12:24:08.981Z</time></trkpt><trkpt lat="40.0328785" lon="15.8328855"><ele>357.0</ele><time>2026-05-01T12:24:09.98Z</time></trkpt><trkpt lat="40.0327535" lon="15.8328282"><ele>357.0</ele><time>2026-05-01T12:24:10.98Z</time></trkpt><trkpt lat="40.0326318" lon="15.8327564"><ele>357.0</ele><time>2026-05-01T12:24:11.98Z</time></trkpt><trkpt lat="40.0325138" lon="15.8326643"><ele>357.0</ele><time>2026-05-01T12:24:12.98Z</time></trkpt><trkpt lat="40.0323949" lon="15.8325533"><ele>357.0</ele><time>2026-05-01T12:24:13.98Z</time></trkpt><trkpt lat="40.0322719" lon="15.8324262"><ele>354.0</ele><time>2026-05-01T12:24:14.98Z</time></trkpt><trkpt lat="40.0321322" lon="15.8322733"><ele>351.0</ele><time>2026-05-01T12:24:15.981Z</time></trkpt><trkpt lat="40.0319883" lon="15.8320875"><ele>348.0</ele><time>2026-05-01T12:24:16.981Z</time></trkpt><trkpt lat="40.0318346" lon="15.8318828"><ele>347.6666666666667</ele><time>2026-05-01T12:24:17.98Z</time></trkpt><trkpt lat="40.0316733" lon="15.8317022"><ele>347.33333333333337</ele><time>2026-05-01T12:24:18.98Z</time></trkpt><trkpt lat="40.0315217" lon="15.8315376"><ele>347.0</ele><time>2026-05-01T12:24:19.98Z</time></trkpt><trkpt lat="40.0313606" lon="15.8313964"><ele>347.0</ele><time>2026-05-01T12:24:20.98Z</time></trkpt><trkpt lat="40.0311817" lon="15.8312715"><ele>347.0</ele><time>2026-05-01T12:24:21.98Z</time></trkpt><trkpt lat="40.0309895" lon="15.8311566"><ele>347.0</ele><time>2026-05-01T12:24:22.981Z</time></trkpt><trkpt lat="40.0307935" lon="15.8310362"><ele>337.0</ele><time>2026-05-01T12:24:23.98Z</time></trkpt><trkpt lat="40.0305971" lon="15.8309104"><ele>327.0</ele><time>2026-05-01T12:24:24.98Z</time></trkpt><trkpt lat="40.0303651" lon="15.8308595"><ele>327.0</ele><time>2026-05-01T12:24:25.98Z</time></trkpt><trkpt lat="40.0301378" lon="15.8307935"><ele>327.0</ele><time>2026-05-01T12:24:26.98Z</time></trkpt><trkpt lat="40.0299403" lon="15.8307413"><ele>327.0</ele><time>2026-05-01T12:24:27.98Z</time></trkpt><trkpt lat="40.0297436" lon="15.8306746"><ele>323.6666666666667</ele><time>2026-05-01T12:24:28.98Z</time></trkpt><trkpt lat="40.0295637" lon="15.8305744"><ele>320.33333333333337</ele><time>2026-05-01T12:24:29.98Z</time></trkpt><trkpt lat="40.0294007" lon="15.8304454"><ele>317.0</ele><time>2026-05-01T12:24:30.981Z</time></trkpt><trkpt lat="40.0292535" lon="15.8302846"><ele>324.33333333333337</ele><time>2026-05-01T12:24:31.981Z</time></trkpt><trkpt lat="40.0291098" lon="15.8300997"><ele>331.6666666666667</ele><time>2026-05-01T12:24:32.98Z</time></trkpt><trkpt lat="40.0289776" lon="15.8298962"><ele>339.0</ele><time>2026-05-01T12:24:33.98Z</time></trkpt><trkpt lat="40.0288598" lon="15.829658"><ele>339.0</ele><time>2026-05-01T12:24:34.98Z</time></trkpt><trkpt lat="40.0287567" lon="15.8294022"><ele>339.0</ele><time>2026-05-01T12:24:35.981Z</time></trkpt><trkpt lat="40.0286826" lon="15.829128"><ele>339.0</ele><time>2026-05-01T12:24:36.98Z</time></trkpt><trkpt lat="40.0286306" lon="15.8288633"><ele>333.6666666666667</ele><time>2026-05-01T12:24:37.98Z</time></trkpt><trkpt lat="40.0285809" lon="15.8286129"><ele>328.33333333333337</ele><time>2026-05-01T12:24:38.98Z</time></trkpt><trkpt lat="40.0285411" lon="15.8283632"><ele>323.0</ele><time>2026-05-01T12:24:39.981Z</time></trkpt><trkpt lat="40.0284888" lon="15.8281204"><ele>318.6666666666667</ele><time>2026-05-01T12:24:40.98Z</time></trkpt><trkpt lat="40.0284486" lon="15.8278923"><ele>314.3333333333333</ele><time>2026-05-01T12:24:41.98Z</time></trkpt><trkpt lat="40.0284106" lon="15.8276674"><ele>310.0</ele><time>2026-05-01T12:24:42.981Z</time></trkpt><trkpt lat="40.0283704" lon="15.8274426"><ele>311.0</ele><time>2026-05-01T12:24:43.981Z</time></trkpt><trkpt lat="40.0283117" lon="15.8272211"><ele>312.0</ele><time>2026-05-01T12:24:44.98Z</time></trkpt><trkpt lat="40.028239" lon="15.8270106"><ele>313.0</ele><time>2026-05-01T12:24:45.98Z</time></trkpt><trkpt lat="40.0281631" lon="15.8268185"><ele>311.66666666666663</ele><time>2026-05-01T12:24:46.981Z</time></trkpt><trkpt lat="40.0280868" lon="15.8266389"><ele>310.3333333333333</ele><time>2026-05-01T12:24:47.98Z</time></trkpt><trkpt lat="40.0280052" lon="15.826462"><ele>309.0</ele><time>2026-05-01T12:24:48.981Z</time></trkpt><trkpt lat="40.0279315" lon="15.8262906"><ele>309.0</ele><time>2026-05-01T12:24:49.98Z</time></trkpt><trkpt lat="40.0278538" lon="15.8261297"><ele>309.0</ele><time>2026-05-01T12:24:50.98Z</time></trkpt><trkpt lat="40.027774" lon="15.8259632"><ele>309.0</ele><time>2026-05-01T12:24:51.98Z</time></trkpt><trkpt lat="40.027693" lon="15.8258047"><ele>309.0</ele><time>2026-05-01T12:24:52.981Z</time></trkpt><trkpt lat="40.0276069" lon="15.8256442"><ele>310.5</ele><time>2026-05-01T12:24:53.98Z</time></trkpt><trkpt lat="40.0275247" lon="15.8254807"><ele>312.0</ele><time>2026-05-01T12:24:54.98Z</time></trkpt><trkpt lat="40.0274507" lon="15.8253112"><ele>313.5</ele><time>2026-05-01T12:24:55.981Z</time></trkpt><trkpt lat="40.027388" lon="15.8251329"><ele>315.0</ele><time>2026-05-01T12:24:56.981Z</time></trkpt><trkpt lat="40.0273454" lon="15.8249422"><ele>315.0</ele><time>2026-05-01T12:24:57.98Z</time></trkpt><trkpt lat="40.0273205" lon="15.8247454"><ele>315.0</ele><time>2026-05-01T12:24:58.98Z</time></trkpt><trkpt lat="40.0273244" lon="15.8245408"><ele>315.0</ele><time>2026-05-01T12:24:59.98Z</time></trkpt><trkpt lat="40.0273557" lon="15.8243383"><ele>311.0</ele><time>2026-05-01T12:25:00.981Z</time></trkpt><trkpt lat="40.0274114" lon="15.8241364"><ele>307.0</ele><time>2026-05-01T12:25:01.98Z</time></trkpt><trkpt lat="40.0274781" lon="15.8239435"><ele>303.0</ele><time>2026-05-01T12:25:02.98Z</time></trkpt><trkpt lat="40.0275652" lon="15.8237619"><ele>296.3333333333333</ele><time>2026-05-01T12:25:03.981Z</time></trkpt><trkpt lat="40.0276597" lon="15.8235841"><ele>289.66666666666663</ele><time>2026-05-01T12:25:04.98Z</time></trkpt><trkpt lat="40.027751" lon="15.8234002"><ele>283.0</ele><time>2026-05-01T12:25:05.981Z</time></trkpt><trkpt lat="40.0278376" lon="15.8232105"><ele>283.0</ele><time>2026-05-01T12:25:06.981Z</time></trkpt><trkpt lat="40.0279136" lon="15.8230199"><ele>283.0</ele><time>2026-05-01T12:25:07.98Z</time></trkpt><trkpt lat="40.0279798" lon="15.8228258"><ele>283.0</ele><time>2026-05-01T12:25:08.98Z</time></trkpt><trkpt lat="40.0280453" lon="15.82262"><ele>281.0</ele><time>2026-05-01T12:25:09.98Z</time></trkpt><trkpt lat="40.0280955" lon="15.8224212"><ele>279.0</ele><time>2026-05-01T12:25:10.98Z</time></trkpt><trkpt lat="40.0281284" lon="15.822215"><ele>277.0</ele><time>2026-05-01T12:25:11.98Z</time></trkpt><trkpt lat="40.0281478" lon="15.8220096"><ele>275.3333333333333</ele><time>2026-05-01T12:25:12.98Z</time></trkpt><trkpt lat="40.0281571" lon="15.8218014"><ele>273.6666666666667</ele><time>2026-05-01T12:25:13.98Z</time></trkpt><trkpt lat="40.0281585" lon="15.8215904"><ele>272.0</ele><time>2026-05-01T12:25:14.98Z</time></trkpt><trkpt lat="40.028149" lon="15.8213817"><ele>272.0</ele><time>2026-05-01T12:25:15.98Z</time></trkpt><trkpt lat="40.0281308" lon="15.8211789"><ele>272.0</ele><time>2026-05-01T12:25:16.98Z</time></trkpt><trkpt lat="40.0280967" lon="15.8209776"><ele>272.0</ele><time>2026-05-01T12:25:17.98Z</time></trkpt><trkpt lat="40.0280547" lon="15.8207815"><ele>271.0</ele><time>2026-05-01T12:25:18.98Z</time></trkpt><trkpt lat="40.0280132" lon="15.8205885"><ele>270.0</ele><time>2026-05-01T12:25:19.981Z</time></trkpt><trkpt lat="40.0279679" lon="15.8203955"><ele>269.0</ele><time>2026-05-01T12:25:20.98Z</time></trkpt><trkpt lat="40.0279239" lon="15.8202036"><ele>267.6666666666667</ele><time>2026-05-01T12:25:21.98Z</time></trkpt><trkpt lat="40.0278781" lon="15.8200207"><ele>266.3333333333333</ele><time>2026-05-01T12:25:22.98Z</time></trkpt><trkpt lat="40.0278263" lon="15.8198347"><ele>265.0</ele><time>2026-05-01T12:25:23.981Z</time></trkpt><trkpt lat="40.0277526" lon="15.8196501"><ele>265.0</ele><time>2026-05-01T12:25:24.98Z</time></trkpt><trkpt lat="40.0277127" lon="15.8194668"><ele>265.0</ele><time>2026-05-01T12:25:25.981Z</time></trkpt><trkpt lat="40.027672" lon="15.8192867"><ele>265.0</ele><time>2026-05-01T12:25:26.98Z</time></trkpt><trkpt lat="40.0276293" lon="15.8191114"><ele>265.0</ele><time>2026-05-01T12:25:27.981Z</time></trkpt><trkpt lat="40.0275831" lon="15.8189261"><ele>265.25</ele><time>2026-05-01T12:25:28.981Z</time></trkpt><trkpt lat="40.0275265" lon="15.8187419"><ele>265.5</ele><time>2026-05-01T12:25:29.98Z</time></trkpt><trkpt lat="40.0274684" lon="15.8185579"><ele>265.75</ele><time>2026-05-01T12:25:30.98Z</time></trkpt><trkpt lat="40.0274157" lon="15.8183815"><ele>266.0</ele><time>2026-05-01T12:25:31.98Z</time></trkpt><trkpt lat="40.0273648" lon="15.8181949"><ele>265.0</ele><time>2026-05-01T12:25:32.98Z</time></trkpt><trkpt lat="40.0273149" lon="15.8180064"><ele>264.0</ele><time>2026-05-01T12:25:33.981Z</time></trkpt><trkpt lat="40.0272709" lon="15.8178045"><ele>263.0</ele><time>2026-05-01T12:25:34.98Z</time></trkpt><trkpt lat="40.0272237" lon="15.8175886"><ele>260.6666666666667</ele><time>2026-05-01T12:25:35.98Z</time></trkpt><trkpt lat="40.027171" lon="15.8173678"><ele>258.3333333333333</ele><time>2026-05-01T12:25:36.98Z</time></trkpt><trkpt lat="40.0271194" lon="15.8171411"><ele>256.0</ele><time>2026-05-01T12:25:37.98Z</time></trkpt><trkpt lat="40.0270725" lon="15.8169234"><ele>253.66666666666666</ele><time>2026-05-01T12:25:38.98Z</time></trkpt><trkpt lat="40.0270276" lon="15.816722"><ele>251.33333333333331</ele><time>2026-05-01T12:25:39.981Z</time></trkpt><trkpt lat="40.0269796" lon="15.8165245"><ele>249.0</ele><time>2026-05-01T12:25:40.98Z</time></trkpt><trkpt lat="40.0269254" lon="15.8163309"><ele>249.0</ele><time>2026-05-01T12:25:41.981Z</time></trkpt><trkpt lat="40.0268673" lon="15.8161406"><ele>249.0</ele><time>2026-05-01T12:25:42.98Z</time></trkpt><trkpt lat="40.0268082" lon="15.8159609"><ele>249.0</ele><time>2026-05-01T12:25:43.98Z</time></trkpt><trkpt lat="40.0267444" lon="15.8157775"><ele>251.0</ele><time>2026-05-01T12:25:44.98Z</time></trkpt><trkpt lat="40.0266677" lon="15.8156062"><ele>253.0</ele><time>2026-05-01T12:25:45.98Z</time></trkpt><trkpt lat="40.0265818" lon="15.8154509"><ele>255.0</ele><time>2026-05-01T12:25:46.98Z</time></trkpt><trkpt lat="40.0265092" lon="15.8152793"><ele>257.0</ele><time>2026-05-01T12:25:47.98Z</time></trkpt><trkpt lat="40.0264451" lon="15.8151019"><ele>257.0</ele><time>2026-05-01T12:25:48.981Z</time></trkpt><trkpt lat="40.0263898" lon="15.8149133"><ele>257.0</ele><time>2026-05-01T12:25:49.981Z</time></trkpt><trkpt lat="40.0263312" lon="15.814735"><ele>257.0</ele><time>2026-05-01T12:25:50.98Z</time></trkpt><trkpt lat="40.0262716" lon="15.8145582"><ele>257.0</ele><time>2026-05-01T12:25:51.98Z</time></trkpt><trkpt lat="40.0262113" lon="15.8143813"><ele>257.0</ele><time>2026-05-01T12:25:52.981Z</time></trkpt><trkpt lat="40.0261512" lon="15.8142046"><ele>257.0</ele><time>2026-05-01T12:25:53.981Z</time></trkpt><trkpt lat="40.0256469" lon="15.8132588"><ele>234.5</ele><time>2026-05-01T12:25:59.979Z</time></trkpt><trkpt lat="40.0253182" lon="15.8133859"><ele>212.0</ele><time>2026-05-01T12:26:00.98Z</time></trkpt><trkpt lat="40.0251081" lon="15.8133275"><ele>212.0</ele><time>2026-05-01T12:26:01.979Z</time></trkpt><trkpt lat="40.0250036" lon="15.8131999"><ele>212.0</ele><time>2026-05-01T12:26:02.979Z</time></trkpt><trkpt lat="40.0249377" lon="15.8130384"><ele>212.0</ele><time>2026-05-01T12:26:03.979Z</time></trkpt><trkpt lat="40.0248987" lon="15.812869"><ele>212.0</ele><time>2026-05-01T12:26:04.98Z</time></trkpt><trkpt lat="40.024872" lon="15.8126939"><ele>212.5</ele><time>2026-05-01T12:26:05.979Z</time></trkpt><trkpt lat="40.024862" lon="15.8125307"><ele>213.0</ele><time>2026-05-01T12:26:06.979Z</time></trkpt><trkpt lat="40.0248538" lon="15.8123733"><ele>213.5</ele><time>2026-05-01T12:26:07.979Z</time></trkpt><trkpt lat="40.0248581" lon="15.8122199"><ele>214.0</ele><time>2026-05-01T12:26:08.98Z</time></trkpt><trkpt lat="40.0248758" lon="15.8120637"><ele>214.0</ele><time>2026-05-01T12:26:09.98Z</time></trkpt><trkpt lat="40.0248964" lon="15.8119143"><ele>214.0</ele><time>2026-05-01T12:26:10.979Z</time></trkpt><trkpt lat="40.0249324" lon="15.8117648"><ele>214.0</ele><time>2026-05-01T12:26:11.979Z</time></trkpt><trkpt lat="40.0249745" lon="15.8116236"><ele>214.0</ele><time>2026-05-01T12:26:12.979Z</time></trkpt><trkpt lat="40.025026" lon="15.811475"><ele>204.0</ele><time>2026-05-01T12:26:13.979Z</time></trkpt><trkpt lat="40.0250879" lon="15.8113338"><ele>194.0</ele><time>2026-05-01T12:26:14.979Z</time></trkpt><trkpt lat="40.02516" lon="15.8111972"><ele>184.0</ele><time>2026-05-01T12:26:15.979Z</time></trkpt><trkpt lat="40.0252335" lon="15.8110639"><ele>174.0</ele><time>2026-05-01T12:26:16.979Z</time></trkpt><trkpt lat="40.0253246" lon="15.8109363"><ele>174.0</ele><time>2026-05-01T12:26:17.98Z</time></trkpt><trkpt lat="40.0254319" lon="15.8108072"><ele>174.0</ele><time>2026-05-01T12:26:18.979Z</time></trkpt><trkpt lat="40.0255515" lon="15.8106747"><ele>174.0</ele><time>2026-05-01T12:26:19.98Z</time></trkpt><trkpt lat="40.0256698" lon="15.810543"><ele>174.0</ele><time>2026-05-01T12:26:20.979Z</time></trkpt><trkpt lat="40.0257988" lon="15.8104119"><ele>174.0</ele><time>2026-05-01T12:26:21.979Z</time></trkpt><trkpt lat="40.025923" lon="15.8102873"><ele>174.0</ele><time>2026-05-01T12:26:22.98Z</time></trkpt><trkpt lat="40.0260527" lon="15.8101533"><ele>177.66666666666666</ele><time>2026-05-01T12:26:23.979Z</time></trkpt><trkpt lat="40.0261932" lon="15.8100052"><ele>181.33333333333331</ele><time>2026-05-01T12:26:24.98Z</time></trkpt><trkpt lat="40.026335" lon="15.8098558"><ele>185.0</ele><time>2026-05-01T12:26:25.98Z</time></trkpt><trkpt lat="40.0264837" lon="15.8097037"><ele>185.0</ele><time>2026-05-01T12:26:26.98Z</time></trkpt><trkpt lat="40.0266342" lon="15.8095528"><ele>185.0</ele><time>2026-05-01T12:26:27.979Z</time></trkpt><trkpt lat="40.0267891" lon="15.809398"><ele>185.0</ele><time>2026-05-01T12:26:28.979Z</time></trkpt><trkpt lat="40.0269474" lon="15.8092457"><ele>189.0</ele><time>2026-05-01T12:26:29.98Z</time></trkpt><trkpt lat="40.0271073" lon="15.8090944"><ele>193.0</ele><time>2026-05-01T12:26:30.979Z</time></trkpt><trkpt lat="40.027163" lon="15.8089185"><ele>197.0</ele><time>2026-05-01T12:26:31.979Z</time></trkpt><trkpt lat="40.027305" lon="15.8087741"><ele>197.0</ele><time>2026-05-01T12:26:32.979Z</time></trkpt><trkpt lat="40.027462" lon="15.8086394"><ele>197.0</ele><time>2026-05-01T12:26:33.98Z</time></trkpt><trkpt lat="40.0276147" lon="15.8085149"><ele>197.0</ele><time>2026-05-01T12:26:34.979Z</time></trkpt><trkpt lat="40.0277626" lon="15.8084115"><ele>193.66666666666669</ele><time>2026-05-01T12:26:35.98Z</time></trkpt><trkpt lat="40.0279085" lon="15.8083317"><ele>190.33333333333334</ele><time>2026-05-01T12:26:36.979Z</time></trkpt><trkpt lat="40.0280584" lon="15.8082535"><ele>187.0</ele><time>2026-05-01T12:26:37.979Z</time></trkpt><trkpt lat="40.0282053" lon="15.8081726"><ele>184.33333333333334</ele><time>2026-05-01T12:26:38.979Z</time></trkpt><trkpt lat="40.0283503" lon="15.8080898"><ele>181.66666666666666</ele><time>2026-05-01T12:26:39.979Z</time></trkpt><trkpt lat="40.0284866" lon="15.8080129"><ele>179.0</ele><time>2026-05-01T12:26:40.98Z</time></trkpt><trkpt lat="40.0286219" lon="15.8079334"><ele>179.0</ele><time>2026-05-01T12:26:41.979Z</time></trkpt><trkpt lat="40.0287519" lon="15.80785"><ele>179.0</ele><time>2026-05-01T12:26:42.98Z</time></trkpt><trkpt lat="40.0288632" lon="15.8077488"><ele>179.0</ele><time>2026-05-01T12:26:43.979Z</time></trkpt><trkpt lat="40.0289598" lon="15.8076392"><ele>179.0</ele><time>2026-05-01T12:26:44.98Z</time></trkpt><trkpt lat="40.0290384" lon="15.8075101"><ele>180.5</ele><time>2026-05-01T12:26:45.979Z</time></trkpt><trkpt lat="40.0290925" lon="15.8073779"><ele>182.0</ele><time>2026-05-01T12:26:46.979Z</time></trkpt><trkpt lat="40.0291179" lon="15.8072315"><ele>183.5</ele><time>2026-05-01T12:26:47.979Z</time></trkpt><trkpt lat="40.0291259" lon="15.8070735"><ele>185.0</ele><time>2026-05-01T12:26:48.979Z</time></trkpt><trkpt lat="40.029123" lon="15.8069195"><ele>186.4</ele><time>2026-05-01T12:26:49.979Z</time></trkpt><trkpt lat="40.0291031" lon="15.8067682"><ele>187.8</ele><time>2026-05-01T12:26:50.979Z</time></trkpt><trkpt lat="40.0290712" lon="15.8066318"><ele>189.2</ele><time>2026-05-01T12:26:51.979Z</time></trkpt><trkpt lat="40.0290354" lon="15.8064967"><ele>190.6</ele><time>2026-05-01T12:26:52.98Z</time></trkpt><trkpt lat="40.0289973" lon="15.8063649"><ele>192.0</ele><time>2026-05-01T12:26:53.979Z</time></trkpt><trkpt lat="40.0289627" lon="15.8062271"><ele>192.0</ele><time>2026-05-01T12:26:54.979Z</time></trkpt><trkpt lat="40.028922" lon="15.8060867"><ele>192.0</ele><time>2026-05-01T12:26:55.979Z</time></trkpt><trkpt lat="40.0288775" lon="15.8059445"><ele>192.0</ele><time>2026-05-01T12:26:56.979Z</time></trkpt><trkpt lat="40.0288351" lon="15.8057893"><ele>192.0</ele><time>2026-05-01T12:26:57.98Z</time></trkpt><trkpt lat="40.0287937" lon="15.805647"><ele>193.6</ele><time>2026-05-01T12:26:58.979Z</time></trkpt><trkpt lat="40.0287563" lon="15.8055107"><ele>195.2</ele><time>2026-05-01T12:26:59.979Z</time></trkpt><trkpt lat="40.0287203" lon="15.8053719"><ele>196.8</ele><time>2026-05-01T12:27:00.979Z</time></trkpt><trkpt lat="40.0286788" lon="15.8052375"><ele>198.4</ele><time>2026-05-01T12:27:01.979Z</time></trkpt><trkpt lat="40.0286365" lon="15.8051044"><ele>200.0</ele><time>2026-05-01T12:27:02.98Z</time></trkpt><trkpt lat="40.0285963" lon="15.804961"><ele>199.0</ele><time>2026-05-01T12:27:03.98Z</time></trkpt><trkpt lat="40.0295373" lon="15.8046841"><ele>199.0</ele><time>2026-05-01T12:27:12.979Z</time></trkpt><trkpt lat="40.0295699" lon="15.8047947"><ele>199.0</ele><time>2026-05-01T12:27:13.979Z</time></trkpt><trkpt lat="40.0295874" lon="15.8049523"><ele>199.0</ele><time>2026-05-01T12:27:14.979Z</time></trkpt><trkpt lat="40.0296001" lon="15.8051174"><ele>199.0</ele><time>2026-05-01T12:27:15.979Z</time></trkpt><trkpt lat="40.0295832" lon="15.8052582"><ele>199.0</ele><time>2026-05-01T12:27:16.98Z</time></trkpt><trkpt lat="40.0295375" lon="15.8053747"><ele>196.39999999999998</ele><time>2026-05-01T12:27:17.98Z</time></trkpt><trkpt lat="40.0294772" lon="15.8054792"><ele>193.8</ele><time>2026-05-01T12:27:18.979Z</time></trkpt><trkpt lat="40.0293976" lon="15.8055602"><ele>191.2</ele><time>2026-05-01T12:27:19.979Z</time></trkpt><trkpt lat="40.0293248" lon="15.8056264"><ele>188.60000000000002</ele><time>2026-05-01T12:27:20.98Z</time></trkpt><trkpt lat="40.0292554" lon="15.8057023"><ele>186.0</ele><time>2026-05-01T12:27:21.979Z</time></trkpt><trkpt lat="40.0291865" lon="15.8057775"><ele>187.20000000000002</ele><time>2026-05-01T12:27:22.979Z</time></trkpt><trkpt lat="40.0291203" lon="15.8058664"><ele>188.4</ele><time>2026-05-01T12:27:23.98Z</time></trkpt><trkpt lat="40.0290449" lon="15.8059594"><ele>189.6</ele><time>2026-05-01T12:27:24.979Z</time></trkpt><trkpt lat="40.0289767" lon="15.8060555"><ele>190.8</ele><time>2026-05-01T12:27:25.979Z</time></trkpt><trkpt lat="40.0289218" lon="15.8061443"><ele>192.0</ele><time>2026-05-01T12:27:26.979Z</time></trkpt><trkpt lat="40.0288727" lon="15.806219"><ele>192.0</ele><time>2026-05-01T12:27:27.98Z</time></trkpt><trkpt lat="40.0288181" lon="15.8062949"><ele>192.0</ele><time>2026-05-01T12:27:28.98Z</time></trkpt><trkpt lat="40.0287728" lon="15.8063829"><ele>192.0</ele><time>2026-05-01T12:27:29.979Z</time></trkpt><trkpt lat="40.0287228" lon="15.8064581"><ele>192.0</ele><time>2026-05-01T12:27:30.979Z</time></trkpt><trkpt lat="40.0286769" lon="15.8065365"><ele>192.0</ele><time>2026-05-01T12:27:31.979Z</time></trkpt><trkpt lat="40.0286321" lon="15.8066112"><ele>192.0</ele><time>2026-05-01T12:27:32.979Z</time></trkpt><trkpt lat="40.0285903" lon="15.806677"><ele>192.0</ele><time>2026-05-01T12:27:33.979Z</time></trkpt><trkpt lat="40.0285248" lon="15.8067744"><ele>192.0</ele><time>2026-05-01T12:27:35.979Z</time></trkpt><trkpt lat="40.0284756" lon="15.8068629"><ele>192.0</ele><time>2026-05-01T12:27:37.979Z</time></trkpt><trkpt lat="40.0284126" lon="15.8069626"><ele>192.0</ele><time>2026-05-01T12:27:39.979Z</time></trkpt><trkpt lat="40.0283308" lon="15.8070955"><ele>192.0</ele><time>2026-05-01T12:27:41.98Z</time></trkpt><trkpt lat="40.028279" lon="15.8071774"><ele>192.0</ele><time>2026-05-01T12:27:42.979Z</time></trkpt><trkpt lat="40.0282298" lon="15.8072594"><ele>192.0</ele><time>2026-05-01T12:27:43.979Z</time></trkpt><trkpt lat="40.0281789" lon="15.8073302"><ele>192.0</ele><time>2026-05-01T12:27:44.98Z</time></trkpt><trkpt lat="40.0280859" lon="15.8074193"><ele>192.0</ele><time>2026-05-01T12:27:46.979Z</time></trkpt><trkpt lat="40.027965" lon="15.8074782"><ele>192.0</ele><time>2026-05-01T12:27:48.979Z</time></trkpt><trkpt lat="40.0278883" lon="15.807497"><ele>192.0</ele><time>2026-05-01T12:27:49.979Z</time></trkpt><trkpt lat="40.0278091" lon="15.8075309"><ele>192.0</ele><time>2026-05-01T12:27:50.98Z</time></trkpt><trkpt lat="40.0277353" lon="15.807588"><ele>192.0</ele><time>2026-05-01T12:27:51.979Z</time></trkpt><trkpt lat="40.0276693" lon="15.8076693"><ele>192.0</ele><time>2026-05-01T12:27:52.979Z</time></trkpt><trkpt lat="40.0276065" lon="15.8077534"><ele>192.0</ele><time>2026-05-01T12:27:53.979Z</time></trkpt><trkpt lat="40.0275434" lon="15.8078327"><ele>192.0</ele><time>2026-05-01T12:27:54.979Z</time></trkpt><trkpt lat="40.0274833" lon="15.8079108"><ele>192.5</ele><time>2026-05-01T12:27:55.979Z</time></trkpt><trkpt lat="40.027422" lon="15.8079816"><ele>193.0</ele><time>2026-05-01T12:27:56.979Z</time></trkpt><trkpt lat="40.0273634" lon="15.8080409"><ele>193.5</ele><time>2026-05-01T12:27:57.98Z</time></trkpt><trkpt lat="40.0273003" lon="15.8080809"><ele>194.0</ele><time>2026-05-01T12:27:58.979Z</time></trkpt><trkpt lat="40.0272316" lon="15.8081106"><ele>194.5</ele><time>2026-05-01T12:27:59.979Z</time></trkpt><trkpt lat="40.0271519" lon="15.8081361"><ele>195.0</ele><time>2026-05-01T12:28:00.979Z</time></trkpt><trkpt lat="40.0270691" lon="15.8081632"><ele>195.0</ele><time>2026-05-01T12:28:01.979Z</time></trkpt><trkpt lat="40.0269861" lon="15.8081958"><ele>195.0</ele><time>2026-05-01T12:28:02.98Z</time></trkpt><trkpt lat="40.0269043" lon="15.8082293"><ele>195.0</ele><time>2026-05-01T12:28:03.979Z</time></trkpt><trkpt lat="40.0268248" lon="15.8082617"><ele>195.0</ele><time>2026-05-01T12:28:04.979Z</time></trkpt><trkpt lat="40.0267482" lon="15.8083074"><ele>195.0</ele><time>2026-05-01T12:28:05.98Z</time></trkpt><trkpt lat="40.0266874" lon="15.8083675"><ele>195.0</ele><time>2026-05-01T12:28:06.979Z</time></trkpt><trkpt lat="40.0266423" lon="15.8084414"><ele>195.33333333333334</ele><time>2026-05-01T12:28:07.979Z</time></trkpt><trkpt lat="40.0266368" lon="15.8085878"><ele>195.66666666666669</ele><time>2026-05-01T12:28:09.979Z</time></trkpt><trkpt lat="40.0266682" lon="15.8086668"><ele>196.0</ele><time>2026-05-01T12:28:10.979Z</time></trkpt><trkpt lat="40.0267242" lon="15.8087423"><ele>196.33333333333334</ele><time>2026-05-01T12:28:11.979Z</time></trkpt><trkpt lat="40.0267927" lon="15.8087915"><ele>196.66666666666669</ele><time>2026-05-01T12:28:12.979Z</time></trkpt><trkpt lat="40.0268691" lon="15.8088104"><ele>197.0</ele><time>2026-05-01T12:28:13.979Z</time></trkpt><trkpt lat="40.0269485" lon="15.8087973"><ele>197.0</ele><time>2026-05-01T12:28:14.979Z</time></trkpt><trkpt lat="40.0270379" lon="15.8087584"><ele>197.0</ele><time>2026-05-01T12:28:15.979Z</time></trkpt><trkpt lat="40.0271322" lon="15.808704"><ele>197.0</ele><time>2026-05-01T12:28:16.98Z</time></trkpt><trkpt lat="40.0272365" lon="15.8086334"><ele>197.0</ele><time>2026-05-01T12:28:17.979Z</time></trkpt><trkpt lat="40.0273461" lon="15.808565"><ele>197.0</ele><time>2026-05-01T12:28:18.98Z</time></trkpt><trkpt lat="40.0274523" lon="15.8084903"><ele>194.5</ele><time>2026-05-01T12:28:19.98Z</time></trkpt><trkpt lat="40.0275611" lon="15.808421"><ele>192.0</ele><time>2026-05-01T12:28:20.979Z</time></trkpt><trkpt lat="40.0276726" lon="15.8083479"><ele>189.5</ele><time>2026-05-01T12:28:21.98Z</time></trkpt><trkpt lat="40.0277787" lon="15.8082761"><ele>187.0</ele><time>2026-05-01T12:28:22.979Z</time></trkpt><trkpt lat="40.027888" lon="15.8082114"><ele>187.0</ele><time>2026-05-01T12:28:23.979Z</time></trkpt><trkpt lat="40.0279948" lon="15.8081631"><ele>187.0</ele><time>2026-05-01T12:28:24.98Z</time></trkpt><trkpt lat="40.0280983" lon="15.8081145"><ele>187.0</ele><time>2026-05-01T12:28:25.979Z</time></trkpt><trkpt lat="40.0281981" lon="15.8080702"><ele>187.0</ele><time>2026-05-01T12:28:26.979Z</time></trkpt><trkpt lat="40.0282933" lon="15.8080143"><ele>187.0</ele><time>2026-05-01T12:28:27.979Z</time></trkpt><trkpt lat="40.0283823" lon="15.8079573"><ele>186.6</ele><time>2026-05-01T12:28:28.979Z</time></trkpt><trkpt lat="40.0284685" lon="15.8078989"><ele>186.2</ele><time>2026-05-01T12:28:29.979Z</time></trkpt><trkpt lat="40.0285505" lon="15.8078474"><ele>185.8</ele><time>2026-05-01T12:28:30.979Z</time></trkpt><trkpt lat="40.0286392" lon="15.8077842"><ele>185.4</ele><time>2026-05-01T12:28:31.98Z</time></trkpt><trkpt lat="40.0287202" lon="15.8077109"><ele>185.0</ele><time>2026-05-01T12:28:32.979Z</time></trkpt><trkpt lat="40.028791" lon="15.8076363"><ele>185.0</ele><time>2026-05-01T12:28:33.979Z</time></trkpt><trkpt lat="40.028857" lon="15.8075525"><ele>185.0</ele><time>2026-05-01T12:28:34.98Z</time></trkpt><trkpt lat="40.0289056" lon="15.8074609"><ele>185.0</ele><time>2026-05-01T12:28:35.98Z</time></trkpt><trkpt lat="40.0289384" lon="15.8073649"><ele>185.0</ele><time>2026-05-01T12:28:36.979Z</time></trkpt><trkpt lat="40.0289628" lon="15.8072749"><ele>185.0</ele><time>2026-05-01T12:28:37.979Z</time></trkpt><trkpt lat="40.0289806" lon="15.8071881"><ele>185.0</ele><time>2026-05-01T12:28:38.98Z</time></trkpt><trkpt lat="40.0290104" lon="15.8070556"><ele>185.0</ele><time>2026-05-01T12:28:40.979Z</time></trkpt><trkpt lat="40.0290217" lon="15.8069551"><ele>185.0</ele><time>2026-05-01T12:28:42.979Z</time></trkpt><trkpt lat="40.02904" lon="15.8068535"><ele>185.0</ele><time>2026-05-01T12:28:44.979Z</time></trkpt><trkpt lat="40.029057" lon="15.8067577"><ele>185.0</ele><time>2026-05-01T12:28:46.98Z</time></trkpt><trkpt lat="40.0290895" lon="15.8066578"><ele>185.0</ele><time>2026-05-01T12:28:48.979Z</time></trkpt><trkpt lat="40.02911" lon="15.8065488"><ele>185.0</ele><time>2026-05-01T12:28:50.979Z</time></trkpt><trkpt lat="40.0291298" lon="15.8064186"><ele>185.2</ele><time>2026-05-01T12:28:52.979Z</time></trkpt><trkpt lat="40.0291486" lon="15.8062786"><ele>185.4</ele><time>2026-05-01T12:28:54.979Z</time></trkpt><trkpt lat="40.0291638" lon="15.8061565"><ele>185.60000000000002</ele><time>2026-05-01T12:28:56.98Z</time></trkpt><trkpt lat="40.0291722" lon="15.8060233"><ele>185.8</ele><time>2026-05-01T12:28:58.98Z</time></trkpt><trkpt lat="40.0291904" lon="15.8058936"><ele>186.0</ele><time>2026-05-01T12:29:00.979Z</time></trkpt><trkpt lat="40.0292437" lon="15.8058179"><ele>186.0</ele><time>2026-05-01T12:29:01.979Z</time></trkpt><trkpt lat="40.0293222" lon="15.8057308"><ele>186.0</ele><time>2026-05-01T12:29:02.979Z</time></trkpt><trkpt lat="40.0294074" lon="15.805649"><ele>186.0</ele><time>2026-05-01T12:29:03.98Z</time></trkpt><trkpt lat="40.0294951" lon="15.8055599"><ele>186.0</ele><time>2026-05-01T12:29:04.98Z</time></trkpt><trkpt lat="40.029593" lon="15.8054754"><ele>186.0</ele><time>2026-05-01T12:29:05.98Z</time></trkpt><trkpt lat="40.0296976" lon="15.8054026"><ele>186.0</ele><time>2026-05-01T12:29:06.979Z</time></trkpt><trkpt lat="40.0298168" lon="15.8053242"><ele>186.0</ele><time>2026-05-01T12:29:07.979Z</time></trkpt><trkpt lat="40.0299825" lon="15.8052463"><ele>186.0</ele><time>2026-05-01T12:29:08.979Z</time></trkpt><trkpt lat="40.030195" lon="15.8051471"><ele>189.5</ele><time>2026-05-01T12:29:09.979Z</time></trkpt><trkpt lat="40.0304217" lon="15.8050411"><ele>193.0</ele><time>2026-05-01T12:29:10.98Z</time></trkpt><trkpt lat="40.0306603" lon="15.8049365"><ele>190.5</ele><time>2026-05-01T12:29:11.979Z</time></trkpt><trkpt lat="40.0309039" lon="15.8048311"><ele>188.0</ele><time>2026-05-01T12:29:12.979Z</time></trkpt><trkpt lat="40.0311323" lon="15.8047171"><ele>188.0</ele><time>2026-05-01T12:29:13.979Z</time></trkpt><trkpt lat="40.0313477" lon="15.804611"><ele>188.0</ele><time>2026-05-01T12:29:14.98Z</time></trkpt><trkpt lat="40.0315503" lon="15.8045319"><ele>188.0</ele><time>2026-05-01T12:29:15.979Z</time></trkpt><trkpt lat="40.0317432" lon="15.8044757"><ele>187.33333333333331</ele><time>2026-05-01T12:29:16.979Z</time></trkpt><trkpt lat="40.031933" lon="15.8044575"><ele>186.66666666666666</ele><time>2026-05-01T12:29:17.979Z</time></trkpt><trkpt lat="40.032114" lon="15.8044716"><ele>186.0</ele><time>2026-05-01T12:29:18.979Z</time></trkpt><trkpt lat="40.0322907" lon="15.8044983"><ele>186.0</ele><time>2026-05-01T12:29:19.979Z</time></trkpt><trkpt lat="40.0324563" lon="15.804547"><ele>186.0</ele><time>2026-05-01T12:29:20.98Z</time></trkpt><trkpt lat="40.0326279" lon="15.8046018"><ele>186.0</ele><time>2026-05-01T12:29:21.98Z</time></trkpt><trkpt lat="40.0327934" lon="15.804665"><ele>187.66666666666666</ele><time>2026-05-01T12:29:22.98Z</time></trkpt><trkpt lat="40.0329597" lon="15.804717"><ele>189.33333333333331</ele><time>2026-05-01T12:29:23.98Z</time></trkpt><trkpt lat="40.0331208" lon="15.8047737"><ele>191.0</ele><time>2026-05-01T12:29:24.979Z</time></trkpt><trkpt lat="40.0332852" lon="15.8048262"><ele>194.33333333333331</ele><time>2026-05-01T12:29:25.979Z</time></trkpt><trkpt lat="40.0334484" lon="15.8048835"><ele>197.66666666666666</ele><time>2026-05-01T12:29:26.979Z</time></trkpt><trkpt lat="40.03362" lon="15.8049373"><ele>201.0</ele><time>2026-05-01T12:29:27.98Z</time></trkpt><trkpt lat="40.0337835" lon="15.8049873"><ele>201.0</ele><time>2026-05-01T12:29:28.979Z</time></trkpt><trkpt lat="40.0339528" lon="15.8050312"><ele>201.0</ele><time>2026-05-01T12:29:29.98Z</time></trkpt><trkpt lat="40.0341155" lon="15.8050594"><ele>201.0</ele><time>2026-05-01T12:29:30.98Z</time></trkpt><trkpt lat="40.0342736" lon="15.8050538"><ele>205.0</ele><time>2026-05-01T12:29:31.98Z</time></trkpt><trkpt lat="40.034427" lon="15.8050231"><ele>209.0</ele><time>2026-05-01T12:29:32.979Z</time></trkpt><trkpt lat="40.0345744" lon="15.8049689"><ele>213.0</ele><time>2026-05-01T12:29:33.979Z</time></trkpt><trkpt lat="40.034711" lon="15.8049017"><ele>213.0</ele><time>2026-05-01T12:29:34.98Z</time></trkpt><trkpt lat="40.0348405" lon="15.8048264"><ele>213.0</ele><time>2026-05-01T12:29:35.979Z</time></trkpt><trkpt lat="40.0349575" lon="15.8047384"><ele>213.0</ele><time>2026-05-01T12:29:36.979Z</time></trkpt><trkpt lat="40.0350621" lon="15.8046273"><ele>213.0</ele><time>2026-05-01T12:29:37.979Z</time></trkpt><trkpt lat="40.0351584" lon="15.8044936"><ele>212.75</ele><time>2026-05-01T12:29:38.979Z</time></trkpt><trkpt lat="40.0352453" lon="15.8043426"><ele>212.5</ele><time>2026-05-01T12:29:39.98Z</time></trkpt><trkpt lat="40.0353303" lon="15.8041885"><ele>212.25</ele><time>2026-05-01T12:29:40.979Z</time></trkpt><trkpt lat="40.0354063" lon="15.8040286"><ele>212.0</ele><time>2026-05-01T12:29:41.979Z</time></trkpt><trkpt lat="40.0354677" lon="15.8038538"><ele>213.75</ele><time>2026-05-01T12:29:42.98Z</time></trkpt><trkpt lat="40.0355071" lon="15.8036787"><ele>215.5</ele><time>2026-05-01T12:29:43.98Z</time></trkpt><trkpt lat="40.0355333" lon="15.8034937"><ele>217.25</ele><time>2026-05-01T12:29:44.979Z</time></trkpt><trkpt lat="40.0355495" lon="15.8033081"><ele>219.0</ele><time>2026-05-01T12:29:45.979Z</time></trkpt><trkpt lat="40.0355618" lon="15.8031213"><ele>220.25</ele><time>2026-05-01T12:29:46.979Z</time></trkpt><trkpt lat="40.0355735" lon="15.8029318"><ele>221.5</ele><time>2026-05-01T12:29:47.979Z</time></trkpt><trkpt lat="40.0355955" lon="15.8027386"><ele>222.75</ele><time>2026-05-01T12:29:48.979Z</time></trkpt><trkpt lat="40.0356379" lon="15.8025468"><ele>224.0</ele><time>2026-05-01T12:29:49.979Z</time></trkpt><trkpt lat="40.0356991" lon="15.802358"><ele>223.0</ele><time>2026-05-01T12:29:50.979Z</time></trkpt><trkpt lat="40.0357755" lon="15.8021884"><ele>222.0</ele><time>2026-05-01T12:29:51.979Z</time></trkpt><trkpt lat="40.0358698" lon="15.8020268"><ele>221.0</ele><time>2026-05-01T12:29:52.98Z</time></trkpt><trkpt lat="40.035982" lon="15.8018848"><ele>224.33333333333334</ele><time>2026-05-01T12:29:53.979Z</time></trkpt><trkpt lat="40.0361098" lon="15.8017522"><ele>227.66666666666669</ele><time>2026-05-01T12:29:54.98Z</time></trkpt><trkpt lat="40.0362534" lon="15.8016263"><ele>231.0</ele><time>2026-05-01T12:29:55.979Z</time></trkpt><trkpt lat="40.0364027" lon="15.8015137"><ele>231.0</ele><time>2026-05-01T12:29:56.979Z</time></trkpt><trkpt lat="40.0365651" lon="15.8014145"><ele>231.0</ele><time>2026-05-01T12:29:57.98Z</time></trkpt><trkpt lat="40.0367233" lon="15.8013106"><ele>231.0</ele><time>2026-05-01T12:29:58.98Z</time></trkpt><trkpt lat="40.0368883" lon="15.8012046"><ele>230.0</ele><time>2026-05-01T12:29:59.979Z</time></trkpt><trkpt lat="40.0370462" lon="15.801091"><ele>229.0</ele><time>2026-05-01T12:30:00.979Z</time></trkpt><trkpt lat="40.0371984" lon="15.800971"><ele>228.0</ele><time>2026-05-01T12:30:01.979Z</time></trkpt><trkpt lat="40.0373389" lon="15.8008576"><ele>229.0</ele><time>2026-05-01T12:30:02.98Z</time></trkpt><trkpt lat="40.0374724" lon="15.8007409"><ele>230.0</ele><time>2026-05-01T12:30:03.98Z</time></trkpt><trkpt lat="40.0376049" lon="15.8006151"><ele>231.0</ele><time>2026-05-01T12:30:04.979Z</time></trkpt><trkpt lat="40.0377306" lon="15.8004806"><ele>231.0</ele><time>2026-05-01T12:30:05.979Z</time></trkpt><trkpt lat="40.0378566" lon="15.8003391"><ele>231.0</ele><time>2026-05-01T12:30:06.979Z</time></trkpt><trkpt lat="40.0379782" lon="15.8001967"><ele>231.0</ele><time>2026-05-01T12:30:07.979Z</time></trkpt><trkpt lat="40.0381013" lon="15.8000577"><ele>231.33333333333331</ele><time>2026-05-01T12:30:08.979Z</time></trkpt><trkpt lat="40.0382159" lon="15.7999076"><ele>231.66666666666666</ele><time>2026-05-01T12:30:09.979Z</time></trkpt><trkpt lat="40.0383196" lon="15.7997368"><ele>232.0</ele><time>2026-05-01T12:30:10.979Z</time></trkpt><trkpt lat="40.0384112" lon="15.7995365"><ele>234.66666666666666</ele><time>2026-05-01T12:30:11.979Z</time></trkpt><trkpt lat="40.038492" lon="15.7993207"><ele>237.33333333333331</ele><time>2026-05-01T12:30:12.98Z</time></trkpt><trkpt lat="40.0385423" lon="15.7990897"><ele>240.0</ele><time>2026-05-01T12:30:13.979Z</time></trkpt><trkpt lat="40.0385726" lon="15.7988539"><ele>240.0</ele><time>2026-05-01T12:30:14.979Z</time></trkpt><trkpt lat="40.0385823" lon="15.7986288"><ele>240.0</ele><time>2026-05-01T12:30:15.979Z</time></trkpt><trkpt lat="40.0385677" lon="15.7984007"><ele>240.0</ele><time>2026-05-01T12:30:16.979Z</time></trkpt><trkpt lat="40.0385208" lon="15.7981666"><ele>241.33333333333331</ele><time>2026-05-01T12:30:17.979Z</time></trkpt><trkpt lat="40.038458" lon="15.7979312"><ele>242.66666666666666</ele><time>2026-05-01T12:30:18.98Z</time></trkpt><trkpt lat="40.0383928" lon="15.7977021"><ele>244.0</ele><time>2026-05-01T12:30:19.979Z</time></trkpt><trkpt lat="40.0383357" lon="15.7974721"><ele>248.33333333333331</ele><time>2026-05-01T12:30:20.98Z</time></trkpt><trkpt lat="40.0382893" lon="15.7972448"><ele>252.66666666666669</ele><time>2026-05-01T12:30:21.979Z</time></trkpt><trkpt lat="40.038262" lon="15.7970152"><ele>257.0</ele><time>2026-05-01T12:30:22.979Z</time></trkpt><trkpt lat="40.0382517" lon="15.7967938"><ele>257.0</ele><time>2026-05-01T12:30:23.979Z</time></trkpt><trkpt lat="40.0382451" lon="15.7965742"><ele>257.0</ele><time>2026-05-01T12:30:24.979Z</time></trkpt><trkpt lat="40.0382488" lon="15.7963529"><ele>257.0</ele><time>2026-05-01T12:30:25.979Z</time></trkpt><trkpt lat="40.038267" lon="15.796139"><ele>257.33333333333337</ele><time>2026-05-01T12:30:26.979Z</time></trkpt><trkpt lat="40.0382941" lon="15.7959333"><ele>257.6666666666667</ele><time>2026-05-01T12:30:27.98Z</time></trkpt><trkpt lat="40.0383379" lon="15.7957389"><ele>258.0</ele><time>2026-05-01T12:30:28.979Z</time></trkpt><trkpt lat="40.038384" lon="15.7955471"><ele>256.6666666666667</ele><time>2026-05-01T12:30:29.98Z</time></trkpt><trkpt lat="40.0384392" lon="15.7953589"><ele>255.33333333333334</ele><time>2026-05-01T12:30:30.979Z</time></trkpt><trkpt lat="40.038506" lon="15.7951761"><ele>254.0</ele><time>2026-05-01T12:30:31.979Z</time></trkpt><trkpt lat="40.0385747" lon="15.7949911"><ele>258.0</ele><time>2026-05-01T12:30:32.98Z</time></trkpt><trkpt lat="40.0386434" lon="15.794805"><ele>262.0</ele><time>2026-05-01T12:30:33.979Z</time></trkpt><trkpt lat="40.0387054" lon="15.7946169"><ele>266.0</ele><time>2026-05-01T12:30:34.979Z</time></trkpt><trkpt lat="40.0387687" lon="15.7944374"><ele>266.6666666666667</ele><time>2026-05-01T12:30:35.98Z</time></trkpt><trkpt lat="40.0388349" lon="15.7942575"><ele>267.3333333333333</ele><time>2026-05-01T12:30:36.979Z</time></trkpt><trkpt lat="40.0389001" lon="15.7940692"><ele>268.0</ele><time>2026-05-01T12:30:37.98Z</time></trkpt><trkpt lat="40.0389677" lon="15.7938953"><ele>268.0</ele><time>2026-05-01T12:30:38.979Z</time></trkpt><trkpt lat="40.039039" lon="15.7937213"><ele>268.0</ele><time>2026-05-01T12:30:39.979Z</time></trkpt><trkpt lat="40.0391034" lon="15.793551"><ele>268.0</ele><time>2026-05-01T12:30:40.979Z</time></trkpt><trkpt lat="40.039165" lon="15.7933768"><ele>268.0</ele><time>2026-05-01T12:30:41.979Z</time></trkpt><trkpt lat="40.0392175" lon="15.7931988"><ele>268.0</ele><time>2026-05-01T12:30:42.979Z</time></trkpt><trkpt lat="40.0392655" lon="15.793021"><ele>268.0</ele><time>2026-05-01T12:30:43.98Z</time></trkpt><trkpt lat="40.0393033" lon="15.792835"><ele>268.0</ele><time>2026-05-01T12:30:44.979Z</time></trkpt><trkpt lat="40.0393362" lon="15.7926447"><ele>268.0</ele><time>2026-05-01T12:30:45.979Z</time></trkpt><trkpt lat="40.0393612" lon="15.7924545"><ele>270.25</ele><time>2026-05-01T12:30:46.98Z</time></trkpt><trkpt lat="40.0393789" lon="15.7922668"><ele>272.5</ele><time>2026-05-01T12:30:47.979Z</time></trkpt><trkpt lat="40.0393856" lon="15.792084"><ele>274.75</ele><time>2026-05-01T12:30:48.98Z</time></trkpt><trkpt lat="40.0393869" lon="15.7918938"><ele>277.0</ele><time>2026-05-01T12:30:49.979Z</time></trkpt><trkpt lat="40.0393941" lon="15.7917101"><ele>278.0</ele><time>2026-05-01T12:30:50.98Z</time></trkpt><trkpt lat="40.0393921" lon="15.7915514"><ele>279.0</ele><time>2026-05-01T12:30:51.979Z</time></trkpt><trkpt lat="40.0393894" lon="15.7914121"><ele>280.0</ele><time>2026-05-01T12:30:52.979Z</time></trkpt><trkpt lat="40.0393908" lon="15.7913026"><ele>281.0</ele><time>2026-05-01T12:30:53.98Z</time></trkpt><trkpt lat="40.0393911" lon="15.7912016"><ele>282.0</ele><time>2026-05-01T12:30:54.98Z</time></trkpt><trkpt lat="40.0393912" lon="15.7911042"><ele>282.0</ele><time>2026-05-01T12:30:55.98Z</time></trkpt><trkpt lat="40.0393851" lon="15.7910013"><ele>282.0</ele><time>2026-05-01T12:30:56.98Z</time></trkpt><trkpt lat="40.0393812" lon="15.7909072"><ele>282.0</ele><time>2026-05-01T12:30:57.979Z</time></trkpt><trkpt lat="40.039378" lon="15.7907417"><ele>282.0</ele><time>2026-05-01T12:30:59.98Z</time></trkpt><trkpt lat="40.0393795" lon="15.7906574"><ele>282.0</ele><time>2026-05-01T12:31:00.979Z</time></trkpt><trkpt lat="40.0393789" lon="15.7905195"><ele>282.0</ele><time>2026-05-01T12:31:02.98Z</time></trkpt><trkpt lat="40.0393815" lon="15.7904036"><ele>282.0</ele><time>2026-05-01T12:31:04.979Z</time></trkpt><trkpt lat="40.039379" lon="15.7902801"><ele>282.0</ele><time>2026-05-01T12:31:06.98Z</time></trkpt><trkpt lat="40.0393795" lon="15.7901173"><ele>282.0</ele><time>2026-05-01T12:31:08.979Z</time></trkpt><trkpt lat="40.0393853" lon="15.7900206"><ele>282.0</ele><time>2026-05-01T12:31:09.979Z</time></trkpt><trkpt lat="40.0393931" lon="15.78992"><ele>282.0</ele><time>2026-05-01T12:31:10.979Z</time></trkpt><trkpt lat="40.0394051" lon="15.7898225"><ele>282.0</ele><time>2026-05-01T12:31:11.98Z</time></trkpt><trkpt lat="40.0394154" lon="15.7897386"><ele>281.8</ele><time>2026-05-01T12:31:12.98Z</time></trkpt><trkpt lat="40.0394356" lon="15.7896209"><ele>281.6</ele><time>2026-05-01T12:31:14.98Z</time></trkpt><trkpt lat="40.0394614" lon="15.7895087"><ele>281.40000000000003</ele><time>2026-05-01T12:31:16.98Z</time></trkpt><trkpt lat="40.0394966" lon="15.7893759"><ele>281.2</ele><time>2026-05-01T12:31:18.98Z</time></trkpt><trkpt lat="40.0395208" lon="15.7892155"><ele>281.0</ele><time>2026-05-01T12:31:20.98Z</time></trkpt><trkpt lat="40.0394756" lon="15.7890733"><ele>282.0</ele><time>2026-05-01T12:31:22.979Z</time></trkpt><trkpt lat="40.0393723" lon="15.7889882"><ele>283.0</ele><time>2026-05-01T12:31:24.979Z</time></trkpt><trkpt lat="40.0393103" lon="15.7889532"><ele>284.0</ele><time>2026-05-01T12:31:25.98Z</time></trkpt><trkpt lat="40.0392513" lon="15.7888963"><ele>285.0</ele><time>2026-05-01T12:31:26.979Z</time></trkpt><trkpt lat="40.039202" lon="15.7888233"><ele>286.0</ele><time>2026-05-01T12:31:27.979Z</time></trkpt><trkpt lat="40.0391689" lon="15.7887316"><ele>287.0</ele><time>2026-05-01T12:31:28.979Z</time></trkpt><trkpt lat="40.0391534" lon="15.7886305"><ele>287.0</ele><time>2026-05-01T12:31:29.979Z</time></trkpt><trkpt lat="40.0391518" lon="15.7885341"><ele>287.0</ele><time>2026-05-01T12:31:30.98Z</time></trkpt><trkpt lat="40.0391672" lon="15.7884332"><ele>287.0</ele><time>2026-05-01T12:31:31.979Z</time></trkpt><trkpt lat="40.0392009" lon="15.7883269"><ele>287.0</ele><time>2026-05-01T12:31:32.98Z</time></trkpt><trkpt lat="40.0392452" lon="15.7882182"><ele>287.0</ele><time>2026-05-01T12:31:33.98Z</time></trkpt><trkpt lat="40.0392934" lon="15.7881014"><ele>287.0</ele><time>2026-05-01T12:31:34.979Z</time></trkpt><trkpt lat="40.039341" lon="15.7879839"><ele>288.0</ele><time>2026-05-01T12:31:35.98Z</time></trkpt><trkpt lat="40.0393839" lon="15.7878594"><ele>289.0</ele><time>2026-05-01T12:31:36.979Z</time></trkpt><trkpt lat="40.0394243" lon="15.7877401"><ele>290.0</ele><time>2026-05-01T12:31:37.979Z</time></trkpt><trkpt lat="40.0394599" lon="15.7876287"><ele>291.0</ele><time>2026-05-01T12:31:38.979Z</time></trkpt><trkpt lat="40.0394969" lon="15.7875237"><ele>292.0</ele><time>2026-05-01T12:31:39.979Z</time></trkpt><trkpt lat="40.0395348" lon="15.7874242"><ele>293.2857142857143</ele><time>2026-05-01T12:31:40.979Z</time></trkpt><trkpt lat="40.0395668" lon="15.7873264"><ele>294.57142857142856</ele><time>2026-05-01T12:31:41.979Z</time></trkpt><trkpt lat="40.0395865" lon="15.7872301"><ele>295.8571428571429</ele><time>2026-05-01T12:31:42.98Z</time></trkpt><trkpt lat="40.0395933" lon="15.7871351"><ele>297.1428571428571</ele><time>2026-05-01T12:31:43.98Z</time></trkpt><trkpt lat="40.0395803" lon="15.787042"><ele>298.42857142857144</ele><time>2026-05-01T12:31:44.98Z</time></trkpt><trkpt lat="40.0395403" lon="15.7869685"><ele>299.7142857142857</ele><time>2026-05-01T12:31:45.98Z</time></trkpt><trkpt lat="40.0394933" lon="15.7869105"><ele>301.0</ele><time>2026-05-01T12:31:46.979Z</time></trkpt><trkpt lat="40.0394277" lon="15.7868778"><ele>301.0</ele><time>2026-05-01T12:31:47.979Z</time></trkpt><trkpt lat="40.0393546" lon="15.7868872"><ele>301.0</ele><time>2026-05-01T12:31:48.98Z</time></trkpt><trkpt lat="40.0392669" lon="15.7869285"><ele>301.0</ele><time>2026-05-01T12:31:49.98Z</time></trkpt><trkpt lat="40.039167" lon="15.7869806"><ele>301.0</ele><time>2026-05-01T12:31:50.98Z</time></trkpt><trkpt lat="40.0390585" lon="15.7870369"><ele>301.0</ele><time>2026-05-01T12:31:51.98Z</time></trkpt><trkpt lat="40.0389259" lon="15.7871054"><ele>302.66666666666663</ele><time>2026-05-01T12:31:52.979Z</time></trkpt><trkpt lat="40.038773" lon="15.7871969"><ele>304.3333333333333</ele><time>2026-05-01T12:31:53.979Z</time></trkpt><trkpt lat="40.03863" lon="15.7872863"><ele>306.0</ele><time>2026-05-01T12:31:54.979Z</time></trkpt><trkpt lat="40.0385042" lon="15.7873589"><ele>306.0</ele><time>2026-05-01T12:31:55.98Z</time></trkpt><trkpt lat="40.0383928" lon="15.7874199"><ele>306.0</ele><time>2026-05-01T12:31:56.979Z</time></trkpt><trkpt lat="40.0382926" lon="15.7874667"><ele>306.0</ele><time>2026-05-01T12:31:57.979Z</time></trkpt><trkpt lat="40.0382041" lon="15.787513"><ele>306.0</ele><time>2026-05-01T12:31:58.979Z</time></trkpt><trkpt lat="40.0381239" lon="15.7875616"><ele>306.0</ele><time>2026-05-01T12:31:59.98Z</time></trkpt><trkpt lat="40.0380539" lon="15.7876275"><ele>308.0</ele><time>2026-05-01T12:32:00.979Z</time></trkpt><trkpt lat="40.0380072" lon="15.787722"><ele>310.0</ele><time>2026-05-01T12:32:01.979Z</time></trkpt><trkpt lat="40.0379903" lon="15.7878381"><ele>312.0</ele><time>2026-05-01T12:32:02.98Z</time></trkpt><trkpt lat="40.037987" lon="15.7879624"><ele>314.0</ele><time>2026-05-01T12:32:03.98Z</time></trkpt><trkpt lat="40.0379871" lon="15.7880894"><ele>316.0</ele><time>2026-05-01T12:32:04.979Z</time></trkpt><trkpt lat="40.0379742" lon="15.7882163"><ele>316.0</ele><time>2026-05-01T12:32:05.979Z</time></trkpt><trkpt lat="40.0379542" lon="15.7883433"><ele>316.0</ele><time>2026-05-01T12:32:06.979Z</time></trkpt><trkpt lat="40.0379195" lon="15.7884605"><ele>316.0</ele><time>2026-05-01T12:32:07.979Z</time></trkpt><trkpt lat="40.0378743" lon="15.7885711"><ele>316.0</ele><time>2026-05-01T12:32:08.979Z</time></trkpt><trkpt lat="40.0378297" lon="15.7886773"><ele>316.0</ele><time>2026-05-01T12:32:09.979Z</time></trkpt><trkpt lat="40.0377728" lon="15.7887925"><ele>315.2</ele><time>2026-05-01T12:32:10.98Z</time></trkpt><trkpt lat="40.0377066" lon="15.7888937"><ele>314.40000000000003</ele><time>2026-05-01T12:32:11.979Z</time></trkpt><trkpt lat="40.0376369" lon="15.7889784"><ele>313.6</ele><time>2026-05-01T12:32:12.979Z</time></trkpt><trkpt lat="40.0375587" lon="15.78905"><ele>312.8</ele><time>2026-05-01T12:32:13.98Z</time></trkpt><trkpt lat="40.0374741" lon="15.7891159"><ele>312.0</ele><time>2026-05-01T12:32:14.98Z</time></trkpt><trkpt lat="40.0373904" lon="15.7891739"><ele>314.0</ele><time>2026-05-01T12:32:15.979Z</time></trkpt><trkpt lat="40.0373146" lon="15.789229"><ele>316.0</ele><time>2026-05-01T12:32:16.98Z</time></trkpt><trkpt lat="40.0372477" lon="15.7892958"><ele>318.0</ele><time>2026-05-01T12:32:17.98Z</time></trkpt><trkpt lat="40.0371955" lon="15.7893803"><ele>320.0</ele><time>2026-05-01T12:32:18.98Z</time></trkpt><trkpt lat="40.0371655" lon="15.7894837"><ele>322.0</ele><time>2026-05-01T12:32:19.98Z</time></trkpt><trkpt lat="40.0371611" lon="15.7896028"><ele>324.0</ele><time>2026-05-01T12:32:20.979Z</time></trkpt><trkpt lat="40.0371752" lon="15.7897362"><ele>325.2</ele><time>2026-05-01T12:32:21.98Z</time></trkpt><trkpt lat="40.0372041" lon="15.7898738"><ele>326.4</ele><time>2026-05-01T12:32:22.979Z</time></trkpt><trkpt lat="40.0372403" lon="15.7900091"><ele>327.6</ele><time>2026-05-01T12:32:23.979Z</time></trkpt><trkpt lat="40.0372756" lon="15.7901449"><ele>328.8</ele><time>2026-05-01T12:32:24.979Z</time></trkpt><trkpt lat="40.0373115" lon="15.7902836"><ele>330.0</ele><time>2026-05-01T12:32:25.98Z</time></trkpt><trkpt lat="40.037345" lon="15.790428"><ele>330.0</ele><time>2026-05-01T12:32:26.979Z</time></trkpt><trkpt lat="40.0373647" lon="15.790569"><ele>330.0</ele><time>2026-05-01T12:32:27.979Z</time></trkpt><trkpt lat="40.0373639" lon="15.7907048"><ele>330.0</ele><time>2026-05-01T12:32:28.979Z</time></trkpt><trkpt lat="40.0373402" lon="15.7908291"><ele>330.0</ele><time>2026-05-01T12:32:29.98Z</time></trkpt><trkpt lat="40.0372983" lon="15.7909363"><ele>330.0</ele><time>2026-05-01T12:32:30.979Z</time></trkpt><trkpt lat="40.037241" lon="15.7910157"><ele>330.0</ele><time>2026-05-01T12:32:31.979Z</time></trkpt><trkpt lat="40.0371718" lon="15.791073"><ele>330.0</ele><time>2026-05-01T12:32:32.979Z</time></trkpt><trkpt lat="40.0370898" lon="15.7910972"><ele>330.0</ele><time>2026-05-01T12:32:33.979Z</time></trkpt><trkpt lat="40.0370045" lon="15.7910894"><ele>330.0</ele><time>2026-05-01T12:32:34.979Z</time></trkpt><trkpt lat="40.0369055" lon="15.7910345"><ele>330.0</ele><time>2026-05-01T12:32:35.98Z</time></trkpt><trkpt lat="40.0367937" lon="15.7909596"><ele>330.0</ele><time>2026-05-01T12:32:36.979Z</time></trkpt><trkpt lat="40.0366758" lon="15.7908587"><ele>330.0</ele><time>2026-05-01T12:32:37.979Z</time></trkpt><trkpt lat="40.0365571" lon="15.7907502"><ele>330.0</ele><time>2026-05-01T12:32:38.98Z</time></trkpt><trkpt lat="40.0364531" lon="15.7906413"><ele>330.0</ele><time>2026-05-01T12:32:39.98Z</time></trkpt><trkpt lat="40.0363624" lon="15.7905304"><ele>329.75</ele><time>2026-05-01T12:32:40.98Z</time></trkpt><trkpt lat="40.0362712" lon="15.7904165"><ele>329.5</ele><time>2026-05-01T12:32:41.98Z</time></trkpt><trkpt lat="40.0361934" lon="15.7903107"><ele>329.25</ele><time>2026-05-01T12:32:42.98Z</time></trkpt><trkpt lat="40.0361231" lon="15.7902129"><ele>329.0</ele><time>2026-05-01T12:32:43.979Z</time></trkpt><trkpt lat="40.0360294" lon="15.7901398"><ele>331.0</ele><time>2026-05-01T12:32:44.979Z</time></trkpt><trkpt lat="40.0359183" lon="15.7901074"><ele>333.0</ele><time>2026-05-01T12:32:45.98Z</time></trkpt><trkpt lat="40.0357995" lon="15.7900937"><ele>335.0</ele><time>2026-05-01T12:32:46.98Z</time></trkpt><trkpt lat="40.0356807" lon="15.7900847"><ele>337.0</ele><time>2026-05-01T12:32:47.979Z</time></trkpt><trkpt lat="40.0355636" lon="15.7900799"><ele>338.0</ele><time>2026-05-01T12:32:48.979Z</time></trkpt><trkpt lat="40.0354546" lon="15.7900746"><ele>339.0</ele><time>2026-05-01T12:32:49.979Z</time></trkpt><trkpt lat="40.0353447" lon="15.790076"><ele>340.0</ele><time>2026-05-01T12:32:50.979Z</time></trkpt><trkpt lat="40.0352273" lon="15.7901039"><ele>341.0</ele><time>2026-05-01T12:32:51.979Z</time></trkpt><trkpt lat="40.0351154" lon="15.7901508"><ele>340.25</ele><time>2026-05-01T12:32:52.979Z</time></trkpt><trkpt lat="40.0350129" lon="15.790221"><ele>339.5</ele><time>2026-05-01T12:32:53.979Z</time></trkpt><trkpt lat="40.0349165" lon="15.7903132"><ele>338.75</ele><time>2026-05-01T12:32:54.979Z</time></trkpt><trkpt lat="40.0348324" lon="15.7904313"><ele>338.0</ele><time>2026-05-01T12:32:55.979Z</time></trkpt><trkpt lat="40.034775" lon="15.7905641"><ele>339.0</ele><time>2026-05-01T12:32:56.979Z</time></trkpt><trkpt lat="40.0347395" lon="15.7907159"><ele>340.0</ele><time>2026-05-01T12:32:57.979Z</time></trkpt><trkpt lat="40.034712" lon="15.7908756"><ele>341.0</ele><time>2026-05-01T12:32:58.979Z</time></trkpt><trkpt lat="40.0346828" lon="15.7910299"><ele>342.0</ele><time>2026-05-01T12:32:59.979Z</time></trkpt><trkpt lat="40.0346398" lon="15.7911602"><ele>342.0</ele><time>2026-05-01T12:33:00.979Z</time></trkpt><trkpt lat="40.0345851" lon="15.7912768"><ele>342.0</ele><time>2026-05-01T12:33:01.979Z</time></trkpt><trkpt lat="40.0345246" lon="15.7913598"><ele>342.0</ele><time>2026-05-01T12:33:02.979Z</time></trkpt><trkpt lat="40.034447" lon="15.7914147"><ele>342.0</ele><time>2026-05-01T12:33:03.98Z</time></trkpt><trkpt lat="40.034359" lon="15.7914449"><ele>342.0</ele><time>2026-05-01T12:33:04.979Z</time></trkpt><trkpt lat="40.034265" lon="15.7914443"><ele>342.0</ele><time>2026-05-01T12:33:05.979Z</time></trkpt><trkpt lat="40.0341696" lon="15.79141"><ele>342.0</ele><time>2026-05-01T12:33:06.979Z</time></trkpt><trkpt lat="40.0340798" lon="15.791329"><ele>342.0</ele><time>2026-05-01T12:33:07.979Z</time></trkpt><trkpt lat="40.0339998" lon="15.7912198"><ele>342.0</ele><time>2026-05-01T12:33:08.979Z</time></trkpt><trkpt lat="40.033931" lon="15.7911013"><ele>342.0</ele><time>2026-05-01T12:33:09.979Z</time></trkpt><trkpt lat="40.033858" lon="15.7910037"><ele>343.40000000000003</ele><time>2026-05-01T12:33:10.98Z</time></trkpt><trkpt lat="40.0337609" lon="15.7909482"><ele>344.8</ele><time>2026-05-01T12:33:11.979Z</time></trkpt><trkpt lat="40.0336523" lon="15.7909226"><ele>346.2</ele><time>2026-05-01T12:33:12.979Z</time></trkpt><trkpt lat="40.0335408" lon="15.7909389"><ele>347.6</ele><time>2026-05-01T12:33:13.979Z</time></trkpt><trkpt lat="40.0334321" lon="15.7909936"><ele>349.0</ele><time>2026-05-01T12:33:14.98Z</time></trkpt><trkpt lat="40.0333424" lon="15.7910819"><ele>351.5</ele><time>2026-05-01T12:33:15.979Z</time></trkpt><trkpt lat="40.0332715" lon="15.7911911"><ele>354.0</ele><time>2026-05-01T12:33:16.98Z</time></trkpt><trkpt lat="40.0332103" lon="15.7913213"><ele>356.5</ele><time>2026-05-01T12:33:17.979Z</time></trkpt><trkpt lat="40.0331513" lon="15.7914639"><ele>359.0</ele><time>2026-05-01T12:33:18.979Z</time></trkpt><trkpt lat="40.0331036" lon="15.7915977"><ele>359.0</ele><time>2026-05-01T12:33:19.979Z</time></trkpt><trkpt lat="40.0330448" lon="15.7917402"><ele>359.0</ele><time>2026-05-01T12:33:20.979Z</time></trkpt><trkpt lat="40.0329661" lon="15.7918683"><ele>359.0</ele><time>2026-05-01T12:33:21.98Z</time></trkpt><trkpt lat="40.0328859" lon="15.7919928"><ele>359.0</ele><time>2026-05-01T12:33:22.98Z</time></trkpt><trkpt lat="40.0328022" lon="15.7921073"><ele>358.75</ele><time>2026-05-01T12:33:23.98Z</time></trkpt><trkpt lat="40.0327074" lon="15.7922211"><ele>358.5</ele><time>2026-05-01T12:33:24.979Z</time></trkpt><trkpt lat="40.0326212" lon="15.792343"><ele>358.25</ele><time>2026-05-01T12:33:25.979Z</time></trkpt><trkpt lat="40.0325464" lon="15.7924561"><ele>358.0</ele><time>2026-05-01T12:33:26.98Z</time></trkpt><trkpt lat="40.0324766" lon="15.7925741"><ele>360.0</ele><time>2026-05-01T12:33:27.979Z</time></trkpt><trkpt lat="40.0324173" lon="15.7927005"><ele>362.0</ele><time>2026-05-01T12:33:28.98Z</time></trkpt><trkpt lat="40.0323536" lon="15.7928352"><ele>364.0</ele><time>2026-05-01T12:33:29.979Z</time></trkpt><trkpt lat="40.0322919" lon="15.7929718"><ele>366.0</ele><time>2026-05-01T12:33:30.98Z</time></trkpt><trkpt lat="40.0322343" lon="15.7931036"><ele>366.0</ele><time>2026-05-01T12:33:31.979Z</time></trkpt><trkpt lat="40.0321763" lon="15.7932306"><ele>366.0</ele><time>2026-05-01T12:33:32.98Z</time></trkpt><trkpt lat="40.0321184" lon="15.7933586"><ele>366.0</ele><time>2026-05-01T12:33:33.98Z</time></trkpt><trkpt lat="40.0320588" lon="15.7934832"><ele>366.0</ele><time>2026-05-01T12:33:34.98Z</time></trkpt><trkpt lat="40.0319919" lon="15.7936017"><ele>366.0</ele><time>2026-05-01T12:33:35.979Z</time></trkpt><trkpt lat="40.0319275" lon="15.7936982"><ele>366.0</ele><time>2026-05-01T12:33:36.98Z</time></trkpt><trkpt lat="40.0318582" lon="15.79378"><ele>366.0</ele><time>2026-05-01T12:33:37.979Z</time></trkpt><trkpt lat="40.0317737" lon="15.7938263"><ele>366.0</ele><time>2026-05-01T12:33:38.98Z</time></trkpt><trkpt lat="40.0316792" lon="15.7938214"><ele>366.0</ele><time>2026-05-01T12:33:39.98Z</time></trkpt><trkpt lat="40.0315956" lon="15.7937636"><ele>366.0</ele><time>2026-05-01T12:33:40.98Z</time></trkpt><trkpt lat="40.0315312" lon="15.7936667"><ele>366.0</ele><time>2026-05-01T12:33:41.979Z</time></trkpt><trkpt lat="40.0314954" lon="15.7935395"><ele>366.0</ele><time>2026-05-01T12:33:42.98Z</time></trkpt><trkpt lat="40.0314872" lon="15.7934012"><ele>366.0</ele><time>2026-05-01T12:33:43.979Z</time></trkpt><trkpt lat="40.0314971" lon="15.7932569"><ele>366.0</ele><time>2026-05-01T12:33:44.98Z</time></trkpt><trkpt lat="40.0315181" lon="15.793114"><ele>367.0</ele><time>2026-05-01T12:33:45.979Z</time></trkpt><trkpt lat="40.0315353" lon="15.7929666"><ele>368.0</ele><time>2026-05-01T12:33:46.979Z</time></trkpt><trkpt lat="40.0315563" lon="15.7928089"><ele>369.0</ele><time>2026-05-01T12:33:47.98Z</time></trkpt><trkpt lat="40.0315727" lon="15.7926245"><ele>370.0</ele><time>2026-05-01T12:33:48.979Z</time></trkpt><trkpt lat="40.0315773" lon="15.7924357"><ele>373.0</ele><time>2026-05-01T12:33:49.979Z</time></trkpt><trkpt lat="40.0315879" lon="15.7922271"><ele>376.0</ele><time>2026-05-01T12:33:50.98Z</time></trkpt><trkpt lat="40.0315995" lon="15.7920058"><ele>379.0</ele><time>2026-05-01T12:33:51.979Z</time></trkpt><trkpt lat="40.0316102" lon="15.7917829"><ele>381.0</ele><time>2026-05-01T12:33:52.979Z</time></trkpt><trkpt lat="40.0316376" lon="15.7915728"><ele>383.0</ele><time>2026-05-01T12:33:53.979Z</time></trkpt><trkpt lat="40.0316664" lon="15.7913831"><ele>385.0</ele><time>2026-05-01T12:33:54.979Z</time></trkpt><trkpt lat="40.0317185" lon="15.7912018"><ele>383.6666666666667</ele><time>2026-05-01T12:33:55.979Z</time></trkpt><trkpt lat="40.0317906" lon="15.7910223"><ele>382.33333333333337</ele><time>2026-05-01T12:33:56.98Z</time></trkpt><trkpt lat="40.0318865" lon="15.790871"><ele>381.0</ele><time>2026-05-01T12:33:57.979Z</time></trkpt><trkpt lat="40.0320013" lon="15.7907316"><ele>381.0</ele><time>2026-05-01T12:33:58.979Z</time></trkpt><trkpt lat="40.0321196" lon="15.7906099"><ele>381.0</ele><time>2026-05-01T12:33:59.98Z</time></trkpt><trkpt lat="40.0322417" lon="15.7904963"><ele>381.0</ele><time>2026-05-01T12:34:00.979Z</time></trkpt><trkpt lat="40.0323541" lon="15.7903894"><ele>381.0</ele><time>2026-05-01T12:34:01.979Z</time></trkpt><trkpt lat="40.0324468" lon="15.7902856"><ele>379.6</ele><time>2026-05-01T12:34:02.98Z</time></trkpt><trkpt lat="40.0325103" lon="15.7901734"><ele>378.20000000000005</ele><time>2026-05-01T12:34:03.979Z</time></trkpt><trkpt lat="40.0325506" lon="15.7900458"><ele>376.79999999999995</ele><time>2026-05-01T12:34:04.979Z</time></trkpt><trkpt lat="40.0325704" lon="15.7899062"><ele>375.4</ele><time>2026-05-01T12:34:05.979Z</time></trkpt><trkpt lat="40.0325818" lon="15.7897517"><ele>374.0</ele><time>2026-05-01T12:34:06.979Z</time></trkpt><trkpt lat="40.0325979" lon="15.7896053"><ele>374.0</ele><time>2026-05-01T12:34:07.98Z</time></trkpt><trkpt lat="40.0326321" lon="15.7894798"><ele>374.0</ele><time>2026-05-01T12:34:08.979Z</time></trkpt><trkpt lat="40.0326825" lon="15.789368"><ele>374.0</ele><time>2026-05-01T12:34:09.98Z</time></trkpt><trkpt lat="40.032757" lon="15.7892854"><ele>374.0</ele><time>2026-05-01T12:34:10.979Z</time></trkpt><trkpt lat="40.0328461" lon="15.7892211"><ele>374.0</ele><time>2026-05-01T12:34:11.98Z</time></trkpt><trkpt lat="40.0329351" lon="15.7891385"><ele>377.0</ele><time>2026-05-01T12:34:12.979Z</time></trkpt><trkpt lat="40.0330124" lon="15.7890541"><ele>380.0</ele><time>2026-05-01T12:34:13.979Z</time></trkpt><trkpt lat="40.0330744" lon="15.7889528"><ele>383.0</ele><time>2026-05-01T12:34:14.979Z</time></trkpt><trkpt lat="40.0331153" lon="15.7888374"><ele>386.0</ele><time>2026-05-01T12:34:15.979Z</time></trkpt><trkpt lat="40.033139" lon="15.7887123"><ele>389.0</ele><time>2026-05-01T12:34:16.979Z</time></trkpt><trkpt lat="40.0331598" lon="15.7885774"><ele>392.25</ele><time>2026-05-01T12:34:17.979Z</time></trkpt><trkpt lat="40.0331792" lon="15.7884359"><ele>395.5</ele><time>2026-05-01T12:34:18.979Z</time></trkpt><trkpt lat="40.0332086" lon="15.7882867"><ele>398.75</ele><time>2026-05-01T12:34:19.979Z</time></trkpt><trkpt lat="40.033251" lon="15.7881498"><ele>402.0</ele><time>2026-05-01T12:34:20.98Z</time></trkpt><trkpt lat="40.0333032" lon="15.7880103"><ele>398.0</ele><time>2026-05-01T12:34:21.98Z</time></trkpt><trkpt lat="40.0333663" lon="15.7878725"><ele>394.0</ele><time>2026-05-01T12:34:22.98Z</time></trkpt><trkpt lat="40.03344" lon="15.7877396"><ele>390.0</ele><time>2026-05-01T12:34:23.98Z</time></trkpt><trkpt lat="40.0335166" lon="15.7875978"><ele>386.0</ele><time>2026-05-01T12:34:24.98Z</time></trkpt><trkpt lat="40.0335781" lon="15.7874566"><ele>386.0</ele><time>2026-05-01T12:34:25.979Z</time></trkpt><trkpt lat="40.0336178" lon="15.7873072"><ele>386.0</ele><time>2026-05-01T12:34:26.979Z</time></trkpt><trkpt lat="40.0336445" lon="15.7871494"><ele>386.0</ele><time>2026-05-01T12:34:27.979Z</time></trkpt><trkpt lat="40.033666" lon="15.7870008"><ele>386.0</ele><time>2026-05-01T12:34:28.979Z</time></trkpt><trkpt lat="40.033691" lon="15.7868566"><ele>387.5</ele><time>2026-05-01T12:34:29.979Z</time></trkpt><trkpt lat="40.0337106" lon="15.786703"><ele>389.0</ele><time>2026-05-01T12:34:30.979Z</time></trkpt><trkpt lat="40.0337105" lon="15.7865328"><ele>390.5</ele><time>2026-05-01T12:34:31.979Z</time></trkpt><trkpt lat="40.0336976" lon="15.7863697"><ele>392.0</ele><time>2026-05-01T12:34:32.979Z</time></trkpt><trkpt lat="40.0336676" lon="15.7862108"><ele>392.0</ele><time>2026-05-01T12:34:33.979Z</time></trkpt><trkpt lat="40.0336237" lon="15.7860586"><ele>392.0</ele><time>2026-05-01T12:34:34.979Z</time></trkpt><trkpt lat="40.0335849" lon="15.7859096"><ele>392.0</ele><time>2026-05-01T12:34:35.98Z</time></trkpt><trkpt lat="40.0335369" lon="15.785775"><ele>392.0</ele><time>2026-05-01T12:34:36.979Z</time></trkpt><trkpt lat="40.0334867" lon="15.7856469"><ele>392.20000000000005</ele><time>2026-05-01T12:34:37.979Z</time></trkpt><trkpt lat="40.0334365" lon="15.7855263"><ele>392.4</ele><time>2026-05-01T12:34:38.979Z</time></trkpt><trkpt lat="40.0333895" lon="15.7854089"><ele>392.6</ele><time>2026-05-01T12:34:39.979Z</time></trkpt><trkpt lat="40.0333804" lon="15.7852994"><ele>392.79999999999995</ele><time>2026-05-01T12:34:40.979Z</time></trkpt><trkpt lat="40.033396" lon="15.7851913"><ele>393.0</ele><time>2026-05-01T12:34:41.979Z</time></trkpt><trkpt lat="40.0334365" lon="15.785092"><ele>393.0</ele><time>2026-05-01T12:34:42.98Z</time></trkpt><trkpt lat="40.0334941" lon="15.7850152"><ele>393.0</ele><time>2026-05-01T12:34:43.979Z</time></trkpt><trkpt lat="40.0335728" lon="15.7849633"><ele>393.0</ele><time>2026-05-01T12:34:44.979Z</time></trkpt><trkpt lat="40.0336537" lon="15.7848992"><ele>393.0</ele><time>2026-05-01T12:34:45.979Z</time></trkpt><trkpt lat="40.0337263" lon="15.7848156"><ele>393.0</ele><time>2026-05-01T12:34:46.979Z</time></trkpt><trkpt lat="40.0337837" lon="15.7847067"><ele>393.0</ele><time>2026-05-01T12:34:47.979Z</time></trkpt><trkpt lat="40.033821" lon="15.7845876"><ele>393.0</ele><time>2026-05-01T12:34:48.979Z</time></trkpt><trkpt lat="40.033838" lon="15.784459"><ele>393.0</ele><time>2026-05-01T12:34:49.979Z</time></trkpt><trkpt lat="40.0338428" lon="15.7843212"><ele>393.0</ele><time>2026-05-01T12:34:50.979Z</time></trkpt><trkpt lat="40.0338495" lon="15.7841702"><ele>393.0</ele><time>2026-05-01T12:34:51.98Z</time></trkpt><trkpt lat="40.0338502" lon="15.7840218"><ele>395.25</ele><time>2026-05-01T12:34:52.979Z</time></trkpt><trkpt lat="40.0338466" lon="15.7838672"><ele>397.5</ele><time>2026-05-01T12:34:53.979Z</time></trkpt><trkpt lat="40.0338394" lon="15.7837119"><ele>399.75</ele><time>2026-05-01T12:34:54.98Z</time></trkpt><trkpt lat="40.0338271" lon="15.7835603"><ele>402.0</ele><time>2026-05-01T12:34:55.979Z</time></trkpt><trkpt lat="40.0338181" lon="15.7834129"><ele>404.20000000000005</ele><time>2026-05-01T12:34:56.979Z</time></trkpt><trkpt lat="40.0338222" lon="15.7832722"><ele>406.4</ele><time>2026-05-01T12:34:57.98Z</time></trkpt><trkpt lat="40.0338353" lon="15.7831312"><ele>408.6</ele><time>2026-05-01T12:34:58.979Z</time></trkpt><trkpt lat="40.0338594" lon="15.7829915"><ele>410.79999999999995</ele><time>2026-05-01T12:34:59.979Z</time></trkpt><trkpt lat="40.0339032" lon="15.7828604"><ele>413.0</ele><time>2026-05-01T12:35:00.98Z</time></trkpt><trkpt lat="40.0339672" lon="15.7827384"><ele>414.25</ele><time>2026-05-01T12:35:01.979Z</time></trkpt><trkpt lat="40.0340503" lon="15.7826096"><ele>415.5</ele><time>2026-05-01T12:35:02.979Z</time></trkpt><trkpt lat="40.0341495" lon="15.7824797"><ele>416.75</ele><time>2026-05-01T12:35:03.98Z</time></trkpt><trkpt lat="40.0342594" lon="15.7823552"><ele>418.0</ele><time>2026-05-01T12:35:04.98Z</time></trkpt><trkpt lat="40.0343657" lon="15.7822373"><ele>413.0</ele><time>2026-05-01T12:35:05.98Z</time></trkpt><trkpt lat="40.0344682" lon="15.7821196"><ele>408.0</ele><time>2026-05-01T12:35:06.979Z</time></trkpt><trkpt lat="40.0345666" lon="15.7820224"><ele>403.0</ele><time>2026-05-01T12:35:07.979Z</time></trkpt><trkpt lat="40.0346508" lon="15.7819428"><ele>398.0</ele><time>2026-05-01T12:35:08.979Z</time></trkpt><trkpt lat="40.0347219" lon="15.7818646"><ele>399.16666666666663</ele><time>2026-05-01T12:35:09.98Z</time></trkpt><trkpt lat="40.0347829" lon="15.7817907"><ele>400.3333333333333</ele><time>2026-05-01T12:35:10.98Z</time></trkpt><trkpt lat="40.0348204" lon="15.7817163"><ele>401.5</ele><time>2026-05-01T12:35:11.98Z</time></trkpt><trkpt lat="40.0348364" lon="15.7815507"><ele>402.66666666666663</ele><time>2026-05-01T12:35:13.979Z</time></trkpt><trkpt lat="40.0348098" lon="15.7814586"><ele>403.8333333333333</ele><time>2026-05-01T12:35:14.98Z</time></trkpt><trkpt lat="40.0347683" lon="15.7813776"><ele>405.0</ele><time>2026-05-01T12:35:15.98Z</time></trkpt><trkpt lat="40.0347002" lon="15.7813197"><ele>405.0</ele><time>2026-05-01T12:35:16.98Z</time></trkpt><trkpt lat="40.034618" lon="15.7812931"><ele>405.0</ele><time>2026-05-01T12:35:17.979Z</time></trkpt><trkpt lat="40.034523" lon="15.7813085"><ele>405.0</ele><time>2026-05-01T12:35:18.98Z</time></trkpt><trkpt lat="40.0344324" lon="15.7813683"><ele>405.0</ele><time>2026-05-01T12:35:19.98Z</time></trkpt><trkpt lat="40.0343494" lon="15.7814575"><ele>405.0</ele><time>2026-05-01T12:35:20.98Z</time></trkpt><trkpt lat="40.034259" lon="15.781557"><ele>405.0</ele><time>2026-05-01T12:35:21.979Z</time></trkpt><trkpt lat="40.0341613" lon="15.7816663"><ele>405.0</ele><time>2026-05-01T12:35:22.979Z</time></trkpt><trkpt lat="40.034062" lon="15.7817812"><ele>405.0</ele><time>2026-05-01T12:35:23.979Z</time></trkpt><trkpt lat="40.0339623" lon="15.7818991"><ele>405.0</ele><time>2026-05-01T12:35:24.98Z</time></trkpt><trkpt lat="40.0338677" lon="15.7820323"><ele>409.33333333333337</ele><time>2026-05-01T12:35:25.98Z</time></trkpt><trkpt lat="40.0337715" lon="15.7821747"><ele>413.6666666666667</ele><time>2026-05-01T12:35:26.979Z</time></trkpt><trkpt lat="40.0336737" lon="15.7823204"><ele>418.0</ele><time>2026-05-01T12:35:27.979Z</time></trkpt><trkpt lat="40.0335701" lon="15.7824729"><ele>418.0</ele><time>2026-05-01T12:35:28.979Z</time></trkpt><trkpt lat="40.0334677" lon="15.7826183"><ele>418.0</ele><time>2026-05-01T12:35:29.98Z</time></trkpt><trkpt lat="40.0333669" lon="15.7827689"><ele>418.0</ele><time>2026-05-01T12:35:30.979Z</time></trkpt><trkpt lat="40.0332654" lon="15.7829204"><ele>423.75</ele><time>2026-05-01T12:35:31.979Z</time></trkpt><trkpt lat="40.0331644" lon="15.7830683"><ele>429.5</ele><time>2026-05-01T12:35:32.979Z</time></trkpt><trkpt lat="40.0330594" lon="15.7832032"><ele>435.25</ele><time>2026-05-01T12:35:33.98Z</time></trkpt><trkpt lat="40.0329668" lon="15.783335"><ele>441.0</ele><time>2026-05-01T12:35:34.98Z</time></trkpt><trkpt lat="40.0328649" lon="15.7834523"><ele>436.0</ele><time>2026-05-01T12:35:35.979Z</time></trkpt><trkpt lat="40.0327653" lon="15.783565"><ele>431.0</ele><time>2026-05-01T12:35:36.979Z</time></trkpt><trkpt lat="40.0326538" lon="15.7836716"><ele>426.0</ele><time>2026-05-01T12:35:37.98Z</time></trkpt><trkpt lat="40.0325571" lon="15.7837726"><ele>421.0</ele><time>2026-05-01T12:35:38.979Z</time></trkpt><trkpt lat="40.0324732" lon="15.7838799"><ele>427.75</ele><time>2026-05-01T12:35:39.979Z</time></trkpt><trkpt lat="40.0324006" lon="15.7840061"><ele>434.5</ele><time>2026-05-01T12:35:40.98Z</time></trkpt><trkpt lat="40.0323393" lon="15.7841373"><ele>441.25</ele><time>2026-05-01T12:35:41.98Z</time></trkpt><trkpt lat="40.03229" lon="15.7842835"><ele>448.0</ele><time>2026-05-01T12:35:42.979Z</time></trkpt><trkpt lat="40.0322378" lon="15.7844343"><ele>448.25</ele><time>2026-05-01T12:35:43.979Z</time></trkpt><trkpt lat="40.0321801" lon="15.7845802"><ele>448.5</ele><time>2026-05-01T12:35:44.98Z</time></trkpt><trkpt lat="40.0321219" lon="15.7847281"><ele>448.75</ele><time>2026-05-01T12:35:45.98Z</time></trkpt><trkpt lat="40.0320515" lon="15.784882"><ele>449.0</ele><time>2026-05-01T12:35:46.979Z</time></trkpt><trkpt lat="40.0319709" lon="15.7850507"><ele>448.3333333333333</ele><time>2026-05-01T12:35:47.98Z</time></trkpt><trkpt lat="40.03191" lon="15.7852275"><ele>447.66666666666663</ele><time>2026-05-01T12:35:48.98Z</time></trkpt><trkpt lat="40.0318469" lon="15.7854392"><ele>447.0</ele><time>2026-05-01T12:35:49.979Z</time></trkpt><trkpt lat="40.0317938" lon="15.7856862"><ele>447.0</ele><time>2026-05-01T12:35:50.979Z</time></trkpt><trkpt lat="40.0317623" lon="15.7859423"><ele>447.0</ele><time>2026-05-01T12:35:51.98Z</time></trkpt><trkpt lat="40.0317445" lon="15.7861614"><ele>447.0</ele><time>2026-05-01T12:35:52.98Z</time></trkpt><trkpt lat="40.0317269" lon="15.7863529"><ele>444.75</ele><time>2026-05-01T12:35:53.98Z</time></trkpt><trkpt lat="40.031705" lon="15.7865308"><ele>442.5</ele><time>2026-05-01T12:35:54.979Z</time></trkpt><trkpt lat="40.031676" lon="15.7867006"><ele>440.25</ele><time>2026-05-01T12:35:55.979Z</time></trkpt><trkpt lat="40.0316491" lon="15.7868568"><ele>438.0</ele><time>2026-05-01T12:35:56.979Z</time></trkpt><trkpt lat="40.0316159" lon="15.7870148"><ele>437.2</ele><time>2026-05-01T12:35:57.979Z</time></trkpt><trkpt lat="40.0315658" lon="15.7871698"><ele>436.4</ele><time>2026-05-01T12:35:58.979Z</time></trkpt><trkpt lat="40.0315315" lon="15.7873098"><ele>435.59999999999997</ele><time>2026-05-01T12:35:59.979Z</time></trkpt><trkpt lat="40.0314825" lon="15.7874275"><ele>434.79999999999995</ele><time>2026-05-01T12:36:00.979Z</time></trkpt><trkpt lat="40.0314277" lon="15.7875249"><ele>434.0</ele><time>2026-05-01T12:36:01.979Z</time></trkpt><trkpt lat="40.0313387" lon="15.787581"><ele>434.0</ele><time>2026-05-01T12:36:02.979Z</time></trkpt><trkpt lat="40.0312557" lon="15.7876154"><ele>434.0</ele><time>2026-05-01T12:36:03.979Z</time></trkpt><trkpt lat="40.0311716" lon="15.7876269"><ele>434.0</ele><time>2026-05-01T12:36:04.979Z</time></trkpt><trkpt lat="40.0310879" lon="15.7876045"><ele>434.0</ele><time>2026-05-01T12:36:05.979Z</time></trkpt><trkpt lat="40.0310102" lon="15.7875443"><ele>434.0</ele><time>2026-05-01T12:36:06.98Z</time></trkpt><trkpt lat="40.0309392" lon="15.7874413"><ele>434.0</ele><time>2026-05-01T12:36:07.979Z</time></trkpt><trkpt lat="40.0308692" lon="15.7873168"><ele>434.0</ele><time>2026-05-01T12:36:08.979Z</time></trkpt><trkpt lat="40.0307922" lon="15.7871885"><ele>434.0</ele><time>2026-05-01T12:36:09.98Z</time></trkpt><trkpt lat="40.0307163" lon="15.7870533"><ele>434.0</ele><time>2026-05-01T12:36:10.979Z</time></trkpt><trkpt lat="40.0306269" lon="15.7869145"><ele>433.25</ele><time>2026-05-01T12:36:11.979Z</time></trkpt><trkpt lat="40.0305422" lon="15.7867781"><ele>432.5</ele><time>2026-05-01T12:36:12.979Z</time></trkpt><trkpt lat="40.0304723" lon="15.7866477"><ele>431.75</ele><time>2026-05-01T12:36:13.979Z</time></trkpt><trkpt lat="40.0304067" lon="15.7865193"><ele>431.0</ele><time>2026-05-01T12:36:14.979Z</time></trkpt><trkpt lat="40.0303555" lon="15.7863842"><ele>431.0</ele><time>2026-05-01T12:36:15.979Z</time></trkpt><trkpt lat="40.0303111" lon="15.7862524"><ele>431.0</ele><time>2026-05-01T12:36:16.979Z</time></trkpt><trkpt lat="40.0302685" lon="15.7861385"><ele>431.0</ele><time>2026-05-01T12:36:17.979Z</time></trkpt><trkpt lat="40.0302294" lon="15.786025"><ele>431.0</ele><time>2026-05-01T12:36:18.979Z</time></trkpt><trkpt lat="40.0301879" lon="15.7859153"><ele>431.0</ele><time>2026-05-01T12:36:19.98Z</time></trkpt><trkpt lat="40.0301462" lon="15.7858143"><ele>430.20000000000005</ele><time>2026-05-01T12:36:20.979Z</time></trkpt><trkpt lat="40.0301054" lon="15.7857193"><ele>429.40000000000003</ele><time>2026-05-01T12:36:21.98Z</time></trkpt><trkpt lat="40.0300442" lon="15.7856246"><ele>428.6</ele><time>2026-05-01T12:36:22.979Z</time></trkpt><trkpt lat="40.0299656" lon="15.7855383"><ele>427.8</ele><time>2026-05-01T12:36:23.979Z</time></trkpt><trkpt lat="40.029884" lon="15.7854631"><ele>427.0</ele><time>2026-05-01T12:36:24.979Z</time></trkpt><trkpt lat="40.0297922" lon="15.7854032"><ele>427.0</ele><time>2026-05-01T12:36:25.979Z</time></trkpt><trkpt lat="40.0296847" lon="15.7853561"><ele>427.00000000000006</ele><time>2026-05-01T12:36:26.98Z</time></trkpt><trkpt lat="40.0295814" lon="15.7853167"><ele>427.00000000000006</ele><time>2026-05-01T12:36:27.98Z</time></trkpt><trkpt lat="40.029486" lon="15.7852775"><ele>427.0</ele><time>2026-05-01T12:36:28.979Z</time></trkpt><trkpt lat="40.0293986" lon="15.7852156"><ele>427.0</ele><time>2026-05-01T12:36:29.979Z</time></trkpt><trkpt lat="40.0293308" lon="15.7851471"><ele>430.1666666666667</ele><time>2026-05-01T12:36:30.98Z</time></trkpt><trkpt lat="40.0292904" lon="15.7850582"><ele>433.33333333333337</ele><time>2026-05-01T12:36:31.98Z</time></trkpt><trkpt lat="40.0292749" lon="15.7849643"><ele>436.5</ele><time>2026-05-01T12:36:32.979Z</time></trkpt><trkpt lat="40.0292835" lon="15.784863"><ele>439.66666666666663</ele><time>2026-05-01T12:36:33.98Z</time></trkpt><trkpt lat="40.0293172" lon="15.784749"><ele>442.8333333333333</ele><time>2026-05-01T12:36:34.979Z</time></trkpt><trkpt lat="40.0293719" lon="15.7846354"><ele>446.0</ele><time>2026-05-01T12:36:35.979Z</time></trkpt><trkpt lat="40.0294138" lon="15.7845314"><ele>446.0</ele><time>2026-05-01T12:36:36.979Z</time></trkpt><trkpt lat="40.0294348" lon="15.7844253"><ele>446.0</ele><time>2026-05-01T12:36:37.98Z</time></trkpt><trkpt lat="40.029434" lon="15.7843186"><ele>446.0</ele><time>2026-05-01T12:36:38.979Z</time></trkpt><trkpt lat="40.0294121" lon="15.7842031"><ele>446.0</ele><time>2026-05-01T12:36:39.98Z</time></trkpt><trkpt lat="40.0293594" lon="15.7840829"><ele>446.0</ele><time>2026-05-01T12:36:40.979Z</time></trkpt><trkpt lat="40.029303" lon="15.7839461"><ele>448.20000000000005</ele><time>2026-05-01T12:36:41.979Z</time></trkpt><trkpt lat="40.02926" lon="15.7838161"><ele>450.40000000000003</ele><time>2026-05-01T12:36:42.979Z</time></trkpt><trkpt lat="40.0292343" lon="15.7836937"><ele>452.6</ele><time>2026-05-01T12:36:43.98Z</time></trkpt><trkpt lat="40.0292387" lon="15.7835609"><ele>454.8</ele><time>2026-05-01T12:36:44.979Z</time></trkpt><trkpt lat="40.0292605" lon="15.783424"><ele>457.0</ele><time>2026-05-01T12:36:45.98Z</time></trkpt><trkpt lat="40.0292809" lon="15.7832841"><ele>458.0</ele><time>2026-05-01T12:36:46.979Z</time></trkpt><trkpt lat="40.0293087" lon="15.7831293"><ele>459.0</ele><time>2026-05-01T12:36:47.979Z</time></trkpt><trkpt lat="40.0293344" lon="15.7829654"><ele>460.0</ele><time>2026-05-01T12:36:48.98Z</time></trkpt><trkpt lat="40.0293518" lon="15.7827915"><ele>461.0</ele><time>2026-05-01T12:36:49.98Z</time></trkpt><trkpt lat="40.0293687" lon="15.7826185"><ele>462.25</ele><time>2026-05-01T12:36:50.98Z</time></trkpt><trkpt lat="40.0293815" lon="15.7824491"><ele>463.5</ele><time>2026-05-01T12:36:51.979Z</time></trkpt><trkpt lat="40.0293901" lon="15.7822903"><ele>464.75</ele><time>2026-05-01T12:36:52.979Z</time></trkpt><trkpt lat="40.0294023" lon="15.7821443"><ele>466.0</ele><time>2026-05-01T12:36:53.979Z</time></trkpt><trkpt lat="40.0294231" lon="15.7819903"><ele>466.6</ele><time>2026-05-01T12:36:54.979Z</time></trkpt><trkpt lat="40.0294367" lon="15.7818426"><ele>467.20000000000005</ele><time>2026-05-01T12:36:55.979Z</time></trkpt><trkpt lat="40.0294595" lon="15.7817007"><ele>467.79999999999995</ele><time>2026-05-01T12:36:56.979Z</time></trkpt><trkpt lat="40.0294831" lon="15.7815613"><ele>468.4</ele><time>2026-05-01T12:36:57.979Z</time></trkpt><trkpt lat="40.0295277" lon="15.7814297"><ele>469.0</ele><time>2026-05-01T12:36:58.98Z</time></trkpt><trkpt lat="40.0295924" lon="15.7813173"><ele>469.0</ele><time>2026-05-01T12:36:59.979Z</time></trkpt><trkpt lat="40.0296621" lon="15.7812376"><ele>469.0</ele><time>2026-05-01T12:37:00.98Z</time></trkpt><trkpt lat="40.0297478" lon="15.7811872"><ele>469.0</ele><time>2026-05-01T12:37:01.979Z</time></trkpt><trkpt lat="40.0298414" lon="15.7811451"><ele>469.0</ele><time>2026-05-01T12:37:02.98Z</time></trkpt><trkpt lat="40.0299364" lon="15.7810943"><ele>469.0</ele><time>2026-05-01T12:37:03.979Z</time></trkpt><trkpt lat="40.0300111" lon="15.7810253"><ele>469.6</ele><time>2026-05-01T12:37:04.979Z</time></trkpt><trkpt lat="40.0300465" lon="15.7809265"><ele>470.2</ele><time>2026-05-01T12:37:05.979Z</time></trkpt><trkpt lat="40.0300451" lon="15.7808086"><ele>470.80000000000007</ele><time>2026-05-01T12:37:06.979Z</time></trkpt><trkpt lat="40.0300137" lon="15.7807051"><ele>471.40000000000003</ele><time>2026-05-01T12:37:07.979Z</time></trkpt><trkpt lat="40.0299449" lon="15.7806117"><ele>472.0</ele><time>2026-05-01T12:37:08.98Z</time></trkpt><trkpt lat="40.02984" lon="15.7805421"><ele>472.0</ele><time>2026-05-01T12:37:09.979Z</time></trkpt><trkpt lat="40.029709" lon="15.7804861"><ele>472.0</ele><time>2026-05-01T12:37:10.98Z</time></trkpt><trkpt lat="40.0295998" lon="15.7804108"><ele>472.0</ele><time>2026-05-01T12:37:11.979Z</time></trkpt><trkpt lat="40.0295338" lon="15.7803046"><ele>472.0</ele><time>2026-05-01T12:37:12.979Z</time></trkpt><trkpt lat="40.0295014" lon="15.7801824"><ele>472.0</ele><time>2026-05-01T12:37:13.979Z</time></trkpt><trkpt lat="40.029478" lon="15.780052"><ele>472.00000000000006</ele><time>2026-05-01T12:37:14.979Z</time></trkpt><trkpt lat="40.0294504" lon="15.7799155"><ele>472.00000000000006</ele><time>2026-05-01T12:37:15.98Z</time></trkpt><trkpt lat="40.0293933" lon="15.779784"><ele>472.0</ele><time>2026-05-01T12:37:16.98Z</time></trkpt><trkpt lat="40.0293295" lon="15.7796626"><ele>472.0</ele><time>2026-05-01T12:37:17.98Z</time></trkpt><trkpt lat="40.0292531" lon="15.7795404"><ele>472.0</ele><time>2026-05-01T12:37:18.979Z</time></trkpt><trkpt lat="40.029165" lon="15.7794226"><ele>472.0</ele><time>2026-05-01T12:37:19.98Z</time></trkpt><trkpt lat="40.0290899" lon="15.7792924"><ele>472.0</ele><time>2026-05-01T12:37:20.979Z</time></trkpt><trkpt lat="40.0290293" lon="15.779167"><ele>472.0</ele><time>2026-05-01T12:37:21.979Z</time></trkpt><trkpt lat="40.0289769" lon="15.7790284"><ele>472.5</ele><time>2026-05-01T12:37:22.98Z</time></trkpt><trkpt lat="40.0289378" lon="15.7788768"><ele>473.0</ele><time>2026-05-01T12:37:23.979Z</time></trkpt><trkpt lat="40.0289237" lon="15.7787273"><ele>473.5</ele><time>2026-05-01T12:37:24.979Z</time></trkpt><trkpt lat="40.0289277" lon="15.7785732"><ele>474.0</ele><time>2026-05-01T12:37:25.979Z</time></trkpt><trkpt lat="40.028943" lon="15.7784179"><ele>475.5</ele><time>2026-05-01T12:37:26.98Z</time></trkpt><trkpt lat="40.0289687" lon="15.7782574"><ele>477.0</ele><time>2026-05-01T12:37:27.979Z</time></trkpt><trkpt lat="40.0289934" lon="15.778107"><ele>478.5</ele><time>2026-05-01T12:37:28.98Z</time></trkpt><trkpt lat="40.0290036" lon="15.7779597"><ele>480.0</ele><time>2026-05-01T12:37:29.98Z</time></trkpt><trkpt lat="40.0289747" lon="15.7778271"><ele>480.0</ele><time>2026-05-01T12:37:30.979Z</time></trkpt><trkpt lat="40.028929" lon="15.7777086"><ele>480.0</ele><time>2026-05-01T12:37:31.98Z</time></trkpt><trkpt lat="40.0288699" lon="15.7776047"><ele>480.0</ele><time>2026-05-01T12:37:32.98Z</time></trkpt><trkpt lat="40.0288109" lon="15.7775071"><ele>480.0</ele><time>2026-05-01T12:37:33.979Z</time></trkpt><trkpt lat="40.0287459" lon="15.7773969"><ele>480.0</ele><time>2026-05-01T12:37:34.979Z</time></trkpt><trkpt lat="40.028699" lon="15.777277"><ele>481.0</ele><time>2026-05-01T12:37:35.979Z</time></trkpt><trkpt lat="40.0286761" lon="15.7771647"><ele>482.0</ele><time>2026-05-01T12:37:36.979Z</time></trkpt><trkpt lat="40.0286687" lon="15.7770525"><ele>483.0</ele><time>2026-05-01T12:37:37.979Z</time></trkpt><trkpt lat="40.028683" lon="15.7769483"><ele>484.0</ele><time>2026-05-01T12:37:38.979Z</time></trkpt><trkpt lat="40.0287129" lon="15.7768511"><ele>485.0</ele><time>2026-05-01T12:37:39.98Z</time></trkpt><trkpt lat="40.0287235" lon="15.7767601"><ele>486.0</ele><time>2026-05-01T12:37:40.979Z</time></trkpt><trkpt lat="40.0286957" lon="15.7766754"><ele>486.8333333333333</ele><time>2026-05-01T12:37:41.98Z</time></trkpt><trkpt lat="40.0286474" lon="15.7766068"><ele>487.66666666666663</ele><time>2026-05-01T12:37:42.979Z</time></trkpt><trkpt lat="40.0285845" lon="15.7765507"><ele>488.5</ele><time>2026-05-01T12:37:43.979Z</time></trkpt><trkpt lat="40.0285071" lon="15.7765175"><ele>489.3333333333333</ele><time>2026-05-01T12:37:44.979Z</time></trkpt><trkpt lat="40.0284317" lon="15.7765027"><ele>490.16666666666663</ele><time>2026-05-01T12:37:45.98Z</time></trkpt><trkpt lat="40.0283428" lon="15.7764007"><ele>491.0</ele><time>2026-05-01T12:37:47.979Z</time></trkpt><trkpt lat="40.028337" lon="15.7762399"><ele>490.99999999999994</ele><time>2026-05-01T12:37:49.98Z</time></trkpt><trkpt lat="40.0283678" lon="15.7761562"><ele>491.0</ele><time>2026-05-01T12:37:50.979Z</time></trkpt><trkpt lat="40.028419" lon="15.7760944"><ele>491.0</ele><time>2026-05-01T12:37:51.979Z</time></trkpt><trkpt lat="40.0284792" lon="15.776056"><ele>491.0</ele><time>2026-05-01T12:37:52.979Z</time></trkpt><trkpt lat="40.0285602" lon="15.7760267"><ele>490.99999999999994</ele><time>2026-05-01T12:37:54.979Z</time></trkpt><trkpt lat="40.0286243" lon="15.7759998"><ele>491.0</ele><time>2026-05-01T12:37:56.98Z</time></trkpt><trkpt lat="40.0287118" lon="15.7759121"><ele>490.8</ele><time>2026-05-01T12:37:58.979Z</time></trkpt><trkpt lat="40.028795" lon="15.7758079"><ele>490.6</ele><time>2026-05-01T12:38:00.98Z</time></trkpt><trkpt lat="40.0288371" lon="15.7756832"><ele>490.4</ele><time>2026-05-01T12:38:02.98Z</time></trkpt><trkpt lat="40.0288302" lon="15.7755555"><ele>490.2</ele><time>2026-05-01T12:38:04.979Z</time></trkpt><trkpt lat="40.0288271" lon="15.7754252"><ele>490.0</ele><time>2026-05-01T12:38:06.979Z</time></trkpt><trkpt lat="40.0288132" lon="15.7752826"><ele>490.2</ele><time>2026-05-01T12:38:08.98Z</time></trkpt><trkpt lat="40.0287952" lon="15.7751371"><ele>490.4</ele><time>2026-05-01T12:38:10.979Z</time></trkpt><trkpt lat="40.028785" lon="15.7750543"><ele>490.6</ele><time>2026-05-01T12:38:11.98Z</time></trkpt><trkpt lat="40.0287709" lon="15.7748954"><ele>490.8</ele><time>2026-05-01T12:38:13.979Z</time></trkpt><trkpt lat="40.0287423" lon="15.7747736"><ele>491.0</ele><time>2026-05-01T12:38:15.98Z</time></trkpt><trkpt lat="40.028708" lon="15.7746767"><ele>491.0</ele><time>2026-05-01T12:38:17.979Z</time></trkpt><trkpt lat="40.0286755" lon="15.7745575"><ele>491.0</ele><time>2026-05-01T12:38:19.979Z</time></trkpt><trkpt lat="40.0286431" lon="15.7744328"><ele>491.0</ele><time>2026-05-01T12:38:21.98Z</time></trkpt><trkpt lat="40.0285783" lon="15.7743181"><ele>491.0</ele><time>2026-05-01T12:38:23.979Z</time></trkpt><trkpt lat="40.028525" lon="15.7742724"><ele>491.0</ele><time>2026-05-01T12:38:24.979Z</time></trkpt><trkpt lat="40.0284367" lon="15.7741793"><ele>491.49999999999994</ele><time>2026-05-01T12:38:26.979Z</time></trkpt><trkpt lat="40.028368" lon="15.7740416"><ele>492.0</ele><time>2026-05-01T12:38:28.98Z</time></trkpt><trkpt lat="40.0283392" lon="15.7739572"><ele>492.5</ele><time>2026-05-01T12:38:29.979Z</time></trkpt><trkpt lat="40.0283141" lon="15.7738697"><ele>493.0</ele><time>2026-05-01T12:38:30.979Z</time></trkpt><trkpt lat="40.0282869" lon="15.7737867"><ele>493.49999999999994</ele><time>2026-05-01T12:38:31.979Z</time></trkpt><trkpt lat="40.0282642" lon="15.7736956"><ele>494.0</ele><time>2026-05-01T12:38:32.979Z</time></trkpt><trkpt lat="40.0282478" lon="15.7736125"><ele>494.28571428571433</ele><time>2026-05-01T12:38:33.979Z</time></trkpt><trkpt lat="40.0282212" lon="15.7735294"><ele>494.57142857142856</ele><time>2026-05-01T12:38:34.979Z</time></trkpt><trkpt lat="40.0281804" lon="15.7734425"><ele>494.8571428571429</ele><time>2026-05-01T12:38:35.979Z</time></trkpt><trkpt lat="40.0281351" lon="15.7733619"><ele>495.14285714285717</ele><time>2026-05-01T12:38:36.98Z</time></trkpt><trkpt lat="40.0280835" lon="15.7732868"><ele>495.42857142857144</ele><time>2026-05-01T12:38:37.98Z</time></trkpt><trkpt lat="40.0280355" lon="15.7732221"><ele>495.7142857142857</ele><time>2026-05-01T12:38:38.979Z</time></trkpt><trkpt lat="40.0279756" lon="15.7731754"><ele>496.0</ele><time>2026-05-01T12:38:39.979Z</time></trkpt><trkpt lat="40.0279054" lon="15.7731548"><ele>496.1666666666667</ele><time>2026-05-01T12:38:40.979Z</time></trkpt><trkpt lat="40.0278269" lon="15.7731382"><ele>496.33333333333337</ele><time>2026-05-01T12:38:41.979Z</time></trkpt><trkpt lat="40.0277496" lon="15.7731149"><ele>496.5</ele><time>2026-05-01T12:38:42.979Z</time></trkpt><trkpt lat="40.0276737" lon="15.7730873"><ele>496.66666666666663</ele><time>2026-05-01T12:38:43.98Z</time></trkpt><trkpt lat="40.0276024" lon="15.773066"><ele>496.8333333333333</ele><time>2026-05-01T12:38:44.979Z</time></trkpt><trkpt lat="40.0275306" lon="15.7730305"><ele>497.0</ele><time>2026-05-01T12:38:45.98Z</time></trkpt><trkpt lat="40.0274694" lon="15.7729725"><ele>497.16666666666663</ele><time>2026-05-01T12:38:46.979Z</time></trkpt><trkpt lat="40.0274139" lon="15.772911"><ele>497.3333333333333</ele><time>2026-05-01T12:38:47.979Z</time></trkpt><trkpt lat="40.0273521" lon="15.7728557"><ele>497.5</ele><time>2026-05-01T12:38:48.979Z</time></trkpt><trkpt lat="40.0272875" lon="15.7727762"><ele>497.66666666666663</ele><time>2026-05-01T12:38:49.979Z</time></trkpt><trkpt lat="40.0272221" lon="15.7726942"><ele>497.8333333333333</ele><time>2026-05-01T12:38:50.979Z</time></trkpt><trkpt lat="40.0271614" lon="15.7726016"><ele>498.0</ele><time>2026-05-01T12:38:51.979Z</time></trkpt><trkpt lat="40.027102" lon="15.7724996"><ele>498.0</ele><time>2026-05-01T12:38:52.98Z</time></trkpt><trkpt lat="40.0270404" lon="15.772412"><ele>498.0</ele><time>2026-05-01T12:38:53.979Z</time></trkpt><trkpt lat="40.0269874" lon="15.7723181"><ele>498.0</ele><time>2026-05-01T12:38:54.979Z</time></trkpt><trkpt lat="40.0269312" lon="15.7722313"><ele>498.0</ele><time>2026-05-01T12:38:55.979Z</time></trkpt><trkpt lat="40.0268787" lon="15.7721417"><ele>498.0</ele><time>2026-05-01T12:38:56.979Z</time></trkpt><trkpt lat="40.0268304" lon="15.7720526"><ele>498.0</ele><time>2026-05-01T12:38:57.98Z</time></trkpt><trkpt lat="40.026775" lon="15.7719643"><ele>498.0</ele><time>2026-05-01T12:38:58.979Z</time></trkpt><trkpt lat="40.0267203" lon="15.7718812"><ele>497.99999999999994</ele><time>2026-05-01T12:38:59.98Z</time></trkpt><trkpt lat="40.0266733" lon="15.7718097"><ele>497.99999999999994</ele><time>2026-05-01T12:39:00.979Z</time></trkpt><trkpt lat="40.0266401" lon="15.7716748"><ele>498.0</ele><time>2026-05-01T12:39:02.98Z</time></trkpt><trkpt lat="40.0265869" lon="15.7715658"><ele>498.0</ele><time>2026-05-01T12:39:04.98Z</time></trkpt><trkpt lat="40.0265274" lon="15.7714533"><ele>498.0</ele><time>2026-05-01T12:39:06.979Z</time></trkpt><trkpt lat="40.0264918" lon="15.7713833"><ele>498.0</ele><time>2026-05-01T12:39:07.979Z</time></trkpt><trkpt lat="40.0264246" lon="15.7712604"><ele>498.0</ele><time>2026-05-01T12:39:09.979Z</time></trkpt><trkpt lat="40.0263872" lon="15.7711781"><ele>498.0</ele><time>2026-05-01T12:39:10.98Z</time></trkpt><trkpt lat="40.026352" lon="15.7710812"><ele>498.0</ele><time>2026-05-01T12:39:11.979Z</time></trkpt><trkpt lat="40.0263138" lon="15.7709836"><ele>498.0</ele><time>2026-05-01T12:39:12.98Z</time></trkpt><trkpt lat="40.0262788" lon="15.7708921"><ele>498.1428571428571</ele><time>2026-05-01T12:39:13.979Z</time></trkpt><trkpt lat="40.0262511" lon="15.7707979"><ele>498.2857142857142</ele><time>2026-05-01T12:39:14.979Z</time></trkpt><trkpt lat="40.0262293" lon="15.770701"><ele>498.42857142857144</ele><time>2026-05-01T12:39:15.979Z</time></trkpt><trkpt lat="40.0262096" lon="15.7706063"><ele>498.57142857142856</ele><time>2026-05-01T12:39:16.979Z</time></trkpt><trkpt lat="40.0261843" lon="15.7705217"><ele>498.7142857142857</ele><time>2026-05-01T12:39:17.979Z</time></trkpt><trkpt lat="40.0261578" lon="15.7704425"><ele>498.8571428571429</ele><time>2026-05-01T12:39:18.979Z</time></trkpt><trkpt lat="40.0261328" lon="15.7703645"><ele>499.00000000000006</ele><time>2026-05-01T12:39:19.98Z</time></trkpt><trkpt lat="40.0260875" lon="15.7702341"><ele>499.6</ele><time>2026-05-01T12:39:21.979Z</time></trkpt><trkpt lat="40.0260537" lon="15.7701102"><ele>500.2</ele><time>2026-05-01T12:39:23.979Z</time></trkpt><trkpt lat="40.0260183" lon="15.7699725"><ele>500.80000000000007</ele><time>2026-05-01T12:39:25.98Z</time></trkpt><trkpt lat="40.0259881" lon="15.7698207"><ele>501.40000000000003</ele><time>2026-05-01T12:39:27.98Z</time></trkpt><trkpt lat="40.0259699" lon="15.7697375"><ele>502.0</ele><time>2026-05-01T12:39:28.979Z</time></trkpt><trkpt lat="40.0259479" lon="15.7696508"><ele>502.00000000000006</ele><time>2026-05-01T12:39:29.979Z</time></trkpt><trkpt lat="40.0259321" lon="15.7695616"><ele>502.0</ele><time>2026-05-01T12:39:30.979Z</time></trkpt><trkpt lat="40.0259108" lon="15.7694688"><ele>502.0</ele><time>2026-05-01T12:39:31.979Z</time></trkpt><trkpt lat="40.0258843" lon="15.7693737"><ele>502.0</ele><time>2026-05-01T12:39:32.979Z</time></trkpt><trkpt lat="40.0258545" lon="15.7692776"><ele>502.00000000000006</ele><time>2026-05-01T12:39:33.979Z</time></trkpt><trkpt lat="40.0258297" lon="15.7691754"><ele>502.0</ele><time>2026-05-01T12:39:34.979Z</time></trkpt><trkpt lat="40.025809" lon="15.7690694"><ele>503.6666666666667</ele><time>2026-05-01T12:39:35.979Z</time></trkpt><trkpt lat="40.025787" lon="15.7689685"><ele>505.33333333333337</ele><time>2026-05-01T12:39:36.98Z</time></trkpt><trkpt lat="40.0257599" lon="15.7688628"><ele>507.0</ele><time>2026-05-01T12:39:37.979Z</time></trkpt><trkpt lat="40.0257321" lon="15.7687501"><ele>508.66666666666663</ele><time>2026-05-01T12:39:38.979Z</time></trkpt><trkpt lat="40.0257068" lon="15.7686448"><ele>510.3333333333333</ele><time>2026-05-01T12:39:39.979Z</time></trkpt><trkpt lat="40.0256771" lon="15.7685479"><ele>512.0</ele><time>2026-05-01T12:39:40.979Z</time></trkpt><trkpt lat="40.0256492" lon="15.76845"><ele>511.99999999999994</ele><time>2026-05-01T12:39:41.979Z</time></trkpt><trkpt lat="40.0256091" lon="15.7683618"><ele>512.0</ele><time>2026-05-01T12:39:42.979Z</time></trkpt><trkpt lat="40.0255644" lon="15.7682742"><ele>512.0</ele><time>2026-05-01T12:39:43.98Z</time></trkpt><trkpt lat="40.0255189" lon="15.7681878"><ele>512.0</ele><time>2026-05-01T12:39:44.979Z</time></trkpt><trkpt lat="40.0254751" lon="15.7681048"><ele>511.99999999999994</ele><time>2026-05-01T12:39:45.979Z</time></trkpt><trkpt lat="40.0254315" lon="15.7680305"><ele>512.0</ele><time>2026-05-01T12:39:46.979Z</time></trkpt><trkpt lat="40.0253865" lon="15.7679563"><ele>511.99999999999994</ele><time>2026-05-01T12:39:47.98Z</time></trkpt><trkpt lat="40.0253296" lon="15.7678863"><ele>512.0</ele><time>2026-05-01T12:39:48.98Z</time></trkpt><trkpt lat="40.0252644" lon="15.7678272"><ele>512.0</ele><time>2026-05-01T12:39:49.979Z</time></trkpt><trkpt lat="40.0251968" lon="15.7677907"><ele>512.0</ele><time>2026-05-01T12:39:50.979Z</time></trkpt><trkpt lat="40.0251342" lon="15.7677786"><ele>511.99999999999994</ele><time>2026-05-01T12:39:51.979Z</time></trkpt><trkpt lat="40.0250696" lon="15.7677658"><ele>512.0</ele><time>2026-05-01T12:39:52.979Z</time></trkpt><trkpt lat="40.0249562" lon="15.7677471"><ele>516.0</ele><time>2026-05-01T12:39:54.979Z</time></trkpt><trkpt lat="40.024845" lon="15.7677362"><ele>520.0</ele><time>2026-05-01T12:39:56.979Z</time></trkpt><trkpt lat="40.0247575" lon="15.7677299"><ele>524.0</ele><time>2026-05-01T12:39:58.979Z</time></trkpt><trkpt lat="40.0246822" lon="15.7677141"><ele>528.0</ele><time>2026-05-01T12:40:00.98Z</time></trkpt><trkpt lat="40.0246242" lon="15.7676562"><ele>532.0</ele><time>2026-05-01T12:40:13.979Z</time></trkpt><trkpt lat="40.0245736" lon="15.7675811"><ele>536.0</ele><time>2026-05-01T12:40:14.979Z</time></trkpt><trkpt lat="40.0245" lon="15.7674795"><ele>536.0</ele><time>2026-05-01T12:40:15.979Z</time></trkpt><trkpt lat="40.0244031" lon="15.7673281"><ele>536.0</ele><time>2026-05-01T12:40:16.979Z</time></trkpt><trkpt lat="40.0243022" lon="15.7671261"><ele>536.0</ele><time>2026-05-01T12:40:17.979Z</time></trkpt><trkpt lat="40.0242311" lon="15.7668981"><ele>531.6666666666666</ele><time>2026-05-01T12:40:18.98Z</time></trkpt><trkpt lat="40.0241673" lon="15.7666783"><ele>527.3333333333334</ele><time>2026-05-01T12:40:19.979Z</time></trkpt><trkpt lat="40.0240955" lon="15.766501"><ele>523.0</ele><time>2026-05-01T12:40:20.98Z</time></trkpt><trkpt lat="40.0239959" lon="15.7663523"><ele>525.0</ele><time>2026-05-01T12:40:21.98Z</time></trkpt><trkpt lat="40.0238759" lon="15.7662017"><ele>527.0</ele><time>2026-05-01T12:40:22.979Z</time></trkpt><trkpt lat="40.0237507" lon="15.7660141"><ele>529.0</ele><time>2026-05-01T12:40:23.979Z</time></trkpt><trkpt lat="40.0236675" lon="15.7658165"><ele>529.0</ele><time>2026-05-01T12:40:24.979Z</time></trkpt><trkpt lat="40.0236109" lon="15.765619"><ele>529.0</ele><time>2026-05-01T12:40:25.98Z</time></trkpt><trkpt lat="40.0235828" lon="15.7654187"><ele>529.0</ele><time>2026-05-01T12:40:26.979Z</time></trkpt><trkpt lat="40.0235736" lon="15.7651851"><ele>529.6666666666667</ele><time>2026-05-01T12:40:27.979Z</time></trkpt><trkpt lat="40.0235865" lon="15.7649343"><ele>530.3333333333334</ele><time>2026-05-01T12:40:28.979Z</time></trkpt><trkpt lat="40.0236203" lon="15.7646562"><ele>531.0</ele><time>2026-05-01T12:40:29.98Z</time></trkpt><trkpt lat="40.0236689" lon="15.7643846"><ele>532.0</ele><time>2026-05-01T12:40:30.979Z</time></trkpt><trkpt lat="40.0237287" lon="15.7641355"><ele>533.0</ele><time>2026-05-01T12:40:31.98Z</time></trkpt><trkpt lat="40.0237871" lon="15.7639122"><ele>534.0</ele><time>2026-05-01T12:40:32.98Z</time></trkpt><trkpt lat="40.0238378" lon="15.7637016"><ele>535.3333333333334</ele><time>2026-05-01T12:40:33.98Z</time></trkpt><trkpt lat="40.0238917" lon="15.7634945"><ele>536.6666666666667</ele><time>2026-05-01T12:40:34.979Z</time></trkpt><trkpt lat="40.0239322" lon="15.7632844"><ele>538.0</ele><time>2026-05-01T12:40:35.98Z</time></trkpt><trkpt lat="40.0239532" lon="15.7630527"><ele>538.0</ele><time>2026-05-01T12:40:36.979Z</time></trkpt><trkpt lat="40.0239454" lon="15.7627783"><ele>538.0</ele><time>2026-05-01T12:40:37.98Z</time></trkpt><trkpt lat="40.0239081" lon="15.7624765"><ele>538.0</ele><time>2026-05-01T12:40:38.98Z</time></trkpt><trkpt lat="40.0238668" lon="15.76216"><ele>545.0</ele><time>2026-05-01T12:40:39.98Z</time></trkpt><trkpt lat="40.0238547" lon="15.7618574"><ele>552.0</ele><time>2026-05-01T12:40:40.98Z</time></trkpt><trkpt lat="40.0238698" lon="15.7615493"><ele>552.0</ele><time>2026-05-01T12:40:41.98Z</time></trkpt><trkpt lat="40.0238887" lon="15.7612518"><ele>552.0</ele><time>2026-05-01T12:40:42.979Z</time></trkpt><trkpt lat="40.0239119" lon="15.7609507"><ele>556.0</ele><time>2026-05-01T12:40:43.98Z</time></trkpt><trkpt lat="40.023948" lon="15.7606578"><ele>560.0</ele><time>2026-05-01T12:40:44.979Z</time></trkpt><trkpt lat="40.0239765" lon="15.7603747"><ele>564.0</ele><time>2026-05-01T12:40:45.98Z</time></trkpt><trkpt lat="40.0240055" lon="15.7601077"><ele>566.0</ele><time>2026-05-01T12:40:46.98Z</time></trkpt><trkpt lat="40.024037" lon="15.7598707"><ele>568.0</ele><time>2026-05-01T12:40:47.979Z</time></trkpt><trkpt lat="40.0240678" lon="15.7596595"><ele>570.0</ele><time>2026-05-01T12:40:48.98Z</time></trkpt><trkpt lat="40.0240994" lon="15.75947"><ele>562.75</ele><time>2026-05-01T12:40:49.98Z</time></trkpt><trkpt lat="40.0241489" lon="15.7593067"><ele>555.5</ele><time>2026-05-01T12:40:50.98Z</time></trkpt><trkpt lat="40.024229" lon="15.7591936"><ele>548.25</ele><time>2026-05-01T12:40:51.979Z</time></trkpt><trkpt lat="40.0243459" lon="15.7591496"><ele>541.0</ele><time>2026-05-01T12:40:52.979Z</time></trkpt><trkpt lat="40.0244731" lon="15.7591358"><ele>541.0</ele><time>2026-05-01T12:40:53.98Z</time></trkpt><trkpt lat="40.0246056" lon="15.7591303"><ele>541.0</ele><time>2026-05-01T12:40:54.979Z</time></trkpt><trkpt lat="40.0247189" lon="15.7590977"><ele>541.0</ele><time>2026-05-01T12:40:55.98Z</time></trkpt><trkpt lat="40.0248145" lon="15.759011"><ele>541.0</ele><time>2026-05-01T12:40:56.979Z</time></trkpt><trkpt lat="40.0248915" lon="15.7588787"><ele>541.0</ele><time>2026-05-01T12:40:57.98Z</time></trkpt><trkpt lat="40.0249422" lon="15.7587263"><ele>541.0</ele><time>2026-05-01T12:40:58.979Z</time></trkpt><trkpt lat="40.0249752" lon="15.7585601"><ele>541.0</ele><time>2026-05-01T12:40:59.98Z</time></trkpt><trkpt lat="40.0249707" lon="15.7583676"><ele>541.0</ele><time>2026-05-01T12:41:00.98Z</time></trkpt><trkpt lat="40.024951" lon="15.7581783"><ele>545.0</ele><time>2026-05-01T12:41:01.98Z</time></trkpt><trkpt lat="40.0249323" lon="15.7579825"><ele>549.0</ele><time>2026-05-01T12:41:02.98Z</time></trkpt><trkpt lat="40.0249082" lon="15.7577751"><ele>553.0</ele><time>2026-05-01T12:41:03.979Z</time></trkpt><trkpt lat="40.0248903" lon="15.757545"><ele>555.0</ele><time>2026-05-01T12:41:04.979Z</time></trkpt><trkpt lat="40.0248821" lon="15.757271"><ele>557.0</ele><time>2026-05-01T12:41:05.979Z</time></trkpt><trkpt lat="40.0248795" lon="15.7569993"><ele>559.0</ele><time>2026-05-01T12:41:06.979Z</time></trkpt><trkpt lat="40.024912" lon="15.7567594"><ele>555.0</ele><time>2026-05-01T12:41:07.979Z</time></trkpt><trkpt lat="40.0249878" lon="15.7565296"><ele>551.0</ele><time>2026-05-01T12:41:08.979Z</time></trkpt><trkpt lat="40.0251036" lon="15.7563094"><ele>547.0</ele><time>2026-05-01T12:41:09.979Z</time></trkpt><trkpt lat="40.0252149" lon="15.7561"><ele>550.3333333333334</ele><time>2026-05-01T12:41:10.98Z</time></trkpt><trkpt lat="40.0252938" lon="15.7558801"><ele>553.6666666666666</ele><time>2026-05-01T12:41:11.979Z</time></trkpt><trkpt lat="40.0253407" lon="15.7556089"><ele>557.0</ele><time>2026-05-01T12:41:12.979Z</time></trkpt><trkpt lat="40.0253888" lon="15.7552941"><ele>559.0</ele><time>2026-05-01T12:41:13.979Z</time></trkpt><trkpt lat="40.0254469" lon="15.7549439"><ele>561.0</ele><time>2026-05-01T12:41:14.979Z</time></trkpt><trkpt lat="40.0255015" lon="15.7545716"><ele>562.5</ele><time>2026-05-01T12:41:15.979Z</time></trkpt><trkpt lat="40.0255639" lon="15.754172"><ele>564.0</ele><time>2026-05-01T12:41:16.979Z</time></trkpt><trkpt lat="40.0256348" lon="15.753768"><ele>566.5</ele><time>2026-05-01T12:41:17.98Z</time></trkpt><trkpt lat="40.0257034" lon="15.7534143"><ele>569.0</ele><time>2026-05-01T12:41:18.979Z</time></trkpt><trkpt lat="40.0257567" lon="15.7531064"><ele>569.0</ele><time>2026-05-01T12:41:19.979Z</time></trkpt><trkpt lat="40.0258093" lon="15.7528139"><ele>569.0</ele><time>2026-05-01T12:41:20.979Z</time></trkpt><trkpt lat="40.0258584" lon="15.7525459"><ele>569.0</ele><time>2026-05-01T12:41:21.979Z</time></trkpt><trkpt lat="40.0259051" lon="15.7522857"><ele>568.0</ele><time>2026-05-01T12:41:22.98Z</time></trkpt><trkpt lat="40.0259515" lon="15.7520342"><ele>567.0</ele><time>2026-05-01T12:41:23.979Z</time></trkpt><trkpt lat="40.0260006" lon="15.751772"><ele>566.0</ele><time>2026-05-01T12:41:24.979Z</time></trkpt><trkpt lat="40.0260531" lon="15.75153"><ele>566.0</ele><time>2026-05-01T12:41:25.979Z</time></trkpt><trkpt lat="40.026122" lon="15.7513078"><ele>566.0</ele><time>2026-05-01T12:41:26.979Z</time></trkpt><trkpt lat="40.0262043" lon="15.7510966"><ele>566.0</ele><time>2026-05-01T12:41:27.979Z</time></trkpt><trkpt lat="40.0263148" lon="15.750903"><ele>562.3333333333333</ele><time>2026-05-01T12:41:28.979Z</time></trkpt><trkpt lat="40.0264569" lon="15.7507193"><ele>558.6666666666666</ele><time>2026-05-01T12:41:29.979Z</time></trkpt><trkpt lat="40.0266009" lon="15.7505434"><ele>555.0</ele><time>2026-05-01T12:41:30.979Z</time></trkpt><trkpt lat="40.0267365" lon="15.7503644"><ele>560.0</ele><time>2026-05-01T12:41:31.979Z</time></trkpt><trkpt lat="40.0268645" lon="15.7501766"><ele>565.0</ele><time>2026-05-01T12:41:32.979Z</time></trkpt><trkpt lat="40.0269875" lon="15.7499936"><ele>570.0</ele><time>2026-05-01T12:41:33.979Z</time></trkpt><trkpt lat="40.0271066" lon="15.7497966"><ele>570.0</ele><time>2026-05-01T12:41:34.979Z</time></trkpt><trkpt lat="40.0272125" lon="15.7495888"><ele>570.0</ele><time>2026-05-01T12:41:35.98Z</time></trkpt><trkpt lat="40.0273066" lon="15.7493711"><ele>570.0</ele><time>2026-05-01T12:41:36.979Z</time></trkpt><trkpt lat="40.0273811" lon="15.7491254"><ele>568.6666666666666</ele><time>2026-05-01T12:41:37.979Z</time></trkpt><trkpt lat="40.0274394" lon="15.7488729"><ele>567.3333333333333</ele><time>2026-05-01T12:41:38.979Z</time></trkpt><trkpt lat="40.0274974" lon="15.7486346"><ele>566.0</ele><time>2026-05-01T12:41:39.979Z</time></trkpt><trkpt lat="40.0275579" lon="15.7484208"><ele>566.0</ele><time>2026-05-01T12:41:40.98Z</time></trkpt><trkpt lat="40.0276147" lon="15.7482287"><ele>566.0</ele><time>2026-05-01T12:41:41.98Z</time></trkpt><trkpt lat="40.0276793" lon="15.7480587"><ele>566.0</ele><time>2026-05-01T12:41:42.98Z</time></trkpt><trkpt lat="40.0277528" lon="15.7479135"><ele>566.0</ele><time>2026-05-01T12:41:43.979Z</time></trkpt><trkpt lat="40.0278434" lon="15.747802"><ele>568.0</ele><time>2026-05-01T12:41:44.98Z</time></trkpt><trkpt lat="40.0279503" lon="15.7477087"><ele>570.0</ele><time>2026-05-01T12:41:45.979Z</time></trkpt><trkpt lat="40.0280391" lon="15.7476288"><ele>572.0</ele><time>2026-05-01T12:41:46.979Z</time></trkpt><trkpt lat="40.0281116" lon="15.7475296"><ele>574.0</ele><time>2026-05-01T12:41:47.98Z</time></trkpt><trkpt lat="40.0281685" lon="15.7474098"><ele>576.0</ele><time>2026-05-01T12:41:48.979Z</time></trkpt><trkpt lat="40.0281887" lon="15.7472715"><ele>576.0</ele><time>2026-05-01T12:41:49.98Z</time></trkpt><trkpt lat="40.028185" lon="15.7471187"><ele>576.0</ele><time>2026-05-01T12:41:50.979Z</time></trkpt><trkpt lat="40.0281675" lon="15.7469512"><ele>576.0</ele><time>2026-05-01T12:41:51.98Z</time></trkpt><trkpt lat="40.0281555" lon="15.7467718"><ele>576.0</ele><time>2026-05-01T12:41:52.98Z</time></trkpt><trkpt lat="40.0281434" lon="15.746591"><ele>579.25</ele><time>2026-05-01T12:41:53.98Z</time></trkpt><trkpt lat="40.0281372" lon="15.7464002"><ele>582.5</ele><time>2026-05-01T12:41:54.979Z</time></trkpt><trkpt lat="40.028144" lon="15.7462153"><ele>585.75</ele><time>2026-05-01T12:41:55.98Z</time></trkpt><trkpt lat="40.0281568" lon="15.7460203"><ele>589.0</ele><time>2026-05-01T12:41:56.98Z</time></trkpt><trkpt lat="40.0281762" lon="15.7458403"><ele>590.75</ele><time>2026-05-01T12:41:57.979Z</time></trkpt><trkpt lat="40.0282188" lon="15.7456706"><ele>592.5</ele><time>2026-05-01T12:41:58.979Z</time></trkpt><trkpt lat="40.0282611" lon="15.7454919"><ele>594.25</ele><time>2026-05-01T12:41:59.979Z</time></trkpt><trkpt lat="40.0283008" lon="15.7453055"><ele>596.0</ele><time>2026-05-01T12:42:00.979Z</time></trkpt><trkpt lat="40.0283375" lon="15.7451243"><ele>595.0</ele><time>2026-05-01T12:42:01.979Z</time></trkpt><trkpt lat="40.0283456" lon="15.7449366"><ele>594.0</ele><time>2026-05-01T12:42:02.979Z</time></trkpt><trkpt lat="40.0283186" lon="15.7447501"><ele>593.0</ele><time>2026-05-01T12:42:03.979Z</time></trkpt><trkpt lat="40.0282554" lon="15.744581"><ele>592.0</ele><time>2026-05-01T12:42:04.979Z</time></trkpt><trkpt lat="40.028167" lon="15.7444323"><ele>590.25</ele><time>2026-05-01T12:42:05.979Z</time></trkpt><trkpt lat="40.0280619" lon="15.7443019"><ele>588.5</ele><time>2026-05-01T12:42:06.98Z</time></trkpt><trkpt lat="40.0279567" lon="15.744181"><ele>586.75</ele><time>2026-05-01T12:42:07.979Z</time></trkpt><trkpt lat="40.0278603" lon="15.7440534"><ele>585.0</ele><time>2026-05-01T12:42:08.979Z</time></trkpt><trkpt lat="40.02778" lon="15.7439037"><ele>585.0</ele><time>2026-05-01T12:42:09.98Z</time></trkpt><trkpt lat="40.0277167" lon="15.7437421"><ele>585.0</ele><time>2026-05-01T12:42:10.98Z</time></trkpt><trkpt lat="40.0276787" lon="15.7435776"><ele>585.0</ele><time>2026-05-01T12:42:11.979Z</time></trkpt><trkpt lat="40.0276692" lon="15.7434046"><ele>585.0</ele><time>2026-05-01T12:42:12.979Z</time></trkpt><trkpt lat="40.0276907" lon="15.7432206"><ele>585.6666666666666</ele><time>2026-05-01T12:42:13.98Z</time></trkpt><trkpt lat="40.027728" lon="15.7430271"><ele>586.3333333333333</ele><time>2026-05-01T12:42:14.98Z</time></trkpt><trkpt lat="40.0277936" lon="15.7428348"><ele>587.0</ele><time>2026-05-01T12:42:15.979Z</time></trkpt><trkpt lat="40.0278678" lon="15.7426742"><ele>587.0</ele><time>2026-05-01T12:42:16.979Z</time></trkpt><trkpt lat="40.0279457" lon="15.7425423"><ele>587.0</ele><time>2026-05-01T12:42:17.979Z</time></trkpt><trkpt lat="40.0280014" lon="15.7424213"><ele>587.0</ele><time>2026-05-01T12:42:18.98Z</time></trkpt><trkpt lat="40.0280184" lon="15.7422656"><ele>587.0</ele><time>2026-05-01T12:42:19.98Z</time></trkpt><trkpt lat="40.0279913" lon="15.7420923"><ele>587.0</ele><time>2026-05-01T12:42:20.98Z</time></trkpt><trkpt lat="40.0279345" lon="15.7419177"><ele>587.0</ele><time>2026-05-01T12:42:21.979Z</time></trkpt><trkpt lat="40.0278623" lon="15.7417443"><ele>587.0</ele><time>2026-05-01T12:42:22.98Z</time></trkpt><trkpt lat="40.0278127" lon="15.7415675"><ele>587.0</ele><time>2026-05-01T12:42:23.979Z</time></trkpt><trkpt lat="40.0277995" lon="15.741383"><ele>588.25</ele><time>2026-05-01T12:42:24.979Z</time></trkpt><trkpt lat="40.0278044" lon="15.7412055"><ele>589.5</ele><time>2026-05-01T12:42:25.979Z</time></trkpt><trkpt lat="40.0278071" lon="15.7410154"><ele>590.75</ele><time>2026-05-01T12:42:26.979Z</time></trkpt><trkpt lat="40.0277905" lon="15.740823"><ele>592.0</ele><time>2026-05-01T12:42:27.979Z</time></trkpt><trkpt lat="40.0277625" lon="15.7406437"><ele>592.0</ele><time>2026-05-01T12:42:28.979Z</time></trkpt><trkpt lat="40.0277334" lon="15.7404627"><ele>592.0</ele><time>2026-05-01T12:42:29.98Z</time></trkpt><trkpt lat="40.0276912" lon="15.7402789"><ele>592.0</ele><time>2026-05-01T12:42:30.98Z</time></trkpt><trkpt lat="40.0276438" lon="15.7400983"><ele>592.0</ele><time>2026-05-01T12:42:31.98Z</time></trkpt><trkpt lat="40.0276015" lon="15.7399132"><ele>591.5</ele><time>2026-05-01T12:42:32.98Z</time></trkpt><trkpt lat="40.0275651" lon="15.739743"><ele>591.0</ele><time>2026-05-01T12:42:33.98Z</time></trkpt><trkpt lat="40.027543" lon="15.7395945"><ele>590.5</ele><time>2026-05-01T12:42:34.979Z</time></trkpt><trkpt lat="40.0275575" lon="15.7394503"><ele>590.0</ele><time>2026-05-01T12:42:35.98Z</time></trkpt><trkpt lat="40.0275947" lon="15.7393103"><ele>590.0</ele><time>2026-05-01T12:42:36.979Z</time></trkpt><trkpt lat="40.0276459" lon="15.739166"><ele>590.0</ele><time>2026-05-01T12:42:37.979Z</time></trkpt><trkpt lat="40.0277082" lon="15.7390089"><ele>590.0</ele><time>2026-05-01T12:42:38.98Z</time></trkpt><trkpt lat="40.0277839" lon="15.7388516"><ele>590.0</ele><time>2026-05-01T12:42:39.979Z</time></trkpt><trkpt lat="40.0278576" lon="15.7387162"><ele>590.0</ele><time>2026-05-01T12:42:40.979Z</time></trkpt><trkpt lat="40.0279177" lon="15.7385906"><ele>590.0</ele><time>2026-05-01T12:42:41.979Z</time></trkpt><trkpt lat="40.0279719" lon="15.7384623"><ele>590.0</ele><time>2026-05-01T12:42:42.979Z</time></trkpt><trkpt lat="40.0280394" lon="15.7383438"><ele>590.0</ele><time>2026-05-01T12:42:43.98Z</time></trkpt><trkpt lat="40.0280969" lon="15.7382244"><ele>590.0</ele><time>2026-05-01T12:42:44.979Z</time></trkpt><trkpt lat="40.0281536" lon="15.7381089"><ele>589.0</ele><time>2026-05-01T12:42:45.98Z</time></trkpt><trkpt lat="40.0282098" lon="15.7379827"><ele>588.0</ele><time>2026-05-01T12:42:46.979Z</time></trkpt><trkpt lat="40.0282676" lon="15.7378671"><ele>587.0</ele><time>2026-05-01T12:42:47.98Z</time></trkpt><trkpt lat="40.0283031" lon="15.7377444"><ele>586.0</ele><time>2026-05-01T12:42:48.98Z</time></trkpt><trkpt lat="40.0283155" lon="15.7376025"><ele>585.0</ele><time>2026-05-01T12:42:49.98Z</time></trkpt><trkpt lat="40.0283061" lon="15.7374573"><ele>588.8</ele><time>2026-05-01T12:42:50.98Z</time></trkpt><trkpt lat="40.0282907" lon="15.7373105"><ele>592.6</ele><time>2026-05-01T12:42:51.98Z</time></trkpt><trkpt lat="40.0282773" lon="15.7371643"><ele>596.4</ele><time>2026-05-01T12:42:52.98Z</time></trkpt><trkpt lat="40.0282651" lon="15.737022"><ele>600.2</ele><time>2026-05-01T12:42:53.979Z</time></trkpt><trkpt lat="40.0282597" lon="15.7368854"><ele>604.0</ele><time>2026-05-01T12:42:54.979Z</time></trkpt><trkpt lat="40.0282485" lon="15.7367594"><ele>604.0</ele><time>2026-05-01T12:42:55.98Z</time></trkpt><trkpt lat="40.0282506" lon="15.7366294"><ele>604.0</ele><time>2026-05-01T12:42:56.979Z</time></trkpt><trkpt lat="40.0282546" lon="15.7364942"><ele>604.0</ele><time>2026-05-01T12:42:57.979Z</time></trkpt><trkpt lat="40.028266" lon="15.7363529"><ele>604.0</ele><time>2026-05-01T12:42:58.979Z</time></trkpt><trkpt lat="40.0282817" lon="15.7362036"><ele>604.0</ele><time>2026-05-01T12:42:59.98Z</time></trkpt><trkpt lat="40.0283072" lon="15.7360598"><ele>600.8</ele><time>2026-05-01T12:43:00.979Z</time></trkpt><trkpt lat="40.028323" lon="15.7359229"><ele>597.5999999999999</ele><time>2026-05-01T12:43:01.98Z</time></trkpt><trkpt lat="40.0283309" lon="15.7357914"><ele>594.4</ele><time>2026-05-01T12:43:02.979Z</time></trkpt><trkpt lat="40.0283417" lon="15.7356716"><ele>591.1999999999999</ele><time>2026-05-01T12:43:03.979Z</time></trkpt><trkpt lat="40.0283554" lon="15.7355666"><ele>588.0</ele><time>2026-05-01T12:43:04.98Z</time></trkpt><trkpt lat="40.0283712" lon="15.7354681"><ele>588.0</ele><time>2026-05-01T12:43:05.98Z</time></trkpt><trkpt lat="40.0283873" lon="15.7353682"><ele>588.0</ele><time>2026-05-01T12:43:06.979Z</time></trkpt><trkpt lat="40.028401" lon="15.7352677"><ele>588.0</ele><time>2026-05-01T12:43:07.979Z</time></trkpt><trkpt lat="40.0284236" lon="15.7351694"><ele>588.0</ele><time>2026-05-01T12:43:08.979Z</time></trkpt><trkpt lat="40.0284356" lon="15.7350683"><ele>588.0</ele><time>2026-05-01T12:43:09.98Z</time></trkpt><trkpt lat="40.0284371" lon="15.7349734"><ele>588.0</ele><time>2026-05-01T12:43:10.979Z</time></trkpt><trkpt lat="40.0284395" lon="15.7348769"><ele>588.5</ele><time>2026-05-01T12:43:11.979Z</time></trkpt><trkpt lat="40.0284479" lon="15.7347727"><ele>589.0</ele><time>2026-05-01T12:43:12.979Z</time></trkpt><trkpt lat="40.0284648" lon="15.7346592"><ele>589.5</ele><time>2026-05-01T12:43:13.98Z</time></trkpt><trkpt lat="40.0284786" lon="15.7345397"><ele>590.0</ele><time>2026-05-01T12:43:14.979Z</time></trkpt><trkpt lat="40.028492" lon="15.7344252"><ele>590.5</ele><time>2026-05-01T12:43:15.98Z</time></trkpt><trkpt lat="40.028511" lon="15.734312"><ele>591.0</ele><time>2026-05-01T12:43:16.979Z</time></trkpt><trkpt lat="40.0285254" lon="15.7342157"><ele>591.6</ele><time>2026-05-01T12:43:17.979Z</time></trkpt><trkpt lat="40.0285345" lon="15.7341145"><ele>592.2</ele><time>2026-05-01T12:43:18.979Z</time></trkpt><trkpt lat="40.0285396" lon="15.7340066"><ele>592.8</ele><time>2026-05-01T12:43:19.979Z</time></trkpt><trkpt lat="40.028526" lon="15.733893"><ele>593.4</ele><time>2026-05-01T12:43:20.979Z</time></trkpt><trkpt lat="40.0284875" lon="15.7337832"><ele>594.0</ele><time>2026-05-01T12:43:21.979Z</time></trkpt><trkpt lat="40.0284169" lon="15.7336672"><ele>591.5</ele><time>2026-05-01T12:43:22.98Z</time></trkpt><trkpt lat="40.0283263" lon="15.7335507"><ele>589.0</ele><time>2026-05-01T12:43:23.979Z</time></trkpt><trkpt lat="40.0282217" lon="15.7334312"><ele>586.5</ele><time>2026-05-01T12:43:24.98Z</time></trkpt><trkpt lat="40.0281136" lon="15.7333118"><ele>584.0</ele><time>2026-05-01T12:43:25.98Z</time></trkpt><trkpt lat="40.0280024" lon="15.7332039"><ele>589.25</ele><time>2026-05-01T12:43:26.98Z</time></trkpt><trkpt lat="40.0278964" lon="15.7330928"><ele>594.5</ele><time>2026-05-01T12:43:27.979Z</time></trkpt><trkpt lat="40.0277935" lon="15.7329774"><ele>599.75</ele><time>2026-05-01T12:43:28.979Z</time></trkpt><trkpt lat="40.0276903" lon="15.7328637"><ele>605.0</ele><time>2026-05-01T12:43:29.979Z</time></trkpt><trkpt lat="40.027594" lon="15.7327405"><ele>607.25</ele><time>2026-05-01T12:43:30.98Z</time></trkpt><trkpt lat="40.0275102" lon="15.7326018"><ele>609.5</ele><time>2026-05-01T12:43:31.98Z</time></trkpt><trkpt lat="40.0274368" lon="15.7324551"><ele>611.75</ele><time>2026-05-01T12:43:32.979Z</time></trkpt><trkpt lat="40.0273861" lon="15.7322836"><ele>614.0</ele><time>2026-05-01T12:43:33.979Z</time></trkpt><trkpt lat="40.0273612" lon="15.7321056"><ele>614.0</ele><time>2026-05-01T12:43:34.979Z</time></trkpt><trkpt lat="40.0273579" lon="15.7319242"><ele>614.0</ele><time>2026-05-01T12:43:35.979Z</time></trkpt><trkpt lat="40.0273477" lon="15.7317429"><ele>614.0</ele><time>2026-05-01T12:43:36.98Z</time></trkpt><trkpt lat="40.0273081" lon="15.7315744"><ele>614.0</ele><time>2026-05-01T12:43:37.98Z</time></trkpt><trkpt lat="40.0272431" lon="15.7314214"><ele>613.25</ele><time>2026-05-01T12:43:38.979Z</time></trkpt><trkpt lat="40.0271704" lon="15.7312803"><ele>612.5</ele><time>2026-05-01T12:43:39.98Z</time></trkpt><trkpt lat="40.0270807" lon="15.7311508"><ele>611.75</ele><time>2026-05-01T12:43:40.98Z</time></trkpt><trkpt lat="40.0269824" lon="15.7310345"><ele>611.0</ele><time>2026-05-01T12:43:41.979Z</time></trkpt><trkpt lat="40.0268646" lon="15.7309433"><ele>607.75</ele><time>2026-05-01T12:43:42.98Z</time></trkpt><trkpt lat="40.0267343" lon="15.7308929"><ele>604.5</ele><time>2026-05-01T12:43:43.98Z</time></trkpt><trkpt lat="40.0265997" lon="15.7308812"><ele>601.25</ele><time>2026-05-01T12:43:44.979Z</time></trkpt><trkpt lat="40.0264652" lon="15.7309003"><ele>598.0</ele><time>2026-05-01T12:43:45.98Z</time></trkpt><trkpt lat="40.0263221" lon="15.7309403"><ele>597.75</ele><time>2026-05-01T12:43:46.979Z</time></trkpt><trkpt lat="40.0261851" lon="15.7309768"><ele>597.5</ele><time>2026-05-01T12:43:47.979Z</time></trkpt><trkpt lat="40.0260407" lon="15.7310166"><ele>597.25</ele><time>2026-05-01T12:43:48.979Z</time></trkpt><trkpt lat="40.0259014" lon="15.7310579"><ele>597.0</ele><time>2026-05-01T12:43:49.98Z</time></trkpt><trkpt lat="40.0257668" lon="15.7311059"><ele>594.25</ele><time>2026-05-01T12:43:50.979Z</time></trkpt><trkpt lat="40.0256389" lon="15.7311673"><ele>591.5</ele><time>2026-05-01T12:43:51.98Z</time></trkpt><trkpt lat="40.0255248" lon="15.7312363"><ele>588.75</ele><time>2026-05-01T12:43:52.98Z</time></trkpt><trkpt lat="40.0254181" lon="15.7313149"><ele>586.0</ele><time>2026-05-01T12:43:53.979Z</time></trkpt><trkpt lat="40.0253159" lon="15.7313903"><ele>586.0</ele><time>2026-05-01T12:43:54.979Z</time></trkpt><trkpt lat="40.0252094" lon="15.7314422"><ele>586.0</ele><time>2026-05-01T12:43:55.979Z</time></trkpt><trkpt lat="40.0250978" lon="15.7314635"><ele>586.0</ele><time>2026-05-01T12:43:56.98Z</time></trkpt><trkpt lat="40.0249807" lon="15.7314423"><ele>586.0</ele><time>2026-05-01T12:43:57.979Z</time></trkpt><trkpt lat="40.0248567" lon="15.7313774"><ele>584.25</ele><time>2026-05-01T12:43:58.979Z</time></trkpt><trkpt lat="40.0247364" lon="15.7312826"><ele>582.5</ele><time>2026-05-01T12:43:59.979Z</time></trkpt><trkpt lat="40.0246072" lon="15.7311812"><ele>580.75</ele><time>2026-05-01T12:44:00.979Z</time></trkpt><trkpt lat="40.0244792" lon="15.7310788"><ele>579.0</ele><time>2026-05-01T12:44:01.98Z</time></trkpt><trkpt lat="40.0243496" lon="15.7309771"><ele>578.0</ele><time>2026-05-01T12:44:02.98Z</time></trkpt><trkpt lat="40.0242232" lon="15.730883"><ele>577.0</ele><time>2026-05-01T12:44:03.98Z</time></trkpt><trkpt lat="40.0241092" lon="15.7307867"><ele>576.0</ele><time>2026-05-01T12:44:04.979Z</time></trkpt><trkpt lat="40.0239968" lon="15.7306889"><ele>575.0</ele><time>2026-05-01T12:44:05.98Z</time></trkpt><trkpt lat="40.0238918" lon="15.7305905"><ele>575.0</ele><time>2026-05-01T12:44:06.98Z</time></trkpt><trkpt lat="40.0237772" lon="15.7304917"><ele>575.0</ele><time>2026-05-01T12:44:07.979Z</time></trkpt><trkpt lat="40.0236543" lon="15.7303821"><ele>575.0</ele><time>2026-05-01T12:44:08.98Z</time></trkpt><trkpt lat="40.0235338" lon="15.7302749"><ele>575.0</ele><time>2026-05-01T12:44:09.979Z</time></trkpt><trkpt lat="40.0234208" lon="15.7301654"><ele>573.25</ele><time>2026-05-01T12:44:10.979Z</time></trkpt><trkpt lat="40.0233097" lon="15.7300598"><ele>571.5</ele><time>2026-05-01T12:44:11.979Z</time></trkpt><trkpt lat="40.0231979" lon="15.7299689"><ele>569.75</ele><time>2026-05-01T12:44:12.979Z</time></trkpt><trkpt lat="40.0230895" lon="15.7298968"><ele>568.0</ele><time>2026-05-01T12:44:13.979Z</time></trkpt><trkpt lat="40.0229818" lon="15.7298541"><ele>568.0</ele><time>2026-05-01T12:44:14.979Z</time></trkpt><trkpt lat="40.0228783" lon="15.7298263"><ele>568.0</ele><time>2026-05-01T12:44:15.98Z</time></trkpt><trkpt lat="40.0227777" lon="15.7298046"><ele>568.0</ele><time>2026-05-01T12:44:16.98Z</time></trkpt><trkpt lat="40.0226822" lon="15.7297833"><ele>568.0</ele><time>2026-05-01T12:44:17.979Z</time></trkpt><trkpt lat="40.022597" lon="15.7297642"><ele>568.0</ele><time>2026-05-01T12:44:18.979Z</time></trkpt><trkpt lat="40.0225191" lon="15.729743"><ele>566.6666666666667</ele><time>2026-05-01T12:44:19.979Z</time></trkpt><trkpt lat="40.0224479" lon="15.7297216"><ele>565.3333333333334</ele><time>2026-05-01T12:44:20.979Z</time></trkpt><trkpt lat="40.022381" lon="15.7296956"><ele>564.0</ele><time>2026-05-01T12:44:21.98Z</time></trkpt><trkpt lat="40.022319" lon="15.7296745"><ele>562.6666666666666</ele><time>2026-05-01T12:44:22.979Z</time></trkpt><trkpt lat="40.0222059" lon="15.7296335"><ele>561.3333333333333</ele><time>2026-05-01T12:44:24.98Z</time></trkpt><trkpt lat="40.0221403" lon="15.7296151"><ele>560.0</ele><time>2026-05-01T12:44:25.979Z</time></trkpt><trkpt lat="40.0220692" lon="15.729595"><ele>560.0</ele><time>2026-05-01T12:44:26.979Z</time></trkpt><trkpt lat="40.0219986" lon="15.7295721"><ele>560.0</ele><time>2026-05-01T12:44:27.979Z</time></trkpt><trkpt lat="40.0219327" lon="15.7295532"><ele>560.0</ele><time>2026-05-01T12:44:28.979Z</time></trkpt><trkpt lat="40.0218667" lon="15.7295409"><ele>560.0</ele><time>2026-05-01T12:44:29.979Z</time></trkpt><trkpt lat="40.0218022" lon="15.7295329"><ele>560.0</ele><time>2026-05-01T12:44:30.98Z</time></trkpt><trkpt lat="40.0217388" lon="15.7295361"><ele>560.0</ele><time>2026-05-01T12:44:31.979Z</time></trkpt><trkpt lat="40.0216221" lon="15.7295938"><ele>557.0</ele><time>2026-05-01T12:44:33.979Z</time></trkpt><trkpt lat="40.0215622" lon="15.7296544"><ele>554.0</ele><time>2026-05-01T12:44:34.98Z</time></trkpt><trkpt lat="40.0215172" lon="15.7297431"><ele>551.0</ele><time>2026-05-01T12:44:35.979Z</time></trkpt><trkpt lat="40.0214959" lon="15.7298561"><ele>548.0</ele><time>2026-05-01T12:44:36.979Z</time></trkpt><trkpt lat="40.0214992" lon="15.7299764"><ele>545.0</ele><time>2026-05-01T12:44:37.98Z</time></trkpt><trkpt lat="40.0215135" lon="15.730102"><ele>542.0</ele><time>2026-05-01T12:44:38.98Z</time></trkpt><trkpt lat="40.0215283" lon="15.7302217"><ele>543.0</ele><time>2026-05-01T12:44:39.979Z</time></trkpt><trkpt lat="40.0215401" lon="15.7303385"><ele>544.0</ele><time>2026-05-01T12:44:40.979Z</time></trkpt><trkpt lat="40.0215427" lon="15.730448"><ele>545.0</ele><time>2026-05-01T12:44:41.979Z</time></trkpt><trkpt lat="40.021536" lon="15.7305707"><ele>546.0</ele><time>2026-05-01T12:44:42.979Z</time></trkpt><trkpt lat="40.0215102" lon="15.7307011"><ele>547.0</ele><time>2026-05-01T12:44:43.979Z</time></trkpt><trkpt lat="40.0214667" lon="15.7308265"><ele>547.0</ele><time>2026-05-01T12:44:44.979Z</time></trkpt><trkpt lat="40.0214172" lon="15.7309411"><ele>547.0</ele><time>2026-05-01T12:44:45.979Z</time></trkpt><trkpt lat="40.0213353" lon="15.7310414"><ele>547.0</ele><time>2026-05-01T12:44:46.98Z</time></trkpt><trkpt lat="40.0212389" lon="15.7311095"><ele>547.0</ele><time>2026-05-01T12:44:47.979Z</time></trkpt><trkpt lat="40.0211301" lon="15.7311559"><ele>547.0</ele><time>2026-05-01T12:44:48.98Z</time></trkpt><trkpt lat="40.0210154" lon="15.7311852"><ele>548.0</ele><time>2026-05-01T12:44:49.979Z</time></trkpt><trkpt lat="40.0208986" lon="15.7312075"><ele>549.0</ele><time>2026-05-01T12:44:50.98Z</time></trkpt><trkpt lat="40.0207827" lon="15.7312303"><ele>550.0</ele><time>2026-05-01T12:44:51.979Z</time></trkpt><trkpt lat="40.0206582" lon="15.7312533"><ele>551.0</ele><time>2026-05-01T12:44:52.979Z</time></trkpt><trkpt lat="40.0205315" lon="15.7312757"><ele>551.0</ele><time>2026-05-01T12:44:53.98Z</time></trkpt><trkpt lat="40.0204094" lon="15.731297"><ele>551.0</ele><time>2026-05-01T12:44:54.979Z</time></trkpt><trkpt lat="40.0202961" lon="15.7313183"><ele>551.0</ele><time>2026-05-01T12:44:55.979Z</time></trkpt><trkpt lat="40.0201925" lon="15.7313383"><ele>551.0</ele><time>2026-05-01T12:44:56.979Z</time></trkpt><trkpt lat="40.0200961" lon="15.7313567"><ele>551.0</ele><time>2026-05-01T12:44:57.98Z</time></trkpt><trkpt lat="40.02" lon="15.7313703"><ele>549.8</ele><time>2026-05-01T12:44:58.979Z</time></trkpt><trkpt lat="40.019901" lon="15.7313872"><ele>548.6</ele><time>2026-05-01T12:44:59.979Z</time></trkpt><trkpt lat="40.0197976" lon="15.7314054"><ele>547.4</ele><time>2026-05-01T12:45:00.979Z</time></trkpt><trkpt lat="40.0196886" lon="15.7314084"><ele>546.2</ele><time>2026-05-01T12:45:01.979Z</time></trkpt><trkpt lat="40.0195689" lon="15.7313901"><ele>545.0</ele><time>2026-05-01T12:45:02.98Z</time></trkpt><trkpt lat="40.0194407" lon="15.7313588"><ele>545.0</ele><time>2026-05-01T12:45:03.979Z</time></trkpt><trkpt lat="40.0193014" lon="15.7313181"><ele>545.0</ele><time>2026-05-01T12:45:04.979Z</time></trkpt><trkpt lat="40.0191579" lon="15.7312786"><ele>545.0</ele><time>2026-05-01T12:45:05.98Z</time></trkpt><trkpt lat="40.019018" lon="15.7312427"><ele>545.0</ele><time>2026-05-01T12:45:06.979Z</time></trkpt><trkpt lat="40.0188782" lon="15.7312039"><ele>545.5</ele><time>2026-05-01T12:45:07.979Z</time></trkpt><trkpt lat="40.0187427" lon="15.7311684"><ele>546.0</ele><time>2026-05-01T12:45:08.979Z</time></trkpt><trkpt lat="40.0186158" lon="15.731135"><ele>546.5</ele><time>2026-05-01T12:45:09.979Z</time></trkpt><trkpt lat="40.018493" lon="15.7311015"><ele>547.0</ele><time>2026-05-01T12:45:10.979Z</time></trkpt><trkpt lat="40.0183702" lon="15.7310654"><ele>542.25</ele><time>2026-05-01T12:45:11.979Z</time></trkpt><trkpt lat="40.0182496" lon="15.731027"><ele>537.5</ele><time>2026-05-01T12:45:12.98Z</time></trkpt><trkpt lat="40.0181403" lon="15.7309884"><ele>532.75</ele><time>2026-05-01T12:45:13.979Z</time></trkpt><trkpt lat="40.0180314" lon="15.7309606"><ele>528.0</ele><time>2026-05-01T12:45:14.979Z</time></trkpt><trkpt lat="40.0179312" lon="15.7309226"><ele>528.0</ele><time>2026-05-01T12:45:15.98Z</time></trkpt><trkpt lat="40.017849" lon="15.7308796"><ele>528.0</ele><time>2026-05-01T12:45:16.98Z</time></trkpt><trkpt lat="40.0177672" lon="15.7308263"><ele>528.0</ele><time>2026-05-01T12:45:17.979Z</time></trkpt><trkpt lat="40.017702" lon="15.7307548"><ele>528.0</ele><time>2026-05-01T12:45:18.979Z</time></trkpt><trkpt lat="40.0176552" lon="15.7306699"><ele>528.0</ele><time>2026-05-01T12:45:19.979Z</time></trkpt><trkpt lat="40.0176422" lon="15.7305733"><ele>528.0</ele><time>2026-05-01T12:45:20.979Z</time></trkpt><trkpt lat="40.0176631" lon="15.7304552"><ele>528.0</ele><time>2026-05-01T12:45:21.979Z</time></trkpt><trkpt lat="40.0177093" lon="15.7303242"><ele>528.0</ele><time>2026-05-01T12:45:22.98Z</time></trkpt><trkpt lat="40.0177737" lon="15.7301843"><ele>528.0</ele><time>2026-05-01T12:45:23.98Z</time></trkpt><trkpt lat="40.0178414" lon="15.7300399"><ele>528.0</ele><time>2026-05-01T12:45:24.979Z</time></trkpt><trkpt lat="40.0179106" lon="15.7298976"><ele>525.6</ele><time>2026-05-01T12:45:25.98Z</time></trkpt><trkpt lat="40.0179719" lon="15.729773"><ele>523.1999999999999</ele><time>2026-05-01T12:45:26.98Z</time></trkpt><trkpt lat="40.0180373" lon="15.7296588"><ele>520.8</ele><time>2026-05-01T12:45:27.979Z</time></trkpt><trkpt lat="40.0181133" lon="15.7295712"><ele>518.4</ele><time>2026-05-01T12:45:28.979Z</time></trkpt><trkpt lat="40.0181905" lon="15.7294972"><ele>516.0</ele><time>2026-05-01T12:45:29.979Z</time></trkpt><trkpt lat="40.0182611" lon="15.7294319"><ele>516.0</ele><time>2026-05-01T12:45:30.98Z</time></trkpt><trkpt lat="40.0183366" lon="15.7293546"><ele>516.0</ele><time>2026-05-01T12:45:31.98Z</time></trkpt><trkpt lat="40.0184133" lon="15.7292663"><ele>516.0</ele><time>2026-05-01T12:45:32.979Z</time></trkpt><trkpt lat="40.0184941" lon="15.7291758"><ele>516.0</ele><time>2026-05-01T12:45:33.979Z</time></trkpt><trkpt lat="40.0185688" lon="15.7290718"><ele>516.0</ele><time>2026-05-01T12:45:34.98Z</time></trkpt><trkpt lat="40.0186311" lon="15.7289676"><ele>516.0</ele><time>2026-05-01T12:45:35.98Z</time></trkpt><trkpt lat="40.018681" lon="15.7288539"><ele>516.0</ele><time>2026-05-01T12:45:36.979Z</time></trkpt><trkpt lat="40.0187302" lon="15.7287492"><ele>516.0</ele><time>2026-05-01T12:45:37.979Z</time></trkpt><trkpt lat="40.0187936" lon="15.7286483"><ele>516.0</ele><time>2026-05-01T12:45:38.98Z</time></trkpt><trkpt lat="40.0188644" lon="15.7285552"><ele>516.0</ele><time>2026-05-01T12:45:39.979Z</time></trkpt><trkpt lat="40.0189442" lon="15.7284615"><ele>517.0</ele><time>2026-05-01T12:45:40.98Z</time></trkpt><trkpt lat="40.0190228" lon="15.7283721"><ele>518.0</ele><time>2026-05-01T12:45:41.979Z</time></trkpt><trkpt lat="40.0191045" lon="15.7282888"><ele>519.0</ele><time>2026-05-01T12:45:42.979Z</time></trkpt><trkpt lat="40.0191834" lon="15.7282167"><ele>520.0</ele><time>2026-05-01T12:45:43.979Z</time></trkpt><trkpt lat="40.0192665" lon="15.7281619"><ele>521.0</ele><time>2026-05-01T12:45:44.979Z</time></trkpt><trkpt lat="40.01935" lon="15.728114"><ele>521.0</ele><time>2026-05-01T12:45:45.979Z</time></trkpt><trkpt lat="40.0194319" lon="15.7280792"><ele>521.0</ele><time>2026-05-01T12:45:46.979Z</time></trkpt><trkpt lat="40.0195241" lon="15.7280522"><ele>521.0</ele><time>2026-05-01T12:45:47.979Z</time></trkpt><trkpt lat="40.0196226" lon="15.7280403"><ele>521.0</ele><time>2026-05-01T12:45:48.98Z</time></trkpt><trkpt lat="40.0197228" lon="15.7280569"><ele>521.0</ele><time>2026-05-01T12:45:49.979Z</time></trkpt><trkpt lat="40.0198233" lon="15.7280923"><ele>521.0</ele><time>2026-05-01T12:45:50.979Z</time></trkpt><trkpt lat="40.0199265" lon="15.7281403"><ele>521.0</ele><time>2026-05-01T12:45:51.98Z</time></trkpt><trkpt lat="40.0200358" lon="15.728197"><ele>521.0</ele><time>2026-05-01T12:45:52.979Z</time></trkpt><trkpt lat="40.0201521" lon="15.7282564"><ele>521.0</ele><time>2026-05-01T12:45:53.979Z</time></trkpt><trkpt lat="40.0202692" lon="15.7283174"><ele>521.6</ele><time>2026-05-01T12:45:54.98Z</time></trkpt><trkpt lat="40.02038" lon="15.7283705"><ele>522.2</ele><time>2026-05-01T12:45:55.979Z</time></trkpt><trkpt lat="40.0204883" lon="15.728425"><ele>522.8</ele><time>2026-05-01T12:45:56.979Z</time></trkpt><trkpt lat="40.0205829" lon="15.7284663"><ele>523.4</ele><time>2026-05-01T12:45:57.979Z</time></trkpt><trkpt lat="40.020662" lon="15.7285018"><ele>524.0</ele><time>2026-05-01T12:45:58.979Z</time></trkpt><trkpt lat="40.0207356" lon="15.7285198"><ele>524.0</ele><time>2026-05-01T12:45:59.98Z</time></trkpt><trkpt lat="40.0208041" lon="15.7285192"><ele>524.0</ele><time>2026-05-01T12:46:00.979Z</time></trkpt><trkpt lat="40.0208774" lon="15.7284898"><ele>524.0</ele><time>2026-05-01T12:46:01.979Z</time></trkpt><trkpt lat="40.0209383" lon="15.7284227"><ele>524.0</ele><time>2026-05-01T12:46:02.979Z</time></trkpt><trkpt lat="40.0209699" lon="15.7283214"><ele>524.0</ele><time>2026-05-01T12:46:03.979Z</time></trkpt><trkpt lat="40.020974" lon="15.7282175"><ele>524.0</ele><time>2026-05-01T12:46:04.979Z</time></trkpt><trkpt lat="40.020936" lon="15.7281125"><ele>524.0</ele><time>2026-05-01T12:46:05.979Z</time></trkpt><trkpt lat="40.0208698" lon="15.7280173"><ele>524.0</ele><time>2026-05-01T12:46:06.979Z</time></trkpt><trkpt lat="40.0207875" lon="15.7279263"><ele>524.0</ele><time>2026-05-01T12:46:07.979Z</time></trkpt><trkpt lat="40.0207081" lon="15.7278285"><ele>524.0</ele><time>2026-05-01T12:46:08.98Z</time></trkpt><trkpt lat="40.0206496" lon="15.7277141"><ele>524.0</ele><time>2026-05-01T12:46:09.98Z</time></trkpt><trkpt lat="40.0206031" lon="15.727589"><ele>521.4</ele><time>2026-05-01T12:46:10.98Z</time></trkpt><trkpt lat="40.0205736" lon="15.7274512"><ele>518.8</ele><time>2026-05-01T12:46:11.979Z</time></trkpt><trkpt lat="40.0205585" lon="15.7273058"><ele>516.2</ele><time>2026-05-01T12:46:12.979Z</time></trkpt><trkpt lat="40.020543" lon="15.7271665"><ele>513.6</ele><time>2026-05-01T12:46:13.979Z</time></trkpt><trkpt lat="40.0205269" lon="15.7270293"><ele>511.0</ele><time>2026-05-01T12:46:14.979Z</time></trkpt><trkpt lat="40.0205094" lon="15.7268817"><ele>509.6</ele><time>2026-05-01T12:46:15.979Z</time></trkpt><trkpt lat="40.0204916" lon="15.7267331"><ele>508.20000000000005</ele><time>2026-05-01T12:46:16.98Z</time></trkpt><trkpt lat="40.0204713" lon="15.7265847"><ele>506.79999999999995</ele><time>2026-05-01T12:46:17.98Z</time></trkpt><trkpt lat="40.0204461" lon="15.7264471"><ele>505.4</ele><time>2026-05-01T12:46:18.979Z</time></trkpt><trkpt lat="40.0204054" lon="15.7263217"><ele>504.0</ele><time>2026-05-01T12:46:19.98Z</time></trkpt><trkpt lat="40.0203433" lon="15.726213"><ele>504.0</ele><time>2026-05-01T12:46:20.979Z</time></trkpt><trkpt lat="40.0202728" lon="15.7261236"><ele>504.0</ele><time>2026-05-01T12:46:21.979Z</time></trkpt><trkpt lat="40.0201938" lon="15.7260614"><ele>504.0</ele><time>2026-05-01T12:46:22.979Z</time></trkpt><trkpt lat="40.0201027" lon="15.7260377"><ele>504.0</ele><time>2026-05-01T12:46:23.979Z</time></trkpt><trkpt lat="40.020009" lon="15.726045"><ele>504.0</ele><time>2026-05-01T12:46:24.979Z</time></trkpt><trkpt lat="40.0199169" lon="15.7260747"><ele>499.5</ele><time>2026-05-01T12:46:25.979Z</time></trkpt><trkpt lat="40.0198238" lon="15.7261393"><ele>495.0</ele><time>2026-05-01T12:46:26.979Z</time></trkpt><trkpt lat="40.0197332" lon="15.7262395"><ele>490.5</ele><time>2026-05-01T12:46:27.979Z</time></trkpt><trkpt lat="40.0196403" lon="15.7263781"><ele>486.0</ele><time>2026-05-01T12:46:28.979Z</time></trkpt><trkpt lat="40.019545" lon="15.7265272"><ele>486.0</ele><time>2026-05-01T12:46:29.979Z</time></trkpt><trkpt lat="40.0194441" lon="15.7266787"><ele>486.0</ele><time>2026-05-01T12:46:30.98Z</time></trkpt><trkpt lat="40.0193486" lon="15.7268093"><ele>486.0</ele><time>2026-05-01T12:46:31.98Z</time></trkpt><trkpt lat="40.0192565" lon="15.7269386"><ele>486.0</ele><time>2026-05-01T12:46:32.979Z</time></trkpt><trkpt lat="40.019161" lon="15.7270636"><ele>485.0</ele><time>2026-05-01T12:46:33.98Z</time></trkpt><trkpt lat="40.0190584" lon="15.7271893"><ele>484.0</ele><time>2026-05-01T12:46:34.979Z</time></trkpt><trkpt lat="40.0189511" lon="15.7273111"><ele>483.0</ele><time>2026-05-01T12:46:35.98Z</time></trkpt><trkpt lat="40.0188452" lon="15.7274293"><ele>482.0</ele><time>2026-05-01T12:46:36.98Z</time></trkpt><trkpt lat="40.0187483" lon="15.7275451"><ele>482.0</ele><time>2026-05-01T12:46:37.979Z</time></trkpt><trkpt lat="40.0186567" lon="15.7276598"><ele>482.0</ele><time>2026-05-01T12:46:38.98Z</time></trkpt><trkpt lat="40.0185676" lon="15.7277656"><ele>482.0</ele><time>2026-05-01T12:46:39.98Z</time></trkpt><trkpt lat="40.0184781" lon="15.7278703"><ele>482.0</ele><time>2026-05-01T12:46:40.979Z</time></trkpt><trkpt lat="40.0183869" lon="15.7279719"><ele>479.75</ele><time>2026-05-01T12:46:41.979Z</time></trkpt><trkpt lat="40.0183028" lon="15.7280739"><ele>477.5</ele><time>2026-05-01T12:46:42.979Z</time></trkpt><trkpt lat="40.01822" lon="15.728188"><ele>475.25</ele><time>2026-05-01T12:46:43.98Z</time></trkpt><trkpt lat="40.0181471" lon="15.7283039"><ele>473.0</ele><time>2026-05-01T12:46:44.979Z</time></trkpt><trkpt lat="40.0180773" lon="15.7284278"><ele>473.0</ele><time>2026-05-01T12:46:45.979Z</time></trkpt><trkpt lat="40.0180031" lon="15.7285548"><ele>473.0</ele><time>2026-05-01T12:46:46.979Z</time></trkpt><trkpt lat="40.0179318" lon="15.7286803"><ele>473.0</ele><time>2026-05-01T12:46:47.979Z</time></trkpt><trkpt lat="40.0178528" lon="15.7287976"><ele>473.0</ele><time>2026-05-01T12:46:48.98Z</time></trkpt><trkpt lat="40.0177641" lon="15.7289023"><ele>476.0</ele><time>2026-05-01T12:46:49.98Z</time></trkpt><trkpt lat="40.0176667" lon="15.7290024"><ele>479.0</ele><time>2026-05-01T12:46:50.98Z</time></trkpt><trkpt lat="40.0175677" lon="15.7290864"><ele>482.0</ele><time>2026-05-01T12:46:51.979Z</time></trkpt><trkpt lat="40.0174655" lon="15.7291475"><ele>485.0</ele><time>2026-05-01T12:46:52.979Z</time></trkpt><trkpt lat="40.0173604" lon="15.7291844"><ele>485.0</ele><time>2026-05-01T12:46:53.98Z</time></trkpt><trkpt lat="40.01724" lon="15.7291967"><ele>485.0</ele><time>2026-05-01T12:46:54.979Z</time></trkpt><trkpt lat="40.0171179" lon="15.7291796"><ele>485.0</ele><time>2026-05-01T12:46:55.979Z</time></trkpt><trkpt lat="40.017003" lon="15.7291302"><ele>485.0</ele><time>2026-05-01T12:46:56.979Z</time></trkpt><trkpt lat="40.0169007" lon="15.729063"><ele>485.0</ele><time>2026-05-01T12:46:57.979Z</time></trkpt><trkpt lat="40.0167972" lon="15.7289886"><ele>485.0</ele><time>2026-05-01T12:46:58.979Z</time></trkpt><trkpt lat="40.0167016" lon="15.7289175"><ele>485.0</ele><time>2026-05-01T12:46:59.979Z</time></trkpt><trkpt lat="40.0166042" lon="15.7288684"><ele>485.0</ele><time>2026-05-01T12:47:00.979Z</time></trkpt><trkpt lat="40.0165085" lon="15.7288572"><ele>485.0</ele><time>2026-05-01T12:47:01.979Z</time></trkpt><trkpt lat="40.0164033" lon="15.7288841"><ele>482.25</ele><time>2026-05-01T12:47:02.98Z</time></trkpt><trkpt lat="40.0162936" lon="15.7289533"><ele>479.5</ele><time>2026-05-01T12:47:03.979Z</time></trkpt><trkpt lat="40.0161961" lon="15.7290516"><ele>476.75</ele><time>2026-05-01T12:47:04.979Z</time></trkpt><trkpt lat="40.0161068" lon="15.7291524"><ele>474.0</ele><time>2026-05-01T12:47:05.98Z</time></trkpt><trkpt lat="40.0160173" lon="15.7292443"><ele>474.0</ele><time>2026-05-01T12:47:06.98Z</time></trkpt><trkpt lat="40.0159316" lon="15.7293229"><ele>474.0</ele><time>2026-05-01T12:47:07.979Z</time></trkpt><trkpt lat="40.0158547" lon="15.7293912"><ele>474.0</ele><time>2026-05-01T12:47:08.98Z</time></trkpt><trkpt lat="40.0157804" lon="15.7294589"><ele>474.0</ele><time>2026-05-01T12:47:09.979Z</time></trkpt><trkpt lat="40.0157105" lon="15.729498"><ele>474.0</ele><time>2026-05-01T12:47:10.98Z</time></trkpt><trkpt lat="40.0156375" lon="15.72949"><ele>474.0</ele><time>2026-05-01T12:47:11.98Z</time></trkpt><trkpt lat="40.015566" lon="15.7294357"><ele>472.79999999999995</ele><time>2026-05-01T12:47:12.979Z</time></trkpt><trkpt lat="40.015509" lon="15.7293491"><ele>471.59999999999997</ele><time>2026-05-01T12:47:13.98Z</time></trkpt><trkpt lat="40.0154918" lon="15.729239"><ele>470.4</ele><time>2026-05-01T12:47:14.979Z</time></trkpt><trkpt lat="40.0155184" lon="15.7291242"><ele>469.2</ele><time>2026-05-01T12:47:15.979Z</time></trkpt><trkpt lat="40.01562" lon="15.7290158"><ele>468.0</ele><time>2026-05-01T12:47:16.979Z</time></trkpt><trkpt lat="40.0157355" lon="15.7289372"><ele>469.5</ele><time>2026-05-01T12:47:17.98Z</time></trkpt><trkpt lat="40.0158373" lon="15.7288656"><ele>471.0</ele><time>2026-05-01T12:47:18.979Z</time></trkpt><trkpt lat="40.0159339" lon="15.7287922"><ele>472.5</ele><time>2026-05-01T12:47:19.979Z</time></trkpt><trkpt lat="40.0160292" lon="15.7287183"><ele>474.0</ele><time>2026-05-01T12:47:20.98Z</time></trkpt><trkpt lat="40.0161261" lon="15.7286435"><ele>474.0</ele><time>2026-05-01T12:47:21.979Z</time></trkpt><trkpt lat="40.0162241" lon="15.7285701"><ele>474.0</ele><time>2026-05-01T12:47:22.98Z</time></trkpt><trkpt lat="40.016318" lon="15.728495"><ele>474.0</ele><time>2026-05-01T12:47:23.979Z</time></trkpt><trkpt lat="40.0164024" lon="15.7284215"><ele>474.0</ele><time>2026-05-01T12:47:24.979Z</time></trkpt><trkpt lat="40.0164828" lon="15.7283497"><ele>474.0</ele><time>2026-05-01T12:47:25.979Z</time></trkpt><trkpt lat="40.0165711" lon="15.7282879"><ele>473.79999999999995</ele><time>2026-05-01T12:47:26.979Z</time></trkpt><trkpt lat="40.0166581" lon="15.7282279"><ele>473.59999999999997</ele><time>2026-05-01T12:47:27.98Z</time></trkpt><trkpt lat="40.0167416" lon="15.7281661"><ele>473.4</ele><time>2026-05-01T12:47:28.979Z</time></trkpt><trkpt lat="40.0168249" lon="15.7280997"><ele>473.2</ele><time>2026-05-01T12:47:29.979Z</time></trkpt><trkpt lat="40.0169051" lon="15.7280163"><ele>473.0</ele><time>2026-05-01T12:47:30.979Z</time></trkpt><trkpt lat="40.0169649" lon="15.7279204"><ele>473.0</ele><time>2026-05-01T12:47:31.979Z</time></trkpt><trkpt lat="40.0169867" lon="15.7278139"><ele>472.99999999999994</ele><time>2026-05-01T12:47:32.979Z</time></trkpt><trkpt lat="40.0169781" lon="15.7277009"><ele>472.99999999999994</ele><time>2026-05-01T12:47:33.979Z</time></trkpt><trkpt lat="40.0169434" lon="15.7275811"><ele>473.0</ele><time>2026-05-01T12:47:34.979Z</time></trkpt><trkpt lat="40.0168883" lon="15.7274527"><ele>473.0</ele><time>2026-05-01T12:47:35.979Z</time></trkpt><trkpt lat="40.0168386" lon="15.7273202"><ele>472.79999999999995</ele><time>2026-05-01T12:47:36.98Z</time></trkpt><trkpt lat="40.0167999" lon="15.7271905"><ele>472.59999999999997</ele><time>2026-05-01T12:47:37.98Z</time></trkpt><trkpt lat="40.0167741" lon="15.727067"><ele>472.40000000000003</ele><time>2026-05-01T12:47:38.98Z</time></trkpt><trkpt lat="40.0167588" lon="15.72693"><ele>472.20000000000005</ele><time>2026-05-01T12:47:39.979Z</time></trkpt><trkpt lat="40.0167284" lon="15.7267912"><ele>472.0</ele><time>2026-05-01T12:47:40.979Z</time></trkpt><trkpt lat="40.0166842" lon="15.7266653"><ele>471.0</ele><time>2026-05-01T12:47:41.979Z</time></trkpt><trkpt lat="40.0166234" lon="15.7265539"><ele>470.00000000000006</ele><time>2026-05-01T12:47:42.979Z</time></trkpt><trkpt lat="40.0165518" lon="15.72645"><ele>469.00000000000006</ele><time>2026-05-01T12:47:43.979Z</time></trkpt><trkpt lat="40.0164686" lon="15.7263535"><ele>468.0</ele><time>2026-05-01T12:47:44.98Z</time></trkpt><trkpt lat="40.0163945" lon="15.7262515"><ele>467.0</ele><time>2026-05-01T12:47:45.979Z</time></trkpt><trkpt lat="40.0163299" lon="15.7261487"><ele>463.0</ele><time>2026-05-01T12:47:46.979Z</time></trkpt><trkpt lat="40.0162651" lon="15.726047"><ele>459.00000000000006</ele><time>2026-05-01T12:47:47.979Z</time></trkpt><trkpt lat="40.0161914" lon="15.7259497"><ele>455.00000000000006</ele><time>2026-05-01T12:47:48.98Z</time></trkpt><trkpt lat="40.0161058" lon="15.7258621"><ele>451.0</ele><time>2026-05-01T12:47:49.979Z</time></trkpt><trkpt lat="40.0160208" lon="15.7257822"><ele>447.0</ele><time>2026-05-01T12:47:50.979Z</time></trkpt><trkpt lat="40.0159242" lon="15.7257152"><ele>447.0</ele><time>2026-05-01T12:47:51.98Z</time></trkpt><trkpt lat="40.0158211" lon="15.7256668"><ele>447.00000000000006</ele><time>2026-05-01T12:47:52.979Z</time></trkpt><trkpt lat="40.0157089" lon="15.7256495"><ele>447.00000000000006</ele><time>2026-05-01T12:47:53.979Z</time></trkpt><trkpt lat="40.015598" lon="15.7256688"><ele>447.0</ele><time>2026-05-01T12:47:54.979Z</time></trkpt><trkpt lat="40.015491" lon="15.7257217"><ele>447.0</ele><time>2026-05-01T12:47:55.979Z</time></trkpt><trkpt lat="40.0153965" lon="15.7258011"><ele>446.20000000000005</ele><time>2026-05-01T12:47:56.979Z</time></trkpt><trkpt lat="40.0153179" lon="15.7259068"><ele>445.40000000000003</ele><time>2026-05-01T12:47:57.979Z</time></trkpt><trkpt lat="40.0152717" lon="15.7260309"><ele>444.59999999999997</ele><time>2026-05-01T12:47:58.98Z</time></trkpt><trkpt lat="40.0152443" lon="15.7261741"><ele>443.79999999999995</ele><time>2026-05-01T12:47:59.98Z</time></trkpt><trkpt lat="40.0152188" lon="15.7263169"><ele>443.0</ele><time>2026-05-01T12:48:00.979Z</time></trkpt><trkpt lat="40.0151958" lon="15.7264531"><ele>443.0</ele><time>2026-05-01T12:48:01.979Z</time></trkpt><trkpt lat="40.0151626" lon="15.7265872"><ele>442.99999999999994</ele><time>2026-05-01T12:48:02.98Z</time></trkpt><trkpt lat="40.0151254" lon="15.7267117"><ele>442.99999999999994</ele><time>2026-05-01T12:48:03.98Z</time></trkpt><trkpt lat="40.01507" lon="15.7268314"><ele>443.0</ele><time>2026-05-01T12:48:04.98Z</time></trkpt><trkpt lat="40.0150009" lon="15.7269511"><ele>443.0</ele><time>2026-05-01T12:48:05.979Z</time></trkpt><trkpt lat="40.014918" lon="15.7270727"><ele>440.0</ele><time>2026-05-01T12:48:06.98Z</time></trkpt><trkpt lat="40.0148277" lon="15.7271945"><ele>437.0</ele><time>2026-05-01T12:48:07.979Z</time></trkpt><trkpt lat="40.0147412" lon="15.7273142"><ele>434.0</ele><time>2026-05-01T12:48:08.979Z</time></trkpt><trkpt lat="40.014658" lon="15.7274367"><ele>431.0</ele><time>2026-05-01T12:48:09.98Z</time></trkpt><trkpt lat="40.0145793" lon="15.7275566"><ele>431.0</ele><time>2026-05-01T12:48:10.979Z</time></trkpt><trkpt lat="40.0145046" lon="15.7276731"><ele>431.0</ele><time>2026-05-01T12:48:11.979Z</time></trkpt><trkpt lat="40.0144298" lon="15.7277819"><ele>431.0</ele><time>2026-05-01T12:48:12.98Z</time></trkpt><trkpt lat="40.0143598" lon="15.7278808"><ele>431.0</ele><time>2026-05-01T12:48:13.979Z</time></trkpt><trkpt lat="40.0142947" lon="15.7279759"><ele>431.0</ele><time>2026-05-01T12:48:14.979Z</time></trkpt><trkpt lat="40.0142316" lon="15.7280646"><ele>429.8</ele><time>2026-05-01T12:48:15.979Z</time></trkpt><trkpt lat="40.0141655" lon="15.7281496"><ele>428.6</ele><time>2026-05-01T12:48:16.98Z</time></trkpt><trkpt lat="40.014099" lon="15.728234"><ele>427.4</ele><time>2026-05-01T12:48:17.98Z</time></trkpt><trkpt lat="40.0140368" lon="15.7283257"><ele>426.2</ele><time>2026-05-01T12:48:18.98Z</time></trkpt><trkpt lat="40.0139753" lon="15.7284089"><ele>425.0</ele><time>2026-05-01T12:48:19.98Z</time></trkpt><trkpt lat="40.0139167" lon="15.728492"><ele>428.6</ele><time>2026-05-01T12:48:20.979Z</time></trkpt><trkpt lat="40.0138583" lon="15.7285749"><ele>432.2</ele><time>2026-05-01T12:48:21.98Z</time></trkpt><trkpt lat="40.0137956" lon="15.7286643"><ele>435.79999999999995</ele><time>2026-05-01T12:48:22.979Z</time></trkpt><trkpt lat="40.0137291" lon="15.7287568"><ele>439.4</ele><time>2026-05-01T12:48:23.979Z</time></trkpt><trkpt lat="40.0136544" lon="15.7288467"><ele>443.0</ele><time>2026-05-01T12:48:24.98Z</time></trkpt><trkpt lat="40.0135738" lon="15.7289256"><ele>443.0</ele><time>2026-05-01T12:48:25.979Z</time></trkpt><trkpt lat="40.0134779" lon="15.7289928"><ele>443.0</ele><time>2026-05-01T12:48:26.979Z</time></trkpt><trkpt lat="40.0133704" lon="15.7290698"><ele>443.0</ele><time>2026-05-01T12:48:27.979Z</time></trkpt><trkpt lat="40.0132459" lon="15.7291353"><ele>443.0</ele><time>2026-05-01T12:48:28.979Z</time></trkpt><trkpt lat="40.01311" lon="15.7291706"><ele>442.66666666666663</ele><time>2026-05-01T12:48:29.98Z</time></trkpt><trkpt lat="40.0129684" lon="15.7291785"><ele>442.33333333333337</ele><time>2026-05-01T12:48:30.979Z</time></trkpt><trkpt lat="40.0128197" lon="15.729154"><ele>442.0</ele><time>2026-05-01T12:48:31.979Z</time></trkpt><trkpt lat="40.0126615" lon="15.7291203"><ele>442.0</ele><time>2026-05-01T12:48:32.979Z</time></trkpt><trkpt lat="40.0125015" lon="15.7290673"><ele>442.0</ele><time>2026-05-01T12:48:33.98Z</time></trkpt><trkpt lat="40.0123515" lon="15.7290262"><ele>442.0</ele><time>2026-05-01T12:48:34.979Z</time></trkpt><trkpt lat="40.0122021" lon="15.7289834"><ele>436.0</ele><time>2026-05-01T12:48:35.98Z</time></trkpt><trkpt lat="40.0120612" lon="15.72897"><ele>430.0</ele><time>2026-05-01T12:48:36.979Z</time></trkpt><trkpt lat="40.0119041" lon="15.728979"><ele>424.0</ele><time>2026-05-01T12:48:37.98Z</time></trkpt><trkpt lat="40.0117486" lon="15.7290213"><ele>418.0</ele><time>2026-05-01T12:48:38.98Z</time></trkpt><trkpt lat="40.0116126" lon="15.7291107"><ele>412.0</ele><time>2026-05-01T12:48:39.979Z</time></trkpt><trkpt lat="40.0114886" lon="15.7292098"><ele>406.0</ele><time>2026-05-01T12:48:40.98Z</time></trkpt><trkpt lat="40.011376" lon="15.7293186"><ele>400.0</ele><time>2026-05-01T12:48:41.979Z</time></trkpt><trkpt lat="40.0112608" lon="15.7294092"><ele>407.5</ele><time>2026-05-01T12:48:42.979Z</time></trkpt><trkpt lat="40.011145" lon="15.7294857"><ele>415.0</ele><time>2026-05-01T12:48:43.979Z</time></trkpt><trkpt lat="40.011036" lon="15.7295573"><ele>422.5</ele><time>2026-05-01T12:48:44.979Z</time></trkpt><trkpt lat="40.0109183" lon="15.7295888"><ele>430.0</ele><time>2026-05-01T12:48:45.979Z</time></trkpt><trkpt lat="40.010782" lon="15.7295958"><ele>430.0</ele><time>2026-05-01T12:48:46.979Z</time></trkpt><trkpt lat="40.0106454" lon="15.7296028"><ele>430.0</ele><time>2026-05-01T12:48:47.98Z</time></trkpt><trkpt lat="40.0105022" lon="15.7296194"><ele>430.0</ele><time>2026-05-01T12:48:48.979Z</time></trkpt><trkpt lat="40.0103581" lon="15.7296541"><ele>430.0</ele><time>2026-05-01T12:48:49.979Z</time></trkpt><trkpt lat="40.0102204" lon="15.7297005"><ele>430.0</ele><time>2026-05-01T12:48:50.98Z</time></trkpt><trkpt lat="40.010081" lon="15.7297499"><ele>430.0</ele><time>2026-05-01T12:48:51.979Z</time></trkpt><trkpt lat="40.0099341" lon="15.7297866"><ele>430.0</ele><time>2026-05-01T12:48:52.979Z</time></trkpt><trkpt lat="40.0097936" lon="15.7298307"><ele>430.0</ele><time>2026-05-01T12:48:53.979Z</time></trkpt><trkpt lat="40.0096593" lon="15.7298693"><ele>427.0</ele><time>2026-05-01T12:48:54.979Z</time></trkpt><trkpt lat="40.0095247" lon="15.7299156"><ele>424.0</ele><time>2026-05-01T12:48:55.979Z</time></trkpt><trkpt lat="40.0093955" lon="15.7299453"><ele>421.0</ele><time>2026-05-01T12:48:56.979Z</time></trkpt><trkpt lat="40.0092762" lon="15.7299685"><ele>418.0</ele><time>2026-05-01T12:48:57.979Z</time></trkpt><trkpt lat="40.0091562" lon="15.7299857"><ele>418.0</ele><time>2026-05-01T12:48:58.979Z</time></trkpt><trkpt lat="40.0090347" lon="15.7300031"><ele>418.0</ele><time>2026-05-01T12:48:59.979Z</time></trkpt><trkpt lat="40.0089096" lon="15.7300038"><ele>418.0</ele><time>2026-05-01T12:49:00.979Z</time></trkpt><trkpt lat="40.0087681" lon="15.7300151"><ele>418.0</ele><time>2026-05-01T12:49:01.98Z</time></trkpt><trkpt lat="40.0086201" lon="15.7300235"><ele>418.0</ele><time>2026-05-01T12:49:02.979Z</time></trkpt><trkpt lat="40.00847" lon="15.7300201"><ele>418.0</ele><time>2026-05-01T12:49:03.979Z</time></trkpt><trkpt lat="40.0083304" lon="15.7300182"><ele>418.0</ele><time>2026-05-01T12:49:04.98Z</time></trkpt><trkpt lat="40.0082072" lon="15.7300081"><ele>418.0</ele><time>2026-05-01T12:49:05.98Z</time></trkpt><trkpt lat="40.0080957" lon="15.729992"><ele>418.50000000000006</ele><time>2026-05-01T12:49:06.979Z</time></trkpt><trkpt lat="40.0079968" lon="15.7299822"><ele>419.0</ele><time>2026-05-01T12:49:07.979Z</time></trkpt><trkpt lat="40.0079105" lon="15.7299666"><ele>419.5</ele><time>2026-05-01T12:49:08.98Z</time></trkpt><trkpt lat="40.0078221" lon="15.7299513"><ele>420.0</ele><time>2026-05-01T12:49:09.98Z</time></trkpt><trkpt lat="40.0077403" lon="15.7299182"><ele>420.50000000000006</ele><time>2026-05-01T12:49:10.979Z</time></trkpt><trkpt lat="40.0076698" lon="15.7298772"><ele>421.0</ele><time>2026-05-01T12:49:11.979Z</time></trkpt><trkpt lat="40.007607" lon="15.7298277"><ele>421.00000000000006</ele><time>2026-05-01T12:49:12.98Z</time></trkpt><trkpt lat="40.0075552" lon="15.7297767"><ele>421.0</ele><time>2026-05-01T12:49:13.979Z</time></trkpt><trkpt lat="40.0074855" lon="15.7296887"><ele>421.0</ele><time>2026-05-01T12:49:15.98Z</time></trkpt><trkpt lat="40.0074364" lon="15.7296035"><ele>421.0</ele><time>2026-05-01T12:49:17.979Z</time></trkpt><trkpt lat="40.0073885" lon="15.7295284"><ele>421.00000000000006</ele><time>2026-05-01T12:49:19.98Z</time></trkpt><trkpt lat="40.0073413" lon="15.7294201"><ele>421.0</ele><time>2026-05-01T12:49:22.98Z</time></trkpt><trkpt lat="40.0073109" lon="15.7293351"><ele>419.8</ele><time>2026-05-01T12:49:24.979Z</time></trkpt><trkpt lat="40.0072829" lon="15.7292582"><ele>418.6</ele><time>2026-05-01T12:49:26.979Z</time></trkpt><trkpt lat="40.0072464" lon="15.7291557"><ele>417.4</ele><time>2026-05-01T12:49:29.979Z</time></trkpt><trkpt lat="40.0072101" lon="15.7290435"><ele>416.2</ele><time>2026-05-01T12:49:32.98Z</time></trkpt><trkpt lat="40.0071349" lon="15.7289146"><ele>415.0</ele><time>2026-05-01T12:49:34.98Z</time></trkpt><trkpt lat="40.0070796" lon="15.7288142"><ele>415.00000000000006</ele><time>2026-05-01T12:49:35.979Z</time></trkpt><trkpt lat="40.0070396" lon="15.7286994"><ele>415.0</ele><time>2026-05-01T12:49:36.98Z</time></trkpt><trkpt lat="40.007026" lon="15.7285812"><ele>415.0</ele><time>2026-05-01T12:49:37.979Z</time></trkpt><trkpt lat="40.0070472" lon="15.7284752"><ele>415.0</ele><time>2026-05-01T12:49:38.979Z</time></trkpt><trkpt lat="40.0070929" lon="15.728391"><ele>415.00000000000006</ele><time>2026-05-01T12:49:39.979Z</time></trkpt><trkpt lat="40.0071544" lon="15.7283253"><ele>415.0</ele><time>2026-05-01T12:49:40.98Z</time></trkpt><trkpt lat="40.0072352" lon="15.7282789"><ele>412.6</ele><time>2026-05-01T12:49:41.979Z</time></trkpt><trkpt lat="40.0073305" lon="15.7282384"><ele>410.2</ele><time>2026-05-01T12:49:42.979Z</time></trkpt><trkpt lat="40.0074337" lon="15.7281955"><ele>407.79999999999995</ele><time>2026-05-01T12:49:43.98Z</time></trkpt><trkpt lat="40.0075418" lon="15.728151"><ele>405.4</ele><time>2026-05-01T12:49:44.979Z</time></trkpt><trkpt lat="40.0076464" lon="15.7281058"><ele>403.0</ele><time>2026-05-01T12:49:45.979Z</time></trkpt><trkpt lat="40.0077424" lon="15.7280716"><ele>401.4</ele><time>2026-05-01T12:49:46.979Z</time></trkpt><trkpt lat="40.0078314" lon="15.7280437"><ele>399.79999999999995</ele><time>2026-05-01T12:49:47.979Z</time></trkpt><trkpt lat="40.0079178" lon="15.7280139"><ele>398.2</ele><time>2026-05-01T12:49:48.979Z</time></trkpt><trkpt lat="40.0080078" lon="15.7279756"><ele>396.6</ele><time>2026-05-01T12:49:49.979Z</time></trkpt><trkpt lat="40.0081029" lon="15.7279306"><ele>395.0</ele><time>2026-05-01T12:49:50.98Z</time></trkpt><trkpt lat="40.0082026" lon="15.7278772"><ele>395.0</ele><time>2026-05-01T12:49:51.979Z</time></trkpt><trkpt lat="40.0082995" lon="15.7278306"><ele>395.0</ele><time>2026-05-01T12:49:52.979Z</time></trkpt><trkpt lat="40.0083872" lon="15.7277705"><ele>395.0</ele><time>2026-05-01T12:49:53.979Z</time></trkpt><trkpt lat="40.0084731" lon="15.7276852"><ele>395.0</ele><time>2026-05-01T12:49:54.979Z</time></trkpt><trkpt lat="40.0085517" lon="15.7275966"><ele>395.0</ele><time>2026-05-01T12:49:55.98Z</time></trkpt><trkpt lat="40.0086277" lon="15.7274954"><ele>391.2</ele><time>2026-05-01T12:49:56.979Z</time></trkpt><trkpt lat="40.0086994" lon="15.727401"><ele>387.4</ele><time>2026-05-01T12:49:57.979Z</time></trkpt><trkpt lat="40.0087764" lon="15.7273257"><ele>383.6</ele><time>2026-05-01T12:49:58.979Z</time></trkpt><trkpt lat="40.0088564" lon="15.7272339"><ele>379.8</ele><time>2026-05-01T12:49:59.98Z</time></trkpt><trkpt lat="40.008936" lon="15.7271501"><ele>376.0</ele><time>2026-05-01T12:50:00.979Z</time></trkpt><trkpt lat="40.0090182" lon="15.7270928"><ele>376.0</ele><time>2026-05-01T12:50:01.979Z</time></trkpt><trkpt lat="40.0091049" lon="15.7270439"><ele>376.0</ele><time>2026-05-01T12:50:02.979Z</time></trkpt><trkpt lat="40.0091919" lon="15.7270091"><ele>376.0</ele><time>2026-05-01T12:50:03.98Z</time></trkpt><trkpt lat="40.0092766" lon="15.727008"><ele>376.0</ele><time>2026-05-01T12:50:04.979Z</time></trkpt><trkpt lat="40.0093658" lon="15.7270404"><ele>376.0</ele><time>2026-05-01T12:50:05.98Z</time></trkpt><trkpt lat="40.0094528" lon="15.7271003"><ele>377.75</ele><time>2026-05-01T12:50:06.979Z</time></trkpt><trkpt lat="40.009522" lon="15.7271854"><ele>379.5</ele><time>2026-05-01T12:50:07.979Z</time></trkpt><trkpt lat="40.0095977" lon="15.7272918"><ele>381.25</ele><time>2026-05-01T12:50:08.979Z</time></trkpt><trkpt lat="40.0096824" lon="15.7274087"><ele>383.0</ele><time>2026-05-01T12:50:09.98Z</time></trkpt><trkpt lat="40.009777" lon="15.7275307"><ele>383.0</ele><time>2026-05-01T12:50:10.98Z</time></trkpt><trkpt lat="40.009865" lon="15.7276486"><ele>383.0</ele><time>2026-05-01T12:50:11.979Z</time></trkpt><trkpt lat="40.009944" lon="15.7277762"><ele>383.0</ele><time>2026-05-01T12:50:12.979Z</time></trkpt><trkpt lat="40.0100188" lon="15.7279136"><ele>383.0</ele><time>2026-05-01T12:50:13.98Z</time></trkpt><trkpt lat="40.0100907" lon="15.7280527"><ele>383.5</ele><time>2026-05-01T12:50:14.979Z</time></trkpt><trkpt lat="40.0101638" lon="15.7282018"><ele>384.0</ele><time>2026-05-01T12:50:15.979Z</time></trkpt><trkpt lat="40.0102341" lon="15.7283443"><ele>384.5</ele><time>2026-05-01T12:50:16.98Z</time></trkpt><trkpt lat="40.0102979" lon="15.7284735"><ele>385.0</ele><time>2026-05-01T12:50:17.979Z</time></trkpt><trkpt lat="40.010361" lon="15.7285888"><ele>387.4</ele><time>2026-05-01T12:50:18.979Z</time></trkpt><trkpt lat="40.0104372" lon="15.7286807"><ele>389.8</ele><time>2026-05-01T12:50:19.979Z</time></trkpt><trkpt lat="40.0105245" lon="15.7287368"><ele>392.20000000000005</ele><time>2026-05-01T12:50:20.979Z</time></trkpt><trkpt lat="40.0106219" lon="15.7287522"><ele>394.6</ele><time>2026-05-01T12:50:21.98Z</time></trkpt><trkpt lat="40.0107196" lon="15.7287471"><ele>397.0</ele><time>2026-05-01T12:50:22.98Z</time></trkpt><trkpt lat="40.0108212" lon="15.7287144"><ele>397.6</ele><time>2026-05-01T12:50:23.979Z</time></trkpt><trkpt lat="40.0109191" lon="15.7286637"><ele>398.20000000000005</ele><time>2026-05-01T12:50:24.98Z</time></trkpt><trkpt lat="40.0110092" lon="15.728589"><ele>398.8</ele><time>2026-05-01T12:50:25.98Z</time></trkpt><trkpt lat="40.0110818" lon="15.7284985"><ele>399.4</ele><time>2026-05-01T12:50:26.979Z</time></trkpt><trkpt lat="40.0111472" lon="15.7283821"><ele>400.0</ele><time>2026-05-01T12:50:27.979Z</time></trkpt><trkpt lat="40.0111827" lon="15.7282514"><ele>393.25</ele><time>2026-05-01T12:50:28.98Z</time></trkpt><trkpt lat="40.0112091" lon="15.7281131"><ele>386.5</ele><time>2026-05-01T12:50:29.979Z</time></trkpt><trkpt lat="40.0112252" lon="15.7279648"><ele>379.75</ele><time>2026-05-01T12:50:30.979Z</time></trkpt><trkpt lat="40.0112487" lon="15.7278154"><ele>373.0</ele><time>2026-05-01T12:50:31.98Z</time></trkpt><trkpt lat="40.0112765" lon="15.7276623"><ele>370.25</ele><time>2026-05-01T12:50:32.98Z</time></trkpt><trkpt lat="40.0113072" lon="15.7274999"><ele>367.5</ele><time>2026-05-01T12:50:33.979Z</time></trkpt><trkpt lat="40.0113335" lon="15.7273434"><ele>364.75</ele><time>2026-05-01T12:50:34.98Z</time></trkpt><trkpt lat="40.0113585" lon="15.7271835"><ele>362.0</ele><time>2026-05-01T12:50:35.979Z</time></trkpt><trkpt lat="40.0113839" lon="15.7270186"><ele>361.75</ele><time>2026-05-01T12:50:36.98Z</time></trkpt><trkpt lat="40.0114087" lon="15.7268546"><ele>361.5</ele><time>2026-05-01T12:50:37.979Z</time></trkpt><trkpt lat="40.0114341" lon="15.7266897"><ele>361.25</ele><time>2026-05-01T12:50:38.98Z</time></trkpt><trkpt lat="40.0114556" lon="15.7265248"><ele>361.0</ele><time>2026-05-01T12:50:39.98Z</time></trkpt><trkpt lat="40.0114784" lon="15.7263722"><ele>361.0</ele><time>2026-05-01T12:50:40.979Z</time></trkpt><trkpt lat="40.0115041" lon="15.7262257"><ele>361.0</ele><time>2026-05-01T12:50:41.979Z</time></trkpt><trkpt lat="40.011525" lon="15.7260867"><ele>361.0</ele><time>2026-05-01T12:50:42.979Z</time></trkpt><trkpt lat="40.0115416" lon="15.7259592"><ele>361.0</ele><time>2026-05-01T12:50:43.979Z</time></trkpt><trkpt lat="40.011537" lon="15.7258424"><ele>361.0</ele><time>2026-05-01T12:50:44.98Z</time></trkpt><trkpt lat="40.0115114" lon="15.7257385"><ele>360.0</ele><time>2026-05-01T12:50:45.979Z</time></trkpt><trkpt lat="40.0114649" lon="15.7256356"><ele>359.0</ele><time>2026-05-01T12:50:46.979Z</time></trkpt><trkpt lat="40.011392" lon="15.7255504"><ele>358.0</ele><time>2026-05-01T12:50:47.979Z</time></trkpt><trkpt lat="40.0112887" lon="15.7254958"><ele>357.0</ele><time>2026-05-01T12:50:48.98Z</time></trkpt><trkpt lat="40.0111744" lon="15.7254854"><ele>356.0</ele><time>2026-05-01T12:50:49.979Z</time></trkpt><trkpt lat="40.0110383" lon="15.7254941"><ele>356.0</ele><time>2026-05-01T12:50:50.98Z</time></trkpt><trkpt lat="40.0108924" lon="15.7255032"><ele>356.0</ele><time>2026-05-01T12:50:51.979Z</time></trkpt><trkpt lat="40.0107436" lon="15.7255047"><ele>356.0</ele><time>2026-05-01T12:50:52.979Z</time></trkpt><trkpt lat="40.0105934" lon="15.7254955"><ele>356.0</ele><time>2026-05-01T12:50:53.979Z</time></trkpt><trkpt lat="40.0104552" lon="15.7254876"><ele>355.25</ele><time>2026-05-01T12:50:54.979Z</time></trkpt><trkpt lat="40.0103234" lon="15.7254864"><ele>354.5</ele><time>2026-05-01T12:50:55.98Z</time></trkpt><trkpt lat="40.0101994" lon="15.7255011"><ele>353.75</ele><time>2026-05-01T12:50:56.98Z</time></trkpt><trkpt lat="40.0100742" lon="15.7255461"><ele>353.0</ele><time>2026-05-01T12:50:57.98Z</time></trkpt><trkpt lat="40.0099577" lon="15.7256213"><ele>350.25</ele><time>2026-05-01T12:50:58.979Z</time></trkpt><trkpt lat="40.0098534" lon="15.7256901"><ele>347.5</ele><time>2026-05-01T12:50:59.98Z</time></trkpt><trkpt lat="40.0097549" lon="15.7257631"><ele>344.75</ele><time>2026-05-01T12:51:00.98Z</time></trkpt><trkpt lat="40.009652" lon="15.7258254"><ele>342.0</ele><time>2026-05-01T12:51:01.98Z</time></trkpt><trkpt lat="40.0095378" lon="15.7258935"><ele>342.0</ele><time>2026-05-01T12:51:02.979Z</time></trkpt><trkpt lat="40.0094079" lon="15.7259602"><ele>342.0</ele><time>2026-05-01T12:51:03.979Z</time></trkpt><trkpt lat="40.0092742" lon="15.7260268"><ele>342.0</ele><time>2026-05-01T12:51:04.979Z</time></trkpt><trkpt lat="40.0091401" lon="15.7261045"><ele>342.0</ele><time>2026-05-01T12:51:05.979Z</time></trkpt><trkpt lat="40.009012" lon="15.7261949"><ele>344.0</ele><time>2026-05-01T12:51:06.979Z</time></trkpt><trkpt lat="40.0089028" lon="15.7262919"><ele>346.0</ele><time>2026-05-01T12:51:07.979Z</time></trkpt><trkpt lat="40.0088064" lon="15.7263656"><ele>348.0</ele><time>2026-05-01T12:51:08.979Z</time></trkpt><trkpt lat="40.0087243" lon="15.7264415"><ele>350.0</ele><time>2026-05-01T12:51:09.98Z</time></trkpt><trkpt lat="40.0086267" lon="15.7264842"><ele>352.0</ele><time>2026-05-01T12:51:10.98Z</time></trkpt><trkpt lat="40.0085138" lon="15.7264959"><ele>352.0</ele><time>2026-05-01T12:51:11.979Z</time></trkpt><trkpt lat="40.0083969" lon="15.726492"><ele>352.0</ele><time>2026-05-01T12:51:12.979Z</time></trkpt><trkpt lat="40.0082787" lon="15.7264918"><ele>352.0</ele><time>2026-05-01T12:51:13.979Z</time></trkpt><trkpt lat="40.0081565" lon="15.726507"><ele>352.0</ele><time>2026-05-01T12:51:14.979Z</time></trkpt><trkpt lat="40.0080369" lon="15.7265355"><ele>349.0</ele><time>2026-05-01T12:51:15.98Z</time></trkpt><trkpt lat="40.0079201" lon="15.7265747"><ele>346.0</ele><time>2026-05-01T12:51:16.98Z</time></trkpt><trkpt lat="40.0078093" lon="15.72663"><ele>343.0</ele><time>2026-05-01T12:51:17.979Z</time></trkpt><trkpt lat="40.0076994" lon="15.7266965"><ele>340.0</ele><time>2026-05-01T12:51:18.979Z</time></trkpt><trkpt lat="40.00759" lon="15.7267666"><ele>339.2</ele><time>2026-05-01T12:51:19.98Z</time></trkpt><trkpt lat="40.0074853" lon="15.726843"><ele>338.4</ele><time>2026-05-01T12:51:20.98Z</time></trkpt><trkpt lat="40.007388" lon="15.7269111"><ele>337.6</ele><time>2026-05-01T12:51:21.98Z</time></trkpt><trkpt lat="40.0072857" lon="15.7269532"><ele>336.8</ele><time>2026-05-01T12:51:22.98Z</time></trkpt><trkpt lat="40.0071788" lon="15.7269678"><ele>336.0</ele><time>2026-05-01T12:51:23.98Z</time></trkpt><trkpt lat="40.007065" lon="15.7269605"><ele>336.0</ele><time>2026-05-01T12:51:24.98Z</time></trkpt><trkpt lat="40.006935" lon="15.7269377"><ele>336.0</ele><time>2026-05-01T12:51:25.98Z</time></trkpt><trkpt lat="40.0068071" lon="15.7269083"><ele>336.0</ele><time>2026-05-01T12:51:26.981Z</time></trkpt><trkpt lat="40.006686" lon="15.7268872"><ele>336.0</ele><time>2026-05-01T12:51:27.98Z</time></trkpt><trkpt lat="40.0065768" lon="15.7268495"><ele>338.5</ele><time>2026-05-01T12:51:28.98Z</time></trkpt><trkpt lat="40.0064728" lon="15.7267934"><ele>341.0</ele><time>2026-05-01T12:51:29.981Z</time></trkpt><trkpt lat="40.0063726" lon="15.7267136"><ele>343.5</ele><time>2026-05-01T12:51:30.98Z</time></trkpt><trkpt lat="40.0062704" lon="15.7266314"><ele>346.0</ele><time>2026-05-01T12:51:31.98Z</time></trkpt><trkpt lat="40.0061684" lon="15.7265587"><ele>346.0</ele><time>2026-05-01T12:51:32.981Z</time></trkpt><trkpt lat="40.0060624" lon="15.7264938"><ele>346.0</ele><time>2026-05-01T12:51:33.98Z</time></trkpt><trkpt lat="40.005939" lon="15.7264313"><ele>346.0</ele><time>2026-05-01T12:51:34.98Z</time></trkpt><trkpt lat="40.0058089" lon="15.7263703"><ele>346.0</ele><time>2026-05-01T12:51:35.98Z</time></trkpt><trkpt lat="40.0056856" lon="15.726326"><ele>347.0</ele><time>2026-05-01T12:51:36.981Z</time></trkpt><trkpt lat="40.0055636" lon="15.7262993"><ele>348.0</ele><time>2026-05-01T12:51:37.98Z</time></trkpt><trkpt lat="40.0054508" lon="15.7263003"><ele>349.0</ele><time>2026-05-01T12:51:38.981Z</time></trkpt><trkpt lat="40.0053255" lon="15.7263082"><ele>350.0</ele><time>2026-05-01T12:51:39.98Z</time></trkpt><trkpt lat="40.0052001" lon="15.7263194"><ele>350.0</ele><time>2026-05-01T12:51:40.981Z</time></trkpt><trkpt lat="40.0050835" lon="15.7263329"><ele>350.0</ele><time>2026-05-01T12:51:41.981Z</time></trkpt><trkpt lat="40.0049587" lon="15.7263463"><ele>350.0</ele><time>2026-05-01T12:51:42.981Z</time></trkpt><trkpt lat="40.0048411" lon="15.7263741"><ele>350.0</ele><time>2026-05-01T12:51:43.98Z</time></trkpt><trkpt lat="40.004706" lon="15.7263872"><ele>347.75</ele><time>2026-05-01T12:51:44.981Z</time></trkpt><trkpt lat="40.0045682" lon="15.7264332"><ele>345.5</ele><time>2026-05-01T12:51:45.98Z</time></trkpt><trkpt lat="40.0044278" lon="15.7265047"><ele>343.25</ele><time>2026-05-01T12:51:46.981Z</time></trkpt><trkpt lat="40.004291" lon="15.7265759"><ele>341.0</ele><time>2026-05-01T12:51:47.981Z</time></trkpt><trkpt lat="40.0041597" lon="15.726646"><ele>337.5</ele><time>2026-05-01T12:51:48.98Z</time></trkpt><trkpt lat="40.0040274" lon="15.7267034"><ele>334.0</ele><time>2026-05-01T12:51:49.98Z</time></trkpt><trkpt lat="40.003915" lon="15.7267574"><ele>330.5</ele><time>2026-05-01T12:51:50.98Z</time></trkpt><trkpt lat="40.0038114" lon="15.7268088"><ele>327.0</ele><time>2026-05-01T12:51:51.98Z</time></trkpt><trkpt lat="40.0036996" lon="15.7268283"><ele>327.0</ele><time>2026-05-01T12:51:52.98Z</time></trkpt><trkpt lat="40.0035902" lon="15.7268457"><ele>327.0</ele><time>2026-05-01T12:51:53.98Z</time></trkpt><trkpt lat="40.0035056" lon="15.7268788"><ele>327.0</ele><time>2026-05-01T12:51:54.98Z</time></trkpt><trkpt lat="40.003417" lon="15.7269179"><ele>327.0</ele><time>2026-05-01T12:51:55.98Z</time></trkpt><trkpt lat="40.0033192" lon="15.726962"><ele>327.0</ele><time>2026-05-01T12:51:56.98Z</time></trkpt><trkpt lat="40.0032006" lon="15.7270105"><ele>337.0</ele><time>2026-05-01T12:51:57.981Z</time></trkpt><trkpt lat="40.00306" lon="15.7270509"><ele>347.0</ele><time>2026-05-01T12:51:58.981Z</time></trkpt><trkpt lat="40.0028728" lon="15.7270745"><ele>357.0</ele><time>2026-05-01T12:51:59.98Z</time></trkpt><trkpt lat="40.0026413" lon="15.7270597"><ele>354.5</ele><time>2026-05-01T12:52:00.981Z</time></trkpt><trkpt lat="40.0023878" lon="15.7270226"><ele>352.0</ele><time>2026-05-01T12:52:01.98Z</time></trkpt><trkpt lat="40.002144" lon="15.7269743"><ele>352.0</ele><time>2026-05-01T12:52:02.981Z</time></trkpt><trkpt lat="40.0019351" lon="15.7269331"><ele>352.0</ele><time>2026-05-01T12:52:03.98Z</time></trkpt><trkpt lat="40.0017446" lon="15.7268989"><ele>352.0</ele><time>2026-05-01T12:52:04.981Z</time></trkpt><trkpt lat="40.0015876" lon="15.7268614"><ele>351.0</ele><time>2026-05-01T12:52:05.981Z</time></trkpt><trkpt lat="40.001459" lon="15.7268169"><ele>350.0</ele><time>2026-05-01T12:52:06.98Z</time></trkpt><trkpt lat="40.001359" lon="15.7267378"><ele>349.0</ele><time>2026-05-01T12:52:07.981Z</time></trkpt><trkpt lat="40.0012663" lon="15.7265847"><ele>348.0</ele><time>2026-05-01T12:52:08.981Z</time></trkpt><trkpt lat="40.0011712" lon="15.7263932"><ele>348.0</ele><time>2026-05-01T12:52:09.98Z</time></trkpt><trkpt lat="40.0010848" lon="15.7262074"><ele>348.0</ele><time>2026-05-01T12:52:10.98Z</time></trkpt><trkpt lat="40.0009978" lon="15.7260494"><ele>348.0</ele><time>2026-05-01T12:52:11.981Z</time></trkpt><trkpt lat="40.0009089" lon="15.7258886"><ele>344.0</ele><time>2026-05-01T12:52:12.981Z</time></trkpt><trkpt lat="40.0008255" lon="15.7257497"><ele>340.0</ele><time>2026-05-01T12:52:13.98Z</time></trkpt><trkpt lat="40.0007531" lon="15.7256245"><ele>336.0</ele><time>2026-05-01T12:52:14.98Z</time></trkpt><trkpt lat="40.0006873" lon="15.7255045"><ele>332.0</ele><time>2026-05-01T12:52:15.98Z</time></trkpt><trkpt lat="40.0006117" lon="15.725392"><ele>332.0</ele><time>2026-05-01T12:52:16.98Z</time></trkpt><trkpt lat="40.0005255" lon="15.7252885"><ele>332.0</ele><time>2026-05-01T12:52:17.981Z</time></trkpt><trkpt lat="40.0004234" lon="15.7252268"><ele>332.0</ele><time>2026-05-01T12:52:18.981Z</time></trkpt><trkpt lat="40.0003218" lon="15.7251985"><ele>332.0</ele><time>2026-05-01T12:52:19.98Z</time></trkpt><trkpt lat="40.000214" lon="15.725189"><ele>332.0</ele><time>2026-05-01T12:52:20.981Z</time></trkpt><trkpt lat="40.000107" lon="15.7252124"><ele>332.0</ele><time>2026-05-01T12:52:21.981Z</time></trkpt><trkpt lat="40.0000107" lon="15.7252665"><ele>332.0</ele><time>2026-05-01T12:52:22.98Z</time></trkpt><trkpt lat="39.999919" lon="15.725346"><ele>332.0</ele><time>2026-05-01T12:52:23.98Z</time></trkpt><trkpt lat="39.9998329" lon="15.7254657"><ele>332.0</ele><time>2026-05-01T12:52:24.98Z</time></trkpt><trkpt lat="39.9997608" lon="15.7256084"><ele>332.0</ele><time>2026-05-01T12:52:25.98Z</time></trkpt><trkpt lat="39.999716" lon="15.7257636"><ele>332.0</ele><time>2026-05-01T12:52:26.98Z</time></trkpt><trkpt lat="39.999696" lon="15.7259183"><ele>332.0</ele><time>2026-05-01T12:52:27.98Z</time></trkpt><trkpt lat="39.9996651" lon="15.7260687"><ele>332.0</ele><time>2026-05-01T12:52:28.981Z</time></trkpt><trkpt lat="39.9996049" lon="15.7262025"><ele>335.25</ele><time>2026-05-01T12:52:29.98Z</time></trkpt><trkpt lat="39.9995124" lon="15.7263167"><ele>338.5</ele><time>2026-05-01T12:52:30.981Z</time></trkpt><trkpt lat="39.9994064" lon="15.7264202"><ele>341.75</ele><time>2026-05-01T12:52:31.98Z</time></trkpt><trkpt lat="39.9993102" lon="15.7265269"><ele>345.0</ele><time>2026-05-01T12:52:32.98Z</time></trkpt><trkpt lat="39.9992136" lon="15.7266244"><ele>339.5</ele><time>2026-05-01T12:52:33.98Z</time></trkpt><trkpt lat="39.9991163" lon="15.7267013"><ele>334.0</ele><time>2026-05-01T12:52:34.98Z</time></trkpt><trkpt lat="39.9990016" lon="15.7267427"><ele>328.5</ele><time>2026-05-01T12:52:35.98Z</time></trkpt><trkpt lat="39.9988822" lon="15.7267567"><ele>323.0</ele><time>2026-05-01T12:52:36.98Z</time></trkpt><trkpt lat="39.9987634" lon="15.7267487"><ele>323.0</ele><time>2026-05-01T12:52:37.98Z</time></trkpt><trkpt lat="39.9986451" lon="15.7267401"><ele>323.0</ele><time>2026-05-01T12:52:38.981Z</time></trkpt><trkpt lat="39.9985238" lon="15.7267276"><ele>323.0</ele><time>2026-05-01T12:52:39.98Z</time></trkpt><trkpt lat="39.9984007" lon="15.7267137"><ele>323.0</ele><time>2026-05-01T12:52:40.981Z</time></trkpt><trkpt lat="39.9982833" lon="15.7266878"><ele>321.4</ele><time>2026-05-01T12:52:41.981Z</time></trkpt><trkpt lat="39.9981769" lon="15.7266438"><ele>319.79999999999995</ele><time>2026-05-01T12:52:42.98Z</time></trkpt><trkpt lat="39.9980769" lon="15.7265903"><ele>318.2</ele><time>2026-05-01T12:52:43.98Z</time></trkpt><trkpt lat="39.9979769" lon="15.7265286"><ele>316.6</ele><time>2026-05-01T12:52:44.981Z</time></trkpt><trkpt lat="39.9978815" lon="15.7264774"><ele>315.0</ele><time>2026-05-01T12:52:45.98Z</time></trkpt><trkpt lat="39.9977864" lon="15.726445"><ele>315.0</ele><time>2026-05-01T12:52:46.98Z</time></trkpt><trkpt lat="39.9977035" lon="15.7264312"><ele>315.0</ele><time>2026-05-01T12:52:47.98Z</time></trkpt><trkpt lat="39.9976265" lon="15.7264351"><ele>315.0</ele><time>2026-05-01T12:52:48.981Z</time></trkpt><trkpt lat="39.9975509" lon="15.7264623"><ele>315.0</ele><time>2026-05-01T12:52:49.98Z</time></trkpt><trkpt lat="39.9974713" lon="15.7264974"><ele>315.0</ele><time>2026-05-01T12:52:50.98Z</time></trkpt><trkpt lat="39.9973782" lon="15.7265466"><ele>315.0</ele><time>2026-05-01T12:52:51.98Z</time></trkpt><trkpt lat="39.9972738" lon="15.7265897"><ele>315.1666666666667</ele><time>2026-05-01T12:52:52.98Z</time></trkpt><trkpt lat="39.9971781" lon="15.7266379"><ele>315.3333333333333</ele><time>2026-05-01T12:52:53.981Z</time></trkpt><trkpt lat="39.9970869" lon="15.7266906"><ele>315.5</ele><time>2026-05-01T12:52:54.98Z</time></trkpt><trkpt lat="39.997006" lon="15.7267334"><ele>315.66666666666663</ele><time>2026-05-01T12:52:55.981Z</time></trkpt><trkpt lat="39.9969283" lon="15.7267544"><ele>315.8333333333333</ele><time>2026-05-01T12:52:56.981Z</time></trkpt><trkpt lat="39.9968531" lon="15.7267512"><ele>316.0</ele><time>2026-05-01T12:52:57.98Z</time></trkpt><trkpt lat="39.9967708" lon="15.72673"><ele>316.0</ele><time>2026-05-01T12:52:58.981Z</time></trkpt><trkpt lat="39.9966797" lon="15.7266899"><ele>316.0</ele><time>2026-05-01T12:52:59.98Z</time></trkpt><trkpt lat="39.9965902" lon="15.7266419"><ele>316.0</ele><time>2026-05-01T12:53:00.98Z</time></trkpt><trkpt lat="39.9965019" lon="15.7265863"><ele>316.0</ele><time>2026-05-01T12:53:01.981Z</time></trkpt><trkpt lat="39.9964199" lon="15.7265275"><ele>316.0</ele><time>2026-05-01T12:53:02.981Z</time></trkpt><trkpt lat="39.9963463" lon="15.7264636"><ele>315.6</ele><time>2026-05-01T12:53:03.981Z</time></trkpt><trkpt lat="39.996276" lon="15.7263817"><ele>315.20000000000005</ele><time>2026-05-01T12:53:04.98Z</time></trkpt><trkpt lat="39.996209" lon="15.7262925"><ele>314.79999999999995</ele><time>2026-05-01T12:53:05.98Z</time></trkpt><trkpt lat="39.9961398" lon="15.7261974"><ele>314.4</ele><time>2026-05-01T12:53:06.981Z</time></trkpt><trkpt lat="39.9960724" lon="15.7260972"><ele>314.0</ele><time>2026-05-01T12:53:07.98Z</time></trkpt><trkpt lat="39.9959987" lon="15.7259986"><ele>312.59999999999997</ele><time>2026-05-01T12:53:08.981Z</time></trkpt><trkpt lat="39.9959209" lon="15.7259123"><ele>311.2</ele><time>2026-05-01T12:53:09.981Z</time></trkpt><trkpt lat="39.9958379" lon="15.7258414"><ele>309.79999999999995</ele><time>2026-05-01T12:53:10.98Z</time></trkpt><trkpt lat="39.9957527" lon="15.7257758"><ele>308.4</ele><time>2026-05-01T12:53:11.98Z</time></trkpt><trkpt lat="39.9956654" lon="15.7257209"><ele>307.0</ele><time>2026-05-01T12:53:12.981Z</time></trkpt><trkpt lat="39.9955759" lon="15.7256802"><ele>307.0</ele><time>2026-05-01T12:53:13.98Z</time></trkpt><trkpt lat="39.9954854" lon="15.7256478"><ele>307.0</ele><time>2026-05-01T12:53:14.98Z</time></trkpt><trkpt lat="39.9953956" lon="15.7256214"><ele>307.0</ele><time>2026-05-01T12:53:15.98Z</time></trkpt><trkpt lat="39.9953119" lon="15.725604"><ele>307.0</ele><time>2026-05-01T12:53:16.98Z</time></trkpt><trkpt lat="39.9952361" lon="15.7255963"><ele>307.0</ele><time>2026-05-01T12:53:17.98Z</time></trkpt><trkpt lat="39.9951615" lon="15.7255874"><ele>307.0</ele><time>2026-05-01T12:53:18.98Z</time></trkpt><trkpt lat="39.9950956" lon="15.7255768"><ele>308.4</ele><time>2026-05-01T12:53:19.98Z</time></trkpt><trkpt lat="39.9949903" lon="15.7255489"><ele>309.79999999999995</ele><time>2026-05-01T12:53:21.981Z</time></trkpt><trkpt lat="39.9948913" lon="15.7254972"><ele>311.2</ele><time>2026-05-01T12:53:23.981Z</time></trkpt><trkpt lat="39.994854" lon="15.7253909"><ele>312.59999999999997</ele><time>2026-05-01T12:53:25.98Z</time></trkpt><trkpt lat="39.9949116" lon="15.7253033"><ele>314.0</ele><time>2026-05-01T12:53:27.98Z</time></trkpt><trkpt lat="39.9950235" lon="15.7252249"><ele>310.83333333333337</ele><time>2026-05-01T12:53:29.98Z</time></trkpt><trkpt lat="39.9950952" lon="15.7251804"><ele>307.6666666666667</ele><time>2026-05-01T12:53:30.98Z</time></trkpt><trkpt lat="39.9951753" lon="15.7251373"><ele>304.5</ele><time>2026-05-01T12:53:31.98Z</time></trkpt><trkpt lat="39.9952595" lon="15.7251055"><ele>301.3333333333333</ele><time>2026-05-01T12:53:32.981Z</time></trkpt><trkpt lat="39.9953421" lon="15.7250918"><ele>298.16666666666663</ele><time>2026-05-01T12:53:33.98Z</time></trkpt><trkpt lat="39.9954194" lon="15.7250905"><ele>295.0</ele><time>2026-05-01T12:53:34.981Z</time></trkpt><trkpt lat="39.9954954" lon="15.7250915"><ele>295.00000000000006</ele><time>2026-05-01T12:53:35.981Z</time></trkpt><trkpt lat="39.9955658" lon="15.7251051"><ele>295.0</ele><time>2026-05-01T12:53:36.98Z</time></trkpt><trkpt lat="39.9956307" lon="15.7251316"><ele>295.0</ele><time>2026-05-01T12:53:37.98Z</time></trkpt><trkpt lat="39.9956937" lon="15.725166"><ele>295.0</ele><time>2026-05-01T12:53:38.98Z</time></trkpt><trkpt lat="39.9957532" lon="15.7252231"><ele>295.0</ele><time>2026-05-01T12:53:39.98Z</time></trkpt><trkpt lat="39.9958175" lon="15.7252787"><ele>295.00000000000006</ele><time>2026-05-01T12:53:40.98Z</time></trkpt><trkpt lat="39.9958852" lon="15.7253326"><ele>295.0</ele><time>2026-05-01T12:53:41.98Z</time></trkpt><trkpt lat="39.9959495" lon="15.7253613"><ele>295.4</ele><time>2026-05-01T12:53:42.98Z</time></trkpt><trkpt lat="39.9960689" lon="15.7253433"><ele>295.8</ele><time>2026-05-01T12:53:44.98Z</time></trkpt><trkpt lat="39.996138" lon="15.7252943"><ele>296.2</ele><time>2026-05-01T12:53:45.98Z</time></trkpt><trkpt lat="39.9962166" lon="15.7252228"><ele>296.6</ele><time>2026-05-01T12:53:46.981Z</time></trkpt><trkpt lat="39.9963016" lon="15.7251426"><ele>297.0</ele><time>2026-05-01T12:53:47.981Z</time></trkpt><trkpt lat="39.99637" lon="15.7250619"><ele>294.8</ele><time>2026-05-01T12:53:48.98Z</time></trkpt><trkpt lat="39.9964252" lon="15.7249709"><ele>292.6</ele><time>2026-05-01T12:53:49.981Z</time></trkpt><trkpt lat="39.9964485" lon="15.7248663"><ele>290.40000000000003</ele><time>2026-05-01T12:53:50.98Z</time></trkpt><trkpt lat="39.9964475" lon="15.7247481"><ele>288.2</ele><time>2026-05-01T12:53:51.98Z</time></trkpt><trkpt lat="39.9964316" lon="15.7246248"><ele>286.0</ele><time>2026-05-01T12:53:52.98Z</time></trkpt><trkpt lat="39.9964005" lon="15.7244935"><ele>283.0</ele><time>2026-05-01T12:53:53.981Z</time></trkpt><trkpt lat="39.9963557" lon="15.7243524"><ele>280.0</ele><time>2026-05-01T12:53:54.981Z</time></trkpt><trkpt lat="39.9963057" lon="15.7242109"><ele>277.0</ele><time>2026-05-01T12:53:55.98Z</time></trkpt><trkpt lat="39.996253" lon="15.7240683"><ele>274.0</ele><time>2026-05-01T12:53:56.981Z</time></trkpt><trkpt lat="39.9961971" lon="15.7239338"><ele>274.0</ele><time>2026-05-01T12:53:57.98Z</time></trkpt><trkpt lat="39.9961392" lon="15.7238155"><ele>274.0</ele><time>2026-05-01T12:53:58.98Z</time></trkpt><trkpt lat="39.9960877" lon="15.7237059"><ele>274.0</ele><time>2026-05-01T12:53:59.981Z</time></trkpt><trkpt lat="39.9960282" lon="15.7236163"><ele>274.0</ele><time>2026-05-01T12:54:00.98Z</time></trkpt><trkpt lat="39.9959604" lon="15.7235376"><ele>274.0</ele><time>2026-05-01T12:54:01.98Z</time></trkpt><trkpt lat="39.9958931" lon="15.7234572"><ele>273.3333333333333</ele><time>2026-05-01T12:54:02.98Z</time></trkpt><trkpt lat="39.9958252" lon="15.7233835"><ele>272.66666666666663</ele><time>2026-05-01T12:54:03.98Z</time></trkpt><trkpt lat="39.9957563" lon="15.7233105"><ele>272.0</ele><time>2026-05-01T12:54:04.981Z</time></trkpt><trkpt lat="39.9956911" lon="15.7232382"><ele>271.3333333333333</ele><time>2026-05-01T12:54:05.981Z</time></trkpt><trkpt lat="39.9956184" lon="15.7231662"><ele>270.6666666666667</ele><time>2026-05-01T12:54:06.981Z</time></trkpt><trkpt lat="39.9955464" lon="15.7230926"><ele>270.0</ele><time>2026-05-01T12:54:07.98Z</time></trkpt><trkpt lat="39.9954836" lon="15.7230135"><ele>270.0</ele><time>2026-05-01T12:54:08.981Z</time></trkpt><trkpt lat="39.9954528" lon="15.7229269"><ele>270.0</ele><time>2026-05-01T12:54:09.98Z</time></trkpt><trkpt lat="39.9954347" lon="15.7228268"><ele>270.0</ele><time>2026-05-01T12:54:10.981Z</time></trkpt><trkpt lat="39.9954446" lon="15.7227146"><ele>270.0</ele><time>2026-05-01T12:54:11.981Z</time></trkpt><trkpt lat="39.9954725" lon="15.7226134"><ele>270.0</ele><time>2026-05-01T12:54:12.98Z</time></trkpt><trkpt lat="39.995519" lon="15.7225094"><ele>270.0</ele><time>2026-05-01T12:54:13.98Z</time></trkpt><trkpt lat="39.995568" lon="15.7224145"><ele>269.0</ele><time>2026-05-01T12:54:14.98Z</time></trkpt><trkpt lat="39.9956171" lon="15.7223235"><ele>268.0</ele><time>2026-05-01T12:54:15.98Z</time></trkpt><trkpt lat="39.9956625" lon="15.722232"><ele>267.0</ele><time>2026-05-01T12:54:16.98Z</time></trkpt><trkpt lat="39.9957063" lon="15.7221332"><ele>266.0</ele><time>2026-05-01T12:54:17.98Z</time></trkpt><trkpt lat="39.9957425" lon="15.7220474"><ele>265.0</ele><time>2026-05-01T12:54:18.98Z</time></trkpt><trkpt lat="39.9957849" lon="15.7219722"><ele>264.0</ele><time>2026-05-01T12:54:19.98Z</time></trkpt><trkpt lat="39.9958355" lon="15.7219007"><ele>262.5</ele><time>2026-05-01T12:54:20.981Z</time></trkpt><trkpt lat="39.9958921" lon="15.7218395"><ele>261.0</ele><time>2026-05-01T12:54:21.981Z</time></trkpt><trkpt lat="39.9959471" lon="15.7217816"><ele>259.5</ele><time>2026-05-01T12:54:22.98Z</time></trkpt><trkpt lat="39.9960082" lon="15.7217228"><ele>258.0</ele><time>2026-05-01T12:54:23.981Z</time></trkpt><trkpt lat="39.9960704" lon="15.721663"><ele>256.5</ele><time>2026-05-01T12:54:24.98Z</time></trkpt><trkpt lat="39.9961395" lon="15.7216046"><ele>255.0</ele><time>2026-05-01T12:54:25.981Z</time></trkpt><trkpt lat="39.9962099" lon="15.7215405"><ele>255.0</ele><time>2026-05-01T12:54:26.981Z</time></trkpt><trkpt lat="39.9962602" lon="15.7214661"><ele>255.0</ele><time>2026-05-01T12:54:27.981Z</time></trkpt><trkpt lat="39.9963133" lon="15.7213935"><ele>255.0</ele><time>2026-05-01T12:54:28.98Z</time></trkpt><trkpt lat="39.9963616" lon="15.7213074"><ele>255.0</ele><time>2026-05-01T12:54:29.98Z</time></trkpt><trkpt lat="39.9963964" lon="15.7211905"><ele>255.0</ele><time>2026-05-01T12:54:30.98Z</time></trkpt><trkpt lat="39.9964127" lon="15.7210732"><ele>255.0</ele><time>2026-05-01T12:54:31.981Z</time></trkpt><trkpt lat="39.9964201" lon="15.7209543"><ele>253.2</ele><time>2026-05-01T12:54:32.98Z</time></trkpt><trkpt lat="39.9964245" lon="15.7208268"><ele>251.4</ele><time>2026-05-01T12:54:33.98Z</time></trkpt><trkpt lat="39.9964269" lon="15.7206929"><ele>249.60000000000002</ele><time>2026-05-01T12:54:34.981Z</time></trkpt><trkpt lat="39.9964183" lon="15.7205689"><ele>247.8</ele><time>2026-05-01T12:54:35.981Z</time></trkpt><trkpt lat="39.9963929" lon="15.7204538"><ele>246.0</ele><time>2026-05-01T12:54:36.981Z</time></trkpt><trkpt lat="39.9963593" lon="15.7203486"><ele>246.0</ele><time>2026-05-01T12:54:37.981Z</time></trkpt><trkpt lat="39.9963188" lon="15.720251"><ele>246.0</ele><time>2026-05-01T12:54:38.98Z</time></trkpt><trkpt lat="39.9962719" lon="15.7201565"><ele>246.0</ele><time>2026-05-01T12:54:39.981Z</time></trkpt><trkpt lat="39.9962263" lon="15.7200596"><ele>246.0</ele><time>2026-05-01T12:54:40.98Z</time></trkpt><trkpt lat="39.9961906" lon="15.7199755"><ele>246.0</ele><time>2026-05-01T12:54:41.98Z</time></trkpt><trkpt lat="39.9961506" lon="15.719904"><ele>246.0</ele><time>2026-05-01T12:54:42.981Z</time></trkpt><trkpt lat="39.9961032" lon="15.7197688"><ele>244.0</ele><time>2026-05-01T12:54:44.98Z</time></trkpt><trkpt lat="39.9961059" lon="15.7196303"><ele>242.0</ele><time>2026-05-01T12:54:46.98Z</time></trkpt><trkpt lat="39.9961585" lon="15.7195235"><ele>240.0</ele><time>2026-05-01T12:54:48.981Z</time></trkpt><trkpt lat="39.9962446" lon="15.7194671"><ele>238.0</ele><time>2026-05-01T12:54:50.98Z</time></trkpt><trkpt lat="39.9963084" lon="15.7194524"><ele>236.0</ele><time>2026-05-01T12:54:51.98Z</time></trkpt><trkpt lat="39.9963806" lon="15.7194407"><ele>234.0</ele><time>2026-05-01T12:54:52.98Z</time></trkpt><trkpt lat="39.9964585" lon="15.7194369"><ele>234.0</ele><time>2026-05-01T12:54:53.98Z</time></trkpt><trkpt lat="39.9965326" lon="15.7194423"><ele>234.00000000000003</ele><time>2026-05-01T12:54:54.981Z</time></trkpt><trkpt lat="39.9966004" lon="15.7194627"><ele>234.0</ele><time>2026-05-01T12:54:55.98Z</time></trkpt><trkpt lat="39.9966596" lon="15.7194992"><ele>234.0</ele><time>2026-05-01T12:54:56.981Z</time></trkpt><trkpt lat="39.9967203" lon="15.7195516"><ele>234.00000000000003</ele><time>2026-05-01T12:54:57.98Z</time></trkpt><trkpt lat="39.9967767" lon="15.7196186"><ele>234.0</ele><time>2026-05-01T12:54:58.981Z</time></trkpt><trkpt lat="39.9968302" lon="15.7197048"><ele>234.0</ele><time>2026-05-01T12:54:59.981Z</time></trkpt><trkpt lat="39.9968833" lon="15.7197943"><ele>232.2</ele><time>2026-05-01T12:55:00.98Z</time></trkpt><trkpt lat="39.9969439" lon="15.7198794"><ele>230.39999999999998</ele><time>2026-05-01T12:55:01.98Z</time></trkpt><trkpt lat="39.9970199" lon="15.7199426"><ele>228.6</ele><time>2026-05-01T12:55:02.98Z</time></trkpt><trkpt lat="39.9971131" lon="15.7199775"><ele>226.8</ele><time>2026-05-01T12:55:03.98Z</time></trkpt><trkpt lat="39.9972144" lon="15.7199843"><ele>225.0</ele><time>2026-05-01T12:55:04.98Z</time></trkpt><trkpt lat="39.9973154" lon="15.7199767"><ele>225.0</ele><time>2026-05-01T12:55:05.98Z</time></trkpt><trkpt lat="39.9974206" lon="15.7199567"><ele>225.0</ele><time>2026-05-01T12:55:06.98Z</time></trkpt><trkpt lat="39.9975258" lon="15.7199299"><ele>225.0</ele><time>2026-05-01T12:55:07.98Z</time></trkpt><trkpt lat="39.9976203" lon="15.7199131"><ele>225.0</ele><time>2026-05-01T12:55:08.98Z</time></trkpt><trkpt lat="39.9977175" lon="15.7198937"><ele>225.0</ele><time>2026-05-01T12:55:09.98Z</time></trkpt><trkpt lat="39.9978036" lon="15.7198804"><ele>225.0</ele><time>2026-05-01T12:55:10.981Z</time></trkpt><trkpt lat="39.9978822" lon="15.719863"><ele>225.0</ele><time>2026-05-01T12:55:11.98Z</time></trkpt><trkpt lat="39.9979472" lon="15.7198541"><ele>225.0</ele><time>2026-05-01T12:55:12.98Z</time></trkpt><trkpt lat="39.9980497" lon="15.7198337"><ele>225.0</ele><time>2026-05-01T12:55:14.981Z</time></trkpt><trkpt lat="39.9981337" lon="15.7198091"><ele>225.0</ele><time>2026-05-01T12:55:16.98Z</time></trkpt><trkpt lat="39.9982273" lon="15.7197588"><ele>225.0</ele><time>2026-05-01T12:55:18.98Z</time></trkpt><trkpt lat="39.9982884" lon="15.7197287"><ele>225.16666666666666</ele><time>2026-05-01T12:55:19.98Z</time></trkpt><trkpt lat="39.9983503" lon="15.7196936"><ele>225.33333333333331</ele><time>2026-05-01T12:55:20.981Z</time></trkpt><trkpt lat="39.9984147" lon="15.7196469"><ele>225.5</ele><time>2026-05-01T12:55:21.981Z</time></trkpt><trkpt lat="39.9984677" lon="15.7195891"><ele>225.66666666666666</ele><time>2026-05-01T12:55:22.98Z</time></trkpt><trkpt lat="39.9985124" lon="15.719504"><ele>225.83333333333331</ele><time>2026-05-01T12:55:23.98Z</time></trkpt><trkpt lat="39.998546" lon="15.7193893"><ele>226.0</ele><time>2026-05-01T12:55:24.98Z</time></trkpt><trkpt lat="39.9985656" lon="15.7192696"><ele>224.99999999999997</ele><time>2026-05-01T12:55:25.98Z</time></trkpt><trkpt lat="39.9985664" lon="15.7191551"><ele>224.0</ele><time>2026-05-01T12:55:26.98Z</time></trkpt><trkpt lat="39.9985625" lon="15.7190408"><ele>223.0</ele><time>2026-05-01T12:55:27.98Z</time></trkpt><trkpt lat="39.9985613" lon="15.7189249"><ele>222.0</ele><time>2026-05-01T12:55:28.98Z</time></trkpt><trkpt lat="39.9985681" lon="15.7188095"><ele>220.99999999999997</ele><time>2026-05-01T12:55:29.98Z</time></trkpt><trkpt lat="39.9985781" lon="15.7186929"><ele>220.0</ele><time>2026-05-01T12:55:30.981Z</time></trkpt><trkpt lat="39.9985886" lon="15.7185775"><ele>219.16666666666666</ele><time>2026-05-01T12:55:31.98Z</time></trkpt><trkpt lat="39.9986025" lon="15.718464"><ele>218.33333333333331</ele><time>2026-05-01T12:55:32.981Z</time></trkpt><trkpt lat="39.9986175" lon="15.7183589"><ele>217.5</ele><time>2026-05-01T12:55:33.98Z</time></trkpt><trkpt lat="39.9986375" lon="15.7182634"><ele>216.66666666666669</ele><time>2026-05-01T12:55:34.981Z</time></trkpt><trkpt lat="39.9986609" lon="15.7181713"><ele>215.83333333333334</ele><time>2026-05-01T12:55:35.98Z</time></trkpt><trkpt lat="39.998685" lon="15.718082"><ele>215.0</ele><time>2026-05-01T12:55:36.98Z</time></trkpt><trkpt lat="39.9987133" lon="15.717998"><ele>215.0</ele><time>2026-05-01T12:55:37.981Z</time></trkpt><trkpt lat="39.9987465" lon="15.7179278"><ele>215.0</ele><time>2026-05-01T12:55:38.981Z</time></trkpt><trkpt lat="39.9987837" lon="15.7178587"><ele>215.0</ele><time>2026-05-01T12:55:39.98Z</time></trkpt><trkpt lat="39.998827" lon="15.7177948"><ele>215.0</ele><time>2026-05-01T12:55:40.98Z</time></trkpt><trkpt lat="39.998877" lon="15.7177373"><ele>215.0</ele><time>2026-05-01T12:55:41.98Z</time></trkpt><trkpt lat="39.9989331" lon="15.7176792"><ele>215.0</ele><time>2026-05-01T12:55:42.981Z</time></trkpt><trkpt lat="39.9989948" lon="15.7176363"><ele>215.0</ele><time>2026-05-01T12:55:43.981Z</time></trkpt><trkpt lat="39.9990704" lon="15.7175971"><ele>213.50000000000003</ele><time>2026-05-01T12:55:44.981Z</time></trkpt><trkpt lat="39.9991489" lon="15.7175691"><ele>212.0</ele><time>2026-05-01T12:55:45.98Z</time></trkpt><trkpt lat="39.9992339" lon="15.7175523"><ele>210.5</ele><time>2026-05-01T12:55:46.98Z</time></trkpt><trkpt lat="39.999317" lon="15.7175426"><ele>209.0</ele><time>2026-05-01T12:55:47.981Z</time></trkpt><trkpt lat="39.9994034" lon="15.7175454"><ele>207.50000000000003</ele><time>2026-05-01T12:55:48.981Z</time></trkpt><trkpt lat="39.9994812" lon="15.7175676"><ele>206.0</ele><time>2026-05-01T12:55:49.98Z</time></trkpt><trkpt lat="39.9995531" lon="15.7175936"><ele>205.33333333333334</ele><time>2026-05-01T12:55:50.98Z</time></trkpt><trkpt lat="39.999619" lon="15.7176301"><ele>204.66666666666669</ele><time>2026-05-01T12:55:51.98Z</time></trkpt><trkpt lat="39.9996867" lon="15.7176562"><ele>204.0</ele><time>2026-05-01T12:55:52.98Z</time></trkpt><trkpt lat="39.9997548" lon="15.7176794"><ele>203.33333333333331</ele><time>2026-05-01T12:55:53.981Z</time></trkpt><trkpt lat="39.9998581" lon="15.717708"><ele>202.66666666666666</ele><time>2026-05-01T12:55:55.981Z</time></trkpt><trkpt lat="39.9999261" lon="15.7177009"><ele>202.0</ele><time>2026-05-01T12:55:57.98Z</time></trkpt><trkpt lat="39.9999889" lon="15.7176673"><ele>201.99999999999997</ele><time>2026-05-01T12:55:59.98Z</time></trkpt><trkpt lat="40.0000349" lon="15.7175909"><ele>202.0</ele><time>2026-05-01T12:56:01.981Z</time></trkpt><trkpt lat="40.0000317" lon="15.7175013"><ele>202.0</ele><time>2026-05-01T12:56:03.98Z</time></trkpt><trkpt lat="39.9999773" lon="15.7173819"><ele>202.0</ele><time>2026-05-01T12:56:05.98Z</time></trkpt><trkpt lat="39.9999165" lon="15.7173216"><ele>201.99999999999997</ele><time>2026-05-01T12:56:06.98Z</time></trkpt><trkpt lat="39.9998442" lon="15.7172684"><ele>202.0</ele><time>2026-05-01T12:56:07.981Z</time></trkpt><trkpt lat="39.9997642" lon="15.7172206"><ele>202.0</ele><time>2026-05-01T12:56:08.98Z</time></trkpt><trkpt lat="39.9996858" lon="15.7171723"><ele>202.0</ele><time>2026-05-01T12:56:09.98Z</time></trkpt><trkpt lat="39.9996057" lon="15.7171195"><ele>202.0</ele><time>2026-05-01T12:56:10.981Z</time></trkpt><trkpt lat="39.99953" lon="15.7170708"><ele>202.0</ele><time>2026-05-01T12:56:11.98Z</time></trkpt><trkpt lat="39.9994506" lon="15.717014"><ele>202.0</ele><time>2026-05-01T12:56:12.981Z</time></trkpt><trkpt lat="39.9993647" lon="15.716943"><ele>200.6</ele><time>2026-05-01T12:56:13.98Z</time></trkpt><trkpt lat="39.9992855" lon="15.7168542"><ele>199.2</ele><time>2026-05-01T12:56:14.981Z</time></trkpt><trkpt lat="39.9992039" lon="15.7167645"><ele>197.8</ele><time>2026-05-01T12:56:15.98Z</time></trkpt><trkpt lat="39.9991316" lon="15.7166798"><ele>196.4</ele><time>2026-05-01T12:56:16.981Z</time></trkpt><trkpt lat="39.9990599" lon="15.7166067"><ele>195.0</ele><time>2026-05-01T12:56:17.981Z</time></trkpt><trkpt lat="39.9989839" lon="15.7165473"><ele>195.0</ele><time>2026-05-01T12:56:18.98Z</time></trkpt><trkpt lat="39.9989156" lon="15.7164919"><ele>195.0</ele><time>2026-05-01T12:56:19.98Z</time></trkpt><trkpt lat="39.9988432" lon="15.7164595"><ele>195.0</ele><time>2026-05-01T12:56:20.98Z</time></trkpt><trkpt lat="39.9987713" lon="15.7164511"><ele>195.0</ele><time>2026-05-01T12:56:21.98Z</time></trkpt><trkpt lat="39.9986937" lon="15.7164631"><ele>195.0</ele><time>2026-05-01T12:56:22.98Z</time></trkpt><trkpt lat="39.9986184" lon="15.7164837"><ele>195.0</ele><time>2026-05-01T12:56:23.981Z</time></trkpt><trkpt lat="39.9985465" lon="15.7165138"><ele>195.0</ele><time>2026-05-01T12:56:24.981Z</time></trkpt><trkpt lat="39.998475" lon="15.7165351"><ele>195.0</ele><time>2026-05-01T12:56:25.98Z</time></trkpt><trkpt lat="39.9984121" lon="15.7165434"><ele>195.0</ele><time>2026-05-01T12:56:26.98Z</time></trkpt><trkpt lat="39.9983181" lon="15.7165406"><ele>195.0</ele><time>2026-05-01T12:56:28.98Z</time></trkpt><trkpt lat="39.9982351" lon="15.716523"><ele>195.0</ele><time>2026-05-01T12:56:30.981Z</time></trkpt><trkpt lat="39.9981486" lon="15.7165021"><ele>195.0</ele><time>2026-05-01T12:56:32.98Z</time></trkpt><trkpt lat="39.9980585" lon="15.7164864"><ele>194.5</ele><time>2026-05-01T12:56:34.981Z</time></trkpt><trkpt lat="39.997985" lon="15.7164735"><ele>194.0</ele><time>2026-05-01T12:56:36.981Z</time></trkpt><trkpt lat="39.9979126" lon="15.7164554"><ele>193.5</ele><time>2026-05-01T12:56:38.98Z</time></trkpt><trkpt lat="39.9978398" lon="15.7164448"><ele>193.0</ele><time>2026-05-01T12:56:40.98Z</time></trkpt><trkpt lat="39.9977581" lon="15.7164464"><ele>192.5</ele><time>2026-05-01T12:56:42.981Z</time></trkpt><trkpt lat="39.9976669" lon="15.7164655"><ele>192.0</ele><time>2026-05-01T12:56:44.98Z</time></trkpt><trkpt lat="39.9975736" lon="15.7164784"><ele>191.66666666666666</ele><time>2026-05-01T12:56:46.981Z</time></trkpt><trkpt lat="39.997484" lon="15.7164985"><ele>191.33333333333334</ele><time>2026-05-01T12:56:48.98Z</time></trkpt><trkpt lat="39.9973902" lon="15.7165165"><ele>191.0</ele><time>2026-05-01T12:56:50.98Z</time></trkpt><trkpt lat="39.9972866" lon="15.7165117"><ele>190.66666666666669</ele><time>2026-05-01T12:56:52.981Z</time></trkpt><trkpt lat="39.9972164" lon="15.7165058"><ele>190.33333333333334</ele><time>2026-05-01T12:56:54.98Z</time></trkpt><trkpt lat="39.9971361" lon="15.7165083"><ele>190.0</ele><time>2026-05-01T12:56:56.98Z</time></trkpt><trkpt lat="39.9970422" lon="15.7165218"><ele>190.0</ele><time>2026-05-01T12:56:58.981Z</time></trkpt><trkpt lat="39.9968968" lon="15.7165251"><ele>190.0</ele><time>2026-05-01T12:57:00.981Z</time></trkpt><trkpt lat="39.9968012" lon="15.716536"><ele>190.0</ele><time>2026-05-01T12:57:01.981Z</time></trkpt><trkpt lat="39.9967172" lon="15.7165595"><ele>190.0</ele><time>2026-05-01T12:57:02.98Z</time></trkpt><trkpt lat="39.996647" lon="15.7165783"><ele>190.0</ele><time>2026-05-01T12:57:03.98Z</time></trkpt><trkpt lat="39.9965828" lon="15.7165876"><ele>188.85714285714286</ele><time>2026-05-01T12:57:04.981Z</time></trkpt><trkpt lat="39.9965121" lon="15.7165899"><ele>187.71428571428572</ele><time>2026-05-01T12:57:05.981Z</time></trkpt><trkpt lat="39.9964414" lon="15.7165771"><ele>186.57142857142856</ele><time>2026-05-01T12:57:06.981Z</time></trkpt><trkpt lat="39.9963695" lon="15.7165583"><ele>185.42857142857144</ele><time>2026-05-01T12:57:07.98Z</time></trkpt><trkpt lat="39.9962983" lon="15.7165375"><ele>184.28571428571428</ele><time>2026-05-01T12:57:08.98Z</time></trkpt><trkpt lat="39.9962274" lon="15.7165218"><ele>183.14285714285714</ele><time>2026-05-01T12:57:09.98Z</time></trkpt><trkpt lat="39.9961545" lon="15.7165341"><ele>182.0</ele><time>2026-05-01T12:57:10.98Z</time></trkpt><trkpt lat="39.9960793" lon="15.7165766"><ele>182.0</ele><time>2026-05-01T12:57:11.98Z</time></trkpt><trkpt lat="39.9959939" lon="15.7166489"><ele>182.0</ele><time>2026-05-01T12:57:12.981Z</time></trkpt><trkpt lat="39.9958945" lon="15.7167289"><ele>182.0</ele><time>2026-05-01T12:57:13.98Z</time></trkpt><trkpt lat="39.9958034" lon="15.7168079"><ele>182.0</ele><time>2026-05-01T12:57:14.981Z</time></trkpt><trkpt lat="39.9956983" lon="15.7168411"><ele>182.0</ele><time>2026-05-01T12:57:15.98Z</time></trkpt><trkpt lat="39.9955983" lon="15.7168458"><ele>181.16666666666666</ele><time>2026-05-01T12:57:16.98Z</time></trkpt><trkpt lat="39.9955041" lon="15.7168283"><ele>180.33333333333331</ele><time>2026-05-01T12:57:17.98Z</time></trkpt><trkpt lat="39.9954256" lon="15.7168028"><ele>179.5</ele><time>2026-05-01T12:57:18.98Z</time></trkpt><trkpt lat="39.9953548" lon="15.7167757"><ele>178.66666666666666</ele><time>2026-05-01T12:57:19.98Z</time></trkpt><trkpt lat="39.9952886" lon="15.7167592"><ele>177.83333333333334</ele><time>2026-05-01T12:57:20.98Z</time></trkpt><trkpt lat="39.9951829" lon="15.7167286"><ele>177.0</ele><time>2026-05-01T12:57:22.98Z</time></trkpt><trkpt lat="39.9950833" lon="15.7166995"><ele>176.0</ele><time>2026-05-01T12:57:24.98Z</time></trkpt><trkpt lat="39.9949671" lon="15.7166628"><ele>175.0</ele><time>2026-05-01T12:57:26.981Z</time></trkpt><trkpt lat="39.9948967" lon="15.7166554"><ele>174.0</ele><time>2026-05-01T12:57:27.981Z</time></trkpt><trkpt lat="39.9948338" lon="15.7166363"><ele>173.0</ele><time>2026-05-01T12:57:28.98Z</time></trkpt><trkpt lat="39.9947244" lon="15.7166027"><ele>172.0</ele><time>2026-05-01T12:57:30.98Z</time></trkpt><trkpt lat="39.994619" lon="15.7165635"><ele>172.0</ele><time>2026-05-01T12:57:32.98Z</time></trkpt><trkpt lat="39.994496" lon="15.716516"><ele>172.0</ele><time>2026-05-01T12:57:34.98Z</time></trkpt><trkpt lat="39.9944294" lon="15.7164933"><ele>172.0</ele><time>2026-05-01T12:57:35.981Z</time></trkpt><trkpt lat="39.9943654" lon="15.7164644"><ele>172.0</ele><time>2026-05-01T12:57:36.981Z</time></trkpt><trkpt lat="39.9943066" lon="15.7164291"><ele>172.0</ele><time>2026-05-01T12:57:37.98Z</time></trkpt><trkpt lat="39.9941985" lon="15.7163312"><ele>170.83333333333334</ele><time>2026-05-01T12:57:39.98Z</time></trkpt><trkpt lat="39.9941497" lon="15.7162654"><ele>169.66666666666669</ele><time>2026-05-01T12:57:40.981Z</time></trkpt><trkpt lat="39.9941111" lon="15.7161881"><ele>168.5</ele><time>2026-05-01T12:57:41.98Z</time></trkpt><trkpt lat="39.9940736" lon="15.7161034"><ele>167.33333333333334</ele><time>2026-05-01T12:57:42.98Z</time></trkpt><trkpt lat="39.9940372" lon="15.7160221"><ele>166.16666666666666</ele><time>2026-05-01T12:57:43.98Z</time></trkpt><trkpt lat="39.9940066" lon="15.7159402"><ele>165.0</ele><time>2026-05-01T12:57:44.981Z</time></trkpt><trkpt lat="39.9939754" lon="15.7157819"><ele>165.0</ele><time>2026-05-01T12:57:46.98Z</time></trkpt><trkpt lat="39.9939608" lon="15.7156231"><ele>165.0</ele><time>2026-05-01T12:57:48.98Z</time></trkpt><trkpt lat="39.99397" lon="15.7154726"><ele>165.0</ele><time>2026-05-01T12:57:50.98Z</time></trkpt><trkpt lat="39.9939782" lon="15.7153365"><ele>165.0</ele><time>2026-05-01T12:57:52.98Z</time></trkpt><trkpt lat="39.9939802" lon="15.7152183"><ele>165.0</ele><time>2026-05-01T12:57:54.981Z</time></trkpt><trkpt lat="39.9939846" lon="15.7150994"><ele>164.83333333333334</ele><time>2026-05-01T12:57:56.98Z</time></trkpt><trkpt lat="39.9939897" lon="15.7149744"><ele>164.66666666666666</ele><time>2026-05-01T12:57:58.981Z</time></trkpt><trkpt lat="39.9939843" lon="15.7148528"><ele>164.5</ele><time>2026-05-01T12:58:00.98Z</time></trkpt><trkpt lat="39.9939976" lon="15.7147011"><ele>164.33333333333331</ele><time>2026-05-01T12:58:02.98Z</time></trkpt><trkpt lat="39.9940056" lon="15.714615"><ele>164.16666666666666</ele><time>2026-05-01T12:58:03.98Z</time></trkpt><trkpt lat="39.9940113" lon="15.7145305"><ele>164.0</ele><time>2026-05-01T12:58:04.98Z</time></trkpt><trkpt lat="39.9940246" lon="15.7144423"><ele>163.42857142857142</ele><time>2026-05-01T12:58:05.981Z</time></trkpt><trkpt lat="39.9940453" lon="15.714348"><ele>162.85714285714286</ele><time>2026-05-01T12:58:06.981Z</time></trkpt><trkpt lat="39.9940556" lon="15.7142543"><ele>162.28571428571428</ele><time>2026-05-01T12:58:07.98Z</time></trkpt><trkpt lat="39.9940657" lon="15.7141618"><ele>161.71428571428572</ele><time>2026-05-01T12:58:08.98Z</time></trkpt><trkpt lat="39.9940886" lon="15.7140713"><ele>161.14285714285714</ele><time>2026-05-01T12:58:09.981Z</time></trkpt><trkpt lat="39.9941251" lon="15.7139843"><ele>160.57142857142856</ele><time>2026-05-01T12:58:10.98Z</time></trkpt><trkpt lat="39.9941721" lon="15.7139079"><ele>160.0</ele><time>2026-05-01T12:58:11.98Z</time></trkpt><trkpt lat="39.9942257" lon="15.7138305"><ele>160.0</ele><time>2026-05-01T12:58:12.98Z</time></trkpt><trkpt lat="39.9942857" lon="15.7137539"><ele>160.0</ele><time>2026-05-01T12:58:13.981Z</time></trkpt><trkpt lat="39.9943507" lon="15.7136957"><ele>160.0</ele><time>2026-05-01T12:58:14.981Z</time></trkpt><trkpt lat="39.9944168" lon="15.7136721"><ele>160.0</ele><time>2026-05-01T12:58:15.98Z</time></trkpt><trkpt lat="39.9944821" lon="15.7136774"><ele>160.0</ele><time>2026-05-01T12:58:16.98Z</time></trkpt><trkpt lat="39.9945396" lon="15.7137161"><ele>160.0</ele><time>2026-05-01T12:58:17.98Z</time></trkpt><trkpt lat="39.9945848" lon="15.713781"><ele>160.0</ele><time>2026-05-01T12:58:18.98Z</time></trkpt><trkpt lat="39.9946363" lon="15.7138557"><ele>160.0</ele><time>2026-05-01T12:58:19.98Z</time></trkpt><trkpt lat="39.9947066" lon="15.7139226"><ele>160.0</ele><time>2026-05-01T12:58:20.98Z</time></trkpt><trkpt lat="39.9947939" lon="15.7139591"><ele>160.0</ele><time>2026-05-01T12:58:21.981Z</time></trkpt><trkpt lat="39.9948923" lon="15.7139596"><ele>160.0</ele><time>2026-05-01T12:58:22.981Z</time></trkpt><trkpt lat="39.9949973" lon="15.7139427"><ele>160.0</ele><time>2026-05-01T12:58:23.98Z</time></trkpt><trkpt lat="39.9950905" lon="15.7138973"><ele>158.8</ele><time>2026-05-01T12:58:24.981Z</time></trkpt><trkpt lat="39.9951688" lon="15.7138261"><ele>157.6</ele><time>2026-05-01T12:58:25.98Z</time></trkpt><trkpt lat="39.995236" lon="15.713731"><ele>156.4</ele><time>2026-05-01T12:58:26.981Z</time></trkpt><trkpt lat="39.9952956" lon="15.7136147"><ele>155.2</ele><time>2026-05-01T12:58:27.981Z</time></trkpt><trkpt lat="39.9953501" lon="15.7135124"><ele>154.0</ele><time>2026-05-01T12:58:28.98Z</time></trkpt><trkpt lat="39.9953952" lon="15.7134218"><ele>152.33333333333334</ele><time>2026-05-01T12:58:29.98Z</time></trkpt><trkpt lat="39.9954317" lon="15.7133438"><ele>150.66666666666669</ele><time>2026-05-01T12:58:30.981Z</time></trkpt><trkpt lat="39.9954742" lon="15.7132817"><ele>149.0</ele><time>2026-05-01T12:58:31.98Z</time></trkpt><trkpt lat="39.995594" lon="15.7132518"><ele>147.33333333333334</ele><time>2026-05-01T12:58:33.98Z</time></trkpt><trkpt lat="39.9956575" lon="15.7132946"><ele>145.66666666666666</ele><time>2026-05-01T12:58:34.981Z</time></trkpt><trkpt lat="39.995707" lon="15.7133544"><ele>144.0</ele><time>2026-05-01T12:58:35.98Z</time></trkpt><trkpt lat="39.9957597" lon="15.7134066"><ele>144.0</ele><time>2026-05-01T12:58:37.98Z</time></trkpt><trkpt lat="39.9958354" lon="15.7134377"><ele>144.0</ele><time>2026-05-01T12:58:57.98Z</time></trkpt><trkpt lat="39.9958976" lon="15.7134527"><ele>144.0</ele><time>2026-05-01T12:58:59.981Z</time></trkpt><trkpt lat="39.9959737" lon="15.7134488"><ele>144.0</ele><time>2026-05-01T12:59:01.98Z</time></trkpt><trkpt lat="39.9960924" lon="15.7134183"><ele>144.0</ele><time>2026-05-01T12:59:03.981Z</time></trkpt><trkpt lat="39.9961979" lon="15.7133619"><ele>144.4</ele><time>2026-05-01T12:59:05.981Z</time></trkpt><trkpt lat="39.9962799" lon="15.7132951"><ele>144.8</ele><time>2026-05-01T12:59:07.981Z</time></trkpt><trkpt lat="39.9963636" lon="15.713238"><ele>145.2</ele><time>2026-05-01T12:59:09.981Z</time></trkpt><trkpt lat="39.9964567" lon="15.7131987"><ele>145.6</ele><time>2026-05-01T12:59:11.981Z</time></trkpt><trkpt lat="39.9965711" lon="15.7131559"><ele>146.0</ele><time>2026-05-01T12:59:13.98Z</time></trkpt><trkpt lat="39.9966385" lon="15.7131443"><ele>148.25</ele><time>2026-05-01T12:59:14.98Z</time></trkpt><trkpt lat="39.9967215" lon="15.7131249"><ele>150.5</ele><time>2026-05-01T12:59:15.98Z</time></trkpt><trkpt lat="39.9968461" lon="15.7131107"><ele>152.75</ele><time>2026-05-01T12:59:16.981Z</time></trkpt><trkpt lat="39.997004" lon="15.7130632"><ele>155.0</ele><time>2026-05-01T12:59:17.98Z</time></trkpt><trkpt lat="39.9971713" lon="15.7129484"><ele>155.0</ele><time>2026-05-01T12:59:18.981Z</time></trkpt><trkpt lat="39.9973055" lon="15.7127867"><ele>155.0</ele><time>2026-05-01T12:59:19.981Z</time></trkpt><trkpt lat="39.9974166" lon="15.7126518"><ele>155.0</ele><time>2026-05-01T12:59:20.981Z</time></trkpt><trkpt lat="39.9975088" lon="15.7125519"><ele>153.8</ele><time>2026-05-01T12:59:21.98Z</time></trkpt><trkpt lat="39.9975831" lon="15.7124603"><ele>152.6</ele><time>2026-05-01T12:59:22.981Z</time></trkpt><trkpt lat="39.9976456" lon="15.7123603"><ele>151.4</ele><time>2026-05-01T12:59:23.98Z</time></trkpt><trkpt lat="39.9977078" lon="15.7122364"><ele>150.2</ele><time>2026-05-01T12:59:24.98Z</time></trkpt><trkpt lat="39.9977702" lon="15.7121283"><ele>149.0</ele><time>2026-05-01T12:59:25.98Z</time></trkpt><trkpt lat="39.9978138" lon="15.7120501"><ele>149.0</ele><time>2026-05-01T12:59:26.98Z</time></trkpt><trkpt lat="39.9978757" lon="15.7119605"><ele>149.0</ele><time>2026-05-01T12:59:28.98Z</time></trkpt><trkpt lat="39.9979181" lon="15.7118886"><ele>149.0</ele><time>2026-05-01T12:59:30.98Z</time></trkpt><trkpt lat="39.9979715" lon="15.711731"><ele>149.0</ele><time>2026-05-01T12:59:32.98Z</time></trkpt><trkpt lat="39.9979693" lon="15.7115678"><ele>149.0</ele><time>2026-05-01T12:59:33.981Z</time></trkpt><trkpt lat="39.9979137" lon="15.7113451"><ele>144.33333333333331</ele><time>2026-05-01T12:59:34.98Z</time></trkpt><trkpt lat="39.9978235" lon="15.7111098"><ele>139.66666666666666</ele><time>2026-05-01T12:59:35.981Z</time></trkpt><trkpt lat="39.9977264" lon="15.710894"><ele>135.0</ele><time>2026-05-01T12:59:36.98Z</time></trkpt><trkpt lat="39.9976357" lon="15.7107437"><ele>132.75</ele><time>2026-05-01T12:59:37.98Z</time></trkpt><trkpt lat="39.9975566" lon="15.7106163"><ele>130.5</ele><time>2026-05-01T12:59:38.98Z</time></trkpt><trkpt lat="39.9974709" lon="15.7104999"><ele>128.25</ele><time>2026-05-01T12:59:39.98Z</time></trkpt><trkpt lat="39.997381" lon="15.7104006"><ele>126.0</ele><time>2026-05-01T12:59:40.98Z</time></trkpt><trkpt lat="39.9972863" lon="15.7103128"><ele>123.75</ele><time>2026-05-01T12:59:41.981Z</time></trkpt><trkpt lat="39.9971883" lon="15.7102194"><ele>121.5</ele><time>2026-05-01T12:59:42.981Z</time></trkpt><trkpt lat="39.9970809" lon="15.7101184"><ele>119.25</ele><time>2026-05-01T12:59:43.98Z</time></trkpt><trkpt lat="39.9969888" lon="15.7100098"><ele>117.0</ele><time>2026-05-01T12:59:44.98Z</time></trkpt><trkpt lat="39.9968814" lon="15.7099192"><ele>117.0</ele><time>2026-05-01T12:59:45.98Z</time></trkpt><trkpt lat="39.9967867" lon="15.709821"><ele>117.0</ele><time>2026-05-01T12:59:46.98Z</time></trkpt><trkpt lat="39.9966845" lon="15.7097253"><ele>117.0</ele><time>2026-05-01T12:59:47.98Z</time></trkpt><trkpt lat="39.9965762" lon="15.7096346"><ele>117.0</ele><time>2026-05-01T12:59:48.98Z</time></trkpt><trkpt lat="39.9964741" lon="15.7095444"><ele>115.5</ele><time>2026-05-01T12:59:49.98Z</time></trkpt><trkpt lat="39.9963654" lon="15.7094611"><ele>114.0</ele><time>2026-05-01T12:59:50.98Z</time></trkpt><trkpt lat="39.9962601" lon="15.7093633"><ele>112.5</ele><time>2026-05-01T12:59:51.981Z</time></trkpt><trkpt lat="39.9961354" lon="15.7092819"><ele>111.0</ele><time>2026-05-01T12:59:52.981Z</time></trkpt><trkpt lat="39.9960073" lon="15.7092169"><ele>111.0</ele><time>2026-05-01T12:59:53.98Z</time></trkpt><trkpt lat="39.9958763" lon="15.7091817"><ele>111.0</ele><time>2026-05-01T12:59:54.981Z</time></trkpt><trkpt lat="39.9957563" lon="15.7091383"><ele>111.0</ele><time>2026-05-01T12:59:55.98Z</time></trkpt><trkpt lat="39.9956385" lon="15.7090856"><ele>111.0</ele><time>2026-05-01T12:59:56.981Z</time></trkpt><trkpt lat="39.9955285" lon="15.7090119"><ele>110.0</ele><time>2026-05-01T12:59:57.98Z</time></trkpt><trkpt lat="39.995417" lon="15.7089209"><ele>109.0</ele><time>2026-05-01T12:59:58.981Z</time></trkpt><trkpt lat="39.9953112" lon="15.7088098"><ele>108.0</ele><time>2026-05-01T12:59:59.981Z</time></trkpt><trkpt lat="39.9952072" lon="15.7086948"><ele>107.0</ele><time>2026-05-01T13:00:00.98Z</time></trkpt><trkpt lat="39.9951013" lon="15.7085849"><ele>105.5</ele><time>2026-05-01T13:00:01.981Z</time></trkpt><trkpt lat="39.9949829" lon="15.708492"><ele>104.0</ele><time>2026-05-01T13:00:02.98Z</time></trkpt><trkpt lat="39.9946487" lon="15.708275"><ele>104.0</ele><time>2026-05-01T13:00:05.98Z</time></trkpt><trkpt lat="39.9945447" lon="15.7081996"><ele>104.0</ele><time>2026-05-01T13:00:06.98Z</time></trkpt><trkpt lat="39.9944413" lon="15.7081035"><ele>104.0</ele><time>2026-05-01T13:00:07.98Z</time></trkpt><trkpt lat="39.994348" lon="15.708"><ele>104.0</ele><time>2026-05-01T13:00:08.98Z</time></trkpt><trkpt lat="39.9942662" lon="15.707877"><ele>104.0</ele><time>2026-05-01T13:00:09.98Z</time></trkpt><trkpt lat="39.9941862" lon="15.7077492"><ele>104.0</ele><time>2026-05-01T13:00:10.981Z</time></trkpt><trkpt lat="39.9941079" lon="15.7076228"><ele>104.0</ele><time>2026-05-01T13:00:11.981Z</time></trkpt><trkpt lat="39.9940339" lon="15.707492"><ele>104.0</ele><time>2026-05-01T13:00:12.98Z</time></trkpt><trkpt lat="39.9939595" lon="15.7073647"><ele>103.25</ele><time>2026-05-01T13:00:13.98Z</time></trkpt><trkpt lat="39.9938661" lon="15.7072447"><ele>102.5</ele><time>2026-05-01T13:00:14.98Z</time></trkpt><trkpt lat="39.9937533" lon="15.707137"><ele>101.75</ele><time>2026-05-01T13:00:15.981Z</time></trkpt><trkpt lat="39.9936158" lon="15.7070666"><ele>101.0</ele><time>2026-05-01T13:00:16.98Z</time></trkpt><trkpt lat="39.9934749" lon="15.7070231"><ele>99.5</ele><time>2026-05-01T13:00:17.98Z</time></trkpt><trkpt lat="39.9933321" lon="15.7070074"><ele>98.0</ele><time>2026-05-01T13:00:18.98Z</time></trkpt><trkpt lat="39.9931941" lon="15.7070018"><ele>96.5</ele><time>2026-05-01T13:00:19.98Z</time></trkpt><trkpt lat="39.9930736" lon="15.7069975"><ele>95.0</ele><time>2026-05-01T13:00:20.981Z</time></trkpt><trkpt lat="39.9929643" lon="15.7069831"><ele>95.0</ele><time>2026-05-01T13:00:21.98Z</time></trkpt><trkpt lat="39.9928838" lon="15.706958"><ele>95.0</ele><time>2026-05-01T13:00:22.981Z</time></trkpt><trkpt lat="39.9928224" lon="15.7069015"><ele>95.0</ele><time>2026-05-01T13:00:23.98Z</time></trkpt><trkpt lat="39.992808" lon="15.7067437"><ele>95.0</ele><time>2026-05-01T13:00:25.98Z</time></trkpt><trkpt lat="39.9928531" lon="15.7066634"><ele>95.0</ele><time>2026-05-01T13:00:26.981Z</time></trkpt><trkpt lat="39.99293" lon="15.7066233"><ele>95.0</ele><time>2026-05-01T13:00:27.98Z</time></trkpt><trkpt lat="39.993023" lon="15.7066241"><ele>94.5</ele><time>2026-05-01T13:00:28.98Z</time></trkpt><trkpt lat="39.9931247" lon="15.7066431"><ele>94.0</ele><time>2026-05-01T13:00:29.98Z</time></trkpt><trkpt lat="39.9932371" lon="15.7066729"><ele>93.5</ele><time>2026-05-01T13:00:30.98Z</time></trkpt><trkpt lat="39.9933482" lon="15.7066953"><ele>93.0</ele><time>2026-05-01T13:00:31.98Z</time></trkpt><trkpt lat="39.9934675" lon="15.7067243"><ele>91.75</ele><time>2026-05-01T13:00:32.98Z</time></trkpt><trkpt lat="39.9936117" lon="15.7067456"><ele>90.5</ele><time>2026-05-01T13:00:33.981Z</time></trkpt><trkpt lat="39.9937608" lon="15.7067608"><ele>89.25</ele><time>2026-05-01T13:00:34.98Z</time></trkpt><trkpt lat="39.9939091" lon="15.7067648"><ele>88.0</ele><time>2026-05-01T13:00:35.98Z</time></trkpt><trkpt lat="39.9940551" lon="15.7067458"><ele>87.25</ele><time>2026-05-01T13:00:36.98Z</time></trkpt><trkpt lat="39.9941862" lon="15.7067372"><ele>86.5</ele><time>2026-05-01T13:00:37.98Z</time></trkpt><trkpt lat="39.9943087" lon="15.7067302"><ele>85.75</ele><time>2026-05-01T13:00:38.98Z</time></trkpt><trkpt lat="39.9944294" lon="15.7067254"><ele>85.0</ele><time>2026-05-01T13:00:39.98Z</time></trkpt><trkpt lat="39.9945452" lon="15.7067172"><ele>85.0</ele><time>2026-05-01T13:00:40.981Z</time></trkpt><trkpt lat="39.9946665" lon="15.7067201"><ele>85.0</ele><time>2026-05-01T13:00:41.981Z</time></trkpt><trkpt lat="39.9947927" lon="15.7067228"><ele>85.0</ele><time>2026-05-01T13:00:42.981Z</time></trkpt><trkpt lat="39.9949197" lon="15.706734"><ele>85.0</ele><time>2026-05-01T13:00:43.98Z</time></trkpt><trkpt lat="39.9950372" lon="15.7067524"><ele>84.8</ele><time>2026-05-01T13:00:44.98Z</time></trkpt><trkpt lat="39.9951489" lon="15.7067785"><ele>84.6</ele><time>2026-05-01T13:00:45.981Z</time></trkpt><trkpt lat="39.9952572" lon="15.706798"><ele>84.4</ele><time>2026-05-01T13:00:46.98Z</time></trkpt><trkpt lat="39.9953604" lon="15.706803"><ele>84.2</ele><time>2026-05-01T13:00:47.98Z</time></trkpt><trkpt lat="39.9954599" lon="15.7067762"><ele>84.0</ele><time>2026-05-01T13:00:48.98Z</time></trkpt><trkpt lat="39.9955547" lon="15.7067406"><ele>84.0</ele><time>2026-05-01T13:00:49.98Z</time></trkpt><trkpt lat="39.99565" lon="15.7066941"><ele>84.0</ele><time>2026-05-01T13:00:50.98Z</time></trkpt><trkpt lat="39.9957557" lon="15.7066383"><ele>84.0</ele><time>2026-05-01T13:00:51.98Z</time></trkpt><trkpt lat="39.9958675" lon="15.7065821"><ele>84.0</ele><time>2026-05-01T13:00:52.98Z</time></trkpt><trkpt lat="39.9959801" lon="15.7065204"><ele>84.0</ele><time>2026-05-01T13:00:53.981Z</time></trkpt><trkpt lat="39.9961022" lon="15.7064529"><ele>84.0</ele><time>2026-05-01T13:00:54.98Z</time></trkpt><trkpt lat="39.9962304" lon="15.7063926"><ele>84.0</ele><time>2026-05-01T13:00:55.98Z</time></trkpt><trkpt lat="39.996361" lon="15.7063266"><ele>84.0</ele><time>2026-05-01T13:00:56.981Z</time></trkpt><trkpt lat="39.9964868" lon="15.7062572"><ele>84.0</ele><time>2026-05-01T13:00:57.98Z</time></trkpt><trkpt lat="39.9966072" lon="15.7061856"><ele>84.0</ele><time>2026-05-01T13:00:58.98Z</time></trkpt><trkpt lat="39.9967238" lon="15.7061175"><ele>84.0</ele><time>2026-05-01T13:00:59.98Z</time></trkpt><trkpt lat="39.9968393" lon="15.7060556"><ele>84.0</ele><time>2026-05-01T13:01:00.98Z</time></trkpt><trkpt lat="39.9969442" lon="15.7059771"><ele>83.80000000000001</ele><time>2026-05-01T13:01:01.98Z</time></trkpt><trkpt lat="39.9970377" lon="15.7058999"><ele>83.60000000000001</ele><time>2026-05-01T13:01:02.98Z</time></trkpt><trkpt lat="39.9971255" lon="15.7058135"><ele>83.4</ele><time>2026-05-01T13:01:03.98Z</time></trkpt><trkpt lat="39.9971992" lon="15.7057174"><ele>83.2</ele><time>2026-05-01T13:01:04.981Z</time></trkpt><trkpt lat="39.9972542" lon="15.7056064"><ele>83.0</ele><time>2026-05-01T13:01:05.98Z</time></trkpt><trkpt lat="39.9972829" lon="15.705475"><ele>83.0</ele><time>2026-05-01T13:01:06.98Z</time></trkpt><trkpt lat="39.9972889" lon="15.7053278"><ele>83.0</ele><time>2026-05-01T13:01:07.98Z</time></trkpt><trkpt lat="39.997278" lon="15.7051714"><ele>83.0</ele><time>2026-05-01T13:01:08.98Z</time></trkpt><trkpt lat="39.9972528" lon="15.7050001"><ele>83.0</ele><time>2026-05-01T13:01:09.981Z</time></trkpt><trkpt lat="39.9972273" lon="15.7048256"><ele>83.0</ele><time>2026-05-01T13:01:10.98Z</time></trkpt><trkpt lat="39.9972118" lon="15.7046564"><ele>83.0</ele><time>2026-05-01T13:01:11.98Z</time></trkpt><trkpt lat="39.9971992" lon="15.7044975"><ele>83.0</ele><time>2026-05-01T13:01:12.981Z</time></trkpt><trkpt lat="39.9971818" lon="15.704343"><ele>83.0</ele><time>2026-05-01T13:01:13.98Z</time></trkpt><trkpt lat="39.9971694" lon="15.7042024"><ele>81.80000000000001</ele><time>2026-05-01T13:01:14.98Z</time></trkpt><trkpt lat="39.9971601" lon="15.7040837"><ele>80.60000000000001</ele><time>2026-05-01T13:01:15.98Z</time></trkpt><trkpt lat="39.9971592" lon="15.7039715"><ele>79.4</ele><time>2026-05-01T13:01:16.98Z</time></trkpt><trkpt lat="39.9971728" lon="15.7038672"><ele>78.2</ele><time>2026-05-01T13:01:17.981Z</time></trkpt><trkpt lat="39.9972532" lon="15.7037768"><ele>77.0</ele><time>2026-05-01T13:01:19.98Z</time></trkpt><trkpt lat="39.9973576" lon="15.7038477"><ele>77.0</ele><time>2026-05-01T13:01:21.98Z</time></trkpt><trkpt lat="39.9974156" lon="15.7039286"><ele>77.0</ele><time>2026-05-01T13:01:22.98Z</time></trkpt><trkpt lat="39.9974791" lon="15.7040204"><ele>77.0</ele><time>2026-05-01T13:01:23.981Z</time></trkpt><trkpt lat="39.9975422" lon="15.7041093"><ele>77.0</ele><time>2026-05-01T13:01:24.98Z</time></trkpt><trkpt lat="39.9976074" lon="15.7041702"><ele>77.0</ele><time>2026-05-01T13:01:25.98Z</time></trkpt><trkpt lat="39.9976716" lon="15.7042158"><ele>77.0</ele><time>2026-05-01T13:01:26.981Z</time></trkpt><trkpt lat="39.9977591" lon="15.7042584"><ele>77.0</ele><time>2026-05-01T13:01:28.98Z</time></trkpt><trkpt lat="39.9978388" lon="15.704275"><ele>77.0</ele><time>2026-05-01T13:01:31.981Z</time></trkpt><trkpt lat="39.9979551" lon="15.704278"><ele>77.0</ele><time>2026-05-01T13:01:33.98Z</time></trkpt><trkpt lat="39.9980429" lon="15.7042814"><ele>77.0</ele><time>2026-05-01T13:01:34.981Z</time></trkpt><trkpt lat="39.9981323" lon="15.7042811"><ele>77.0</ele><time>2026-05-01T13:01:35.981Z</time></trkpt><trkpt lat="39.9982219" lon="15.7042971"><ele>77.0</ele><time>2026-05-01T13:01:36.98Z</time></trkpt><trkpt lat="39.9983177" lon="15.7043471"><ele>77.0</ele><time>2026-05-01T13:01:37.98Z</time></trkpt><trkpt lat="39.9984079" lon="15.7044158"><ele>77.0</ele><time>2026-05-01T13:01:38.98Z</time></trkpt><trkpt lat="39.9985096" lon="15.7044573"><ele>77.0</ele><time>2026-05-01T13:01:39.98Z</time></trkpt><trkpt lat="39.9986001" lon="15.7044445"><ele>77.0</ele><time>2026-05-01T13:01:40.98Z</time></trkpt><trkpt lat="39.9986939" lon="15.7043986"><ele>79.2</ele><time>2026-05-01T13:01:41.98Z</time></trkpt><trkpt lat="39.9988012" lon="15.7043684"><ele>81.4</ele><time>2026-05-01T13:01:42.98Z</time></trkpt><trkpt lat="39.9989133" lon="15.704382"><ele>83.60000000000001</ele><time>2026-05-01T13:01:43.981Z</time></trkpt><trkpt lat="39.9990211" lon="15.7043866"><ele>85.80000000000001</ele><time>2026-05-01T13:01:44.981Z</time></trkpt><trkpt lat="39.9991144" lon="15.7043489"><ele>88.0</ele><time>2026-05-01T13:01:45.98Z</time></trkpt><trkpt lat="39.9991943" lon="15.7042569"><ele>98.0</ele><time>2026-05-01T13:01:46.98Z</time></trkpt><trkpt lat="39.999271" lon="15.704137"><ele>108.0</ele><time>2026-05-01T13:01:47.98Z</time></trkpt><trkpt lat="39.9993471" lon="15.7040117"><ele>118.0</ele><time>2026-05-01T13:01:48.98Z</time></trkpt><trkpt lat="39.9994099" lon="15.7038556"><ele>128.0</ele><time>2026-05-01T13:01:49.98Z</time></trkpt><trkpt lat="39.9994525" lon="15.7036817"><ele>129.33333333333331</ele><time>2026-05-01T13:01:50.98Z</time></trkpt><trkpt lat="39.999494" lon="15.7035009"><ele>130.66666666666666</ele><time>2026-05-01T13:01:51.981Z</time></trkpt><trkpt lat="39.9995083" lon="15.7033068"><ele>132.0</ele><time>2026-05-01T13:01:52.98Z</time></trkpt><trkpt lat="39.9994965" lon="15.7030967"><ele>132.0</ele><time>2026-05-01T13:01:53.98Z</time></trkpt><trkpt lat="39.9994672" lon="15.7028894"><ele>132.0</ele><time>2026-05-01T13:01:54.98Z</time></trkpt><trkpt lat="39.9994447" lon="15.7027183"><ele>132.0</ele><time>2026-05-01T13:01:55.98Z</time></trkpt><trkpt lat="39.9994363" lon="15.7025531"><ele>132.0</ele><time>2026-05-01T13:01:56.98Z</time></trkpt><trkpt lat="39.9994559" lon="15.7023935"><ele>130.5</ele><time>2026-05-01T13:01:57.981Z</time></trkpt><trkpt lat="39.9995023" lon="15.7022339"><ele>129.0</ele><time>2026-05-01T13:01:58.98Z</time></trkpt><trkpt lat="39.999563" lon="15.7020646"><ele>127.5</ele><time>2026-05-01T13:01:59.981Z</time></trkpt><trkpt lat="39.9996299" lon="15.7018856"><ele>126.0</ele><time>2026-05-01T13:02:00.98Z</time></trkpt><trkpt lat="39.9996921" lon="15.7017023"><ele>123.33333333333334</ele><time>2026-05-01T13:02:01.98Z</time></trkpt><trkpt lat="39.999733" lon="15.7015057"><ele>120.66666666666667</ele><time>2026-05-01T13:02:02.98Z</time></trkpt><trkpt lat="39.9997539" lon="15.7012923"><ele>118.0</ele><time>2026-05-01T13:02:03.981Z</time></trkpt><trkpt lat="39.999773" lon="15.7010586"><ele>117.0</ele><time>2026-05-01T13:02:04.98Z</time></trkpt><trkpt lat="39.9997854" lon="15.7008369"><ele>116.0</ele><time>2026-05-01T13:02:05.98Z</time></trkpt><trkpt lat="39.9998113" lon="15.7006282"><ele>115.0</ele><time>2026-05-01T13:02:06.98Z</time></trkpt><trkpt lat="39.9998358" lon="15.7004133"><ele>114.33333333333334</ele><time>2026-05-01T13:02:07.981Z</time></trkpt><trkpt lat="39.9998659" lon="15.7002"><ele>113.66666666666666</ele><time>2026-05-01T13:02:08.981Z</time></trkpt><trkpt lat="39.9999061" lon="15.6999855"><ele>113.0</ele><time>2026-05-01T13:02:09.981Z</time></trkpt><trkpt lat="39.9999482" lon="15.6997687"><ele>113.0</ele><time>2026-05-01T13:02:10.98Z</time></trkpt><trkpt lat="40.0000108" lon="15.6995541"><ele>113.0</ele><time>2026-05-01T13:02:11.98Z</time></trkpt><trkpt lat="40.0000728" lon="15.6993455"><ele>113.0</ele><time>2026-05-01T13:02:12.98Z</time></trkpt><trkpt lat="40.0001304" lon="15.6991259"><ele>109.66666666666666</ele><time>2026-05-01T13:02:13.981Z</time></trkpt><trkpt lat="40.0001824" lon="15.6989131"><ele>106.33333333333334</ele><time>2026-05-01T13:02:14.98Z</time></trkpt><trkpt lat="40.000236" lon="15.6987169"><ele>103.0</ele><time>2026-05-01T13:02:15.98Z</time></trkpt><trkpt lat="40.0002761" lon="15.6985356"><ele>100.25</ele><time>2026-05-01T13:02:16.98Z</time></trkpt><trkpt lat="40.000318" lon="15.6983713"><ele>97.5</ele><time>2026-05-01T13:02:17.98Z</time></trkpt><trkpt lat="40.0003491" lon="15.6982036"><ele>94.75</ele><time>2026-05-01T13:02:18.98Z</time></trkpt><trkpt lat="40.0003834" lon="15.6980372"><ele>92.0</ele><time>2026-05-01T13:02:19.98Z</time></trkpt><trkpt lat="40.0004097" lon="15.6978663"><ele>89.0</ele><time>2026-05-01T13:02:20.98Z</time></trkpt><trkpt lat="40.000432" lon="15.6977092"><ele>86.0</ele><time>2026-05-01T13:02:21.98Z</time></trkpt><trkpt lat="40.0004585" lon="15.6975388"><ele>83.0</ele><time>2026-05-01T13:02:22.98Z</time></trkpt><trkpt lat="40.0004941" lon="15.6973651"><ele>80.0</ele><time>2026-05-01T13:02:23.981Z</time></trkpt><trkpt lat="40.0005316" lon="15.6971921"><ele>80.0</ele><time>2026-05-01T13:02:24.98Z</time></trkpt><trkpt lat="40.0005811" lon="15.6970098"><ele>80.0</ele><time>2026-05-01T13:02:25.98Z</time></trkpt><trkpt lat="40.0006235" lon="15.696819"><ele>80.0</ele><time>2026-05-01T13:02:26.98Z</time></trkpt><trkpt lat="40.000677" lon="15.6966303"><ele>76.66666666666667</ele><time>2026-05-01T13:02:27.981Z</time></trkpt><trkpt lat="40.0007306" lon="15.6964369"><ele>73.33333333333333</ele><time>2026-05-01T13:02:28.98Z</time></trkpt><trkpt lat="40.0007853" lon="15.6962482"><ele>70.0</ele><time>2026-05-01T13:02:29.981Z</time></trkpt><trkpt lat="40.0008292" lon="15.6960575"><ele>78.0</ele><time>2026-05-01T13:02:30.98Z</time></trkpt><trkpt lat="40.0008801" lon="15.6958746"><ele>86.0</ele><time>2026-05-01T13:02:31.98Z</time></trkpt><trkpt lat="40.0009357" lon="15.6956961"><ele>94.0</ele><time>2026-05-01T13:02:32.98Z</time></trkpt><trkpt lat="40.0010017" lon="15.6955254"><ele>102.0</ele><time>2026-05-01T13:02:33.981Z</time></trkpt><trkpt lat="40.001079" lon="15.6953557"><ele>98.0</ele><time>2026-05-01T13:02:34.98Z</time></trkpt><trkpt lat="40.0011499" lon="15.695182"><ele>94.0</ele><time>2026-05-01T13:02:35.98Z</time></trkpt><trkpt lat="40.0012245" lon="15.6950093"><ele>90.0</ele><time>2026-05-01T13:02:36.98Z</time></trkpt><trkpt lat="40.0012949" lon="15.6948561"><ele>86.0</ele><time>2026-05-01T13:02:37.98Z</time></trkpt><trkpt lat="40.0013617" lon="15.6947027"><ele>86.0</ele><time>2026-05-01T13:02:38.981Z</time></trkpt><trkpt lat="40.001425" lon="15.6945562"><ele>86.0</ele><time>2026-05-01T13:02:39.98Z</time></trkpt><trkpt lat="40.0014552" lon="15.6944021"><ele>86.0</ele><time>2026-05-01T13:02:40.98Z</time></trkpt><trkpt lat="40.0014803" lon="15.694244"><ele>86.0</ele><time>2026-05-01T13:02:41.981Z</time></trkpt><trkpt lat="40.0014904" lon="15.6940766"><ele>84.25</ele><time>2026-05-01T13:02:42.98Z</time></trkpt><trkpt lat="40.0015002" lon="15.6939109"><ele>82.5</ele><time>2026-05-01T13:02:43.98Z</time></trkpt><trkpt lat="40.0015028" lon="15.6937411"><ele>80.75</ele><time>2026-05-01T13:02:44.981Z</time></trkpt><trkpt lat="40.0015085" lon="15.6935649"><ele>79.0</ele><time>2026-05-01T13:02:45.98Z</time></trkpt><trkpt lat="40.0015161" lon="15.6933876"><ele>79.0</ele><time>2026-05-01T13:02:46.98Z</time></trkpt><trkpt lat="40.0015329" lon="15.693207"><ele>79.0</ele><time>2026-05-01T13:02:47.98Z</time></trkpt><trkpt lat="40.0015504" lon="15.6930207"><ele>79.0</ele><time>2026-05-01T13:02:48.98Z</time></trkpt><trkpt lat="40.0015913" lon="15.6928381"><ele>79.0</ele><time>2026-05-01T13:02:49.98Z</time></trkpt><trkpt lat="40.0016414" lon="15.6926567"><ele>86.66666666666666</ele><time>2026-05-01T13:02:50.981Z</time></trkpt><trkpt lat="40.0016948" lon="15.6924663"><ele>94.33333333333333</ele><time>2026-05-01T13:02:51.981Z</time></trkpt><trkpt lat="40.0017571" lon="15.6922896"><ele>102.0</ele><time>2026-05-01T13:02:52.98Z</time></trkpt><trkpt lat="40.0018239" lon="15.6921134"><ele>102.0</ele><time>2026-05-01T13:02:53.981Z</time></trkpt><trkpt lat="40.0018937" lon="15.6919256"><ele>102.0</ele><time>2026-05-01T13:02:54.98Z</time></trkpt><trkpt lat="40.0019688" lon="15.69175"><ele>102.0</ele><time>2026-05-01T13:02:55.981Z</time></trkpt><trkpt lat="40.0020573" lon="15.6915811"><ele>100.0</ele><time>2026-05-01T13:02:56.981Z</time></trkpt><trkpt lat="40.002123" lon="15.6914095"><ele>98.0</ele><time>2026-05-01T13:02:57.981Z</time></trkpt><trkpt lat="40.0021924" lon="15.6912544"><ele>96.0</ele><time>2026-05-01T13:02:58.98Z</time></trkpt><trkpt lat="40.0022717" lon="15.691108"><ele>94.0</ele><time>2026-05-01T13:02:59.98Z</time></trkpt><trkpt lat="40.0023585" lon="15.6909666"><ele>96.0</ele><time>2026-05-01T13:03:00.98Z</time></trkpt><trkpt lat="40.0024472" lon="15.690827"><ele>98.0</ele><time>2026-05-01T13:03:01.981Z</time></trkpt><trkpt lat="40.0025536" lon="15.6906955"><ele>100.0</ele><time>2026-05-01T13:03:02.98Z</time></trkpt><trkpt lat="40.0026646" lon="15.6905559"><ele>102.0</ele><time>2026-05-01T13:03:03.981Z</time></trkpt><trkpt lat="40.0027827" lon="15.6904125"><ele>102.0</ele><time>2026-05-01T13:03:04.98Z</time></trkpt><trkpt lat="40.002896" lon="15.6902734"><ele>102.0</ele><time>2026-05-01T13:03:05.981Z</time></trkpt><trkpt lat="40.0030039" lon="15.6901438"><ele>102.0</ele><time>2026-05-01T13:03:06.98Z</time></trkpt><trkpt lat="40.0031035" lon="15.6900181"><ele>102.0</ele><time>2026-05-01T13:03:07.98Z</time></trkpt><trkpt lat="40.0031897" lon="15.6898992"><ele>101.75</ele><time>2026-05-01T13:03:08.98Z</time></trkpt><trkpt lat="40.0032587" lon="15.6897524"><ele>101.5</ele><time>2026-05-01T13:03:09.98Z</time></trkpt><trkpt lat="40.0033146" lon="15.6895856"><ele>101.25</ele><time>2026-05-01T13:03:10.98Z</time></trkpt><trkpt lat="40.0033756" lon="15.6894112"><ele>101.0</ele><time>2026-05-01T13:03:11.98Z</time></trkpt><trkpt lat="40.0034197" lon="15.6892167"><ele>101.0</ele><time>2026-05-01T13:03:12.98Z</time></trkpt><trkpt lat="40.0034792" lon="15.6890257"><ele>101.0</ele><time>2026-05-01T13:03:13.98Z</time></trkpt><trkpt lat="40.0035389" lon="15.6888247"><ele>101.0</ele><time>2026-05-01T13:03:14.981Z</time></trkpt><trkpt lat="40.0035949" lon="15.6886237"><ele>96.0</ele><time>2026-05-01T13:03:15.981Z</time></trkpt><trkpt lat="40.0036385" lon="15.6884188"><ele>91.0</ele><time>2026-05-01T13:03:16.98Z</time></trkpt><trkpt lat="40.0036858" lon="15.6882075"><ele>86.0</ele><time>2026-05-01T13:03:17.981Z</time></trkpt><trkpt lat="40.003738" lon="15.6879933"><ele>86.0</ele><time>2026-05-01T13:03:18.98Z</time></trkpt><trkpt lat="40.0038014" lon="15.6877744"><ele>86.0</ele><time>2026-05-01T13:03:19.981Z</time></trkpt><trkpt lat="40.0038491" lon="15.6875719"><ele>86.0</ele><time>2026-05-01T13:03:20.98Z</time></trkpt><trkpt lat="40.0039111" lon="15.687373"><ele>82.0</ele><time>2026-05-01T13:03:21.98Z</time></trkpt><trkpt lat="40.0039858" lon="15.6871963"><ele>78.0</ele><time>2026-05-01T13:03:22.98Z</time></trkpt><trkpt lat="40.0040664" lon="15.6870234"><ele>74.0</ele><time>2026-05-01T13:03:23.981Z</time></trkpt><trkpt lat="40.0041571" lon="15.6868628"><ele>82.66666666666667</ele><time>2026-05-01T13:03:24.98Z</time></trkpt><trkpt lat="40.0042629" lon="15.686712"><ele>91.33333333333334</ele><time>2026-05-01T13:03:25.98Z</time></trkpt><trkpt lat="40.004369" lon="15.6865663"><ele>100.0</ele><time>2026-05-01T13:03:26.98Z</time></trkpt><trkpt lat="40.0044885" lon="15.6864372"><ele>100.0</ele><time>2026-05-01T13:03:27.981Z</time></trkpt><trkpt lat="40.004612" lon="15.6863141"><ele>100.0</ele><time>2026-05-01T13:03:28.981Z</time></trkpt><trkpt lat="40.0047283" lon="15.6862043"><ele>100.0</ele><time>2026-05-01T13:03:29.981Z</time></trkpt><trkpt lat="40.0048448" lon="15.6861048"><ele>100.0</ele><time>2026-05-01T13:03:30.98Z</time></trkpt><trkpt lat="40.0049565" lon="15.6859937"><ele>100.5</ele><time>2026-05-01T13:03:31.98Z</time></trkpt><trkpt lat="40.005065" lon="15.6858791"><ele>101.0</ele><time>2026-05-01T13:03:32.981Z</time></trkpt><trkpt lat="40.0051765" lon="15.6857559"><ele>101.5</ele><time>2026-05-01T13:03:33.98Z</time></trkpt><trkpt lat="40.0052901" lon="15.6856426"><ele>102.0</ele><time>2026-05-01T13:03:34.98Z</time></trkpt><trkpt lat="40.0053945" lon="15.6855285"><ele>102.0</ele><time>2026-05-01T13:03:35.98Z</time></trkpt><trkpt lat="40.0054989" lon="15.6854086"><ele>102.0</ele><time>2026-05-01T13:03:36.98Z</time></trkpt><trkpt lat="40.0056191" lon="15.6852961"><ele>102.0</ele><time>2026-05-01T13:03:37.98Z</time></trkpt><trkpt lat="40.005738" lon="15.6851628"><ele>102.0</ele><time>2026-05-01T13:03:38.98Z</time></trkpt><trkpt lat="40.0058423" lon="15.6850027"><ele>102.33333333333334</ele><time>2026-05-01T13:03:39.98Z</time></trkpt><trkpt lat="40.0059475" lon="15.6848245"><ele>102.66666666666667</ele><time>2026-05-01T13:03:40.98Z</time></trkpt><trkpt lat="40.0060614" lon="15.684656"><ele>103.0</ele><time>2026-05-01T13:03:41.981Z</time></trkpt><trkpt lat="40.0061751" lon="15.6844844"><ele>94.0</ele><time>2026-05-01T13:03:42.98Z</time></trkpt><trkpt lat="40.0062879" lon="15.6843112"><ele>85.0</ele><time>2026-05-01T13:03:43.98Z</time></trkpt><trkpt lat="40.0064067" lon="15.6841477"><ele>76.0</ele><time>2026-05-01T13:03:44.98Z</time></trkpt><trkpt lat="40.0065228" lon="15.6839832"><ele>76.0</ele><time>2026-05-01T13:03:45.98Z</time></trkpt><trkpt lat="40.0066484" lon="15.6838263"><ele>76.0</ele><time>2026-05-01T13:03:46.98Z</time></trkpt><trkpt lat="40.0067735" lon="15.6836696"><ele>76.0</ele><time>2026-05-01T13:03:47.981Z</time></trkpt><trkpt lat="40.0068913" lon="15.683516"><ele>82.0</ele><time>2026-05-01T13:03:48.98Z</time></trkpt><trkpt lat="40.007017" lon="15.6833714"><ele>88.0</ele><time>2026-05-01T13:03:49.98Z</time></trkpt><trkpt lat="40.0071436" lon="15.6832183"><ele>94.0</ele><time>2026-05-01T13:03:50.98Z</time></trkpt><trkpt lat="40.0072699" lon="15.6830559"><ele>94.0</ele><time>2026-05-01T13:03:51.98Z</time></trkpt><trkpt lat="40.0073951" lon="15.6828952"><ele>94.0</ele><time>2026-05-01T13:03:52.98Z</time></trkpt><trkpt lat="40.0075197" lon="15.6827349"><ele>94.0</ele><time>2026-05-01T13:03:53.98Z</time></trkpt><trkpt lat="40.0080574" lon="15.682037"><ele>87.0</ele><time>2026-05-01T13:03:59.103Z</time></trkpt><trkpt lat="40.0085725" lon="15.6814709"><ele>87.0</ele><time>2026-05-01T13:04:01.979Z</time></trkpt><trkpt lat="40.0086991" lon="15.6813577"><ele>87.0</ele><time>2026-05-01T13:04:02.979Z</time></trkpt><trkpt lat="40.0088283" lon="15.6813036"><ele>87.0</ele><time>2026-05-01T13:04:03.979Z</time></trkpt><trkpt lat="40.0089409" lon="15.6812355"><ele>87.0</ele><time>2026-05-01T13:04:04.98Z</time></trkpt><trkpt lat="40.009058" lon="15.6811763"><ele>92.6</ele><time>2026-05-01T13:04:05.98Z</time></trkpt><trkpt lat="40.0091641" lon="15.6811124"><ele>98.19999999999999</ele><time>2026-05-01T13:04:06.98Z</time></trkpt><trkpt lat="40.0092609" lon="15.6810558"><ele>103.8</ele><time>2026-05-01T13:04:07.979Z</time></trkpt><trkpt lat="40.0093558" lon="15.6810284"><ele>109.4</ele><time>2026-05-01T13:04:08.979Z</time></trkpt><trkpt lat="40.0094552" lon="15.6809593"><ele>115.0</ele><time>2026-05-01T13:04:09.979Z</time></trkpt><trkpt lat="40.0095503" lon="15.6808782"><ele>106.2</ele><time>2026-05-01T13:04:10.98Z</time></trkpt><trkpt lat="40.0096467" lon="15.6808159"><ele>97.4</ele><time>2026-05-01T13:04:11.979Z</time></trkpt><trkpt lat="40.0097517" lon="15.680775"><ele>88.6</ele><time>2026-05-01T13:04:12.98Z</time></trkpt><trkpt lat="40.00987" lon="15.68078"><ele>79.8</ele><time>2026-05-01T13:04:13.979Z</time></trkpt><trkpt lat="40.0099817" lon="15.6807833"><ele>71.0</ele><time>2026-05-01T13:04:14.98Z</time></trkpt><trkpt lat="40.010095" lon="15.6807783"><ele>71.0</ele><time>2026-05-01T13:04:15.979Z</time></trkpt><trkpt lat="40.0102017" lon="15.6807683"><ele>71.0</ele><time>2026-05-01T13:04:16.979Z</time></trkpt><trkpt lat="40.0102933" lon="15.6807183"><ele>71.0</ele><time>2026-05-01T13:04:17.979Z</time></trkpt><trkpt lat="40.0103767" lon="15.6806283"><ele>71.0</ele><time>2026-05-01T13:04:18.979Z</time></trkpt><trkpt lat="40.0104383" lon="15.6805183"><ele>71.0</ele><time>2026-05-01T13:04:19.979Z</time></trkpt><trkpt lat="40.0104883" lon="15.6804033"><ele>71.0</ele><time>2026-05-01T13:04:20.979Z</time></trkpt><trkpt lat="40.010535" lon="15.68028"><ele>71.0</ele><time>2026-05-01T13:04:21.98Z</time></trkpt><trkpt lat="40.0105917" lon="15.68016"><ele>71.0</ele><time>2026-05-01T13:04:22.979Z</time></trkpt><trkpt lat="40.010685" lon="15.680075"><ele>71.0</ele><time>2026-05-01T13:04:23.98Z</time></trkpt><trkpt lat="40.0107933" lon="15.680015"><ele>71.0</ele><time>2026-05-01T13:04:24.979Z</time></trkpt><trkpt lat="40.0109083" lon="15.6799867"><ele>68.75</ele><time>2026-05-01T13:04:25.979Z</time></trkpt><trkpt lat="40.01103" lon="15.67997"><ele>66.5</ele><time>2026-05-01T13:04:26.979Z</time></trkpt><trkpt lat="40.0111483" lon="15.6799667"><ele>64.25</ele><time>2026-05-01T13:04:27.979Z</time></trkpt><trkpt lat="40.0112633" lon="15.679955"><ele>62.0</ele><time>2026-05-01T13:04:28.98Z</time></trkpt><trkpt lat="40.01139" lon="15.6799433"><ele>62.0</ele><time>2026-05-01T13:04:29.979Z</time></trkpt><trkpt lat="40.0115117" lon="15.6799333"><ele>62.0</ele><time>2026-05-01T13:04:30.979Z</time></trkpt><trkpt lat="40.0116317" lon="15.6799283"><ele>62.0</ele><time>2026-05-01T13:04:31.979Z</time></trkpt><trkpt lat="40.01174" lon="15.6799183"><ele>62.0</ele><time>2026-05-01T13:04:32.979Z</time></trkpt><trkpt lat="40.01185" lon="15.67991"><ele>62.6</ele><time>2026-05-01T13:04:33.98Z</time></trkpt><trkpt lat="40.0119567" lon="15.6799"><ele>63.2</ele><time>2026-05-01T13:04:34.98Z</time></trkpt><trkpt lat="40.012055" lon="15.6798783"><ele>63.8</ele><time>2026-05-01T13:04:35.979Z</time></trkpt><trkpt lat="40.01215" lon="15.679835"><ele>64.4</ele><time>2026-05-01T13:04:36.98Z</time></trkpt><trkpt lat="40.0122317" lon="15.679785"><ele>65.0</ele><time>2026-05-01T13:04:37.98Z</time></trkpt><trkpt lat="40.0123117" lon="15.6797317"><ele>65.0</ele><time>2026-05-01T13:04:38.979Z</time></trkpt><trkpt lat="40.0123867" lon="15.67967"><ele>65.0</ele><time>2026-05-01T13:04:39.98Z</time></trkpt><trkpt lat="40.0124633" lon="15.679605"><ele>65.0</ele><time>2026-05-01T13:04:40.98Z</time></trkpt><trkpt lat="40.01254" lon="15.6795283"><ele>65.0</ele><time>2026-05-01T13:04:41.98Z</time></trkpt><trkpt lat="40.0126233" lon="15.6794533"><ele>65.0</ele><time>2026-05-01T13:04:42.979Z</time></trkpt><trkpt lat="40.0127183" lon="15.6793783"><ele>62.8</ele><time>2026-05-01T13:04:43.979Z</time></trkpt><trkpt lat="40.01282" lon="15.679325"><ele>60.6</ele><time>2026-05-01T13:04:44.979Z</time></trkpt><trkpt lat="40.012925" lon="15.67929"><ele>58.400000000000006</ele><time>2026-05-01T13:04:45.979Z</time></trkpt><trkpt lat="40.0130217" lon="15.6792617"><ele>56.2</ele><time>2026-05-01T13:04:46.979Z</time></trkpt><trkpt lat="40.0131183" lon="15.6792383"><ele>54.0</ele><time>2026-05-01T13:04:47.979Z</time></trkpt><trkpt lat="40.01321" lon="15.6792267"><ele>54.0</ele><time>2026-05-01T13:04:48.979Z</time></trkpt><trkpt lat="40.0132983" lon="15.6792233"><ele>54.0</ele><time>2026-05-01T13:04:49.98Z</time></trkpt><trkpt lat="40.01338" lon="15.67922"><ele>54.0</ele><time>2026-05-01T13:04:50.98Z</time></trkpt><trkpt lat="40.0134617" lon="15.679215"><ele>54.0</ele><time>2026-05-01T13:04:51.979Z</time></trkpt><trkpt lat="40.0135383" lon="15.6792067"><ele>54.0</ele><time>2026-05-01T13:04:52.979Z</time></trkpt><trkpt lat="40.0136133" lon="15.6791883"><ele>54.0</ele><time>2026-05-01T13:04:53.98Z</time></trkpt><trkpt lat="40.0136983" lon="15.67917"><ele>55.166666666666664</ele><time>2026-05-01T13:04:54.979Z</time></trkpt><trkpt lat="40.01379" lon="15.6791533"><ele>56.33333333333333</ele><time>2026-05-01T13:04:55.98Z</time></trkpt><trkpt lat="40.0138717" lon="15.679145"><ele>57.5</ele><time>2026-05-01T13:04:56.98Z</time></trkpt><trkpt lat="40.013955" lon="15.6791317"><ele>58.666666666666664</ele><time>2026-05-01T13:04:57.979Z</time></trkpt><trkpt lat="40.0140483" lon="15.6791217"><ele>59.83333333333333</ele><time>2026-05-01T13:04:58.979Z</time></trkpt><trkpt lat="40.01412" lon="15.6791217"><ele>61.0</ele><time>2026-05-01T13:04:59.979Z</time></trkpt><trkpt lat="40.0141917" lon="15.6791217"><ele>61.0</ele><time>2026-05-01T13:05:01.98Z</time></trkpt><trkpt lat="40.01429" lon="15.67914"><ele>60.99999999999999</ele><time>2026-05-01T13:05:09.979Z</time></trkpt><trkpt lat="40.0143733" lon="15.6791583"><ele>60.99999999999999</ele><time>2026-05-01T13:05:10.979Z</time></trkpt><trkpt lat="40.0144733" lon="15.679195"><ele>61.0</ele><time>2026-05-01T13:05:11.979Z</time></trkpt><trkpt lat="40.0146033" lon="15.679225"><ele>61.0</ele><time>2026-05-01T13:05:12.979Z</time></trkpt><trkpt lat="40.01474" lon="15.6792367"><ele>61.0</ele><time>2026-05-01T13:05:13.98Z</time></trkpt><trkpt lat="40.0148817" lon="15.67923"><ele>61.0</ele><time>2026-05-01T13:05:14.98Z</time></trkpt><trkpt lat="40.0150033" lon="15.6791833"><ele>61.0</ele><time>2026-05-01T13:05:15.98Z</time></trkpt><trkpt lat="40.0151283" lon="15.6791"><ele>61.0</ele><time>2026-05-01T13:05:16.98Z</time></trkpt><trkpt lat="40.0152233" lon="15.678995"><ele>60.5</ele><time>2026-05-01T13:05:17.98Z</time></trkpt><trkpt lat="40.0153167" lon="15.6788917"><ele>60.0</ele><time>2026-05-01T13:05:18.979Z</time></trkpt><trkpt lat="40.0154133" lon="15.6788217"><ele>59.5</ele><time>2026-05-01T13:05:19.979Z</time></trkpt><trkpt lat="40.015505" lon="15.67871"><ele>59.0</ele><time>2026-05-01T13:05:20.979Z</time></trkpt><trkpt lat="40.0155883" lon="15.678605"><ele>58.0</ele><time>2026-05-01T13:05:21.979Z</time></trkpt><trkpt lat="40.0156733" lon="15.6785083"><ele>57.00000000000001</ele><time>2026-05-01T13:05:22.979Z</time></trkpt><trkpt lat="40.0157483" lon="15.6784117"><ele>56.00000000000001</ele><time>2026-05-01T13:05:23.979Z</time></trkpt><trkpt lat="40.0158367" lon="15.6783133"><ele>55.0</ele><time>2026-05-01T13:05:24.979Z</time></trkpt><trkpt lat="40.0159217" lon="15.6782267"><ele>54.0</ele><time>2026-05-01T13:05:25.98Z</time></trkpt><trkpt lat="40.016005" lon="15.6781467"><ele>54.0</ele><time>2026-05-01T13:05:26.979Z</time></trkpt><trkpt lat="40.0160917" lon="15.6780917"><ele>54.00000000000001</ele><time>2026-05-01T13:05:27.98Z</time></trkpt><trkpt lat="40.0161833" lon="15.6780633"><ele>54.00000000000001</ele><time>2026-05-01T13:05:28.979Z</time></trkpt><trkpt lat="40.0163017" lon="15.6780733"><ele>54.0</ele><time>2026-05-01T13:05:29.98Z</time></trkpt><trkpt lat="40.01642" lon="15.6781067"><ele>54.0</ele><time>2026-05-01T13:05:30.979Z</time></trkpt><trkpt lat="40.0165483" lon="15.6781483"><ele>55.75</ele><time>2026-05-01T13:05:31.979Z</time></trkpt><trkpt lat="40.0166767" lon="15.6781967"><ele>57.5</ele><time>2026-05-01T13:05:32.979Z</time></trkpt><trkpt lat="40.016795" lon="15.6782417"><ele>59.25</ele><time>2026-05-01T13:05:33.979Z</time></trkpt><trkpt lat="40.0169117" lon="15.6782933"><ele>61.0</ele><time>2026-05-01T13:05:34.979Z</time></trkpt><trkpt lat="40.0170317" lon="15.6783267"><ele>61.0</ele><time>2026-05-01T13:05:35.98Z</time></trkpt><trkpt lat="40.0171583" lon="15.6783683"><ele>61.0</ele><time>2026-05-01T13:05:36.979Z</time></trkpt><trkpt lat="40.0172983" lon="15.6784017"><ele>61.0</ele><time>2026-05-01T13:05:37.98Z</time></trkpt><trkpt lat="40.0174483" lon="15.6784217"><ele>61.0</ele><time>2026-05-01T13:05:38.979Z</time></trkpt><trkpt lat="40.0176017" lon="15.6784367"><ele>61.0</ele><time>2026-05-01T13:05:39.979Z</time></trkpt><trkpt lat="40.0177367" lon="15.67843"><ele>61.0</ele><time>2026-05-01T13:05:40.98Z</time></trkpt><trkpt lat="40.0178683" lon="15.678415"><ele>61.0</ele><time>2026-05-01T13:05:41.979Z</time></trkpt><trkpt lat="40.0179833" lon="15.678375"><ele>61.0</ele><time>2026-05-01T13:05:42.98Z</time></trkpt><trkpt lat="40.0180833" lon="15.6783167"><ele>61.0</ele><time>2026-05-01T13:05:43.98Z</time></trkpt><trkpt lat="40.018185" lon="15.67824"><ele>60.99999999999999</ele><time>2026-05-01T13:05:44.979Z</time></trkpt><trkpt lat="40.0182783" lon="15.6781817"><ele>60.99999999999999</ele><time>2026-05-01T13:05:45.979Z</time></trkpt><trkpt lat="40.018365" lon="15.678145"><ele>61.0</ele><time>2026-05-01T13:05:46.98Z</time></trkpt><trkpt lat="40.0184617" lon="15.678155"><ele>61.0</ele><time>2026-05-01T13:05:47.979Z</time></trkpt><trkpt lat="40.0185633" lon="15.6781867"><ele>62.25</ele><time>2026-05-01T13:05:48.98Z</time></trkpt><trkpt lat="40.01868" lon="15.6782083"><ele>63.5</ele><time>2026-05-01T13:05:49.979Z</time></trkpt><trkpt lat="40.0187983" lon="15.678205"><ele>64.75</ele><time>2026-05-01T13:05:50.98Z</time></trkpt><trkpt lat="40.0189233" lon="15.6781617"><ele>66.0</ele><time>2026-05-01T13:05:51.979Z</time></trkpt><trkpt lat="40.019035" lon="15.6781017"><ele>61.75</ele><time>2026-05-01T13:05:52.98Z</time></trkpt><trkpt lat="40.019155" lon="15.6780167"><ele>57.5</ele><time>2026-05-01T13:05:53.979Z</time></trkpt><trkpt lat="40.0192733" lon="15.6779183"><ele>53.25</ele><time>2026-05-01T13:05:54.98Z</time></trkpt><trkpt lat="40.019395" lon="15.6778133"><ele>49.0</ele><time>2026-05-01T13:05:55.979Z</time></trkpt><trkpt lat="40.01951" lon="15.6777"><ele>49.0</ele><time>2026-05-01T13:05:56.979Z</time></trkpt><trkpt lat="40.0196333" lon="15.6775767"><ele>49.0</ele><time>2026-05-01T13:05:57.979Z</time></trkpt><trkpt lat="40.0197617" lon="15.6774533"><ele>49.0</ele><time>2026-05-01T13:05:58.979Z</time></trkpt><trkpt lat="40.0198833" lon="15.6773283"><ele>46.0</ele><time>2026-05-01T13:05:59.979Z</time></trkpt><trkpt lat="40.0200017" lon="15.6771983"><ele>43.0</ele><time>2026-05-01T13:06:00.979Z</time></trkpt><trkpt lat="40.0201083" lon="15.6770783"><ele>40.0</ele><time>2026-05-01T13:06:01.979Z</time></trkpt><trkpt lat="40.0202117" lon="15.676985"><ele>37.0</ele><time>2026-05-01T13:06:02.979Z</time></trkpt><trkpt lat="40.02031" lon="15.676895"><ele>37.0</ele><time>2026-05-01T13:06:03.979Z</time></trkpt><trkpt lat="40.0204033" lon="15.67683"><ele>37.0</ele><time>2026-05-01T13:06:04.98Z</time></trkpt><trkpt lat="40.020485" lon="15.676795"><ele>37.0</ele><time>2026-05-01T13:06:05.979Z</time></trkpt><trkpt lat="40.0205683" lon="15.6768017"><ele>37.0</ele><time>2026-05-01T13:06:06.979Z</time></trkpt><trkpt lat="40.0206417" lon="15.676845"><ele>37.0</ele><time>2026-05-01T13:06:07.98Z</time></trkpt><trkpt lat="40.0207183" lon="15.6769033"><ele>37.0</ele><time>2026-05-01T13:06:08.979Z</time></trkpt><trkpt lat="40.020805" lon="15.676965"><ele>50.25</ele><time>2026-05-01T13:06:09.979Z</time></trkpt><trkpt lat="40.0208917" lon="15.6770483"><ele>63.5</ele><time>2026-05-01T13:06:10.979Z</time></trkpt><trkpt lat="40.0209833" lon="15.677145"><ele>76.75</ele><time>2026-05-01T13:06:11.98Z</time></trkpt><trkpt lat="40.0210817" lon="15.67723"><ele>90.0</ele><time>2026-05-01T13:06:12.98Z</time></trkpt><trkpt lat="40.021165" lon="15.6773233"><ele>90.0</ele><time>2026-05-01T13:06:13.979Z</time></trkpt><trkpt lat="40.02126" lon="15.6774083"><ele>90.0</ele><time>2026-05-01T13:06:14.979Z</time></trkpt><trkpt lat="40.0213517" lon="15.6775"><ele>90.0</ele><time>2026-05-01T13:06:15.98Z</time></trkpt><trkpt lat="40.0214283" lon="15.677575"><ele>90.0</ele><time>2026-05-01T13:06:16.98Z</time></trkpt><trkpt lat="40.0214717" lon="15.677675"><ele>90.0</ele><time>2026-05-01T13:06:17.979Z</time></trkpt><trkpt lat="40.0215167" lon="15.67776"><ele>89.8</ele><time>2026-05-01T13:06:18.979Z</time></trkpt><trkpt lat="40.0215867" lon="15.6778217"><ele>89.6</ele><time>2026-05-01T13:06:19.979Z</time></trkpt><trkpt lat="40.021685" lon="15.6778583"><ele>89.4</ele><time>2026-05-01T13:06:20.98Z</time></trkpt><trkpt lat="40.021805" lon="15.677885"><ele>89.2</ele><time>2026-05-01T13:06:21.98Z</time></trkpt><trkpt lat="40.0219217" lon="15.6778933"><ele>89.0</ele><time>2026-05-01T13:06:22.979Z</time></trkpt><trkpt lat="40.0220333" lon="15.6778917"><ele>89.0</ele><time>2026-05-01T13:06:23.979Z</time></trkpt><trkpt lat="40.02214" lon="15.6778717"><ele>89.0</ele><time>2026-05-01T13:06:24.98Z</time></trkpt><trkpt lat="40.0222517" lon="15.6778517"><ele>89.0</ele><time>2026-05-01T13:06:25.979Z</time></trkpt><trkpt lat="40.022365" lon="15.6778367"><ele>89.0</ele><time>2026-05-01T13:06:26.979Z</time></trkpt><trkpt lat="40.0224717" lon="15.6778217"><ele>89.0</ele><time>2026-05-01T13:06:27.979Z</time></trkpt><trkpt lat="40.022585" lon="15.6778233"><ele>89.2</ele><time>2026-05-01T13:06:28.979Z</time></trkpt><trkpt lat="40.0226967" lon="15.67785"><ele>89.4</ele><time>2026-05-01T13:06:29.98Z</time></trkpt><trkpt lat="40.0227983" lon="15.6778783"><ele>89.6</ele><time>2026-05-01T13:06:30.979Z</time></trkpt><trkpt lat="40.0229117" lon="15.677925"><ele>89.8</ele><time>2026-05-01T13:06:31.98Z</time></trkpt><trkpt lat="40.02301" lon="15.677965"><ele>90.0</ele><time>2026-05-01T13:06:32.979Z</time></trkpt><trkpt lat="40.0231033" lon="15.6780033"><ele>90.0</ele><time>2026-05-01T13:06:33.979Z</time></trkpt><trkpt lat="40.0232017" lon="15.67803"><ele>90.0</ele><time>2026-05-01T13:06:34.98Z</time></trkpt><trkpt lat="40.023295" lon="15.6780417"><ele>90.0</ele><time>2026-05-01T13:06:35.979Z</time></trkpt><trkpt lat="40.02339" lon="15.6780417"><ele>90.0</ele><time>2026-05-01T13:06:36.979Z</time></trkpt><trkpt lat="40.0234833" lon="15.6780383"><ele>90.0</ele><time>2026-05-01T13:06:37.979Z</time></trkpt><trkpt lat="40.023585" lon="15.67803"><ele>90.0</ele><time>2026-05-01T13:06:38.98Z</time></trkpt><trkpt lat="40.0236817" lon="15.678015"><ele>90.0</ele><time>2026-05-01T13:06:39.98Z</time></trkpt><trkpt lat="40.0237683" lon="15.6779983"><ele>90.0</ele><time>2026-05-01T13:06:40.98Z</time></trkpt><trkpt lat="40.023855" lon="15.6779767"><ele>90.0</ele><time>2026-05-01T13:06:41.98Z</time></trkpt><trkpt lat="40.0239433" lon="15.6779583"><ele>90.0</ele><time>2026-05-01T13:06:42.98Z</time></trkpt><trkpt lat="40.0240333" lon="15.6779367"><ele>90.0</ele><time>2026-05-01T13:06:43.979Z</time></trkpt><trkpt lat="40.024125" lon="15.6779233"><ele>90.0</ele><time>2026-05-01T13:06:44.979Z</time></trkpt><trkpt lat="40.02422" lon="15.67791"><ele>90.0</ele><time>2026-05-01T13:06:45.98Z</time></trkpt><trkpt lat="40.0243117" lon="15.6779167"><ele>90.0</ele><time>2026-05-01T13:06:46.98Z</time></trkpt><trkpt lat="40.0244017" lon="15.677935"><ele>90.0</ele><time>2026-05-01T13:06:47.979Z</time></trkpt><trkpt lat="40.024485" lon="15.6779417"><ele>90.42857142857143</ele><time>2026-05-01T13:06:48.98Z</time></trkpt><trkpt lat="40.0245617" lon="15.6779367"><ele>90.85714285714286</ele><time>2026-05-01T13:06:49.98Z</time></trkpt><trkpt lat="40.0246367" lon="15.677925"><ele>91.28571428571429</ele><time>2026-05-01T13:06:50.979Z</time></trkpt><trkpt lat="40.0247067" lon="15.677915"><ele>91.71428571428572</ele><time>2026-05-01T13:06:51.979Z</time></trkpt><trkpt lat="40.0247767" lon="15.67791"><ele>92.14285714285714</ele><time>2026-05-01T13:06:52.979Z</time></trkpt><trkpt lat="40.024845" lon="15.6779033"><ele>92.57142857142858</ele><time>2026-05-01T13:06:53.979Z</time></trkpt><trkpt lat="40.0249167" lon="15.6778883"><ele>93.0</ele><time>2026-05-01T13:06:54.98Z</time></trkpt><trkpt lat="40.02499" lon="15.67787"><ele>93.5</ele><time>2026-05-01T13:06:55.979Z</time></trkpt><trkpt lat="40.0250617" lon="15.677865"><ele>94.0</ele><time>2026-05-01T13:06:56.979Z</time></trkpt><trkpt lat="40.0251467" lon="15.6778667"><ele>94.5</ele><time>2026-05-01T13:06:57.979Z</time></trkpt><trkpt lat="40.02523" lon="15.6778617"><ele>95.0</ele><time>2026-05-01T13:06:58.98Z</time></trkpt><trkpt lat="40.02531" lon="15.677865"><ele>95.5</ele><time>2026-05-01T13:06:59.979Z</time></trkpt><trkpt lat="40.025385" lon="15.6778817"><ele>96.0</ele><time>2026-05-01T13:07:00.979Z</time></trkpt><trkpt lat="40.0254617" lon="15.6779017"><ele>95.99999999999999</ele><time>2026-05-01T13:07:01.979Z</time></trkpt><trkpt lat="40.0255267" lon="15.6779267"><ele>96.0</ele><time>2026-05-01T13:07:02.979Z</time></trkpt><trkpt lat="40.0255767" lon="15.677985"><ele>96.0</ele><time>2026-05-01T13:07:03.979Z</time></trkpt><trkpt lat="40.0256267" lon="15.6780533"><ele>96.0</ele><time>2026-05-01T13:07:04.979Z</time></trkpt><trkpt lat="40.0256767" lon="15.6781133"><ele>96.0</ele><time>2026-05-01T13:07:05.98Z</time></trkpt><trkpt lat="40.0257367" lon="15.67816"><ele>95.99999999999999</ele><time>2026-05-01T13:07:06.979Z</time></trkpt><trkpt lat="40.025805" lon="15.6782033"><ele>96.0</ele><time>2026-05-01T13:07:07.979Z</time></trkpt><trkpt lat="40.0258867" lon="15.6782433"><ele>93.8</ele><time>2026-05-01T13:07:08.98Z</time></trkpt><trkpt lat="40.0259733" lon="15.6782917"><ele>91.6</ele><time>2026-05-01T13:07:09.98Z</time></trkpt><trkpt lat="40.0260667" lon="15.6783333"><ele>89.4</ele><time>2026-05-01T13:07:10.979Z</time></trkpt><trkpt lat="40.026165" lon="15.6783683"><ele>87.2</ele><time>2026-05-01T13:07:11.979Z</time></trkpt><trkpt lat="40.0262533" lon="15.678395"><ele>85.0</ele><time>2026-05-01T13:07:12.98Z</time></trkpt><trkpt lat="40.0263433" lon="15.67842"><ele>85.0</ele><time>2026-05-01T13:07:13.979Z</time></trkpt><trkpt lat="40.0264283" lon="15.6784467"><ele>85.0</ele><time>2026-05-01T13:07:14.98Z</time></trkpt><trkpt lat="40.02651" lon="15.678475"><ele>85.0</ele><time>2026-05-01T13:07:15.98Z</time></trkpt><trkpt lat="40.026595" lon="15.678505"><ele>85.0</ele><time>2026-05-01T13:07:16.979Z</time></trkpt><trkpt lat="40.02668" lon="15.6785367"><ele>85.0</ele><time>2026-05-01T13:07:17.98Z</time></trkpt><trkpt lat="40.0267667" lon="15.6785667"><ele>85.0</ele><time>2026-05-01T13:07:18.979Z</time></trkpt><trkpt lat="40.0268533" lon="15.6786083"><ele>87.0</ele><time>2026-05-01T13:07:19.979Z</time></trkpt><trkpt lat="40.0269133" lon="15.6786683"><ele>89.0</ele><time>2026-05-01T13:07:20.979Z</time></trkpt><trkpt lat="40.0269583" lon="15.6787583"><ele>91.0</ele><time>2026-05-01T13:07:21.979Z</time></trkpt><trkpt lat="40.0269917" lon="15.678865"><ele>93.0</ele><time>2026-05-01T13:07:22.98Z</time></trkpt><trkpt lat="40.02702" lon="15.6789683"><ele>95.00000000000001</ele><time>2026-05-01T13:07:23.979Z</time></trkpt><trkpt lat="40.0270367" lon="15.6790783"><ele>97.0</ele><time>2026-05-01T13:07:24.98Z</time></trkpt><trkpt lat="40.0270533" lon="15.67918"><ele>97.0</ele><time>2026-05-01T13:07:25.979Z</time></trkpt><trkpt lat="40.0270783" lon="15.6792867"><ele>97.0</ele><time>2026-05-01T13:07:26.98Z</time></trkpt><trkpt lat="40.02711" lon="15.679395"><ele>97.0</ele><time>2026-05-01T13:07:27.979Z</time></trkpt><trkpt lat="40.0271467" lon="15.6795017"><ele>97.0</ele><time>2026-05-01T13:07:28.979Z</time></trkpt><trkpt lat="40.02719" lon="15.679615"><ele>97.0</ele><time>2026-05-01T13:07:29.979Z</time></trkpt><trkpt lat="40.0272283" lon="15.6797217"><ele>95.66666666666667</ele><time>2026-05-01T13:07:30.98Z</time></trkpt><trkpt lat="40.027275" lon="15.67981"><ele>94.33333333333334</ele><time>2026-05-01T13:07:31.979Z</time></trkpt><trkpt lat="40.0273267" lon="15.6798633"><ele>93.0</ele><time>2026-05-01T13:07:32.979Z</time></trkpt><trkpt lat="40.02739" lon="15.6798783"><ele>91.66666666666667</ele><time>2026-05-01T13:07:33.979Z</time></trkpt><trkpt lat="40.0274733" lon="15.6798783"><ele>90.33333333333334</ele><time>2026-05-01T13:07:34.979Z</time></trkpt><trkpt lat="40.0275517" lon="15.67984"><ele>89.0</ele><time>2026-05-01T13:07:35.98Z</time></trkpt><trkpt lat="40.0276233" lon="15.67978"><ele>89.0</ele><time>2026-05-01T13:07:36.979Z</time></trkpt><trkpt lat="40.02769" lon="15.67969"><ele>89.0</ele><time>2026-05-01T13:07:37.979Z</time></trkpt><trkpt lat="40.02773" lon="15.6795867"><ele>89.0</ele><time>2026-05-01T13:07:38.98Z</time></trkpt><trkpt lat="40.0277683" lon="15.6794917"><ele>89.0</ele><time>2026-05-01T13:07:39.979Z</time></trkpt><trkpt lat="40.0278183" lon="15.6794217"><ele>89.0</ele><time>2026-05-01T13:07:40.979Z</time></trkpt><trkpt lat="40.0278817" lon="15.67939"><ele>89.0</ele><time>2026-05-01T13:07:41.98Z</time></trkpt><trkpt lat="40.027955" lon="15.6793833"><ele>86.0</ele><time>2026-05-01T13:07:42.98Z</time></trkpt><trkpt lat="40.02804" lon="15.6793817"><ele>83.0</ele><time>2026-05-01T13:07:43.979Z</time></trkpt><trkpt lat="40.0281383" lon="15.679385"><ele>80.0</ele><time>2026-05-01T13:07:44.979Z</time></trkpt><trkpt lat="40.0282383" lon="15.6793783"><ele>77.0</ele><time>2026-05-01T13:07:45.979Z</time></trkpt><trkpt lat="40.028345" lon="15.6793717"><ele>74.0</ele><time>2026-05-01T13:07:46.979Z</time></trkpt><trkpt lat="40.028465" lon="15.6793567"><ele>74.0</ele><time>2026-05-01T13:07:47.979Z</time></trkpt><trkpt lat="40.0285883" lon="15.679345"><ele>74.0</ele><time>2026-05-01T13:07:48.98Z</time></trkpt><trkpt lat="40.0287133" lon="15.6793483"><ele>74.0</ele><time>2026-05-01T13:07:49.979Z</time></trkpt><trkpt lat="40.0288367" lon="15.679355"><ele>74.0</ele><time>2026-05-01T13:07:50.979Z</time></trkpt><trkpt lat="40.0289583" lon="15.6793417"><ele>74.0</ele><time>2026-05-01T13:07:51.979Z</time></trkpt><trkpt lat="40.02907" lon="15.679325"><ele>74.0</ele><time>2026-05-01T13:07:52.979Z</time></trkpt><trkpt lat="40.0291767" lon="15.6793117"><ele>74.0</ele><time>2026-05-01T13:07:53.979Z</time></trkpt><trkpt lat="40.0292717" lon="15.6793017"><ele>74.0</ele><time>2026-05-01T13:07:54.98Z</time></trkpt><trkpt lat="40.0293667" lon="15.6792983"><ele>74.0</ele><time>2026-05-01T13:07:55.98Z</time></trkpt><trkpt lat="40.0294567" lon="15.679285"><ele>74.60000000000001</ele><time>2026-05-01T13:07:56.979Z</time></trkpt><trkpt lat="40.0295533" lon="15.67928"><ele>75.2</ele><time>2026-05-01T13:07:57.979Z</time></trkpt><trkpt lat="40.0296433" lon="15.6792717"><ele>75.80000000000001</ele><time>2026-05-01T13:07:58.98Z</time></trkpt><trkpt lat="40.0297367" lon="15.67926"><ele>76.4</ele><time>2026-05-01T13:07:59.979Z</time></trkpt><trkpt lat="40.0298333" lon="15.67926"><ele>77.0</ele><time>2026-05-01T13:08:00.979Z</time></trkpt><trkpt lat="40.029935" lon="15.67927"><ele>76.2</ele><time>2026-05-01T13:08:01.98Z</time></trkpt><trkpt lat="40.0300517" lon="15.6792867"><ele>75.4</ele><time>2026-05-01T13:08:02.979Z</time></trkpt><trkpt lat="40.03017" lon="15.6793217"><ele>74.6</ele><time>2026-05-01T13:08:03.98Z</time></trkpt><trkpt lat="40.03026" lon="15.6793533"><ele>73.8</ele><time>2026-05-01T13:08:04.98Z</time></trkpt><trkpt lat="40.0303533" lon="15.6793717"><ele>73.0</ele><time>2026-05-01T13:08:05.98Z</time></trkpt><trkpt lat="40.0304417" lon="15.6793533"><ele>73.0</ele><time>2026-05-01T13:08:06.979Z</time></trkpt><trkpt lat="40.03051" lon="15.67932"><ele>73.0</ele><time>2026-05-01T13:08:07.98Z</time></trkpt><trkpt lat="40.0305667" lon="15.679275"><ele>73.0</ele><time>2026-05-01T13:08:08.979Z</time></trkpt><trkpt lat="40.03061" lon="15.6791933"><ele>73.0</ele><time>2026-05-01T13:08:09.98Z</time></trkpt><trkpt lat="40.0306367" lon="15.6790867"><ele>73.0</ele><time>2026-05-01T13:08:10.98Z</time></trkpt><trkpt lat="40.030645" lon="15.6789717"><ele>73.0</ele><time>2026-05-01T13:08:11.979Z</time></trkpt><trkpt lat="40.0306667" lon="15.6788533"><ele>73.0</ele><time>2026-05-01T13:08:12.979Z</time></trkpt><trkpt lat="40.0307033" lon="15.6787333"><ele>73.0</ele><time>2026-05-01T13:08:13.98Z</time></trkpt><trkpt lat="40.0307617" lon="15.6785933"><ele>73.0</ele><time>2026-05-01T13:08:14.979Z</time></trkpt><trkpt lat="40.0308333" lon="15.6784567"><ele>73.0</ele><time>2026-05-01T13:08:15.979Z</time></trkpt><trkpt lat="40.030895" lon="15.6783233"><ele>73.2</ele><time>2026-05-01T13:08:16.98Z</time></trkpt><trkpt lat="40.0309533" lon="15.6782033"><ele>73.4</ele><time>2026-05-01T13:08:17.98Z</time></trkpt><trkpt lat="40.0310133" lon="15.6781033"><ele>73.60000000000001</ele><time>2026-05-01T13:08:18.979Z</time></trkpt><trkpt lat="40.0310817" lon="15.678005"><ele>73.8</ele><time>2026-05-01T13:08:19.98Z</time></trkpt><trkpt lat="40.0311733" lon="15.6779033"><ele>74.0</ele><time>2026-05-01T13:08:20.979Z</time></trkpt><trkpt lat="40.0312683" lon="15.67781"><ele>73.0</ele><time>2026-05-01T13:08:21.98Z</time></trkpt><trkpt lat="40.0313683" lon="15.6777283"><ele>72.0</ele><time>2026-05-01T13:08:22.979Z</time></trkpt><trkpt lat="40.0314667" lon="15.6776383"><ele>71.0</ele><time>2026-05-01T13:08:23.98Z</time></trkpt><trkpt lat="40.031555" lon="15.6775583"><ele>70.0</ele><time>2026-05-01T13:08:24.979Z</time></trkpt><trkpt lat="40.0316417" lon="15.677485"><ele>69.0</ele><time>2026-05-01T13:08:25.979Z</time></trkpt><trkpt lat="40.031725" lon="15.6774167"><ele>69.0</ele><time>2026-05-01T13:08:26.98Z</time></trkpt><trkpt lat="40.0318133" lon="15.6773617"><ele>69.0</ele><time>2026-05-01T13:08:27.979Z</time></trkpt><trkpt lat="40.0319067" lon="15.6773367"><ele>69.0</ele><time>2026-05-01T13:08:28.979Z</time></trkpt><trkpt lat="40.032" lon="15.6773433"><ele>69.0</ele><time>2026-05-01T13:08:29.979Z</time></trkpt><trkpt lat="40.0320867" lon="15.677375"><ele>69.0</ele><time>2026-05-01T13:08:30.979Z</time></trkpt><trkpt lat="40.0321667" lon="15.6773833"><ele>69.0</ele><time>2026-05-01T13:08:31.979Z</time></trkpt><trkpt lat="40.0322267" lon="15.677355"><ele>69.0</ele><time>2026-05-01T13:08:32.98Z</time></trkpt><trkpt lat="40.0322767" lon="15.67729"><ele>69.0</ele><time>2026-05-01T13:08:33.98Z</time></trkpt><trkpt lat="40.032315" lon="15.6772017"><ele>69.0</ele><time>2026-05-01T13:08:34.979Z</time></trkpt><trkpt lat="40.0323417" lon="15.6770883"><ele>69.0</ele><time>2026-05-01T13:08:35.98Z</time></trkpt><trkpt lat="40.0323467" lon="15.6769667"><ele>69.0</ele><time>2026-05-01T13:08:36.979Z</time></trkpt><trkpt lat="40.032315" lon="15.676855"><ele>66.25</ele><time>2026-05-01T13:08:37.98Z</time></trkpt><trkpt lat="40.0322683" lon="15.6767417"><ele>63.5</ele><time>2026-05-01T13:08:38.979Z</time></trkpt><trkpt lat="40.032185" lon="15.6766067"><ele>60.75</ele><time>2026-05-01T13:08:39.979Z</time></trkpt><trkpt lat="40.0320867" lon="15.67647"><ele>58.0</ele><time>2026-05-01T13:08:40.979Z</time></trkpt><trkpt lat="40.03199" lon="15.6763583"><ele>57.99999999999999</ele><time>2026-05-01T13:08:41.979Z</time></trkpt><trkpt lat="40.0319133" lon="15.6762717"><ele>58.0</ele><time>2026-05-01T13:08:42.979Z</time></trkpt><trkpt lat="40.0318317" lon="15.676205"><ele>58.0</ele><time>2026-05-01T13:08:43.979Z</time></trkpt><trkpt lat="40.031765" lon="15.6761367"><ele>58.0</ele><time>2026-05-01T13:08:44.979Z</time></trkpt><trkpt lat="40.0317117" lon="15.6760717"><ele>57.99999999999999</ele><time>2026-05-01T13:08:45.98Z</time></trkpt><trkpt lat="40.0316683" lon="15.6760067"><ele>58.0</ele><time>2026-05-01T13:08:46.98Z</time></trkpt><trkpt lat="40.03163" lon="15.6759283"><ele>52.6</ele><time>2026-05-01T13:08:47.979Z</time></trkpt><trkpt lat="40.0316033" lon="15.6758483"><ele>47.199999999999996</ele><time>2026-05-01T13:08:48.979Z</time></trkpt><trkpt lat="40.0315617" lon="15.6757117"><ele>41.8</ele><time>2026-05-01T13:08:50.979Z</time></trkpt><trkpt lat="40.0315267" lon="15.6755567"><ele>36.4</ele><time>2026-05-01T13:08:52.98Z</time></trkpt><trkpt lat="40.03148" lon="15.675395"><ele>31.0</ele><time>2026-05-01T13:08:54.979Z</time></trkpt><trkpt lat="40.031445" lon="15.675315"><ele>33.0</ele><time>2026-05-01T13:08:55.979Z</time></trkpt><trkpt lat="40.0314083" lon="15.6752267"><ele>35.0</ele><time>2026-05-01T13:08:56.979Z</time></trkpt><trkpt lat="40.031375" lon="15.6751417"><ele>37.0</ele><time>2026-05-01T13:08:57.979Z</time></trkpt><trkpt lat="40.03135" lon="15.6750567"><ele>39.0</ele><time>2026-05-01T13:08:58.979Z</time></trkpt><trkpt lat="40.0313283" lon="15.6749617"><ele>41.0</ele><time>2026-05-01T13:08:59.98Z</time></trkpt><trkpt lat="40.0313067" lon="15.6748633"><ele>43.0</ele><time>2026-05-01T13:09:00.979Z</time></trkpt><trkpt lat="40.0312833" lon="15.6747583"><ele>43.0</ele><time>2026-05-01T13:09:01.98Z</time></trkpt><trkpt lat="40.0312717" lon="15.674655"><ele>43.0</ele><time>2026-05-01T13:09:02.98Z</time></trkpt><trkpt lat="40.0312783" lon="15.6745517"><ele>43.0</ele><time>2026-05-01T13:09:03.979Z</time></trkpt><trkpt lat="40.0312867" lon="15.67443"><ele>43.0</ele><time>2026-05-01T13:09:04.979Z</time></trkpt><trkpt lat="40.0313033" lon="15.6743083"><ele>43.0</ele><time>2026-05-01T13:09:05.98Z</time></trkpt><trkpt lat="40.0313233" lon="15.67419"><ele>43.0</ele><time>2026-05-01T13:09:06.979Z</time></trkpt><trkpt lat="40.03135" lon="15.6740717"><ele>44.2</ele><time>2026-05-01T13:09:07.979Z</time></trkpt><trkpt lat="40.0313717" lon="15.673965"><ele>45.4</ele><time>2026-05-01T13:09:08.979Z</time></trkpt><trkpt lat="40.0313833" lon="15.6738433"><ele>46.6</ele><time>2026-05-01T13:09:09.979Z</time></trkpt><trkpt lat="40.0313933" lon="15.6737217"><ele>47.800000000000004</ele><time>2026-05-01T13:09:10.979Z</time></trkpt><trkpt lat="40.031405" lon="15.6736033"><ele>49.0</ele><time>2026-05-01T13:09:11.98Z</time></trkpt><trkpt lat="40.0314217" lon="15.673485"><ele>49.400000000000006</ele><time>2026-05-01T13:09:12.98Z</time></trkpt><trkpt lat="40.0314317" lon="15.67336"><ele>49.8</ele><time>2026-05-01T13:09:13.979Z</time></trkpt><trkpt lat="40.0314483" lon="15.67324"><ele>50.2</ele><time>2026-05-01T13:09:14.979Z</time></trkpt><trkpt lat="40.03147" lon="15.6731233"><ele>50.599999999999994</ele><time>2026-05-01T13:09:15.979Z</time></trkpt><trkpt lat="40.031505" lon="15.6730017"><ele>51.0</ele><time>2026-05-01T13:09:16.98Z</time></trkpt><trkpt lat="40.03154" lon="15.67289"><ele>51.0</ele><time>2026-05-01T13:09:17.979Z</time></trkpt><trkpt lat="40.0315833" lon="15.672795"><ele>51.0</ele><time>2026-05-01T13:09:18.979Z</time></trkpt><trkpt lat="40.0316383" lon="15.6727217"><ele>51.0</ele><time>2026-05-01T13:09:19.98Z</time></trkpt><trkpt lat="40.0317067" lon="15.672675"><ele>51.0</ele><time>2026-05-01T13:09:20.979Z</time></trkpt><trkpt lat="40.0317717" lon="15.6726667"><ele>51.0</ele><time>2026-05-01T13:09:21.979Z</time></trkpt><trkpt lat="40.0318417" lon="15.6726917"><ele>51.0</ele><time>2026-05-01T13:09:22.979Z</time></trkpt><trkpt lat="40.03191" lon="15.6727433"><ele>53.4</ele><time>2026-05-01T13:09:23.978Z</time></trkpt><trkpt lat="40.0319883" lon="15.6727967"><ele>55.8</ele><time>2026-05-01T13:09:24.978Z</time></trkpt><trkpt lat="40.032075" lon="15.6728517"><ele>58.199999999999996</ele><time>2026-05-01T13:09:25.979Z</time></trkpt><trkpt lat="40.0321733" lon="15.6729067"><ele>60.599999999999994</ele><time>2026-05-01T13:09:26.979Z</time></trkpt><trkpt lat="40.0322683" lon="15.6729717"><ele>63.0</ele><time>2026-05-01T13:09:27.979Z</time></trkpt><trkpt lat="40.0323683" lon="15.67303"><ele>61.25</ele><time>2026-05-01T13:09:28.979Z</time></trkpt><trkpt lat="40.0324783" lon="15.67309"><ele>59.5</ele><time>2026-05-01T13:09:29.978Z</time></trkpt><trkpt lat="40.0325817" lon="15.67315"><ele>57.75</ele><time>2026-05-01T13:09:30.978Z</time></trkpt><trkpt lat="40.0326817" lon="15.673225"><ele>56.0</ele><time>2026-05-01T13:09:31.978Z</time></trkpt><trkpt lat="40.0327767" lon="15.6733067"><ele>56.0</ele><time>2026-05-01T13:09:32.978Z</time></trkpt><trkpt lat="40.0328733" lon="15.6733933"><ele>56.0</ele><time>2026-05-01T13:09:33.978Z</time></trkpt><trkpt lat="40.032965" lon="15.6734917"><ele>56.0</ele><time>2026-05-01T13:09:34.978Z</time></trkpt><trkpt lat="40.03306" lon="15.67357"><ele>56.0</ele><time>2026-05-01T13:09:35.978Z</time></trkpt><trkpt lat="40.0331567" lon="15.673625"><ele>55.0</ele><time>2026-05-01T13:09:36.979Z</time></trkpt><trkpt lat="40.033255" lon="15.67362"><ele>53.99999999999999</ele><time>2026-05-01T13:09:37.978Z</time></trkpt><trkpt lat="40.03333" lon="15.6735633"><ele>53.0</ele><time>2026-05-01T13:09:38.978Z</time></trkpt><trkpt lat="40.0333983" lon="15.6734717"><ele>52.0</ele><time>2026-05-01T13:09:39.978Z</time></trkpt><trkpt lat="40.0334533" lon="15.6733633"><ele>51.0</ele><time>2026-05-01T13:09:40.978Z</time></trkpt><trkpt lat="40.033495" lon="15.6732533"><ele>51.0</ele><time>2026-05-01T13:09:41.978Z</time></trkpt><trkpt lat="40.0335483" lon="15.6731433"><ele>51.0</ele><time>2026-05-01T13:09:42.978Z</time></trkpt><trkpt lat="40.0336233" lon="15.6730567"><ele>51.0</ele><time>2026-05-01T13:09:43.979Z</time></trkpt><trkpt lat="40.0337133" lon="15.67297"><ele>51.0</ele><time>2026-05-01T13:09:44.978Z</time></trkpt><trkpt lat="40.0338067" lon="15.672895"><ele>51.0</ele><time>2026-05-01T13:09:45.979Z</time></trkpt><trkpt lat="40.033905" lon="15.6728167"><ele>50.5</ele><time>2026-05-01T13:09:46.978Z</time></trkpt><trkpt lat="40.0340083" lon="15.67273"><ele>50.0</ele><time>2026-05-01T13:09:47.978Z</time></trkpt><trkpt lat="40.0340967" lon="15.6726167"><ele>49.5</ele><time>2026-05-01T13:09:48.978Z</time></trkpt><trkpt lat="40.03417" lon="15.672495"><ele>49.0</ele><time>2026-05-01T13:09:49.978Z</time></trkpt><trkpt lat="40.0342483" lon="15.67236"><ele>49.0</ele><time>2026-05-01T13:09:50.978Z</time></trkpt><trkpt lat="40.0343217" lon="15.6722317"><ele>49.0</ele><time>2026-05-01T13:09:51.978Z</time></trkpt><trkpt lat="40.0343917" lon="15.6720983"><ele>49.0</ele><time>2026-05-01T13:09:52.979Z</time></trkpt><trkpt lat="40.03446" lon="15.6719633"><ele>49.0</ele><time>2026-05-01T13:09:53.978Z</time></trkpt><trkpt lat="40.034525" lon="15.67183"><ele>44.5</ele><time>2026-05-01T13:09:54.979Z</time></trkpt><trkpt lat="40.034585" lon="15.6716867"><ele>40.0</ele><time>2026-05-01T13:09:55.979Z</time></trkpt><trkpt lat="40.03465" lon="15.6715417"><ele>35.5</ele><time>2026-05-01T13:09:56.978Z</time></trkpt><trkpt lat="40.034725" lon="15.6714033"><ele>31.0</ele><time>2026-05-01T13:09:57.978Z</time></trkpt><trkpt lat="40.0348017" lon="15.6712783"><ele>31.0</ele><time>2026-05-01T13:09:58.978Z</time></trkpt><trkpt lat="40.0348817" lon="15.6711483"><ele>31.0</ele><time>2026-05-01T13:09:59.978Z</time></trkpt><trkpt lat="40.03496" lon="15.6710183"><ele>31.0</ele><time>2026-05-01T13:10:00.978Z</time></trkpt><trkpt lat="40.03504" lon="15.6709033"><ele>31.0</ele><time>2026-05-01T13:10:01.978Z</time></trkpt><trkpt lat="40.0351267" lon="15.6707917"><ele>35.0</ele><time>2026-05-01T13:10:02.978Z</time></trkpt><trkpt lat="40.0352133" lon="15.6706733"><ele>39.0</ele><time>2026-05-01T13:10:03.978Z</time></trkpt><trkpt lat="40.0353" lon="15.670555"><ele>43.0</ele><time>2026-05-01T13:10:04.978Z</time></trkpt><trkpt lat="40.03539" lon="15.6704333"><ele>47.0</ele><time>2026-05-01T13:10:05.978Z</time></trkpt><trkpt lat="40.0354767" lon="15.67031"><ele>48.5</ele><time>2026-05-01T13:10:06.978Z</time></trkpt><trkpt lat="40.0355633" lon="15.6702"><ele>50.0</ele><time>2026-05-01T13:10:07.978Z</time></trkpt><trkpt lat="40.0356483" lon="15.670095"><ele>51.5</ele><time>2026-05-01T13:10:08.979Z</time></trkpt><trkpt lat="40.03573" lon="15.6699967"><ele>53.0</ele><time>2026-05-01T13:10:09.978Z</time></trkpt><trkpt lat="40.0358067" lon="15.669905"><ele>53.00000000000001</ele><time>2026-05-01T13:10:10.979Z</time></trkpt><trkpt lat="40.0358867" lon="15.66982"><ele>53.0</ele><time>2026-05-01T13:10:11.979Z</time></trkpt><trkpt lat="40.0359583" lon="15.6697617"><ele>53.0</ele><time>2026-05-01T13:10:12.978Z</time></trkpt><trkpt lat="40.03604" lon="15.6697433"><ele>53.0</ele><time>2026-05-01T13:10:13.978Z</time></trkpt><trkpt lat="40.03612" lon="15.66975"><ele>53.00000000000001</ele><time>2026-05-01T13:10:14.978Z</time></trkpt><trkpt lat="40.0361933" lon="15.6697683"><ele>53.0</ele><time>2026-05-01T13:10:15.978Z</time></trkpt><trkpt lat="40.0362683" lon="15.6697833"><ele>53.00000000000001</ele><time>2026-05-01T13:10:16.978Z</time></trkpt><trkpt lat="40.03633" lon="15.6698167"><ele>53.0</ele><time>2026-05-01T13:10:17.979Z</time></trkpt><trkpt lat="40.0363817" lon="15.6698783"><ele>53.0</ele><time>2026-05-01T13:10:18.978Z</time></trkpt><trkpt lat="40.036405" lon="15.6699583"><ele>53.0</ele><time>2026-05-01T13:10:19.978Z</time></trkpt><trkpt lat="40.03642" lon="15.670065"><ele>53.00000000000001</ele><time>2026-05-01T13:10:20.978Z</time></trkpt><trkpt lat="40.0364433" lon="15.67018"><ele>53.0</ele><time>2026-05-01T13:10:21.978Z</time></trkpt><trkpt lat="40.0364633" lon="15.670295"><ele>54.0</ele><time>2026-05-01T13:10:22.978Z</time></trkpt><trkpt lat="40.0364883" lon="15.670425"><ele>55.0</ele><time>2026-05-01T13:10:23.979Z</time></trkpt><trkpt lat="40.03651" lon="15.6705533"><ele>56.0</ele><time>2026-05-01T13:10:24.978Z</time></trkpt><trkpt lat="40.0365333" lon="15.670685"><ele>57.0</ele><time>2026-05-01T13:10:25.978Z</time></trkpt><trkpt lat="40.0365333" lon="15.6708217"><ele>58.0</ele><time>2026-05-01T13:10:26.978Z</time></trkpt><trkpt lat="40.0365117" lon="15.6709517"><ele>58.0</ele><time>2026-05-01T13:10:27.978Z</time></trkpt><trkpt lat="40.0364717" lon="15.671075"><ele>58.0</ele><time>2026-05-01T13:10:28.978Z</time></trkpt><trkpt lat="40.036425" lon="15.6712"><ele>58.0</ele><time>2026-05-01T13:10:29.978Z</time></trkpt><trkpt lat="40.0363767" lon="15.6713167"><ele>58.0</ele><time>2026-05-01T13:10:30.978Z</time></trkpt><trkpt lat="40.0363283" lon="15.671445"><ele>58.0</ele><time>2026-05-01T13:10:31.978Z</time></trkpt><trkpt lat="40.036265" lon="15.6715633"><ele>58.5</ele><time>2026-05-01T13:10:32.978Z</time></trkpt><trkpt lat="40.0361867" lon="15.6716783"><ele>59.0</ele><time>2026-05-01T13:10:33.978Z</time></trkpt><trkpt lat="40.036115" lon="15.6717933"><ele>59.5</ele><time>2026-05-01T13:10:34.979Z</time></trkpt><trkpt lat="40.0360467" lon="15.67191"><ele>60.0</ele><time>2026-05-01T13:10:35.978Z</time></trkpt><trkpt lat="40.0359733" lon="15.67203"><ele>59.75</ele><time>2026-05-01T13:10:36.978Z</time></trkpt><trkpt lat="40.0359" lon="15.67215"><ele>59.5</ele><time>2026-05-01T13:10:37.979Z</time></trkpt><trkpt lat="40.0358267" lon="15.6722767"><ele>59.25</ele><time>2026-05-01T13:10:38.979Z</time></trkpt><trkpt lat="40.0357717" lon="15.6723967"><ele>59.0</ele><time>2026-05-01T13:10:39.978Z</time></trkpt><trkpt lat="40.03573" lon="15.6725217"><ele>59.00000000000001</ele><time>2026-05-01T13:10:40.979Z</time></trkpt><trkpt lat="40.0357017" lon="15.6726233"><ele>59.0</ele><time>2026-05-01T13:10:41.978Z</time></trkpt><trkpt lat="40.035685" lon="15.6727083"><ele>59.0</ele><time>2026-05-01T13:10:42.978Z</time></trkpt><trkpt lat="40.0356617" lon="15.672835"><ele>59.0</ele><time>2026-05-01T13:10:44.978Z</time></trkpt><trkpt lat="40.035655" lon="15.672965"><ele>59.00000000000001</ele><time>2026-05-01T13:10:46.978Z</time></trkpt><trkpt lat="40.0356483" lon="15.6730867"><ele>59.0</ele><time>2026-05-01T13:10:48.979Z</time></trkpt><trkpt lat="40.0356317" lon="15.6732033"><ele>60.00000000000001</ele><time>2026-05-01T13:10:50.978Z</time></trkpt><trkpt lat="40.0356233" lon="15.6732933"><ele>61.0</ele><time>2026-05-01T13:10:52.978Z</time></trkpt><trkpt lat="40.0356283" lon="15.67338"><ele>62.0</ele><time>2026-05-01T13:11:07.978Z</time></trkpt><trkpt lat="40.0356133" lon="15.6735017"><ele>63.0</ele><time>2026-05-01T13:11:09.978Z</time></trkpt><trkpt lat="40.0355883" lon="15.6736667"><ele>64.0</ele><time>2026-05-01T13:11:11.978Z</time></trkpt><trkpt lat="40.0355717" lon="15.6737567"><ele>65.0</ele><time>2026-05-01T13:11:12.978Z</time></trkpt><trkpt lat="40.0355567" lon="15.673865"><ele>65.66666666666667</ele><time>2026-05-01T13:11:13.978Z</time></trkpt><trkpt lat="40.0355467" lon="15.6739783"><ele>66.33333333333334</ele><time>2026-05-01T13:11:14.979Z</time></trkpt><trkpt lat="40.0355383" lon="15.6740783"><ele>67.0</ele><time>2026-05-01T13:11:15.979Z</time></trkpt><trkpt lat="40.03553" lon="15.6741683"><ele>67.66666666666667</ele><time>2026-05-01T13:11:16.978Z</time></trkpt><trkpt lat="40.0355167" lon="15.6743133"><ele>68.33333333333333</ele><time>2026-05-01T13:11:18.979Z</time></trkpt><trkpt lat="40.03553" lon="15.674425"><ele>69.0</ele><time>2026-05-01T13:11:20.978Z</time></trkpt><trkpt lat="40.035615" lon="15.6745283"><ele>69.83333333333333</ele><time>2026-05-01T13:11:22.978Z</time></trkpt><trkpt lat="40.035735" lon="15.6745267"><ele>70.66666666666667</ele><time>2026-05-01T13:11:24.978Z</time></trkpt><trkpt lat="40.03579" lon="15.674485"><ele>71.5</ele><time>2026-05-01T13:11:25.979Z</time></trkpt><trkpt lat="40.035845" lon="15.6744333"><ele>72.33333333333334</ele><time>2026-05-01T13:11:26.978Z</time></trkpt><trkpt lat="40.0359233" lon="15.6743117"><ele>73.16666666666667</ele><time>2026-05-01T13:11:28.978Z</time></trkpt><trkpt lat="40.03596" lon="15.67424"><ele>74.0</ele><time>2026-05-01T13:11:29.978Z</time></trkpt><trkpt lat="40.03605" lon="15.6741167"><ele>75.4</ele><time>2026-05-01T13:11:31.978Z</time></trkpt><trkpt lat="40.036105" lon="15.6740667"><ele>76.80000000000001</ele><time>2026-05-01T13:11:32.978Z</time></trkpt><trkpt lat="40.0361783" lon="15.6739783"><ele>78.19999999999999</ele><time>2026-05-01T13:11:34.978Z</time></trkpt><trkpt lat="40.0362583" lon="15.673875"><ele>79.6</ele><time>2026-05-01T13:11:36.978Z</time></trkpt><trkpt lat="40.0363567" lon="15.67377"><ele>81.0</ele><time>2026-05-01T13:11:38.978Z</time></trkpt><trkpt lat="40.036415" lon="15.6737067"><ele>81.0</ele><time>2026-05-01T13:11:39.978Z</time></trkpt><trkpt lat="40.0364667" lon="15.67364"><ele>81.0</ele><time>2026-05-01T13:11:40.978Z</time></trkpt><trkpt lat="40.0365167" lon="15.6735817"><ele>81.0</ele><time>2026-05-01T13:11:41.978Z</time></trkpt><trkpt lat="40.0365867" lon="15.6734517"><ele>81.0</ele><time>2026-05-01T13:11:43.979Z</time></trkpt><trkpt lat="40.0366233" lon="15.67338"><ele>81.0</ele><time>2026-05-01T13:11:44.978Z</time></trkpt><trkpt lat="40.0366567" lon="15.673305"><ele>81.0</ele><time>2026-05-01T13:11:45.979Z</time></trkpt><trkpt lat="40.036695" lon="15.67323"><ele>82.19999999999999</ele><time>2026-05-01T13:11:46.978Z</time></trkpt><trkpt lat="40.0367417" lon="15.673155"><ele>83.39999999999999</ele><time>2026-05-01T13:11:47.978Z</time></trkpt><trkpt lat="40.0368217" lon="15.67305"><ele>84.6</ele><time>2026-05-01T13:11:49.978Z</time></trkpt><trkpt lat="40.03692" lon="15.67308"><ele>85.8</ele><time>2026-05-01T13:11:51.979Z</time></trkpt><trkpt lat="40.036975" lon="15.6731383"><ele>87.0</ele><time>2026-05-01T13:11:52.978Z</time></trkpt><trkpt lat="40.0370883" lon="15.6731867"><ele>87.0</ele><time>2026-05-01T13:11:54.979Z</time></trkpt><trkpt lat="40.0371533" lon="15.67318"><ele>87.0</ele><time>2026-05-01T13:11:55.979Z</time></trkpt><trkpt lat="40.0372567" lon="15.6731917"><ele>87.0</ele><time>2026-05-01T13:11:57.979Z</time></trkpt><trkpt lat="40.037315" lon="15.6732283"><ele>87.0</ele><time>2026-05-01T13:11:58.978Z</time></trkpt><trkpt lat="40.03737" lon="15.6732883"><ele>87.0</ele><time>2026-05-01T13:11:59.978Z</time></trkpt><trkpt lat="40.0374233" lon="15.6733533"><ele>87.0</ele><time>2026-05-01T13:12:00.979Z</time></trkpt><trkpt lat="40.0374817" lon="15.6734117"><ele>87.83333333333333</ele><time>2026-05-01T13:12:01.978Z</time></trkpt><trkpt lat="40.0375583" lon="15.673435"><ele>88.66666666666667</ele><time>2026-05-01T13:12:02.978Z</time></trkpt><trkpt lat="40.0376333" lon="15.67342"><ele>89.5</ele><time>2026-05-01T13:12:03.978Z</time></trkpt><trkpt lat="40.0377117" lon="15.6733633"><ele>90.33333333333334</ele><time>2026-05-01T13:12:04.978Z</time></trkpt><trkpt lat="40.0377867" lon="15.6732767"><ele>91.16666666666667</ele><time>2026-05-01T13:12:05.978Z</time></trkpt><trkpt lat="40.0378433" lon="15.6731917"><ele>92.0</ele><time>2026-05-01T13:12:06.978Z</time></trkpt><trkpt lat="40.0378883" lon="15.6730833"><ele>92.0</ele><time>2026-05-01T13:12:07.978Z</time></trkpt><trkpt lat="40.0379367" lon="15.6729783"><ele>92.0</ele><time>2026-05-01T13:12:08.979Z</time></trkpt><trkpt lat="40.03798" lon="15.6728517"><ele>92.0</ele><time>2026-05-01T13:12:09.979Z</time></trkpt><trkpt lat="40.0380183" lon="15.6727183"><ele>92.0</ele><time>2026-05-01T13:12:10.978Z</time></trkpt><trkpt lat="40.0380517" lon="15.672595"><ele>92.0</ele><time>2026-05-01T13:12:11.979Z</time></trkpt><trkpt lat="40.0380817" lon="15.67248"><ele>90.66666666666667</ele><time>2026-05-01T13:12:12.978Z</time></trkpt><trkpt lat="40.0381067" lon="15.6723733"><ele>89.33333333333334</ele><time>2026-05-01T13:12:13.978Z</time></trkpt><trkpt lat="40.0381417" lon="15.6722667"><ele>88.0</ele><time>2026-05-01T13:12:14.978Z</time></trkpt><trkpt lat="40.0381717" lon="15.6721633"><ele>86.66666666666667</ele><time>2026-05-01T13:12:15.979Z</time></trkpt><trkpt lat="40.0382" lon="15.6720517"><ele>85.33333333333333</ele><time>2026-05-01T13:12:16.978Z</time></trkpt><trkpt lat="40.0382317" lon="15.671945"><ele>84.0</ele><time>2026-05-01T13:12:17.979Z</time></trkpt><trkpt lat="40.038255" lon="15.6718417"><ele>82.4</ele><time>2026-05-01T13:12:18.978Z</time></trkpt><trkpt lat="40.0382767" lon="15.67176"><ele>80.80000000000001</ele><time>2026-05-01T13:12:19.978Z</time></trkpt><trkpt lat="40.0383567" lon="15.6716483"><ele>79.19999999999999</ele><time>2026-05-01T13:12:21.978Z</time></trkpt><trkpt lat="40.0384917" lon="15.67169"><ele>77.6</ele><time>2026-05-01T13:12:23.978Z</time></trkpt><trkpt lat="40.0385683" lon="15.6717667"><ele>76.0</ele><time>2026-05-01T13:12:24.978Z</time></trkpt><trkpt lat="40.0386317" lon="15.671835"><ele>79.33333333333333</ele><time>2026-05-01T13:12:25.978Z</time></trkpt><trkpt lat="40.0386933" lon="15.6719183"><ele>82.66666666666666</ele><time>2026-05-01T13:12:26.978Z</time></trkpt><trkpt lat="40.03876" lon="15.6719917"><ele>86.0</ele><time>2026-05-01T13:12:27.978Z</time></trkpt><trkpt lat="40.0388333" lon="15.6720483"><ele>89.33333333333333</ele><time>2026-05-01T13:12:28.979Z</time></trkpt><trkpt lat="40.0389183" lon="15.672065"><ele>92.66666666666667</ele><time>2026-05-01T13:12:29.979Z</time></trkpt><trkpt lat="40.03901" lon="15.6720617"><ele>96.0</ele><time>2026-05-01T13:12:30.978Z</time></trkpt><trkpt lat="40.0390833" lon="15.6720333"><ele>99.4</ele><time>2026-05-01T13:12:31.978Z</time></trkpt><trkpt lat="40.0391583" lon="15.6719967"><ele>102.8</ele><time>2026-05-01T13:12:32.978Z</time></trkpt><trkpt lat="40.039235" lon="15.6719533"><ele>106.20000000000002</ele><time>2026-05-01T13:12:33.978Z</time></trkpt><trkpt lat="40.0393167" lon="15.6719033"><ele>109.60000000000001</ele><time>2026-05-01T13:12:34.978Z</time></trkpt><trkpt lat="40.0394033" lon="15.67185"><ele>113.0</ele><time>2026-05-01T13:12:35.979Z</time></trkpt><trkpt lat="40.0394917" lon="15.6717883"><ele>112.99999999999999</ele><time>2026-05-01T13:12:36.979Z</time></trkpt><trkpt lat="40.0395633" lon="15.6717183"><ele>113.0</ele><time>2026-05-01T13:12:37.978Z</time></trkpt><trkpt lat="40.03963" lon="15.6716367"><ele>113.0</ele><time>2026-05-01T13:12:38.978Z</time></trkpt><trkpt lat="40.0396883" lon="15.6715517"><ele>113.0</ele><time>2026-05-01T13:12:39.978Z</time></trkpt><trkpt lat="40.0397467" lon="15.67147"><ele>112.99999999999999</ele><time>2026-05-01T13:12:40.978Z</time></trkpt><trkpt lat="40.0398033" lon="15.67139"><ele>113.0</ele><time>2026-05-01T13:12:41.978Z</time></trkpt><trkpt lat="40.0398483" lon="15.6713017"><ele>112.99999999999999</ele><time>2026-05-01T13:12:42.978Z</time></trkpt><trkpt lat="40.0399017" lon="15.67121"><ele>113.0</ele><time>2026-05-01T13:12:43.979Z</time></trkpt><trkpt lat="40.03995" lon="15.6711217"><ele>113.0</ele><time>2026-05-01T13:12:44.978Z</time></trkpt><trkpt lat="40.040005" lon="15.67104"><ele>113.0</ele><time>2026-05-01T13:12:45.978Z</time></trkpt><trkpt lat="40.0400683" lon="15.6709517"><ele>112.99999999999999</ele><time>2026-05-01T13:12:46.979Z</time></trkpt><trkpt lat="40.040115" lon="15.6708633"><ele>113.0</ele><time>2026-05-01T13:12:47.979Z</time></trkpt><trkpt lat="40.04016" lon="15.6707867"><ele>114.80000000000001</ele><time>2026-05-01T13:12:48.978Z</time></trkpt><trkpt lat="40.0402317" lon="15.6706867"><ele>116.60000000000001</ele><time>2026-05-01T13:12:50.979Z</time></trkpt><trkpt lat="40.0403017" lon="15.67059"><ele>118.39999999999999</ele><time>2026-05-01T13:12:52.979Z</time></trkpt><trkpt lat="40.0403833" lon="15.6704717"><ele>120.19999999999999</ele><time>2026-05-01T13:12:54.978Z</time></trkpt><trkpt lat="40.0404283" lon="15.6704017"><ele>122.0</ele><time>2026-05-01T13:12:55.979Z</time></trkpt><trkpt lat="40.0404783" lon="15.6703317"><ele>119.57142857142856</ele><time>2026-05-01T13:12:56.978Z</time></trkpt><trkpt lat="40.04053" lon="15.670255"><ele>117.14285714285714</ele><time>2026-05-01T13:12:57.979Z</time></trkpt><trkpt lat="40.0405783" lon="15.67018"><ele>114.71428571428571</ele><time>2026-05-01T13:12:58.978Z</time></trkpt><trkpt lat="40.040625" lon="15.670105"><ele>112.28571428571428</ele><time>2026-05-01T13:12:59.978Z</time></trkpt><trkpt lat="40.04067" lon="15.6700367"><ele>109.85714285714286</ele><time>2026-05-01T13:13:00.979Z</time></trkpt><trkpt lat="40.0407183" lon="15.66998"><ele>107.42857142857143</ele><time>2026-05-01T13:13:01.979Z</time></trkpt><trkpt lat="40.04077" lon="15.669915"><ele>105.0</ele><time>2026-05-01T13:13:02.979Z</time></trkpt><trkpt lat="40.04082" lon="15.6698433"><ele>108.66666666666667</ele><time>2026-05-01T13:13:03.978Z</time></trkpt><trkpt lat="40.0408733" lon="15.6697733"><ele>112.33333333333334</ele><time>2026-05-01T13:13:04.979Z</time></trkpt><trkpt lat="40.0409233" lon="15.6696883"><ele>116.0</ele><time>2026-05-01T13:13:05.978Z</time></trkpt><trkpt lat="40.0409833" lon="15.6696133"><ele>119.66666666666667</ele><time>2026-05-01T13:13:06.978Z</time></trkpt><trkpt lat="40.041045" lon="15.6695333"><ele>123.33333333333334</ele><time>2026-05-01T13:13:07.978Z</time></trkpt><trkpt lat="40.0411033" lon="15.6694467"><ele>127.0</ele><time>2026-05-01T13:13:08.979Z</time></trkpt><trkpt lat="40.0411767" lon="15.6693633"><ele>127.00000000000001</ele><time>2026-05-01T13:13:09.979Z</time></trkpt><trkpt lat="40.0412317" lon="15.6692733"><ele>127.0</ele><time>2026-05-01T13:13:10.978Z</time></trkpt><trkpt lat="40.0412883" lon="15.6691883"><ele>127.0</ele><time>2026-05-01T13:13:11.979Z</time></trkpt><trkpt lat="40.0413467" lon="15.6690967"><ele>127.0</ele><time>2026-05-01T13:13:12.979Z</time></trkpt><trkpt lat="40.041405" lon="15.6690117"><ele>127.00000000000001</ele><time>2026-05-01T13:13:13.979Z</time></trkpt><trkpt lat="40.04146" lon="15.6689133"><ele>127.0</ele><time>2026-05-01T13:13:14.978Z</time></trkpt><trkpt lat="40.0415133" lon="15.6688167"><ele>127.00000000000001</ele><time>2026-05-01T13:13:15.978Z</time></trkpt><trkpt lat="40.0415683" lon="15.6687283"><ele>127.0</ele><time>2026-05-01T13:13:16.978Z</time></trkpt><trkpt lat="40.0416167" lon="15.66864"><ele>127.0</ele><time>2026-05-01T13:13:17.979Z</time></trkpt><trkpt lat="40.0416467" lon="15.6685467"><ele>127.0</ele><time>2026-05-01T13:13:18.978Z</time></trkpt><trkpt lat="40.0416617" lon="15.6684567"><ele>127.00000000000001</ele><time>2026-05-01T13:13:19.978Z</time></trkpt><trkpt lat="40.0416717" lon="15.6683733"><ele>127.0</ele><time>2026-05-01T13:13:20.978Z</time></trkpt><trkpt lat="40.0417033" lon="15.66824"><ele>129.79999999999998</ele><time>2026-05-01T13:13:22.978Z</time></trkpt><trkpt lat="40.0417317" lon="15.66813"><ele>132.6</ele><time>2026-05-01T13:13:24.978Z</time></trkpt><trkpt lat="40.0417567" lon="15.668025"><ele>135.39999999999998</ele><time>2026-05-01T13:13:26.979Z</time></trkpt><trkpt lat="40.0417767" lon="15.6678683"><ele>138.2</ele><time>2026-05-01T13:13:28.979Z</time></trkpt><trkpt lat="40.0417933" lon="15.6677283"><ele>141.0</ele><time>2026-05-01T13:13:30.978Z</time></trkpt><trkpt lat="40.0418083" lon="15.6676067"><ele>141.0</ele><time>2026-05-01T13:13:32.979Z</time></trkpt><trkpt lat="40.0418167" lon="15.6674867"><ele>141.0</ele><time>2026-05-01T13:13:34.978Z</time></trkpt><trkpt lat="40.0418333" lon="15.6673883"><ele>141.0</ele><time>2026-05-01T13:13:36.978Z</time></trkpt><trkpt lat="40.041845" lon="15.667275"><ele>141.0</ele><time>2026-05-01T13:13:46.979Z</time></trkpt><trkpt lat="40.0418433" lon="15.6671733"><ele>141.0</ele><time>2026-05-01T13:14:31.979Z</time></trkpt><trkpt lat="40.0419183" lon="15.66705"><ele>140.25</ele><time>2026-05-01T13:14:33.978Z</time></trkpt><trkpt lat="40.0419617" lon="15.6669333"><ele>139.5</ele><time>2026-05-01T13:14:34.978Z</time></trkpt><trkpt lat="40.0420083" lon="15.6667783"><ele>138.75</ele><time>2026-05-01T13:14:35.979Z</time></trkpt><trkpt lat="40.04206" lon="15.6665583"><ele>138.0</ele><time>2026-05-01T13:14:36.978Z</time></trkpt><trkpt lat="40.0420967" lon="15.6663333"><ele>138.0</ele><time>2026-05-01T13:14:37.979Z</time></trkpt><trkpt lat="40.0421317" lon="15.6661283"><ele>138.0</ele><time>2026-05-01T13:14:38.978Z</time></trkpt><trkpt lat="40.0421483" lon="15.6659317"><ele>138.0</ele><time>2026-05-01T13:14:39.978Z</time></trkpt><trkpt lat="40.0421483" lon="15.6657333"><ele>138.75</ele><time>2026-05-01T13:14:40.978Z</time></trkpt><trkpt lat="40.0421333" lon="15.6655417"><ele>139.5</ele><time>2026-05-01T13:14:41.979Z</time></trkpt><trkpt lat="40.0421" lon="15.6653583"><ele>140.25</ele><time>2026-05-01T13:14:42.978Z</time></trkpt><trkpt lat="40.0420533" lon="15.665205"><ele>141.0</ele><time>2026-05-01T13:14:43.978Z</time></trkpt><trkpt lat="40.0420083" lon="15.66508"><ele>141.0</ele><time>2026-05-01T13:14:44.978Z</time></trkpt><trkpt lat="40.04197" lon="15.6649717"><ele>141.0</ele><time>2026-05-01T13:14:45.978Z</time></trkpt><trkpt lat="40.0419433" lon="15.6648667"><ele>141.0</ele><time>2026-05-01T13:14:46.979Z</time></trkpt><trkpt lat="40.0419233" lon="15.664765"><ele>141.0</ele><time>2026-05-01T13:14:47.978Z</time></trkpt><trkpt lat="40.0419083" lon="15.6646633"><ele>141.0</ele><time>2026-05-01T13:14:48.979Z</time></trkpt><trkpt lat="40.0418917" lon="15.6645617"><ele>141.0</ele><time>2026-05-01T13:14:49.978Z</time></trkpt><trkpt lat="40.04188" lon="15.6644483"><ele>141.66666666666666</ele><time>2026-05-01T13:14:50.979Z</time></trkpt><trkpt lat="40.0418817" lon="15.66434"><ele>142.33333333333334</ele><time>2026-05-01T13:14:51.978Z</time></trkpt><trkpt lat="40.041885" lon="15.6642267"><ele>143.0</ele><time>2026-05-01T13:14:52.978Z</time></trkpt><trkpt lat="40.0418883" lon="15.66412"><ele>143.66666666666669</ele><time>2026-05-01T13:14:53.978Z</time></trkpt><trkpt lat="40.041895" lon="15.6640217"><ele>144.33333333333334</ele><time>2026-05-01T13:14:54.978Z</time></trkpt><trkpt lat="40.0418967" lon="15.6639233"><ele>145.0</ele><time>2026-05-01T13:14:55.978Z</time></trkpt><trkpt lat="40.0419017" lon="15.6638317"><ele>145.0</ele><time>2026-05-01T13:14:56.979Z</time></trkpt><trkpt lat="40.0419017" lon="15.6637467"><ele>145.0</ele><time>2026-05-01T13:14:57.978Z</time></trkpt><trkpt lat="40.0418967" lon="15.6636583"><ele>145.0</ele><time>2026-05-01T13:14:58.978Z</time></trkpt><trkpt lat="40.041905" lon="15.6635183"><ele>145.0</ele><time>2026-05-01T13:15:00.978Z</time></trkpt><trkpt lat="40.0418917" lon="15.6633783"><ele>145.0</ele><time>2026-05-01T13:15:02.979Z</time></trkpt><trkpt lat="40.0418817" lon="15.66324"><ele>147.33333333333334</ele><time>2026-05-01T13:15:04.978Z</time></trkpt><trkpt lat="40.0418833" lon="15.6631433"><ele>149.66666666666669</ele><time>2026-05-01T13:15:06.979Z</time></trkpt><trkpt lat="40.0418167" lon="15.6630267"><ele>152.0</ele><time>2026-05-01T13:15:08.979Z</time></trkpt><trkpt lat="40.0417617" lon="15.66296"><ele>154.33333333333334</ele><time>2026-05-01T13:15:09.978Z</time></trkpt><trkpt lat="40.0416917" lon="15.6629017"><ele>156.66666666666666</ele><time>2026-05-01T13:15:10.979Z</time></trkpt><trkpt lat="40.041615" lon="15.6628433"><ele>159.0</ele><time>2026-05-01T13:15:11.978Z</time></trkpt><trkpt lat="40.0415367" lon="15.6627733"><ele>159.0</ele><time>2026-05-01T13:15:12.978Z</time></trkpt><trkpt lat="40.0414517" lon="15.6627033"><ele>159.0</ele><time>2026-05-01T13:15:13.978Z</time></trkpt><trkpt lat="40.0413783" lon="15.6626517"><ele>159.0</ele><time>2026-05-01T13:15:14.978Z</time></trkpt><trkpt lat="40.0413167" lon="15.6625717"><ele>159.0</ele><time>2026-05-01T13:15:15.979Z</time></trkpt><trkpt lat="40.0412583" lon="15.6624867"><ele>159.0</ele><time>2026-05-01T13:15:16.978Z</time></trkpt><trkpt lat="40.0412183" lon="15.6624017"><ele>159.0</ele><time>2026-05-01T13:15:17.979Z</time></trkpt><trkpt lat="40.0411917" lon="15.6623117"><ele>159.0</ele><time>2026-05-01T13:15:18.979Z</time></trkpt><trkpt lat="40.0411683" lon="15.6622217"><ele>159.0</ele><time>2026-05-01T13:15:19.978Z</time></trkpt><trkpt lat="40.0411683" lon="15.6621017"><ele>159.0</ele><time>2026-05-01T13:15:20.979Z</time></trkpt><trkpt lat="40.041175" lon="15.6619783"><ele>159.0</ele><time>2026-05-01T13:15:21.979Z</time></trkpt><trkpt lat="40.0411617" lon="15.6618483"><ele>159.0</ele><time>2026-05-01T13:15:22.979Z</time></trkpt><trkpt lat="40.0411233" lon="15.6617317"><ele>159.0</ele><time>2026-05-01T13:15:23.979Z</time></trkpt><trkpt lat="40.041065" lon="15.6615983"><ele>159.0</ele><time>2026-05-01T13:15:24.978Z</time></trkpt><trkpt lat="40.0410083" lon="15.661465"><ele>159.0</ele><time>2026-05-01T13:15:25.979Z</time></trkpt><trkpt lat="40.0409533" lon="15.6613383"><ele>159.0</ele><time>2026-05-01T13:15:26.979Z</time></trkpt><trkpt lat="40.0409067" lon="15.6612167"><ele>159.0</ele><time>2026-05-01T13:15:27.978Z</time></trkpt><trkpt lat="40.0408633" lon="15.6610967"><ele>159.0</ele><time>2026-05-01T13:15:28.978Z</time></trkpt><trkpt lat="40.04082" lon="15.660975"><ele>159.0</ele><time>2026-05-01T13:15:29.978Z</time></trkpt><trkpt lat="40.04078" lon="15.6608667"><ele>159.0</ele><time>2026-05-01T13:15:30.978Z</time></trkpt><trkpt lat="40.0407433" lon="15.6607683"><ele>159.0</ele><time>2026-05-01T13:15:31.978Z</time></trkpt><trkpt lat="40.0407167" lon="15.6606617"><ele>159.0</ele><time>2026-05-01T13:15:32.979Z</time></trkpt><trkpt lat="40.0406933" lon="15.6605467"><ele>159.0</ele><time>2026-05-01T13:15:33.978Z</time></trkpt><trkpt lat="40.0406767" lon="15.66043"><ele>159.0</ele><time>2026-05-01T13:15:34.978Z</time></trkpt><trkpt lat="40.0406633" lon="15.660305"><ele>159.0</ele><time>2026-05-01T13:15:35.979Z</time></trkpt><trkpt lat="40.04066" lon="15.6601867"><ele>159.0</ele><time>2026-05-01T13:15:36.978Z</time></trkpt><trkpt lat="40.0406533" lon="15.66008"><ele>159.0</ele><time>2026-05-01T13:15:37.978Z</time></trkpt><trkpt lat="40.0406517" lon="15.659985"><ele>159.0</ele><time>2026-05-01T13:15:38.978Z</time></trkpt><trkpt lat="40.040645" lon="15.6598917"><ele>159.0</ele><time>2026-05-01T13:15:39.978Z</time></trkpt><trkpt lat="40.0406433" lon="15.6598"><ele>159.0</ele><time>2026-05-01T13:15:40.979Z</time></trkpt><trkpt lat="40.0406483" lon="15.659715"><ele>159.0</ele><time>2026-05-01T13:15:41.978Z</time></trkpt><trkpt lat="40.0406633" lon="15.6596333"><ele>159.0</ele><time>2026-05-01T13:15:42.978Z</time></trkpt><trkpt lat="40.0407" lon="15.6594783"><ele>159.0</ele><time>2026-05-01T13:15:44.979Z</time></trkpt><trkpt lat="40.040755" lon="15.6591233"><ele>159.0</ele><time>2026-05-01T13:15:48.979Z</time></trkpt><trkpt lat="40.0408" lon="15.65899"><ele>159.0</ele><time>2026-05-01T13:15:49.98Z</time></trkpt><trkpt lat="40.0408367" lon="15.6589033"><ele>159.0</ele><time>2026-05-01T13:15:50.979Z</time></trkpt><trkpt lat="40.04088" lon="15.6588433"><ele>159.0</ele><time>2026-05-01T13:15:51.979Z</time></trkpt><trkpt lat="40.0409983" lon="15.6588233"><ele>159.0</ele><time>2026-05-01T13:15:53.98Z</time></trkpt><trkpt lat="40.0410683" lon="15.658825"><ele>159.0</ele><time>2026-05-01T13:15:54.979Z</time></trkpt><trkpt lat="40.0411817" lon="15.658825"><ele>159.0</ele><time>2026-05-01T13:15:56.979Z</time></trkpt><trkpt lat="40.0412583" lon="15.6588083"><ele>159.0</ele><time>2026-05-01T13:15:58.98Z</time></trkpt><trkpt lat="40.0413367" lon="15.6588017"><ele>159.0</ele><time>2026-05-01T13:16:02.98Z</time></trkpt><trkpt lat="40.0414033" lon="15.6587633"><ele>159.0</ele><time>2026-05-01T13:16:05.979Z</time></trkpt><trkpt lat="40.0414967" lon="15.6587217"><ele>159.0</ele><time>2026-05-01T13:16:07.98Z</time></trkpt><trkpt lat="40.0415567" lon="15.658695"><ele>159.0</ele><time>2026-05-01T13:16:08.979Z</time></trkpt><trkpt lat="40.0416233" lon="15.6586633"><ele>159.0</ele><time>2026-05-01T13:16:09.979Z</time></trkpt><trkpt lat="40.0417033" lon="15.658615"><ele>159.0</ele><time>2026-05-01T13:16:10.98Z</time></trkpt><trkpt lat="40.041785" lon="15.65856"><ele>159.0</ele><time>2026-05-01T13:16:11.979Z</time></trkpt><trkpt lat="40.0418733" lon="15.65851"><ele>159.0</ele><time>2026-05-01T13:16:12.98Z</time></trkpt><trkpt lat="40.0419667" lon="15.6584517"><ele>159.0</ele><time>2026-05-01T13:16:13.979Z</time></trkpt><trkpt lat="40.0420633" lon="15.6583917"><ele>159.0</ele><time>2026-05-01T13:16:14.979Z</time></trkpt><trkpt lat="40.042155" lon="15.6583417"><ele>159.0</ele><time>2026-05-01T13:16:15.979Z</time></trkpt><trkpt lat="40.04224" lon="15.65828"><ele>159.0</ele><time>2026-05-01T13:16:16.98Z</time></trkpt><trkpt lat="40.0422983" lon="15.658205"><ele>159.0</ele><time>2026-05-01T13:16:17.979Z</time></trkpt><trkpt lat="40.0423517" lon="15.658125"><ele>159.0</ele><time>2026-05-01T13:16:18.979Z</time></trkpt><trkpt lat="40.0424083" lon="15.65805"><ele>159.0</ele><time>2026-05-01T13:16:19.979Z</time></trkpt><trkpt lat="40.042465" lon="15.657975"><ele>159.0</ele><time>2026-05-01T13:16:20.979Z</time></trkpt><trkpt lat="40.0425233" lon="15.6579017"><ele>159.0</ele><time>2026-05-01T13:16:21.979Z</time></trkpt><trkpt lat="40.0425717" lon="15.657825"><ele>154.5</ele><time>2026-05-01T13:16:22.98Z</time></trkpt><trkpt lat="40.0426133" lon="15.6577517"><ele>150.0</ele><time>2026-05-01T13:16:23.98Z</time></trkpt><trkpt lat="40.0426517" lon="15.6576817"><ele>145.5</ele><time>2026-05-01T13:16:24.98Z</time></trkpt><trkpt lat="40.0426867" lon="15.65761"><ele>141.0</ele><time>2026-05-01T13:16:25.979Z</time></trkpt><trkpt lat="40.04275" lon="15.6574867"><ele>136.5</ele><time>2026-05-01T13:16:27.979Z</time></trkpt><trkpt lat="40.0428033" lon="15.6573817"><ele>132.0</ele><time>2026-05-01T13:16:29.98Z</time></trkpt><trkpt lat="40.0428633" lon="15.657265"><ele>132.0</ele><time>2026-05-01T13:16:31.98Z</time></trkpt><trkpt lat="40.0429017" lon="15.6571333"><ele>132.0</ele><time>2026-05-01T13:16:33.979Z</time></trkpt><trkpt lat="40.0429567" lon="15.657"><ele>132.0</ele><time>2026-05-01T13:16:35.979Z</time></trkpt><trkpt lat="40.0429867" lon="15.6569233"><ele>132.0</ele><time>2026-05-01T13:16:36.98Z</time></trkpt><trkpt lat="40.0430167" lon="15.656845"><ele>132.0</ele><time>2026-05-01T13:16:37.979Z</time></trkpt><trkpt lat="40.0430433" lon="15.65676"><ele>132.0</ele><time>2026-05-01T13:16:38.979Z</time></trkpt><trkpt lat="40.043065" lon="15.6566667"><ele>134.33333333333334</ele><time>2026-05-01T13:16:39.979Z</time></trkpt><trkpt lat="40.0430817" lon="15.6565667"><ele>136.66666666666666</ele><time>2026-05-01T13:16:40.979Z</time></trkpt><trkpt lat="40.0430917" lon="15.6564617"><ele>139.0</ele><time>2026-05-01T13:16:41.979Z</time></trkpt><trkpt lat="40.0430983" lon="15.6563517"><ele>141.33333333333331</ele><time>2026-05-01T13:16:42.979Z</time></trkpt><trkpt lat="40.0431017" lon="15.6562417"><ele>143.66666666666666</ele><time>2026-05-01T13:16:43.979Z</time></trkpt><trkpt lat="40.0431017" lon="15.6561317"><ele>146.0</ele><time>2026-05-01T13:16:44.979Z</time></trkpt><trkpt lat="40.0430983" lon="15.6560267"><ele>171.33333333333331</ele><time>2026-05-01T13:16:45.979Z</time></trkpt><trkpt lat="40.0430933" lon="15.65592"><ele>196.66666666666666</ele><time>2026-05-01T13:16:46.979Z</time></trkpt><trkpt lat="40.043085" lon="15.6558217"><ele>222.0</ele><time>2026-05-01T13:16:47.979Z</time></trkpt><trkpt lat="40.0430783" lon="15.65573"><ele>247.33333333333331</ele><time>2026-05-01T13:16:48.98Z</time></trkpt><trkpt lat="40.0430667" lon="15.6556367"><ele>272.66666666666663</ele><time>2026-05-01T13:16:49.98Z</time></trkpt><trkpt lat="40.043055" lon="15.655545"><ele>298.0</ele><time>2026-05-01T13:16:50.979Z</time></trkpt><trkpt lat="40.0430383" lon="15.655445"><ele>298.0</ele><time>2026-05-01T13:16:51.979Z</time></trkpt><trkpt lat="40.0430267" lon="15.6553483"><ele>298.0</ele><time>2026-05-01T13:16:52.979Z</time></trkpt><trkpt lat="40.0430167" lon="15.6552517"><ele>298.0</ele><time>2026-05-01T13:16:53.979Z</time></trkpt><trkpt lat="40.0429983" lon="15.6551483"><ele>298.0</ele><time>2026-05-01T13:16:54.979Z</time></trkpt><trkpt lat="40.0429767" lon="15.65505"><ele>298.0</ele><time>2026-05-01T13:16:55.979Z</time></trkpt><trkpt lat="40.0429533" lon="15.6549533"><ele>298.0</ele><time>2026-05-01T13:16:56.979Z</time></trkpt><trkpt lat="40.0429233" lon="15.6548467"><ele>294.8333333333333</ele><time>2026-05-01T13:16:57.98Z</time></trkpt><trkpt lat="40.042895" lon="15.6547417"><ele>291.66666666666663</ele><time>2026-05-01T13:16:58.979Z</time></trkpt><trkpt lat="40.0428583" lon="15.6546467"><ele>288.5</ele><time>2026-05-01T13:16:59.979Z</time></trkpt><trkpt lat="40.0428233" lon="15.6545567"><ele>285.3333333333333</ele><time>2026-05-01T13:17:00.98Z</time></trkpt><trkpt lat="40.042795" lon="15.6544733"><ele>282.1666666666667</ele><time>2026-05-01T13:17:01.98Z</time></trkpt><trkpt lat="40.0427633" lon="15.6543883"><ele>279.0</ele><time>2026-05-01T13:17:02.979Z</time></trkpt><trkpt lat="40.0427267" lon="15.6543083"><ele>275.1428571428571</ele><time>2026-05-01T13:17:03.98Z</time></trkpt><trkpt lat="40.0426867" lon="15.6542333"><ele>271.2857142857143</ele><time>2026-05-01T13:17:04.979Z</time></trkpt><trkpt lat="40.0426433" lon="15.6541483"><ele>267.42857142857144</ele><time>2026-05-01T13:17:05.979Z</time></trkpt><trkpt lat="40.0425983" lon="15.6540717"><ele>263.57142857142856</ele><time>2026-05-01T13:17:06.98Z</time></trkpt><trkpt lat="40.042555" lon="15.6540033"><ele>259.7142857142857</ele><time>2026-05-01T13:17:07.979Z</time></trkpt><trkpt lat="40.0425067" lon="15.6539367"><ele>255.85714285714286</ele><time>2026-05-01T13:17:08.979Z</time></trkpt><trkpt lat="40.042455" lon="15.6538717"><ele>252.0</ele><time>2026-05-01T13:17:09.979Z</time></trkpt><trkpt lat="40.0424" lon="15.6538083"><ele>223.83333333333334</ele><time>2026-05-01T13:17:10.98Z</time></trkpt><trkpt lat="40.0423483" lon="15.653735"><ele>195.66666666666666</ele><time>2026-05-01T13:17:11.98Z</time></trkpt><trkpt lat="40.042295" lon="15.6536417"><ele>167.5</ele><time>2026-05-01T13:17:12.979Z</time></trkpt><trkpt lat="40.0422517" lon="15.6535417"><ele>139.33333333333334</ele><time>2026-05-01T13:17:13.98Z</time></trkpt><trkpt lat="40.04221" lon="15.6534367"><ele>111.16666666666667</ele><time>2026-05-01T13:17:14.98Z</time></trkpt><trkpt lat="40.0421817" lon="15.6533217"><ele>83.0</ele><time>2026-05-01T13:17:15.98Z</time></trkpt><trkpt lat="40.0421533" lon="15.65321"><ele>83.0</ele><time>2026-05-01T13:17:16.98Z</time></trkpt><trkpt lat="40.0421417" lon="15.6530933"><ele>83.0</ele><time>2026-05-01T13:17:17.979Z</time></trkpt><trkpt lat="40.042135" lon="15.65298"><ele>83.0</ele><time>2026-05-01T13:17:18.98Z</time></trkpt><trkpt lat="40.0421367" lon="15.6528517"><ele>83.0</ele><time>2026-05-01T13:17:19.979Z</time></trkpt><trkpt lat="40.0421267" lon="15.65273"><ele>83.0</ele><time>2026-05-01T13:17:20.979Z</time></trkpt><trkpt lat="40.0421117" lon="15.6526133"><ele>87.5</ele><time>2026-05-01T13:17:21.98Z</time></trkpt><trkpt lat="40.042105" lon="15.6524933"><ele>92.0</ele><time>2026-05-01T13:17:22.979Z</time></trkpt><trkpt lat="40.042075" lon="15.6523783"><ele>96.5</ele><time>2026-05-01T13:17:23.979Z</time></trkpt><trkpt lat="40.0420417" lon="15.652275"><ele>101.0</ele><time>2026-05-01T13:17:24.98Z</time></trkpt><trkpt lat="40.04201" lon="15.6521667"><ele>105.49999999999999</ele><time>2026-05-01T13:17:25.979Z</time></trkpt><trkpt lat="40.0419733" lon="15.6520617"><ele>110.0</ele><time>2026-05-01T13:17:26.98Z</time></trkpt><trkpt lat="40.041945" lon="15.651945"><ele>114.4</ele><time>2026-05-01T13:17:27.979Z</time></trkpt><trkpt lat="40.0419067" lon="15.65182"><ele>118.8</ele><time>2026-05-01T13:17:28.98Z</time></trkpt><trkpt lat="40.0418633" lon="15.6516883"><ele>123.19999999999999</ele><time>2026-05-01T13:17:29.979Z</time></trkpt><trkpt lat="40.04182" lon="15.6515517"><ele>127.6</ele><time>2026-05-01T13:17:30.979Z</time></trkpt><trkpt lat="40.0417633" lon="15.6514133"><ele>132.0</ele><time>2026-05-01T13:17:31.979Z</time></trkpt><trkpt lat="40.04169" lon="15.651275"><ele>125.5</ele><time>2026-05-01T13:17:32.979Z</time></trkpt><trkpt lat="40.0415983" lon="15.6511533"><ele>119.0</ele><time>2026-05-01T13:17:33.979Z</time></trkpt><trkpt lat="40.0415067" lon="15.6510467"><ele>112.5</ele><time>2026-05-01T13:17:34.979Z</time></trkpt><trkpt lat="40.041435" lon="15.65094"><ele>106.0</ele><time>2026-05-01T13:17:35.979Z</time></trkpt><trkpt lat="40.041365" lon="15.6508417"><ele>106.0</ele><time>2026-05-01T13:17:36.98Z</time></trkpt><trkpt lat="40.04129" lon="15.6507617"><ele>106.0</ele><time>2026-05-01T13:17:37.98Z</time></trkpt><trkpt lat="40.0411967" lon="15.6507117"><ele>106.0</ele><time>2026-05-01T13:17:38.979Z</time></trkpt><trkpt lat="40.0410917" lon="15.6506967"><ele>106.0</ele><time>2026-05-01T13:17:39.979Z</time></trkpt><trkpt lat="40.0409983" lon="15.6506833"><ele>106.0</ele><time>2026-05-01T13:17:40.979Z</time></trkpt><trkpt lat="40.040905" lon="15.6506883"><ele>106.00000000000001</ele><time>2026-05-01T13:17:41.979Z</time></trkpt><trkpt lat="40.040835" lon="15.6506833"><ele>106.0</ele><time>2026-05-01T13:17:42.98Z</time></trkpt><trkpt lat="40.0407633" lon="15.6506683"><ele>106.0</ele><time>2026-05-01T13:17:43.98Z</time></trkpt><trkpt lat="40.0406983" lon="15.650665"><ele>106.0</ele><time>2026-05-01T13:17:44.979Z</time></trkpt><trkpt lat="40.0406067" lon="15.6506033"><ele>106.00000000000001</ele><time>2026-05-01T13:17:46.979Z</time></trkpt><trkpt lat="40.0406033" lon="15.6504267"><ele>106.0</ele><time>2026-05-01T13:17:48.98Z</time></trkpt><trkpt lat="40.0406317" lon="15.6503083"><ele>108.0</ele><time>2026-05-01T13:17:49.979Z</time></trkpt><trkpt lat="40.040645" lon="15.6502133"><ele>110.0</ele><time>2026-05-01T13:17:50.98Z</time></trkpt><trkpt lat="40.04067" lon="15.6501117"><ele>112.0</ele><time>2026-05-01T13:17:51.979Z</time></trkpt><trkpt lat="40.0407033" lon="15.6500233"><ele>114.0</ele><time>2026-05-01T13:17:52.979Z</time></trkpt><trkpt lat="40.0407433" lon="15.6499433"><ele>116.0</ele><time>2026-05-01T13:17:53.979Z</time></trkpt><trkpt lat="40.040775" lon="15.6498667"><ele>118.0</ele><time>2026-05-01T13:17:54.979Z</time></trkpt><trkpt lat="40.040805" lon="15.6497867"><ele>120.0</ele><time>2026-05-01T13:17:55.98Z</time></trkpt><trkpt lat="40.040825" lon="15.6496933"><ele>120.0</ele><time>2026-05-01T13:17:56.979Z</time></trkpt><trkpt lat="40.04084" lon="15.6495983"><ele>120.0</ele><time>2026-05-01T13:17:57.98Z</time></trkpt><trkpt lat="40.0408467" lon="15.6495067"><ele>120.0</ele><time>2026-05-01T13:17:58.98Z</time></trkpt><trkpt lat="40.0408467" lon="15.6494117"><ele>120.0</ele><time>2026-05-01T13:17:59.979Z</time></trkpt><trkpt lat="40.0408417" lon="15.6493233"><ele>120.0</ele><time>2026-05-01T13:18:00.979Z</time></trkpt><trkpt lat="40.0408367" lon="15.6491683"><ele>120.0</ele><time>2026-05-01T13:18:02.979Z</time></trkpt><trkpt lat="40.04087" lon="15.64905"><ele>118.57142857142857</ele><time>2026-05-01T13:18:04.979Z</time></trkpt><trkpt lat="40.0408967" lon="15.6489517"><ele>117.14285714285714</ele><time>2026-05-01T13:18:06.98Z</time></trkpt><trkpt lat="40.0409267" lon="15.6488783"><ele>115.71428571428571</ele><time>2026-05-01T13:18:08.979Z</time></trkpt><trkpt lat="40.0409617" lon="15.6488033"><ele>114.28571428571428</ele><time>2026-05-01T13:18:10.98Z</time></trkpt><trkpt lat="40.0409967" lon="15.6487267"><ele>112.85714285714286</ele><time>2026-05-01T13:18:12.98Z</time></trkpt><trkpt lat="40.04105" lon="15.6486117"><ele>111.42857142857142</ele><time>2026-05-01T13:18:14.98Z</time></trkpt><trkpt lat="40.0410933" lon="15.6485483"><ele>110.0</ele><time>2026-05-01T13:18:15.98Z</time></trkpt><trkpt lat="40.0411467" lon="15.6484867"><ele>104.4</ele><time>2026-05-01T13:18:16.979Z</time></trkpt><trkpt lat="40.0412033" lon="15.6484317"><ele>98.8</ele><time>2026-05-01T13:18:17.979Z</time></trkpt><trkpt lat="40.0412617" lon="15.64838"><ele>93.19999999999999</ele><time>2026-05-01T13:18:18.979Z</time></trkpt><trkpt lat="40.0413717" lon="15.648295"><ele>87.6</ele><time>2026-05-01T13:18:20.979Z</time></trkpt><trkpt lat="40.041455" lon="15.648235"><ele>82.0</ele><time>2026-05-01T13:18:22.979Z</time></trkpt><trkpt lat="40.0415433" lon="15.64821"><ele>82.0</ele><time>2026-05-01T13:18:24.98Z</time></trkpt><trkpt lat="40.0416183" lon="15.648185"><ele>82.0</ele><time>2026-05-01T13:18:26.98Z</time></trkpt><trkpt lat="40.0417" lon="15.64814"><ele>82.0</ele><time>2026-05-01T13:18:28.979Z</time></trkpt><trkpt lat="40.0417733" lon="15.6480417"><ele>82.0</ele><time>2026-05-01T13:18:30.98Z</time></trkpt><trkpt lat="40.0418267" lon="15.64791"><ele>82.0</ele><time>2026-05-01T13:18:32.98Z</time></trkpt><trkpt lat="40.0418383" lon="15.6477867"><ele>87.19999999999999</ele><time>2026-05-01T13:18:34.979Z</time></trkpt><trkpt lat="40.0417883" lon="15.6476433"><ele>92.4</ele><time>2026-05-01T13:18:36.98Z</time></trkpt><trkpt lat="40.0417517" lon="15.647565"><ele>97.60000000000001</ele><time>2026-05-01T13:18:37.98Z</time></trkpt><trkpt lat="40.0417183" lon="15.64746"><ele>102.80000000000001</ele><time>2026-05-01T13:18:39.979Z</time></trkpt><trkpt lat="40.0417133" lon="15.6473583"><ele>108.0</ele><time>2026-05-01T13:18:41.979Z</time></trkpt><trkpt lat="40.041735" lon="15.6472333"><ele>108.0</ele><time>2026-05-01T13:18:43.979Z</time></trkpt><trkpt lat="40.0418033" lon="15.6471"><ele>108.00000000000001</ele><time>2026-05-01T13:18:45.979Z</time></trkpt><trkpt lat="40.04184" lon="15.6470233"><ele>108.00000000000001</ele><time>2026-05-01T13:18:46.98Z</time></trkpt><trkpt lat="40.0418617" lon="15.646865"><ele>108.0</ele><time>2026-05-01T13:18:48.979Z</time></trkpt><trkpt lat="40.0418467" lon="15.64671"><ele>108.0</ele><time>2026-05-01T13:18:50.98Z</time></trkpt><trkpt lat="40.0418367" lon="15.6466267"><ele>102.4</ele><time>2026-05-01T13:18:51.98Z</time></trkpt><trkpt lat="40.0418383" lon="15.646475"><ele>96.80000000000001</ele><time>2026-05-01T13:18:53.979Z</time></trkpt><trkpt lat="40.0419117" lon="15.6463383"><ele>91.2</ele><time>2026-05-01T13:18:55.979Z</time></trkpt><trkpt lat="40.0419833" lon="15.6463017"><ele>85.6</ele><time>2026-05-01T13:18:56.979Z</time></trkpt><trkpt lat="40.04207" lon="15.646285"><ele>80.0</ele><time>2026-05-01T13:18:57.98Z</time></trkpt><trkpt lat="40.0421633" lon="15.64629"><ele>80.0</ele><time>2026-05-01T13:18:58.98Z</time></trkpt><trkpt lat="40.04226" lon="15.646305"><ele>80.0</ele><time>2026-05-01T13:18:59.979Z</time></trkpt><trkpt lat="40.0423533" lon="15.646325"><ele>80.0</ele><time>2026-05-01T13:19:00.979Z</time></trkpt><trkpt lat="40.0424383" lon="15.646355"><ele>80.0</ele><time>2026-05-01T13:19:01.98Z</time></trkpt><trkpt lat="40.0425217" lon="15.646395"><ele>80.0</ele><time>2026-05-01T13:19:02.98Z</time></trkpt><trkpt lat="40.0426" lon="15.64644"><ele>85.66666666666667</ele><time>2026-05-01T13:19:03.98Z</time></trkpt><trkpt lat="40.0426733" lon="15.6465"><ele>91.33333333333334</ele><time>2026-05-01T13:19:04.979Z</time></trkpt><trkpt lat="40.0427267" lon="15.6465783"><ele>97.0</ele><time>2026-05-01T13:19:05.979Z</time></trkpt><trkpt lat="40.0427767" lon="15.6466517"><ele>102.66666666666667</ele><time>2026-05-01T13:19:06.979Z</time></trkpt><trkpt lat="40.0428383" lon="15.6467117"><ele>108.33333333333333</ele><time>2026-05-01T13:19:07.979Z</time></trkpt><trkpt lat="40.0429167" lon="15.64677"><ele>114.0</ele><time>2026-05-01T13:19:08.979Z</time></trkpt><trkpt lat="40.0430267" lon="15.6468217"><ele>114.0</ele><time>2026-05-01T13:19:09.979Z</time></trkpt><trkpt lat="40.0431783" lon="15.6468617"><ele>114.0</ele><time>2026-05-01T13:19:10.98Z</time></trkpt><trkpt lat="40.0433283" lon="15.64691"><ele>114.0</ele><time>2026-05-01T13:19:11.979Z</time></trkpt><trkpt lat="40.043465" lon="15.64699"><ele>118.4</ele><time>2026-05-01T13:19:12.979Z</time></trkpt><trkpt lat="40.04358" lon="15.64708"><ele>122.80000000000001</ele><time>2026-05-01T13:19:13.98Z</time></trkpt><trkpt lat="40.0436683" lon="15.6471917"><ele>127.19999999999999</ele><time>2026-05-01T13:19:14.979Z</time></trkpt><trkpt lat="40.04373" lon="15.6472967"><ele>131.6</ele><time>2026-05-01T13:19:15.979Z</time></trkpt><trkpt lat="40.043765" lon="15.6473933"><ele>136.0</ele><time>2026-05-01T13:19:16.98Z</time></trkpt><trkpt lat="40.043815" lon="15.6474667"><ele>136.0</ele><time>2026-05-01T13:19:17.98Z</time></trkpt><trkpt lat="40.0438717" lon="15.6475117"><ele>136.0</ele><time>2026-05-01T13:19:18.979Z</time></trkpt><trkpt lat="40.043945" lon="15.6475183"><ele>136.0</ele><time>2026-05-01T13:19:19.979Z</time></trkpt><trkpt lat="40.044025" lon="15.6474983"><ele>136.0</ele><time>2026-05-01T13:19:20.979Z</time></trkpt><trkpt lat="40.0441217" lon="15.6473983"><ele>136.0</ele><time>2026-05-01T13:19:21.979Z</time></trkpt><trkpt lat="40.044215" lon="15.6472583"><ele>128.0</ele><time>2026-05-01T13:19:22.979Z</time></trkpt><trkpt lat="40.0442983" lon="15.647105"><ele>120.0</ele><time>2026-05-01T13:19:23.979Z</time></trkpt><trkpt lat="40.0443683" lon="15.6469783"><ele>112.0</ele><time>2026-05-01T13:19:24.98Z</time></trkpt><trkpt lat="40.0444133" lon="15.64685"><ele>104.0</ele><time>2026-05-01T13:19:25.979Z</time></trkpt><trkpt lat="40.0444533" lon="15.6467083"><ele>104.0</ele><time>2026-05-01T13:19:26.98Z</time></trkpt><trkpt lat="40.0444767" lon="15.6465717"><ele>104.0</ele><time>2026-05-01T13:19:27.98Z</time></trkpt><trkpt lat="40.0444633" lon="15.6464267"><ele>104.0</ele><time>2026-05-01T13:19:28.979Z</time></trkpt><trkpt lat="40.0444333" lon="15.6462717"><ele>104.0</ele><time>2026-05-01T13:19:29.98Z</time></trkpt><trkpt lat="40.044385" lon="15.6461267"><ele>104.0</ele><time>2026-05-01T13:19:30.979Z</time></trkpt><trkpt lat="40.0443167" lon="15.6459867"><ele>104.0</ele><time>2026-05-01T13:19:31.98Z</time></trkpt><trkpt lat="40.044225" lon="15.6458533"><ele>104.0</ele><time>2026-05-01T13:19:32.98Z</time></trkpt><trkpt lat="40.0441367" lon="15.6457267"><ele>104.0</ele><time>2026-05-01T13:19:33.979Z</time></trkpt><trkpt lat="40.04406" lon="15.64561"><ele>93.0</ele><time>2026-05-01T13:19:34.979Z</time></trkpt><trkpt lat="40.0439917" lon="15.6455017"><ele>82.0</ele><time>2026-05-01T13:19:35.979Z</time></trkpt><trkpt lat="40.043945" lon="15.645395"><ele>71.0</ele><time>2026-05-01T13:19:36.98Z</time></trkpt><trkpt lat="40.043935" lon="15.6452867"><ele>60.0</ele><time>2026-05-01T13:19:37.979Z</time></trkpt><trkpt lat="40.0439617" lon="15.6451867"><ele>49.0</ele><time>2026-05-01T13:19:38.979Z</time></trkpt><trkpt lat="40.044015" lon="15.6450967"><ele>44.0</ele><time>2026-05-01T13:19:39.98Z</time></trkpt><trkpt lat="40.04411" lon="15.64501"><ele>39.0</ele><time>2026-05-01T13:19:40.979Z</time></trkpt><trkpt lat="40.044225" lon="15.6449133"><ele>34.0</ele><time>2026-05-01T13:19:41.979Z</time></trkpt><trkpt lat="40.0443217" lon="15.64478"><ele>29.0</ele><time>2026-05-01T13:19:42.979Z</time></trkpt><trkpt lat="40.0444033" lon="15.6446283"><ele>40.0</ele><time>2026-05-01T13:19:43.979Z</time></trkpt><trkpt lat="40.0444467" lon="15.6444833"><ele>51.0</ele><time>2026-05-01T13:19:44.98Z</time></trkpt><trkpt lat="40.0444717" lon="15.644335"><ele>62.0</ele><time>2026-05-01T13:19:45.979Z</time></trkpt><trkpt lat="40.0444867" lon="15.6441933"><ele>73.0</ele><time>2026-05-01T13:19:46.98Z</time></trkpt><trkpt lat="40.044495" lon="15.6440533"><ele>73.0</ele><time>2026-05-01T13:19:47.979Z</time></trkpt><trkpt lat="40.044515" lon="15.6439333"><ele>73.0</ele><time>2026-05-01T13:19:48.98Z</time></trkpt><trkpt lat="40.0445633" lon="15.6438417"><ele>73.0</ele><time>2026-05-01T13:19:49.979Z</time></trkpt><trkpt lat="40.0446467" lon="15.6437683"><ele>73.0</ele><time>2026-05-01T13:19:50.979Z</time></trkpt><trkpt lat="40.044755" lon="15.6437083"><ele>73.0</ele><time>2026-05-01T13:19:51.979Z</time></trkpt><trkpt lat="40.04486" lon="15.6436433"><ele>78.4</ele><time>2026-05-01T13:19:52.98Z</time></trkpt><trkpt lat="40.044965" lon="15.6435933"><ele>83.8</ele><time>2026-05-01T13:19:53.98Z</time></trkpt><trkpt lat="40.04506" lon="15.6435433"><ele>89.2</ele><time>2026-05-01T13:19:54.979Z</time></trkpt><trkpt lat="40.0451483" lon="15.6435217"><ele>94.6</ele><time>2026-05-01T13:19:55.979Z</time></trkpt><trkpt lat="40.0452417" lon="15.6435267"><ele>100.0</ele><time>2026-05-01T13:19:56.979Z</time></trkpt><trkpt lat="40.0453217" lon="15.6435517"><ele>100.0</ele><time>2026-05-01T13:19:57.979Z</time></trkpt><trkpt lat="40.0454083" lon="15.643595"><ele>100.0</ele><time>2026-05-01T13:19:58.979Z</time></trkpt><trkpt lat="40.04551" lon="15.6436667"><ele>100.0</ele><time>2026-05-01T13:19:59.979Z</time></trkpt><trkpt lat="40.04562" lon="15.64375"><ele>100.0</ele><time>2026-05-01T13:20:00.979Z</time></trkpt><trkpt lat="40.0457267" lon="15.6438133"><ele>108.25</ele><time>2026-05-01T13:20:01.979Z</time></trkpt><trkpt lat="40.0458383" lon="15.6438467"><ele>116.5</ele><time>2026-05-01T13:20:02.98Z</time></trkpt><trkpt lat="40.0459683" lon="15.6438533"><ele>124.75</ele><time>2026-05-01T13:20:03.98Z</time></trkpt><trkpt lat="40.0461017" lon="15.6438383"><ele>133.0</ele><time>2026-05-01T13:20:04.979Z</time></trkpt><trkpt lat="40.0462467" lon="15.6438167"><ele>133.0</ele><time>2026-05-01T13:20:05.979Z</time></trkpt><trkpt lat="40.0463833" lon="15.643795"><ele>133.0</ele><time>2026-05-01T13:20:06.979Z</time></trkpt><trkpt lat="40.04653" lon="15.6437567"><ele>133.0</ele><time>2026-05-01T13:20:07.979Z</time></trkpt><trkpt lat="40.04668" lon="15.6437067"><ele>133.0</ele><time>2026-05-01T13:20:08.979Z</time></trkpt><trkpt lat="40.0468333" lon="15.643665"><ele>133.0</ele><time>2026-05-01T13:20:09.978Z</time></trkpt><trkpt lat="40.0469817" lon="15.643635"><ele>133.0</ele><time>2026-05-01T13:20:10.979Z</time></trkpt><trkpt lat="40.04712" lon="15.64363"><ele>133.0</ele><time>2026-05-01T13:20:11.978Z</time></trkpt><trkpt lat="40.04725" lon="15.64363"><ele>133.0</ele><time>2026-05-01T13:20:12.979Z</time></trkpt><trkpt lat="40.0473567" lon="15.6436"><ele>130.0</ele><time>2026-05-01T13:20:13.978Z</time></trkpt><trkpt lat="40.0474483" lon="15.6435567"><ele>127.00000000000001</ele><time>2026-05-01T13:20:14.978Z</time></trkpt><trkpt lat="40.0475233" lon="15.6434783"><ele>124.00000000000001</ele><time>2026-05-01T13:20:15.978Z</time></trkpt><trkpt lat="40.0475667" lon="15.6433583"><ele>121.0</ele><time>2026-05-01T13:20:16.979Z</time></trkpt><trkpt lat="40.0475817" lon="15.64324"><ele>118.0</ele><time>2026-05-01T13:20:17.979Z</time></trkpt><trkpt lat="40.0475767" lon="15.6431183"><ele>118.0</ele><time>2026-05-01T13:20:18.979Z</time></trkpt><trkpt lat="40.0475433" lon="15.6429817"><ele>118.0</ele><time>2026-05-01T13:20:19.978Z</time></trkpt><trkpt lat="40.047495" lon="15.6428267"><ele>118.0</ele><time>2026-05-01T13:20:20.978Z</time></trkpt><trkpt lat="40.0474533" lon="15.6426583"><ele>118.0</ele><time>2026-05-01T13:20:21.978Z</time></trkpt><trkpt lat="40.0474383" lon="15.6424767"><ele>105.25</ele><time>2026-05-01T13:20:22.979Z</time></trkpt><trkpt lat="40.047425" lon="15.6423017"><ele>92.5</ele><time>2026-05-01T13:20:23.979Z</time></trkpt><trkpt lat="40.047415" lon="15.6421333"><ele>79.75</ele><time>2026-05-01T13:20:24.979Z</time></trkpt><trkpt lat="40.0474083" lon="15.6419617"><ele>67.0</ele><time>2026-05-01T13:20:25.978Z</time></trkpt><trkpt lat="40.04742" lon="15.6417983"><ele>62.6</ele><time>2026-05-01T13:20:26.978Z</time></trkpt><trkpt lat="40.04744" lon="15.6416467"><ele>58.2</ele><time>2026-05-01T13:20:27.978Z</time></trkpt><trkpt lat="40.0474717" lon="15.6415083"><ele>53.8</ele><time>2026-05-01T13:20:28.978Z</time></trkpt><trkpt lat="40.0475167" lon="15.6413867"><ele>49.4</ele><time>2026-05-01T13:20:29.978Z</time></trkpt><trkpt lat="40.0475717" lon="15.6412783"><ele>45.0</ele><time>2026-05-01T13:20:30.978Z</time></trkpt><trkpt lat="40.0476467" lon="15.6411783"><ele>49.4</ele><time>2026-05-01T13:20:31.979Z</time></trkpt><trkpt lat="40.047725" lon="15.641105"><ele>53.8</ele><time>2026-05-01T13:20:32.978Z</time></trkpt><trkpt lat="40.0478183" lon="15.64105"><ele>58.2</ele><time>2026-05-01T13:20:33.979Z</time></trkpt><trkpt lat="40.0479267" lon="15.6409983"><ele>62.6</ele><time>2026-05-01T13:20:34.979Z</time></trkpt><trkpt lat="40.048035" lon="15.6409517"><ele>67.0</ele><time>2026-05-01T13:20:35.978Z</time></trkpt><trkpt lat="40.0481483" lon="15.6408967"><ele>67.0</ele><time>2026-05-01T13:20:36.978Z</time></trkpt><trkpt lat="40.0482683" lon="15.640845"><ele>67.0</ele><time>2026-05-01T13:20:37.979Z</time></trkpt><trkpt lat="40.0483867" lon="15.6407967"><ele>67.0</ele><time>2026-05-01T13:20:38.979Z</time></trkpt><trkpt lat="40.0484917" lon="15.6407467"><ele>67.0</ele><time>2026-05-01T13:20:39.978Z</time></trkpt><trkpt lat="40.0486" lon="15.6407"><ele>72.75</ele><time>2026-05-01T13:20:40.979Z</time></trkpt><trkpt lat="40.048705" lon="15.6406517"><ele>78.5</ele><time>2026-05-01T13:20:41.979Z</time></trkpt><trkpt lat="40.04881" lon="15.640605"><ele>84.25</ele><time>2026-05-01T13:20:42.978Z</time></trkpt><trkpt lat="40.0489133" lon="15.6405433"><ele>90.0</ele><time>2026-05-01T13:20:43.978Z</time></trkpt><trkpt lat="40.0490417" lon="15.6404933"><ele>87.25</ele><time>2026-05-01T13:20:44.979Z</time></trkpt><trkpt lat="40.04915" lon="15.6404"><ele>84.5</ele><time>2026-05-01T13:20:45.978Z</time></trkpt><trkpt lat="40.04926" lon="15.6402933"><ele>81.75</ele><time>2026-05-01T13:20:46.978Z</time></trkpt><trkpt lat="40.0493567" lon="15.6401633"><ele>79.0</ele><time>2026-05-01T13:20:47.978Z</time></trkpt><trkpt lat="40.0494383" lon="15.640015"><ele>79.0</ele><time>2026-05-01T13:20:48.978Z</time></trkpt><trkpt lat="40.049535" lon="15.639895"><ele>79.0</ele><time>2026-05-01T13:20:49.978Z</time></trkpt><trkpt lat="40.0496317" lon="15.63977"><ele>79.0</ele><time>2026-05-01T13:20:50.978Z</time></trkpt><trkpt lat="40.049735" lon="15.6396417"><ele>79.0</ele><time>2026-05-01T13:20:51.979Z</time></trkpt><trkpt lat="40.0498333" lon="15.6395133"><ele>80.0</ele><time>2026-05-01T13:20:52.978Z</time></trkpt><trkpt lat="40.0499183" lon="15.6393733"><ele>81.0</ele><time>2026-05-01T13:20:53.978Z</time></trkpt><trkpt lat="40.0499867" lon="15.6392167"><ele>82.0</ele><time>2026-05-01T13:20:54.978Z</time></trkpt><trkpt lat="40.050045" lon="15.6390617"><ele>83.0</ele><time>2026-05-01T13:20:55.978Z</time></trkpt><trkpt lat="40.0500833" lon="15.6389083"><ele>83.0</ele><time>2026-05-01T13:20:56.978Z</time></trkpt><trkpt lat="40.0501333" lon="15.638765"><ele>83.0</ele><time>2026-05-01T13:20:57.978Z</time></trkpt><trkpt lat="40.0501667" lon="15.6386167"><ele>83.0</ele><time>2026-05-01T13:20:58.978Z</time></trkpt><trkpt lat="40.0502033" lon="15.6384617"><ele>83.0</ele><time>2026-05-01T13:20:59.979Z</time></trkpt><trkpt lat="40.0502383" lon="15.6382983"><ele>77.25</ele><time>2026-05-01T13:21:00.978Z</time></trkpt><trkpt lat="40.0502867" lon="15.6381467"><ele>71.5</ele><time>2026-05-01T13:21:01.978Z</time></trkpt><trkpt lat="40.0503333" lon="15.6379883"><ele>65.75</ele><time>2026-05-01T13:21:02.978Z</time></trkpt><trkpt lat="40.0503917" lon="15.6378283"><ele>60.0</ele><time>2026-05-01T13:21:03.978Z</time></trkpt><trkpt lat="40.0504483" lon="15.6376583"><ele>53.333333333333336</ele><time>2026-05-01T13:21:04.978Z</time></trkpt><trkpt lat="40.050515" lon="15.6374783"><ele>46.66666666666667</ele><time>2026-05-01T13:21:05.979Z</time></trkpt><trkpt lat="40.05059" lon="15.6373017"><ele>40.0</ele><time>2026-05-01T13:21:06.978Z</time></trkpt><trkpt lat="40.0506733" lon="15.63713"><ele>40.0</ele><time>2026-05-01T13:21:07.978Z</time></trkpt><trkpt lat="40.0507667" lon="15.63697"><ele>40.0</ele><time>2026-05-01T13:21:08.978Z</time></trkpt><trkpt lat="40.0508567" lon="15.6368"><ele>40.0</ele><time>2026-05-01T13:21:09.979Z</time></trkpt><trkpt lat="40.050945" lon="15.6366317"><ele>42.75</ele><time>2026-05-01T13:21:10.978Z</time></trkpt><trkpt lat="40.051045" lon="15.6364767"><ele>45.5</ele><time>2026-05-01T13:21:11.979Z</time></trkpt><trkpt lat="40.051125" lon="15.6363167"><ele>48.25</ele><time>2026-05-01T13:21:12.979Z</time></trkpt><trkpt lat="40.0511967" lon="15.6361583"><ele>51.0</ele><time>2026-05-01T13:21:13.979Z</time></trkpt><trkpt lat="40.0512717" lon="15.6359867"><ele>51.0</ele><time>2026-05-01T13:21:14.978Z</time></trkpt><trkpt lat="40.0513383" lon="15.635825"><ele>51.0</ele><time>2026-05-01T13:21:15.978Z</time></trkpt><trkpt lat="40.0514017" lon="15.6356533"><ele>51.0</ele><time>2026-05-01T13:21:16.978Z</time></trkpt><trkpt lat="40.051475" lon="15.6354783"><ele>51.0</ele><time>2026-05-01T13:21:17.978Z</time></trkpt><trkpt lat="40.0515433" lon="15.6352917"><ele>48.25</ele><time>2026-05-01T13:21:18.979Z</time></trkpt><trkpt lat="40.0516083" lon="15.63512"><ele>45.5</ele><time>2026-05-01T13:21:19.979Z</time></trkpt><trkpt lat="40.05168" lon="15.63495"><ele>42.75</ele><time>2026-05-01T13:21:20.978Z</time></trkpt><trkpt lat="40.05176" lon="15.6347817"><ele>40.0</ele><time>2026-05-01T13:21:21.978Z</time></trkpt><trkpt lat="40.0518517" lon="15.63463"><ele>42.75</ele><time>2026-05-01T13:21:22.978Z</time></trkpt><trkpt lat="40.0519383" lon="15.6344833"><ele>45.5</ele><time>2026-05-01T13:21:23.978Z</time></trkpt><trkpt lat="40.0520317" lon="15.6343467"><ele>48.25</ele><time>2026-05-01T13:21:24.979Z</time></trkpt><trkpt lat="40.0521333" lon="15.6342267"><ele>51.0</ele><time>2026-05-01T13:21:25.979Z</time></trkpt><trkpt lat="40.0522183" lon="15.6341133"><ele>51.0</ele><time>2026-05-01T13:21:26.979Z</time></trkpt><trkpt lat="40.052305" lon="15.6339983"><ele>51.0</ele><time>2026-05-01T13:21:27.978Z</time></trkpt><trkpt lat="40.05239" lon="15.6338783"><ele>51.0</ele><time>2026-05-01T13:21:28.978Z</time></trkpt><trkpt lat="40.0524717" lon="15.6337217"><ele>51.0</ele><time>2026-05-01T13:21:29.978Z</time></trkpt><trkpt lat="40.0525467" lon="15.6335633"><ele>53.0</ele><time>2026-05-01T13:21:30.978Z</time></trkpt><trkpt lat="40.0526183" lon="15.6334117"><ele>55.0</ele><time>2026-05-01T13:21:31.978Z</time></trkpt><trkpt lat="40.052675" lon="15.6332533"><ele>57.0</ele><time>2026-05-01T13:21:32.978Z</time></trkpt><trkpt lat="40.0527483" lon="15.6331033"><ele>59.0</ele><time>2026-05-01T13:21:33.979Z</time></trkpt><trkpt lat="40.0528233" lon="15.6329733"><ele>59.0</ele><time>2026-05-01T13:21:34.979Z</time></trkpt><trkpt lat="40.0529" lon="15.6328433"><ele>59.0</ele><time>2026-05-01T13:21:35.978Z</time></trkpt><trkpt lat="40.0529867" lon="15.6327267"><ele>59.0</ele><time>2026-05-01T13:21:36.978Z</time></trkpt><trkpt lat="40.05307" lon="15.6326033"><ele>59.0</ele><time>2026-05-01T13:21:37.978Z</time></trkpt><trkpt lat="40.0531533" lon="15.6324783"><ele>61.0</ele><time>2026-05-01T13:21:38.978Z</time></trkpt><trkpt lat="40.0532417" lon="15.6323583"><ele>63.0</ele><time>2026-05-01T13:21:39.978Z</time></trkpt><trkpt lat="40.05334" lon="15.632245"><ele>65.0</ele><time>2026-05-01T13:21:40.979Z</time></trkpt><trkpt lat="40.0534517" lon="15.632135"><ele>67.0</ele><time>2026-05-01T13:21:41.978Z</time></trkpt><trkpt lat="40.053565" lon="15.6320233"><ele>59.5</ele><time>2026-05-01T13:21:42.978Z</time></trkpt><trkpt lat="40.0536733" lon="15.631905"><ele>52.0</ele><time>2026-05-01T13:21:43.978Z</time></trkpt><trkpt lat="40.053785" lon="15.6318033"><ele>44.5</ele><time>2026-05-01T13:21:44.978Z</time></trkpt><trkpt lat="40.053895" lon="15.631695"><ele>37.0</ele><time>2026-05-01T13:21:45.978Z</time></trkpt><trkpt lat="40.0540017" lon="15.63159"><ele>37.0</ele><time>2026-05-01T13:21:46.979Z</time></trkpt><trkpt lat="40.05411" lon="15.6314933"><ele>37.0</ele><time>2026-05-01T13:21:47.978Z</time></trkpt><trkpt lat="40.054215" lon="15.6313817"><ele>37.0</ele><time>2026-05-01T13:21:48.979Z</time></trkpt><trkpt lat="40.0543117" lon="15.6312517"><ele>37.0</ele><time>2026-05-01T13:21:49.978Z</time></trkpt><trkpt lat="40.0544083" lon="15.6311117"><ele>35.66666666666667</ele><time>2026-05-01T13:21:50.978Z</time></trkpt><trkpt lat="40.0545083" lon="15.6309667"><ele>34.333333333333336</ele><time>2026-05-01T13:21:51.979Z</time></trkpt><trkpt lat="40.054615" lon="15.63082"><ele>33.0</ele><time>2026-05-01T13:21:52.978Z</time></trkpt><trkpt lat="40.0547283" lon="15.6306783"><ele>33.0</ele><time>2026-05-01T13:21:53.978Z</time></trkpt><trkpt lat="40.054845" lon="15.6305417"><ele>33.0</ele><time>2026-05-01T13:21:54.978Z</time></trkpt><trkpt lat="40.0549667" lon="15.6304133"><ele>33.0</ele><time>2026-05-01T13:21:55.979Z</time></trkpt><trkpt lat="40.0550833" lon="15.6302833"><ele>34.5</ele><time>2026-05-01T13:21:56.978Z</time></trkpt><trkpt lat="40.0552" lon="15.63017"><ele>36.0</ele><time>2026-05-01T13:21:57.978Z</time></trkpt><trkpt lat="40.055315" lon="15.6300583"><ele>37.5</ele><time>2026-05-01T13:21:58.978Z</time></trkpt><trkpt lat="40.055415" lon="15.6299383"><ele>39.0</ele><time>2026-05-01T13:21:59.979Z</time></trkpt><trkpt lat="40.0555133" lon="15.6298267"><ele>39.0</ele><time>2026-05-01T13:22:00.978Z</time></trkpt><trkpt lat="40.055625" lon="15.6297183"><ele>39.0</ele><time>2026-05-01T13:22:01.979Z</time></trkpt><trkpt lat="40.0557317" lon="15.629605"><ele>39.0</ele><time>2026-05-01T13:22:02.979Z</time></trkpt><trkpt lat="40.0558383" lon="15.6295017"><ele>39.0</ele><time>2026-05-01T13:22:03.979Z</time></trkpt><trkpt lat="40.0559383" lon="15.6293867"><ele>39.75</ele><time>2026-05-01T13:22:04.978Z</time></trkpt><trkpt lat="40.0560417" lon="15.6292533"><ele>40.5</ele><time>2026-05-01T13:22:05.978Z</time></trkpt><trkpt lat="40.0561467" lon="15.6291317"><ele>41.25</ele><time>2026-05-01T13:22:06.978Z</time></trkpt><trkpt lat="40.05625" lon="15.629015"><ele>42.0</ele><time>2026-05-01T13:22:07.978Z</time></trkpt><trkpt lat="40.0563533" lon="15.6288883"><ele>42.0</ele><time>2026-05-01T13:22:08.978Z</time></trkpt><trkpt lat="40.0564567" lon="15.6287617"><ele>42.0</ele><time>2026-05-01T13:22:09.978Z</time></trkpt><trkpt lat="40.0565683" lon="15.6286517"><ele>42.0</ele><time>2026-05-01T13:22:10.978Z</time></trkpt><trkpt lat="40.0566717" lon="15.6285383"><ele>42.0</ele><time>2026-05-01T13:22:11.978Z</time></trkpt><trkpt lat="40.05677" lon="15.6284183"><ele>41.75</ele><time>2026-05-01T13:22:12.979Z</time></trkpt><trkpt lat="40.0568633" lon="15.6283117"><ele>41.5</ele><time>2026-05-01T13:22:13.978Z</time></trkpt><trkpt lat="40.0569567" lon="15.6282017"><ele>41.25</ele><time>2026-05-01T13:22:14.978Z</time></trkpt><trkpt lat="40.0570483" lon="15.6280967"><ele>41.0</ele><time>2026-05-01T13:22:15.978Z</time></trkpt><trkpt lat="40.0571383" lon="15.6279917"><ele>41.0</ele><time>2026-05-01T13:22:16.978Z</time></trkpt><trkpt lat="40.0572283" lon="15.627885"><ele>41.0</ele><time>2026-05-01T13:22:17.978Z</time></trkpt><trkpt lat="40.057325" lon="15.6277867"><ele>41.0</ele><time>2026-05-01T13:22:18.979Z</time></trkpt><trkpt lat="40.0574267" lon="15.6276683"><ele>41.0</ele><time>2026-05-01T13:22:19.979Z</time></trkpt><trkpt lat="40.0575383" lon="15.6275683"><ele>40.5</ele><time>2026-05-01T13:22:20.978Z</time></trkpt><trkpt lat="40.0576533" lon="15.627465"><ele>40.0</ele><time>2026-05-01T13:22:21.978Z</time></trkpt><trkpt lat="40.05777" lon="15.6273733"><ele>39.5</ele><time>2026-05-01T13:22:22.978Z</time></trkpt><trkpt lat="40.05789" lon="15.6272967"><ele>39.0</ele><time>2026-05-01T13:22:23.979Z</time></trkpt><trkpt lat="40.0580033" lon="15.627225"><ele>39.0</ele><time>2026-05-01T13:22:24.979Z</time></trkpt><trkpt lat="40.0581117" lon="15.6271817"><ele>39.0</ele><time>2026-05-01T13:22:25.978Z</time></trkpt><trkpt lat="40.05823" lon="15.6271533"><ele>39.0</ele><time>2026-05-01T13:22:26.979Z</time></trkpt><trkpt lat="40.05834" lon="15.6271633"><ele>39.0</ele><time>2026-05-01T13:22:27.979Z</time></trkpt><trkpt lat="40.0584433" lon="15.6272117"><ele>41.25</ele><time>2026-05-01T13:22:28.978Z</time></trkpt><trkpt lat="40.058545" lon="15.6272717"><ele>43.5</ele><time>2026-05-01T13:22:29.979Z</time></trkpt><trkpt lat="40.0586567" lon="15.6273417"><ele>45.75</ele><time>2026-05-01T13:22:30.978Z</time></trkpt><trkpt lat="40.0587783" lon="15.6273833"><ele>48.0</ele><time>2026-05-01T13:22:31.978Z</time></trkpt><trkpt lat="40.05891" lon="15.6274033"><ele>48.0</ele><time>2026-05-01T13:22:32.979Z</time></trkpt><trkpt lat="40.0590533" lon="15.6274017"><ele>48.0</ele><time>2026-05-01T13:22:33.978Z</time></trkpt><trkpt lat="40.0591983" lon="15.6273867"><ele>48.0</ele><time>2026-05-01T13:22:34.979Z</time></trkpt><trkpt lat="40.0593367" lon="15.6273733"><ele>48.0</ele><time>2026-05-01T13:22:35.978Z</time></trkpt><trkpt lat="40.0594617" lon="15.627375"><ele>46.75</ele><time>2026-05-01T13:22:36.978Z</time></trkpt><trkpt lat="40.0595867" lon="15.627365"><ele>45.5</ele><time>2026-05-01T13:22:37.979Z</time></trkpt><trkpt lat="40.0597133" lon="15.6273633"><ele>44.25</ele><time>2026-05-01T13:22:38.978Z</time></trkpt><trkpt lat="40.059835" lon="15.627355"><ele>43.0</ele><time>2026-05-01T13:22:39.978Z</time></trkpt><trkpt lat="40.0599633" lon="15.6273517"><ele>42.75</ele><time>2026-05-01T13:22:40.978Z</time></trkpt><trkpt lat="40.06009" lon="15.62735"><ele>42.5</ele><time>2026-05-01T13:22:41.978Z</time></trkpt><trkpt lat="40.0602183" lon="15.62735"><ele>42.25</ele><time>2026-05-01T13:22:42.979Z</time></trkpt><trkpt lat="40.0603533" lon="15.6273483"><ele>42.0</ele><time>2026-05-01T13:22:43.978Z</time></trkpt><trkpt lat="40.0605" lon="15.6273533"><ele>42.0</ele><time>2026-05-01T13:22:44.978Z</time></trkpt><trkpt lat="40.0606567" lon="15.6273667"><ele>42.0</ele><time>2026-05-01T13:22:45.978Z</time></trkpt><trkpt lat="40.0608183" lon="15.6273883"><ele>42.0</ele><time>2026-05-01T13:22:46.978Z</time></trkpt><trkpt lat="40.0609833" lon="15.6274017"><ele>39.666666666666664</ele><time>2026-05-01T13:22:47.978Z</time></trkpt><trkpt lat="40.06114" lon="15.62742"><ele>37.33333333333333</ele><time>2026-05-01T13:22:48.979Z</time></trkpt><trkpt lat="40.0612883" lon="15.6274517"><ele>35.0</ele><time>2026-05-01T13:22:49.978Z</time></trkpt><trkpt lat="40.0614317" lon="15.6274783"><ele>35.0</ele><time>2026-05-01T13:22:50.979Z</time></trkpt><trkpt lat="40.0615717" lon="15.627505"><ele>35.0</ele><time>2026-05-01T13:22:51.979Z</time></trkpt><trkpt lat="40.0617033" lon="15.627535"><ele>35.0</ele><time>2026-05-01T13:22:52.978Z</time></trkpt><trkpt lat="40.0618267" lon="15.6275583"><ele>35.0</ele><time>2026-05-01T13:22:53.979Z</time></trkpt><trkpt lat="40.06194" lon="15.62758"><ele>33.0</ele><time>2026-05-01T13:22:54.979Z</time></trkpt><trkpt lat="40.06205" lon="15.6276133"><ele>31.0</ele><time>2026-05-01T13:22:55.978Z</time></trkpt><trkpt lat="40.06216" lon="15.62765"><ele>29.0</ele><time>2026-05-01T13:22:56.978Z</time></trkpt><trkpt lat="40.0622683" lon="15.6276883"><ele>27.0</ele><time>2026-05-01T13:22:57.978Z</time></trkpt><trkpt lat="40.0623717" lon="15.6277517"><ele>29.6</ele><time>2026-05-01T13:22:58.979Z</time></trkpt><trkpt lat="40.06247" lon="15.6278167"><ele>32.2</ele><time>2026-05-01T13:22:59.979Z</time></trkpt><trkpt lat="40.06256" lon="15.6278933"><ele>34.8</ele><time>2026-05-01T13:23:00.978Z</time></trkpt><trkpt lat="40.06264" lon="15.6279783"><ele>37.4</ele><time>2026-05-01T13:23:01.979Z</time></trkpt><trkpt lat="40.0627167" lon="15.628075"><ele>40.0</ele><time>2026-05-01T13:23:02.979Z</time></trkpt><trkpt lat="40.0627867" lon="15.6281783"><ele>40.0</ele><time>2026-05-01T13:23:03.978Z</time></trkpt><trkpt lat="40.062845" lon="15.6282833"><ele>40.0</ele><time>2026-05-01T13:23:04.979Z</time></trkpt><trkpt lat="40.0629017" lon="15.62839"><ele>40.0</ele><time>2026-05-01T13:23:05.978Z</time></trkpt><trkpt lat="40.0629617" lon="15.6285033"><ele>40.0</ele><time>2026-05-01T13:23:06.978Z</time></trkpt><trkpt lat="40.0630233" lon="15.628615"><ele>40.0</ele><time>2026-05-01T13:23:07.978Z</time></trkpt><trkpt lat="40.0630933" lon="15.6287217"><ele>37.6</ele><time>2026-05-01T13:23:08.978Z</time></trkpt><trkpt lat="40.0631633" lon="15.628835"><ele>35.2</ele><time>2026-05-01T13:23:09.979Z</time></trkpt><trkpt lat="40.063235" lon="15.62894"><ele>32.8</ele><time>2026-05-01T13:23:10.978Z</time></trkpt><trkpt lat="40.0633033" lon="15.6290467"><ele>30.4</ele><time>2026-05-01T13:23:11.979Z</time></trkpt><trkpt lat="40.0633633" lon="15.6291567"><ele>28.0</ele><time>2026-05-01T13:23:12.979Z</time></trkpt><trkpt lat="40.0634233" lon="15.6292617"><ele>28.0</ele><time>2026-05-01T13:23:13.979Z</time></trkpt><trkpt lat="40.0635017" lon="15.6293567"><ele>28.0</ele><time>2026-05-01T13:23:14.979Z</time></trkpt><trkpt lat="40.0635783" lon="15.6294583"><ele>28.0</ele><time>2026-05-01T13:23:15.978Z</time></trkpt><trkpt lat="40.0636633" lon="15.6295633"><ele>28.0</ele><time>2026-05-01T13:23:16.978Z</time></trkpt><trkpt lat="40.0637617" lon="15.6296517"><ele>27.799999999999997</ele><time>2026-05-01T13:23:17.978Z</time></trkpt><trkpt lat="40.0638567" lon="15.6297283"><ele>27.599999999999998</ele><time>2026-05-01T13:23:18.978Z</time></trkpt><trkpt lat="40.063955" lon="15.6297983"><ele>27.400000000000002</ele><time>2026-05-01T13:23:19.978Z</time></trkpt><trkpt lat="40.0640467" lon="15.6298667"><ele>27.200000000000003</ele><time>2026-05-01T13:23:20.978Z</time></trkpt><trkpt lat="40.064145" lon="15.6299233"><ele>27.0</ele><time>2026-05-01T13:23:21.979Z</time></trkpt><trkpt lat="40.0642433" lon="15.629975"><ele>27.0</ele><time>2026-05-01T13:23:22.978Z</time></trkpt><trkpt lat="40.0643317" lon="15.6300233"><ele>27.0</ele><time>2026-05-01T13:23:23.978Z</time></trkpt><trkpt lat="40.06443" lon="15.6300633"><ele>27.0</ele><time>2026-05-01T13:23:24.978Z</time></trkpt><trkpt lat="40.06454" lon="15.6301117"><ele>27.0</ele><time>2026-05-01T13:23:25.978Z</time></trkpt><trkpt lat="40.064665" lon="15.63018"><ele>27.0</ele><time>2026-05-01T13:23:26.978Z</time></trkpt><trkpt lat="40.0647867" lon="15.6302033"><ele>27.0</ele><time>2026-05-01T13:23:27.979Z</time></trkpt><trkpt lat="40.0649033" lon="15.6302233"><ele>27.0</ele><time>2026-05-01T13:23:28.978Z</time></trkpt><trkpt lat="40.065025" lon="15.630235"><ele>27.0</ele><time>2026-05-01T13:23:29.978Z</time></trkpt><trkpt lat="40.065135" lon="15.6302333"><ele>23.8</ele><time>2026-05-01T13:23:30.979Z</time></trkpt><trkpt lat="40.0652383" lon="15.6302233"><ele>20.6</ele><time>2026-05-01T13:23:31.978Z</time></trkpt><trkpt lat="40.0653367" lon="15.6302167"><ele>17.400000000000002</ele><time>2026-05-01T13:23:32.978Z</time></trkpt><trkpt lat="40.065435" lon="15.6302067"><ele>14.200000000000001</ele><time>2026-05-01T13:23:33.979Z</time></trkpt><trkpt lat="40.065535" lon="15.6301983"><ele>11.0</ele><time>2026-05-01T13:23:34.978Z</time></trkpt><trkpt lat="40.06565" lon="15.6302033"><ele>9.75</ele><time>2026-05-01T13:23:35.978Z</time></trkpt><trkpt lat="40.0657817" lon="15.6302233"><ele>8.5</ele><time>2026-05-01T13:23:36.978Z</time></trkpt><trkpt lat="40.06591" lon="15.6302783"><ele>7.25</ele><time>2026-05-01T13:23:37.979Z</time></trkpt><trkpt lat="40.066025" lon="15.6303617"><ele>6.0</ele><time>2026-05-01T13:23:38.978Z</time></trkpt><trkpt lat="40.0661333" lon="15.6304367"><ele>10.5</ele><time>2026-05-01T13:23:39.978Z</time></trkpt><trkpt lat="40.0662283" lon="15.630525"><ele>15.0</ele><time>2026-05-01T13:23:40.978Z</time></trkpt><trkpt lat="40.0663183" lon="15.630615"><ele>19.5</ele><time>2026-05-01T13:23:41.978Z</time></trkpt><trkpt lat="40.0664067" lon="15.6307033"><ele>24.0</ele><time>2026-05-01T13:23:42.978Z</time></trkpt><trkpt lat="40.066485" lon="15.6308017"><ele>24.0</ele><time>2026-05-01T13:23:43.979Z</time></trkpt><trkpt lat="40.0665633" lon="15.6309067"><ele>24.0</ele><time>2026-05-01T13:23:44.979Z</time></trkpt><trkpt lat="40.0666383" lon="15.63101"><ele>24.0</ele><time>2026-05-01T13:23:45.979Z</time></trkpt><trkpt lat="40.0667017" lon="15.6311233"><ele>24.0</ele><time>2026-05-01T13:23:46.979Z</time></trkpt><trkpt lat="40.06677" lon="15.631245"><ele>24.0</ele><time>2026-05-01T13:23:47.978Z</time></trkpt><trkpt lat="40.0668367" lon="15.631365"><ele>23.2</ele><time>2026-05-01T13:23:48.979Z</time></trkpt><trkpt lat="40.0668867" lon="15.6314833"><ele>22.4</ele><time>2026-05-01T13:23:49.979Z</time></trkpt><trkpt lat="40.0669283" lon="15.6316083"><ele>21.6</ele><time>2026-05-01T13:23:50.979Z</time></trkpt><trkpt lat="40.0669683" lon="15.6317483"><ele>20.8</ele><time>2026-05-01T13:23:51.978Z</time></trkpt><trkpt lat="40.066995" lon="15.631885"><ele>20.0</ele><time>2026-05-01T13:23:52.979Z</time></trkpt><trkpt lat="40.067025" lon="15.632025"><ele>22.5</ele><time>2026-05-01T13:23:53.979Z</time></trkpt><trkpt lat="40.0670617" lon="15.6321717"><ele>25.0</ele><time>2026-05-01T13:23:54.978Z</time></trkpt><trkpt lat="40.06712" lon="15.63231"><ele>27.5</ele><time>2026-05-01T13:23:55.978Z</time></trkpt><trkpt lat="40.0671933" lon="15.6324417"><ele>30.0</ele><time>2026-05-01T13:23:56.978Z</time></trkpt><trkpt lat="40.0672667" lon="15.632565"><ele>30.0</ele><time>2026-05-01T13:23:57.979Z</time></trkpt><trkpt lat="40.0673433" lon="15.632675"><ele>30.0</ele><time>2026-05-01T13:23:58.978Z</time></trkpt><trkpt lat="40.0674067" lon="15.63279"><ele>30.0</ele><time>2026-05-01T13:23:59.979Z</time></trkpt><trkpt lat="40.0674567" lon="15.6329233"><ele>30.0</ele><time>2026-05-01T13:24:00.978Z</time></trkpt><trkpt lat="40.0675017" lon="15.6330617"><ele>26.25</ele><time>2026-05-01T13:24:01.978Z</time></trkpt><trkpt lat="40.0675433" lon="15.6332033"><ele>22.5</ele><time>2026-05-01T13:24:02.979Z</time></trkpt><trkpt lat="40.0675917" lon="15.6333417"><ele>18.75</ele><time>2026-05-01T13:24:03.978Z</time></trkpt><trkpt lat="40.0676517" lon="15.6334783"><ele>15.0</ele><time>2026-05-01T13:24:04.979Z</time></trkpt><trkpt lat="40.0677333" lon="15.63362"><ele>16.5</ele><time>2026-05-01T13:24:05.978Z</time></trkpt><trkpt lat="40.06782" lon="15.6337517"><ele>18.0</ele><time>2026-05-01T13:24:06.978Z</time></trkpt><trkpt lat="40.06791" lon="15.6338583"><ele>19.5</ele><time>2026-05-01T13:24:07.978Z</time></trkpt><trkpt lat="40.068025" lon="15.6339083"><ele>21.0</ele><time>2026-05-01T13:24:08.979Z</time></trkpt><trkpt lat="40.0681583" lon="15.63394"><ele>17.25</ele><time>2026-05-01T13:24:09.979Z</time></trkpt><trkpt lat="40.0682917" lon="15.6339317"><ele>13.5</ele><time>2026-05-01T13:24:10.979Z</time></trkpt><trkpt lat="40.0684233" lon="15.6339067"><ele>9.75</ele><time>2026-05-01T13:24:11.978Z</time></trkpt><trkpt lat="40.068545" lon="15.633885"><ele>6.0</ele><time>2026-05-01T13:24:12.979Z</time></trkpt><trkpt lat="40.068665" lon="15.6338633"><ele>6.0</ele><time>2026-05-01T13:24:13.978Z</time></trkpt><trkpt lat="40.0687733" lon="15.63383"><ele>6.0</ele><time>2026-05-01T13:24:14.979Z</time></trkpt><trkpt lat="40.0688717" lon="15.633795"><ele>6.0</ele><time>2026-05-01T13:24:15.978Z</time></trkpt><trkpt lat="40.06896" lon="15.63375"><ele>6.0</ele><time>2026-05-01T13:24:16.978Z</time></trkpt><trkpt lat="40.069045" lon="15.6337333"><ele>6.0</ele><time>2026-05-01T13:24:17.978Z</time></trkpt><trkpt lat="40.0691283" lon="15.633725"><ele>5.833333333333333</ele><time>2026-05-01T13:24:18.978Z</time></trkpt><trkpt lat="40.0692117" lon="15.63376"><ele>5.666666666666667</ele><time>2026-05-01T13:24:19.979Z</time></trkpt><trkpt lat="40.069285" lon="15.6338267"><ele>5.5</ele><time>2026-05-01T13:24:20.979Z</time></trkpt><trkpt lat="40.0693467" lon="15.6339033"><ele>5.333333333333334</ele><time>2026-05-01T13:24:21.978Z</time></trkpt><trkpt lat="40.0694017" lon="15.6339933"><ele>5.166666666666667</ele><time>2026-05-01T13:24:22.978Z</time></trkpt><trkpt lat="40.06944" lon="15.6341067"><ele>5.0</ele><time>2026-05-01T13:24:23.979Z</time></trkpt><trkpt lat="40.06946" lon="15.6342533"><ele>5.0</ele><time>2026-05-01T13:24:24.978Z</time></trkpt><trkpt lat="40.0694633" lon="15.634415"><ele>5.0</ele><time>2026-05-01T13:24:25.978Z</time></trkpt><trkpt lat="40.0694783" lon="15.634605"><ele>5.0</ele><time>2026-05-01T13:24:26.978Z</time></trkpt><trkpt lat="40.0694983" lon="15.634795"><ele>5.0</ele><time>2026-05-01T13:24:27.978Z</time></trkpt><trkpt lat="40.06951" lon="15.6349917"><ele>5.333333333333334</ele><time>2026-05-01T13:24:28.979Z</time></trkpt><trkpt lat="40.0695267" lon="15.6351867"><ele>5.666666666666667</ele><time>2026-05-01T13:24:29.978Z</time></trkpt><trkpt lat="40.0695433" lon="15.63538"><ele>6.0</ele><time>2026-05-01T13:24:30.978Z</time></trkpt><trkpt lat="40.0695617" lon="15.6355817"><ele>6.333333333333334</ele><time>2026-05-01T13:24:31.978Z</time></trkpt><trkpt lat="40.0695767" lon="15.6358017"><ele>6.666666666666667</ele><time>2026-05-01T13:24:32.979Z</time></trkpt><trkpt lat="40.0695933" lon="15.63602"><ele>7.0</ele><time>2026-05-01T13:24:33.978Z</time></trkpt><trkpt lat="40.0696133" lon="15.6362433"><ele>7.333333333333334</ele><time>2026-05-01T13:24:34.978Z</time></trkpt><trkpt lat="40.0696267" lon="15.6364583"><ele>7.666666666666666</ele><time>2026-05-01T13:24:35.979Z</time></trkpt><trkpt lat="40.069645" lon="15.6366617"><ele>8.0</ele><time>2026-05-01T13:24:36.978Z</time></trkpt><trkpt lat="40.0696533" lon="15.6368567"><ele>8.75</ele><time>2026-05-01T13:24:37.979Z</time></trkpt><trkpt lat="40.0696717" lon="15.63704"><ele>9.5</ele><time>2026-05-01T13:24:38.978Z</time></trkpt><trkpt lat="40.0696833" lon="15.63722"><ele>10.25</ele><time>2026-05-01T13:24:39.978Z</time></trkpt><trkpt lat="40.069695" lon="15.6374017"><ele>11.0</ele><time>2026-05-01T13:24:40.978Z</time></trkpt><trkpt lat="40.0697117" lon="15.6375733"><ele>11.0</ele><time>2026-05-01T13:24:41.978Z</time></trkpt><trkpt lat="40.069725" lon="15.63772"><ele>11.0</ele><time>2026-05-01T13:24:42.979Z</time></trkpt><trkpt lat="40.0697333" lon="15.6378533"><ele>11.0</ele><time>2026-05-01T13:24:43.978Z</time></trkpt><trkpt lat="40.0697417" lon="15.63798"><ele>11.0</ele><time>2026-05-01T13:24:44.978Z</time></trkpt><trkpt lat="40.069755" lon="15.63809"><ele>11.0</ele><time>2026-05-01T13:24:45.979Z</time></trkpt><trkpt lat="40.0697833" lon="15.6381883"><ele>11.0</ele><time>2026-05-01T13:24:46.978Z</time></trkpt><trkpt lat="40.0698267" lon="15.6382767"><ele>11.0</ele><time>2026-05-01T13:24:47.978Z</time></trkpt><trkpt lat="40.0698883" lon="15.6383383"><ele>11.0</ele><time>2026-05-01T13:24:48.978Z</time></trkpt><trkpt lat="40.0699583" lon="15.6383683"><ele>11.0</ele><time>2026-05-01T13:24:49.978Z</time></trkpt><trkpt lat="40.0700267" lon="15.638375"><ele>11.0</ele><time>2026-05-01T13:24:50.978Z</time></trkpt><trkpt lat="40.0701" lon="15.6383683"><ele>11.0</ele><time>2026-05-01T13:24:51.979Z</time></trkpt><trkpt lat="40.0701867" lon="15.6383567"><ele>12.75</ele><time>2026-05-01T13:24:52.979Z</time></trkpt><trkpt lat="40.070285" lon="15.6383617"><ele>14.5</ele><time>2026-05-01T13:24:53.978Z</time></trkpt><trkpt lat="40.0703933" lon="15.6383717"><ele>16.25</ele><time>2026-05-01T13:24:54.978Z</time></trkpt><trkpt lat="40.0705183" lon="15.6383833"><ele>18.0</ele><time>2026-05-01T13:24:55.979Z</time></trkpt><trkpt lat="40.07065" lon="15.6384067"><ele>17.25</ele><time>2026-05-01T13:24:56.978Z</time></trkpt><trkpt lat="40.0707817" lon="15.638445"><ele>16.5</ele><time>2026-05-01T13:24:57.978Z</time></trkpt><trkpt lat="40.0709217" lon="15.6384667"><ele>15.75</ele><time>2026-05-01T13:24:58.978Z</time></trkpt><trkpt lat="40.0710567" lon="15.6384833"><ele>15.0</ele><time>2026-05-01T13:24:59.978Z</time></trkpt><trkpt lat="40.0711933" lon="15.638505"><ele>15.0</ele><time>2026-05-01T13:25:00.978Z</time></trkpt><trkpt lat="40.071325" lon="15.6385267"><ele>15.0</ele><time>2026-05-01T13:25:01.978Z</time></trkpt><trkpt lat="40.0714483" lon="15.6385483"><ele>15.0</ele><time>2026-05-01T13:25:02.978Z</time></trkpt><trkpt lat="40.0715617" lon="15.6385567"><ele>15.0</ele><time>2026-05-01T13:25:03.978Z</time></trkpt><trkpt lat="40.0716683" lon="15.6385617"><ele>14.4</ele><time>2026-05-01T13:25:04.979Z</time></trkpt><trkpt lat="40.071765" lon="15.6385533"><ele>13.8</ele><time>2026-05-01T13:25:05.978Z</time></trkpt><trkpt lat="40.071855" lon="15.6385117"><ele>13.2</ele><time>2026-05-01T13:25:06.978Z</time></trkpt><trkpt lat="40.0719383" lon="15.6384483"><ele>12.6</ele><time>2026-05-01T13:25:07.979Z</time></trkpt><trkpt lat="40.0720167" lon="15.638365"><ele>12.0</ele><time>2026-05-01T13:25:08.979Z</time></trkpt><trkpt lat="40.0720717" lon="15.6382517"><ele>12.0</ele><time>2026-05-01T13:25:09.978Z</time></trkpt><trkpt lat="40.0721033" lon="15.63811"><ele>12.0</ele><time>2026-05-01T13:25:10.978Z</time></trkpt><trkpt lat="40.0721383" lon="15.63796"><ele>12.0</ele><time>2026-05-01T13:25:11.978Z</time></trkpt><trkpt lat="40.07216" lon="15.6378183"><ele>12.0</ele><time>2026-05-01T13:25:12.978Z</time></trkpt><trkpt lat="40.072175" lon="15.63768"><ele>11.4</ele><time>2026-05-01T13:25:13.978Z</time></trkpt><trkpt lat="40.0721983" lon="15.6375517"><ele>10.799999999999999</ele><time>2026-05-01T13:25:14.979Z</time></trkpt><trkpt lat="40.072215" lon="15.63742"><ele>10.2</ele><time>2026-05-01T13:25:15.979Z</time></trkpt><trkpt lat="40.072225" lon="15.6372917"><ele>9.6</ele><time>2026-05-01T13:25:16.979Z</time></trkpt><trkpt lat="40.0722383" lon="15.6371717"><ele>9.0</ele><time>2026-05-01T13:25:17.978Z</time></trkpt><trkpt lat="40.072255" lon="15.6370467"><ele>8.75</ele><time>2026-05-01T13:25:18.978Z</time></trkpt><trkpt lat="40.0722717" lon="15.6369083"><ele>8.5</ele><time>2026-05-01T13:25:19.979Z</time></trkpt><trkpt lat="40.07229" lon="15.636775"><ele>8.25</ele><time>2026-05-01T13:25:20.978Z</time></trkpt><trkpt lat="40.0723083" lon="15.6366233"><ele>8.0</ele><time>2026-05-01T13:25:21.978Z</time></trkpt><trkpt lat="40.0723333" lon="15.6364667"><ele>8.0</ele><time>2026-05-01T13:25:22.978Z</time></trkpt><trkpt lat="40.0723517" lon="15.63631"><ele>8.0</ele><time>2026-05-01T13:25:23.978Z</time></trkpt><trkpt lat="40.07237" lon="15.6361517"><ele>8.0</ele><time>2026-05-01T13:25:24.979Z</time></trkpt><trkpt lat="40.07239" lon="15.636"><ele>8.0</ele><time>2026-05-01T13:25:25.979Z</time></trkpt><trkpt lat="40.07241" lon="15.6358467"><ele>8.0</ele><time>2026-05-01T13:25:26.979Z</time></trkpt><trkpt lat="40.0724417" lon="15.6357017"><ele>8.0</ele><time>2026-05-01T13:25:27.978Z</time></trkpt><trkpt lat="40.07247" lon="15.6355533"><ele>8.0</ele><time>2026-05-01T13:25:28.978Z</time></trkpt><trkpt lat="40.0725033" lon="15.6354133"><ele>8.0</ele><time>2026-05-01T13:25:29.978Z</time></trkpt><trkpt lat="40.0725383" lon="15.635265"><ele>7.800000000000001</ele><time>2026-05-01T13:25:30.979Z</time></trkpt><trkpt lat="40.0725867" lon="15.6351317"><ele>7.6000000000000005</ele><time>2026-05-01T13:25:31.978Z</time></trkpt><trkpt lat="40.07263" lon="15.63501"><ele>7.3999999999999995</ele><time>2026-05-01T13:25:32.978Z</time></trkpt><trkpt lat="40.072685" lon="15.63489"><ele>7.199999999999999</ele><time>2026-05-01T13:25:33.978Z</time></trkpt><trkpt lat="40.07275" lon="15.6347683"><ele>7.0</ele><time>2026-05-01T13:25:34.979Z</time></trkpt><trkpt lat="40.0728217" lon="15.6346617"><ele>7.000000000000001</ele><time>2026-05-01T13:25:35.978Z</time></trkpt><trkpt lat="40.0729017" lon="15.63457"><ele>7.0</ele><time>2026-05-01T13:25:36.979Z</time></trkpt><trkpt lat="40.07297" lon="15.6345"><ele>7.0</ele><time>2026-05-01T13:25:37.979Z</time></trkpt><trkpt lat="40.0730417" lon="15.634445"><ele>7.0</ele><time>2026-05-01T13:25:38.979Z</time></trkpt><trkpt lat="40.0731067" lon="15.6343883"><ele>7.000000000000001</ele><time>2026-05-01T13:25:39.979Z</time></trkpt><trkpt lat="40.0731683" lon="15.6343267"><ele>7.0</ele><time>2026-05-01T13:25:40.978Z</time></trkpt><trkpt lat="40.0732483" lon="15.6342833"><ele>7.199999999999999</ele><time>2026-05-01T13:25:41.979Z</time></trkpt><trkpt lat="40.0733217" lon="15.6342283"><ele>7.3999999999999995</ele><time>2026-05-01T13:25:42.978Z</time></trkpt><trkpt lat="40.0733917" lon="15.6341633"><ele>7.6000000000000005</ele><time>2026-05-01T13:25:43.978Z</time></trkpt><trkpt lat="40.0734833" lon="15.6341133"><ele>7.800000000000001</ele><time>2026-05-01T13:25:44.978Z</time></trkpt><trkpt lat="40.0735817" lon="15.63405"><ele>8.0</ele><time>2026-05-01T13:25:45.978Z</time></trkpt><trkpt lat="40.0736783" lon="15.633975"><ele>8.0</ele><time>2026-05-01T13:25:46.979Z</time></trkpt><trkpt lat="40.073775" lon="15.6338917"><ele>8.0</ele><time>2026-05-01T13:25:47.978Z</time></trkpt><trkpt lat="40.0738583" lon="15.63384"><ele>8.0</ele><time>2026-05-01T13:25:48.979Z</time></trkpt><trkpt lat="40.0739417" lon="15.63379"><ele>8.0</ele><time>2026-05-01T13:25:49.978Z</time></trkpt><trkpt lat="40.0740133" lon="15.633725"><ele>8.0</ele><time>2026-05-01T13:25:50.978Z</time></trkpt><trkpt lat="40.0740867" lon="15.6336517"><ele>8.142857142857142</ele><time>2026-05-01T13:25:51.978Z</time></trkpt><trkpt lat="40.074145" lon="15.6335867"><ele>8.285714285714285</ele><time>2026-05-01T13:25:52.978Z</time></trkpt><trkpt lat="40.074205" lon="15.6335283"><ele>8.428571428571429</ele><time>2026-05-01T13:25:53.978Z</time></trkpt><trkpt lat="40.0742717" lon="15.6335117"><ele>8.571428571428571</ele><time>2026-05-01T13:25:54.978Z</time></trkpt><trkpt lat="40.0743383" lon="15.6334933"><ele>8.714285714285715</ele><time>2026-05-01T13:25:55.978Z</time></trkpt><trkpt lat="40.0744067" lon="15.6334483"><ele>8.857142857142858</ele><time>2026-05-01T13:25:56.978Z</time></trkpt><trkpt lat="40.0744833" lon="15.6334083"><ele>9.0</ele><time>2026-05-01T13:25:57.978Z</time></trkpt><trkpt lat="40.07457" lon="15.6333833"><ele>9.0</ele><time>2026-05-01T13:25:58.979Z</time></trkpt><trkpt lat="40.0746517" lon="15.6333967"><ele>9.0</ele><time>2026-05-01T13:25:59.978Z</time></trkpt><trkpt lat="40.0747217" lon="15.633445"><ele>9.0</ele><time>2026-05-01T13:26:00.979Z</time></trkpt><trkpt lat="40.0747867" lon="15.6335067"><ele>9.0</ele><time>2026-05-01T13:26:01.978Z</time></trkpt><trkpt lat="40.0748567" lon="15.633555"><ele>9.0</ele><time>2026-05-01T13:26:02.978Z</time></trkpt><trkpt lat="40.0749267" lon="15.6335917"><ele>9.0</ele><time>2026-05-01T13:26:03.978Z</time></trkpt><trkpt lat="40.0749983" lon="15.6335967"><ele>9.000000000000002</ele><time>2026-05-01T13:26:04.978Z</time></trkpt><trkpt lat="40.0750583" lon="15.6335717"><ele>9.0</ele><time>2026-05-01T13:26:05.978Z</time></trkpt><trkpt lat="40.0751217" lon="15.6335333"><ele>9.0</ele><time>2026-05-01T13:26:06.979Z</time></trkpt><trkpt lat="40.0751667" lon="15.6334683"><ele>9.0</ele><time>2026-05-01T13:26:07.979Z</time></trkpt><trkpt lat="40.0752133" lon="15.6333933"><ele>9.0</ele><time>2026-05-01T13:26:08.978Z</time></trkpt><trkpt lat="40.0752667" lon="15.6333133"><ele>9.000000000000002</ele><time>2026-05-01T13:26:09.978Z</time></trkpt><trkpt lat="40.0753183" lon="15.633235"><ele>9.0</ele><time>2026-05-01T13:26:10.979Z</time></trkpt><trkpt lat="40.0753683" lon="15.63315"><ele>9.0</ele><time>2026-05-01T13:26:11.979Z</time></trkpt><trkpt lat="40.075415" lon="15.6330583"><ele>9.0</ele><time>2026-05-01T13:26:12.979Z</time></trkpt><trkpt lat="40.0754717" lon="15.6329817"><ele>9.0</ele><time>2026-05-01T13:26:13.978Z</time></trkpt><trkpt lat="40.0755333" lon="15.6329083"><ele>9.0</ele><time>2026-05-01T13:26:14.978Z</time></trkpt><trkpt lat="40.075595" lon="15.6328283"><ele>9.0</ele><time>2026-05-01T13:26:15.979Z</time></trkpt><trkpt lat="40.07566" lon="15.6327433"><ele>9.0</ele><time>2026-05-01T13:26:16.978Z</time></trkpt><trkpt lat="40.0757183" lon="15.6326417"><ele>8.8</ele><time>2026-05-01T13:26:17.979Z</time></trkpt><trkpt lat="40.0757817" lon="15.6325417"><ele>8.600000000000001</ele><time>2026-05-01T13:26:18.979Z</time></trkpt><trkpt lat="40.075835" lon="15.6324183"><ele>8.4</ele><time>2026-05-01T13:26:19.978Z</time></trkpt><trkpt lat="40.0758967" lon="15.6323117"><ele>8.200000000000001</ele><time>2026-05-01T13:26:20.978Z</time></trkpt><trkpt lat="40.0759533" lon="15.6322083"><ele>8.0</ele><time>2026-05-01T13:26:21.978Z</time></trkpt><trkpt lat="40.0760067" lon="15.6320983"><ele>8.200000000000001</ele><time>2026-05-01T13:26:22.978Z</time></trkpt><trkpt lat="40.0760517" lon="15.6319717"><ele>8.4</ele><time>2026-05-01T13:26:23.979Z</time></trkpt><trkpt lat="40.0760967" lon="15.6318367"><ele>8.600000000000001</ele><time>2026-05-01T13:26:24.978Z</time></trkpt><trkpt lat="40.07613" lon="15.6317"><ele>8.8</ele><time>2026-05-01T13:26:25.978Z</time></trkpt><trkpt lat="40.0761683" lon="15.6315617"><ele>9.0</ele><time>2026-05-01T13:26:26.979Z</time></trkpt><trkpt lat="40.0761983" lon="15.6314617"><ele>9.0</ele><time>2026-05-01T13:26:27.978Z</time></trkpt><trkpt lat="40.07622" lon="15.6313517"><ele>9.0</ele><time>2026-05-01T13:26:28.979Z</time></trkpt><trkpt lat="40.0762483" lon="15.6312617"><ele>9.0</ele><time>2026-05-01T13:26:29.978Z</time></trkpt><trkpt lat="40.0762833" lon="15.6311783"><ele>9.0</ele><time>2026-05-01T13:26:30.978Z</time></trkpt><trkpt lat="40.07632" lon="15.6311"><ele>9.0</ele><time>2026-05-01T13:26:31.978Z</time></trkpt><trkpt lat="40.0763417" lon="15.63102"><ele>9.0</ele><time>2026-05-01T13:26:32.978Z</time></trkpt><trkpt lat="40.0764117" lon="15.6309417"><ele>9.0</ele><time>2026-05-01T13:26:34.978Z</time></trkpt><trkpt lat="40.076515" lon="15.6309983"><ele>9.0</ele><time>2026-05-01T13:26:37.978Z</time></trkpt><trkpt lat="40.0765733" lon="15.6310433"><ele>9.0</ele><time>2026-05-01T13:26:38.979Z</time></trkpt><trkpt lat="40.0766533" lon="15.631105"><ele>9.0</ele><time>2026-05-01T13:26:39.978Z</time></trkpt><trkpt lat="40.0767433" lon="15.6311567"><ele>9.0</ele><time>2026-05-01T13:26:40.979Z</time></trkpt><trkpt lat="40.0768433" lon="15.6312233"><ele>8.8</ele><time>2026-05-01T13:26:41.979Z</time></trkpt><trkpt lat="40.07694" lon="15.6312867"><ele>8.600000000000001</ele><time>2026-05-01T13:26:42.978Z</time></trkpt><trkpt lat="40.0770367" lon="15.631355"><ele>8.4</ele><time>2026-05-01T13:26:43.979Z</time></trkpt><trkpt lat="40.0771367" lon="15.6314217"><ele>8.200000000000001</ele><time>2026-05-01T13:26:44.978Z</time></trkpt><trkpt lat="40.0772383" lon="15.63149"><ele>8.0</ele><time>2026-05-01T13:26:45.979Z</time></trkpt><trkpt lat="40.0773433" lon="15.6315483"><ele>8.4</ele><time>2026-05-01T13:26:46.979Z</time></trkpt><trkpt lat="40.0774433" lon="15.631615"><ele>8.8</ele><time>2026-05-01T13:26:47.978Z</time></trkpt><trkpt lat="40.0775533" lon="15.6316733"><ele>9.2</ele><time>2026-05-01T13:26:48.978Z</time></trkpt><trkpt lat="40.0776517" lon="15.6317383"><ele>9.6</ele><time>2026-05-01T13:26:49.978Z</time></trkpt><trkpt lat="40.07774" lon="15.6317867"><ele>10.0</ele><time>2026-05-01T13:26:50.979Z</time></trkpt><trkpt lat="40.0778183" lon="15.63183"><ele>10.0</ele><time>2026-05-01T13:26:51.978Z</time></trkpt><trkpt lat="40.077915" lon="15.631885"><ele>10.0</ele><time>2026-05-01T13:26:52.978Z</time></trkpt><trkpt lat="40.0780233" lon="15.6319467"><ele>10.0</ele><time>2026-05-01T13:26:53.979Z</time></trkpt><trkpt lat="40.0781317" lon="15.6319967"><ele>10.0</ele><time>2026-05-01T13:26:54.978Z</time></trkpt><trkpt lat="40.078235" lon="15.63203"><ele>10.0</ele><time>2026-05-01T13:26:55.978Z</time></trkpt><trkpt lat="40.07834" lon="15.6320683"><ele>12.6</ele><time>2026-05-01T13:26:56.979Z</time></trkpt><trkpt lat="40.0784467" lon="15.6321033"><ele>15.2</ele><time>2026-05-01T13:26:57.979Z</time></trkpt><trkpt lat="40.0785483" lon="15.6321383"><ele>17.799999999999997</ele><time>2026-05-01T13:26:58.978Z</time></trkpt><trkpt lat="40.0786433" lon="15.6321483"><ele>20.4</ele><time>2026-05-01T13:26:59.978Z</time></trkpt><trkpt lat="40.0787467" lon="15.6321383"><ele>23.0</ele><time>2026-05-01T13:27:00.979Z</time></trkpt><trkpt lat="40.0788467" lon="15.632115"><ele>23.0</ele><time>2026-05-01T13:27:01.979Z</time></trkpt><trkpt lat="40.0789417" lon="15.63208"><ele>23.0</ele><time>2026-05-01T13:27:02.979Z</time></trkpt><trkpt lat="40.0790333" lon="15.632035"><ele>23.0</ele><time>2026-05-01T13:27:03.978Z</time></trkpt><trkpt lat="40.0791167" lon="15.63198"><ele>23.0</ele><time>2026-05-01T13:27:04.979Z</time></trkpt><trkpt lat="40.0792" lon="15.6319333"><ele>23.0</ele><time>2026-05-01T13:27:05.979Z</time></trkpt><trkpt lat="40.07928" lon="15.6318767"><ele>22.0</ele><time>2026-05-01T13:27:06.979Z</time></trkpt><trkpt lat="40.0793483" lon="15.6317967"><ele>21.0</ele><time>2026-05-01T13:27:07.979Z</time></trkpt><trkpt lat="40.0793933" lon="15.6316967"><ele>20.0</ele><time>2026-05-01T13:27:08.978Z</time></trkpt><trkpt lat="40.0794183" lon="15.631585"><ele>19.0</ele><time>2026-05-01T13:27:09.978Z</time></trkpt><trkpt lat="40.0794183" lon="15.6314667"><ele>18.0</ele><time>2026-05-01T13:27:10.979Z</time></trkpt><trkpt lat="40.0794167" lon="15.6313533"><ele>17.0</ele><time>2026-05-01T13:27:11.979Z</time></trkpt><trkpt lat="40.0794267" lon="15.6312533"><ele>17.0</ele><time>2026-05-01T13:27:12.979Z</time></trkpt><trkpt lat="40.0794633" lon="15.6311683"><ele>17.0</ele><time>2026-05-01T13:27:13.979Z</time></trkpt><trkpt lat="40.0795217" lon="15.6311067"><ele>17.0</ele><time>2026-05-01T13:27:14.979Z</time></trkpt><trkpt lat="40.0795917" lon="15.6310817"><ele>17.0</ele><time>2026-05-01T13:27:15.979Z</time></trkpt><trkpt lat="40.0796867" lon="15.63108"><ele>17.0</ele><time>2026-05-01T13:27:16.978Z</time></trkpt><trkpt lat="40.0797767" lon="15.6310867"><ele>17.0</ele><time>2026-05-01T13:27:17.979Z</time></trkpt><trkpt lat="40.0798667" lon="15.6310967"><ele>18.5</ele><time>2026-05-01T13:27:18.978Z</time></trkpt><trkpt lat="40.0799583" lon="15.6311067"><ele>20.0</ele><time>2026-05-01T13:27:19.978Z</time></trkpt><trkpt lat="40.08005" lon="15.6311133"><ele>21.5</ele><time>2026-05-01T13:27:20.978Z</time></trkpt><trkpt lat="40.0801367" lon="15.6311217"><ele>23.0</ele><time>2026-05-01T13:27:21.978Z</time></trkpt><trkpt lat="40.0802183" lon="15.6311267"><ele>24.499999999999996</ele><time>2026-05-01T13:27:22.978Z</time></trkpt><trkpt lat="40.0802967" lon="15.631105"><ele>26.0</ele><time>2026-05-01T13:27:23.978Z</time></trkpt><trkpt lat="40.0803617" lon="15.6310467"><ele>25.999999999999996</ele><time>2026-05-01T13:27:24.979Z</time></trkpt><trkpt lat="40.080415" lon="15.6309667"><ele>26.0</ele><time>2026-05-01T13:27:25.978Z</time></trkpt><trkpt lat="40.0804633" lon="15.63088"><ele>26.0</ele><time>2026-05-01T13:27:26.978Z</time></trkpt><trkpt lat="40.08049" lon="15.6307717"><ele>26.0</ele><time>2026-05-01T13:27:27.979Z</time></trkpt><trkpt lat="40.0804983" lon="15.6306417"><ele>25.999999999999996</ele><time>2026-05-01T13:27:28.979Z</time></trkpt><trkpt lat="40.0804833" lon="15.6305267"><ele>26.0</ele><time>2026-05-01T13:27:29.979Z</time></trkpt><trkpt lat="40.08046" lon="15.6304267"><ele>25.999999999999996</ele><time>2026-05-01T13:27:30.979Z</time></trkpt><trkpt lat="40.0804183" lon="15.6303417"><ele>26.0</ele><time>2026-05-01T13:27:31.978Z</time></trkpt><trkpt lat="40.08034" lon="15.630295"><ele>26.0</ele><time>2026-05-01T13:27:32.978Z</time></trkpt><trkpt lat="40.0802517" lon="15.6302867"><ele>26.0</ele><time>2026-05-01T13:27:33.978Z</time></trkpt><trkpt lat="40.080155" lon="15.6302933"><ele>25.999999999999996</ele><time>2026-05-01T13:27:34.978Z</time></trkpt><trkpt lat="40.0800567" lon="15.6303133"><ele>26.0</ele><time>2026-05-01T13:27:35.978Z</time></trkpt><trkpt lat="40.079955" lon="15.6303283"><ele>25.833333333333332</ele><time>2026-05-01T13:27:36.978Z</time></trkpt><trkpt lat="40.0798517" lon="15.63033"><ele>25.666666666666664</ele><time>2026-05-01T13:27:37.979Z</time></trkpt><trkpt lat="40.0797633" lon="15.6303183"><ele>25.5</ele><time>2026-05-01T13:27:38.978Z</time></trkpt><trkpt lat="40.079685" lon="15.630285"><ele>25.333333333333336</ele><time>2026-05-01T13:27:39.979Z</time></trkpt><trkpt lat="40.07962" lon="15.6302417"><ele>25.166666666666668</ele><time>2026-05-01T13:27:40.978Z</time></trkpt><trkpt lat="40.079575" lon="15.6301717"><ele>25.0</ele><time>2026-05-01T13:27:41.978Z</time></trkpt><trkpt lat="40.0795617" lon="15.6300883"><ele>25.0</ele><time>2026-05-01T13:27:42.978Z</time></trkpt><trkpt lat="40.0795833" lon="15.6299583"><ele>25.0</ele><time>2026-05-01T13:27:43.978Z</time></trkpt><trkpt lat="40.079625" lon="15.6298367"><ele>25.0</ele><time>2026-05-01T13:27:44.978Z</time></trkpt><trkpt lat="40.0796833" lon="15.62972"><ele>25.0</ele><time>2026-05-01T13:27:45.978Z</time></trkpt><trkpt lat="40.0797417" lon="15.6296017"><ele>25.0</ele><time>2026-05-01T13:27:46.979Z</time></trkpt><trkpt lat="40.0798233" lon="15.6294933"><ele>25.0</ele><time>2026-05-01T13:27:47.978Z</time></trkpt><trkpt lat="40.0799133" lon="15.6293833"><ele>25.0</ele><time>2026-05-01T13:27:48.978Z</time></trkpt><trkpt lat="40.0799767" lon="15.6292633"><ele>25.0</ele><time>2026-05-01T13:27:49.979Z</time></trkpt><trkpt lat="40.0800117" lon="15.62911"><ele>25.0</ele><time>2026-05-01T13:27:50.978Z</time></trkpt><trkpt lat="40.08004" lon="15.6289617"><ele>28.2</ele><time>2026-05-01T13:27:51.978Z</time></trkpt><trkpt lat="40.0800567" lon="15.62882"><ele>31.4</ele><time>2026-05-01T13:27:52.978Z</time></trkpt><trkpt lat="40.0800567" lon="15.6286767"><ele>34.599999999999994</ele><time>2026-05-01T13:27:53.979Z</time></trkpt><trkpt lat="40.080035" lon="15.6285383"><ele>37.8</ele><time>2026-05-01T13:27:54.978Z</time></trkpt><trkpt lat="40.0800117" lon="15.6283917"><ele>41.0</ele><time>2026-05-01T13:27:55.979Z</time></trkpt><trkpt lat="40.0799917" lon="15.628255"><ele>41.25</ele><time>2026-05-01T13:27:56.978Z</time></trkpt><trkpt lat="40.0799967" lon="15.6281083"><ele>41.5</ele><time>2026-05-01T13:27:57.978Z</time></trkpt><trkpt lat="40.0800067" lon="15.6279683"><ele>41.75</ele><time>2026-05-01T13:27:58.979Z</time></trkpt><trkpt lat="40.0800383" lon="15.6278217"><ele>42.0</ele><time>2026-05-01T13:27:59.978Z</time></trkpt><trkpt lat="40.0800783" lon="15.6276833"><ele>42.0</ele><time>2026-05-01T13:28:00.978Z</time></trkpt><trkpt lat="40.080115" lon="15.627575"><ele>42.0</ele><time>2026-05-01T13:28:01.979Z</time></trkpt><trkpt lat="40.0801717" lon="15.6274867"><ele>42.0</ele><time>2026-05-01T13:28:02.978Z</time></trkpt><trkpt lat="40.080235" lon="15.6274233"><ele>42.0</ele><time>2026-05-01T13:28:03.978Z</time></trkpt><trkpt lat="40.0803183" lon="15.6273967"><ele>42.0</ele><time>2026-05-01T13:28:04.979Z</time></trkpt><trkpt lat="40.0804" lon="15.6274"><ele>42.0</ele><time>2026-05-01T13:28:05.979Z</time></trkpt><trkpt lat="40.0804783" lon="15.62743"><ele>42.0</ele><time>2026-05-01T13:28:06.979Z</time></trkpt><trkpt lat="40.0805717" lon="15.6274917"><ele>42.0</ele><time>2026-05-01T13:28:07.978Z</time></trkpt><trkpt lat="40.0806633" lon="15.6275667"><ele>42.0</ele><time>2026-05-01T13:28:08.979Z</time></trkpt><trkpt lat="40.0807483" lon="15.6276383"><ele>42.0</ele><time>2026-05-01T13:28:09.978Z</time></trkpt><trkpt lat="40.0808167" lon="15.6276983"><ele>42.0</ele><time>2026-05-01T13:28:10.978Z</time></trkpt><trkpt lat="40.0808783" lon="15.6277517"><ele>43.333333333333336</ele><time>2026-05-01T13:28:11.978Z</time></trkpt><trkpt lat="40.08099" lon="15.6278133"><ele>44.66666666666667</ele><time>2026-05-01T13:28:13.978Z</time></trkpt><trkpt lat="40.081055" lon="15.6278017"><ele>46.0</ele><time>2026-05-01T13:28:14.978Z</time></trkpt><trkpt lat="40.08112" lon="15.6277617"><ele>47.333333333333336</ele><time>2026-05-01T13:28:15.978Z</time></trkpt><trkpt lat="40.0811867" lon="15.627695"><ele>48.66666666666667</ele><time>2026-05-01T13:28:16.979Z</time></trkpt><trkpt lat="40.0812417" lon="15.627635"><ele>50.0</ele><time>2026-05-01T13:28:17.979Z</time></trkpt><trkpt lat="40.08131" lon="15.6275883"><ele>50.00000000000001</ele><time>2026-05-01T13:28:18.979Z</time></trkpt><trkpt lat="40.0813817" lon="15.6275683"><ele>50.0</ele><time>2026-05-01T13:28:19.978Z</time></trkpt><trkpt lat="40.0814617" lon="15.627575"><ele>50.0</ele><time>2026-05-01T13:28:20.978Z</time></trkpt><trkpt lat="40.081555" lon="15.6275833"><ele>50.0</ele><time>2026-05-01T13:28:21.978Z</time></trkpt><trkpt lat="40.0816417" lon="15.6275633"><ele>50.00000000000001</ele><time>2026-05-01T13:28:22.978Z</time></trkpt><trkpt lat="40.08171" lon="15.6275083"><ele>50.0</ele><time>2026-05-01T13:28:23.979Z</time></trkpt><trkpt lat="40.081755" lon="15.6274283"><ele>50.2</ele><time>2026-05-01T13:28:24.979Z</time></trkpt><trkpt lat="40.08178" lon="15.6273217"><ele>50.4</ele><time>2026-05-01T13:28:25.978Z</time></trkpt><trkpt lat="40.0817967" lon="15.627195"><ele>50.599999999999994</ele><time>2026-05-01T13:28:26.979Z</time></trkpt><trkpt lat="40.08183" lon="15.62709"><ele>50.8</ele><time>2026-05-01T13:28:27.979Z</time></trkpt><trkpt lat="40.08188" lon="15.6269983"><ele>51.0</ele><time>2026-05-01T13:28:28.978Z</time></trkpt><trkpt lat="40.0819467" lon="15.6269133"><ele>51.0</ele><time>2026-05-01T13:28:29.978Z</time></trkpt><trkpt lat="40.082035" lon="15.6268283"><ele>51.0</ele><time>2026-05-01T13:28:30.978Z</time></trkpt><trkpt lat="40.082135" lon="15.6267383"><ele>51.0</ele><time>2026-05-01T13:28:31.979Z</time></trkpt><trkpt lat="40.0822283" lon="15.6266367"><ele>51.0</ele><time>2026-05-01T13:28:32.979Z</time></trkpt><trkpt lat="40.082315" lon="15.6265217"><ele>51.0</ele><time>2026-05-01T13:28:33.978Z</time></trkpt><trkpt lat="40.0823967" lon="15.6264017"><ele>51.0</ele><time>2026-05-01T13:28:34.978Z</time></trkpt><trkpt lat="40.0824683" lon="15.6262633"><ele>51.0</ele><time>2026-05-01T13:28:35.978Z</time></trkpt><trkpt lat="40.0825333" lon="15.6261383"><ele>51.0</ele><time>2026-05-01T13:28:36.978Z</time></trkpt><trkpt lat="40.0825867" lon="15.626005"><ele>53.4</ele><time>2026-05-01T13:28:37.979Z</time></trkpt><trkpt lat="40.08263" lon="15.6258633"><ele>55.8</ele><time>2026-05-01T13:28:38.978Z</time></trkpt><trkpt lat="40.08268" lon="15.62573"><ele>58.199999999999996</ele><time>2026-05-01T13:28:39.978Z</time></trkpt><trkpt lat="40.08273" lon="15.6256183"><ele>60.599999999999994</ele><time>2026-05-01T13:28:40.979Z</time></trkpt><trkpt lat="40.0827767" lon="15.6255217"><ele>63.0</ele><time>2026-05-01T13:28:41.978Z</time></trkpt><trkpt lat="40.0828417" lon="15.6254533"><ele>63.0</ele><time>2026-05-01T13:28:42.978Z</time></trkpt><trkpt lat="40.082925" lon="15.6254267"><ele>63.0</ele><time>2026-05-01T13:28:43.978Z</time></trkpt><trkpt lat="40.0830083" lon="15.6254367"><ele>63.0</ele><time>2026-05-01T13:28:44.978Z</time></trkpt><trkpt lat="40.0831067" lon="15.62547"><ele>63.0</ele><time>2026-05-01T13:28:45.979Z</time></trkpt><trkpt lat="40.0832167" lon="15.625505"><ele>63.0</ele><time>2026-05-01T13:28:46.978Z</time></trkpt><trkpt lat="40.0833217" lon="15.6255517"><ele>66.4</ele><time>2026-05-01T13:28:47.978Z</time></trkpt><trkpt lat="40.0834183" lon="15.6256267"><ele>69.8</ele><time>2026-05-01T13:28:48.978Z</time></trkpt><trkpt lat="40.0835083" lon="15.6256967"><ele>73.2</ele><time>2026-05-01T13:28:49.978Z</time></trkpt><trkpt lat="40.0835933" lon="15.6257717"><ele>76.6</ele><time>2026-05-01T13:28:50.978Z</time></trkpt><trkpt lat="40.08367" lon="15.6258483"><ele>80.0</ele><time>2026-05-01T13:28:51.979Z</time></trkpt><trkpt lat="40.08375" lon="15.6259367"><ele>80.0</ele><time>2026-05-01T13:28:52.978Z</time></trkpt><trkpt lat="40.0838117" lon="15.6260383"><ele>80.0</ele><time>2026-05-01T13:28:53.979Z</time></trkpt><trkpt lat="40.0838633" lon="15.6261517"><ele>80.0</ele><time>2026-05-01T13:28:54.978Z</time></trkpt><trkpt lat="40.0839317" lon="15.6262717"><ele>80.0</ele><time>2026-05-01T13:28:55.979Z</time></trkpt><trkpt lat="40.084005" lon="15.6263983"><ele>80.0</ele><time>2026-05-01T13:28:56.978Z</time></trkpt><trkpt lat="40.0840833" lon="15.6265083"><ele>82.4</ele><time>2026-05-01T13:28:57.978Z</time></trkpt><trkpt lat="40.0841683" lon="15.6266133"><ele>84.8</ele><time>2026-05-01T13:28:58.978Z</time></trkpt><trkpt lat="40.08425" lon="15.6267167"><ele>87.19999999999999</ele><time>2026-05-01T13:28:59.979Z</time></trkpt><trkpt lat="40.0843283" lon="15.626815"><ele>89.6</ele><time>2026-05-01T13:29:00.978Z</time></trkpt><trkpt lat="40.084395" lon="15.6269233"><ele>92.0</ele><time>2026-05-01T13:29:01.978Z</time></trkpt><trkpt lat="40.0844533" lon="15.62704"><ele>96.0</ele><time>2026-05-01T13:29:02.978Z</time></trkpt><trkpt lat="40.0845017" lon="15.6271617"><ele>100.0</ele><time>2026-05-01T13:29:03.979Z</time></trkpt><trkpt lat="40.0845567" lon="15.62727"><ele>103.99999999999999</ele><time>2026-05-01T13:29:04.978Z</time></trkpt><trkpt lat="40.0846117" lon="15.6273633"><ele>108.0</ele><time>2026-05-01T13:29:05.979Z</time></trkpt><trkpt lat="40.0846717" lon="15.6274267"><ele>112.0</ele><time>2026-05-01T13:29:06.979Z</time></trkpt><trkpt lat="40.084755" lon="15.62748"><ele>112.0</ele><time>2026-05-01T13:29:07.978Z</time></trkpt><trkpt lat="40.08486" lon="15.6275033"><ele>111.99999999999999</ele><time>2026-05-01T13:29:08.979Z</time></trkpt><trkpt lat="40.084965" lon="15.6275033"><ele>111.99999999999999</ele><time>2026-05-01T13:29:09.979Z</time></trkpt><trkpt lat="40.0850633" lon="15.6275083"><ele>112.0</ele><time>2026-05-01T13:29:10.978Z</time></trkpt><trkpt lat="40.0851583" lon="15.6274967"><ele>112.0</ele><time>2026-05-01T13:29:11.979Z</time></trkpt><trkpt lat="40.0852333" lon="15.62748"><ele>109.16666666666667</ele><time>2026-05-01T13:29:12.979Z</time></trkpt><trkpt lat="40.0852983" lon="15.6274333"><ele>106.33333333333334</ele><time>2026-05-01T13:29:13.978Z</time></trkpt><trkpt lat="40.0853383" lon="15.6273433"><ele>103.5</ele><time>2026-05-01T13:29:14.979Z</time></trkpt><trkpt lat="40.0853517" lon="15.6272433"><ele>100.66666666666667</ele><time>2026-05-01T13:29:15.978Z</time></trkpt><trkpt lat="40.085335" lon="15.62712"><ele>97.83333333333334</ele><time>2026-05-01T13:29:16.978Z</time></trkpt><trkpt lat="40.0852767" lon="15.6269967"><ele>95.0</ele><time>2026-05-01T13:29:17.979Z</time></trkpt><trkpt lat="40.0851767" lon="15.6268783"><ele>95.0</ele><time>2026-05-01T13:29:18.978Z</time></trkpt><trkpt lat="40.08507" lon="15.6267217"><ele>95.0</ele><time>2026-05-01T13:29:19.978Z</time></trkpt><trkpt lat="40.084985" lon="15.62656"><ele>95.0</ele><time>2026-05-01T13:29:20.978Z</time></trkpt><trkpt lat="40.0849183" lon="15.626405"><ele>95.0</ele><time>2026-05-01T13:29:21.978Z</time></trkpt><trkpt lat="40.0848417" lon="15.626275"><ele>94.4</ele><time>2026-05-01T13:29:22.979Z</time></trkpt><trkpt lat="40.0847683" lon="15.626155"><ele>93.8</ele><time>2026-05-01T13:29:23.979Z</time></trkpt><trkpt lat="40.0847017" lon="15.6260317"><ele>93.19999999999999</ele><time>2026-05-01T13:29:24.978Z</time></trkpt><trkpt lat="40.0846467" lon="15.6259117"><ele>92.6</ele><time>2026-05-01T13:29:25.978Z</time></trkpt><trkpt lat="40.0845983" lon="15.625795"><ele>92.0</ele><time>2026-05-01T13:29:26.978Z</time></trkpt><trkpt lat="40.0845633" lon="15.6256667"><ele>90.5</ele><time>2026-05-01T13:29:27.978Z</time></trkpt><trkpt lat="40.0845583" lon="15.6255583"><ele>89.0</ele><time>2026-05-01T13:29:28.979Z</time></trkpt><trkpt lat="40.084595" lon="15.62547"><ele>87.5</ele><time>2026-05-01T13:29:29.979Z</time></trkpt><trkpt lat="40.0846433" lon="15.6254"><ele>86.0</ele><time>2026-05-01T13:29:30.978Z</time></trkpt><trkpt lat="40.0847233" lon="15.6253767"><ele>84.5</ele><time>2026-05-01T13:29:31.978Z</time></trkpt><trkpt lat="40.0848233" lon="15.6253817"><ele>83.0</ele><time>2026-05-01T13:29:32.979Z</time></trkpt><trkpt lat="40.0849417" lon="15.6254067"><ele>88.75</ele><time>2026-05-01T13:29:33.978Z</time></trkpt><trkpt lat="40.0850683" lon="15.625425"><ele>94.5</ele><time>2026-05-01T13:29:34.978Z</time></trkpt><trkpt lat="40.08519" lon="15.6254233"><ele>100.25</ele><time>2026-05-01T13:29:35.978Z</time></trkpt><trkpt lat="40.0853017" lon="15.6254267"><ele>106.0</ele><time>2026-05-01T13:29:36.979Z</time></trkpt><trkpt lat="40.0854033" lon="15.6254417"><ele>106.0</ele><time>2026-05-01T13:29:37.978Z</time></trkpt><trkpt lat="40.0855033" lon="15.62548"><ele>106.0</ele><time>2026-05-01T13:29:38.979Z</time></trkpt><trkpt lat="40.0856017" lon="15.6255317"><ele>106.0</ele><time>2026-05-01T13:29:39.978Z</time></trkpt><trkpt lat="40.0856833" lon="15.62558"><ele>106.0</ele><time>2026-05-01T13:29:40.978Z</time></trkpt><trkpt lat="40.085765" lon="15.6255817"><ele>106.0</ele><time>2026-05-01T13:29:41.978Z</time></trkpt><trkpt lat="40.0858433" lon="15.625545"><ele>105.0</ele><time>2026-05-01T13:29:42.978Z</time></trkpt><trkpt lat="40.08591" lon="15.62546"><ele>104.0</ele><time>2026-05-01T13:29:43.979Z</time></trkpt><trkpt lat="40.085965" lon="15.6253567"><ele>103.0</ele><time>2026-05-01T13:29:44.979Z</time></trkpt><trkpt lat="40.086015" lon="15.6252217"><ele>102.0</ele><time>2026-05-01T13:29:45.979Z</time></trkpt><trkpt lat="40.086055" lon="15.6250717"><ele>101.0</ele><time>2026-05-01T13:29:46.978Z</time></trkpt><trkpt lat="40.0861167" lon="15.62494"><ele>101.0</ele><time>2026-05-01T13:29:47.979Z</time></trkpt><trkpt lat="40.0861867" lon="15.6248317"><ele>101.0</ele><time>2026-05-01T13:29:48.978Z</time></trkpt><trkpt lat="40.0862717" lon="15.6247567"><ele>101.0</ele><time>2026-05-01T13:29:49.979Z</time></trkpt><trkpt lat="40.086365" lon="15.6247"><ele>101.0</ele><time>2026-05-01T13:29:50.978Z</time></trkpt><trkpt lat="40.0864617" lon="15.6246583"><ele>101.0</ele><time>2026-05-01T13:29:51.979Z</time></trkpt><trkpt lat="40.0865533" lon="15.6246233"><ele>101.6</ele><time>2026-05-01T13:29:52.978Z</time></trkpt><trkpt lat="40.0866333" lon="15.6245683"><ele>102.19999999999999</ele><time>2026-05-01T13:29:53.978Z</time></trkpt><trkpt lat="40.086695" lon="15.6244733"><ele>102.80000000000001</ele><time>2026-05-01T13:29:54.978Z</time></trkpt><trkpt lat="40.0867383" lon="15.624375"><ele>103.4</ele><time>2026-05-01T13:29:55.978Z</time></trkpt><trkpt lat="40.086775" lon="15.6242683"><ele>104.0</ele><time>2026-05-01T13:29:56.978Z</time></trkpt><trkpt lat="40.0868133" lon="15.6241617"><ele>104.0</ele><time>2026-05-01T13:29:57.978Z</time></trkpt><trkpt lat="40.0868733" lon="15.6240867"><ele>104.0</ele><time>2026-05-01T13:29:58.978Z</time></trkpt><trkpt lat="40.0869583" lon="15.624065"><ele>104.0</ele><time>2026-05-01T13:29:59.978Z</time></trkpt><trkpt lat="40.0870583" lon="15.6240733"><ele>104.0</ele><time>2026-05-01T13:30:00.978Z</time></trkpt><trkpt lat="40.0871583" lon="15.624085"><ele>104.0</ele><time>2026-05-01T13:30:01.978Z</time></trkpt><trkpt lat="40.0872617" lon="15.624065"><ele>104.0</ele><time>2026-05-01T13:30:02.979Z</time></trkpt><trkpt lat="40.0873517" lon="15.6240183"><ele>104.0</ele><time>2026-05-01T13:30:03.979Z</time></trkpt><trkpt lat="40.087435" lon="15.62395"><ele>104.0</ele><time>2026-05-01T13:30:04.978Z</time></trkpt><trkpt lat="40.0875067" lon="15.6238683"><ele>104.0</ele><time>2026-05-01T13:30:05.979Z</time></trkpt><trkpt lat="40.0875617" lon="15.6237733"><ele>104.0</ele><time>2026-05-01T13:30:06.978Z</time></trkpt><trkpt lat="40.087595" lon="15.62366"><ele>106.33333333333333</ele><time>2026-05-01T13:30:07.978Z</time></trkpt><trkpt lat="40.0876033" lon="15.6235483"><ele>108.66666666666666</ele><time>2026-05-01T13:30:08.979Z</time></trkpt><trkpt lat="40.0875817" lon="15.623445"><ele>111.0</ele><time>2026-05-01T13:30:09.978Z</time></trkpt><trkpt lat="40.0875383" lon="15.6233417"><ele>113.33333333333334</ele><time>2026-05-01T13:30:10.978Z</time></trkpt><trkpt lat="40.0874917" lon="15.6232383"><ele>115.66666666666667</ele><time>2026-05-01T13:30:11.978Z</time></trkpt><trkpt lat="40.087465" lon="15.6231283"><ele>118.0</ele><time>2026-05-01T13:30:12.978Z</time></trkpt><trkpt lat="40.0874633" lon="15.6229983"><ele>118.0</ele><time>2026-05-01T13:30:13.978Z</time></trkpt><trkpt lat="40.087495" lon="15.6228633"><ele>118.00000000000001</ele><time>2026-05-01T13:30:14.979Z</time></trkpt><trkpt lat="40.0875417" lon="15.6227333"><ele>118.00000000000001</ele><time>2026-05-01T13:30:15.978Z</time></trkpt><trkpt lat="40.0875733" lon="15.6225933"><ele>118.0</ele><time>2026-05-01T13:30:16.979Z</time></trkpt><trkpt lat="40.0875733" lon="15.62246"><ele>118.0</ele><time>2026-05-01T13:30:17.978Z</time></trkpt><trkpt lat="40.08754" lon="15.622335"><ele>117.5</ele><time>2026-05-01T13:30:18.978Z</time></trkpt><trkpt lat="40.0874583" lon="15.622215"><ele>117.0</ele><time>2026-05-01T13:30:19.979Z</time></trkpt><trkpt lat="40.0873583" lon="15.6220933"><ele>116.5</ele><time>2026-05-01T13:30:20.979Z</time></trkpt><trkpt lat="40.0872533" lon="15.6219667"><ele>116.0</ele><time>2026-05-01T13:30:21.979Z</time></trkpt><trkpt lat="40.0871483" lon="15.6218617"><ele>118.25</ele><time>2026-05-01T13:30:22.978Z</time></trkpt><trkpt lat="40.087045" lon="15.621785"><ele>120.5</ele><time>2026-05-01T13:30:23.979Z</time></trkpt><trkpt lat="40.0869383" lon="15.62173"><ele>122.75</ele><time>2026-05-01T13:30:24.978Z</time></trkpt><trkpt lat="40.0868367" lon="15.6216767"><ele>125.0</ele><time>2026-05-01T13:30:25.979Z</time></trkpt><trkpt lat="40.0867433" lon="15.6216067"><ele>125.0</ele><time>2026-05-01T13:30:26.978Z</time></trkpt><trkpt lat="40.0866517" lon="15.6215183"><ele>125.0</ele><time>2026-05-01T13:30:27.979Z</time></trkpt><trkpt lat="40.0865767" lon="15.6213983"><ele>125.0</ele><time>2026-05-01T13:30:28.978Z</time></trkpt><trkpt lat="40.0865317" lon="15.6212717"><ele>125.0</ele><time>2026-05-01T13:30:29.978Z</time></trkpt><trkpt lat="40.0865017" lon="15.621135"><ele>125.0</ele><time>2026-05-01T13:30:30.979Z</time></trkpt><trkpt lat="40.0864983" lon="15.6210083"><ele>123.6</ele><time>2026-05-01T13:30:31.979Z</time></trkpt><trkpt lat="40.0865017" lon="15.620875"><ele>122.2</ele><time>2026-05-01T13:30:32.979Z</time></trkpt><trkpt lat="40.08651" lon="15.620735"><ele>120.80000000000001</ele><time>2026-05-01T13:30:33.979Z</time></trkpt><trkpt lat="40.0865267" lon="15.6205917"><ele>119.4</ele><time>2026-05-01T13:30:34.978Z</time></trkpt><trkpt lat="40.0865533" lon="15.6204433"><ele>118.0</ele><time>2026-05-01T13:30:35.979Z</time></trkpt><trkpt lat="40.086585" lon="15.6203067"><ele>121.0</ele><time>2026-05-01T13:30:36.979Z</time></trkpt><trkpt lat="40.0866183" lon="15.6201833"><ele>124.00000000000001</ele><time>2026-05-01T13:30:37.978Z</time></trkpt><trkpt lat="40.086655" lon="15.6200633"><ele>127.00000000000001</ele><time>2026-05-01T13:30:38.978Z</time></trkpt><trkpt lat="40.086695" lon="15.61994"><ele>130.0</ele><time>2026-05-01T13:30:39.978Z</time></trkpt><trkpt lat="40.0867467" lon="15.61981"><ele>133.0</ele><time>2026-05-01T13:30:40.978Z</time></trkpt><trkpt lat="40.0868033" lon="15.619685"><ele>133.0</ele><time>2026-05-01T13:30:41.979Z</time></trkpt><trkpt lat="40.0868617" lon="15.6195617"><ele>133.0</ele><time>2026-05-01T13:30:42.979Z</time></trkpt><trkpt lat="40.0869217" lon="15.6194267"><ele>133.0</ele><time>2026-05-01T13:30:43.978Z</time></trkpt><trkpt lat="40.0869817" lon="15.6192933"><ele>133.0</ele><time>2026-05-01T13:30:44.979Z</time></trkpt><trkpt lat="40.0870383" lon="15.6191833"><ele>132.6</ele><time>2026-05-01T13:30:45.978Z</time></trkpt><trkpt lat="40.0870867" lon="15.619065"><ele>132.20000000000002</ele><time>2026-05-01T13:30:46.978Z</time></trkpt><trkpt lat="40.0871383" lon="15.6189383"><ele>131.8</ele><time>2026-05-01T13:30:47.978Z</time></trkpt><trkpt lat="40.0871817" lon="15.61881"><ele>131.4</ele><time>2026-05-01T13:30:48.979Z</time></trkpt><trkpt lat="40.08722" lon="15.6186783"><ele>131.0</ele><time>2026-05-01T13:30:49.978Z</time></trkpt><trkpt lat="40.0872633" lon="15.618555"><ele>133.6</ele><time>2026-05-01T13:30:50.978Z</time></trkpt><trkpt lat="40.0872933" lon="15.6184317"><ele>136.2</ele><time>2026-05-01T13:30:51.978Z</time></trkpt><trkpt lat="40.087315" lon="15.618305"><ele>138.8</ele><time>2026-05-01T13:30:52.979Z</time></trkpt><trkpt lat="40.0873217" lon="15.6181817"><ele>141.4</ele><time>2026-05-01T13:30:53.979Z</time></trkpt><trkpt lat="40.0873083" lon="15.6180567"><ele>144.0</ele><time>2026-05-01T13:30:54.979Z</time></trkpt><trkpt lat="40.0872833" lon="15.6179467"><ele>144.0</ele><time>2026-05-01T13:30:55.979Z</time></trkpt><trkpt lat="40.0872467" lon="15.6178467"><ele>144.0</ele><time>2026-05-01T13:30:56.979Z</time></trkpt><trkpt lat="40.0871817" lon="15.6177667"><ele>144.0</ele><time>2026-05-01T13:30:57.978Z</time></trkpt><trkpt lat="40.0871033" lon="15.61772"><ele>144.0</ele><time>2026-05-01T13:30:58.979Z</time></trkpt><trkpt lat="40.0870033" lon="15.6177017"><ele>144.0</ele><time>2026-05-01T13:30:59.978Z</time></trkpt><trkpt lat="40.0868983" lon="15.6177233"><ele>144.0</ele><time>2026-05-01T13:31:00.978Z</time></trkpt><trkpt lat="40.0867833" lon="15.6177917"><ele>144.0</ele><time>2026-05-01T13:31:01.979Z</time></trkpt><trkpt lat="40.086655" lon="15.6178917"><ele>144.0</ele><time>2026-05-01T13:31:02.979Z</time></trkpt><trkpt lat="40.0865367" lon="15.61799"><ele>144.0</ele><time>2026-05-01T13:31:03.978Z</time></trkpt><trkpt lat="40.08643" lon="15.618075"><ele>146.25</ele><time>2026-05-01T13:31:04.979Z</time></trkpt><trkpt lat="40.0863317" lon="15.618145"><ele>148.5</ele><time>2026-05-01T13:31:05.978Z</time></trkpt><trkpt lat="40.0862317" lon="15.6182167"><ele>150.75</ele><time>2026-05-01T13:31:06.978Z</time></trkpt><trkpt lat="40.0861233" lon="15.6182783"><ele>153.0</ele><time>2026-05-01T13:31:07.978Z</time></trkpt><trkpt lat="40.0860117" lon="15.6183233"><ele>153.0</ele><time>2026-05-01T13:31:08.979Z</time></trkpt><trkpt lat="40.0859017" lon="15.6183517"><ele>153.0</ele><time>2026-05-01T13:31:09.978Z</time></trkpt><trkpt lat="40.0857983" lon="15.6183717"><ele>153.0</ele><time>2026-05-01T13:31:10.978Z</time></trkpt><trkpt lat="40.085705" lon="15.6183817"><ele>153.0</ele><time>2026-05-01T13:31:11.978Z</time></trkpt><trkpt lat="40.0856133" lon="15.6183733"><ele>153.0</ele><time>2026-05-01T13:31:12.978Z</time></trkpt><trkpt lat="40.08553" lon="15.61834"><ele>149.20000000000002</ele><time>2026-05-01T13:31:13.979Z</time></trkpt><trkpt lat="40.0854517" lon="15.6182817"><ele>145.4</ele><time>2026-05-01T13:31:14.978Z</time></trkpt><trkpt lat="40.0853817" lon="15.6181767"><ele>141.60000000000002</ele><time>2026-05-01T13:31:15.978Z</time></trkpt><trkpt lat="40.0853183" lon="15.61806"><ele>137.8</ele><time>2026-05-01T13:31:16.979Z</time></trkpt><trkpt lat="40.0852667" lon="15.61794"><ele>134.0</ele><time>2026-05-01T13:31:17.978Z</time></trkpt><trkpt lat="40.0852233" lon="15.617825"><ele>137.6</ele><time>2026-05-01T13:31:18.979Z</time></trkpt><trkpt lat="40.0851783" lon="15.6177133"><ele>141.2</ele><time>2026-05-01T13:31:19.979Z</time></trkpt><trkpt lat="40.0851367" lon="15.6176"><ele>144.79999999999998</ele><time>2026-05-01T13:31:20.978Z</time></trkpt><trkpt lat="40.0851033" lon="15.617475"><ele>148.4</ele><time>2026-05-01T13:31:21.978Z</time></trkpt><trkpt lat="40.0850767" lon="15.6173517"><ele>152.0</ele><time>2026-05-01T13:31:22.979Z</time></trkpt><trkpt lat="40.08508" lon="15.617225"><ele>152.0</ele><time>2026-05-01T13:31:23.978Z</time></trkpt><trkpt lat="40.0851067" lon="15.6171"><ele>152.0</ele><time>2026-05-01T13:31:24.979Z</time></trkpt><trkpt lat="40.0851483" lon="15.6169733"><ele>152.0</ele><time>2026-05-01T13:31:25.978Z</time></trkpt><trkpt lat="40.0852183" lon="15.6168367"><ele>152.0</ele><time>2026-05-01T13:31:26.979Z</time></trkpt><trkpt lat="40.0853017" lon="15.6167067"><ele>152.0</ele><time>2026-05-01T13:31:27.979Z</time></trkpt><trkpt lat="40.0853783" lon="15.616595"><ele>152.0</ele><time>2026-05-01T13:31:28.978Z</time></trkpt><trkpt lat="40.08546" lon="15.6164983"><ele>152.0</ele><time>2026-05-01T13:31:29.978Z</time></trkpt><trkpt lat="40.0855233" lon="15.6163933"><ele>152.0</ele><time>2026-05-01T13:31:30.978Z</time></trkpt><trkpt lat="40.085575" lon="15.61627"><ele>152.0</ele><time>2026-05-01T13:31:31.979Z</time></trkpt><trkpt lat="40.0856117" lon="15.616135"><ele>148.75</ele><time>2026-05-01T13:31:32.978Z</time></trkpt><trkpt lat="40.085635" lon="15.61599"><ele>145.5</ele><time>2026-05-01T13:31:33.979Z</time></trkpt><trkpt lat="40.085645" lon="15.6158317"><ele>142.25</ele><time>2026-05-01T13:31:34.978Z</time></trkpt><trkpt lat="40.085655" lon="15.6156717"><ele>139.0</ele><time>2026-05-01T13:31:35.978Z</time></trkpt><trkpt lat="40.085675" lon="15.61552"><ele>139.0</ele><time>2026-05-01T13:31:36.979Z</time></trkpt><trkpt lat="40.0857083" lon="15.61538"><ele>139.0</ele><time>2026-05-01T13:31:37.978Z</time></trkpt><trkpt lat="40.08576" lon="15.6152517"><ele>139.0</ele><time>2026-05-01T13:31:38.978Z</time></trkpt><trkpt lat="40.085825" lon="15.6151317"><ele>139.0</ele><time>2026-05-01T13:31:39.978Z</time></trkpt><trkpt lat="40.0859033" lon="15.6150317"><ele>139.0</ele><time>2026-05-01T13:31:40.979Z</time></trkpt><trkpt lat="40.08599" lon="15.6149383"><ele>144.0</ele><time>2026-05-01T13:31:41.978Z</time></trkpt><trkpt lat="40.086075" lon="15.6148483"><ele>149.0</ele><time>2026-05-01T13:31:42.978Z</time></trkpt><trkpt lat="40.0861383" lon="15.6147367"><ele>154.0</ele><time>2026-05-01T13:31:43.978Z</time></trkpt><trkpt lat="40.0861683" lon="15.6146033"><ele>159.0</ele><time>2026-05-01T13:31:44.978Z</time></trkpt><trkpt lat="40.086175" lon="15.614445"><ele>164.0</ele><time>2026-05-01T13:31:45.979Z</time></trkpt><trkpt lat="40.0861617" lon="15.6142533"><ele>164.0</ele><time>2026-05-01T13:31:46.978Z</time></trkpt><trkpt lat="40.0861467" lon="15.6140317"><ele>164.0</ele><time>2026-05-01T13:31:47.979Z</time></trkpt><trkpt lat="40.0861517" lon="15.61377"><ele>164.0</ele><time>2026-05-01T13:31:48.979Z</time></trkpt><trkpt lat="40.0861867" lon="15.6134683"><ele>164.0</ele><time>2026-05-01T13:31:49.978Z</time></trkpt><trkpt lat="40.0862383" lon="15.6131517"><ele>164.0</ele><time>2026-05-01T13:31:50.978Z</time></trkpt><trkpt lat="40.0862683" lon="15.6128717"><ele>165.33333333333331</ele><time>2026-05-01T13:31:51.979Z</time></trkpt><trkpt lat="40.0862867" lon="15.612635"><ele>166.66666666666666</ele><time>2026-05-01T13:31:52.978Z</time></trkpt><trkpt lat="40.08628" lon="15.6124133"><ele>168.0</ele><time>2026-05-01T13:31:53.979Z</time></trkpt><trkpt lat="40.0862417" lon="15.6121983"><ele>168.0</ele><time>2026-05-01T13:31:54.978Z</time></trkpt><trkpt lat="40.086175" lon="15.6120117"><ele>168.0</ele><time>2026-05-01T13:31:55.978Z</time></trkpt><trkpt lat="40.086095" lon="15.6118617"><ele>168.0</ele><time>2026-05-01T13:31:56.978Z</time></trkpt><trkpt lat="40.0860317" lon="15.6117417"><ele>168.0</ele><time>2026-05-01T13:31:57.978Z</time></trkpt><trkpt lat="40.0859933" lon="15.6116133"><ele>170.2</ele><time>2026-05-01T13:31:58.978Z</time></trkpt><trkpt lat="40.0859883" lon="15.6114917"><ele>172.4</ele><time>2026-05-01T13:31:59.978Z</time></trkpt><trkpt lat="40.0860183" lon="15.6113667"><ele>174.6</ele><time>2026-05-01T13:32:00.978Z</time></trkpt><trkpt lat="40.0860633" lon="15.611235"><ele>176.79999999999998</ele><time>2026-05-01T13:32:01.978Z</time></trkpt><trkpt lat="40.0861117" lon="15.6111167"><ele>179.0</ele><time>2026-05-01T13:32:02.978Z</time></trkpt><trkpt lat="40.0861567" lon="15.6109967"><ele>179.79999999999998</ele><time>2026-05-01T13:32:03.978Z</time></trkpt><trkpt lat="40.0861917" lon="15.6108817"><ele>180.6</ele><time>2026-05-01T13:32:04.979Z</time></trkpt><trkpt lat="40.0862083" lon="15.6107467"><ele>181.4</ele><time>2026-05-01T13:32:05.978Z</time></trkpt><trkpt lat="40.0861983" lon="15.6106133"><ele>182.2</ele><time>2026-05-01T13:32:06.979Z</time></trkpt><trkpt lat="40.0861617" lon="15.61048"><ele>183.0</ele><time>2026-05-01T13:32:07.978Z</time></trkpt><trkpt lat="40.0861083" lon="15.6103433"><ele>186.0</ele><time>2026-05-01T13:32:08.978Z</time></trkpt><trkpt lat="40.0860483" lon="15.6102017"><ele>189.0</ele><time>2026-05-01T13:32:09.979Z</time></trkpt><trkpt lat="40.0859967" lon="15.6100667"><ele>192.0</ele><time>2026-05-01T13:32:10.978Z</time></trkpt><trkpt lat="40.0859517" lon="15.6099167"><ele>195.0</ele><time>2026-05-01T13:32:11.979Z</time></trkpt><trkpt lat="40.0859067" lon="15.6097717"><ele>195.0</ele><time>2026-05-01T13:32:12.978Z</time></trkpt><trkpt lat="40.0858633" lon="15.6096417"><ele>195.0</ele><time>2026-05-01T13:32:13.978Z</time></trkpt><trkpt lat="40.0858" lon="15.6095283"><ele>195.0</ele><time>2026-05-01T13:32:14.978Z</time></trkpt><trkpt lat="40.0857217" lon="15.6094583"><ele>195.0</ele><time>2026-05-01T13:32:15.978Z</time></trkpt><trkpt lat="40.0856167" lon="15.6094217"><ele>195.0</ele><time>2026-05-01T13:32:16.978Z</time></trkpt><trkpt lat="40.0854967" lon="15.6094067"><ele>197.75</ele><time>2026-05-01T13:32:17.978Z</time></trkpt><trkpt lat="40.085375" lon="15.6093917"><ele>200.5</ele><time>2026-05-01T13:32:18.978Z</time></trkpt><trkpt lat="40.0852517" lon="15.6093717"><ele>203.25</ele><time>2026-05-01T13:32:19.978Z</time></trkpt><trkpt lat="40.0851317" lon="15.60933"><ele>206.0</ele><time>2026-05-01T13:32:20.979Z</time></trkpt><trkpt lat="40.0850167" lon="15.6092667"><ele>204.75</ele><time>2026-05-01T13:32:21.979Z</time></trkpt><trkpt lat="40.0849033" lon="15.609195"><ele>203.5</ele><time>2026-05-01T13:32:22.978Z</time></trkpt><trkpt lat="40.084795" lon="15.6091333"><ele>202.25</ele><time>2026-05-01T13:32:23.978Z</time></trkpt><trkpt lat="40.0846783" lon="15.6090883"><ele>201.0</ele><time>2026-05-01T13:32:24.978Z</time></trkpt><trkpt lat="40.0845567" lon="15.6090533"><ele>201.0</ele><time>2026-05-01T13:32:25.979Z</time></trkpt><trkpt lat="40.0844383" lon="15.609025"><ele>201.0</ele><time>2026-05-01T13:32:26.978Z</time></trkpt><trkpt lat="40.0843167" lon="15.60901"><ele>201.0</ele><time>2026-05-01T13:32:27.978Z</time></trkpt><trkpt lat="40.0841933" lon="15.6090033"><ele>201.0</ele><time>2026-05-01T13:32:28.978Z</time></trkpt><trkpt lat="40.0840817" lon="15.6089867"><ele>201.0</ele><time>2026-05-01T13:32:29.978Z</time></trkpt><trkpt lat="40.08398" lon="15.60896"><ele>201.0</ele><time>2026-05-01T13:32:30.979Z</time></trkpt><trkpt lat="40.0838983" lon="15.608915"><ele>201.0</ele><time>2026-05-01T13:32:31.979Z</time></trkpt><trkpt lat="40.08383" lon="15.6088333"><ele>201.0</ele><time>2026-05-01T13:32:32.979Z</time></trkpt><trkpt lat="40.0837967" lon="15.60872"><ele>201.0</ele><time>2026-05-01T13:32:33.978Z</time></trkpt><trkpt lat="40.08379" lon="15.6086333"><ele>201.0</ele><time>2026-05-01T13:32:34.979Z</time></trkpt><trkpt lat="40.0838217" lon="15.6085533"><ele>201.16666666666666</ele><time>2026-05-01T13:32:35.978Z</time></trkpt><trkpt lat="40.0838817" lon="15.6084917"><ele>201.33333333333331</ele><time>2026-05-01T13:32:36.978Z</time></trkpt><trkpt lat="40.0839683" lon="15.6084533"><ele>201.5</ele><time>2026-05-01T13:32:37.978Z</time></trkpt><trkpt lat="40.08406" lon="15.6084267"><ele>201.66666666666666</ele><time>2026-05-01T13:32:38.979Z</time></trkpt><trkpt lat="40.08415" lon="15.6084033"><ele>201.83333333333331</ele><time>2026-05-01T13:32:39.978Z</time></trkpt><trkpt lat="40.0842367" lon="15.608365"><ele>202.0</ele><time>2026-05-01T13:32:40.978Z</time></trkpt><trkpt lat="40.0843283" lon="15.608325"><ele>203.6</ele><time>2026-05-01T13:32:41.979Z</time></trkpt><trkpt lat="40.0844233" lon="15.60829"><ele>205.2</ele><time>2026-05-01T13:32:42.979Z</time></trkpt><trkpt lat="40.0845233" lon="15.60829"><ele>206.8</ele><time>2026-05-01T13:32:43.978Z</time></trkpt><trkpt lat="40.0846233" lon="15.6083283"><ele>208.4</ele><time>2026-05-01T13:32:44.979Z</time></trkpt><trkpt lat="40.0847333" lon="15.6083717"><ele>210.0</ele><time>2026-05-01T13:32:45.978Z</time></trkpt><trkpt lat="40.0848367" lon="15.6084"><ele>211.2</ele><time>2026-05-01T13:32:46.979Z</time></trkpt><trkpt lat="40.0849417" lon="15.60842"><ele>212.4</ele><time>2026-05-01T13:32:47.979Z</time></trkpt><trkpt lat="40.0850483" lon="15.6084233"><ele>213.60000000000002</ele><time>2026-05-01T13:32:48.978Z</time></trkpt><trkpt lat="40.0851583" lon="15.608415"><ele>214.8</ele><time>2026-05-01T13:32:49.979Z</time></trkpt><trkpt lat="40.0852617" lon="15.6084067"><ele>216.0</ele><time>2026-05-01T13:32:50.978Z</time></trkpt><trkpt lat="40.0853617" lon="15.6083883"><ele>216.0</ele><time>2026-05-01T13:32:51.978Z</time></trkpt><trkpt lat="40.08547" lon="15.608365"><ele>216.00000000000003</ele><time>2026-05-01T13:32:52.978Z</time></trkpt><trkpt lat="40.0855733" lon="15.6083433"><ele>216.00000000000003</ele><time>2026-05-01T13:32:53.978Z</time></trkpt><trkpt lat="40.0856733" lon="15.6083117"><ele>216.0</ele><time>2026-05-01T13:32:54.978Z</time></trkpt><trkpt lat="40.0857733" lon="15.6082833"><ele>216.0</ele><time>2026-05-01T13:32:55.978Z</time></trkpt><trkpt lat="40.0858733" lon="15.6082533"><ele>217.4</ele><time>2026-05-01T13:32:56.978Z</time></trkpt><trkpt lat="40.085975" lon="15.6082383"><ele>218.8</ele><time>2026-05-01T13:32:57.979Z</time></trkpt><trkpt lat="40.0860717" lon="15.6082467"><ele>220.20000000000002</ele><time>2026-05-01T13:32:58.978Z</time></trkpt><trkpt lat="40.086175" lon="15.6082767"><ele>221.60000000000002</ele><time>2026-05-01T13:32:59.978Z</time></trkpt><trkpt lat="40.0862683" lon="15.6083467"><ele>223.0</ele><time>2026-05-01T13:33:00.978Z</time></trkpt><trkpt lat="40.0863567" lon="15.6084383"><ele>223.0</ele><time>2026-05-01T13:33:01.978Z</time></trkpt><trkpt lat="40.0864383" lon="15.6085383"><ele>223.0</ele><time>2026-05-01T13:33:02.978Z</time></trkpt><trkpt lat="40.0865017" lon="15.6086717"><ele>223.0</ele><time>2026-05-01T13:33:03.979Z</time></trkpt><trkpt lat="40.08655" lon="15.6088"><ele>223.0</ele><time>2026-05-01T13:33:04.978Z</time></trkpt><trkpt lat="40.086615" lon="15.6089333"><ele>224.25</ele><time>2026-05-01T13:33:05.978Z</time></trkpt><trkpt lat="40.086695" lon="15.6090467"><ele>225.5</ele><time>2026-05-01T13:33:06.979Z</time></trkpt><trkpt lat="40.0867833" lon="15.609135"><ele>226.75</ele><time>2026-05-01T13:33:07.978Z</time></trkpt><trkpt lat="40.0868933" lon="15.6092067"><ele>228.0</ele><time>2026-05-01T13:33:08.978Z</time></trkpt><trkpt lat="40.08701" lon="15.6092767"><ele>228.0</ele><time>2026-05-01T13:33:09.978Z</time></trkpt><trkpt lat="40.0871467" lon="15.6093467"><ele>228.0</ele><time>2026-05-01T13:33:10.979Z</time></trkpt><trkpt lat="40.0872883" lon="15.6094367"><ele>228.0</ele><time>2026-05-01T13:33:11.979Z</time></trkpt><trkpt lat="40.0874183" lon="15.6095417"><ele>229.25</ele><time>2026-05-01T13:33:12.979Z</time></trkpt><trkpt lat="40.0875283" lon="15.6096467"><ele>230.5</ele><time>2026-05-01T13:33:13.978Z</time></trkpt><trkpt lat="40.0876283" lon="15.609745"><ele>231.75</ele><time>2026-05-01T13:33:14.979Z</time></trkpt><trkpt lat="40.0877217" lon="15.6098417"><ele>233.0</ele><time>2026-05-01T13:33:15.979Z</time></trkpt><trkpt lat="40.0878017" lon="15.6099533"><ele>233.0</ele><time>2026-05-01T13:33:16.978Z</time></trkpt><trkpt lat="40.087875" lon="15.6100817"><ele>233.0</ele><time>2026-05-01T13:33:17.978Z</time></trkpt><trkpt lat="40.0879483" lon="15.6102167"><ele>233.0</ele><time>2026-05-01T13:33:18.978Z</time></trkpt><trkpt lat="40.0880067" lon="15.6103717"><ele>233.0</ele><time>2026-05-01T13:33:19.978Z</time></trkpt><trkpt lat="40.088065" lon="15.6105367"><ele>232.0</ele><time>2026-05-01T13:33:20.978Z</time></trkpt><trkpt lat="40.08813" lon="15.6107033"><ele>231.0</ele><time>2026-05-01T13:33:21.979Z</time></trkpt><trkpt lat="40.0881883" lon="15.61087"><ele>230.0</ele><time>2026-05-01T13:33:22.978Z</time></trkpt><trkpt lat="40.0882417" lon="15.6110217"><ele>229.0</ele><time>2026-05-01T13:33:23.978Z</time></trkpt><trkpt lat="40.0883083" lon="15.611175"><ele>233.0</ele><time>2026-05-01T13:33:24.978Z</time></trkpt><trkpt lat="40.0883683" lon="15.6113233"><ele>237.0</ele><time>2026-05-01T13:33:25.979Z</time></trkpt><trkpt lat="40.0884233" lon="15.61146"><ele>241.0</ele><time>2026-05-01T13:33:26.978Z</time></trkpt><trkpt lat="40.0884883" lon="15.6115883"><ele>245.0</ele><time>2026-05-01T13:33:27.978Z</time></trkpt><trkpt lat="40.0885483" lon="15.6117083"><ele>245.0</ele><time>2026-05-01T13:33:28.978Z</time></trkpt><trkpt lat="40.0886" lon="15.6118283"><ele>245.0</ele><time>2026-05-01T13:33:29.978Z</time></trkpt><trkpt lat="40.0886333" lon="15.61197"><ele>245.0</ele><time>2026-05-01T13:33:30.979Z</time></trkpt><trkpt lat="40.0886617" lon="15.6121067"><ele>245.0</ele><time>2026-05-01T13:33:31.978Z</time></trkpt><trkpt lat="40.0886917" lon="15.612235"><ele>245.0</ele><time>2026-05-01T13:33:32.979Z</time></trkpt><trkpt lat="40.0887317" lon="15.6123517"><ele>244.8</ele><time>2026-05-01T13:33:33.979Z</time></trkpt><trkpt lat="40.0887917" lon="15.6124467"><ele>244.6</ele><time>2026-05-01T13:33:34.979Z</time></trkpt><trkpt lat="40.088875" lon="15.6125233"><ele>244.39999999999998</ele><time>2026-05-01T13:33:35.979Z</time></trkpt><trkpt lat="40.088965" lon="15.612565"><ele>244.2</ele><time>2026-05-01T13:33:36.979Z</time></trkpt><trkpt lat="40.0890683" lon="15.6126"><ele>244.0</ele><time>2026-05-01T13:33:37.978Z</time></trkpt><trkpt lat="40.0891617" lon="15.6126367"><ele>243.99999999999997</ele><time>2026-05-01T13:33:38.978Z</time></trkpt><trkpt lat="40.0892367" lon="15.6126883"><ele>244.0</ele><time>2026-05-01T13:33:39.978Z</time></trkpt><trkpt lat="40.0893017" lon="15.6127683"><ele>244.0</ele><time>2026-05-01T13:33:40.978Z</time></trkpt><trkpt lat="40.08934" lon="15.6128683"><ele>244.0</ele><time>2026-05-01T13:33:41.978Z</time></trkpt><trkpt lat="40.08935" lon="15.6129833"><ele>243.99999999999997</ele><time>2026-05-01T13:33:42.978Z</time></trkpt><trkpt lat="40.0893467" lon="15.6131067"><ele>244.0</ele><time>2026-05-01T13:33:43.978Z</time></trkpt><trkpt lat="40.0893383" lon="15.61325"><ele>246.5</ele><time>2026-05-01T13:33:44.979Z</time></trkpt><trkpt lat="40.0893233" lon="15.613405"><ele>249.0</ele><time>2026-05-01T13:33:45.978Z</time></trkpt><trkpt lat="40.0893033" lon="15.6135633"><ele>251.5</ele><time>2026-05-01T13:33:46.978Z</time></trkpt><trkpt lat="40.089285" lon="15.6137333"><ele>254.0</ele><time>2026-05-01T13:33:47.978Z</time></trkpt><trkpt lat="40.089265" lon="15.61391"><ele>255.25</ele><time>2026-05-01T13:33:48.979Z</time></trkpt><trkpt lat="40.08925" lon="15.6140933"><ele>256.5</ele><time>2026-05-01T13:33:49.979Z</time></trkpt><trkpt lat="40.08924" lon="15.6142717"><ele>257.75</ele><time>2026-05-01T13:33:50.978Z</time></trkpt><trkpt lat="40.0892483" lon="15.61444"><ele>259.0</ele><time>2026-05-01T13:33:51.979Z</time></trkpt><trkpt lat="40.089255" lon="15.6145983"><ele>259.0</ele><time>2026-05-01T13:33:52.978Z</time></trkpt><trkpt lat="40.089265" lon="15.6147567"><ele>259.0</ele><time>2026-05-01T13:33:53.978Z</time></trkpt><trkpt lat="40.0892833" lon="15.6149083"><ele>259.0</ele><time>2026-05-01T13:33:54.979Z</time></trkpt><trkpt lat="40.089315" lon="15.615045"><ele>259.0</ele><time>2026-05-01T13:33:55.979Z</time></trkpt><trkpt lat="40.089365" lon="15.6151667"><ele>259.0</ele><time>2026-05-01T13:33:56.978Z</time></trkpt><trkpt lat="40.08943" lon="15.6152867"><ele>259.0</ele><time>2026-05-01T13:33:57.978Z</time></trkpt><trkpt lat="40.0895133" lon="15.615395"><ele>259.0</ele><time>2026-05-01T13:33:58.979Z</time></trkpt><trkpt lat="40.089595" lon="15.6154967"><ele>259.0</ele><time>2026-05-01T13:33:59.978Z</time></trkpt><trkpt lat="40.0896667" lon="15.6156167"><ele>257.75</ele><time>2026-05-01T13:34:00.978Z</time></trkpt><trkpt lat="40.0897083" lon="15.6157533"><ele>256.5</ele><time>2026-05-01T13:34:01.979Z</time></trkpt><trkpt lat="40.0897183" lon="15.6159017"><ele>255.25</ele><time>2026-05-01T13:34:02.979Z</time></trkpt><trkpt lat="40.0897067" lon="15.616065"><ele>254.0</ele><time>2026-05-01T13:34:03.979Z</time></trkpt><trkpt lat="40.0897167" lon="15.6162517"><ele>250.5</ele><time>2026-05-01T13:34:04.979Z</time></trkpt><trkpt lat="40.0897383" lon="15.6164467"><ele>247.0</ele><time>2026-05-01T13:34:05.979Z</time></trkpt><trkpt lat="40.0897633" lon="15.6166333"><ele>243.5</ele><time>2026-05-01T13:34:06.978Z</time></trkpt><trkpt lat="40.0898067" lon="15.616815"><ele>240.0</ele><time>2026-05-01T13:34:07.978Z</time></trkpt><trkpt lat="40.0898417" lon="15.6169917"><ele>237.5</ele><time>2026-05-01T13:34:08.978Z</time></trkpt><trkpt lat="40.0898667" lon="15.6171533"><ele>235.0</ele><time>2026-05-01T13:34:09.979Z</time></trkpt><trkpt lat="40.089875" lon="15.6173183"><ele>232.5</ele><time>2026-05-01T13:34:10.978Z</time></trkpt><trkpt lat="40.0898617" lon="15.6174783"><ele>230.0</ele><time>2026-05-01T13:34:11.979Z</time></trkpt><trkpt lat="40.0898367" lon="15.6176383"><ele>230.0</ele><time>2026-05-01T13:34:12.978Z</time></trkpt><trkpt lat="40.0898267" lon="15.6178"><ele>230.0</ele><time>2026-05-01T13:34:13.978Z</time></trkpt><trkpt lat="40.08983" lon="15.6179617"><ele>230.0</ele><time>2026-05-01T13:34:14.978Z</time></trkpt><trkpt lat="40.0898483" lon="15.6181133"><ele>230.0</ele><time>2026-05-01T13:34:15.979Z</time></trkpt><trkpt lat="40.0898717" lon="15.6182683"><ele>227.5</ele><time>2026-05-01T13:34:16.978Z</time></trkpt><trkpt lat="40.0899167" lon="15.6184183"><ele>225.0</ele><time>2026-05-01T13:34:17.978Z</time></trkpt><trkpt lat="40.089975" lon="15.6185517"><ele>222.5</ele><time>2026-05-01T13:34:18.978Z</time></trkpt><trkpt lat="40.090035" lon="15.618675"><ele>220.0</ele><time>2026-05-01T13:34:19.978Z</time></trkpt><trkpt lat="40.0900967" lon="15.6187967"><ele>226.2</ele><time>2026-05-01T13:34:20.979Z</time></trkpt><trkpt lat="40.090155" lon="15.61891"><ele>232.4</ele><time>2026-05-01T13:34:21.979Z</time></trkpt><trkpt lat="40.0902183" lon="15.6190217"><ele>238.60000000000002</ele><time>2026-05-01T13:34:22.979Z</time></trkpt><trkpt lat="40.09029" lon="15.61912"><ele>244.8</ele><time>2026-05-01T13:34:23.979Z</time></trkpt><trkpt lat="40.0903817" lon="15.619205"><ele>251.0</ele><time>2026-05-01T13:34:24.978Z</time></trkpt><trkpt lat="40.0904833" lon="15.6192817"><ele>251.0</ele><time>2026-05-01T13:34:25.978Z</time></trkpt><trkpt lat="40.09059" lon="15.6193667"><ele>251.0</ele><time>2026-05-01T13:34:26.978Z</time></trkpt><trkpt lat="40.0906983" lon="15.6194683"><ele>251.0</ele><time>2026-05-01T13:34:27.978Z</time></trkpt><trkpt lat="40.0907917" lon="15.6195683"><ele>251.0</ele><time>2026-05-01T13:34:28.978Z</time></trkpt><trkpt lat="40.0908817" lon="15.6196683"><ele>254.5</ele><time>2026-05-01T13:34:29.978Z</time></trkpt><trkpt lat="40.090965" lon="15.6197783"><ele>258.0</ele><time>2026-05-01T13:34:30.978Z</time></trkpt><trkpt lat="40.0910533" lon="15.619885"><ele>261.5</ele><time>2026-05-01T13:34:31.978Z</time></trkpt><trkpt lat="40.0911467" lon="15.6199883"><ele>265.0</ele><time>2026-05-01T13:34:32.979Z</time></trkpt><trkpt lat="40.0912417" lon="15.62009"><ele>265.0</ele><time>2026-05-01T13:34:33.978Z</time></trkpt><trkpt lat="40.091335" lon="15.6201983"><ele>265.0</ele><time>2026-05-01T13:34:34.979Z</time></trkpt><trkpt lat="40.0914267" lon="15.6202883"><ele>265.0</ele><time>2026-05-01T13:34:35.978Z</time></trkpt><trkpt lat="40.0915133" lon="15.62038"><ele>265.0</ele><time>2026-05-01T13:34:36.978Z</time></trkpt><trkpt lat="40.0915833" lon="15.6204717"><ele>268.4</ele><time>2026-05-01T13:34:37.978Z</time></trkpt><trkpt lat="40.0916333" lon="15.62058"><ele>271.8</ele><time>2026-05-01T13:34:38.979Z</time></trkpt><trkpt lat="40.0916667" lon="15.6206983"><ele>275.2</ele><time>2026-05-01T13:34:39.978Z</time></trkpt><trkpt lat="40.0916833" lon="15.6208267"><ele>278.6</ele><time>2026-05-01T13:34:40.978Z</time></trkpt><trkpt lat="40.09168" lon="15.6209767"><ele>282.0</ele><time>2026-05-01T13:34:41.978Z</time></trkpt><trkpt lat="40.091675" lon="15.6211567"><ele>282.0</ele><time>2026-05-01T13:34:42.978Z</time></trkpt><trkpt lat="40.0916833" lon="15.6213383"><ele>282.0</ele><time>2026-05-01T13:34:43.978Z</time></trkpt><trkpt lat="40.0916933" lon="15.6215067"><ele>282.0</ele><time>2026-05-01T13:34:44.979Z</time></trkpt><trkpt lat="40.09172" lon="15.621665"><ele>282.0</ele><time>2026-05-01T13:34:45.978Z</time></trkpt><trkpt lat="40.09174" lon="15.62182"><ele>282.0</ele><time>2026-05-01T13:34:46.978Z</time></trkpt><trkpt lat="40.0917683" lon="15.6219617"><ele>282.0</ele><time>2026-05-01T13:34:47.978Z</time></trkpt><trkpt lat="40.0918083" lon="15.6220917"><ele>282.0</ele><time>2026-05-01T13:34:48.978Z</time></trkpt><trkpt lat="40.0918633" lon="15.622205"><ele>282.0</ele><time>2026-05-01T13:34:49.978Z</time></trkpt><trkpt lat="40.09194" lon="15.6223"><ele>282.0</ele><time>2026-05-01T13:34:50.978Z</time></trkpt><trkpt lat="40.092025" lon="15.6223733"><ele>279.8</ele><time>2026-05-01T13:34:51.978Z</time></trkpt><trkpt lat="40.092115" lon="15.622435"><ele>277.6</ele><time>2026-05-01T13:34:52.978Z</time></trkpt><trkpt lat="40.092195" lon="15.6225233"><ele>275.40000000000003</ele><time>2026-05-01T13:34:53.979Z</time></trkpt><trkpt lat="40.09225" lon="15.6226467"><ele>273.2</ele><time>2026-05-01T13:34:54.978Z</time></trkpt><trkpt lat="40.09229" lon="15.6227867"><ele>271.0</ele><time>2026-05-01T13:34:55.978Z</time></trkpt><trkpt lat="40.0923233" lon="15.6229233"><ele>267.0</ele><time>2026-05-01T13:34:56.979Z</time></trkpt><trkpt lat="40.0923583" lon="15.6230467"><ele>263.0</ele><time>2026-05-01T13:34:57.978Z</time></trkpt><trkpt lat="40.0924017" lon="15.6231783"><ele>259.0</ele><time>2026-05-01T13:34:58.978Z</time></trkpt><trkpt lat="40.0924583" lon="15.62331"><ele>255.0</ele><time>2026-05-01T13:34:59.979Z</time></trkpt><trkpt lat="40.0925217" lon="15.6234417"><ele>251.0</ele><time>2026-05-01T13:35:00.978Z</time></trkpt><trkpt lat="40.0925917" lon="15.623585"><ele>258.75</ele><time>2026-05-01T13:35:01.979Z</time></trkpt><trkpt lat="40.092665" lon="15.623735"><ele>266.5</ele><time>2026-05-01T13:35:02.978Z</time></trkpt><trkpt lat="40.09274" lon="15.62389"><ele>274.25</ele><time>2026-05-01T13:35:03.979Z</time></trkpt><trkpt lat="40.092825" lon="15.6240583"><ele>282.0</ele><time>2026-05-01T13:35:04.978Z</time></trkpt><trkpt lat="40.0929033" lon="15.6242267"><ele>282.0</ele><time>2026-05-01T13:35:05.978Z</time></trkpt><trkpt lat="40.09297" lon="15.6243933"><ele>282.0</ele><time>2026-05-01T13:35:06.978Z</time></trkpt><trkpt lat="40.0930333" lon="15.6245583"><ele>282.0</ele><time>2026-05-01T13:35:07.978Z</time></trkpt><trkpt lat="40.09309" lon="15.6247067"><ele>282.0</ele><time>2026-05-01T13:35:08.979Z</time></trkpt><trkpt lat="40.093165" lon="15.6248433"><ele>279.4</ele><time>2026-05-01T13:35:09.978Z</time></trkpt><trkpt lat="40.09323" lon="15.6249683"><ele>276.79999999999995</ele><time>2026-05-01T13:35:10.978Z</time></trkpt><trkpt lat="40.0932833" lon="15.6250883"><ele>274.2</ele><time>2026-05-01T13:35:11.978Z</time></trkpt><trkpt lat="40.093325" lon="15.62521"><ele>271.59999999999997</ele><time>2026-05-01T13:35:12.978Z</time></trkpt><trkpt lat="40.0933317" lon="15.6253533"><ele>269.0</ele><time>2026-05-01T13:35:13.978Z</time></trkpt><trkpt lat="40.0933167" lon="15.6255283"><ele>269.25</ele><time>2026-05-01T13:35:14.979Z</time></trkpt><trkpt lat="40.0932967" lon="15.62571"><ele>269.5</ele><time>2026-05-01T13:35:15.979Z</time></trkpt><trkpt lat="40.0932633" lon="15.6259"><ele>269.75</ele><time>2026-05-01T13:35:16.979Z</time></trkpt><trkpt lat="40.0932117" lon="15.626095"><ele>270.0</ele><time>2026-05-01T13:35:17.978Z</time></trkpt><trkpt lat="40.0931533" lon="15.62629"><ele>274.25</ele><time>2026-05-01T13:35:18.979Z</time></trkpt><trkpt lat="40.0930883" lon="15.62647"><ele>278.5</ele><time>2026-05-01T13:35:19.979Z</time></trkpt><trkpt lat="40.09303" lon="15.6266433"><ele>282.75</ele><time>2026-05-01T13:35:20.978Z</time></trkpt><trkpt lat="40.0929683" lon="15.6267967"><ele>287.0</ele><time>2026-05-01T13:35:21.978Z</time></trkpt><trkpt lat="40.0929" lon="15.6269383"><ele>289.4</ele><time>2026-05-01T13:35:22.978Z</time></trkpt><trkpt lat="40.0928267" lon="15.6270717"><ele>291.79999999999995</ele><time>2026-05-01T13:35:23.979Z</time></trkpt><trkpt lat="40.0927583" lon="15.62719"><ele>294.2</ele><time>2026-05-01T13:35:24.978Z</time></trkpt><trkpt lat="40.0926967" lon="15.6273067"><ele>296.59999999999997</ele><time>2026-05-01T13:35:25.979Z</time></trkpt><trkpt lat="40.0926533" lon="15.62742"><ele>299.0</ele><time>2026-05-01T13:35:26.978Z</time></trkpt><trkpt lat="40.09265" lon="15.6275333"><ele>299.0</ele><time>2026-05-01T13:35:27.978Z</time></trkpt><trkpt lat="40.0926833" lon="15.6276267"><ele>299.0</ele><time>2026-05-01T13:35:28.978Z</time></trkpt><trkpt lat="40.0927617" lon="15.6276933"><ele>299.0</ele><time>2026-05-01T13:35:29.978Z</time></trkpt><trkpt lat="40.0928617" lon="15.6277167"><ele>299.0</ele><time>2026-05-01T13:35:30.978Z</time></trkpt><trkpt lat="40.0929783" lon="15.62771"><ele>299.0</ele><time>2026-05-01T13:35:31.978Z</time></trkpt><trkpt lat="40.0931033" lon="15.62772"><ele>299.0</ele><time>2026-05-01T13:35:32.979Z</time></trkpt><trkpt lat="40.093225" lon="15.62775"><ele>299.0</ele><time>2026-05-01T13:35:33.978Z</time></trkpt><trkpt lat="40.0933367" lon="15.627805"><ele>299.0</ele><time>2026-05-01T13:35:34.979Z</time></trkpt><trkpt lat="40.09344" lon="15.6278667"><ele>299.0</ele><time>2026-05-01T13:35:35.978Z</time></trkpt><trkpt lat="40.093545" lon="15.6279233"><ele>297.4</ele><time>2026-05-01T13:35:36.978Z</time></trkpt><trkpt lat="40.09365" lon="15.6279483"><ele>295.79999999999995</ele><time>2026-05-01T13:35:37.978Z</time></trkpt><trkpt lat="40.0937567" lon="15.6279417"><ele>294.20000000000005</ele><time>2026-05-01T13:35:38.979Z</time></trkpt><trkpt lat="40.09386" lon="15.6279167"><ele>292.6</ele><time>2026-05-01T13:35:39.978Z</time></trkpt><trkpt lat="40.0939583" lon="15.627855"><ele>291.0</ele><time>2026-05-01T13:35:40.979Z</time></trkpt><trkpt lat="40.0940617" lon="15.6277433"><ele>299.75</ele><time>2026-05-01T13:35:41.979Z</time></trkpt><trkpt lat="40.0941633" lon="15.6276233"><ele>308.5</ele><time>2026-05-01T13:35:42.978Z</time></trkpt><trkpt lat="40.0942617" lon="15.6274967"><ele>317.25</ele><time>2026-05-01T13:35:43.978Z</time></trkpt><trkpt lat="40.094365" lon="15.62737"><ele>326.0</ele><time>2026-05-01T13:35:44.978Z</time></trkpt><trkpt lat="40.0944667" lon="15.6272417"><ele>326.0</ele><time>2026-05-01T13:35:45.978Z</time></trkpt><trkpt lat="40.0945683" lon="15.62713"><ele>326.0</ele><time>2026-05-01T13:35:46.978Z</time></trkpt><trkpt lat="40.0946633" lon="15.6270317"><ele>326.0</ele><time>2026-05-01T13:35:47.978Z</time></trkpt><trkpt lat="40.0947517" lon="15.6269333"><ele>326.0</ele><time>2026-05-01T13:35:48.978Z</time></trkpt><trkpt lat="40.0948283" lon="15.626835"><ele>328.33333333333337</ele><time>2026-05-01T13:35:49.979Z</time></trkpt><trkpt lat="40.094895" lon="15.6267367"><ele>330.6666666666667</ele><time>2026-05-01T13:35:50.978Z</time></trkpt><trkpt lat="40.0949583" lon="15.626655"><ele>333.0</ele><time>2026-05-01T13:35:51.979Z</time></trkpt><trkpt lat="40.09503" lon="15.6266083"><ele>335.3333333333333</ele><time>2026-05-01T13:35:52.978Z</time></trkpt><trkpt lat="40.0951083" lon="15.6265933"><ele>337.66666666666663</ele><time>2026-05-01T13:35:53.978Z</time></trkpt><trkpt lat="40.09517" lon="15.6266367"><ele>340.0</ele><time>2026-05-01T13:35:54.978Z</time></trkpt><trkpt lat="40.0952133" lon="15.6267167"><ele>340.0</ele><time>2026-05-01T13:35:55.978Z</time></trkpt><trkpt lat="40.09523" lon="15.626825"><ele>340.0</ele><time>2026-05-01T13:35:56.978Z</time></trkpt><trkpt lat="40.095235" lon="15.6269567"><ele>340.0</ele><time>2026-05-01T13:35:57.978Z</time></trkpt><trkpt lat="40.0952533" lon="15.6270883"><ele>340.0</ele><time>2026-05-01T13:35:58.978Z</time></trkpt><trkpt lat="40.0953017" lon="15.62722"><ele>340.0</ele><time>2026-05-01T13:35:59.978Z</time></trkpt><trkpt lat="40.09536" lon="15.6273517"><ele>334.75</ele><time>2026-05-01T13:36:00.979Z</time></trkpt><trkpt lat="40.09543" lon="15.627485"><ele>329.5</ele><time>2026-05-01T13:36:01.979Z</time></trkpt><trkpt lat="40.095505" lon="15.627615"><ele>324.25</ele><time>2026-05-01T13:36:02.978Z</time></trkpt><trkpt lat="40.0955667" lon="15.6277483"><ele>319.0</ele><time>2026-05-01T13:36:03.979Z</time></trkpt><trkpt lat="40.0956117" lon="15.6278917"><ele>316.0</ele><time>2026-05-01T13:36:04.978Z</time></trkpt><trkpt lat="40.09564" lon="15.62804"><ele>313.0</ele><time>2026-05-01T13:36:05.978Z</time></trkpt><trkpt lat="40.0956567" lon="15.6282"><ele>310.0</ele><time>2026-05-01T13:36:06.978Z</time></trkpt><trkpt lat="40.095655" lon="15.6283517"><ele>307.0</ele><time>2026-05-01T13:36:07.978Z</time></trkpt><trkpt lat="40.095665" lon="15.6284983"><ele>307.0</ele><time>2026-05-01T13:36:08.978Z</time></trkpt><trkpt lat="40.09568" lon="15.6286217"><ele>307.0</ele><time>2026-05-01T13:36:09.979Z</time></trkpt><trkpt lat="40.0957233" lon="15.6287317"><ele>307.0</ele><time>2026-05-01T13:36:10.978Z</time></trkpt><trkpt lat="40.0957983" lon="15.6288233"><ele>307.0</ele><time>2026-05-01T13:36:11.979Z</time></trkpt><trkpt lat="40.09589" lon="15.628905"><ele>307.0</ele><time>2026-05-01T13:36:12.978Z</time></trkpt><trkpt lat="40.0959867" lon="15.62899"><ele>310.2</ele><time>2026-05-01T13:36:13.978Z</time></trkpt><trkpt lat="40.09608" lon="15.62907"><ele>313.4</ele><time>2026-05-01T13:36:14.978Z</time></trkpt><trkpt lat="40.0961733" lon="15.6291383"><ele>316.59999999999997</ele><time>2026-05-01T13:36:15.979Z</time></trkpt><trkpt lat="40.09627" lon="15.62918"><ele>319.79999999999995</ele><time>2026-05-01T13:36:16.978Z</time></trkpt><trkpt lat="40.0963783" lon="15.6292067"><ele>323.0</ele><time>2026-05-01T13:36:17.978Z</time></trkpt><trkpt lat="40.0964883" lon="15.6292117"><ele>327.25</ele><time>2026-05-01T13:36:18.978Z</time></trkpt><trkpt lat="40.0966017" lon="15.6292067"><ele>331.5</ele><time>2026-05-01T13:36:19.978Z</time></trkpt><trkpt lat="40.0967233" lon="15.6292017"><ele>335.75</ele><time>2026-05-01T13:36:20.978Z</time></trkpt><trkpt lat="40.0968467" lon="15.629225"><ele>340.0</ele><time>2026-05-01T13:36:21.979Z</time></trkpt><trkpt lat="40.0969583" lon="15.6292817"><ele>340.0</ele><time>2026-05-01T13:36:22.978Z</time></trkpt><trkpt lat="40.0970817" lon="15.6293617"><ele>340.0</ele><time>2026-05-01T13:36:23.978Z</time></trkpt><trkpt lat="40.09721" lon="15.62945"><ele>340.0</ele><time>2026-05-01T13:36:24.978Z</time></trkpt><trkpt lat="40.0973317" lon="15.6295317"><ele>340.0</ele><time>2026-05-01T13:36:25.978Z</time></trkpt><trkpt lat="40.0974483" lon="15.6296117"><ele>338.75</ele><time>2026-05-01T13:36:26.978Z</time></trkpt><trkpt lat="40.0975617" lon="15.6297033"><ele>337.5</ele><time>2026-05-01T13:36:27.978Z</time></trkpt><trkpt lat="40.09768" lon="15.6297917"><ele>336.25</ele><time>2026-05-01T13:36:28.979Z</time></trkpt><trkpt lat="40.0977933" lon="15.629905"><ele>335.0</ele><time>2026-05-01T13:36:29.978Z</time></trkpt><trkpt lat="40.0978917" lon="15.6300183"><ele>335.0</ele><time>2026-05-01T13:36:30.978Z</time></trkpt><trkpt lat="40.097985" lon="15.6301483"><ele>335.0</ele><time>2026-05-01T13:36:31.978Z</time></trkpt><trkpt lat="40.098065" lon="15.6302817"><ele>335.0</ele><time>2026-05-01T13:36:32.978Z</time></trkpt><trkpt lat="40.0981433" lon="15.6304283"><ele>335.0</ele><time>2026-05-01T13:36:33.978Z</time></trkpt><trkpt lat="40.0982183" lon="15.6305483"><ele>336.25</ele><time>2026-05-01T13:36:34.978Z</time></trkpt><trkpt lat="40.09831" lon="15.6306417"><ele>337.5</ele><time>2026-05-01T13:36:35.978Z</time></trkpt><trkpt lat="40.098415" lon="15.6307233"><ele>338.75</ele><time>2026-05-01T13:36:36.978Z</time></trkpt><trkpt lat="40.0985333" lon="15.63077"><ele>340.0</ele><time>2026-05-01T13:36:37.979Z</time></trkpt><trkpt lat="40.09866" lon="15.6308067"><ele>340.0</ele><time>2026-05-01T13:36:38.978Z</time></trkpt><trkpt lat="40.09877" lon="15.63083"><ele>340.0</ele><time>2026-05-01T13:36:39.978Z</time></trkpt><trkpt lat="40.098885" lon="15.63087"><ele>340.0</ele><time>2026-05-01T13:36:40.978Z</time></trkpt><trkpt lat="40.0989933" lon="15.6309417"><ele>340.0</ele><time>2026-05-01T13:36:41.979Z</time></trkpt><trkpt lat="40.099085" lon="15.6310317"><ele>341.5</ele><time>2026-05-01T13:36:42.978Z</time></trkpt><trkpt lat="40.0991667" lon="15.63113"><ele>343.0</ele><time>2026-05-01T13:36:43.979Z</time></trkpt><trkpt lat="40.09923" lon="15.6312567"><ele>344.5</ele><time>2026-05-01T13:36:44.978Z</time></trkpt><trkpt lat="40.09927" lon="15.6314083"><ele>346.0</ele><time>2026-05-01T13:36:45.978Z</time></trkpt><trkpt lat="40.0992917" lon="15.6315617"><ele>346.0</ele><time>2026-05-01T13:36:46.978Z</time></trkpt><trkpt lat="40.0993217" lon="15.6317"><ele>346.0</ele><time>2026-05-01T13:36:47.978Z</time></trkpt><trkpt lat="40.0993667" lon="15.6318217"><ele>346.0</ele><time>2026-05-01T13:36:48.978Z</time></trkpt><trkpt lat="40.09943" lon="15.6319283"><ele>346.0</ele><time>2026-05-01T13:36:49.978Z</time></trkpt><trkpt lat="40.0995083" lon="15.6320017"><ele>346.0</ele><time>2026-05-01T13:36:50.978Z</time></trkpt><trkpt lat="40.0995917" lon="15.6320383"><ele>346.0</ele><time>2026-05-01T13:36:51.978Z</time></trkpt><trkpt lat="40.0996767" lon="15.632065"><ele>346.0</ele><time>2026-05-01T13:36:52.979Z</time></trkpt><trkpt lat="40.0997533" lon="15.6321083"><ele>346.0</ele><time>2026-05-01T13:36:53.978Z</time></trkpt><trkpt lat="40.0998233" lon="15.63218"><ele>346.0</ele><time>2026-05-01T13:36:54.978Z</time></trkpt><trkpt lat="40.0998717" lon="15.6322717"><ele>346.0</ele><time>2026-05-01T13:36:55.979Z</time></trkpt><trkpt lat="40.0998983" lon="15.6323883"><ele>346.0</ele><time>2026-05-01T13:36:56.978Z</time></trkpt><trkpt lat="40.0999067" lon="15.63253"><ele>347.8</ele><time>2026-05-01T13:36:57.978Z</time></trkpt><trkpt lat="40.099935" lon="15.632665"><ele>349.6</ele><time>2026-05-01T13:36:58.978Z</time></trkpt><trkpt lat="40.0999867" lon="15.632785"><ele>351.4</ele><time>2026-05-01T13:36:59.978Z</time></trkpt><trkpt lat="40.10004" lon="15.6328983"><ele>353.2</ele><time>2026-05-01T13:37:00.978Z</time></trkpt><trkpt lat="40.1000883" lon="15.6330133"><ele>355.0</ele><time>2026-05-01T13:37:01.978Z</time></trkpt><trkpt lat="40.1001167" lon="15.6331367"><ele>355.2</ele><time>2026-05-01T13:37:02.979Z</time></trkpt><trkpt lat="40.1001" lon="15.63326"><ele>355.4</ele><time>2026-05-01T13:37:03.979Z</time></trkpt><trkpt lat="40.1000567" lon="15.633375"><ele>355.6</ele><time>2026-05-01T13:37:04.978Z</time></trkpt><trkpt lat="40.0999867" lon="15.6334783"><ele>355.8</ele><time>2026-05-01T13:37:05.979Z</time></trkpt><trkpt lat="40.0999133" lon="15.6335767"><ele>356.0</ele><time>2026-05-01T13:37:06.978Z</time></trkpt><trkpt lat="40.0998333" lon="15.6336633"><ele>356.0</ele><time>2026-05-01T13:37:07.978Z</time></trkpt><trkpt lat="40.0997733" lon="15.633755"><ele>356.0</ele><time>2026-05-01T13:37:08.978Z</time></trkpt><trkpt lat="40.09973" lon="15.633855"><ele>356.0</ele><time>2026-05-01T13:37:09.978Z</time></trkpt><trkpt lat="40.0997133" lon="15.6339667"><ele>356.0</ele><time>2026-05-01T13:37:10.979Z</time></trkpt><trkpt lat="40.0997117" lon="15.6340817"><ele>356.0</ele><time>2026-05-01T13:37:11.978Z</time></trkpt><trkpt lat="40.0997433" lon="15.6342"><ele>356.0</ele><time>2026-05-01T13:37:12.978Z</time></trkpt><trkpt lat="40.0997967" lon="15.63431"><ele>356.0</ele><time>2026-05-01T13:37:13.979Z</time></trkpt><trkpt lat="40.0998533" lon="15.6344217"><ele>356.0</ele><time>2026-05-01T13:37:14.979Z</time></trkpt><trkpt lat="40.0998967" lon="15.6345267"><ele>356.0</ele><time>2026-05-01T13:37:15.978Z</time></trkpt><trkpt lat="40.099925" lon="15.6346533"><ele>356.0</ele><time>2026-05-01T13:37:16.978Z</time></trkpt><trkpt lat="40.0999317" lon="15.63479"><ele>359.25</ele><time>2026-05-01T13:37:17.979Z</time></trkpt><trkpt lat="40.0999383" lon="15.6349533"><ele>362.5</ele><time>2026-05-01T13:37:18.978Z</time></trkpt><trkpt lat="40.0999567" lon="15.63511"><ele>365.75</ele><time>2026-05-01T13:37:19.978Z</time></trkpt><trkpt lat="40.0999783" lon="15.6352767"><ele>369.0</ele><time>2026-05-01T13:37:20.979Z</time></trkpt><trkpt lat="40.1000017" lon="15.6354333"><ele>371.25</ele><time>2026-05-01T13:37:21.979Z</time></trkpt><trkpt lat="40.10003" lon="15.6355983"><ele>373.5</ele><time>2026-05-01T13:37:22.978Z</time></trkpt><trkpt lat="40.10008" lon="15.6357433"><ele>375.75</ele><time>2026-05-01T13:37:23.979Z</time></trkpt><trkpt lat="40.1001517" lon="15.6358733"><ele>378.0</ele><time>2026-05-01T13:37:24.979Z</time></trkpt><trkpt lat="40.1002433" lon="15.6359917"><ele>378.0</ele><time>2026-05-01T13:37:25.979Z</time></trkpt><trkpt lat="40.1003283" lon="15.636095"><ele>378.0</ele><time>2026-05-01T13:37:26.979Z</time></trkpt><trkpt lat="40.1004383" lon="15.6361517"><ele>378.0</ele><time>2026-05-01T13:37:27.978Z</time></trkpt><trkpt lat="40.100565" lon="15.63616"><ele>378.0</ele><time>2026-05-01T13:37:28.978Z</time></trkpt><trkpt lat="40.1007017" lon="15.63611"><ele>376.3333333333333</ele><time>2026-05-01T13:37:29.978Z</time></trkpt><trkpt lat="40.1008217" lon="15.6360033"><ele>374.66666666666663</ele><time>2026-05-01T13:37:30.978Z</time></trkpt><trkpt lat="40.1009233" lon="15.635855"><ele>373.0</ele><time>2026-05-01T13:37:31.979Z</time></trkpt><trkpt lat="40.1010217" lon="15.6356983"><ele>373.0</ele><time>2026-05-01T13:37:32.979Z</time></trkpt><trkpt lat="40.10111" lon="15.63556"><ele>373.0</ele><time>2026-05-01T13:37:33.979Z</time></trkpt><trkpt lat="40.1011767" lon="15.6354217"><ele>373.0</ele><time>2026-05-01T13:37:34.978Z</time></trkpt><trkpt lat="40.1012467" lon="15.6353017"><ele>373.0</ele><time>2026-05-01T13:37:35.979Z</time></trkpt><trkpt lat="40.1013183" lon="15.6352067"><ele>371.4</ele><time>2026-05-01T13:37:36.978Z</time></trkpt><trkpt lat="40.101395" lon="15.6351467"><ele>369.79999999999995</ele><time>2026-05-01T13:37:37.979Z</time></trkpt><trkpt lat="40.1014867" lon="15.6351317"><ele>368.2</ele><time>2026-05-01T13:37:38.978Z</time></trkpt><trkpt lat="40.101575" lon="15.635165"><ele>366.6</ele><time>2026-05-01T13:37:39.978Z</time></trkpt><trkpt lat="40.101665" lon="15.635255"><ele>365.0</ele><time>2026-05-01T13:37:40.979Z</time></trkpt><trkpt lat="40.1017533" lon="15.6353567"><ele>369.75</ele><time>2026-05-01T13:37:41.978Z</time></trkpt><trkpt lat="40.1018167" lon="15.6354967"><ele>374.5</ele><time>2026-05-01T13:37:42.979Z</time></trkpt><trkpt lat="40.101865" lon="15.6356483"><ele>379.25</ele><time>2026-05-01T13:37:43.978Z</time></trkpt><trkpt lat="40.1019033" lon="15.6358017"><ele>384.0</ele><time>2026-05-01T13:37:44.978Z</time></trkpt><trkpt lat="40.1019233" lon="15.6359517"><ele>384.0</ele><time>2026-05-01T13:37:45.978Z</time></trkpt><trkpt lat="40.1019517" lon="15.6360817"><ele>384.0</ele><time>2026-05-01T13:37:46.979Z</time></trkpt><trkpt lat="40.1019967" lon="15.6361917"><ele>384.0</ele><time>2026-05-01T13:37:47.978Z</time></trkpt><trkpt lat="40.10206" lon="15.636295"><ele>384.0</ele><time>2026-05-01T13:37:48.978Z</time></trkpt><trkpt lat="40.102145" lon="15.636375"><ele>384.0</ele><time>2026-05-01T13:37:49.978Z</time></trkpt><trkpt lat="40.1022517" lon="15.6364217"><ele>386.25</ele><time>2026-05-01T13:37:50.979Z</time></trkpt><trkpt lat="40.1023767" lon="15.636445"><ele>388.5</ele><time>2026-05-01T13:37:51.978Z</time></trkpt><trkpt lat="40.1025033" lon="15.6364617"><ele>390.75</ele><time>2026-05-01T13:37:52.978Z</time></trkpt><trkpt lat="40.1026083" lon="15.636505"><ele>393.0</ele><time>2026-05-01T13:37:53.978Z</time></trkpt><trkpt lat="40.102705" lon="15.6365667"><ele>393.0</ele><time>2026-05-01T13:37:54.978Z</time></trkpt><trkpt lat="40.102775" lon="15.6366717"><ele>393.0</ele><time>2026-05-01T13:37:55.978Z</time></trkpt><trkpt lat="40.1028167" lon="15.6368033"><ele>393.0</ele><time>2026-05-01T13:37:56.978Z</time></trkpt><trkpt lat="40.1028417" lon="15.6369517"><ele>393.0</ele><time>2026-05-01T13:37:57.978Z</time></trkpt><trkpt lat="40.1028583" lon="15.6371017"><ele>393.0</ele><time>2026-05-01T13:37:58.979Z</time></trkpt><trkpt lat="40.1028717" lon="15.6372617"><ele>396.2</ele><time>2026-05-01T13:37:59.978Z</time></trkpt><trkpt lat="40.10288" lon="15.637415"><ele>399.4</ele><time>2026-05-01T13:38:00.978Z</time></trkpt><trkpt lat="40.1029067" lon="15.637555"><ele>402.59999999999997</ele><time>2026-05-01T13:38:01.979Z</time></trkpt><trkpt lat="40.1029617" lon="15.63767"><ele>405.79999999999995</ele><time>2026-05-01T13:38:02.979Z</time></trkpt><trkpt lat="40.1030283" lon="15.6377567"><ele>409.0</ele><time>2026-05-01T13:38:03.978Z</time></trkpt><trkpt lat="40.1031167" lon="15.6378167"><ele>411.6</ele><time>2026-05-01T13:38:04.978Z</time></trkpt><trkpt lat="40.1031983" lon="15.6378767"><ele>414.2</ele><time>2026-05-01T13:38:05.978Z</time></trkpt><trkpt lat="40.1032683" lon="15.6379433"><ele>416.8</ele><time>2026-05-01T13:38:06.978Z</time></trkpt><trkpt lat="40.103315" lon="15.6380333"><ele>419.40000000000003</ele><time>2026-05-01T13:38:07.978Z</time></trkpt><trkpt lat="40.10334" lon="15.6381417"><ele>422.0</ele><time>2026-05-01T13:38:08.978Z</time></trkpt><trkpt lat="40.103345" lon="15.6382867"><ele>418.25</ele><time>2026-05-01T13:38:09.978Z</time></trkpt><trkpt lat="40.10334" lon="15.63843"><ele>414.5</ele><time>2026-05-01T13:38:10.978Z</time></trkpt><trkpt lat="40.1033467" lon="15.63858"><ele>410.75</ele><time>2026-05-01T13:38:11.978Z</time></trkpt><trkpt lat="40.1033667" lon="15.6387383"><ele>407.0</ele><time>2026-05-01T13:38:12.978Z</time></trkpt><trkpt lat="40.10341" lon="15.638895"><ele>407.0</ele><time>2026-05-01T13:38:13.978Z</time></trkpt><trkpt lat="40.10346" lon="15.6390533"><ele>407.0</ele><time>2026-05-01T13:38:14.978Z</time></trkpt><trkpt lat="40.103505" lon="15.639195"><ele>407.0</ele><time>2026-05-01T13:38:15.979Z</time></trkpt><trkpt lat="40.1035367" lon="15.6393383"><ele>407.0</ele><time>2026-05-01T13:38:16.979Z</time></trkpt><trkpt lat="40.1035633" lon="15.6394817"><ele>409.25</ele><time>2026-05-01T13:38:17.978Z</time></trkpt><trkpt lat="40.103585" lon="15.6396317"><ele>411.5</ele><time>2026-05-01T13:38:18.978Z</time></trkpt><trkpt lat="40.1036267" lon="15.6397767"><ele>413.75</ele><time>2026-05-01T13:38:19.978Z</time></trkpt><trkpt lat="40.103675" lon="15.6399167"><ele>416.0</ele><time>2026-05-01T13:38:20.979Z</time></trkpt><trkpt lat="40.1037533" lon="15.6400583"><ele>416.0</ele><time>2026-05-01T13:38:21.978Z</time></trkpt><trkpt lat="40.1038367" lon="15.6402033"><ele>416.0</ele><time>2026-05-01T13:38:22.979Z</time></trkpt><trkpt lat="40.1039133" lon="15.6403317"><ele>416.0</ele><time>2026-05-01T13:38:23.978Z</time></trkpt><trkpt lat="40.103985" lon="15.6404583"><ele>416.0</ele><time>2026-05-01T13:38:24.978Z</time></trkpt><trkpt lat="40.1040617" lon="15.6405583"><ele>413.0</ele><time>2026-05-01T13:38:25.978Z</time></trkpt><trkpt lat="40.10415" lon="15.64063"><ele>410.0</ele><time>2026-05-01T13:38:26.978Z</time></trkpt><trkpt lat="40.1042517" lon="15.6406583"><ele>407.0</ele><time>2026-05-01T13:38:27.978Z</time></trkpt><trkpt lat="40.1043683" lon="15.6406433"><ele>404.0</ele><time>2026-05-01T13:38:28.978Z</time></trkpt><trkpt lat="40.1044967" lon="15.640605"><ele>404.0</ele><time>2026-05-01T13:38:29.978Z</time></trkpt><trkpt lat="40.1046233" lon="15.6405683"><ele>404.0</ele><time>2026-05-01T13:38:30.978Z</time></trkpt><trkpt lat="40.1047533" lon="15.64054"><ele>404.0</ele><time>2026-05-01T13:38:31.978Z</time></trkpt><trkpt lat="40.10487" lon="15.6405167"><ele>404.0</ele><time>2026-05-01T13:38:32.978Z</time></trkpt><trkpt lat="40.1049833" lon="15.6404983"><ele>405.2</ele><time>2026-05-01T13:38:33.978Z</time></trkpt><trkpt lat="40.10509" lon="15.6404883"><ele>406.4</ele><time>2026-05-01T13:38:34.979Z</time></trkpt><trkpt lat="40.1052017" lon="15.6404833"><ele>407.6</ele><time>2026-05-01T13:38:35.978Z</time></trkpt><trkpt lat="40.1053133" lon="15.6404867"><ele>408.8</ele><time>2026-05-01T13:38:36.979Z</time></trkpt><trkpt lat="40.1054317" lon="15.6404917"><ele>410.0</ele><time>2026-05-01T13:38:37.979Z</time></trkpt><trkpt lat="40.1055533" lon="15.6405117"><ele>410.0</ele><time>2026-05-01T13:38:38.978Z</time></trkpt><trkpt lat="40.10567" lon="15.64055"><ele>410.0</ele><time>2026-05-01T13:38:39.979Z</time></trkpt><trkpt lat="40.1057883" lon="15.6405917"><ele>410.0</ele><time>2026-05-01T13:38:40.978Z</time></trkpt><trkpt lat="40.105905" lon="15.6406483"><ele>410.0</ele><time>2026-05-01T13:38:41.978Z</time></trkpt><trkpt lat="40.1060217" lon="15.6407133"><ele>410.4</ele><time>2026-05-01T13:38:42.978Z</time></trkpt><trkpt lat="40.1061267" lon="15.6408"><ele>410.8</ele><time>2026-05-01T13:38:43.979Z</time></trkpt><trkpt lat="40.10622" lon="15.6409033"><ele>411.20000000000005</ele><time>2026-05-01T13:38:44.979Z</time></trkpt><trkpt lat="40.1062967" lon="15.6410083"><ele>411.6</ele><time>2026-05-01T13:38:45.978Z</time></trkpt><trkpt lat="40.1063517" lon="15.6410967"><ele>412.0</ele><time>2026-05-01T13:38:46.979Z</time></trkpt><trkpt lat="40.1064117" lon="15.64115"><ele>412.0</ele><time>2026-05-01T13:38:47.978Z</time></trkpt><trkpt lat="40.1065383" lon="15.6411167"><ele>412.0</ele><time>2026-05-01T13:38:49.978Z</time></trkpt><trkpt lat="40.1065933" lon="15.6410167"><ele>412.0</ele><time>2026-05-01T13:38:50.978Z</time></trkpt><trkpt lat="40.1066083" lon="15.6408833"><ele>412.0</ele><time>2026-05-01T13:38:51.978Z</time></trkpt><trkpt lat="40.1066117" lon="15.6407567"><ele>412.0</ele><time>2026-05-01T13:38:52.978Z</time></trkpt><trkpt lat="40.1066367" lon="15.640655"><ele>411.8</ele><time>2026-05-01T13:38:53.978Z</time></trkpt><trkpt lat="40.1066817" lon="15.6405717"><ele>411.6</ele><time>2026-05-01T13:38:54.979Z</time></trkpt><trkpt lat="40.106755" lon="15.6405217"><ele>411.40000000000003</ele><time>2026-05-01T13:38:55.979Z</time></trkpt><trkpt lat="40.1068467" lon="15.6405167"><ele>411.20000000000005</ele><time>2026-05-01T13:38:56.978Z</time></trkpt><trkpt lat="40.1069517" lon="15.6405467"><ele>411.0</ele><time>2026-05-01T13:38:57.978Z</time></trkpt><trkpt lat="40.1070567" lon="15.6406117"><ele>411.0</ele><time>2026-05-01T13:38:58.978Z</time></trkpt><trkpt lat="40.1071417" lon="15.64073"><ele>411.0</ele><time>2026-05-01T13:38:59.978Z</time></trkpt><trkpt lat="40.10722" lon="15.6408667"><ele>411.0</ele><time>2026-05-01T13:39:00.978Z</time></trkpt><trkpt lat="40.1072883" lon="15.6410117"><ele>411.0</ele><time>2026-05-01T13:39:01.978Z</time></trkpt><trkpt lat="40.10735" lon="15.6411483"><ele>412.0</ele><time>2026-05-01T13:39:02.978Z</time></trkpt><trkpt lat="40.1074067" lon="15.64128"><ele>413.0</ele><time>2026-05-01T13:39:03.979Z</time></trkpt><trkpt lat="40.1074483" lon="15.641405"><ele>414.0</ele><time>2026-05-01T13:39:04.978Z</time></trkpt><trkpt lat="40.10748" lon="15.64153"><ele>415.0</ele><time>2026-05-01T13:39:05.979Z</time></trkpt><trkpt lat="40.1075233" lon="15.6416267"><ele>416.0</ele><time>2026-05-01T13:39:06.978Z</time></trkpt><trkpt lat="40.10759" lon="15.64168"><ele>416.0</ele><time>2026-05-01T13:39:07.979Z</time></trkpt><trkpt lat="40.1076767" lon="15.6416833"><ele>416.0</ele><time>2026-05-01T13:39:08.978Z</time></trkpt><trkpt lat="40.1077717" lon="15.64164"><ele>416.0</ele><time>2026-05-01T13:39:09.979Z</time></trkpt><trkpt lat="40.1078667" lon="15.6415467"><ele>416.0</ele><time>2026-05-01T13:39:10.979Z</time></trkpt><trkpt lat="40.1079433" lon="15.6414267"><ele>416.0</ele><time>2026-05-01T13:39:11.978Z</time></trkpt><trkpt lat="40.10802" lon="15.641335"><ele>416.0</ele><time>2026-05-01T13:39:12.978Z</time></trkpt><trkpt lat="40.108105" lon="15.64128"><ele>416.0</ele><time>2026-05-01T13:39:13.978Z</time></trkpt><trkpt lat="40.1082017" lon="15.64125"><ele>416.0</ele><time>2026-05-01T13:39:14.979Z</time></trkpt><trkpt lat="40.1083" lon="15.6412483"><ele>416.0</ele><time>2026-05-01T13:39:15.979Z</time></trkpt><trkpt lat="40.1083867" lon="15.6412717"><ele>416.0</ele><time>2026-05-01T13:39:16.979Z</time></trkpt><trkpt lat="40.10847" lon="15.64131"><ele>415.75</ele><time>2026-05-01T13:39:17.978Z</time></trkpt><trkpt lat="40.108555" lon="15.6413633"><ele>415.5</ele><time>2026-05-01T13:39:18.978Z</time></trkpt><trkpt lat="40.1086367" lon="15.64144"><ele>415.25</ele><time>2026-05-01T13:39:19.978Z</time></trkpt><trkpt lat="40.1087783" lon="15.64165"><ele>415.0</ele><time>2026-05-01T13:39:21.978Z</time></trkpt><trkpt lat="40.1088367" lon="15.6417767"><ele>415.0</ele><time>2026-05-01T13:39:22.979Z</time></trkpt><trkpt lat="40.1088883" lon="15.6418983"><ele>415.0</ele><time>2026-05-01T13:39:23.978Z</time></trkpt><trkpt lat="40.1089467" lon="15.6420133"><ele>415.0</ele><time>2026-05-01T13:39:24.979Z</time></trkpt><trkpt lat="40.10902" lon="15.6421133"><ele>415.0</ele><time>2026-05-01T13:39:25.979Z</time></trkpt><trkpt lat="40.10912" lon="15.6421783"><ele>415.0</ele><time>2026-05-01T13:39:26.978Z</time></trkpt><trkpt lat="40.10923" lon="15.642225"><ele>416.6</ele><time>2026-05-01T13:39:27.979Z</time></trkpt><trkpt lat="40.10934" lon="15.64228"><ele>418.2</ele><time>2026-05-01T13:39:28.979Z</time></trkpt><trkpt lat="40.1094433" lon="15.6423633"><ele>419.79999999999995</ele><time>2026-05-01T13:39:29.979Z</time></trkpt><trkpt lat="40.1095233" lon="15.6424367"><ele>421.4</ele><time>2026-05-01T13:39:30.978Z</time></trkpt><trkpt lat="40.1096017" lon="15.64248"><ele>423.0</ele><time>2026-05-01T13:39:31.978Z</time></trkpt><trkpt lat="40.10969" lon="15.6424833"><ele>423.0</ele><time>2026-05-01T13:39:32.978Z</time></trkpt><trkpt lat="40.1097883" lon="15.6424617"><ele>423.0</ele><time>2026-05-01T13:39:33.978Z</time></trkpt><trkpt lat="40.1099017" lon="15.642415"><ele>423.0</ele><time>2026-05-01T13:39:34.978Z</time></trkpt><trkpt lat="40.1100183" lon="15.6423483"><ele>423.0</ele><time>2026-05-01T13:39:35.978Z</time></trkpt><trkpt lat="40.1101267" lon="15.6422817"><ele>424.0</ele><time>2026-05-01T13:39:36.979Z</time></trkpt><trkpt lat="40.1102267" lon="15.6422217"><ele>425.0</ele><time>2026-05-01T13:39:37.978Z</time></trkpt><trkpt lat="40.1103233" lon="15.6421517"><ele>426.0</ele><time>2026-05-01T13:39:38.979Z</time></trkpt><trkpt lat="40.1104233" lon="15.64208"><ele>427.0</ele><time>2026-05-01T13:39:39.979Z</time></trkpt><trkpt lat="40.1105067" lon="15.6419717"><ele>422.25</ele><time>2026-05-01T13:39:40.979Z</time></trkpt><trkpt lat="40.110565" lon="15.64183"><ele>417.5</ele><time>2026-05-01T13:39:41.978Z</time></trkpt><trkpt lat="40.11059" lon="15.6416467"><ele>412.75</ele><time>2026-05-01T13:39:42.978Z</time></trkpt><trkpt lat="40.1105933" lon="15.6414483"><ele>408.0</ele><time>2026-05-01T13:39:43.978Z</time></trkpt><trkpt lat="40.1105983" lon="15.6412517"><ele>405.75</ele><time>2026-05-01T13:39:44.979Z</time></trkpt><trkpt lat="40.1106133" lon="15.6410683"><ele>403.5</ele><time>2026-05-01T13:39:45.978Z</time></trkpt><trkpt lat="40.11062" lon="15.6408817"><ele>401.25</ele><time>2026-05-01T13:39:46.978Z</time></trkpt><trkpt lat="40.1106267" lon="15.6407017"><ele>399.0</ele><time>2026-05-01T13:39:47.978Z</time></trkpt><trkpt lat="40.1106417" lon="15.6405467"><ele>399.0</ele><time>2026-05-01T13:39:48.978Z</time></trkpt><trkpt lat="40.1106667" lon="15.6404117"><ele>399.0</ele><time>2026-05-01T13:39:49.978Z</time></trkpt><trkpt lat="40.1107017" lon="15.6402917"><ele>399.0</ele><time>2026-05-01T13:39:50.978Z</time></trkpt><trkpt lat="40.1107433" lon="15.640165"><ele>399.0</ele><time>2026-05-01T13:39:51.978Z</time></trkpt><trkpt lat="40.1108183" lon="15.64005"><ele>399.0</ele><time>2026-05-01T13:39:52.978Z</time></trkpt><trkpt lat="40.1109117" lon="15.63994"><ele>401.75</ele><time>2026-05-01T13:39:53.978Z</time></trkpt><trkpt lat="40.1110317" lon="15.6398517"><ele>404.5</ele><time>2026-05-01T13:39:54.978Z</time></trkpt><trkpt lat="40.1111467" lon="15.6397633"><ele>407.25</ele><time>2026-05-01T13:39:55.978Z</time></trkpt><trkpt lat="40.11127" lon="15.639675"><ele>410.0</ele><time>2026-05-01T13:39:56.978Z</time></trkpt><trkpt lat="40.1114017" lon="15.6395817"><ele>410.0</ele><time>2026-05-01T13:39:57.978Z</time></trkpt><trkpt lat="40.111535" lon="15.6395"><ele>410.0</ele><time>2026-05-01T13:39:58.978Z</time></trkpt><trkpt lat="40.1116833" lon="15.639415"><ele>410.0</ele><time>2026-05-01T13:39:59.979Z</time></trkpt><trkpt lat="40.11183" lon="15.639325"><ele>410.3333333333333</ele><time>2026-05-01T13:40:00.978Z</time></trkpt><trkpt lat="40.1119867" lon="15.63923"><ele>410.66666666666663</ele><time>2026-05-01T13:40:01.978Z</time></trkpt><trkpt lat="40.1121333" lon="15.6391617"><ele>411.0</ele><time>2026-05-01T13:40:02.979Z</time></trkpt><trkpt lat="40.1122717" lon="15.6390783"><ele>416.25</ele><time>2026-05-01T13:40:03.978Z</time></trkpt><trkpt lat="40.1124083" lon="15.6390133"><ele>421.5</ele><time>2026-05-01T13:40:04.979Z</time></trkpt><trkpt lat="40.1125333" lon="15.6389317"><ele>426.75</ele><time>2026-05-01T13:40:05.978Z</time></trkpt><trkpt lat="40.1126467" lon="15.6388567"><ele>432.0</ele><time>2026-05-01T13:40:06.979Z</time></trkpt><trkpt lat="40.1127483" lon="15.6387867"><ele>432.0</ele><time>2026-05-01T13:40:07.978Z</time></trkpt><trkpt lat="40.112835" lon="15.6387383"><ele>432.0</ele><time>2026-05-01T13:40:08.979Z</time></trkpt><trkpt lat="40.1128883" lon="15.63867"><ele>432.0</ele><time>2026-05-01T13:40:09.978Z</time></trkpt><trkpt lat="40.1129117" lon="15.6385917"><ele>432.0</ele><time>2026-05-01T13:40:10.978Z</time></trkpt><trkpt lat="40.1128817" lon="15.6384633"><ele>432.0</ele><time>2026-05-01T13:40:12.978Z</time></trkpt><trkpt lat="40.1128183" lon="15.63842"><ele>432.0</ele><time>2026-05-01T13:40:13.978Z</time></trkpt><trkpt lat="40.1127183" lon="15.6384"><ele>430.6</ele><time>2026-05-01T13:40:14.978Z</time></trkpt><trkpt lat="40.1125917" lon="15.6384067"><ele>429.20000000000005</ele><time>2026-05-01T13:40:15.978Z</time></trkpt><trkpt lat="40.1124717" lon="15.6384333"><ele>427.8</ele><time>2026-05-01T13:40:16.978Z</time></trkpt><trkpt lat="40.11237" lon="15.6384467"><ele>426.4</ele><time>2026-05-01T13:40:17.979Z</time></trkpt><trkpt lat="40.1122783" lon="15.6384117"><ele>425.0</ele><time>2026-05-01T13:40:18.978Z</time></trkpt><trkpt lat="40.1122033" lon="15.638355"><ele>425.2</ele><time>2026-05-01T13:40:19.979Z</time></trkpt><trkpt lat="40.1121467" lon="15.6382733"><ele>425.4</ele><time>2026-05-01T13:40:20.978Z</time></trkpt><trkpt lat="40.1120983" lon="15.638165"><ele>425.6</ele><time>2026-05-01T13:40:21.978Z</time></trkpt><trkpt lat="40.11205" lon="15.638045"><ele>425.8</ele><time>2026-05-01T13:40:22.978Z</time></trkpt><trkpt lat="40.111995" lon="15.637925"><ele>426.0</ele><time>2026-05-01T13:40:23.978Z</time></trkpt><trkpt lat="40.1119333" lon="15.6377967"><ele>426.0</ele><time>2026-05-01T13:40:24.979Z</time></trkpt><trkpt lat="40.1118667" lon="15.637675"><ele>426.0</ele><time>2026-05-01T13:40:25.978Z</time></trkpt><trkpt lat="40.1117783" lon="15.6375633"><ele>426.0</ele><time>2026-05-01T13:40:26.979Z</time></trkpt><trkpt lat="40.1116717" lon="15.6374717"><ele>426.0</ele><time>2026-05-01T13:40:27.979Z</time></trkpt><trkpt lat="40.1115633" lon="15.637385"><ele>426.0</ele><time>2026-05-01T13:40:28.978Z</time></trkpt><trkpt lat="40.111445" lon="15.6373167"><ele>426.0</ele><time>2026-05-01T13:40:29.979Z</time></trkpt><trkpt lat="40.11133" lon="15.6372633"><ele>426.0</ele><time>2026-05-01T13:40:30.978Z</time></trkpt><trkpt lat="40.11123" lon="15.6372033"><ele>426.0</ele><time>2026-05-01T13:40:31.979Z</time></trkpt><trkpt lat="40.111135" lon="15.6371833"><ele>426.0</ele><time>2026-05-01T13:40:32.979Z</time></trkpt><trkpt lat="40.1110383" lon="15.6371817"><ele>426.0</ele><time>2026-05-01T13:40:33.979Z</time></trkpt><trkpt lat="40.1109383" lon="15.6371783"><ele>426.0</ele><time>2026-05-01T13:40:34.978Z</time></trkpt><trkpt lat="40.110835" lon="15.6371917"><ele>426.0</ele><time>2026-05-01T13:40:35.978Z</time></trkpt><trkpt lat="40.1107483" lon="15.6372133"><ele>426.0</ele><time>2026-05-01T13:40:36.978Z</time></trkpt><trkpt lat="40.1106717" lon="15.63724"><ele>425.8333333333333</ele><time>2026-05-01T13:40:37.979Z</time></trkpt><trkpt lat="40.1105983" lon="15.6372633"><ele>425.66666666666663</ele><time>2026-05-01T13:40:38.979Z</time></trkpt><trkpt lat="40.1105283" lon="15.63726"><ele>425.5</ele><time>2026-05-01T13:40:39.978Z</time></trkpt><trkpt lat="40.1104467" lon="15.6372"><ele>425.3333333333333</ele><time>2026-05-01T13:40:41.978Z</time></trkpt><trkpt lat="40.1104817" lon="15.6370667"><ele>425.16666666666663</ele><time>2026-05-01T13:40:43.978Z</time></trkpt><trkpt lat="40.11053" lon="15.6369817"><ele>425.0</ele><time>2026-05-01T13:40:44.978Z</time></trkpt><trkpt lat="40.1105867" lon="15.6368833"><ele>424.8333333333333</ele><time>2026-05-01T13:40:45.978Z</time></trkpt><trkpt lat="40.1106267" lon="15.63679"><ele>424.66666666666663</ele><time>2026-05-01T13:40:46.978Z</time></trkpt><trkpt lat="40.110665" lon="15.6366967"><ele>424.5</ele><time>2026-05-01T13:40:47.978Z</time></trkpt><trkpt lat="40.1107" lon="15.6366033"><ele>424.33333333333337</ele><time>2026-05-01T13:40:48.978Z</time></trkpt><trkpt lat="40.1107333" lon="15.63651"><ele>424.1666666666667</ele><time>2026-05-01T13:40:49.978Z</time></trkpt><trkpt lat="40.1107617" lon="15.6364167"><ele>424.0</ele><time>2026-05-01T13:40:50.978Z</time></trkpt><trkpt lat="40.1107833" lon="15.63632"><ele>425.1666666666667</ele><time>2026-05-01T13:40:51.978Z</time></trkpt><trkpt lat="40.1108" lon="15.6362367"><ele>426.33333333333337</ele><time>2026-05-01T13:40:52.979Z</time></trkpt><trkpt lat="40.1108417" lon="15.6360833"><ele>427.5</ele><time>2026-05-01T13:40:54.978Z</time></trkpt><trkpt lat="40.110865" lon="15.6360033"><ele>428.66666666666663</ele><time>2026-05-01T13:40:55.979Z</time></trkpt><trkpt lat="40.11089" lon="15.6359233"><ele>429.8333333333333</ele><time>2026-05-01T13:40:56.978Z</time></trkpt><trkpt lat="40.1109183" lon="15.6358467"><ele>431.0</ele><time>2026-05-01T13:40:57.978Z</time></trkpt><trkpt lat="40.1109517" lon="15.6357733"><ele>430.99999999999994</ele><time>2026-05-01T13:40:58.978Z</time></trkpt><trkpt lat="40.1110017" lon="15.6356983"><ele>431.0</ele><time>2026-05-01T13:40:59.978Z</time></trkpt><trkpt lat="40.1110633" lon="15.6356367"><ele>431.0</ele><time>2026-05-01T13:41:00.979Z</time></trkpt><trkpt lat="40.111135" lon="15.635575"><ele>431.0</ele><time>2026-05-01T13:41:01.978Z</time></trkpt><trkpt lat="40.1112067" lon="15.6355067"><ele>430.99999999999994</ele><time>2026-05-01T13:41:02.978Z</time></trkpt><trkpt lat="40.1112767" lon="15.63545"><ele>431.0</ele><time>2026-05-01T13:41:03.979Z</time></trkpt><trkpt lat="40.111345" lon="15.6353967"><ele>430.99999999999994</ele><time>2026-05-01T13:41:04.979Z</time></trkpt><trkpt lat="40.1114017" lon="15.6353167"><ele>431.0</ele><time>2026-05-01T13:41:05.978Z</time></trkpt><trkpt lat="40.1114467" lon="15.6352333"><ele>431.0</ele><time>2026-05-01T13:41:06.978Z</time></trkpt><trkpt lat="40.1114733" lon="15.63511"><ele>431.0</ele><time>2026-05-01T13:41:07.978Z</time></trkpt><trkpt lat="40.1114733" lon="15.635"><ele>430.99999999999994</ele><time>2026-05-01T13:41:08.979Z</time></trkpt><trkpt lat="40.1114567" lon="15.6348833"><ele>431.0</ele><time>2026-05-01T13:41:09.978Z</time></trkpt><trkpt lat="40.111415" lon="15.634785"><ele>431.20000000000005</ele><time>2026-05-01T13:41:10.979Z</time></trkpt><trkpt lat="40.1113617" lon="15.6346867"><ele>431.40000000000003</ele><time>2026-05-01T13:41:11.978Z</time></trkpt><trkpt lat="40.11131" lon="15.6345867"><ele>431.6</ele><time>2026-05-01T13:41:12.978Z</time></trkpt><trkpt lat="40.111225" lon="15.6344867"><ele>431.8</ele><time>2026-05-01T13:41:13.979Z</time></trkpt><trkpt lat="40.1111367" lon="15.63439"><ele>432.0</ele><time>2026-05-01T13:41:14.979Z</time></trkpt><trkpt lat="40.1110667" lon="15.6343017"><ele>432.0</ele><time>2026-05-01T13:41:15.979Z</time></trkpt><trkpt lat="40.111" lon="15.63421"><ele>432.0</ele><time>2026-05-01T13:41:16.978Z</time></trkpt><trkpt lat="40.1109483" lon="15.6341167"><ele>432.0</ele><time>2026-05-01T13:41:17.978Z</time></trkpt><trkpt lat="40.11091" lon="15.6340117"><ele>432.0</ele><time>2026-05-01T13:41:18.978Z</time></trkpt><trkpt lat="40.1108933" lon="15.6339083"><ele>432.0</ele><time>2026-05-01T13:41:19.978Z</time></trkpt><trkpt lat="40.1108933" lon="15.6338117"><ele>432.0</ele><time>2026-05-01T13:41:20.978Z</time></trkpt><trkpt lat="40.110915" lon="15.63371"><ele>431.40000000000003</ele><time>2026-05-01T13:41:21.979Z</time></trkpt><trkpt lat="40.110965" lon="15.63363"><ele>430.80000000000007</ele><time>2026-05-01T13:41:22.978Z</time></trkpt><trkpt lat="40.11103" lon="15.6335483"><ele>430.2</ele><time>2026-05-01T13:41:23.978Z</time></trkpt><trkpt lat="40.1111067" lon="15.6334817"><ele>429.6</ele><time>2026-05-01T13:41:24.978Z</time></trkpt><trkpt lat="40.1112017" lon="15.6334267"><ele>429.0</ele><time>2026-05-01T13:41:25.979Z</time></trkpt><trkpt lat="40.1112933" lon="15.633365"><ele>429.0</ele><time>2026-05-01T13:41:26.978Z</time></trkpt><trkpt lat="40.111395" lon="15.6333217"><ele>429.0</ele><time>2026-05-01T13:41:27.978Z</time></trkpt><trkpt lat="40.1114967" lon="15.6332717"><ele>429.0</ele><time>2026-05-01T13:41:28.978Z</time></trkpt><trkpt lat="40.111615" lon="15.6332217"><ele>429.0</ele><time>2026-05-01T13:41:29.978Z</time></trkpt><trkpt lat="40.1117283" lon="15.6331517"><ele>429.0</ele><time>2026-05-01T13:41:30.978Z</time></trkpt><trkpt lat="40.111835" lon="15.6330633"><ele>429.0</ele><time>2026-05-01T13:41:31.978Z</time></trkpt><trkpt lat="40.111935" lon="15.63294"><ele>429.0</ele><time>2026-05-01T13:41:32.979Z</time></trkpt><trkpt lat="40.1120133" lon="15.632815"><ele>429.0</ele><time>2026-05-01T13:41:33.979Z</time></trkpt><trkpt lat="40.1120867" lon="15.6327017"><ele>429.0</ele><time>2026-05-01T13:41:34.978Z</time></trkpt><trkpt lat="40.1121517" lon="15.6325883"><ele>429.0</ele><time>2026-05-01T13:41:35.978Z</time></trkpt><trkpt lat="40.112215" lon="15.6324867"><ele>429.0</ele><time>2026-05-01T13:41:36.979Z</time></trkpt><trkpt lat="40.1122867" lon="15.6324167"><ele>429.0</ele><time>2026-05-01T13:41:37.979Z</time></trkpt><trkpt lat="40.1123683" lon="15.63237"><ele>429.0</ele><time>2026-05-01T13:41:38.979Z</time></trkpt><trkpt lat="40.1124483" lon="15.63234"><ele>432.3333333333333</ele><time>2026-05-01T13:41:39.979Z</time></trkpt><trkpt lat="40.1125183" lon="15.6323083"><ele>435.66666666666663</ele><time>2026-05-01T13:41:40.978Z</time></trkpt><trkpt lat="40.11257" lon="15.6322433"><ele>439.0</ele><time>2026-05-01T13:41:41.979Z</time></trkpt><trkpt lat="40.1125967" lon="15.6321417"><ele>442.3333333333333</ele><time>2026-05-01T13:41:42.978Z</time></trkpt><trkpt lat="40.1125917" lon="15.632025"><ele>445.66666666666663</ele><time>2026-05-01T13:41:43.978Z</time></trkpt><trkpt lat="40.1125567" lon="15.6319083"><ele>449.0</ele><time>2026-05-01T13:41:44.978Z</time></trkpt><trkpt lat="40.112485" lon="15.631805"><ele>445.79999999999995</ele><time>2026-05-01T13:41:45.979Z</time></trkpt><trkpt lat="40.1124" lon="15.631715"><ele>442.59999999999997</ele><time>2026-05-01T13:41:46.979Z</time></trkpt><trkpt lat="40.1123183" lon="15.6316267"><ele>439.4</ele><time>2026-05-01T13:41:47.979Z</time></trkpt><trkpt lat="40.1122283" lon="15.631525"><ele>436.2</ele><time>2026-05-01T13:41:48.978Z</time></trkpt><trkpt lat="40.112155" lon="15.6314183"><ele>433.0</ele><time>2026-05-01T13:41:49.978Z</time></trkpt><trkpt lat="40.1120783" lon="15.6313117"><ele>433.0</ele><time>2026-05-01T13:41:50.978Z</time></trkpt><trkpt lat="40.1120083" lon="15.6312083"><ele>432.99999999999994</ele><time>2026-05-01T13:41:51.978Z</time></trkpt><trkpt lat="40.1119467" lon="15.6311"><ele>432.99999999999994</ele><time>2026-05-01T13:41:52.979Z</time></trkpt><trkpt lat="40.11191" lon="15.630985"><ele>433.0</ele><time>2026-05-01T13:41:53.979Z</time></trkpt><trkpt lat="40.1118983" lon="15.6308617"><ele>433.0</ele><time>2026-05-01T13:41:54.979Z</time></trkpt><trkpt lat="40.111905" lon="15.63072"><ele>435.75</ele><time>2026-05-01T13:41:55.978Z</time></trkpt><trkpt lat="40.1119233" lon="15.630575"><ele>438.5</ele><time>2026-05-01T13:41:56.978Z</time></trkpt><trkpt lat="40.1119433" lon="15.6304033"><ele>441.25</ele><time>2026-05-01T13:41:57.978Z</time></trkpt><trkpt lat="40.1119667" lon="15.6302167"><ele>444.0</ele><time>2026-05-01T13:41:58.978Z</time></trkpt><trkpt lat="40.1119867" lon="15.6300367"><ele>444.0</ele><time>2026-05-01T13:41:59.978Z</time></trkpt><trkpt lat="40.11202" lon="15.6298583"><ele>444.0</ele><time>2026-05-01T13:42:00.978Z</time></trkpt><trkpt lat="40.1120633" lon="15.6296833"><ele>444.0</ele><time>2026-05-01T13:42:01.979Z</time></trkpt><trkpt lat="40.11211" lon="15.6295183"><ele>444.0</ele><time>2026-05-01T13:42:02.978Z</time></trkpt><trkpt lat="40.112165" lon="15.6293633"><ele>444.25</ele><time>2026-05-01T13:42:03.978Z</time></trkpt><trkpt lat="40.1122017" lon="15.62922"><ele>444.5</ele><time>2026-05-01T13:42:04.978Z</time></trkpt><trkpt lat="40.1122317" lon="15.6290633"><ele>444.75</ele><time>2026-05-01T13:42:05.978Z</time></trkpt><trkpt lat="40.1122383" lon="15.6289017"><ele>445.0</ele><time>2026-05-01T13:42:06.978Z</time></trkpt><trkpt lat="40.1122333" lon="15.6287433"><ele>446.5</ele><time>2026-05-01T13:42:07.979Z</time></trkpt><trkpt lat="40.11221" lon="15.628585"><ele>448.0</ele><time>2026-05-01T13:42:08.978Z</time></trkpt><trkpt lat="40.1121867" lon="15.6284217"><ele>449.5</ele><time>2026-05-01T13:42:09.978Z</time></trkpt><trkpt lat="40.1121617" lon="15.6282717"><ele>451.0</ele><time>2026-05-01T13:42:10.978Z</time></trkpt><trkpt lat="40.1121367" lon="15.6281217"><ele>451.0</ele><time>2026-05-01T13:42:11.978Z</time></trkpt><trkpt lat="40.112105" lon="15.62798"><ele>451.0</ele><time>2026-05-01T13:42:12.978Z</time></trkpt><trkpt lat="40.1120583" lon="15.62785"><ele>451.0</ele><time>2026-05-01T13:42:13.978Z</time></trkpt><trkpt lat="40.11197" lon="15.6277383"><ele>451.0</ele><time>2026-05-01T13:42:14.979Z</time></trkpt><trkpt lat="40.1118783" lon="15.627645"><ele>453.25</ele><time>2026-05-01T13:42:15.978Z</time></trkpt><trkpt lat="40.1117733" lon="15.6275583"><ele>455.5</ele><time>2026-05-01T13:42:16.978Z</time></trkpt><trkpt lat="40.1116583" lon="15.627485"><ele>457.75</ele><time>2026-05-01T13:42:17.978Z</time></trkpt><trkpt lat="40.1115517" lon="15.6274083"><ele>460.0</ele><time>2026-05-01T13:42:18.979Z</time></trkpt><trkpt lat="40.1114333" lon="15.62735"><ele>460.0</ele><time>2026-05-01T13:42:19.979Z</time></trkpt><trkpt lat="40.1113117" lon="15.6273233"><ele>460.0</ele><time>2026-05-01T13:42:20.978Z</time></trkpt><trkpt lat="40.1111883" lon="15.6272933"><ele>460.0</ele><time>2026-05-01T13:42:21.978Z</time></trkpt><trkpt lat="40.1110717" lon="15.6272717"><ele>460.0</ele><time>2026-05-01T13:42:22.978Z</time></trkpt><trkpt lat="40.1109683" lon="15.6272433"><ele>460.00000000000006</ele><time>2026-05-01T13:42:23.978Z</time></trkpt><trkpt lat="40.1108767" lon="15.6272117"><ele>460.0</ele><time>2026-05-01T13:42:24.978Z</time></trkpt><trkpt lat="40.1108033" lon="15.6271533"><ele>460.0</ele><time>2026-05-01T13:42:25.978Z</time></trkpt><trkpt lat="40.1107517" lon="15.627065"><ele>460.0</ele><time>2026-05-01T13:42:26.978Z</time></trkpt><trkpt lat="40.110725" lon="15.6269483"><ele>460.00000000000006</ele><time>2026-05-01T13:42:27.978Z</time></trkpt><trkpt lat="40.11073" lon="15.6268333"><ele>460.0</ele><time>2026-05-01T13:42:28.979Z</time></trkpt><trkpt lat="40.1107533" lon="15.6267233"><ele>461.4</ele><time>2026-05-01T13:42:29.978Z</time></trkpt><trkpt lat="40.1108117" lon="15.6266267"><ele>462.8</ele><time>2026-05-01T13:42:30.979Z</time></trkpt><trkpt lat="40.1108883" lon="15.6265667"><ele>464.20000000000005</ele><time>2026-05-01T13:42:31.978Z</time></trkpt><trkpt lat="40.11098" lon="15.6265467"><ele>465.6</ele><time>2026-05-01T13:42:32.978Z</time></trkpt><trkpt lat="40.11109" lon="15.6265783"><ele>467.0</ele><time>2026-05-01T13:42:33.978Z</time></trkpt><trkpt lat="40.1112283" lon="15.6266617"><ele>467.0</ele><time>2026-05-01T13:42:34.979Z</time></trkpt><trkpt lat="40.1113783" lon="15.6267467"><ele>467.0</ele><time>2026-05-01T13:42:35.978Z</time></trkpt><trkpt lat="40.11153" lon="15.6267967"><ele>467.0</ele><time>2026-05-01T13:42:36.979Z</time></trkpt><trkpt lat="40.1116717" lon="15.6267883"><ele>469.25</ele><time>2026-05-01T13:42:37.978Z</time></trkpt><trkpt lat="40.1118083" lon="15.6267567"><ele>471.5</ele><time>2026-05-01T13:42:38.979Z</time></trkpt><trkpt lat="40.1119383" lon="15.6267167"><ele>473.75</ele><time>2026-05-01T13:42:39.978Z</time></trkpt><trkpt lat="40.11205" lon="15.6267067"><ele>476.0</ele><time>2026-05-01T13:42:40.979Z</time></trkpt><trkpt lat="40.11217" lon="15.6267233"><ele>476.0</ele><time>2026-05-01T13:42:41.979Z</time></trkpt><trkpt lat="40.1122867" lon="15.6267783"><ele>476.0</ele><time>2026-05-01T13:42:42.978Z</time></trkpt><trkpt lat="40.1123833" lon="15.62685"><ele>476.0</ele><time>2026-05-01T13:42:43.978Z</time></trkpt><trkpt lat="40.1124767" lon="15.62694"><ele>476.0</ele><time>2026-05-01T13:42:44.978Z</time></trkpt><trkpt lat="40.112565" lon="15.627035"><ele>478.25</ele><time>2026-05-01T13:42:45.978Z</time></trkpt><trkpt lat="40.11265" lon="15.62715"><ele>480.5</ele><time>2026-05-01T13:42:46.978Z</time></trkpt><trkpt lat="40.1127283" lon="15.6272667"><ele>482.75</ele><time>2026-05-01T13:42:47.978Z</time></trkpt><trkpt lat="40.112815" lon="15.6273683"><ele>485.0</ele><time>2026-05-01T13:42:48.979Z</time></trkpt><trkpt lat="40.1129283" lon="15.6274417"><ele>485.0</ele><time>2026-05-01T13:42:49.978Z</time></trkpt><trkpt lat="40.1130517" lon="15.627505"><ele>485.0</ele><time>2026-05-01T13:42:50.978Z</time></trkpt><trkpt lat="40.1131883" lon="15.6275617"><ele>485.0</ele><time>2026-05-01T13:42:51.978Z</time></trkpt><trkpt lat="40.1133283" lon="15.6276183"><ele>485.0</ele><time>2026-05-01T13:42:52.978Z</time></trkpt><trkpt lat="40.1134733" lon="15.62767"><ele>486.3333333333333</ele><time>2026-05-01T13:42:53.978Z</time></trkpt><trkpt lat="40.1136233" lon="15.627715"><ele>487.66666666666663</ele><time>2026-05-01T13:42:54.978Z</time></trkpt><trkpt lat="40.1137883" lon="15.6277367"><ele>489.0</ele><time>2026-05-01T13:42:55.978Z</time></trkpt><trkpt lat="40.1139483" lon="15.6277383"><ele>490.66666666666663</ele><time>2026-05-01T13:42:56.978Z</time></trkpt><trkpt lat="40.1141133" lon="15.6277283"><ele>492.3333333333333</ele><time>2026-05-01T13:42:57.978Z</time></trkpt><trkpt lat="40.1142867" lon="15.6277017"><ele>494.0</ele><time>2026-05-01T13:42:58.978Z</time></trkpt><trkpt lat="40.114455" lon="15.6276683"><ele>494.0</ele><time>2026-05-01T13:42:59.978Z</time></trkpt><trkpt lat="40.1146" lon="15.627625"><ele>494.0</ele><time>2026-05-01T13:43:00.978Z</time></trkpt><trkpt lat="40.11473" lon="15.6275767"><ele>494.0</ele><time>2026-05-01T13:43:01.978Z</time></trkpt><trkpt lat="40.114855" lon="15.6275267"><ele>494.0</ele><time>2026-05-01T13:43:02.978Z</time></trkpt><trkpt lat="40.1149567" lon="15.6274983"><ele>495.0</ele><time>2026-05-01T13:43:03.978Z</time></trkpt><trkpt lat="40.1150583" lon="15.627515"><ele>496.0</ele><time>2026-05-01T13:43:04.978Z</time></trkpt><trkpt lat="40.11516" lon="15.627575"><ele>497.0</ele><time>2026-05-01T13:43:05.978Z</time></trkpt><trkpt lat="40.115245" lon="15.6276367"><ele>498.0</ele><time>2026-05-01T13:43:06.978Z</time></trkpt><trkpt lat="40.1153167" lon="15.6276867"><ele>499.0</ele><time>2026-05-01T13:43:07.978Z</time></trkpt><trkpt lat="40.1154333" lon="15.62767"><ele>499.0</ele><time>2026-05-01T13:43:09.978Z</time></trkpt><trkpt lat="40.1155" lon="15.6276033"><ele>499.0</ele><time>2026-05-01T13:43:10.978Z</time></trkpt><trkpt lat="40.115575" lon="15.6274883"><ele>499.0</ele><time>2026-05-01T13:43:11.978Z</time></trkpt><trkpt lat="40.1156533" lon="15.627345"><ele>499.0</ele><time>2026-05-01T13:43:12.979Z</time></trkpt><trkpt lat="40.1157383" lon="15.627235"><ele>501.75</ele><time>2026-05-01T13:43:13.978Z</time></trkpt><trkpt lat="40.115845" lon="15.6271517"><ele>504.5</ele><time>2026-05-01T13:43:14.978Z</time></trkpt><trkpt lat="40.115955" lon="15.6271067"><ele>507.25</ele><time>2026-05-01T13:43:15.979Z</time></trkpt><trkpt lat="40.1160733" lon="15.6270517"><ele>510.0</ele><time>2026-05-01T13:43:16.978Z</time></trkpt><trkpt lat="40.116195" lon="15.626995"><ele>509.0</ele><time>2026-05-01T13:43:17.978Z</time></trkpt><trkpt lat="40.1163" lon="15.6269483"><ele>508.0</ele><time>2026-05-01T13:43:18.978Z</time></trkpt><trkpt lat="40.116385" lon="15.6269217"><ele>507.0</ele><time>2026-05-01T13:43:19.978Z</time></trkpt><trkpt lat="40.116465" lon="15.626925"><ele>506.0</ele><time>2026-05-01T13:43:20.979Z</time></trkpt><trkpt lat="40.1165417" lon="15.6269733"><ele>505.0</ele><time>2026-05-01T13:43:21.979Z</time></trkpt><trkpt lat="40.1165867" lon="15.627045"><ele>504.0</ele><time>2026-05-01T13:43:22.978Z</time></trkpt><trkpt lat="40.11662" lon="15.6271367"><ele>504.0</ele><time>2026-05-01T13:43:23.979Z</time></trkpt><trkpt lat="40.1166267" lon="15.6272483"><ele>504.0</ele><time>2026-05-01T13:43:24.979Z</time></trkpt><trkpt lat="40.1166133" lon="15.6274033"><ele>504.0</ele><time>2026-05-01T13:43:25.978Z</time></trkpt><trkpt lat="40.1165833" lon="15.627575"><ele>504.0</ele><time>2026-05-01T13:43:26.979Z</time></trkpt><trkpt lat="40.11657" lon="15.6277483"><ele>510.0</ele><time>2026-05-01T13:43:27.978Z</time></trkpt><trkpt lat="40.11656" lon="15.6279333"><ele>516.0</ele><time>2026-05-01T13:43:28.979Z</time></trkpt><trkpt lat="40.1165683" lon="15.6281033"><ele>522.0</ele><time>2026-05-01T13:43:29.978Z</time></trkpt><trkpt lat="40.1165583" lon="15.62826"><ele>528.0</ele><time>2026-05-01T13:43:30.978Z</time></trkpt><trkpt lat="40.116555" lon="15.6284017"><ele>528.0</ele><time>2026-05-01T13:43:31.978Z</time></trkpt><trkpt lat="40.1165433" lon="15.628535"><ele>528.0</ele><time>2026-05-01T13:43:32.978Z</time></trkpt><trkpt lat="40.11651" lon="15.628665"><ele>528.0</ele><time>2026-05-01T13:43:33.978Z</time></trkpt><trkpt lat="40.1164583" lon="15.628785"><ele>528.0</ele><time>2026-05-01T13:43:34.979Z</time></trkpt><trkpt lat="40.1163933" lon="15.62889"><ele>528.0</ele><time>2026-05-01T13:43:35.978Z</time></trkpt><trkpt lat="40.1163233" lon="15.62897"><ele>530.5</ele><time>2026-05-01T13:43:36.978Z</time></trkpt><trkpt lat="40.1162767" lon="15.629045"><ele>533.0</ele><time>2026-05-01T13:43:37.979Z</time></trkpt><trkpt lat="40.11623" lon="15.6291267"><ele>535.5</ele><time>2026-05-01T13:43:38.978Z</time></trkpt><trkpt lat="40.1162117" lon="15.6292067"><ele>538.0</ele><time>2026-05-01T13:43:39.978Z</time></trkpt><trkpt lat="40.1162167" lon="15.6292967"><ele>540.5</ele><time>2026-05-01T13:43:40.979Z</time></trkpt><trkpt lat="40.116235" lon="15.6294"><ele>543.0</ele><time>2026-05-01T13:43:41.979Z</time></trkpt><trkpt lat="40.116275" lon="15.6295283"><ele>539.25</ele><time>2026-05-01T13:43:42.978Z</time></trkpt><trkpt lat="40.1163567" lon="15.6296683"><ele>535.5</ele><time>2026-05-01T13:43:43.978Z</time></trkpt><trkpt lat="40.116445" lon="15.6297817"><ele>531.75</ele><time>2026-05-01T13:43:44.978Z</time></trkpt><trkpt lat="40.11654" lon="15.6298817"><ele>528.0</ele><time>2026-05-01T13:43:45.979Z</time></trkpt><trkpt lat="40.1166383" lon="15.6299367"><ele>528.0</ele><time>2026-05-01T13:43:46.979Z</time></trkpt><trkpt lat="40.1167233" lon="15.6299417"><ele>528.0</ele><time>2026-05-01T13:43:47.979Z</time></trkpt><trkpt lat="40.116795" lon="15.6299167"><ele>528.0</ele><time>2026-05-01T13:43:48.979Z</time></trkpt><trkpt lat="40.1168683" lon="15.6298483"><ele>528.0</ele><time>2026-05-01T13:43:49.979Z</time></trkpt><trkpt lat="40.1169233" lon="15.62974"><ele>528.0</ele><time>2026-05-01T13:43:50.979Z</time></trkpt><trkpt lat="40.1169783" lon="15.629635"><ele>528.0</ele><time>2026-05-01T13:43:51.979Z</time></trkpt><trkpt lat="40.1170483" lon="15.62956"><ele>528.0</ele><time>2026-05-01T13:43:52.978Z</time></trkpt><trkpt lat="40.117125" lon="15.629535"><ele>528.0</ele><time>2026-05-01T13:43:53.978Z</time></trkpt><trkpt lat="40.117215" lon="15.6295383"><ele>528.0</ele><time>2026-05-01T13:43:54.978Z</time></trkpt><trkpt lat="40.117305" lon="15.62958"><ele>528.0</ele><time>2026-05-01T13:43:55.978Z</time></trkpt><trkpt lat="40.1173867" lon="15.629665"><ele>528.0</ele><time>2026-05-01T13:43:56.978Z</time></trkpt><trkpt lat="40.1174617" lon="15.629745"><ele>527.8333333333334</ele><time>2026-05-01T13:43:57.979Z</time></trkpt><trkpt lat="40.1175433" lon="15.6297933"><ele>527.6666666666666</ele><time>2026-05-01T13:43:58.979Z</time></trkpt><trkpt lat="40.117615" lon="15.6297933"><ele>527.5</ele><time>2026-05-01T13:43:59.978Z</time></trkpt><trkpt lat="40.1176817" lon="15.6297467"><ele>527.3333333333333</ele><time>2026-05-01T13:44:00.978Z</time></trkpt><trkpt lat="40.1177183" lon="15.6296717"><ele>527.1666666666666</ele><time>2026-05-01T13:44:01.978Z</time></trkpt><trkpt lat="40.1177267" lon="15.62956"><ele>527.0</ele><time>2026-05-01T13:44:02.978Z</time></trkpt><trkpt lat="40.1177133" lon="15.6294283"><ele>521.75</ele><time>2026-05-01T13:44:03.978Z</time></trkpt><trkpt lat="40.117715" lon="15.6292867"><ele>516.5</ele><time>2026-05-01T13:44:04.978Z</time></trkpt><trkpt lat="40.1177433" lon="15.6291467"><ele>511.25</ele><time>2026-05-01T13:44:05.978Z</time></trkpt><trkpt lat="40.11781" lon="15.62902"><ele>506.0</ele><time>2026-05-01T13:44:06.978Z</time></trkpt><trkpt lat="40.1179" lon="15.6289167"><ele>506.0</ele><time>2026-05-01T13:44:07.978Z</time></trkpt><trkpt lat="40.1180183" lon="15.6288333"><ele>506.0</ele><time>2026-05-01T13:44:08.978Z</time></trkpt><trkpt lat="40.1181417" lon="15.62877"><ele>506.0</ele><time>2026-05-01T13:44:09.978Z</time></trkpt><trkpt lat="40.11826" lon="15.6287217"><ele>506.0</ele><time>2026-05-01T13:44:10.978Z</time></trkpt><trkpt lat="40.11837" lon="15.628675"><ele>505.8333333333333</ele><time>2026-05-01T13:44:11.979Z</time></trkpt><trkpt lat="40.11846" lon="15.628625"><ele>505.66666666666663</ele><time>2026-05-01T13:44:12.979Z</time></trkpt><trkpt lat="40.1185217" lon="15.6285567"><ele>505.5</ele><time>2026-05-01T13:44:13.978Z</time></trkpt><trkpt lat="40.1185617" lon="15.6284817"><ele>505.33333333333337</ele><time>2026-05-01T13:44:14.978Z</time></trkpt><trkpt lat="40.11858" lon="15.628385"><ele>505.1666666666667</ele><time>2026-05-01T13:44:15.978Z</time></trkpt><trkpt lat="40.1185783" lon="15.6282617"><ele>505.0</ele><time>2026-05-01T13:44:16.978Z</time></trkpt><trkpt lat="40.11855" lon="15.62812"><ele>505.00000000000006</ele><time>2026-05-01T13:44:17.978Z</time></trkpt><trkpt lat="40.1185383" lon="15.62799"><ele>505.0</ele><time>2026-05-01T13:44:18.978Z</time></trkpt><trkpt lat="40.1185667" lon="15.6278667"><ele>505.0</ele><time>2026-05-01T13:44:19.979Z</time></trkpt><trkpt lat="40.1186017" lon="15.62777"><ele>505.0</ele><time>2026-05-01T13:44:20.978Z</time></trkpt><trkpt lat="40.1186567" lon="15.627705"><ele>505.00000000000006</ele><time>2026-05-01T13:44:21.978Z</time></trkpt><trkpt lat="40.118725" lon="15.62767"><ele>505.0</ele><time>2026-05-01T13:44:22.978Z</time></trkpt><trkpt lat="40.1188033" lon="15.627675"><ele>504.83333333333337</ele><time>2026-05-01T13:44:23.978Z</time></trkpt><trkpt lat="40.1188833" lon="15.6277267"><ele>504.6666666666667</ele><time>2026-05-01T13:44:24.978Z</time></trkpt><trkpt lat="40.11898" lon="15.6277783"><ele>504.5</ele><time>2026-05-01T13:44:25.978Z</time></trkpt><trkpt lat="40.1190617" lon="15.6277867"><ele>504.33333333333337</ele><time>2026-05-01T13:44:26.979Z</time></trkpt><trkpt lat="40.119125" lon="15.6277283"><ele>504.1666666666667</ele><time>2026-05-01T13:44:27.978Z</time></trkpt><trkpt lat="40.119175" lon="15.6276267"><ele>504.0</ele><time>2026-05-01T13:44:28.978Z</time></trkpt><trkpt lat="40.1191983" lon="15.6275083"><ele>504.0</ele><time>2026-05-01T13:44:29.978Z</time></trkpt><trkpt lat="40.11918" lon="15.6273667"><ele>504.0</ele><time>2026-05-01T13:44:30.978Z</time></trkpt><trkpt lat="40.1191383" lon="15.6272183"><ele>504.0</ele><time>2026-05-01T13:44:31.978Z</time></trkpt><trkpt lat="40.119095" lon="15.6270817"><ele>504.0</ele><time>2026-05-01T13:44:32.979Z</time></trkpt><trkpt lat="40.1190683" lon="15.6269517"><ele>504.0</ele><time>2026-05-01T13:44:33.979Z</time></trkpt><trkpt lat="40.1190533" lon="15.6268267"><ele>501.8333333333333</ele><time>2026-05-01T13:44:34.978Z</time></trkpt><trkpt lat="40.1190583" lon="15.6267267"><ele>499.66666666666663</ele><time>2026-05-01T13:44:35.978Z</time></trkpt><trkpt lat="40.1190967" lon="15.6266517"><ele>497.5</ele><time>2026-05-01T13:44:36.979Z</time></trkpt><trkpt lat="40.119195" lon="15.6266367"><ele>495.3333333333333</ele><time>2026-05-01T13:44:38.978Z</time></trkpt><trkpt lat="40.1192533" lon="15.62672"><ele>493.16666666666663</ele><time>2026-05-01T13:44:39.979Z</time></trkpt><trkpt lat="40.1193167" lon="15.6268383"><ele>491.0</ele><time>2026-05-01T13:44:40.979Z</time></trkpt><trkpt lat="40.119365" lon="15.626975"><ele>493.6</ele><time>2026-05-01T13:44:41.978Z</time></trkpt><trkpt lat="40.119425" lon="15.6270967"><ele>496.20000000000005</ele><time>2026-05-01T13:44:42.978Z</time></trkpt><trkpt lat="40.1194883" lon="15.627195"><ele>498.79999999999995</ele><time>2026-05-01T13:44:43.978Z</time></trkpt><trkpt lat="40.11956" lon="15.627245"><ele>501.4</ele><time>2026-05-01T13:44:44.979Z</time></trkpt><trkpt lat="40.1196417" lon="15.6272433"><ele>504.0</ele><time>2026-05-01T13:44:45.978Z</time></trkpt><trkpt lat="40.119725" lon="15.6272017"><ele>504.0</ele><time>2026-05-01T13:44:46.978Z</time></trkpt><trkpt lat="40.1197983" lon="15.62712"><ele>504.0</ele><time>2026-05-01T13:44:47.979Z</time></trkpt><trkpt lat="40.1198667" lon="15.6270067"><ele>504.0</ele><time>2026-05-01T13:44:48.978Z</time></trkpt><trkpt lat="40.1199183" lon="15.626865"><ele>504.0</ele><time>2026-05-01T13:44:49.979Z</time></trkpt><trkpt lat="40.1199583" lon="15.6267283"><ele>504.0</ele><time>2026-05-01T13:44:50.979Z</time></trkpt><trkpt lat="40.1199883" lon="15.626575"><ele>502.0</ele><time>2026-05-01T13:44:51.979Z</time></trkpt><trkpt lat="40.120005" lon="15.62641"><ele>500.0</ele><time>2026-05-01T13:44:52.979Z</time></trkpt><trkpt lat="40.1200117" lon="15.6262467"><ele>498.0</ele><time>2026-05-01T13:44:53.978Z</time></trkpt><trkpt lat="40.1199967" lon="15.6260767"><ele>496.0</ele><time>2026-05-01T13:44:54.978Z</time></trkpt><trkpt lat="40.1199767" lon="15.625915"><ele>494.4</ele><time>2026-05-01T13:44:55.978Z</time></trkpt><trkpt lat="40.1199467" lon="15.6257667"><ele>492.8</ele><time>2026-05-01T13:44:56.978Z</time></trkpt><trkpt lat="40.11992" lon="15.6256217"><ele>491.19999999999993</ele><time>2026-05-01T13:44:57.978Z</time></trkpt><trkpt lat="40.1198883" lon="15.62549"><ele>489.59999999999997</ele><time>2026-05-01T13:44:58.979Z</time></trkpt><trkpt lat="40.1198783" lon="15.6253617"><ele>488.0</ele><time>2026-05-01T13:44:59.978Z</time></trkpt><trkpt lat="40.1198933" lon="15.6252567"><ele>485.79999999999995</ele><time>2026-05-01T13:45:00.979Z</time></trkpt><trkpt lat="40.11994" lon="15.6251567"><ele>483.59999999999997</ele><time>2026-05-01T13:45:01.978Z</time></trkpt><trkpt lat="40.1200183" lon="15.6250833"><ele>481.40000000000003</ele><time>2026-05-01T13:45:02.979Z</time></trkpt><trkpt lat="40.1201217" lon="15.6250333"><ele>479.20000000000005</ele><time>2026-05-01T13:45:03.978Z</time></trkpt><trkpt lat="40.1202283" lon="15.625025"><ele>477.0</ele><time>2026-05-01T13:45:04.978Z</time></trkpt><trkpt lat="40.1203317" lon="15.625055"><ele>477.0</ele><time>2026-05-01T13:45:05.978Z</time></trkpt><trkpt lat="40.1204333" lon="15.6251333"><ele>477.0</ele><time>2026-05-01T13:45:06.978Z</time></trkpt><trkpt lat="40.1205117" lon="15.6252567"><ele>477.0</ele><time>2026-05-01T13:45:07.978Z</time></trkpt><trkpt lat="40.1205833" lon="15.6253883"><ele>477.0</ele><time>2026-05-01T13:45:08.978Z</time></trkpt><trkpt lat="40.1206533" lon="15.6254867"><ele>476.8333333333333</ele><time>2026-05-01T13:45:09.978Z</time></trkpt><trkpt lat="40.1207217" lon="15.6255417"><ele>476.66666666666663</ele><time>2026-05-01T13:45:10.978Z</time></trkpt><trkpt lat="40.120785" lon="15.6255533"><ele>476.5</ele><time>2026-05-01T13:45:11.979Z</time></trkpt><trkpt lat="40.1208583" lon="15.6255183"><ele>476.3333333333333</ele><time>2026-05-01T13:45:12.979Z</time></trkpt><trkpt lat="40.1209233" lon="15.62544"><ele>476.16666666666663</ele><time>2026-05-01T13:45:13.978Z</time></trkpt><trkpt lat="40.1209717" lon="15.62532"><ele>476.0</ele><time>2026-05-01T13:45:14.979Z</time></trkpt><trkpt lat="40.1210183" lon="15.6251583"><ele>476.0</ele><time>2026-05-01T13:45:15.978Z</time></trkpt><trkpt lat="40.121055" lon="15.6249733"><ele>476.0</ele><time>2026-05-01T13:45:16.979Z</time></trkpt><trkpt lat="40.12109" lon="15.6248133"><ele>476.0</ele><time>2026-05-01T13:45:17.979Z</time></trkpt><trkpt lat="40.1211067" lon="15.624675"><ele>476.0</ele><time>2026-05-01T13:45:18.979Z</time></trkpt><trkpt lat="40.1211333" lon="15.6245367"><ele>472.8</ele><time>2026-05-01T13:45:19.979Z</time></trkpt><trkpt lat="40.1211667" lon="15.6244267"><ele>469.6</ele><time>2026-05-01T13:45:20.978Z</time></trkpt><trkpt lat="40.12121" lon="15.6243233"><ele>466.4</ele><time>2026-05-01T13:45:21.978Z</time></trkpt><trkpt lat="40.1212833" lon="15.6242333"><ele>463.2</ele><time>2026-05-01T13:45:22.979Z</time></trkpt><trkpt lat="40.1213733" lon="15.6241883"><ele>460.0</ele><time>2026-05-01T13:45:23.978Z</time></trkpt><trkpt lat="40.1214883" lon="15.6241783"><ele>462.2</ele><time>2026-05-01T13:45:24.978Z</time></trkpt><trkpt lat="40.12161" lon="15.6241817"><ele>464.4</ele><time>2026-05-01T13:45:25.978Z</time></trkpt><trkpt lat="40.1217283" lon="15.624195"><ele>466.6</ele><time>2026-05-01T13:45:26.978Z</time></trkpt><trkpt lat="40.121835" lon="15.624185"><ele>468.8</ele><time>2026-05-01T13:45:27.979Z</time></trkpt><trkpt lat="40.12193" lon="15.6241367"><ele>471.0</ele><time>2026-05-01T13:45:28.978Z</time></trkpt><trkpt lat="40.1219917" lon="15.624045"><ele>471.0</ele><time>2026-05-01T13:45:29.978Z</time></trkpt><trkpt lat="40.1220333" lon="15.6239217"><ele>471.0</ele><time>2026-05-01T13:45:30.978Z</time></trkpt><trkpt lat="40.122045" lon="15.6237717"><ele>471.0</ele><time>2026-05-01T13:45:31.978Z</time></trkpt><trkpt lat="40.122055" lon="15.6236217"><ele>471.0</ele><time>2026-05-01T13:45:32.978Z</time></trkpt><trkpt lat="40.1220833" lon="15.6234783"><ele>471.0</ele><time>2026-05-01T13:45:33.979Z</time></trkpt><trkpt lat="40.122115" lon="15.623345"><ele>467.5</ele><time>2026-05-01T13:45:34.979Z</time></trkpt><trkpt lat="40.1221683" lon="15.6232267"><ele>464.0</ele><time>2026-05-01T13:45:35.979Z</time></trkpt><trkpt lat="40.1222167" lon="15.6230867"><ele>460.5</ele><time>2026-05-01T13:45:36.978Z</time></trkpt><trkpt lat="40.1222517" lon="15.622935"><ele>457.0</ele><time>2026-05-01T13:45:37.979Z</time></trkpt><trkpt lat="40.1222683" lon="15.622775"><ele>453.75</ele><time>2026-05-01T13:45:38.978Z</time></trkpt><trkpt lat="40.1222833" lon="15.6226167"><ele>450.5</ele><time>2026-05-01T13:45:39.979Z</time></trkpt><trkpt lat="40.1223" lon="15.62247"><ele>447.25</ele><time>2026-05-01T13:45:40.979Z</time></trkpt><trkpt lat="40.122335" lon="15.6223317"><ele>444.0</ele><time>2026-05-01T13:45:41.979Z</time></trkpt><trkpt lat="40.1223833" lon="15.6222033"><ele>444.4</ele><time>2026-05-01T13:45:42.979Z</time></trkpt><trkpt lat="40.1224433" lon="15.6220883"><ele>444.79999999999995</ele><time>2026-05-01T13:45:43.978Z</time></trkpt><trkpt lat="40.1225167" lon="15.6219867"><ele>445.20000000000005</ele><time>2026-05-01T13:45:44.978Z</time></trkpt><trkpt lat="40.1226" lon="15.6219017"><ele>445.6</ele><time>2026-05-01T13:45:45.978Z</time></trkpt><trkpt lat="40.122675" lon="15.6218167"><ele>446.0</ele><time>2026-05-01T13:45:46.978Z</time></trkpt><trkpt lat="40.1227467" lon="15.6217417"><ele>445.99999999999994</ele><time>2026-05-01T13:45:47.978Z</time></trkpt><trkpt lat="40.122825" lon="15.6216883"><ele>446.0</ele><time>2026-05-01T13:45:48.978Z</time></trkpt><trkpt lat="40.1229067" lon="15.6216417"><ele>446.0</ele><time>2026-05-01T13:45:49.978Z</time></trkpt><trkpt lat="40.1229933" lon="15.6216517"><ele>446.0</ele><time>2026-05-01T13:45:50.978Z</time></trkpt><trkpt lat="40.12307" lon="15.6217"><ele>445.99999999999994</ele><time>2026-05-01T13:45:51.978Z</time></trkpt><trkpt lat="40.123135" lon="15.6217917"><ele>446.0</ele><time>2026-05-01T13:45:52.978Z</time></trkpt><trkpt lat="40.12319" lon="15.62191"><ele>446.4</ele><time>2026-05-01T13:45:53.978Z</time></trkpt><trkpt lat="40.12323" lon="15.6220433"><ele>446.8</ele><time>2026-05-01T13:45:54.978Z</time></trkpt><trkpt lat="40.12325" lon="15.6221933"><ele>447.19999999999993</ele><time>2026-05-01T13:45:55.979Z</time></trkpt><trkpt lat="40.123265" lon="15.6223367"><ele>447.59999999999997</ele><time>2026-05-01T13:45:56.978Z</time></trkpt><trkpt lat="40.1232817" lon="15.6224717"><ele>448.0</ele><time>2026-05-01T13:45:57.978Z</time></trkpt><trkpt lat="40.123305" lon="15.6226083"><ele>448.0</ele><time>2026-05-01T13:45:58.978Z</time></trkpt><trkpt lat="40.12333" lon="15.622745"><ele>447.99999999999994</ele><time>2026-05-01T13:45:59.979Z</time></trkpt><trkpt lat="40.1233617" lon="15.6228783"><ele>447.99999999999994</ele><time>2026-05-01T13:46:00.979Z</time></trkpt><trkpt lat="40.123405" lon="15.623015"><ele>448.0</ele><time>2026-05-01T13:46:01.978Z</time></trkpt><trkpt lat="40.1234517" lon="15.62315"><ele>448.0</ele><time>2026-05-01T13:46:02.979Z</time></trkpt><trkpt lat="40.123515" lon="15.6232967"><ele>452.0</ele><time>2026-05-01T13:46:03.978Z</time></trkpt><trkpt lat="40.123575" lon="15.6234283"><ele>456.0</ele><time>2026-05-01T13:46:04.978Z</time></trkpt><trkpt lat="40.12364" lon="15.62356"><ele>460.0</ele><time>2026-05-01T13:46:05.978Z</time></trkpt><trkpt lat="40.1236983" lon="15.6236833"><ele>464.0</ele><time>2026-05-01T13:46:06.979Z</time></trkpt><trkpt lat="40.12376" lon="15.6238033"><ele>466.2</ele><time>2026-05-01T13:46:07.979Z</time></trkpt><trkpt lat="40.1238067" lon="15.62393"><ele>468.4</ele><time>2026-05-01T13:46:08.979Z</time></trkpt><trkpt lat="40.12385" lon="15.6240383"><ele>470.6</ele><time>2026-05-01T13:46:09.978Z</time></trkpt><trkpt lat="40.1238967" lon="15.62414"><ele>472.8</ele><time>2026-05-01T13:46:10.978Z</time></trkpt><trkpt lat="40.123965" lon="15.6242233"><ele>475.0</ele><time>2026-05-01T13:46:11.978Z</time></trkpt><trkpt lat="40.1240367" lon="15.6243067"><ele>472.2</ele><time>2026-05-01T13:46:12.978Z</time></trkpt><trkpt lat="40.124115" lon="15.624385"><ele>469.4</ele><time>2026-05-01T13:46:13.978Z</time></trkpt><trkpt lat="40.124195" lon="15.6244583"><ele>466.6</ele><time>2026-05-01T13:46:14.979Z</time></trkpt><trkpt lat="40.1242867" lon="15.6245167"><ele>463.8</ele><time>2026-05-01T13:46:15.978Z</time></trkpt><trkpt lat="40.1243817" lon="15.6245633"><ele>461.0</ele><time>2026-05-01T13:46:16.978Z</time></trkpt><trkpt lat="40.124485" lon="15.6245817"><ele>461.0</ele><time>2026-05-01T13:46:17.978Z</time></trkpt><trkpt lat="40.124595" lon="15.6245917"><ele>461.0</ele><time>2026-05-01T13:46:18.978Z</time></trkpt><trkpt lat="40.124705" lon="15.6245967"><ele>461.0</ele><time>2026-05-01T13:46:19.979Z</time></trkpt><trkpt lat="40.1248067" lon="15.6246217"><ele>461.0</ele><time>2026-05-01T13:46:20.979Z</time></trkpt><trkpt lat="40.1249" lon="15.6246867"><ele>461.0</ele><time>2026-05-01T13:46:21.979Z</time></trkpt><trkpt lat="40.1249767" lon="15.62477"><ele>457.0</ele><time>2026-05-01T13:46:22.978Z</time></trkpt><trkpt lat="40.1250267" lon="15.6248817"><ele>453.0</ele><time>2026-05-01T13:46:23.979Z</time></trkpt><trkpt lat="40.1250617" lon="15.625015"><ele>449.0</ele><time>2026-05-01T13:46:24.978Z</time></trkpt><trkpt lat="40.1250717" lon="15.6251633"><ele>445.0</ele><time>2026-05-01T13:46:25.978Z</time></trkpt><trkpt lat="40.12506" lon="15.6252933"><ele>441.0</ele><time>2026-05-01T13:46:26.978Z</time></trkpt><trkpt lat="40.1250417" lon="15.6254267"><ele>441.0</ele><time>2026-05-01T13:46:27.979Z</time></trkpt><trkpt lat="40.125025" lon="15.6255583"><ele>441.0</ele><time>2026-05-01T13:46:28.978Z</time></trkpt><trkpt lat="40.125015" lon="15.625675"><ele>441.0</ele><time>2026-05-01T13:46:29.978Z</time></trkpt><trkpt lat="40.125025" lon="15.6257667"><ele>441.0</ele><time>2026-05-01T13:46:30.978Z</time></trkpt><trkpt lat="40.1250667" lon="15.625835"><ele>441.0</ele><time>2026-05-01T13:46:31.979Z</time></trkpt><trkpt lat="40.12514" lon="15.6258633"><ele>441.0</ele><time>2026-05-01T13:46:32.978Z</time></trkpt><trkpt lat="40.1252383" lon="15.6258417"><ele>441.0</ele><time>2026-05-01T13:46:33.978Z</time></trkpt><trkpt lat="40.1253267" lon="15.6257933"><ele>441.0</ele><time>2026-05-01T13:46:34.979Z</time></trkpt><trkpt lat="40.12541" lon="15.6257183"><ele>441.0</ele><time>2026-05-01T13:46:35.979Z</time></trkpt><trkpt lat="40.125495" lon="15.6256733"><ele>441.0</ele><time>2026-05-01T13:46:36.978Z</time></trkpt><trkpt lat="40.1255783" lon="15.6256617"><ele>441.0</ele><time>2026-05-01T13:46:37.979Z</time></trkpt><trkpt lat="40.1256483" lon="15.6257"><ele>441.0</ele><time>2026-05-01T13:46:38.978Z</time></trkpt><trkpt lat="40.1256967" lon="15.6258783"><ele>441.0</ele><time>2026-05-01T13:46:40.979Z</time></trkpt><trkpt lat="40.1257067" lon="15.6259983"><ele>441.0</ele><time>2026-05-01T13:46:41.979Z</time></trkpt><trkpt lat="40.1257167" lon="15.6261367"><ele>441.0</ele><time>2026-05-01T13:46:42.978Z</time></trkpt><trkpt lat="40.1257633" lon="15.6262783"><ele>441.0</ele><time>2026-05-01T13:46:43.978Z</time></trkpt><trkpt lat="40.125835" lon="15.62643"><ele>438.5</ele><time>2026-05-01T13:46:44.979Z</time></trkpt><trkpt lat="40.12591" lon="15.626575"><ele>436.0</ele><time>2026-05-01T13:46:45.978Z</time></trkpt><trkpt lat="40.1259967" lon="15.6267067"><ele>433.5</ele><time>2026-05-01T13:46:46.978Z</time></trkpt><trkpt lat="40.1260683" lon="15.62683"><ele>431.0</ele><time>2026-05-01T13:46:47.978Z</time></trkpt><trkpt lat="40.1261383" lon="15.6269583"><ele>434.5</ele><time>2026-05-01T13:46:48.978Z</time></trkpt><trkpt lat="40.1262217" lon="15.62708"><ele>438.0</ele><time>2026-05-01T13:46:49.979Z</time></trkpt><trkpt lat="40.1263083" lon="15.6271767"><ele>441.5</ele><time>2026-05-01T13:46:50.978Z</time></trkpt><trkpt lat="40.1263933" lon="15.6272683"><ele>445.0</ele><time>2026-05-01T13:46:51.978Z</time></trkpt><trkpt lat="40.1264633" lon="15.6273767"><ele>445.0</ele><time>2026-05-01T13:46:52.979Z</time></trkpt><trkpt lat="40.1265117" lon="15.62749"><ele>445.0</ele><time>2026-05-01T13:46:53.978Z</time></trkpt><trkpt lat="40.12653" lon="15.6276167"><ele>445.0</ele><time>2026-05-01T13:46:54.979Z</time></trkpt><trkpt lat="40.1265483" lon="15.6277433"><ele>445.0</ele><time>2026-05-01T13:46:55.978Z</time></trkpt><trkpt lat="40.1265733" lon="15.6278867"><ele>445.0</ele><time>2026-05-01T13:46:56.979Z</time></trkpt><trkpt lat="40.126635" lon="15.6280117"><ele>439.0</ele><time>2026-05-01T13:46:57.979Z</time></trkpt><trkpt lat="40.1267183" lon="15.6281283"><ele>433.0</ele><time>2026-05-01T13:46:58.978Z</time></trkpt><trkpt lat="40.1268167" lon="15.628245"><ele>427.0</ele><time>2026-05-01T13:46:59.979Z</time></trkpt><trkpt lat="40.1269067" lon="15.6283517"><ele>421.0</ele><time>2026-05-01T13:47:00.978Z</time></trkpt><trkpt lat="40.1269667" lon="15.6284783"><ele>421.0</ele><time>2026-05-01T13:47:01.979Z</time></trkpt><trkpt lat="40.1270133" lon="15.6286067"><ele>421.0</ele><time>2026-05-01T13:47:02.978Z</time></trkpt><trkpt lat="40.1270567" lon="15.6287367"><ele>421.0</ele><time>2026-05-01T13:47:03.978Z</time></trkpt><trkpt lat="40.1271067" lon="15.62885"><ele>421.0</ele><time>2026-05-01T13:47:04.978Z</time></trkpt><trkpt lat="40.1271767" lon="15.62893"><ele>421.0</ele><time>2026-05-01T13:47:05.978Z</time></trkpt><trkpt lat="40.1272583" lon="15.6289767"><ele>418.4</ele><time>2026-05-01T13:47:06.979Z</time></trkpt><trkpt lat="40.127345" lon="15.628985"><ele>415.8</ele><time>2026-05-01T13:47:07.978Z</time></trkpt><trkpt lat="40.12743" lon="15.6289633"><ele>413.2</ele><time>2026-05-01T13:47:08.979Z</time></trkpt><trkpt lat="40.1275233" lon="15.6289067"><ele>410.59999999999997</ele><time>2026-05-01T13:47:09.979Z</time></trkpt><trkpt lat="40.1276167" lon="15.628835"><ele>408.0</ele><time>2026-05-01T13:47:10.978Z</time></trkpt><trkpt lat="40.1277017" lon="15.6287667"><ele>408.0</ele><time>2026-05-01T13:47:11.978Z</time></trkpt><trkpt lat="40.1277817" lon="15.6287033"><ele>408.0</ele><time>2026-05-01T13:47:12.979Z</time></trkpt><trkpt lat="40.1278517" lon="15.6286183"><ele>408.0</ele><time>2026-05-01T13:47:13.978Z</time></trkpt><trkpt lat="40.1278917" lon="15.6285083"><ele>408.0</ele><time>2026-05-01T13:47:14.978Z</time></trkpt><trkpt lat="40.1279117" lon="15.6283933"><ele>408.0</ele><time>2026-05-01T13:47:15.978Z</time></trkpt><trkpt lat="40.127905" lon="15.6282617"><ele>409.0</ele><time>2026-05-01T13:47:16.979Z</time></trkpt><trkpt lat="40.1278683" lon="15.6281267"><ele>410.0</ele><time>2026-05-01T13:47:17.978Z</time></trkpt><trkpt lat="40.1278017" lon="15.6279567"><ele>411.0</ele><time>2026-05-01T13:47:18.979Z</time></trkpt><trkpt lat="40.1277267" lon="15.6277533"><ele>412.0</ele><time>2026-05-01T13:47:19.978Z</time></trkpt><trkpt lat="40.1276617" lon="15.6275367"><ele>412.0</ele><time>2026-05-01T13:47:20.978Z</time></trkpt><trkpt lat="40.127595" lon="15.6273083"><ele>412.0</ele><time>2026-05-01T13:47:21.978Z</time></trkpt><trkpt lat="40.1275233" lon="15.6270483"><ele>412.0</ele><time>2026-05-01T13:47:22.978Z</time></trkpt><trkpt lat="40.127455" lon="15.626785"><ele>409.6666666666667</ele><time>2026-05-01T13:47:23.978Z</time></trkpt><trkpt lat="40.1273833" lon="15.626535"><ele>407.33333333333337</ele><time>2026-05-01T13:47:24.978Z</time></trkpt><trkpt lat="40.127315" lon="15.6263183"><ele>405.0</ele><time>2026-05-01T13:47:25.979Z</time></trkpt><trkpt lat="40.127265" lon="15.6261333"><ele>405.0</ele><time>2026-05-01T13:47:26.979Z</time></trkpt><trkpt lat="40.1272233" lon="15.6259733"><ele>405.0</ele><time>2026-05-01T13:47:27.978Z</time></trkpt><trkpt lat="40.1272033" lon="15.6258367"><ele>405.0</ele><time>2026-05-01T13:47:28.978Z</time></trkpt><trkpt lat="40.12721" lon="15.62572"><ele>405.0</ele><time>2026-05-01T13:47:29.978Z</time></trkpt><trkpt lat="40.1272367" lon="15.6256317"><ele>405.0</ele><time>2026-05-01T13:47:30.979Z</time></trkpt><trkpt lat="40.1272767" lon="15.6255617"><ele>405.0</ele><time>2026-05-01T13:47:31.978Z</time></trkpt><trkpt lat="40.1273433" lon="15.625505"><ele>405.0</ele><time>2026-05-01T13:47:32.978Z</time></trkpt><trkpt lat="40.1274433" lon="15.6254767"><ele>405.0</ele><time>2026-05-01T13:47:33.978Z</time></trkpt><trkpt lat="40.127575" lon="15.6254567"><ele>405.0</ele><time>2026-05-01T13:47:34.978Z</time></trkpt><trkpt lat="40.1277283" lon="15.6254617"><ele>408.8</ele><time>2026-05-01T13:47:35.978Z</time></trkpt><trkpt lat="40.1278383" lon="15.62544"><ele>412.6</ele><time>2026-05-01T13:47:36.978Z</time></trkpt><trkpt lat="40.1279183" lon="15.6253767"><ele>416.4</ele><time>2026-05-01T13:47:37.979Z</time></trkpt><trkpt lat="40.1279733" lon="15.6252833"><ele>420.2</ele><time>2026-05-01T13:47:38.978Z</time></trkpt><trkpt lat="40.1279933" lon="15.6251717"><ele>424.0</ele><time>2026-05-01T13:47:39.978Z</time></trkpt><trkpt lat="40.1279617" lon="15.6250567"><ele>424.0</ele><time>2026-05-01T13:47:40.979Z</time></trkpt><trkpt lat="40.1278833" lon="15.624935"><ele>424.0</ele><time>2026-05-01T13:47:41.978Z</time></trkpt><trkpt lat="40.1277767" lon="15.6247683"><ele>424.0</ele><time>2026-05-01T13:47:42.979Z</time></trkpt><trkpt lat="40.1276567" lon="15.6245683"><ele>427.33333333333337</ele><time>2026-05-01T13:47:43.978Z</time></trkpt><trkpt lat="40.1275733" lon="15.6243433"><ele>430.66666666666663</ele><time>2026-05-01T13:47:44.978Z</time></trkpt><trkpt lat="40.1275117" lon="15.6240867"><ele>434.0</ele><time>2026-05-01T13:47:45.978Z</time></trkpt><trkpt lat="40.1274533" lon="15.62388"><ele>434.0</ele><time>2026-05-01T13:47:46.978Z</time></trkpt><trkpt lat="40.1274167" lon="15.6237133"><ele>434.0</ele><time>2026-05-01T13:47:47.978Z</time></trkpt><trkpt lat="40.1274" lon="15.6235583"><ele>434.0</ele><time>2026-05-01T13:47:48.978Z</time></trkpt><trkpt lat="40.1274133" lon="15.62343"><ele>434.0</ele><time>2026-05-01T13:47:49.978Z</time></trkpt><trkpt lat="40.1274433" lon="15.6233067"><ele>435.0</ele><time>2026-05-01T13:47:50.979Z</time></trkpt><trkpt lat="40.1275067" lon="15.6231733"><ele>436.0</ele><time>2026-05-01T13:47:51.978Z</time></trkpt><trkpt lat="40.1276233" lon="15.6230167"><ele>437.0</ele><time>2026-05-01T13:47:52.978Z</time></trkpt><trkpt lat="40.1277717" lon="15.622845"><ele>433.66666666666663</ele><time>2026-05-01T13:47:53.979Z</time></trkpt><trkpt lat="40.127905" lon="15.6226817"><ele>430.33333333333337</ele><time>2026-05-01T13:47:54.978Z</time></trkpt><trkpt lat="40.1280133" lon="15.6225517"><ele>427.0</ele><time>2026-05-01T13:47:55.978Z</time></trkpt><trkpt lat="40.128115" lon="15.622455"><ele>427.00000000000006</ele><time>2026-05-01T13:47:56.978Z</time></trkpt><trkpt lat="40.128195" lon="15.6223767"><ele>427.0</ele><time>2026-05-01T13:47:57.978Z</time></trkpt><trkpt lat="40.1282483" lon="15.6223133"><ele>427.0</ele><time>2026-05-01T13:47:58.978Z</time></trkpt><trkpt lat="40.1282983" lon="15.6222217"><ele>427.0</ele><time>2026-05-01T13:47:59.978Z</time></trkpt><trkpt lat="40.1283317" lon="15.622125"><ele>427.00000000000006</ele><time>2026-05-01T13:48:00.978Z</time></trkpt><trkpt lat="40.128345" lon="15.622"><ele>427.0</ele><time>2026-05-01T13:48:01.978Z</time></trkpt><trkpt lat="40.12837" lon="15.621875"><ele>432.8</ele><time>2026-05-01T13:48:02.978Z</time></trkpt><trkpt lat="40.12841" lon="15.6217617"><ele>438.6</ele><time>2026-05-01T13:48:03.978Z</time></trkpt><trkpt lat="40.1284617" lon="15.62165"><ele>444.40000000000003</ele><time>2026-05-01T13:48:04.979Z</time></trkpt><trkpt lat="40.1285267" lon="15.6215417"><ele>450.20000000000005</ele><time>2026-05-01T13:48:05.978Z</time></trkpt><trkpt lat="40.1285983" lon="15.62141"><ele>456.0</ele><time>2026-05-01T13:48:06.979Z</time></trkpt><trkpt lat="40.12869" lon="15.6212667"><ele>455.6</ele><time>2026-05-01T13:48:07.978Z</time></trkpt><trkpt lat="40.1287867" lon="15.6211283"><ele>455.20000000000005</ele><time>2026-05-01T13:48:08.979Z</time></trkpt><trkpt lat="40.12888" lon="15.62102"><ele>454.79999999999995</ele><time>2026-05-01T13:48:09.978Z</time></trkpt><trkpt lat="40.128955" lon="15.6209267"><ele>454.4</ele><time>2026-05-01T13:48:10.978Z</time></trkpt><trkpt lat="40.1289983" lon="15.6208617"><ele>454.0</ele><time>2026-05-01T13:48:11.979Z</time></trkpt><trkpt lat="40.1290233" lon="15.620705"><ele>454.0</ele><time>2026-05-01T13:48:13.978Z</time></trkpt><trkpt lat="40.1289933" lon="15.6206067"><ele>454.0</ele><time>2026-05-01T13:48:14.979Z</time></trkpt><trkpt lat="40.1288917" lon="15.6205333"><ele>454.0</ele><time>2026-05-01T13:48:15.978Z</time></trkpt><trkpt lat="40.1287483" lon="15.6204417"><ele>454.0</ele><time>2026-05-01T13:48:16.978Z</time></trkpt><trkpt lat="40.1285233" lon="15.6203367"><ele>457.0</ele><time>2026-05-01T13:48:17.979Z</time></trkpt><trkpt lat="40.1283067" lon="15.62021"><ele>460.0</ele><time>2026-05-01T13:48:18.978Z</time></trkpt><trkpt lat="40.128115" lon="15.62008"><ele>460.0</ele><time>2026-05-01T13:48:19.979Z</time></trkpt><trkpt lat="40.127925" lon="15.619955"><ele>460.0</ele><time>2026-05-01T13:48:20.978Z</time></trkpt><trkpt lat="40.1277633" lon="15.6198733"><ele>460.0</ele><time>2026-05-01T13:48:21.979Z</time></trkpt><trkpt lat="40.127645" lon="15.6197917"><ele>460.0</ele><time>2026-05-01T13:48:22.979Z</time></trkpt><trkpt lat="40.1275633" lon="15.6196967"><ele>460.0</ele><time>2026-05-01T13:48:23.978Z</time></trkpt><trkpt lat="40.1275133" lon="15.61959"><ele>460.0</ele><time>2026-05-01T13:48:24.978Z</time></trkpt><trkpt lat="40.1274933" lon="15.6194767"><ele>460.0</ele><time>2026-05-01T13:48:25.978Z</time></trkpt><trkpt lat="40.1275083" lon="15.619345"><ele>460.0</ele><time>2026-05-01T13:48:26.979Z</time></trkpt><trkpt lat="40.1275517" lon="15.6192083"><ele>460.75</ele><time>2026-05-01T13:48:27.978Z</time></trkpt><trkpt lat="40.1276083" lon="15.6190567"><ele>461.5</ele><time>2026-05-01T13:48:28.979Z</time></trkpt><trkpt lat="40.1276867" lon="15.6189383"><ele>462.25</ele><time>2026-05-01T13:48:29.978Z</time></trkpt><trkpt lat="40.1277817" lon="15.6188383"><ele>463.0</ele><time>2026-05-01T13:48:30.979Z</time></trkpt><trkpt lat="40.1279033" lon="15.6187567"><ele>463.0</ele><time>2026-05-01T13:48:31.979Z</time></trkpt><trkpt lat="40.12802" lon="15.6186617"><ele>463.0</ele><time>2026-05-01T13:48:32.979Z</time></trkpt><trkpt lat="40.12811" lon="15.61855"><ele>463.0</ele><time>2026-05-01T13:48:33.978Z</time></trkpt><trkpt lat="40.128185" lon="15.61843"><ele>463.0</ele><time>2026-05-01T13:48:34.978Z</time></trkpt><trkpt lat="40.128255" lon="15.6182917"><ele>464.25</ele><time>2026-05-01T13:48:35.978Z</time></trkpt><trkpt lat="40.1283217" lon="15.6181517"><ele>465.5</ele><time>2026-05-01T13:48:36.978Z</time></trkpt><trkpt lat="40.1283683" lon="15.6180117"><ele>466.75</ele><time>2026-05-01T13:48:37.979Z</time></trkpt><trkpt lat="40.12843" lon="15.617875"><ele>468.0</ele><time>2026-05-01T13:48:38.979Z</time></trkpt><trkpt lat="40.1285083" lon="15.6177417"><ele>468.0</ele><time>2026-05-01T13:48:39.978Z</time></trkpt><trkpt lat="40.128635" lon="15.6176017"><ele>468.0</ele><time>2026-05-01T13:48:40.979Z</time></trkpt><trkpt lat="40.1287717" lon="15.6174567"><ele>468.0</ele><time>2026-05-01T13:48:41.978Z</time></trkpt><trkpt lat="40.1289283" lon="15.6172883"><ele>470.66666666666663</ele><time>2026-05-01T13:48:42.979Z</time></trkpt><trkpt lat="40.1290833" lon="15.6171267"><ele>473.3333333333333</ele><time>2026-05-01T13:48:43.978Z</time></trkpt><trkpt lat="40.129215" lon="15.6169517"><ele>476.0</ele><time>2026-05-01T13:48:44.978Z</time></trkpt><trkpt lat="40.129335" lon="15.616795"><ele>476.0</ele><time>2026-05-01T13:48:45.978Z</time></trkpt><trkpt lat="40.1294683" lon="15.616655"><ele>476.0</ele><time>2026-05-01T13:48:46.978Z</time></trkpt><trkpt lat="40.1295883" lon="15.6165567"><ele>476.0</ele><time>2026-05-01T13:48:47.978Z</time></trkpt><trkpt lat="40.1296867" lon="15.6164733"><ele>476.0</ele><time>2026-05-01T13:48:48.978Z</time></trkpt><trkpt lat="40.1297633" lon="15.6163717"><ele>476.0</ele><time>2026-05-01T13:48:49.978Z</time></trkpt><trkpt lat="40.129805" lon="15.61623"><ele>476.0</ele><time>2026-05-01T13:48:50.978Z</time></trkpt><trkpt lat="40.1298233" lon="15.6160617"><ele>476.0</ele><time>2026-05-01T13:48:51.978Z</time></trkpt><trkpt lat="40.1298317" lon="15.6158683"><ele>476.0</ele><time>2026-05-01T13:48:52.978Z</time></trkpt><trkpt lat="40.1298283" lon="15.615675"><ele>476.0</ele><time>2026-05-01T13:48:53.978Z</time></trkpt><trkpt lat="40.1297983" lon="15.6154767"><ele>476.0</ele><time>2026-05-01T13:48:54.978Z</time></trkpt><trkpt lat="40.1297467" lon="15.6152683"><ele>476.0</ele><time>2026-05-01T13:48:55.978Z</time></trkpt><trkpt lat="40.129685" lon="15.6150667"><ele>478.75</ele><time>2026-05-01T13:48:56.978Z</time></trkpt><trkpt lat="40.1296167" lon="15.6148733"><ele>481.5</ele><time>2026-05-01T13:48:57.978Z</time></trkpt><trkpt lat="40.12956" lon="15.6147067"><ele>484.25</ele><time>2026-05-01T13:48:58.978Z</time></trkpt><trkpt lat="40.1295217" lon="15.6145667"><ele>487.0</ele><time>2026-05-01T13:48:59.978Z</time></trkpt><trkpt lat="40.1295217" lon="15.6144433"><ele>487.8</ele><time>2026-05-01T13:49:00.978Z</time></trkpt><trkpt lat="40.1295317" lon="15.614355"><ele>488.6</ele><time>2026-05-01T13:49:01.978Z</time></trkpt><trkpt lat="40.1295733" lon="15.6142583"><ele>489.40000000000003</ele><time>2026-05-01T13:49:02.978Z</time></trkpt><trkpt lat="40.12965" lon="15.6141483"><ele>490.20000000000005</ele><time>2026-05-01T13:49:03.979Z</time></trkpt><trkpt lat="40.12978" lon="15.614035"><ele>491.0</ele><time>2026-05-01T13:49:04.979Z</time></trkpt><trkpt lat="40.1299083" lon="15.6139417"><ele>493.0</ele><time>2026-05-01T13:49:05.979Z</time></trkpt><trkpt lat="40.1300267" lon="15.6139033"><ele>495.0</ele><time>2026-05-01T13:49:06.979Z</time></trkpt><trkpt lat="40.1301333" lon="15.61392"><ele>497.0</ele><time>2026-05-01T13:49:07.978Z</time></trkpt><trkpt lat="40.1302383" lon="15.613965"><ele>499.0</ele><time>2026-05-01T13:49:08.978Z</time></trkpt><trkpt lat="40.1303283" lon="15.61406"><ele>499.0</ele><time>2026-05-01T13:49:09.979Z</time></trkpt><trkpt lat="40.1304133" lon="15.61421"><ele>499.0</ele><time>2026-05-01T13:49:10.978Z</time></trkpt><trkpt lat="40.130485" lon="15.61438"><ele>499.0</ele><time>2026-05-01T13:49:11.978Z</time></trkpt><trkpt lat="40.1305867" lon="15.61451"><ele>499.0</ele><time>2026-05-01T13:49:12.978Z</time></trkpt><trkpt lat="40.130685" lon="15.6145667"><ele>498.75</ele><time>2026-05-01T13:49:13.979Z</time></trkpt><trkpt lat="40.130795" lon="15.61457"><ele>498.5</ele><time>2026-05-01T13:49:14.978Z</time></trkpt><trkpt lat="40.1309083" lon="15.6145117"><ele>498.25</ele><time>2026-05-01T13:49:15.979Z</time></trkpt><trkpt lat="40.1310283" lon="15.6144167"><ele>498.0</ele><time>2026-05-01T13:49:16.978Z</time></trkpt><trkpt lat="40.1311483" lon="15.6143017"><ele>498.0</ele><time>2026-05-01T13:49:17.978Z</time></trkpt><trkpt lat="40.1312567" lon="15.61419"><ele>498.0</ele><time>2026-05-01T13:49:18.978Z</time></trkpt><trkpt lat="40.1313683" lon="15.6140967"><ele>498.0</ele><time>2026-05-01T13:49:19.979Z</time></trkpt><trkpt lat="40.131495" lon="15.6140233"><ele>498.0</ele><time>2026-05-01T13:49:20.978Z</time></trkpt><trkpt lat="40.131645" lon="15.6139633"><ele>499.75</ele><time>2026-05-01T13:49:21.979Z</time></trkpt><trkpt lat="40.1317967" lon="15.6139167"><ele>501.5</ele><time>2026-05-01T13:49:22.979Z</time></trkpt><trkpt lat="40.13195" lon="15.6138717"><ele>503.25</ele><time>2026-05-01T13:49:23.979Z</time></trkpt><trkpt lat="40.1320733" lon="15.6138217"><ele>505.0</ele><time>2026-05-01T13:49:24.978Z</time></trkpt><trkpt lat="40.1321917" lon="15.6137917"><ele>505.00000000000006</ele><time>2026-05-01T13:49:25.979Z</time></trkpt><trkpt lat="40.1322983" lon="15.6137833"><ele>505.0</ele><time>2026-05-01T13:49:26.978Z</time></trkpt><trkpt lat="40.1323933" lon="15.6138083"><ele>505.0</ele><time>2026-05-01T13:49:27.978Z</time></trkpt><trkpt lat="40.1324667" lon="15.613855"><ele>505.0</ele><time>2026-05-01T13:49:28.978Z</time></trkpt><trkpt lat="40.1325133" lon="15.613935"><ele>505.00000000000006</ele><time>2026-05-01T13:49:29.978Z</time></trkpt><trkpt lat="40.1325333" lon="15.614035"><ele>505.0</ele><time>2026-05-01T13:49:30.978Z</time></trkpt><trkpt lat="40.1325233" lon="15.6141767"><ele>504.5</ele><time>2026-05-01T13:49:31.978Z</time></trkpt><trkpt lat="40.1324883" lon="15.6143417"><ele>504.0</ele><time>2026-05-01T13:49:32.978Z</time></trkpt><trkpt lat="40.1324583" lon="15.6144983"><ele>503.5</ele><time>2026-05-01T13:49:33.978Z</time></trkpt><trkpt lat="40.132435" lon="15.61465"><ele>503.0</ele><time>2026-05-01T13:49:34.978Z</time></trkpt><trkpt lat="40.13242" lon="15.6147817"><ele>503.0</ele><time>2026-05-01T13:49:35.978Z</time></trkpt><trkpt lat="40.1324017" lon="15.6149"><ele>502.99999999999994</ele><time>2026-05-01T13:49:36.978Z</time></trkpt><trkpt lat="40.1323967" lon="15.6150017"><ele>502.99999999999994</ele><time>2026-05-01T13:49:37.979Z</time></trkpt><trkpt lat="40.1323717" lon="15.615125"><ele>503.0</ele><time>2026-05-01T13:49:38.979Z</time></trkpt><trkpt lat="40.13232" lon="15.6152583"><ele>503.0</ele><time>2026-05-01T13:49:39.978Z</time></trkpt><trkpt lat="40.1322633" lon="15.6154033"><ele>508.5</ele><time>2026-05-01T13:49:40.979Z</time></trkpt><trkpt lat="40.1322017" lon="15.6155483"><ele>514.0</ele><time>2026-05-01T13:49:41.978Z</time></trkpt><trkpt lat="40.13215" lon="15.6157033"><ele>519.5</ele><time>2026-05-01T13:49:42.978Z</time></trkpt><trkpt lat="40.1321" lon="15.6158367"><ele>525.0</ele><time>2026-05-01T13:49:43.978Z</time></trkpt><trkpt lat="40.1320567" lon="15.6159567"><ele>525.0</ele><time>2026-05-01T13:49:44.979Z</time></trkpt><trkpt lat="40.132045" lon="15.616085"><ele>525.0</ele><time>2026-05-01T13:49:45.979Z</time></trkpt><trkpt lat="40.1320733" lon="15.6162267"><ele>525.0</ele><time>2026-05-01T13:49:46.979Z</time></trkpt><trkpt lat="40.1321367" lon="15.6163817"><ele>525.0</ele><time>2026-05-01T13:49:47.979Z</time></trkpt><trkpt lat="40.1322283" lon="15.61653"><ele>527.6666666666666</ele><time>2026-05-01T13:49:48.979Z</time></trkpt><trkpt lat="40.1323383" lon="15.6166817"><ele>530.3333333333333</ele><time>2026-05-01T13:49:49.978Z</time></trkpt><trkpt lat="40.1324567" lon="15.6168183"><ele>533.0</ele><time>2026-05-01T13:49:50.978Z</time></trkpt><trkpt lat="40.132575" lon="15.61695"><ele>531.0</ele><time>2026-05-01T13:49:51.979Z</time></trkpt><trkpt lat="40.1326933" lon="15.6170717"><ele>529.0</ele><time>2026-05-01T13:49:52.979Z</time></trkpt><trkpt lat="40.13281" lon="15.6171767"><ele>527.0</ele><time>2026-05-01T13:49:53.979Z</time></trkpt><trkpt lat="40.1329183" lon="15.6172633"><ele>525.0</ele><time>2026-05-01T13:49:54.979Z</time></trkpt><trkpt lat="40.1330217" lon="15.6173717"><ele>525.0</ele><time>2026-05-01T13:49:55.978Z</time></trkpt><trkpt lat="40.1331083" lon="15.6175067"><ele>525.0</ele><time>2026-05-01T13:49:56.978Z</time></trkpt><trkpt lat="40.133175" lon="15.6176633"><ele>525.0</ele><time>2026-05-01T13:49:57.978Z</time></trkpt><trkpt lat="40.133235" lon="15.61782"><ele>525.0</ele><time>2026-05-01T13:49:58.978Z</time></trkpt><trkpt lat="40.1333067" lon="15.6179683"><ele>526.75</ele><time>2026-05-01T13:49:59.978Z</time></trkpt><trkpt lat="40.1334067" lon="15.6180983"><ele>528.5</ele><time>2026-05-01T13:50:00.978Z</time></trkpt><trkpt lat="40.1335133" lon="15.6182133"><ele>530.25</ele><time>2026-05-01T13:50:01.978Z</time></trkpt><trkpt lat="40.13361" lon="15.61827"><ele>532.0</ele><time>2026-05-01T13:50:02.978Z</time></trkpt><trkpt lat="40.1336967" lon="15.6182983"><ele>532.0</ele><time>2026-05-01T13:50:03.979Z</time></trkpt><trkpt lat="40.1337867" lon="15.6183033"><ele>532.0</ele><time>2026-05-01T13:50:04.979Z</time></trkpt><trkpt lat="40.1338683" lon="15.618285"><ele>532.0</ele><time>2026-05-01T13:50:05.978Z</time></trkpt><trkpt lat="40.1339567" lon="15.6182267"><ele>532.0</ele><time>2026-05-01T13:50:06.978Z</time></trkpt><trkpt lat="40.1340333" lon="15.6181567"><ele>532.0</ele><time>2026-05-01T13:50:07.979Z</time></trkpt><trkpt lat="40.1341217" lon="15.6180733"><ele>530.4</ele><time>2026-05-01T13:50:08.979Z</time></trkpt><trkpt lat="40.1342083" lon="15.6180317"><ele>528.8000000000001</ele><time>2026-05-01T13:50:09.978Z</time></trkpt><trkpt lat="40.1343183" lon="15.61802"><ele>527.2</ele><time>2026-05-01T13:50:10.978Z</time></trkpt><trkpt lat="40.134425" lon="15.6180467"><ele>525.6</ele><time>2026-05-01T13:50:11.978Z</time></trkpt><trkpt lat="40.1345317" lon="15.6180917"><ele>524.0</ele><time>2026-05-01T13:50:12.979Z</time></trkpt><trkpt lat="40.13464" lon="15.6181283"><ele>524.0</ele><time>2026-05-01T13:50:13.978Z</time></trkpt><trkpt lat="40.1347617" lon="15.6181317"><ele>524.0</ele><time>2026-05-01T13:50:14.978Z</time></trkpt><trkpt lat="40.1348983" lon="15.6181067"><ele>524.0</ele><time>2026-05-01T13:50:15.979Z</time></trkpt><trkpt lat="40.1350383" lon="15.61806"><ele>524.0</ele><time>2026-05-01T13:50:16.978Z</time></trkpt><trkpt lat="40.13518" lon="15.6180133"><ele>526.5</ele><time>2026-05-01T13:50:17.979Z</time></trkpt><trkpt lat="40.135315" lon="15.6179917"><ele>529.0</ele><time>2026-05-01T13:50:18.978Z</time></trkpt><trkpt lat="40.13543" lon="15.6179617"><ele>531.5</ele><time>2026-05-01T13:50:19.978Z</time></trkpt><trkpt lat="40.1355167" lon="15.6178983"><ele>534.0</ele><time>2026-05-01T13:50:20.979Z</time></trkpt><trkpt lat="40.1355867" lon="15.6178033"><ele>527.25</ele><time>2026-05-01T13:50:21.979Z</time></trkpt><trkpt lat="40.1356417" lon="15.6176483"><ele>520.5</ele><time>2026-05-01T13:50:22.978Z</time></trkpt><trkpt lat="40.1356867" lon="15.6174717"><ele>513.75</ele><time>2026-05-01T13:50:23.978Z</time></trkpt><trkpt lat="40.1357117" lon="15.6172883"><ele>507.0</ele><time>2026-05-01T13:50:24.978Z</time></trkpt><trkpt lat="40.1357133" lon="15.6171"><ele>505.0</ele><time>2026-05-01T13:50:25.978Z</time></trkpt><trkpt lat="40.1356883" lon="15.6169083"><ele>503.0</ele><time>2026-05-01T13:50:26.979Z</time></trkpt><trkpt lat="40.1356433" lon="15.6167217"><ele>501.0</ele><time>2026-05-01T13:50:27.979Z</time></trkpt><trkpt lat="40.1355867" lon="15.6165367"><ele>501.0</ele><time>2026-05-01T13:50:28.978Z</time></trkpt><trkpt lat="40.135525" lon="15.6163333"><ele>501.0</ele><time>2026-05-01T13:50:29.979Z</time></trkpt><trkpt lat="40.1354733" lon="15.6161467"><ele>501.0</ele><time>2026-05-01T13:50:30.978Z</time></trkpt><trkpt lat="40.1354417" lon="15.615965"><ele>502.0</ele><time>2026-05-01T13:50:31.978Z</time></trkpt><trkpt lat="40.135425" lon="15.6157933"><ele>503.0</ele><time>2026-05-01T13:50:32.978Z</time></trkpt><trkpt lat="40.1354117" lon="15.61562"><ele>504.0</ele><time>2026-05-01T13:50:33.979Z</time></trkpt><trkpt lat="40.1354233" lon="15.6154717"><ele>505.0</ele><time>2026-05-01T13:50:34.979Z</time></trkpt><trkpt lat="40.1354533" lon="15.61533"><ele>503.5</ele><time>2026-05-01T13:50:35.978Z</time></trkpt><trkpt lat="40.1355" lon="15.61519"><ele>502.0</ele><time>2026-05-01T13:50:36.978Z</time></trkpt><trkpt lat="40.13556" lon="15.6150617"><ele>500.5</ele><time>2026-05-01T13:50:37.979Z</time></trkpt><trkpt lat="40.1356333" lon="15.6149517"><ele>499.0</ele><time>2026-05-01T13:50:38.978Z</time></trkpt><trkpt lat="40.1357417" lon="15.6148617"><ele>505.75</ele><time>2026-05-01T13:50:39.978Z</time></trkpt><trkpt lat="40.13585" lon="15.61479"><ele>512.5</ele><time>2026-05-01T13:50:40.978Z</time></trkpt><trkpt lat="40.13596" lon="15.6147583"><ele>519.25</ele><time>2026-05-01T13:50:41.978Z</time></trkpt><trkpt lat="40.13607" lon="15.61476"><ele>526.0</ele><time>2026-05-01T13:50:42.978Z</time></trkpt><trkpt lat="40.1361867" lon="15.6148"><ele>526.0</ele><time>2026-05-01T13:50:43.978Z</time></trkpt><trkpt lat="40.1363083" lon="15.6148367"><ele>526.0</ele><time>2026-05-01T13:50:44.978Z</time></trkpt><trkpt lat="40.136435" lon="15.6149033"><ele>526.0</ele><time>2026-05-01T13:50:45.978Z</time></trkpt><trkpt lat="40.136585" lon="15.614965"><ele>526.0</ele><time>2026-05-01T13:50:46.978Z</time></trkpt><trkpt lat="40.1367383" lon="15.6150183"><ele>527.5</ele><time>2026-05-01T13:50:47.979Z</time></trkpt><trkpt lat="40.1368767" lon="15.6150783"><ele>529.0</ele><time>2026-05-01T13:50:48.978Z</time></trkpt><trkpt lat="40.1370033" lon="15.6151367"><ele>530.5</ele><time>2026-05-01T13:50:49.978Z</time></trkpt><trkpt lat="40.13711" lon="15.6151883"><ele>532.0</ele><time>2026-05-01T13:50:50.978Z</time></trkpt><trkpt lat="40.1372033" lon="15.61523"><ele>532.0</ele><time>2026-05-01T13:50:51.978Z</time></trkpt><trkpt lat="40.1372833" lon="15.6152367"><ele>532.0</ele><time>2026-05-01T13:50:52.978Z</time></trkpt><trkpt lat="40.1373617" lon="15.6152367"><ele>532.0</ele><time>2026-05-01T13:50:53.978Z</time></trkpt><trkpt lat="40.1374333" lon="15.6151867"><ele>532.0</ele><time>2026-05-01T13:50:54.978Z</time></trkpt><trkpt lat="40.1375033" lon="15.6151017"><ele>532.0</ele><time>2026-05-01T13:50:55.978Z</time></trkpt><trkpt lat="40.13756" lon="15.6149933"><ele>532.0</ele><time>2026-05-01T13:50:56.978Z</time></trkpt><trkpt lat="40.13761" lon="15.6148367"><ele>533.0</ele><time>2026-05-01T13:50:57.978Z</time></trkpt><trkpt lat="40.13767" lon="15.614645"><ele>534.0</ele><time>2026-05-01T13:50:58.978Z</time></trkpt><trkpt lat="40.1377317" lon="15.6144233"><ele>535.0</ele><time>2026-05-01T13:50:59.978Z</time></trkpt><trkpt lat="40.1377867" lon="15.6142067"><ele>530.0</ele><time>2026-05-01T13:51:00.978Z</time></trkpt><trkpt lat="40.1378233" lon="15.6139967"><ele>525.0</ele><time>2026-05-01T13:51:01.978Z</time></trkpt><trkpt lat="40.1378533" lon="15.6138133"><ele>520.0</ele><time>2026-05-01T13:51:02.978Z</time></trkpt><trkpt lat="40.1378717" lon="15.6136333"><ele>515.0</ele><time>2026-05-01T13:51:03.978Z</time></trkpt><trkpt lat="40.1378817" lon="15.61347"><ele>513.0</ele><time>2026-05-01T13:51:04.978Z</time></trkpt><trkpt lat="40.137895" lon="15.61331"><ele>511.0</ele><time>2026-05-01T13:51:05.979Z</time></trkpt><trkpt lat="40.13792" lon="15.613155"><ele>509.0</ele><time>2026-05-01T13:51:06.978Z</time></trkpt><trkpt lat="40.1379633" lon="15.6130133"><ele>507.0</ele><time>2026-05-01T13:51:07.979Z</time></trkpt><trkpt lat="40.1380017" lon="15.612885"><ele>505.0</ele><time>2026-05-01T13:51:08.979Z</time></trkpt><trkpt lat="40.1380367" lon="15.6127417"><ele>503.0</ele><time>2026-05-01T13:51:09.978Z</time></trkpt><trkpt lat="40.1380533" lon="15.612605"><ele>501.0</ele><time>2026-05-01T13:51:10.978Z</time></trkpt><trkpt lat="40.138055" lon="15.6124467"><ele>499.0</ele><time>2026-05-01T13:51:11.978Z</time></trkpt><trkpt lat="40.138075" lon="15.6122783"><ele>499.0</ele><time>2026-05-01T13:51:12.978Z</time></trkpt><trkpt lat="40.1380967" lon="15.61212"><ele>499.0</ele><time>2026-05-01T13:51:13.978Z</time></trkpt><trkpt lat="40.1381333" lon="15.61199"><ele>499.0</ele><time>2026-05-01T13:51:14.979Z</time></trkpt><trkpt lat="40.1381933" lon="15.611875"><ele>499.0</ele><time>2026-05-01T13:51:15.979Z</time></trkpt><trkpt lat="40.1382717" lon="15.61178"><ele>499.0</ele><time>2026-05-01T13:51:16.978Z</time></trkpt><trkpt lat="40.13837" lon="15.6117017"><ele>504.25</ele><time>2026-05-01T13:51:17.978Z</time></trkpt><trkpt lat="40.1384833" lon="15.6116367"><ele>509.5</ele><time>2026-05-01T13:51:18.979Z</time></trkpt><trkpt lat="40.13861" lon="15.6115817"><ele>514.75</ele><time>2026-05-01T13:51:19.978Z</time></trkpt><trkpt lat="40.138745" lon="15.6115267"><ele>520.0</ele><time>2026-05-01T13:51:20.978Z</time></trkpt><trkpt lat="40.1388767" lon="15.61147"><ele>520.0</ele><time>2026-05-01T13:51:21.978Z</time></trkpt><trkpt lat="40.1390017" lon="15.6114133"><ele>520.0</ele><time>2026-05-01T13:51:22.978Z</time></trkpt><trkpt lat="40.1391283" lon="15.6113567"><ele>520.0</ele><time>2026-05-01T13:51:23.978Z</time></trkpt><trkpt lat="40.1392433" lon="15.611265"><ele>520.0</ele><time>2026-05-01T13:51:24.979Z</time></trkpt><trkpt lat="40.13936" lon="15.611175"><ele>518.8</ele><time>2026-05-01T13:51:25.978Z</time></trkpt><trkpt lat="40.1394583" lon="15.6110733"><ele>517.6</ele><time>2026-05-01T13:51:26.978Z</time></trkpt><trkpt lat="40.1395383" lon="15.610975"><ele>516.4</ele><time>2026-05-01T13:51:27.978Z</time></trkpt><trkpt lat="40.13961" lon="15.6108733"><ele>515.2</ele><time>2026-05-01T13:51:28.979Z</time></trkpt><trkpt lat="40.139655" lon="15.6107783"><ele>514.0</ele><time>2026-05-01T13:51:29.978Z</time></trkpt><trkpt lat="40.13968" lon="15.6106583"><ele>514.0</ele><time>2026-05-01T13:51:30.979Z</time></trkpt><trkpt lat="40.1396967" lon="15.61052"><ele>514.0</ele><time>2026-05-01T13:51:31.978Z</time></trkpt><trkpt lat="40.1397083" lon="15.61036"><ele>514.0</ele><time>2026-05-01T13:51:32.978Z</time></trkpt><trkpt lat="40.1397117" lon="15.6101867"><ele>514.0</ele><time>2026-05-01T13:51:33.978Z</time></trkpt><trkpt lat="40.139715" lon="15.6100167"><ele>510.75</ele><time>2026-05-01T13:51:34.978Z</time></trkpt><trkpt lat="40.139715" lon="15.6098517"><ele>507.5</ele><time>2026-05-01T13:51:35.979Z</time></trkpt><trkpt lat="40.139705" lon="15.6096883"><ele>504.25</ele><time>2026-05-01T13:51:36.978Z</time></trkpt><trkpt lat="40.1396917" lon="15.6095333"><ele>501.0</ele><time>2026-05-01T13:51:37.979Z</time></trkpt><trkpt lat="40.1396883" lon="15.609395"><ele>499.6666666666667</ele><time>2026-05-01T13:51:38.978Z</time></trkpt><trkpt lat="40.139695" lon="15.6092867"><ele>498.33333333333337</ele><time>2026-05-01T13:51:39.978Z</time></trkpt><trkpt lat="40.1397267" lon="15.6091967"><ele>497.0</ele><time>2026-05-01T13:51:40.978Z</time></trkpt><trkpt lat="40.1397717" lon="15.6091367"><ele>495.6666666666667</ele><time>2026-05-01T13:51:41.978Z</time></trkpt><trkpt lat="40.1398433" lon="15.609115"><ele>494.33333333333337</ele><time>2026-05-01T13:51:42.978Z</time></trkpt><trkpt lat="40.139945" lon="15.6091217"><ele>493.0</ele><time>2026-05-01T13:51:43.978Z</time></trkpt><trkpt lat="40.1400667" lon="15.6091517"><ele>496.2</ele><time>2026-05-01T13:51:44.978Z</time></trkpt><trkpt lat="40.1401817" lon="15.6091767"><ele>499.4</ele><time>2026-05-01T13:51:45.979Z</time></trkpt><trkpt lat="40.140285" lon="15.60918"><ele>502.59999999999997</ele><time>2026-05-01T13:51:46.979Z</time></trkpt><trkpt lat="40.1403867" lon="15.6091867"><ele>505.79999999999995</ele><time>2026-05-01T13:51:47.979Z</time></trkpt><trkpt lat="40.140465" lon="15.6092"><ele>509.0</ele><time>2026-05-01T13:51:48.978Z</time></trkpt><trkpt lat="40.1405433" lon="15.609225"><ele>509.0</ele><time>2026-05-01T13:51:49.978Z</time></trkpt><trkpt lat="40.1406217" lon="15.6092583"><ele>509.0</ele><time>2026-05-01T13:51:50.978Z</time></trkpt><trkpt lat="40.14069" lon="15.6093233"><ele>509.0</ele><time>2026-05-01T13:51:51.978Z</time></trkpt><trkpt lat="40.140755" lon="15.6094083"><ele>509.0</ele><time>2026-05-01T13:51:52.978Z</time></trkpt><trkpt lat="40.1408083" lon="15.6095317"><ele>509.0</ele><time>2026-05-01T13:51:53.979Z</time></trkpt><trkpt lat="40.1408267" lon="15.609675"><ele>508.66666666666663</ele><time>2026-05-01T13:51:54.978Z</time></trkpt><trkpt lat="40.1408333" lon="15.6097967"><ele>508.3333333333333</ele><time>2026-05-01T13:51:55.979Z</time></trkpt><trkpt lat="40.1408233" lon="15.6098933"><ele>508.0</ele><time>2026-05-01T13:51:56.978Z</time></trkpt><trkpt lat="40.1407883" lon="15.6099783"><ele>507.66666666666663</ele><time>2026-05-01T13:51:57.978Z</time></trkpt><trkpt lat="40.1407367" lon="15.6100383"><ele>507.3333333333333</ele><time>2026-05-01T13:51:58.978Z</time></trkpt><trkpt lat="40.1406367" lon="15.6100817"><ele>507.0</ele><time>2026-05-01T13:51:59.979Z</time></trkpt><trkpt lat="40.14056" lon="15.61013"><ele>509.40000000000003</ele><time>2026-05-01T13:52:00.978Z</time></trkpt><trkpt lat="40.1405083" lon="15.61019"><ele>511.80000000000007</ele><time>2026-05-01T13:52:01.978Z</time></trkpt><trkpt lat="40.1405183" lon="15.6103683"><ele>514.2</ele><time>2026-05-01T13:52:03.978Z</time></trkpt><trkpt lat="40.1405667" lon="15.610465"><ele>516.6</ele><time>2026-05-01T13:52:04.979Z</time></trkpt><trkpt lat="40.1406233" lon="15.61057"><ele>519.0</ele><time>2026-05-01T13:52:05.978Z</time></trkpt><trkpt lat="40.1406767" lon="15.6106933"><ele>519.4</ele><time>2026-05-01T13:52:06.978Z</time></trkpt><trkpt lat="40.1407117" lon="15.6108283"><ele>519.8</ele><time>2026-05-01T13:52:07.979Z</time></trkpt><trkpt lat="40.1407367" lon="15.61095"><ele>520.2</ele><time>2026-05-01T13:52:08.979Z</time></trkpt><trkpt lat="40.14074" lon="15.611075"><ele>520.6</ele><time>2026-05-01T13:52:09.978Z</time></trkpt><trkpt lat="40.140695" lon="15.6111883"><ele>521.0</ele><time>2026-05-01T13:52:10.979Z</time></trkpt><trkpt lat="40.14063" lon="15.6112917"><ele>520.2</ele><time>2026-05-01T13:52:11.978Z</time></trkpt><trkpt lat="40.1405533" lon="15.611395"><ele>519.4000000000001</ele><time>2026-05-01T13:52:12.979Z</time></trkpt><trkpt lat="40.1404833" lon="15.6114933"><ele>518.6</ele><time>2026-05-01T13:52:13.978Z</time></trkpt><trkpt lat="40.1404483" lon="15.6116083"><ele>517.8000000000001</ele><time>2026-05-01T13:52:14.978Z</time></trkpt><trkpt lat="40.14042" lon="15.611735"><ele>517.0</ele><time>2026-05-01T13:52:15.978Z</time></trkpt><trkpt lat="40.1403917" lon="15.611855"><ele>517.0</ele><time>2026-05-01T13:52:16.978Z</time></trkpt><trkpt lat="40.140355" lon="15.6119717"><ele>517.0</ele><time>2026-05-01T13:52:17.978Z</time></trkpt><trkpt lat="40.1403133" lon="15.6120833"><ele>517.0</ele><time>2026-05-01T13:52:18.978Z</time></trkpt><trkpt lat="40.1402617" lon="15.6121767"><ele>517.0</ele><time>2026-05-01T13:52:19.978Z</time></trkpt><trkpt lat="40.1402117" lon="15.61226"><ele>517.0</ele><time>2026-05-01T13:52:20.979Z</time></trkpt><trkpt lat="40.1401483" lon="15.61233"><ele>517.0</ele><time>2026-05-01T13:52:21.979Z</time></trkpt><trkpt lat="40.1400867" lon="15.6123983"><ele>515.4</ele><time>2026-05-01T13:52:22.979Z</time></trkpt><trkpt lat="40.1400267" lon="15.6124717"><ele>513.8000000000001</ele><time>2026-05-01T13:52:23.978Z</time></trkpt><trkpt lat="40.139985" lon="15.6125667"><ele>512.2</ele><time>2026-05-01T13:52:24.979Z</time></trkpt><trkpt lat="40.13996" lon="15.6126683"><ele>510.6</ele><time>2026-05-01T13:52:25.978Z</time></trkpt><trkpt lat="40.1399483" lon="15.6127983"><ele>509.0</ele><time>2026-05-01T13:52:26.978Z</time></trkpt><trkpt lat="40.1399467" lon="15.6129483"><ele>507.79999999999995</ele><time>2026-05-01T13:52:27.978Z</time></trkpt><trkpt lat="40.13996" lon="15.613115"><ele>506.59999999999997</ele><time>2026-05-01T13:52:28.979Z</time></trkpt><trkpt lat="40.1399633" lon="15.6132733"><ele>505.4</ele><time>2026-05-01T13:52:29.978Z</time></trkpt><trkpt lat="40.13996" lon="15.6134117"><ele>504.2</ele><time>2026-05-01T13:52:30.979Z</time></trkpt><trkpt lat="40.13995" lon="15.6135283"><ele>503.0</ele><time>2026-05-01T13:52:31.978Z</time></trkpt><trkpt lat="40.139965" lon="15.6136317"><ele>502.99999999999994</ele><time>2026-05-01T13:52:32.979Z</time></trkpt><trkpt lat="40.14001" lon="15.6137133"><ele>503.0</ele><time>2026-05-01T13:52:33.978Z</time></trkpt><trkpt lat="40.1400733" lon="15.6137667"><ele>503.0</ele><time>2026-05-01T13:52:34.979Z</time></trkpt><trkpt lat="40.1401417" lon="15.61379"><ele>503.0</ele><time>2026-05-01T13:52:35.978Z</time></trkpt><trkpt lat="40.14022" lon="15.6137583"><ele>502.99999999999994</ele><time>2026-05-01T13:52:36.979Z</time></trkpt><trkpt lat="40.1402917" lon="15.61369"><ele>503.0</ele><time>2026-05-01T13:52:37.978Z</time></trkpt><trkpt lat="40.1403567" lon="15.61358"><ele>503.0</ele><time>2026-05-01T13:52:38.978Z</time></trkpt><trkpt lat="40.140405" lon="15.6134433"><ele>503.0</ele><time>2026-05-01T13:52:39.978Z</time></trkpt><trkpt lat="40.1404333" lon="15.6132733"><ele>503.0</ele><time>2026-05-01T13:52:40.979Z</time></trkpt><trkpt lat="40.140455" lon="15.6131067"><ele>503.0</ele><time>2026-05-01T13:52:41.978Z</time></trkpt><trkpt lat="40.14049" lon="15.6129783"><ele>503.0</ele><time>2026-05-01T13:52:42.978Z</time></trkpt><trkpt lat="40.1405483" lon="15.6128733"><ele>503.0</ele><time>2026-05-01T13:52:43.978Z</time></trkpt><trkpt lat="40.1406417" lon="15.6127833"><ele>503.0</ele><time>2026-05-01T13:52:44.978Z</time></trkpt><trkpt lat="40.1407533" lon="15.6127067"><ele>503.0</ele><time>2026-05-01T13:52:45.979Z</time></trkpt><trkpt lat="40.1408933" lon="15.6126267"><ele>500.3333333333333</ele><time>2026-05-01T13:52:46.978Z</time></trkpt><trkpt lat="40.1410717" lon="15.6125367"><ele>497.66666666666663</ele><time>2026-05-01T13:52:47.978Z</time></trkpt><trkpt lat="40.1412633" lon="15.6124317"><ele>495.0</ele><time>2026-05-01T13:52:48.979Z</time></trkpt><trkpt lat="40.141445" lon="15.6123183"><ele>495.5</ele><time>2026-05-01T13:52:49.978Z</time></trkpt><trkpt lat="40.1415917" lon="15.6122067"><ele>496.0</ele><time>2026-05-01T13:52:50.979Z</time></trkpt><trkpt lat="40.1417133" lon="15.6121217"><ele>496.5</ele><time>2026-05-01T13:52:51.979Z</time></trkpt><trkpt lat="40.1418367" lon="15.6120733"><ele>497.0</ele><time>2026-05-01T13:52:52.978Z</time></trkpt><trkpt lat="40.1419467" lon="15.6120567"><ele>497.0</ele><time>2026-05-01T13:52:53.979Z</time></trkpt><trkpt lat="40.1420533" lon="15.6120883"><ele>497.00000000000006</ele><time>2026-05-01T13:52:54.978Z</time></trkpt><trkpt lat="40.142155" lon="15.6121517"><ele>497.00000000000006</ele><time>2026-05-01T13:52:55.979Z</time></trkpt><trkpt lat="40.142245" lon="15.6122417"><ele>497.0</ele><time>2026-05-01T13:52:56.978Z</time></trkpt><trkpt lat="40.1423367" lon="15.61232"><ele>497.0</ele><time>2026-05-01T13:52:57.978Z</time></trkpt><trkpt lat="40.1424217" lon="15.6123783"><ele>495.0</ele><time>2026-05-01T13:52:58.979Z</time></trkpt><trkpt lat="40.1425333" lon="15.61241"><ele>493.0</ele><time>2026-05-01T13:52:59.979Z</time></trkpt><trkpt lat="40.142655" lon="15.6124033"><ele>491.0</ele><time>2026-05-01T13:53:00.979Z</time></trkpt><trkpt lat="40.1428033" lon="15.6123917"><ele>489.0</ele><time>2026-05-01T13:53:01.978Z</time></trkpt><trkpt lat="40.1429867" lon="15.6123517"><ele>489.0</ele><time>2026-05-01T13:53:02.978Z</time></trkpt><trkpt lat="40.1431783" lon="15.612325"><ele>489.0</ele><time>2026-05-01T13:53:03.979Z</time></trkpt><trkpt lat="40.143365" lon="15.6123167"><ele>489.0</ele><time>2026-05-01T13:53:04.979Z</time></trkpt><trkpt lat="40.1435267" lon="15.6123067"><ele>488.0</ele><time>2026-05-01T13:53:05.978Z</time></trkpt><trkpt lat="40.1436717" lon="15.6122967"><ele>487.0</ele><time>2026-05-01T13:53:06.979Z</time></trkpt><trkpt lat="40.14379" lon="15.6123017"><ele>486.0</ele><time>2026-05-01T13:53:07.978Z</time></trkpt><trkpt lat="40.1438967" lon="15.612335"><ele>485.0</ele><time>2026-05-01T13:53:08.978Z</time></trkpt><trkpt lat="40.1439917" lon="15.61241"><ele>483.6</ele><time>2026-05-01T13:53:09.979Z</time></trkpt><trkpt lat="40.1440733" lon="15.6124817"><ele>482.2</ele><time>2026-05-01T13:53:10.978Z</time></trkpt><trkpt lat="40.1441333" lon="15.612565"><ele>480.79999999999995</ele><time>2026-05-01T13:53:11.978Z</time></trkpt><trkpt lat="40.1441633" lon="15.612675"><ele>479.4</ele><time>2026-05-01T13:53:12.978Z</time></trkpt><trkpt lat="40.1441667" lon="15.61279"><ele>478.0</ele><time>2026-05-01T13:53:13.978Z</time></trkpt><trkpt lat="40.1441367" lon="15.6129267"><ele>478.0</ele><time>2026-05-01T13:53:14.978Z</time></trkpt><trkpt lat="40.1440933" lon="15.6130733"><ele>478.0</ele><time>2026-05-01T13:53:15.979Z</time></trkpt><trkpt lat="40.1440517" lon="15.6132217"><ele>478.0</ele><time>2026-05-01T13:53:16.978Z</time></trkpt><trkpt lat="40.1440133" lon="15.61336"><ele>478.0</ele><time>2026-05-01T13:53:17.979Z</time></trkpt><trkpt lat="40.1439783" lon="15.6134883"><ele>481.79999999999995</ele><time>2026-05-01T13:53:18.978Z</time></trkpt><trkpt lat="40.1439767" lon="15.6136017"><ele>485.59999999999997</ele><time>2026-05-01T13:53:19.979Z</time></trkpt><trkpt lat="40.144" lon="15.6137"><ele>489.40000000000003</ele><time>2026-05-01T13:53:20.978Z</time></trkpt><trkpt lat="40.1440567" lon="15.6137767"><ele>493.20000000000005</ele><time>2026-05-01T13:53:21.978Z</time></trkpt><trkpt lat="40.144135" lon="15.6138483"><ele>497.0</ele><time>2026-05-01T13:53:22.978Z</time></trkpt><trkpt lat="40.1442483" lon="15.61388"><ele>497.0</ele><time>2026-05-01T13:53:23.978Z</time></trkpt><trkpt lat="40.1443783" lon="15.613895"><ele>497.0</ele><time>2026-05-01T13:53:24.978Z</time></trkpt><trkpt lat="40.1445283" lon="15.6138917"><ele>497.0</ele><time>2026-05-01T13:53:25.979Z</time></trkpt><trkpt lat="40.144675" lon="15.61388"><ele>497.0</ele><time>2026-05-01T13:53:26.978Z</time></trkpt><trkpt lat="40.1448083" lon="15.6138667"><ele>493.40000000000003</ele><time>2026-05-01T13:53:27.979Z</time></trkpt><trkpt lat="40.1449267" lon="15.6138367"><ele>489.80000000000007</ele><time>2026-05-01T13:53:28.979Z</time></trkpt><trkpt lat="40.1450283" lon="15.6138133"><ele>486.2</ele><time>2026-05-01T13:53:29.978Z</time></trkpt><trkpt lat="40.1451267" lon="15.6138367"><ele>482.6</ele><time>2026-05-01T13:53:30.979Z</time></trkpt><trkpt lat="40.1452033" lon="15.61388"><ele>479.0</ele><time>2026-05-01T13:53:31.978Z</time></trkpt><trkpt lat="40.1452683" lon="15.61395"><ele>479.0</ele><time>2026-05-01T13:53:32.978Z</time></trkpt><trkpt lat="40.14531" lon="15.6140483"><ele>479.0</ele><time>2026-05-01T13:53:33.978Z</time></trkpt><trkpt lat="40.1453033" lon="15.6141583"><ele>479.0</ele><time>2026-05-01T13:53:34.978Z</time></trkpt><trkpt lat="40.1452783" lon="15.61429"><ele>479.0</ele><time>2026-05-01T13:53:35.978Z</time></trkpt><trkpt lat="40.1452167" lon="15.614475"><ele>479.0</ele><time>2026-05-01T13:53:36.979Z</time></trkpt><trkpt lat="40.145135" lon="15.6147067"><ele>477.66666666666663</ele><time>2026-05-01T13:53:37.978Z</time></trkpt><trkpt lat="40.1450667" lon="15.6149167"><ele>476.33333333333337</ele><time>2026-05-01T13:53:38.978Z</time></trkpt><trkpt lat="40.1450033" lon="15.6151133"><ele>475.0</ele><time>2026-05-01T13:53:39.979Z</time></trkpt><trkpt lat="40.14493" lon="15.615265"><ele>478.0</ele><time>2026-05-01T13:53:40.979Z</time></trkpt><trkpt lat="40.1448317" lon="15.61541"><ele>481.0</ele><time>2026-05-01T13:53:41.978Z</time></trkpt><trkpt lat="40.1447217" lon="15.6155483"><ele>484.0</ele><time>2026-05-01T13:53:42.978Z</time></trkpt><trkpt lat="40.1446183" lon="15.61567"><ele>487.0</ele><time>2026-05-01T13:53:43.978Z</time></trkpt><trkpt lat="40.14452" lon="15.6158117"><ele>487.0</ele><time>2026-05-01T13:53:44.978Z</time></trkpt><trkpt lat="40.1444167" lon="15.6159583"><ele>487.0</ele><time>2026-05-01T13:53:45.979Z</time></trkpt><trkpt lat="40.1443267" lon="15.6161117"><ele>487.0</ele><time>2026-05-01T13:53:46.979Z</time></trkpt><trkpt lat="40.144245" lon="15.6162667"><ele>487.0</ele><time>2026-05-01T13:53:47.978Z</time></trkpt><trkpt lat="40.1441917" lon="15.616425"><ele>489.25</ele><time>2026-05-01T13:53:48.978Z</time></trkpt><trkpt lat="40.1441383" lon="15.6165767"><ele>491.5</ele><time>2026-05-01T13:53:49.978Z</time></trkpt><trkpt lat="40.1440917" lon="15.61671"><ele>493.75</ele><time>2026-05-01T13:53:50.979Z</time></trkpt><trkpt lat="40.1440383" lon="15.6168317"><ele>496.0</ele><time>2026-05-01T13:53:51.979Z</time></trkpt><trkpt lat="40.1439717" lon="15.61695"><ele>490.0</ele><time>2026-05-01T13:53:52.978Z</time></trkpt><trkpt lat="40.1438933" lon="15.6170467"><ele>484.0</ele><time>2026-05-01T13:53:53.978Z</time></trkpt><trkpt lat="40.1437883" lon="15.617115"><ele>478.0</ele><time>2026-05-01T13:53:54.978Z</time></trkpt><trkpt lat="40.1436667" lon="15.6171883"><ele>472.0</ele><time>2026-05-01T13:53:55.978Z</time></trkpt><trkpt lat="40.1435767" lon="15.6172883"><ele>472.0</ele><time>2026-05-01T13:53:56.978Z</time></trkpt><trkpt lat="40.14351" lon="15.6174233"><ele>472.0</ele><time>2026-05-01T13:53:57.978Z</time></trkpt><trkpt lat="40.1434717" lon="15.61757"><ele>472.0</ele><time>2026-05-01T13:53:58.979Z</time></trkpt><trkpt lat="40.14344" lon="15.6177083"><ele>472.0</ele><time>2026-05-01T13:53:59.978Z</time></trkpt><trkpt lat="40.1434167" lon="15.6178467"><ele>471.00000000000006</ele><time>2026-05-01T13:54:00.978Z</time></trkpt><trkpt lat="40.1434083" lon="15.6179783"><ele>470.0</ele><time>2026-05-01T13:54:01.978Z</time></trkpt><trkpt lat="40.1434133" lon="15.6180867"><ele>469.0</ele><time>2026-05-01T13:54:02.978Z</time></trkpt><trkpt lat="40.143435" lon="15.6181883"><ele>468.0</ele><time>2026-05-01T13:54:03.978Z</time></trkpt><trkpt lat="40.1434933" lon="15.6182783"><ele>467.00000000000006</ele><time>2026-05-01T13:54:04.978Z</time></trkpt><trkpt lat="40.1435617" lon="15.61835"><ele>466.0</ele><time>2026-05-01T13:54:05.978Z</time></trkpt><trkpt lat="40.1435967" lon="15.6184283"><ele>466.0</ele><time>2026-05-01T13:54:06.979Z</time></trkpt><trkpt lat="40.1436133" lon="15.6185167"><ele>466.0</ele><time>2026-05-01T13:54:07.978Z</time></trkpt><trkpt lat="40.1435967" lon="15.618625"><ele>466.0</ele><time>2026-05-01T13:54:08.978Z</time></trkpt><trkpt lat="40.1435533" lon="15.6187583"><ele>466.0</ele><time>2026-05-01T13:54:09.978Z</time></trkpt><trkpt lat="40.143485" lon="15.618925"><ele>466.0</ele><time>2026-05-01T13:54:10.978Z</time></trkpt><trkpt lat="40.143405" lon="15.619095"><ele>463.25</ele><time>2026-05-01T13:54:11.978Z</time></trkpt><trkpt lat="40.1433267" lon="15.6192383"><ele>460.5</ele><time>2026-05-01T13:54:12.978Z</time></trkpt><trkpt lat="40.1432417" lon="15.61937"><ele>457.75</ele><time>2026-05-01T13:54:13.979Z</time></trkpt><trkpt lat="40.1431617" lon="15.6195017"><ele>455.0</ele><time>2026-05-01T13:54:14.978Z</time></trkpt><trkpt lat="40.1430967" lon="15.61962"><ele>459.8</ele><time>2026-05-01T13:54:15.978Z</time></trkpt><trkpt lat="40.1430383" lon="15.6197417"><ele>464.6</ele><time>2026-05-01T13:54:16.979Z</time></trkpt><trkpt lat="40.1429917" lon="15.6198567"><ele>469.4</ele><time>2026-05-01T13:54:17.979Z</time></trkpt><trkpt lat="40.1429633" lon="15.619975"><ele>474.2</ele><time>2026-05-01T13:54:18.978Z</time></trkpt><trkpt lat="40.1429433" lon="15.6200983"><ele>479.0</ele><time>2026-05-01T13:54:19.978Z</time></trkpt><trkpt lat="40.1429533" lon="15.62022"><ele>477.99999999999994</ele><time>2026-05-01T13:54:20.978Z</time></trkpt><trkpt lat="40.1429867" lon="15.6203367"><ele>477.0</ele><time>2026-05-01T13:54:21.978Z</time></trkpt><trkpt lat="40.1430317" lon="15.62042"><ele>476.0</ele><time>2026-05-01T13:54:22.979Z</time></trkpt><trkpt lat="40.1430983" lon="15.6204667"><ele>475.0</ele><time>2026-05-01T13:54:23.978Z</time></trkpt><trkpt lat="40.1431633" lon="15.620465"><ele>473.99999999999994</ele><time>2026-05-01T13:54:24.979Z</time></trkpt><trkpt lat="40.1432467" lon="15.62041"><ele>473.0</ele><time>2026-05-01T13:54:25.978Z</time></trkpt><trkpt lat="40.1433583" lon="15.6203317"><ele>470.0</ele><time>2026-05-01T13:54:26.978Z</time></trkpt><trkpt lat="40.1434567" lon="15.6202883"><ele>467.0</ele><time>2026-05-01T13:54:27.979Z</time></trkpt><trkpt lat="40.1435533" lon="15.6203017"><ele>464.0</ele><time>2026-05-01T13:54:28.978Z</time></trkpt><trkpt lat="40.1436567" lon="15.6203633"><ele>461.0</ele><time>2026-05-01T13:54:29.978Z</time></trkpt><trkpt lat="40.1437783" lon="15.62044"><ele>461.0</ele><time>2026-05-01T13:54:30.979Z</time></trkpt><trkpt lat="40.1439083" lon="15.620505"><ele>461.0</ele><time>2026-05-01T13:54:31.978Z</time></trkpt><trkpt lat="40.1440383" lon="15.6205267"><ele>461.0</ele><time>2026-05-01T13:54:32.978Z</time></trkpt><trkpt lat="40.1441633" lon="15.6205133"><ele>461.0</ele><time>2026-05-01T13:54:33.979Z</time></trkpt><trkpt lat="40.1442883" lon="15.6204733"><ele>460.20000000000005</ele><time>2026-05-01T13:54:34.979Z</time></trkpt><trkpt lat="40.1444017" lon="15.6204167"><ele>459.40000000000003</ele><time>2026-05-01T13:54:35.979Z</time></trkpt><trkpt lat="40.1444983" lon="15.6203517"><ele>458.6</ele><time>2026-05-01T13:54:36.978Z</time></trkpt><trkpt lat="40.1445833" lon="15.62029"><ele>457.8</ele><time>2026-05-01T13:54:37.978Z</time></trkpt><trkpt lat="40.14465" lon="15.6202583"><ele>457.0</ele><time>2026-05-01T13:54:38.979Z</time></trkpt><trkpt lat="40.144715" lon="15.6202383"><ele>454.40000000000003</ele><time>2026-05-01T13:54:39.978Z</time></trkpt><trkpt lat="40.1447917" lon="15.6202617"><ele>451.80000000000007</ele><time>2026-05-01T13:54:40.979Z</time></trkpt><trkpt lat="40.1448817" lon="15.6203233"><ele>449.2</ele><time>2026-05-01T13:54:41.978Z</time></trkpt><trkpt lat="40.1449817" lon="15.6204267"><ele>446.6</ele><time>2026-05-01T13:54:42.978Z</time></trkpt><trkpt lat="40.1450817" lon="15.62054"><ele>444.0</ele><time>2026-05-01T13:54:43.978Z</time></trkpt><trkpt lat="40.1451733" lon="15.6206533"><ele>444.0</ele><time>2026-05-01T13:54:44.978Z</time></trkpt><trkpt lat="40.14526" lon="15.62076"><ele>444.0</ele><time>2026-05-01T13:54:45.978Z</time></trkpt><trkpt lat="40.1453383" lon="15.6208667"><ele>444.0</ele><time>2026-05-01T13:54:46.978Z</time></trkpt><trkpt lat="40.1454" lon="15.6209917"><ele>444.0</ele><time>2026-05-01T13:54:47.978Z</time></trkpt><trkpt lat="40.1454383" lon="15.6211467"><ele>448.75</ele><time>2026-05-01T13:54:48.979Z</time></trkpt><trkpt lat="40.1454733" lon="15.6213183"><ele>453.5</ele><time>2026-05-01T13:54:49.978Z</time></trkpt><trkpt lat="40.145515" lon="15.6214983"><ele>458.25</ele><time>2026-05-01T13:54:50.978Z</time></trkpt><trkpt lat="40.1455683" lon="15.6216783"><ele>463.0</ele><time>2026-05-01T13:54:51.978Z</time></trkpt><trkpt lat="40.145635" lon="15.6218617"><ele>465.0</ele><time>2026-05-01T13:54:52.979Z</time></trkpt><trkpt lat="40.1457083" lon="15.6220217"><ele>467.0</ele><time>2026-05-01T13:54:53.978Z</time></trkpt><trkpt lat="40.1457783" lon="15.6221717"><ele>469.0</ele><time>2026-05-01T13:54:54.978Z</time></trkpt><trkpt lat="40.1458483" lon="15.6223017"><ele>471.0</ele><time>2026-05-01T13:54:55.978Z</time></trkpt><trkpt lat="40.14593" lon="15.6224233"><ele>463.20000000000005</ele><time>2026-05-01T13:54:56.979Z</time></trkpt><trkpt lat="40.145995" lon="15.6225433"><ele>455.40000000000003</ele><time>2026-05-01T13:54:57.979Z</time></trkpt><trkpt lat="40.1460367" lon="15.622665"><ele>447.6</ele><time>2026-05-01T13:54:58.978Z</time></trkpt><trkpt lat="40.1460583" lon="15.62279"><ele>439.8</ele><time>2026-05-01T13:54:59.979Z</time></trkpt><trkpt lat="40.1460467" lon="15.622925"><ele>432.0</ele><time>2026-05-01T13:55:00.978Z</time></trkpt><trkpt lat="40.1460017" lon="15.62308"><ele>430.75</ele><time>2026-05-01T13:55:01.978Z</time></trkpt><trkpt lat="40.1459267" lon="15.62325"><ele>429.5</ele><time>2026-05-01T13:55:02.979Z</time></trkpt><trkpt lat="40.14587" lon="15.62342"><ele>428.25</ele><time>2026-05-01T13:55:03.978Z</time></trkpt><trkpt lat="40.14581" lon="15.6235783"><ele>427.0</ele><time>2026-05-01T13:55:04.979Z</time></trkpt><trkpt lat="40.1457567" lon="15.62374"><ele>434.75</ele><time>2026-05-01T13:55:05.979Z</time></trkpt><trkpt lat="40.1457083" lon="15.62389"><ele>442.5</ele><time>2026-05-01T13:55:06.978Z</time></trkpt><trkpt lat="40.1456467" lon="15.62402"><ele>450.25</ele><time>2026-05-01T13:55:07.978Z</time></trkpt><trkpt lat="40.1455883" lon="15.6241483"><ele>458.0</ele><time>2026-05-01T13:55:08.978Z</time></trkpt><trkpt lat="40.1455217" lon="15.6242617"><ele>458.0</ele><time>2026-05-01T13:55:09.978Z</time></trkpt><trkpt lat="40.14547" lon="15.62436"><ele>457.99999999999994</ele><time>2026-05-01T13:55:10.978Z</time></trkpt><trkpt lat="40.1454433" lon="15.6244667"><ele>457.99999999999994</ele><time>2026-05-01T13:55:11.979Z</time></trkpt><trkpt lat="40.145435" lon="15.6245617"><ele>458.0</ele><time>2026-05-01T13:55:12.978Z</time></trkpt><trkpt lat="40.1454933" lon="15.6247233"><ele>458.0</ele><time>2026-05-01T13:55:14.978Z</time></trkpt><trkpt lat="40.1455533" lon="15.6247883"><ele>454.79999999999995</ele><time>2026-05-01T13:55:15.978Z</time></trkpt><trkpt lat="40.1456483" lon="15.6248117"><ele>451.59999999999997</ele><time>2026-05-01T13:55:16.979Z</time></trkpt><trkpt lat="40.14574" lon="15.6247917"><ele>448.40000000000003</ele><time>2026-05-01T13:55:17.979Z</time></trkpt><trkpt lat="40.1458333" lon="15.62473"><ele>445.20000000000005</ele><time>2026-05-01T13:55:18.978Z</time></trkpt><trkpt lat="40.1459317" lon="15.6246683"><ele>442.0</ele><time>2026-05-01T13:55:19.978Z</time></trkpt><trkpt lat="40.1460383" lon="15.624635"><ele>440.0</ele><time>2026-05-01T13:55:20.978Z</time></trkpt><trkpt lat="40.1461433" lon="15.624635"><ele>438.00000000000006</ele><time>2026-05-01T13:55:21.978Z</time></trkpt><trkpt lat="40.146245" lon="15.6246483"><ele>436.00000000000006</ele><time>2026-05-01T13:55:22.978Z</time></trkpt><trkpt lat="40.14635" lon="15.6246783"><ele>434.0</ele><time>2026-05-01T13:55:23.978Z</time></trkpt><trkpt lat="40.146455" lon="15.6246967"><ele>432.0</ele><time>2026-05-01T13:55:24.978Z</time></trkpt><trkpt lat="40.1465717" lon="15.6246983"><ele>432.0</ele><time>2026-05-01T13:55:25.978Z</time></trkpt><trkpt lat="40.1466783" lon="15.6246967"><ele>432.00000000000006</ele><time>2026-05-01T13:55:26.979Z</time></trkpt><trkpt lat="40.1467867" lon="15.62468"><ele>432.00000000000006</ele><time>2026-05-01T13:55:27.978Z</time></trkpt><trkpt lat="40.1468817" lon="15.624675"><ele>432.0</ele><time>2026-05-01T13:55:28.979Z</time></trkpt><trkpt lat="40.1469733" lon="15.6246633"><ele>432.0</ele><time>2026-05-01T13:55:29.979Z</time></trkpt><trkpt lat="40.147065" lon="15.6246617"><ele>432.0</ele><time>2026-05-01T13:55:30.979Z</time></trkpt><trkpt lat="40.147145" lon="15.62465"><ele>432.0</ele><time>2026-05-01T13:55:31.979Z</time></trkpt><trkpt lat="40.147215" lon="15.624655"><ele>432.0</ele><time>2026-05-01T13:55:32.979Z</time></trkpt><trkpt lat="40.147285" lon="15.6246633"><ele>432.0</ele><time>2026-05-01T13:55:33.978Z</time></trkpt><trkpt lat="40.147365" lon="15.6246667"><ele>432.0</ele><time>2026-05-01T13:55:34.978Z</time></trkpt><trkpt lat="40.14745" lon="15.624675"><ele>432.0</ele><time>2026-05-01T13:55:35.978Z</time></trkpt><trkpt lat="40.1475383" lon="15.624665"><ele>433.40000000000003</ele><time>2026-05-01T13:55:36.978Z</time></trkpt><trkpt lat="40.147635" lon="15.6246483"><ele>434.80000000000007</ele><time>2026-05-01T13:55:37.978Z</time></trkpt><trkpt lat="40.1477333" lon="15.6246183"><ele>436.2</ele><time>2026-05-01T13:55:38.979Z</time></trkpt><trkpt lat="40.1478133" lon="15.6245833"><ele>437.6</ele><time>2026-05-01T13:55:39.978Z</time></trkpt><trkpt lat="40.1479067" lon="15.62456"><ele>439.0</ele><time>2026-05-01T13:55:40.978Z</time></trkpt><trkpt lat="40.1480067" lon="15.6245317"><ele>439.0</ele><time>2026-05-01T13:55:41.978Z</time></trkpt><trkpt lat="40.14811" lon="15.6245383"><ele>439.0</ele><time>2026-05-01T13:55:42.978Z</time></trkpt><trkpt lat="40.1482367" lon="15.62456"><ele>439.0</ele><time>2026-05-01T13:55:43.979Z</time></trkpt><trkpt lat="40.1483583" lon="15.6246033"><ele>439.0</ele><time>2026-05-01T13:55:44.978Z</time></trkpt><trkpt lat="40.1484883" lon="15.624635"><ele>437.79999999999995</ele><time>2026-05-01T13:55:45.979Z</time></trkpt><trkpt lat="40.1486167" lon="15.6246567"><ele>436.59999999999997</ele><time>2026-05-01T13:55:46.978Z</time></trkpt><trkpt lat="40.1487283" lon="15.6246717"><ele>435.4</ele><time>2026-05-01T13:55:47.978Z</time></trkpt><trkpt lat="40.1488217" lon="15.6246917"><ele>434.2</ele><time>2026-05-01T13:55:48.979Z</time></trkpt><trkpt lat="40.1489067" lon="15.6247033"><ele>433.0</ele><time>2026-05-01T13:55:49.979Z</time></trkpt><trkpt lat="40.148995" lon="15.6247117"><ele>430.4</ele><time>2026-05-01T13:55:50.979Z</time></trkpt><trkpt lat="40.149065" lon="15.6247283"><ele>427.79999999999995</ele><time>2026-05-01T13:55:51.978Z</time></trkpt><trkpt lat="40.14916" lon="15.6248267"><ele>425.2</ele><time>2026-05-01T13:55:53.979Z</time></trkpt><trkpt lat="40.14915" lon="15.624915"><ele>422.6</ele><time>2026-05-01T13:55:54.978Z</time></trkpt><trkpt lat="40.14913" lon="15.6250617"><ele>420.0</ele><time>2026-05-01T13:55:55.978Z</time></trkpt><trkpt lat="40.1491" lon="15.6252517"><ele>421.33333333333337</ele><time>2026-05-01T13:55:56.978Z</time></trkpt><trkpt lat="40.1490733" lon="15.6254883"><ele>422.6666666666667</ele><time>2026-05-01T13:55:57.978Z</time></trkpt><trkpt lat="40.1490433" lon="15.62576"><ele>424.0</ele><time>2026-05-01T13:55:58.979Z</time></trkpt><trkpt lat="40.1490067" lon="15.6260017"><ele>438.33333333333337</ele><time>2026-05-01T13:55:59.979Z</time></trkpt><trkpt lat="40.1489767" lon="15.6262317"><ele>452.66666666666663</ele><time>2026-05-01T13:56:00.978Z</time></trkpt><trkpt lat="40.1489517" lon="15.6264283"><ele>467.0</ele><time>2026-05-01T13:56:01.978Z</time></trkpt><trkpt lat="40.1489383" lon="15.62659"><ele>467.0</ele><time>2026-05-01T13:56:02.979Z</time></trkpt><trkpt lat="40.1489483" lon="15.626775"><ele>467.0</ele><time>2026-05-01T13:56:03.979Z</time></trkpt><trkpt lat="40.14899" lon="15.6269883"><ele>467.0</ele><time>2026-05-01T13:56:04.979Z</time></trkpt><trkpt lat="40.149035" lon="15.6271833"><ele>467.25</ele><time>2026-05-01T13:56:05.979Z</time></trkpt><trkpt lat="40.14906" lon="15.6273583"><ele>467.5</ele><time>2026-05-01T13:56:06.98Z</time></trkpt><trkpt lat="40.14904" lon="15.6275217"><ele>467.75</ele><time>2026-05-01T13:56:07.979Z</time></trkpt><trkpt lat="40.14899" lon="15.6276983"><ele>468.0</ele><time>2026-05-01T13:56:08.979Z</time></trkpt><trkpt lat="40.14892" lon="15.6278733"><ele>468.0</ele><time>2026-05-01T13:56:09.98Z</time></trkpt><trkpt lat="40.14885" lon="15.6280367"><ele>468.0</ele><time>2026-05-01T13:56:10.98Z</time></trkpt><trkpt lat="40.148795" lon="15.6281833"><ele>468.0</ele><time>2026-05-01T13:56:11.979Z</time></trkpt><trkpt lat="40.1487533" lon="15.6283383"><ele>468.0</ele><time>2026-05-01T13:56:12.979Z</time></trkpt><trkpt lat="40.1487383" lon="15.6284867"><ele>468.0</ele><time>2026-05-01T13:56:13.979Z</time></trkpt><trkpt lat="40.1487533" lon="15.6286417"><ele>468.0</ele><time>2026-05-01T13:56:14.98Z</time></trkpt><trkpt lat="40.1487833" lon="15.628795"><ele>468.0</ele><time>2026-05-01T13:56:15.979Z</time></trkpt><trkpt lat="40.148815" lon="15.6289417"><ele>468.0</ele><time>2026-05-01T13:56:16.979Z</time></trkpt><trkpt lat="40.1488433" lon="15.6290917"><ele>466.5</ele><time>2026-05-01T13:56:17.979Z</time></trkpt><trkpt lat="40.148875" lon="15.6292483"><ele>465.0</ele><time>2026-05-01T13:56:18.979Z</time></trkpt><trkpt lat="40.1488917" lon="15.6294083"><ele>463.5</ele><time>2026-05-01T13:56:19.979Z</time></trkpt><trkpt lat="40.148895" lon="15.62955"><ele>462.0</ele><time>2026-05-01T13:56:20.98Z</time></trkpt><trkpt lat="40.1488767" lon="15.6297"><ele>462.0</ele><time>2026-05-01T13:56:21.98Z</time></trkpt><trkpt lat="40.1488583" lon="15.62983"><ele>462.00000000000006</ele><time>2026-05-01T13:56:22.979Z</time></trkpt><trkpt lat="40.1488433" lon="15.6299517"><ele>462.00000000000006</ele><time>2026-05-01T13:56:23.979Z</time></trkpt><trkpt lat="40.1488467" lon="15.6300433"><ele>462.0</ele><time>2026-05-01T13:56:24.98Z</time></trkpt><trkpt lat="40.148915" lon="15.63019"><ele>462.0</ele><time>2026-05-01T13:56:26.979Z</time></trkpt><trkpt lat="40.14898" lon="15.6302133"><ele>456.0</ele><time>2026-05-01T13:56:27.979Z</time></trkpt><trkpt lat="40.149055" lon="15.63021"><ele>450.00000000000006</ele><time>2026-05-01T13:56:28.979Z</time></trkpt><trkpt lat="40.149125" lon="15.6301833"><ele>444.00000000000006</ele><time>2026-05-01T13:56:29.979Z</time></trkpt><trkpt lat="40.1492" lon="15.6301183"><ele>438.0</ele><time>2026-05-01T13:56:30.979Z</time></trkpt><trkpt lat="40.1492867" lon="15.6300333"><ele>432.0</ele><time>2026-05-01T13:56:31.98Z</time></trkpt><trkpt lat="40.1493867" lon="15.6299217"><ele>432.0</ele><time>2026-05-01T13:56:32.98Z</time></trkpt><trkpt lat="40.1494917" lon="15.6297567"><ele>432.0</ele><time>2026-05-01T13:56:33.979Z</time></trkpt><trkpt lat="40.1496067" lon="15.6295433"><ele>432.0</ele><time>2026-05-01T13:56:34.98Z</time></trkpt><trkpt lat="40.1497217" lon="15.6293233"><ele>432.0</ele><time>2026-05-01T13:56:35.979Z</time></trkpt><trkpt lat="40.149825" lon="15.6291383"><ele>432.0</ele><time>2026-05-01T13:56:36.98Z</time></trkpt><trkpt lat="40.1499233" lon="15.6289783"><ele>432.0</ele><time>2026-05-01T13:56:37.979Z</time></trkpt><trkpt lat="40.1500217" lon="15.6288467"><ele>432.0</ele><time>2026-05-01T13:56:38.979Z</time></trkpt><trkpt lat="40.150135" lon="15.6287267"><ele>432.0</ele><time>2026-05-01T13:56:39.979Z</time></trkpt><trkpt lat="40.1502467" lon="15.628595"><ele>432.0</ele><time>2026-05-01T13:56:40.98Z</time></trkpt><trkpt lat="40.1503567" lon="15.6284617"><ele>432.0</ele><time>2026-05-01T13:56:41.979Z</time></trkpt><trkpt lat="40.15047" lon="15.6283067"><ele>430.75</ele><time>2026-05-01T13:56:42.979Z</time></trkpt><trkpt lat="40.1505633" lon="15.6281483"><ele>429.5</ele><time>2026-05-01T13:56:43.979Z</time></trkpt><trkpt lat="40.150645" lon="15.6280017"><ele>428.25</ele><time>2026-05-01T13:56:44.979Z</time></trkpt><trkpt lat="40.1507117" lon="15.6278867"><ele>427.0</ele><time>2026-05-01T13:56:45.979Z</time></trkpt><trkpt lat="40.1507633" lon="15.6277883"><ele>427.00000000000006</ele><time>2026-05-01T13:56:46.98Z</time></trkpt><trkpt lat="40.150825" lon="15.6277383"><ele>427.0</ele><time>2026-05-01T13:56:47.979Z</time></trkpt><trkpt lat="40.150895" lon="15.6277083"><ele>427.0</ele><time>2026-05-01T13:56:48.979Z</time></trkpt><trkpt lat="40.1509817" lon="15.627725"><ele>427.0</ele><time>2026-05-01T13:56:49.98Z</time></trkpt><trkpt lat="40.1510683" lon="15.6277583"><ele>427.00000000000006</ele><time>2026-05-01T13:56:50.979Z</time></trkpt><trkpt lat="40.151155" lon="15.6278167"><ele>427.0</ele><time>2026-05-01T13:56:51.98Z</time></trkpt><trkpt lat="40.1512333" lon="15.62789"><ele>427.0</ele><time>2026-05-01T13:56:52.979Z</time></trkpt><trkpt lat="40.1513167" lon="15.627955"><ele>427.00000000000006</ele><time>2026-05-01T13:56:53.979Z</time></trkpt><trkpt lat="40.151405" lon="15.6280083"><ele>427.00000000000006</ele><time>2026-05-01T13:56:54.98Z</time></trkpt><trkpt lat="40.1514967" lon="15.628035"><ele>427.0</ele><time>2026-05-01T13:56:55.979Z</time></trkpt><trkpt lat="40.1515983" lon="15.6280633"><ele>427.0</ele><time>2026-05-01T13:56:56.979Z</time></trkpt><trkpt lat="40.1516933" lon="15.6280967"><ele>426.6666666666667</ele><time>2026-05-01T13:56:57.979Z</time></trkpt><trkpt lat="40.1517817" lon="15.6281433"><ele>426.33333333333337</ele><time>2026-05-01T13:56:58.979Z</time></trkpt><trkpt lat="40.1518583" lon="15.6282083"><ele>426.0</ele><time>2026-05-01T13:56:59.979Z</time></trkpt><trkpt lat="40.151925" lon="15.6282667"><ele>425.66666666666663</ele><time>2026-05-01T13:57:00.979Z</time></trkpt><trkpt lat="40.1519917" lon="15.6283167"><ele>425.3333333333333</ele><time>2026-05-01T13:57:01.979Z</time></trkpt><trkpt lat="40.1520717" lon="15.628375"><ele>425.0</ele><time>2026-05-01T13:57:02.98Z</time></trkpt><trkpt lat="40.1521417" lon="15.628445"><ele>424.99999999999994</ele><time>2026-05-01T13:57:03.98Z</time></trkpt><trkpt lat="40.1522" lon="15.6285267"><ele>425.0</ele><time>2026-05-01T13:57:04.979Z</time></trkpt><trkpt lat="40.1522617" lon="15.6286067"><ele>425.0</ele><time>2026-05-01T13:57:05.979Z</time></trkpt><trkpt lat="40.1523367" lon="15.628665"><ele>425.0</ele><time>2026-05-01T13:57:06.979Z</time></trkpt><trkpt lat="40.15242" lon="15.6287117"><ele>424.99999999999994</ele><time>2026-05-01T13:57:07.979Z</time></trkpt><trkpt lat="40.152505" lon="15.628745"><ele>425.0</ele><time>2026-05-01T13:57:08.979Z</time></trkpt><trkpt lat="40.152595" lon="15.628755"><ele>424.66666666666663</ele><time>2026-05-01T13:57:09.979Z</time></trkpt><trkpt lat="40.1526783" lon="15.62877"><ele>424.3333333333333</ele><time>2026-05-01T13:57:10.979Z</time></trkpt><trkpt lat="40.1527583" lon="15.6287883"><ele>424.0</ele><time>2026-05-01T13:57:11.98Z</time></trkpt><trkpt lat="40.1528433" lon="15.6288"><ele>423.66666666666663</ele><time>2026-05-01T13:57:12.979Z</time></trkpt><trkpt lat="40.1529333" lon="15.628835"><ele>423.3333333333333</ele><time>2026-05-01T13:57:13.979Z</time></trkpt><trkpt lat="40.1530067" lon="15.62887"><ele>423.0</ele><time>2026-05-01T13:57:14.979Z</time></trkpt><trkpt lat="40.1530733" lon="15.628925"><ele>423.0</ele><time>2026-05-01T13:57:15.98Z</time></trkpt><trkpt lat="40.153135" lon="15.6289933"><ele>423.0</ele><time>2026-05-01T13:57:16.979Z</time></trkpt><trkpt lat="40.15319" lon="15.62907"><ele>423.0</ele><time>2026-05-01T13:57:17.979Z</time></trkpt><trkpt lat="40.153235" lon="15.629165"><ele>423.0</ele><time>2026-05-01T13:57:18.98Z</time></trkpt><trkpt lat="40.1532733" lon="15.62927"><ele>423.0</ele><time>2026-05-01T13:57:19.979Z</time></trkpt><trkpt lat="40.1533067" lon="15.62937"><ele>423.0</ele><time>2026-05-01T13:57:20.979Z</time></trkpt><trkpt lat="40.1533283" lon="15.6294883"><ele>421.5</ele><time>2026-05-01T13:57:21.98Z</time></trkpt><trkpt lat="40.15334" lon="15.629615"><ele>420.0</ele><time>2026-05-01T13:57:22.979Z</time></trkpt><trkpt lat="40.1533533" lon="15.6297333"><ele>418.5</ele><time>2026-05-01T13:57:23.979Z</time></trkpt><trkpt lat="40.1533583" lon="15.629855"><ele>417.0</ele><time>2026-05-01T13:57:24.979Z</time></trkpt><trkpt lat="40.153375" lon="15.629955"><ele>415.5</ele><time>2026-05-01T13:57:25.979Z</time></trkpt><trkpt lat="40.1534" lon="15.6300467"><ele>414.0</ele><time>2026-05-01T13:57:26.979Z</time></trkpt><trkpt lat="40.1534433" lon="15.6301167"><ele>414.0</ele><time>2026-05-01T13:57:27.98Z</time></trkpt><trkpt lat="40.1535683" lon="15.6301417"><ele>414.0</ele><time>2026-05-01T13:57:29.979Z</time></trkpt><trkpt lat="40.1536433" lon="15.6300867"><ele>414.0</ele><time>2026-05-01T13:57:30.979Z</time></trkpt><trkpt lat="40.15372" lon="15.6300133"><ele>414.0</ele><time>2026-05-01T13:57:31.98Z</time></trkpt><trkpt lat="40.1538033" lon="15.6299333"><ele>414.0</ele><time>2026-05-01T13:57:32.979Z</time></trkpt><trkpt lat="40.1538867" lon="15.62986"><ele>414.0</ele><time>2026-05-01T13:57:33.98Z</time></trkpt><trkpt lat="40.1539667" lon="15.6297967"><ele>414.0</ele><time>2026-05-01T13:57:34.979Z</time></trkpt><trkpt lat="40.154045" lon="15.629725"><ele>414.0</ele><time>2026-05-01T13:57:35.98Z</time></trkpt><trkpt lat="40.1541117" lon="15.629665"><ele>414.0</ele><time>2026-05-01T13:57:36.979Z</time></trkpt><trkpt lat="40.15418" lon="15.6296067"><ele>414.0</ele><time>2026-05-01T13:57:37.98Z</time></trkpt><trkpt lat="40.1542433" lon="15.629565"><ele>414.0</ele><time>2026-05-01T13:57:38.98Z</time></trkpt><trkpt lat="40.1543033" lon="15.6295317"><ele>413.79999999999995</ele><time>2026-05-01T13:57:39.979Z</time></trkpt><trkpt lat="40.1543633" lon="15.6295"><ele>413.59999999999997</ele><time>2026-05-01T13:57:40.98Z</time></trkpt><trkpt lat="40.1544583" lon="15.629435"><ele>413.4</ele><time>2026-05-01T13:57:42.98Z</time></trkpt><trkpt lat="40.1545567" lon="15.629375"><ele>413.2</ele><time>2026-05-01T13:57:44.98Z</time></trkpt><trkpt lat="40.1546583" lon="15.6293017"><ele>413.0</ele><time>2026-05-01T13:57:46.979Z</time></trkpt><trkpt lat="40.1547167" lon="15.629265"><ele>410.3333333333333</ele><time>2026-05-01T13:57:47.979Z</time></trkpt><trkpt lat="40.1548033" lon="15.6292117"><ele>407.66666666666663</ele><time>2026-05-01T13:57:49.979Z</time></trkpt><trkpt lat="40.1548817" lon="15.62917"><ele>405.0</ele><time>2026-05-01T13:57:58.979Z</time></trkpt><trkpt lat="40.1549433" lon="15.6291333"><ele>402.33333333333337</ele><time>2026-05-01T13:58:02.979Z</time></trkpt><trkpt lat="40.1550167" lon="15.6290917"><ele>399.6666666666667</ele><time>2026-05-01T13:58:06.979Z</time></trkpt><trkpt lat="40.1551033" lon="15.6290483"><ele>397.0</ele><time>2026-05-01T13:58:09.979Z</time></trkpt><trkpt lat="40.155165" lon="15.62901"><ele>396.83333333333337</ele><time>2026-05-01T13:58:12.979Z</time></trkpt><trkpt lat="40.1552283" lon="15.628955"><ele>396.6666666666667</ele><time>2026-05-01T13:58:16.98Z</time></trkpt><trkpt lat="40.1552783" lon="15.6288817"><ele>396.5</ele><time>2026-05-01T13:58:19.979Z</time></trkpt><trkpt lat="40.1552117" lon="15.62883"><ele>396.33333333333337</ele><time>2026-05-01T15:14:19.982Z</time></trkpt><trkpt lat="40.1551617" lon="15.62892"><ele>396.1666666666667</ele><time>2026-05-01T15:14:33.983Z</time></trkpt><trkpt lat="40.1550867" lon="15.6289817"><ele>396.0</ele><time>2026-05-01T15:14:35.982Z</time></trkpt><trkpt lat="40.1550017" lon="15.6290483"><ele>396.0</ele><time>2026-05-01T15:14:37.983Z</time></trkpt><trkpt lat="40.1549083" lon="15.629115"><ele>396.0</ele><time>2026-05-01T15:14:39.983Z</time></trkpt><trkpt lat="40.15481" lon="15.6291733"><ele>396.0</ele><time>2026-05-01T15:14:41.983Z</time></trkpt><trkpt lat="40.1547217" lon="15.6292283"><ele>396.0</ele><time>2026-05-01T15:14:43.982Z</time></trkpt><trkpt lat="40.1546317" lon="15.6292917"><ele>396.0</ele><time>2026-05-01T15:14:45.982Z</time></trkpt><trkpt lat="40.1545267" lon="15.62936"><ele>396.1666666666667</ele><time>2026-05-01T15:14:47.982Z</time></trkpt><trkpt lat="40.1544233" lon="15.629435"><ele>396.33333333333337</ele><time>2026-05-01T15:14:49.983Z</time></trkpt><trkpt lat="40.1543267" lon="15.6295183"><ele>396.5</ele><time>2026-05-01T15:14:51.982Z</time></trkpt><trkpt lat="40.15427" lon="15.629555"><ele>396.6666666666667</ele><time>2026-05-01T15:14:52.982Z</time></trkpt><trkpt lat="40.1542067" lon="15.62959"><ele>396.83333333333337</ele><time>2026-05-01T15:14:53.982Z</time></trkpt><trkpt lat="40.1541467" lon="15.6296267"><ele>397.0</ele><time>2026-05-01T15:14:54.982Z</time></trkpt><trkpt lat="40.15409" lon="15.6296667"><ele>401.25</ele><time>2026-05-01T15:14:55.983Z</time></trkpt><trkpt lat="40.15399" lon="15.62974"><ele>405.5</ele><time>2026-05-01T15:14:57.983Z</time></trkpt><trkpt lat="40.1538967" lon="15.629825"><ele>409.75</ele><time>2026-05-01T15:14:59.982Z</time></trkpt><trkpt lat="40.1538017" lon="15.62991"><ele>414.0</ele><time>2026-05-01T15:15:01.982Z</time></trkpt><trkpt lat="40.1537067" lon="15.62999"><ele>414.0</ele><time>2026-05-01T15:15:03.982Z</time></trkpt><trkpt lat="40.153615" lon="15.63005"><ele>414.0</ele><time>2026-05-01T15:15:05.983Z</time></trkpt><trkpt lat="40.1535167" lon="15.6300817"><ele>414.0</ele><time>2026-05-01T15:15:07.983Z</time></trkpt><trkpt lat="40.1534267" lon="15.6300483"><ele>414.0</ele><time>2026-05-01T15:15:09.983Z</time></trkpt><trkpt lat="40.1533817" lon="15.6299767"><ele>414.0</ele><time>2026-05-01T15:15:11.982Z</time></trkpt><trkpt lat="40.1533583" lon="15.62984"><ele>414.0</ele><time>2026-05-01T15:15:13.982Z</time></trkpt><trkpt lat="40.1533517" lon="15.6296867"><ele>414.0</ele><time>2026-05-01T15:15:15.982Z</time></trkpt><trkpt lat="40.153355" lon="15.6295983"><ele>414.0</ele><time>2026-05-01T15:15:16.983Z</time></trkpt><trkpt lat="40.1533483" lon="15.6295"><ele>414.0</ele><time>2026-05-01T15:15:17.983Z</time></trkpt><trkpt lat="40.1533367" lon="15.6293917"><ele>414.0</ele><time>2026-05-01T15:15:18.982Z</time></trkpt><trkpt lat="40.1533233" lon="15.6292967"><ele>414.0</ele><time>2026-05-01T15:15:19.982Z</time></trkpt><trkpt lat="40.1533067" lon="15.6292"><ele>412.75</ele><time>2026-05-01T15:15:20.982Z</time></trkpt><trkpt lat="40.1532583" lon="15.6290917"><ele>411.5</ele><time>2026-05-01T15:15:21.982Z</time></trkpt><trkpt lat="40.1531717" lon="15.62897"><ele>410.25</ele><time>2026-05-01T15:15:22.982Z</time></trkpt><trkpt lat="40.15305" lon="15.6288617"><ele>409.0</ele><time>2026-05-01T15:15:23.982Z</time></trkpt><trkpt lat="40.1529067" lon="15.62879"><ele>413.6666666666667</ele><time>2026-05-01T15:15:24.983Z</time></trkpt><trkpt lat="40.1527417" lon="15.62874"><ele>418.33333333333337</ele><time>2026-05-01T15:15:25.982Z</time></trkpt><trkpt lat="40.1525833" lon="15.62872"><ele>423.0</ele><time>2026-05-01T15:15:26.982Z</time></trkpt><trkpt lat="40.1524367" lon="15.62869"><ele>423.5</ele><time>2026-05-01T15:15:27.982Z</time></trkpt><trkpt lat="40.1523083" lon="15.6286333"><ele>424.0</ele><time>2026-05-01T15:15:28.983Z</time></trkpt><trkpt lat="40.1522017" lon="15.628545"><ele>424.5</ele><time>2026-05-01T15:15:29.983Z</time></trkpt><trkpt lat="40.152095" lon="15.62844"><ele>425.0</ele><time>2026-05-01T15:15:30.983Z</time></trkpt><trkpt lat="40.15199" lon="15.6283167"><ele>425.0</ele><time>2026-05-01T15:15:31.983Z</time></trkpt><trkpt lat="40.1518733" lon="15.6282083"><ele>425.0</ele><time>2026-05-01T15:15:32.983Z</time></trkpt><trkpt lat="40.15174" lon="15.6281017"><ele>425.0</ele><time>2026-05-01T15:15:33.983Z</time></trkpt><trkpt lat="40.1515867" lon="15.6280167"><ele>425.66666666666663</ele><time>2026-05-01T15:15:34.983Z</time></trkpt><trkpt lat="40.1514233" lon="15.6279567"><ele>426.33333333333337</ele><time>2026-05-01T15:15:35.982Z</time></trkpt><trkpt lat="40.1512783" lon="15.6278867"><ele>427.0</ele><time>2026-05-01T15:15:36.983Z</time></trkpt><trkpt lat="40.1511567" lon="15.6278083"><ele>423.8</ele><time>2026-05-01T15:15:37.982Z</time></trkpt><trkpt lat="40.1510433" lon="15.627735"><ele>420.6</ele><time>2026-05-01T15:15:38.982Z</time></trkpt><trkpt lat="40.1509367" lon="15.6276917"><ele>417.40000000000003</ele><time>2026-05-01T15:15:39.983Z</time></trkpt><trkpt lat="40.1508267" lon="15.6276983"><ele>414.20000000000005</ele><time>2026-05-01T15:15:40.983Z</time></trkpt><trkpt lat="40.1507433" lon="15.6277533"><ele>411.0</ele><time>2026-05-01T15:15:41.983Z</time></trkpt><trkpt lat="40.150675" lon="15.62782"><ele>411.0</ele><time>2026-05-01T15:15:42.982Z</time></trkpt><trkpt lat="40.1506317" lon="15.62789"><ele>411.0</ele><time>2026-05-01T15:15:43.982Z</time></trkpt><trkpt lat="40.1505867" lon="15.6279883"><ele>411.0</ele><time>2026-05-01T15:15:45.983Z</time></trkpt><trkpt lat="40.1505283" lon="15.6280733"><ele>411.0</ele><time>2026-05-01T15:15:48.982Z</time></trkpt><trkpt lat="40.15048" lon="15.62813"><ele>411.0</ele><time>2026-05-01T15:15:50.982Z</time></trkpt><trkpt lat="40.1504067" lon="15.6281967"><ele>411.0</ele><time>2026-05-01T15:15:53.982Z</time></trkpt><trkpt lat="40.1503533" lon="15.6282483"><ele>411.0</ele><time>2026-05-01T15:15:55.982Z</time></trkpt><trkpt lat="40.1503067" lon="15.628325"><ele>411.0</ele><time>2026-05-01T15:15:57.982Z</time></trkpt><trkpt lat="40.1502583" lon="15.6284067"><ele>411.0</ele><time>2026-05-01T15:15:59.983Z</time></trkpt><trkpt lat="40.1501933" lon="15.6284783"><ele>411.0</ele><time>2026-05-01T15:16:01.982Z</time></trkpt><trkpt lat="40.1501017" lon="15.6285733"><ele>411.0</ele><time>2026-05-01T15:16:03.983Z</time></trkpt><trkpt lat="40.1500217" lon="15.62868"><ele>413.8</ele><time>2026-05-01T15:16:05.982Z</time></trkpt><trkpt lat="40.1499317" lon="15.62878"><ele>416.6</ele><time>2026-05-01T15:16:07.983Z</time></trkpt><trkpt lat="40.14988" lon="15.6288333"><ele>419.4</ele><time>2026-05-01T15:16:08.982Z</time></trkpt><trkpt lat="40.1498167" lon="15.6289067"><ele>422.2</ele><time>2026-05-01T15:16:09.982Z</time></trkpt><trkpt lat="40.1497567" lon="15.6290083"><ele>425.0</ele><time>2026-05-01T15:16:10.982Z</time></trkpt><trkpt lat="40.1497033" lon="15.629135"><ele>425.0</ele><time>2026-05-01T15:16:11.982Z</time></trkpt><trkpt lat="40.1496533" lon="15.6292533"><ele>425.0</ele><time>2026-05-01T15:16:12.982Z</time></trkpt><trkpt lat="40.1496067" lon="15.6293617"><ele>425.0</ele><time>2026-05-01T15:16:13.983Z</time></trkpt><trkpt lat="40.1495567" lon="15.62947"><ele>425.0</ele><time>2026-05-01T15:16:14.982Z</time></trkpt><trkpt lat="40.1495117" lon="15.6295667"><ele>425.0</ele><time>2026-05-01T15:16:15.983Z</time></trkpt><trkpt lat="40.14946" lon="15.6296533"><ele>426.16666666666663</ele><time>2026-05-01T15:16:16.982Z</time></trkpt><trkpt lat="40.149405" lon="15.6297383"><ele>427.3333333333333</ele><time>2026-05-01T15:16:17.982Z</time></trkpt><trkpt lat="40.1493533" lon="15.6298067"><ele>428.5</ele><time>2026-05-01T15:16:18.982Z</time></trkpt><trkpt lat="40.1492967" lon="15.6298667"><ele>429.66666666666663</ele><time>2026-05-01T15:16:19.982Z</time></trkpt><trkpt lat="40.149235" lon="15.6299233"><ele>430.8333333333333</ele><time>2026-05-01T15:16:20.983Z</time></trkpt><trkpt lat="40.1491767" lon="15.6299883"><ele>432.0</ele><time>2026-05-01T15:16:21.982Z</time></trkpt><trkpt lat="40.1491167" lon="15.63003"><ele>437.0</ele><time>2026-05-01T15:16:22.983Z</time></trkpt><trkpt lat="40.1490083" lon="15.63007"><ele>442.0</ele><time>2026-05-01T15:16:24.982Z</time></trkpt><trkpt lat="40.14892" lon="15.63006"><ele>447.0</ele><time>2026-05-01T15:16:26.982Z</time></trkpt><trkpt lat="40.1488683" lon="15.62998"><ele>452.0</ele><time>2026-05-01T15:16:28.982Z</time></trkpt><trkpt lat="40.1488717" lon="15.6298533"><ele>457.0</ele><time>2026-05-01T15:16:30.982Z</time></trkpt><trkpt lat="40.1488867" lon="15.6297683"><ele>462.0</ele><time>2026-05-01T15:16:31.982Z</time></trkpt><trkpt lat="40.1489167" lon="15.6296633"><ele>462.0</ele><time>2026-05-01T15:16:32.983Z</time></trkpt><trkpt lat="40.1489483" lon="15.629535"><ele>462.00000000000006</ele><time>2026-05-01T15:16:33.982Z</time></trkpt><trkpt lat="40.148955" lon="15.62939"><ele>462.00000000000006</ele><time>2026-05-01T15:16:34.982Z</time></trkpt><trkpt lat="40.1489583" lon="15.6292683"><ele>462.0</ele><time>2026-05-01T15:16:35.983Z</time></trkpt><trkpt lat="40.14894" lon="15.62915"><ele>462.0</ele><time>2026-05-01T15:16:36.982Z</time></trkpt><trkpt lat="40.1489017" lon="15.6290183"><ele>461.8</ele><time>2026-05-01T15:16:37.982Z</time></trkpt><trkpt lat="40.1488617" lon="15.6288917"><ele>461.6</ele><time>2026-05-01T15:16:38.982Z</time></trkpt><trkpt lat="40.1488367" lon="15.6287667"><ele>461.40000000000003</ele><time>2026-05-01T15:16:39.982Z</time></trkpt><trkpt lat="40.1488133" lon="15.628645"><ele>461.20000000000005</ele><time>2026-05-01T15:16:40.982Z</time></trkpt><trkpt lat="40.1487917" lon="15.628505"><ele>461.0</ele><time>2026-05-01T15:16:41.982Z</time></trkpt><trkpt lat="40.1487867" lon="15.62837"><ele>462.4</ele><time>2026-05-01T15:16:42.983Z</time></trkpt><trkpt lat="40.1487983" lon="15.6282433"><ele>463.8</ele><time>2026-05-01T15:16:43.982Z</time></trkpt><trkpt lat="40.148825" lon="15.6281133"><ele>465.19999999999993</ele><time>2026-05-01T15:16:44.983Z</time></trkpt><trkpt lat="40.14886" lon="15.627985"><ele>466.59999999999997</ele><time>2026-05-01T15:16:45.983Z</time></trkpt><trkpt lat="40.1489033" lon="15.6278617"><ele>468.0</ele><time>2026-05-01T15:16:46.982Z</time></trkpt><trkpt lat="40.1489517" lon="15.62775"><ele>468.8333333333333</ele><time>2026-05-01T15:16:47.982Z</time></trkpt><trkpt lat="40.1490017" lon="15.62764"><ele>469.66666666666663</ele><time>2026-05-01T15:16:48.982Z</time></trkpt><trkpt lat="40.1490467" lon="15.627535"><ele>470.5</ele><time>2026-05-01T15:16:49.982Z</time></trkpt><trkpt lat="40.14907" lon="15.62743"><ele>471.3333333333333</ele><time>2026-05-01T15:16:50.982Z</time></trkpt><trkpt lat="40.149085" lon="15.6273217"><ele>472.16666666666663</ele><time>2026-05-01T15:16:51.982Z</time></trkpt><trkpt lat="40.1490883" lon="15.6272033"><ele>473.0</ele><time>2026-05-01T15:16:52.983Z</time></trkpt><trkpt lat="40.1490767" lon="15.62709"><ele>471.99999999999994</ele><time>2026-05-01T15:16:53.982Z</time></trkpt><trkpt lat="40.149045" lon="15.6269833"><ele>471.0</ele><time>2026-05-01T15:16:54.982Z</time></trkpt><trkpt lat="40.1490067" lon="15.6268733"><ele>470.0</ele><time>2026-05-01T15:16:55.982Z</time></trkpt><trkpt lat="40.1489783" lon="15.6267617"><ele>469.0</ele><time>2026-05-01T15:16:56.982Z</time></trkpt><trkpt lat="40.1489633" lon="15.6266483"><ele>467.99999999999994</ele><time>2026-05-01T15:16:57.983Z</time></trkpt><trkpt lat="40.148965" lon="15.6265283"><ele>467.0</ele><time>2026-05-01T15:16:58.982Z</time></trkpt><trkpt lat="40.1489667" lon="15.6264183"><ele>467.0</ele><time>2026-05-01T15:16:59.983Z</time></trkpt><trkpt lat="40.1489833" lon="15.6262967"><ele>467.00000000000006</ele><time>2026-05-01T15:17:00.982Z</time></trkpt><trkpt lat="40.1489983" lon="15.6261667"><ele>467.00000000000006</ele><time>2026-05-01T15:17:01.983Z</time></trkpt><trkpt lat="40.1490133" lon="15.62604"><ele>467.0</ele><time>2026-05-01T15:17:02.983Z</time></trkpt><trkpt lat="40.1490267" lon="15.62592"><ele>467.0</ele><time>2026-05-01T15:17:03.983Z</time></trkpt><trkpt lat="40.1490317" lon="15.62581"><ele>459.8333333333333</ele><time>2026-05-01T15:17:04.982Z</time></trkpt><trkpt lat="40.14905" lon="15.6257033"><ele>452.66666666666663</ele><time>2026-05-01T15:17:05.982Z</time></trkpt><trkpt lat="40.1490583" lon="15.625605"><ele>445.5</ele><time>2026-05-01T15:17:06.982Z</time></trkpt><trkpt lat="40.149065" lon="15.6254983"><ele>438.33333333333337</ele><time>2026-05-01T15:17:07.983Z</time></trkpt><trkpt lat="40.1490683" lon="15.6253883"><ele>431.1666666666667</ele><time>2026-05-01T15:17:08.982Z</time></trkpt><trkpt lat="40.1490783" lon="15.6252767"><ele>424.0</ele><time>2026-05-01T15:17:09.982Z</time></trkpt><trkpt lat="40.1490833" lon="15.6251617"><ele>423.33333333333337</ele><time>2026-05-01T15:17:10.982Z</time></trkpt><trkpt lat="40.149095" lon="15.62505"><ele>422.6666666666667</ele><time>2026-05-01T15:17:11.983Z</time></trkpt><trkpt lat="40.149105" lon="15.6249433"><ele>422.0</ele><time>2026-05-01T15:17:12.983Z</time></trkpt><trkpt lat="40.1491217" lon="15.62484"><ele>421.33333333333337</ele><time>2026-05-01T15:17:13.982Z</time></trkpt><trkpt lat="40.1491267" lon="15.624755"><ele>420.6666666666667</ele><time>2026-05-01T15:17:14.982Z</time></trkpt><trkpt lat="40.1490517" lon="15.6246233"><ele>420.0</ele><time>2026-05-01T15:17:16.982Z</time></trkpt><trkpt lat="40.1489917" lon="15.6245833"><ele>422.6</ele><time>2026-05-01T15:17:17.982Z</time></trkpt><trkpt lat="40.1489033" lon="15.624575"><ele>425.2</ele><time>2026-05-01T15:17:18.982Z</time></trkpt><trkpt lat="40.148795" lon="15.6245867"><ele>427.79999999999995</ele><time>2026-05-01T15:17:19.982Z</time></trkpt><trkpt lat="40.1486883" lon="15.6246033"><ele>430.4</ele><time>2026-05-01T15:17:20.982Z</time></trkpt><trkpt lat="40.148585" lon="15.6246033"><ele>433.0</ele><time>2026-05-01T15:17:21.982Z</time></trkpt><trkpt lat="40.1484883" lon="15.62459"><ele>433.0</ele><time>2026-05-01T15:17:22.982Z</time></trkpt><trkpt lat="40.148395" lon="15.6245733"><ele>432.99999999999994</ele><time>2026-05-01T15:17:23.982Z</time></trkpt><trkpt lat="40.14831" lon="15.62454"><ele>432.99999999999994</ele><time>2026-05-01T15:17:24.982Z</time></trkpt><trkpt lat="40.148215" lon="15.6245167"><ele>433.0</ele><time>2026-05-01T15:17:25.982Z</time></trkpt><trkpt lat="40.1481167" lon="15.6245"><ele>433.0</ele><time>2026-05-01T15:17:26.983Z</time></trkpt><trkpt lat="40.1480267" lon="15.6244967"><ele>434.00000000000006</ele><time>2026-05-01T15:17:27.982Z</time></trkpt><trkpt lat="40.1479317" lon="15.6244917"><ele>435.0</ele><time>2026-05-01T15:17:28.982Z</time></trkpt><trkpt lat="40.1478383" lon="15.6245"><ele>436.0</ele><time>2026-05-01T15:17:29.983Z</time></trkpt><trkpt lat="40.1477533" lon="15.6245367"><ele>437.0</ele><time>2026-05-01T15:17:30.982Z</time></trkpt><trkpt lat="40.1476783" lon="15.6245833"><ele>438.00000000000006</ele><time>2026-05-01T15:17:31.983Z</time></trkpt><trkpt lat="40.147605" lon="15.6246283"><ele>439.0</ele><time>2026-05-01T15:17:32.982Z</time></trkpt><trkpt lat="40.147535" lon="15.6246667"><ele>439.0</ele><time>2026-05-01T15:17:33.982Z</time></trkpt><trkpt lat="40.147445" lon="15.6246633"><ele>439.0</ele><time>2026-05-01T15:17:34.983Z</time></trkpt><trkpt lat="40.1473467" lon="15.6246567"><ele>439.0</ele><time>2026-05-01T15:17:35.983Z</time></trkpt><trkpt lat="40.1472567" lon="15.6246217"><ele>439.0</ele><time>2026-05-01T15:17:36.982Z</time></trkpt><trkpt lat="40.1471583" lon="15.62459"><ele>439.0</ele><time>2026-05-01T15:17:37.983Z</time></trkpt><trkpt lat="40.1470617" lon="15.62457"><ele>437.83333333333337</ele><time>2026-05-01T15:17:38.982Z</time></trkpt><trkpt lat="40.146975" lon="15.6245683"><ele>436.6666666666667</ele><time>2026-05-01T15:17:39.982Z</time></trkpt><trkpt lat="40.1468783" lon="15.624585"><ele>435.5</ele><time>2026-05-01T15:17:40.983Z</time></trkpt><trkpt lat="40.1467883" lon="15.624595"><ele>434.33333333333337</ele><time>2026-05-01T15:17:41.983Z</time></trkpt><trkpt lat="40.1467017" lon="15.6246117"><ele>433.1666666666667</ele><time>2026-05-01T15:17:42.983Z</time></trkpt><trkpt lat="40.1466167" lon="15.6246133"><ele>432.0</ele><time>2026-05-01T15:17:43.982Z</time></trkpt><trkpt lat="40.1465317" lon="15.6246183"><ele>431.3333333333333</ele><time>2026-05-01T15:17:44.982Z</time></trkpt><trkpt lat="40.1464433" lon="15.6246233"><ele>430.66666666666663</ele><time>2026-05-01T15:17:45.982Z</time></trkpt><trkpt lat="40.1463767" lon="15.624625"><ele>430.0</ele><time>2026-05-01T15:17:46.982Z</time></trkpt><trkpt lat="40.1462967" lon="15.6246167"><ele>429.3333333333333</ele><time>2026-05-01T15:17:47.983Z</time></trkpt><trkpt lat="40.146215" lon="15.6245967"><ele>428.66666666666663</ele><time>2026-05-01T15:17:48.983Z</time></trkpt><trkpt lat="40.1461217" lon="15.6245767"><ele>428.0</ele><time>2026-05-01T15:17:49.982Z</time></trkpt><trkpt lat="40.14603" lon="15.6245683"><ele>427.99999999999994</ele><time>2026-05-01T15:17:50.982Z</time></trkpt><trkpt lat="40.1459433" lon="15.6245833"><ele>428.0</ele><time>2026-05-01T15:17:51.982Z</time></trkpt><trkpt lat="40.14586" lon="15.6246133"><ele>428.0</ele><time>2026-05-01T15:17:52.982Z</time></trkpt><trkpt lat="40.1457817" lon="15.6246633"><ele>428.0</ele><time>2026-05-01T15:17:53.983Z</time></trkpt><trkpt lat="40.145715" lon="15.624705"><ele>427.99999999999994</ele><time>2026-05-01T15:17:54.983Z</time></trkpt><trkpt lat="40.1456483" lon="15.6247267"><ele>428.0</ele><time>2026-05-01T15:17:55.982Z</time></trkpt><trkpt lat="40.1455833" lon="15.624725"><ele>430.79999999999995</ele><time>2026-05-01T15:17:56.982Z</time></trkpt><trkpt lat="40.1454983" lon="15.6246367"><ele>433.59999999999997</ele><time>2026-05-01T15:17:58.982Z</time></trkpt><trkpt lat="40.1454567" lon="15.6245567"><ele>436.40000000000003</ele><time>2026-05-01T15:17:59.982Z</time></trkpt><trkpt lat="40.1454283" lon="15.6244683"><ele>439.20000000000005</ele><time>2026-05-01T15:18:00.982Z</time></trkpt><trkpt lat="40.14545" lon="15.62434"><ele>442.0</ele><time>2026-05-01T15:18:01.982Z</time></trkpt><trkpt lat="40.1454967" lon="15.6242333"><ele>445.20000000000005</ele><time>2026-05-01T15:18:02.983Z</time></trkpt><trkpt lat="40.145565" lon="15.624135"><ele>448.40000000000003</ele><time>2026-05-01T15:18:03.982Z</time></trkpt><trkpt lat="40.1456317" lon="15.62404"><ele>451.59999999999997</ele><time>2026-05-01T15:18:04.983Z</time></trkpt><trkpt lat="40.1456883" lon="15.62395"><ele>454.79999999999995</ele><time>2026-05-01T15:18:05.982Z</time></trkpt><trkpt lat="40.1457367" lon="15.62385"><ele>458.0</ele><time>2026-05-01T15:18:06.983Z</time></trkpt><trkpt lat="40.1457717" lon="15.623735"><ele>451.79999999999995</ele><time>2026-05-01T15:18:07.982Z</time></trkpt><trkpt lat="40.1458117" lon="15.623635"><ele>445.59999999999997</ele><time>2026-05-01T15:18:08.982Z</time></trkpt><trkpt lat="40.1458467" lon="15.6235133"><ele>439.40000000000003</ele><time>2026-05-01T15:18:09.983Z</time></trkpt><trkpt lat="40.14589" lon="15.62338"><ele>433.20000000000005</ele><time>2026-05-01T15:18:10.982Z</time></trkpt><trkpt lat="40.1459317" lon="15.6232483"><ele>427.0</ele><time>2026-05-01T15:18:11.983Z</time></trkpt><trkpt lat="40.1459733" lon="15.62311"><ele>427.0</ele><time>2026-05-01T15:18:12.982Z</time></trkpt><trkpt lat="40.146005" lon="15.6229633"><ele>427.00000000000006</ele><time>2026-05-01T15:18:13.982Z</time></trkpt><trkpt lat="40.14603" lon="15.6228383"><ele>427.00000000000006</ele><time>2026-05-01T15:18:14.982Z</time></trkpt><trkpt lat="40.1460367" lon="15.6227117"><ele>427.0</ele><time>2026-05-01T15:18:15.982Z</time></trkpt><trkpt lat="40.14603" lon="15.62259"><ele>427.0</ele><time>2026-05-01T15:18:16.982Z</time></trkpt><trkpt lat="40.1460017" lon="15.622475"><ele>427.83333333333337</ele><time>2026-05-01T15:18:17.983Z</time></trkpt><trkpt lat="40.1459567" lon="15.62237"><ele>428.6666666666667</ele><time>2026-05-01T15:18:18.982Z</time></trkpt><trkpt lat="40.14591" lon="15.6222833"><ele>429.5</ele><time>2026-05-01T15:18:19.982Z</time></trkpt><trkpt lat="40.1458533" lon="15.6221967"><ele>430.33333333333337</ele><time>2026-05-01T15:18:20.982Z</time></trkpt><trkpt lat="40.1457983" lon="15.6221233"><ele>431.1666666666667</ele><time>2026-05-01T15:18:21.982Z</time></trkpt><trkpt lat="40.1457483" lon="15.6220617"><ele>432.0</ele><time>2026-05-01T15:18:22.983Z</time></trkpt><trkpt lat="40.145705" lon="15.622"><ele>437.1666666666667</ele><time>2026-05-01T15:18:23.982Z</time></trkpt><trkpt lat="40.1456367" lon="15.6218733"><ele>442.33333333333337</ele><time>2026-05-01T15:18:25.982Z</time></trkpt><trkpt lat="40.1456017" lon="15.6218017"><ele>447.5</ele><time>2026-05-01T15:18:26.982Z</time></trkpt><trkpt lat="40.1455733" lon="15.6217233"><ele>452.6666666666667</ele><time>2026-05-01T15:18:27.983Z</time></trkpt><trkpt lat="40.14555" lon="15.6216283"><ele>457.83333333333337</ele><time>2026-05-01T15:18:28.982Z</time></trkpt><trkpt lat="40.1455317" lon="15.6215317"><ele>463.0</ele><time>2026-05-01T15:18:29.983Z</time></trkpt><trkpt lat="40.1455133" lon="15.6214483"><ele>463.00000000000006</ele><time>2026-05-01T15:18:30.983Z</time></trkpt><trkpt lat="40.1454933" lon="15.62135"><ele>463.0</ele><time>2026-05-01T15:18:31.983Z</time></trkpt><trkpt lat="40.1454733" lon="15.6212433"><ele>463.0</ele><time>2026-05-01T15:18:32.983Z</time></trkpt><trkpt lat="40.14545" lon="15.621135"><ele>463.0</ele><time>2026-05-01T15:18:33.982Z</time></trkpt><trkpt lat="40.14542" lon="15.6210317"><ele>463.00000000000006</ele><time>2026-05-01T15:18:34.982Z</time></trkpt><trkpt lat="40.1453917" lon="15.6209467"><ele>463.0</ele><time>2026-05-01T15:18:35.982Z</time></trkpt><trkpt lat="40.14536" lon="15.62086"><ele>459.83333333333337</ele><time>2026-05-01T15:18:36.982Z</time></trkpt><trkpt lat="40.1453133" lon="15.62078"><ele>456.6666666666667</ele><time>2026-05-01T15:18:37.982Z</time></trkpt><trkpt lat="40.14526" lon="15.62069"><ele>453.5</ele><time>2026-05-01T15:18:38.982Z</time></trkpt><trkpt lat="40.1451917" lon="15.6206117"><ele>450.33333333333337</ele><time>2026-05-01T15:18:39.982Z</time></trkpt><trkpt lat="40.145115" lon="15.6205317"><ele>447.1666666666667</ele><time>2026-05-01T15:18:40.982Z</time></trkpt><trkpt lat="40.1450433" lon="15.6204617"><ele>444.0</ele><time>2026-05-01T15:18:41.982Z</time></trkpt><trkpt lat="40.14498" lon="15.6203983"><ele>444.0</ele><time>2026-05-01T15:18:42.982Z</time></trkpt><trkpt lat="40.1449217" lon="15.62034"><ele>444.0</ele><time>2026-05-01T15:18:43.982Z</time></trkpt><trkpt lat="40.14487" lon="15.6202867"><ele>444.0</ele><time>2026-05-01T15:18:44.982Z</time></trkpt><trkpt lat="40.1447683" lon="15.6202183"><ele>444.0</ele><time>2026-05-01T15:18:46.983Z</time></trkpt><trkpt lat="40.1446317" lon="15.620195"><ele>444.0</ele><time>2026-05-01T15:18:48.982Z</time></trkpt><trkpt lat="40.1445467" lon="15.6202217"><ele>441.6</ele><time>2026-05-01T15:18:49.982Z</time></trkpt><trkpt lat="40.14446" lon="15.620275"><ele>439.2</ele><time>2026-05-01T15:18:50.982Z</time></trkpt><trkpt lat="40.1443667" lon="15.620345"><ele>436.80000000000007</ele><time>2026-05-01T15:18:51.982Z</time></trkpt><trkpt lat="40.144275" lon="15.6203967"><ele>434.40000000000003</ele><time>2026-05-01T15:18:52.982Z</time></trkpt><trkpt lat="40.1441783" lon="15.620425"><ele>432.0</ele><time>2026-05-01T15:18:53.982Z</time></trkpt><trkpt lat="40.1440833" lon="15.6204333"><ele>434.3333333333333</ele><time>2026-05-01T15:18:54.982Z</time></trkpt><trkpt lat="40.14399" lon="15.6204417"><ele>436.66666666666663</ele><time>2026-05-01T15:18:55.983Z</time></trkpt><trkpt lat="40.1438933" lon="15.6204367"><ele>439.0</ele><time>2026-05-01T15:18:56.983Z</time></trkpt><trkpt lat="40.143805" lon="15.6204233"><ele>441.3333333333333</ele><time>2026-05-01T15:18:57.982Z</time></trkpt><trkpt lat="40.1437233" lon="15.6203933"><ele>443.66666666666663</ele><time>2026-05-01T15:18:58.983Z</time></trkpt><trkpt lat="40.1436533" lon="15.62034"><ele>446.0</ele><time>2026-05-01T15:18:59.982Z</time></trkpt><trkpt lat="40.14359" lon="15.6202783"><ele>445.99999999999994</ele><time>2026-05-01T15:19:00.982Z</time></trkpt><trkpt lat="40.143515" lon="15.6202333"><ele>446.0</ele><time>2026-05-01T15:19:01.983Z</time></trkpt><trkpt lat="40.1434317" lon="15.6202267"><ele>446.0</ele><time>2026-05-01T15:19:02.983Z</time></trkpt><trkpt lat="40.1433483" lon="15.6202717"><ele>446.0</ele><time>2026-05-01T15:19:03.982Z</time></trkpt><trkpt lat="40.1432817" lon="15.6203283"><ele>445.99999999999994</ele><time>2026-05-01T15:19:04.982Z</time></trkpt><trkpt lat="40.14318" lon="15.6203883"><ele>446.0</ele><time>2026-05-01T15:19:06.982Z</time></trkpt><trkpt lat="40.14309" lon="15.620385"><ele>452.6</ele><time>2026-05-01T15:19:08.982Z</time></trkpt><trkpt lat="40.14302" lon="15.620285"><ele>459.20000000000005</ele><time>2026-05-01T15:19:10.982Z</time></trkpt><trkpt lat="40.143025" lon="15.6201983"><ele>465.79999999999995</ele><time>2026-05-01T15:19:11.982Z</time></trkpt><trkpt lat="40.1430317" lon="15.6200867"><ele>472.4</ele><time>2026-05-01T15:19:12.982Z</time></trkpt><trkpt lat="40.1430567" lon="15.6199633"><ele>479.0</ele><time>2026-05-01T15:19:13.982Z</time></trkpt><trkpt lat="40.1430817" lon="15.6198367"><ele>479.0</ele><time>2026-05-01T15:19:14.982Z</time></trkpt><trkpt lat="40.143115" lon="15.61971"><ele>479.0</ele><time>2026-05-01T15:19:15.983Z</time></trkpt><trkpt lat="40.1431567" lon="15.6196"><ele>479.0</ele><time>2026-05-01T15:19:16.983Z</time></trkpt><trkpt lat="40.1432233" lon="15.6195083"><ele>479.0</ele><time>2026-05-01T15:19:17.982Z</time></trkpt><trkpt lat="40.14329" lon="15.6194117"><ele>479.0</ele><time>2026-05-01T15:19:18.982Z</time></trkpt><trkpt lat="40.1433467" lon="15.6193117"><ele>474.2</ele><time>2026-05-01T15:19:19.982Z</time></trkpt><trkpt lat="40.1434033" lon="15.619205"><ele>469.4</ele><time>2026-05-01T15:19:20.982Z</time></trkpt><trkpt lat="40.14345" lon="15.6190883"><ele>464.6</ele><time>2026-05-01T15:19:21.982Z</time></trkpt><trkpt lat="40.1434967" lon="15.6189617"><ele>459.8</ele><time>2026-05-01T15:19:22.983Z</time></trkpt><trkpt lat="40.1435383" lon="15.61884"><ele>455.0</ele><time>2026-05-01T15:19:23.982Z</time></trkpt><trkpt lat="40.143585" lon="15.6187217"><ele>456.8333333333333</ele><time>2026-05-01T15:19:24.983Z</time></trkpt><trkpt lat="40.1436283" lon="15.6186067"><ele>458.66666666666663</ele><time>2026-05-01T15:19:25.982Z</time></trkpt><trkpt lat="40.1436533" lon="15.6185083"><ele>460.5</ele><time>2026-05-01T15:19:26.983Z</time></trkpt><trkpt lat="40.143675" lon="15.61842"><ele>462.33333333333337</ele><time>2026-05-01T15:19:27.982Z</time></trkpt><trkpt lat="40.14366" lon="15.6182717"><ele>464.1666666666667</ele><time>2026-05-01T15:19:29.983Z</time></trkpt><trkpt lat="40.1436133" lon="15.6182017"><ele>466.0</ele><time>2026-05-01T15:19:30.982Z</time></trkpt><trkpt lat="40.143555" lon="15.6181483"><ele>466.0</ele><time>2026-05-01T15:19:31.982Z</time></trkpt><trkpt lat="40.143475" lon="15.6180583"><ele>466.0</ele><time>2026-05-01T15:19:33.983Z</time></trkpt><trkpt lat="40.1434433" lon="15.6179317"><ele>466.0</ele><time>2026-05-01T15:19:35.982Z</time></trkpt><trkpt lat="40.14347" lon="15.6178267"><ele>466.0</ele><time>2026-05-01T15:19:36.983Z</time></trkpt><trkpt lat="40.1435" lon="15.6177083"><ele>466.0</ele><time>2026-05-01T15:19:37.983Z</time></trkpt><trkpt lat="40.1435333" lon="15.61758"><ele>467.20000000000005</ele><time>2026-05-01T15:19:38.982Z</time></trkpt><trkpt lat="40.1435583" lon="15.6174517"><ele>468.40000000000003</ele><time>2026-05-01T15:19:39.983Z</time></trkpt><trkpt lat="40.1435917" lon="15.6173317"><ele>469.6</ele><time>2026-05-01T15:19:40.983Z</time></trkpt><trkpt lat="40.14364" lon="15.6172283"><ele>470.8</ele><time>2026-05-01T15:19:41.983Z</time></trkpt><trkpt lat="40.1437017" lon="15.617145"><ele>472.0</ele><time>2026-05-01T15:19:42.983Z</time></trkpt><trkpt lat="40.14378" lon="15.6170867"><ele>472.00000000000006</ele><time>2026-05-01T15:19:43.983Z</time></trkpt><trkpt lat="40.1438567" lon="15.6170517"><ele>472.0</ele><time>2026-05-01T15:19:44.982Z</time></trkpt><trkpt lat="40.1439333" lon="15.617005"><ele>472.0</ele><time>2026-05-01T15:19:45.982Z</time></trkpt><trkpt lat="40.1440033" lon="15.61695"><ele>472.0</ele><time>2026-05-01T15:19:46.982Z</time></trkpt><trkpt lat="40.1440633" lon="15.6168733"><ele>472.00000000000006</ele><time>2026-05-01T15:19:47.983Z</time></trkpt><trkpt lat="40.14412" lon="15.6167733"><ele>472.0</ele><time>2026-05-01T15:19:48.982Z</time></trkpt><trkpt lat="40.1441683" lon="15.6166683"><ele>470.8</ele><time>2026-05-01T15:19:49.982Z</time></trkpt><trkpt lat="40.1442017" lon="15.616545"><ele>469.6</ele><time>2026-05-01T15:19:50.982Z</time></trkpt><trkpt lat="40.14423" lon="15.6164167"><ele>468.40000000000003</ele><time>2026-05-01T15:19:51.982Z</time></trkpt><trkpt lat="40.14427" lon="15.6162883"><ele>467.20000000000005</ele><time>2026-05-01T15:19:52.983Z</time></trkpt><trkpt lat="40.1443183" lon="15.6161633"><ele>466.0</ele><time>2026-05-01T15:19:53.982Z</time></trkpt><trkpt lat="40.14438" lon="15.6160567"><ele>471.25</ele><time>2026-05-01T15:19:54.983Z</time></trkpt><trkpt lat="40.14444" lon="15.615955"><ele>476.5</ele><time>2026-05-01T15:19:55.983Z</time></trkpt><trkpt lat="40.144505" lon="15.61586"><ele>481.75</ele><time>2026-05-01T15:19:56.982Z</time></trkpt><trkpt lat="40.1446517" lon="15.6156883"><ele>487.0</ele><time>2026-05-01T15:19:58.982Z</time></trkpt><trkpt lat="40.1447117" lon="15.615615"><ele>487.00000000000006</ele><time>2026-05-01T15:19:59.983Z</time></trkpt><trkpt lat="40.144775" lon="15.6155367"><ele>487.0</ele><time>2026-05-01T15:20:00.982Z</time></trkpt><trkpt lat="40.1448367" lon="15.6154517"><ele>487.0</ele><time>2026-05-01T15:20:01.983Z</time></trkpt><trkpt lat="40.1448983" lon="15.6153733"><ele>487.0</ele><time>2026-05-01T15:20:02.982Z</time></trkpt><trkpt lat="40.1449467" lon="15.6152817"><ele>487.00000000000006</ele><time>2026-05-01T15:20:03.983Z</time></trkpt><trkpt lat="40.144995" lon="15.61517"><ele>487.0</ele><time>2026-05-01T15:20:04.983Z</time></trkpt><trkpt lat="40.1450333" lon="15.61506"><ele>485.40000000000003</ele><time>2026-05-01T15:20:05.983Z</time></trkpt><trkpt lat="40.1450717" lon="15.6149333"><ele>483.80000000000007</ele><time>2026-05-01T15:20:06.982Z</time></trkpt><trkpt lat="40.145105" lon="15.6147983"><ele>482.2</ele><time>2026-05-01T15:20:07.983Z</time></trkpt><trkpt lat="40.1451433" lon="15.6146567"><ele>480.6</ele><time>2026-05-01T15:20:08.982Z</time></trkpt><trkpt lat="40.14519" lon="15.6145117"><ele>479.0</ele><time>2026-05-01T15:20:09.982Z</time></trkpt><trkpt lat="40.1452317" lon="15.6143683"><ele>479.0</ele><time>2026-05-01T15:20:10.982Z</time></trkpt><trkpt lat="40.1452733" lon="15.614225"><ele>479.0</ele><time>2026-05-01T15:20:11.982Z</time></trkpt><trkpt lat="40.1453" lon="15.6140733"><ele>479.0</ele><time>2026-05-01T15:20:12.982Z</time></trkpt><trkpt lat="40.145285" lon="15.61394"><ele>479.0</ele><time>2026-05-01T15:20:13.983Z</time></trkpt><trkpt lat="40.1452433" lon="15.6138383"><ele>479.0</ele><time>2026-05-01T15:20:14.982Z</time></trkpt><trkpt lat="40.1451683" lon="15.6137583"><ele>479.0</ele><time>2026-05-01T15:20:15.983Z</time></trkpt><trkpt lat="40.1450667" lon="15.6137183"><ele>479.0</ele><time>2026-05-01T15:20:16.983Z</time></trkpt><trkpt lat="40.1449467" lon="15.6137233"><ele>479.0</ele><time>2026-05-01T15:20:17.982Z</time></trkpt><trkpt lat="40.144825" lon="15.6137533"><ele>479.0</ele><time>2026-05-01T15:20:18.983Z</time></trkpt><trkpt lat="40.1447133" lon="15.613785"><ele>483.5</ele><time>2026-05-01T15:20:19.983Z</time></trkpt><trkpt lat="40.1446" lon="15.6138017"><ele>488.0</ele><time>2026-05-01T15:20:20.983Z</time></trkpt><trkpt lat="40.1444883" lon="15.6138117"><ele>492.5</ele><time>2026-05-01T15:20:21.983Z</time></trkpt><trkpt lat="40.1443817" lon="15.6137817"><ele>497.0</ele><time>2026-05-01T15:20:22.982Z</time></trkpt><trkpt lat="40.1442683" lon="15.6137433"><ele>496.99999999999994</ele><time>2026-05-01T15:20:23.982Z</time></trkpt><trkpt lat="40.1441683" lon="15.6137133"><ele>497.0</ele><time>2026-05-01T15:20:24.982Z</time></trkpt><trkpt lat="40.1440833" lon="15.6136717"><ele>497.0</ele><time>2026-05-01T15:20:25.982Z</time></trkpt><trkpt lat="40.1440117" lon="15.6136383"><ele>497.0</ele><time>2026-05-01T15:20:26.982Z</time></trkpt><trkpt lat="40.1439567" lon="15.613575"><ele>496.99999999999994</ele><time>2026-05-01T15:20:27.982Z</time></trkpt><trkpt lat="40.1439233" lon="15.6134967"><ele>497.0</ele><time>2026-05-01T15:20:28.982Z</time></trkpt><trkpt lat="40.1439217" lon="15.6133983"><ele>498.40000000000003</ele><time>2026-05-01T15:20:29.982Z</time></trkpt><trkpt lat="40.1439517" lon="15.6132983"><ele>499.80000000000007</ele><time>2026-05-01T15:20:30.982Z</time></trkpt><trkpt lat="40.144" lon="15.613175"><ele>501.2</ele><time>2026-05-01T15:20:31.983Z</time></trkpt><trkpt lat="40.144045" lon="15.6130433"><ele>502.6</ele><time>2026-05-01T15:20:32.983Z</time></trkpt><trkpt lat="40.1440867" lon="15.612915"><ele>504.0</ele><time>2026-05-01T15:20:33.982Z</time></trkpt><trkpt lat="40.144125" lon="15.6128083"><ele>500.2</ele><time>2026-05-01T15:20:34.983Z</time></trkpt><trkpt lat="40.14415" lon="15.6127117"><ele>496.4</ele><time>2026-05-01T15:20:35.982Z</time></trkpt><trkpt lat="40.1441367" lon="15.6126017"><ele>492.6</ele><time>2026-05-01T15:20:36.982Z</time></trkpt><trkpt lat="40.1441017" lon="15.6124983"><ele>488.8</ele><time>2026-05-01T15:20:37.983Z</time></trkpt><trkpt lat="40.1440383" lon="15.6124017"><ele>485.0</ele><time>2026-05-01T15:20:38.982Z</time></trkpt><trkpt lat="40.14395" lon="15.6123217"><ele>485.0</ele><time>2026-05-01T15:20:39.982Z</time></trkpt><trkpt lat="40.1438433" lon="15.6122683"><ele>485.0</ele><time>2026-05-01T15:20:40.983Z</time></trkpt><trkpt lat="40.143745" lon="15.6122383"><ele>485.0</ele><time>2026-05-01T15:20:41.983Z</time></trkpt><trkpt lat="40.1436383" lon="15.6122083"><ele>485.0</ele><time>2026-05-01T15:20:42.982Z</time></trkpt><trkpt lat="40.1435317" lon="15.6122033"><ele>485.0</ele><time>2026-05-01T15:20:43.983Z</time></trkpt><trkpt lat="40.1434317" lon="15.612215"><ele>485.0</ele><time>2026-05-01T15:20:44.982Z</time></trkpt><trkpt lat="40.1433217" lon="15.6122133"><ele>485.0</ele><time>2026-05-01T15:20:45.983Z</time></trkpt><trkpt lat="40.143215" lon="15.612195"><ele>485.0</ele><time>2026-05-01T15:20:46.982Z</time></trkpt><trkpt lat="40.1431017" lon="15.6121817"><ele>485.0</ele><time>2026-05-01T15:20:47.983Z</time></trkpt><trkpt lat="40.142985" lon="15.612195"><ele>485.0</ele><time>2026-05-01T15:20:48.982Z</time></trkpt><trkpt lat="40.14287" lon="15.6122217"><ele>485.8</ele><time>2026-05-01T15:20:49.982Z</time></trkpt><trkpt lat="40.142745" lon="15.61226"><ele>486.6</ele><time>2026-05-01T15:20:50.983Z</time></trkpt><trkpt lat="40.1426333" lon="15.6122933"><ele>487.4</ele><time>2026-05-01T15:20:51.982Z</time></trkpt><trkpt lat="40.142525" lon="15.61232"><ele>488.2</ele><time>2026-05-01T15:20:52.982Z</time></trkpt><trkpt lat="40.14243" lon="15.61232"><ele>489.0</ele><time>2026-05-01T15:20:53.982Z</time></trkpt><trkpt lat="40.14233" lon="15.6122917"><ele>490.6</ele><time>2026-05-01T15:20:54.983Z</time></trkpt><trkpt lat="40.14224" lon="15.61223"><ele>492.2</ele><time>2026-05-01T15:20:55.983Z</time></trkpt><trkpt lat="40.1421617" lon="15.61215"><ele>493.80000000000007</ele><time>2026-05-01T15:20:56.983Z</time></trkpt><trkpt lat="40.1420733" lon="15.612075"><ele>495.40000000000003</ele><time>2026-05-01T15:20:57.982Z</time></trkpt><trkpt lat="40.1419883" lon="15.61202"><ele>497.0</ele><time>2026-05-01T15:20:58.983Z</time></trkpt><trkpt lat="40.141905" lon="15.6119983"><ele>497.0</ele><time>2026-05-01T15:20:59.982Z</time></trkpt><trkpt lat="40.1418183" lon="15.6120083"><ele>497.00000000000006</ele><time>2026-05-01T15:21:00.983Z</time></trkpt><trkpt lat="40.1417283" lon="15.61205"><ele>497.00000000000006</ele><time>2026-05-01T15:21:01.983Z</time></trkpt><trkpt lat="40.141625" lon="15.61211"><ele>497.0</ele><time>2026-05-01T15:21:02.983Z</time></trkpt><trkpt lat="40.14153" lon="15.6121883"><ele>497.0</ele><time>2026-05-01T15:21:03.982Z</time></trkpt><trkpt lat="40.1414267" lon="15.6122483"><ele>496.5</ele><time>2026-05-01T15:21:04.982Z</time></trkpt><trkpt lat="40.14132" lon="15.6123167"><ele>496.0</ele><time>2026-05-01T15:21:05.982Z</time></trkpt><trkpt lat="40.1412117" lon="15.6123767"><ele>495.5</ele><time>2026-05-01T15:21:06.983Z</time></trkpt><trkpt lat="40.1411083" lon="15.61243"><ele>495.0</ele><time>2026-05-01T15:21:07.982Z</time></trkpt><trkpt lat="40.141005" lon="15.612475"><ele>495.0</ele><time>2026-05-01T15:21:08.983Z</time></trkpt><trkpt lat="40.140905" lon="15.6125333"><ele>495.0</ele><time>2026-05-01T15:21:09.982Z</time></trkpt><trkpt lat="40.140805" lon="15.6125867"><ele>495.0</ele><time>2026-05-01T15:21:10.983Z</time></trkpt><trkpt lat="40.1407083" lon="15.6126417"><ele>495.0</ele><time>2026-05-01T15:21:11.982Z</time></trkpt><trkpt lat="40.1406183" lon="15.612685"><ele>495.0</ele><time>2026-05-01T15:21:12.983Z</time></trkpt><trkpt lat="40.1405333" lon="15.612735"><ele>496.6</ele><time>2026-05-01T15:21:13.982Z</time></trkpt><trkpt lat="40.1404683" lon="15.612825"><ele>498.2</ele><time>2026-05-01T15:21:14.982Z</time></trkpt><trkpt lat="40.14042" lon="15.6129417"><ele>499.79999999999995</ele><time>2026-05-01T15:21:15.982Z</time></trkpt><trkpt lat="40.1403933" lon="15.6130683"><ele>501.4</ele><time>2026-05-01T15:21:16.982Z</time></trkpt><trkpt lat="40.140375" lon="15.61322"><ele>503.0</ele><time>2026-05-01T15:21:17.982Z</time></trkpt><trkpt lat="40.1403533" lon="15.613335"><ele>502.99999999999994</ele><time>2026-05-01T15:21:18.982Z</time></trkpt><trkpt lat="40.1403267" lon="15.613455"><ele>503.0</ele><time>2026-05-01T15:21:19.983Z</time></trkpt><trkpt lat="40.1402967" lon="15.6135567"><ele>503.0</ele><time>2026-05-01T15:21:20.982Z</time></trkpt><trkpt lat="40.1402617" lon="15.61365"><ele>503.0</ele><time>2026-05-01T15:21:21.982Z</time></trkpt><trkpt lat="40.14022" lon="15.61372"><ele>502.99999999999994</ele><time>2026-05-01T15:21:22.982Z</time></trkpt><trkpt lat="40.1401083" lon="15.6137833"><ele>503.0</ele><time>2026-05-01T15:21:24.982Z</time></trkpt><trkpt lat="40.1400417" lon="15.6137733"><ele>503.0</ele><time>2026-05-01T15:21:25.982Z</time></trkpt><trkpt lat="40.139985" lon="15.6137183"><ele>502.99999999999994</ele><time>2026-05-01T15:21:26.982Z</time></trkpt><trkpt lat="40.1399483" lon="15.6136417"><ele>502.99999999999994</ele><time>2026-05-01T15:21:27.982Z</time></trkpt><trkpt lat="40.1399583" lon="15.6134467"><ele>503.0</ele><time>2026-05-01T15:21:29.983Z</time></trkpt><trkpt lat="40.139985" lon="15.6133183"><ele>503.0</ele><time>2026-05-01T15:21:30.983Z</time></trkpt><trkpt lat="40.1400183" lon="15.6131817"><ele>502.99999999999994</ele><time>2026-05-01T15:21:31.982Z</time></trkpt><trkpt lat="40.14004" lon="15.6130567"><ele>503.0</ele><time>2026-05-01T15:21:32.982Z</time></trkpt><trkpt lat="40.14006" lon="15.61293"><ele>503.0</ele><time>2026-05-01T15:21:33.982Z</time></trkpt><trkpt lat="40.140065" lon="15.6128083"><ele>503.0</ele><time>2026-05-01T15:21:34.982Z</time></trkpt><trkpt lat="40.1400567" lon="15.6127"><ele>502.99999999999994</ele><time>2026-05-01T15:21:35.982Z</time></trkpt><trkpt lat="40.1400583" lon="15.61261"><ele>503.0</ele><time>2026-05-01T15:21:36.982Z</time></trkpt><trkpt lat="40.140065" lon="15.6125217"><ele>504.2</ele><time>2026-05-01T15:21:37.982Z</time></trkpt><trkpt lat="40.1401183" lon="15.6123717"><ele>505.4</ele><time>2026-05-01T15:21:39.982Z</time></trkpt><trkpt lat="40.1401783" lon="15.612315"><ele>506.59999999999997</ele><time>2026-05-01T15:21:40.982Z</time></trkpt><trkpt lat="40.1402417" lon="15.6122483"><ele>507.79999999999995</ele><time>2026-05-01T15:21:41.982Z</time></trkpt><trkpt lat="40.140305" lon="15.61216"><ele>509.0</ele><time>2026-05-01T15:21:42.982Z</time></trkpt><trkpt lat="40.1403633" lon="15.6120483"><ele>510.6</ele><time>2026-05-01T15:21:43.982Z</time></trkpt><trkpt lat="40.1404133" lon="15.61192"><ele>512.2</ele><time>2026-05-01T15:21:44.983Z</time></trkpt><trkpt lat="40.14046" lon="15.6117767"><ele>513.8000000000001</ele><time>2026-05-01T15:21:45.982Z</time></trkpt><trkpt lat="40.1404817" lon="15.6116317"><ele>515.4</ele><time>2026-05-01T15:21:46.982Z</time></trkpt><trkpt lat="40.1404983" lon="15.6115117"><ele>517.0</ele><time>2026-05-01T15:21:47.983Z</time></trkpt><trkpt lat="40.1405233" lon="15.611415"><ele>517.0</ele><time>2026-05-01T15:21:48.982Z</time></trkpt><trkpt lat="40.1405833" lon="15.6113283"><ele>517.0</ele><time>2026-05-01T15:21:49.982Z</time></trkpt><trkpt lat="40.1406633" lon="15.6112467"><ele>517.0</ele><time>2026-05-01T15:21:50.982Z</time></trkpt><trkpt lat="40.14073" lon="15.6111567"><ele>517.0</ele><time>2026-05-01T15:21:51.982Z</time></trkpt><trkpt lat="40.1407733" lon="15.6110533"><ele>517.0</ele><time>2026-05-01T15:21:52.982Z</time></trkpt><trkpt lat="40.140795" lon="15.610935"><ele>517.6666666666667</ele><time>2026-05-01T15:21:53.982Z</time></trkpt><trkpt lat="40.1407933" lon="15.610815"><ele>518.3333333333334</ele><time>2026-05-01T15:21:54.982Z</time></trkpt><trkpt lat="40.1407717" lon="15.6107117"><ele>519.0</ele><time>2026-05-01T15:21:55.983Z</time></trkpt><trkpt lat="40.1407367" lon="15.61061"><ele>519.6666666666666</ele><time>2026-05-01T15:21:56.982Z</time></trkpt><trkpt lat="40.140695" lon="15.610515"><ele>520.3333333333333</ele><time>2026-05-01T15:21:57.982Z</time></trkpt><trkpt lat="40.1406467" lon="15.6104217"><ele>521.0</ele><time>2026-05-01T15:21:58.982Z</time></trkpt><trkpt lat="40.1405983" lon="15.6103267"><ele>520.6</ele><time>2026-05-01T15:21:59.983Z</time></trkpt><trkpt lat="40.14057" lon="15.6102383"><ele>520.2</ele><time>2026-05-01T15:22:00.982Z</time></trkpt><trkpt lat="40.1405433" lon="15.610145"><ele>519.8</ele><time>2026-05-01T15:22:01.983Z</time></trkpt><trkpt lat="40.1405583" lon="15.6100217"><ele>519.4</ele><time>2026-05-01T15:22:03.982Z</time></trkpt><trkpt lat="40.140655" lon="15.609975"><ele>519.0</ele><time>2026-05-01T15:22:05.982Z</time></trkpt><trkpt lat="40.1407667" lon="15.609925"><ele>517.5</ele><time>2026-05-01T15:22:07.982Z</time></trkpt><trkpt lat="40.1408033" lon="15.609855"><ele>516.0</ele><time>2026-05-01T15:22:08.982Z</time></trkpt><trkpt lat="40.140825" lon="15.6097617"><ele>514.5</ele><time>2026-05-01T15:22:09.982Z</time></trkpt><trkpt lat="40.14083" lon="15.60966"><ele>513.0</ele><time>2026-05-01T15:22:10.983Z</time></trkpt><trkpt lat="40.140815" lon="15.6095733"><ele>511.5</ele><time>2026-05-01T15:22:11.982Z</time></trkpt><trkpt lat="40.1407633" lon="15.6094433"><ele>510.0</ele><time>2026-05-01T15:22:13.983Z</time></trkpt><trkpt lat="40.1407233" lon="15.6093267"><ele>509.8</ele><time>2026-05-01T15:22:15.982Z</time></trkpt><trkpt lat="40.140695" lon="15.6092317"><ele>509.6</ele><time>2026-05-01T15:22:17.982Z</time></trkpt><trkpt lat="40.1406267" lon="15.60917"><ele>509.4</ele><time>2026-05-01T15:22:20.982Z</time></trkpt><trkpt lat="40.1405233" lon="15.6091667"><ele>509.2</ele><time>2026-05-01T15:22:22.982Z</time></trkpt><trkpt lat="40.1403883" lon="15.609165"><ele>509.0</ele><time>2026-05-01T15:22:24.982Z</time></trkpt><trkpt lat="40.1403133" lon="15.609165"><ele>508.99999999999994</ele><time>2026-05-01T15:22:25.982Z</time></trkpt><trkpt lat="40.1402267" lon="15.6091517"><ele>509.0</ele><time>2026-05-01T15:22:26.982Z</time></trkpt><trkpt lat="40.14014" lon="15.6091333"><ele>509.0</ele><time>2026-05-01T15:22:27.982Z</time></trkpt><trkpt lat="40.1400517" lon="15.6091233"><ele>509.0</ele><time>2026-05-01T15:22:28.982Z</time></trkpt><trkpt lat="40.1399667" lon="15.6091117"><ele>508.99999999999994</ele><time>2026-05-01T15:22:29.982Z</time></trkpt><trkpt lat="40.13988" lon="15.609105"><ele>509.0</ele><time>2026-05-01T15:22:30.983Z</time></trkpt><trkpt lat="40.13981" lon="15.609115"><ele>507.66666666666663</ele><time>2026-05-01T15:22:31.982Z</time></trkpt><trkpt lat="40.139735" lon="15.6091417"><ele>506.3333333333333</ele><time>2026-05-01T15:22:32.983Z</time></trkpt><trkpt lat="40.1396783" lon="15.6091983"><ele>505.0</ele><time>2026-05-01T15:22:33.982Z</time></trkpt><trkpt lat="40.1396483" lon="15.6092933"><ele>503.66666666666663</ele><time>2026-05-01T15:22:34.982Z</time></trkpt><trkpt lat="40.13964" lon="15.6094117"><ele>502.3333333333333</ele><time>2026-05-01T15:22:35.982Z</time></trkpt><trkpt lat="40.13965" lon="15.6095283"><ele>501.0</ele><time>2026-05-01T15:22:36.983Z</time></trkpt><trkpt lat="40.1396633" lon="15.6096583"><ele>501.0</ele><time>2026-05-01T15:22:37.982Z</time></trkpt><trkpt lat="40.1396733" lon="15.60979"><ele>501.0</ele><time>2026-05-01T15:22:38.982Z</time></trkpt><trkpt lat="40.1396717" lon="15.609925"><ele>501.0</ele><time>2026-05-01T15:22:39.982Z</time></trkpt><trkpt lat="40.1396667" lon="15.6100633"><ele>501.0</ele><time>2026-05-01T15:22:40.982Z</time></trkpt><trkpt lat="40.1396583" lon="15.6102"><ele>501.0</ele><time>2026-05-01T15:22:41.982Z</time></trkpt><trkpt lat="40.1396567" lon="15.6103317"><ele>503.6</ele><time>2026-05-01T15:22:42.982Z</time></trkpt><trkpt lat="40.1396467" lon="15.6104683"><ele>506.20000000000005</ele><time>2026-05-01T15:22:43.983Z</time></trkpt><trkpt lat="40.139635" lon="15.6105917"><ele>508.79999999999995</ele><time>2026-05-01T15:22:44.982Z</time></trkpt><trkpt lat="40.1396167" lon="15.6107067"><ele>511.4</ele><time>2026-05-01T15:22:45.982Z</time></trkpt><trkpt lat="40.1395783" lon="15.61082"><ele>514.0</ele><time>2026-05-01T15:22:46.982Z</time></trkpt><trkpt lat="40.1395233" lon="15.6109183"><ele>514.0</ele><time>2026-05-01T15:22:47.982Z</time></trkpt><trkpt lat="40.13945" lon="15.6110133"><ele>514.0</ele><time>2026-05-01T15:22:48.982Z</time></trkpt><trkpt lat="40.13938" lon="15.611105"><ele>514.0</ele><time>2026-05-01T15:22:49.982Z</time></trkpt><trkpt lat="40.139295" lon="15.6111917"><ele>514.0</ele><time>2026-05-01T15:22:50.982Z</time></trkpt><trkpt lat="40.1392133" lon="15.6112733"><ele>514.0</ele><time>2026-05-01T15:22:51.982Z</time></trkpt><trkpt lat="40.1391133" lon="15.6113483"><ele>515.5</ele><time>2026-05-01T15:22:52.983Z</time></trkpt><trkpt lat="40.1389967" lon="15.6114083"><ele>517.0</ele><time>2026-05-01T15:22:53.983Z</time></trkpt><trkpt lat="40.1388833" lon="15.6114617"><ele>518.5</ele><time>2026-05-01T15:22:54.982Z</time></trkpt><trkpt lat="40.1387833" lon="15.6115133"><ele>520.0</ele><time>2026-05-01T15:22:55.983Z</time></trkpt><trkpt lat="40.1386733" lon="15.6115583"><ele>520.0</ele><time>2026-05-01T15:22:56.982Z</time></trkpt><trkpt lat="40.1385567" lon="15.6116033"><ele>520.0</ele><time>2026-05-01T15:22:57.982Z</time></trkpt><trkpt lat="40.1384483" lon="15.6116433"><ele>520.0</ele><time>2026-05-01T15:22:58.982Z</time></trkpt><trkpt lat="40.13835" lon="15.6116933"><ele>520.0</ele><time>2026-05-01T15:22:59.982Z</time></trkpt><trkpt lat="40.138255" lon="15.61177"><ele>514.75</ele><time>2026-05-01T15:23:00.982Z</time></trkpt><trkpt lat="40.1381717" lon="15.6118767"><ele>509.5</ele><time>2026-05-01T15:23:01.983Z</time></trkpt><trkpt lat="40.1381083" lon="15.6119983"><ele>504.25</ele><time>2026-05-01T15:23:02.982Z</time></trkpt><trkpt lat="40.1380567" lon="15.6121383"><ele>499.0</ele><time>2026-05-01T15:23:03.982Z</time></trkpt><trkpt lat="40.1380217" lon="15.61229"><ele>499.0</ele><time>2026-05-01T15:23:04.982Z</time></trkpt><trkpt lat="40.1380117" lon="15.6124433"><ele>499.0</ele><time>2026-05-01T15:23:05.982Z</time></trkpt><trkpt lat="40.1380083" lon="15.6125883"><ele>499.0</ele><time>2026-05-01T15:23:06.983Z</time></trkpt><trkpt lat="40.1380133" lon="15.6127267"><ele>499.0</ele><time>2026-05-01T15:23:07.982Z</time></trkpt><trkpt lat="40.138015" lon="15.61285"><ele>499.0</ele><time>2026-05-01T15:23:08.983Z</time></trkpt><trkpt lat="40.1379917" lon="15.61295"><ele>500.6</ele><time>2026-05-01T15:23:09.983Z</time></trkpt><trkpt lat="40.1379467" lon="15.6130467"><ele>502.2</ele><time>2026-05-01T15:23:10.982Z</time></trkpt><trkpt lat="40.13789" lon="15.61315"><ele>503.80000000000007</ele><time>2026-05-01T15:23:11.982Z</time></trkpt><trkpt lat="40.1378517" lon="15.61327"><ele>505.40000000000003</ele><time>2026-05-01T15:23:12.982Z</time></trkpt><trkpt lat="40.13783" lon="15.613405"><ele>507.0</ele><time>2026-05-01T15:23:13.982Z</time></trkpt><trkpt lat="40.13782" lon="15.613565"><ele>509.0</ele><time>2026-05-01T15:23:14.983Z</time></trkpt><trkpt lat="40.1378083" lon="15.6137217"><ele>511.0</ele><time>2026-05-01T15:23:15.982Z</time></trkpt><trkpt lat="40.1377933" lon="15.6138783"><ele>513.0</ele><time>2026-05-01T15:23:16.982Z</time></trkpt><trkpt lat="40.1377633" lon="15.6140283"><ele>515.0</ele><time>2026-05-01T15:23:17.982Z</time></trkpt><trkpt lat="40.1377333" lon="15.6141767"><ele>515.0</ele><time>2026-05-01T15:23:18.983Z</time></trkpt><trkpt lat="40.1376917" lon="15.6143267"><ele>515.0</ele><time>2026-05-01T15:23:19.982Z</time></trkpt><trkpt lat="40.1376433" lon="15.6144567"><ele>515.0</ele><time>2026-05-01T15:23:20.982Z</time></trkpt><trkpt lat="40.1375983" lon="15.6145733"><ele>515.0</ele><time>2026-05-01T15:23:21.982Z</time></trkpt><trkpt lat="40.137535" lon="15.6147033"><ele>517.8333333333333</ele><time>2026-05-01T15:23:22.982Z</time></trkpt><trkpt lat="40.137485" lon="15.6148283"><ele>520.6666666666666</ele><time>2026-05-01T15:23:23.983Z</time></trkpt><trkpt lat="40.1374517" lon="15.6149433"><ele>523.5</ele><time>2026-05-01T15:23:24.982Z</time></trkpt><trkpt lat="40.1374217" lon="15.6150467"><ele>526.3333333333334</ele><time>2026-05-01T15:23:25.983Z</time></trkpt><trkpt lat="40.1373733" lon="15.6151133"><ele>529.1666666666667</ele><time>2026-05-01T15:23:26.982Z</time></trkpt><trkpt lat="40.13731" lon="15.61516"><ele>532.0</ele><time>2026-05-01T15:23:27.982Z</time></trkpt><trkpt lat="40.1372333" lon="15.6151783"><ele>532.0</ele><time>2026-05-01T15:23:28.983Z</time></trkpt><trkpt lat="40.1371517" lon="15.615175"><ele>532.0</ele><time>2026-05-01T15:23:29.982Z</time></trkpt><trkpt lat="40.1370583" lon="15.6151517"><ele>532.0</ele><time>2026-05-01T15:23:30.982Z</time></trkpt><trkpt lat="40.13695" lon="15.6150833"><ele>532.0</ele><time>2026-05-01T15:23:31.982Z</time></trkpt><trkpt lat="40.1368533" lon="15.6150117"><ele>532.0</ele><time>2026-05-01T15:23:32.983Z</time></trkpt><trkpt lat="40.136745" lon="15.614965"><ele>532.0</ele><time>2026-05-01T15:23:33.982Z</time></trkpt><trkpt lat="40.1366333" lon="15.6149317"><ele>532.0</ele><time>2026-05-01T15:23:34.983Z</time></trkpt><trkpt lat="40.1365133" lon="15.61489"><ele>532.0</ele><time>2026-05-01T15:23:35.983Z</time></trkpt><trkpt lat="40.1364017" lon="15.61485"><ele>532.0</ele><time>2026-05-01T15:23:36.982Z</time></trkpt><trkpt lat="40.1362917" lon="15.614805"><ele>530.8000000000001</ele><time>2026-05-01T15:23:37.982Z</time></trkpt><trkpt lat="40.1361967" lon="15.6147533"><ele>529.6</ele><time>2026-05-01T15:23:38.982Z</time></trkpt><trkpt lat="40.1361017" lon="15.614715"><ele>528.4000000000001</ele><time>2026-05-01T15:23:39.982Z</time></trkpt><trkpt lat="40.136" lon="15.614705"><ele>527.2</ele><time>2026-05-01T15:23:40.982Z</time></trkpt><trkpt lat="40.135895" lon="15.6147317"><ele>526.0</ele><time>2026-05-01T15:23:41.982Z</time></trkpt><trkpt lat="40.1357967" lon="15.614795"><ele>519.25</ele><time>2026-05-01T15:23:42.982Z</time></trkpt><trkpt lat="40.1357017" lon="15.6148767"><ele>512.5</ele><time>2026-05-01T15:23:43.982Z</time></trkpt><trkpt lat="40.135615" lon="15.6149717"><ele>505.75</ele><time>2026-05-01T15:23:44.982Z</time></trkpt><trkpt lat="40.135545" lon="15.615085"><ele>499.0</ele><time>2026-05-01T15:23:45.982Z</time></trkpt><trkpt lat="40.13548" lon="15.61522"><ele>500.5</ele><time>2026-05-01T15:23:46.982Z</time></trkpt><trkpt lat="40.1354233" lon="15.615365"><ele>502.0</ele><time>2026-05-01T15:23:47.982Z</time></trkpt><trkpt lat="40.1353883" lon="15.6155117"><ele>503.5</ele><time>2026-05-01T15:23:48.982Z</time></trkpt><trkpt lat="40.135375" lon="15.61566"><ele>505.0</ele><time>2026-05-01T15:23:49.982Z</time></trkpt><trkpt lat="40.135375" lon="15.6158017"><ele>505.0</ele><time>2026-05-01T15:23:50.982Z</time></trkpt><trkpt lat="40.1353833" lon="15.6159367"><ele>505.0</ele><time>2026-05-01T15:23:51.983Z</time></trkpt><trkpt lat="40.1353983" lon="15.616075"><ele>505.0</ele><time>2026-05-01T15:23:52.982Z</time></trkpt><trkpt lat="40.13542" lon="15.6162133"><ele>505.0</ele><time>2026-05-01T15:23:53.982Z</time></trkpt><trkpt lat="40.1354567" lon="15.6163617"><ele>505.0</ele><time>2026-05-01T15:23:54.982Z</time></trkpt><trkpt lat="40.1354983" lon="15.6165033"><ele>505.5</ele><time>2026-05-01T15:23:55.982Z</time></trkpt><trkpt lat="40.1355317" lon="15.6166533"><ele>506.0</ele><time>2026-05-01T15:23:56.982Z</time></trkpt><trkpt lat="40.135575" lon="15.6168017"><ele>506.5</ele><time>2026-05-01T15:23:57.982Z</time></trkpt><trkpt lat="40.13561" lon="15.616945"><ele>507.0</ele><time>2026-05-01T15:23:58.982Z</time></trkpt><trkpt lat="40.1356233" lon="15.61709"><ele>507.0</ele><time>2026-05-01T15:23:59.983Z</time></trkpt><trkpt lat="40.1356383" lon="15.61724"><ele>507.00000000000006</ele><time>2026-05-01T15:24:00.982Z</time></trkpt><trkpt lat="40.13563" lon="15.617385"><ele>507.00000000000006</ele><time>2026-05-01T15:24:01.982Z</time></trkpt><trkpt lat="40.1356067" lon="15.6175217"><ele>507.0</ele><time>2026-05-01T15:24:02.982Z</time></trkpt><trkpt lat="40.1355683" lon="15.61765"><ele>507.0</ele><time>2026-05-01T15:24:03.982Z</time></trkpt><trkpt lat="40.1355267" lon="15.617775"><ele>512.4</ele><time>2026-05-01T15:24:04.982Z</time></trkpt><trkpt lat="40.13547" lon="15.617865"><ele>517.8000000000001</ele><time>2026-05-01T15:24:05.982Z</time></trkpt><trkpt lat="40.1354" lon="15.617925"><ele>523.2</ele><time>2026-05-01T15:24:06.983Z</time></trkpt><trkpt lat="40.1353267" lon="15.6179717"><ele>528.6</ele><time>2026-05-01T15:24:07.983Z</time></trkpt><trkpt lat="40.1352333" lon="15.6179983"><ele>534.0</ele><time>2026-05-01T15:24:08.983Z</time></trkpt><trkpt lat="40.135135" lon="15.6180317"><ele>534.0</ele><time>2026-05-01T15:24:09.982Z</time></trkpt><trkpt lat="40.135025" lon="15.6180433"><ele>534.0</ele><time>2026-05-01T15:24:10.982Z</time></trkpt><trkpt lat="40.134915" lon="15.61808"><ele>534.0</ele><time>2026-05-01T15:24:11.982Z</time></trkpt><trkpt lat="40.1348167" lon="15.618115"><ele>534.0</ele><time>2026-05-01T15:24:12.982Z</time></trkpt><trkpt lat="40.1347183" lon="15.6181267"><ele>534.0</ele><time>2026-05-01T15:24:13.982Z</time></trkpt><trkpt lat="40.134625" lon="15.6181133"><ele>532.0</ele><time>2026-05-01T15:24:14.982Z</time></trkpt><trkpt lat="40.1345333" lon="15.618075"><ele>530.0</ele><time>2026-05-01T15:24:15.982Z</time></trkpt><trkpt lat="40.1344383" lon="15.6180217"><ele>528.0</ele><time>2026-05-01T15:24:16.982Z</time></trkpt><trkpt lat="40.1343483" lon="15.6179717"><ele>526.0</ele><time>2026-05-01T15:24:17.982Z</time></trkpt><trkpt lat="40.13424" lon="15.6179367"><ele>524.0</ele><time>2026-05-01T15:24:18.982Z</time></trkpt><trkpt lat="40.134135" lon="15.6179483"><ele>525.6</ele><time>2026-05-01T15:24:19.982Z</time></trkpt><trkpt lat="40.134035" lon="15.6180017"><ele>527.2</ele><time>2026-05-01T15:24:20.982Z</time></trkpt><trkpt lat="40.1339517" lon="15.6180717"><ele>528.8000000000001</ele><time>2026-05-01T15:24:21.982Z</time></trkpt><trkpt lat="40.133875" lon="15.6181317"><ele>530.4</ele><time>2026-05-01T15:24:22.982Z</time></trkpt><trkpt lat="40.1338" lon="15.6181783"><ele>532.0</ele><time>2026-05-01T15:24:23.982Z</time></trkpt><trkpt lat="40.1337183" lon="15.6181917"><ele>532.0</ele><time>2026-05-01T15:24:24.983Z</time></trkpt><trkpt lat="40.13364" lon="15.618185"><ele>532.0</ele><time>2026-05-01T15:24:25.983Z</time></trkpt><trkpt lat="40.1335567" lon="15.618135"><ele>532.0</ele><time>2026-05-01T15:24:26.982Z</time></trkpt><trkpt lat="40.1334667" lon="15.6180517"><ele>532.0</ele><time>2026-05-01T15:24:27.982Z</time></trkpt><trkpt lat="40.1333667" lon="15.61794"><ele>532.0</ele><time>2026-05-01T15:24:28.982Z</time></trkpt><trkpt lat="40.1332817" lon="15.617835"><ele>530.6</ele><time>2026-05-01T15:24:29.982Z</time></trkpt><trkpt lat="40.1332067" lon="15.6177167"><ele>529.2</ele><time>2026-05-01T15:24:30.982Z</time></trkpt><trkpt lat="40.133155" lon="15.6175867"><ele>527.8</ele><time>2026-05-01T15:24:31.983Z</time></trkpt><trkpt lat="40.1331167" lon="15.617465"><ele>526.4</ele><time>2026-05-01T15:24:32.983Z</time></trkpt><trkpt lat="40.13307" lon="15.6173467"><ele>525.0</ele><time>2026-05-01T15:24:33.982Z</time></trkpt><trkpt lat="40.133005" lon="15.6172517"><ele>525.0</ele><time>2026-05-01T15:24:34.983Z</time></trkpt><trkpt lat="40.13292" lon="15.6171617"><ele>525.0</ele><time>2026-05-01T15:24:35.983Z</time></trkpt><trkpt lat="40.1328283" lon="15.617075"><ele>525.0</ele><time>2026-05-01T15:24:36.982Z</time></trkpt><trkpt lat="40.1327267" lon="15.6169967"><ele>525.0</ele><time>2026-05-01T15:24:37.983Z</time></trkpt><trkpt lat="40.1326283" lon="15.61692"><ele>526.6</ele><time>2026-05-01T15:24:38.983Z</time></trkpt><trkpt lat="40.1325417" lon="15.6168383"><ele>528.2</ele><time>2026-05-01T15:24:39.982Z</time></trkpt><trkpt lat="40.1324667" lon="15.61674"><ele>529.8</ele><time>2026-05-01T15:24:40.982Z</time></trkpt><trkpt lat="40.1323967" lon="15.61663"><ele>531.4</ele><time>2026-05-01T15:24:41.982Z</time></trkpt><trkpt lat="40.132325" lon="15.6165283"><ele>533.0</ele><time>2026-05-01T15:24:42.982Z</time></trkpt><trkpt lat="40.1322583" lon="15.6164317"><ele>533.0</ele><time>2026-05-01T15:24:43.982Z</time></trkpt><trkpt lat="40.1322017" lon="15.616335"><ele>533.0</ele><time>2026-05-01T15:24:44.982Z</time></trkpt><trkpt lat="40.1321467" lon="15.616235"><ele>533.0</ele><time>2026-05-01T15:24:45.983Z</time></trkpt><trkpt lat="40.1321167" lon="15.6161317"><ele>533.0</ele><time>2026-05-01T15:24:46.982Z</time></trkpt><trkpt lat="40.1320983" lon="15.61603"><ele>533.0</ele><time>2026-05-01T15:24:47.983Z</time></trkpt><trkpt lat="40.1320983" lon="15.6159367"><ele>533.0</ele><time>2026-05-01T15:24:48.983Z</time></trkpt><trkpt lat="40.1321233" lon="15.6158417"><ele>531.4</ele><time>2026-05-01T15:24:49.982Z</time></trkpt><trkpt lat="40.1321567" lon="15.6157383"><ele>529.8</ele><time>2026-05-01T15:24:50.982Z</time></trkpt><trkpt lat="40.1322" lon="15.61562"><ele>528.2</ele><time>2026-05-01T15:24:51.983Z</time></trkpt><trkpt lat="40.1322417" lon="15.615475"><ele>526.6</ele><time>2026-05-01T15:24:52.983Z</time></trkpt><trkpt lat="40.1322983" lon="15.6153217"><ele>525.0</ele><time>2026-05-01T15:24:53.982Z</time></trkpt><trkpt lat="40.1323733" lon="15.6151917"><ele>520.6</ele><time>2026-05-01T15:24:54.982Z</time></trkpt><trkpt lat="40.1324383" lon="15.6150717"><ele>516.2</ele><time>2026-05-01T15:24:55.982Z</time></trkpt><trkpt lat="40.1324783" lon="15.6149433"><ele>511.79999999999995</ele><time>2026-05-01T15:24:56.982Z</time></trkpt><trkpt lat="40.1324833" lon="15.6148017"><ele>507.4</ele><time>2026-05-01T15:24:57.982Z</time></trkpt><trkpt lat="40.1324867" lon="15.6146567"><ele>503.0</ele><time>2026-05-01T15:24:58.982Z</time></trkpt><trkpt lat="40.1324767" lon="15.6145133"><ele>502.49999999999994</ele><time>2026-05-01T15:24:59.983Z</time></trkpt><trkpt lat="40.1324783" lon="15.6143717"><ele>502.0</ele><time>2026-05-01T15:25:00.982Z</time></trkpt><trkpt lat="40.1324933" lon="15.614245"><ele>501.5</ele><time>2026-05-01T15:25:01.982Z</time></trkpt><trkpt lat="40.1325" lon="15.6141383"><ele>501.0</ele><time>2026-05-01T15:25:02.982Z</time></trkpt><trkpt lat="40.1325083" lon="15.61403"><ele>500.49999999999994</ele><time>2026-05-01T15:25:03.982Z</time></trkpt><trkpt lat="40.132505" lon="15.61393"><ele>500.0</ele><time>2026-05-01T15:25:04.982Z</time></trkpt><trkpt lat="40.1324867" lon="15.613845"><ele>499.99999999999994</ele><time>2026-05-01T15:25:05.983Z</time></trkpt><trkpt lat="40.1324367" lon="15.6137783"><ele>500.0</ele><time>2026-05-01T15:25:06.982Z</time></trkpt><trkpt lat="40.13238" lon="15.61373"><ele>500.0</ele><time>2026-05-01T15:25:07.982Z</time></trkpt><trkpt lat="40.1323033" lon="15.613715"><ele>500.0</ele><time>2026-05-01T15:25:08.983Z</time></trkpt><trkpt lat="40.13221" lon="15.613725"><ele>499.99999999999994</ele><time>2026-05-01T15:25:09.982Z</time></trkpt><trkpt lat="40.132105" lon="15.613765"><ele>500.0</ele><time>2026-05-01T15:25:10.983Z</time></trkpt><trkpt lat="40.13199" lon="15.61382"><ele>499.5</ele><time>2026-05-01T15:25:11.982Z</time></trkpt><trkpt lat="40.131885" lon="15.613845"><ele>499.0</ele><time>2026-05-01T15:25:12.983Z</time></trkpt><trkpt lat="40.1317717" lon="15.6138783"><ele>498.5</ele><time>2026-05-01T15:25:13.982Z</time></trkpt><trkpt lat="40.1316583" lon="15.613905"><ele>498.0</ele><time>2026-05-01T15:25:14.982Z</time></trkpt><trkpt lat="40.131545" lon="15.6139333"><ele>498.0</ele><time>2026-05-01T15:25:15.983Z</time></trkpt><trkpt lat="40.1314383" lon="15.61398"><ele>497.99999999999994</ele><time>2026-05-01T15:25:16.982Z</time></trkpt><trkpt lat="40.131335" lon="15.6140433"><ele>497.99999999999994</ele><time>2026-05-01T15:25:17.982Z</time></trkpt><trkpt lat="40.1312433" lon="15.614105"><ele>498.0</ele><time>2026-05-01T15:25:18.982Z</time></trkpt><trkpt lat="40.13115" lon="15.6141883"><ele>498.0</ele><time>2026-05-01T15:25:19.983Z</time></trkpt><trkpt lat="40.1310517" lon="15.6142867"><ele>498.0</ele><time>2026-05-01T15:25:20.982Z</time></trkpt><trkpt lat="40.1309533" lon="15.6143817"><ele>497.99999999999994</ele><time>2026-05-01T15:25:21.982Z</time></trkpt><trkpt lat="40.1308633" lon="15.6144567"><ele>497.99999999999994</ele><time>2026-05-01T15:25:22.982Z</time></trkpt><trkpt lat="40.1307683" lon="15.614505"><ele>498.0</ele><time>2026-05-01T15:25:23.983Z</time></trkpt><trkpt lat="40.130665" lon="15.61452"><ele>498.0</ele><time>2026-05-01T15:25:24.982Z</time></trkpt><trkpt lat="40.1305683" lon="15.6144967"><ele>498.1666666666667</ele><time>2026-05-01T15:25:25.983Z</time></trkpt><trkpt lat="40.130485" lon="15.6144367"><ele>498.33333333333337</ele><time>2026-05-01T15:25:26.983Z</time></trkpt><trkpt lat="40.1304217" lon="15.6143533"><ele>498.5</ele><time>2026-05-01T15:25:27.982Z</time></trkpt><trkpt lat="40.1303717" lon="15.6142583"><ele>498.6666666666667</ele><time>2026-05-01T15:25:28.982Z</time></trkpt><trkpt lat="40.1303333" lon="15.6141533"><ele>498.83333333333337</ele><time>2026-05-01T15:25:29.982Z</time></trkpt><trkpt lat="40.1302883" lon="15.6140617"><ele>499.0</ele><time>2026-05-01T15:25:30.982Z</time></trkpt><trkpt lat="40.1302383" lon="15.6139817"><ele>499.00000000000006</ele><time>2026-05-01T15:25:31.982Z</time></trkpt><trkpt lat="40.1301783" lon="15.6139133"><ele>499.0</ele><time>2026-05-01T15:25:32.982Z</time></trkpt><trkpt lat="40.1301167" lon="15.61386"><ele>499.0</ele><time>2026-05-01T15:25:33.982Z</time></trkpt><trkpt lat="40.1300467" lon="15.6138367"><ele>499.0</ele><time>2026-05-01T15:25:34.983Z</time></trkpt><trkpt lat="40.1299667" lon="15.613855"><ele>499.00000000000006</ele><time>2026-05-01T15:25:35.982Z</time></trkpt><trkpt lat="40.129895" lon="15.6139083"><ele>499.0</ele><time>2026-05-01T15:25:36.983Z</time></trkpt><trkpt lat="40.1298233" lon="15.6139867"><ele>497.6666666666667</ele><time>2026-05-01T15:25:37.983Z</time></trkpt><trkpt lat="40.1297583" lon="15.614065"><ele>496.33333333333337</ele><time>2026-05-01T15:25:38.982Z</time></trkpt><trkpt lat="40.1296867" lon="15.6141417"><ele>495.0</ele><time>2026-05-01T15:25:39.982Z</time></trkpt><trkpt lat="40.129615" lon="15.6142167"><ele>493.66666666666663</ele><time>2026-05-01T15:25:40.982Z</time></trkpt><trkpt lat="40.129555" lon="15.6142917"><ele>492.3333333333333</ele><time>2026-05-01T15:25:41.982Z</time></trkpt><trkpt lat="40.1295067" lon="15.6143717"><ele>491.0</ele><time>2026-05-01T15:25:42.983Z</time></trkpt><trkpt lat="40.1294833" lon="15.614465"><ele>490.20000000000005</ele><time>2026-05-01T15:25:43.982Z</time></trkpt><trkpt lat="40.1294867" lon="15.6145733"><ele>489.40000000000003</ele><time>2026-05-01T15:25:44.982Z</time></trkpt><trkpt lat="40.129495" lon="15.6146867"><ele>488.6</ele><time>2026-05-01T15:25:45.983Z</time></trkpt><trkpt lat="40.1295267" lon="15.6148033"><ele>487.8</ele><time>2026-05-01T15:25:46.983Z</time></trkpt><trkpt lat="40.1295683" lon="15.6149233"><ele>487.0</ele><time>2026-05-01T15:25:47.983Z</time></trkpt><trkpt lat="40.1296167" lon="15.6150533"><ele>487.0</ele><time>2026-05-01T15:25:48.982Z</time></trkpt><trkpt lat="40.1296683" lon="15.61519"><ele>487.0</ele><time>2026-05-01T15:25:49.982Z</time></trkpt><trkpt lat="40.12971" lon="15.6153317"><ele>487.0</ele><time>2026-05-01T15:25:50.982Z</time></trkpt><trkpt lat="40.1297433" lon="15.6154717"><ele>487.0</ele><time>2026-05-01T15:25:51.982Z</time></trkpt><trkpt lat="40.1297617" lon="15.61562"><ele>484.8</ele><time>2026-05-01T15:25:52.982Z</time></trkpt><trkpt lat="40.12977" lon="15.6157717"><ele>482.6</ele><time>2026-05-01T15:25:53.982Z</time></trkpt><trkpt lat="40.12977" lon="15.6159267"><ele>480.40000000000003</ele><time>2026-05-01T15:25:54.983Z</time></trkpt><trkpt lat="40.1297633" lon="15.6160717"><ele>478.20000000000005</ele><time>2026-05-01T15:25:55.983Z</time></trkpt><trkpt lat="40.1297483" lon="15.6162017"><ele>476.0</ele><time>2026-05-01T15:25:56.983Z</time></trkpt><trkpt lat="40.1297233" lon="15.61632"><ele>476.0</ele><time>2026-05-01T15:25:57.983Z</time></trkpt><trkpt lat="40.1296917" lon="15.6164283"><ele>476.0</ele><time>2026-05-01T15:25:58.982Z</time></trkpt><trkpt lat="40.129635" lon="15.6165133"><ele>476.0</ele><time>2026-05-01T15:25:59.983Z</time></trkpt><trkpt lat="40.1295617" lon="15.6165883"><ele>476.0</ele><time>2026-05-01T15:26:00.982Z</time></trkpt><trkpt lat="40.1294767" lon="15.6166683"><ele>476.0</ele><time>2026-05-01T15:26:01.982Z</time></trkpt><trkpt lat="40.12939" lon="15.6167567"><ele>476.0</ele><time>2026-05-01T15:26:02.982Z</time></trkpt><trkpt lat="40.1293017" lon="15.616855"><ele>476.0</ele><time>2026-05-01T15:26:03.982Z</time></trkpt><trkpt lat="40.1292117" lon="15.61696"><ele>476.0</ele><time>2026-05-01T15:26:04.983Z</time></trkpt><trkpt lat="40.1291233" lon="15.617065"><ele>476.0</ele><time>2026-05-01T15:26:05.983Z</time></trkpt><trkpt lat="40.12903" lon="15.6171733"><ele>474.0</ele><time>2026-05-01T15:26:06.982Z</time></trkpt><trkpt lat="40.1289333" lon="15.6172733"><ele>472.0</ele><time>2026-05-01T15:26:07.982Z</time></trkpt><trkpt lat="40.12883" lon="15.6173883"><ele>470.0</ele><time>2026-05-01T15:26:08.983Z</time></trkpt><trkpt lat="40.12872" lon="15.6174933"><ele>468.0</ele><time>2026-05-01T15:26:09.983Z</time></trkpt><trkpt lat="40.1286167" lon="15.6176067"><ele>468.0</ele><time>2026-05-01T15:26:10.983Z</time></trkpt><trkpt lat="40.1285117" lon="15.6176983"><ele>468.0</ele><time>2026-05-01T15:26:11.982Z</time></trkpt><trkpt lat="40.128415" lon="15.6178033"><ele>468.0</ele><time>2026-05-01T15:26:12.983Z</time></trkpt><trkpt lat="40.1283333" lon="15.6179117"><ele>468.0</ele><time>2026-05-01T15:26:13.982Z</time></trkpt><trkpt lat="40.128285" lon="15.618045"><ele>467.0</ele><time>2026-05-01T15:26:14.983Z</time></trkpt><trkpt lat="40.1282433" lon="15.6181817"><ele>465.99999999999994</ele><time>2026-05-01T15:26:15.982Z</time></trkpt><trkpt lat="40.1282" lon="15.61832"><ele>464.99999999999994</ele><time>2026-05-01T15:26:16.982Z</time></trkpt><trkpt lat="40.1281417" lon="15.618445"><ele>464.0</ele><time>2026-05-01T15:26:17.983Z</time></trkpt><trkpt lat="40.12808" lon="15.61856"><ele>463.0</ele><time>2026-05-01T15:26:18.982Z</time></trkpt><trkpt lat="40.1280017" lon="15.6186533"><ele>463.0</ele><time>2026-05-01T15:26:19.982Z</time></trkpt><trkpt lat="40.127915" lon="15.618745"><ele>462.99999999999994</ele><time>2026-05-01T15:26:20.982Z</time></trkpt><trkpt lat="40.127815" lon="15.61883"><ele>462.99999999999994</ele><time>2026-05-01T15:26:21.983Z</time></trkpt><trkpt lat="40.1277217" lon="15.6188967"><ele>463.0</ele><time>2026-05-01T15:26:22.983Z</time></trkpt><trkpt lat="40.127645" lon="15.6189833"><ele>463.0</ele><time>2026-05-01T15:26:23.983Z</time></trkpt><trkpt lat="40.1275833" lon="15.6190767"><ele>463.0</ele><time>2026-05-01T15:26:24.982Z</time></trkpt><trkpt lat="40.12754" lon="15.6191967"><ele>462.99999999999994</ele><time>2026-05-01T15:26:25.983Z</time></trkpt><trkpt lat="40.1275117" lon="15.6193283"><ele>462.99999999999994</ele><time>2026-05-01T15:26:26.982Z</time></trkpt><trkpt lat="40.1275083" lon="15.6194683"><ele>463.0</ele><time>2026-05-01T15:26:27.983Z</time></trkpt><trkpt lat="40.127525" lon="15.6196033"><ele>463.0</ele><time>2026-05-01T15:26:28.982Z</time></trkpt><trkpt lat="40.127555" lon="15.6197183"><ele>462.4</ele><time>2026-05-01T15:26:29.982Z</time></trkpt><trkpt lat="40.127615" lon="15.6198167"><ele>461.79999999999995</ele><time>2026-05-01T15:26:30.982Z</time></trkpt><trkpt lat="40.1276833" lon="15.6198983"><ele>461.2</ele><time>2026-05-01T15:26:31.982Z</time></trkpt><trkpt lat="40.1277733" lon="15.6199667"><ele>460.6</ele><time>2026-05-01T15:26:32.983Z</time></trkpt><trkpt lat="40.1278667" lon="15.6200217"><ele>460.0</ele><time>2026-05-01T15:26:33.982Z</time></trkpt><trkpt lat="40.1279667" lon="15.6200667"><ele>460.0</ele><time>2026-05-01T15:26:34.982Z</time></trkpt><trkpt lat="40.128075" lon="15.6201083"><ele>460.0</ele><time>2026-05-01T15:26:35.983Z</time></trkpt><trkpt lat="40.1281783" lon="15.6201583"><ele>460.0</ele><time>2026-05-01T15:26:36.983Z</time></trkpt><trkpt lat="40.1282817" lon="15.620235"><ele>460.0</ele><time>2026-05-01T15:26:37.982Z</time></trkpt><trkpt lat="40.1283833" lon="15.6203017"><ele>458.8</ele><time>2026-05-01T15:26:38.983Z</time></trkpt><trkpt lat="40.128485" lon="15.6203683"><ele>457.6</ele><time>2026-05-01T15:26:39.982Z</time></trkpt><trkpt lat="40.1285917" lon="15.62043"><ele>456.4</ele><time>2026-05-01T15:26:40.982Z</time></trkpt><trkpt lat="40.128695" lon="15.6204917"><ele>455.2</ele><time>2026-05-01T15:26:41.983Z</time></trkpt><trkpt lat="40.1287833" lon="15.6205533"><ele>454.0</ele><time>2026-05-01T15:26:42.982Z</time></trkpt><trkpt lat="40.12887" lon="15.6206117"><ele>454.00000000000006</ele><time>2026-05-01T15:26:43.982Z</time></trkpt><trkpt lat="40.1289367" lon="15.62068"><ele>454.0</ele><time>2026-05-01T15:26:44.982Z</time></trkpt><trkpt lat="40.1289817" lon="15.620755"><ele>454.0</ele><time>2026-05-01T15:26:45.982Z</time></trkpt><trkpt lat="40.12899" lon="15.6208967"><ele>454.0</ele><time>2026-05-01T15:26:47.982Z</time></trkpt><trkpt lat="40.128945" lon="15.6209617"><ele>454.00000000000006</ele><time>2026-05-01T15:26:48.982Z</time></trkpt><trkpt lat="40.1288667" lon="15.6210267"><ele>454.0</ele><time>2026-05-01T15:26:49.982Z</time></trkpt><trkpt lat="40.12878" lon="15.62112"><ele>454.5</ele><time>2026-05-01T15:26:50.982Z</time></trkpt><trkpt lat="40.1286867" lon="15.6212217"><ele>455.0</ele><time>2026-05-01T15:26:51.983Z</time></trkpt><trkpt lat="40.1285983" lon="15.6213483"><ele>455.5</ele><time>2026-05-01T15:26:52.982Z</time></trkpt><trkpt lat="40.1285233" lon="15.621465"><ele>456.0</ele><time>2026-05-01T15:26:53.982Z</time></trkpt><trkpt lat="40.1284433" lon="15.6215783"><ele>456.0</ele><time>2026-05-01T15:26:54.983Z</time></trkpt><trkpt lat="40.1283733" lon="15.6216817"><ele>456.0</ele><time>2026-05-01T15:26:55.982Z</time></trkpt><trkpt lat="40.1283117" lon="15.6217967"><ele>456.0</ele><time>2026-05-01T15:26:56.982Z</time></trkpt><trkpt lat="40.1282783" lon="15.6219183"><ele>456.0</ele><time>2026-05-01T15:26:57.982Z</time></trkpt><trkpt lat="40.1282667" lon="15.62204"><ele>456.0</ele><time>2026-05-01T15:26:58.983Z</time></trkpt><trkpt lat="40.1282617" lon="15.6221633"><ele>457.20000000000005</ele><time>2026-05-01T15:26:59.982Z</time></trkpt><trkpt lat="40.1282633" lon="15.6222883"><ele>458.40000000000003</ele><time>2026-05-01T15:27:00.982Z</time></trkpt><trkpt lat="40.1282333" lon="15.62239"><ele>459.6</ele><time>2026-05-01T15:27:01.983Z</time></trkpt><trkpt lat="40.128175" lon="15.6224567"><ele>460.8</ele><time>2026-05-01T15:27:02.982Z</time></trkpt><trkpt lat="40.12809" lon="15.6225233"><ele>462.0</ele><time>2026-05-01T15:27:03.983Z</time></trkpt><trkpt lat="40.12801" lon="15.6225967"><ele>457.0</ele><time>2026-05-01T15:27:04.982Z</time></trkpt><trkpt lat="40.1279217" lon="15.6226817"><ele>452.00000000000006</ele><time>2026-05-01T15:27:05.982Z</time></trkpt><trkpt lat="40.1278417" lon="15.6227717"><ele>447.00000000000006</ele><time>2026-05-01T15:27:06.982Z</time></trkpt><trkpt lat="40.1277633" lon="15.6228733"><ele>442.0</ele><time>2026-05-01T15:27:07.982Z</time></trkpt><trkpt lat="40.1276883" lon="15.62298"><ele>437.0</ele><time>2026-05-01T15:27:08.983Z</time></trkpt><trkpt lat="40.1276133" lon="15.6230867"><ele>437.0</ele><time>2026-05-01T15:27:09.982Z</time></trkpt><trkpt lat="40.1275367" lon="15.6231767"><ele>437.00000000000006</ele><time>2026-05-01T15:27:10.982Z</time></trkpt><trkpt lat="40.12747" lon="15.6232717"><ele>437.00000000000006</ele><time>2026-05-01T15:27:11.983Z</time></trkpt><trkpt lat="40.1274117" lon="15.62336"><ele>437.0</ele><time>2026-05-01T15:27:12.982Z</time></trkpt><trkpt lat="40.1273683" lon="15.6234633"><ele>437.0</ele><time>2026-05-01T15:27:13.982Z</time></trkpt><trkpt lat="40.12734" lon="15.62358"><ele>436.40000000000003</ele><time>2026-05-01T15:27:14.982Z</time></trkpt><trkpt lat="40.1273367" lon="15.623705"><ele>435.80000000000007</ele><time>2026-05-01T15:27:15.982Z</time></trkpt><trkpt lat="40.127365" lon="15.6238433"><ele>435.2</ele><time>2026-05-01T15:27:16.982Z</time></trkpt><trkpt lat="40.12741" lon="15.6239833"><ele>434.6</ele><time>2026-05-01T15:27:17.982Z</time></trkpt><trkpt lat="40.127455" lon="15.6241333"><ele>434.0</ele><time>2026-05-01T15:27:18.983Z</time></trkpt><trkpt lat="40.1274967" lon="15.624285"><ele>434.0</ele><time>2026-05-01T15:27:19.982Z</time></trkpt><trkpt lat="40.127525" lon="15.6244433"><ele>434.0</ele><time>2026-05-01T15:27:20.982Z</time></trkpt><trkpt lat="40.1275467" lon="15.6245883"><ele>434.0</ele><time>2026-05-01T15:27:21.983Z</time></trkpt><trkpt lat="40.127585" lon="15.62473"><ele>434.0</ele><time>2026-05-01T15:27:22.984Z</time></trkpt><trkpt lat="40.127625" lon="15.6248567"><ele>432.0</ele><time>2026-05-01T15:27:23.983Z</time></trkpt><trkpt lat="40.1276983" lon="15.624955"><ele>430.0</ele><time>2026-05-01T15:27:24.983Z</time></trkpt><trkpt lat="40.1277833" lon="15.6250283"><ele>428.0</ele><time>2026-05-01T15:27:25.983Z</time></trkpt><trkpt lat="40.1278483" lon="15.6251083"><ele>426.0</ele><time>2026-05-01T15:27:26.983Z</time></trkpt><trkpt lat="40.1278967" lon="15.6251933"><ele>424.0</ele><time>2026-05-01T15:27:27.983Z</time></trkpt><trkpt lat="40.1279267" lon="15.62528"><ele>425.2</ele><time>2026-05-01T15:27:28.984Z</time></trkpt><trkpt lat="40.1279033" lon="15.6254283"><ele>426.4</ele><time>2026-05-01T15:27:30.983Z</time></trkpt><trkpt lat="40.1277767" lon="15.6254917"><ele>427.6</ele><time>2026-05-01T15:27:32.984Z</time></trkpt><trkpt lat="40.1276933" lon="15.62548"><ele>428.8</ele><time>2026-05-01T15:27:33.984Z</time></trkpt><trkpt lat="40.1276017" lon="15.6254683"><ele>430.0</ele><time>2026-05-01T15:27:34.984Z</time></trkpt><trkpt lat="40.1275033" lon="15.62546"><ele>430.00000000000006</ele><time>2026-05-01T15:27:35.984Z</time></trkpt><trkpt lat="40.1274133" lon="15.6254633"><ele>430.0</ele><time>2026-05-01T15:27:36.984Z</time></trkpt><trkpt lat="40.1273283" lon="15.6254883"><ele>430.0</ele><time>2026-05-01T15:27:37.983Z</time></trkpt><trkpt lat="40.12726" lon="15.6255267"><ele>430.0</ele><time>2026-05-01T15:27:38.983Z</time></trkpt><trkpt lat="40.1271983" lon="15.6255917"><ele>430.00000000000006</ele><time>2026-05-01T15:27:39.983Z</time></trkpt><trkpt lat="40.1271517" lon="15.6256917"><ele>430.0</ele><time>2026-05-01T15:27:40.983Z</time></trkpt><trkpt lat="40.12714" lon="15.625805"><ele>423.75</ele><time>2026-05-01T15:27:41.983Z</time></trkpt><trkpt lat="40.12715" lon="15.6259317"><ele>417.5</ele><time>2026-05-01T15:27:42.983Z</time></trkpt><trkpt lat="40.1271817" lon="15.6260683"><ele>411.25</ele><time>2026-05-01T15:27:43.983Z</time></trkpt><trkpt lat="40.1272383" lon="15.6262267"><ele>405.0</ele><time>2026-05-01T15:27:44.983Z</time></trkpt><trkpt lat="40.12729" lon="15.6263767"><ele>404.5</ele><time>2026-05-01T15:27:45.983Z</time></trkpt><trkpt lat="40.1273367" lon="15.6265233"><ele>404.0</ele><time>2026-05-01T15:27:46.983Z</time></trkpt><trkpt lat="40.1273733" lon="15.626675"><ele>403.5</ele><time>2026-05-01T15:27:47.983Z</time></trkpt><trkpt lat="40.12741" lon="15.6268183"><ele>403.0</ele><time>2026-05-01T15:27:48.984Z</time></trkpt><trkpt lat="40.127445" lon="15.6269717"><ele>405.25</ele><time>2026-05-01T15:27:49.983Z</time></trkpt><trkpt lat="40.127495" lon="15.6271217"><ele>407.5</ele><time>2026-05-01T15:27:50.983Z</time></trkpt><trkpt lat="40.1275433" lon="15.6272667"><ele>409.75</ele><time>2026-05-01T15:27:51.984Z</time></trkpt><trkpt lat="40.127595" lon="15.627415"><ele>412.0</ele><time>2026-05-01T15:27:52.983Z</time></trkpt><trkpt lat="40.1276383" lon="15.62757"><ele>412.0</ele><time>2026-05-01T15:27:53.983Z</time></trkpt><trkpt lat="40.1276817" lon="15.6277317"><ele>412.0</ele><time>2026-05-01T15:27:54.983Z</time></trkpt><trkpt lat="40.127725" lon="15.6278883"><ele>412.0</ele><time>2026-05-01T15:27:55.983Z</time></trkpt><trkpt lat="40.127775" lon="15.62803"><ele>412.0</ele><time>2026-05-01T15:27:56.983Z</time></trkpt><trkpt lat="40.1278133" lon="15.6281617"><ele>411.33333333333337</ele><time>2026-05-01T15:27:57.983Z</time></trkpt><trkpt lat="40.127845" lon="15.6282867"><ele>410.6666666666667</ele><time>2026-05-01T15:27:58.983Z</time></trkpt><trkpt lat="40.12786" lon="15.6283933"><ele>410.0</ele><time>2026-05-01T15:27:59.983Z</time></trkpt><trkpt lat="40.1278567" lon="15.62849"><ele>409.33333333333337</ele><time>2026-05-01T15:28:00.984Z</time></trkpt><trkpt lat="40.1278317" lon="15.62858"><ele>408.6666666666667</ele><time>2026-05-01T15:28:01.984Z</time></trkpt><trkpt lat="40.1277817" lon="15.6286683"><ele>408.0</ele><time>2026-05-01T15:28:02.983Z</time></trkpt><trkpt lat="40.1277133" lon="15.6287417"><ele>408.0</ele><time>2026-05-01T15:28:03.984Z</time></trkpt><trkpt lat="40.12762" lon="15.6288083"><ele>408.0</ele><time>2026-05-01T15:28:04.983Z</time></trkpt><trkpt lat="40.1275167" lon="15.62886"><ele>408.0</ele><time>2026-05-01T15:28:05.984Z</time></trkpt><trkpt lat="40.1274233" lon="15.6288983"><ele>408.0</ele><time>2026-05-01T15:28:06.983Z</time></trkpt><trkpt lat="40.1273283" lon="15.6289317"><ele>408.0</ele><time>2026-05-01T15:28:07.984Z</time></trkpt><trkpt lat="40.1272367" lon="15.6289283"><ele>410.59999999999997</ele><time>2026-05-01T15:28:08.983Z</time></trkpt><trkpt lat="40.1271533" lon="15.6288783"><ele>413.2</ele><time>2026-05-01T15:28:09.983Z</time></trkpt><trkpt lat="40.1270867" lon="15.6287917"><ele>415.8</ele><time>2026-05-01T15:28:10.984Z</time></trkpt><trkpt lat="40.1270417" lon="15.6286833"><ele>418.4</ele><time>2026-05-01T15:28:11.984Z</time></trkpt><trkpt lat="40.127" lon="15.62857"><ele>421.0</ele><time>2026-05-01T15:28:12.983Z</time></trkpt><trkpt lat="40.1269617" lon="15.6284283"><ele>421.0</ele><time>2026-05-01T15:28:13.983Z</time></trkpt><trkpt lat="40.1269067" lon="15.6283033"><ele>421.0</ele><time>2026-05-01T15:28:14.983Z</time></trkpt><trkpt lat="40.12682" lon="15.628195"><ele>421.0</ele><time>2026-05-01T15:28:15.983Z</time></trkpt><trkpt lat="40.126725" lon="15.6281"><ele>421.0</ele><time>2026-05-01T15:28:16.984Z</time></trkpt><trkpt lat="40.1266417" lon="15.6280117"><ele>421.0</ele><time>2026-05-01T15:28:17.983Z</time></trkpt><trkpt lat="40.12658" lon="15.627915"><ele>421.0</ele><time>2026-05-01T15:28:18.983Z</time></trkpt><trkpt lat="40.1265283" lon="15.6278067"><ele>421.0</ele><time>2026-05-01T15:28:19.983Z</time></trkpt><trkpt lat="40.1264983" lon="15.6276933"><ele>421.0</ele><time>2026-05-01T15:28:20.983Z</time></trkpt><trkpt lat="40.126485" lon="15.6275733"><ele>421.0</ele><time>2026-05-01T15:28:21.983Z</time></trkpt><trkpt lat="40.1264867" lon="15.6274383"><ele>423.0</ele><time>2026-05-01T15:28:22.983Z</time></trkpt><trkpt lat="40.1264733" lon="15.6273217"><ele>425.0</ele><time>2026-05-01T15:28:23.983Z</time></trkpt><trkpt lat="40.1264267" lon="15.627215"><ele>427.0</ele><time>2026-05-01T15:28:24.983Z</time></trkpt><trkpt lat="40.1263617" lon="15.6271133"><ele>429.0</ele><time>2026-05-01T15:28:25.983Z</time></trkpt><trkpt lat="40.12628" lon="15.6270217"><ele>431.0</ele><time>2026-05-01T15:28:26.983Z</time></trkpt><trkpt lat="40.1262017" lon="15.626925"><ele>431.0</ele><time>2026-05-01T15:28:27.983Z</time></trkpt><trkpt lat="40.1261317" lon="15.6268167"><ele>431.0</ele><time>2026-05-01T15:28:28.984Z</time></trkpt><trkpt lat="40.1260567" lon="15.6267017"><ele>431.0</ele><time>2026-05-01T15:28:29.983Z</time></trkpt><trkpt lat="40.1259767" lon="15.62659"><ele>431.0</ele><time>2026-05-01T15:28:30.984Z</time></trkpt><trkpt lat="40.1258933" lon="15.6264783"><ele>431.0</ele><time>2026-05-01T15:28:31.983Z</time></trkpt><trkpt lat="40.1258183" lon="15.626365"><ele>431.0</ele><time>2026-05-01T15:28:32.983Z</time></trkpt><trkpt lat="40.125755" lon="15.62625"><ele>431.0</ele><time>2026-05-01T15:28:33.983Z</time></trkpt><trkpt lat="40.1257133" lon="15.6261167"><ele>431.0</ele><time>2026-05-01T15:28:34.983Z</time></trkpt><trkpt lat="40.125685" lon="15.6259667"><ele>433.0</ele><time>2026-05-01T15:28:35.983Z</time></trkpt><trkpt lat="40.1256683" lon="15.625825"><ele>435.0</ele><time>2026-05-01T15:28:36.984Z</time></trkpt><trkpt lat="40.1256517" lon="15.6256983"><ele>437.0</ele><time>2026-05-01T15:28:37.983Z</time></trkpt><trkpt lat="40.1256133" lon="15.625605"><ele>439.0</ele><time>2026-05-01T15:28:38.984Z</time></trkpt><trkpt lat="40.1255517" lon="15.6255417"><ele>441.0</ele><time>2026-05-01T15:28:39.984Z</time></trkpt><trkpt lat="40.1254733" lon="15.6255083"><ele>441.0</ele><time>2026-05-01T15:28:40.983Z</time></trkpt><trkpt lat="40.1253933" lon="15.6255267"><ele>441.0</ele><time>2026-05-01T15:28:41.983Z</time></trkpt><trkpt lat="40.1253167" lon="15.625595"><ele>441.0</ele><time>2026-05-01T15:28:42.984Z</time></trkpt><trkpt lat="40.1252583" lon="15.6256767"><ele>441.0</ele><time>2026-05-01T15:28:43.984Z</time></trkpt><trkpt lat="40.1251933" lon="15.62574"><ele>441.0</ele><time>2026-05-01T15:28:44.983Z</time></trkpt><trkpt lat="40.125135" lon="15.625785"><ele>441.0</ele><time>2026-05-01T15:28:45.983Z</time></trkpt><trkpt lat="40.1250233" lon="15.6257667"><ele>441.0</ele><time>2026-05-01T15:28:47.983Z</time></trkpt><trkpt lat="40.1250033" lon="15.6256717"><ele>441.0</ele><time>2026-05-01T15:28:48.983Z</time></trkpt><trkpt lat="40.1250033" lon="15.6255617"><ele>441.0</ele><time>2026-05-01T15:28:49.983Z</time></trkpt><trkpt lat="40.1250217" lon="15.6254467"><ele>441.0</ele><time>2026-05-01T15:28:50.983Z</time></trkpt><trkpt lat="40.1250417" lon="15.6253333"><ele>441.0</ele><time>2026-05-01T15:28:51.984Z</time></trkpt><trkpt lat="40.1250667" lon="15.6252033"><ele>441.0</ele><time>2026-05-01T15:28:52.984Z</time></trkpt><trkpt lat="40.1250867" lon="15.6250733"><ele>439.6</ele><time>2026-05-01T15:28:53.984Z</time></trkpt><trkpt lat="40.1250833" lon="15.6249533"><ele>438.20000000000005</ele><time>2026-05-01T15:28:54.983Z</time></trkpt><trkpt lat="40.125055" lon="15.6248233"><ele>436.79999999999995</ele><time>2026-05-01T15:28:55.983Z</time></trkpt><trkpt lat="40.125005" lon="15.6247133"><ele>435.4</ele><time>2026-05-01T15:28:56.983Z</time></trkpt><trkpt lat="40.1249333" lon="15.6246367"><ele>434.0</ele><time>2026-05-01T15:28:57.984Z</time></trkpt><trkpt lat="40.1248483" lon="15.62456"><ele>435.2</ele><time>2026-05-01T15:28:58.983Z</time></trkpt><trkpt lat="40.1247633" lon="15.6245117"><ele>436.4</ele><time>2026-05-01T15:28:59.983Z</time></trkpt><trkpt lat="40.1246633" lon="15.6244967"><ele>437.6</ele><time>2026-05-01T15:29:00.983Z</time></trkpt><trkpt lat="40.1245467" lon="15.62449"><ele>438.8</ele><time>2026-05-01T15:29:01.984Z</time></trkpt><trkpt lat="40.1244383" lon="15.6244717"><ele>440.0</ele><time>2026-05-01T15:29:02.983Z</time></trkpt><trkpt lat="40.1243167" lon="15.6244483"><ele>440.0</ele><time>2026-05-01T15:29:03.983Z</time></trkpt><trkpt lat="40.12421" lon="15.6243967"><ele>440.0</ele><time>2026-05-01T15:29:04.983Z</time></trkpt><trkpt lat="40.1241133" lon="15.6243283"><ele>440.0</ele><time>2026-05-01T15:29:05.984Z</time></trkpt><trkpt lat="40.1240367" lon="15.6242417"><ele>440.0</ele><time>2026-05-01T15:29:06.983Z</time></trkpt><trkpt lat="40.1239667" lon="15.62415"><ele>440.0</ele><time>2026-05-01T15:29:07.983Z</time></trkpt><trkpt lat="40.1239" lon="15.6240567"><ele>444.8</ele><time>2026-05-01T15:29:08.984Z</time></trkpt><trkpt lat="40.123845" lon="15.6239483"><ele>449.6</ele><time>2026-05-01T15:29:09.983Z</time></trkpt><trkpt lat="40.1237933" lon="15.6238283"><ele>454.4</ele><time>2026-05-01T15:29:10.983Z</time></trkpt><trkpt lat="40.1237383" lon="15.6237033"><ele>459.2</ele><time>2026-05-01T15:29:11.983Z</time></trkpt><trkpt lat="40.1236867" lon="15.6235767"><ele>464.0</ele><time>2026-05-01T15:29:12.984Z</time></trkpt><trkpt lat="40.12363" lon="15.623455"><ele>464.0</ele><time>2026-05-01T15:29:13.983Z</time></trkpt><trkpt lat="40.1235817" lon="15.6233267"><ele>464.0</ele><time>2026-05-01T15:29:14.983Z</time></trkpt><trkpt lat="40.1235367" lon="15.6232083"><ele>464.0</ele><time>2026-05-01T15:29:15.983Z</time></trkpt><trkpt lat="40.12349" lon="15.623085"><ele>464.0</ele><time>2026-05-01T15:29:16.984Z</time></trkpt><trkpt lat="40.123445" lon="15.6229667"><ele>464.0</ele><time>2026-05-01T15:29:17.984Z</time></trkpt><trkpt lat="40.1233967" lon="15.62284"><ele>460.79999999999995</ele><time>2026-05-01T15:29:18.984Z</time></trkpt><trkpt lat="40.1233567" lon="15.6227133"><ele>457.59999999999997</ele><time>2026-05-01T15:29:19.983Z</time></trkpt><trkpt lat="40.1233267" lon="15.6225867"><ele>454.4</ele><time>2026-05-01T15:29:20.983Z</time></trkpt><trkpt lat="40.1233017" lon="15.622455"><ele>451.2</ele><time>2026-05-01T15:29:21.984Z</time></trkpt><trkpt lat="40.12328" lon="15.622325"><ele>448.0</ele><time>2026-05-01T15:29:22.983Z</time></trkpt><trkpt lat="40.1232567" lon="15.6222033"><ele>447.59999999999997</ele><time>2026-05-01T15:29:23.983Z</time></trkpt><trkpt lat="40.123215" lon="15.6220867"><ele>447.19999999999993</ele><time>2026-05-01T15:29:24.984Z</time></trkpt><trkpt lat="40.123165" lon="15.6219667"><ele>446.8</ele><time>2026-05-01T15:29:25.983Z</time></trkpt><trkpt lat="40.123115" lon="15.62185"><ele>446.4</ele><time>2026-05-01T15:29:26.983Z</time></trkpt><trkpt lat="40.1230683" lon="15.6217433"><ele>446.0</ele><time>2026-05-01T15:29:27.983Z</time></trkpt><trkpt lat="40.12301" lon="15.6216633"><ele>445.99999999999994</ele><time>2026-05-01T15:29:28.984Z</time></trkpt><trkpt lat="40.1229433" lon="15.6216117"><ele>446.0</ele><time>2026-05-01T15:29:29.983Z</time></trkpt><trkpt lat="40.1228617" lon="15.6216017"><ele>446.0</ele><time>2026-05-01T15:29:30.983Z</time></trkpt><trkpt lat="40.1227817" lon="15.6216317"><ele>446.0</ele><time>2026-05-01T15:29:31.983Z</time></trkpt><trkpt lat="40.1227083" lon="15.6217033"><ele>445.99999999999994</ele><time>2026-05-01T15:29:32.983Z</time></trkpt><trkpt lat="40.1226333" lon="15.6217967"><ele>446.0</ele><time>2026-05-01T15:29:33.984Z</time></trkpt><trkpt lat="40.1225617" lon="15.6219017"><ele>445.6</ele><time>2026-05-01T15:29:34.983Z</time></trkpt><trkpt lat="40.12249" lon="15.6220033"><ele>445.20000000000005</ele><time>2026-05-01T15:29:35.983Z</time></trkpt><trkpt lat="40.122425" lon="15.6220933"><ele>444.79999999999995</ele><time>2026-05-01T15:29:36.983Z</time></trkpt><trkpt lat="40.12237" lon="15.6221733"><ele>444.4</ele><time>2026-05-01T15:29:37.984Z</time></trkpt><trkpt lat="40.12232" lon="15.622275"><ele>444.0</ele><time>2026-05-01T15:29:38.984Z</time></trkpt><trkpt lat="40.1222933" lon="15.6223933"><ele>444.0</ele><time>2026-05-01T15:29:39.983Z</time></trkpt><trkpt lat="40.12227" lon="15.6225033"><ele>444.0</ele><time>2026-05-01T15:29:40.984Z</time></trkpt><trkpt lat="40.1222483" lon="15.622625"><ele>444.0</ele><time>2026-05-01T15:29:41.983Z</time></trkpt><trkpt lat="40.1222317" lon="15.6227667"><ele>444.0</ele><time>2026-05-01T15:29:42.983Z</time></trkpt><trkpt lat="40.122215" lon="15.6229017"><ele>444.0</ele><time>2026-05-01T15:29:43.984Z</time></trkpt><trkpt lat="40.1221967" lon="15.62303"><ele>446.6</ele><time>2026-05-01T15:29:44.983Z</time></trkpt><trkpt lat="40.1221617" lon="15.6231517"><ele>449.2</ele><time>2026-05-01T15:29:45.983Z</time></trkpt><trkpt lat="40.1221183" lon="15.6232667"><ele>451.80000000000007</ele><time>2026-05-01T15:29:46.983Z</time></trkpt><trkpt lat="40.1220717" lon="15.623385"><ele>454.40000000000003</ele><time>2026-05-01T15:29:47.983Z</time></trkpt><trkpt lat="40.1220333" lon="15.62351"><ele>457.0</ele><time>2026-05-01T15:29:48.984Z</time></trkpt><trkpt lat="40.12201" lon="15.6236433"><ele>459.33333333333337</ele><time>2026-05-01T15:29:49.983Z</time></trkpt><trkpt lat="40.1219867" lon="15.623765"><ele>461.6666666666667</ele><time>2026-05-01T15:29:50.983Z</time></trkpt><trkpt lat="40.12198" lon="15.6238817"><ele>464.0</ele><time>2026-05-01T15:29:51.984Z</time></trkpt><trkpt lat="40.1219633" lon="15.624"><ele>466.33333333333337</ele><time>2026-05-01T15:29:52.983Z</time></trkpt><trkpt lat="40.12192" lon="15.6240883"><ele>468.6666666666667</ele><time>2026-05-01T15:29:53.983Z</time></trkpt><trkpt lat="40.1218667" lon="15.6241517"><ele>471.0</ele><time>2026-05-01T15:29:54.983Z</time></trkpt><trkpt lat="40.1217883" lon="15.624185"><ele>471.0</ele><time>2026-05-01T15:29:55.983Z</time></trkpt><trkpt lat="40.1217" lon="15.624195"><ele>471.0</ele><time>2026-05-01T15:29:56.984Z</time></trkpt><trkpt lat="40.1216133" lon="15.6241817"><ele>471.0</ele><time>2026-05-01T15:29:57.983Z</time></trkpt><trkpt lat="40.1215317" lon="15.6241683"><ele>471.0</ele><time>2026-05-01T15:29:58.984Z</time></trkpt><trkpt lat="40.1214367" lon="15.624175"><ele>471.0</ele><time>2026-05-01T15:29:59.983Z</time></trkpt><trkpt lat="40.121335" lon="15.6242133"><ele>472.0</ele><time>2026-05-01T15:30:00.983Z</time></trkpt><trkpt lat="40.1212517" lon="15.6242733"><ele>473.0</ele><time>2026-05-01T15:30:01.983Z</time></trkpt><trkpt lat="40.12119" lon="15.6244"><ele>474.0</ele><time>2026-05-01T15:30:02.983Z</time></trkpt><trkpt lat="40.1211367" lon="15.6245133"><ele>475.0</ele><time>2026-05-01T15:30:03.984Z</time></trkpt><trkpt lat="40.1211033" lon="15.62464"><ele>476.0</ele><time>2026-05-01T15:30:04.983Z</time></trkpt><trkpt lat="40.1210717" lon="15.6247617"><ele>476.0</ele><time>2026-05-01T15:30:05.983Z</time></trkpt><trkpt lat="40.1210383" lon="15.62489"><ele>476.0</ele><time>2026-05-01T15:30:06.983Z</time></trkpt><trkpt lat="40.1210083" lon="15.62501"><ele>476.0</ele><time>2026-05-01T15:30:07.984Z</time></trkpt><trkpt lat="40.1209733" lon="15.6251283"><ele>476.0</ele><time>2026-05-01T15:30:08.984Z</time></trkpt><trkpt lat="40.1209367" lon="15.625245"><ele>476.0</ele><time>2026-05-01T15:30:09.984Z</time></trkpt><trkpt lat="40.1209" lon="15.62535"><ele>477.99999999999994</ele><time>2026-05-01T15:30:10.983Z</time></trkpt><trkpt lat="40.1208583" lon="15.625435"><ele>480.0</ele><time>2026-05-01T15:30:11.983Z</time></trkpt><trkpt lat="40.1207917" lon="15.6254817"><ele>482.0</ele><time>2026-05-01T15:30:12.984Z</time></trkpt><trkpt lat="40.1207267" lon="15.6255183"><ele>484.0</ele><time>2026-05-01T15:30:13.983Z</time></trkpt><trkpt lat="40.1206517" lon="15.6255183"><ele>485.99999999999994</ele><time>2026-05-01T15:30:14.984Z</time></trkpt><trkpt lat="40.1205867" lon="15.6254767"><ele>488.0</ele><time>2026-05-01T15:30:15.984Z</time></trkpt><trkpt lat="40.1205267" lon="15.6254083"><ele>485.79999999999995</ele><time>2026-05-01T15:30:16.983Z</time></trkpt><trkpt lat="40.1205033" lon="15.625295"><ele>483.59999999999997</ele><time>2026-05-01T15:30:17.984Z</time></trkpt><trkpt lat="40.1204617" lon="15.625165"><ele>481.40000000000003</ele><time>2026-05-01T15:30:18.984Z</time></trkpt><trkpt lat="40.12039" lon="15.6250783"><ele>479.20000000000005</ele><time>2026-05-01T15:30:19.984Z</time></trkpt><trkpt lat="40.1203083" lon="15.6250167"><ele>477.0</ele><time>2026-05-01T15:30:20.983Z</time></trkpt><trkpt lat="40.1202167" lon="15.62499"><ele>477.0</ele><time>2026-05-01T15:30:21.983Z</time></trkpt><trkpt lat="40.1201167" lon="15.625005"><ele>477.00000000000006</ele><time>2026-05-01T15:30:22.983Z</time></trkpt><trkpt lat="40.12002" lon="15.625045"><ele>477.00000000000006</ele><time>2026-05-01T15:30:23.983Z</time></trkpt><trkpt lat="40.1199383" lon="15.6250967"><ele>477.0</ele><time>2026-05-01T15:30:24.983Z</time></trkpt><trkpt lat="40.119875" lon="15.6251717"><ele>477.0</ele><time>2026-05-01T15:30:25.984Z</time></trkpt><trkpt lat="40.1198383" lon="15.625275"><ele>476.40000000000003</ele><time>2026-05-01T15:30:26.983Z</time></trkpt><trkpt lat="40.1198267" lon="15.6253883"><ele>475.80000000000007</ele><time>2026-05-01T15:30:27.983Z</time></trkpt><trkpt lat="40.1198333" lon="15.6255067"><ele>475.2</ele><time>2026-05-01T15:30:28.984Z</time></trkpt><trkpt lat="40.119855" lon="15.6256333"><ele>474.6</ele><time>2026-05-01T15:30:29.983Z</time></trkpt><trkpt lat="40.119885" lon="15.6257617"><ele>474.0</ele><time>2026-05-01T15:30:30.984Z</time></trkpt><trkpt lat="40.1199233" lon="15.6259017"><ele>477.5</ele><time>2026-05-01T15:30:31.983Z</time></trkpt><trkpt lat="40.1199517" lon="15.6260433"><ele>481.0</ele><time>2026-05-01T15:30:32.983Z</time></trkpt><trkpt lat="40.119965" lon="15.6262"><ele>484.5</ele><time>2026-05-01T15:30:33.984Z</time></trkpt><trkpt lat="40.11997" lon="15.626345"><ele>488.0</ele><time>2026-05-01T15:30:34.983Z</time></trkpt><trkpt lat="40.1199633" lon="15.626485"><ele>488.59999999999997</ele><time>2026-05-01T15:30:35.983Z</time></trkpt><trkpt lat="40.1199433" lon="15.6266217"><ele>489.19999999999993</ele><time>2026-05-01T15:30:36.983Z</time></trkpt><trkpt lat="40.1199133" lon="15.62676"><ele>489.8</ele><time>2026-05-01T15:30:37.984Z</time></trkpt><trkpt lat="40.11987" lon="15.6268883"><ele>490.4</ele><time>2026-05-01T15:30:38.984Z</time></trkpt><trkpt lat="40.119825" lon="15.6270133"><ele>491.0</ele><time>2026-05-01T15:30:39.984Z</time></trkpt><trkpt lat="40.11977" lon="15.6271183"><ele>493.16666666666663</ele><time>2026-05-01T15:30:40.983Z</time></trkpt><trkpt lat="40.1197167" lon="15.6272033"><ele>495.3333333333333</ele><time>2026-05-01T15:30:41.983Z</time></trkpt><trkpt lat="40.1196533" lon="15.6272583"><ele>497.5</ele><time>2026-05-01T15:30:42.984Z</time></trkpt><trkpt lat="40.1195783" lon="15.6272733"><ele>499.66666666666663</ele><time>2026-05-01T15:30:43.983Z</time></trkpt><trkpt lat="40.1194933" lon="15.627245"><ele>501.8333333333333</ele><time>2026-05-01T15:30:44.983Z</time></trkpt><trkpt lat="40.11942" lon="15.6271683"><ele>504.0</ele><time>2026-05-01T15:30:45.983Z</time></trkpt><trkpt lat="40.11937" lon="15.6270467"><ele>501.8333333333333</ele><time>2026-05-01T15:30:46.984Z</time></trkpt><trkpt lat="40.1193367" lon="15.626905"><ele>499.66666666666663</ele><time>2026-05-01T15:30:47.983Z</time></trkpt><trkpt lat="40.119295" lon="15.6267817"><ele>497.5</ele><time>2026-05-01T15:30:48.983Z</time></trkpt><trkpt lat="40.119245" lon="15.6266983"><ele>495.3333333333333</ele><time>2026-05-01T15:30:49.984Z</time></trkpt><trkpt lat="40.1191783" lon="15.6266417"><ele>493.16666666666663</ele><time>2026-05-01T15:30:50.983Z</time></trkpt><trkpt lat="40.1191133" lon="15.626635"><ele>491.0</ele><time>2026-05-01T15:30:51.984Z</time></trkpt><trkpt lat="40.1190517" lon="15.6266667"><ele>490.75</ele><time>2026-05-01T15:30:52.983Z</time></trkpt><trkpt lat="40.119" lon="15.626825"><ele>490.5</ele><time>2026-05-01T15:30:54.983Z</time></trkpt><trkpt lat="40.11902" lon="15.6269733"><ele>490.25</ele><time>2026-05-01T15:30:55.983Z</time></trkpt><trkpt lat="40.1190533" lon="15.6271283"><ele>490.0</ele><time>2026-05-01T15:30:56.983Z</time></trkpt><trkpt lat="40.1190833" lon="15.627275"><ele>492.33333333333337</ele><time>2026-05-01T15:30:57.983Z</time></trkpt><trkpt lat="40.11911" lon="15.6273983"><ele>494.6666666666667</ele><time>2026-05-01T15:30:58.984Z</time></trkpt><trkpt lat="40.1191233" lon="15.6275033"><ele>497.0</ele><time>2026-05-01T15:30:59.983Z</time></trkpt><trkpt lat="40.1191217" lon="15.6276083"><ele>499.33333333333337</ele><time>2026-05-01T15:31:00.983Z</time></trkpt><trkpt lat="40.11911" lon="15.6277017"><ele>501.6666666666667</ele><time>2026-05-01T15:31:01.983Z</time></trkpt><trkpt lat="40.1190367" lon="15.6278183"><ele>504.0</ele><time>2026-05-01T15:31:03.983Z</time></trkpt><trkpt lat="40.1189133" lon="15.6278233"><ele>504.1666666666667</ele><time>2026-05-01T15:31:05.983Z</time></trkpt><trkpt lat="40.1188467" lon="15.6277733"><ele>504.33333333333337</ele><time>2026-05-01T15:31:06.983Z</time></trkpt><trkpt lat="40.118765" lon="15.6277467"><ele>504.5</ele><time>2026-05-01T15:31:07.983Z</time></trkpt><trkpt lat="40.1186767" lon="15.6277283"><ele>504.6666666666667</ele><time>2026-05-01T15:31:08.983Z</time></trkpt><trkpt lat="40.118595" lon="15.62776"><ele>504.83333333333337</ele><time>2026-05-01T15:31:09.984Z</time></trkpt><trkpt lat="40.1185217" lon="15.62781"><ele>505.0</ele><time>2026-05-01T15:31:10.984Z</time></trkpt><trkpt lat="40.1184783" lon="15.6279017"><ele>505.0</ele><time>2026-05-01T15:31:11.983Z</time></trkpt><trkpt lat="40.1184567" lon="15.6280033"><ele>505.0</ele><time>2026-05-01T15:31:12.984Z</time></trkpt><trkpt lat="40.1184583" lon="15.6281283"><ele>505.0</ele><time>2026-05-01T15:31:13.984Z</time></trkpt><trkpt lat="40.1184683" lon="15.62824"><ele>505.0</ele><time>2026-05-01T15:31:14.983Z</time></trkpt><trkpt lat="40.1184767" lon="15.628335"><ele>505.0</ele><time>2026-05-01T15:31:15.984Z</time></trkpt><trkpt lat="40.118485" lon="15.6284883"><ele>505.0</ele><time>2026-05-01T15:31:17.983Z</time></trkpt><trkpt lat="40.1184317" lon="15.628605"><ele>505.0</ele><time>2026-05-01T15:31:19.983Z</time></trkpt><trkpt lat="40.1183667" lon="15.6286483"><ele>505.0</ele><time>2026-05-01T15:31:20.984Z</time></trkpt><trkpt lat="40.11828" lon="15.6286883"><ele>505.0</ele><time>2026-05-01T15:31:21.983Z</time></trkpt><trkpt lat="40.1181783" lon="15.6287233"><ele>505.0</ele><time>2026-05-01T15:31:22.983Z</time></trkpt><trkpt lat="40.1180783" lon="15.628765"><ele>505.2</ele><time>2026-05-01T15:31:23.983Z</time></trkpt><trkpt lat="40.1179833" lon="15.6288117"><ele>505.4</ele><time>2026-05-01T15:31:24.983Z</time></trkpt><trkpt lat="40.1178983" lon="15.6288767"><ele>505.6</ele><time>2026-05-01T15:31:25.984Z</time></trkpt><trkpt lat="40.117815" lon="15.628945"><ele>505.8</ele><time>2026-05-01T15:31:26.983Z</time></trkpt><trkpt lat="40.1177483" lon="15.62904"><ele>506.0</ele><time>2026-05-01T15:31:27.984Z</time></trkpt><trkpt lat="40.117695" lon="15.6291433"><ele>506.0</ele><time>2026-05-01T15:31:28.984Z</time></trkpt><trkpt lat="40.1176617" lon="15.6292767"><ele>506.0</ele><time>2026-05-01T15:31:29.983Z</time></trkpt><trkpt lat="40.11766" lon="15.6294233"><ele>506.0</ele><time>2026-05-01T15:31:30.983Z</time></trkpt><trkpt lat="40.1176633" lon="15.6295567"><ele>506.0</ele><time>2026-05-01T15:31:31.984Z</time></trkpt><trkpt lat="40.1176567" lon="15.62968"><ele>506.0</ele><time>2026-05-01T15:31:32.983Z</time></trkpt><trkpt lat="40.117625" lon="15.6297633"><ele>510.20000000000005</ele><time>2026-05-01T15:31:33.983Z</time></trkpt><trkpt lat="40.1175283" lon="15.6298283"><ele>514.4000000000001</ele><time>2026-05-01T15:31:35.983Z</time></trkpt><trkpt lat="40.1174633" lon="15.629795"><ele>518.6</ele><time>2026-05-01T15:31:36.983Z</time></trkpt><trkpt lat="40.1173917" lon="15.6297083"><ele>522.8000000000001</ele><time>2026-05-01T15:31:37.983Z</time></trkpt><trkpt lat="40.1173117" lon="15.6296017"><ele>527.0</ele><time>2026-05-01T15:31:38.984Z</time></trkpt><trkpt lat="40.1172317" lon="15.62953"><ele>527.1666666666666</ele><time>2026-05-01T15:31:39.983Z</time></trkpt><trkpt lat="40.1171567" lon="15.62948"><ele>527.3333333333333</ele><time>2026-05-01T15:31:40.983Z</time></trkpt><trkpt lat="40.11707" lon="15.6294533"><ele>527.5</ele><time>2026-05-01T15:31:41.983Z</time></trkpt><trkpt lat="40.11698" lon="15.6294667"><ele>527.6666666666666</ele><time>2026-05-01T15:31:42.983Z</time></trkpt><trkpt lat="40.11691" lon="15.62952"><ele>527.8333333333334</ele><time>2026-05-01T15:31:43.983Z</time></trkpt><trkpt lat="40.1168533" lon="15.6296033"><ele>528.0</ele><time>2026-05-01T15:31:44.983Z</time></trkpt><trkpt lat="40.11682" lon="15.629695"><ele>528.0</ele><time>2026-05-01T15:31:45.983Z</time></trkpt><trkpt lat="40.1167967" lon="15.6297733"><ele>528.0</ele><time>2026-05-01T15:31:46.983Z</time></trkpt><trkpt lat="40.1167233" lon="15.6298783"><ele>528.0</ele><time>2026-05-01T15:31:48.983Z</time></trkpt><trkpt lat="40.116625" lon="15.6298917"><ele>528.0</ele><time>2026-05-01T15:31:50.983Z</time></trkpt><trkpt lat="40.1165267" lon="15.62977"><ele>528.0</ele><time>2026-05-01T15:31:52.984Z</time></trkpt><trkpt lat="40.1164783" lon="15.6296617"><ele>530.5</ele><time>2026-05-01T15:31:53.983Z</time></trkpt><trkpt lat="40.1164383" lon="15.629555"><ele>533.0</ele><time>2026-05-01T15:31:54.984Z</time></trkpt><trkpt lat="40.1163967" lon="15.6294517"><ele>535.5</ele><time>2026-05-01T15:31:55.983Z</time></trkpt><trkpt lat="40.116355" lon="15.6293533"><ele>538.0</ele><time>2026-05-01T15:31:56.983Z</time></trkpt><trkpt lat="40.1163217" lon="15.629265"><ele>540.5</ele><time>2026-05-01T15:31:57.983Z</time></trkpt><trkpt lat="40.1162967" lon="15.6291717"><ele>543.0</ele><time>2026-05-01T15:31:58.983Z</time></trkpt><trkpt lat="40.1163067" lon="15.6290867"><ele>543.0</ele><time>2026-05-01T15:31:59.984Z</time></trkpt><trkpt lat="40.1163383" lon="15.6290033"><ele>543.0</ele><time>2026-05-01T15:32:00.983Z</time></trkpt><trkpt lat="40.11638" lon="15.6289233"><ele>543.0</ele><time>2026-05-01T15:32:01.983Z</time></trkpt><trkpt lat="40.11645" lon="15.628855"><ele>543.0</ele><time>2026-05-01T15:32:02.983Z</time></trkpt><trkpt lat="40.1165183" lon="15.6287517"><ele>543.0</ele><time>2026-05-01T15:32:03.983Z</time></trkpt><trkpt lat="40.11657" lon="15.6286483"><ele>543.0</ele><time>2026-05-01T15:32:04.983Z</time></trkpt><trkpt lat="40.1166133" lon="15.62852"><ele>536.0</ele><time>2026-05-01T15:32:05.983Z</time></trkpt><trkpt lat="40.1166417" lon="15.628385"><ele>529.0</ele><time>2026-05-01T15:32:06.984Z</time></trkpt><trkpt lat="40.1166517" lon="15.6282483"><ele>522.0</ele><time>2026-05-01T15:32:07.984Z</time></trkpt><trkpt lat="40.11664" lon="15.628105"><ele>515.0</ele><time>2026-05-01T15:32:08.984Z</time></trkpt><trkpt lat="40.11663" lon="15.6279533"><ele>508.0</ele><time>2026-05-01T15:32:09.983Z</time></trkpt><trkpt lat="40.1166167" lon="15.6278"><ele>507.0</ele><time>2026-05-01T15:32:10.984Z</time></trkpt><trkpt lat="40.11662" lon="15.6276517"><ele>506.0</ele><time>2026-05-01T15:32:11.983Z</time></trkpt><trkpt lat="40.116635" lon="15.6274983"><ele>505.0</ele><time>2026-05-01T15:32:12.984Z</time></trkpt><trkpt lat="40.1166267" lon="15.6273467"><ele>504.0</ele><time>2026-05-01T15:32:13.983Z</time></trkpt><trkpt lat="40.1166267" lon="15.6272083"><ele>504.0</ele><time>2026-05-01T15:32:14.984Z</time></trkpt><trkpt lat="40.1166133" lon="15.62708"><ele>504.0</ele><time>2026-05-01T15:32:15.983Z</time></trkpt><trkpt lat="40.1166" lon="15.626975"><ele>504.0</ele><time>2026-05-01T15:32:16.983Z</time></trkpt><trkpt lat="40.1165483" lon="15.6269017"><ele>504.0</ele><time>2026-05-01T15:32:17.983Z</time></trkpt><trkpt lat="40.1164733" lon="15.6268633"><ele>504.0</ele><time>2026-05-01T15:32:18.983Z</time></trkpt><trkpt lat="40.1163733" lon="15.6268633"><ele>504.0</ele><time>2026-05-01T15:32:19.984Z</time></trkpt><trkpt lat="40.1162617" lon="15.6268967"><ele>505.5</ele><time>2026-05-01T15:32:20.984Z</time></trkpt><trkpt lat="40.1161417" lon="15.62695"><ele>507.0</ele><time>2026-05-01T15:32:21.983Z</time></trkpt><trkpt lat="40.1160233" lon="15.627005"><ele>508.5</ele><time>2026-05-01T15:32:22.983Z</time></trkpt><trkpt lat="40.1158917" lon="15.627055"><ele>510.0</ele><time>2026-05-01T15:32:23.983Z</time></trkpt><trkpt lat="40.1157783" lon="15.6271183"><ele>507.25</ele><time>2026-05-01T15:32:24.983Z</time></trkpt><trkpt lat="40.11567" lon="15.6271933"><ele>504.5</ele><time>2026-05-01T15:32:25.983Z</time></trkpt><trkpt lat="40.1155917" lon="15.6272933"><ele>501.75</ele><time>2026-05-01T15:32:26.983Z</time></trkpt><trkpt lat="40.115515" lon="15.6274083"><ele>499.0</ele><time>2026-05-01T15:32:27.983Z</time></trkpt><trkpt lat="40.1154467" lon="15.62753"><ele>499.00000000000006</ele><time>2026-05-01T15:32:28.984Z</time></trkpt><trkpt lat="40.1153733" lon="15.62762"><ele>499.0</ele><time>2026-05-01T15:32:29.984Z</time></trkpt><trkpt lat="40.115305" lon="15.6276667"><ele>499.0</ele><time>2026-05-01T15:32:30.983Z</time></trkpt><trkpt lat="40.1152283" lon="15.6276817"><ele>499.0</ele><time>2026-05-01T15:32:31.983Z</time></trkpt><trkpt lat="40.1151567" lon="15.6276533"><ele>499.00000000000006</ele><time>2026-05-01T15:32:32.983Z</time></trkpt><trkpt lat="40.1150883" lon="15.627575"><ele>499.0</ele><time>2026-05-01T15:32:33.984Z</time></trkpt><trkpt lat="40.1150067" lon="15.6275067"><ele>499.0</ele><time>2026-05-01T15:32:34.983Z</time></trkpt><trkpt lat="40.1149167" lon="15.6274783"><ele>499.0</ele><time>2026-05-01T15:32:35.984Z</time></trkpt><trkpt lat="40.11481" lon="15.6274817"><ele>499.0</ele><time>2026-05-01T15:32:36.983Z</time></trkpt><trkpt lat="40.1146983" lon="15.62752"><ele>499.0</ele><time>2026-05-01T15:32:37.983Z</time></trkpt><trkpt lat="40.114585" lon="15.627555"><ele>499.0</ele><time>2026-05-01T15:32:38.984Z</time></trkpt><trkpt lat="40.1144617" lon="15.6275867"><ele>497.75</ele><time>2026-05-01T15:32:39.984Z</time></trkpt><trkpt lat="40.1143417" lon="15.6275933"><ele>496.5</ele><time>2026-05-01T15:32:40.984Z</time></trkpt><trkpt lat="40.1142133" lon="15.62759"><ele>495.25</ele><time>2026-05-01T15:32:41.984Z</time></trkpt><trkpt lat="40.1140717" lon="15.6276017"><ele>494.0</ele><time>2026-05-01T15:32:42.983Z</time></trkpt><trkpt lat="40.1139233" lon="15.6276283"><ele>492.3333333333333</ele><time>2026-05-01T15:32:43.984Z</time></trkpt><trkpt lat="40.11376" lon="15.6276467"><ele>490.66666666666663</ele><time>2026-05-01T15:32:44.983Z</time></trkpt><trkpt lat="40.1135917" lon="15.6276467"><ele>489.0</ele><time>2026-05-01T15:32:45.983Z</time></trkpt><trkpt lat="40.1134317" lon="15.6276017"><ele>489.0</ele><time>2026-05-01T15:32:46.983Z</time></trkpt><trkpt lat="40.1132717" lon="15.6275417"><ele>489.0</ele><time>2026-05-01T15:32:47.983Z</time></trkpt><trkpt lat="40.1131283" lon="15.6274817"><ele>489.0</ele><time>2026-05-01T15:32:48.983Z</time></trkpt><trkpt lat="40.1129917" lon="15.6274367"><ele>488.0</ele><time>2026-05-01T15:32:49.983Z</time></trkpt><trkpt lat="40.1128667" lon="15.6273783"><ele>487.0</ele><time>2026-05-01T15:32:50.984Z</time></trkpt><trkpt lat="40.112755" lon="15.627295"><ele>486.0</ele><time>2026-05-01T15:32:51.983Z</time></trkpt><trkpt lat="40.1126633" lon="15.627195"><ele>485.0</ele><time>2026-05-01T15:32:52.983Z</time></trkpt><trkpt lat="40.112595" lon="15.6270717"><ele>483.6</ele><time>2026-05-01T15:32:53.983Z</time></trkpt><trkpt lat="40.112535" lon="15.6269617"><ele>482.2</ele><time>2026-05-01T15:32:54.983Z</time></trkpt><trkpt lat="40.112465" lon="15.6268667"><ele>480.79999999999995</ele><time>2026-05-01T15:32:55.983Z</time></trkpt><trkpt lat="40.1123833" lon="15.6267817"><ele>479.4</ele><time>2026-05-01T15:32:56.983Z</time></trkpt><trkpt lat="40.112285" lon="15.6267167"><ele>478.0</ele><time>2026-05-01T15:32:57.984Z</time></trkpt><trkpt lat="40.1121933" lon="15.6266667"><ele>477.59999999999997</ele><time>2026-05-01T15:32:58.983Z</time></trkpt><trkpt lat="40.112095" lon="15.62663"><ele>477.19999999999993</ele><time>2026-05-01T15:32:59.983Z</time></trkpt><trkpt lat="40.112" lon="15.626615"><ele>476.8</ele><time>2026-05-01T15:33:00.983Z</time></trkpt><trkpt lat="40.1118967" lon="15.6266067"><ele>476.4</ele><time>2026-05-01T15:33:01.983Z</time></trkpt><trkpt lat="40.111795" lon="15.626625"><ele>476.0</ele><time>2026-05-01T15:33:02.983Z</time></trkpt><trkpt lat="40.1116883" lon="15.6266633"><ele>476.0</ele><time>2026-05-01T15:33:03.984Z</time></trkpt><trkpt lat="40.11159" lon="15.6266933"><ele>476.0</ele><time>2026-05-01T15:33:04.984Z</time></trkpt><trkpt lat="40.111485" lon="15.6267017"><ele>476.0</ele><time>2026-05-01T15:33:05.983Z</time></trkpt><trkpt lat="40.1113883" lon="15.6266783"><ele>476.0</ele><time>2026-05-01T15:33:06.984Z</time></trkpt><trkpt lat="40.1112933" lon="15.6266483"><ele>476.0</ele><time>2026-05-01T15:33:07.983Z</time></trkpt><trkpt lat="40.11121" lon="15.626605"><ele>474.49999999999994</ele><time>2026-05-01T15:33:08.983Z</time></trkpt><trkpt lat="40.1111167" lon="15.62656"><ele>473.0</ele><time>2026-05-01T15:33:09.983Z</time></trkpt><trkpt lat="40.1110333" lon="15.626535"><ele>471.5</ele><time>2026-05-01T15:33:10.984Z</time></trkpt><trkpt lat="40.1109467" lon="15.62653"><ele>470.0</ele><time>2026-05-01T15:33:11.984Z</time></trkpt><trkpt lat="40.110865" lon="15.626555"><ele>468.49999999999994</ele><time>2026-05-01T15:33:12.983Z</time></trkpt><trkpt lat="40.11079" lon="15.6266233"><ele>467.0</ele><time>2026-05-01T15:33:13.983Z</time></trkpt><trkpt lat="40.11074" lon="15.6267233"><ele>465.6</ele><time>2026-05-01T15:33:14.983Z</time></trkpt><trkpt lat="40.11071" lon="15.626835"><ele>464.20000000000005</ele><time>2026-05-01T15:33:15.983Z</time></trkpt><trkpt lat="40.110695" lon="15.6269517"><ele>462.8</ele><time>2026-05-01T15:33:16.983Z</time></trkpt><trkpt lat="40.1107133" lon="15.62707"><ele>461.4</ele><time>2026-05-01T15:33:17.984Z</time></trkpt><trkpt lat="40.11076" lon="15.6271733"><ele>460.0</ele><time>2026-05-01T15:33:18.984Z</time></trkpt><trkpt lat="40.1108367" lon="15.6272617"><ele>460.0</ele><time>2026-05-01T15:33:19.983Z</time></trkpt><trkpt lat="40.1109367" lon="15.627325"><ele>460.0</ele><time>2026-05-01T15:33:20.983Z</time></trkpt><trkpt lat="40.1110333" lon="15.6273633"><ele>460.0</ele><time>2026-05-01T15:33:21.983Z</time></trkpt><trkpt lat="40.1111283" lon="15.6273833"><ele>460.0</ele><time>2026-05-01T15:33:22.984Z</time></trkpt><trkpt lat="40.1112333" lon="15.6273917"><ele>460.0</ele><time>2026-05-01T15:33:23.984Z</time></trkpt><trkpt lat="40.111335" lon="15.6274083"><ele>460.0</ele><time>2026-05-01T15:33:24.983Z</time></trkpt><trkpt lat="40.1114333" lon="15.6274433"><ele>460.0</ele><time>2026-05-01T15:33:25.983Z</time></trkpt><trkpt lat="40.1115367" lon="15.6274817"><ele>460.0</ele><time>2026-05-01T15:33:26.983Z</time></trkpt><trkpt lat="40.1116233" lon="15.62754"><ele>460.0</ele><time>2026-05-01T15:33:27.984Z</time></trkpt><trkpt lat="40.1117" lon="15.62761"><ele>460.0</ele><time>2026-05-01T15:33:28.984Z</time></trkpt><trkpt lat="40.1117833" lon="15.627685"><ele>458.2</ele><time>2026-05-01T15:33:29.983Z</time></trkpt><trkpt lat="40.111885" lon="15.6277517"><ele>456.4</ele><time>2026-05-01T15:33:30.984Z</time></trkpt><trkpt lat="40.1119733" lon="15.62782"><ele>454.6</ele><time>2026-05-01T15:33:31.983Z</time></trkpt><trkpt lat="40.1120417" lon="15.6279133"><ele>452.8</ele><time>2026-05-01T15:33:32.983Z</time></trkpt><trkpt lat="40.1120783" lon="15.628025"><ele>451.0</ele><time>2026-05-01T15:33:33.983Z</time></trkpt><trkpt lat="40.112105" lon="15.6281517"><ele>451.0</ele><time>2026-05-01T15:33:34.983Z</time></trkpt><trkpt lat="40.1121183" lon="15.6282733"><ele>451.0</ele><time>2026-05-01T15:33:35.983Z</time></trkpt><trkpt lat="40.1121333" lon="15.62839"><ele>451.0</ele><time>2026-05-01T15:33:36.983Z</time></trkpt><trkpt lat="40.1121483" lon="15.6285183"><ele>451.0</ele><time>2026-05-01T15:33:37.984Z</time></trkpt><trkpt lat="40.1121667" lon="15.62865"><ele>451.0</ele><time>2026-05-01T15:33:38.983Z</time></trkpt><trkpt lat="40.1121767" lon="15.628785"><ele>449.8</ele><time>2026-05-01T15:33:39.984Z</time></trkpt><trkpt lat="40.1121817" lon="15.6289083"><ele>448.6</ele><time>2026-05-01T15:33:40.984Z</time></trkpt><trkpt lat="40.112175" lon="15.6290117"><ele>447.4</ele><time>2026-05-01T15:33:41.983Z</time></trkpt><trkpt lat="40.1121583" lon="15.6291167"><ele>446.2</ele><time>2026-05-01T15:33:42.983Z</time></trkpt><trkpt lat="40.1121383" lon="15.629235"><ele>445.0</ele><time>2026-05-01T15:33:43.983Z</time></trkpt><trkpt lat="40.1121133" lon="15.6293633"><ele>444.8</ele><time>2026-05-01T15:33:44.984Z</time></trkpt><trkpt lat="40.112075" lon="15.6294783"><ele>444.6</ele><time>2026-05-01T15:33:45.983Z</time></trkpt><trkpt lat="40.1120367" lon="15.6295917"><ele>444.4</ele><time>2026-05-01T15:33:46.983Z</time></trkpt><trkpt lat="40.112005" lon="15.6297217"><ele>444.2</ele><time>2026-05-01T15:33:47.983Z</time></trkpt><trkpt lat="40.1119783" lon="15.62984"><ele>444.0</ele><time>2026-05-01T15:33:48.983Z</time></trkpt><trkpt lat="40.1119517" lon="15.6299617"><ele>444.0</ele><time>2026-05-01T15:33:49.983Z</time></trkpt><trkpt lat="40.1119317" lon="15.6300917"><ele>444.0</ele><time>2026-05-01T15:33:50.984Z</time></trkpt><trkpt lat="40.1119067" lon="15.6302233"><ele>444.0</ele><time>2026-05-01T15:33:51.984Z</time></trkpt><trkpt lat="40.11189" lon="15.63035"><ele>444.0</ele><time>2026-05-01T15:33:52.983Z</time></trkpt><trkpt lat="40.1118767" lon="15.630485"><ele>444.0</ele><time>2026-05-01T15:33:53.983Z</time></trkpt><trkpt lat="40.1118583" lon="15.63062"><ele>444.0</ele><time>2026-05-01T15:33:54.983Z</time></trkpt><trkpt lat="40.1118483" lon="15.6307483"><ele>444.0</ele><time>2026-05-01T15:33:55.983Z</time></trkpt><trkpt lat="40.1118433" lon="15.6308683"><ele>444.0</ele><time>2026-05-01T15:33:56.983Z</time></trkpt><trkpt lat="40.1118633" lon="15.630995"><ele>444.0</ele><time>2026-05-01T15:33:57.984Z</time></trkpt><trkpt lat="40.111895" lon="15.6311033"><ele>444.0</ele><time>2026-05-01T15:33:58.984Z</time></trkpt><trkpt lat="40.1119333" lon="15.6312067"><ele>441.79999999999995</ele><time>2026-05-01T15:33:59.983Z</time></trkpt><trkpt lat="40.11199" lon="15.631305"><ele>439.59999999999997</ele><time>2026-05-01T15:34:00.983Z</time></trkpt><trkpt lat="40.1120567" lon="15.6314033"><ele>437.4</ele><time>2026-05-01T15:34:01.983Z</time></trkpt><trkpt lat="40.11213" lon="15.6314883"><ele>435.2</ele><time>2026-05-01T15:34:02.983Z</time></trkpt><trkpt lat="40.1121967" lon="15.631575"><ele>433.0</ele><time>2026-05-01T15:34:03.983Z</time></trkpt><trkpt lat="40.1122633" lon="15.6316533"><ele>433.00000000000006</ele><time>2026-05-01T15:34:04.984Z</time></trkpt><trkpt lat="40.1123283" lon="15.6317333"><ele>433.0</ele><time>2026-05-01T15:34:05.983Z</time></trkpt><trkpt lat="40.112395" lon="15.6318033"><ele>433.0</ele><time>2026-05-01T15:34:06.983Z</time></trkpt><trkpt lat="40.1124583" lon="15.6318833"><ele>433.0</ele><time>2026-05-01T15:34:07.984Z</time></trkpt><trkpt lat="40.11251" lon="15.63197"><ele>433.00000000000006</ele><time>2026-05-01T15:34:08.983Z</time></trkpt><trkpt lat="40.1125367" lon="15.6320667"><ele>433.0</ele><time>2026-05-01T15:34:09.983Z</time></trkpt><trkpt lat="40.11254" lon="15.6321567"><ele>432.33333333333337</ele><time>2026-05-01T15:34:10.983Z</time></trkpt><trkpt lat="40.1125183" lon="15.6322517"><ele>431.6666666666667</ele><time>2026-05-01T15:34:11.984Z</time></trkpt><trkpt lat="40.1124683" lon="15.6323167"><ele>431.0</ele><time>2026-05-01T15:34:12.984Z</time></trkpt><trkpt lat="40.1123783" lon="15.6323533"><ele>430.33333333333337</ele><time>2026-05-01T15:34:13.983Z</time></trkpt><trkpt lat="40.11228" lon="15.6323817"><ele>429.6666666666667</ele><time>2026-05-01T15:34:14.984Z</time></trkpt><trkpt lat="40.1121983" lon="15.6324367"><ele>429.0</ele><time>2026-05-01T15:34:15.983Z</time></trkpt><trkpt lat="40.112125" lon="15.6325133"><ele>429.0</ele><time>2026-05-01T15:34:16.983Z</time></trkpt><trkpt lat="40.1120633" lon="15.6326033"><ele>429.0</ele><time>2026-05-01T15:34:17.983Z</time></trkpt><trkpt lat="40.1119967" lon="15.6327083"><ele>429.0</ele><time>2026-05-01T15:34:18.984Z</time></trkpt><trkpt lat="40.1119333" lon="15.632815"><ele>429.0</ele><time>2026-05-01T15:34:19.983Z</time></trkpt><trkpt lat="40.11187" lon="15.6329167"><ele>429.0</ele><time>2026-05-01T15:34:20.984Z</time></trkpt><trkpt lat="40.1118067" lon="15.6330167"><ele>429.0</ele><time>2026-05-01T15:34:21.983Z</time></trkpt><trkpt lat="40.1117333" lon="15.6330867"><ele>429.0</ele><time>2026-05-01T15:34:22.983Z</time></trkpt><trkpt lat="40.111665" lon="15.6331583"><ele>429.0</ele><time>2026-05-01T15:34:23.983Z</time></trkpt><trkpt lat="40.1115833" lon="15.6332117"><ele>429.0</ele><time>2026-05-01T15:34:24.984Z</time></trkpt><trkpt lat="40.1115067" lon="15.6332533"><ele>429.0</ele><time>2026-05-01T15:34:25.984Z</time></trkpt><trkpt lat="40.1114317" lon="15.633295"><ele>429.0</ele><time>2026-05-01T15:34:26.984Z</time></trkpt><trkpt lat="40.1113633" lon="15.6333283"><ele>429.0</ele><time>2026-05-01T15:34:27.983Z</time></trkpt><trkpt lat="40.1112817" lon="15.6333667"><ele>429.0</ele><time>2026-05-01T15:34:28.984Z</time></trkpt><trkpt lat="40.11121" lon="15.633405"><ele>429.0</ele><time>2026-05-01T15:34:29.983Z</time></trkpt><trkpt lat="40.11114" lon="15.63345"><ele>429.0</ele><time>2026-05-01T15:34:30.983Z</time></trkpt><trkpt lat="40.1110733" lon="15.6334967"><ele>429.0</ele><time>2026-05-01T15:34:31.983Z</time></trkpt><trkpt lat="40.1110067" lon="15.6335517"><ele>429.0</ele><time>2026-05-01T15:34:32.983Z</time></trkpt><trkpt lat="40.1109433" lon="15.6335967"><ele>429.5</ele><time>2026-05-01T15:34:33.983Z</time></trkpt><trkpt lat="40.1108983" lon="15.6336583"><ele>430.0</ele><time>2026-05-01T15:34:34.983Z</time></trkpt><trkpt lat="40.11084" lon="15.6338033"><ele>430.5</ele><time>2026-05-01T15:34:36.984Z</time></trkpt><trkpt lat="40.110825" lon="15.6338867"><ele>431.0</ele><time>2026-05-01T15:34:37.983Z</time></trkpt><trkpt lat="40.1108367" lon="15.6339833"><ele>431.5</ele><time>2026-05-01T15:34:38.983Z</time></trkpt><trkpt lat="40.1108633" lon="15.6340783"><ele>432.0</ele><time>2026-05-01T15:34:39.983Z</time></trkpt><trkpt lat="40.11089" lon="15.6341683"><ele>432.0</ele><time>2026-05-01T15:34:40.983Z</time></trkpt><trkpt lat="40.1109267" lon="15.6342467"><ele>432.00000000000006</ele><time>2026-05-01T15:34:41.984Z</time></trkpt><trkpt lat="40.1109633" lon="15.634325"><ele>432.00000000000006</ele><time>2026-05-01T15:34:42.984Z</time></trkpt><trkpt lat="40.1110033" lon="15.634395"><ele>432.0</ele><time>2026-05-01T15:34:43.984Z</time></trkpt><trkpt lat="40.1110967" lon="15.634515"><ele>432.0</ele><time>2026-05-01T15:34:45.984Z</time></trkpt><trkpt lat="40.1111833" lon="15.6346267"><ele>430.8333333333333</ele><time>2026-05-01T15:34:47.983Z</time></trkpt><trkpt lat="40.1112383" lon="15.6346933"><ele>429.66666666666663</ele><time>2026-05-01T15:34:48.983Z</time></trkpt><trkpt lat="40.1112867" lon="15.6347667"><ele>428.5</ele><time>2026-05-01T15:34:49.983Z</time></trkpt><trkpt lat="40.1113383" lon="15.6348383"><ele>427.3333333333333</ele><time>2026-05-01T15:34:50.983Z</time></trkpt><trkpt lat="40.1113733" lon="15.6349267"><ele>426.16666666666663</ele><time>2026-05-01T15:34:51.983Z</time></trkpt><trkpt lat="40.1113933" lon="15.6350183"><ele>425.0</ele><time>2026-05-01T15:34:52.983Z</time></trkpt><trkpt lat="40.111385" lon="15.6351867"><ele>425.0</ele><time>2026-05-01T15:34:54.983Z</time></trkpt><trkpt lat="40.111345" lon="15.6352583"><ele>425.0</ele><time>2026-05-01T15:34:55.983Z</time></trkpt><trkpt lat="40.1113033" lon="15.635335"><ele>425.0</ele><time>2026-05-01T15:34:56.983Z</time></trkpt><trkpt lat="40.1112517" lon="15.6353933"><ele>425.0</ele><time>2026-05-01T15:34:57.983Z</time></trkpt><trkpt lat="40.1112033" lon="15.6354633"><ele>425.0</ele><time>2026-05-01T15:34:58.983Z</time></trkpt><trkpt lat="40.1111533" lon="15.6355233"><ele>425.0</ele><time>2026-05-01T15:34:59.983Z</time></trkpt><trkpt lat="40.111105" lon="15.6355767"><ele>425.0</ele><time>2026-05-01T15:35:00.984Z</time></trkpt><trkpt lat="40.11106" lon="15.6356367"><ele>426.2</ele><time>2026-05-01T15:35:01.983Z</time></trkpt><trkpt lat="40.110965" lon="15.6357167"><ele>427.4</ele><time>2026-05-01T15:35:03.984Z</time></trkpt><trkpt lat="40.1108867" lon="15.6358017"><ele>428.6</ele><time>2026-05-01T15:35:05.983Z</time></trkpt><trkpt lat="40.110835" lon="15.6359"><ele>429.8</ele><time>2026-05-01T15:35:07.983Z</time></trkpt><trkpt lat="40.11079" lon="15.63603"><ele>431.0</ele><time>2026-05-01T15:35:09.983Z</time></trkpt><trkpt lat="40.110755" lon="15.636175"><ele>429.8333333333333</ele><time>2026-05-01T15:35:11.983Z</time></trkpt><trkpt lat="40.1107083" lon="15.6362983"><ele>428.66666666666663</ele><time>2026-05-01T15:35:13.984Z</time></trkpt><trkpt lat="40.110685" lon="15.6363783"><ele>427.5</ele><time>2026-05-01T15:35:14.983Z</time></trkpt><trkpt lat="40.1106683" lon="15.6364667"><ele>426.33333333333337</ele><time>2026-05-01T15:35:15.983Z</time></trkpt><trkpt lat="40.1106583" lon="15.636555"><ele>425.1666666666667</ele><time>2026-05-01T15:35:16.983Z</time></trkpt><trkpt lat="40.1106483" lon="15.63667"><ele>424.0</ele><time>2026-05-01T15:35:17.983Z</time></trkpt><trkpt lat="40.11063" lon="15.6367683"><ele>424.00000000000006</ele><time>2026-05-01T15:35:18.984Z</time></trkpt><trkpt lat="40.1106083" lon="15.63686"><ele>424.0</ele><time>2026-05-01T15:35:19.983Z</time></trkpt><trkpt lat="40.11059" lon="15.6369483"><ele>424.0</ele><time>2026-05-01T15:35:20.983Z</time></trkpt><trkpt lat="40.11057" lon="15.6370283"><ele>424.0</ele><time>2026-05-01T15:35:21.984Z</time></trkpt><trkpt lat="40.1105167" lon="15.6371483"><ele>424.00000000000006</ele><time>2026-05-01T15:35:23.984Z</time></trkpt><trkpt lat="40.1105083" lon="15.637265"><ele>424.0</ele><time>2026-05-01T15:35:25.984Z</time></trkpt><trkpt lat="40.110545" lon="15.6373533"><ele>424.1666666666667</ele><time>2026-05-01T15:35:27.984Z</time></trkpt><trkpt lat="40.1106467" lon="15.637385"><ele>424.33333333333337</ele><time>2026-05-01T15:35:29.983Z</time></trkpt><trkpt lat="40.110755" lon="15.637345"><ele>424.5</ele><time>2026-05-01T15:35:31.983Z</time></trkpt><trkpt lat="40.1108183" lon="15.6373117"><ele>424.66666666666663</ele><time>2026-05-01T15:35:32.983Z</time></trkpt><trkpt lat="40.110895" lon="15.6372883"><ele>424.8333333333333</ele><time>2026-05-01T15:35:33.983Z</time></trkpt><trkpt lat="40.110975" lon="15.6372833"><ele>425.0</ele><time>2026-05-01T15:35:34.983Z</time></trkpt><trkpt lat="40.1110733" lon="15.6372817"><ele>425.2</ele><time>2026-05-01T15:35:35.983Z</time></trkpt><trkpt lat="40.11116" lon="15.637285"><ele>425.4</ele><time>2026-05-01T15:35:36.984Z</time></trkpt><trkpt lat="40.1112633" lon="15.63731"><ele>425.6</ele><time>2026-05-01T15:35:37.983Z</time></trkpt><trkpt lat="40.1113533" lon="15.637355"><ele>425.8</ele><time>2026-05-01T15:35:38.983Z</time></trkpt><trkpt lat="40.111435" lon="15.63741"><ele>426.0</ele><time>2026-05-01T15:35:39.983Z</time></trkpt><trkpt lat="40.1115267" lon="15.637445"><ele>426.0</ele><time>2026-05-01T15:35:40.983Z</time></trkpt><trkpt lat="40.1116033" lon="15.63749"><ele>426.0</ele><time>2026-05-01T15:35:41.983Z</time></trkpt><trkpt lat="40.1116783" lon="15.6375333"><ele>426.0</ele><time>2026-05-01T15:35:42.984Z</time></trkpt><trkpt lat="40.11176" lon="15.6375833"><ele>426.0</ele><time>2026-05-01T15:35:43.983Z</time></trkpt><trkpt lat="40.111825" lon="15.6376533"><ele>426.0</ele><time>2026-05-01T15:35:44.983Z</time></trkpt><trkpt lat="40.111885" lon="15.6377417"><ele>426.0</ele><time>2026-05-01T15:35:45.983Z</time></trkpt><trkpt lat="40.1119367" lon="15.6378467"><ele>422.4</ele><time>2026-05-01T15:35:46.984Z</time></trkpt><trkpt lat="40.1119933" lon="15.6379717"><ele>418.8</ele><time>2026-05-01T15:35:47.984Z</time></trkpt><trkpt lat="40.1120267" lon="15.6381133"><ele>415.2</ele><time>2026-05-01T15:35:48.984Z</time></trkpt><trkpt lat="40.1120733" lon="15.6382417"><ele>411.59999999999997</ele><time>2026-05-01T15:35:49.983Z</time></trkpt><trkpt lat="40.11213" lon="15.638365"><ele>408.0</ele><time>2026-05-01T15:35:50.983Z</time></trkpt><trkpt lat="40.1121933" lon="15.6384533"><ele>408.0</ele><time>2026-05-01T15:35:51.983Z</time></trkpt><trkpt lat="40.1122633" lon="15.6385133"><ele>408.0</ele><time>2026-05-01T15:35:52.984Z</time></trkpt><trkpt lat="40.1123483" lon="15.6385433"><ele>408.0</ele><time>2026-05-01T15:35:53.984Z</time></trkpt><trkpt lat="40.1124417" lon="15.6385483"><ele>408.0</ele><time>2026-05-01T15:35:54.983Z</time></trkpt><trkpt lat="40.112535" lon="15.6385483"><ele>408.0</ele><time>2026-05-01T15:35:55.984Z</time></trkpt><trkpt lat="40.112625" lon="15.6385467"><ele>408.0</ele><time>2026-05-01T15:35:56.984Z</time></trkpt><trkpt lat="40.1127067" lon="15.638555"><ele>411.4</ele><time>2026-05-01T15:35:57.983Z</time></trkpt><trkpt lat="40.1127767" lon="15.63857"><ele>414.79999999999995</ele><time>2026-05-01T15:35:58.984Z</time></trkpt><trkpt lat="40.112855" lon="15.6386533"><ele>418.2</ele><time>2026-05-01T15:36:00.984Z</time></trkpt><trkpt lat="40.1128183" lon="15.6387817"><ele>421.6</ele><time>2026-05-01T15:36:02.984Z</time></trkpt><trkpt lat="40.11275" lon="15.638845"><ele>425.0</ele><time>2026-05-01T15:36:03.983Z</time></trkpt><trkpt lat="40.11266" lon="15.63889"><ele>426.75</ele><time>2026-05-01T15:36:04.983Z</time></trkpt><trkpt lat="40.11255" lon="15.638935"><ele>428.5</ele><time>2026-05-01T15:36:05.983Z</time></trkpt><trkpt lat="40.11244" lon="15.6389983"><ele>430.25</ele><time>2026-05-01T15:36:06.983Z</time></trkpt><trkpt lat="40.1123383" lon="15.63907"><ele>432.0</ele><time>2026-05-01T15:36:07.984Z</time></trkpt><trkpt lat="40.112235" lon="15.639145"><ele>426.75</ele><time>2026-05-01T15:36:08.983Z</time></trkpt><trkpt lat="40.1121217" lon="15.6392067"><ele>421.5</ele><time>2026-05-01T15:36:09.983Z</time></trkpt><trkpt lat="40.11202" lon="15.639265"><ele>416.25</ele><time>2026-05-01T15:36:10.983Z</time></trkpt><trkpt lat="40.1119017" lon="15.6393233"><ele>411.0</ele><time>2026-05-01T15:36:11.983Z</time></trkpt><trkpt lat="40.1117633" lon="15.6393833"><ele>411.0</ele><time>2026-05-01T15:36:12.983Z</time></trkpt><trkpt lat="40.11164" lon="15.6394533"><ele>411.0</ele><time>2026-05-01T15:36:13.983Z</time></trkpt><trkpt lat="40.1114967" lon="15.6395167"><ele>411.0</ele><time>2026-05-01T15:36:14.984Z</time></trkpt><trkpt lat="40.1113617" lon="15.6396"><ele>411.0</ele><time>2026-05-01T15:36:15.984Z</time></trkpt><trkpt lat="40.1112233" lon="15.6396817"><ele>410.66666666666663</ele><time>2026-05-01T15:36:16.983Z</time></trkpt><trkpt lat="40.11109" lon="15.6397717"><ele>410.3333333333333</ele><time>2026-05-01T15:36:17.983Z</time></trkpt><trkpt lat="40.1109533" lon="15.63989"><ele>410.0</ele><time>2026-05-01T15:36:18.984Z</time></trkpt><trkpt lat="40.1108317" lon="15.640015"><ele>407.25</ele><time>2026-05-01T15:36:19.983Z</time></trkpt><trkpt lat="40.1107317" lon="15.64016"><ele>404.5</ele><time>2026-05-01T15:36:20.983Z</time></trkpt><trkpt lat="40.11066" lon="15.6403117"><ele>401.75</ele><time>2026-05-01T15:36:21.984Z</time></trkpt><trkpt lat="40.1106267" lon="15.640485"><ele>399.0</ele><time>2026-05-01T15:36:22.984Z</time></trkpt><trkpt lat="40.1106083" lon="15.6406833"><ele>399.0</ele><time>2026-05-01T15:36:23.983Z</time></trkpt><trkpt lat="40.1106017" lon="15.64087"><ele>399.0</ele><time>2026-05-01T15:36:24.983Z</time></trkpt><trkpt lat="40.1105867" lon="15.64107"><ele>399.0</ele><time>2026-05-01T15:36:25.984Z</time></trkpt><trkpt lat="40.1105617" lon="15.64127"><ele>401.25</ele><time>2026-05-01T15:36:26.983Z</time></trkpt><trkpt lat="40.110545" lon="15.6414533"><ele>403.5</ele><time>2026-05-01T15:36:27.984Z</time></trkpt><trkpt lat="40.1105283" lon="15.641635"><ele>405.75</ele><time>2026-05-01T15:36:28.983Z</time></trkpt><trkpt lat="40.1105067" lon="15.6417917"><ele>408.0</ele><time>2026-05-01T15:36:29.984Z</time></trkpt><trkpt lat="40.1104717" lon="15.6419267"><ele>411.79999999999995</ele><time>2026-05-01T15:36:30.983Z</time></trkpt><trkpt lat="40.1104067" lon="15.64203"><ele>415.6</ele><time>2026-05-01T15:36:31.984Z</time></trkpt><trkpt lat="40.1103133" lon="15.642095"><ele>419.40000000000003</ele><time>2026-05-01T15:36:32.984Z</time></trkpt><trkpt lat="40.1102133" lon="15.642145"><ele>423.20000000000005</ele><time>2026-05-01T15:36:33.983Z</time></trkpt><trkpt lat="40.1101067" lon="15.6421967"><ele>427.0</ele><time>2026-05-01T15:36:34.983Z</time></trkpt><trkpt lat="40.1099983" lon="15.6422517"><ele>426.20000000000005</ele><time>2026-05-01T15:36:35.984Z</time></trkpt><trkpt lat="40.1098933" lon="15.6423117"><ele>425.40000000000003</ele><time>2026-05-01T15:36:36.983Z</time></trkpt><trkpt lat="40.1097983" lon="15.6423683"><ele>424.6</ele><time>2026-05-01T15:36:37.984Z</time></trkpt><trkpt lat="40.10971" lon="15.64242"><ele>423.79999999999995</ele><time>2026-05-01T15:36:38.983Z</time></trkpt><trkpt lat="40.10962" lon="15.64244"><ele>423.0</ele><time>2026-05-01T15:36:39.984Z</time></trkpt><trkpt lat="40.109535" lon="15.642435"><ele>423.0</ele><time>2026-05-01T15:36:40.983Z</time></trkpt><trkpt lat="40.1094583" lon="15.6424117"><ele>423.0</ele><time>2026-05-01T15:36:41.983Z</time></trkpt><trkpt lat="40.1094017" lon="15.64234"><ele>423.0</ele><time>2026-05-01T15:36:42.983Z</time></trkpt><trkpt lat="40.109325" lon="15.6422567"><ele>423.0</ele><time>2026-05-01T15:36:43.983Z</time></trkpt><trkpt lat="40.1092333" lon="15.6421767"><ele>423.0</ele><time>2026-05-01T15:36:44.984Z</time></trkpt><trkpt lat="40.10914" lon="15.64212"><ele>421.4</ele><time>2026-05-01T15:36:45.984Z</time></trkpt><trkpt lat="40.1090517" lon="15.6420733"><ele>419.79999999999995</ele><time>2026-05-01T15:36:46.983Z</time></trkpt><trkpt lat="40.1089833" lon="15.64202"><ele>418.2</ele><time>2026-05-01T15:36:47.983Z</time></trkpt><trkpt lat="40.1089267" lon="15.6419283"><ele>416.6</ele><time>2026-05-01T15:36:48.983Z</time></trkpt><trkpt lat="40.1088733" lon="15.641825"><ele>415.0</ele><time>2026-05-01T15:36:49.983Z</time></trkpt><trkpt lat="40.1088217" lon="15.6417067"><ele>415.0</ele><time>2026-05-01T15:36:50.984Z</time></trkpt><trkpt lat="40.108775" lon="15.6415733"><ele>415.0</ele><time>2026-05-01T15:36:51.984Z</time></trkpt><trkpt lat="40.1087183" lon="15.6414617"><ele>415.0</ele><time>2026-05-01T15:36:52.984Z</time></trkpt><trkpt lat="40.10865" lon="15.6413767"><ele>415.0</ele><time>2026-05-01T15:36:53.983Z</time></trkpt><trkpt lat="40.1085817" lon="15.6413"><ele>415.0</ele><time>2026-05-01T15:36:54.983Z</time></trkpt><trkpt lat="40.1085017" lon="15.6412367"><ele>415.0</ele><time>2026-05-01T15:36:55.983Z</time></trkpt><trkpt lat="40.1084183" lon="15.6412017"><ele>415.0</ele><time>2026-05-01T15:36:56.983Z</time></trkpt><trkpt lat="40.1083217" lon="15.6411783"><ele>415.0</ele><time>2026-05-01T15:36:57.984Z</time></trkpt><trkpt lat="40.108225" lon="15.6411767"><ele>415.0</ele><time>2026-05-01T15:36:58.983Z</time></trkpt><trkpt lat="40.1081167" lon="15.641205"><ele>415.0</ele><time>2026-05-01T15:36:59.983Z</time></trkpt><trkpt lat="40.108025" lon="15.6412567"><ele>415.2</ele><time>2026-05-01T15:37:00.984Z</time></trkpt><trkpt lat="40.10795" lon="15.6413467"><ele>415.4</ele><time>2026-05-01T15:37:01.983Z</time></trkpt><trkpt lat="40.1078817" lon="15.6414467"><ele>415.6</ele><time>2026-05-01T15:37:02.983Z</time></trkpt><trkpt lat="40.107815" lon="15.64153"><ele>415.8</ele><time>2026-05-01T15:37:03.983Z</time></trkpt><trkpt lat="40.1077317" lon="15.6415833"><ele>416.0</ele><time>2026-05-01T15:37:04.983Z</time></trkpt><trkpt lat="40.107655" lon="15.64162"><ele>415.99999999999994</ele><time>2026-05-01T15:37:05.983Z</time></trkpt><trkpt lat="40.10758" lon="15.6416333"><ele>416.0</ele><time>2026-05-01T15:37:06.984Z</time></trkpt><trkpt lat="40.1075017" lon="15.6416033"><ele>416.0</ele><time>2026-05-01T15:37:07.984Z</time></trkpt><trkpt lat="40.10744" lon="15.6415483"><ele>416.0</ele><time>2026-05-01T15:37:08.983Z</time></trkpt><trkpt lat="40.107395" lon="15.641455"><ele>415.99999999999994</ele><time>2026-05-01T15:37:09.983Z</time></trkpt><trkpt lat="40.1073683" lon="15.6413367"><ele>416.0</ele><time>2026-05-01T15:37:10.984Z</time></trkpt><trkpt lat="40.1073517" lon="15.6412033"><ele>414.75</ele><time>2026-05-01T15:37:11.984Z</time></trkpt><trkpt lat="40.1073217" lon="15.64107"><ele>413.5</ele><time>2026-05-01T15:37:12.983Z</time></trkpt><trkpt lat="40.1072717" lon="15.6409317"><ele>412.25</ele><time>2026-05-01T15:37:13.983Z</time></trkpt><trkpt lat="40.1072067" lon="15.6408083"><ele>411.0</ele><time>2026-05-01T15:37:14.983Z</time></trkpt><trkpt lat="40.1071283" lon="15.6407033"><ele>411.0</ele><time>2026-05-01T15:37:15.984Z</time></trkpt><trkpt lat="40.1070383" lon="15.6405917"><ele>411.0</ele><time>2026-05-01T15:37:16.983Z</time></trkpt><trkpt lat="40.1069467" lon="15.6405117"><ele>411.0</ele><time>2026-05-01T15:37:17.983Z</time></trkpt><trkpt lat="40.10684" lon="15.6404667"><ele>411.0</ele><time>2026-05-01T15:37:18.984Z</time></trkpt><trkpt lat="40.1067417" lon="15.6404667"><ele>411.0</ele><time>2026-05-01T15:37:19.983Z</time></trkpt><trkpt lat="40.1066517" lon="15.6405183"><ele>411.0</ele><time>2026-05-01T15:37:20.983Z</time></trkpt><trkpt lat="40.1065867" lon="15.6406167"><ele>411.0</ele><time>2026-05-01T15:37:21.983Z</time></trkpt><trkpt lat="40.106545" lon="15.6407467"><ele>411.0</ele><time>2026-05-01T15:37:22.984Z</time></trkpt><trkpt lat="40.1065333" lon="15.6408817"><ele>411.0</ele><time>2026-05-01T15:37:23.984Z</time></trkpt><trkpt lat="40.1065167" lon="15.640995"><ele>411.0</ele><time>2026-05-01T15:37:24.984Z</time></trkpt><trkpt lat="40.1064817" lon="15.641085"><ele>411.25</ele><time>2026-05-01T15:37:25.983Z</time></trkpt><trkpt lat="40.1063817" lon="15.641145"><ele>411.5</ele><time>2026-05-01T15:37:27.983Z</time></trkpt><trkpt lat="40.106275" lon="15.64104"><ele>411.75</ele><time>2026-05-01T15:37:29.983Z</time></trkpt><trkpt lat="40.1062233" lon="15.6409283"><ele>412.0</ele><time>2026-05-01T15:37:30.983Z</time></trkpt><trkpt lat="40.1061483" lon="15.64082"><ele>412.0</ele><time>2026-05-01T15:37:31.983Z</time></trkpt><trkpt lat="40.1060583" lon="15.6407233"><ele>412.0</ele><time>2026-05-01T15:37:32.984Z</time></trkpt><trkpt lat="40.1059633" lon="15.640645"><ele>412.0</ele><time>2026-05-01T15:37:33.983Z</time></trkpt><trkpt lat="40.1058733" lon="15.64058"><ele>412.0</ele><time>2026-05-01T15:37:34.984Z</time></trkpt><trkpt lat="40.1057733" lon="15.6405217"><ele>412.0</ele><time>2026-05-01T15:37:35.984Z</time></trkpt><trkpt lat="40.1056733" lon="15.64048"><ele>411.5</ele><time>2026-05-01T15:37:36.983Z</time></trkpt><trkpt lat="40.105555" lon="15.6404467"><ele>411.0</ele><time>2026-05-01T15:37:37.984Z</time></trkpt><trkpt lat="40.1054283" lon="15.64042"><ele>410.5</ele><time>2026-05-01T15:37:38.984Z</time></trkpt><trkpt lat="40.1052967" lon="15.6404167"><ele>410.0</ele><time>2026-05-01T15:37:39.983Z</time></trkpt><trkpt lat="40.1051667" lon="15.64042"><ele>410.0</ele><time>2026-05-01T15:37:40.983Z</time></trkpt><trkpt lat="40.1050483" lon="15.6404333"><ele>410.0</ele><time>2026-05-01T15:37:41.983Z</time></trkpt><trkpt lat="40.104925" lon="15.640465"><ele>410.0</ele><time>2026-05-01T15:37:42.984Z</time></trkpt><trkpt lat="40.104795" lon="15.640495"><ele>410.0</ele><time>2026-05-01T15:37:43.983Z</time></trkpt><trkpt lat="40.10467" lon="15.6405283"><ele>408.5</ele><time>2026-05-01T15:37:44.983Z</time></trkpt><trkpt lat="40.1045383" lon="15.6405733"><ele>407.0</ele><time>2026-05-01T15:37:45.984Z</time></trkpt><trkpt lat="40.1044083" lon="15.6405917"><ele>405.5</ele><time>2026-05-01T15:37:46.984Z</time></trkpt><trkpt lat="40.104295" lon="15.64061"><ele>404.0</ele><time>2026-05-01T15:37:47.984Z</time></trkpt><trkpt lat="40.1041883" lon="15.640585"><ele>404.0</ele><time>2026-05-01T15:37:48.984Z</time></trkpt><trkpt lat="40.104085" lon="15.640525"><ele>404.0</ele><time>2026-05-01T15:37:49.984Z</time></trkpt><trkpt lat="40.10401" lon="15.6404167"><ele>404.0</ele><time>2026-05-01T15:37:50.983Z</time></trkpt><trkpt lat="40.1039467" lon="15.6402883"><ele>404.0</ele><time>2026-05-01T15:37:51.983Z</time></trkpt><trkpt lat="40.103875" lon="15.64016"><ele>407.0</ele><time>2026-05-01T15:37:52.983Z</time></trkpt><trkpt lat="40.1038067" lon="15.6400333"><ele>410.0</ele><time>2026-05-01T15:37:53.983Z</time></trkpt><trkpt lat="40.103745" lon="15.639905"><ele>413.0</ele><time>2026-05-01T15:37:54.984Z</time></trkpt><trkpt lat="40.1036883" lon="15.639775"><ele>416.0</ele><time>2026-05-01T15:37:55.984Z</time></trkpt><trkpt lat="40.1036583" lon="15.6396333"><ele>416.0</ele><time>2026-05-01T15:37:56.983Z</time></trkpt><trkpt lat="40.103615" lon="15.6394767"><ele>416.0</ele><time>2026-05-01T15:37:57.983Z</time></trkpt><trkpt lat="40.1035683" lon="15.639325"><ele>416.0</ele><time>2026-05-01T15:37:58.983Z</time></trkpt><trkpt lat="40.10353" lon="15.639175"><ele>416.0</ele><time>2026-05-01T15:37:59.984Z</time></trkpt><trkpt lat="40.1034833" lon="15.6390283"><ele>413.75</ele><time>2026-05-01T15:38:00.983Z</time></trkpt><trkpt lat="40.1034283" lon="15.6388967"><ele>411.5</ele><time>2026-05-01T15:38:01.984Z</time></trkpt><trkpt lat="40.1033817" lon="15.63876"><ele>409.25</ele><time>2026-05-01T15:38:02.983Z</time></trkpt><trkpt lat="40.1033467" lon="15.6386117"><ele>407.0</ele><time>2026-05-01T15:38:03.983Z</time></trkpt><trkpt lat="40.1033317" lon="15.6384633"><ele>403.6</ele><time>2026-05-01T15:38:04.983Z</time></trkpt><trkpt lat="40.1033283" lon="15.6383333"><ele>400.20000000000005</ele><time>2026-05-01T15:38:05.983Z</time></trkpt><trkpt lat="40.103325" lon="15.6382033"><ele>396.8</ele><time>2026-05-01T15:38:06.983Z</time></trkpt><trkpt lat="40.10332" lon="15.6380883"><ele>393.4</ele><time>2026-05-01T15:38:07.983Z</time></trkpt><trkpt lat="40.103295" lon="15.6379817"><ele>390.0</ele><time>2026-05-01T15:38:08.983Z</time></trkpt><trkpt lat="40.1032483" lon="15.6378967"><ele>393.8</ele><time>2026-05-01T15:38:09.984Z</time></trkpt><trkpt lat="40.1031783" lon="15.6378317"><ele>397.6</ele><time>2026-05-01T15:38:10.983Z</time></trkpt><trkpt lat="40.1030933" lon="15.6377767"><ele>401.4</ele><time>2026-05-01T15:38:11.983Z</time></trkpt><trkpt lat="40.1030067" lon="15.63772"><ele>405.2</ele><time>2026-05-01T15:38:12.983Z</time></trkpt><trkpt lat="40.102935" lon="15.6376417"><ele>409.0</ele><time>2026-05-01T15:38:13.984Z</time></trkpt><trkpt lat="40.102885" lon="15.6375367"><ele>409.0</ele><time>2026-05-01T15:38:14.983Z</time></trkpt><trkpt lat="40.1028517" lon="15.6374217"><ele>409.0</ele><time>2026-05-01T15:38:15.983Z</time></trkpt><trkpt lat="40.1028383" lon="15.6373017"><ele>409.0</ele><time>2026-05-01T15:38:16.983Z</time></trkpt><trkpt lat="40.1028233" lon="15.637155"><ele>409.0</ele><time>2026-05-01T15:38:17.983Z</time></trkpt><trkpt lat="40.102805" lon="15.637005"><ele>409.0</ele><time>2026-05-01T15:38:18.984Z</time></trkpt><trkpt lat="40.1027783" lon="15.636875"><ele>408.2</ele><time>2026-05-01T15:38:19.984Z</time></trkpt><trkpt lat="40.10274" lon="15.6367433"><ele>407.4</ele><time>2026-05-01T15:38:20.983Z</time></trkpt><trkpt lat="40.102675" lon="15.636625"><ele>406.6</ele><time>2026-05-01T15:38:21.983Z</time></trkpt><trkpt lat="40.1025867" lon="15.6365283"><ele>405.8</ele><time>2026-05-01T15:38:22.983Z</time></trkpt><trkpt lat="40.1024883" lon="15.63646"><ele>405.0</ele><time>2026-05-01T15:38:23.983Z</time></trkpt><trkpt lat="40.1023733" lon="15.6364283"><ele>405.0</ele><time>2026-05-01T15:38:24.984Z</time></trkpt><trkpt lat="40.10225" lon="15.636395"><ele>405.0</ele><time>2026-05-01T15:38:25.984Z</time></trkpt><trkpt lat="40.1021283" lon="15.6363483"><ele>405.0</ele><time>2026-05-01T15:38:26.983Z</time></trkpt><trkpt lat="40.10202" lon="15.63627"><ele>405.0</ele><time>2026-05-01T15:38:27.983Z</time></trkpt><trkpt lat="40.10194" lon="15.6361667"><ele>399.75</ele><time>2026-05-01T15:38:28.985Z</time></trkpt><trkpt lat="40.1018833" lon="15.636035"><ele>394.5</ele><time>2026-05-01T15:38:29.984Z</time></trkpt><trkpt lat="40.1018567" lon="15.6358733"><ele>389.25</ele><time>2026-05-01T15:38:30.984Z</time></trkpt><trkpt lat="40.1018517" lon="15.6356917"><ele>384.0</ele><time>2026-05-01T15:38:31.985Z</time></trkpt><trkpt lat="40.10182" lon="15.6355333"><ele>384.0</ele><time>2026-05-01T15:38:32.984Z</time></trkpt><trkpt lat="40.1017667" lon="15.635385"><ele>384.0</ele><time>2026-05-01T15:38:33.985Z</time></trkpt><trkpt lat="40.1016867" lon="15.6352567"><ele>384.0</ele><time>2026-05-01T15:38:34.985Z</time></trkpt><trkpt lat="40.1015783" lon="15.63516"><ele>384.0</ele><time>2026-05-01T15:38:35.984Z</time></trkpt><trkpt lat="40.1014717" lon="15.6351133"><ele>381.25</ele><time>2026-05-01T15:38:36.985Z</time></trkpt><trkpt lat="40.1013683" lon="15.6351067"><ele>378.5</ele><time>2026-05-01T15:38:37.984Z</time></trkpt><trkpt lat="40.1012733" lon="15.6351633"><ele>375.75</ele><time>2026-05-01T15:38:38.984Z</time></trkpt><trkpt lat="40.1011867" lon="15.6352783"><ele>373.0</ele><time>2026-05-01T15:38:39.985Z</time></trkpt><trkpt lat="40.1011183" lon="15.6354267"><ele>373.0</ele><time>2026-05-01T15:38:40.985Z</time></trkpt><trkpt lat="40.101055" lon="15.63559"><ele>373.0</ele><time>2026-05-01T15:38:41.985Z</time></trkpt><trkpt lat="40.100995" lon="15.6357317"><ele>373.0</ele><time>2026-05-01T15:38:42.984Z</time></trkpt><trkpt lat="40.1009317" lon="15.6358633"><ele>373.0</ele><time>2026-05-01T15:38:43.984Z</time></trkpt><trkpt lat="40.1008633" lon="15.635975"><ele>373.0</ele><time>2026-05-01T15:38:44.984Z</time></trkpt><trkpt lat="40.10076" lon="15.6360567"><ele>373.0</ele><time>2026-05-01T15:38:45.984Z</time></trkpt><trkpt lat="40.1006517" lon="15.6360983"><ele>373.0</ele><time>2026-05-01T15:38:46.985Z</time></trkpt><trkpt lat="40.1005467" lon="15.6361117"><ele>373.0</ele><time>2026-05-01T15:38:47.984Z</time></trkpt><trkpt lat="40.10045" lon="15.6361067"><ele>373.0</ele><time>2026-05-01T15:38:48.984Z</time></trkpt><trkpt lat="40.10034" lon="15.6360517"><ele>374.25</ele><time>2026-05-01T15:38:49.984Z</time></trkpt><trkpt lat="40.1002417" lon="15.6359467"><ele>375.5</ele><time>2026-05-01T15:38:50.984Z</time></trkpt><trkpt lat="40.10016" lon="15.6358233"><ele>376.75</ele><time>2026-05-01T15:38:51.984Z</time></trkpt><trkpt lat="40.100095" lon="15.6356817"><ele>378.0</ele><time>2026-05-01T15:38:52.984Z</time></trkpt><trkpt lat="40.100055" lon="15.6355383"><ele>378.0</ele><time>2026-05-01T15:38:53.984Z</time></trkpt><trkpt lat="40.100025" lon="15.6353883"><ele>378.0</ele><time>2026-05-01T15:38:54.984Z</time></trkpt><trkpt lat="40.100005" lon="15.63525"><ele>378.0</ele><time>2026-05-01T15:38:55.985Z</time></trkpt><trkpt lat="40.0999817" lon="15.63513"><ele>378.0</ele><time>2026-05-01T15:38:56.985Z</time></trkpt><trkpt lat="40.0999733" lon="15.6350183"><ele>378.0</ele><time>2026-05-01T15:38:57.984Z</time></trkpt><trkpt lat="40.09997" lon="15.63491"><ele>376.2</ele><time>2026-05-01T15:38:58.985Z</time></trkpt><trkpt lat="40.0999633" lon="15.634785"><ele>374.4</ele><time>2026-05-01T15:38:59.985Z</time></trkpt><trkpt lat="40.0999367" lon="15.6346783"><ele>372.59999999999997</ele><time>2026-05-01T15:39:00.984Z</time></trkpt><trkpt lat="40.0999033" lon="15.6345517"><ele>370.79999999999995</ele><time>2026-05-01T15:39:01.985Z</time></trkpt><trkpt lat="40.0998633" lon="15.634425"><ele>369.0</ele><time>2026-05-01T15:39:02.984Z</time></trkpt><trkpt lat="40.0998267" lon="15.6342983"><ele>366.4</ele><time>2026-05-01T15:39:03.984Z</time></trkpt><trkpt lat="40.0997967" lon="15.634185"><ele>363.79999999999995</ele><time>2026-05-01T15:39:04.984Z</time></trkpt><trkpt lat="40.099785" lon="15.6340567"><ele>361.20000000000005</ele><time>2026-05-01T15:39:05.984Z</time></trkpt><trkpt lat="40.099795" lon="15.633895"><ele>358.6</ele><time>2026-05-01T15:39:06.985Z</time></trkpt><trkpt lat="40.09983" lon="15.633735"><ele>356.0</ele><time>2026-05-01T15:39:07.985Z</time></trkpt><trkpt lat="40.0998917" lon="15.633605"><ele>356.4</ele><time>2026-05-01T15:39:08.985Z</time></trkpt><trkpt lat="40.0999683" lon="15.6335017"><ele>356.8</ele><time>2026-05-01T15:39:09.985Z</time></trkpt><trkpt lat="40.10005" lon="15.6333933"><ele>357.2</ele><time>2026-05-01T15:39:10.985Z</time></trkpt><trkpt lat="40.1000983" lon="15.63327"><ele>357.59999999999997</ele><time>2026-05-01T15:39:11.984Z</time></trkpt><trkpt lat="40.1001267" lon="15.6331417"><ele>358.0</ele><time>2026-05-01T15:39:12.984Z</time></trkpt><trkpt lat="40.10013" lon="15.63302"><ele>358.0</ele><time>2026-05-01T15:39:13.984Z</time></trkpt><trkpt lat="40.100095" lon="15.632905"><ele>358.0</ele><time>2026-05-01T15:39:14.984Z</time></trkpt><trkpt lat="40.1000417" lon="15.6327983"><ele>358.0</ele><time>2026-05-01T15:39:15.984Z</time></trkpt><trkpt lat="40.09998" lon="15.6326983"><ele>358.0</ele><time>2026-05-01T15:39:16.985Z</time></trkpt><trkpt lat="40.099935" lon="15.63257"><ele>358.0</ele><time>2026-05-01T15:39:17.984Z</time></trkpt><trkpt lat="40.0999083" lon="15.6324267"><ele>355.59999999999997</ele><time>2026-05-01T15:39:18.985Z</time></trkpt><trkpt lat="40.0998933" lon="15.6322783"><ele>353.2</ele><time>2026-05-01T15:39:19.984Z</time></trkpt><trkpt lat="40.0998667" lon="15.632155"><ele>350.8</ele><time>2026-05-01T15:39:20.985Z</time></trkpt><trkpt lat="40.099815" lon="15.6320633"><ele>348.4</ele><time>2026-05-01T15:39:21.985Z</time></trkpt><trkpt lat="40.0997383" lon="15.6320017"><ele>346.0</ele><time>2026-05-01T15:39:22.984Z</time></trkpt><trkpt lat="40.0996517" lon="15.6319667"><ele>346.0</ele><time>2026-05-01T15:39:23.984Z</time></trkpt><trkpt lat="40.0995617" lon="15.631945"><ele>346.0</ele><time>2026-05-01T15:39:24.984Z</time></trkpt><trkpt lat="40.0994817" lon="15.6318883"><ele>346.0</ele><time>2026-05-01T15:39:25.984Z</time></trkpt><trkpt lat="40.0994067" lon="15.6318167"><ele>346.0</ele><time>2026-05-01T15:39:26.985Z</time></trkpt><trkpt lat="40.0993633" lon="15.6317033"><ele>346.0</ele><time>2026-05-01T15:39:27.985Z</time></trkpt><trkpt lat="40.09933" lon="15.6315633"><ele>346.0</ele><time>2026-05-01T15:39:28.984Z</time></trkpt><trkpt lat="40.0993017" lon="15.6314217"><ele>346.0</ele><time>2026-05-01T15:39:29.985Z</time></trkpt><trkpt lat="40.0992667" lon="15.63129"><ele>346.0</ele><time>2026-05-01T15:39:30.984Z</time></trkpt><trkpt lat="40.0992283" lon="15.631175"><ele>346.0</ele><time>2026-05-01T15:39:31.984Z</time></trkpt><trkpt lat="40.0991617" lon="15.631075"><ele>346.0</ele><time>2026-05-01T15:39:32.985Z</time></trkpt><trkpt lat="40.0990733" lon="15.6309733"><ele>344.8</ele><time>2026-05-01T15:39:33.985Z</time></trkpt><trkpt lat="40.098975" lon="15.6309"><ele>343.6</ele><time>2026-05-01T15:39:34.984Z</time></trkpt><trkpt lat="40.0988767" lon="15.6308433"><ele>342.4</ele><time>2026-05-01T15:39:35.984Z</time></trkpt><trkpt lat="40.0987833" lon="15.6307983"><ele>341.2</ele><time>2026-05-01T15:39:36.985Z</time></trkpt><trkpt lat="40.0986767" lon="15.630765"><ele>340.0</ele><time>2026-05-01T15:39:37.984Z</time></trkpt><trkpt lat="40.0985767" lon="15.63074"><ele>340.0</ele><time>2026-05-01T15:39:38.985Z</time></trkpt><trkpt lat="40.0984783" lon="15.6307"><ele>340.0</ele><time>2026-05-01T15:39:39.985Z</time></trkpt><trkpt lat="40.098385" lon="15.63066"><ele>340.0</ele><time>2026-05-01T15:39:40.984Z</time></trkpt><trkpt lat="40.09831" lon="15.630585"><ele>340.0</ele><time>2026-05-01T15:39:41.984Z</time></trkpt><trkpt lat="40.098245" lon="15.6304917"><ele>340.0</ele><time>2026-05-01T15:39:42.984Z</time></trkpt><trkpt lat="40.0981883" lon="15.63039"><ele>339.0</ele><time>2026-05-01T15:39:43.985Z</time></trkpt><trkpt lat="40.0981283" lon="15.6302883"><ele>338.0</ele><time>2026-05-01T15:39:44.984Z</time></trkpt><trkpt lat="40.09808" lon="15.6301833"><ele>337.0</ele><time>2026-05-01T15:39:45.984Z</time></trkpt><trkpt lat="40.0980167" lon="15.6300667"><ele>336.0</ele><time>2026-05-01T15:39:46.984Z</time></trkpt><trkpt lat="40.097935" lon="15.6299517"><ele>335.0</ele><time>2026-05-01T15:39:47.984Z</time></trkpt><trkpt lat="40.09783" lon="15.629845"><ele>335.0</ele><time>2026-05-01T15:39:48.984Z</time></trkpt><trkpt lat="40.09771" lon="15.6297517"><ele>335.0</ele><time>2026-05-01T15:39:49.984Z</time></trkpt><trkpt lat="40.0975933" lon="15.6296633"><ele>335.0</ele><time>2026-05-01T15:39:50.985Z</time></trkpt><trkpt lat="40.0974717" lon="15.62957"><ele>335.0</ele><time>2026-05-01T15:39:51.984Z</time></trkpt><trkpt lat="40.0973483" lon="15.6294817"><ele>336.25</ele><time>2026-05-01T15:39:52.985Z</time></trkpt><trkpt lat="40.0972133" lon="15.629385"><ele>337.5</ele><time>2026-05-01T15:39:53.985Z</time></trkpt><trkpt lat="40.097095" lon="15.6293117"><ele>338.75</ele><time>2026-05-01T15:39:54.985Z</time></trkpt><trkpt lat="40.0969667" lon="15.6292367"><ele>340.0</ele><time>2026-05-01T15:39:55.984Z</time></trkpt><trkpt lat="40.096845" lon="15.6291767"><ele>340.0</ele><time>2026-05-01T15:39:56.984Z</time></trkpt><trkpt lat="40.09672" lon="15.6291367"><ele>340.0</ele><time>2026-05-01T15:39:57.984Z</time></trkpt><trkpt lat="40.096595" lon="15.629115"><ele>340.0</ele><time>2026-05-01T15:39:58.984Z</time></trkpt><trkpt lat="40.0964783" lon="15.6291133"><ele>340.0</ele><time>2026-05-01T15:39:59.984Z</time></trkpt><trkpt lat="40.0963567" lon="15.62911"><ele>335.75</ele><time>2026-05-01T15:40:00.984Z</time></trkpt><trkpt lat="40.0962367" lon="15.6290967"><ele>331.5</ele><time>2026-05-01T15:40:01.984Z</time></trkpt><trkpt lat="40.096115" lon="15.6290483"><ele>327.25</ele><time>2026-05-01T15:40:02.985Z</time></trkpt><trkpt lat="40.09601" lon="15.62897"><ele>323.0</ele><time>2026-05-01T15:40:03.985Z</time></trkpt><trkpt lat="40.09591" lon="15.628885"><ele>323.0</ele><time>2026-05-01T15:40:04.984Z</time></trkpt><trkpt lat="40.0958233" lon="15.6287917"><ele>323.0</ele><time>2026-05-01T15:40:05.984Z</time></trkpt><trkpt lat="40.0957483" lon="15.6286967"><ele>323.0</ele><time>2026-05-01T15:40:06.985Z</time></trkpt><trkpt lat="40.0956967" lon="15.6285717"><ele>323.0</ele><time>2026-05-01T15:40:07.985Z</time></trkpt><trkpt lat="40.095675" lon="15.62843"><ele>323.0</ele><time>2026-05-01T15:40:08.985Z</time></trkpt><trkpt lat="40.09566" lon="15.628275"><ele>322.0</ele><time>2026-05-01T15:40:09.984Z</time></trkpt><trkpt lat="40.0956667" lon="15.62811"><ele>321.0</ele><time>2026-05-01T15:40:10.984Z</time></trkpt><trkpt lat="40.0956617" lon="15.6279567"><ele>320.0</ele><time>2026-05-01T15:40:11.984Z</time></trkpt><trkpt lat="40.0956367" lon="15.6278067"><ele>319.0</ele><time>2026-05-01T15:40:12.985Z</time></trkpt><trkpt lat="40.0955767" lon="15.62767"><ele>319.0</ele><time>2026-05-01T15:40:13.984Z</time></trkpt><trkpt lat="40.0955033" lon="15.6275217"><ele>319.0</ele><time>2026-05-01T15:40:14.984Z</time></trkpt><trkpt lat="40.0954233" lon="15.62739"><ele>319.0</ele><time>2026-05-01T15:40:15.985Z</time></trkpt><trkpt lat="40.09535" lon="15.6272567"><ele>319.0</ele><time>2026-05-01T15:40:16.984Z</time></trkpt><trkpt lat="40.0952817" lon="15.6271083"><ele>323.2</ele><time>2026-05-01T15:40:17.984Z</time></trkpt><trkpt lat="40.09525" lon="15.62695"><ele>327.4</ele><time>2026-05-01T15:40:18.984Z</time></trkpt><trkpt lat="40.095235" lon="15.6268033"><ele>331.6</ele><time>2026-05-01T15:40:19.985Z</time></trkpt><trkpt lat="40.0951983" lon="15.6266733"><ele>335.8</ele><time>2026-05-01T15:40:20.985Z</time></trkpt><trkpt lat="40.0951417" lon="15.6265833"><ele>340.0</ele><time>2026-05-01T15:40:21.984Z</time></trkpt><trkpt lat="40.09507" lon="15.6265317"><ele>340.0</ele><time>2026-05-01T15:40:22.984Z</time></trkpt><trkpt lat="40.094995" lon="15.6265183"><ele>340.0</ele><time>2026-05-01T15:40:23.984Z</time></trkpt><trkpt lat="40.09488" lon="15.6265767"><ele>340.0</ele><time>2026-05-01T15:40:25.985Z</time></trkpt><trkpt lat="40.09482" lon="15.62667"><ele>340.0</ele><time>2026-05-01T15:40:26.985Z</time></trkpt><trkpt lat="40.0947433" lon="15.6268067"><ele>340.0</ele><time>2026-05-01T15:40:27.984Z</time></trkpt><trkpt lat="40.0946333" lon="15.6269567"><ele>335.3333333333333</ele><time>2026-05-01T15:40:28.984Z</time></trkpt><trkpt lat="40.0945133" lon="15.6271"><ele>330.6666666666667</ele><time>2026-05-01T15:40:29.985Z</time></trkpt><trkpt lat="40.0943983" lon="15.62725"><ele>326.0</ele><time>2026-05-01T15:40:30.985Z</time></trkpt><trkpt lat="40.0942833" lon="15.6273933"><ele>326.0</ele><time>2026-05-01T15:40:31.984Z</time></trkpt><trkpt lat="40.0941933" lon="15.6275383"><ele>326.0</ele><time>2026-05-01T15:40:32.985Z</time></trkpt><trkpt lat="40.0940883" lon="15.6276583"><ele>326.0</ele><time>2026-05-01T15:40:33.984Z</time></trkpt><trkpt lat="40.0939917" lon="15.627765"><ele>326.0</ele><time>2026-05-01T15:40:34.985Z</time></trkpt><trkpt lat="40.0938967" lon="15.6278433"><ele>317.25</ele><time>2026-05-01T15:40:35.985Z</time></trkpt><trkpt lat="40.093785" lon="15.62789"><ele>308.5</ele><time>2026-05-01T15:40:36.984Z</time></trkpt><trkpt lat="40.0936633" lon="15.627915"><ele>299.75</ele><time>2026-05-01T15:40:37.984Z</time></trkpt><trkpt lat="40.0935517" lon="15.6278967"><ele>291.0</ele><time>2026-05-01T15:40:38.984Z</time></trkpt><trkpt lat="40.0934517" lon="15.627845"><ele>293.0</ele><time>2026-05-01T15:40:39.984Z</time></trkpt><trkpt lat="40.0933383" lon="15.6277883"><ele>295.0</ele><time>2026-05-01T15:40:40.984Z</time></trkpt><trkpt lat="40.09323" lon="15.6277367"><ele>297.0</ele><time>2026-05-01T15:40:41.984Z</time></trkpt><trkpt lat="40.0931167" lon="15.6276967"><ele>299.0</ele><time>2026-05-01T15:40:42.985Z</time></trkpt><trkpt lat="40.0930133" lon="15.62768"><ele>299.0</ele><time>2026-05-01T15:40:43.984Z</time></trkpt><trkpt lat="40.09291" lon="15.62766"><ele>299.0</ele><time>2026-05-01T15:40:44.984Z</time></trkpt><trkpt lat="40.0928117" lon="15.6276417"><ele>299.0</ele><time>2026-05-01T15:40:45.985Z</time></trkpt><trkpt lat="40.0927233" lon="15.6276267"><ele>299.0</ele><time>2026-05-01T15:40:46.985Z</time></trkpt><trkpt lat="40.0926533" lon="15.627585"><ele>299.0</ele><time>2026-05-01T15:40:47.985Z</time></trkpt><trkpt lat="40.0926083" lon="15.6274367"><ele>299.0</ele><time>2026-05-01T15:40:49.984Z</time></trkpt><trkpt lat="40.09264" lon="15.62733"><ele>299.0</ele><time>2026-05-01T15:40:50.984Z</time></trkpt><trkpt lat="40.0927217" lon="15.6272"><ele>299.0</ele><time>2026-05-01T15:40:51.985Z</time></trkpt><trkpt lat="40.09283" lon="15.6270667"><ele>299.0</ele><time>2026-05-01T15:40:52.984Z</time></trkpt><trkpt lat="40.0929083" lon="15.6269283"><ele>296.0</ele><time>2026-05-01T15:40:53.984Z</time></trkpt><trkpt lat="40.0929667" lon="15.62678"><ele>293.0</ele><time>2026-05-01T15:40:54.984Z</time></trkpt><trkpt lat="40.0930283" lon="15.62662"><ele>290.0</ele><time>2026-05-01T15:40:55.984Z</time></trkpt><trkpt lat="40.0930983" lon="15.6264517"><ele>287.0</ele><time>2026-05-01T15:40:56.984Z</time></trkpt><trkpt lat="40.0931733" lon="15.6262917"><ele>282.75</ele><time>2026-05-01T15:40:57.984Z</time></trkpt><trkpt lat="40.093235" lon="15.6261333"><ele>278.5</ele><time>2026-05-01T15:40:58.985Z</time></trkpt><trkpt lat="40.09328" lon="15.62597"><ele>274.25</ele><time>2026-05-01T15:40:59.984Z</time></trkpt><trkpt lat="40.0933167" lon="15.6258"><ele>270.0</ele><time>2026-05-01T15:41:00.985Z</time></trkpt><trkpt lat="40.0933383" lon="15.6256433"><ele>277.4</ele><time>2026-05-01T15:41:01.985Z</time></trkpt><trkpt lat="40.09335" lon="15.625485"><ele>284.8</ele><time>2026-05-01T15:41:02.984Z</time></trkpt><trkpt lat="40.09335" lon="15.6253467"><ele>292.2</ele><time>2026-05-01T15:41:03.984Z</time></trkpt><trkpt lat="40.09334" lon="15.6252033"><ele>299.6</ele><time>2026-05-01T15:41:04.984Z</time></trkpt><trkpt lat="40.0933117" lon="15.625075"><ele>307.0</ele><time>2026-05-01T15:41:05.985Z</time></trkpt><trkpt lat="40.0932567" lon="15.6249667"><ele>302.0</ele><time>2026-05-01T15:41:06.985Z</time></trkpt><trkpt lat="40.0932017" lon="15.624865"><ele>297.0</ele><time>2026-05-01T15:41:07.985Z</time></trkpt><trkpt lat="40.093135" lon="15.6247533"><ele>292.0</ele><time>2026-05-01T15:41:08.984Z</time></trkpt><trkpt lat="40.09307" lon="15.6246333"><ele>287.0</ele><time>2026-05-01T15:41:09.985Z</time></trkpt><trkpt lat="40.0930217" lon="15.6244933"><ele>282.0</ele><time>2026-05-01T15:41:10.984Z</time></trkpt><trkpt lat="40.0929683" lon="15.6243367"><ele>282.0</ele><time>2026-05-01T15:41:11.985Z</time></trkpt><trkpt lat="40.0929033" lon="15.62419"><ele>282.0</ele><time>2026-05-01T15:41:12.985Z</time></trkpt><trkpt lat="40.0928367" lon="15.6240333"><ele>282.0</ele><time>2026-05-01T15:41:13.984Z</time></trkpt><trkpt lat="40.09277" lon="15.623875"><ele>282.0</ele><time>2026-05-01T15:41:14.984Z</time></trkpt><trkpt lat="40.0926917" lon="15.6237133"><ele>284.5</ele><time>2026-05-01T15:41:15.984Z</time></trkpt><trkpt lat="40.0926183" lon="15.6235717"><ele>287.0</ele><time>2026-05-01T15:41:16.984Z</time></trkpt><trkpt lat="40.09255" lon="15.6234217"><ele>289.5</ele><time>2026-05-01T15:41:17.984Z</time></trkpt><trkpt lat="40.0924733" lon="15.6232733"><ele>292.0</ele><time>2026-05-01T15:41:18.984Z</time></trkpt><trkpt lat="40.0924017" lon="15.6231233"><ele>286.75</ele><time>2026-05-01T15:41:19.984Z</time></trkpt><trkpt lat="40.0923467" lon="15.6229583"><ele>281.5</ele><time>2026-05-01T15:41:20.984Z</time></trkpt><trkpt lat="40.0923033" lon="15.6227967"><ele>276.25</ele><time>2026-05-01T15:41:21.984Z</time></trkpt><trkpt lat="40.092265" lon="15.62265"><ele>271.0</ele><time>2026-05-01T15:41:22.984Z</time></trkpt><trkpt lat="40.0922217" lon="15.62252"><ele>271.0</ele><time>2026-05-01T15:41:23.985Z</time></trkpt><trkpt lat="40.0921533" lon="15.6224283"><ele>271.0</ele><time>2026-05-01T15:41:24.985Z</time></trkpt><trkpt lat="40.0920633" lon="15.62236"><ele>271.0</ele><time>2026-05-01T15:41:25.984Z</time></trkpt><trkpt lat="40.0919717" lon="15.6222767"><ele>271.0</ele><time>2026-05-01T15:41:26.984Z</time></trkpt><trkpt lat="40.0918917" lon="15.6221883"><ele>271.0</ele><time>2026-05-01T15:41:27.984Z</time></trkpt><trkpt lat="40.0918267" lon="15.6220817"><ele>273.75</ele><time>2026-05-01T15:41:28.984Z</time></trkpt><trkpt lat="40.0917783" lon="15.6219517"><ele>276.5</ele><time>2026-05-01T15:41:29.985Z</time></trkpt><trkpt lat="40.0917517" lon="15.6218017"><ele>279.25</ele><time>2026-05-01T15:41:30.985Z</time></trkpt><trkpt lat="40.0917383" lon="15.621645"><ele>282.0</ele><time>2026-05-01T15:41:31.984Z</time></trkpt><trkpt lat="40.091725" lon="15.6214833"><ele>282.0</ele><time>2026-05-01T15:41:32.984Z</time></trkpt><trkpt lat="40.0917033" lon="15.621315"><ele>282.0</ele><time>2026-05-01T15:41:33.985Z</time></trkpt><trkpt lat="40.0916883" lon="15.6211633"><ele>282.0</ele><time>2026-05-01T15:41:34.984Z</time></trkpt><trkpt lat="40.0916917" lon="15.6210117"><ele>282.0</ele><time>2026-05-01T15:41:35.985Z</time></trkpt><trkpt lat="40.0917017" lon="15.6208667"><ele>282.6</ele><time>2026-05-01T15:41:36.984Z</time></trkpt><trkpt lat="40.0917083" lon="15.6207217"><ele>283.2</ele><time>2026-05-01T15:41:37.984Z</time></trkpt><trkpt lat="40.0916883" lon="15.6205967"><ele>283.8</ele><time>2026-05-01T15:41:38.984Z</time></trkpt><trkpt lat="40.0916483" lon="15.6204967"><ele>284.4</ele><time>2026-05-01T15:41:39.984Z</time></trkpt><trkpt lat="40.0915783" lon="15.6203883"><ele>285.0</ele><time>2026-05-01T15:41:40.984Z</time></trkpt><trkpt lat="40.091495" lon="15.62029"><ele>280.0</ele><time>2026-05-01T15:41:41.985Z</time></trkpt><trkpt lat="40.0914017" lon="15.6202033"><ele>275.0</ele><time>2026-05-01T15:41:42.985Z</time></trkpt><trkpt lat="40.0913017" lon="15.620115"><ele>270.0</ele><time>2026-05-01T15:41:43.984Z</time></trkpt><trkpt lat="40.0912" lon="15.6200333"><ele>265.0</ele><time>2026-05-01T15:41:44.985Z</time></trkpt><trkpt lat="40.0911083" lon="15.6199433"><ele>265.0</ele><time>2026-05-01T15:41:45.984Z</time></trkpt><trkpt lat="40.0910317" lon="15.6198467"><ele>265.0</ele><time>2026-05-01T15:41:46.984Z</time></trkpt><trkpt lat="40.0909583" lon="15.6197417"><ele>265.0</ele><time>2026-05-01T15:41:47.985Z</time></trkpt><trkpt lat="40.0908783" lon="15.619635"><ele>265.0</ele><time>2026-05-01T15:41:48.984Z</time></trkpt><trkpt lat="40.0907917" lon="15.6195317"><ele>265.0</ele><time>2026-05-01T15:41:49.984Z</time></trkpt><trkpt lat="40.0907067" lon="15.6194333"><ele>262.2</ele><time>2026-05-01T15:41:50.984Z</time></trkpt><trkpt lat="40.0906217" lon="15.6193483"><ele>259.4</ele><time>2026-05-01T15:41:51.985Z</time></trkpt><trkpt lat="40.0905233" lon="15.6192733"><ele>256.6</ele><time>2026-05-01T15:41:52.984Z</time></trkpt><trkpt lat="40.0904267" lon="15.6192"><ele>253.8</ele><time>2026-05-01T15:41:53.984Z</time></trkpt><trkpt lat="40.0903283" lon="15.6191183"><ele>251.0</ele><time>2026-05-01T15:41:54.985Z</time></trkpt><trkpt lat="40.0902517" lon="15.6190117"><ele>251.0</ele><time>2026-05-01T15:41:55.985Z</time></trkpt><trkpt lat="40.0901883" lon="15.618895"><ele>251.00000000000003</ele><time>2026-05-01T15:41:56.984Z</time></trkpt><trkpt lat="40.09013" lon="15.61877"><ele>251.00000000000003</ele><time>2026-05-01T15:41:57.984Z</time></trkpt><trkpt lat="40.090065" lon="15.61866"><ele>251.0</ele><time>2026-05-01T15:41:58.984Z</time></trkpt><trkpt lat="40.0900117" lon="15.618545"><ele>251.0</ele><time>2026-05-01T15:41:59.984Z</time></trkpt><trkpt lat="40.08996" lon="15.6184217"><ele>246.8</ele><time>2026-05-01T15:42:00.984Z</time></trkpt><trkpt lat="40.0899133" lon="15.6182933"><ele>242.60000000000002</ele><time>2026-05-01T15:42:01.985Z</time></trkpt><trkpt lat="40.0898817" lon="15.61816"><ele>238.4</ele><time>2026-05-01T15:42:02.985Z</time></trkpt><trkpt lat="40.0898617" lon="15.618025"><ele>234.2</ele><time>2026-05-01T15:42:03.984Z</time></trkpt><trkpt lat="40.0898517" lon="15.6178817"><ele>230.0</ele><time>2026-05-01T15:42:04.985Z</time></trkpt><trkpt lat="40.0898483" lon="15.61774"><ele>230.0</ele><time>2026-05-01T15:42:05.985Z</time></trkpt><trkpt lat="40.089855" lon="15.6175917"><ele>230.0</ele><time>2026-05-01T15:42:06.984Z</time></trkpt><trkpt lat="40.08987" lon="15.617445"><ele>230.0</ele><time>2026-05-01T15:42:07.984Z</time></trkpt><trkpt lat="40.0898833" lon="15.6172967"><ele>230.0</ele><time>2026-05-01T15:42:08.984Z</time></trkpt><trkpt lat="40.08989" lon="15.617135"><ele>232.5</ele><time>2026-05-01T15:42:09.984Z</time></trkpt><trkpt lat="40.0898833" lon="15.6169767"><ele>235.0</ele><time>2026-05-01T15:42:10.984Z</time></trkpt><trkpt lat="40.0898483" lon="15.61681"><ele>237.5</ele><time>2026-05-01T15:42:11.985Z</time></trkpt><trkpt lat="40.0898167" lon="15.6166567"><ele>240.0</ele><time>2026-05-01T15:42:12.985Z</time></trkpt><trkpt lat="40.0897883" lon="15.6164933"><ele>240.0</ele><time>2026-05-01T15:42:13.985Z</time></trkpt><trkpt lat="40.0897767" lon="15.6163283"><ele>240.0</ele><time>2026-05-01T15:42:14.984Z</time></trkpt><trkpt lat="40.0897733" lon="15.6161617"><ele>240.0</ele><time>2026-05-01T15:42:15.984Z</time></trkpt><trkpt lat="40.0897683" lon="15.6159933"><ele>240.0</ele><time>2026-05-01T15:42:16.985Z</time></trkpt><trkpt lat="40.089755" lon="15.61584"><ele>242.8</ele><time>2026-05-01T15:42:17.984Z</time></trkpt><trkpt lat="40.089745" lon="15.6156917"><ele>245.6</ele><time>2026-05-01T15:42:18.984Z</time></trkpt><trkpt lat="40.0896983" lon="15.6155567"><ele>248.39999999999998</ele><time>2026-05-01T15:42:19.984Z</time></trkpt><trkpt lat="40.089635" lon="15.6154433"><ele>251.2</ele><time>2026-05-01T15:42:20.984Z</time></trkpt><trkpt lat="40.0895583" lon="15.61534"><ele>254.0</ele><time>2026-05-01T15:42:21.984Z</time></trkpt><trkpt lat="40.089475" lon="15.6152283"><ele>255.25</ele><time>2026-05-01T15:42:22.984Z</time></trkpt><trkpt lat="40.0894033" lon="15.6151067"><ele>256.5</ele><time>2026-05-01T15:42:23.985Z</time></trkpt><trkpt lat="40.0893433" lon="15.6149667"><ele>257.75</ele><time>2026-05-01T15:42:24.985Z</time></trkpt><trkpt lat="40.089315" lon="15.61481"><ele>259.0</ele><time>2026-05-01T15:42:25.984Z</time></trkpt><trkpt lat="40.089285" lon="15.6146433"><ele>259.0</ele><time>2026-05-01T15:42:26.985Z</time></trkpt><trkpt lat="40.0892683" lon="15.614475"><ele>259.0</ele><time>2026-05-01T15:42:27.984Z</time></trkpt><trkpt lat="40.0892583" lon="15.61431"><ele>259.0</ele><time>2026-05-01T15:42:28.984Z</time></trkpt><trkpt lat="40.0892667" lon="15.6141483"><ele>259.0</ele><time>2026-05-01T15:42:29.985Z</time></trkpt><trkpt lat="40.0892767" lon="15.6139733"><ele>259.0</ele><time>2026-05-01T15:42:30.984Z</time></trkpt><trkpt lat="40.0892917" lon="15.6137933"><ele>259.0</ele><time>2026-05-01T15:42:31.985Z</time></trkpt><trkpt lat="40.0893033" lon="15.6135967"><ele>259.0</ele><time>2026-05-01T15:42:32.984Z</time></trkpt><trkpt lat="40.0893267" lon="15.6134183"><ele>259.0</ele><time>2026-05-01T15:42:33.984Z</time></trkpt><trkpt lat="40.08934" lon="15.6132483"><ele>258.0</ele><time>2026-05-01T15:42:34.984Z</time></trkpt><trkpt lat="40.0893517" lon="15.6130783"><ele>257.0</ele><time>2026-05-01T15:42:35.984Z</time></trkpt><trkpt lat="40.0893583" lon="15.612935"><ele>255.99999999999997</ele><time>2026-05-01T15:42:36.984Z</time></trkpt><trkpt lat="40.0893467" lon="15.6128033"><ele>255.0</ele><time>2026-05-01T15:42:37.984Z</time></trkpt><trkpt lat="40.0893033" lon="15.61269"><ele>254.0</ele><time>2026-05-01T15:42:38.985Z</time></trkpt><trkpt lat="40.089235" lon="15.612605"><ele>253.6</ele><time>2026-05-01T15:42:39.985Z</time></trkpt><trkpt lat="40.08914" lon="15.61254"><ele>253.2</ele><time>2026-05-01T15:42:40.985Z</time></trkpt><trkpt lat="40.0890383" lon="15.6125017"><ele>252.79999999999998</ele><time>2026-05-01T15:42:41.984Z</time></trkpt><trkpt lat="40.0889317" lon="15.6124683"><ele>252.39999999999998</ele><time>2026-05-01T15:42:42.984Z</time></trkpt><trkpt lat="40.0888283" lon="15.6124033"><ele>252.0</ele><time>2026-05-01T15:42:43.984Z</time></trkpt><trkpt lat="40.0887617" lon="15.6123067"><ele>252.0</ele><time>2026-05-01T15:42:44.984Z</time></trkpt><trkpt lat="40.0887083" lon="15.6121767"><ele>252.0</ele><time>2026-05-01T15:42:45.984Z</time></trkpt><trkpt lat="40.0886783" lon="15.6120383"><ele>252.0</ele><time>2026-05-01T15:42:46.985Z</time></trkpt><trkpt lat="40.08866" lon="15.6119017"><ele>252.0</ele><time>2026-05-01T15:42:47.984Z</time></trkpt><trkpt lat="40.0886333" lon="15.6117667"><ele>252.0</ele><time>2026-05-01T15:42:48.984Z</time></trkpt><trkpt lat="40.0885767" lon="15.6116367"><ele>250.25</ele><time>2026-05-01T15:42:49.984Z</time></trkpt><trkpt lat="40.08851" lon="15.6115133"><ele>248.5</ele><time>2026-05-01T15:42:50.984Z</time></trkpt><trkpt lat="40.088445" lon="15.61138"><ele>246.75</ele><time>2026-05-01T15:42:51.984Z</time></trkpt><trkpt lat="40.0883783" lon="15.6112483"><ele>245.0</ele><time>2026-05-01T15:42:52.985Z</time></trkpt><trkpt lat="40.088315" lon="15.6111117"><ele>241.0</ele><time>2026-05-01T15:42:53.984Z</time></trkpt><trkpt lat="40.08825" lon="15.6109733"><ele>237.0</ele><time>2026-05-01T15:42:54.984Z</time></trkpt><trkpt lat="40.0881917" lon="15.6108217"><ele>233.0</ele><time>2026-05-01T15:42:55.984Z</time></trkpt><trkpt lat="40.08813" lon="15.6106667"><ele>229.0</ele><time>2026-05-01T15:42:56.984Z</time></trkpt><trkpt lat="40.0880817" lon="15.6105183"><ele>229.0</ele><time>2026-05-01T15:42:57.984Z</time></trkpt><trkpt lat="40.0880367" lon="15.61036"><ele>229.0</ele><time>2026-05-01T15:42:58.984Z</time></trkpt><trkpt lat="40.0879733" lon="15.6101983"><ele>229.0</ele><time>2026-05-01T15:42:59.984Z</time></trkpt><trkpt lat="40.0879033" lon="15.6100533"><ele>229.0</ele><time>2026-05-01T15:43:00.984Z</time></trkpt><trkpt lat="40.0878267" lon="15.6099167"><ele>230.0</ele><time>2026-05-01T15:43:01.985Z</time></trkpt><trkpt lat="40.08773" lon="15.609795"><ele>231.0</ele><time>2026-05-01T15:43:02.984Z</time></trkpt><trkpt lat="40.08763" lon="15.6096933"><ele>232.0</ele><time>2026-05-01T15:43:03.984Z</time></trkpt><trkpt lat="40.087535" lon="15.6095917"><ele>233.0</ele><time>2026-05-01T15:43:04.985Z</time></trkpt><trkpt lat="40.0874267" lon="15.6095067"><ele>231.75</ele><time>2026-05-01T15:43:05.984Z</time></trkpt><trkpt lat="40.0873067" lon="15.6094033"><ele>230.5</ele><time>2026-05-01T15:43:06.984Z</time></trkpt><trkpt lat="40.0871867" lon="15.6093083"><ele>229.25</ele><time>2026-05-01T15:43:07.984Z</time></trkpt><trkpt lat="40.087065" lon="15.609225"><ele>228.0</ele><time>2026-05-01T15:43:08.985Z</time></trkpt><trkpt lat="40.0869567" lon="15.6091517"><ele>228.0</ele><time>2026-05-01T15:43:09.984Z</time></trkpt><trkpt lat="40.0868467" lon="15.6090967"><ele>228.0</ele><time>2026-05-01T15:43:10.984Z</time></trkpt><trkpt lat="40.0867517" lon="15.60902"><ele>228.0</ele><time>2026-05-01T15:43:11.985Z</time></trkpt><trkpt lat="40.0866617" lon="15.6089267"><ele>228.0</ele><time>2026-05-01T15:43:12.985Z</time></trkpt><trkpt lat="40.0865983" lon="15.6088167"><ele>226.75</ele><time>2026-05-01T15:43:13.984Z</time></trkpt><trkpt lat="40.0865383" lon="15.6086933"><ele>225.5</ele><time>2026-05-01T15:43:14.985Z</time></trkpt><trkpt lat="40.086475" lon="15.6085567"><ele>224.25</ele><time>2026-05-01T15:43:15.985Z</time></trkpt><trkpt lat="40.0864" lon="15.6084317"><ele>223.0</ele><time>2026-05-01T15:43:16.984Z</time></trkpt><trkpt lat="40.0863183" lon="15.60833"><ele>223.0</ele><time>2026-05-01T15:43:17.984Z</time></trkpt><trkpt lat="40.08622" lon="15.6082617"><ele>223.0</ele><time>2026-05-01T15:43:18.984Z</time></trkpt><trkpt lat="40.0861183" lon="15.6082133"><ele>223.0</ele><time>2026-05-01T15:43:19.984Z</time></trkpt><trkpt lat="40.0860017" lon="15.6081933"><ele>223.0</ele><time>2026-05-01T15:43:20.985Z</time></trkpt><trkpt lat="40.0858817" lon="15.6082033"><ele>221.25</ele><time>2026-05-01T15:43:21.984Z</time></trkpt><trkpt lat="40.0857583" lon="15.608235"><ele>219.5</ele><time>2026-05-01T15:43:22.984Z</time></trkpt><trkpt lat="40.0856467" lon="15.60828"><ele>217.75</ele><time>2026-05-01T15:43:23.984Z</time></trkpt><trkpt lat="40.0855333" lon="15.6083317"><ele>216.0</ele><time>2026-05-01T15:43:24.985Z</time></trkpt><trkpt lat="40.0854317" lon="15.6083617"><ele>216.0</ele><time>2026-05-01T15:43:25.984Z</time></trkpt><trkpt lat="40.0853367" lon="15.6083767"><ele>216.00000000000003</ele><time>2026-05-01T15:43:26.985Z</time></trkpt><trkpt lat="40.085225" lon="15.6084"><ele>216.00000000000003</ele><time>2026-05-01T15:43:27.985Z</time></trkpt><trkpt lat="40.0851217" lon="15.608405"><ele>216.0</ele><time>2026-05-01T15:43:28.984Z</time></trkpt><trkpt lat="40.0850133" lon="15.6084017"><ele>216.0</ele><time>2026-05-01T15:43:29.984Z</time></trkpt><trkpt lat="40.0849083" lon="15.60839"><ele>214.8</ele><time>2026-05-01T15:43:30.984Z</time></trkpt><trkpt lat="40.0847967" lon="15.6083583"><ele>213.60000000000002</ele><time>2026-05-01T15:43:31.984Z</time></trkpt><trkpt lat="40.084695" lon="15.6083283"><ele>212.4</ele><time>2026-05-01T15:43:32.984Z</time></trkpt><trkpt lat="40.0845967" lon="15.6082967"><ele>211.2</ele><time>2026-05-01T15:43:33.985Z</time></trkpt><trkpt lat="40.0844933" lon="15.6082733"><ele>210.0</ele><time>2026-05-01T15:43:34.985Z</time></trkpt><trkpt lat="40.0843967" lon="15.6082717"><ele>210.0</ele><time>2026-05-01T15:43:35.984Z</time></trkpt><trkpt lat="40.0842917" lon="15.608305"><ele>210.0</ele><time>2026-05-01T15:43:36.984Z</time></trkpt><trkpt lat="40.0841833" lon="15.608365"><ele>210.0</ele><time>2026-05-01T15:43:37.985Z</time></trkpt><trkpt lat="40.0840817" lon="15.6084167"><ele>210.0</ele><time>2026-05-01T15:43:38.985Z</time></trkpt><trkpt lat="40.083985" lon="15.6084617"><ele>210.0</ele><time>2026-05-01T15:43:39.985Z</time></trkpt><trkpt lat="40.083895" lon="15.6084983"><ele>208.66666666666666</ele><time>2026-05-01T15:43:40.984Z</time></trkpt><trkpt lat="40.083825" lon="15.6085617"><ele>207.33333333333331</ele><time>2026-05-01T15:43:41.984Z</time></trkpt><trkpt lat="40.0837767" lon="15.6086367"><ele>206.0</ele><time>2026-05-01T15:43:42.984Z</time></trkpt><trkpt lat="40.083755" lon="15.6087333"><ele>204.66666666666666</ele><time>2026-05-01T15:43:43.984Z</time></trkpt><trkpt lat="40.08378" lon="15.608845"><ele>203.33333333333331</ele><time>2026-05-01T15:43:44.985Z</time></trkpt><trkpt lat="40.08386" lon="15.6089483"><ele>202.0</ele><time>2026-05-01T15:43:45.985Z</time></trkpt><trkpt lat="40.0839717" lon="15.6090217"><ele>201.75</ele><time>2026-05-01T15:43:46.984Z</time></trkpt><trkpt lat="40.0840833" lon="15.6090517"><ele>201.5</ele><time>2026-05-01T15:43:47.985Z</time></trkpt><trkpt lat="40.084195" lon="15.609065"><ele>201.25</ele><time>2026-05-01T15:43:48.984Z</time></trkpt><trkpt lat="40.08431" lon="15.6090683"><ele>201.0</ele><time>2026-05-01T15:43:49.984Z</time></trkpt><trkpt lat="40.0844283" lon="15.6090783"><ele>201.0</ele><time>2026-05-01T15:43:50.984Z</time></trkpt><trkpt lat="40.084545" lon="15.6090933"><ele>201.0</ele><time>2026-05-01T15:43:51.984Z</time></trkpt><trkpt lat="40.0846683" lon="15.6091217"><ele>201.0</ele><time>2026-05-01T15:43:52.984Z</time></trkpt><trkpt lat="40.0848" lon="15.6091683"><ele>201.0</ele><time>2026-05-01T15:43:53.984Z</time></trkpt><trkpt lat="40.08492" lon="15.6092233"><ele>202.25</ele><time>2026-05-01T15:43:54.984Z</time></trkpt><trkpt lat="40.0850267" lon="15.6092917"><ele>203.5</ele><time>2026-05-01T15:43:55.984Z</time></trkpt><trkpt lat="40.085145" lon="15.6093517"><ele>204.75</ele><time>2026-05-01T15:43:56.984Z</time></trkpt><trkpt lat="40.0852683" lon="15.609395"><ele>206.0</ele><time>2026-05-01T15:43:57.984Z</time></trkpt><trkpt lat="40.0853933" lon="15.6094117"><ele>206.0</ele><time>2026-05-01T15:43:58.984Z</time></trkpt><trkpt lat="40.0855217" lon="15.609425"><ele>206.0</ele><time>2026-05-01T15:43:59.984Z</time></trkpt><trkpt lat="40.08564" lon="15.6094583"><ele>206.0</ele><time>2026-05-01T15:44:00.984Z</time></trkpt><trkpt lat="40.0857383" lon="15.6095083"><ele>206.0</ele><time>2026-05-01T15:44:01.984Z</time></trkpt><trkpt lat="40.08582" lon="15.6095767"><ele>203.25</ele><time>2026-05-01T15:44:02.985Z</time></trkpt><trkpt lat="40.0858817" lon="15.609685"><ele>200.5</ele><time>2026-05-01T15:44:03.984Z</time></trkpt><trkpt lat="40.0859283" lon="15.6098183"><ele>197.75</ele><time>2026-05-01T15:44:04.984Z</time></trkpt><trkpt lat="40.08596" lon="15.60998"><ele>195.0</ele><time>2026-05-01T15:44:05.985Z</time></trkpt><trkpt lat="40.08601" lon="15.610145"><ele>195.0</ele><time>2026-05-01T15:44:06.984Z</time></trkpt><trkpt lat="40.086065" lon="15.6102833"><ele>195.0</ele><time>2026-05-01T15:44:07.984Z</time></trkpt><trkpt lat="40.0861167" lon="15.6104167"><ele>195.0</ele><time>2026-05-01T15:44:08.984Z</time></trkpt><trkpt lat="40.0861633" lon="15.6105467"><ele>195.0</ele><time>2026-05-01T15:44:09.984Z</time></trkpt><trkpt lat="40.0861867" lon="15.6106767"><ele>195.0</ele><time>2026-05-01T15:44:10.984Z</time></trkpt><trkpt lat="40.0861817" lon="15.6108233"><ele>192.0</ele><time>2026-05-01T15:44:11.984Z</time></trkpt><trkpt lat="40.086155" lon="15.6109767"><ele>189.0</ele><time>2026-05-01T15:44:12.985Z</time></trkpt><trkpt lat="40.08611" lon="15.6111267"><ele>186.0</ele><time>2026-05-01T15:44:13.984Z</time></trkpt><trkpt lat="40.086065" lon="15.6112617"><ele>183.0</ele><time>2026-05-01T15:44:14.985Z</time></trkpt><trkpt lat="40.08603" lon="15.6113817"><ele>182.2</ele><time>2026-05-01T15:44:15.984Z</time></trkpt><trkpt lat="40.0859983" lon="15.611485"><ele>181.4</ele><time>2026-05-01T15:44:16.984Z</time></trkpt><trkpt lat="40.08599" lon="15.6115983"><ele>180.6</ele><time>2026-05-01T15:44:17.984Z</time></trkpt><trkpt lat="40.0860033" lon="15.6117283"><ele>179.79999999999998</ele><time>2026-05-01T15:44:18.984Z</time></trkpt><trkpt lat="40.08605" lon="15.6118483"><ele>179.0</ele><time>2026-05-01T15:44:19.984Z</time></trkpt><trkpt lat="40.0861183" lon="15.611965"><ele>176.25</ele><time>2026-05-01T15:44:20.984Z</time></trkpt><trkpt lat="40.0861817" lon="15.6120867"><ele>173.5</ele><time>2026-05-01T15:44:21.984Z</time></trkpt><trkpt lat="40.086235" lon="15.6122217"><ele>170.75</ele><time>2026-05-01T15:44:22.984Z</time></trkpt><trkpt lat="40.0862733" lon="15.6123617"><ele>168.0</ele><time>2026-05-01T15:44:23.985Z</time></trkpt><trkpt lat="40.0862867" lon="15.6125117"><ele>168.0</ele><time>2026-05-01T15:44:24.985Z</time></trkpt><trkpt lat="40.08628" lon="15.6126717"><ele>168.0</ele><time>2026-05-01T15:44:25.984Z</time></trkpt><trkpt lat="40.086265" lon="15.6128333"><ele>168.0</ele><time>2026-05-01T15:44:26.985Z</time></trkpt><trkpt lat="40.0862383" lon="15.6129917"><ele>168.0</ele><time>2026-05-01T15:44:27.984Z</time></trkpt><trkpt lat="40.0862167" lon="15.61316"><ele>167.0</ele><time>2026-05-01T15:44:28.984Z</time></trkpt><trkpt lat="40.0861933" lon="15.6133233"><ele>166.0</ele><time>2026-05-01T15:44:29.984Z</time></trkpt><trkpt lat="40.0861717" lon="15.6134867"><ele>165.0</ele><time>2026-05-01T15:44:30.984Z</time></trkpt><trkpt lat="40.0861483" lon="15.613645"><ele>164.0</ele><time>2026-05-01T15:44:31.984Z</time></trkpt><trkpt lat="40.0861333" lon="15.6138083"><ele>164.0</ele><time>2026-05-01T15:44:32.985Z</time></trkpt><trkpt lat="40.0861233" lon="15.61397"><ele>164.0</ele><time>2026-05-01T15:44:33.985Z</time></trkpt><trkpt lat="40.08612" lon="15.614125"><ele>164.0</ele><time>2026-05-01T15:44:34.985Z</time></trkpt><trkpt lat="40.0861183" lon="15.6142717"><ele>164.0</ele><time>2026-05-01T15:44:35.984Z</time></trkpt><trkpt lat="40.0861183" lon="15.6144267"><ele>165.0</ele><time>2026-05-01T15:44:36.984Z</time></trkpt><trkpt lat="40.0861133" lon="15.61457"><ele>166.0</ele><time>2026-05-01T15:44:37.985Z</time></trkpt><trkpt lat="40.0860967" lon="15.61472"><ele>167.0</ele><time>2026-05-01T15:44:38.984Z</time></trkpt><trkpt lat="40.086055" lon="15.6148567"><ele>168.0</ele><time>2026-05-01T15:44:39.984Z</time></trkpt><trkpt lat="40.08598" lon="15.61497"><ele>168.0</ele><time>2026-05-01T15:44:40.984Z</time></trkpt><trkpt lat="40.0858833" lon="15.6150717"><ele>168.0</ele><time>2026-05-01T15:44:41.984Z</time></trkpt><trkpt lat="40.0857933" lon="15.615165"><ele>168.0</ele><time>2026-05-01T15:44:42.984Z</time></trkpt><trkpt lat="40.0857217" lon="15.615295"><ele>168.0</ele><time>2026-05-01T15:44:43.984Z</time></trkpt><trkpt lat="40.085665" lon="15.6154333"><ele>160.75</ele><time>2026-05-01T15:44:44.985Z</time></trkpt><trkpt lat="40.085635" lon="15.61559"><ele>153.5</ele><time>2026-05-01T15:44:45.985Z</time></trkpt><trkpt lat="40.085615" lon="15.6157567"><ele>146.25</ele><time>2026-05-01T15:44:46.985Z</time></trkpt><trkpt lat="40.0856033" lon="15.6159217"><ele>139.0</ele><time>2026-05-01T15:44:47.985Z</time></trkpt><trkpt lat="40.0855867" lon="15.6160717"><ele>142.25</ele><time>2026-05-01T15:44:48.984Z</time></trkpt><trkpt lat="40.08556" lon="15.6162167"><ele>145.5</ele><time>2026-05-01T15:44:49.984Z</time></trkpt><trkpt lat="40.0855233" lon="15.61635"><ele>148.75</ele><time>2026-05-01T15:44:50.984Z</time></trkpt><trkpt lat="40.08547" lon="15.6164917"><ele>152.0</ele><time>2026-05-01T15:44:51.984Z</time></trkpt><trkpt lat="40.0853883" lon="15.6166033"><ele>152.0</ele><time>2026-05-01T15:44:52.984Z</time></trkpt><trkpt lat="40.0853017" lon="15.6167183"><ele>152.0</ele><time>2026-05-01T15:44:53.984Z</time></trkpt><trkpt lat="40.08522" lon="15.6168317"><ele>152.0</ele><time>2026-05-01T15:44:54.984Z</time></trkpt><trkpt lat="40.0851467" lon="15.616955"><ele>152.0</ele><time>2026-05-01T15:44:55.984Z</time></trkpt><trkpt lat="40.08509" lon="15.61708"><ele>152.0</ele><time>2026-05-01T15:44:56.984Z</time></trkpt><trkpt lat="40.08505" lon="15.6172067"><ele>152.0</ele><time>2026-05-01T15:44:57.985Z</time></trkpt><trkpt lat="40.0850383" lon="15.6173483"><ele>152.0</ele><time>2026-05-01T15:44:58.984Z</time></trkpt><trkpt lat="40.085055" lon="15.617485"><ele>152.0</ele><time>2026-05-01T15:44:59.984Z</time></trkpt><trkpt lat="40.085105" lon="15.617615"><ele>152.0</ele><time>2026-05-01T15:45:00.984Z</time></trkpt><trkpt lat="40.0851533" lon="15.6177383"><ele>147.5</ele><time>2026-05-01T15:45:01.985Z</time></trkpt><trkpt lat="40.0852167" lon="15.6178683"><ele>143.0</ele><time>2026-05-01T15:45:02.984Z</time></trkpt><trkpt lat="40.0852817" lon="15.6179933"><ele>138.5</ele><time>2026-05-01T15:45:03.984Z</time></trkpt><trkpt lat="40.0853483" lon="15.6181183"><ele>134.0</ele><time>2026-05-01T15:45:04.985Z</time></trkpt><trkpt lat="40.0854133" lon="15.6182233"><ele>134.0</ele><time>2026-05-01T15:45:05.984Z</time></trkpt><trkpt lat="40.08549" lon="15.618305"><ele>134.0</ele><time>2026-05-01T15:45:06.984Z</time></trkpt><trkpt lat="40.0855767" lon="15.61837"><ele>134.0</ele><time>2026-05-01T15:45:07.985Z</time></trkpt><trkpt lat="40.0856783" lon="15.6183967"><ele>134.0</ele><time>2026-05-01T15:45:08.984Z</time></trkpt><trkpt lat="40.085785" lon="15.6183967"><ele>134.0</ele><time>2026-05-01T15:45:09.984Z</time></trkpt><trkpt lat="40.0858967" lon="15.6183783"><ele>138.75</ele><time>2026-05-01T15:45:10.985Z</time></trkpt><trkpt lat="40.0860133" lon="15.6183517"><ele>143.5</ele><time>2026-05-01T15:45:11.984Z</time></trkpt><trkpt lat="40.0861217" lon="15.6183183"><ele>148.25</ele><time>2026-05-01T15:45:12.984Z</time></trkpt><trkpt lat="40.086225" lon="15.618265"><ele>153.0</ele><time>2026-05-01T15:45:13.985Z</time></trkpt><trkpt lat="40.086325" lon="15.6182"><ele>153.0</ele><time>2026-05-01T15:45:14.985Z</time></trkpt><trkpt lat="40.086425" lon="15.6181217"><ele>153.0</ele><time>2026-05-01T15:45:15.985Z</time></trkpt><trkpt lat="40.0865283" lon="15.6180333"><ele>153.0</ele><time>2026-05-01T15:45:16.984Z</time></trkpt><trkpt lat="40.0866283" lon="15.61794"><ele>153.0</ele><time>2026-05-01T15:45:17.984Z</time></trkpt><trkpt lat="40.0867333" lon="15.6178717"><ele>155.2</ele><time>2026-05-01T15:45:18.984Z</time></trkpt><trkpt lat="40.0868317" lon="15.6178"><ele>157.4</ele><time>2026-05-01T15:45:19.985Z</time></trkpt><trkpt lat="40.086925" lon="15.6177517"><ele>159.6</ele><time>2026-05-01T15:45:20.984Z</time></trkpt><trkpt lat="40.0870233" lon="15.617725"><ele>161.79999999999998</ele><time>2026-05-01T15:45:21.985Z</time></trkpt><trkpt lat="40.0871183" lon="15.61773"><ele>164.0</ele><time>2026-05-01T15:45:22.984Z</time></trkpt><trkpt lat="40.0871983" lon="15.6177817"><ele>160.0</ele><time>2026-05-01T15:45:23.984Z</time></trkpt><trkpt lat="40.087275" lon="15.6178567"><ele>156.0</ele><time>2026-05-01T15:45:24.984Z</time></trkpt><trkpt lat="40.0873167" lon="15.6179567"><ele>152.0</ele><time>2026-05-01T15:45:25.985Z</time></trkpt><trkpt lat="40.0873333" lon="15.618095"><ele>148.0</ele><time>2026-05-01T15:45:26.985Z</time></trkpt><trkpt lat="40.087325" lon="15.6182433"><ele>144.0</ele><time>2026-05-01T15:45:27.984Z</time></trkpt><trkpt lat="40.0872867" lon="15.6184017"><ele>144.0</ele><time>2026-05-01T15:45:28.985Z</time></trkpt><trkpt lat="40.087235" lon="15.61856"><ele>144.0</ele><time>2026-05-01T15:45:29.984Z</time></trkpt><trkpt lat="40.0871883" lon="15.618715"><ele>144.0</ele><time>2026-05-01T15:45:30.984Z</time></trkpt><trkpt lat="40.0871383" lon="15.61886"><ele>144.0</ele><time>2026-05-01T15:45:31.984Z</time></trkpt><trkpt lat="40.08708" lon="15.6189967"><ele>141.25</ele><time>2026-05-01T15:45:32.984Z</time></trkpt><trkpt lat="40.0870317" lon="15.6191417"><ele>138.5</ele><time>2026-05-01T15:45:33.984Z</time></trkpt><trkpt lat="40.0869783" lon="15.619315"><ele>135.75</ele><time>2026-05-01T15:45:34.985Z</time></trkpt><trkpt lat="40.0869167" lon="15.6194733"><ele>133.0</ele><time>2026-05-01T15:45:35.984Z</time></trkpt><trkpt lat="40.08684" lon="15.619635"><ele>133.0</ele><time>2026-05-01T15:45:36.984Z</time></trkpt><trkpt lat="40.08677" lon="15.6197867"><ele>133.0</ele><time>2026-05-01T15:45:37.984Z</time></trkpt><trkpt lat="40.086685" lon="15.6199483"><ele>133.0</ele><time>2026-05-01T15:45:38.984Z</time></trkpt><trkpt lat="40.08661" lon="15.62011"><ele>133.0</ele><time>2026-05-01T15:45:39.984Z</time></trkpt><trkpt lat="40.086555" lon="15.6202817"><ele>129.25</ele><time>2026-05-01T15:45:40.984Z</time></trkpt><trkpt lat="40.0865133" lon="15.62045"><ele>125.5</ele><time>2026-05-01T15:45:41.984Z</time></trkpt><trkpt lat="40.0864817" lon="15.62064"><ele>121.75</ele><time>2026-05-01T15:45:42.985Z</time></trkpt><trkpt lat="40.0864767" lon="15.6208383"><ele>118.0</ele><time>2026-05-01T15:45:43.985Z</time></trkpt><trkpt lat="40.0864683" lon="15.6210183"><ele>116.75</ele><time>2026-05-01T15:45:44.985Z</time></trkpt><trkpt lat="40.0864933" lon="15.6212"><ele>115.5</ele><time>2026-05-01T15:45:45.984Z</time></trkpt><trkpt lat="40.0865467" lon="15.6213633"><ele>114.25</ele><time>2026-05-01T15:45:46.984Z</time></trkpt><trkpt lat="40.0866217" lon="15.6215017"><ele>113.0</ele><time>2026-05-01T15:45:47.984Z</time></trkpt><trkpt lat="40.0867067" lon="15.621625"><ele>116.0</ele><time>2026-05-01T15:45:48.984Z</time></trkpt><trkpt lat="40.0868117" lon="15.621715"><ele>119.0</ele><time>2026-05-01T15:45:49.984Z</time></trkpt><trkpt lat="40.0869233" lon="15.6217667"><ele>122.0</ele><time>2026-05-01T15:45:50.984Z</time></trkpt><trkpt lat="40.087035" lon="15.62183"><ele>125.0</ele><time>2026-05-01T15:45:51.985Z</time></trkpt><trkpt lat="40.08714" lon="15.621905"><ele>125.0</ele><time>2026-05-01T15:45:52.985Z</time></trkpt><trkpt lat="40.0872333" lon="15.6219917"><ele>125.0</ele><time>2026-05-01T15:45:53.984Z</time></trkpt><trkpt lat="40.0873217" lon="15.62208"><ele>125.0</ele><time>2026-05-01T15:45:54.985Z</time></trkpt><trkpt lat="40.0874017" lon="15.62219"><ele>125.0</ele><time>2026-05-01T15:45:55.984Z</time></trkpt><trkpt lat="40.0874717" lon="15.6223"><ele>125.0</ele><time>2026-05-01T15:45:56.984Z</time></trkpt><trkpt lat="40.0875233" lon="15.6224183"><ele>125.0</ele><time>2026-05-01T15:45:57.985Z</time></trkpt><trkpt lat="40.08755" lon="15.62254"><ele>125.0</ele><time>2026-05-01T15:45:58.984Z</time></trkpt><trkpt lat="40.0875483" lon="15.6226617"><ele>125.0</ele><time>2026-05-01T15:45:59.984Z</time></trkpt><trkpt lat="40.0875217" lon="15.6227883"><ele>125.0</ele><time>2026-05-01T15:46:00.984Z</time></trkpt><trkpt lat="40.0874833" lon="15.622905"><ele>123.6</ele><time>2026-05-01T15:46:01.984Z</time></trkpt><trkpt lat="40.08745" lon="15.62303"><ele>122.2</ele><time>2026-05-01T15:46:02.985Z</time></trkpt><trkpt lat="40.08743" lon="15.62316"><ele>120.80000000000001</ele><time>2026-05-01T15:46:03.984Z</time></trkpt><trkpt lat="40.0874517" lon="15.6232717"><ele>119.4</ele><time>2026-05-01T15:46:04.984Z</time></trkpt><trkpt lat="40.0874933" lon="15.62338"><ele>118.0</ele><time>2026-05-01T15:46:05.984Z</time></trkpt><trkpt lat="40.0875283" lon="15.623485"><ele>118.00000000000001</ele><time>2026-05-01T15:46:06.984Z</time></trkpt><trkpt lat="40.0875483" lon="15.6235933"><ele>118.0</ele><time>2026-05-01T15:46:07.984Z</time></trkpt><trkpt lat="40.0875533" lon="15.6237067"><ele>118.0</ele><time>2026-05-01T15:46:08.984Z</time></trkpt><trkpt lat="40.0875317" lon="15.6238017"><ele>118.0</ele><time>2026-05-01T15:46:09.984Z</time></trkpt><trkpt lat="40.08749" lon="15.623895"><ele>118.00000000000001</ele><time>2026-05-01T15:46:10.984Z</time></trkpt><trkpt lat="40.0874267" lon="15.6239783"><ele>118.0</ele><time>2026-05-01T15:46:11.985Z</time></trkpt><trkpt lat="40.0873383" lon="15.6240483"><ele>115.2</ele><time>2026-05-01T15:46:12.984Z</time></trkpt><trkpt lat="40.0872433" lon="15.6240883"><ele>112.4</ele><time>2026-05-01T15:46:13.984Z</time></trkpt><trkpt lat="40.08714" lon="15.624105"><ele>109.60000000000001</ele><time>2026-05-01T15:46:14.985Z</time></trkpt><trkpt lat="40.0870333" lon="15.6241033"><ele>106.80000000000001</ele><time>2026-05-01T15:46:15.984Z</time></trkpt><trkpt lat="40.0869433" lon="15.624095"><ele>104.0</ele><time>2026-05-01T15:46:16.984Z</time></trkpt><trkpt lat="40.0868667" lon="15.6241017"><ele>103.99999999999999</ele><time>2026-05-01T15:46:17.984Z</time></trkpt><trkpt lat="40.0867983" lon="15.624145"><ele>104.0</ele><time>2026-05-01T15:46:18.985Z</time></trkpt><trkpt lat="40.086745" lon="15.62423"><ele>104.0</ele><time>2026-05-01T15:46:19.984Z</time></trkpt><trkpt lat="40.086715" lon="15.6243367"><ele>104.0</ele><time>2026-05-01T15:46:20.984Z</time></trkpt><trkpt lat="40.086685" lon="15.6244417"><ele>103.99999999999999</ele><time>2026-05-01T15:46:21.984Z</time></trkpt><trkpt lat="40.0866417" lon="15.62454"><ele>104.0</ele><time>2026-05-01T15:46:22.984Z</time></trkpt><trkpt lat="40.0865817" lon="15.6246167"><ele>103.4</ele><time>2026-05-01T15:46:23.985Z</time></trkpt><trkpt lat="40.086505" lon="15.6246617"><ele>102.80000000000001</ele><time>2026-05-01T15:46:24.984Z</time></trkpt><trkpt lat="40.086405" lon="15.62468"><ele>102.19999999999999</ele><time>2026-05-01T15:46:25.984Z</time></trkpt><trkpt lat="40.0863117" lon="15.6247"><ele>101.6</ele><time>2026-05-01T15:46:26.985Z</time></trkpt><trkpt lat="40.08622" lon="15.624755"><ele>101.0</ele><time>2026-05-01T15:46:27.984Z</time></trkpt><trkpt lat="40.0861383" lon="15.6248267"><ele>101.0</ele><time>2026-05-01T15:46:28.984Z</time></trkpt><trkpt lat="40.0860683" lon="15.6249267"><ele>101.0</ele><time>2026-05-01T15:46:29.985Z</time></trkpt><trkpt lat="40.086005" lon="15.62502"><ele>101.0</ele><time>2026-05-01T15:46:30.984Z</time></trkpt><trkpt lat="40.0859633" lon="15.625135"><ele>101.0</ele><time>2026-05-01T15:46:31.985Z</time></trkpt><trkpt lat="40.085925" lon="15.62525"><ele>101.0</ele><time>2026-05-01T15:46:32.985Z</time></trkpt><trkpt lat="40.0858883" lon="15.6253567"><ele>101.83333333333333</ele><time>2026-05-01T15:46:33.985Z</time></trkpt><trkpt lat="40.0858467" lon="15.6254533"><ele>102.66666666666666</ele><time>2026-05-01T15:46:34.984Z</time></trkpt><trkpt lat="40.0858" lon="15.62553"><ele>103.5</ele><time>2026-05-01T15:46:35.984Z</time></trkpt><trkpt lat="40.085745" lon="15.6255817"><ele>104.33333333333334</ele><time>2026-05-01T15:46:36.985Z</time></trkpt><trkpt lat="40.0856833" lon="15.6255983"><ele>105.16666666666667</ele><time>2026-05-01T15:46:37.985Z</time></trkpt><trkpt lat="40.0856" lon="15.625575"><ele>106.0</ele><time>2026-05-01T15:46:38.985Z</time></trkpt><trkpt lat="40.085515" lon="15.6255267"><ele>106.0</ele><time>2026-05-01T15:46:39.985Z</time></trkpt><trkpt lat="40.0854267" lon="15.6254817"><ele>106.0</ele><time>2026-05-01T15:46:40.985Z</time></trkpt><trkpt lat="40.085315" lon="15.6254467"><ele>106.0</ele><time>2026-05-01T15:46:41.984Z</time></trkpt><trkpt lat="40.0852133" lon="15.6254133"><ele>106.0</ele><time>2026-05-01T15:46:42.984Z</time></trkpt><trkpt lat="40.0851133" lon="15.625385"><ele>106.0</ele><time>2026-05-01T15:46:43.984Z</time></trkpt><trkpt lat="40.0850117" lon="15.6253783"><ele>102.16666666666667</ele><time>2026-05-01T15:46:44.984Z</time></trkpt><trkpt lat="40.0849167" lon="15.6253817"><ele>98.33333333333334</ele><time>2026-05-01T15:46:45.984Z</time></trkpt><trkpt lat="40.0848233" lon="15.6253933"><ele>94.5</ele><time>2026-05-01T15:46:46.984Z</time></trkpt><trkpt lat="40.0847417" lon="15.6254183"><ele>90.66666666666667</ele><time>2026-05-01T15:46:47.985Z</time></trkpt><trkpt lat="40.0846567" lon="15.6254483"><ele>86.83333333333334</ele><time>2026-05-01T15:46:48.984Z</time></trkpt><trkpt lat="40.0845917" lon="15.6255083"><ele>83.0</ele><time>2026-05-01T15:46:49.985Z</time></trkpt><trkpt lat="40.0845483" lon="15.625605"><ele>83.0</ele><time>2026-05-01T15:46:50.985Z</time></trkpt><trkpt lat="40.084535" lon="15.6257117"><ele>83.0</ele><time>2026-05-01T15:46:51.985Z</time></trkpt><trkpt lat="40.084555" lon="15.6258267"><ele>83.0</ele><time>2026-05-01T15:46:52.985Z</time></trkpt><trkpt lat="40.0846017" lon="15.6259583"><ele>83.0</ele><time>2026-05-01T15:46:53.985Z</time></trkpt><trkpt lat="40.08467" lon="15.6260833"><ele>83.0</ele><time>2026-05-01T15:46:54.985Z</time></trkpt><trkpt lat="40.0847483" lon="15.6262217"><ele>85.25</ele><time>2026-05-01T15:46:55.984Z</time></trkpt><trkpt lat="40.0848267" lon="15.6263767"><ele>87.5</ele><time>2026-05-01T15:46:56.984Z</time></trkpt><trkpt lat="40.0848967" lon="15.6265283"><ele>89.75</ele><time>2026-05-01T15:46:57.985Z</time></trkpt><trkpt lat="40.0849567" lon="15.6266667"><ele>92.0</ele><time>2026-05-01T15:46:58.984Z</time></trkpt><trkpt lat="40.0850133" lon="15.62679"><ele>92.39999999999999</ele><time>2026-05-01T15:46:59.985Z</time></trkpt><trkpt lat="40.0850883" lon="15.6269"><ele>92.8</ele><time>2026-05-01T15:47:00.985Z</time></trkpt><trkpt lat="40.0851683" lon="15.626995"><ele>93.2</ele><time>2026-05-01T15:47:01.984Z</time></trkpt><trkpt lat="40.0852383" lon="15.627095"><ele>93.6</ele><time>2026-05-01T15:47:02.985Z</time></trkpt><trkpt lat="40.0852783" lon="15.6272017"><ele>94.0</ele><time>2026-05-01T15:47:03.985Z</time></trkpt><trkpt lat="40.0853033" lon="15.6272933"><ele>94.0</ele><time>2026-05-01T15:47:04.985Z</time></trkpt><trkpt lat="40.0853067" lon="15.6273867"><ele>94.0</ele><time>2026-05-01T15:47:05.984Z</time></trkpt><trkpt lat="40.08529" lon="15.6274733"><ele>94.0</ele><time>2026-05-01T15:47:06.985Z</time></trkpt><trkpt lat="40.085175" lon="15.6275583"><ele>94.0</ele><time>2026-05-01T15:47:08.984Z</time></trkpt><trkpt lat="40.08508" lon="15.6275317"><ele>94.0</ele><time>2026-05-01T15:47:09.985Z</time></trkpt><trkpt lat="40.0849817" lon="15.627485"><ele>97.0</ele><time>2026-05-01T15:47:10.984Z</time></trkpt><trkpt lat="40.0848867" lon="15.6274583"><ele>100.0</ele><time>2026-05-01T15:47:11.984Z</time></trkpt><trkpt lat="40.0848133" lon="15.6274417"><ele>103.0</ele><time>2026-05-01T15:47:12.984Z</time></trkpt><trkpt lat="40.08474" lon="15.627405"><ele>106.0</ele><time>2026-05-01T15:47:13.984Z</time></trkpt><trkpt lat="40.084675" lon="15.6273483"><ele>109.00000000000001</ele><time>2026-05-01T15:47:14.984Z</time></trkpt><trkpt lat="40.0846117" lon="15.6272533"><ele>112.0</ele><time>2026-05-01T15:47:15.984Z</time></trkpt><trkpt lat="40.0845567" lon="15.627125"><ele>112.0</ele><time>2026-05-01T15:47:16.984Z</time></trkpt><trkpt lat="40.0844883" lon="15.62698"><ele>112.0</ele><time>2026-05-01T15:47:17.984Z</time></trkpt><trkpt lat="40.084405" lon="15.6268433"><ele>112.0</ele><time>2026-05-01T15:47:18.985Z</time></trkpt><trkpt lat="40.0843117" lon="15.6267183"><ele>112.0</ele><time>2026-05-01T15:47:19.985Z</time></trkpt><trkpt lat="40.0841833" lon="15.6265833"><ele>109.75</ele><time>2026-05-01T15:47:20.984Z</time></trkpt><trkpt lat="40.084065" lon="15.6264567"><ele>107.5</ele><time>2026-05-01T15:47:21.984Z</time></trkpt><trkpt lat="40.08397" lon="15.62631"><ele>105.25</ele><time>2026-05-01T15:47:22.985Z</time></trkpt><trkpt lat="40.0838817" lon="15.6261567"><ele>103.0</ele><time>2026-05-01T15:47:23.985Z</time></trkpt><trkpt lat="40.0837933" lon="15.6260017"><ele>97.25</ele><time>2026-05-01T15:47:24.985Z</time></trkpt><trkpt lat="40.0836967" lon="15.6258717"><ele>91.5</ele><time>2026-05-01T15:47:25.984Z</time></trkpt><trkpt lat="40.0835767" lon="15.6257617"><ele>85.75</ele><time>2026-05-01T15:47:26.985Z</time></trkpt><trkpt lat="40.0834583" lon="15.62566"><ele>80.0</ele><time>2026-05-01T15:47:27.984Z</time></trkpt><trkpt lat="40.0833383" lon="15.6255717"><ele>75.75</ele><time>2026-05-01T15:47:28.984Z</time></trkpt><trkpt lat="40.083215" lon="15.6255117"><ele>71.5</ele><time>2026-05-01T15:47:29.984Z</time></trkpt><trkpt lat="40.083095" lon="15.62547"><ele>67.25</ele><time>2026-05-01T15:47:30.984Z</time></trkpt><trkpt lat="40.08298" lon="15.6254433"><ele>63.0</ele><time>2026-05-01T15:47:31.985Z</time></trkpt><trkpt lat="40.0828733" lon="15.6254417"><ele>63.0</ele><time>2026-05-01T15:47:32.985Z</time></trkpt><trkpt lat="40.08278" lon="15.6254967"><ele>63.0</ele><time>2026-05-01T15:47:33.984Z</time></trkpt><trkpt lat="40.0827033" lon="15.6255817"><ele>63.0</ele><time>2026-05-01T15:47:34.985Z</time></trkpt><trkpt lat="40.08264" lon="15.625715"><ele>63.0</ele><time>2026-05-01T15:47:35.985Z</time></trkpt><trkpt lat="40.0825883" lon="15.6258917"><ele>63.0</ele><time>2026-05-01T15:47:36.985Z</time></trkpt><trkpt lat="40.0825383" lon="15.6260717"><ele>63.0</ele><time>2026-05-01T15:47:37.985Z</time></trkpt><trkpt lat="40.0824833" lon="15.6262367"><ele>63.0</ele><time>2026-05-01T15:47:38.984Z</time></trkpt><trkpt lat="40.0824233" lon="15.6264033"><ele>63.0</ele><time>2026-05-01T15:47:39.984Z</time></trkpt><trkpt lat="40.082345" lon="15.6265433"><ele>60.0</ele><time>2026-05-01T15:47:40.984Z</time></trkpt><trkpt lat="40.0822567" lon="15.6266767"><ele>57.0</ele><time>2026-05-01T15:47:41.984Z</time></trkpt><trkpt lat="40.0821433" lon="15.62679"><ele>54.0</ele><time>2026-05-01T15:47:42.985Z</time></trkpt><trkpt lat="40.0820383" lon="15.6268767"><ele>51.0</ele><time>2026-05-01T15:47:43.984Z</time></trkpt><trkpt lat="40.08194" lon="15.6269533"><ele>53.199999999999996</ele><time>2026-05-01T15:47:44.985Z</time></trkpt><trkpt lat="40.0818483" lon="15.62703"><ele>55.4</ele><time>2026-05-01T15:47:45.984Z</time></trkpt><trkpt lat="40.0817817" lon="15.6271217"><ele>57.6</ele><time>2026-05-01T15:47:46.984Z</time></trkpt><trkpt lat="40.0817367" lon="15.6272133"><ele>59.8</ele><time>2026-05-01T15:47:47.985Z</time></trkpt><trkpt lat="40.0817033" lon="15.6273317"><ele>62.0</ele><time>2026-05-01T15:47:48.984Z</time></trkpt><trkpt lat="40.0816717" lon="15.62745"><ele>62.0</ele><time>2026-05-01T15:47:49.985Z</time></trkpt><trkpt lat="40.0816367" lon="15.6275483"><ele>62.0</ele><time>2026-05-01T15:47:50.984Z</time></trkpt><trkpt lat="40.0815133" lon="15.6276417"><ele>62.0</ele><time>2026-05-01T15:47:52.984Z</time></trkpt><trkpt lat="40.0814117" lon="15.627645"><ele>62.0</ele><time>2026-05-01T15:47:53.985Z</time></trkpt><trkpt lat="40.081295" lon="15.6276533"><ele>62.0</ele><time>2026-05-01T15:47:54.984Z</time></trkpt><trkpt lat="40.0811883" lon="15.6277033"><ele>61.833333333333336</ele><time>2026-05-01T15:47:55.984Z</time></trkpt><trkpt lat="40.0811083" lon="15.6277767"><ele>61.66666666666667</ele><time>2026-05-01T15:47:56.984Z</time></trkpt><trkpt lat="40.0810367" lon="15.6278083"><ele>61.5</ele><time>2026-05-01T15:47:57.984Z</time></trkpt><trkpt lat="40.0809633" lon="15.6278133"><ele>61.33333333333333</ele><time>2026-05-01T15:47:58.984Z</time></trkpt><trkpt lat="40.08089" lon="15.6277783"><ele>61.166666666666664</ele><time>2026-05-01T15:47:59.985Z</time></trkpt><trkpt lat="40.0808167" lon="15.62772"><ele>61.0</ele><time>2026-05-01T15:48:00.984Z</time></trkpt><trkpt lat="40.0807317" lon="15.627635"><ele>57.199999999999996</ele><time>2026-05-01T15:48:01.984Z</time></trkpt><trkpt lat="40.0806483" lon="15.6275617"><ele>53.39999999999999</ele><time>2026-05-01T15:48:02.985Z</time></trkpt><trkpt lat="40.0805633" lon="15.627495"><ele>49.6</ele><time>2026-05-01T15:48:03.985Z</time></trkpt><trkpt lat="40.080475" lon="15.6274333"><ele>45.8</ele><time>2026-05-01T15:48:04.984Z</time></trkpt><trkpt lat="40.080395" lon="15.6273917"><ele>42.0</ele><time>2026-05-01T15:48:05.984Z</time></trkpt><trkpt lat="40.0802967" lon="15.6273833"><ele>42.0</ele><time>2026-05-01T15:48:06.984Z</time></trkpt><trkpt lat="40.08021" lon="15.6274133"><ele>42.0</ele><time>2026-05-01T15:48:07.984Z</time></trkpt><trkpt lat="40.0801267" lon="15.627465"><ele>42.0</ele><time>2026-05-01T15:48:08.984Z</time></trkpt><trkpt lat="40.080065" lon="15.62755"><ele>42.0</ele><time>2026-05-01T15:48:09.985Z</time></trkpt><trkpt lat="40.0800133" lon="15.6276583"><ele>42.0</ele><time>2026-05-01T15:48:10.984Z</time></trkpt><trkpt lat="40.0799783" lon="15.6277883"><ele>42.75</ele><time>2026-05-01T15:48:11.984Z</time></trkpt><trkpt lat="40.0799667" lon="15.62796"><ele>43.5</ele><time>2026-05-01T15:48:12.984Z</time></trkpt><trkpt lat="40.0799567" lon="15.6281417"><ele>44.25</ele><time>2026-05-01T15:48:13.984Z</time></trkpt><trkpt lat="40.0799633" lon="15.6283"><ele>45.0</ele><time>2026-05-01T15:48:14.984Z</time></trkpt><trkpt lat="40.0799717" lon="15.6284433"><ele>45.0</ele><time>2026-05-01T15:48:15.984Z</time></trkpt><trkpt lat="40.07999" lon="15.6285917"><ele>45.0</ele><time>2026-05-01T15:48:16.984Z</time></trkpt><trkpt lat="40.0800117" lon="15.6287483"><ele>45.0</ele><time>2026-05-01T15:48:17.985Z</time></trkpt><trkpt lat="40.0800133" lon="15.6288883"><ele>45.0</ele><time>2026-05-01T15:48:18.984Z</time></trkpt><trkpt lat="40.079995" lon="15.62903"><ele>44.2</ele><time>2026-05-01T15:48:19.984Z</time></trkpt><trkpt lat="40.0799667" lon="15.6291683"><ele>43.4</ele><time>2026-05-01T15:48:20.985Z</time></trkpt><trkpt lat="40.07993" lon="15.629305"><ele>42.599999999999994</ele><time>2026-05-01T15:48:21.984Z</time></trkpt><trkpt lat="40.079885" lon="15.6294267"><ele>41.8</ele><time>2026-05-01T15:48:22.984Z</time></trkpt><trkpt lat="40.0798217" lon="15.6295317"><ele>41.0</ele><time>2026-05-01T15:48:23.985Z</time></trkpt><trkpt lat="40.0797467" lon="15.6296433"><ele>37.8</ele><time>2026-05-01T15:48:24.985Z</time></trkpt><trkpt lat="40.0796867" lon="15.629755"><ele>34.599999999999994</ele><time>2026-05-01T15:48:25.984Z</time></trkpt><trkpt lat="40.0796333" lon="15.6298617"><ele>31.4</ele><time>2026-05-01T15:48:26.984Z</time></trkpt><trkpt lat="40.079595" lon="15.6299733"><ele>28.2</ele><time>2026-05-01T15:48:27.984Z</time></trkpt><trkpt lat="40.0795783" lon="15.63009"><ele>25.0</ele><time>2026-05-01T15:48:28.985Z</time></trkpt><trkpt lat="40.07959" lon="15.630205"><ele>25.0</ele><time>2026-05-01T15:48:29.985Z</time></trkpt><trkpt lat="40.0796317" lon="15.6302967"><ele>25.0</ele><time>2026-05-01T15:48:30.984Z</time></trkpt><trkpt lat="40.0797" lon="15.63037"><ele>25.0</ele><time>2026-05-01T15:48:31.984Z</time></trkpt><trkpt lat="40.0797817" lon="15.6304133"><ele>25.0</ele><time>2026-05-01T15:48:32.985Z</time></trkpt><trkpt lat="40.079875" lon="15.6304183"><ele>25.0</ele><time>2026-05-01T15:48:33.985Z</time></trkpt><trkpt lat="40.079975" lon="15.6304083"><ele>25.166666666666668</ele><time>2026-05-01T15:48:34.984Z</time></trkpt><trkpt lat="40.08008" lon="15.630395"><ele>25.333333333333336</ele><time>2026-05-01T15:48:35.985Z</time></trkpt><trkpt lat="40.0801733" lon="15.630385"><ele>25.5</ele><time>2026-05-01T15:48:36.984Z</time></trkpt><trkpt lat="40.0802567" lon="15.63037"><ele>25.666666666666664</ele><time>2026-05-01T15:48:37.984Z</time></trkpt><trkpt lat="40.080335" lon="15.6303767"><ele>25.833333333333332</ele><time>2026-05-01T15:48:38.984Z</time></trkpt><trkpt lat="40.0804033" lon="15.6304117"><ele>26.0</ele><time>2026-05-01T15:48:39.985Z</time></trkpt><trkpt lat="40.08044" lon="15.630575"><ele>25.999999999999996</ele><time>2026-05-01T15:48:41.984Z</time></trkpt><trkpt lat="40.080425" lon="15.63068"><ele>26.0</ele><time>2026-05-01T15:48:42.985Z</time></trkpt><trkpt lat="40.0803983" lon="15.6307917"><ele>26.0</ele><time>2026-05-01T15:48:43.984Z</time></trkpt><trkpt lat="40.0803717" lon="15.6308933"><ele>26.0</ele><time>2026-05-01T15:48:44.985Z</time></trkpt><trkpt lat="40.0803317" lon="15.6309817"><ele>25.999999999999996</ele><time>2026-05-01T15:48:45.984Z</time></trkpt><trkpt lat="40.080285" lon="15.631075"><ele>26.0</ele><time>2026-05-01T15:48:46.984Z</time></trkpt><trkpt lat="40.0802283" lon="15.631125"><ele>25.999999999999996</ele><time>2026-05-01T15:48:47.985Z</time></trkpt><trkpt lat="40.080155" lon="15.63115"><ele>26.0</ele><time>2026-05-01T15:48:48.984Z</time></trkpt><trkpt lat="40.080085" lon="15.63113"><ele>26.0</ele><time>2026-05-01T15:48:49.985Z</time></trkpt><trkpt lat="40.0800083" lon="15.631105"><ele>26.0</ele><time>2026-05-01T15:48:50.985Z</time></trkpt><trkpt lat="40.0799317" lon="15.6310833"><ele>25.999999999999996</ele><time>2026-05-01T15:48:51.986Z</time></trkpt><trkpt lat="40.07985" lon="15.6310717"><ele>26.0</ele><time>2026-05-01T15:48:52.985Z</time></trkpt><trkpt lat="40.07977" lon="15.631055"><ele>24.666666666666664</ele><time>2026-05-01T15:48:53.985Z</time></trkpt><trkpt lat="40.0796917" lon="15.6310317"><ele>23.333333333333332</ele><time>2026-05-01T15:48:54.985Z</time></trkpt><trkpt lat="40.0796" lon="15.631035"><ele>22.0</ele><time>2026-05-01T15:48:55.986Z</time></trkpt><trkpt lat="40.0795133" lon="15.631065"><ele>20.666666666666664</ele><time>2026-05-01T15:48:56.985Z</time></trkpt><trkpt lat="40.0794417" lon="15.6311167"><ele>19.333333333333332</ele><time>2026-05-01T15:48:57.986Z</time></trkpt><trkpt lat="40.079385" lon="15.6311917"><ele>18.0</ele><time>2026-05-01T15:48:58.985Z</time></trkpt><trkpt lat="40.07935" lon="15.631285"><ele>17.8</ele><time>2026-05-01T15:48:59.985Z</time></trkpt><trkpt lat="40.07933" lon="15.6314"><ele>17.6</ele><time>2026-05-01T15:49:00.985Z</time></trkpt><trkpt lat="40.079325" lon="15.631535"><ele>17.4</ele><time>2026-05-01T15:49:01.985Z</time></trkpt><trkpt lat="40.0793167" lon="15.63167"><ele>17.2</ele><time>2026-05-01T15:49:02.986Z</time></trkpt><trkpt lat="40.0792833" lon="15.63178"><ele>17.0</ele><time>2026-05-01T15:49:03.985Z</time></trkpt><trkpt lat="40.0792333" lon="15.6318683"><ele>17.0</ele><time>2026-05-01T15:49:04.986Z</time></trkpt><trkpt lat="40.0791633" lon="15.6319217"><ele>17.0</ele><time>2026-05-01T15:49:05.985Z</time></trkpt><trkpt lat="40.0790733" lon="15.631965"><ele>17.0</ele><time>2026-05-01T15:49:06.985Z</time></trkpt><trkpt lat="40.0789833" lon="15.6320083"><ele>17.0</ele><time>2026-05-01T15:49:07.985Z</time></trkpt><trkpt lat="40.0789" lon="15.632045"><ele>17.0</ele><time>2026-05-01T15:49:08.986Z</time></trkpt><trkpt lat="40.0788183" lon="15.6320733"><ele>17.0</ele><time>2026-05-01T15:49:09.985Z</time></trkpt><trkpt lat="40.0787433" lon="15.6320817"><ele>18.2</ele><time>2026-05-01T15:49:10.985Z</time></trkpt><trkpt lat="40.0786583" lon="15.6320717"><ele>19.4</ele><time>2026-05-01T15:49:11.985Z</time></trkpt><trkpt lat="40.0785683" lon="15.63207"><ele>20.599999999999998</ele><time>2026-05-01T15:49:12.985Z</time></trkpt><trkpt lat="40.07847" lon="15.632045"><ele>21.799999999999997</ele><time>2026-05-01T15:49:13.985Z</time></trkpt><trkpt lat="40.078375" lon="15.632025"><ele>23.0</ele><time>2026-05-01T15:49:14.986Z</time></trkpt><trkpt lat="40.0782817" lon="15.6319917"><ele>20.833333333333336</ele><time>2026-05-01T15:49:15.985Z</time></trkpt><trkpt lat="40.0781933" lon="15.6319567"><ele>18.666666666666668</ele><time>2026-05-01T15:49:16.985Z</time></trkpt><trkpt lat="40.0781133" lon="15.6319083"><ele>16.5</ele><time>2026-05-01T15:49:17.986Z</time></trkpt><trkpt lat="40.0780367" lon="15.6318683"><ele>14.333333333333334</ele><time>2026-05-01T15:49:18.986Z</time></trkpt><trkpt lat="40.07796" lon="15.6318367"><ele>12.166666666666668</ele><time>2026-05-01T15:49:19.985Z</time></trkpt><trkpt lat="40.0778833" lon="15.6317933"><ele>10.0</ele><time>2026-05-01T15:49:20.986Z</time></trkpt><trkpt lat="40.077785" lon="15.6317517"><ele>10.0</ele><time>2026-05-01T15:49:21.985Z</time></trkpt><trkpt lat="40.077665" lon="15.6316933"><ele>10.0</ele><time>2026-05-01T15:49:22.986Z</time></trkpt><trkpt lat="40.0775533" lon="15.63162"><ele>10.0</ele><time>2026-05-01T15:49:23.985Z</time></trkpt><trkpt lat="40.0774583" lon="15.6315533"><ele>10.0</ele><time>2026-05-01T15:49:24.986Z</time></trkpt><trkpt lat="40.0773733" lon="15.6314933"><ele>9.666666666666668</ele><time>2026-05-01T15:49:25.985Z</time></trkpt><trkpt lat="40.07729" lon="15.631445"><ele>9.333333333333334</ele><time>2026-05-01T15:49:26.986Z</time></trkpt><trkpt lat="40.0772117" lon="15.63139"><ele>9.0</ele><time>2026-05-01T15:49:27.986Z</time></trkpt><trkpt lat="40.0771317" lon="15.63133"><ele>8.666666666666666</ele><time>2026-05-01T15:49:28.985Z</time></trkpt><trkpt lat="40.0770583" lon="15.63129"><ele>8.333333333333332</ele><time>2026-05-01T15:49:29.985Z</time></trkpt><trkpt lat="40.0769867" lon="15.6312533"><ele>8.0</ele><time>2026-05-01T15:49:30.986Z</time></trkpt><trkpt lat="40.076915" lon="15.631205"><ele>7.999999999999999</ele><time>2026-05-01T15:49:31.986Z</time></trkpt><trkpt lat="40.076855" lon="15.631165"><ele>8.0</ele><time>2026-05-01T15:49:32.985Z</time></trkpt><trkpt lat="40.0767567" lon="15.6311067"><ele>8.0</ele><time>2026-05-01T15:49:34.985Z</time></trkpt><trkpt lat="40.0766967" lon="15.631065"><ele>8.0</ele><time>2026-05-01T15:49:36.985Z</time></trkpt><trkpt lat="40.076615" lon="15.631005"><ele>7.999999999999999</ele><time>2026-05-01T15:49:53.986Z</time></trkpt><trkpt lat="40.0765283" lon="15.6309533"><ele>8.0</ele><time>2026-05-01T15:49:55.986Z</time></trkpt><trkpt lat="40.076465" lon="15.6309367"><ele>8.428571428571429</ele><time>2026-05-01T15:49:57.986Z</time></trkpt><trkpt lat="40.0764033" lon="15.63091"><ele>8.857142857142856</ele><time>2026-05-01T15:50:00.985Z</time></trkpt><trkpt lat="40.076325" lon="15.6309117"><ele>9.285714285714285</ele><time>2026-05-01T15:50:09.986Z</time></trkpt><trkpt lat="40.0762717" lon="15.63098"><ele>9.714285714285714</ele><time>2026-05-01T15:50:12.986Z</time></trkpt><trkpt lat="40.0762217" lon="15.6310333"><ele>10.142857142857142</ele><time>2026-05-01T15:50:15.986Z</time></trkpt><trkpt lat="40.0761517" lon="15.6310033"><ele>10.571428571428571</ele><time>2026-05-01T15:50:19.986Z</time></trkpt><trkpt lat="40.0760917" lon="15.6309767"><ele>11.0</ele><time>2026-05-01T15:50:21.985Z</time></trkpt><trkpt lat="40.0760117" lon="15.6309583"><ele>11.0</ele><time>2026-05-01T15:50:24.985Z</time></trkpt><trkpt lat="40.0759433" lon="15.630935"><ele>11.0</ele><time>2026-05-01T15:50:26.986Z</time></trkpt><trkpt lat="40.07587" lon="15.6308933"><ele>11.0</ele><time>2026-05-01T15:50:28.985Z</time></trkpt><trkpt lat="40.0758017" lon="15.6308483"><ele>11.0</ele><time>2026-05-01T15:50:30.985Z</time></trkpt><trkpt lat="40.075745" lon="15.6308083"><ele>11.0</ele><time>2026-05-01T15:50:32.985Z</time></trkpt><trkpt lat="40.07569" lon="15.6307667"><ele>11.0</ele><time>2026-05-01T15:50:34.985Z</time></trkpt><trkpt lat="40.07562" lon="15.6307133"><ele>11.0</ele><time>2026-05-01T15:50:36.985Z</time></trkpt><trkpt lat="40.0755383" lon="15.6306533"><ele>10.666666666666666</ele><time>2026-05-01T15:50:38.985Z</time></trkpt><trkpt lat="40.0754617" lon="15.6305933"><ele>10.333333333333332</ele><time>2026-05-01T15:50:40.985Z</time></trkpt><trkpt lat="40.0753933" lon="15.6305517"><ele>10.0</ele><time>2026-05-01T15:50:42.986Z</time></trkpt><trkpt lat="40.075355" lon="15.6304783"><ele>9.666666666666666</ele><time>2026-05-01T15:50:46.986Z</time></trkpt><trkpt lat="40.0754117" lon="15.6303483"><ele>9.333333333333334</ele><time>2026-05-01T15:50:48.986Z</time></trkpt><trkpt lat="40.075465" lon="15.6302533"><ele>9.0</ele><time>2026-05-01T15:50:49.985Z</time></trkpt><trkpt lat="40.0755067" lon="15.6301667"><ele>9.000000000000002</ele><time>2026-05-01T15:50:50.985Z</time></trkpt><trkpt lat="40.075545" lon="15.6300967"><ele>9.0</ele><time>2026-05-01T15:50:51.985Z</time></trkpt><trkpt lat="40.075575" lon="15.63001"><ele>9.0</ele><time>2026-05-01T15:50:52.985Z</time></trkpt><trkpt lat="40.0756033" lon="15.629915"><ele>9.0</ele><time>2026-05-01T15:50:53.985Z</time></trkpt><trkpt lat="40.075635" lon="15.62982"><ele>9.0</ele><time>2026-05-01T15:50:54.985Z</time></trkpt><trkpt lat="40.0756633" lon="15.6297383"><ele>9.000000000000002</ele><time>2026-05-01T15:50:55.986Z</time></trkpt><trkpt lat="40.07569" lon="15.6296533"><ele>9.0</ele><time>2026-05-01T15:50:56.985Z</time></trkpt><trkpt lat="40.0757133" lon="15.6295717"><ele>9.0</ele><time>2026-05-01T15:50:57.986Z</time></trkpt><trkpt lat="40.07574" lon="15.6294317"><ele>9.0</ele><time>2026-05-01T15:50:59.986Z</time></trkpt><trkpt lat="40.0757767" lon="15.6292983"><ele>9.0</ele><time>2026-05-01T15:51:01.985Z</time></trkpt><trkpt lat="40.0758033" lon="15.6292167"><ele>9.0</ele><time>2026-05-01T15:51:02.985Z</time></trkpt><trkpt lat="40.07583" lon="15.6291217"><ele>9.0</ele><time>2026-05-01T15:51:03.985Z</time></trkpt><trkpt lat="40.0758467" lon="15.6290383"><ele>9.0</ele><time>2026-05-01T15:51:04.985Z</time></trkpt><trkpt lat="40.0758617" lon="15.628905"><ele>8.666666666666666</ele><time>2026-05-01T15:51:06.985Z</time></trkpt><trkpt lat="40.0758383" lon="15.6287967"><ele>8.333333333333334</ele><time>2026-05-01T15:51:11.985Z</time></trkpt><trkpt lat="40.0758783" lon="15.6286633"><ele>8.0</ele><time>2026-05-01T15:51:13.985Z</time></trkpt><trkpt lat="40.0759017" lon="15.62858"><ele>7.666666666666667</ele><time>2026-05-01T15:51:14.986Z</time></trkpt><trkpt lat="40.0759283" lon="15.6284783"><ele>7.333333333333334</ele><time>2026-05-01T15:51:15.986Z</time></trkpt><trkpt lat="40.0759517" lon="15.6283817"><ele>7.0</ele><time>2026-05-01T15:51:16.985Z</time></trkpt><trkpt lat="40.0759667" lon="15.628285"><ele>7.0</ele><time>2026-05-01T15:51:17.986Z</time></trkpt><trkpt lat="40.075995" lon="15.628195"><ele>7.0</ele><time>2026-05-01T15:51:18.985Z</time></trkpt><trkpt lat="40.0760167" lon="15.6281133"><ele>7.0</ele><time>2026-05-01T15:51:19.986Z</time></trkpt><trkpt lat="40.0760483" lon="15.6280367"><ele>7.0</ele><time>2026-05-01T15:51:20.986Z</time></trkpt><trkpt lat="40.0760567" lon="15.6279333"><ele>7.0</ele><time>2026-05-01T15:51:21.985Z</time></trkpt><trkpt lat="40.0760483" lon="15.6278283"><ele>7.0</ele><time>2026-05-01T15:51:22.986Z</time></trkpt><trkpt lat="40.0760517" lon="15.627735"><ele>7.0</ele><time>2026-05-01T15:51:23.985Z</time></trkpt><trkpt lat="40.0760583" lon="15.6276267"><ele>7.166666666666667</ele><time>2026-05-01T15:51:24.985Z</time></trkpt><trkpt lat="40.0760667" lon="15.62752"><ele>7.333333333333334</ele><time>2026-05-01T15:51:25.985Z</time></trkpt><trkpt lat="40.0760583" lon="15.6274183"><ele>7.5</ele><time>2026-05-01T15:51:26.986Z</time></trkpt><trkpt lat="40.0760583" lon="15.6273267"><ele>7.666666666666666</ele><time>2026-05-01T15:51:27.986Z</time></trkpt><trkpt lat="40.07606" lon="15.6272367"><ele>7.833333333333333</ele><time>2026-05-01T15:51:28.985Z</time></trkpt><trkpt lat="40.0760733" lon="15.6271533"><ele>8.0</ele><time>2026-05-01T15:51:29.985Z</time></trkpt><trkpt lat="40.076075" lon="15.62703"><ele>7.800000000000001</ele><time>2026-05-01T15:51:31.985Z</time></trkpt><trkpt lat="40.076025" lon="15.6269417"><ele>7.6000000000000005</ele><time>2026-05-01T15:51:34.986Z</time></trkpt><trkpt lat="40.0760483" lon="15.6268133"><ele>7.3999999999999995</ele><time>2026-05-01T15:51:35.985Z</time></trkpt><trkpt lat="40.07602" lon="15.6266583"><ele>7.199999999999999</ele><time>2026-05-01T15:51:37.985Z</time></trkpt><trkpt lat="40.0760033" lon="15.6265633"><ele>7.0</ele><time>2026-05-01T15:51:38.985Z</time></trkpt><trkpt lat="40.07599" lon="15.626475"><ele>7.000000000000001</ele><time>2026-05-01T15:51:39.985Z</time></trkpt><trkpt lat="40.0759617" lon="15.6263667"><ele>7.0</ele><time>2026-05-01T15:51:41.985Z</time></trkpt><trkpt lat="40.0759567" lon="15.626245"><ele>7.0</ele><time>2026-05-01T15:51:43.986Z</time></trkpt><trkpt lat="40.0759517" lon="15.6261567"><ele>7.0</ele><time>2026-05-01T15:51:44.985Z</time></trkpt><trkpt lat="40.0759517" lon="15.6260717"><ele>7.000000000000001</ele><time>2026-05-01T15:51:45.986Z</time></trkpt><trkpt lat="40.0759633" lon="15.6259767"><ele>7.0</ele><time>2026-05-01T15:51:46.985Z</time></trkpt><trkpt lat="40.0759733" lon="15.6258817"><ele>6.833333333333334</ele><time>2026-05-01T15:51:47.985Z</time></trkpt><trkpt lat="40.075985" lon="15.6257933"><ele>6.666666666666667</ele><time>2026-05-01T15:51:48.985Z</time></trkpt><trkpt lat="40.0759667" lon="15.625675"><ele>6.5</ele><time>2026-05-01T15:51:50.985Z</time></trkpt><trkpt lat="40.0759283" lon="15.625565"><ele>6.333333333333334</ele><time>2026-05-01T15:51:52.986Z</time></trkpt><trkpt lat="40.0758683" lon="15.6255017"><ele>6.166666666666667</ele><time>2026-05-01T15:51:55.985Z</time></trkpt><trkpt lat="40.0757833" lon="15.62551"><ele>6.0</ele><time>2026-05-01T15:51:57.985Z</time></trkpt><trkpt lat="40.07566" lon="15.6255067"><ele>5.999999999999999</ele><time>2026-05-01T15:51:59.986Z</time></trkpt><trkpt lat="40.0755917" lon="15.625485"><ele>6.0</ele><time>2026-05-01T15:52:00.986Z</time></trkpt><trkpt lat="40.0755267" lon="15.6254633"><ele>6.0</ele><time>2026-05-01T15:52:01.985Z</time></trkpt><trkpt lat="40.0754633" lon="15.6254483"><ele>6.0</ele><time>2026-05-01T15:52:02.986Z</time></trkpt><trkpt lat="40.0753967" lon="15.6254433"><ele>6.0</ele><time>2026-05-01T15:52:03.986Z</time></trkpt><trkpt lat="40.0753217" lon="15.62544"><ele>5.999999999999999</ele><time>2026-05-01T15:52:04.985Z</time></trkpt><trkpt lat="40.0752483" lon="15.6254367"><ele>6.0</ele><time>2026-05-01T15:52:05.985Z</time></trkpt><trkpt lat="40.0751833" lon="15.6254383"><ele>6.0</ele><time>2026-05-01T15:52:06.985Z</time></trkpt><trkpt lat="40.07512" lon="15.625445"><ele>6.0</ele><time>2026-05-01T15:52:07.986Z</time></trkpt><trkpt lat="40.0750317" lon="15.625455"><ele>6.0</ele><time>2026-05-01T15:52:09.985Z</time></trkpt><trkpt lat="40.0749667" lon="15.62543"><ele>6.0</ele><time>2026-05-01T15:52:12.986Z</time></trkpt><trkpt lat="40.0749" lon="15.6254783"><ele>6.0</ele><time>2026-05-01T15:52:17.985Z</time></trkpt><trkpt lat="40.074885" lon="15.6256267"><ele>6.0</ele><time>2026-05-01T15:52:19.985Z</time></trkpt><trkpt lat="40.0748767" lon="15.625725"><ele>6.0</ele><time>2026-05-01T15:52:20.986Z</time></trkpt><trkpt lat="40.0748583" lon="15.6258367"><ele>6.0</ele><time>2026-05-01T15:52:21.985Z</time></trkpt><trkpt lat="40.0748417" lon="15.6259433"><ele>6.0</ele><time>2026-05-01T15:52:22.985Z</time></trkpt><trkpt lat="40.0748317" lon="15.6260467"><ele>6.0</ele><time>2026-05-01T15:52:23.986Z</time></trkpt><trkpt lat="40.07482" lon="15.6261317"><ele>6.0</ele><time>2026-05-01T15:52:24.985Z</time></trkpt><trkpt lat="40.0748083" lon="15.6262183"><ele>6.0</ele><time>2026-05-01T15:52:25.986Z</time></trkpt><trkpt lat="40.0747883" lon="15.6263267"><ele>6.0</ele><time>2026-05-01T15:52:27.986Z</time></trkpt><trkpt lat="40.0746917" lon="15.6263533"><ele>6.0</ele><time>2026-05-01T15:52:30.986Z</time></trkpt><trkpt lat="40.074585" lon="15.6263617"><ele>6.0</ele><time>2026-05-01T15:52:32.985Z</time></trkpt><trkpt lat="40.074515" lon="15.6263417"><ele>6.0</ele><time>2026-05-01T15:52:35.985Z</time></trkpt><trkpt lat="40.0745133" lon="15.626215"><ele>6.0</ele><time>2026-05-01T15:52:38.985Z</time></trkpt><trkpt lat="40.07453" lon="15.626105"><ele>6.0</ele><time>2026-05-01T15:52:40.986Z</time></trkpt><trkpt lat="40.0745433" lon="15.6259983"><ele>6.0</ele><time>2026-05-01T15:52:42.985Z</time></trkpt><trkpt lat="40.07456" lon="15.6258967"><ele>6.0</ele><time>2026-05-01T15:52:44.985Z</time></trkpt><trkpt lat="40.07457" lon="15.6257983"><ele>6.0</ele><time>2026-05-01T15:52:48.985Z</time></trkpt><trkpt lat="40.0745783" lon="15.62571"><ele>6.0</ele><time>2026-05-01T15:52:53.985Z</time></trkpt><trkpt lat="40.0745883" lon="15.625595"><ele>6.0</ele><time>2026-05-01T15:52:56.985Z</time></trkpt><trkpt lat="40.0745967" lon="15.625485"><ele>6.0</ele><time>2026-05-01T15:52:58.986Z</time></trkpt><trkpt lat="40.0746067" lon="15.625395"><ele>6.0</ele><time>2026-05-01T15:52:59.985Z</time></trkpt><trkpt lat="40.0746233" lon="15.6252917"><ele>6.0</ele><time>2026-05-01T15:53:00.985Z</time></trkpt><trkpt lat="40.0746267" lon="15.6251817"><ele>6.0</ele><time>2026-05-01T15:53:01.985Z</time></trkpt><trkpt lat="40.0746267" lon="15.625095"><ele>6.0</ele><time>2026-05-01T15:53:02.985Z</time></trkpt><trkpt lat="40.074615" lon="15.625"><ele>6.0</ele><time>2026-05-01T15:53:04.986Z</time></trkpt><trkpt lat="40.0745917" lon="15.624895"><ele>6.0</ele><time>2026-05-01T15:53:08.985Z</time></trkpt><trkpt lat="40.0745683" lon="15.6247883"><ele>6.0</ele><time>2026-05-01T15:53:10.985Z</time></trkpt><trkpt lat="40.074545" lon="15.62462"><ele>6.0</ele><time>2026-05-01T15:53:12.986Z</time></trkpt><trkpt lat="40.074525" lon="15.62453"><ele>6.0</ele><time>2026-05-01T15:53:13.986Z</time></trkpt><trkpt lat="40.0745" lon="15.6244433"><ele>6.0</ele><time>2026-05-01T15:53:14.986Z</time></trkpt><trkpt lat="40.0744817" lon="15.62436"><ele>6.0</ele><time>2026-05-01T15:53:15.986Z</time></trkpt><trkpt lat="40.0744633" lon="15.624275"><ele>5.666666666666667</ele><time>2026-05-01T15:53:16.985Z</time></trkpt><trkpt lat="40.07445" lon="15.6241917"><ele>5.333333333333333</ele><time>2026-05-01T15:53:17.986Z</time></trkpt><trkpt lat="40.074415" lon="15.6240983"><ele>5.0</ele><time>2026-05-01T15:53:18.985Z</time></trkpt><trkpt lat="40.0743983" lon="15.6239917"><ele>4.666666666666666</ele><time>2026-05-01T15:53:19.985Z</time></trkpt><trkpt lat="40.0743717" lon="15.6238733"><ele>4.333333333333333</ele><time>2026-05-01T15:53:20.985Z</time></trkpt><trkpt lat="40.074335" lon="15.6237483"><ele>4.0</ele><time>2026-05-01T15:53:21.985Z</time></trkpt><trkpt lat="40.0742967" lon="15.6236233"><ele>4.0</ele><time>2026-05-01T15:53:22.986Z</time></trkpt><trkpt lat="40.0742683" lon="15.6235017"><ele>4.0</ele><time>2026-05-01T15:53:23.985Z</time></trkpt><trkpt lat="40.0742333" lon="15.6233817"><ele>4.0</ele><time>2026-05-01T15:53:24.986Z</time></trkpt><trkpt lat="40.0742133" lon="15.62326"><ele>4.0</ele><time>2026-05-01T15:53:25.985Z</time></trkpt><trkpt lat="40.0741883" lon="15.6231417"><ele>4.0</ele><time>2026-05-01T15:53:26.986Z</time></trkpt><trkpt lat="40.0741533" lon="15.6230167"><ele>4.0</ele><time>2026-05-01T15:53:27.985Z</time></trkpt><trkpt lat="40.07412" lon="15.622885"><ele>4.0</ele><time>2026-05-01T15:53:28.985Z</time></trkpt><trkpt lat="40.0740933" lon="15.622755"><ele>4.0</ele><time>2026-05-01T15:53:29.986Z</time></trkpt><trkpt lat="40.0740583" lon="15.622635"><ele>4.0</ele><time>2026-05-01T15:53:30.985Z</time></trkpt><trkpt lat="40.0740317" lon="15.62253"><ele>4.0</ele><time>2026-05-01T15:53:31.986Z</time></trkpt><trkpt lat="40.0739933" lon="15.6224467"><ele>4.666666666666666</ele><time>2026-05-01T15:53:32.985Z</time></trkpt><trkpt lat="40.07395" lon="15.6223683"><ele>5.333333333333333</ele><time>2026-05-01T15:53:33.985Z</time></trkpt><trkpt lat="40.073895" lon="15.622295"><ele>6.0</ele><time>2026-05-01T15:53:34.986Z</time></trkpt><trkpt lat="40.073835" lon="15.622225"><ele>6.666666666666666</ele><time>2026-05-01T15:53:35.985Z</time></trkpt><trkpt lat="40.0737583" lon="15.622165"><ele>7.333333333333333</ele><time>2026-05-01T15:53:36.985Z</time></trkpt><trkpt lat="40.0736683" lon="15.6220933"><ele>8.0</ele><time>2026-05-01T15:53:37.985Z</time></trkpt><trkpt lat="40.073555" lon="15.6220033"><ele>8.200000000000001</ele><time>2026-05-01T15:53:38.985Z</time></trkpt><trkpt lat="40.073445" lon="15.6219083"><ele>8.4</ele><time>2026-05-01T15:53:39.985Z</time></trkpt><trkpt lat="40.073345" lon="15.6218283"><ele>8.600000000000001</ele><time>2026-05-01T15:53:40.985Z</time></trkpt><trkpt lat="40.0732517" lon="15.6217733"><ele>8.8</ele><time>2026-05-01T15:53:41.985Z</time></trkpt><trkpt lat="40.0731617" lon="15.62175"><ele>9.0</ele><time>2026-05-01T15:53:42.985Z</time></trkpt><trkpt lat="40.073065" lon="15.6217267"><ele>9.0</ele><time>2026-05-01T15:53:43.985Z</time></trkpt><trkpt lat="40.072975" lon="15.6217083"><ele>9.0</ele><time>2026-05-01T15:53:44.985Z</time></trkpt><trkpt lat="40.0728783" lon="15.621715"><ele>9.0</ele><time>2026-05-01T15:53:45.986Z</time></trkpt><trkpt lat="40.072785" lon="15.6217233"><ele>9.0</ele><time>2026-05-01T15:53:46.986Z</time></trkpt><trkpt lat="40.0727033" lon="15.6217317"><ele>9.0</ele><time>2026-05-01T15:53:47.986Z</time></trkpt><trkpt lat="40.0725983" lon="15.6217317"><ele>9.0</ele><time>2026-05-01T15:53:48.985Z</time></trkpt><trkpt lat="40.0725033" lon="15.6217267"><ele>9.0</ele><time>2026-05-01T15:53:49.986Z</time></trkpt><trkpt lat="40.0724117" lon="15.6217067"><ele>9.0</ele><time>2026-05-01T15:53:50.986Z</time></trkpt><trkpt lat="40.0723217" lon="15.6216767"><ele>9.0</ele><time>2026-05-01T15:53:51.986Z</time></trkpt><trkpt lat="40.0722383" lon="15.6216317"><ele>9.0</ele><time>2026-05-01T15:53:52.986Z</time></trkpt><trkpt lat="40.072145" lon="15.6215683"><ele>7.75</ele><time>2026-05-01T15:53:53.985Z</time></trkpt><trkpt lat="40.0720317" lon="15.6214867"><ele>6.5</ele><time>2026-05-01T15:53:54.985Z</time></trkpt><trkpt lat="40.0719083" lon="15.6214"><ele>5.25</ele><time>2026-05-01T15:53:55.985Z</time></trkpt><trkpt lat="40.0717817" lon="15.621315"><ele>4.0</ele><time>2026-05-01T15:53:56.986Z</time></trkpt><trkpt lat="40.071665" lon="15.6212383"><ele>4.25</ele><time>2026-05-01T15:53:57.985Z</time></trkpt><trkpt lat="40.071555" lon="15.621155"><ele>4.5</ele><time>2026-05-01T15:53:58.985Z</time></trkpt><trkpt lat="40.0714533" lon="15.62109"><ele>4.75</ele><time>2026-05-01T15:53:59.986Z</time></trkpt><trkpt lat="40.0713583" lon="15.62103"><ele>5.0</ele><time>2026-05-01T15:54:00.986Z</time></trkpt><trkpt lat="40.0712683" lon="15.620955"><ele>5.0</ele><time>2026-05-01T15:54:01.985Z</time></trkpt><trkpt lat="40.0711967" lon="15.620865"><ele>5.0</ele><time>2026-05-01T15:54:02.985Z</time></trkpt><trkpt lat="40.0711383" lon="15.620755"><ele>5.0</ele><time>2026-05-01T15:54:03.985Z</time></trkpt><trkpt lat="40.071095" lon="15.62063"><ele>5.0</ele><time>2026-05-01T15:54:04.985Z</time></trkpt><trkpt lat="40.071065" lon="15.6204983"><ele>5.0</ele><time>2026-05-01T15:54:05.985Z</time></trkpt><trkpt lat="40.0710283" lon="15.6203667"><ele>6.5</ele><time>2026-05-01T15:54:06.985Z</time></trkpt><trkpt lat="40.07099" lon="15.6202283"><ele>8.0</ele><time>2026-05-01T15:54:07.985Z</time></trkpt><trkpt lat="40.0709567" lon="15.6200917"><ele>9.5</ele><time>2026-05-01T15:54:08.985Z</time></trkpt><trkpt lat="40.0709133" lon="15.6199533"><ele>11.0</ele><time>2026-05-01T15:54:09.985Z</time></trkpt><trkpt lat="40.0708717" lon="15.6198067"><ele>11.0</ele><time>2026-05-01T15:54:10.985Z</time></trkpt><trkpt lat="40.07081" lon="15.619655"><ele>11.0</ele><time>2026-05-01T15:54:11.985Z</time></trkpt><trkpt lat="40.0707367" lon="15.6195033"><ele>11.0</ele><time>2026-05-01T15:54:12.985Z</time></trkpt><trkpt lat="40.0706533" lon="15.61937"><ele>11.0</ele><time>2026-05-01T15:54:13.985Z</time></trkpt><trkpt lat="40.0705517" lon="15.61925"><ele>10.75</ele><time>2026-05-01T15:54:14.985Z</time></trkpt><trkpt lat="40.0704467" lon="15.6191417"><ele>10.5</ele><time>2026-05-01T15:54:15.986Z</time></trkpt><trkpt lat="40.07033" lon="15.61906"><ele>10.25</ele><time>2026-05-01T15:54:16.986Z</time></trkpt><trkpt lat="40.0702217" lon="15.6189767"><ele>10.0</ele><time>2026-05-01T15:54:17.986Z</time></trkpt><trkpt lat="40.0701083" lon="15.6189"><ele>10.0</ele><time>2026-05-01T15:54:18.986Z</time></trkpt><trkpt lat="40.07" lon="15.6188267"><ele>10.0</ele><time>2026-05-01T15:54:19.985Z</time></trkpt><trkpt lat="40.06988" lon="15.6187567"><ele>10.0</ele><time>2026-05-01T15:54:20.986Z</time></trkpt><trkpt lat="40.0697617" lon="15.6186833"><ele>10.0</ele><time>2026-05-01T15:54:21.985Z</time></trkpt><trkpt lat="40.069655" lon="15.6186"><ele>9.75</ele><time>2026-05-01T15:54:22.985Z</time></trkpt><trkpt lat="40.06955" lon="15.6185017"><ele>9.5</ele><time>2026-05-01T15:54:23.985Z</time></trkpt><trkpt lat="40.0694517" lon="15.6183983"><ele>9.25</ele><time>2026-05-01T15:54:24.985Z</time></trkpt><trkpt lat="40.06937" lon="15.61828"><ele>9.0</ele><time>2026-05-01T15:54:25.985Z</time></trkpt><trkpt lat="40.0693" lon="15.6181483"><ele>9.0</ele><time>2026-05-01T15:54:26.985Z</time></trkpt><trkpt lat="40.06926" lon="15.617995"><ele>9.0</ele><time>2026-05-01T15:54:27.985Z</time></trkpt><trkpt lat="40.0692333" lon="15.6178317"><ele>9.0</ele><time>2026-05-01T15:54:28.985Z</time></trkpt><trkpt lat="40.069225" lon="15.6176533"><ele>9.0</ele><time>2026-05-01T15:54:29.985Z</time></trkpt><trkpt lat="40.0692317" lon="15.6174933"><ele>9.25</ele><time>2026-05-01T15:54:30.986Z</time></trkpt><trkpt lat="40.0692583" lon="15.6173233"><ele>9.5</ele><time>2026-05-01T15:54:31.985Z</time></trkpt><trkpt lat="40.069305" lon="15.6171267"><ele>9.75</ele><time>2026-05-01T15:54:32.985Z</time></trkpt><trkpt lat="40.0693267" lon="15.6169467"><ele>10.0</ele><time>2026-05-01T15:54:33.985Z</time></trkpt><trkpt lat="40.0693467" lon="15.6167817"><ele>9.25</ele><time>2026-05-01T15:54:34.985Z</time></trkpt><trkpt lat="40.0693767" lon="15.6166283"><ele>8.5</ele><time>2026-05-01T15:54:35.985Z</time></trkpt><trkpt lat="40.0694067" lon="15.6164617"><ele>7.75</ele><time>2026-05-01T15:54:36.985Z</time></trkpt><trkpt lat="40.0694517" lon="15.61631"><ele>7.0</ele><time>2026-05-01T15:54:37.985Z</time></trkpt><trkpt lat="40.06951" lon="15.6161633"><ele>6.25</ele><time>2026-05-01T15:54:38.985Z</time></trkpt><trkpt lat="40.06958" lon="15.6160317"><ele>5.5</ele><time>2026-05-01T15:54:39.985Z</time></trkpt><trkpt lat="40.0696567" lon="15.6158967"><ele>4.75</ele><time>2026-05-01T15:54:40.985Z</time></trkpt><trkpt lat="40.069735" lon="15.6157617"><ele>4.0</ele><time>2026-05-01T15:54:41.985Z</time></trkpt><trkpt lat="40.06982" lon="15.6156183"><ele>4.0</ele><time>2026-05-01T15:54:42.986Z</time></trkpt><trkpt lat="40.0699" lon="15.615465"><ele>4.0</ele><time>2026-05-01T15:54:43.985Z</time></trkpt><trkpt lat="40.06998" lon="15.615315"><ele>4.0</ele><time>2026-05-01T15:54:44.985Z</time></trkpt><trkpt lat="40.0700617" lon="15.615175"><ele>4.0</ele><time>2026-05-01T15:54:45.985Z</time></trkpt><trkpt lat="40.070155" lon="15.6150417"><ele>4.5</ele><time>2026-05-01T15:54:46.985Z</time></trkpt><trkpt lat="40.0702467" lon="15.614905"><ele>5.0</ele><time>2026-05-01T15:54:47.986Z</time></trkpt><trkpt lat="40.0703383" lon="15.6147767"><ele>5.5</ele><time>2026-05-01T15:54:48.986Z</time></trkpt><trkpt lat="40.070435" lon="15.6146533"><ele>6.0</ele><time>2026-05-01T15:54:49.986Z</time></trkpt><trkpt lat="40.0705217" lon="15.6145183"><ele>5.75</ele><time>2026-05-01T15:54:50.985Z</time></trkpt><trkpt lat="40.0706067" lon="15.6143817"><ele>5.5</ele><time>2026-05-01T15:54:51.985Z</time></trkpt><trkpt lat="40.0706883" lon="15.6142467"><ele>5.25</ele><time>2026-05-01T15:54:52.986Z</time></trkpt><trkpt lat="40.0707667" lon="15.6141117"><ele>5.0</ele><time>2026-05-01T15:54:53.985Z</time></trkpt><trkpt lat="40.070855" lon="15.6139767"><ele>5.0</ele><time>2026-05-01T15:54:54.985Z</time></trkpt><trkpt lat="40.070935" lon="15.6138333"><ele>5.0</ele><time>2026-05-01T15:54:55.986Z</time></trkpt><trkpt lat="40.0710267" lon="15.61369"><ele>5.0</ele><time>2026-05-01T15:54:56.985Z</time></trkpt><trkpt lat="40.071115" lon="15.6135383"><ele>5.0</ele><time>2026-05-01T15:54:57.985Z</time></trkpt><trkpt lat="40.0711917" lon="15.613375"><ele>5.0</ele><time>2026-05-01T15:54:58.986Z</time></trkpt><trkpt lat="40.0712683" lon="15.61321"><ele>5.0</ele><time>2026-05-01T15:54:59.986Z</time></trkpt><trkpt lat="40.0713433" lon="15.613045"><ele>5.0</ele><time>2026-05-01T15:55:00.986Z</time></trkpt><trkpt lat="40.0714283" lon="15.6128867"><ele>5.0</ele><time>2026-05-01T15:55:01.985Z</time></trkpt><trkpt lat="40.0715033" lon="15.612715"><ele>5.333333333333334</ele><time>2026-05-01T15:55:02.985Z</time></trkpt><trkpt lat="40.071585" lon="15.612545"><ele>5.666666666666667</ele><time>2026-05-01T15:55:03.986Z</time></trkpt><trkpt lat="40.0716633" lon="15.6123817"><ele>6.0</ele><time>2026-05-01T15:55:04.986Z</time></trkpt><trkpt lat="40.0717483" lon="15.6122217"><ele>6.0</ele><time>2026-05-01T15:55:05.985Z</time></trkpt><trkpt lat="40.0718183" lon="15.61207"><ele>6.0</ele><time>2026-05-01T15:55:06.985Z</time></trkpt><trkpt lat="40.07188" lon="15.6119317"><ele>6.0</ele><time>2026-05-01T15:55:07.986Z</time></trkpt><trkpt lat="40.0719483" lon="15.6118017"><ele>6.0</ele><time>2026-05-01T15:55:08.985Z</time></trkpt><trkpt lat="40.0720217" lon="15.6116667"><ele>5.8</ele><time>2026-05-01T15:55:09.986Z</time></trkpt><trkpt lat="40.0720833" lon="15.6115567"><ele>5.6</ele><time>2026-05-01T15:55:10.985Z</time></trkpt><trkpt lat="40.0721417" lon="15.6114567"><ele>5.4</ele><time>2026-05-01T15:55:11.986Z</time></trkpt><trkpt lat="40.07218" lon="15.6113583"><ele>5.2</ele><time>2026-05-01T15:55:12.985Z</time></trkpt><trkpt lat="40.0722133" lon="15.6112767"><ele>5.0</ele><time>2026-05-01T15:55:13.985Z</time></trkpt><trkpt lat="40.0722867" lon="15.6111417"><ele>4.833333333333334</ele><time>2026-05-01T15:55:15.985Z</time></trkpt><trkpt lat="40.072315" lon="15.6110633"><ele>4.666666666666667</ele><time>2026-05-01T15:55:16.985Z</time></trkpt><trkpt lat="40.0723483" lon="15.6109817"><ele>4.5</ele><time>2026-05-01T15:55:17.985Z</time></trkpt><trkpt lat="40.07239" lon="15.6109183"><ele>4.333333333333333</ele><time>2026-05-01T15:55:18.986Z</time></trkpt><trkpt lat="40.07246" lon="15.6107933"><ele>4.166666666666666</ele><time>2026-05-01T15:55:20.986Z</time></trkpt><trkpt lat="40.0725" lon="15.6107167"><ele>4.0</ele><time>2026-05-01T15:55:21.986Z</time></trkpt><trkpt lat="40.072535" lon="15.6106383"><ele>4.0</ele><time>2026-05-01T15:55:22.985Z</time></trkpt><trkpt lat="40.072575" lon="15.61055"><ele>4.0</ele><time>2026-05-01T15:55:23.985Z</time></trkpt><trkpt lat="40.0726167" lon="15.6104517"><ele>4.0</ele><time>2026-05-01T15:55:24.986Z</time></trkpt><trkpt lat="40.072665" lon="15.6103433"><ele>4.0</ele><time>2026-05-01T15:55:25.985Z</time></trkpt><trkpt lat="40.0727267" lon="15.610225"><ele>4.0</ele><time>2026-05-01T15:55:26.985Z</time></trkpt><trkpt lat="40.0727867" lon="15.6100967"><ele>3.75</ele><time>2026-05-01T15:55:27.985Z</time></trkpt><trkpt lat="40.0728517" lon="15.609965"><ele>3.5</ele><time>2026-05-01T15:55:28.985Z</time></trkpt><trkpt lat="40.072915" lon="15.6098367"><ele>3.25</ele><time>2026-05-01T15:55:29.985Z</time></trkpt><trkpt lat="40.072975" lon="15.6096967"><ele>3.0</ele><time>2026-05-01T15:55:30.986Z</time></trkpt><trkpt lat="40.0730317" lon="15.60956"><ele>2.75</ele><time>2026-05-01T15:55:31.985Z</time></trkpt><trkpt lat="40.0731" lon="15.60943"><ele>2.5</ele><time>2026-05-01T15:55:32.986Z</time></trkpt><trkpt lat="40.0731633" lon="15.6093083"><ele>2.25</ele><time>2026-05-01T15:55:33.986Z</time></trkpt><trkpt lat="40.0732283" lon="15.6091867"><ele>2.0</ele><time>2026-05-01T15:55:34.986Z</time></trkpt><trkpt lat="40.0732983" lon="15.60906"><ele>3.0</ele><time>2026-05-01T15:55:35.986Z</time></trkpt><trkpt lat="40.0733667" lon="15.60892"><ele>4.0</ele><time>2026-05-01T15:55:36.985Z</time></trkpt><trkpt lat="40.0734333" lon="15.60878"><ele>5.0</ele><time>2026-05-01T15:55:37.985Z</time></trkpt><trkpt lat="40.0734867" lon="15.60863"><ele>6.0</ele><time>2026-05-01T15:55:38.985Z</time></trkpt><trkpt lat="40.0735433" lon="15.6084817"><ele>6.0</ele><time>2026-05-01T15:55:39.985Z</time></trkpt><trkpt lat="40.07359" lon="15.6083267"><ele>6.0</ele><time>2026-05-01T15:55:40.985Z</time></trkpt><trkpt lat="40.0736267" lon="15.6081617"><ele>6.0</ele><time>2026-05-01T15:55:41.986Z</time></trkpt><trkpt lat="40.073665" lon="15.6080183"><ele>6.0</ele><time>2026-05-01T15:55:42.985Z</time></trkpt><trkpt lat="40.0737033" lon="15.6078733"><ele>5.3999999999999995</ele><time>2026-05-01T15:55:43.985Z</time></trkpt><trkpt lat="40.0737467" lon="15.6077267"><ele>4.8</ele><time>2026-05-01T15:55:44.985Z</time></trkpt><trkpt lat="40.07377" lon="15.6075917"><ele>4.199999999999999</ele><time>2026-05-01T15:55:45.986Z</time></trkpt><trkpt lat="40.0738017" lon="15.6074583"><ele>3.5999999999999996</ele><time>2026-05-01T15:55:46.985Z</time></trkpt><trkpt lat="40.073835" lon="15.60732"><ele>3.0</ele><time>2026-05-01T15:55:47.985Z</time></trkpt><trkpt lat="40.0738717" lon="15.607185"><ele>3.0</ele><time>2026-05-01T15:55:48.986Z</time></trkpt><trkpt lat="40.0739033" lon="15.6070483"><ele>3.0</ele><time>2026-05-01T15:55:49.985Z</time></trkpt><trkpt lat="40.0739417" lon="15.6069167"><ele>3.0</ele><time>2026-05-01T15:55:50.986Z</time></trkpt><trkpt lat="40.0739833" lon="15.6067817"><ele>3.0</ele><time>2026-05-01T15:55:51.986Z</time></trkpt><trkpt lat="40.07403" lon="15.6066617"><ele>3.0</ele><time>2026-05-01T15:55:52.986Z</time></trkpt><trkpt lat="40.0740617" lon="15.6065167"><ele>3.2</ele><time>2026-05-01T15:55:53.986Z</time></trkpt><trkpt lat="40.0741" lon="15.60638"><ele>3.4</ele><time>2026-05-01T15:55:54.986Z</time></trkpt><trkpt lat="40.07413" lon="15.6062467"><ele>3.6000000000000005</ele><time>2026-05-01T15:55:55.985Z</time></trkpt><trkpt lat="40.07416" lon="15.606125"><ele>3.8000000000000003</ele><time>2026-05-01T15:55:56.985Z</time></trkpt><trkpt lat="40.0741933" lon="15.6060133"><ele>4.0</ele><time>2026-05-01T15:55:57.986Z</time></trkpt><trkpt lat="40.074215" lon="15.6058917"><ele>4.166666666666666</ele><time>2026-05-01T15:55:58.986Z</time></trkpt><trkpt lat="40.07424" lon="15.6057917"><ele>4.333333333333333</ele><time>2026-05-01T15:55:59.985Z</time></trkpt><trkpt lat="40.0742717" lon="15.6056867"><ele>4.5</ele><time>2026-05-01T15:56:00.985Z</time></trkpt><trkpt lat="40.0743017" lon="15.605585"><ele>4.666666666666667</ele><time>2026-05-01T15:56:01.985Z</time></trkpt><trkpt lat="40.0743333" lon="15.6055017"><ele>4.833333333333334</ele><time>2026-05-01T15:56:02.986Z</time></trkpt><trkpt lat="40.0743733" lon="15.6053967"><ele>5.0</ele><time>2026-05-01T15:56:04.985Z</time></trkpt><trkpt lat="40.0743917" lon="15.6053067"><ele>5.0</ele><time>2026-05-01T15:56:06.985Z</time></trkpt><trkpt lat="40.07445" lon="15.6052167"><ele>5.0</ele><time>2026-05-01T15:56:09.985Z</time></trkpt><trkpt lat="40.0745133" lon="15.605225"><ele>5.0</ele><time>2026-05-01T15:56:13.985Z</time></trkpt><trkpt lat="40.0745883" lon="15.60523"><ele>5.0</ele><time>2026-05-01T15:56:54.985Z</time></trkpt><trkpt lat="40.0746633" lon="15.6052683"><ele>5.0</ele><time>2026-05-01T15:56:56.986Z</time></trkpt><trkpt lat="40.0747617" lon="15.6053017"><ele>5.0</ele><time>2026-05-01T15:56:58.986Z</time></trkpt><trkpt lat="40.07484" lon="15.6053383"><ele>5.0</ele><time>2026-05-01T15:57:00.985Z</time></trkpt><trkpt lat="40.074845" lon="15.605445"><ele>5.0</ele><time>2026-05-01T15:57:04.985Z</time></trkpt><trkpt lat="40.0748017" lon="15.6053817"><ele>5.0</ele><time>2026-05-01T15:59:52.985Z</time></trkpt><trkpt lat="40.07477" lon="15.6053017"><ele>5.0</ele><time>2026-05-01T15:59:57.985Z</time></trkpt><trkpt lat="40.074716" lon="15.6052553"><ele>5.0</ele><time>2026-05-01T16:00:03.986Z</time></trkpt><trkpt lat="40.074656" lon="15.6052273"><ele>5.0</ele><time>2026-05-01T16:00:13.986Z</time></trkpt><trkpt lat="40.0745813" lon="15.6052361"><ele>5.0</ele><time>2026-05-01T16:00:16.985Z</time></trkpt><trkpt lat="40.0746482" lon="15.6051451"><ele>5.0</ele><time>2026-05-01T16:01:43.987Z</time></trkpt><trkpt lat="40.0745697" lon="15.6052235"><ele>5.0</ele><time>2026-05-01T16:03:57.987Z</time></trkpt><trkpt lat="40.0745471" lon="15.6053498"><ele>5.0</ele><time>2026-05-01T16:04:46.982Z</time></trkpt><trkpt lat="40.07465" lon="15.6053457"><ele>5.0</ele><time>2026-05-01T16:05:05.028Z</time></trkpt><trkpt lat="40.0744487" lon="15.6057677"><ele>5.0</ele><time>2026-05-01T16:07:43.98Z</time></trkpt><trkpt lat="40.0745393" lon="15.6056041"><ele>5.0</ele><time>2026-05-01T16:07:49.981Z</time></trkpt><trkpt lat="40.0746046" lon="15.6055549"><ele>5.0</ele><time>2026-05-01T16:08:05.98Z</time></trkpt><trkpt lat="40.0746559" lon="15.6054764"><ele>5.0</ele><time>2026-05-01T16:08:26.98Z</time></trkpt><trkpt lat="40.0745859" lon="15.6054942"><ele>5.0</ele><time>2026-05-01T16:08:47.981Z</time></trkpt><trkpt lat="40.0745177" lon="15.6055012"><ele>5.0</ele><time>2026-05-01T16:08:55.981Z</time></trkpt><trkpt lat="40.0745781" lon="15.6054273"><ele>5.0</ele><time>2026-05-01T16:09:28.98Z</time></trkpt><trkpt lat="40.0746572" lon="15.6053673"><ele>5.0</ele><time>2026-05-01T16:09:39.98Z</time></trkpt><trkpt lat="40.0747105" lon="15.6053124"><ele>5.0</ele><time>2026-05-01T16:09:55.98Z</time></trkpt><trkpt lat="40.0746569" lon="15.6053562"><ele>5.0</ele><time>2026-05-01T16:11:07.98Z</time></trkpt><trkpt lat="40.0745788" lon="15.6054397"><ele>5.0</ele><time>2026-05-01T16:11:16.98Z</time></trkpt><trkpt lat="40.0745065" lon="15.6055191"><ele>5.0</ele><time>2026-05-01T16:11:39.981Z</time></trkpt><trkpt lat="40.0744661" lon="15.6055854"><ele>5.0</ele><time>2026-05-01T16:11:43.981Z</time></trkpt><trkpt lat="40.0745163" lon="15.6055319"><ele>5.0</ele><time>2026-05-01T16:11:52.98Z</time></trkpt><trkpt lat="40.074567" lon="15.6054817"><ele>5.0</ele><time>2026-05-01T16:11:57.981Z</time></trkpt><trkpt lat="40.0746019" lon="15.6053809"><ele>5.0</ele><time>2026-05-01T16:12:54.981Z</time></trkpt><trkpt lat="40.0746711" lon="15.6052987"><ele>5.0</ele><time>2026-05-01T16:13:16.98Z</time></trkpt><trkpt lat="40.0746407" lon="15.6053747"><ele>5.0</ele><time>2026-05-01T16:13:55.98Z</time></trkpt><trkpt lat="40.074517" lon="15.605459"><ele>5.0</ele><time>2026-05-01T16:15:56.98Z</time></trkpt><trkpt lat="40.0745652" lon="15.6053897"><ele>5.0</ele><time>2026-05-01T16:17:21.98Z</time></trkpt><trkpt lat="40.0745515" lon="15.6054736"><ele>5.0</ele><time>2026-05-01T16:19:05.98Z</time></trkpt><trkpt lat="40.0746325" lon="15.6054703"><ele>5.0</ele><time>2026-05-01T16:20:58.982Z</time></trkpt><trkpt lat="40.0746505" lon="15.605361"><ele>5.0</ele><time>2026-05-01T16:21:13.982Z</time></trkpt><trkpt lat="40.07468" lon="15.6052192"><ele>5.0</ele><time>2026-05-01T16:22:07.981Z</time></trkpt><trkpt lat="40.0746429" lon="15.6053303"><ele>5.0</ele><time>2026-05-01T16:23:03.981Z</time></trkpt><trkpt lat="40.0745854" lon="15.6054096"><ele>5.0</ele><time>2026-05-01T16:24:16.981Z</time></trkpt><trkpt lat="40.0745249" lon="15.6054496"><ele>5.0</ele><time>2026-05-01T16:24:43.981Z</time></trkpt><trkpt lat="40.0745811" lon="15.6054085"><ele>5.0</ele><time>2026-05-01T16:25:08.981Z</time></trkpt><trkpt lat="40.0745994" lon="15.6055042"><ele>5.0</ele><time>2026-05-01T16:25:37.982Z</time></trkpt><trkpt lat="40.0745291" lon="15.6055167"><ele>5.0</ele><time>2026-05-01T16:26:59.982Z</time></trkpt><trkpt lat="40.0744717" lon="15.6055721"><ele>5.0</ele><time>2026-05-01T16:27:04.981Z</time></trkpt><trkpt lat="40.0744069" lon="15.6056001"><ele>5.0</ele><time>2026-05-01T16:28:32.981Z</time></trkpt><trkpt lat="40.0744795" lon="15.6055756"><ele>5.0</ele><time>2026-05-01T16:28:45.982Z</time></trkpt><trkpt lat="40.0745621" lon="15.6055036"><ele>5.0</ele><time>2026-05-01T16:28:49.981Z</time></trkpt><trkpt lat="40.0746487" lon="15.6054325"><ele>5.0</ele><time>2026-05-01T16:28:52.981Z</time></trkpt><trkpt lat="40.0747452" lon="15.6053832"><ele>5.0</ele><time>2026-05-01T16:29:02.981Z</time></trkpt><trkpt lat="40.0747049" lon="15.6054749"><ele>5.0</ele><time>2026-05-01T16:29:14.981Z</time></trkpt><trkpt lat="40.0747581" lon="15.6053395"><ele>5.0</ele><time>2026-05-01T16:29:48.981Z</time></trkpt><trkpt lat="40.0747318" lon="15.6052614"><ele>5.0</ele><time>2026-05-01T16:29:55.982Z</time></trkpt><trkpt lat="40.0746565" lon="15.6053621"><ele>5.0</ele><time>2026-05-01T16:30:04.981Z</time></trkpt><trkpt lat="40.0746199" lon="15.6054901"><ele>5.0</ele><time>2026-05-01T16:30:21.982Z</time></trkpt><trkpt lat="40.0746703" lon="15.6056077"><ele>5.0</ele><time>2026-05-01T16:31:14.982Z</time></trkpt><trkpt lat="40.0745951" lon="15.6056551"><ele>5.0</ele><time>2026-05-01T16:31:19.982Z</time></trkpt><trkpt lat="40.0745353" lon="15.6056824"><ele>5.0</ele><time>2026-05-01T16:31:22.981Z</time></trkpt><trkpt lat="40.0746144" lon="15.6055942"><ele>5.0</ele><time>2026-05-01T16:31:33.981Z</time></trkpt><trkpt lat="40.0746772" lon="15.6055188"><ele>5.0</ele><time>2026-05-01T16:31:36.982Z</time></trkpt><trkpt lat="40.0747088" lon="15.6054073"><ele>5.0</ele><time>2026-05-01T16:33:04.981Z</time></trkpt><trkpt lat="40.0747359" lon="15.6055529"><ele>5.0</ele><time>2026-05-01T16:33:36.981Z</time></trkpt><trkpt lat="40.0746317" lon="15.6056045"><ele>5.0</ele><time>2026-05-01T16:33:42.982Z</time></trkpt><trkpt lat="40.0745598" lon="15.6054927"><ele>5.0</ele><time>2026-05-01T16:34:36.981Z</time></trkpt><trkpt lat="40.0746302" lon="15.6055024"><ele>5.0</ele><time>2026-05-01T16:34:51.981Z</time></trkpt><trkpt lat="40.0745739" lon="15.6055512"><ele>5.0</ele><time>2026-05-01T16:35:59.982Z</time></trkpt><trkpt lat="40.0745751" lon="15.6054375"><ele>5.0</ele><time>2026-05-01T16:37:19.981Z</time></trkpt><trkpt lat="40.0745405" lon="15.6055103"><ele>5.0</ele><time>2026-05-01T16:38:28.982Z</time></trkpt><trkpt lat="40.0745617" lon="15.6055959"><ele>5.0</ele><time>2026-05-01T16:41:25.981Z</time></trkpt><trkpt lat="40.0745136" lon="15.6055415"><ele>5.0</ele><time>2026-05-01T16:42:00.982Z</time></trkpt><trkpt lat="40.0745826" lon="15.6055094"><ele>5.0</ele><time>2026-05-01T16:42:51.981Z</time></trkpt><trkpt lat="40.0746335" lon="15.6054283"><ele>5.0</ele><time>2026-05-01T16:45:14.982Z</time></trkpt><trkpt lat="40.0745748" lon="15.605541"><ele>5.0</ele><time>2026-05-01T16:50:02.982Z</time></trkpt><trkpt lat="40.0744816" lon="15.6055165"><ele>5.0</ele><time>2026-05-01T16:50:19.982Z</time></trkpt><trkpt lat="40.0745389" lon="15.6054578"><ele>5.0</ele><time>2026-05-01T16:55:20.982Z</time></trkpt><trkpt lat="40.0746159" lon="15.6055341"><ele>5.0</ele><time>2026-05-01T16:55:52.982Z</time></trkpt><trkpt lat="40.0746253" lon="15.60562"><ele>5.0</ele><time>2026-05-01T16:56:32.982Z</time></trkpt><trkpt lat="40.0745871" lon="15.6055432"><ele>5.0</ele><time>2026-05-01T16:56:59.982Z</time></trkpt><trkpt lat="40.0746091" lon="15.6054449"><ele>5.0</ele><time>2026-05-01T16:59:28.983Z</time></trkpt><trkpt lat="40.0746497" lon="15.6053814"><ele>5.0</ele><time>2026-05-01T17:00:24.982Z</time></trkpt><trkpt lat="40.074741" lon="15.6053473"><ele>5.0</ele><time>2026-05-01T17:01:51.983Z</time></trkpt><trkpt lat="40.0747277" lon="15.6054367"><ele>5.0</ele><time>2026-05-01T17:02:51.983Z</time></trkpt><trkpt lat="40.0746348" lon="15.6054201"><ele>5.0</ele><time>2026-05-01T17:04:29.982Z</time></trkpt><trkpt lat="40.0745438" lon="15.6054271"><ele>5.0</ele><time>2026-05-01T17:06:28.983Z</time></trkpt><trkpt lat="40.074564" lon="15.6055111"><ele>5.0</ele><time>2026-05-01T17:08:05.983Z</time></trkpt><trkpt lat="40.0746325" lon="15.6054475"><ele>5.0</ele><time>2026-05-01T17:10:49.983Z</time></trkpt><trkpt lat="40.0746098" lon="15.605366"><ele>5.0</ele><time>2026-05-01T17:22:45.985Z</time></trkpt><trkpt lat="40.0746887" lon="15.6053963"><ele>5.0</ele><time>2026-05-01T17:33:00.984Z</time></trkpt><trkpt lat="40.0746342" lon="15.6053291"><ele>5.0</ele><time>2026-05-01T17:40:38.986Z</time></trkpt><trkpt lat="40.0746072" lon="15.6054302"><ele>5.0</ele><time>2026-05-01T17:40:43.986Z</time></trkpt><trkpt lat="40.074524" lon="15.6055115"><ele>5.0</ele><time>2026-05-01T17:44:57.985Z</time></trkpt><trkpt lat="40.0745996" lon="15.6054793"><ele>5.0</ele><time>2026-05-01T17:46:13.985Z</time></trkpt><trkpt lat="40.0746357" lon="15.6054019"><ele>5.0</ele><time>2026-05-01T17:46:22.985Z</time></trkpt><trkpt lat="40.0745319" lon="15.6054417"><ele>5.0</ele><time>2026-05-01T17:47:23.985Z</time></trkpt><trkpt lat="40.0746085" lon="15.6053714"><ele>5.0</ele><time>2026-05-01T17:51:26.986Z</time></trkpt><trkpt lat="40.0745469" lon="15.6055546"><ele>5.0</ele><time>2026-05-01T17:59:14.987Z</time></trkpt><trkpt lat="40.0745237" lon="15.6054476"><ele>5.0</ele><time>2026-05-01T18:00:47.986Z</time></trkpt><trkpt lat="40.0745892" lon="15.6053552"><ele>5.0</ele><time>2026-05-01T18:01:40.987Z</time></trkpt><trkpt lat="40.0746729" lon="15.605264"><ele>5.0</ele><time>2026-05-01T18:01:51.987Z</time></trkpt><trkpt lat="40.0747891" lon="15.6052168"><ele>5.0</ele><time>2026-05-01T18:03:27.987Z</time></trkpt><trkpt lat="40.074736" lon="15.6052946"><ele>5.0</ele><time>2026-05-01T18:05:38.987Z</time></trkpt><trkpt lat="40.0746708" lon="15.6053095"><ele>5.0</ele><time>2026-05-01T18:06:34.987Z</time></trkpt><trkpt lat="40.0746315" lon="15.6054341"><ele>5.0</ele><time>2026-05-01T18:24:46.989Z</time></trkpt><trkpt lat="40.0745686" lon="15.6055241"><ele>5.0</ele><time>2026-05-01T18:25:25.989Z</time></trkpt><trkpt lat="40.0746383" lon="15.605539"><ele>5.0</ele><time>2026-05-01T18:25:48.988Z</time></trkpt><trkpt lat="40.074703" lon="15.6055001"><ele>5.0</ele><time>2026-05-01T18:25:58.988Z</time></trkpt><trkpt lat="40.0746248" lon="15.6055112"><ele>5.0</ele><time>2026-05-01T18:26:25.989Z</time></trkpt><trkpt lat="40.0746257" lon="15.6054233"><ele>5.0</ele><time>2026-05-01T18:27:03.988Z</time></trkpt><trkpt lat="40.0745992" lon="15.6055055"><ele>5.0</ele><time>2026-05-01T18:27:36.988Z</time></trkpt><trkpt lat="40.0746092" lon="15.6054153"><ele>5.0</ele><time>2026-05-01T18:39:47.989Z</time></trkpt><trkpt lat="40.0746574" lon="15.60536"><ele>5.0</ele><time>2026-05-01T18:39:50.989Z</time></trkpt><trkpt lat="40.0745781" lon="15.6054116"><ele>5.0</ele><time>2026-05-01T18:41:02.99Z</time></trkpt><trkpt lat="40.074535" lon="15.6054909"><ele>5.0</ele><time>2026-05-01T18:41:50.989Z</time></trkpt><trkpt lat="40.0745947" lon="15.6054244"><ele>5.0</ele><time>2026-05-01T18:43:37.991Z</time></trkpt><trkpt lat="40.0746598" lon="15.6053432"><ele>5.0</ele><time>2026-05-01T18:49:38.99Z</time></trkpt><trkpt lat="40.0746368" lon="15.6054314"><ele>5.0</ele><time>2026-05-01T18:50:07.99Z</time></trkpt><trkpt lat="40.0745732" lon="15.6054992"><ele>5.0</ele><time>2026-05-01T18:58:50.992Z</time></trkpt><trkpt lat="40.0746101" lon="15.6054304"><ele>5.0</ele><time>2026-05-01T19:07:15.992Z</time></trkpt><trkpt lat="40.074558" lon="15.605477"><ele>5.0</ele><time>2026-05-01T19:09:19.993Z</time></trkpt><trkpt lat="40.0745798" lon="15.6053895"><ele>5.0</ele><time>2026-05-01T19:11:04.993Z</time></trkpt><trkpt lat="40.0746459" lon="15.6053198"><ele>5.0</ele><time>2026-05-01T19:12:36.992Z</time></trkpt><trkpt lat="40.0746333" lon="15.6054061"><ele>5.0</ele><time>2026-05-01T19:13:30.993Z</time></trkpt><trkpt lat="40.0745675" lon="15.6054133"><ele>5.0</ele><time>2026-05-01T19:18:25.993Z</time></trkpt><trkpt lat="40.0746464" lon="15.6053637"><ele>5.0</ele><time>2026-05-01T19:21:31.993Z</time></trkpt><trkpt lat="40.0745869" lon="15.6054106"><ele>5.0</ele><time>2026-05-01T19:24:31.993Z</time></trkpt><trkpt lat="40.074638" lon="15.6053496"><ele>5.0</ele><time>2026-05-01T19:26:55.993Z</time></trkpt><trkpt lat="40.0745957" lon="15.6054407"><ele>5.0</ele><time>2026-05-01T19:35:20.995Z</time></trkpt><trkpt lat="40.0746599" lon="15.6054131"><ele>5.0</ele><time>2026-05-01T19:42:00.994Z</time></trkpt><trkpt lat="40.0747264" lon="15.6053363"><ele>5.0</ele><time>2026-05-01T19:45:10.995Z</time></trkpt><trkpt lat="40.0747088" lon="15.6052524"><ele>5.0</ele><time>2026-05-01T19:47:21.994Z</time></trkpt><trkpt lat="40.0746547" lon="15.6053063"><ele>5.0</ele><time>2026-05-01T19:51:57.995Z</time></trkpt><trkpt lat="40.0745877" lon="15.6054164"><ele>5.0</ele><time>2026-05-01T19:53:13.995Z</time></trkpt><trkpt lat="40.0746485" lon="15.6053594"><ele>5.0</ele><time>2026-05-01T20:01:35.996Z</time></trkpt><trkpt lat="40.0745932" lon="15.6054264"><ele>5.0</ele><time>2026-05-01T20:04:13.997Z</time></trkpt><trkpt lat="40.0746677" lon="15.6054031"><ele>5.0</ele><time>2026-05-01T20:19:03.997Z</time></trkpt><trkpt lat="40.0746208" lon="15.6054588"><ele>5.0</ele><time>2026-05-01T20:22:42.998Z</time></trkpt><trkpt lat="40.0745645" lon="15.6055035"><ele>5.0</ele><time>2026-05-01T20:23:07.997Z</time></trkpt><trkpt lat="40.0746346" lon="15.6054542"><ele>5.0</ele><time>2026-05-01T20:23:16.998Z</time></trkpt><trkpt lat="40.0747" lon="15.6053379"><ele>5.0</ele><time>2026-05-01T20:24:58.998Z</time></trkpt><trkpt lat="40.0746462" lon="15.6054166"><ele>5.0</ele><time>2026-05-01T20:25:38.997Z</time></trkpt><trkpt lat="40.0745893" lon="15.6054972"><ele>5.0</ele><time>2026-05-01T20:26:28.997Z</time></trkpt><trkpt lat="40.0746219" lon="15.6053719"><ele>5.0</ele><time>2026-05-01T20:26:54.998Z</time></trkpt><trkpt lat="40.0745698" lon="15.6054854"><ele>5.0</ele><time>2026-05-01T20:28:45.998Z</time></trkpt><trkpt lat="40.0744906" lon="15.6055728"><ele>5.0</ele><time>2026-05-01T20:28:59.998Z</time></trkpt><trkpt lat="40.0744425" lon="15.6056287"><ele>5.0</ele><time>2026-05-01T20:29:02.999Z</time></trkpt><trkpt lat="40.0743874" lon="15.6056758"><ele>5.0</ele><time>2026-05-01T20:29:10.999Z</time></trkpt><trkpt lat="40.0744517" lon="15.6056717"><ele>5.0</ele><time>2026-05-01T20:29:22.998Z</time></trkpt><trkpt lat="40.0745278" lon="15.6056618"><ele>5.0</ele><time>2026-05-01T20:29:23.998Z</time></trkpt><trkpt lat="40.0746048" lon="15.605607"><ele>5.0</ele><time>2026-05-01T20:29:33.998Z</time></trkpt><trkpt lat="40.0745716" lon="15.6054995"><ele>5.0</ele><time>2026-05-01T20:32:32.998Z</time></trkpt><trkpt lat="40.0746944" lon="15.6055031"><ele>5.0</ele><time>2026-05-01T20:36:21.999Z</time></trkpt><trkpt lat="40.0747222" lon="15.6053905"><ele>5.0</ele><time>2026-05-01T20:36:48.998Z</time></trkpt><trkpt lat="40.0746293" lon="15.6054601"><ele>5.0</ele><time>2026-05-01T20:42:08Z</time></trkpt><trkpt lat="40.0745456" lon="15.6055151"><ele>5.0</ele><time>2026-05-01T20:44:25.999Z</time></trkpt><trkpt lat="40.0746112" lon="15.6054852"><ele>5.0</ele><time>2026-05-01T20:45:12Z</time></trkpt><trkpt lat="40.0745462" lon="15.6054835"><ele>5.0</ele><time>2026-05-01T20:48:28.999Z</time></trkpt><trkpt lat="40.0746515" lon="15.6054679"><ele>5.0</ele><time>2026-05-01T20:48:53.999Z</time></trkpt><trkpt lat="40.0746321" lon="15.6053642"><ele>5.0</ele><time>2026-05-01T20:49:36Z</time></trkpt><trkpt lat="40.0745673" lon="15.6053401"><ele>5.0</ele><time>2026-05-01T20:49:37.999Z</time></trkpt><trkpt lat="40.0745658" lon="15.6054269"><ele>5.0</ele><time>2026-05-01T20:50:22Z</time></trkpt><trkpt lat="40.0745473" lon="15.6055151"><ele>5.0</ele><time>2026-05-01T20:50:25.999Z</time></trkpt><trkpt lat="40.0744649" lon="15.6055914"><ele>5.0</ele><time>2026-05-01T20:50:33Z</time></trkpt><trkpt lat="40.0743924" lon="15.6056226"><ele>5.0</ele><time>2026-05-01T20:50:34.999Z</time></trkpt><trkpt lat="40.0744521" lon="15.6055223"><ele>5.0</ele><time>2026-05-01T20:50:35.999Z</time></trkpt><trkpt lat="40.0744775" lon="15.6054413"><ele>5.0</ele><time>2026-05-01T20:50:52.999Z</time></trkpt><trkpt lat="40.0745337" lon="15.6053903"><ele>5.0</ele><time>2026-05-01T20:50:57.999Z</time></trkpt><trkpt lat="40.0746206" lon="15.6053624"><ele>5.0</ele><time>2026-05-01T20:51:31.999Z</time></trkpt><trkpt lat="40.074717" lon="15.6053131"><ele>5.0</ele><time>2026-05-01T20:53:14.999Z</time></trkpt><trkpt lat="40.0746814" lon="15.6054109"><ele>5.0</ele><time>2026-05-01T20:54:04.001Z</time></trkpt><trkpt lat="40.074698" lon="15.6053203"><ele>5.0</ele><time>2026-05-01T20:58:53Z</time></trkpt><trkpt lat="40.0746751" lon="15.6054015"><ele>5.0</ele><time>2026-05-01T21:00:53Z</time></trkpt><trkpt lat="40.0747072" lon="15.6052797"><ele>5.0</ele><time>2026-05-01T21:11:20.002Z</time></trkpt><trkpt lat="40.0746816" lon="15.6053796"><ele>5.0</ele><time>2026-05-01T21:11:57.001Z</time></trkpt><trkpt lat="40.0746357" lon="15.6054516"><ele>5.0</ele><time>2026-05-01T21:12:00.001Z</time></trkpt><trkpt lat="40.074572" lon="15.6054741"><ele>5.0</ele><time>2026-05-01T21:16:23.002Z</time></trkpt><trkpt lat="40.0745315" lon="15.6055832"><ele>5.0</ele><time>2026-05-01T21:19:18.002Z</time></trkpt><trkpt lat="40.0744958" lon="15.6056639"><ele>5.0</ele><time>2026-05-01T21:21:05.001Z</time></trkpt><trkpt lat="40.0744609" lon="15.6057332"><ele>5.0</ele><time>2026-05-01T21:21:10.001Z</time></trkpt><trkpt lat="40.0745098" lon="15.6056133"><ele>5.0</ele><time>2026-05-01T21:22:42.002Z</time></trkpt><trkpt lat="40.074557" lon="15.6055496"><ele>5.0</ele><time>2026-05-01T21:22:51.002Z</time></trkpt><trkpt lat="40.0746247" lon="15.605427"><ele>5.0</ele><time>2026-05-01T21:29:45.002Z</time></trkpt><trkpt lat="40.0745778" lon="15.6055012"><ele>5.0</ele><time>2026-05-01T21:36:10.003Z</time></trkpt><trkpt lat="40.0745989" lon="15.6054101"><ele>5.0</ele><time>2026-05-01T21:47:43.003Z</time></trkpt><trkpt lat="40.074671" lon="15.6053634"><ele>5.0</ele><time>2026-05-01T21:49:09.005Z</time></trkpt><trkpt lat="40.0746295" lon="15.6054591"><ele>5.0</ele><time>2026-05-01T21:54:22.004Z</time></trkpt><trkpt lat="40.0745714" lon="15.6054921"><ele>5.0</ele><time>2026-05-01T21:54:26.004Z</time></trkpt><trkpt lat="40.0746225" lon="15.6053963"><ele>5.0</ele><time>2026-05-01T21:56:42.005Z</time></trkpt><trkpt lat="40.0746984" lon="15.6053601"><ele>5.0</ele><time>2026-05-01T22:01:15.004Z</time></trkpt><trkpt lat="40.074622" lon="15.6054109"><ele>5.0</ele><time>2026-05-01T22:01:58.005Z</time></trkpt><trkpt lat="40.0746832" lon="15.6053688"><ele>5.0</ele><time>2026-05-01T22:02:32.006Z</time></trkpt><trkpt lat="40.0746155" lon="15.6054136"><ele>5.0</ele><time>2026-05-01T22:05:16.005Z</time></trkpt><trkpt lat="40.0745498" lon="15.605454"><ele>5.0</ele><time>2026-05-01T22:07:19.006Z</time></trkpt><trkpt lat="40.0744502" lon="15.6055654"><ele>5.0</ele><time>2026-05-01T22:07:38.006Z</time></trkpt><trkpt lat="40.0744952" lon="15.6054984"><ele>5.0</ele><time>2026-05-01T22:08:17.005Z</time></trkpt><trkpt lat="40.0745609" lon="15.6054265"><ele>5.0</ele><time>2026-05-01T22:08:19.005Z</time></trkpt><trkpt lat="40.074623" lon="15.6053866"><ele>5.0</ele><time>2026-05-01T22:09:17.005Z</time></trkpt><trkpt lat="40.0746796" lon="15.6053436"><ele>5.0</ele><time>2026-05-01T22:09:29.005Z</time></trkpt><trkpt lat="40.0745869" lon="15.605415"><ele>5.0</ele><time>2026-05-01T22:09:49.005Z</time></trkpt><trkpt lat="40.0746417" lon="15.605497"><ele>5.0</ele><time>2026-05-01T22:14:41.005Z</time></trkpt><trkpt lat="40.0747134" lon="15.6054194"><ele>5.0</ele><time>2026-05-01T22:15:52.006Z</time></trkpt><trkpt lat="40.0747454" lon="15.6053117"><ele>5.0</ele><time>2026-05-01T22:16:51.006Z</time></trkpt><trkpt lat="40.0746864" lon="15.6053769"><ele>5.0</ele><time>2026-05-01T22:17:47.006Z</time></trkpt><trkpt lat="40.074618" lon="15.6054883"><ele>5.0</ele><time>2026-05-01T22:20:04.006Z</time></trkpt><trkpt lat="40.0746049" lon="15.6056213"><ele>5.0</ele><time>2026-05-01T22:22:31.007Z</time></trkpt><trkpt lat="40.074617" lon="15.6055244"><ele>5.0</ele><time>2026-05-01T22:24:06.006Z</time></trkpt><trkpt lat="40.0745547" lon="15.605607"><ele>5.0</ele><time>2026-05-01T22:25:06.006Z</time></trkpt><trkpt lat="40.0745268" lon="15.6056977"><ele>5.0</ele><time>2026-05-01T22:25:09.007Z</time></trkpt><trkpt lat="40.0745161" lon="15.6057975"><ele>5.0</ele><time>2026-05-01T22:25:16.006Z</time></trkpt><trkpt lat="40.0745535" lon="15.6057192"><ele>5.0</ele><time>2026-05-01T22:25:21.006Z</time></trkpt><trkpt lat="40.0745797" lon="15.6055878"><ele>5.0</ele><time>2026-05-01T22:25:26.006Z</time></trkpt><trkpt lat="40.0745984" lon="15.6054913"><ele>5.0</ele><time>2026-05-01T22:25:29.006Z</time></trkpt><trkpt lat="40.0745805" lon="15.6055825"><ele>5.0</ele><time>2026-05-01T22:25:56.006Z</time></trkpt><trkpt lat="40.0745926" lon="15.6054565"><ele>5.0</ele><time>2026-05-01T22:26:09.006Z</time></trkpt><trkpt lat="40.0745562" lon="15.605525"><ele>5.0</ele><time>2026-05-01T22:26:47.006Z</time></trkpt><trkpt lat="40.0746066" lon="15.6054457"><ele>5.0</ele><time>2026-05-01T22:27:27.006Z</time></trkpt><trkpt lat="40.0746719" lon="15.605432"><ele>5.0</ele><time>2026-05-01T22:27:36.006Z</time></trkpt><trkpt lat="40.0746078" lon="15.6053837"><ele>5.0</ele><time>2026-05-01T22:28:21.006Z</time></trkpt><trkpt lat="40.0746499" lon="15.6054461"><ele>5.0</ele><time>2026-05-01T22:29:03.006Z</time></trkpt><trkpt lat="40.0746822" lon="15.6055169"><ele>5.0</ele><time>2026-05-01T22:29:09.006Z</time></trkpt><trkpt lat="40.0746632" lon="15.6056102"><ele>5.0</ele><time>2026-05-01T22:29:23.008Z</time></trkpt><trkpt lat="40.0746158" lon="15.6057719"><ele>5.0</ele><time>2026-05-01T22:29:45.007Z</time></trkpt><trkpt lat="40.0746256" lon="15.6056151"><ele>5.0</ele><time>2026-05-01T22:29:53.008Z</time></trkpt><trkpt lat="40.0745866" lon="15.605691"><ele>5.0</ele><time>2026-05-01T22:29:54.008Z</time></trkpt><trkpt lat="40.0746089" lon="15.6055775"><ele>5.0</ele><time>2026-05-01T22:29:55.007Z</time></trkpt><trkpt lat="40.0745221" lon="15.6055854"><ele>5.0</ele><time>2026-05-01T22:30:10.007Z</time></trkpt><trkpt lat="40.0745188" lon="15.6057058"><ele>5.0</ele><time>2026-05-01T22:30:38.007Z</time></trkpt><trkpt lat="40.0745675" lon="15.6055786"><ele>5.0</ele><time>2026-05-01T22:31:21.008Z</time></trkpt><trkpt lat="40.0746001" lon="15.6055011"><ele>5.0</ele><time>2026-05-01T22:32:41.007Z</time></trkpt><trkpt lat="40.0746297" lon="15.6054025"><ele>5.0</ele><time>2026-05-01T22:33:04.007Z</time></trkpt><trkpt lat="40.0745953" lon="15.6055018"><ele>5.0</ele><time>2026-05-01T22:34:32.008Z</time></trkpt><trkpt lat="40.0746631" lon="15.6054648"><ele>5.0</ele><time>2026-05-01T22:36:50.007Z</time></trkpt><trkpt lat="40.0745938" lon="15.6055788"><ele>5.0</ele><time>2026-05-01T22:37:02.008Z</time></trkpt><trkpt lat="40.0746433" lon="15.6055278"><ele>5.0</ele><time>2026-05-01T22:37:48.007Z</time></trkpt><trkpt lat="40.074691" lon="15.6054562"><ele>5.0</ele><time>2026-05-01T22:38:06.007Z</time></trkpt><trkpt lat="40.0747048" lon="15.6053653"><ele>5.0</ele><time>2026-05-01T22:38:30.008Z</time></trkpt><trkpt lat="40.0747398" lon="15.6052912"><ele>5.0</ele><time>2026-05-01T22:38:33.007Z</time></trkpt><trkpt lat="40.074686" lon="15.6053654"><ele>5.0</ele><time>2026-05-01T22:38:43.008Z</time></trkpt><trkpt lat="40.0746233" lon="15.6054291"><ele>5.0</ele><time>2026-05-01T22:38:46.008Z</time></trkpt><trkpt lat="40.0745716" lon="15.6054772"><ele>5.0</ele><time>2026-05-01T22:39:09.008Z</time></trkpt><trkpt lat="40.0745035" lon="15.6055211"><ele>5.0</ele><time>2026-05-01T22:39:19.007Z</time></trkpt><trkpt lat="40.0744246" lon="15.6056045"><ele>5.0</ele><time>2026-05-01T22:39:26.008Z</time></trkpt><trkpt lat="40.0744988" lon="15.6055577"><ele>5.0</ele><time>2026-05-01T22:40:05.008Z</time></trkpt><trkpt lat="40.0746226" lon="15.6054672"><ele>5.0</ele><time>2026-05-01T22:40:41.007Z</time></trkpt><trkpt lat="40.0746214" lon="15.6053776"><ele>5.0</ele><time>2026-05-01T22:42:15.008Z</time></trkpt><trkpt lat="40.0745511" lon="15.6054894"><ele>5.0</ele><time>2026-05-01T22:43:05.008Z</time></trkpt><trkpt lat="40.0744781" lon="15.6056151"><ele>5.0</ele><time>2026-05-01T22:43:24.009Z</time></trkpt><trkpt lat="40.0745661" lon="15.6055003"><ele>5.0</ele><time>2026-05-01T22:49:02.008Z</time></trkpt><trkpt lat="40.0746541" lon="15.6054031"><ele>5.0</ele><time>2026-05-01T22:50:04.008Z</time></trkpt><trkpt lat="40.074589" lon="15.6054454"><ele>5.0</ele><time>2026-05-01T22:50:23.009Z</time></trkpt><trkpt lat="40.0745249" lon="15.605448"><ele>5.0</ele><time>2026-05-01T22:50:59.008Z</time></trkpt><trkpt lat="40.074486" lon="15.605522"><ele>5.0</ele><time>2026-05-01T22:51:51.008Z</time></trkpt><trkpt lat="40.0744628" lon="15.6055987"><ele>5.0</ele><time>2026-05-01T22:51:57.008Z</time></trkpt><trkpt lat="40.0745283" lon="15.6055608"><ele>5.0</ele><time>2026-05-01T22:52:47.008Z</time></trkpt><trkpt lat="40.0745702" lon="15.6054975"><ele>5.0</ele><time>2026-05-01T22:53:01.008Z</time></trkpt><trkpt lat="40.0745183" lon="15.6055667"><ele>5.0</ele><time>2026-05-01T22:53:36.008Z</time></trkpt><trkpt lat="40.0745725" lon="15.6054814"><ele>5.0</ele><time>2026-05-01T22:54:35.009Z</time></trkpt><trkpt lat="40.074558" lon="15.6055952"><ele>5.0</ele><time>2026-05-01T22:57:42.01Z</time></trkpt><trkpt lat="40.0746031" lon="15.6055247"><ele>5.0</ele><time>2026-05-01T22:57:52.009Z</time></trkpt><trkpt lat="40.0745656" lon="15.6055941"><ele>5.0</ele><time>2026-05-01T22:59:08.01Z</time></trkpt><trkpt lat="40.074538" lon="15.6057049"><ele>5.0</ele><time>2026-05-01T22:59:19.009Z</time></trkpt><trkpt lat="40.0746135" lon="15.6056451"><ele>5.0</ele><time>2026-05-01T22:59:33.009Z</time></trkpt><trkpt lat="40.0746859" lon="15.6055221"><ele>5.0</ele><time>2026-05-01T23:00:08.009Z</time></trkpt><trkpt lat="40.0747346" lon="15.6054678"><ele>5.0</ele><time>2026-05-01T23:00:12.009Z</time></trkpt><trkpt lat="40.0746889" lon="15.6055374"><ele>5.0</ele><time>2026-05-01T23:00:47.01Z</time></trkpt><trkpt lat="40.0746274" lon="15.6056085"><ele>5.0</ele><time>2026-05-01T23:01:35.009Z</time></trkpt><trkpt lat="40.0746489" lon="15.6055288"><ele>5.0</ele><time>2026-05-01T23:01:43.977Z</time></trkpt><trkpt lat="40.0746748" lon="15.6054172"><ele>5.0</ele><time>2026-05-01T23:02:30.009Z</time></trkpt><trkpt lat="40.074648" lon="15.6054947"><ele>5.0</ele><time>2026-05-01T23:03:05.009Z</time></trkpt><trkpt lat="40.0745965" lon="15.6056351"><ele>5.0</ele><time>2026-05-01T23:04:35.009Z</time></trkpt><trkpt lat="40.0746133" lon="15.6055555"><ele>5.0</ele><time>2026-05-01T23:04:50.009Z</time></trkpt><trkpt lat="40.0746076" lon="15.6054661"><ele>5.0</ele><time>2026-05-01T23:05:15.009Z</time></trkpt><trkpt lat="40.0745935" lon="15.6055617"><ele>5.0</ele><time>2026-05-01T23:06:03.009Z</time></trkpt><trkpt lat="40.0746484" lon="15.6054691"><ele>5.0</ele><time>2026-05-01T23:07:00.009Z</time></trkpt><trkpt lat="40.0746698" lon="15.6055517"><ele>5.0</ele><time>2026-05-01T23:10:55.01Z</time></trkpt><trkpt lat="40.0746019" lon="15.6055354"><ele>5.0</ele><time>2026-05-01T23:11:54.01Z</time></trkpt><trkpt lat="40.0746112" lon="15.6056208"><ele>5.0</ele><time>2026-05-01T23:14:18.011Z</time></trkpt><trkpt lat="40.0745851" lon="15.6055131"><ele>5.0</ele><time>2026-05-01T23:17:57.011Z</time></trkpt><trkpt lat="40.0745776" lon="15.6055964"><ele>5.0</ele><time>2026-05-01T23:18:33.011Z</time></trkpt><trkpt lat="40.0745827" lon="15.6055082"><ele>5.0</ele><time>2026-05-01T23:20:06.011Z</time></trkpt><trkpt lat="40.0746102" lon="15.6054207"><ele>5.0</ele><time>2026-05-01T23:20:10.01Z</time></trkpt><trkpt lat="40.0745463" lon="15.6054858"><ele>5.0</ele><time>2026-05-01T23:33:08.011Z</time></trkpt><trkpt lat="40.0745856" lon="15.6054159"><ele>5.0</ele><time>2026-05-01T23:37:51.013Z</time></trkpt><trkpt lat="40.0746491" lon="15.605337"><ele>5.0</ele><time>2026-05-01T23:46:38.012Z</time></trkpt><trkpt lat="40.0747104" lon="15.6053673"><ele>5.0</ele><time>2026-05-01T23:47:29.012Z</time></trkpt><trkpt lat="40.0746517" lon="15.6054351"><ele>5.0</ele><time>2026-05-01T23:48:11.012Z</time></trkpt><trkpt lat="40.074763" lon="15.6053747"><ele>5.0</ele><time>2026-05-01T23:49:40.012Z</time></trkpt><trkpt lat="40.0747065" lon="15.6054416"><ele>5.0</ele><time>2026-05-01T23:50:22.012Z</time></trkpt><trkpt lat="40.0746801" lon="15.6055223"><ele>5.0</ele><time>2026-05-01T23:50:43.013Z</time></trkpt><trkpt lat="40.0746434" lon="15.6054395"><ele>5.0</ele><time>2026-05-01T23:58:20.014Z</time></trkpt><trkpt lat="40.0745811" lon="15.6054857"><ele>5.0</ele><time>2026-05-02T00:08:17.015Z</time></trkpt><trkpt lat="40.0746151" lon="15.6053931"><ele>5.0</ele><time>2026-05-02T00:21:41.016Z</time></trkpt><trkpt lat="40.0746977" lon="15.6053569"><ele>5.0</ele><time>2026-05-02T00:23:42.015Z</time></trkpt><trkpt lat="40.0747688" lon="15.6052342"><ele>5.0</ele><time>2026-05-02T00:24:14.016Z</time></trkpt><trkpt lat="40.0747214" lon="15.6052976"><ele>5.0</ele><time>2026-05-02T00:25:03.015Z</time></trkpt><trkpt lat="40.0746378" lon="15.6053704"><ele>5.0</ele><time>2026-05-02T00:26:47.015Z</time></trkpt><trkpt lat="40.0747039" lon="15.6053878"><ele>5.0</ele><time>2026-05-02T00:34:24.016Z</time></trkpt><trkpt lat="40.0746421" lon="15.6054403"><ele>5.0</ele><time>2026-05-02T00:35:38.016Z</time></trkpt><trkpt lat="40.0746057" lon="15.6055175"><ele>5.0</ele><time>2026-05-02T00:36:11.017Z</time></trkpt><trkpt lat="40.0745108" lon="15.6056028"><ele>5.0</ele><time>2026-05-02T00:39:13.016Z</time></trkpt><trkpt lat="40.0745797" lon="15.6055816"><ele>5.0</ele><time>2026-05-02T00:40:00.017Z</time></trkpt><trkpt lat="40.0746494" lon="15.6055419"><ele>5.0</ele><time>2026-05-02T00:40:05.016Z</time></trkpt><trkpt lat="40.0746732" lon="15.605415"><ele>5.0</ele><time>2026-05-02T00:40:58.016Z</time></trkpt><trkpt lat="40.0745741" lon="15.6054478"><ele>5.0</ele><time>2026-05-02T00:43:40.017Z</time></trkpt><trkpt lat="40.0745043" lon="15.6055123"><ele>5.0</ele><time>2026-05-02T00:45:19.018Z</time></trkpt><trkpt lat="40.0745544" lon="15.6054536"><ele>5.0</ele><time>2026-05-02T00:46:38.018Z</time></trkpt><trkpt lat="40.0745105" lon="15.6055892"><ele>5.0</ele><time>2026-05-02T00:52:18.017Z</time></trkpt><trkpt lat="40.0745759" lon="15.6055268"><ele>5.0</ele><time>2026-05-02T00:53:46.017Z</time></trkpt><trkpt lat="40.0746225" lon="15.6054501"><ele>5.0</ele><time>2026-05-02T00:56:34.018Z</time></trkpt><trkpt lat="40.074702" lon="15.6053444"><ele>5.0</ele><time>2026-05-02T00:58:32.018Z</time></trkpt><trkpt lat="40.0746175" lon="15.6054279"><ele>5.0</ele><time>2026-05-02T01:02:39.018Z</time></trkpt><trkpt lat="40.0745736" lon="15.6055047"><ele>5.0</ele><time>2026-05-02T01:03:01.019Z</time></trkpt><trkpt lat="40.074611" lon="15.6054274"><ele>5.0</ele><time>2026-05-02T01:04:01.018Z</time></trkpt><trkpt lat="40.0746633" lon="15.6053754"><ele>5.0</ele><time>2026-05-02T01:09:48.018Z</time></trkpt><trkpt lat="40.0746" lon="15.60546"><ele>5.0</ele><time>2026-05-02T01:12:33.019Z</time></trkpt><trkpt lat="40.0745535" lon="15.6056204"><ele>5.0</ele><time>2026-05-02T01:13:03.019Z</time></trkpt><trkpt lat="40.0746366" lon="15.6055415"><ele>5.0</ele><time>2026-05-02T01:13:55.02Z</time></trkpt><trkpt lat="40.0745896" lon="15.6056031"><ele>5.0</ele><time>2026-05-02T01:15:12.019Z</time></trkpt><trkpt lat="40.0746057" lon="15.6055005"><ele>5.0</ele><time>2026-05-02T01:15:58.02Z</time></trkpt><trkpt lat="40.0746776" lon="15.6055116"><ele>5.0</ele><time>2026-05-02T01:17:41.019Z</time></trkpt><trkpt lat="40.0746767" lon="15.6054093"><ele>5.0</ele><time>2026-05-02T01:19:09.02Z</time></trkpt><trkpt lat="40.0745697" lon="15.605478"><ele>5.0</ele><time>2026-05-02T01:20:43.019Z</time></trkpt><trkpt lat="40.0745207" lon="15.6055464"><ele>5.0</ele><time>2026-05-02T01:21:17.019Z</time></trkpt><trkpt lat="40.0746292" lon="15.6055009"><ele>5.0</ele><time>2026-05-02T01:22:27.019Z</time></trkpt><trkpt lat="40.0745957" lon="15.6056439"><ele>5.0</ele><time>2026-05-02T01:23:41.019Z</time></trkpt><trkpt lat="40.0745837" lon="15.6055219"><ele>5.0</ele><time>2026-05-02T01:24:19.019Z</time></trkpt><trkpt lat="40.0746963" lon="15.6054315"><ele>5.0</ele><time>2026-05-02T01:24:42.02Z</time></trkpt><trkpt lat="40.0746354" lon="15.6054724"><ele>5.0</ele><time>2026-05-02T01:25:20.02Z</time></trkpt><trkpt lat="40.0745729" lon="15.6054944"><ele>5.0</ele><time>2026-05-02T01:25:25.019Z</time></trkpt><trkpt lat="40.0745517" lon="15.6056731"><ele>5.0</ele><time>2026-05-02T01:25:49.019Z</time></trkpt><trkpt lat="40.0745881" lon="15.6056032"><ele>5.0</ele><time>2026-05-02T01:26:18.019Z</time></trkpt><trkpt lat="40.0746609" lon="15.6056045"><ele>5.0</ele><time>2026-05-02T01:26:34.02Z</time></trkpt><trkpt lat="40.0746805" lon="15.6054471"><ele>5.0</ele><time>2026-05-02T01:27:02.021Z</time></trkpt><trkpt lat="40.0747018" lon="15.6055313"><ele>5.0</ele><time>2026-05-02T01:27:55.02Z</time></trkpt><trkpt lat="40.0746431" lon="15.6055875"><ele>5.0</ele><time>2026-05-02T01:28:37.021Z</time></trkpt><trkpt lat="40.0745924" lon="15.605646"><ele>5.0</ele><time>2026-05-02T01:29:11.021Z</time></trkpt><trkpt lat="40.0745727" lon="15.6055059"><ele>5.0</ele><time>2026-05-02T01:29:22.021Z</time></trkpt><trkpt lat="40.0745802" lon="15.6054035"><ele>5.0</ele><time>2026-05-02T01:29:26.021Z</time></trkpt><trkpt lat="40.0746254" lon="15.6052867"><ele>5.0</ele><time>2026-05-02T01:29:37.02Z</time></trkpt><trkpt lat="40.0746486" lon="15.6053857"><ele>5.0</ele><time>2026-05-02T01:30:38.02Z</time></trkpt><trkpt lat="40.0746437" lon="15.6054869"><ele>5.0</ele><time>2026-05-02T01:31:26.021Z</time></trkpt><trkpt lat="40.0746723" lon="15.6053481"><ele>5.0</ele><time>2026-05-02T01:37:31.02Z</time></trkpt><trkpt lat="40.0747123" lon="15.6052715"><ele>5.0</ele><time>2026-05-02T01:39:35.021Z</time></trkpt><trkpt lat="40.0746672" lon="15.605329"><ele>5.0</ele><time>2026-05-02T01:40:55.021Z</time></trkpt><trkpt lat="40.0745971" lon="15.6054436"><ele>5.0</ele><time>2026-05-02T01:42:04.022Z</time></trkpt><trkpt lat="40.0745838" lon="15.6055939"><ele>5.0</ele><time>2026-05-02T01:44:21.022Z</time></trkpt><trkpt lat="40.0746578" lon="15.6055518"><ele>5.0</ele><time>2026-05-02T01:49:07.022Z</time></trkpt><trkpt lat="40.0746122" lon="15.6054077"><ele>5.0</ele><time>2026-05-02T01:58:15.022Z</time></trkpt><trkpt lat="40.0746384" lon="15.6054854"><ele>5.0</ele><time>2026-05-02T01:58:54.022Z</time></trkpt><trkpt lat="40.0746537" lon="15.6053924"><ele>5.0</ele><time>2026-05-02T01:59:22.022Z</time></trkpt><trkpt lat="40.0746575" lon="15.6054768"><ele>5.0</ele><time>2026-05-02T01:59:54.023Z</time></trkpt><trkpt lat="40.0745849" lon="15.605411"><ele>5.0</ele><time>2026-05-02T02:05:00.023Z</time></trkpt><trkpt lat="40.0745961" lon="15.605519"><ele>5.0</ele><time>2026-05-02T02:23:08.025Z</time></trkpt><trkpt lat="40.0746711" lon="15.605509"><ele>5.0</ele><time>2026-05-02T02:29:06.024Z</time></trkpt><trkpt lat="40.0746096" lon="15.6054612"><ele>5.0</ele><time>2026-05-02T02:30:00.024Z</time></trkpt><trkpt lat="40.0745956" lon="15.6055427"><ele>5.0</ele><time>2026-05-02T02:32:43.025Z</time></trkpt><trkpt lat="40.0746507" lon="15.6054755"><ele>5.0</ele><time>2026-05-02T02:34:16.026Z</time></trkpt><trkpt lat="40.0745921" lon="15.6055318"><ele>5.0</ele><time>2026-05-02T02:35:26.026Z</time></trkpt><trkpt lat="40.0746003" lon="15.6054339"><ele>5.0</ele><time>2026-05-02T02:38:25.025Z</time></trkpt><trkpt lat="40.0746007" lon="15.6055205"><ele>5.0</ele><time>2026-05-02T02:50:13.027Z</time></trkpt><trkpt lat="40.0745591" lon="15.6054456"><ele>5.0</ele><time>2026-05-02T02:50:45.027Z</time></trkpt><trkpt lat="40.0745968" lon="15.6053176"><ele>5.0</ele><time>2026-05-02T02:50:52.026Z</time></trkpt><trkpt lat="40.0746108" lon="15.605408"><ele>5.0</ele><time>2026-05-02T02:51:39.026Z</time></trkpt><trkpt lat="40.0745382" lon="15.6054756"><ele>5.0</ele><time>2026-05-02T02:51:59.026Z</time></trkpt><trkpt lat="40.0745935" lon="15.6055545"><ele>5.0</ele><time>2026-05-02T02:58:28.027Z</time></trkpt><trkpt lat="40.0745413" lon="15.605633"><ele>5.0</ele><time>2026-05-02T02:59:38.028Z</time></trkpt><trkpt lat="40.0745807" lon="15.6055188"><ele>5.0</ele><time>2026-05-02T02:59:48.027Z</time></trkpt><trkpt lat="40.0745159" lon="15.6055292"><ele>5.0</ele><time>2026-05-02T03:01:14.028Z</time></trkpt><trkpt lat="40.0745601" lon="15.6054556"><ele>5.0</ele><time>2026-05-02T03:01:43.027Z</time></trkpt><trkpt lat="40.074612" lon="15.6054068"><ele>5.0</ele><time>2026-05-02T03:02:45.027Z</time></trkpt><trkpt lat="40.0746572" lon="15.6054665"><ele>5.0</ele><time>2026-05-02T03:02:59.027Z</time></trkpt><trkpt lat="40.074577" lon="15.6054775"><ele>5.0</ele><time>2026-05-02T03:03:29.028Z</time></trkpt><trkpt lat="40.0745145" lon="15.6054477"><ele>5.0</ele><time>2026-05-02T03:03:47.028Z</time></trkpt><trkpt lat="40.074591" lon="15.6053866"><ele>5.0</ele><time>2026-05-02T03:04:22.027Z</time></trkpt><trkpt lat="40.0746276" lon="15.6054661"><ele>5.0</ele><time>2026-05-02T03:07:28.027Z</time></trkpt><trkpt lat="40.0747318" lon="15.6053343"><ele>5.0</ele><time>2026-05-02T03:08:42.028Z</time></trkpt><trkpt lat="40.0746875" lon="15.6054132"><ele>5.0</ele><time>2026-05-02T03:11:27.027Z</time></trkpt><trkpt lat="40.0746407" lon="15.6054838"><ele>5.0</ele><time>2026-05-02T03:11:51.028Z</time></trkpt><trkpt lat="40.0746938" lon="15.6054238"><ele>5.0</ele><time>2026-05-02T03:16:00.029Z</time></trkpt><trkpt lat="40.074618" lon="15.6054748"><ele>5.0</ele><time>2026-05-02T03:20:27.029Z</time></trkpt><trkpt lat="40.0746963" lon="15.6054322"><ele>5.0</ele><time>2026-05-02T03:21:06.029Z</time></trkpt><trkpt lat="40.0746251" lon="15.6054784"><ele>5.0</ele><time>2026-05-02T03:21:33.028Z</time></trkpt><trkpt lat="40.0745547" lon="15.6056091"><ele>5.0</ele><time>2026-05-02T03:26:05.029Z</time></trkpt><trkpt lat="40.074625" lon="15.6055029"><ele>5.0</ele><time>2026-05-02T03:26:16.029Z</time></trkpt><trkpt lat="40.0746747" lon="15.6053689"><ele>5.0</ele><time>2026-05-02T03:26:50.029Z</time></trkpt><trkpt lat="40.074572" lon="15.6054355"><ele>5.0</ele><time>2026-05-02T03:30:54.029Z</time></trkpt><trkpt lat="40.074646" lon="15.6054155"><ele>5.0</ele><time>2026-05-02T03:32:14.029Z</time></trkpt><trkpt lat="40.074615" lon="15.6054874"><ele>5.0</ele><time>2026-05-02T03:37:24.031Z</time></trkpt><trkpt lat="40.0746349" lon="15.6053949"><ele>5.0</ele><time>2026-05-02T03:38:45.94Z</time></trkpt><trkpt lat="40.0746201" lon="15.6054963"><ele>5.0</ele><time>2026-05-02T03:41:07.031Z</time></trkpt><trkpt lat="40.0745361" lon="15.6055043"><ele>5.0</ele><time>2026-05-02T03:43:57.031Z</time></trkpt><trkpt lat="40.0746035" lon="15.6054857"><ele>5.0</ele><time>2026-05-02T03:46:02.03Z</time></trkpt><trkpt lat="40.0746768" lon="15.6053774"><ele>5.0</ele><time>2026-05-02T03:57:17.031Z</time></trkpt><trkpt lat="40.0746153" lon="15.6054496"><ele>5.0</ele><time>2026-05-02T03:58:27.031Z</time></trkpt><trkpt lat="40.0746745" lon="15.6053815"><ele>5.0</ele><time>2026-05-02T04:00:19.031Z</time></trkpt><trkpt lat="40.0747469" lon="15.605333"><ele>5.0</ele><time>2026-05-02T04:02:41.033Z</time></trkpt><trkpt lat="40.0746568" lon="15.6054175"><ele>5.0</ele><time>2026-05-02T04:03:42.032Z</time></trkpt><trkpt lat="40.0746076" lon="15.605539"><ele>5.0</ele><time>2026-05-02T04:04:26.032Z</time></trkpt><trkpt lat="40.0745537" lon="15.6054847"><ele>5.0</ele><time>2026-05-02T04:08:15.032Z</time></trkpt><trkpt lat="40.07462" lon="15.6054849"><ele>5.0</ele><time>2026-05-02T04:12:22.032Z</time></trkpt><trkpt lat="40.074563" lon="15.6054384"><ele>5.0</ele><time>2026-05-02T04:18:46.033Z</time></trkpt><trkpt lat="40.0746334" lon="15.6054045"><ele>5.0</ele><time>2026-05-02T04:19:20.033Z</time></trkpt><trkpt lat="40.0745718" lon="15.6054468"><ele>5.0</ele><time>2026-05-02T04:20:24.034Z</time></trkpt><trkpt lat="40.0746491" lon="15.6054092"><ele>5.0</ele><time>2026-05-02T04:20:33.033Z</time></trkpt><trkpt lat="40.0745834" lon="15.6054486"><ele>5.0</ele><time>2026-05-02T04:27:37.033Z</time></trkpt><trkpt lat="40.074606" lon="15.605368"><ele>5.0</ele><time>2026-05-02T04:30:29.034Z</time></trkpt><trkpt lat="40.0745572" lon="15.6054448"><ele>5.0</ele><time>2026-05-02T04:32:30.034Z</time></trkpt><trkpt lat="40.074508" lon="15.6055084"><ele>5.0</ele><time>2026-05-02T04:34:33.034Z</time></trkpt><trkpt lat="40.0745267" lon="15.6054227"><ele>5.0</ele><time>2026-05-02T04:37:29.035Z</time></trkpt><trkpt lat="40.0745713" lon="15.6055114"><ele>5.0</ele><time>2026-05-02T04:50:14.035Z</time></trkpt><trkpt lat="40.0745997" lon="15.605397"><ele>5.0</ele><time>2026-05-02T04:50:38.035Z</time></trkpt><trkpt lat="40.0745238" lon="15.6054378"><ele>5.0</ele><time>2026-05-02T04:51:20.035Z</time></trkpt><trkpt lat="40.0744702" lon="15.6055995"><ele>5.0</ele><time>2026-05-02T04:52:06.035Z</time></trkpt><trkpt lat="40.0744252" lon="15.6056616"><ele>5.0</ele><time>2026-05-02T04:54:23.036Z</time></trkpt><trkpt lat="40.0745078" lon="15.6055896"><ele>5.0</ele><time>2026-05-02T04:54:32.037Z</time></trkpt><trkpt lat="40.074573" lon="15.6055499"><ele>5.0</ele><time>2026-05-02T04:54:34.036Z</time></trkpt><trkpt lat="40.0746509" lon="15.6055016"><ele>5.0</ele><time>2026-05-02T04:54:36.037Z</time></trkpt><trkpt lat="40.0746314" lon="15.6056021"><ele>5.0</ele><time>2026-05-02T04:54:56.036Z</time></trkpt><trkpt lat="40.0745645" lon="15.6056172"><ele>5.0</ele><time>2026-05-02T04:55:42.037Z</time></trkpt><trkpt lat="40.0744722" lon="15.6056845"><ele>5.0</ele><time>2026-05-02T04:55:55.037Z</time></trkpt><trkpt lat="40.0744325" lon="15.6057655"><ele>5.0</ele><time>2026-05-02T04:56:13.036Z</time></trkpt><trkpt lat="40.0744718" lon="15.6056237"><ele>5.0</ele><time>2026-05-02T04:56:23.037Z</time></trkpt><trkpt lat="40.0745" lon="15.6055354"><ele>5.0</ele><time>2026-05-02T04:56:25.036Z</time></trkpt><trkpt lat="40.0745228" lon="15.6056127"><ele>5.0</ele><time>2026-05-02T04:57:28.037Z</time></trkpt><trkpt lat="40.0745872" lon="15.6055772"><ele>5.0</ele><time>2026-05-02T04:57:42.036Z</time></trkpt><trkpt lat="40.0746901" lon="15.6055288"><ele>5.0</ele><time>2026-05-02T04:58:04.036Z</time></trkpt><trkpt lat="40.0746633" lon="15.6054542"><ele>5.0</ele><time>2026-05-02T04:59:26.036Z</time></trkpt><trkpt lat="40.0745907" lon="15.6054396"><ele>5.0</ele><time>2026-05-02T04:59:51.036Z</time></trkpt><trkpt lat="40.0746231" lon="15.6055392"><ele>5.0</ele><time>2026-05-02T05:01:52.036Z</time></trkpt><trkpt lat="40.0745692" lon="15.605582"><ele>5.0</ele><time>2026-05-02T05:02:01.036Z</time></trkpt><trkpt lat="40.074639" lon="15.6055117"><ele>5.0</ele><time>2026-05-02T05:02:42.037Z</time></trkpt><trkpt lat="40.0746956" lon="15.6054269"><ele>5.0</ele><time>2026-05-02T05:02:56.036Z</time></trkpt><trkpt lat="40.0747182" lon="15.6053432"><ele>5.0</ele><time>2026-05-02T05:03:01.037Z</time></trkpt><trkpt lat="40.0746582" lon="15.6053906"><ele>5.0</ele><time>2026-05-02T05:03:28.036Z</time></trkpt><trkpt lat="40.0745775" lon="15.6054145"><ele>5.0</ele><time>2026-05-02T05:03:31.037Z</time></trkpt><trkpt lat="40.0745157" lon="15.6054433"><ele>5.0</ele><time>2026-05-02T05:03:35.036Z</time></trkpt><trkpt lat="40.0745733" lon="15.6054785"><ele>5.0</ele><time>2026-05-02T05:04:26.037Z</time></trkpt><trkpt lat="40.074578" lon="15.6055907"><ele>5.0</ele><time>2026-05-02T05:04:41.037Z</time></trkpt><trkpt lat="40.0745218" lon="15.6055155"><ele>5.0</ele><time>2026-05-02T05:07:11.037Z</time></trkpt><trkpt lat="40.0745887" lon="15.6055321"><ele>5.0</ele><time>2026-05-02T05:08:32.037Z</time></trkpt><trkpt lat="40.0745938" lon="15.605437"><ele>5.0</ele><time>2026-05-02T05:09:54.037Z</time></trkpt><trkpt lat="40.0745352" lon="15.6055362"><ele>5.0</ele><time>2026-05-02T05:13:06.037Z</time></trkpt><trkpt lat="40.0746048" lon="15.605517"><ele>5.0</ele><time>2026-05-02T05:15:25.038Z</time></trkpt><trkpt lat="40.0746572" lon="15.6054608"><ele>5.0</ele><time>2026-05-02T05:15:31.038Z</time></trkpt><trkpt lat="40.0745967" lon="15.6055252"><ele>5.0</ele><time>2026-05-02T05:16:44.038Z</time></trkpt><trkpt lat="40.0746312" lon="15.6054504"><ele>5.0</ele><time>2026-05-02T05:17:07.037Z</time></trkpt><trkpt lat="40.0746036" lon="15.6055478"><ele>5.0</ele><time>2026-05-02T05:19:06.038Z</time></trkpt><trkpt lat="40.074534" lon="15.605622"><ele>5.0</ele><time>2026-05-02T05:19:22.037Z</time></trkpt><trkpt lat="40.0746458" lon="15.6055712"><ele>5.0</ele><time>2026-05-02T05:20:55.038Z</time></trkpt><trkpt lat="40.0747159" lon="15.6054817"><ele>5.0</ele><time>2026-05-02T05:21:11.038Z</time></trkpt><trkpt lat="40.0745928" lon="15.6054451"><ele>5.0</ele><time>2026-05-02T05:23:48.038Z</time></trkpt><trkpt lat="40.0746754" lon="15.6054329"><ele>5.0</ele><time>2026-05-02T05:25:21.039Z</time></trkpt><trkpt lat="40.0747295" lon="15.6053764"><ele>5.0</ele><time>2026-05-02T05:25:29.039Z</time></trkpt><trkpt lat="40.0747072" lon="15.6054948"><ele>5.0</ele><time>2026-05-02T05:26:41.038Z</time></trkpt><trkpt lat="40.0746195" lon="15.6055476"><ele>5.0</ele><time>2026-05-02T05:27:34.038Z</time></trkpt><trkpt lat="40.0745254" lon="15.6055483"><ele>5.0</ele><time>2026-05-02T05:28:38.038Z</time></trkpt><trkpt lat="40.0745635" lon="15.6054559"><ele>5.0</ele><time>2026-05-02T05:29:00.039Z</time></trkpt><trkpt lat="40.0746474" lon="15.6054555"><ele>5.0</ele><time>2026-05-02T05:30:57.038Z</time></trkpt><trkpt lat="40.0747121" lon="15.6054276"><ele>5.0</ele><time>2026-05-02T05:35:26.039Z</time></trkpt><trkpt lat="40.0747342" lon="15.6053325"><ele>5.0</ele><time>2026-05-02T05:35:35.039Z</time></trkpt><trkpt lat="40.0747884" lon="15.6052632"><ele>5.0</ele><time>2026-05-02T05:35:57.039Z</time></trkpt><trkpt lat="40.0747017" lon="15.6052768"><ele>5.0</ele><time>2026-05-02T05:36:26.039Z</time></trkpt><trkpt lat="40.0746089" lon="15.605361"><ele>5.0</ele><time>2026-05-02T05:36:42.039Z</time></trkpt><trkpt lat="40.0745592" lon="15.6054209"><ele>5.0</ele><time>2026-05-02T05:36:45.039Z</time></trkpt><trkpt lat="40.0745293" lon="15.6055073"><ele>5.0</ele><time>2026-05-02T05:39:56.039Z</time></trkpt><trkpt lat="40.0745939" lon="15.6054215"><ele>5.0</ele><time>2026-05-02T05:40:27.04Z</time></trkpt><trkpt lat="40.0745528" lon="15.6053569"><ele>5.0</ele><time>2026-05-02T05:45:33.039Z</time></trkpt><trkpt lat="40.0746418" lon="15.6053287"><ele>5.0</ele><time>2026-05-02T05:49:39.04Z</time></trkpt><trkpt lat="40.0745825" lon="15.6053822"><ele>5.0</ele><time>2026-05-02T05:50:54.04Z</time></trkpt><trkpt lat="40.0746189" lon="15.6052897"><ele>5.0</ele><time>2026-05-02T05:51:30.041Z</time></trkpt><trkpt lat="40.0745584" lon="15.6053154"><ele>5.0</ele><time>2026-05-02T05:52:12.041Z</time></trkpt><trkpt lat="40.0746483" lon="15.6053917"><ele>5.0</ele><time>2026-05-02T05:59:17.041Z</time></trkpt><trkpt lat="40.074565" lon="15.605345"><ele>5.0</ele><time>2026-05-02T06:07:45.042Z</time></trkpt><trkpt lat="40.0745453" lon="15.6054446"><ele>5.0</ele><time>2026-05-02T06:07:46.041Z</time></trkpt><trkpt lat="40.0746152" lon="15.6054246"><ele>5.0</ele><time>2026-05-02T06:08:38.041Z</time></trkpt><trkpt lat="40.0746642" lon="15.6053277"><ele>5.0</ele><time>2026-05-02T06:12:37.042Z</time></trkpt><trkpt lat="40.074612" lon="15.6053759"><ele>5.0</ele><time>2026-05-02T06:12:56.041Z</time></trkpt><trkpt lat="40.0746967" lon="15.605385"><ele>5.0</ele><time>2026-05-02T06:33:45.044Z</time></trkpt><trkpt lat="40.0741433" lon="15.605785"><ele>4.5</ele><time>2026-05-02T06:38:17.667Z</time></trkpt><trkpt lat="40.0740317" lon="15.606085"><ele>4.0</ele><time>2026-05-02T06:38:18.666Z</time></trkpt><trkpt lat="40.07392" lon="15.606625"><ele>4.0</ele><time>2026-05-02T06:38:19.666Z</time></trkpt><trkpt lat="40.0738583" lon="15.6069533"><ele>4.0</ele><time>2026-05-02T06:38:20.666Z</time></trkpt><trkpt lat="40.07381" lon="15.60719"><ele>4.0</ele><time>2026-05-02T06:38:21.667Z</time></trkpt><trkpt lat="40.073765" lon="15.60734"><ele>3.75</ele><time>2026-05-02T06:38:22.667Z</time></trkpt><trkpt lat="40.0737217" lon="15.60756"><ele>3.5</ele><time>2026-05-02T06:38:23.666Z</time></trkpt><trkpt lat="40.073685" lon="15.6077133"><ele>3.25</ele><time>2026-05-02T06:38:24.667Z</time></trkpt><trkpt lat="40.0736517" lon="15.6078833"><ele>3.0</ele><time>2026-05-02T06:38:25.666Z</time></trkpt><trkpt lat="40.073605" lon="15.6080783"><ele>3.75</ele><time>2026-05-02T06:38:26.978Z</time></trkpt><trkpt lat="40.073565" lon="15.608225"><ele>4.5</ele><time>2026-05-02T06:38:27.978Z</time></trkpt><trkpt lat="40.0735167" lon="15.60838"><ele>5.25</ele><time>2026-05-02T06:38:28.979Z</time></trkpt><trkpt lat="40.07348" lon="15.60853"><ele>6.0</ele><time>2026-05-02T06:38:29.978Z</time></trkpt><trkpt lat="40.073435" lon="15.6086983"><ele>6.0</ele><time>2026-05-02T06:38:30.979Z</time></trkpt><trkpt lat="40.0733683" lon="15.608855"><ele>6.0</ele><time>2026-05-02T06:38:31.978Z</time></trkpt><trkpt lat="40.07329" lon="15.6090067"><ele>6.0</ele><time>2026-05-02T06:38:32.979Z</time></trkpt><trkpt lat="40.0732117" lon="15.6091483"><ele>6.0</ele><time>2026-05-02T06:38:33.978Z</time></trkpt><trkpt lat="40.0731367" lon="15.609285"><ele>5.25</ele><time>2026-05-02T06:38:34.979Z</time></trkpt><trkpt lat="40.0730667" lon="15.6094233"><ele>4.5</ele><time>2026-05-02T06:38:35.978Z</time></trkpt><trkpt lat="40.073" lon="15.6095617"><ele>3.75</ele><time>2026-05-02T06:38:36.978Z</time></trkpt><trkpt lat="40.072935" lon="15.6097083"><ele>3.0</ele><time>2026-05-02T06:38:37.978Z</time></trkpt><trkpt lat="40.0728733" lon="15.6098517"><ele>3.0</ele><time>2026-05-02T06:38:38.978Z</time></trkpt><trkpt lat="40.0728067" lon="15.6099683"><ele>3.0</ele><time>2026-05-02T06:38:39.979Z</time></trkpt><trkpt lat="40.07274" lon="15.6100933"><ele>3.0</ele><time>2026-05-02T06:38:40.979Z</time></trkpt><trkpt lat="40.0726767" lon="15.6102167"><ele>3.0</ele><time>2026-05-02T06:38:41.978Z</time></trkpt><trkpt lat="40.0726133" lon="15.6103417"><ele>3.0</ele><time>2026-05-02T06:38:42.978Z</time></trkpt><trkpt lat="40.0725633" lon="15.61047"><ele>3.0</ele><time>2026-05-02T06:38:43.978Z</time></trkpt><trkpt lat="40.0725083" lon="15.61058"><ele>3.0</ele><time>2026-05-02T06:38:44.978Z</time></trkpt><trkpt lat="40.072445" lon="15.610695"><ele>3.0</ele><time>2026-05-02T06:38:45.978Z</time></trkpt><trkpt lat="40.07239" lon="15.6108217"><ele>3.0</ele><time>2026-05-02T06:38:46.979Z</time></trkpt><trkpt lat="40.0723217" lon="15.6109533"><ele>3.0</ele><time>2026-05-02T06:38:47.978Z</time></trkpt><trkpt lat="40.0722517" lon="15.61108"><ele>3.0</ele><time>2026-05-02T06:38:48.978Z</time></trkpt><trkpt lat="40.0721883" lon="15.6112283"><ele>3.0</ele><time>2026-05-02T06:38:49.978Z</time></trkpt><trkpt lat="40.07212" lon="15.611375"><ele>3.0</ele><time>2026-05-02T06:38:50.978Z</time></trkpt><trkpt lat="40.0720483" lon="15.6115333"><ele>3.5</ele><time>2026-05-02T06:38:51.978Z</time></trkpt><trkpt lat="40.0719717" lon="15.611685"><ele>4.0</ele><time>2026-05-02T06:38:52.979Z</time></trkpt><trkpt lat="40.0719033" lon="15.6118533"><ele>4.5</ele><time>2026-05-02T06:38:53.978Z</time></trkpt><trkpt lat="40.07182" lon="15.6120117"><ele>5.0</ele><time>2026-05-02T06:38:54.979Z</time></trkpt><trkpt lat="40.0717517" lon="15.6121783"><ele>5.25</ele><time>2026-05-02T06:38:55.978Z</time></trkpt><trkpt lat="40.071675" lon="15.61233"><ele>5.5</ele><time>2026-05-02T06:38:56.978Z</time></trkpt><trkpt lat="40.0715933" lon="15.61248"><ele>5.75</ele><time>2026-05-02T06:38:57.978Z</time></trkpt><trkpt lat="40.0715083" lon="15.6126317"><ele>6.0</ele><time>2026-05-02T06:38:58.979Z</time></trkpt><trkpt lat="40.0714233" lon="15.6128117"><ele>5.666666666666667</ele><time>2026-05-02T06:38:59.978Z</time></trkpt><trkpt lat="40.0713367" lon="15.6129867"><ele>5.333333333333334</ele><time>2026-05-02T06:39:00.978Z</time></trkpt><trkpt lat="40.0712583" lon="15.6131717"><ele>5.0</ele><time>2026-05-02T06:39:01.978Z</time></trkpt><trkpt lat="40.0711833" lon="15.6133533"><ele>5.0</ele><time>2026-05-02T06:39:02.978Z</time></trkpt><trkpt lat="40.0711033" lon="15.6135383"><ele>5.0</ele><time>2026-05-02T06:39:03.979Z</time></trkpt><trkpt lat="40.0710083" lon="15.6137083"><ele>5.0</ele><time>2026-05-02T06:39:04.978Z</time></trkpt><trkpt lat="40.0709183" lon="15.6138633"><ele>5.0</ele><time>2026-05-02T06:39:05.979Z</time></trkpt><trkpt lat="40.0708217" lon="15.61403"><ele>5.0</ele><time>2026-05-02T06:39:06.979Z</time></trkpt><trkpt lat="40.0707267" lon="15.6141967"><ele>5.0</ele><time>2026-05-02T06:39:07.978Z</time></trkpt><trkpt lat="40.07063" lon="15.6143433"><ele>5.25</ele><time>2026-05-02T06:39:08.978Z</time></trkpt><trkpt lat="40.070535" lon="15.61449"><ele>5.5</ele><time>2026-05-02T06:39:09.978Z</time></trkpt><trkpt lat="40.0704467" lon="15.6146317"><ele>5.75</ele><time>2026-05-02T06:39:10.978Z</time></trkpt><trkpt lat="40.070365" lon="15.6147533"><ele>6.0</ele><time>2026-05-02T06:39:11.978Z</time></trkpt><trkpt lat="40.0702783" lon="15.6148667"><ele>6.0</ele><time>2026-05-02T06:39:12.979Z</time></trkpt><trkpt lat="40.0702033" lon="15.6149967"><ele>6.0</ele><time>2026-05-02T06:39:13.978Z</time></trkpt><trkpt lat="40.070135" lon="15.6151183"><ele>6.0</ele><time>2026-05-02T06:39:14.978Z</time></trkpt><trkpt lat="40.07006" lon="15.6152233"><ele>6.0</ele><time>2026-05-02T06:39:15.979Z</time></trkpt><trkpt lat="40.0699867" lon="15.6153317"><ele>5.5</ele><time>2026-05-02T06:39:16.979Z</time></trkpt><trkpt lat="40.069905" lon="15.6154433"><ele>5.0</ele><time>2026-05-02T06:39:17.978Z</time></trkpt><trkpt lat="40.06982" lon="15.61554"><ele>4.5</ele><time>2026-05-02T06:39:18.978Z</time></trkpt><trkpt lat="40.069735" lon="15.61564"><ele>4.0</ele><time>2026-05-02T06:39:19.978Z</time></trkpt><trkpt lat="40.06966" lon="15.61577"><ele>4.0</ele><time>2026-05-02T06:39:20.978Z</time></trkpt><trkpt lat="40.0695883" lon="15.6159033"><ele>4.0</ele><time>2026-05-02T06:39:21.978Z</time></trkpt><trkpt lat="40.06952" lon="15.6160483"><ele>4.0</ele><time>2026-05-02T06:39:22.978Z</time></trkpt><trkpt lat="40.0694583" lon="15.6162117"><ele>4.0</ele><time>2026-05-02T06:39:23.978Z</time></trkpt><trkpt lat="40.069395" lon="15.6163633"><ele>4.75</ele><time>2026-05-02T06:39:24.978Z</time></trkpt><trkpt lat="40.0693267" lon="15.616525"><ele>5.5</ele><time>2026-05-02T06:39:25.978Z</time></trkpt><trkpt lat="40.0692867" lon="15.616715"><ele>6.25</ele><time>2026-05-02T06:39:26.978Z</time></trkpt><trkpt lat="40.0692533" lon="15.6168983"><ele>7.0</ele><time>2026-05-02T06:39:27.979Z</time></trkpt><trkpt lat="40.0692217" lon="15.6170883"><ele>7.5</ele><time>2026-05-02T06:39:28.979Z</time></trkpt><trkpt lat="40.0692067" lon="15.617285"><ele>8.0</ele><time>2026-05-02T06:39:29.978Z</time></trkpt><trkpt lat="40.069195" lon="15.6174717"><ele>8.5</ele><time>2026-05-02T06:39:30.978Z</time></trkpt><trkpt lat="40.06919" lon="15.6176583"><ele>9.0</ele><time>2026-05-02T06:39:31.978Z</time></trkpt><trkpt lat="40.0691917" lon="15.6178333"><ele>9.0</ele><time>2026-05-02T06:39:32.978Z</time></trkpt><trkpt lat="40.0692133" lon="15.618005"><ele>9.0</ele><time>2026-05-02T06:39:33.978Z</time></trkpt><trkpt lat="40.06926" lon="15.6181683"><ele>9.0</ele><time>2026-05-02T06:39:34.978Z</time></trkpt><trkpt lat="40.069325" lon="15.618315"><ele>9.0</ele><time>2026-05-02T06:39:35.978Z</time></trkpt><trkpt lat="40.0694067" lon="15.6184483"><ele>9.0</ele><time>2026-05-02T06:39:36.978Z</time></trkpt><trkpt lat="40.069495" lon="15.618565"><ele>9.0</ele><time>2026-05-02T06:39:37.979Z</time></trkpt><trkpt lat="40.06959" lon="15.6186583"><ele>9.0</ele><time>2026-05-02T06:39:38.979Z</time></trkpt><trkpt lat="40.069685" lon="15.618735"><ele>9.0</ele><time>2026-05-02T06:39:39.978Z</time></trkpt><trkpt lat="40.06978" lon="15.618785"><ele>9.2</ele><time>2026-05-02T06:39:40.978Z</time></trkpt><trkpt lat="40.0698733" lon="15.6188417"><ele>9.4</ele><time>2026-05-02T06:39:41.979Z</time></trkpt><trkpt lat="40.0699767" lon="15.6188933"><ele>9.6</ele><time>2026-05-02T06:39:42.978Z</time></trkpt><trkpt lat="40.0700783" lon="15.618955"><ele>9.8</ele><time>2026-05-02T06:39:43.979Z</time></trkpt><trkpt lat="40.0701717" lon="15.6190167"><ele>10.0</ele><time>2026-05-02T06:39:44.978Z</time></trkpt><trkpt lat="40.0702633" lon="15.6190767"><ele>10.0</ele><time>2026-05-02T06:39:45.978Z</time></trkpt><trkpt lat="40.0703483" lon="15.61915"><ele>10.0</ele><time>2026-05-02T06:39:46.978Z</time></trkpt><trkpt lat="40.070435" lon="15.6192233"><ele>10.0</ele><time>2026-05-02T06:39:47.979Z</time></trkpt><trkpt lat="40.07052" lon="15.6193083"><ele>10.0</ele><time>2026-05-02T06:39:48.978Z</time></trkpt><trkpt lat="40.0706067" lon="15.6194033"><ele>10.0</ele><time>2026-05-02T06:39:49.978Z</time></trkpt><trkpt lat="40.07068" lon="15.6195017"><ele>10.2</ele><time>2026-05-02T06:39:50.978Z</time></trkpt><trkpt lat="40.0707467" lon="15.619595"><ele>10.4</ele><time>2026-05-02T06:39:51.978Z</time></trkpt><trkpt lat="40.0708017" lon="15.6196933"><ele>10.600000000000001</ele><time>2026-05-02T06:39:52.979Z</time></trkpt><trkpt lat="40.070855" lon="15.619795"><ele>10.8</ele><time>2026-05-02T06:39:53.978Z</time></trkpt><trkpt lat="40.0708933" lon="15.6199067"><ele>11.0</ele><time>2026-05-02T06:39:54.979Z</time></trkpt><trkpt lat="40.0709283" lon="15.6200383"><ele>11.0</ele><time>2026-05-02T06:39:55.978Z</time></trkpt><trkpt lat="40.0709583" lon="15.620175"><ele>11.0</ele><time>2026-05-02T06:39:56.979Z</time></trkpt><trkpt lat="40.0709867" lon="15.62031"><ele>11.0</ele><time>2026-05-02T06:39:57.979Z</time></trkpt><trkpt lat="40.0710183" lon="15.6204367"><ele>11.0</ele><time>2026-05-02T06:39:58.978Z</time></trkpt><trkpt lat="40.07104" lon="15.6205483"><ele>11.0</ele><time>2026-05-02T06:39:59.979Z</time></trkpt><trkpt lat="40.071065" lon="15.6206383"><ele>9.8</ele><time>2026-05-02T06:40:00.979Z</time></trkpt><trkpt lat="40.07109" lon="15.620715"><ele>8.600000000000001</ele><time>2026-05-02T06:40:01.979Z</time></trkpt><trkpt lat="40.0711383" lon="15.6208483"><ele>7.4</ele><time>2026-05-02T06:40:03.979Z</time></trkpt><trkpt lat="40.0712133" lon="15.620965"><ele>6.2</ele><time>2026-05-02T06:40:05.979Z</time></trkpt><trkpt lat="40.0712683" lon="15.6210333"><ele>5.0</ele><time>2026-05-02T06:40:06.978Z</time></trkpt><trkpt lat="40.0713467" lon="15.6211"><ele>4.8</ele><time>2026-05-02T06:40:07.978Z</time></trkpt><trkpt lat="40.0714333" lon="15.621155"><ele>4.6</ele><time>2026-05-02T06:40:08.978Z</time></trkpt><trkpt lat="40.0715267" lon="15.621205"><ele>4.4</ele><time>2026-05-02T06:40:09.978Z</time></trkpt><trkpt lat="40.07162" lon="15.6212533"><ele>4.2</ele><time>2026-05-02T06:40:10.979Z</time></trkpt><trkpt lat="40.0717167" lon="15.621305"><ele>4.0</ele><time>2026-05-02T06:40:11.978Z</time></trkpt><trkpt lat="40.0718183" lon="15.6213567"><ele>4.0</ele><time>2026-05-02T06:40:12.978Z</time></trkpt><trkpt lat="40.0719067" lon="15.6214267"><ele>4.0</ele><time>2026-05-02T06:40:13.978Z</time></trkpt><trkpt lat="40.0719933" lon="15.621495"><ele>4.0</ele><time>2026-05-02T06:40:14.978Z</time></trkpt><trkpt lat="40.0720833" lon="15.6215567"><ele>4.0</ele><time>2026-05-02T06:40:15.979Z</time></trkpt><trkpt lat="40.072165" lon="15.6216233"><ele>4.0</ele><time>2026-05-02T06:40:16.978Z</time></trkpt><trkpt lat="40.0722467" lon="15.621675"><ele>3.9999999999999996</ele><time>2026-05-02T06:40:17.979Z</time></trkpt><trkpt lat="40.0723217" lon="15.621715"><ele>4.0</ele><time>2026-05-02T06:40:18.978Z</time></trkpt><trkpt lat="40.0724017" lon="15.62175"><ele>4.0</ele><time>2026-05-02T06:40:19.978Z</time></trkpt><trkpt lat="40.0724767" lon="15.62178"><ele>4.0</ele><time>2026-05-02T06:40:20.979Z</time></trkpt><trkpt lat="40.0725617" lon="15.6217983"><ele>3.9999999999999996</ele><time>2026-05-02T06:40:21.978Z</time></trkpt><trkpt lat="40.0726467" lon="15.6218117"><ele>4.0</ele><time>2026-05-02T06:40:22.978Z</time></trkpt><trkpt lat="40.0727333" lon="15.62181"><ele>5.0</ele><time>2026-05-02T06:40:23.979Z</time></trkpt><trkpt lat="40.0728133" lon="15.6217983"><ele>6.0</ele><time>2026-05-02T06:40:24.978Z</time></trkpt><trkpt lat="40.0728933" lon="15.6217767"><ele>7.0</ele><time>2026-05-02T06:40:25.978Z</time></trkpt><trkpt lat="40.0729767" lon="15.6217617"><ele>8.0</ele><time>2026-05-02T06:40:26.978Z</time></trkpt><trkpt lat="40.0730533" lon="15.6217567"><ele>9.0</ele><time>2026-05-02T06:40:27.978Z</time></trkpt><trkpt lat="40.0731833" lon="15.6217717"><ele>9.0</ele><time>2026-05-02T06:40:29.979Z</time></trkpt><trkpt lat="40.0733017" lon="15.62179"><ele>9.0</ele><time>2026-05-02T06:40:31.979Z</time></trkpt><trkpt lat="40.0733767" lon="15.6217667"><ele>9.0</ele><time>2026-05-02T06:40:32.978Z</time></trkpt><trkpt lat="40.0734583" lon="15.6217133"><ele>9.0</ele><time>2026-05-02T06:40:33.979Z</time></trkpt><trkpt lat="40.0735433" lon="15.621655"><ele>9.0</ele><time>2026-05-02T06:40:34.978Z</time></trkpt><trkpt lat="40.0736283" lon="15.6216"><ele>9.0</ele><time>2026-05-02T06:40:35.978Z</time></trkpt><trkpt lat="40.0737183" lon="15.6215667"><ele>9.0</ele><time>2026-05-02T06:40:36.978Z</time></trkpt><trkpt lat="40.073815" lon="15.6215483"><ele>9.0</ele><time>2026-05-02T06:40:37.978Z</time></trkpt><trkpt lat="40.07391" lon="15.6215383"><ele>9.0</ele><time>2026-05-02T06:40:38.978Z</time></trkpt><trkpt lat="40.0740083" lon="15.62152"><ele>9.0</ele><time>2026-05-02T06:40:39.978Z</time></trkpt><trkpt lat="40.07411" lon="15.62151"><ele>8.4</ele><time>2026-05-02T06:40:40.979Z</time></trkpt><trkpt lat="40.074205" lon="15.6215217"><ele>7.800000000000001</ele><time>2026-05-02T06:40:41.979Z</time></trkpt><trkpt lat="40.0743033" lon="15.62152"><ele>7.199999999999999</ele><time>2026-05-02T06:40:42.978Z</time></trkpt><trkpt lat="40.0744033" lon="15.621535"><ele>6.6</ele><time>2026-05-02T06:40:43.979Z</time></trkpt><trkpt lat="40.0745017" lon="15.62156"><ele>6.0</ele><time>2026-05-02T06:40:44.978Z</time></trkpt><trkpt lat="40.0745983" lon="15.6216"><ele>6.0</ele><time>2026-05-02T06:40:45.978Z</time></trkpt><trkpt lat="40.0746967" lon="15.6216383"><ele>6.0</ele><time>2026-05-02T06:40:46.978Z</time></trkpt><trkpt lat="40.0747917" lon="15.6216917"><ele>6.0</ele><time>2026-05-02T06:40:47.979Z</time></trkpt><trkpt lat="40.0748883" lon="15.621745"><ele>6.0</ele><time>2026-05-02T06:40:48.978Z</time></trkpt><trkpt lat="40.0749833" lon="15.6218033"><ele>6.0</ele><time>2026-05-02T06:40:49.978Z</time></trkpt><trkpt lat="40.0750717" lon="15.6218667"><ele>5.8</ele><time>2026-05-02T06:40:50.978Z</time></trkpt><trkpt lat="40.0751567" lon="15.62193"><ele>5.6</ele><time>2026-05-02T06:40:51.978Z</time></trkpt><trkpt lat="40.075235" lon="15.622"><ele>5.4</ele><time>2026-05-02T06:40:52.979Z</time></trkpt><trkpt lat="40.0753117" lon="15.6220767"><ele>5.2</ele><time>2026-05-02T06:40:53.978Z</time></trkpt><trkpt lat="40.0753883" lon="15.622155"><ele>5.0</ele><time>2026-05-02T06:40:54.979Z</time></trkpt><trkpt lat="40.0754683" lon="15.6222333"><ele>5.0</ele><time>2026-05-02T06:40:55.978Z</time></trkpt><trkpt lat="40.0755467" lon="15.6223183"><ele>5.0</ele><time>2026-05-02T06:40:56.978Z</time></trkpt><trkpt lat="40.0756233" lon="15.622405"><ele>5.0</ele><time>2026-05-02T06:40:57.979Z</time></trkpt><trkpt lat="40.0756983" lon="15.6225"><ele>5.0</ele><time>2026-05-02T06:40:58.978Z</time></trkpt><trkpt lat="40.0757733" lon="15.62259"><ele>5.0</ele><time>2026-05-02T06:40:59.978Z</time></trkpt><trkpt lat="40.075845" lon="15.6226783"><ele>5.0</ele><time>2026-05-02T06:41:00.978Z</time></trkpt><trkpt lat="40.075915" lon="15.622775"><ele>5.0</ele><time>2026-05-02T06:41:01.979Z</time></trkpt><trkpt lat="40.0759833" lon="15.6228833"><ele>5.0</ele><time>2026-05-02T06:41:02.978Z</time></trkpt><trkpt lat="40.076055" lon="15.62299"><ele>5.0</ele><time>2026-05-02T06:41:03.978Z</time></trkpt><trkpt lat="40.07611" lon="15.623105"><ele>5.0</ele><time>2026-05-02T06:41:04.978Z</time></trkpt><trkpt lat="40.07616" lon="15.6232417"><ele>5.2</ele><time>2026-05-02T06:41:05.978Z</time></trkpt><trkpt lat="40.0762" lon="15.623365"><ele>5.4</ele><time>2026-05-02T06:41:06.978Z</time></trkpt><trkpt lat="40.07624" lon="15.62349"><ele>5.6</ele><time>2026-05-02T06:41:07.978Z</time></trkpt><trkpt lat="40.076285" lon="15.6235883"><ele>5.8</ele><time>2026-05-02T06:41:08.978Z</time></trkpt><trkpt lat="40.07632" lon="15.6236833"><ele>6.0</ele><time>2026-05-02T06:41:09.978Z</time></trkpt><trkpt lat="40.0763567" lon="15.6237833"><ele>6.199999999999999</ele><time>2026-05-02T06:41:10.978Z</time></trkpt><trkpt lat="40.0763883" lon="15.6238817"><ele>6.3999999999999995</ele><time>2026-05-02T06:41:11.979Z</time></trkpt><trkpt lat="40.0764133" lon="15.62398"><ele>6.6</ele><time>2026-05-02T06:41:12.979Z</time></trkpt><trkpt lat="40.07645" lon="15.6241183"><ele>6.8</ele><time>2026-05-02T06:41:14.978Z</time></trkpt><trkpt lat="40.076465" lon="15.6242117"><ele>7.0</ele><time>2026-05-02T06:41:16.978Z</time></trkpt><trkpt lat="40.0763817" lon="15.624295"><ele>7.000000000000001</ele><time>2026-05-02T06:41:19.978Z</time></trkpt><trkpt lat="40.0763017" lon="15.6242967"><ele>7.0</ele><time>2026-05-02T06:41:20.978Z</time></trkpt><trkpt lat="40.0762267" lon="15.6242983"><ele>7.0</ele><time>2026-05-02T06:41:21.979Z</time></trkpt><trkpt lat="40.0761583" lon="15.62429"><ele>7.0</ele><time>2026-05-02T06:41:22.979Z</time></trkpt><trkpt lat="40.0760683" lon="15.6242833"><ele>7.000000000000001</ele><time>2026-05-02T06:41:24.978Z</time></trkpt><trkpt lat="40.0759667" lon="15.6242783"><ele>7.0</ele><time>2026-05-02T06:41:27.978Z</time></trkpt><trkpt lat="40.0758867" lon="15.6242733"><ele>7.000000000000001</ele><time>2026-05-02T06:41:30.978Z</time></trkpt><trkpt lat="40.0759633" lon="15.6242567"><ele>7.0</ele><time>2026-05-02T06:41:41.978Z</time></trkpt><trkpt lat="40.0759067" lon="15.62414"><ele>7.0</ele><time>2026-05-02T06:47:50.978Z</time></trkpt><trkpt lat="40.0759917" lon="15.6241"><ele>7.0</ele><time>2026-05-02T06:57:29.977Z</time></trkpt><trkpt lat="40.075945" lon="15.624165"><ele>7.000000000000001</ele><time>2026-05-02T06:57:47.977Z</time></trkpt><trkpt lat="40.07587" lon="15.624205"><ele>7.0</ele><time>2026-05-02T06:57:50.978Z</time></trkpt><trkpt lat="40.0758183" lon="15.6242667"><ele>6.833333333333334</ele><time>2026-05-02T06:58:26.978Z</time></trkpt><trkpt lat="40.075745" lon="15.6243333"><ele>6.666666666666667</ele><time>2026-05-02T06:58:29.978Z</time></trkpt><trkpt lat="40.075665" lon="15.6243733"><ele>6.5</ele><time>2026-05-02T06:58:31.978Z</time></trkpt><trkpt lat="40.0755417" lon="15.6244017"><ele>6.333333333333334</ele><time>2026-05-02T06:58:33.977Z</time></trkpt><trkpt lat="40.0754733" lon="15.6244217"><ele>6.166666666666667</ele><time>2026-05-02T06:58:34.978Z</time></trkpt><trkpt lat="40.0753983" lon="15.62444"><ele>6.0</ele><time>2026-05-02T06:58:35.977Z</time></trkpt><trkpt lat="40.075325" lon="15.6244517"><ele>5.999999999999999</ele><time>2026-05-02T06:58:36.977Z</time></trkpt><trkpt lat="40.07526" lon="15.6244683"><ele>6.0</ele><time>2026-05-02T06:58:37.977Z</time></trkpt><trkpt lat="40.0751933" lon="15.62448"><ele>6.0</ele><time>2026-05-02T06:58:38.977Z</time></trkpt><trkpt lat="40.07511" lon="15.62449"><ele>6.0</ele><time>2026-05-02T06:58:39.977Z</time></trkpt><trkpt lat="40.0750383" lon="15.6245133"><ele>6.0</ele><time>2026-05-02T06:58:40.978Z</time></trkpt><trkpt lat="40.0749733" lon="15.6245383"><ele>5.999999999999999</ele><time>2026-05-02T06:58:41.977Z</time></trkpt><trkpt lat="40.0749117" lon="15.6245633"><ele>6.0</ele><time>2026-05-02T06:58:42.978Z</time></trkpt><trkpt lat="40.0748383" lon="15.6245733"><ele>6.0</ele><time>2026-05-02T06:58:44.977Z</time></trkpt><trkpt lat="40.0747667" lon="15.6245567"><ele>6.0</ele><time>2026-05-02T06:58:46.978Z</time></trkpt><trkpt lat="40.07474" lon="15.62438"><ele>6.0</ele><time>2026-05-02T06:58:48.977Z</time></trkpt><trkpt lat="40.0747217" lon="15.624275"><ele>6.0</ele><time>2026-05-02T06:58:49.978Z</time></trkpt><trkpt lat="40.0747117" lon="15.624155"><ele>6.0</ele><time>2026-05-02T06:58:50.978Z</time></trkpt><trkpt lat="40.074705" lon="15.624045"><ele>5.666666666666667</ele><time>2026-05-02T06:58:51.977Z</time></trkpt><trkpt lat="40.0746883" lon="15.623935"><ele>5.333333333333333</ele><time>2026-05-02T06:58:52.978Z</time></trkpt><trkpt lat="40.0746733" lon="15.62383"><ele>5.0</ele><time>2026-05-02T06:58:53.978Z</time></trkpt><trkpt lat="40.0746567" lon="15.6237217"><ele>4.666666666666666</ele><time>2026-05-02T06:58:54.978Z</time></trkpt><trkpt lat="40.074635" lon="15.6236167"><ele>4.333333333333333</ele><time>2026-05-02T06:58:55.978Z</time></trkpt><trkpt lat="40.0746067" lon="15.6235133"><ele>4.0</ele><time>2026-05-02T06:58:56.977Z</time></trkpt><trkpt lat="40.0745733" lon="15.623425"><ele>3.9999999999999996</ele><time>2026-05-02T06:58:57.977Z</time></trkpt><trkpt lat="40.07454" lon="15.6233433"><ele>4.0</ele><time>2026-05-02T06:58:58.978Z</time></trkpt><trkpt lat="40.0745033" lon="15.6232633"><ele>4.0</ele><time>2026-05-02T06:58:59.978Z</time></trkpt><trkpt lat="40.0744533" lon="15.6231783"><ele>4.0</ele><time>2026-05-02T06:59:00.977Z</time></trkpt><trkpt lat="40.0744033" lon="15.6230933"><ele>3.9999999999999996</ele><time>2026-05-02T06:59:01.978Z</time></trkpt><trkpt lat="40.0743617" lon="15.6229983"><ele>4.0</ele><time>2026-05-02T06:59:02.978Z</time></trkpt><trkpt lat="40.0743217" lon="15.6229133"><ele>3.9999999999999996</ele><time>2026-05-02T06:59:03.977Z</time></trkpt><trkpt lat="40.074285" lon="15.6228267"><ele>4.0</ele><time>2026-05-02T06:59:04.977Z</time></trkpt><trkpt lat="40.0742383" lon="15.622755"><ele>4.0</ele><time>2026-05-02T06:59:05.976Z</time></trkpt><trkpt lat="40.074165" lon="15.6226467"><ele>4.0</ele><time>2026-05-02T06:59:07.976Z</time></trkpt><trkpt lat="40.0740983" lon="15.62265"><ele>3.9999999999999996</ele><time>2026-05-02T06:59:09.977Z</time></trkpt><trkpt lat="40.0740667" lon="15.62276"><ele>4.0</ele><time>2026-05-02T06:59:11.976Z</time></trkpt><trkpt lat="40.074095" lon="15.62292"><ele>4.0</ele><time>2026-05-02T06:59:13.976Z</time></trkpt><trkpt lat="40.0741133" lon="15.62301"><ele>3.9999999999999996</ele><time>2026-05-02T06:59:14.976Z</time></trkpt><trkpt lat="40.0741367" lon="15.6231"><ele>4.0</ele><time>2026-05-02T06:59:15.976Z</time></trkpt><trkpt lat="40.074155" lon="15.62319"><ele>4.0</ele><time>2026-05-02T06:59:16.977Z</time></trkpt><trkpt lat="40.074175" lon="15.6232817"><ele>3.9999999999999996</ele><time>2026-05-02T06:59:17.976Z</time></trkpt><trkpt lat="40.0741967" lon="15.62338"><ele>4.0</ele><time>2026-05-02T06:59:18.976Z</time></trkpt><trkpt lat="40.074215" lon="15.62348"><ele>4.0</ele><time>2026-05-02T06:59:19.977Z</time></trkpt><trkpt lat="40.0742383" lon="15.6235767"><ele>3.9999999999999996</ele><time>2026-05-02T06:59:20.977Z</time></trkpt><trkpt lat="40.0742583" lon="15.62368"><ele>4.0</ele><time>2026-05-02T06:59:21.976Z</time></trkpt><trkpt lat="40.074285" lon="15.6237833"><ele>4.0</ele><time>2026-05-02T06:59:22.976Z</time></trkpt><trkpt lat="40.074315" lon="15.6238883"><ele>4.0</ele><time>2026-05-02T06:59:23.976Z</time></trkpt><trkpt lat="40.0743383" lon="15.6239917"><ele>3.9999999999999996</ele><time>2026-05-02T06:59:24.977Z</time></trkpt><trkpt lat="40.0743633" lon="15.624095"><ele>4.0</ele><time>2026-05-02T06:59:25.977Z</time></trkpt><trkpt lat="40.074385" lon="15.6241917"><ele>3.9999999999999996</ele><time>2026-05-02T06:59:26.977Z</time></trkpt><trkpt lat="40.0744067" lon="15.6242917"><ele>4.0</ele><time>2026-05-02T06:59:27.976Z</time></trkpt><trkpt lat="40.07443" lon="15.6243883"><ele>4.0</ele><time>2026-05-02T06:59:28.976Z</time></trkpt><trkpt lat="40.0744533" lon="15.6244833"><ele>4.0</ele><time>2026-05-02T06:59:29.976Z</time></trkpt><trkpt lat="40.074475" lon="15.6245767"><ele>3.9999999999999996</ele><time>2026-05-02T06:59:30.976Z</time></trkpt><trkpt lat="40.0744983" lon="15.6246733"><ele>4.0</ele><time>2026-05-02T06:59:31.977Z</time></trkpt><trkpt lat="40.0745183" lon="15.62477"><ele>4.285714285714286</ele><time>2026-05-02T06:59:32.976Z</time></trkpt><trkpt lat="40.074535" lon="15.62486"><ele>4.571428571428571</ele><time>2026-05-02T06:59:33.977Z</time></trkpt><trkpt lat="40.07455" lon="15.62495"><ele>4.857142857142857</ele><time>2026-05-02T06:59:34.977Z</time></trkpt><trkpt lat="40.07456" lon="15.62504"><ele>5.142857142857142</ele><time>2026-05-02T06:59:35.976Z</time></trkpt><trkpt lat="40.0745667" lon="15.6251267"><ele>5.428571428571429</ele><time>2026-05-02T06:59:36.977Z</time></trkpt><trkpt lat="40.0745717" lon="15.6252133"><ele>5.7142857142857135</ele><time>2026-05-02T06:59:37.976Z</time></trkpt><trkpt lat="40.074575" lon="15.6252983"><ele>6.0</ele><time>2026-05-02T06:59:38.976Z</time></trkpt><trkpt lat="40.0745683" lon="15.62539"><ele>6.0</ele><time>2026-05-02T06:59:39.977Z</time></trkpt><trkpt lat="40.074555" lon="15.6254883"><ele>6.0</ele><time>2026-05-02T06:59:40.976Z</time></trkpt><trkpt lat="40.0745433" lon="15.62559"><ele>6.0</ele><time>2026-05-02T06:59:41.976Z</time></trkpt><trkpt lat="40.0745333" lon="15.6256967"><ele>6.0</ele><time>2026-05-02T06:59:42.976Z</time></trkpt><trkpt lat="40.0745183" lon="15.6257933"><ele>6.0</ele><time>2026-05-02T06:59:43.976Z</time></trkpt><trkpt lat="40.0745083" lon="15.62589"><ele>6.0</ele><time>2026-05-02T06:59:44.976Z</time></trkpt><trkpt lat="40.0744983" lon="15.625975"><ele>6.0</ele><time>2026-05-02T06:59:45.977Z</time></trkpt><trkpt lat="40.0744817" lon="15.626125"><ele>6.0</ele><time>2026-05-02T06:59:47.977Z</time></trkpt><trkpt lat="40.07446" lon="15.6262533"><ele>6.0</ele><time>2026-05-02T06:59:49.977Z</time></trkpt><trkpt lat="40.0744367" lon="15.6263667"><ele>6.0</ele><time>2026-05-02T06:59:51.977Z</time></trkpt><trkpt lat="40.0744117" lon="15.6264633"><ele>6.0</ele><time>2026-05-02T06:59:53.977Z</time></trkpt><trkpt lat="40.074395" lon="15.626555"><ele>6.0</ele><time>2026-05-02T06:59:55.976Z</time></trkpt><trkpt lat="40.0743783" lon="15.626655"><ele>6.0</ele><time>2026-05-02T06:59:57.977Z</time></trkpt><trkpt lat="40.074345" lon="15.6267667"><ele>6.0</ele><time>2026-05-02T06:59:59.976Z</time></trkpt><trkpt lat="40.0743067" lon="15.6268867"><ele>6.0</ele><time>2026-05-02T07:00:01.976Z</time></trkpt><trkpt lat="40.0742633" lon="15.6270183"><ele>6.0</ele><time>2026-05-02T07:00:03.976Z</time></trkpt><trkpt lat="40.07423" lon="15.6271483"><ele>6.0</ele><time>2026-05-02T07:00:05.976Z</time></trkpt><trkpt lat="40.07419" lon="15.6272533"><ele>6.0</ele><time>2026-05-02T07:00:07.976Z</time></trkpt><trkpt lat="40.0741417" lon="15.62736"><ele>6.0</ele><time>2026-05-02T07:00:09.976Z</time></trkpt><trkpt lat="40.0741017" lon="15.6274667"><ele>6.0</ele><time>2026-05-02T07:00:11.976Z</time></trkpt><trkpt lat="40.0740567" lon="15.627575"><ele>6.0</ele><time>2026-05-02T07:00:13.977Z</time></trkpt><trkpt lat="40.07402" lon="15.6276683"><ele>5.833333333333333</ele><time>2026-05-02T07:00:15.976Z</time></trkpt><trkpt lat="40.07398" lon="15.6277517"><ele>5.666666666666667</ele><time>2026-05-02T07:00:17.976Z</time></trkpt><trkpt lat="40.0739433" lon="15.6278533"><ele>5.5</ele><time>2026-05-02T07:00:19.976Z</time></trkpt><trkpt lat="40.0738983" lon="15.6279433"><ele>5.333333333333334</ele><time>2026-05-02T07:00:21.976Z</time></trkpt><trkpt lat="40.0738533" lon="15.6280133"><ele>5.166666666666667</ele><time>2026-05-02T07:00:23.977Z</time></trkpt><trkpt lat="40.073815" lon="15.628095"><ele>5.0</ele><time>2026-05-02T07:00:25.976Z</time></trkpt><trkpt lat="40.0737783" lon="15.6281683"><ele>5.0</ele><time>2026-05-02T07:00:27.976Z</time></trkpt><trkpt lat="40.073735" lon="15.6282433"><ele>5.0</ele><time>2026-05-02T07:00:29.976Z</time></trkpt><trkpt lat="40.073695" lon="15.6283367"><ele>5.0</ele><time>2026-05-02T07:00:31.976Z</time></trkpt><trkpt lat="40.0736583" lon="15.628435"><ele>5.0</ele><time>2026-05-02T07:00:33.976Z</time></trkpt><trkpt lat="40.0736167" lon="15.6285267"><ele>5.0</ele><time>2026-05-02T07:00:35.976Z</time></trkpt><trkpt lat="40.0735833" lon="15.6285983"><ele>5.0</ele><time>2026-05-02T07:00:37.976Z</time></trkpt><trkpt lat="40.0736667" lon="15.6285217"><ele>5.0</ele><time>2026-05-02T07:00:43.976Z</time></trkpt><trkpt lat="40.0737367" lon="15.6283867"><ele>5.0</ele><time>2026-05-02T07:00:45.976Z</time></trkpt><trkpt lat="40.07378" lon="15.6282933"><ele>5.0</ele><time>2026-05-02T07:00:46.976Z</time></trkpt><trkpt lat="40.0738283" lon="15.6281967"><ele>5.0</ele><time>2026-05-02T07:00:47.976Z</time></trkpt><trkpt lat="40.0738833" lon="15.6280917"><ele>5.0</ele><time>2026-05-02T07:00:48.976Z</time></trkpt><trkpt lat="40.073935" lon="15.6279767"><ele>5.0</ele><time>2026-05-02T07:00:49.976Z</time></trkpt><trkpt lat="40.0739917" lon="15.6278567"><ele>5.0</ele><time>2026-05-02T07:00:50.976Z</time></trkpt><trkpt lat="40.074055" lon="15.627725"><ele>5.0</ele><time>2026-05-02T07:00:51.976Z</time></trkpt><trkpt lat="40.0741033" lon="15.6275983"><ele>5.0</ele><time>2026-05-02T07:00:52.977Z</time></trkpt><trkpt lat="40.0741417" lon="15.6275017"><ele>5.0</ele><time>2026-05-02T07:00:53.976Z</time></trkpt><trkpt lat="40.0741767" lon="15.62741"><ele>5.0</ele><time>2026-05-02T07:00:54.977Z</time></trkpt><trkpt lat="40.0742167" lon="15.62732"><ele>5.0</ele><time>2026-05-02T07:00:55.976Z</time></trkpt><trkpt lat="40.0742483" lon="15.6272333"><ele>5.0</ele><time>2026-05-02T07:00:56.976Z</time></trkpt><trkpt lat="40.0742767" lon="15.6271583"><ele>5.0</ele><time>2026-05-02T07:00:57.976Z</time></trkpt><trkpt lat="40.074325" lon="15.627045"><ele>5.0</ele><time>2026-05-02T07:00:59.976Z</time></trkpt><trkpt lat="40.074375" lon="15.6269633"><ele>5.0</ele><time>2026-05-02T07:01:02.976Z</time></trkpt><trkpt lat="40.0743" lon="15.6270383"><ele>5.2</ele><time>2026-05-02T07:01:13.977Z</time></trkpt><trkpt lat="40.0742633" lon="15.6271467"><ele>5.4</ele><time>2026-05-02T07:01:14.977Z</time></trkpt><trkpt lat="40.074225" lon="15.6272467"><ele>5.6</ele><time>2026-05-02T07:01:15.977Z</time></trkpt><trkpt lat="40.07419" lon="15.627325"><ele>5.8</ele><time>2026-05-02T07:01:16.977Z</time></trkpt><trkpt lat="40.07414" lon="15.6274517"><ele>6.0</ele><time>2026-05-02T07:01:18.976Z</time></trkpt><trkpt lat="40.0740767" lon="15.6275617"><ele>5.8</ele><time>2026-05-02T07:01:20.976Z</time></trkpt><trkpt lat="40.0740283" lon="15.6276733"><ele>5.6</ele><time>2026-05-02T07:01:22.977Z</time></trkpt><trkpt lat="40.0739783" lon="15.6277833"><ele>5.4</ele><time>2026-05-02T07:01:24.976Z</time></trkpt><trkpt lat="40.0739317" lon="15.6278867"><ele>5.2</ele><time>2026-05-02T07:01:26.977Z</time></trkpt><trkpt lat="40.0738867" lon="15.62798"><ele>5.0</ele><time>2026-05-02T07:01:28.977Z</time></trkpt><trkpt lat="40.0738417" lon="15.6280633"><ele>5.0</ele><time>2026-05-02T07:01:30.976Z</time></trkpt><trkpt lat="40.0737983" lon="15.6281533"><ele>5.0</ele><time>2026-05-02T07:01:32.976Z</time></trkpt><trkpt lat="40.0737233" lon="15.6282883"><ele>5.0</ele><time>2026-05-02T07:01:34.976Z</time></trkpt><trkpt lat="40.0736833" lon="15.62837"><ele>5.0</ele><time>2026-05-02T07:01:35.976Z</time></trkpt><trkpt lat="40.073645" lon="15.6284467"><ele>5.0</ele><time>2026-05-02T07:01:36.976Z</time></trkpt><trkpt lat="40.0735817" lon="15.628575"><ele>5.333333333333334</ele><time>2026-05-02T07:01:38.977Z</time></trkpt><trkpt lat="40.0735233" lon="15.6286883"><ele>5.666666666666667</ele><time>2026-05-02T07:01:40.977Z</time></trkpt><trkpt lat="40.0734883" lon="15.6287617"><ele>6.0</ele><time>2026-05-02T07:01:41.976Z</time></trkpt><trkpt lat="40.07345" lon="15.6288367"><ele>6.333333333333334</ele><time>2026-05-02T07:01:42.977Z</time></trkpt><trkpt lat="40.0734083" lon="15.6289133"><ele>6.666666666666667</ele><time>2026-05-02T07:01:43.976Z</time></trkpt><trkpt lat="40.0733683" lon="15.62899"><ele>7.0</ele><time>2026-05-02T07:01:44.976Z</time></trkpt><trkpt lat="40.0733283" lon="15.6290617"><ele>7.000000000000001</ele><time>2026-05-02T07:01:45.977Z</time></trkpt><trkpt lat="40.0732917" lon="15.6291333"><ele>7.0</ele><time>2026-05-02T07:01:46.976Z</time></trkpt><trkpt lat="40.07326" lon="15.6292083"><ele>7.0</ele><time>2026-05-02T07:01:47.976Z</time></trkpt><trkpt lat="40.0732233" lon="15.6292767"><ele>7.0</ele><time>2026-05-02T07:01:48.977Z</time></trkpt><trkpt lat="40.073185" lon="15.6293433"><ele>7.000000000000001</ele><time>2026-05-02T07:01:49.976Z</time></trkpt><trkpt lat="40.0731117" lon="15.6294783"><ele>7.0</ele><time>2026-05-02T07:01:51.977Z</time></trkpt><trkpt lat="40.0730717" lon="15.629545"><ele>6.666666666666667</ele><time>2026-05-02T07:01:52.977Z</time></trkpt><trkpt lat="40.0730333" lon="15.6296117"><ele>6.333333333333334</ele><time>2026-05-02T07:01:53.976Z</time></trkpt><trkpt lat="40.0729917" lon="15.6296867"><ele>6.0</ele><time>2026-05-02T07:01:54.977Z</time></trkpt><trkpt lat="40.0729483" lon="15.629755"><ele>5.666666666666667</ele><time>2026-05-02T07:01:55.977Z</time></trkpt><trkpt lat="40.0729067" lon="15.6298183"><ele>5.333333333333334</ele><time>2026-05-02T07:01:56.976Z</time></trkpt><trkpt lat="40.0728217" lon="15.629935"><ele>5.0</ele><time>2026-05-02T07:01:58.976Z</time></trkpt><trkpt lat="40.0727517" lon="15.6300517"><ele>5.0</ele><time>2026-05-02T07:02:00.976Z</time></trkpt><trkpt lat="40.0726883" lon="15.6301383"><ele>5.0</ele><time>2026-05-02T07:02:02.977Z</time></trkpt><trkpt lat="40.0726417" lon="15.6302083"><ele>5.0</ele><time>2026-05-02T07:02:04.976Z</time></trkpt><trkpt lat="40.0725817" lon="15.6303"><ele>5.0</ele><time>2026-05-02T07:02:07.976Z</time></trkpt><trkpt lat="40.0725217" lon="15.6303733"><ele>5.0</ele><time>2026-05-02T07:02:09.976Z</time></trkpt><trkpt lat="40.0724533" lon="15.63046"><ele>5.0</ele><time>2026-05-02T07:02:11.976Z</time></trkpt><trkpt lat="40.0723933" lon="15.630535"><ele>4.5</ele><time>2026-05-02T07:02:13.976Z</time></trkpt><trkpt lat="40.0723367" lon="15.630615"><ele>4.0</ele><time>2026-05-02T07:02:15.976Z</time></trkpt><trkpt lat="40.07229" lon="15.6306833"><ele>3.5</ele><time>2026-05-02T07:02:17.976Z</time></trkpt><trkpt lat="40.0722433" lon="15.6307617"><ele>3.0</ele><time>2026-05-02T07:02:19.977Z</time></trkpt><trkpt lat="40.0722133" lon="15.6308367"><ele>2.5</ele><time>2026-05-02T07:02:22.977Z</time></trkpt><trkpt lat="40.07228" lon="15.6309233"><ele>2.0</ele><time>2026-05-02T07:02:26.976Z</time></trkpt><trkpt lat="40.0723667" lon="15.6310383"><ele>1.9999999999999998</ele><time>2026-05-02T07:02:28.977Z</time></trkpt><trkpt lat="40.07242" lon="15.6311117"><ele>2.0</ele><time>2026-05-02T07:02:29.977Z</time></trkpt><trkpt lat="40.0724717" lon="15.631195"><ele>2.0</ele><time>2026-05-02T07:02:30.976Z</time></trkpt><trkpt lat="40.0725233" lon="15.6312883"><ele>2.0</ele><time>2026-05-02T07:02:31.977Z</time></trkpt><trkpt lat="40.0725683" lon="15.6313867"><ele>1.9999999999999998</ele><time>2026-05-02T07:02:32.976Z</time></trkpt><trkpt lat="40.0726233" lon="15.6314583"><ele>2.0</ele><time>2026-05-02T07:02:33.976Z</time></trkpt><trkpt lat="40.072675" lon="15.63152"><ele>2.5</ele><time>2026-05-02T07:02:34.976Z</time></trkpt><trkpt lat="40.0727267" lon="15.6315767"><ele>3.0</ele><time>2026-05-02T07:02:35.977Z</time></trkpt><trkpt lat="40.072785" lon="15.6316533"><ele>3.5</ele><time>2026-05-02T07:02:36.977Z</time></trkpt><trkpt lat="40.0728467" lon="15.631735"><ele>4.0</ele><time>2026-05-02T07:02:37.976Z</time></trkpt><trkpt lat="40.072915" lon="15.63182"><ele>4.5</ele><time>2026-05-02T07:02:38.976Z</time></trkpt><trkpt lat="40.0729817" lon="15.631905"><ele>5.0</ele><time>2026-05-02T07:02:39.976Z</time></trkpt><trkpt lat="40.073045" lon="15.6319883"><ele>5.333333333333334</ele><time>2026-05-02T07:02:40.976Z</time></trkpt><trkpt lat="40.07311" lon="15.6320617"><ele>5.666666666666667</ele><time>2026-05-02T07:02:41.977Z</time></trkpt><trkpt lat="40.0731633" lon="15.6321333"><ele>6.0</ele><time>2026-05-02T07:02:42.976Z</time></trkpt><trkpt lat="40.073215" lon="15.6322033"><ele>6.333333333333334</ele><time>2026-05-02T07:02:43.976Z</time></trkpt><trkpt lat="40.073275" lon="15.6322767"><ele>6.666666666666667</ele><time>2026-05-02T07:02:44.976Z</time></trkpt><trkpt lat="40.0733333" lon="15.6323617"><ele>7.0</ele><time>2026-05-02T07:02:45.976Z</time></trkpt><trkpt lat="40.07339" lon="15.6324367"><ele>7.000000000000001</ele><time>2026-05-02T07:02:46.976Z</time></trkpt><trkpt lat="40.07345" lon="15.6325117"><ele>7.0</ele><time>2026-05-02T07:02:47.977Z</time></trkpt><trkpt lat="40.0735067" lon="15.632575"><ele>7.0</ele><time>2026-05-02T07:02:48.976Z</time></trkpt><trkpt lat="40.0735667" lon="15.6326383"><ele>7.0</ele><time>2026-05-02T07:02:49.976Z</time></trkpt><trkpt lat="40.0736133" lon="15.6327033"><ele>7.000000000000001</ele><time>2026-05-02T07:02:50.976Z</time></trkpt><trkpt lat="40.0736933" lon="15.632805"><ele>7.0</ele><time>2026-05-02T07:02:52.976Z</time></trkpt><trkpt lat="40.0737367" lon="15.63289"><ele>7.000000000000001</ele><time>2026-05-02T07:02:54.977Z</time></trkpt><trkpt lat="40.0738167" lon="15.6329917"><ele>7.0</ele><time>2026-05-02T07:02:56.976Z</time></trkpt><trkpt lat="40.073875" lon="15.63307"><ele>7.0</ele><time>2026-05-02T07:02:57.977Z</time></trkpt><trkpt lat="40.0739383" lon="15.6331567"><ele>7.0</ele><time>2026-05-02T07:02:58.976Z</time></trkpt><trkpt lat="40.0739967" lon="15.6332333"><ele>7.000000000000001</ele><time>2026-05-02T07:02:59.977Z</time></trkpt><trkpt lat="40.074055" lon="15.6332933"><ele>7.0</ele><time>2026-05-02T07:03:00.976Z</time></trkpt><trkpt lat="40.0741067" lon="15.6333617"><ele>7.166666666666667</ele><time>2026-05-02T07:03:01.977Z</time></trkpt><trkpt lat="40.07418" lon="15.63346"><ele>7.333333333333334</ele><time>2026-05-02T07:03:03.976Z</time></trkpt><trkpt lat="40.0742133" lon="15.63353"><ele>7.5</ele><time>2026-05-02T07:03:07.976Z</time></trkpt><trkpt lat="40.0742967" lon="15.633565"><ele>7.666666666666666</ele><time>2026-05-02T07:03:11.977Z</time></trkpt><trkpt lat="40.07435" lon="15.6336233"><ele>7.833333333333333</ele><time>2026-05-02T07:03:55.977Z</time></trkpt><trkpt lat="40.07438" lon="15.633705"><ele>8.0</ele><time>2026-05-02T07:03:57.977Z</time></trkpt><trkpt lat="40.07435" lon="15.6336217"><ele>8.142857142857142</ele><time>2026-05-02T07:34:39.975Z</time></trkpt><trkpt lat="40.0743833" lon="15.6335317"><ele>8.285714285714285</ele><time>2026-05-02T07:34:42.975Z</time></trkpt><trkpt lat="40.0744433" lon="15.633465"><ele>8.428571428571429</ele><time>2026-05-02T07:34:45.975Z</time></trkpt><trkpt lat="40.0744967" lon="15.63342"><ele>8.571428571428571</ele><time>2026-05-02T07:34:47.975Z</time></trkpt><trkpt lat="40.0745633" lon="15.6334117"><ele>8.714285714285715</ele><time>2026-05-02T07:34:50.975Z</time></trkpt><trkpt lat="40.074645" lon="15.63346"><ele>8.857142857142858</ele><time>2026-05-02T07:34:55.975Z</time></trkpt><trkpt lat="40.0747133" lon="15.633485"><ele>9.0</ele><time>2026-05-02T07:34:57.975Z</time></trkpt><trkpt lat="40.0747767" lon="15.6335367"><ele>9.0</ele><time>2026-05-02T07:35:00.976Z</time></trkpt><trkpt lat="40.0748317" lon="15.6335783"><ele>9.0</ele><time>2026-05-02T07:35:02.976Z</time></trkpt><trkpt lat="40.07492" lon="15.6336033"><ele>9.0</ele><time>2026-05-02T07:35:04.975Z</time></trkpt><trkpt lat="40.0750217" lon="15.6335867"><ele>9.0</ele><time>2026-05-02T07:35:06.976Z</time></trkpt><trkpt lat="40.0750967" lon="15.6335167"><ele>9.0</ele><time>2026-05-02T07:35:08.975Z</time></trkpt><trkpt lat="40.075195" lon="15.6333967"><ele>9.0</ele><time>2026-05-02T07:35:10.975Z</time></trkpt><trkpt lat="40.0752567" lon="15.6333317"><ele>9.0</ele><time>2026-05-02T07:35:11.975Z</time></trkpt><trkpt lat="40.07531" lon="15.63327"><ele>9.0</ele><time>2026-05-02T07:35:12.975Z</time></trkpt><trkpt lat="40.075415" lon="15.6331517"><ele>9.0</ele><time>2026-05-02T07:35:14.975Z</time></trkpt><trkpt lat="40.0754717" lon="15.6330667"><ele>9.0</ele><time>2026-05-02T07:35:15.976Z</time></trkpt><trkpt lat="40.0755267" lon="15.6329967"><ele>9.0</ele><time>2026-05-02T07:35:16.976Z</time></trkpt><trkpt lat="40.075575" lon="15.6329233"><ele>9.0</ele><time>2026-05-02T07:35:17.976Z</time></trkpt><trkpt lat="40.07563" lon="15.6328533"><ele>9.0</ele><time>2026-05-02T07:35:18.975Z</time></trkpt><trkpt lat="40.07569" lon="15.6327767"><ele>9.0</ele><time>2026-05-02T07:35:19.976Z</time></trkpt><trkpt lat="40.07575" lon="15.632695"><ele>9.0</ele><time>2026-05-02T07:35:20.975Z</time></trkpt><trkpt lat="40.0758083" lon="15.6325983"><ele>9.0</ele><time>2026-05-02T07:35:21.975Z</time></trkpt><trkpt lat="40.0758567" lon="15.6325133"><ele>9.0</ele><time>2026-05-02T07:35:22.975Z</time></trkpt><trkpt lat="40.0759017" lon="15.6324433"><ele>9.0</ele><time>2026-05-02T07:35:23.975Z</time></trkpt><trkpt lat="40.0759367" lon="15.632355"><ele>9.0</ele><time>2026-05-02T07:35:25.975Z</time></trkpt><trkpt lat="40.0759783" lon="15.632245"><ele>9.0</ele><time>2026-05-02T07:35:30.975Z</time></trkpt><trkpt lat="40.0760233" lon="15.6321767"><ele>9.0</ele><time>2026-05-02T07:35:32.976Z</time></trkpt><trkpt lat="40.0760817" lon="15.63204"><ele>9.0</ele><time>2026-05-02T07:35:34.975Z</time></trkpt><trkpt lat="40.0761117" lon="15.631955"><ele>9.0</ele><time>2026-05-02T07:35:35.975Z</time></trkpt><trkpt lat="40.07614" lon="15.6318467"><ele>9.0</ele><time>2026-05-02T07:35:36.975Z</time></trkpt><trkpt lat="40.076165" lon="15.6317433"><ele>9.0</ele><time>2026-05-02T07:35:37.976Z</time></trkpt><trkpt lat="40.076185" lon="15.631635"><ele>9.0</ele><time>2026-05-02T07:35:38.976Z</time></trkpt><trkpt lat="40.07619" lon="15.631525"><ele>9.0</ele><time>2026-05-02T07:35:39.976Z</time></trkpt><trkpt lat="40.0762067" lon="15.63142"><ele>9.0</ele><time>2026-05-02T07:35:40.975Z</time></trkpt><trkpt lat="40.07623" lon="15.6313317"><ele>9.0</ele><time>2026-05-02T07:35:41.976Z</time></trkpt><trkpt lat="40.0762633" lon="15.6312583"><ele>9.0</ele><time>2026-05-02T07:35:42.976Z</time></trkpt><trkpt lat="40.0763067" lon="15.63117"><ele>9.0</ele><time>2026-05-02T07:35:44.975Z</time></trkpt><trkpt lat="40.0762233" lon="15.6310933"><ele>9.0</ele><time>2026-05-02T07:35:49.976Z</time></trkpt><trkpt lat="40.076165" lon="15.6310617"><ele>9.0</ele><time>2026-05-02T07:35:50.975Z</time></trkpt><trkpt lat="40.0761017" lon="15.6310317"><ele>9.0</ele><time>2026-05-02T07:35:51.975Z</time></trkpt><trkpt lat="40.07603" lon="15.6309883"><ele>9.0</ele><time>2026-05-02T07:35:52.976Z</time></trkpt><trkpt lat="40.0759617" lon="15.6309683"><ele>9.0</ele><time>2026-05-02T07:35:53.975Z</time></trkpt><trkpt lat="40.0758583" lon="15.6308933"><ele>9.0</ele><time>2026-05-02T07:35:55.975Z</time></trkpt><trkpt lat="40.0757583" lon="15.63084"><ele>9.0</ele><time>2026-05-02T07:35:57.976Z</time></trkpt><trkpt lat="40.0756483" lon="15.630785"><ele>9.0</ele><time>2026-05-02T07:35:59.975Z</time></trkpt><trkpt lat="40.0755867" lon="15.6307517"><ele>9.0</ele><time>2026-05-02T07:36:00.976Z</time></trkpt><trkpt lat="40.0754867" lon="15.63068"><ele>9.0</ele><time>2026-05-02T07:36:02.976Z</time></trkpt><trkpt lat="40.0754233" lon="15.6306067"><ele>9.0</ele><time>2026-05-02T07:36:05.975Z</time></trkpt><trkpt lat="40.07534" lon="15.6305583"><ele>9.0</ele><time>2026-05-02T07:36:08.975Z</time></trkpt><trkpt lat="40.0752683" lon="15.6305133"><ele>9.0</ele><time>2026-05-02T07:36:11.975Z</time></trkpt><trkpt lat="40.0751833" lon="15.630475"><ele>9.0</ele><time>2026-05-02T07:36:13.975Z</time></trkpt><trkpt lat="40.0751017" lon="15.6304367"><ele>9.0</ele><time>2026-05-02T07:36:15.975Z</time></trkpt><trkpt lat="40.0750183" lon="15.6304033"><ele>9.0</ele><time>2026-05-02T07:36:17.976Z</time></trkpt><trkpt lat="40.0749367" lon="15.63037"><ele>9.0</ele><time>2026-05-02T07:36:19.975Z</time></trkpt><trkpt lat="40.0748467" lon="15.6303167"><ele>9.0</ele><time>2026-05-02T07:36:21.975Z</time></trkpt><trkpt lat="40.0747567" lon="15.6302567"><ele>8.8</ele><time>2026-05-02T07:36:23.976Z</time></trkpt><trkpt lat="40.0746533" lon="15.63019"><ele>8.600000000000001</ele><time>2026-05-02T07:36:25.975Z</time></trkpt><trkpt lat="40.0745617" lon="15.6301117"><ele>8.4</ele><time>2026-05-02T07:36:27.975Z</time></trkpt><trkpt lat="40.074505" lon="15.63006"><ele>8.200000000000001</ele><time>2026-05-02T07:36:29.975Z</time></trkpt><trkpt lat="40.0744533" lon="15.629985"><ele>8.0</ele><time>2026-05-02T07:36:32.975Z</time></trkpt><trkpt lat="40.0743767" lon="15.62991"><ele>7.999999999999999</ele><time>2026-05-02T07:36:34.975Z</time></trkpt><trkpt lat="40.074315" lon="15.6298533"><ele>8.0</ele><time>2026-05-02T07:36:35.975Z</time></trkpt><trkpt lat="40.0742383" lon="15.6297933"><ele>8.0</ele><time>2026-05-02T07:36:36.975Z</time></trkpt><trkpt lat="40.0741583" lon="15.6297367"><ele>8.0</ele><time>2026-05-02T07:36:37.976Z</time></trkpt><trkpt lat="40.0740817" lon="15.6296867"><ele>7.999999999999999</ele><time>2026-05-02T07:36:38.975Z</time></trkpt><trkpt lat="40.0740117" lon="15.6296367"><ele>8.0</ele><time>2026-05-02T07:36:39.976Z</time></trkpt><trkpt lat="40.07395" lon="15.6296"><ele>7.999999999999999</ele><time>2026-05-02T07:36:40.976Z</time></trkpt><trkpt lat="40.0738583" lon="15.6295233"><ele>8.0</ele><time>2026-05-02T07:36:42.975Z</time></trkpt><trkpt lat="40.07378" lon="15.6294967"><ele>8.0</ele><time>2026-05-02T07:36:44.975Z</time></trkpt><trkpt lat="40.0737133" lon="15.6294483"><ele>8.0</ele><time>2026-05-02T07:37:06.975Z</time></trkpt><trkpt lat="40.0736517" lon="15.6294067"><ele>7.999999999999999</ele><time>2026-05-02T07:37:08.975Z</time></trkpt><trkpt lat="40.073575" lon="15.6293717"><ele>8.0</ele><time>2026-05-02T07:37:10.976Z</time></trkpt><trkpt lat="40.0735133" lon="15.6293417"><ele>7.833333333333333</ele><time>2026-05-02T07:37:12.976Z</time></trkpt><trkpt lat="40.073445" lon="15.6293133"><ele>7.666666666666666</ele><time>2026-05-02T07:37:16.976Z</time></trkpt><trkpt lat="40.0733833" lon="15.62928"><ele>7.5</ele><time>2026-05-02T07:37:19.975Z</time></trkpt><trkpt lat="40.0733433" lon="15.6291917"><ele>7.333333333333334</ele><time>2026-05-02T07:37:26.975Z</time></trkpt><trkpt lat="40.0733733" lon="15.6290933"><ele>7.166666666666667</ele><time>2026-05-02T07:37:28.976Z</time></trkpt><trkpt lat="40.0734417" lon="15.628945"><ele>7.0</ele><time>2026-05-02T07:37:30.975Z</time></trkpt><trkpt lat="40.073485" lon="15.6288583"><ele>7.0</ele><time>2026-05-02T07:37:31.976Z</time></trkpt><trkpt lat="40.07354" lon="15.6287533"><ele>7.0</ele><time>2026-05-02T07:37:32.975Z</time></trkpt><trkpt lat="40.0736183" lon="15.6286333"><ele>7.0</ele><time>2026-05-02T07:37:33.976Z</time></trkpt><trkpt lat="40.0736783" lon="15.6284983"><ele>7.0</ele><time>2026-05-02T07:37:34.976Z</time></trkpt><trkpt lat="40.07375" lon="15.6283433"><ele>6.5</ele><time>2026-05-02T07:37:35.975Z</time></trkpt><trkpt lat="40.0738217" lon="15.6281883"><ele>6.0</ele><time>2026-05-02T07:37:36.975Z</time></trkpt><trkpt lat="40.0738883" lon="15.6280417"><ele>5.5</ele><time>2026-05-02T07:37:37.975Z</time></trkpt><trkpt lat="40.073955" lon="15.627895"><ele>5.0</ele><time>2026-05-02T07:37:38.975Z</time></trkpt><trkpt lat="40.0740083" lon="15.6277483"><ele>5.2</ele><time>2026-05-02T07:37:39.975Z</time></trkpt><trkpt lat="40.0740533" lon="15.6276083"><ele>5.4</ele><time>2026-05-02T07:37:40.975Z</time></trkpt><trkpt lat="40.0740967" lon="15.627495"><ele>5.6</ele><time>2026-05-02T07:37:41.975Z</time></trkpt><trkpt lat="40.0741367" lon="15.6273783"><ele>5.8</ele><time>2026-05-02T07:37:42.975Z</time></trkpt><trkpt lat="40.074175" lon="15.62729"><ele>6.0</ele><time>2026-05-02T07:37:43.975Z</time></trkpt><trkpt lat="40.0742083" lon="15.6272183"><ele>6.0</ele><time>2026-05-02T07:37:44.976Z</time></trkpt><trkpt lat="40.0742717" lon="15.627075"><ele>6.0</ele><time>2026-05-02T07:37:46.975Z</time></trkpt><trkpt lat="40.0743133" lon="15.626995"><ele>6.0</ele><time>2026-05-02T07:37:47.975Z</time></trkpt><trkpt lat="40.0743533" lon="15.6268917"><ele>6.0</ele><time>2026-05-02T07:37:48.975Z</time></trkpt><trkpt lat="40.074395" lon="15.6267667"><ele>6.0</ele><time>2026-05-02T07:37:49.975Z</time></trkpt><trkpt lat="40.074425" lon="15.6266317"><ele>6.0</ele><time>2026-05-02T07:37:50.975Z</time></trkpt><trkpt lat="40.0744567" lon="15.62649"><ele>6.0</ele><time>2026-05-02T07:37:51.976Z</time></trkpt><trkpt lat="40.0744867" lon="15.6263183"><ele>6.0</ele><time>2026-05-02T07:37:52.976Z</time></trkpt><trkpt lat="40.0745133" lon="15.626155"><ele>6.0</ele><time>2026-05-02T07:37:53.975Z</time></trkpt><trkpt lat="40.07453" lon="15.6260033"><ele>6.0</ele><time>2026-05-02T07:37:54.976Z</time></trkpt><trkpt lat="40.0745383" lon="15.6258683"><ele>6.0</ele><time>2026-05-02T07:37:55.975Z</time></trkpt><trkpt lat="40.0745483" lon="15.6257367"><ele>6.0</ele><time>2026-05-02T07:37:56.976Z</time></trkpt><trkpt lat="40.0745633" lon="15.6256117"><ele>6.0</ele><time>2026-05-02T07:37:57.976Z</time></trkpt><trkpt lat="40.074575" lon="15.6254783"><ele>6.0</ele><time>2026-05-02T07:37:58.975Z</time></trkpt><trkpt lat="40.07459" lon="15.625335"><ele>6.0</ele><time>2026-05-02T07:37:59.975Z</time></trkpt><trkpt lat="40.0746017" lon="15.62521"><ele>6.0</ele><time>2026-05-02T07:38:00.975Z</time></trkpt><trkpt lat="40.074585" lon="15.6250333"><ele>6.0</ele><time>2026-05-02T07:38:01.976Z</time></trkpt><trkpt lat="40.0745683" lon="15.6248467"><ele>6.0</ele><time>2026-05-02T07:38:02.976Z</time></trkpt><trkpt lat="40.0745333" lon="15.62465"><ele>5.333333333333333</ele><time>2026-05-02T07:38:03.975Z</time></trkpt><trkpt lat="40.0744867" lon="15.6244283"><ele>4.666666666666666</ele><time>2026-05-02T07:38:04.975Z</time></trkpt><trkpt lat="40.07443" lon="15.6242233"><ele>4.0</ele><time>2026-05-02T07:38:05.975Z</time></trkpt><trkpt lat="40.074375" lon="15.6240483"><ele>4.0</ele><time>2026-05-02T07:38:06.976Z</time></trkpt><trkpt lat="40.074335" lon="15.62388"><ele>4.0</ele><time>2026-05-02T07:38:07.975Z</time></trkpt><trkpt lat="40.0742967" lon="15.6237183"><ele>4.0</ele><time>2026-05-02T07:38:08.975Z</time></trkpt><trkpt lat="40.0742583" lon="15.62356"><ele>4.0</ele><time>2026-05-02T07:38:09.975Z</time></trkpt><trkpt lat="40.0742217" lon="15.623405"><ele>4.0</ele><time>2026-05-02T07:38:10.976Z</time></trkpt><trkpt lat="40.0741933" lon="15.6232567"><ele>4.0</ele><time>2026-05-02T07:38:11.975Z</time></trkpt><trkpt lat="40.0741667" lon="15.6231167"><ele>4.0</ele><time>2026-05-02T07:38:12.975Z</time></trkpt><trkpt lat="40.0741367" lon="15.6229967"><ele>4.0</ele><time>2026-05-02T07:38:13.976Z</time></trkpt><trkpt lat="40.0741117" lon="15.6228917"><ele>4.0</ele><time>2026-05-02T07:38:14.975Z</time></trkpt><trkpt lat="40.0740783" lon="15.6227883"><ele>4.800000000000001</ele><time>2026-05-02T07:38:15.976Z</time></trkpt><trkpt lat="40.0740467" lon="15.6226783"><ele>5.6000000000000005</ele><time>2026-05-02T07:38:16.975Z</time></trkpt><trkpt lat="40.074" lon="15.6225583"><ele>6.4</ele><time>2026-05-02T07:38:17.975Z</time></trkpt><trkpt lat="40.07394" lon="15.6224517"><ele>7.2</ele><time>2026-05-02T07:38:18.975Z</time></trkpt><trkpt lat="40.0738883" lon="15.6223633"><ele>8.0</ele><time>2026-05-02T07:38:19.975Z</time></trkpt><trkpt lat="40.073835" lon="15.6222967"><ele>7.999999999999999</ele><time>2026-05-02T07:38:20.975Z</time></trkpt><trkpt lat="40.0737733" lon="15.6222283"><ele>8.0</ele><time>2026-05-02T07:38:21.975Z</time></trkpt><trkpt lat="40.07369" lon="15.6221617"><ele>8.0</ele><time>2026-05-02T07:38:22.975Z</time></trkpt><trkpt lat="40.07361" lon="15.622085"><ele>8.0</ele><time>2026-05-02T07:38:23.976Z</time></trkpt><trkpt lat="40.0735333" lon="15.622025"><ele>7.999999999999999</ele><time>2026-05-02T07:38:24.975Z</time></trkpt><trkpt lat="40.07347" lon="15.6219767"><ele>8.0</ele><time>2026-05-02T07:38:25.975Z</time></trkpt><trkpt lat="40.0734033" lon="15.6219417"><ele>8.200000000000001</ele><time>2026-05-02T07:38:35.976Z</time></trkpt><trkpt lat="40.0733417" lon="15.6218917"><ele>8.4</ele><time>2026-05-02T07:38:37.975Z</time></trkpt><trkpt lat="40.07325" lon="15.62182"><ele>8.600000000000001</ele><time>2026-05-02T07:38:39.975Z</time></trkpt><trkpt lat="40.073135" lon="15.6217617"><ele>8.8</ele><time>2026-05-02T07:38:41.976Z</time></trkpt><trkpt lat="40.0730717" lon="15.6217433"><ele>9.0</ele><time>2026-05-02T07:38:42.976Z</time></trkpt><trkpt lat="40.0729567" lon="15.621725"><ele>9.0</ele><time>2026-05-02T07:38:44.976Z</time></trkpt><trkpt lat="40.0728383" lon="15.6217283"><ele>9.0</ele><time>2026-05-02T07:38:46.976Z</time></trkpt><trkpt lat="40.07272" lon="15.6217483"><ele>9.0</ele><time>2026-05-02T07:38:48.975Z</time></trkpt><trkpt lat="40.0726483" lon="15.62175"><ele>9.0</ele><time>2026-05-02T07:38:49.976Z</time></trkpt><trkpt lat="40.07256" lon="15.62174"><ele>9.0</ele><time>2026-05-02T07:38:50.975Z</time></trkpt><trkpt lat="40.07247" lon="15.6217183"><ele>8.0</ele><time>2026-05-02T07:38:51.976Z</time></trkpt><trkpt lat="40.0723967" lon="15.6217033"><ele>7.0</ele><time>2026-05-02T07:38:52.976Z</time></trkpt><trkpt lat="40.072285" lon="15.62166"><ele>6.0</ele><time>2026-05-02T07:38:54.975Z</time></trkpt><trkpt lat="40.072185" lon="15.621585"><ele>5.0</ele><time>2026-05-02T07:38:56.975Z</time></trkpt><trkpt lat="40.072095" lon="15.62152"><ele>4.0</ele><time>2026-05-02T07:38:58.975Z</time></trkpt><trkpt lat="40.07199" lon="15.6214617"><ele>4.0</ele><time>2026-05-02T07:39:00.975Z</time></trkpt><trkpt lat="40.0719033" lon="15.6214133"><ele>4.0</ele><time>2026-05-02T07:39:02.975Z</time></trkpt><trkpt lat="40.0718067" lon="15.6213567"><ele>4.0</ele><time>2026-05-02T07:39:04.976Z</time></trkpt><trkpt lat="40.0717083" lon="15.6212933"><ele>4.0</ele><time>2026-05-02T07:39:06.976Z</time></trkpt><trkpt lat="40.071615" lon="15.6212117"><ele>4.0</ele><time>2026-05-02T07:39:08.975Z</time></trkpt><trkpt lat="40.0715567" lon="15.621175"><ele>4.166666666666666</ele><time>2026-05-02T07:39:09.975Z</time></trkpt><trkpt lat="40.0714967" lon="15.621145"><ele>4.333333333333333</ele><time>2026-05-02T07:39:10.975Z</time></trkpt><trkpt lat="40.071435" lon="15.621115"><ele>4.5</ele><time>2026-05-02T07:39:11.976Z</time></trkpt><trkpt lat="40.0713717" lon="15.6210833"><ele>4.666666666666667</ele><time>2026-05-02T07:39:12.976Z</time></trkpt><trkpt lat="40.07131" lon="15.621045"><ele>4.833333333333334</ele><time>2026-05-02T07:39:13.975Z</time></trkpt><trkpt lat="40.07121" lon="15.620945"><ele>5.0</ele><time>2026-05-02T07:39:15.975Z</time></trkpt><trkpt lat="40.0711717" lon="15.6208767"><ele>5.0</ele><time>2026-05-02T07:39:16.975Z</time></trkpt><trkpt lat="40.0711417" lon="15.6207967"><ele>5.0</ele><time>2026-05-02T07:39:17.976Z</time></trkpt><trkpt lat="40.071115" lon="15.620715"><ele>5.0</ele><time>2026-05-02T07:39:18.976Z</time></trkpt><trkpt lat="40.0710883" lon="15.6206333"><ele>5.0</ele><time>2026-05-02T07:39:19.975Z</time></trkpt><trkpt lat="40.0710667" lon="15.62055"><ele>5.0</ele><time>2026-05-02T07:39:20.976Z</time></trkpt><trkpt lat="40.0710383" lon="15.6204583"><ele>5.0</ele><time>2026-05-02T07:39:21.975Z</time></trkpt><trkpt lat="40.071015" lon="15.6203667"><ele>5.0</ele><time>2026-05-02T07:39:22.975Z</time></trkpt><trkpt lat="40.0709883" lon="15.6202717"><ele>6.0</ele><time>2026-05-02T07:39:23.976Z</time></trkpt><trkpt lat="40.0709667" lon="15.6201733"><ele>7.0</ele><time>2026-05-02T07:39:24.976Z</time></trkpt><trkpt lat="40.0709433" lon="15.6200667"><ele>8.0</ele><time>2026-05-02T07:39:25.976Z</time></trkpt><trkpt lat="40.0709117" lon="15.619965"><ele>9.0</ele><time>2026-05-02T07:39:26.976Z</time></trkpt><trkpt lat="40.070875" lon="15.619865"><ele>10.0</ele><time>2026-05-02T07:39:27.976Z</time></trkpt><trkpt lat="40.0708417" lon="15.6197683"><ele>11.0</ele><time>2026-05-02T07:39:28.975Z</time></trkpt><trkpt lat="40.0707933" lon="15.6196667"><ele>10.75</ele><time>2026-05-02T07:39:29.975Z</time></trkpt><trkpt lat="40.0707383" lon="15.6195617"><ele>10.5</ele><time>2026-05-02T07:39:30.975Z</time></trkpt><trkpt lat="40.0706683" lon="15.6194417"><ele>10.25</ele><time>2026-05-02T07:39:31.975Z</time></trkpt><trkpt lat="40.07058" lon="15.6193217"><ele>10.0</ele><time>2026-05-02T07:39:32.975Z</time></trkpt><trkpt lat="40.0704917" lon="15.6192167"><ele>10.0</ele><time>2026-05-02T07:39:33.975Z</time></trkpt><trkpt lat="40.07041" lon="15.61913"><ele>10.0</ele><time>2026-05-02T07:39:34.976Z</time></trkpt><trkpt lat="40.0703233" lon="15.61905"><ele>10.0</ele><time>2026-05-02T07:39:35.975Z</time></trkpt><trkpt lat="40.0702333" lon="15.619"><ele>10.0</ele><time>2026-05-02T07:39:36.976Z</time></trkpt><trkpt lat="40.070145" lon="15.6189567"><ele>10.0</ele><time>2026-05-02T07:39:37.975Z</time></trkpt><trkpt lat="40.070065" lon="15.6189117"><ele>10.0</ele><time>2026-05-02T07:39:38.975Z</time></trkpt><trkpt lat="40.0699917" lon="15.6188683"><ele>10.0</ele><time>2026-05-02T07:39:39.975Z</time></trkpt><trkpt lat="40.06992" lon="15.6188183"><ele>10.0</ele><time>2026-05-02T07:39:40.976Z</time></trkpt><trkpt lat="40.06985" lon="15.618765"><ele>10.0</ele><time>2026-05-02T07:39:41.976Z</time></trkpt><trkpt lat="40.06978" lon="15.61872"><ele>10.0</ele><time>2026-05-02T07:39:42.975Z</time></trkpt><trkpt lat="40.0697167" lon="15.618665"><ele>10.0</ele><time>2026-05-02T07:39:43.975Z</time></trkpt><trkpt lat="40.0696617" lon="15.61861"><ele>9.857142857142858</ele><time>2026-05-02T07:39:44.976Z</time></trkpt><trkpt lat="40.069605" lon="15.618555"><ele>9.714285714285715</ele><time>2026-05-02T07:39:45.975Z</time></trkpt><trkpt lat="40.069545" lon="15.6185033"><ele>9.571428571428573</ele><time>2026-05-02T07:39:46.976Z</time></trkpt><trkpt lat="40.06949" lon="15.6184433"><ele>9.428571428571429</ele><time>2026-05-02T07:39:47.975Z</time></trkpt><trkpt lat="40.0694417" lon="15.6183767"><ele>9.285714285714286</ele><time>2026-05-02T07:39:48.976Z</time></trkpt><trkpt lat="40.0693983" lon="15.618305"><ele>9.142857142857144</ele><time>2026-05-02T07:39:49.975Z</time></trkpt><trkpt lat="40.069365" lon="15.6182283"><ele>9.0</ele><time>2026-05-02T07:39:50.976Z</time></trkpt><trkpt lat="40.0693367" lon="15.6181433"><ele>9.000000000000002</ele><time>2026-05-02T07:39:51.975Z</time></trkpt><trkpt lat="40.0693067" lon="15.6180583"><ele>9.0</ele><time>2026-05-02T07:39:52.975Z</time></trkpt><trkpt lat="40.0692883" lon="15.6179633"><ele>9.0</ele><time>2026-05-02T07:39:53.975Z</time></trkpt><trkpt lat="40.0692683" lon="15.6178667"><ele>9.0</ele><time>2026-05-02T07:39:54.975Z</time></trkpt><trkpt lat="40.0692517" lon="15.6177767"><ele>9.0</ele><time>2026-05-02T07:39:55.975Z</time></trkpt><trkpt lat="40.0692383" lon="15.6176817"><ele>9.000000000000002</ele><time>2026-05-02T07:39:56.975Z</time></trkpt><trkpt lat="40.06923" lon="15.61759"><ele>9.0</ele><time>2026-05-02T07:39:57.976Z</time></trkpt><trkpt lat="40.069235" lon="15.6174967"><ele>9.166666666666666</ele><time>2026-05-02T07:39:58.975Z</time></trkpt><trkpt lat="40.0692433" lon="15.6173933"><ele>9.333333333333334</ele><time>2026-05-02T07:39:59.976Z</time></trkpt><trkpt lat="40.069255" lon="15.617285"><ele>9.5</ele><time>2026-05-02T07:40:00.975Z</time></trkpt><trkpt lat="40.0692667" lon="15.6171767"><ele>9.666666666666668</ele><time>2026-05-02T07:40:01.975Z</time></trkpt><trkpt lat="40.069275" lon="15.6170733"><ele>9.833333333333334</ele><time>2026-05-02T07:40:02.975Z</time></trkpt><trkpt lat="40.0692933" lon="15.6169633"><ele>10.0</ele><time>2026-05-02T07:40:03.976Z</time></trkpt><trkpt lat="40.0693183" lon="15.61685"><ele>9.5</ele><time>2026-05-02T07:40:04.975Z</time></trkpt><trkpt lat="40.069335" lon="15.6167483"><ele>9.0</ele><time>2026-05-02T07:40:05.975Z</time></trkpt><trkpt lat="40.06935" lon="15.6166517"><ele>8.5</ele><time>2026-05-02T07:40:06.975Z</time></trkpt><trkpt lat="40.0693733" lon="15.6165533"><ele>8.0</ele><time>2026-05-02T07:40:07.975Z</time></trkpt><trkpt lat="40.069405" lon="15.6164567"><ele>7.500000000000001</ele><time>2026-05-02T07:40:08.975Z</time></trkpt><trkpt lat="40.0694383" lon="15.61636"><ele>7.0</ele><time>2026-05-02T07:40:09.975Z</time></trkpt><trkpt lat="40.069475" lon="15.6162767"><ele>7.000000000000001</ele><time>2026-05-02T07:40:10.975Z</time></trkpt><trkpt lat="40.0695233" lon="15.6162"><ele>7.0</ele><time>2026-05-02T07:40:11.975Z</time></trkpt><trkpt lat="40.0695733" lon="15.6161"><ele>7.0</ele><time>2026-05-02T07:40:12.976Z</time></trkpt><trkpt lat="40.069625" lon="15.616005"><ele>7.0</ele><time>2026-05-02T07:40:13.975Z</time></trkpt><trkpt lat="40.0696783" lon="15.6159217"><ele>7.000000000000001</ele><time>2026-05-02T07:40:14.975Z</time></trkpt><trkpt lat="40.0697333" lon="15.61584"><ele>7.0</ele><time>2026-05-02T07:40:15.975Z</time></trkpt><trkpt lat="40.0697767" lon="15.6157567"><ele>7.000000000000001</ele><time>2026-05-02T07:40:16.975Z</time></trkpt><trkpt lat="40.0698217" lon="15.615675"><ele>7.0</ele><time>2026-05-02T07:40:17.975Z</time></trkpt><trkpt lat="40.0698683" lon="15.6155967"><ele>7.0</ele><time>2026-05-02T07:40:18.976Z</time></trkpt><trkpt lat="40.0699183" lon="15.6155183"><ele>7.0</ele><time>2026-05-02T07:40:19.975Z</time></trkpt><trkpt lat="40.0699717" lon="15.6154467"><ele>7.000000000000001</ele><time>2026-05-02T07:40:20.975Z</time></trkpt><trkpt lat="40.0700217" lon="15.615365"><ele>7.0</ele><time>2026-05-02T07:40:21.976Z</time></trkpt><trkpt lat="40.0700733" lon="15.6152833"><ele>6.833333333333334</ele><time>2026-05-02T07:40:22.975Z</time></trkpt><trkpt lat="40.0701183" lon="15.6152033"><ele>6.666666666666667</ele><time>2026-05-02T07:40:23.975Z</time></trkpt><trkpt lat="40.0701717" lon="15.6151167"><ele>6.5</ele><time>2026-05-02T07:40:24.975Z</time></trkpt><trkpt lat="40.0702283" lon="15.6150383"><ele>6.333333333333334</ele><time>2026-05-02T07:40:25.975Z</time></trkpt><trkpt lat="40.0702833" lon="15.61495"><ele>6.166666666666667</ele><time>2026-05-02T07:40:26.975Z</time></trkpt><trkpt lat="40.0703433" lon="15.6148567"><ele>6.0</ele><time>2026-05-02T07:40:27.975Z</time></trkpt><trkpt lat="40.0704083" lon="15.6147633"><ele>6.0</ele><time>2026-05-02T07:40:28.976Z</time></trkpt><trkpt lat="40.07047" lon="15.6146783"><ele>6.0</ele><time>2026-05-02T07:40:29.975Z</time></trkpt><trkpt lat="40.0705167" lon="15.61461"><ele>6.0</ele><time>2026-05-02T07:40:30.975Z</time></trkpt><trkpt lat="40.0705567" lon="15.6145333"><ele>6.0</ele><time>2026-05-02T07:40:31.975Z</time></trkpt><trkpt lat="40.0706017" lon="15.6144667"><ele>6.0</ele><time>2026-05-02T07:40:32.975Z</time></trkpt><trkpt lat="40.070655" lon="15.614385"><ele>6.0</ele><time>2026-05-02T07:40:33.975Z</time></trkpt><trkpt lat="40.070705" lon="15.6142967"><ele>5.8</ele><time>2026-05-02T07:40:34.976Z</time></trkpt><trkpt lat="40.07076" lon="15.6142067"><ele>5.6</ele><time>2026-05-02T07:40:35.975Z</time></trkpt><trkpt lat="40.0708183" lon="15.6141167"><ele>5.4</ele><time>2026-05-02T07:40:36.975Z</time></trkpt><trkpt lat="40.0708767" lon="15.6140283"><ele>5.2</ele><time>2026-05-02T07:40:37.975Z</time></trkpt><trkpt lat="40.0709367" lon="15.61393"><ele>5.0</ele><time>2026-05-02T07:40:38.976Z</time></trkpt><trkpt lat="40.0709967" lon="15.6138183"><ele>5.0</ele><time>2026-05-02T07:40:39.975Z</time></trkpt><trkpt lat="40.0710567" lon="15.6137083"><ele>5.0</ele><time>2026-05-02T07:40:40.975Z</time></trkpt><trkpt lat="40.0711167" lon="15.6135883"><ele>5.0</ele><time>2026-05-02T07:40:41.975Z</time></trkpt><trkpt lat="40.071175" lon="15.6134733"><ele>5.0</ele><time>2026-05-02T07:40:42.976Z</time></trkpt><trkpt lat="40.07123" lon="15.6133467"><ele>5.0</ele><time>2026-05-02T07:40:43.975Z</time></trkpt><trkpt lat="40.0712933" lon="15.6132067"><ele>5.0</ele><time>2026-05-02T07:40:44.975Z</time></trkpt><trkpt lat="40.0713567" lon="15.6130733"><ele>5.0</ele><time>2026-05-02T07:40:45.976Z</time></trkpt><trkpt lat="40.07142" lon="15.61295"><ele>5.0</ele><time>2026-05-02T07:40:46.975Z</time></trkpt><trkpt lat="40.0714767" lon="15.6128367"><ele>5.0</ele><time>2026-05-02T07:40:47.976Z</time></trkpt><trkpt lat="40.0715233" lon="15.61273"><ele>5.0</ele><time>2026-05-02T07:40:48.975Z</time></trkpt><trkpt lat="40.0715733" lon="15.61262"><ele>5.2</ele><time>2026-05-02T07:40:49.975Z</time></trkpt><trkpt lat="40.07163" lon="15.6125017"><ele>5.4</ele><time>2026-05-02T07:40:50.975Z</time></trkpt><trkpt lat="40.071685" lon="15.6123783"><ele>5.6</ele><time>2026-05-02T07:40:51.975Z</time></trkpt><trkpt lat="40.0717333" lon="15.6122617"><ele>5.8</ele><time>2026-05-02T07:40:52.975Z</time></trkpt><trkpt lat="40.0717767" lon="15.61215"><ele>6.0</ele><time>2026-05-02T07:40:53.976Z</time></trkpt><trkpt lat="40.0718217" lon="15.6120383"><ele>5.8</ele><time>2026-05-02T07:40:54.976Z</time></trkpt><trkpt lat="40.071875" lon="15.6119283"><ele>5.6</ele><time>2026-05-02T07:40:55.975Z</time></trkpt><trkpt lat="40.07193" lon="15.6118217"><ele>5.4</ele><time>2026-05-02T07:40:56.975Z</time></trkpt><trkpt lat="40.071985" lon="15.6117133"><ele>5.2</ele><time>2026-05-02T07:40:57.975Z</time></trkpt><trkpt lat="40.0720333" lon="15.61161"><ele>5.0</ele><time>2026-05-02T07:40:58.975Z</time></trkpt><trkpt lat="40.0720833" lon="15.611495"><ele>5.0</ele><time>2026-05-02T07:40:59.975Z</time></trkpt><trkpt lat="40.072135" lon="15.6113817"><ele>5.0</ele><time>2026-05-02T07:41:00.975Z</time></trkpt><trkpt lat="40.0721933" lon="15.611265"><ele>5.0</ele><time>2026-05-02T07:41:01.975Z</time></trkpt><trkpt lat="40.07225" lon="15.6111517"><ele>5.0</ele><time>2026-05-02T07:41:02.975Z</time></trkpt><trkpt lat="40.0723067" lon="15.611045"><ele>5.0</ele><time>2026-05-02T07:41:03.975Z</time></trkpt><trkpt lat="40.072365" lon="15.61093"><ele>4.8</ele><time>2026-05-02T07:41:04.976Z</time></trkpt><trkpt lat="40.0724217" lon="15.6108217"><ele>4.6</ele><time>2026-05-02T07:41:05.975Z</time></trkpt><trkpt lat="40.0724683" lon="15.61071"><ele>4.4</ele><time>2026-05-02T07:41:06.975Z</time></trkpt><trkpt lat="40.0725167" lon="15.6105933"><ele>4.2</ele><time>2026-05-02T07:41:07.976Z</time></trkpt><trkpt lat="40.0725683" lon="15.610485"><ele>4.0</ele><time>2026-05-02T07:41:08.976Z</time></trkpt><trkpt lat="40.0726233" lon="15.6103767"><ele>3.8000000000000003</ele><time>2026-05-02T07:41:09.976Z</time></trkpt><trkpt lat="40.0726817" lon="15.610265"><ele>3.6000000000000005</ele><time>2026-05-02T07:41:10.976Z</time></trkpt><trkpt lat="40.0727367" lon="15.610155"><ele>3.4</ele><time>2026-05-02T07:41:11.975Z</time></trkpt><trkpt lat="40.072795" lon="15.61005"><ele>3.2</ele><time>2026-05-02T07:41:12.975Z</time></trkpt><trkpt lat="40.0728467" lon="15.6099367"><ele>3.0</ele><time>2026-05-02T07:41:13.975Z</time></trkpt><trkpt lat="40.0729" lon="15.609825"><ele>3.0</ele><time>2026-05-02T07:41:14.975Z</time></trkpt><trkpt lat="40.0729467" lon="15.6097117"><ele>3.0</ele><time>2026-05-02T07:41:15.976Z</time></trkpt><trkpt lat="40.0729967" lon="15.6096"><ele>3.0</ele><time>2026-05-02T07:41:16.976Z</time></trkpt><trkpt lat="40.0730533" lon="15.60949"><ele>3.0</ele><time>2026-05-02T07:41:17.975Z</time></trkpt><trkpt lat="40.0731117" lon="15.609375"><ele>3.0</ele><time>2026-05-02T07:41:18.976Z</time></trkpt><trkpt lat="40.073175" lon="15.6092667"><ele>2.8</ele><time>2026-05-02T07:41:19.975Z</time></trkpt><trkpt lat="40.0732267" lon="15.609165"><ele>2.5999999999999996</ele><time>2026-05-02T07:41:20.975Z</time></trkpt><trkpt lat="40.073285" lon="15.6090583"><ele>2.4000000000000004</ele><time>2026-05-02T07:41:21.976Z</time></trkpt><trkpt lat="40.0733483" lon="15.6089467"><ele>2.2</ele><time>2026-05-02T07:41:22.976Z</time></trkpt><trkpt lat="40.0733933" lon="15.60884"><ele>2.0</ele><time>2026-05-02T07:41:23.976Z</time></trkpt><trkpt lat="40.0734467" lon="15.6087333"><ele>2.8</ele><time>2026-05-02T07:41:24.976Z</time></trkpt><trkpt lat="40.0734933" lon="15.6086217"><ele>3.6</ele><time>2026-05-02T07:41:25.975Z</time></trkpt><trkpt lat="40.0735333" lon="15.6085033"><ele>4.3999999999999995</ele><time>2026-05-02T07:41:26.975Z</time></trkpt><trkpt lat="40.0735717" lon="15.608375"><ele>5.2</ele><time>2026-05-02T07:41:27.976Z</time></trkpt><trkpt lat="40.073605" lon="15.6082417"><ele>6.0</ele><time>2026-05-02T07:41:28.975Z</time></trkpt><trkpt lat="40.073645" lon="15.6081067"><ele>6.0</ele><time>2026-05-02T07:41:29.976Z</time></trkpt><trkpt lat="40.0736833" lon="15.607965"><ele>6.0</ele><time>2026-05-02T07:41:30.976Z</time></trkpt><trkpt lat="40.0737183" lon="15.6078183"><ele>6.0</ele><time>2026-05-02T07:41:31.975Z</time></trkpt><trkpt lat="40.07375" lon="15.6076683"><ele>6.0</ele><time>2026-05-02T07:41:32.975Z</time></trkpt><trkpt lat="40.0737783" lon="15.6075133"><ele>5.6</ele><time>2026-05-02T07:41:33.976Z</time></trkpt><trkpt lat="40.0738117" lon="15.6073633"><ele>5.199999999999999</ele><time>2026-05-02T07:41:34.976Z</time></trkpt><trkpt lat="40.0738467" lon="15.6072267"><ele>4.800000000000001</ele><time>2026-05-02T07:41:35.975Z</time></trkpt><trkpt lat="40.0738883" lon="15.6070917"><ele>4.4</ele><time>2026-05-02T07:41:36.975Z</time></trkpt><trkpt lat="40.073925" lon="15.60696"><ele>4.0</ele><time>2026-05-02T07:41:37.976Z</time></trkpt><trkpt lat="40.073955" lon="15.6068317"><ele>4.0</ele><time>2026-05-02T07:41:38.975Z</time></trkpt><trkpt lat="40.073985" lon="15.6066983"><ele>4.0</ele><time>2026-05-02T07:41:39.975Z</time></trkpt><trkpt lat="40.07402" lon="15.60656"><ele>4.0</ele><time>2026-05-02T07:41:40.976Z</time></trkpt><trkpt lat="40.07406" lon="15.6064167"><ele>4.0</ele><time>2026-05-02T07:41:41.975Z</time></trkpt><trkpt lat="40.074095" lon="15.6062717"><ele>4.25</ele><time>2026-05-02T07:41:42.975Z</time></trkpt><trkpt lat="40.0741367" lon="15.6061267"><ele>4.5</ele><time>2026-05-02T07:41:43.976Z</time></trkpt><trkpt lat="40.0741717" lon="15.6059783"><ele>4.75</ele><time>2026-05-02T07:41:44.975Z</time></trkpt><trkpt lat="40.0742167" lon="15.6058283"><ele>5.0</ele><time>2026-05-02T07:41:45.975Z</time></trkpt><trkpt lat="40.074255" lon="15.6056917"><ele>5.0</ele><time>2026-05-02T07:41:46.975Z</time></trkpt><trkpt lat="40.0742917" lon="15.6055517"><ele>5.0</ele><time>2026-05-02T07:41:47.975Z</time></trkpt><trkpt lat="40.0743317" lon="15.605405"><ele>5.0</ele><time>2026-05-02T07:41:48.975Z</time></trkpt><trkpt lat="40.0743683" lon="15.6052683"><ele>5.0</ele><time>2026-05-02T07:41:49.975Z</time></trkpt><trkpt lat="40.0744067" lon="15.6051267"><ele>5.0</ele><time>2026-05-02T07:41:50.975Z</time></trkpt><trkpt lat="40.074445" lon="15.604985"><ele>5.0</ele><time>2026-05-02T07:41:51.975Z</time></trkpt><trkpt lat="40.0744833" lon="15.6048433"><ele>5.0</ele><time>2026-05-02T07:41:52.975Z</time></trkpt><trkpt lat="40.0745233" lon="15.6047017"><ele>5.0</ele><time>2026-05-02T07:41:53.976Z</time></trkpt><trkpt lat="40.0745667" lon="15.60455"><ele>4.5</ele><time>2026-05-02T07:41:54.975Z</time></trkpt><trkpt lat="40.0746083" lon="15.6044067"><ele>4.0</ele><time>2026-05-02T07:41:55.975Z</time></trkpt><trkpt lat="40.0746483" lon="15.604265"><ele>3.5</ele><time>2026-05-02T07:41:56.976Z</time></trkpt><trkpt lat="40.0746933" lon="15.6041183"><ele>3.0</ele><time>2026-05-02T07:41:57.975Z</time></trkpt><trkpt lat="40.0747317" lon="15.6039717"><ele>3.0</ele><time>2026-05-02T07:41:58.976Z</time></trkpt><trkpt lat="40.07477" lon="15.6038233"><ele>3.0</ele><time>2026-05-02T07:41:59.975Z</time></trkpt><trkpt lat="40.0748067" lon="15.6036733"><ele>3.0</ele><time>2026-05-02T07:42:00.975Z</time></trkpt><trkpt lat="40.0748467" lon="15.60353"><ele>3.0</ele><time>2026-05-02T07:42:01.975Z</time></trkpt><trkpt lat="40.0748833" lon="15.6033867"><ele>2.75</ele><time>2026-05-02T07:42:02.975Z</time></trkpt><trkpt lat="40.0749233" lon="15.6032383"><ele>2.5</ele><time>2026-05-02T07:42:03.976Z</time></trkpt><trkpt lat="40.07496" lon="15.60309"><ele>2.25</ele><time>2026-05-02T07:42:04.976Z</time></trkpt><trkpt lat="40.0749983" lon="15.6029417"><ele>2.0</ele><time>2026-05-02T07:42:05.976Z</time></trkpt><trkpt lat="40.0750333" lon="15.6027933"><ele>2.5</ele><time>2026-05-02T07:42:06.975Z</time></trkpt><trkpt lat="40.0750617" lon="15.60264"><ele>3.0</ele><time>2026-05-02T07:42:07.975Z</time></trkpt><trkpt lat="40.0750917" lon="15.60248"><ele>3.5</ele><time>2026-05-02T07:42:08.975Z</time></trkpt><trkpt lat="40.07512" lon="15.602295"><ele>4.0</ele><time>2026-05-02T07:42:09.975Z</time></trkpt><trkpt lat="40.0751417" lon="15.6020967"><ele>4.25</ele><time>2026-05-02T07:42:10.975Z</time></trkpt><trkpt lat="40.0751567" lon="15.6019133"><ele>4.5</ele><time>2026-05-02T07:42:11.976Z</time></trkpt><trkpt lat="40.075155" lon="15.6017483"><ele>4.75</ele><time>2026-05-02T07:42:12.975Z</time></trkpt><trkpt lat="40.07516" lon="15.601585"><ele>5.0</ele><time>2026-05-02T07:42:13.975Z</time></trkpt><trkpt lat="40.07517" lon="15.6014233"><ele>5.0</ele><time>2026-05-02T07:42:14.975Z</time></trkpt><trkpt lat="40.0751767" lon="15.6012633"><ele>5.0</ele><time>2026-05-02T07:42:15.975Z</time></trkpt><trkpt lat="40.0751767" lon="15.6011067"><ele>5.0</ele><time>2026-05-02T07:42:16.975Z</time></trkpt><trkpt lat="40.0751783" lon="15.60095"><ele>5.0</ele><time>2026-05-02T07:42:17.976Z</time></trkpt><trkpt lat="40.0751817" lon="15.6007933"><ele>4.75</ele><time>2026-05-02T07:42:18.975Z</time></trkpt><trkpt lat="40.0751833" lon="15.60063"><ele>4.5</ele><time>2026-05-02T07:42:19.975Z</time></trkpt><trkpt lat="40.075185" lon="15.6004667"><ele>4.25</ele><time>2026-05-02T07:42:20.975Z</time></trkpt><trkpt lat="40.0751883" lon="15.6003017"><ele>4.0</ele><time>2026-05-02T07:42:21.975Z</time></trkpt><trkpt lat="40.07518" lon="15.6001283"><ele>4.5</ele><time>2026-05-02T07:42:22.975Z</time></trkpt><trkpt lat="40.0751667" lon="15.59996"><ele>5.0</ele><time>2026-05-02T07:42:23.976Z</time></trkpt><trkpt lat="40.0751517" lon="15.59978"><ele>5.5</ele><time>2026-05-02T07:42:24.975Z</time></trkpt><trkpt lat="40.0751417" lon="15.599595"><ele>6.0</ele><time>2026-05-02T07:42:25.975Z</time></trkpt><trkpt lat="40.0751317" lon="15.5994233"><ele>7.5</ele><time>2026-05-02T07:42:26.975Z</time></trkpt><trkpt lat="40.0751183" lon="15.599245"><ele>9.0</ele><time>2026-05-02T07:42:27.975Z</time></trkpt><trkpt lat="40.07511" lon="15.5990633"><ele>10.5</ele><time>2026-05-02T07:42:28.976Z</time></trkpt><trkpt lat="40.0751" lon="15.5988767"><ele>12.0</ele><time>2026-05-02T07:42:29.976Z</time></trkpt><trkpt lat="40.0750933" lon="15.5986867"><ele>13.25</ele><time>2026-05-02T07:42:30.975Z</time></trkpt><trkpt lat="40.0750833" lon="15.5985017"><ele>14.5</ele><time>2026-05-02T07:42:31.975Z</time></trkpt><trkpt lat="40.0750817" lon="15.598325"><ele>15.75</ele><time>2026-05-02T07:42:32.976Z</time></trkpt><trkpt lat="40.075065" lon="15.5981517"><ele>17.0</ele><time>2026-05-02T07:42:33.975Z</time></trkpt><trkpt lat="40.0750517" lon="15.5979883"><ele>17.0</ele><time>2026-05-02T07:42:34.975Z</time></trkpt><trkpt lat="40.07503" lon="15.5978417"><ele>17.0</ele><time>2026-05-02T07:42:35.975Z</time></trkpt><trkpt lat="40.0750233" lon="15.5976817"><ele>17.0</ele><time>2026-05-02T07:42:36.975Z</time></trkpt><trkpt lat="40.0750083" lon="15.5975183"><ele>17.0</ele><time>2026-05-02T07:42:37.975Z</time></trkpt><trkpt lat="40.0749967" lon="15.5973467"><ele>15.75</ele><time>2026-05-02T07:42:38.976Z</time></trkpt><trkpt lat="40.07499" lon="15.59719"><ele>14.5</ele><time>2026-05-02T07:42:39.976Z</time></trkpt><trkpt lat="40.074985" lon="15.5970417"><ele>13.25</ele><time>2026-05-02T07:42:40.976Z</time></trkpt><trkpt lat="40.074975" lon="15.5968917"><ele>12.0</ele><time>2026-05-02T07:42:41.975Z</time></trkpt><trkpt lat="40.0749667" lon="15.59675"><ele>11.8</ele><time>2026-05-02T07:42:42.975Z</time></trkpt><trkpt lat="40.07496" lon="15.596615"><ele>11.6</ele><time>2026-05-02T07:42:43.975Z</time></trkpt><trkpt lat="40.0749517" lon="15.5964733"><ele>11.4</ele><time>2026-05-02T07:42:44.975Z</time></trkpt><trkpt lat="40.0749433" lon="15.5963383"><ele>11.200000000000001</ele><time>2026-05-02T07:42:45.975Z</time></trkpt><trkpt lat="40.0749317" lon="15.5961983"><ele>11.0</ele><time>2026-05-02T07:42:46.975Z</time></trkpt><trkpt lat="40.074925" lon="15.59606"><ele>10.75</ele><time>2026-05-02T07:42:47.975Z</time></trkpt><trkpt lat="40.0749167" lon="15.5959083"><ele>10.5</ele><time>2026-05-02T07:42:48.976Z</time></trkpt><trkpt lat="40.074905" lon="15.5957583"><ele>10.25</ele><time>2026-05-02T07:42:49.976Z</time></trkpt><trkpt lat="40.0748967" lon="15.5955983"><ele>10.0</ele><time>2026-05-02T07:42:50.976Z</time></trkpt><trkpt lat="40.0748983" lon="15.59543"><ele>12.25</ele><time>2026-05-02T07:42:51.975Z</time></trkpt><trkpt lat="40.0748967" lon="15.5952717"><ele>14.5</ele><time>2026-05-02T07:42:52.975Z</time></trkpt><trkpt lat="40.0749167" lon="15.5951183"><ele>16.75</ele><time>2026-05-02T07:42:53.975Z</time></trkpt><trkpt lat="40.0749183" lon="15.5949433"><ele>19.0</ele><time>2026-05-02T07:42:54.975Z</time></trkpt><trkpt lat="40.074925" lon="15.5947717"><ele>19.0</ele><time>2026-05-02T07:42:55.975Z</time></trkpt><trkpt lat="40.07493" lon="15.5946"><ele>19.0</ele><time>2026-05-02T07:42:56.976Z</time></trkpt><trkpt lat="40.074935" lon="15.59443"><ele>19.0</ele><time>2026-05-02T07:42:57.975Z</time></trkpt><trkpt lat="40.075175" lon="15.5939767"><ele>18.75</ele><time>2026-05-02T07:43:00.978Z</time></trkpt><trkpt lat="40.075285" lon="15.5938633"><ele>18.5</ele><time>2026-05-02T07:43:01.978Z</time></trkpt><trkpt lat="40.07537" lon="15.593725"><ele>18.25</ele><time>2026-05-02T07:43:02.978Z</time></trkpt><trkpt lat="40.0754517" lon="15.5935817"><ele>18.0</ele><time>2026-05-02T07:43:03.978Z</time></trkpt><trkpt lat="40.0755417" lon="15.593445"><ele>16.0</ele><time>2026-05-02T07:43:04.979Z</time></trkpt><trkpt lat="40.07564" lon="15.5932967"><ele>14.0</ele><time>2026-05-02T07:43:05.978Z</time></trkpt><trkpt lat="40.07574" lon="15.5931667"><ele>12.0</ele><time>2026-05-02T07:43:06.978Z</time></trkpt><trkpt lat="40.0758517" lon="15.5930383"><ele>10.0</ele><time>2026-05-02T07:43:07.979Z</time></trkpt><trkpt lat="40.0759633" lon="15.59293"><ele>9.0</ele><time>2026-05-02T07:43:08.978Z</time></trkpt><trkpt lat="40.07607" lon="15.5928333"><ele>8.0</ele><time>2026-05-02T07:43:09.978Z</time></trkpt><trkpt lat="40.0761783" lon="15.5927333"><ele>7.0</ele><time>2026-05-02T07:43:10.979Z</time></trkpt><trkpt lat="40.0762817" lon="15.59263"><ele>6.0</ele><time>2026-05-02T07:43:11.979Z</time></trkpt><trkpt lat="40.0763817" lon="15.5925383"><ele>6.0</ele><time>2026-05-02T07:43:12.978Z</time></trkpt><trkpt lat="40.0764833" lon="15.5924383"><ele>6.0</ele><time>2026-05-02T07:43:13.978Z</time></trkpt><trkpt lat="40.076585" lon="15.5923467"><ele>6.0</ele><time>2026-05-02T07:43:14.978Z</time></trkpt><trkpt lat="40.0766933" lon="15.5922517"><ele>6.0</ele><time>2026-05-02T07:43:15.979Z</time></trkpt><trkpt lat="40.0768033" lon="15.592145"><ele>5.75</ele><time>2026-05-02T07:43:16.978Z</time></trkpt><trkpt lat="40.07692" lon="15.5920383"><ele>5.5</ele><time>2026-05-02T07:43:17.978Z</time></trkpt><trkpt lat="40.0770283" lon="15.5919267"><ele>5.25</ele><time>2026-05-02T07:43:18.978Z</time></trkpt><trkpt lat="40.0771433" lon="15.5918167"><ele>5.0</ele><time>2026-05-02T07:43:19.979Z</time></trkpt><trkpt lat="40.0772617" lon="15.5916983"><ele>5.0</ele><time>2026-05-02T07:43:20.979Z</time></trkpt><trkpt lat="40.07738" lon="15.5915817"><ele>5.0</ele><time>2026-05-02T07:43:21.979Z</time></trkpt><trkpt lat="40.0774967" lon="15.5914617"><ele>5.0</ele><time>2026-05-02T07:43:22.978Z</time></trkpt><trkpt lat="40.0776117" lon="15.5913517"><ele>5.0</ele><time>2026-05-02T07:43:23.978Z</time></trkpt><trkpt lat="40.07772" lon="15.5912433"><ele>5.25</ele><time>2026-05-02T07:43:24.979Z</time></trkpt><trkpt lat="40.07783" lon="15.5911417"><ele>5.5</ele><time>2026-05-02T07:43:25.979Z</time></trkpt><trkpt lat="40.07794" lon="15.5910367"><ele>5.75</ele><time>2026-05-02T07:43:26.978Z</time></trkpt><trkpt lat="40.078055" lon="15.5909333"><ele>6.0</ele><time>2026-05-02T07:43:27.978Z</time></trkpt><trkpt lat="40.078165" lon="15.5908367"><ele>6.25</ele><time>2026-05-02T07:43:28.979Z</time></trkpt><trkpt lat="40.0782767" lon="15.5907317"><ele>6.5</ele><time>2026-05-02T07:43:29.978Z</time></trkpt><trkpt lat="40.078385" lon="15.590615"><ele>6.75</ele><time>2026-05-02T07:43:30.979Z</time></trkpt><trkpt lat="40.0785017" lon="15.5905033"><ele>7.0</ele><time>2026-05-02T07:43:31.979Z</time></trkpt><trkpt lat="40.078615" lon="15.5903883"><ele>6.75</ele><time>2026-05-02T07:43:32.979Z</time></trkpt><trkpt lat="40.07873" lon="15.5902733"><ele>6.5</ele><time>2026-05-02T07:43:33.979Z</time></trkpt><trkpt lat="40.0788383" lon="15.59017"><ele>6.25</ele><time>2026-05-02T07:43:34.978Z</time></trkpt><trkpt lat="40.07895" lon="15.5900533"><ele>6.0</ele><time>2026-05-02T07:43:35.978Z</time></trkpt><trkpt lat="40.0790683" lon="15.5899333"><ele>6.0</ele><time>2026-05-02T07:43:36.978Z</time></trkpt><trkpt lat="40.07919" lon="15.5898167"><ele>6.0</ele><time>2026-05-02T07:43:37.978Z</time></trkpt><trkpt lat="40.07931" lon="15.5897"><ele>6.0</ele><time>2026-05-02T07:43:38.978Z</time></trkpt><trkpt lat="40.079425" lon="15.58958"><ele>6.0</ele><time>2026-05-02T07:43:39.979Z</time></trkpt><trkpt lat="40.0795217" lon="15.589455"><ele>6.0</ele><time>2026-05-02T07:43:40.979Z</time></trkpt><trkpt lat="40.0796183" lon="15.5893233"><ele>6.0</ele><time>2026-05-02T07:43:41.979Z</time></trkpt><trkpt lat="40.0797117" lon="15.5891817"><ele>6.0</ele><time>2026-05-02T07:43:42.979Z</time></trkpt><trkpt lat="40.07979" lon="15.589025"><ele>6.0</ele><time>2026-05-02T07:43:43.978Z</time></trkpt><trkpt lat="40.07986" lon="15.588855"><ele>6.333333333333334</ele><time>2026-05-02T07:43:44.978Z</time></trkpt><trkpt lat="40.0799267" lon="15.5886717"><ele>6.666666666666667</ele><time>2026-05-02T07:43:45.978Z</time></trkpt><trkpt lat="40.0799917" lon="15.5884733"><ele>7.0</ele><time>2026-05-02T07:43:46.979Z</time></trkpt><trkpt lat="40.08006" lon="15.5882833"><ele>7.0</ele><time>2026-05-02T07:43:47.978Z</time></trkpt><trkpt lat="40.0801183" lon="15.5881067"><ele>7.0</ele><time>2026-05-02T07:43:48.978Z</time></trkpt><trkpt lat="40.080165" lon="15.5879433"><ele>7.0</ele><time>2026-05-02T07:43:49.978Z</time></trkpt><trkpt lat="40.080215" lon="15.587775"><ele>7.0</ele><time>2026-05-02T07:43:50.978Z</time></trkpt><trkpt lat="40.080265" lon="15.5876133"><ele>7.25</ele><time>2026-05-02T07:43:51.978Z</time></trkpt><trkpt lat="40.080315" lon="15.587445"><ele>7.5</ele><time>2026-05-02T07:43:52.978Z</time></trkpt><trkpt lat="40.080365" lon="15.58728"><ele>7.75</ele><time>2026-05-02T07:43:53.978Z</time></trkpt><trkpt lat="40.080415" lon="15.5871117"><ele>8.0</ele><time>2026-05-02T07:43:54.978Z</time></trkpt><trkpt lat="40.0804617" lon="15.5869417"><ele>8.0</ele><time>2026-05-02T07:43:55.978Z</time></trkpt><trkpt lat="40.0805083" lon="15.5867667"><ele>8.0</ele><time>2026-05-02T07:43:56.979Z</time></trkpt><trkpt lat="40.080555" lon="15.5865917"><ele>8.0</ele><time>2026-05-02T07:43:57.978Z</time></trkpt><trkpt lat="40.080595" lon="15.5864117"><ele>8.0</ele><time>2026-05-02T07:43:58.979Z</time></trkpt><trkpt lat="40.08062" lon="15.5862283"><ele>7.5</ele><time>2026-05-02T07:43:59.979Z</time></trkpt><trkpt lat="40.08064" lon="15.5860367"><ele>7.0</ele><time>2026-05-02T07:44:00.979Z</time></trkpt><trkpt lat="40.08065" lon="15.5858417"><ele>6.5</ele><time>2026-05-02T07:44:01.978Z</time></trkpt><trkpt lat="40.0806583" lon="15.5856483"><ele>6.0</ele><time>2026-05-02T07:44:02.978Z</time></trkpt><trkpt lat="40.0806633" lon="15.5854433"><ele>6.333333333333334</ele><time>2026-05-02T07:44:03.979Z</time></trkpt><trkpt lat="40.0806717" lon="15.5852217"><ele>6.666666666666667</ele><time>2026-05-02T07:44:04.978Z</time></trkpt><trkpt lat="40.0806817" lon="15.585005"><ele>7.0</ele><time>2026-05-02T07:44:05.979Z</time></trkpt><trkpt lat="40.0806917" lon="15.584785"><ele>7.0</ele><time>2026-05-02T07:44:06.978Z</time></trkpt><trkpt lat="40.0807033" lon="15.5845617"><ele>7.0</ele><time>2026-05-02T07:44:07.979Z</time></trkpt><trkpt lat="40.080715" lon="15.5843383"><ele>7.0</ele><time>2026-05-02T07:44:08.978Z</time></trkpt><trkpt lat="40.0807183" lon="15.58412"><ele>7.0</ele><time>2026-05-02T07:44:09.979Z</time></trkpt><trkpt lat="40.0807267" lon="15.58391"><ele>7.0</ele><time>2026-05-02T07:44:10.978Z</time></trkpt><trkpt lat="40.0807333" lon="15.5837033"><ele>7.0</ele><time>2026-05-02T07:44:11.978Z</time></trkpt><trkpt lat="40.08074" lon="15.583495"><ele>7.0</ele><time>2026-05-02T07:44:12.978Z</time></trkpt><trkpt lat="40.080745" lon="15.58329"><ele>7.0</ele><time>2026-05-02T07:44:13.979Z</time></trkpt><trkpt lat="40.0807483" lon="15.5830783"><ele>7.0</ele><time>2026-05-02T07:44:14.978Z</time></trkpt><trkpt lat="40.0807517" lon="15.582875"><ele>7.25</ele><time>2026-05-02T07:44:15.978Z</time></trkpt><trkpt lat="40.0807533" lon="15.5826717"><ele>7.5</ele><time>2026-05-02T07:44:16.978Z</time></trkpt><trkpt lat="40.080755" lon="15.58248"><ele>7.75</ele><time>2026-05-02T07:44:17.978Z</time></trkpt><trkpt lat="40.0807633" lon="15.58229"><ele>8.0</ele><time>2026-05-02T07:44:18.979Z</time></trkpt><trkpt lat="40.0807767" lon="15.5821033"><ele>8.75</ele><time>2026-05-02T07:44:19.978Z</time></trkpt><trkpt lat="40.0808017" lon="15.5819217"><ele>9.5</ele><time>2026-05-02T07:44:20.978Z</time></trkpt><trkpt lat="40.0808367" lon="15.5817317"><ele>10.25</ele><time>2026-05-02T07:44:21.978Z</time></trkpt><trkpt lat="40.0808817" lon="15.5815433"><ele>11.0</ele><time>2026-05-02T07:44:22.978Z</time></trkpt><trkpt lat="40.0809317" lon="15.5813633"><ele>11.0</ele><time>2026-05-02T07:44:23.979Z</time></trkpt><trkpt lat="40.0809667" lon="15.5811833"><ele>11.0</ele><time>2026-05-02T07:44:24.978Z</time></trkpt><trkpt lat="40.0809833" lon="15.58099"><ele>11.0</ele><time>2026-05-02T07:44:25.979Z</time></trkpt><trkpt lat="40.0809833" lon="15.58079"><ele>11.0</ele><time>2026-05-02T07:44:26.979Z</time></trkpt><trkpt lat="40.0809817" lon="15.5805917"><ele>10.75</ele><time>2026-05-02T07:44:27.978Z</time></trkpt><trkpt lat="40.0809633" lon="15.5804033"><ele>10.5</ele><time>2026-05-02T07:44:28.979Z</time></trkpt><trkpt lat="40.080935" lon="15.5802217"><ele>10.25</ele><time>2026-05-02T07:44:29.978Z</time></trkpt><trkpt lat="40.0809117" lon="15.5800383"><ele>10.0</ele><time>2026-05-02T07:44:30.978Z</time></trkpt><trkpt lat="40.0808867" lon="15.57986"><ele>10.0</ele><time>2026-05-02T07:44:31.978Z</time></trkpt><trkpt lat="40.08086" lon="15.5796767"><ele>10.0</ele><time>2026-05-02T07:44:32.978Z</time></trkpt><trkpt lat="40.0808283" lon="15.5794817"><ele>10.0</ele><time>2026-05-02T07:44:33.979Z</time></trkpt><trkpt lat="40.0807933" lon="15.5792783"><ele>9.333333333333334</ele><time>2026-05-02T07:44:34.978Z</time></trkpt><trkpt lat="40.0807583" lon="15.5790633"><ele>8.666666666666666</ele><time>2026-05-02T07:44:35.978Z</time></trkpt><trkpt lat="40.08072" lon="15.5788533"><ele>8.0</ele><time>2026-05-02T07:44:36.979Z</time></trkpt><trkpt lat="40.0806833" lon="15.5786467"><ele>7.0</ele><time>2026-05-02T07:44:37.979Z</time></trkpt><trkpt lat="40.0806667" lon="15.5784467"><ele>6.0</ele><time>2026-05-02T07:44:38.978Z</time></trkpt><trkpt lat="40.08067" lon="15.57823"><ele>5.0</ele><time>2026-05-02T07:44:39.978Z</time></trkpt><trkpt lat="40.0806767" lon="15.5779933"><ele>5.333333333333334</ele><time>2026-05-02T07:44:40.978Z</time></trkpt><trkpt lat="40.080665" lon="15.5777567"><ele>5.666666666666667</ele><time>2026-05-02T07:44:41.978Z</time></trkpt><trkpt lat="40.08063" lon="15.5775117"><ele>6.0</ele><time>2026-05-02T07:44:42.978Z</time></trkpt><trkpt lat="40.0805767" lon="15.577285"><ele>6.0</ele><time>2026-05-02T07:44:43.978Z</time></trkpt><trkpt lat="40.0805167" lon="15.577065"><ele>6.0</ele><time>2026-05-02T07:44:44.978Z</time></trkpt><trkpt lat="40.0804533" lon="15.57683"><ele>6.0</ele><time>2026-05-02T07:44:45.978Z</time></trkpt><trkpt lat="40.0804" lon="15.5766017"><ele>6.333333333333334</ele><time>2026-05-02T07:44:46.979Z</time></trkpt><trkpt lat="40.0803467" lon="15.576385"><ele>6.666666666666667</ele><time>2026-05-02T07:44:47.979Z</time></trkpt><trkpt lat="40.080305" lon="15.57618"><ele>7.0</ele><time>2026-05-02T07:44:48.978Z</time></trkpt><trkpt lat="40.0802733" lon="15.5759933"><ele>7.25</ele><time>2026-05-02T07:44:49.978Z</time></trkpt><trkpt lat="40.0802483" lon="15.575805"><ele>7.5</ele><time>2026-05-02T07:44:50.979Z</time></trkpt><trkpt lat="40.0802167" lon="15.5756183"><ele>7.75</ele><time>2026-05-02T07:44:51.979Z</time></trkpt><trkpt lat="40.0801867" lon="15.57543"><ele>8.0</ele><time>2026-05-02T07:44:52.978Z</time></trkpt><trkpt lat="40.0801567" lon="15.5752467"><ele>9.25</ele><time>2026-05-02T07:44:53.978Z</time></trkpt><trkpt lat="40.0801217" lon="15.5750633"><ele>10.5</ele><time>2026-05-02T07:44:54.978Z</time></trkpt><trkpt lat="40.0800767" lon="15.5748783"><ele>11.75</ele><time>2026-05-02T07:44:55.978Z</time></trkpt><trkpt lat="40.080015" lon="15.5747"><ele>13.0</ele><time>2026-05-02T07:44:56.979Z</time></trkpt><trkpt lat="40.0799433" lon="15.5745317"><ele>11.25</ele><time>2026-05-02T07:44:57.979Z</time></trkpt><trkpt lat="40.079875" lon="15.5743633"><ele>9.5</ele><time>2026-05-02T07:44:58.978Z</time></trkpt><trkpt lat="40.0798083" lon="15.574205"><ele>7.75</ele><time>2026-05-02T07:44:59.978Z</time></trkpt><trkpt lat="40.0797433" lon="15.5740367"><ele>6.0</ele><time>2026-05-02T07:45:00.978Z</time></trkpt><trkpt lat="40.07968" lon="15.5738833"><ele>6.0</ele><time>2026-05-02T07:45:01.979Z</time></trkpt><trkpt lat="40.0796167" lon="15.5737167"><ele>6.0</ele><time>2026-05-02T07:45:02.979Z</time></trkpt><trkpt lat="40.0795667" lon="15.573545"><ele>6.0</ele><time>2026-05-02T07:45:03.979Z</time></trkpt><trkpt lat="40.079495" lon="15.57337"><ele>6.0</ele><time>2026-05-02T07:45:04.978Z</time></trkpt><trkpt lat="40.07943" lon="15.5731783"><ele>6.666666666666666</ele><time>2026-05-02T07:45:05.979Z</time></trkpt><trkpt lat="40.0793517" lon="15.5730017"><ele>7.333333333333333</ele><time>2026-05-02T07:45:06.979Z</time></trkpt><trkpt lat="40.0792717" lon="15.57282"><ele>8.0</ele><time>2026-05-02T07:45:07.979Z</time></trkpt><trkpt lat="40.0791783" lon="15.5726333"><ele>6.333333333333333</ele><time>2026-05-02T07:45:08.978Z</time></trkpt><trkpt lat="40.0791" lon="15.5724567"><ele>4.666666666666666</ele><time>2026-05-02T07:45:09.978Z</time></trkpt><trkpt lat="40.07903" lon="15.5722683"><ele>3.0</ele><time>2026-05-02T07:45:10.979Z</time></trkpt><trkpt lat="40.0789533" lon="15.5720917"><ele>4.0</ele><time>2026-05-02T07:45:11.979Z</time></trkpt><trkpt lat="40.07887" lon="15.57192"><ele>5.0</ele><time>2026-05-02T07:45:12.978Z</time></trkpt><trkpt lat="40.0787917" lon="15.5717583"><ele>6.0</ele><time>2026-05-02T07:45:13.978Z</time></trkpt><trkpt lat="40.0787217" lon="15.5715867"><ele>6.0</ele><time>2026-05-02T07:45:14.979Z</time></trkpt><trkpt lat="40.078655" lon="15.5714167"><ele>6.0</ele><time>2026-05-02T07:45:15.978Z</time></trkpt><trkpt lat="40.07859" lon="15.57125"><ele>6.0</ele><time>2026-05-02T07:45:16.978Z</time></trkpt><trkpt lat="40.0785233" lon="15.5710717"><ele>6.0</ele><time>2026-05-02T07:45:17.978Z</time></trkpt><trkpt lat="40.0784517" lon="15.5709083"><ele>5.0</ele><time>2026-05-02T07:45:18.979Z</time></trkpt><trkpt lat="40.0783667" lon="15.5707467"><ele>4.0</ele><time>2026-05-02T07:45:19.978Z</time></trkpt><trkpt lat="40.07829" lon="15.5705983"><ele>3.0</ele><time>2026-05-02T07:45:20.978Z</time></trkpt><trkpt lat="40.078215" lon="15.5704467"><ele>2.0</ele><time>2026-05-02T07:45:21.978Z</time></trkpt><trkpt lat="40.07815" lon="15.5702867"><ele>2.0</ele><time>2026-05-02T07:45:22.978Z</time></trkpt><trkpt lat="40.0780933" lon="15.5701217"><ele>2.0</ele><time>2026-05-02T07:45:23.978Z</time></trkpt><trkpt lat="40.07806" lon="15.5699367"><ele>2.0</ele><time>2026-05-02T07:45:24.978Z</time></trkpt><trkpt lat="40.078025" lon="15.5697517"><ele>2.0</ele><time>2026-05-02T07:45:25.979Z</time></trkpt><trkpt lat="40.0780083" lon="15.569555"><ele>3.0</ele><time>2026-05-02T07:45:26.979Z</time></trkpt><trkpt lat="40.0779817" lon="15.569355"><ele>4.0</ele><time>2026-05-02T07:45:27.978Z</time></trkpt><trkpt lat="40.0779483" lon="15.569165"><ele>5.0</ele><time>2026-05-02T07:45:28.978Z</time></trkpt><trkpt lat="40.0778933" lon="15.5689767"><ele>5.0</ele><time>2026-05-02T07:45:29.978Z</time></trkpt><trkpt lat="40.0778117" lon="15.5687967"><ele>5.0</ele><time>2026-05-02T07:45:30.978Z</time></trkpt><trkpt lat="40.0777133" lon="15.5685883"><ele>5.0</ele><time>2026-05-02T07:45:31.978Z</time></trkpt><trkpt lat="40.0776033" lon="15.5683917"><ele>5.0</ele><time>2026-05-02T07:45:32.978Z</time></trkpt><trkpt lat="40.0775083" lon="15.5681933"><ele>5.0</ele><time>2026-05-02T07:45:33.978Z</time></trkpt><trkpt lat="40.077415" lon="15.56801"><ele>5.0</ele><time>2026-05-02T07:45:34.978Z</time></trkpt><trkpt lat="40.0773367" lon="15.567835"><ele>5.0</ele><time>2026-05-02T07:45:35.979Z</time></trkpt><trkpt lat="40.0772767" lon="15.56767"><ele>5.0</ele><time>2026-05-02T07:45:36.979Z</time></trkpt><trkpt lat="40.0772217" lon="15.5675033"><ele>5.0</ele><time>2026-05-02T07:45:37.978Z</time></trkpt><trkpt lat="40.0771917" lon="15.5673183"><ele>5.0</ele><time>2026-05-02T07:45:38.978Z</time></trkpt><trkpt lat="40.0771833" lon="15.5671517"><ele>5.75</ele><time>2026-05-02T07:45:39.979Z</time></trkpt><trkpt lat="40.0771817" lon="15.5669883"><ele>6.5</ele><time>2026-05-02T07:45:40.978Z</time></trkpt><trkpt lat="40.0771767" lon="15.56683"><ele>7.25</ele><time>2026-05-02T07:45:41.978Z</time></trkpt><trkpt lat="40.0771583" lon="15.566695"><ele>8.0</ele><time>2026-05-02T07:45:42.978Z</time></trkpt><trkpt lat="40.0771267" lon="15.5665517"><ele>8.0</ele><time>2026-05-02T07:45:43.978Z</time></trkpt><trkpt lat="40.0770717" lon="15.5664317"><ele>8.0</ele><time>2026-05-02T07:45:44.978Z</time></trkpt><trkpt lat="40.0769833" lon="15.5663117"><ele>8.0</ele><time>2026-05-02T07:45:45.979Z</time></trkpt><trkpt lat="40.0768917" lon="15.5661983"><ele>8.0</ele><time>2026-05-02T07:45:46.978Z</time></trkpt><trkpt lat="40.0767967" lon="15.5660783"><ele>9.5</ele><time>2026-05-02T07:45:47.978Z</time></trkpt><trkpt lat="40.0767033" lon="15.565955"><ele>11.0</ele><time>2026-05-02T07:45:48.979Z</time></trkpt><trkpt lat="40.0766167" lon="15.565825"><ele>12.5</ele><time>2026-05-02T07:45:49.979Z</time></trkpt><trkpt lat="40.0765233" lon="15.56569"><ele>14.0</ele><time>2026-05-02T07:45:50.978Z</time></trkpt><trkpt lat="40.0764333" lon="15.5655483"><ele>11.0</ele><time>2026-05-02T07:45:51.978Z</time></trkpt><trkpt lat="40.07634" lon="15.5653917"><ele>8.0</ele><time>2026-05-02T07:45:52.979Z</time></trkpt><trkpt lat="40.0762567" lon="15.5652117"><ele>5.0</ele><time>2026-05-02T07:45:53.978Z</time></trkpt><trkpt lat="40.0761867" lon="15.56503"><ele>5.0</ele><time>2026-05-02T07:45:54.978Z</time></trkpt><trkpt lat="40.0761283" lon="15.5648433"><ele>5.0</ele><time>2026-05-02T07:45:55.978Z</time></trkpt><trkpt lat="40.0760867" lon="15.56466"><ele>5.0</ele><time>2026-05-02T07:45:56.978Z</time></trkpt><trkpt lat="40.0760783" lon="15.564485"><ele>5.0</ele><time>2026-05-02T07:45:57.978Z</time></trkpt><trkpt lat="40.0760833" lon="15.5643083"><ele>4.75</ele><time>2026-05-02T07:45:58.979Z</time></trkpt><trkpt lat="40.0760933" lon="15.5641383"><ele>4.5</ele><time>2026-05-02T07:45:59.978Z</time></trkpt><trkpt lat="40.076105" lon="15.5639683"><ele>4.25</ele><time>2026-05-02T07:46:00.979Z</time></trkpt><trkpt lat="40.076115" lon="15.563805"><ele>4.0</ele><time>2026-05-02T07:46:01.978Z</time></trkpt><trkpt lat="40.0761267" lon="15.5636417"><ele>4.0</ele><time>2026-05-02T07:46:02.978Z</time></trkpt><trkpt lat="40.0761333" lon="15.5634667"><ele>4.0</ele><time>2026-05-02T07:46:03.978Z</time></trkpt><trkpt lat="40.076135" lon="15.56329"><ele>4.0</ele><time>2026-05-02T07:46:04.978Z</time></trkpt><trkpt lat="40.0761417" lon="15.5631217"><ele>4.0</ele><time>2026-05-02T07:46:05.979Z</time></trkpt><trkpt lat="40.0761417" lon="15.5629483"><ele>3.75</ele><time>2026-05-02T07:46:06.978Z</time></trkpt><trkpt lat="40.0761317" lon="15.56277"><ele>3.5</ele><time>2026-05-02T07:46:07.978Z</time></trkpt><trkpt lat="40.0761317" lon="15.5625917"><ele>3.25</ele><time>2026-05-02T07:46:08.978Z</time></trkpt><trkpt lat="40.076145" lon="15.5624183"><ele>3.0</ele><time>2026-05-02T07:46:09.979Z</time></trkpt><trkpt lat="40.07615" lon="15.5622283"><ele>3.0</ele><time>2026-05-02T07:46:10.979Z</time></trkpt><trkpt lat="40.076155" lon="15.56204"><ele>3.0</ele><time>2026-05-02T07:46:11.979Z</time></trkpt><trkpt lat="40.0761533" lon="15.5618433"><ele>3.0</ele><time>2026-05-02T07:46:12.979Z</time></trkpt><trkpt lat="40.0761517" lon="15.56164"><ele>3.0</ele><time>2026-05-02T07:46:13.979Z</time></trkpt><trkpt lat="40.0761533" lon="15.5614367"><ele>3.0</ele><time>2026-05-02T07:46:14.978Z</time></trkpt><trkpt lat="40.0761583" lon="15.561245"><ele>3.0</ele><time>2026-05-02T07:46:15.979Z</time></trkpt><trkpt lat="40.0761567" lon="15.5610417"><ele>3.25</ele><time>2026-05-02T07:46:16.978Z</time></trkpt><trkpt lat="40.07616" lon="15.5608467"><ele>3.5</ele><time>2026-05-02T07:46:17.979Z</time></trkpt><trkpt lat="40.076165" lon="15.5606583"><ele>3.75</ele><time>2026-05-02T07:46:18.979Z</time></trkpt><trkpt lat="40.0761733" lon="15.56047"><ele>4.0</ele><time>2026-05-02T07:46:19.979Z</time></trkpt><trkpt lat="40.0761767" lon="15.560285"><ele>4.0</ele><time>2026-05-02T07:46:20.979Z</time></trkpt><trkpt lat="40.076175" lon="15.560105"><ele>4.0</ele><time>2026-05-02T07:46:21.978Z</time></trkpt><trkpt lat="40.076185" lon="15.5599233"><ele>4.0</ele><time>2026-05-02T07:46:22.978Z</time></trkpt><trkpt lat="40.0761883" lon="15.5597517"><ele>4.0</ele><time>2026-05-02T07:46:23.978Z</time></trkpt><trkpt lat="40.0761917" lon="15.5595833"><ele>3.75</ele><time>2026-05-02T07:46:24.978Z</time></trkpt><trkpt lat="40.076195" lon="15.5594183"><ele>3.5</ele><time>2026-05-02T07:46:25.978Z</time></trkpt><trkpt lat="40.076205" lon="15.5592517"><ele>3.25</ele><time>2026-05-02T07:46:26.978Z</time></trkpt><trkpt lat="40.0762" lon="15.559095"><ele>3.0</ele><time>2026-05-02T07:46:27.978Z</time></trkpt><trkpt lat="40.076205" lon="15.5589333"><ele>3.0</ele><time>2026-05-02T07:46:28.978Z</time></trkpt><trkpt lat="40.076205" lon="15.5587683"><ele>3.0</ele><time>2026-05-02T07:46:29.979Z</time></trkpt><trkpt lat="40.0762117" lon="15.5586183"><ele>3.0</ele><time>2026-05-02T07:46:30.978Z</time></trkpt><trkpt lat="40.0762133" lon="15.5584633"><ele>3.0</ele><time>2026-05-02T07:46:31.978Z</time></trkpt><trkpt lat="40.0762217" lon="15.558305"><ele>3.25</ele><time>2026-05-02T07:46:32.979Z</time></trkpt><trkpt lat="40.0762183" lon="15.5581517"><ele>3.5</ele><time>2026-05-02T07:46:33.978Z</time></trkpt><trkpt lat="40.07622" lon="15.558005"><ele>3.75</ele><time>2026-05-02T07:46:34.978Z</time></trkpt><trkpt lat="40.0762317" lon="15.557855"><ele>4.0</ele><time>2026-05-02T07:46:35.978Z</time></trkpt><trkpt lat="40.0762267" lon="15.5577017"><ele>4.0</ele><time>2026-05-02T07:46:36.978Z</time></trkpt><trkpt lat="40.0762267" lon="15.5575617"><ele>4.0</ele><time>2026-05-02T07:46:37.978Z</time></trkpt><trkpt lat="40.0762267" lon="15.5574183"><ele>4.0</ele><time>2026-05-02T07:46:38.978Z</time></trkpt><trkpt lat="40.07623" lon="15.5572717"><ele>4.0</ele><time>2026-05-02T07:46:39.979Z</time></trkpt><trkpt lat="40.076235" lon="15.5571333"><ele>4.0</ele><time>2026-05-02T07:46:40.978Z</time></trkpt><trkpt lat="40.0762417" lon="15.5569883"><ele>3.6</ele><time>2026-05-02T07:46:41.978Z</time></trkpt><trkpt lat="40.0762583" lon="15.556855"><ele>3.2</ele><time>2026-05-02T07:46:42.978Z</time></trkpt><trkpt lat="40.0762583" lon="15.556705"><ele>2.8000000000000003</ele><time>2026-05-02T07:46:43.978Z</time></trkpt><trkpt lat="40.0762583" lon="15.55657"><ele>2.4000000000000004</ele><time>2026-05-02T07:46:44.978Z</time></trkpt><trkpt lat="40.0762533" lon="15.55642"><ele>2.0</ele><time>2026-05-02T07:46:45.978Z</time></trkpt><trkpt lat="40.0762733" lon="15.556275"><ele>2.0</ele><time>2026-05-02T07:46:46.978Z</time></trkpt><trkpt lat="40.0762883" lon="15.5561167"><ele>2.0</ele><time>2026-05-02T07:46:47.979Z</time></trkpt><trkpt lat="40.0763233" lon="15.5559617"><ele>2.0</ele><time>2026-05-02T07:46:48.978Z</time></trkpt><trkpt lat="40.0763633" lon="15.555815"><ele>2.0</ele><time>2026-05-02T07:46:49.978Z</time></trkpt><trkpt lat="40.0764033" lon="15.5556733"><ele>2.0</ele><time>2026-05-02T07:46:50.979Z</time></trkpt><trkpt lat="40.076435" lon="15.5555267"><ele>2.0</ele><time>2026-05-02T07:46:51.979Z</time></trkpt><trkpt lat="40.0764733" lon="15.555375"><ele>2.0</ele><time>2026-05-02T07:46:52.979Z</time></trkpt><trkpt lat="40.0765" lon="15.5552083"><ele>2.0</ele><time>2026-05-02T07:46:53.978Z</time></trkpt><trkpt lat="40.0765083" lon="15.55503"><ele>2.0</ele><time>2026-05-02T07:46:54.979Z</time></trkpt><trkpt lat="40.076525" lon="15.5548683"><ele>2.0</ele><time>2026-05-02T07:46:55.978Z</time></trkpt><trkpt lat="40.0765267" lon="15.5547"><ele>2.0</ele><time>2026-05-02T07:46:56.978Z</time></trkpt><trkpt lat="40.0765267" lon="15.554525"><ele>2.0</ele><time>2026-05-02T07:46:57.979Z</time></trkpt><trkpt lat="40.0765267" lon="15.554365"><ele>2.0</ele><time>2026-05-02T07:46:58.978Z</time></trkpt><trkpt lat="40.0765267" lon="15.5541967"><ele>2.0</ele><time>2026-05-02T07:46:59.979Z</time></trkpt><trkpt lat="40.0765283" lon="15.5540233"><ele>2.0</ele><time>2026-05-02T07:47:00.978Z</time></trkpt><trkpt lat="40.07652" lon="15.5538567"><ele>2.0</ele><time>2026-05-02T07:47:01.978Z</time></trkpt><trkpt lat="40.0765133" lon="15.553705"><ele>1.75</ele><time>2026-05-02T07:47:02.978Z</time></trkpt><trkpt lat="40.076515" lon="15.5535417"><ele>1.5</ele><time>2026-05-02T07:47:03.978Z</time></trkpt><trkpt lat="40.0765083" lon="15.55337"><ele>1.25</ele><time>2026-05-02T07:47:04.979Z</time></trkpt><trkpt lat="40.0765067" lon="15.5531883"><ele>1.0</ele><time>2026-05-02T07:47:05.978Z</time></trkpt><trkpt lat="40.0765033" lon="15.5530117"><ele>1.0</ele><time>2026-05-02T07:47:06.979Z</time></trkpt><trkpt lat="40.0765033" lon="15.55282"><ele>1.0</ele><time>2026-05-02T07:47:07.978Z</time></trkpt><trkpt lat="40.0764983" lon="15.55263"><ele>1.0</ele><time>2026-05-02T07:47:08.979Z</time></trkpt><trkpt lat="40.0764917" lon="15.5524467"><ele>1.0</ele><time>2026-05-02T07:47:09.978Z</time></trkpt><trkpt lat="40.0764783" lon="15.5522683"><ele>1.0</ele><time>2026-05-02T07:47:10.978Z</time></trkpt><trkpt lat="40.0764767" lon="15.552085"><ele>1.0</ele><time>2026-05-02T07:47:11.978Z</time></trkpt><trkpt lat="40.0764733" lon="15.551905"><ele>1.0</ele><time>2026-05-02T07:47:12.978Z</time></trkpt><trkpt lat="40.076475" lon="15.5517233"><ele>1.0</ele><time>2026-05-02T07:47:13.979Z</time></trkpt><trkpt lat="40.0764617" lon="15.5515567"><ele>1.25</ele><time>2026-05-02T07:47:14.979Z</time></trkpt><trkpt lat="40.0764567" lon="15.5513767"><ele>1.5</ele><time>2026-05-02T07:47:15.978Z</time></trkpt><trkpt lat="40.0764417" lon="15.5512033"><ele>1.75</ele><time>2026-05-02T07:47:16.978Z</time></trkpt><trkpt lat="40.0764283" lon="15.551035"><ele>2.0</ele><time>2026-05-02T07:47:17.979Z</time></trkpt><trkpt lat="40.07642" lon="15.5508733"><ele>2.25</ele><time>2026-05-02T07:47:18.978Z</time></trkpt><trkpt lat="40.0764083" lon="15.5507067"><ele>2.5</ele><time>2026-05-02T07:47:19.978Z</time></trkpt><trkpt lat="40.0763967" lon="15.550545"><ele>2.75</ele><time>2026-05-02T07:47:20.979Z</time></trkpt><trkpt lat="40.0763817" lon="15.55037"><ele>3.0</ele><time>2026-05-02T07:47:21.978Z</time></trkpt><trkpt lat="40.0763683" lon="15.550195"><ele>3.0</ele><time>2026-05-02T07:47:22.978Z</time></trkpt><trkpt lat="40.076355" lon="15.5500217"><ele>3.0</ele><time>2026-05-02T07:47:23.979Z</time></trkpt><trkpt lat="40.0763433" lon="15.54985"><ele>3.0</ele><time>2026-05-02T07:47:24.978Z</time></trkpt><trkpt lat="40.07633" lon="15.5496733"><ele>3.0</ele><time>2026-05-02T07:47:25.978Z</time></trkpt><trkpt lat="40.07632" lon="15.5494967"><ele>3.25</ele><time>2026-05-02T07:47:26.978Z</time></trkpt><trkpt lat="40.076305" lon="15.54932"><ele>3.5</ele><time>2026-05-02T07:47:27.978Z</time></trkpt><trkpt lat="40.0762967" lon="15.5491267"><ele>3.75</ele><time>2026-05-02T07:47:28.978Z</time></trkpt><trkpt lat="40.0762833" lon="15.5489367"><ele>4.0</ele><time>2026-05-02T07:47:29.978Z</time></trkpt><trkpt lat="40.0762717" lon="15.5487367"><ele>3.6666666666666665</ele><time>2026-05-02T07:47:30.978Z</time></trkpt><trkpt lat="40.0762483" lon="15.54854"><ele>3.333333333333333</ele><time>2026-05-02T07:47:31.978Z</time></trkpt><trkpt lat="40.0762267" lon="15.5483283"><ele>3.0</ele><time>2026-05-02T07:47:32.979Z</time></trkpt><trkpt lat="40.0762117" lon="15.54812"><ele>3.0</ele><time>2026-05-02T07:47:33.979Z</time></trkpt><trkpt lat="40.0761967" lon="15.54791"><ele>3.0</ele><time>2026-05-02T07:47:34.979Z</time></trkpt><trkpt lat="40.0761817" lon="15.5477067"><ele>3.0</ele><time>2026-05-02T07:47:35.979Z</time></trkpt><trkpt lat="40.0761567" lon="15.5475033"><ele>3.0</ele><time>2026-05-02T07:47:36.979Z</time></trkpt><trkpt lat="40.0761417" lon="15.5472933"><ele>3.0</ele><time>2026-05-02T07:47:37.978Z</time></trkpt><trkpt lat="40.07613" lon="15.5470783"><ele>3.0</ele><time>2026-05-02T07:47:38.978Z</time></trkpt><trkpt lat="40.07611" lon="15.546875"><ele>2.6666666666666665</ele><time>2026-05-02T07:47:39.978Z</time></trkpt><trkpt lat="40.0760917" lon="15.5466617"><ele>2.333333333333333</ele><time>2026-05-02T07:47:40.978Z</time></trkpt><trkpt lat="40.07608" lon="15.5464533"><ele>2.0</ele><time>2026-05-02T07:47:41.978Z</time></trkpt><trkpt lat="40.076065" lon="15.546245"><ele>2.0</ele><time>2026-05-02T07:47:42.978Z</time></trkpt><trkpt lat="40.0760517" lon="15.5460433"><ele>2.0</ele><time>2026-05-02T07:47:43.978Z</time></trkpt><trkpt lat="40.07604" lon="15.5458317"><ele>2.0</ele><time>2026-05-02T07:47:44.978Z</time></trkpt><trkpt lat="40.0760333" lon="15.545615"><ele>2.0</ele><time>2026-05-02T07:47:45.979Z</time></trkpt><trkpt lat="40.076025" lon="15.5454033"><ele>2.0</ele><time>2026-05-02T07:47:46.979Z</time></trkpt><trkpt lat="40.07601" lon="15.545195"><ele>2.0</ele><time>2026-05-02T07:47:47.979Z</time></trkpt><trkpt lat="40.0759933" lon="15.5449917"><ele>2.333333333333333</ele><time>2026-05-02T07:47:48.978Z</time></trkpt><trkpt lat="40.075965" lon="15.544795"><ele>2.6666666666666665</ele><time>2026-05-02T07:47:49.978Z</time></trkpt><trkpt lat="40.0759483" lon="15.5445883"><ele>3.0</ele><time>2026-05-02T07:47:50.978Z</time></trkpt><trkpt lat="40.0759233" lon="15.5443833"><ele>3.0</ele><time>2026-05-02T07:47:51.978Z</time></trkpt><trkpt lat="40.0759117" lon="15.5441767"><ele>3.0</ele><time>2026-05-02T07:47:52.979Z</time></trkpt><trkpt lat="40.075895" lon="15.5439667"><ele>3.0</ele><time>2026-05-02T07:47:53.978Z</time></trkpt><trkpt lat="40.0758883" lon="15.5437567"><ele>3.0</ele><time>2026-05-02T07:47:54.978Z</time></trkpt><trkpt lat="40.0758667" lon="15.54355"><ele>3.0</ele><time>2026-05-02T07:47:55.979Z</time></trkpt><trkpt lat="40.0758433" lon="15.5433433"><ele>3.0</ele><time>2026-05-02T07:47:56.979Z</time></trkpt><trkpt lat="40.0758217" lon="15.54315"><ele>3.0</ele><time>2026-05-02T07:47:57.978Z</time></trkpt><trkpt lat="40.0758083" lon="15.542955"><ele>3.0</ele><time>2026-05-02T07:47:58.978Z</time></trkpt><trkpt lat="40.0758" lon="15.5427683"><ele>3.0</ele><time>2026-05-02T07:47:59.979Z</time></trkpt><trkpt lat="40.0757917" lon="15.5425833"><ele>3.0</ele><time>2026-05-02T07:48:00.978Z</time></trkpt><trkpt lat="40.075775" lon="15.54241"><ele>2.75</ele><time>2026-05-02T07:48:01.978Z</time></trkpt><trkpt lat="40.0757583" lon="15.5422233"><ele>2.5</ele><time>2026-05-02T07:48:02.978Z</time></trkpt><trkpt lat="40.075745" lon="15.5420367"><ele>2.25</ele><time>2026-05-02T07:48:03.979Z</time></trkpt><trkpt lat="40.0757367" lon="15.5418483"><ele>2.0</ele><time>2026-05-02T07:48:04.979Z</time></trkpt><trkpt lat="40.0757333" lon="15.5416533"><ele>2.0</ele><time>2026-05-02T07:48:05.978Z</time></trkpt><trkpt lat="40.0757317" lon="15.5414533"><ele>2.0</ele><time>2026-05-02T07:48:06.978Z</time></trkpt><trkpt lat="40.0757333" lon="15.54125"><ele>2.0</ele><time>2026-05-02T07:48:07.979Z</time></trkpt><trkpt lat="40.0757233" lon="15.5410667"><ele>2.0</ele><time>2026-05-02T07:48:08.979Z</time></trkpt><trkpt lat="40.0757167" lon="15.5408783"><ele>1.75</ele><time>2026-05-02T07:48:09.978Z</time></trkpt><trkpt lat="40.0757133" lon="15.5407083"><ele>1.5</ele><time>2026-05-02T07:48:10.978Z</time></trkpt><trkpt lat="40.0757167" lon="15.5405367"><ele>1.25</ele><time>2026-05-02T07:48:11.978Z</time></trkpt><trkpt lat="40.07572" lon="15.5403617"><ele>1.0</ele><time>2026-05-02T07:48:12.978Z</time></trkpt><trkpt lat="40.075725" lon="15.54019"><ele>1.0</ele><time>2026-05-02T07:48:13.978Z</time></trkpt><trkpt lat="40.0757283" lon="15.5400167"><ele>1.0</ele><time>2026-05-02T07:48:14.978Z</time></trkpt><trkpt lat="40.0757283" lon="15.5398417"><ele>1.0</ele><time>2026-05-02T07:48:15.979Z</time></trkpt><trkpt lat="40.0757367" lon="15.5396633"><ele>1.0</ele><time>2026-05-02T07:48:16.978Z</time></trkpt><trkpt lat="40.0757367" lon="15.53948"><ele>1.0</ele><time>2026-05-02T07:48:17.979Z</time></trkpt><trkpt lat="40.0757383" lon="15.5392883"><ele>1.0</ele><time>2026-05-02T07:48:18.979Z</time></trkpt><trkpt lat="40.0757267" lon="15.5391017"><ele>1.0</ele><time>2026-05-02T07:48:19.978Z</time></trkpt><trkpt lat="40.0757283" lon="15.5389167"><ele>1.0</ele><time>2026-05-02T07:48:20.979Z</time></trkpt><trkpt lat="40.07573" lon="15.53874"><ele>1.25</ele><time>2026-05-02T07:48:21.979Z</time></trkpt><trkpt lat="40.0757333" lon="15.5385483"><ele>1.5</ele><time>2026-05-02T07:48:22.979Z</time></trkpt><trkpt lat="40.0757333" lon="15.5383567"><ele>1.75</ele><time>2026-05-02T07:48:23.979Z</time></trkpt><trkpt lat="40.07574" lon="15.5381667"><ele>2.0</ele><time>2026-05-02T07:48:24.979Z</time></trkpt><trkpt lat="40.0757383" lon="15.537975"><ele>2.25</ele><time>2026-05-02T07:48:25.979Z</time></trkpt><trkpt lat="40.0757367" lon="15.5377883"><ele>2.5</ele><time>2026-05-02T07:48:26.978Z</time></trkpt><trkpt lat="40.07573" lon="15.5376083"><ele>2.75</ele><time>2026-05-02T07:48:27.978Z</time></trkpt><trkpt lat="40.0757033" lon="15.5374283"><ele>3.0</ele><time>2026-05-02T07:48:28.979Z</time></trkpt><trkpt lat="40.075665" lon="15.5372617"><ele>3.0</ele><time>2026-05-02T07:48:29.978Z</time></trkpt><trkpt lat="40.0756067" lon="15.5370917"><ele>3.0</ele><time>2026-05-02T07:48:30.979Z</time></trkpt><trkpt lat="40.07554" lon="15.5369417"><ele>3.0</ele><time>2026-05-02T07:48:31.978Z</time></trkpt><trkpt lat="40.0754767" lon="15.5367883"><ele>3.0</ele><time>2026-05-02T07:48:32.978Z</time></trkpt><trkpt lat="40.07542" lon="15.5366433"><ele>3.0</ele><time>2026-05-02T07:48:33.978Z</time></trkpt><trkpt lat="40.0753617" lon="15.5365067"><ele>3.0</ele><time>2026-05-02T07:48:34.978Z</time></trkpt><trkpt lat="40.0752983" lon="15.536365"><ele>3.0</ele><time>2026-05-02T07:48:35.978Z</time></trkpt><trkpt lat="40.0752367" lon="15.53623"><ele>3.0</ele><time>2026-05-02T07:48:36.978Z</time></trkpt><trkpt lat="40.0751783" lon="15.5360867"><ele>3.0</ele><time>2026-05-02T07:48:37.978Z</time></trkpt><trkpt lat="40.0751283" lon="15.53593"><ele>3.0</ele><time>2026-05-02T07:48:38.979Z</time></trkpt><trkpt lat="40.0750817" lon="15.53577"><ele>3.0</ele><time>2026-05-02T07:48:39.979Z</time></trkpt><trkpt lat="40.0750383" lon="15.5356217"><ele>3.0</ele><time>2026-05-02T07:48:40.978Z</time></trkpt><trkpt lat="40.0750017" lon="15.5354717"><ele>3.0</ele><time>2026-05-02T07:48:41.978Z</time></trkpt><trkpt lat="40.0749733" lon="15.5353233"><ele>3.0</ele><time>2026-05-02T07:48:42.979Z</time></trkpt><trkpt lat="40.0749517" lon="15.5351817"><ele>3.0</ele><time>2026-05-02T07:48:43.978Z</time></trkpt><trkpt lat="40.0749317" lon="15.5350383"><ele>3.0</ele><time>2026-05-02T07:48:44.978Z</time></trkpt><trkpt lat="40.074925" lon="15.5349017"><ele>3.0</ele><time>2026-05-02T07:48:45.978Z</time></trkpt><trkpt lat="40.0749267" lon="15.53476"><ele>2.8</ele><time>2026-05-02T07:48:46.978Z</time></trkpt><trkpt lat="40.0749217" lon="15.5346283"><ele>2.5999999999999996</ele><time>2026-05-02T07:48:47.978Z</time></trkpt><trkpt lat="40.0749233" lon="15.5344967"><ele>2.4000000000000004</ele><time>2026-05-02T07:48:48.979Z</time></trkpt><trkpt lat="40.0749183" lon="15.5343767"><ele>2.2</ele><time>2026-05-02T07:48:49.978Z</time></trkpt><trkpt lat="40.0749167" lon="15.5342667"><ele>2.0</ele><time>2026-05-02T07:48:50.978Z</time></trkpt><trkpt lat="40.0749183" lon="15.5341683"><ele>2.0</ele><time>2026-05-02T07:48:51.978Z</time></trkpt><trkpt lat="40.07492" lon="15.5340783"><ele>2.0</ele><time>2026-05-02T07:48:52.979Z</time></trkpt><trkpt lat="40.0749183" lon="15.533995"><ele>2.0</ele><time>2026-05-02T07:48:53.978Z</time></trkpt><trkpt lat="40.0749233" lon="15.5338267"><ele>2.0</ele><time>2026-05-02T07:48:55.979Z</time></trkpt><trkpt lat="40.074925" lon="15.5336617"><ele>2.0</ele><time>2026-05-02T07:48:57.978Z</time></trkpt><trkpt lat="40.0749233" lon="15.5335667"><ele>2.0</ele><time>2026-05-02T07:48:58.978Z</time></trkpt><trkpt lat="40.07492" lon="15.53345"><ele>2.0</ele><time>2026-05-02T07:48:59.978Z</time></trkpt><trkpt lat="40.0749167" lon="15.533315"><ele>2.0</ele><time>2026-05-02T07:49:00.978Z</time></trkpt><trkpt lat="40.0749167" lon="15.53316"><ele>2.0</ele><time>2026-05-02T07:49:01.978Z</time></trkpt><trkpt lat="40.0749183" lon="15.5330183"><ele>2.0</ele><time>2026-05-02T07:49:02.978Z</time></trkpt><trkpt lat="40.0749183" lon="15.5328833"><ele>2.0</ele><time>2026-05-02T07:49:03.979Z</time></trkpt><trkpt lat="40.074915" lon="15.5327517"><ele>2.0</ele><time>2026-05-02T07:49:04.978Z</time></trkpt><trkpt lat="40.0749117" lon="15.5326067"><ele>2.0</ele><time>2026-05-02T07:49:05.978Z</time></trkpt><trkpt lat="40.0749117" lon="15.5324583"><ele>2.0</ele><time>2026-05-02T07:49:06.979Z</time></trkpt><trkpt lat="40.0749117" lon="15.532305"><ele>2.0</ele><time>2026-05-02T07:49:07.979Z</time></trkpt><trkpt lat="40.074915" lon="15.5321517"><ele>2.0</ele><time>2026-05-02T07:49:08.978Z</time></trkpt><trkpt lat="40.074915" lon="15.5319933"><ele>2.0</ele><time>2026-05-02T07:49:09.978Z</time></trkpt><trkpt lat="40.0749167" lon="15.531835"><ele>2.0</ele><time>2026-05-02T07:49:10.978Z</time></trkpt><trkpt lat="40.074915" lon="15.5316717"><ele>2.0</ele><time>2026-05-02T07:49:11.978Z</time></trkpt><trkpt lat="40.0749183" lon="15.5315083"><ele>2.0</ele><time>2026-05-02T07:49:12.978Z</time></trkpt><trkpt lat="40.0749167" lon="15.5313583"><ele>2.0</ele><time>2026-05-02T07:49:13.978Z</time></trkpt><trkpt lat="40.0749133" lon="15.5312033"><ele>2.0</ele><time>2026-05-02T07:49:14.979Z</time></trkpt><trkpt lat="40.0749117" lon="15.5310467"><ele>2.0</ele><time>2026-05-02T07:49:15.979Z</time></trkpt><trkpt lat="40.0749083" lon="15.5308817"><ele>1.75</ele><time>2026-05-02T07:49:16.979Z</time></trkpt><trkpt lat="40.074905" lon="15.5307017"><ele>1.5</ele><time>2026-05-02T07:49:17.978Z</time></trkpt><trkpt lat="40.0748983" lon="15.5305283"><ele>1.25</ele><time>2026-05-02T07:49:18.979Z</time></trkpt><trkpt lat="40.0748933" lon="15.5303533"><ele>1.0</ele><time>2026-05-02T07:49:19.978Z</time></trkpt><trkpt lat="40.0748783" lon="15.5301717"><ele>1.5</ele><time>2026-05-02T07:49:20.978Z</time></trkpt><trkpt lat="40.0748633" lon="15.5300033"><ele>2.0</ele><time>2026-05-02T07:49:21.978Z</time></trkpt><trkpt lat="40.0748417" lon="15.5298467"><ele>2.5</ele><time>2026-05-02T07:49:22.979Z</time></trkpt><trkpt lat="40.0748233" lon="15.529695"><ele>3.0</ele><time>2026-05-02T07:49:23.979Z</time></trkpt><trkpt lat="40.0748067" lon="15.5295517"><ele>3.0</ele><time>2026-05-02T07:49:24.979Z</time></trkpt><trkpt lat="40.0747867" lon="15.5294133"><ele>3.0</ele><time>2026-05-02T07:49:25.978Z</time></trkpt><trkpt lat="40.0747667" lon="15.529275"><ele>3.0</ele><time>2026-05-02T07:49:26.978Z</time></trkpt><trkpt lat="40.0747433" lon="15.5291383"><ele>3.0</ele><time>2026-05-02T07:49:27.978Z</time></trkpt><trkpt lat="40.074725" lon="15.52901"><ele>3.0</ele><time>2026-05-02T07:49:28.978Z</time></trkpt><trkpt lat="40.07471" lon="15.5288733"><ele>3.0</ele><time>2026-05-02T07:49:29.979Z</time></trkpt><trkpt lat="40.07471" lon="15.52874"><ele>3.0</ele><time>2026-05-02T07:49:30.978Z</time></trkpt><trkpt lat="40.0746833" lon="15.528595"><ele>3.0</ele><time>2026-05-02T07:49:31.978Z</time></trkpt><trkpt lat="40.0746533" lon="15.5284383"><ele>3.0</ele><time>2026-05-02T07:49:32.979Z</time></trkpt><trkpt lat="40.0746233" lon="15.5282967"><ele>3.0</ele><time>2026-05-02T07:49:33.979Z</time></trkpt><trkpt lat="40.0745883" lon="15.52816"><ele>3.0</ele><time>2026-05-02T07:49:34.979Z</time></trkpt><trkpt lat="40.074585" lon="15.52803"><ele>3.0</ele><time>2026-05-02T07:49:35.979Z</time></trkpt><trkpt lat="40.074575" lon="15.5279017"><ele>3.0</ele><time>2026-05-02T07:49:36.979Z</time></trkpt><trkpt lat="40.074555" lon="15.5277917"><ele>3.0</ele><time>2026-05-02T07:49:37.979Z</time></trkpt><trkpt lat="40.0745333" lon="15.5276733"><ele>3.0</ele><time>2026-05-02T07:49:38.978Z</time></trkpt><trkpt lat="40.0745217" lon="15.527545"><ele>3.0</ele><time>2026-05-02T07:49:39.978Z</time></trkpt><trkpt lat="40.074515" lon="15.5274267"><ele>3.0</ele><time>2026-05-02T07:49:40.978Z</time></trkpt><trkpt lat="40.0745033" lon="15.5273133"><ele>3.0</ele><time>2026-05-02T07:49:41.978Z</time></trkpt><trkpt lat="40.0744767" lon="15.5272017"><ele>3.0</ele><time>2026-05-02T07:49:42.978Z</time></trkpt><trkpt lat="40.074455" lon="15.527085"><ele>3.0</ele><time>2026-05-02T07:49:43.978Z</time></trkpt><trkpt lat="40.0744383" lon="15.5269433"><ele>3.0</ele><time>2026-05-02T07:49:44.979Z</time></trkpt><trkpt lat="40.0744117" lon="15.526815"><ele>3.0</ele><time>2026-05-02T07:49:45.978Z</time></trkpt><trkpt lat="40.07439" lon="15.5266917"><ele>3.0</ele><time>2026-05-02T07:49:46.978Z</time></trkpt><trkpt lat="40.0743717" lon="15.5265617"><ele>3.0</ele><time>2026-05-02T07:49:47.978Z</time></trkpt><trkpt lat="40.0743533" lon="15.5264133"><ele>3.0</ele><time>2026-05-02T07:49:48.979Z</time></trkpt><trkpt lat="40.0743367" lon="15.526265"><ele>3.0</ele><time>2026-05-02T07:49:49.979Z</time></trkpt><trkpt lat="40.0743183" lon="15.5261217"><ele>3.0</ele><time>2026-05-02T07:49:50.978Z</time></trkpt><trkpt lat="40.0742983" lon="15.5259783"><ele>3.0</ele><time>2026-05-02T07:49:51.978Z</time></trkpt><trkpt lat="40.07428" lon="15.5258367"><ele>3.0</ele><time>2026-05-02T07:49:52.978Z</time></trkpt><trkpt lat="40.0742533" lon="15.525685"><ele>3.25</ele><time>2026-05-02T07:49:53.978Z</time></trkpt><trkpt lat="40.0742283" lon="15.5255317"><ele>3.5</ele><time>2026-05-02T07:49:54.978Z</time></trkpt><trkpt lat="40.074205" lon="15.5253767"><ele>3.75</ele><time>2026-05-02T07:49:55.978Z</time></trkpt><trkpt lat="40.0741733" lon="15.5252217"><ele>4.0</ele><time>2026-05-02T07:49:56.978Z</time></trkpt><trkpt lat="40.0741517" lon="15.5250817"><ele>4.2</ele><time>2026-05-02T07:49:57.978Z</time></trkpt><trkpt lat="40.07413" lon="15.5249433"><ele>4.4</ele><time>2026-05-02T07:49:58.979Z</time></trkpt><trkpt lat="40.07412" lon="15.5248133"><ele>4.6</ele><time>2026-05-02T07:49:59.979Z</time></trkpt><trkpt lat="40.0740967" lon="15.5246917"><ele>4.8</ele><time>2026-05-02T07:50:00.978Z</time></trkpt><trkpt lat="40.0740833" lon="15.52457"><ele>5.0</ele><time>2026-05-02T07:50:01.979Z</time></trkpt><trkpt lat="40.0740683" lon="15.5244533"><ele>4.666666666666667</ele><time>2026-05-02T07:50:02.978Z</time></trkpt><trkpt lat="40.07405" lon="15.5243317"><ele>4.333333333333334</ele><time>2026-05-02T07:50:03.979Z</time></trkpt><trkpt lat="40.0740367" lon="15.5242183"><ele>4.0</ele><time>2026-05-02T07:50:04.979Z</time></trkpt><trkpt lat="40.0740167" lon="15.524095"><ele>3.666666666666667</ele><time>2026-05-02T07:50:05.978Z</time></trkpt><trkpt lat="40.0740017" lon="15.5239867"><ele>3.3333333333333335</ele><time>2026-05-02T07:50:06.978Z</time></trkpt><trkpt lat="40.0739917" lon="15.523875"><ele>3.0</ele><time>2026-05-02T07:50:07.978Z</time></trkpt><trkpt lat="40.073975" lon="15.5237717"><ele>3.1666666666666665</ele><time>2026-05-02T07:50:08.978Z</time></trkpt><trkpt lat="40.07396" lon="15.5236833"><ele>3.333333333333333</ele><time>2026-05-02T07:50:09.978Z</time></trkpt><trkpt lat="40.0739433" lon="15.5235467"><ele>3.5</ele><time>2026-05-02T07:50:11.979Z</time></trkpt><trkpt lat="40.0739333" lon="15.523465"><ele>3.6666666666666665</ele><time>2026-05-02T07:50:13.978Z</time></trkpt><trkpt lat="40.0739133" lon="15.523345"><ele>3.833333333333333</ele><time>2026-05-02T07:50:17.978Z</time></trkpt><trkpt lat="40.0738967" lon="15.5232583"><ele>4.0</ele><time>2026-05-02T07:50:19.979Z</time></trkpt><trkpt lat="40.0738867" lon="15.5231633"><ele>3.9999999999999996</ele><time>2026-05-02T07:50:21.979Z</time></trkpt><trkpt lat="40.0738733" lon="15.5230767"><ele>4.0</ele><time>2026-05-02T07:50:23.978Z</time></trkpt><trkpt lat="40.0738667" lon="15.52297"><ele>4.0</ele><time>2026-05-02T07:50:25.978Z</time></trkpt><trkpt lat="40.0738667" lon="15.5228683"><ele>4.0</ele><time>2026-05-02T07:50:27.978Z</time></trkpt><trkpt lat="40.0738567" lon="15.5227633"><ele>3.9999999999999996</ele><time>2026-05-02T07:50:29.979Z</time></trkpt><trkpt lat="40.0738633" lon="15.522655"><ele>4.0</ele><time>2026-05-02T07:50:31.978Z</time></trkpt><trkpt lat="40.0738717" lon="15.5225333"><ele>3.9999999999999996</ele><time>2026-05-02T07:50:33.979Z</time></trkpt><trkpt lat="40.073895" lon="15.52241"><ele>4.0</ele><time>2026-05-02T07:50:35.979Z</time></trkpt><trkpt lat="40.0739233" lon="15.5222983"><ele>4.0</ele><time>2026-05-02T07:50:37.978Z</time></trkpt><trkpt lat="40.073945" lon="15.5221867"><ele>4.0</ele><time>2026-05-02T07:50:39.978Z</time></trkpt><trkpt lat="40.0739483" lon="15.5220867"><ele>3.9999999999999996</ele><time>2026-05-02T07:50:42.978Z</time></trkpt><trkpt lat="40.0739483" lon="15.521985"><ele>4.0</ele><time>2026-05-02T07:50:45.978Z</time></trkpt><trkpt lat="40.0739717" lon="15.52188"><ele>3.9999999999999996</ele><time>2026-05-02T07:50:48.978Z</time></trkpt><trkpt lat="40.0739867" lon="15.5217917"><ele>4.0</ele><time>2026-05-02T07:50:51.978Z</time></trkpt><trkpt lat="40.0739883" lon="15.5217083"><ele>4.0</ele><time>2026-05-02T07:50:55.979Z</time></trkpt><trkpt lat="40.0739933" lon="15.5216183"><ele>4.0</ele><time>2026-05-02T07:50:59.979Z</time></trkpt><trkpt lat="40.0740183" lon="15.5215183"><ele>3.9999999999999996</ele><time>2026-05-02T07:51:02.978Z</time></trkpt><trkpt lat="40.0740533" lon="15.52136"><ele>4.0</ele><time>2026-05-02T07:51:12.978Z</time></trkpt><trkpt lat="40.0740717" lon="15.5212283"><ele>4.0</ele><time>2026-05-02T07:51:14.978Z</time></trkpt><trkpt lat="40.0741017" lon="15.5210817"><ele>4.0</ele><time>2026-05-02T07:51:16.978Z</time></trkpt><trkpt lat="40.0741333" lon="15.5209367"><ele>4.0</ele><time>2026-05-02T07:51:18.978Z</time></trkpt><trkpt lat="40.0741417" lon="15.5207817"><ele>4.0</ele><time>2026-05-02T07:51:20.979Z</time></trkpt><trkpt lat="40.074145" lon="15.520695"><ele>4.0</ele><time>2026-05-02T07:51:21.978Z</time></trkpt><trkpt lat="40.074155" lon="15.520605"><ele>3.9999999999999996</ele><time>2026-05-02T07:51:22.978Z</time></trkpt><trkpt lat="40.0741617" lon="15.5205017"><ele>4.0</ele><time>2026-05-02T07:51:23.979Z</time></trkpt><trkpt lat="40.07417" lon="15.5204033"><ele>4.0</ele><time>2026-05-02T07:51:24.978Z</time></trkpt><trkpt lat="40.0741767" lon="15.520315"><ele>4.0</ele><time>2026-05-02T07:51:25.978Z</time></trkpt><trkpt lat="40.0741817" lon="15.52017"><ele>3.9999999999999996</ele><time>2026-05-02T07:51:27.978Z</time></trkpt><trkpt lat="40.0741767" lon="15.5200417"><ele>4.0</ele><time>2026-05-02T07:51:29.978Z</time></trkpt><trkpt lat="40.0741567" lon="15.5198983"><ele>4.0</ele><time>2026-05-02T07:51:31.979Z</time></trkpt><trkpt lat="40.074155" lon="15.519745"><ele>4.0</ele><time>2026-05-02T07:51:33.979Z</time></trkpt><trkpt lat="40.0741583" lon="15.5196067"><ele>4.0</ele><time>2026-05-02T07:51:35.979Z</time></trkpt><trkpt lat="40.0741517" lon="15.5194817"><ele>4.0</ele><time>2026-05-02T07:51:37.978Z</time></trkpt><trkpt lat="40.0741467" lon="15.5193483"><ele>4.0</ele><time>2026-05-02T07:51:39.978Z</time></trkpt><trkpt lat="40.0741333" lon="15.5191867"><ele>3.9999999999999996</ele><time>2026-05-02T07:51:41.978Z</time></trkpt><trkpt lat="40.074125" lon="15.5191033"><ele>4.0</ele><time>2026-05-02T07:51:42.979Z</time></trkpt><trkpt lat="40.0740833" lon="15.5189433"><ele>4.0</ele><time>2026-05-02T07:51:44.978Z</time></trkpt><trkpt lat="40.0740583" lon="15.5188617"><ele>4.0</ele><time>2026-05-02T07:51:45.978Z</time></trkpt><trkpt lat="40.074035" lon="15.5187783"><ele>3.9999999999999996</ele><time>2026-05-02T07:51:46.979Z</time></trkpt><trkpt lat="40.0740117" lon="15.5186883"><ele>4.0</ele><time>2026-05-02T07:51:47.978Z</time></trkpt><trkpt lat="40.07397" lon="15.5185417"><ele>3.9999999999999996</ele><time>2026-05-02T07:51:49.978Z</time></trkpt><trkpt lat="40.073945" lon="15.5184217"><ele>4.0</ele><time>2026-05-02T07:51:51.978Z</time></trkpt><trkpt lat="40.0739033" lon="15.5183317"><ele>4.0</ele><time>2026-05-02T07:51:53.979Z</time></trkpt><trkpt lat="40.073885" lon="15.51823"><ele>4.0</ele><time>2026-05-02T07:51:55.978Z</time></trkpt><trkpt lat="40.07387" lon="15.5181367"><ele>3.9999999999999996</ele><time>2026-05-02T07:51:57.979Z</time></trkpt><trkpt lat="40.0738517" lon="15.5180383"><ele>4.0</ele><time>2026-05-02T07:51:59.979Z</time></trkpt><trkpt lat="40.07383" lon="15.517935"><ele>4.166666666666666</ele><time>2026-05-02T07:52:01.978Z</time></trkpt><trkpt lat="40.073795" lon="15.517825"><ele>4.333333333333333</ele><time>2026-05-02T07:52:03.978Z</time></trkpt><trkpt lat="40.0737667" lon="15.517715"><ele>4.5</ele><time>2026-05-02T07:52:05.979Z</time></trkpt><trkpt lat="40.0737333" lon="15.5176067"><ele>4.666666666666667</ele><time>2026-05-02T07:52:07.979Z</time></trkpt><trkpt lat="40.073705" lon="15.5175"><ele>4.833333333333334</ele><time>2026-05-02T07:52:09.979Z</time></trkpt><trkpt lat="40.07369" lon="15.5174017"><ele>5.0</ele><time>2026-05-02T07:52:11.978Z</time></trkpt><trkpt lat="40.07367" lon="15.5173067"><ele>5.0</ele><time>2026-05-02T07:52:13.978Z</time></trkpt><trkpt lat="40.0736417" lon="15.517195"><ele>5.0</ele><time>2026-05-02T07:52:15.978Z</time></trkpt><trkpt lat="40.0736067" lon="15.51708"><ele>5.0</ele><time>2026-05-02T07:52:17.978Z</time></trkpt><trkpt lat="40.073585" lon="15.5169383"><ele>5.0</ele><time>2026-05-02T07:52:19.979Z</time></trkpt><trkpt lat="40.0735683" lon="15.5168517"><ele>5.0</ele><time>2026-05-02T07:52:20.979Z</time></trkpt><trkpt lat="40.0735483" lon="15.516755"><ele>5.0</ele><time>2026-05-02T07:52:21.978Z</time></trkpt><trkpt lat="40.073535" lon="15.5166717"><ele>4.833333333333334</ele><time>2026-05-02T07:52:22.978Z</time></trkpt><trkpt lat="40.0735217" lon="15.516575"><ele>4.666666666666667</ele><time>2026-05-02T07:52:23.978Z</time></trkpt><trkpt lat="40.07352" lon="15.5164783"><ele>4.5</ele><time>2026-05-02T07:52:24.979Z</time></trkpt><trkpt lat="40.07353" lon="15.51638"><ele>4.333333333333333</ele><time>2026-05-02T07:52:25.978Z</time></trkpt><trkpt lat="40.073575" lon="15.516205"><ele>4.166666666666666</ele><time>2026-05-02T07:52:27.979Z</time></trkpt><trkpt lat="40.0735917" lon="15.516105"><ele>4.0</ele><time>2026-05-02T07:52:28.979Z</time></trkpt><trkpt lat="40.0736067" lon="15.516"><ele>4.0</ele><time>2026-05-02T07:52:29.978Z</time></trkpt><trkpt lat="40.0736233" lon="15.5159033"><ele>3.9999999999999996</ele><time>2026-05-02T07:52:30.978Z</time></trkpt><trkpt lat="40.073645" lon="15.5158017"><ele>4.0</ele><time>2026-05-02T07:52:31.979Z</time></trkpt><trkpt lat="40.0736633" lon="15.5157"><ele>4.0</ele><time>2026-05-02T07:52:32.979Z</time></trkpt><trkpt lat="40.0736833" lon="15.515605"><ele>3.9999999999999996</ele><time>2026-05-02T07:52:33.978Z</time></trkpt><trkpt lat="40.0736933" lon="15.515515"><ele>4.0</ele><time>2026-05-02T07:52:34.979Z</time></trkpt><trkpt lat="40.0736983" lon="15.5154267"><ele>4.0</ele><time>2026-05-02T07:52:35.979Z</time></trkpt><trkpt lat="40.0737067" lon="15.5153317"><ele>4.166666666666666</ele><time>2026-05-02T07:52:36.979Z</time></trkpt><trkpt lat="40.073715" lon="15.515235"><ele>4.333333333333333</ele><time>2026-05-02T07:52:37.979Z</time></trkpt><trkpt lat="40.0737217" lon="15.5151367"><ele>4.5</ele><time>2026-05-02T07:52:38.978Z</time></trkpt><trkpt lat="40.0737267" lon="15.5150367"><ele>4.666666666666667</ele><time>2026-05-02T07:52:39.978Z</time></trkpt><trkpt lat="40.0737317" lon="15.5149417"><ele>4.833333333333334</ele><time>2026-05-02T07:52:40.978Z</time></trkpt><trkpt lat="40.0737333" lon="15.51485"><ele>5.0</ele><time>2026-05-02T07:52:41.978Z</time></trkpt><trkpt lat="40.0737233" lon="15.514695"><ele>5.0</ele><time>2026-05-02T07:52:43.979Z</time></trkpt><trkpt lat="40.07372" lon="15.5145467"><ele>5.0</ele><time>2026-05-02T07:52:45.978Z</time></trkpt><trkpt lat="40.07372" lon="15.5143733"><ele>5.0</ele><time>2026-05-02T07:52:47.978Z</time></trkpt><trkpt lat="40.0737133" lon="15.514285"><ele>5.0</ele><time>2026-05-02T07:52:48.979Z</time></trkpt><trkpt lat="40.0737083" lon="15.5141883"><ele>5.0</ele><time>2026-05-02T07:52:49.979Z</time></trkpt><trkpt lat="40.073695" lon="15.5140833"><ele>5.0</ele><time>2026-05-02T07:52:50.978Z</time></trkpt><trkpt lat="40.07368" lon="15.513965"><ele>5.0</ele><time>2026-05-02T07:52:51.978Z</time></trkpt><trkpt lat="40.073645" lon="15.513845"><ele>5.0</ele><time>2026-05-02T07:52:52.978Z</time></trkpt><trkpt lat="40.0736017" lon="15.5137367"><ele>5.0</ele><time>2026-05-02T07:52:53.978Z</time></trkpt><trkpt lat="40.073565" lon="15.5136417"><ele>5.0</ele><time>2026-05-02T07:52:54.978Z</time></trkpt><trkpt lat="40.0735233" lon="15.5135483"><ele>5.0</ele><time>2026-05-02T07:52:55.978Z</time></trkpt><trkpt lat="40.07348" lon="15.5134583"><ele>4.6</ele><time>2026-05-02T07:52:56.978Z</time></trkpt><trkpt lat="40.0734417" lon="15.5133633"><ele>4.2</ele><time>2026-05-02T07:52:57.979Z</time></trkpt><trkpt lat="40.0733967" lon="15.5132517"><ele>3.8</ele><time>2026-05-02T07:52:58.979Z</time></trkpt><trkpt lat="40.073355" lon="15.5131367"><ele>3.4</ele><time>2026-05-02T07:52:59.979Z</time></trkpt><trkpt lat="40.0733017" lon="15.513025"><ele>3.0</ele><time>2026-05-02T07:53:00.978Z</time></trkpt><trkpt lat="40.0732367" lon="15.51291"><ele>2.75</ele><time>2026-05-02T07:53:01.979Z</time></trkpt><trkpt lat="40.0731683" lon="15.51278"><ele>2.5</ele><time>2026-05-02T07:53:02.979Z</time></trkpt><trkpt lat="40.0730967" lon="15.5126467"><ele>2.25</ele><time>2026-05-02T07:53:03.979Z</time></trkpt><trkpt lat="40.073025" lon="15.5125217"><ele>2.0</ele><time>2026-05-02T07:53:04.979Z</time></trkpt><trkpt lat="40.07296" lon="15.5123933"><ele>2.0</ele><time>2026-05-02T07:53:05.978Z</time></trkpt><trkpt lat="40.0729" lon="15.5122717"><ele>2.0</ele><time>2026-05-02T07:53:06.978Z</time></trkpt><trkpt lat="40.0728317" lon="15.5121417"><ele>2.0</ele><time>2026-05-02T07:53:07.978Z</time></trkpt><trkpt lat="40.0727633" lon="15.5120083"><ele>2.0</ele><time>2026-05-02T07:53:08.978Z</time></trkpt><trkpt lat="40.072695" lon="15.5118767"><ele>2.0</ele><time>2026-05-02T07:53:09.979Z</time></trkpt><trkpt lat="40.0726183" lon="15.51174"><ele>2.0</ele><time>2026-05-02T07:53:10.978Z</time></trkpt><trkpt lat="40.0725367" lon="15.5116017"><ele>2.0</ele><time>2026-05-02T07:53:11.979Z</time></trkpt><trkpt lat="40.0724667" lon="15.51146"><ele>2.0</ele><time>2026-05-02T07:53:12.978Z</time></trkpt><trkpt lat="40.07239" lon="15.51133"><ele>2.0</ele><time>2026-05-02T07:53:13.978Z</time></trkpt><trkpt lat="40.0723167" lon="15.5112"><ele>2.0</ele><time>2026-05-02T07:53:14.978Z</time></trkpt><trkpt lat="40.0722433" lon="15.5110717"><ele>2.0</ele><time>2026-05-02T07:53:15.979Z</time></trkpt><trkpt lat="40.0721833" lon="15.51094"><ele>2.0</ele><time>2026-05-02T07:53:16.978Z</time></trkpt><trkpt lat="40.0721217" lon="15.510795"><ele>2.0</ele><time>2026-05-02T07:53:17.978Z</time></trkpt><trkpt lat="40.0720583" lon="15.5106467"><ele>2.0</ele><time>2026-05-02T07:53:18.978Z</time></trkpt><trkpt lat="40.0719983" lon="15.5104917"><ele>2.0</ele><time>2026-05-02T07:53:19.978Z</time></trkpt><trkpt lat="40.07194" lon="15.5103317"><ele>2.0</ele><time>2026-05-02T07:53:20.979Z</time></trkpt><trkpt lat="40.0718817" lon="15.5101533"><ele>2.25</ele><time>2026-05-02T07:53:21.978Z</time></trkpt><trkpt lat="40.0718367" lon="15.5099817"><ele>2.5</ele><time>2026-05-02T07:53:22.978Z</time></trkpt><trkpt lat="40.0717917" lon="15.50982"><ele>2.75</ele><time>2026-05-02T07:53:23.978Z</time></trkpt><trkpt lat="40.0717517" lon="15.50967"><ele>3.0</ele><time>2026-05-02T07:53:24.978Z</time></trkpt><trkpt lat="40.0717117" lon="15.5095217"><ele>3.0</ele><time>2026-05-02T07:53:25.979Z</time></trkpt><trkpt lat="40.0716717" lon="15.5093733"><ele>3.0</ele><time>2026-05-02T07:53:26.978Z</time></trkpt><trkpt lat="40.0716233" lon="15.5092317"><ele>3.0</ele><time>2026-05-02T07:53:27.979Z</time></trkpt><trkpt lat="40.071585" lon="15.5090767"><ele>3.0</ele><time>2026-05-02T07:53:28.979Z</time></trkpt><trkpt lat="40.0715433" lon="15.5089217"><ele>3.0</ele><time>2026-05-02T07:53:29.978Z</time></trkpt><trkpt lat="40.0715117" lon="15.508765"><ele>3.0</ele><time>2026-05-02T07:53:30.978Z</time></trkpt><trkpt lat="40.0714767" lon="15.508625"><ele>3.0</ele><time>2026-05-02T07:53:31.978Z</time></trkpt><trkpt lat="40.0714417" lon="15.5084867"><ele>3.0</ele><time>2026-05-02T07:53:32.978Z</time></trkpt><trkpt lat="40.0714117" lon="15.5083433"><ele>3.0</ele><time>2026-05-02T07:53:33.978Z</time></trkpt><trkpt lat="40.0713783" lon="15.508215"><ele>3.0</ele><time>2026-05-02T07:53:34.978Z</time></trkpt><trkpt lat="40.07134" lon="15.5080817"><ele>3.0</ele><time>2026-05-02T07:53:35.979Z</time></trkpt><trkpt lat="40.0713033" lon="15.5079517"><ele>3.0</ele><time>2026-05-02T07:53:36.978Z</time></trkpt><trkpt lat="40.0712667" lon="15.5078183"><ele>3.0</ele><time>2026-05-02T07:53:37.978Z</time></trkpt><trkpt lat="40.0712233" lon="15.5076917"><ele>3.4</ele><time>2026-05-02T07:53:38.978Z</time></trkpt><trkpt lat="40.0711917" lon="15.5075667"><ele>3.8</ele><time>2026-05-02T07:53:39.978Z</time></trkpt><trkpt lat="40.0711533" lon="15.507445"><ele>4.2</ele><time>2026-05-02T07:53:40.979Z</time></trkpt><trkpt lat="40.0711183" lon="15.5073183"><ele>4.6</ele><time>2026-05-02T07:53:41.978Z</time></trkpt><trkpt lat="40.0710783" lon="15.50719"><ele>5.0</ele><time>2026-05-02T07:53:42.979Z</time></trkpt><trkpt lat="40.0710317" lon="15.507075"><ele>5.4</ele><time>2026-05-02T07:53:43.978Z</time></trkpt><trkpt lat="40.070975" lon="15.5069567"><ele>5.8</ele><time>2026-05-02T07:53:44.978Z</time></trkpt><trkpt lat="40.0709183" lon="15.50684"><ele>6.199999999999999</ele><time>2026-05-02T07:53:45.978Z</time></trkpt><trkpt lat="40.0708617" lon="15.506735"><ele>6.6</ele><time>2026-05-02T07:53:46.979Z</time></trkpt><trkpt lat="40.070795" lon="15.50664"><ele>7.0</ele><time>2026-05-02T07:53:47.978Z</time></trkpt><trkpt lat="40.070715" lon="15.5065617"><ele>7.0</ele><time>2026-05-02T07:53:48.978Z</time></trkpt><trkpt lat="40.070625" lon="15.5064983"><ele>6.999999999999999</ele><time>2026-05-02T07:53:49.978Z</time></trkpt><trkpt lat="40.0705217" lon="15.5064467"><ele>6.999999999999999</ele><time>2026-05-02T07:53:50.978Z</time></trkpt><trkpt lat="40.07042" lon="15.5063967"><ele>7.0</ele><time>2026-05-02T07:53:51.978Z</time></trkpt><trkpt lat="40.0703417" lon="15.5063367"><ele>7.0</ele><time>2026-05-02T07:53:52.978Z</time></trkpt><trkpt lat="40.07028" lon="15.5062667"><ele>7.666666666666667</ele><time>2026-05-02T07:53:53.979Z</time></trkpt><trkpt lat="40.0702333" lon="15.506195"><ele>8.333333333333334</ele><time>2026-05-02T07:53:54.978Z</time></trkpt><trkpt lat="40.0701917" lon="15.5061267"><ele>9.0</ele><time>2026-05-02T07:53:55.978Z</time></trkpt><trkpt lat="40.0701183" lon="15.506"><ele>9.666666666666666</ele><time>2026-05-02T07:53:57.979Z</time></trkpt><trkpt lat="40.0700583" lon="15.5058683"><ele>10.333333333333332</ele><time>2026-05-02T07:53:59.979Z</time></trkpt><trkpt lat="40.0700233" lon="15.5057983"><ele>11.0</ele><time>2026-05-02T07:54:00.978Z</time></trkpt><trkpt lat="40.069975" lon="15.5056533"><ele>11.0</ele><time>2026-05-02T07:54:02.978Z</time></trkpt><trkpt lat="40.0699667" lon="15.5055183"><ele>11.0</ele><time>2026-05-02T07:54:04.979Z</time></trkpt><trkpt lat="40.069995" lon="15.505375"><ele>11.0</ele><time>2026-05-02T07:54:06.978Z</time></trkpt><trkpt lat="40.0700417" lon="15.5053083"><ele>11.0</ele><time>2026-05-02T07:54:07.978Z</time></trkpt><trkpt lat="40.0700983" lon="15.505245"><ele>11.0</ele><time>2026-05-02T07:54:08.978Z</time></trkpt><trkpt lat="40.0701667" lon="15.505195"><ele>11.0</ele><time>2026-05-02T07:54:09.979Z</time></trkpt><trkpt lat="40.0702383" lon="15.5051533"><ele>10.833333333333332</ele><time>2026-05-02T07:54:10.978Z</time></trkpt><trkpt lat="40.0703117" lon="15.5051167"><ele>10.666666666666666</ele><time>2026-05-02T07:54:11.978Z</time></trkpt><trkpt lat="40.0703867" lon="15.5050867"><ele>10.5</ele><time>2026-05-02T07:54:12.979Z</time></trkpt><trkpt lat="40.0704583" lon="15.5050617"><ele>10.333333333333334</ele><time>2026-05-02T07:54:13.978Z</time></trkpt><trkpt lat="40.07053" lon="15.5050283"><ele>10.166666666666668</ele><time>2026-05-02T07:54:14.979Z</time></trkpt><trkpt lat="40.0705983" lon="15.5049833"><ele>10.0</ele><time>2026-05-02T07:54:15.978Z</time></trkpt><trkpt lat="40.07067" lon="15.5049317"><ele>10.0</ele><time>2026-05-02T07:54:16.979Z</time></trkpt><trkpt lat="40.0707283" lon="15.504875"><ele>10.0</ele><time>2026-05-02T07:54:17.979Z</time></trkpt><trkpt lat="40.0707783" lon="15.5048117"><ele>10.0</ele><time>2026-05-02T07:54:18.979Z</time></trkpt><trkpt lat="40.0708283" lon="15.5047333"><ele>10.0</ele><time>2026-05-02T07:54:19.978Z</time></trkpt><trkpt lat="40.0708817" lon="15.5046533"><ele>10.0</ele><time>2026-05-02T07:54:20.978Z</time></trkpt><trkpt lat="40.07094" lon="15.504565"><ele>10.0</ele><time>2026-05-02T07:54:21.979Z</time></trkpt><trkpt lat="40.071005" lon="15.5044833"><ele>10.666666666666668</ele><time>2026-05-02T07:54:22.978Z</time></trkpt><trkpt lat="40.0710667" lon="15.5043917"><ele>11.333333333333334</ele><time>2026-05-02T07:54:23.979Z</time></trkpt><trkpt lat="40.0711217" lon="15.50431"><ele>12.0</ele><time>2026-05-02T07:54:24.978Z</time></trkpt><trkpt lat="40.0711767" lon="15.5042317"><ele>12.666666666666668</ele><time>2026-05-02T07:54:25.978Z</time></trkpt><trkpt lat="40.0712283" lon="15.50416"><ele>13.333333333333334</ele><time>2026-05-02T07:54:26.978Z</time></trkpt><trkpt lat="40.0712817" lon="15.5041"><ele>14.0</ele><time>2026-05-02T07:54:27.979Z</time></trkpt><trkpt lat="40.0713317" lon="15.504045"><ele>14.0</ele><time>2026-05-02T07:54:28.979Z</time></trkpt><trkpt lat="40.0714167" lon="15.5039483"><ele>13.999999999999998</ele><time>2026-05-02T07:54:30.978Z</time></trkpt><trkpt lat="40.0714883" lon="15.503865"><ele>13.999999999999998</ele><time>2026-05-02T07:54:32.979Z</time></trkpt><trkpt lat="40.07155" lon="15.50379"><ele>14.0</ele><time>2026-05-02T07:54:34.979Z</time></trkpt><trkpt lat="40.0716017" lon="15.5037217"><ele>14.0</ele><time>2026-05-02T07:54:36.979Z</time></trkpt><trkpt lat="40.0716467" lon="15.5036283"><ele>13.833333333333334</ele><time>2026-05-02T07:54:39.978Z</time></trkpt><trkpt lat="40.071625" lon="15.5035167"><ele>13.666666666666668</ele><time>2026-05-02T07:54:41.979Z</time></trkpt><trkpt lat="40.0715883" lon="15.5034483"><ele>13.5</ele><time>2026-05-02T07:54:42.978Z</time></trkpt><trkpt lat="40.071535" lon="15.5033933"><ele>13.333333333333332</ele><time>2026-05-02T07:54:43.979Z</time></trkpt><trkpt lat="40.0714733" lon="15.5033633"><ele>13.166666666666666</ele><time>2026-05-02T07:54:44.978Z</time></trkpt><trkpt lat="40.0713917" lon="15.5033417"><ele>13.0</ele><time>2026-05-02T07:54:45.979Z</time></trkpt><trkpt lat="40.0713117" lon="15.5033267"><ele>13.0</ele><time>2026-05-02T07:54:46.978Z</time></trkpt><trkpt lat="40.0712133" lon="15.5033167"><ele>13.0</ele><time>2026-05-02T07:54:47.978Z</time></trkpt><trkpt lat="40.0711033" lon="15.5033017"><ele>13.0</ele><time>2026-05-02T07:54:48.978Z</time></trkpt><trkpt lat="40.0709967" lon="15.503285"><ele>13.0</ele><time>2026-05-02T07:54:49.978Z</time></trkpt><trkpt lat="40.070885" lon="15.5032683"><ele>13.0</ele><time>2026-05-02T07:54:50.978Z</time></trkpt><trkpt lat="40.0707783" lon="15.5032433"><ele>12.8</ele><time>2026-05-02T07:54:51.978Z</time></trkpt><trkpt lat="40.070675" lon="15.50322"><ele>12.600000000000001</ele><time>2026-05-02T07:54:52.978Z</time></trkpt><trkpt lat="40.07057" lon="15.5032"><ele>12.399999999999999</ele><time>2026-05-02T07:54:53.978Z</time></trkpt><trkpt lat="40.0704633" lon="15.5031817"><ele>12.2</ele><time>2026-05-02T07:54:54.978Z</time></trkpt><trkpt lat="40.07036" lon="15.503165"><ele>12.0</ele><time>2026-05-02T07:54:55.978Z</time></trkpt><trkpt lat="40.0702467" lon="15.503135"><ele>12.0</ele><time>2026-05-02T07:54:56.978Z</time></trkpt><trkpt lat="40.07013" lon="15.5031133"><ele>12.0</ele><time>2026-05-02T07:54:57.978Z</time></trkpt><trkpt lat="40.0700117" lon="15.5030867"><ele>12.0</ele><time>2026-05-02T07:54:58.979Z</time></trkpt><trkpt lat="40.0698933" lon="15.50306"><ele>12.0</ele><time>2026-05-02T07:54:59.978Z</time></trkpt><trkpt lat="40.0697783" lon="15.5030333"><ele>11.5</ele><time>2026-05-02T07:55:00.978Z</time></trkpt><trkpt lat="40.0696517" lon="15.5029967"><ele>11.0</ele><time>2026-05-02T07:55:01.979Z</time></trkpt><trkpt lat="40.069525" lon="15.5029717"><ele>10.5</ele><time>2026-05-02T07:55:02.978Z</time></trkpt><trkpt lat="40.0693917" lon="15.5029383"><ele>10.0</ele><time>2026-05-02T07:55:03.978Z</time></trkpt><trkpt lat="40.0692633" lon="15.502905"><ele>12.75</ele><time>2026-05-02T07:55:04.978Z</time></trkpt><trkpt lat="40.06913" lon="15.502875"><ele>15.5</ele><time>2026-05-02T07:55:05.978Z</time></trkpt><trkpt lat="40.069" lon="15.502845"><ele>18.25</ele><time>2026-05-02T07:55:06.979Z</time></trkpt><trkpt lat="40.0688633" lon="15.5028183"><ele>21.0</ele><time>2026-05-02T07:55:07.978Z</time></trkpt><trkpt lat="40.0687317" lon="15.5028033"><ele>21.5</ele><time>2026-05-02T07:55:08.979Z</time></trkpt><trkpt lat="40.068615" lon="15.5027983"><ele>22.0</ele><time>2026-05-02T07:55:09.977Z</time></trkpt><trkpt lat="40.0685" lon="15.5028283"><ele>22.5</ele><time>2026-05-02T07:55:10.978Z</time></trkpt><trkpt lat="40.0683833" lon="15.5028917"><ele>23.0</ele><time>2026-05-02T07:55:11.978Z</time></trkpt><trkpt lat="40.0682783" lon="15.5029567"><ele>21.599999999999998</ele><time>2026-05-02T07:55:12.978Z</time></trkpt><trkpt lat="40.06818" lon="15.5030267"><ele>20.2</ele><time>2026-05-02T07:55:13.977Z</time></trkpt><trkpt lat="40.068085" lon="15.5031133"><ele>18.8</ele><time>2026-05-02T07:55:14.977Z</time></trkpt><trkpt lat="40.0679983" lon="15.5031983"><ele>17.4</ele><time>2026-05-02T07:55:15.977Z</time></trkpt><trkpt lat="40.067905" lon="15.5032767"><ele>16.0</ele><time>2026-05-02T07:55:16.978Z</time></trkpt><trkpt lat="40.0678033" lon="15.5033517"><ele>16.0</ele><time>2026-05-02T07:55:17.977Z</time></trkpt><trkpt lat="40.0676967" lon="15.503425"><ele>16.0</ele><time>2026-05-02T07:55:18.978Z</time></trkpt><trkpt lat="40.0675783" lon="15.5034767"><ele>16.0</ele><time>2026-05-02T07:55:19.977Z</time></trkpt><trkpt lat="40.06746" lon="15.5035083"><ele>16.0</ele><time>2026-05-02T07:55:20.978Z</time></trkpt><trkpt lat="40.0673383" lon="15.5035"><ele>15.75</ele><time>2026-05-02T07:55:21.977Z</time></trkpt><trkpt lat="40.0672217" lon="15.50347"><ele>15.5</ele><time>2026-05-02T07:55:22.977Z</time></trkpt><trkpt lat="40.06711" lon="15.5034417"><ele>15.25</ele><time>2026-05-02T07:55:23.977Z</time></trkpt><trkpt lat="40.0669933" lon="15.50343"><ele>15.0</ele><time>2026-05-02T07:55:24.977Z</time></trkpt><trkpt lat="40.066875" lon="15.5034367"><ele>15.0</ele><time>2026-05-02T07:55:25.978Z</time></trkpt><trkpt lat="40.0667483" lon="15.5034633"><ele>15.0</ele><time>2026-05-02T07:55:26.977Z</time></trkpt><trkpt lat="40.0666317" lon="15.5034733"><ele>15.0</ele><time>2026-05-02T07:55:27.977Z</time></trkpt><trkpt lat="40.0665117" lon="15.5034833"><ele>15.0</ele><time>2026-05-02T07:55:28.978Z</time></trkpt><trkpt lat="40.066395" lon="15.5034567"><ele>13.5</ele><time>2026-05-02T07:55:29.978Z</time></trkpt><trkpt lat="40.06627" lon="15.5034183"><ele>12.0</ele><time>2026-05-02T07:55:30.977Z</time></trkpt><trkpt lat="40.0661583" lon="15.503345"><ele>10.5</ele><time>2026-05-02T07:55:31.978Z</time></trkpt><trkpt lat="40.0660467" lon="15.503265"><ele>9.0</ele><time>2026-05-02T07:55:32.977Z</time></trkpt><trkpt lat="40.0659383" lon="15.50317"><ele>9.0</ele><time>2026-05-02T07:55:33.978Z</time></trkpt><trkpt lat="40.0658333" lon="15.503065"><ele>9.0</ele><time>2026-05-02T07:55:34.977Z</time></trkpt><trkpt lat="40.065735" lon="15.50295"><ele>9.0</ele><time>2026-05-02T07:55:35.977Z</time></trkpt><trkpt lat="40.0656333" lon="15.50284"><ele>9.0</ele><time>2026-05-02T07:55:36.978Z</time></trkpt><trkpt lat="40.0655283" lon="15.5027333"><ele>9.5</ele><time>2026-05-02T07:55:37.977Z</time></trkpt><trkpt lat="40.0654417" lon="15.5026317"><ele>10.0</ele><time>2026-05-02T07:55:38.977Z</time></trkpt><trkpt lat="40.06534" lon="15.5025383"><ele>10.5</ele><time>2026-05-02T07:55:39.977Z</time></trkpt><trkpt lat="40.0652533" lon="15.5024467"><ele>11.0</ele><time>2026-05-02T07:55:40.978Z</time></trkpt><trkpt lat="40.0651567" lon="15.5023583"><ele>11.0</ele><time>2026-05-02T07:55:41.977Z</time></trkpt><trkpt lat="40.06506" lon="15.5022633"><ele>11.0</ele><time>2026-05-02T07:55:42.977Z</time></trkpt><trkpt lat="40.06497" lon="15.502165"><ele>11.0</ele><time>2026-05-02T07:55:43.977Z</time></trkpt><trkpt lat="40.0648767" lon="15.5020717"><ele>11.0</ele><time>2026-05-02T07:55:44.978Z</time></trkpt><trkpt lat="40.0647833" lon="15.5019733"><ele>11.0</ele><time>2026-05-02T07:55:45.978Z</time></trkpt><trkpt lat="40.0646717" lon="15.5018833"><ele>11.0</ele><time>2026-05-02T07:55:46.977Z</time></trkpt><trkpt lat="40.064545" lon="15.5018083"><ele>11.0</ele><time>2026-05-02T07:55:47.978Z</time></trkpt><trkpt lat="40.0644217" lon="15.5017283"><ele>11.0</ele><time>2026-05-02T07:55:48.977Z</time></trkpt><trkpt lat="40.0642933" lon="15.5016517"><ele>11.0</ele><time>2026-05-02T07:55:49.977Z</time></trkpt><trkpt lat="40.06417" lon="15.5015783"><ele>11.0</ele><time>2026-05-02T07:55:50.978Z</time></trkpt><trkpt lat="40.0640433" lon="15.5015117"><ele>11.0</ele><time>2026-05-02T07:55:51.978Z</time></trkpt><trkpt lat="40.06391" lon="15.50145"><ele>11.0</ele><time>2026-05-02T07:55:52.977Z</time></trkpt><trkpt lat="40.0637767" lon="15.5014133"><ele>10.0</ele><time>2026-05-02T07:55:53.977Z</time></trkpt><trkpt lat="40.063635" lon="15.5013883"><ele>9.0</ele><time>2026-05-02T07:55:54.977Z</time></trkpt><trkpt lat="40.0635033" lon="15.5013667"><ele>8.0</ele><time>2026-05-02T07:55:55.978Z</time></trkpt><trkpt lat="40.0633667" lon="15.5013467"><ele>7.0</ele><time>2026-05-02T07:55:56.977Z</time></trkpt><trkpt lat="40.0632317" lon="15.5013217"><ele>6.75</ele><time>2026-05-02T07:55:57.977Z</time></trkpt><trkpt lat="40.0631017" lon="15.50129"><ele>6.5</ele><time>2026-05-02T07:55:58.977Z</time></trkpt><trkpt lat="40.0629583" lon="15.501255"><ele>6.25</ele><time>2026-05-02T07:55:59.977Z</time></trkpt><trkpt lat="40.0628283" lon="15.50121"><ele>6.0</ele><time>2026-05-02T07:56:00.978Z</time></trkpt><trkpt lat="40.0627" lon="15.501165"><ele>6.0</ele><time>2026-05-02T07:56:01.977Z</time></trkpt><trkpt lat="40.0625667" lon="15.5011317"><ele>6.0</ele><time>2026-05-02T07:56:02.977Z</time></trkpt><trkpt lat="40.0624417" lon="15.5010983"><ele>6.0</ele><time>2026-05-02T07:56:03.978Z</time></trkpt><trkpt lat="40.0623067" lon="15.5010867"><ele>6.0</ele><time>2026-05-02T07:56:04.978Z</time></trkpt><trkpt lat="40.0621717" lon="15.50108"><ele>5.5</ele><time>2026-05-02T07:56:05.977Z</time></trkpt><trkpt lat="40.062035" lon="15.501085"><ele>5.0</ele><time>2026-05-02T07:56:06.977Z</time></trkpt><trkpt lat="40.0619" lon="15.501095"><ele>4.5</ele><time>2026-05-02T07:56:07.977Z</time></trkpt><trkpt lat="40.0617567" lon="15.501105"><ele>4.0</ele><time>2026-05-02T07:56:08.977Z</time></trkpt><trkpt lat="40.0616233" lon="15.501115"><ele>5.0</ele><time>2026-05-02T07:56:09.977Z</time></trkpt><trkpt lat="40.0614883" lon="15.5011317"><ele>6.0</ele><time>2026-05-02T07:56:10.977Z</time></trkpt><trkpt lat="40.061355" lon="15.5011467"><ele>7.0</ele><time>2026-05-02T07:56:11.977Z</time></trkpt><trkpt lat="40.0612133" lon="15.5011667"><ele>8.0</ele><time>2026-05-02T07:56:12.977Z</time></trkpt><trkpt lat="40.06108" lon="15.5011817"><ele>8.0</ele><time>2026-05-02T07:56:13.977Z</time></trkpt><trkpt lat="40.06094" lon="15.5011967"><ele>8.0</ele><time>2026-05-02T07:56:14.977Z</time></trkpt><trkpt lat="40.060805" lon="15.5012"><ele>8.0</ele><time>2026-05-02T07:56:15.977Z</time></trkpt><trkpt lat="40.0606683" lon="15.50119"><ele>8.0</ele><time>2026-05-02T07:56:16.977Z</time></trkpt><trkpt lat="40.06053" lon="15.50118"><ele>8.75</ele><time>2026-05-02T07:56:17.978Z</time></trkpt><trkpt lat="40.0603933" lon="15.5011617"><ele>9.5</ele><time>2026-05-02T07:56:18.977Z</time></trkpt><trkpt lat="40.0602533" lon="15.5011383"><ele>10.25</ele><time>2026-05-02T07:56:19.977Z</time></trkpt><trkpt lat="40.06011" lon="15.5010883"><ele>11.0</ele><time>2026-05-02T07:56:20.977Z</time></trkpt><trkpt lat="40.059945" lon="15.501035"><ele>11.0</ele><time>2026-05-02T07:56:21.977Z</time></trkpt><trkpt lat="40.0597683" lon="15.50097"><ele>11.0</ele><time>2026-05-02T07:56:22.978Z</time></trkpt><trkpt lat="40.0595933" lon="15.500895"><ele>11.0</ele><time>2026-05-02T07:56:23.977Z</time></trkpt><trkpt lat="40.0594133" lon="15.5008183"><ele>11.0</ele><time>2026-05-02T07:56:24.977Z</time></trkpt><trkpt lat="40.0592467" lon="15.500735"><ele>11.0</ele><time>2026-05-02T07:56:25.978Z</time></trkpt><trkpt lat="40.0591083" lon="15.5006183"><ele>11.0</ele><time>2026-05-02T07:56:26.977Z</time></trkpt><trkpt lat="40.058985" lon="15.5004833"><ele>10.75</ele><time>2026-05-02T07:56:27.977Z</time></trkpt><trkpt lat="40.058875" lon="15.5003433"><ele>10.5</ele><time>2026-05-02T07:56:28.977Z</time></trkpt><trkpt lat="40.0587683" lon="15.5002083"><ele>10.25</ele><time>2026-05-02T07:56:29.977Z</time></trkpt><trkpt lat="40.0586667" lon="15.5000833"><ele>10.0</ele><time>2026-05-02T07:56:30.978Z</time></trkpt><trkpt lat="40.0585633" lon="15.49995"><ele>10.0</ele><time>2026-05-02T07:56:31.977Z</time></trkpt><trkpt lat="40.0584533" lon="15.4998183"><ele>10.0</ele><time>2026-05-02T07:56:32.977Z</time></trkpt><trkpt lat="40.058345" lon="15.4996833"><ele>10.0</ele><time>2026-05-02T07:56:33.977Z</time></trkpt><trkpt lat="40.0582383" lon="15.4995483"><ele>10.0</ele><time>2026-05-02T07:56:34.977Z</time></trkpt><trkpt lat="40.0581417" lon="15.499405"><ele>8.75</ele><time>2026-05-02T07:56:35.977Z</time></trkpt><trkpt lat="40.058045" lon="15.4992533"><ele>7.5</ele><time>2026-05-02T07:56:36.977Z</time></trkpt><trkpt lat="40.0579633" lon="15.49909"><ele>6.25</ele><time>2026-05-02T07:56:37.977Z</time></trkpt><trkpt lat="40.0578933" lon="15.4989283"><ele>5.0</ele><time>2026-05-02T07:56:38.977Z</time></trkpt><trkpt lat="40.0578417" lon="15.4987533"><ele>6.0</ele><time>2026-05-02T07:56:39.977Z</time></trkpt><trkpt lat="40.0578033" lon="15.4985633"><ele>7.0</ele><time>2026-05-02T07:56:40.977Z</time></trkpt><trkpt lat="40.05779" lon="15.498375"><ele>8.0</ele><time>2026-05-02T07:56:41.977Z</time></trkpt><trkpt lat="40.057775" lon="15.4981817"><ele>9.0</ele><time>2026-05-02T07:56:42.978Z</time></trkpt><trkpt lat="40.0577383" lon="15.49801"><ele>8.75</ele><time>2026-05-02T07:56:43.978Z</time></trkpt><trkpt lat="40.0576733" lon="15.49785"><ele>8.5</ele><time>2026-05-02T07:56:44.977Z</time></trkpt><trkpt lat="40.0575867" lon="15.4977"><ele>8.25</ele><time>2026-05-02T07:56:45.977Z</time></trkpt><trkpt lat="40.057485" lon="15.49756"><ele>8.0</ele><time>2026-05-02T07:56:46.977Z</time></trkpt><trkpt lat="40.057375" lon="15.4974367"><ele>8.0</ele><time>2026-05-02T07:56:47.977Z</time></trkpt><trkpt lat="40.0572667" lon="15.4973133"><ele>8.0</ele><time>2026-05-02T07:56:48.977Z</time></trkpt><trkpt lat="40.057175" lon="15.4971817"><ele>8.0</ele><time>2026-05-02T07:56:49.977Z</time></trkpt><trkpt lat="40.0571" lon="15.497045"><ele>8.0</ele><time>2026-05-02T07:56:50.977Z</time></trkpt><trkpt lat="40.0570283" lon="15.4969067"><ele>9.0</ele><time>2026-05-02T07:56:51.977Z</time></trkpt><trkpt lat="40.05697" lon="15.4967683"><ele>10.0</ele><time>2026-05-02T07:56:52.978Z</time></trkpt><trkpt lat="40.05692" lon="15.4966167"><ele>11.0</ele><time>2026-05-02T07:56:53.977Z</time></trkpt><trkpt lat="40.056865" lon="15.49648"><ele>12.0</ele><time>2026-05-02T07:56:54.977Z</time></trkpt><trkpt lat="40.0568167" lon="15.4963417"><ele>12.5</ele><time>2026-05-02T07:56:55.977Z</time></trkpt><trkpt lat="40.0567867" lon="15.49619"><ele>13.0</ele><time>2026-05-02T07:56:56.977Z</time></trkpt><trkpt lat="40.0567667" lon="15.49603"><ele>13.5</ele><time>2026-05-02T07:56:57.977Z</time></trkpt><trkpt lat="40.056745" lon="15.4958667"><ele>14.0</ele><time>2026-05-02T07:56:58.977Z</time></trkpt><trkpt lat="40.056735" lon="15.4957133"><ele>14.0</ele><time>2026-05-02T07:56:59.977Z</time></trkpt><trkpt lat="40.0567033" lon="15.4955483"><ele>14.0</ele><time>2026-05-02T07:57:00.978Z</time></trkpt><trkpt lat="40.0566583" lon="15.4953817"><ele>14.0</ele><time>2026-05-02T07:57:01.977Z</time></trkpt><trkpt lat="40.0566033" lon="15.4952167"><ele>14.0</ele><time>2026-05-02T07:57:02.977Z</time></trkpt><trkpt lat="40.05655" lon="15.4950533"><ele>13.75</ele><time>2026-05-02T07:57:03.977Z</time></trkpt><trkpt lat="40.0565" lon="15.494905"><ele>13.5</ele><time>2026-05-02T07:57:04.977Z</time></trkpt><trkpt lat="40.0564467" lon="15.4947667"><ele>13.25</ele><time>2026-05-02T07:57:05.978Z</time></trkpt><trkpt lat="40.0563783" lon="15.494645"><ele>13.0</ele><time>2026-05-02T07:57:06.977Z</time></trkpt><trkpt lat="40.0562967" lon="15.4945517"><ele>13.0</ele><time>2026-05-02T07:57:07.977Z</time></trkpt><trkpt lat="40.05619" lon="15.494485"><ele>13.0</ele><time>2026-05-02T07:57:08.977Z</time></trkpt><trkpt lat="40.056095" lon="15.4944283"><ele>13.0</ele><time>2026-05-02T07:57:09.977Z</time></trkpt><trkpt lat="40.0560367" lon="15.4943533"><ele>13.0</ele><time>2026-05-02T07:57:10.977Z</time></trkpt><trkpt lat="40.0560017" lon="15.4942567"><ele>13.0</ele><time>2026-05-02T07:57:11.978Z</time></trkpt><trkpt lat="40.0559833" lon="15.494165"><ele>12.999999999999998</ele><time>2026-05-02T07:57:12.977Z</time></trkpt><trkpt lat="40.0560333" lon="15.4940683"><ele>13.0</ele><time>2026-05-02T07:57:13.977Z</time></trkpt><trkpt lat="40.0561117" lon="15.49399"><ele>13.0</ele><time>2026-05-02T07:57:14.978Z</time></trkpt><trkpt lat="40.05619" lon="15.4939333"><ele>13.0</ele><time>2026-05-02T07:57:15.977Z</time></trkpt><trkpt lat="40.0562533" lon="15.4938967"><ele>12.999999999999998</ele><time>2026-05-02T07:57:16.977Z</time></trkpt><trkpt lat="40.0563083" lon="15.493855"><ele>13.0</ele><time>2026-05-02T07:57:17.977Z</time></trkpt><trkpt lat="40.05641" lon="15.4937933"><ele>12.499999999999998</ele><time>2026-05-02T07:57:19.978Z</time></trkpt><trkpt lat="40.0564917" lon="15.4937067"><ele>12.0</ele><time>2026-05-02T07:57:21.977Z</time></trkpt><trkpt lat="40.0565767" lon="15.4936217"><ele>11.5</ele><time>2026-05-02T07:57:23.977Z</time></trkpt><trkpt lat="40.0566333" lon="15.493565"><ele>11.0</ele><time>2026-05-02T07:57:24.977Z</time></trkpt><trkpt lat="40.0566817" lon="15.493495"><ele>10.5</ele><time>2026-05-02T07:57:25.977Z</time></trkpt><trkpt lat="40.056735" lon="15.49343"><ele>10.0</ele><time>2026-05-02T07:57:26.978Z</time></trkpt><trkpt lat="40.0567833" lon="15.493355"><ele>11.0</ele><time>2026-05-02T07:57:27.978Z</time></trkpt><trkpt lat="40.0568367" lon="15.4932867"><ele>12.0</ele><time>2026-05-02T07:57:28.977Z</time></trkpt><trkpt lat="40.0568483" lon="15.4931817"><ele>13.0</ele><time>2026-05-02T07:57:29.977Z</time></trkpt><trkpt lat="40.0568367" lon="15.4930683"><ele>14.0</ele><time>2026-05-02T07:57:30.978Z</time></trkpt><trkpt lat="40.056805" lon="15.492955"><ele>14.999999999999998</ele><time>2026-05-02T07:57:31.978Z</time></trkpt><trkpt lat="40.0567517" lon="15.49287"><ele>16.0</ele><time>2026-05-02T07:57:32.978Z</time></trkpt><trkpt lat="40.0566833" lon="15.492805"><ele>15.833333333333332</ele><time>2026-05-02T07:57:33.977Z</time></trkpt><trkpt lat="40.0566033" lon="15.492765"><ele>15.666666666666666</ele><time>2026-05-02T07:57:34.978Z</time></trkpt><trkpt lat="40.056535" lon="15.49273"><ele>15.5</ele><time>2026-05-02T07:57:35.977Z</time></trkpt><trkpt lat="40.05647" lon="15.4927"><ele>15.333333333333332</ele><time>2026-05-02T07:57:36.977Z</time></trkpt><trkpt lat="40.0563617" lon="15.49265"><ele>15.166666666666666</ele><time>2026-05-02T07:57:38.977Z</time></trkpt><trkpt lat="40.0563" lon="15.4926167"><ele>15.0</ele><time>2026-05-02T07:57:40.977Z</time></trkpt><trkpt lat="40.05624" lon="15.4925833"><ele>15.0</ele><time>2026-05-02T07:57:42.977Z</time></trkpt><trkpt lat="40.05615" lon="15.49255"><ele>15.0</ele><time>2026-05-02T07:57:44.978Z</time></trkpt><trkpt lat="40.0560333" lon="15.4925133"><ele>15.0</ele><time>2026-05-02T07:57:46.977Z</time></trkpt><trkpt lat="40.0559167" lon="15.4924633"><ele>15.0</ele><time>2026-05-02T07:57:48.977Z</time></trkpt><trkpt lat="40.0558533" lon="15.4924317"><ele>15.0</ele><time>2026-05-02T07:57:49.977Z</time></trkpt><trkpt lat="40.05579" lon="15.492405"><ele>14.714285714285715</ele><time>2026-05-02T07:57:50.977Z</time></trkpt><trkpt lat="40.055725" lon="15.4923733"><ele>14.428571428571427</ele><time>2026-05-02T07:57:51.977Z</time></trkpt><trkpt lat="40.05566" lon="15.492345"><ele>14.142857142857142</ele><time>2026-05-02T07:57:52.977Z</time></trkpt><trkpt lat="40.055595" lon="15.4923"><ele>13.857142857142858</ele><time>2026-05-02T07:57:53.977Z</time></trkpt><trkpt lat="40.0555333" lon="15.49225"><ele>13.571428571428573</ele><time>2026-05-02T07:57:54.977Z</time></trkpt><trkpt lat="40.05547" lon="15.492195"><ele>13.285714285714285</ele><time>2026-05-02T07:57:55.978Z</time></trkpt><trkpt lat="40.0554133" lon="15.492135"><ele>13.0</ele><time>2026-05-02T07:57:56.977Z</time></trkpt><trkpt lat="40.0553533" lon="15.4920733"><ele>12.999999999999998</ele><time>2026-05-02T07:57:57.977Z</time></trkpt><trkpt lat="40.0553083" lon="15.492"><ele>13.0</ele><time>2026-05-02T07:57:58.978Z</time></trkpt><trkpt lat="40.05526" lon="15.4919233"><ele>13.0</ele><time>2026-05-02T07:57:59.977Z</time></trkpt><trkpt lat="40.05521" lon="15.4918517"><ele>13.0</ele><time>2026-05-02T07:58:00.977Z</time></trkpt><trkpt lat="40.055165" lon="15.4917833"><ele>12.999999999999998</ele><time>2026-05-02T07:58:01.977Z</time></trkpt><trkpt lat="40.0550933" lon="15.4917"><ele>13.0</ele><time>2026-05-02T07:58:03.977Z</time></trkpt><trkpt lat="40.0550433" lon="15.49164"><ele>12.999999999999998</ele><time>2026-05-02T07:58:05.977Z</time></trkpt><trkpt lat="40.0549917" lon="15.4915733"><ele>13.0</ele><time>2026-05-02T07:58:07.977Z</time></trkpt><trkpt lat="40.05494" lon="15.4915017"><ele>13.0</ele><time>2026-05-02T07:58:10.977Z</time></trkpt><trkpt lat="40.0548783" lon="15.4914167"><ele>13.0</ele><time>2026-05-02T07:58:14.977Z</time></trkpt><trkpt lat="40.0548733" lon="15.4913217"><ele>12.999999999999998</ele><time>2026-05-02T07:58:17.978Z</time></trkpt><trkpt lat="40.0549583" lon="15.4913583"><ele>13.0</ele><time>2026-05-02T07:58:20.977Z</time></trkpt><trkpt lat="40.0550433" lon="15.4914467"><ele>13.0</ele><time>2026-05-02T07:58:22.977Z</time></trkpt><trkpt lat="40.0551567" lon="15.4915417"><ele>13.0</ele><time>2026-05-02T07:58:24.977Z</time></trkpt><trkpt lat="40.05524" lon="15.4915917"><ele>13.0</ele><time>2026-05-02T07:58:25.977Z</time></trkpt><trkpt lat="40.05533" lon="15.4916467"><ele>13.0</ele><time>2026-05-02T07:58:26.977Z</time></trkpt><trkpt lat="40.0554233" lon="15.4917183"><ele>13.0</ele><time>2026-05-02T07:58:27.977Z</time></trkpt><trkpt lat="40.0555233" lon="15.4917883"><ele>13.0</ele><time>2026-05-02T07:58:28.977Z</time></trkpt><trkpt lat="40.0556117" lon="15.491865"><ele>13.0</ele><time>2026-05-02T07:58:29.978Z</time></trkpt><trkpt lat="40.0557" lon="15.4919183"><ele>13.0</ele><time>2026-05-02T07:58:30.977Z</time></trkpt><trkpt lat="40.055805" lon="15.4919433"><ele>13.0</ele><time>2026-05-02T07:58:31.978Z</time></trkpt><trkpt lat="40.05591" lon="15.4919517"><ele>13.0</ele><time>2026-05-02T07:58:32.977Z</time></trkpt><trkpt lat="40.056015" lon="15.4919483"><ele>14.8</ele><time>2026-05-02T07:58:33.977Z</time></trkpt><trkpt lat="40.0561217" lon="15.4919417"><ele>16.6</ele><time>2026-05-02T07:58:34.977Z</time></trkpt><trkpt lat="40.05622" lon="15.49194"><ele>18.400000000000002</ele><time>2026-05-02T07:58:35.977Z</time></trkpt><trkpt lat="40.05632" lon="15.4919283"><ele>20.200000000000003</ele><time>2026-05-02T07:58:36.977Z</time></trkpt><trkpt lat="40.0564067" lon="15.4919267"><ele>22.0</ele><time>2026-05-02T07:58:37.977Z</time></trkpt><trkpt lat="40.056495" lon="15.491925"><ele>22.0</ele><time>2026-05-02T07:58:38.977Z</time></trkpt><trkpt lat="40.0565783" lon="15.4919217"><ele>22.0</ele><time>2026-05-02T07:58:39.978Z</time></trkpt><trkpt lat="40.05666" lon="15.491925"><ele>22.0</ele><time>2026-05-02T07:58:40.978Z</time></trkpt><trkpt lat="40.056735" lon="15.4919167"><ele>22.0</ele><time>2026-05-02T07:58:41.977Z</time></trkpt><trkpt lat="40.0568033" lon="15.4919083"><ele>22.0</ele><time>2026-05-02T07:58:42.978Z</time></trkpt><trkpt lat="40.0568733" lon="15.49181"><ele>22.0</ele><time>2026-05-02T07:58:44.977Z</time></trkpt><trkpt lat="40.05688" lon="15.491725"><ele>22.0</ele><time>2026-05-02T07:58:45.978Z</time></trkpt><trkpt lat="40.05684" lon="15.4916567"><ele>22.0</ele><time>2026-05-02T07:58:46.977Z</time></trkpt><trkpt lat="40.056775" lon="15.4916"><ele>22.0</ele><time>2026-05-02T07:58:47.977Z</time></trkpt><trkpt lat="40.0566967" lon="15.491555"><ele>22.0</ele><time>2026-05-02T07:58:48.978Z</time></trkpt><trkpt lat="40.0566233" lon="15.4915067"><ele>22.0</ele><time>2026-05-02T07:58:49.977Z</time></trkpt><trkpt lat="40.056555" lon="15.49145"><ele>22.0</ele><time>2026-05-02T07:58:50.977Z</time></trkpt><trkpt lat="40.0564833" lon="15.4913867"><ele>22.0</ele><time>2026-05-02T07:58:51.978Z</time></trkpt><trkpt lat="40.0564117" lon="15.4913117"><ele>22.0</ele><time>2026-05-02T07:58:52.977Z</time></trkpt><trkpt lat="40.0563417" lon="15.4912383"><ele>22.0</ele><time>2026-05-02T07:58:53.978Z</time></trkpt><trkpt lat="40.05627" lon="15.491165"><ele>22.0</ele><time>2026-05-02T07:58:54.977Z</time></trkpt><trkpt lat="40.0562067" lon="15.4910817"><ele>22.0</ele><time>2026-05-02T07:58:55.977Z</time></trkpt><trkpt lat="40.0561567" lon="15.4909883"><ele>23.333333333333332</ele><time>2026-05-02T07:58:56.977Z</time></trkpt><trkpt lat="40.056125" lon="15.4909017"><ele>24.666666666666664</ele><time>2026-05-02T07:58:57.978Z</time></trkpt><trkpt lat="40.056135" lon="15.4908083"><ele>26.0</ele><time>2026-05-02T07:58:58.977Z</time></trkpt><trkpt lat="40.0562333" lon="15.4907133"><ele>27.333333333333332</ele><time>2026-05-02T07:59:00.977Z</time></trkpt><trkpt lat="40.056315" lon="15.4907333"><ele>28.666666666666668</ele><time>2026-05-02T07:59:01.977Z</time></trkpt><trkpt lat="40.056405" lon="15.490785"><ele>30.0</ele><time>2026-05-02T07:59:02.978Z</time></trkpt><trkpt lat="40.0565133" lon="15.4908317"><ele>30.0</ele><time>2026-05-02T07:59:03.977Z</time></trkpt><trkpt lat="40.0566183" lon="15.49087"><ele>30.0</ele><time>2026-05-02T07:59:04.977Z</time></trkpt><trkpt lat="40.0567183" lon="15.49091"><ele>30.0</ele><time>2026-05-02T07:59:05.977Z</time></trkpt><trkpt lat="40.0568167" lon="15.4909483"><ele>30.0</ele><time>2026-05-02T07:59:06.977Z</time></trkpt><trkpt lat="40.0569233" lon="15.490955"><ele>30.0</ele><time>2026-05-02T07:59:07.978Z</time></trkpt><trkpt lat="40.0570167" lon="15.4909367"><ele>31.8</ele><time>2026-05-02T07:59:08.977Z</time></trkpt><trkpt lat="40.0570917" lon="15.490875"><ele>33.6</ele><time>2026-05-02T07:59:09.978Z</time></trkpt><trkpt lat="40.0571667" lon="15.490805"><ele>35.4</ele><time>2026-05-02T07:59:10.977Z</time></trkpt><trkpt lat="40.0572333" lon="15.490715"><ele>37.2</ele><time>2026-05-02T07:59:11.977Z</time></trkpt><trkpt lat="40.0573083" lon="15.4906267"><ele>39.0</ele><time>2026-05-02T07:59:12.977Z</time></trkpt><trkpt lat="40.05739" lon="15.49055"><ele>39.0</ele><time>2026-05-02T07:59:13.977Z</time></trkpt><trkpt lat="40.057475" lon="15.4904983"><ele>39.0</ele><time>2026-05-02T07:59:14.977Z</time></trkpt><trkpt lat="40.057555" lon="15.49044"><ele>39.0</ele><time>2026-05-02T07:59:15.978Z</time></trkpt><trkpt lat="40.057625" lon="15.4903717"><ele>39.0</ele><time>2026-05-02T07:59:16.977Z</time></trkpt><trkpt lat="40.0576883" lon="15.490265"><ele>39.0</ele><time>2026-05-02T07:59:17.977Z</time></trkpt><trkpt lat="40.0577533" lon="15.4901567"><ele>41.0</ele><time>2026-05-02T07:59:18.977Z</time></trkpt><trkpt lat="40.057825" lon="15.4900467"><ele>43.0</ele><time>2026-05-02T07:59:19.977Z</time></trkpt><trkpt lat="40.0579017" lon="15.4899567"><ele>45.0</ele><time>2026-05-02T07:59:20.977Z</time></trkpt><trkpt lat="40.0579933" lon="15.489875"><ele>47.0</ele><time>2026-05-02T07:59:21.977Z</time></trkpt><trkpt lat="40.0580867" lon="15.489805"><ele>49.0</ele><time>2026-05-02T07:59:22.978Z</time></trkpt><trkpt lat="40.0581817" lon="15.489745"><ele>49.0</ele><time>2026-05-02T07:59:23.978Z</time></trkpt><trkpt lat="40.0582733" lon="15.4896817"><ele>49.0</ele><time>2026-05-02T07:59:24.977Z</time></trkpt><trkpt lat="40.05837" lon="15.4896183"><ele>49.0</ele><time>2026-05-02T07:59:25.978Z</time></trkpt><trkpt lat="40.0584667" lon="15.4895567"><ele>49.0</ele><time>2026-05-02T07:59:26.978Z</time></trkpt><trkpt lat="40.05856" lon="15.4894867"><ele>49.0</ele><time>2026-05-02T07:59:27.978Z</time></trkpt><trkpt lat="40.0586483" lon="15.4894217"><ele>51.0</ele><time>2026-05-02T07:59:28.978Z</time></trkpt><trkpt lat="40.05875" lon="15.4893567"><ele>53.0</ele><time>2026-05-02T07:59:29.977Z</time></trkpt><trkpt lat="40.0588433" lon="15.489285"><ele>55.00000000000001</ele><time>2026-05-02T07:59:30.977Z</time></trkpt><trkpt lat="40.0589267" lon="15.4892283"><ele>57.0</ele><time>2026-05-02T07:59:31.978Z</time></trkpt><trkpt lat="40.05901" lon="15.4891683"><ele>59.0</ele><time>2026-05-02T07:59:32.977Z</time></trkpt><trkpt lat="40.0590917" lon="15.4890917"><ele>58.75</ele><time>2026-05-02T07:59:33.977Z</time></trkpt><trkpt lat="40.0591667" lon="15.4889967"><ele>58.5</ele><time>2026-05-02T07:59:34.977Z</time></trkpt><trkpt lat="40.0592383" lon="15.48888"><ele>58.25</ele><time>2026-05-02T07:59:35.978Z</time></trkpt><trkpt lat="40.0592983" lon="15.488755"><ele>58.0</ele><time>2026-05-02T07:59:36.978Z</time></trkpt><trkpt lat="40.059375" lon="15.488625"><ele>60.0</ele><time>2026-05-02T07:59:37.977Z</time></trkpt><trkpt lat="40.0594567" lon="15.4885033"><ele>62.0</ele><time>2026-05-02T07:59:38.977Z</time></trkpt><trkpt lat="40.0595517" lon="15.488405"><ele>64.0</ele><time>2026-05-02T07:59:39.978Z</time></trkpt><trkpt lat="40.0596383" lon="15.48833"><ele>66.0</ele><time>2026-05-02T07:59:40.977Z</time></trkpt><trkpt lat="40.0597117" lon="15.4882667"><ele>68.0</ele><time>2026-05-02T07:59:41.977Z</time></trkpt><trkpt lat="40.0597683" lon="15.4882117"><ele>67.99999999999999</ele><time>2026-05-02T07:59:42.977Z</time></trkpt><trkpt lat="40.0598283" lon="15.4881567"><ele>68.0</ele><time>2026-05-02T07:59:43.977Z</time></trkpt><trkpt lat="40.0598817" lon="15.4880983"><ele>68.0</ele><time>2026-05-02T07:59:44.977Z</time></trkpt><trkpt lat="40.05994" lon="15.4880383"><ele>68.0</ele><time>2026-05-02T07:59:45.977Z</time></trkpt><trkpt lat="40.059995" lon="15.4879767"><ele>68.0</ele><time>2026-05-02T07:59:46.978Z</time></trkpt><trkpt lat="40.0600483" lon="15.487915"><ele>67.99999999999999</ele><time>2026-05-02T07:59:47.977Z</time></trkpt><trkpt lat="40.060105" lon="15.48784"><ele>68.0</ele><time>2026-05-02T07:59:48.978Z</time></trkpt><trkpt lat="40.0601633" lon="15.4877583"><ele>69.4</ele><time>2026-05-02T07:59:49.977Z</time></trkpt><trkpt lat="40.0602233" lon="15.4876633"><ele>70.8</ele><time>2026-05-02T07:59:50.977Z</time></trkpt><trkpt lat="40.0602883" lon="15.48756"><ele>72.2</ele><time>2026-05-02T07:59:51.977Z</time></trkpt><trkpt lat="40.0603417" lon="15.4874467"><ele>73.6</ele><time>2026-05-02T07:59:52.978Z</time></trkpt><trkpt lat="40.06039" lon="15.487325"><ele>75.0</ele><time>2026-05-02T07:59:53.977Z</time></trkpt><trkpt lat="40.06044" lon="15.4871917"><ele>77.75</ele><time>2026-05-02T07:59:54.977Z</time></trkpt><trkpt lat="40.0604917" lon="15.487045"><ele>80.5</ele><time>2026-05-02T07:59:55.977Z</time></trkpt><trkpt lat="40.060545" lon="15.4869"><ele>83.25</ele><time>2026-05-02T07:59:56.977Z</time></trkpt><trkpt lat="40.0606" lon="15.48675"><ele>86.0</ele><time>2026-05-02T07:59:57.977Z</time></trkpt><trkpt lat="40.06068" lon="15.4865883"><ele>86.0</ele><time>2026-05-02T07:59:58.977Z</time></trkpt><trkpt lat="40.0607667" lon="15.4864417"><ele>86.0</ele><time>2026-05-02T07:59:59.977Z</time></trkpt><trkpt lat="40.0608583" lon="15.4863133"><ele>86.0</ele><time>2026-05-02T08:00:00.978Z</time></trkpt><trkpt lat="40.0609517" lon="15.4862133"><ele>86.0</ele><time>2026-05-02T08:00:01.978Z</time></trkpt><trkpt lat="40.0610417" lon="15.48611"><ele>86.0</ele><time>2026-05-02T08:00:02.977Z</time></trkpt><trkpt lat="40.0611117" lon="15.4859833"><ele>86.0</ele><time>2026-05-02T08:00:03.977Z</time></trkpt><trkpt lat="40.0611583" lon="15.4858367"><ele>86.0</ele><time>2026-05-02T08:00:04.978Z</time></trkpt><trkpt lat="40.0611817" lon="15.4856917"><ele>86.0</ele><time>2026-05-02T08:00:05.977Z</time></trkpt><trkpt lat="40.061225" lon="15.48556"><ele>86.0</ele><time>2026-05-02T08:00:06.977Z</time></trkpt><trkpt lat="40.0612883" lon="15.4854567"><ele>86.0</ele><time>2026-05-02T08:00:07.977Z</time></trkpt><trkpt lat="40.0613717" lon="15.48537"><ele>86.0</ele><time>2026-05-02T08:00:08.977Z</time></trkpt><trkpt lat="40.0614883" lon="15.48533"><ele>86.0</ele><time>2026-05-02T08:00:09.978Z</time></trkpt><trkpt lat="40.0616017" lon="15.4852933"><ele>86.0</ele><time>2026-05-02T08:00:10.977Z</time></trkpt><trkpt lat="40.0617" lon="15.48523"><ele>87.19999999999999</ele><time>2026-05-02T08:00:11.977Z</time></trkpt><trkpt lat="40.0617867" lon="15.48514"><ele>88.39999999999999</ele><time>2026-05-02T08:00:12.977Z</time></trkpt><trkpt lat="40.061865" lon="15.48504"><ele>89.6</ele><time>2026-05-02T08:00:13.978Z</time></trkpt><trkpt lat="40.0619433" lon="15.4849383"><ele>90.8</ele><time>2026-05-02T08:00:14.977Z</time></trkpt><trkpt lat="40.06203" lon="15.4848417"><ele>92.0</ele><time>2026-05-02T08:00:15.978Z</time></trkpt><trkpt lat="40.0621217" lon="15.4847567"><ele>92.0</ele><time>2026-05-02T08:00:16.978Z</time></trkpt><trkpt lat="40.0622117" lon="15.48468"><ele>92.0</ele><time>2026-05-02T08:00:17.977Z</time></trkpt><trkpt lat="40.0622817" lon="15.48458"><ele>92.0</ele><time>2026-05-02T08:00:18.978Z</time></trkpt><trkpt lat="40.0623267" lon="15.4844817"><ele>92.0</ele><time>2026-05-02T08:00:19.978Z</time></trkpt><trkpt lat="40.0623283" lon="15.4843667"><ele>92.0</ele><time>2026-05-02T08:00:20.977Z</time></trkpt><trkpt lat="40.0622967" lon="15.48426"><ele>94.39999999999999</ele><time>2026-05-02T08:00:21.977Z</time></trkpt><trkpt lat="40.0622317" lon="15.4841783"><ele>96.8</ele><time>2026-05-02T08:00:22.978Z</time></trkpt><trkpt lat="40.062155" lon="15.4841133"><ele>99.2</ele><time>2026-05-02T08:00:23.977Z</time></trkpt><trkpt lat="40.062065" lon="15.4840783"><ele>101.6</ele><time>2026-05-02T08:00:24.978Z</time></trkpt><trkpt lat="40.0619717" lon="15.4840517"><ele>104.0</ele><time>2026-05-02T08:00:25.977Z</time></trkpt><trkpt lat="40.061875" lon="15.484055"><ele>104.0</ele><time>2026-05-02T08:00:26.978Z</time></trkpt><trkpt lat="40.06178" lon="15.4840767"><ele>104.0</ele><time>2026-05-02T08:00:27.978Z</time></trkpt><trkpt lat="40.061675" lon="15.4841267"><ele>104.0</ele><time>2026-05-02T08:00:28.978Z</time></trkpt><trkpt lat="40.06158" lon="15.4841883"><ele>104.0</ele><time>2026-05-02T08:00:29.977Z</time></trkpt><trkpt lat="40.061495" lon="15.48425"><ele>104.0</ele><time>2026-05-02T08:00:30.977Z</time></trkpt><trkpt lat="40.0614017" lon="15.4842933"><ele>105.4</ele><time>2026-05-02T08:00:31.977Z</time></trkpt><trkpt lat="40.0613033" lon="15.4843317"><ele>106.80000000000001</ele><time>2026-05-02T08:00:32.978Z</time></trkpt><trkpt lat="40.0612033" lon="15.484375"><ele>108.19999999999999</ele><time>2026-05-02T08:00:33.977Z</time></trkpt><trkpt lat="40.0611083" lon="15.4844233"><ele>109.6</ele><time>2026-05-02T08:00:34.977Z</time></trkpt><trkpt lat="40.0610233" lon="15.484445"><ele>111.0</ele><time>2026-05-02T08:00:35.977Z</time></trkpt><trkpt lat="40.0609433" lon="15.4844217"><ele>111.0</ele><time>2026-05-02T08:00:36.978Z</time></trkpt><trkpt lat="40.06085" lon="15.4843683"><ele>111.0</ele><time>2026-05-02T08:00:37.977Z</time></trkpt><trkpt lat="40.0607883" lon="15.48427"><ele>111.0</ele><time>2026-05-02T08:00:38.978Z</time></trkpt><trkpt lat="40.060735" lon="15.4841483"><ele>111.0</ele><time>2026-05-02T08:00:39.978Z</time></trkpt><trkpt lat="40.060705" lon="15.4840267"><ele>111.0</ele><time>2026-05-02T08:00:40.978Z</time></trkpt><trkpt lat="40.060665" lon="15.4839067"><ele>110.4</ele><time>2026-05-02T08:00:41.977Z</time></trkpt><trkpt lat="40.0605917" lon="15.4838217"><ele>109.8</ele><time>2026-05-02T08:00:42.978Z</time></trkpt><trkpt lat="40.0605183" lon="15.4837617"><ele>109.20000000000002</ele><time>2026-05-02T08:00:43.977Z</time></trkpt><trkpt lat="40.0604317" lon="15.4837233"><ele>108.60000000000001</ele><time>2026-05-02T08:00:44.978Z</time></trkpt><trkpt lat="40.0603467" lon="15.4836817"><ele>108.0</ele><time>2026-05-02T08:00:45.977Z</time></trkpt><trkpt lat="40.0602617" lon="15.48364"><ele>110.2</ele><time>2026-05-02T08:00:46.977Z</time></trkpt><trkpt lat="40.0601867" lon="15.483565"><ele>112.4</ele><time>2026-05-02T08:00:47.977Z</time></trkpt><trkpt lat="40.060125" lon="15.4834533"><ele>114.60000000000001</ele><time>2026-05-02T08:00:48.977Z</time></trkpt><trkpt lat="40.0600817" lon="15.483335"><ele>116.80000000000001</ele><time>2026-05-02T08:00:49.977Z</time></trkpt><trkpt lat="40.0600533" lon="15.4832333"><ele>119.0</ele><time>2026-05-02T08:00:50.978Z</time></trkpt><trkpt lat="40.06001" lon="15.4831517"><ele>119.0</ele><time>2026-05-02T08:00:51.977Z</time></trkpt><trkpt lat="40.059965" lon="15.48309"><ele>119.0</ele><time>2026-05-02T08:00:52.977Z</time></trkpt><trkpt lat="40.0599083" lon="15.4830367"><ele>119.0</ele><time>2026-05-02T08:00:53.977Z</time></trkpt><trkpt lat="40.0598517" lon="15.4829967"><ele>119.0</ele><time>2026-05-02T08:00:54.977Z</time></trkpt><trkpt lat="40.059785" lon="15.4829633"><ele>119.0</ele><time>2026-05-02T08:00:55.978Z</time></trkpt><trkpt lat="40.0597" lon="15.4829483"><ele>119.0</ele><time>2026-05-02T08:00:56.978Z</time></trkpt><trkpt lat="40.059615" lon="15.48294"><ele>119.0</ele><time>2026-05-02T08:00:57.977Z</time></trkpt><trkpt lat="40.0595267" lon="15.4829267"><ele>120.16666666666666</ele><time>2026-05-02T08:00:58.977Z</time></trkpt><trkpt lat="40.0594383" lon="15.4828967"><ele>121.33333333333333</ele><time>2026-05-02T08:00:59.977Z</time></trkpt><trkpt lat="40.0593567" lon="15.4828533"><ele>122.5</ele><time>2026-05-02T08:01:00.978Z</time></trkpt><trkpt lat="40.0592933" lon="15.4827783"><ele>123.66666666666666</ele><time>2026-05-02T08:01:01.978Z</time></trkpt><trkpt lat="40.05925" lon="15.4826783"><ele>124.83333333333333</ele><time>2026-05-02T08:01:02.978Z</time></trkpt><trkpt lat="40.059225" lon="15.4825617"><ele>126.0</ele><time>2026-05-02T08:01:03.978Z</time></trkpt><trkpt lat="40.0591867" lon="15.4824283"><ele>126.0</ele><time>2026-05-02T08:01:04.978Z</time></trkpt><trkpt lat="40.0591533" lon="15.4822933"><ele>126.0</ele><time>2026-05-02T08:01:05.977Z</time></trkpt><trkpt lat="40.0591183" lon="15.482155"><ele>126.0</ele><time>2026-05-02T08:01:06.977Z</time></trkpt><trkpt lat="40.059095" lon="15.4820183"><ele>126.0</ele><time>2026-05-02T08:01:07.978Z</time></trkpt><trkpt lat="40.0590667" lon="15.4818833"><ele>126.0</ele><time>2026-05-02T08:01:08.978Z</time></trkpt><trkpt lat="40.05904" lon="15.4817583"><ele>127.33333333333333</ele><time>2026-05-02T08:01:09.977Z</time></trkpt><trkpt lat="40.0590183" lon="15.48164"><ele>128.66666666666666</ele><time>2026-05-02T08:01:10.977Z</time></trkpt><trkpt lat="40.0589967" lon="15.48153"><ele>130.0</ele><time>2026-05-02T08:01:11.977Z</time></trkpt><trkpt lat="40.0589933" lon="15.48144"><ele>131.33333333333331</ele><time>2026-05-02T08:01:12.977Z</time></trkpt><trkpt lat="40.05901" lon="15.48135"><ele>132.66666666666666</ele><time>2026-05-02T08:01:13.978Z</time></trkpt><trkpt lat="40.0590733" lon="15.4812367"><ele>134.0</ele><time>2026-05-02T08:01:15.978Z</time></trkpt><trkpt lat="40.0592167" lon="15.4812467"><ele>133.66666666666666</ele><time>2026-05-02T08:01:17.978Z</time></trkpt><trkpt lat="40.0592883" lon="15.4813017"><ele>133.33333333333331</ele><time>2026-05-02T08:01:18.977Z</time></trkpt><trkpt lat="40.0593617" lon="15.4813733"><ele>133.0</ele><time>2026-05-02T08:01:19.978Z</time></trkpt><trkpt lat="40.0594167" lon="15.4814617"><ele>132.66666666666666</ele><time>2026-05-02T08:01:20.977Z</time></trkpt><trkpt lat="40.0594667" lon="15.481555"><ele>132.33333333333334</ele><time>2026-05-02T08:01:21.978Z</time></trkpt><trkpt lat="40.0595133" lon="15.481655"><ele>132.0</ele><time>2026-05-02T08:01:22.977Z</time></trkpt><trkpt lat="40.0595717" lon="15.4817433"><ele>132.0</ele><time>2026-05-02T08:01:23.978Z</time></trkpt><trkpt lat="40.0596367" lon="15.4818133"><ele>132.0</ele><time>2026-05-02T08:01:24.977Z</time></trkpt><trkpt lat="40.0597133" lon="15.48186"><ele>132.0</ele><time>2026-05-02T08:01:25.977Z</time></trkpt><trkpt lat="40.0598067" lon="15.48187"><ele>132.0</ele><time>2026-05-02T08:01:26.978Z</time></trkpt><trkpt lat="40.0598967" lon="15.4818467"><ele>132.0</ele><time>2026-05-02T08:01:27.978Z</time></trkpt><trkpt lat="40.0599983" lon="15.4817967"><ele>134.25</ele><time>2026-05-02T08:01:28.978Z</time></trkpt><trkpt lat="40.0601083" lon="15.4817483"><ele>136.5</ele><time>2026-05-02T08:01:29.978Z</time></trkpt><trkpt lat="40.0602233" lon="15.481705"><ele>138.75</ele><time>2026-05-02T08:01:30.978Z</time></trkpt><trkpt lat="40.060325" lon="15.4816683"><ele>141.0</ele><time>2026-05-02T08:01:31.977Z</time></trkpt><trkpt lat="40.0604317" lon="15.4816283"><ele>141.0</ele><time>2026-05-02T08:01:32.978Z</time></trkpt><trkpt lat="40.0605233" lon="15.481575"><ele>141.0</ele><time>2026-05-02T08:01:33.977Z</time></trkpt><trkpt lat="40.060585" lon="15.4815033"><ele>141.0</ele><time>2026-05-02T08:01:34.977Z</time></trkpt><trkpt lat="40.0606517" lon="15.4813867"><ele>141.0</ele><time>2026-05-02T08:01:35.978Z</time></trkpt><trkpt lat="40.0607" lon="15.48127"><ele>141.0</ele><time>2026-05-02T08:01:36.978Z</time></trkpt><trkpt lat="40.0607517" lon="15.4811433"><ele>142.8</ele><time>2026-05-02T08:01:37.978Z</time></trkpt><trkpt lat="40.0607983" lon="15.48103"><ele>144.6</ele><time>2026-05-02T08:01:38.977Z</time></trkpt><trkpt lat="40.0608567" lon="15.4809233"><ele>146.4</ele><time>2026-05-02T08:01:39.978Z</time></trkpt><trkpt lat="40.060925" lon="15.4808333"><ele>148.2</ele><time>2026-05-02T08:01:40.977Z</time></trkpt><trkpt lat="40.0609917" lon="15.4807517"><ele>150.0</ele><time>2026-05-02T08:01:41.977Z</time></trkpt><trkpt lat="40.061045" lon="15.4806633"><ele>150.0</ele><time>2026-05-02T08:01:42.977Z</time></trkpt><trkpt lat="40.06108" lon="15.4805517"><ele>150.0</ele><time>2026-05-02T08:01:43.977Z</time></trkpt><trkpt lat="40.0611083" lon="15.4804333"><ele>150.0</ele><time>2026-05-02T08:01:44.977Z</time></trkpt><trkpt lat="40.0611283" lon="15.480305"><ele>150.0</ele><time>2026-05-02T08:01:45.977Z</time></trkpt><trkpt lat="40.06115" lon="15.4801817"><ele>150.0</ele><time>2026-05-02T08:01:46.978Z</time></trkpt><trkpt lat="40.06118" lon="15.4800517"><ele>151.33333333333334</ele><time>2026-05-02T08:01:47.978Z</time></trkpt><trkpt lat="40.06122" lon="15.4799433"><ele>152.66666666666666</ele><time>2026-05-02T08:01:48.977Z</time></trkpt><trkpt lat="40.0612667" lon="15.4798533"><ele>154.0</ele><time>2026-05-02T08:01:49.977Z</time></trkpt><trkpt lat="40.0613233" lon="15.4797867"><ele>155.33333333333331</ele><time>2026-05-02T08:01:50.977Z</time></trkpt><trkpt lat="40.061395" lon="15.4797533"><ele>156.66666666666666</ele><time>2026-05-02T08:01:51.977Z</time></trkpt><trkpt lat="40.0614867" lon="15.4797417"><ele>158.0</ele><time>2026-05-02T08:01:52.978Z</time></trkpt><trkpt lat="40.06159" lon="15.47974"><ele>157.6</ele><time>2026-05-02T08:01:53.978Z</time></trkpt><trkpt lat="40.06169" lon="15.4797533"><ele>157.20000000000002</ele><time>2026-05-02T08:01:54.978Z</time></trkpt><trkpt lat="40.0617833" lon="15.4797617"><ele>156.8</ele><time>2026-05-02T08:01:55.978Z</time></trkpt><trkpt lat="40.0618817" lon="15.4797583"><ele>156.4</ele><time>2026-05-02T08:01:56.977Z</time></trkpt><trkpt lat="40.06197" lon="15.4797283"><ele>156.0</ele><time>2026-05-02T08:01:57.978Z</time></trkpt><trkpt lat="40.0620467" lon="15.4796917"><ele>156.0</ele><time>2026-05-02T08:01:58.977Z</time></trkpt><trkpt lat="40.0621167" lon="15.4796117"><ele>156.0</ele><time>2026-05-02T08:01:59.977Z</time></trkpt><trkpt lat="40.0621733" lon="15.4795133"><ele>156.0</ele><time>2026-05-02T08:02:00.977Z</time></trkpt><trkpt lat="40.0622317" lon="15.47941"><ele>156.0</ele><time>2026-05-02T08:02:01.978Z</time></trkpt><trkpt lat="40.0622833" lon="15.4793017"><ele>156.0</ele><time>2026-05-02T08:02:02.978Z</time></trkpt><trkpt lat="40.0623167" lon="15.47918"><ele>158.0</ele><time>2026-05-02T08:02:03.978Z</time></trkpt><trkpt lat="40.0623283" lon="15.4790483"><ele>160.0</ele><time>2026-05-02T08:02:04.977Z</time></trkpt><trkpt lat="40.062325" lon="15.478915"><ele>162.0</ele><time>2026-05-02T08:02:05.978Z</time></trkpt><trkpt lat="40.062315" lon="15.4787867"><ele>164.0</ele><time>2026-05-02T08:02:06.977Z</time></trkpt><trkpt lat="40.06231" lon="15.4786633"><ele>166.0</ele><time>2026-05-02T08:02:07.977Z</time></trkpt><trkpt lat="40.0623133" lon="15.478545"><ele>167.4</ele><time>2026-05-02T08:02:08.978Z</time></trkpt><trkpt lat="40.0623133" lon="15.47842"><ele>168.8</ele><time>2026-05-02T08:02:09.977Z</time></trkpt><trkpt lat="40.0623267" lon="15.4782833"><ele>170.20000000000002</ele><time>2026-05-02T08:02:10.978Z</time></trkpt><trkpt lat="40.06235" lon="15.4781483"><ele>171.60000000000002</ele><time>2026-05-02T08:02:11.977Z</time></trkpt><trkpt lat="40.0623817" lon="15.4780233"><ele>173.0</ele><time>2026-05-02T08:02:12.977Z</time></trkpt><trkpt lat="40.0624217" lon="15.4778783"><ele>173.0</ele><time>2026-05-02T08:02:13.977Z</time></trkpt><trkpt lat="40.0624617" lon="15.47773"><ele>173.0</ele><time>2026-05-02T08:02:14.978Z</time></trkpt><trkpt lat="40.0625067" lon="15.477565"><ele>173.0</ele><time>2026-05-02T08:02:15.978Z</time></trkpt><trkpt lat="40.0625533" lon="15.4774017"><ele>173.0</ele><time>2026-05-02T08:02:16.977Z</time></trkpt><trkpt lat="40.0626033" lon="15.477235"><ele>174.5</ele><time>2026-05-02T08:02:17.977Z</time></trkpt><trkpt lat="40.0626483" lon="15.4770617"><ele>176.0</ele><time>2026-05-02T08:02:18.978Z</time></trkpt><trkpt lat="40.0626883" lon="15.4768733"><ele>177.5</ele><time>2026-05-02T08:02:19.977Z</time></trkpt><trkpt lat="40.062735" lon="15.4766933"><ele>179.0</ele><time>2026-05-02T08:02:20.977Z</time></trkpt><trkpt lat="40.0627933" lon="15.4765167"><ele>179.0</ele><time>2026-05-02T08:02:21.977Z</time></trkpt><trkpt lat="40.0628533" lon="15.4763417"><ele>179.0</ele><time>2026-05-02T08:02:22.977Z</time></trkpt><trkpt lat="40.0629083" lon="15.476175"><ele>179.0</ele><time>2026-05-02T08:02:23.978Z</time></trkpt><trkpt lat="40.0629633" lon="15.476005"><ele>179.0</ele><time>2026-05-02T08:02:24.977Z</time></trkpt><trkpt lat="40.0630217" lon="15.47585"><ele>180.75</ele><time>2026-05-02T08:02:25.978Z</time></trkpt><trkpt lat="40.063065" lon="15.47568"><ele>182.5</ele><time>2026-05-02T08:02:26.978Z</time></trkpt><trkpt lat="40.0631183" lon="15.4755133"><ele>184.25</ele><time>2026-05-02T08:02:27.977Z</time></trkpt><trkpt lat="40.0631833" lon="15.4753433"><ele>186.0</ele><time>2026-05-02T08:02:28.977Z</time></trkpt><trkpt lat="40.063245" lon="15.4751683"><ele>186.0</ele><time>2026-05-02T08:02:29.977Z</time></trkpt><trkpt lat="40.0633033" lon="15.475"><ele>186.0</ele><time>2026-05-02T08:02:30.978Z</time></trkpt><trkpt lat="40.063375" lon="15.4748267"><ele>186.0</ele><time>2026-05-02T08:02:31.978Z</time></trkpt><trkpt lat="40.0634433" lon="15.4746583"><ele>186.0</ele><time>2026-05-02T08:02:32.977Z</time></trkpt><trkpt lat="40.0635033" lon="15.4744917"><ele>187.75</ele><time>2026-05-02T08:02:33.978Z</time></trkpt><trkpt lat="40.06356" lon="15.4743283"><ele>189.5</ele><time>2026-05-02T08:02:34.977Z</time></trkpt><trkpt lat="40.06362" lon="15.4741683"><ele>191.25</ele><time>2026-05-02T08:02:35.977Z</time></trkpt><trkpt lat="40.0636767" lon="15.47401"><ele>193.0</ele><time>2026-05-02T08:02:36.977Z</time></trkpt><trkpt lat="40.0637333" lon="15.4738433"><ele>194.5</ele><time>2026-05-02T08:02:37.978Z</time></trkpt><trkpt lat="40.0637967" lon="15.4736883"><ele>196.0</ele><time>2026-05-02T08:02:38.978Z</time></trkpt><trkpt lat="40.06385" lon="15.4735467"><ele>197.5</ele><time>2026-05-02T08:02:39.977Z</time></trkpt><trkpt lat="40.06392" lon="15.4734083"><ele>199.0</ele><time>2026-05-02T08:02:40.977Z</time></trkpt><trkpt lat="40.0640133" lon="15.4732633"><ele>198.25</ele><time>2026-05-02T08:02:41.978Z</time></trkpt><trkpt lat="40.0641167" lon="15.4731483"><ele>197.5</ele><time>2026-05-02T08:02:42.978Z</time></trkpt><trkpt lat="40.0642283" lon="15.47306"><ele>196.75</ele><time>2026-05-02T08:02:43.977Z</time></trkpt><trkpt lat="40.064345" lon="15.4729583"><ele>196.0</ele><time>2026-05-02T08:02:44.977Z</time></trkpt><trkpt lat="40.06447" lon="15.472845"><ele>200.66666666666666</ele><time>2026-05-02T08:02:45.978Z</time></trkpt><trkpt lat="40.0646033" lon="15.4727183"><ele>205.33333333333331</ele><time>2026-05-02T08:02:46.978Z</time></trkpt><trkpt lat="40.064735" lon="15.4725883"><ele>210.0</ele><time>2026-05-02T08:02:47.978Z</time></trkpt><trkpt lat="40.0648667" lon="15.4724567"><ele>209.0</ele><time>2026-05-02T08:02:48.978Z</time></trkpt><trkpt lat="40.0649883" lon="15.4723233"><ele>208.0</ele><time>2026-05-02T08:02:49.978Z</time></trkpt><trkpt lat="40.0651033" lon="15.4721983"><ele>207.0</ele><time>2026-05-02T08:02:50.978Z</time></trkpt><trkpt lat="40.0652083" lon="15.472075"><ele>211.75</ele><time>2026-05-02T08:02:51.978Z</time></trkpt><trkpt lat="40.065315" lon="15.4719717"><ele>216.5</ele><time>2026-05-02T08:02:52.978Z</time></trkpt><trkpt lat="40.0654283" lon="15.4718517"><ele>221.25</ele><time>2026-05-02T08:02:53.977Z</time></trkpt><trkpt lat="40.06553" lon="15.47174"><ele>226.0</ele><time>2026-05-02T08:02:54.977Z</time></trkpt><trkpt lat="40.0656417" lon="15.47164"><ele>226.0</ele><time>2026-05-02T08:02:55.978Z</time></trkpt><trkpt lat="40.0657567" lon="15.4715533"><ele>226.0</ele><time>2026-05-02T08:02:56.978Z</time></trkpt><trkpt lat="40.0658767" lon="15.4714867"><ele>226.0</ele><time>2026-05-02T08:02:57.978Z</time></trkpt><trkpt lat="40.065995" lon="15.4714317"><ele>226.0</ele><time>2026-05-02T08:02:58.977Z</time></trkpt><trkpt lat="40.066115" lon="15.4713883"><ele>225.8</ele><time>2026-05-02T08:02:59.978Z</time></trkpt><trkpt lat="40.0662183" lon="15.4713317"><ele>225.60000000000002</ele><time>2026-05-02T08:03:00.977Z</time></trkpt><trkpt lat="40.0663067" lon="15.4712717"><ele>225.4</ele><time>2026-05-02T08:03:01.977Z</time></trkpt><trkpt lat="40.0663867" lon="15.47121"><ele>225.2</ele><time>2026-05-02T08:03:02.977Z</time></trkpt><trkpt lat="40.0664483" lon="15.47114"><ele>225.0</ele><time>2026-05-02T08:03:03.977Z</time></trkpt><trkpt lat="40.066495" lon="15.4710383"><ele>225.0</ele><time>2026-05-02T08:03:04.977Z</time></trkpt><trkpt lat="40.0665317" lon="15.4709167"><ele>225.0</ele><time>2026-05-02T08:03:05.978Z</time></trkpt><trkpt lat="40.06654" lon="15.4708017"><ele>225.0</ele><time>2026-05-02T08:03:06.977Z</time></trkpt><trkpt lat="40.0665" lon="15.4707183"><ele>225.0</ele><time>2026-05-02T08:03:07.978Z</time></trkpt><trkpt lat="40.06643" lon="15.4706617"><ele>225.0</ele><time>2026-05-02T08:03:08.978Z</time></trkpt><trkpt lat="40.0663417" lon="15.4706133"><ele>225.0</ele><time>2026-05-02T08:03:09.977Z</time></trkpt><trkpt lat="40.066245" lon="15.4705833"><ele>225.0</ele><time>2026-05-02T08:03:10.978Z</time></trkpt><trkpt lat="40.0661217" lon="15.47057"><ele>225.0</ele><time>2026-05-02T08:03:11.977Z</time></trkpt><trkpt lat="40.066015" lon="15.4705467"><ele>225.0</ele><time>2026-05-02T08:03:12.977Z</time></trkpt><trkpt lat="40.065915" lon="15.470525"><ele>225.0</ele><time>2026-05-02T08:03:13.977Z</time></trkpt><trkpt lat="40.0658017" lon="15.4705033"><ele>225.0</ele><time>2026-05-02T08:03:14.977Z</time></trkpt><trkpt lat="40.06569" lon="15.4704817"><ele>227.25</ele><time>2026-05-02T08:03:15.977Z</time></trkpt><trkpt lat="40.0655867" lon="15.4704467"><ele>229.5</ele><time>2026-05-02T08:03:16.978Z</time></trkpt><trkpt lat="40.0654617" lon="15.4704217"><ele>231.75</ele><time>2026-05-02T08:03:17.977Z</time></trkpt><trkpt lat="40.0653333" lon="15.47041"><ele>234.0</ele><time>2026-05-02T08:03:18.978Z</time></trkpt><trkpt lat="40.0652217" lon="15.47043"><ele>234.0</ele><time>2026-05-02T08:03:19.977Z</time></trkpt><trkpt lat="40.065105" lon="15.470465"><ele>234.0</ele><time>2026-05-02T08:03:20.977Z</time></trkpt><trkpt lat="40.065" lon="15.4705167"><ele>234.0</ele><time>2026-05-02T08:03:21.977Z</time></trkpt><trkpt lat="40.0649" lon="15.470575"><ele>234.0</ele><time>2026-05-02T08:03:22.977Z</time></trkpt><trkpt lat="40.06479" lon="15.4706383"><ele>236.75</ele><time>2026-05-02T08:03:23.977Z</time></trkpt><trkpt lat="40.06469" lon="15.4707167"><ele>239.5</ele><time>2026-05-02T08:03:24.977Z</time></trkpt><trkpt lat="40.0646067" lon="15.4708267"><ele>242.25</ele><time>2026-05-02T08:03:25.977Z</time></trkpt><trkpt lat="40.0645433" lon="15.4709617"><ele>245.0</ele><time>2026-05-02T08:03:26.978Z</time></trkpt><trkpt lat="40.0644867" lon="15.4710833"><ele>245.00000000000003</ele><time>2026-05-02T08:03:27.977Z</time></trkpt><trkpt lat="40.0644433" lon="15.4711967"><ele>245.0</ele><time>2026-05-02T08:03:28.977Z</time></trkpt><trkpt lat="40.0644033" lon="15.4712967"><ele>245.0</ele><time>2026-05-02T08:03:29.977Z</time></trkpt><trkpt lat="40.064355" lon="15.4713867"><ele>245.0</ele><time>2026-05-02T08:03:30.978Z</time></trkpt><trkpt lat="40.0642817" lon="15.4714567"><ele>245.00000000000003</ele><time>2026-05-02T08:03:31.978Z</time></trkpt><trkpt lat="40.0641983" lon="15.4714983"><ele>245.0</ele><time>2026-05-02T08:03:32.978Z</time></trkpt><trkpt lat="40.064115" lon="15.471505"><ele>244.4</ele><time>2026-05-02T08:03:33.977Z</time></trkpt><trkpt lat="40.0640117" lon="15.4714917"><ele>243.8</ele><time>2026-05-02T08:03:34.978Z</time></trkpt><trkpt lat="40.0639083" lon="15.47142"><ele>243.2</ele><time>2026-05-02T08:03:35.977Z</time></trkpt><trkpt lat="40.0638317" lon="15.4713267"><ele>242.6</ele><time>2026-05-02T08:03:36.977Z</time></trkpt><trkpt lat="40.06378" lon="15.47123"><ele>242.0</ele><time>2026-05-02T08:03:37.977Z</time></trkpt><trkpt lat="40.0637617" lon="15.4711217"><ele>242.0</ele><time>2026-05-02T08:03:38.978Z</time></trkpt><trkpt lat="40.0637617" lon="15.470985"><ele>242.0</ele><time>2026-05-02T08:03:39.977Z</time></trkpt><trkpt lat="40.063775" lon="15.47083"><ele>242.0</ele><time>2026-05-02T08:03:40.977Z</time></trkpt><trkpt lat="40.0637933" lon="15.4706617"><ele>242.0</ele><time>2026-05-02T08:03:41.978Z</time></trkpt><trkpt lat="40.0638033" lon="15.4704983"><ele>242.0</ele><time>2026-05-02T08:03:42.978Z</time></trkpt><trkpt lat="40.0638067" lon="15.4703283"><ele>242.0</ele><time>2026-05-02T08:03:43.978Z</time></trkpt><trkpt lat="40.06381" lon="15.4701733"><ele>242.0</ele><time>2026-05-02T08:03:44.977Z</time></trkpt><trkpt lat="40.0638267" lon="15.4699983"><ele>242.0</ele><time>2026-05-02T08:03:45.977Z</time></trkpt><trkpt lat="40.0638333" lon="15.4698383"><ele>242.0</ele><time>2026-05-02T08:03:46.977Z</time></trkpt><trkpt lat="40.0638433" lon="15.46968"><ele>242.0</ele><time>2026-05-02T08:03:47.977Z</time></trkpt><trkpt lat="40.0638283" lon="15.46953"><ele>242.0</ele><time>2026-05-02T08:03:48.978Z</time></trkpt><trkpt lat="40.06379" lon="15.4693833"><ele>242.0</ele><time>2026-05-02T08:03:49.977Z</time></trkpt><trkpt lat="40.063725" lon="15.4692317"><ele>243.5</ele><time>2026-05-02T08:03:50.977Z</time></trkpt><trkpt lat="40.0636533" lon="15.4690883"><ele>245.0</ele><time>2026-05-02T08:03:51.978Z</time></trkpt><trkpt lat="40.0635633" lon="15.4689617"><ele>246.5</ele><time>2026-05-02T08:03:52.978Z</time></trkpt><trkpt lat="40.0635067" lon="15.468825"><ele>248.0</ele><time>2026-05-02T08:03:53.977Z</time></trkpt><trkpt lat="40.0634667" lon="15.4686733"><ele>249.5</ele><time>2026-05-02T08:03:54.977Z</time></trkpt><trkpt lat="40.0634517" lon="15.4685333"><ele>251.0</ele><time>2026-05-02T08:03:55.977Z</time></trkpt><trkpt lat="40.06348" lon="15.4683867"><ele>252.5</ele><time>2026-05-02T08:03:56.977Z</time></trkpt><trkpt lat="40.0635367" lon="15.4682467"><ele>254.0</ele><time>2026-05-02T08:03:57.978Z</time></trkpt><trkpt lat="40.0636083" lon="15.4681317"><ele>254.0</ele><time>2026-05-02T08:03:58.977Z</time></trkpt><trkpt lat="40.0637067" lon="15.46801"><ele>254.0</ele><time>2026-05-02T08:03:59.977Z</time></trkpt><trkpt lat="40.0638033" lon="15.467885"><ele>254.0</ele><time>2026-05-02T08:04:00.978Z</time></trkpt><trkpt lat="40.063885" lon="15.4677333"><ele>254.0</ele><time>2026-05-02T08:04:01.978Z</time></trkpt><trkpt lat="40.0639333" lon="15.467575"><ele>255.0</ele><time>2026-05-02T08:04:02.977Z</time></trkpt><trkpt lat="40.0639633" lon="15.4674317"><ele>255.99999999999997</ele><time>2026-05-02T08:04:03.977Z</time></trkpt><trkpt lat="40.0639517" lon="15.4673133"><ele>257.0</ele><time>2026-05-02T08:04:04.977Z</time></trkpt><trkpt lat="40.0639067" lon="15.467225"><ele>258.0</ele><time>2026-05-02T08:04:05.977Z</time></trkpt><trkpt lat="40.0638333" lon="15.4671567"><ele>259.0</ele><time>2026-05-02T08:04:06.977Z</time></trkpt><trkpt lat="40.0637483" lon="15.4671017"><ele>260.59999999999997</ele><time>2026-05-02T08:04:07.977Z</time></trkpt><trkpt lat="40.0636667" lon="15.4670183"><ele>262.2</ele><time>2026-05-02T08:04:08.977Z</time></trkpt><trkpt lat="40.06361" lon="15.4669083"><ele>263.79999999999995</ele><time>2026-05-02T08:04:09.977Z</time></trkpt><trkpt lat="40.06358" lon="15.4667717"><ele>265.4</ele><time>2026-05-02T08:04:10.977Z</time></trkpt><trkpt lat="40.0635517" lon="15.466625"><ele>267.0</ele><time>2026-05-02T08:04:11.977Z</time></trkpt><trkpt lat="40.0635083" lon="15.466465"><ele>267.0</ele><time>2026-05-02T08:04:12.978Z</time></trkpt><trkpt lat="40.0634383" lon="15.466315"><ele>267.0</ele><time>2026-05-02T08:04:13.977Z</time></trkpt><trkpt lat="40.063365" lon="15.46618"><ele>267.0</ele><time>2026-05-02T08:04:14.978Z</time></trkpt><trkpt lat="40.0632967" lon="15.4660367"><ele>267.0</ele><time>2026-05-02T08:04:15.977Z</time></trkpt><trkpt lat="40.0632283" lon="15.4658933"><ele>267.8</ele><time>2026-05-02T08:04:16.978Z</time></trkpt><trkpt lat="40.0631517" lon="15.4657667"><ele>268.6</ele><time>2026-05-02T08:04:17.977Z</time></trkpt><trkpt lat="40.0630833" lon="15.4656533"><ele>269.40000000000003</ele><time>2026-05-02T08:04:18.977Z</time></trkpt><trkpt lat="40.063015" lon="15.4655433"><ele>270.2</ele><time>2026-05-02T08:04:19.978Z</time></trkpt><trkpt lat="40.0629617" lon="15.4654333"><ele>271.0</ele><time>2026-05-02T08:04:20.977Z</time></trkpt><trkpt lat="40.0629233" lon="15.4653317"><ele>272.66666666666663</ele><time>2026-05-02T08:04:21.977Z</time></trkpt><trkpt lat="40.0629" lon="15.4652333"><ele>274.3333333333333</ele><time>2026-05-02T08:04:22.977Z</time></trkpt><trkpt lat="40.0628933" lon="15.46514"><ele>276.0</ele><time>2026-05-02T08:04:23.977Z</time></trkpt><trkpt lat="40.0628917" lon="15.465025"><ele>277.6666666666667</ele><time>2026-05-02T08:04:24.978Z</time></trkpt><trkpt lat="40.0628833" lon="15.4648967"><ele>279.33333333333337</ele><time>2026-05-02T08:04:25.977Z</time></trkpt><trkpt lat="40.06288" lon="15.46476"><ele>281.0</ele><time>2026-05-02T08:04:26.977Z</time></trkpt><trkpt lat="40.0628533" lon="15.464625"><ele>283.25</ele><time>2026-05-02T08:04:27.977Z</time></trkpt><trkpt lat="40.0627983" lon="15.4645017"><ele>285.5</ele><time>2026-05-02T08:04:28.977Z</time></trkpt><trkpt lat="40.0627117" lon="15.4644017"><ele>287.75</ele><time>2026-05-02T08:04:29.977Z</time></trkpt><trkpt lat="40.062615" lon="15.4643183"><ele>290.0</ele><time>2026-05-02T08:04:30.978Z</time></trkpt><trkpt lat="40.0625083" lon="15.46426"><ele>289.8</ele><time>2026-05-02T08:04:31.977Z</time></trkpt><trkpt lat="40.06241" lon="15.4642317"><ele>289.6</ele><time>2026-05-02T08:04:32.977Z</time></trkpt><trkpt lat="40.0623133" lon="15.464245"><ele>289.4</ele><time>2026-05-02T08:04:33.977Z</time></trkpt><trkpt lat="40.0622167" lon="15.4643"><ele>289.2</ele><time>2026-05-02T08:04:34.978Z</time></trkpt><trkpt lat="40.0621233" lon="15.4643633"><ele>289.0</ele><time>2026-05-02T08:04:35.978Z</time></trkpt><trkpt lat="40.062025" lon="15.4644167"><ele>289.0</ele><time>2026-05-02T08:04:36.977Z</time></trkpt><trkpt lat="40.0619367" lon="15.4644283"><ele>289.0</ele><time>2026-05-02T08:04:37.977Z</time></trkpt><trkpt lat="40.061845" lon="15.4644067"><ele>289.0</ele><time>2026-05-02T08:04:38.977Z</time></trkpt><trkpt lat="40.061745" lon="15.4643583"><ele>289.0</ele><time>2026-05-02T08:04:39.978Z</time></trkpt><trkpt lat="40.061645" lon="15.4642917"><ele>289.0</ele><time>2026-05-02T08:04:40.978Z</time></trkpt><trkpt lat="40.06155" lon="15.4642183"><ele>289.4</ele><time>2026-05-02T08:04:41.978Z</time></trkpt><trkpt lat="40.0614783" lon="15.4641183"><ele>289.79999999999995</ele><time>2026-05-02T08:04:42.978Z</time></trkpt><trkpt lat="40.06142" lon="15.4639917"><ele>290.20000000000005</ele><time>2026-05-02T08:04:43.977Z</time></trkpt><trkpt lat="40.0613633" lon="15.4638583"><ele>290.6</ele><time>2026-05-02T08:04:44.977Z</time></trkpt><trkpt lat="40.0613233" lon="15.46372"><ele>291.0</ele><time>2026-05-02T08:04:45.977Z</time></trkpt><trkpt lat="40.0612783" lon="15.4635867"><ele>292.40000000000003</ele><time>2026-05-02T08:04:46.977Z</time></trkpt><trkpt lat="40.0612167" lon="15.4634767"><ele>293.8</ele><time>2026-05-02T08:04:47.978Z</time></trkpt><trkpt lat="40.0611267" lon="15.4633917"><ele>295.20000000000005</ele><time>2026-05-02T08:04:48.978Z</time></trkpt><trkpt lat="40.0610233" lon="15.4633233"><ele>296.6</ele><time>2026-05-02T08:04:49.977Z</time></trkpt><trkpt lat="40.0609117" lon="15.4632733"><ele>298.0</ele><time>2026-05-02T08:04:50.978Z</time></trkpt><trkpt lat="40.0608033" lon="15.4632217"><ele>300.6</ele><time>2026-05-02T08:04:51.978Z</time></trkpt><trkpt lat="40.060705" lon="15.463145"><ele>303.20000000000005</ele><time>2026-05-02T08:04:52.977Z</time></trkpt><trkpt lat="40.06062" lon="15.4630583"><ele>305.8</ele><time>2026-05-02T08:04:53.977Z</time></trkpt><trkpt lat="40.0605333" lon="15.463"><ele>308.40000000000003</ele><time>2026-05-02T08:04:54.978Z</time></trkpt><trkpt lat="40.0604467" lon="15.4629833"><ele>311.0</ele><time>2026-05-02T08:04:55.977Z</time></trkpt><trkpt lat="40.060355" lon="15.4630183"><ele>311.0</ele><time>2026-05-02T08:04:56.977Z</time></trkpt><trkpt lat="40.0602817" lon="15.4630917"><ele>311.0</ele><time>2026-05-02T08:04:57.977Z</time></trkpt><trkpt lat="40.060225" lon="15.4631917"><ele>311.0</ele><time>2026-05-02T08:04:58.977Z</time></trkpt><trkpt lat="40.06018" lon="15.463305"><ele>311.0</ele><time>2026-05-02T08:04:59.977Z</time></trkpt><trkpt lat="40.06016" lon="15.4634333"><ele>311.0</ele><time>2026-05-02T08:05:00.977Z</time></trkpt><trkpt lat="40.0601567" lon="15.4635717"><ele>311.0</ele><time>2026-05-02T08:05:01.978Z</time></trkpt><trkpt lat="40.0601667" lon="15.4637133"><ele>311.0</ele><time>2026-05-02T08:05:02.977Z</time></trkpt><trkpt lat="40.0601733" lon="15.4638567"><ele>311.0</ele><time>2026-05-02T08:05:03.977Z</time></trkpt><trkpt lat="40.06017" lon="15.4639933"><ele>311.0</ele><time>2026-05-02T08:05:04.978Z</time></trkpt><trkpt lat="40.0601733" lon="15.464135"><ele>311.0</ele><time>2026-05-02T08:05:05.977Z</time></trkpt><trkpt lat="40.0601533" lon="15.4642783"><ele>310.6</ele><time>2026-05-02T08:05:06.977Z</time></trkpt><trkpt lat="40.0601233" lon="15.4644133"><ele>310.20000000000005</ele><time>2026-05-02T08:05:07.978Z</time></trkpt><trkpt lat="40.0600783" lon="15.4645233"><ele>309.79999999999995</ele><time>2026-05-02T08:05:08.978Z</time></trkpt><trkpt lat="40.0600017" lon="15.464605"><ele>309.4</ele><time>2026-05-02T08:05:09.978Z</time></trkpt><trkpt lat="40.059905" lon="15.4646633"><ele>309.0</ele><time>2026-05-02T08:05:10.977Z</time></trkpt><trkpt lat="40.0597983" lon="15.4647067"><ele>308.8</ele><time>2026-05-02T08:05:11.978Z</time></trkpt><trkpt lat="40.0596967" lon="15.4647533"><ele>308.59999999999997</ele><time>2026-05-02T08:05:12.977Z</time></trkpt><trkpt lat="40.0595967" lon="15.4648"><ele>308.4</ele><time>2026-05-02T08:05:13.977Z</time></trkpt><trkpt lat="40.05951" lon="15.46483"><ele>308.2</ele><time>2026-05-02T08:05:14.977Z</time></trkpt><trkpt lat="40.05943" lon="15.4648617"><ele>308.0</ele><time>2026-05-02T08:05:15.977Z</time></trkpt><trkpt lat="40.05936" lon="15.46487"><ele>308.0</ele><time>2026-05-02T08:05:16.978Z</time></trkpt><trkpt lat="40.05929" lon="15.464845"><ele>308.0</ele><time>2026-05-02T08:05:17.978Z</time></trkpt><trkpt lat="40.059245" lon="15.4647833"><ele>308.0</ele><time>2026-05-02T08:05:18.977Z</time></trkpt><trkpt lat="40.0592117" lon="15.4646883"><ele>308.0</ele><time>2026-05-02T08:05:19.978Z</time></trkpt><trkpt lat="40.0592" lon="15.4645667"><ele>308.0</ele><time>2026-05-02T08:05:20.977Z</time></trkpt><trkpt lat="40.059195" lon="15.4644317"><ele>308.0</ele><time>2026-05-02T08:05:21.977Z</time></trkpt><trkpt lat="40.0592017" lon="15.4642967"><ele>310.0</ele><time>2026-05-02T08:05:22.977Z</time></trkpt><trkpt lat="40.0592233" lon="15.464165"><ele>312.0</ele><time>2026-05-02T08:05:23.977Z</time></trkpt><trkpt lat="40.059255" lon="15.464035"><ele>314.0</ele><time>2026-05-02T08:05:24.977Z</time></trkpt><trkpt lat="40.0592967" lon="15.4639067"><ele>316.0</ele><time>2026-05-02T08:05:25.977Z</time></trkpt><trkpt lat="40.059325" lon="15.463785"><ele>318.0</ele><time>2026-05-02T08:05:26.977Z</time></trkpt><trkpt lat="40.0593567" lon="15.463665"><ele>319.3333333333333</ele><time>2026-05-02T08:05:27.977Z</time></trkpt><trkpt lat="40.0593867" lon="15.46355"><ele>320.6666666666667</ele><time>2026-05-02T08:05:28.978Z</time></trkpt><trkpt lat="40.0594033" lon="15.4634483"><ele>322.0</ele><time>2026-05-02T08:05:29.978Z</time></trkpt><trkpt lat="40.05939" lon="15.4633417"><ele>323.33333333333337</ele><time>2026-05-02T08:05:30.977Z</time></trkpt><trkpt lat="40.0593517" lon="15.4632567"><ele>324.6666666666667</ele><time>2026-05-02T08:05:31.977Z</time></trkpt><trkpt lat="40.059285" lon="15.4631983"><ele>326.0</ele><time>2026-05-02T08:05:32.977Z</time></trkpt><trkpt lat="40.0592167" lon="15.463145"><ele>326.0</ele><time>2026-05-02T08:05:33.977Z</time></trkpt><trkpt lat="40.0591483" lon="15.4630767"><ele>326.0</ele><time>2026-05-02T08:05:34.978Z</time></trkpt><trkpt lat="40.0591" lon="15.4629867"><ele>326.0</ele><time>2026-05-02T08:05:35.977Z</time></trkpt><trkpt lat="40.0590767" lon="15.4628767"><ele>326.0</ele><time>2026-05-02T08:05:36.977Z</time></trkpt><trkpt lat="40.05907" lon="15.4627517"><ele>326.0</ele><time>2026-05-02T08:05:37.977Z</time></trkpt><trkpt lat="40.0590683" lon="15.462615"><ele>327.20000000000005</ele><time>2026-05-02T08:05:38.977Z</time></trkpt><trkpt lat="40.0590533" lon="15.4624783"><ele>328.40000000000003</ele><time>2026-05-02T08:05:39.978Z</time></trkpt><trkpt lat="40.0590217" lon="15.4623317"><ele>329.6</ele><time>2026-05-02T08:05:40.978Z</time></trkpt><trkpt lat="40.0589633" lon="15.4622"><ele>330.8</ele><time>2026-05-02T08:05:41.978Z</time></trkpt><trkpt lat="40.0588967" lon="15.4620917"><ele>332.0</ele><time>2026-05-02T08:05:42.978Z</time></trkpt><trkpt lat="40.0588167" lon="15.462025"><ele>333.20000000000005</ele><time>2026-05-02T08:05:43.978Z</time></trkpt><trkpt lat="40.058715" lon="15.4619983"><ele>334.4</ele><time>2026-05-02T08:05:44.977Z</time></trkpt><trkpt lat="40.058605" lon="15.4620033"><ele>335.6</ele><time>2026-05-02T08:05:45.977Z</time></trkpt><trkpt lat="40.0584883" lon="15.462005"><ele>336.79999999999995</ele><time>2026-05-02T08:05:46.977Z</time></trkpt><trkpt lat="40.0583783" lon="15.461965"><ele>338.0</ele><time>2026-05-02T08:05:47.977Z</time></trkpt><trkpt lat="40.0582683" lon="15.4618983"><ele>338.0</ele><time>2026-05-02T08:05:48.978Z</time></trkpt><trkpt lat="40.0581817" lon="15.4617817"><ele>338.0</ele><time>2026-05-02T08:05:49.978Z</time></trkpt><trkpt lat="40.0581017" lon="15.4616667"><ele>338.0</ele><time>2026-05-02T08:05:50.977Z</time></trkpt><trkpt lat="40.0580217" lon="15.4615517"><ele>338.0</ele><time>2026-05-02T08:05:51.978Z</time></trkpt><trkpt lat="40.0579367" lon="15.4614267"><ele>338.0</ele><time>2026-05-02T08:05:52.977Z</time></trkpt><trkpt lat="40.057865" lon="15.4613"><ele>338.0</ele><time>2026-05-02T08:05:53.978Z</time></trkpt><trkpt lat="40.05781" lon="15.4611533"><ele>338.0</ele><time>2026-05-02T08:05:54.978Z</time></trkpt><trkpt lat="40.0577833" lon="15.460995"><ele>338.0</ele><time>2026-05-02T08:05:55.978Z</time></trkpt><trkpt lat="40.0577767" lon="15.4608317"><ele>340.0</ele><time>2026-05-02T08:05:56.977Z</time></trkpt><trkpt lat="40.0577733" lon="15.4606617"><ele>342.0</ele><time>2026-05-02T08:05:57.978Z</time></trkpt><trkpt lat="40.057755" lon="15.4605"><ele>344.0</ele><time>2026-05-02T08:05:58.977Z</time></trkpt><trkpt lat="40.0577367" lon="15.4603467"><ele>346.0</ele><time>2026-05-02T08:05:59.977Z</time></trkpt><trkpt lat="40.0577267" lon="15.4602083"><ele>345.4</ele><time>2026-05-02T08:06:00.977Z</time></trkpt><trkpt lat="40.0577183" lon="15.4600783"><ele>344.8</ele><time>2026-05-02T08:06:01.977Z</time></trkpt><trkpt lat="40.057695" lon="15.4599633"><ele>344.2</ele><time>2026-05-02T08:06:02.977Z</time></trkpt><trkpt lat="40.057635" lon="15.4598783"><ele>343.59999999999997</ele><time>2026-05-02T08:06:03.977Z</time></trkpt><trkpt lat="40.0575417" lon="15.4598367"><ele>343.0</ele><time>2026-05-02T08:06:04.977Z</time></trkpt><trkpt lat="40.057435" lon="15.4598583"><ele>343.0</ele><time>2026-05-02T08:06:05.977Z</time></trkpt><trkpt lat="40.0573367" lon="15.4599167"><ele>343.0</ele><time>2026-05-02T08:06:06.978Z</time></trkpt><trkpt lat="40.0572567" lon="15.4599883"><ele>343.0</ele><time>2026-05-02T08:06:07.978Z</time></trkpt><trkpt lat="40.0571817" lon="15.4600183"><ele>343.0</ele><time>2026-05-02T08:06:08.977Z</time></trkpt><trkpt lat="40.0571033" lon="15.4600183"><ele>343.0</ele><time>2026-05-02T08:06:09.977Z</time></trkpt><trkpt lat="40.0570433" lon="15.4599817"><ele>343.0</ele><time>2026-05-02T08:06:10.978Z</time></trkpt><trkpt lat="40.0570133" lon="15.459905"><ele>343.0</ele><time>2026-05-02T08:06:11.977Z</time></trkpt><trkpt lat="40.0570017" lon="15.4597983"><ele>343.0</ele><time>2026-05-02T08:06:12.977Z</time></trkpt><trkpt lat="40.05701" lon="15.4596717"><ele>343.0</ele><time>2026-05-02T08:06:13.978Z</time></trkpt><trkpt lat="40.05701" lon="15.4595283"><ele>343.0</ele><time>2026-05-02T08:06:14.977Z</time></trkpt><trkpt lat="40.0569783" lon="15.4594033"><ele>343.0</ele><time>2026-05-02T08:06:15.977Z</time></trkpt><trkpt lat="40.0569183" lon="15.4593"><ele>345.79999999999995</ele><time>2026-05-02T08:06:16.977Z</time></trkpt><trkpt lat="40.05685" lon="15.4592117"><ele>348.6</ele><time>2026-05-02T08:06:17.977Z</time></trkpt><trkpt lat="40.0567867" lon="15.4591083"><ele>351.4</ele><time>2026-05-02T08:06:18.977Z</time></trkpt><trkpt lat="40.0567367" lon="15.45899"><ele>354.20000000000005</ele><time>2026-05-02T08:06:19.978Z</time></trkpt><trkpt lat="40.056725" lon="15.4588567"><ele>357.0</ele><time>2026-05-02T08:06:20.978Z</time></trkpt><trkpt lat="40.0567233" lon="15.4587233"><ele>359.0</ele><time>2026-05-02T08:06:21.977Z</time></trkpt><trkpt lat="40.05673" lon="15.4585833"><ele>361.0</ele><time>2026-05-02T08:06:22.978Z</time></trkpt><trkpt lat="40.0567267" lon="15.4584367"><ele>363.0</ele><time>2026-05-02T08:06:23.977Z</time></trkpt><trkpt lat="40.0567083" lon="15.4582817"><ele>365.0</ele><time>2026-05-02T08:06:24.978Z</time></trkpt><trkpt lat="40.0566717" lon="15.45813"><ele>365.0</ele><time>2026-05-02T08:06:25.977Z</time></trkpt><trkpt lat="40.0566333" lon="15.4579817"><ele>365.0</ele><time>2026-05-02T08:06:26.978Z</time></trkpt><trkpt lat="40.056615" lon="15.457835"><ele>365.0</ele><time>2026-05-02T08:06:27.978Z</time></trkpt><trkpt lat="40.056605" lon="15.4576867"><ele>365.0</ele><time>2026-05-02T08:06:28.977Z</time></trkpt><trkpt lat="40.0566017" lon="15.4575333"><ele>366.25</ele><time>2026-05-02T08:06:29.977Z</time></trkpt><trkpt lat="40.05661" lon="15.4573767"><ele>367.5</ele><time>2026-05-02T08:06:30.977Z</time></trkpt><trkpt lat="40.0566317" lon="15.4572283"><ele>368.75</ele><time>2026-05-02T08:06:31.978Z</time></trkpt><trkpt lat="40.0566717" lon="15.4570933"><ele>370.0</ele><time>2026-05-02T08:06:32.978Z</time></trkpt><trkpt lat="40.0567217" lon="15.4569617"><ele>371.5</ele><time>2026-05-02T08:06:33.977Z</time></trkpt><trkpt lat="40.0567633" lon="15.456815"><ele>373.0</ele><time>2026-05-02T08:06:34.978Z</time></trkpt><trkpt lat="40.0567983" lon="15.45666"><ele>374.5</ele><time>2026-05-02T08:06:35.977Z</time></trkpt><trkpt lat="40.0568167" lon="15.4565033"><ele>376.0</ele><time>2026-05-02T08:06:36.978Z</time></trkpt><trkpt lat="40.056825" lon="15.4563533"><ele>375.8</ele><time>2026-05-02T08:06:37.978Z</time></trkpt><trkpt lat="40.056835" lon="15.4562083"><ele>375.6</ele><time>2026-05-02T08:06:38.977Z</time></trkpt><trkpt lat="40.0568133" lon="15.45609"><ele>375.4</ele><time>2026-05-02T08:06:39.977Z</time></trkpt><trkpt lat="40.0567583" lon="15.456"><ele>375.2</ele><time>2026-05-02T08:06:40.977Z</time></trkpt><trkpt lat="40.0566833" lon="15.455945"><ele>375.0</ele><time>2026-05-02T08:06:41.977Z</time></trkpt><trkpt lat="40.0565917" lon="15.4559483"><ele>375.0</ele><time>2026-05-02T08:06:42.977Z</time></trkpt><trkpt lat="40.0565" lon="15.4560083"><ele>375.0</ele><time>2026-05-02T08:06:43.978Z</time></trkpt><trkpt lat="40.0564217" lon="15.4560833"><ele>375.0</ele><time>2026-05-02T08:06:44.977Z</time></trkpt><trkpt lat="40.0563517" lon="15.45614"><ele>375.0</ele><time>2026-05-02T08:06:45.978Z</time></trkpt><trkpt lat="40.0562833" lon="15.45616"><ele>375.0</ele><time>2026-05-02T08:06:46.977Z</time></trkpt><trkpt lat="40.0562167" lon="15.4560783"><ele>375.0</ele><time>2026-05-02T08:06:48.978Z</time></trkpt><trkpt lat="40.0562533" lon="15.4559117"><ele>375.0</ele><time>2026-05-02T08:06:50.977Z</time></trkpt><trkpt lat="40.0563033" lon="15.4558133"><ele>375.0</ele><time>2026-05-02T08:06:51.977Z</time></trkpt><trkpt lat="40.05637" lon="15.455705"><ele>375.0</ele><time>2026-05-02T08:06:52.978Z</time></trkpt><trkpt lat="40.056425" lon="15.4556"><ele>375.0</ele><time>2026-05-02T08:06:53.977Z</time></trkpt><trkpt lat="40.0564783" lon="15.4554883"><ele>375.0</ele><time>2026-05-02T08:06:54.978Z</time></trkpt><trkpt lat="40.0565333" lon="15.4553717"><ele>376.2</ele><time>2026-05-02T08:06:55.978Z</time></trkpt><trkpt lat="40.0565833" lon="15.45524"><ele>377.4</ele><time>2026-05-02T08:06:56.978Z</time></trkpt><trkpt lat="40.0566283" lon="15.4551217"><ele>378.6</ele><time>2026-05-02T08:06:57.977Z</time></trkpt><trkpt lat="40.05667" lon="15.455005"><ele>379.8</ele><time>2026-05-02T08:06:58.978Z</time></trkpt><trkpt lat="40.0566967" lon="15.4548867"><ele>381.0</ele><time>2026-05-02T08:06:59.977Z</time></trkpt><trkpt lat="40.0567283" lon="15.454775"><ele>383.20000000000005</ele><time>2026-05-02T08:07:00.977Z</time></trkpt><trkpt lat="40.0567417" lon="15.454655"><ele>385.40000000000003</ele><time>2026-05-02T08:07:01.977Z</time></trkpt><trkpt lat="40.05675" lon="15.4545317"><ele>387.6</ele><time>2026-05-02T08:07:02.977Z</time></trkpt><trkpt lat="40.0567617" lon="15.4544067"><ele>389.8</ele><time>2026-05-02T08:07:03.977Z</time></trkpt><trkpt lat="40.0567633" lon="15.4542817"><ele>392.0</ele><time>2026-05-02T08:07:04.978Z</time></trkpt><trkpt lat="40.0567483" lon="15.454145"><ele>393.25</ele><time>2026-05-02T08:07:05.978Z</time></trkpt><trkpt lat="40.0567133" lon="15.454005"><ele>394.5</ele><time>2026-05-02T08:07:06.978Z</time></trkpt><trkpt lat="40.0566533" lon="15.4538717"><ele>395.75</ele><time>2026-05-02T08:07:07.978Z</time></trkpt><trkpt lat="40.0565617" lon="15.4537717"><ele>397.0</ele><time>2026-05-02T08:07:08.977Z</time></trkpt><trkpt lat="40.0564717" lon="15.4536833"><ele>397.5</ele><time>2026-05-02T08:07:09.977Z</time></trkpt><trkpt lat="40.0563767" lon="15.453595"><ele>398.0</ele><time>2026-05-02T08:07:10.978Z</time></trkpt><trkpt lat="40.0562633" lon="15.453495"><ele>398.5</ele><time>2026-05-02T08:07:11.977Z</time></trkpt><trkpt lat="40.056145" lon="15.4533617"><ele>399.0</ele><time>2026-05-02T08:07:12.977Z</time></trkpt><trkpt lat="40.056025" lon="15.453215"><ele>399.0</ele><time>2026-05-02T08:07:13.977Z</time></trkpt><trkpt lat="40.0559283" lon="15.453065"><ele>399.0</ele><time>2026-05-02T08:07:14.977Z</time></trkpt><trkpt lat="40.05585" lon="15.45293"><ele>399.0</ele><time>2026-05-02T08:07:15.977Z</time></trkpt><trkpt lat="40.0557633" lon="15.4528067"><ele>399.0</ele><time>2026-05-02T08:07:16.978Z</time></trkpt><trkpt lat="40.05568" lon="15.4526817"><ele>400.75</ele><time>2026-05-02T08:07:17.977Z</time></trkpt><trkpt lat="40.0555917" lon="15.4525533"><ele>402.5</ele><time>2026-05-02T08:07:18.977Z</time></trkpt><trkpt lat="40.0554883" lon="15.4524383"><ele>404.25</ele><time>2026-05-02T08:07:19.977Z</time></trkpt><trkpt lat="40.05539" lon="15.4523133"><ele>406.0</ele><time>2026-05-02T08:07:20.978Z</time></trkpt><trkpt lat="40.055285" lon="15.4521983"><ele>407.20000000000005</ele><time>2026-05-02T08:07:21.978Z</time></trkpt><trkpt lat="40.0551733" lon="15.4521083"><ele>408.40000000000003</ele><time>2026-05-02T08:07:22.977Z</time></trkpt><trkpt lat="40.0550683" lon="15.4520417"><ele>409.6</ele><time>2026-05-02T08:07:23.977Z</time></trkpt><trkpt lat="40.0549717" lon="15.4519883"><ele>410.8</ele><time>2026-05-02T08:07:24.977Z</time></trkpt><trkpt lat="40.0548833" lon="15.451945"><ele>412.0</ele><time>2026-05-02T08:07:25.977Z</time></trkpt><trkpt lat="40.0548" lon="15.4519033"><ele>412.8</ele><time>2026-05-02T08:07:26.978Z</time></trkpt><trkpt lat="40.054715" lon="15.4518517"><ele>413.6</ele><time>2026-05-02T08:07:27.977Z</time></trkpt><trkpt lat="40.0546233" lon="15.4518"><ele>414.40000000000003</ele><time>2026-05-02T08:07:28.978Z</time></trkpt><trkpt lat="40.05453" lon="15.4517483"><ele>415.20000000000005</ele><time>2026-05-02T08:07:29.977Z</time></trkpt><trkpt lat="40.05444" lon="15.4516933"><ele>416.0</ele><time>2026-05-02T08:07:30.977Z</time></trkpt><trkpt lat="40.0543633" lon="15.4516317"><ele>415.99999999999994</ele><time>2026-05-02T08:07:31.977Z</time></trkpt><trkpt lat="40.0542917" lon="15.4515767"><ele>416.0</ele><time>2026-05-02T08:07:32.977Z</time></trkpt><trkpt lat="40.0542233" lon="15.4515183"><ele>416.0</ele><time>2026-05-02T08:07:33.978Z</time></trkpt><trkpt lat="40.054155" lon="15.45147"><ele>416.0</ele><time>2026-05-02T08:07:34.977Z</time></trkpt><trkpt lat="40.054095" lon="15.45143"><ele>415.99999999999994</ele><time>2026-05-02T08:07:35.977Z</time></trkpt><trkpt lat="40.05399" lon="15.45136"><ele>416.0</ele><time>2026-05-02T08:07:37.977Z</time></trkpt><trkpt lat="40.0538883" lon="15.4512917"><ele>417.6</ele><time>2026-05-02T08:07:39.977Z</time></trkpt><trkpt lat="40.0537933" lon="15.4512233"><ele>419.20000000000005</ele><time>2026-05-02T08:07:41.977Z</time></trkpt><trkpt lat="40.0536767" lon="15.4511633"><ele>420.79999999999995</ele><time>2026-05-02T08:07:43.977Z</time></trkpt><trkpt lat="40.053615" lon="15.4511367"><ele>422.4</ele><time>2026-05-02T08:07:44.977Z</time></trkpt><trkpt lat="40.0535017" lon="15.45105"><ele>424.0</ele><time>2026-05-02T08:07:46.977Z</time></trkpt><trkpt lat="40.0534533" lon="15.4509967"><ele>424.00000000000006</ele><time>2026-05-02T08:07:47.978Z</time></trkpt><trkpt lat="40.0534117" lon="15.4509333"><ele>424.0</ele><time>2026-05-02T08:07:49.978Z</time></trkpt><trkpt lat="40.053375" lon="15.45081"><ele>424.0</ele><time>2026-05-02T08:07:53.977Z</time></trkpt><trkpt lat="40.053345" lon="15.45067"><ele>424.0</ele><time>2026-05-02T08:07:55.978Z</time></trkpt><trkpt lat="40.053325" lon="15.4505867"><ele>424.00000000000006</ele><time>2026-05-02T08:07:56.977Z</time></trkpt><trkpt lat="40.0533117" lon="15.450495"><ele>424.0</ele><time>2026-05-02T08:07:57.977Z</time></trkpt><trkpt lat="40.0532933" lon="15.4504033"><ele>425.14285714285717</ele><time>2026-05-02T08:07:58.978Z</time></trkpt><trkpt lat="40.0532767" lon="15.4503133"><ele>426.2857142857143</ele><time>2026-05-02T08:07:59.978Z</time></trkpt><trkpt lat="40.05326" lon="15.4502167"><ele>427.42857142857144</ele><time>2026-05-02T08:08:00.978Z</time></trkpt><trkpt lat="40.0532367" lon="15.4501233"><ele>428.57142857142856</ele><time>2026-05-02T08:08:01.977Z</time></trkpt><trkpt lat="40.05322" lon="15.4500317"><ele>429.71428571428567</ele><time>2026-05-02T08:08:02.978Z</time></trkpt><trkpt lat="40.0532117" lon="15.4499433"><ele>430.85714285714283</ele><time>2026-05-02T08:08:03.977Z</time></trkpt><trkpt lat="40.0532017" lon="15.44986"><ele>432.0</ele><time>2026-05-02T08:08:04.977Z</time></trkpt><trkpt lat="40.053185" lon="15.4497767"><ele>432.0</ele><time>2026-05-02T08:08:05.978Z</time></trkpt><trkpt lat="40.0531617" lon="15.44969"><ele>432.0</ele><time>2026-05-02T08:08:07.977Z</time></trkpt><trkpt lat="40.05314" lon="15.44958"><ele>432.0</ele><time>2026-05-02T08:08:10.977Z</time></trkpt><trkpt lat="40.0531083" lon="15.4494483"><ele>432.0</ele><time>2026-05-02T08:08:12.978Z</time></trkpt><trkpt lat="40.0530867" lon="15.44937"><ele>432.0</ele><time>2026-05-02T08:08:13.978Z</time></trkpt><trkpt lat="40.0530467" lon="15.4492883"><ele>432.0</ele><time>2026-05-02T08:08:14.977Z</time></trkpt><trkpt lat="40.05298" lon="15.4492167"><ele>434.3333333333333</ele><time>2026-05-02T08:08:15.978Z</time></trkpt><trkpt lat="40.0529133" lon="15.44915"><ele>436.66666666666663</ele><time>2026-05-02T08:08:16.978Z</time></trkpt><trkpt lat="40.0528433" lon="15.4491017"><ele>439.0</ele><time>2026-05-02T08:08:17.977Z</time></trkpt><trkpt lat="40.0527683" lon="15.4490983"><ele>441.3333333333333</ele><time>2026-05-02T08:08:18.978Z</time></trkpt><trkpt lat="40.0526967" lon="15.4491117"><ele>443.66666666666663</ele><time>2026-05-02T08:08:19.977Z</time></trkpt><trkpt lat="40.0526317" lon="15.44913"><ele>446.0</ele><time>2026-05-02T08:08:20.977Z</time></trkpt><trkpt lat="40.05256" lon="15.449175"><ele>446.0</ele><time>2026-05-02T08:08:21.978Z</time></trkpt><trkpt lat="40.0525083" lon="15.44924"><ele>446.0</ele><time>2026-05-02T08:08:22.977Z</time></trkpt><trkpt lat="40.0524617" lon="15.4493117"><ele>446.0</ele><time>2026-05-02T08:08:23.977Z</time></trkpt><trkpt lat="40.0524317" lon="15.4493933"><ele>446.0</ele><time>2026-05-02T08:08:24.978Z</time></trkpt><trkpt lat="40.0523617" lon="15.4495267"><ele>446.0</ele><time>2026-05-02T08:08:26.977Z</time></trkpt><trkpt lat="40.0522933" lon="15.4496533"><ele>446.8</ele><time>2026-05-02T08:08:28.977Z</time></trkpt><trkpt lat="40.0522083" lon="15.44975"><ele>447.6</ele><time>2026-05-02T08:08:30.978Z</time></trkpt><trkpt lat="40.0521383" lon="15.44984"><ele>448.4</ele><time>2026-05-02T08:08:32.978Z</time></trkpt><trkpt lat="40.0520767" lon="15.449885"><ele>449.2</ele><time>2026-05-02T08:08:34.977Z</time></trkpt><trkpt lat="40.0519983" lon="15.44994"><ele>450.0</ele><time>2026-05-02T08:08:36.977Z</time></trkpt><trkpt lat="40.051885" lon="15.4499833"><ele>450.0</ele><time>2026-05-02T08:08:38.977Z</time></trkpt><trkpt lat="40.0518217" lon="15.449995"><ele>450.0</ele><time>2026-05-02T08:08:39.978Z</time></trkpt><trkpt lat="40.0516933" lon="15.4500367"><ele>450.0</ele><time>2026-05-02T08:08:41.978Z</time></trkpt><trkpt lat="40.0516267" lon="15.45006"><ele>450.0</ele><time>2026-05-02T08:08:42.977Z</time></trkpt><trkpt lat="40.051555" lon="15.4500867"><ele>450.0</ele><time>2026-05-02T08:08:43.977Z</time></trkpt><trkpt lat="40.051495" lon="15.4501283"><ele>450.0</ele><time>2026-05-02T08:08:44.977Z</time></trkpt><trkpt lat="40.0514267" lon="15.45016"><ele>452.4</ele><time>2026-05-02T08:08:45.977Z</time></trkpt><trkpt lat="40.0513067" lon="15.4502083"><ele>454.8</ele><time>2026-05-02T08:08:47.977Z</time></trkpt><trkpt lat="40.0511967" lon="15.4502483"><ele>457.20000000000005</ele><time>2026-05-02T08:08:49.978Z</time></trkpt><trkpt lat="40.0510983" lon="15.4502733"><ele>459.6</ele><time>2026-05-02T08:08:51.978Z</time></trkpt><trkpt lat="40.0510167" lon="15.45031"><ele>462.0</ele><time>2026-05-02T08:08:53.977Z</time></trkpt><trkpt lat="40.05094" lon="15.4503433"><ele>462.0</ele><time>2026-05-02T08:08:55.977Z</time></trkpt><trkpt lat="40.0508167" lon="15.4503533"><ele>462.00000000000006</ele><time>2026-05-02T08:08:57.977Z</time></trkpt><trkpt lat="40.0507467" lon="15.4503667"><ele>462.00000000000006</ele><time>2026-05-02T08:08:58.978Z</time></trkpt><trkpt lat="40.050665" lon="15.4503817"><ele>462.0</ele><time>2026-05-02T08:08:59.977Z</time></trkpt><trkpt lat="40.05058" lon="15.450405"><ele>462.0</ele><time>2026-05-02T08:09:00.978Z</time></trkpt><trkpt lat="40.05049" lon="15.450425"><ele>461.8333333333333</ele><time>2026-05-02T08:09:01.977Z</time></trkpt><trkpt lat="40.0503967" lon="15.450445"><ele>461.66666666666663</ele><time>2026-05-02T08:09:02.977Z</time></trkpt><trkpt lat="40.0503133" lon="15.4504733"><ele>461.5</ele><time>2026-05-02T08:09:03.977Z</time></trkpt><trkpt lat="40.050245" lon="15.4505333"><ele>461.3333333333333</ele><time>2026-05-02T08:09:04.978Z</time></trkpt><trkpt lat="40.0501917" lon="15.4505967"><ele>461.16666666666663</ele><time>2026-05-02T08:09:05.977Z</time></trkpt><trkpt lat="40.050145" lon="15.4507083"><ele>461.0</ele><time>2026-05-02T08:09:07.978Z</time></trkpt><trkpt lat="40.0501333" lon="15.4508067"><ele>460.99999999999994</ele><time>2026-05-02T08:09:10.977Z</time></trkpt><trkpt lat="40.0501133" lon="15.4509167"><ele>461.0</ele><time>2026-05-02T08:09:24.978Z</time></trkpt><trkpt lat="40.0500583" lon="15.4510183"><ele>461.0</ele><time>2026-05-02T08:09:31.977Z</time></trkpt><trkpt lat="40.0500283" lon="15.451115"><ele>461.0</ele><time>2026-05-02T08:09:34.977Z</time></trkpt><trkpt lat="40.0500317" lon="15.451205"><ele>460.99999999999994</ele><time>2026-05-02T08:09:36.977Z</time></trkpt><trkpt lat="40.05003" lon="15.4513333"><ele>461.0</ele><time>2026-05-02T08:09:38.977Z</time></trkpt><trkpt lat="40.0500117" lon="15.4514733"><ele>460.8333333333333</ele><time>2026-05-02T08:09:40.978Z</time></trkpt><trkpt lat="40.049965" lon="15.4515717"><ele>460.66666666666663</ele><time>2026-05-02T08:09:42.977Z</time></trkpt><trkpt lat="40.04989" lon="15.451615"><ele>460.5</ele><time>2026-05-02T08:09:45.977Z</time></trkpt><trkpt lat="40.0498067" lon="15.4515717"><ele>460.33333333333337</ele><time>2026-05-02T08:09:48.977Z</time></trkpt><trkpt lat="40.0497667" lon="15.4514833"><ele>460.1666666666667</ele><time>2026-05-02T08:09:50.977Z</time></trkpt><trkpt lat="40.0497383" lon="15.4513783"><ele>460.0</ele><time>2026-05-02T08:09:52.977Z</time></trkpt><trkpt lat="40.04974" lon="15.451255"><ele>463.6</ele><time>2026-05-02T08:09:54.977Z</time></trkpt><trkpt lat="40.0497383" lon="15.45112"><ele>467.2</ele><time>2026-05-02T08:09:56.978Z</time></trkpt><trkpt lat="40.0497517" lon="15.4509933"><ele>470.79999999999995</ele><time>2026-05-02T08:09:58.978Z</time></trkpt><trkpt lat="40.0497583" lon="15.45084"><ele>474.4</ele><time>2026-05-02T08:10:00.977Z</time></trkpt><trkpt lat="40.049765" lon="15.4506833"><ele>478.0</ele><time>2026-05-02T08:10:02.978Z</time></trkpt><trkpt lat="40.04977" lon="15.4505983"><ele>478.00000000000006</ele><time>2026-05-02T08:10:03.978Z</time></trkpt><trkpt lat="40.0497733" lon="15.450515"><ele>478.0</ele><time>2026-05-02T08:10:04.977Z</time></trkpt><trkpt lat="40.0497383" lon="15.4504017"><ele>478.0</ele><time>2026-05-02T08:10:06.977Z</time></trkpt><trkpt lat="40.0496983" lon="15.4503083"><ele>478.0</ele><time>2026-05-02T08:10:11.977Z</time></trkpt><trkpt lat="40.04969" lon="15.4501617"><ele>478.00000000000006</ele><time>2026-05-02T08:10:13.978Z</time></trkpt><trkpt lat="40.0497083" lon="15.450045"><ele>478.0</ele><time>2026-05-02T08:10:14.977Z</time></trkpt><trkpt lat="40.0497517" lon="15.44993"><ele>479.59999999999997</ele><time>2026-05-02T08:10:15.977Z</time></trkpt><trkpt lat="40.04981" lon="15.44982"><ele>481.19999999999993</ele><time>2026-05-02T08:10:16.978Z</time></trkpt><trkpt lat="40.0498767" lon="15.4497267"><ele>482.8</ele><time>2026-05-02T08:10:17.978Z</time></trkpt><trkpt lat="40.0499517" lon="15.44965"><ele>484.4</ele><time>2026-05-02T08:10:18.978Z</time></trkpt><trkpt lat="40.0500233" lon="15.4495917"><ele>486.0</ele><time>2026-05-02T08:10:19.977Z</time></trkpt><trkpt lat="40.0501067" lon="15.4495567"><ele>486.8</ele><time>2026-05-02T08:10:20.977Z</time></trkpt><trkpt lat="40.0501967" lon="15.4495333"><ele>487.6</ele><time>2026-05-02T08:10:21.978Z</time></trkpt><trkpt lat="40.0502883" lon="15.449515"><ele>488.4</ele><time>2026-05-02T08:10:22.977Z</time></trkpt><trkpt lat="40.050375" lon="15.4494783"><ele>489.2</ele><time>2026-05-02T08:10:23.977Z</time></trkpt><trkpt lat="40.05045" lon="15.4494267"><ele>490.0</ele><time>2026-05-02T08:10:24.978Z</time></trkpt><trkpt lat="40.050525" lon="15.4493417"><ele>490.0</ele><time>2026-05-02T08:10:25.977Z</time></trkpt><trkpt lat="40.050595" lon="15.4492283"><ele>490.0</ele><time>2026-05-02T08:10:26.977Z</time></trkpt><trkpt lat="40.05065" lon="15.4491117"><ele>490.0</ele><time>2026-05-02T08:10:27.978Z</time></trkpt><trkpt lat="40.05069" lon="15.4489967"><ele>490.0</ele><time>2026-05-02T08:10:28.978Z</time></trkpt><trkpt lat="40.0507033" lon="15.4488667"><ele>490.0</ele><time>2026-05-02T08:10:29.978Z</time></trkpt><trkpt lat="40.050705" lon="15.4487333"><ele>489.2</ele><time>2026-05-02T08:10:30.978Z</time></trkpt><trkpt lat="40.050705" lon="15.4485967"><ele>488.4</ele><time>2026-05-02T08:10:31.977Z</time></trkpt><trkpt lat="40.050725" lon="15.4484683"><ele>487.6</ele><time>2026-05-02T08:10:32.977Z</time></trkpt><trkpt lat="40.05077" lon="15.4483433"><ele>486.8</ele><time>2026-05-02T08:10:33.977Z</time></trkpt><trkpt lat="40.0508283" lon="15.4482367"><ele>486.0</ele><time>2026-05-02T08:10:34.978Z</time></trkpt><trkpt lat="40.0509" lon="15.4481433"><ele>486.0</ele><time>2026-05-02T08:10:35.978Z</time></trkpt><trkpt lat="40.050985" lon="15.4480583"><ele>486.0</ele><time>2026-05-02T08:10:36.978Z</time></trkpt><trkpt lat="40.0510717" lon="15.4479767"><ele>486.0</ele><time>2026-05-02T08:10:37.977Z</time></trkpt><trkpt lat="40.05116" lon="15.4478983"><ele>486.0</ele><time>2026-05-02T08:10:38.978Z</time></trkpt><trkpt lat="40.0512467" lon="15.4478317"><ele>486.0</ele><time>2026-05-02T08:10:39.977Z</time></trkpt><trkpt lat="40.05133" lon="15.4477583"><ele>486.0</ele><time>2026-05-02T08:10:40.977Z</time></trkpt><trkpt lat="40.0514133" lon="15.4476917"><ele>486.0</ele><time>2026-05-02T08:10:41.977Z</time></trkpt><trkpt lat="40.051495" lon="15.4476183"><ele>486.0</ele><time>2026-05-02T08:10:42.978Z</time></trkpt><trkpt lat="40.0515733" lon="15.44755"><ele>486.0</ele><time>2026-05-02T08:10:43.977Z</time></trkpt><trkpt lat="40.05164" lon="15.4474533"><ele>486.0</ele><time>2026-05-02T08:10:44.978Z</time></trkpt><trkpt lat="40.051675" lon="15.4473333"><ele>486.0</ele><time>2026-05-02T08:10:45.977Z</time></trkpt><trkpt lat="40.0517" lon="15.447205"><ele>486.0</ele><time>2026-05-02T08:10:46.978Z</time></trkpt><trkpt lat="40.05171" lon="15.4470633"><ele>486.0</ele><time>2026-05-02T08:10:47.977Z</time></trkpt><trkpt lat="40.0517017" lon="15.446915"><ele>486.0</ele><time>2026-05-02T08:10:48.978Z</time></trkpt><trkpt lat="40.0516917" lon="15.4467667"><ele>486.0</ele><time>2026-05-02T08:10:49.977Z</time></trkpt><trkpt lat="40.05169" lon="15.446645"><ele>487.4</ele><time>2026-05-02T08:10:50.977Z</time></trkpt><trkpt lat="40.0516467" lon="15.4465067"><ele>488.8</ele><time>2026-05-02T08:10:51.978Z</time></trkpt><trkpt lat="40.0515867" lon="15.4463783"><ele>490.19999999999993</ele><time>2026-05-02T08:10:52.978Z</time></trkpt><trkpt lat="40.0515333" lon="15.44626"><ele>491.59999999999997</ele><time>2026-05-02T08:10:53.977Z</time></trkpt><trkpt lat="40.051485" lon="15.4461367"><ele>493.0</ele><time>2026-05-02T08:10:54.977Z</time></trkpt><trkpt lat="40.0514183" lon="15.4460233"><ele>494.59999999999997</ele><time>2026-05-02T08:10:55.978Z</time></trkpt><trkpt lat="40.0513633" lon="15.4459067"><ele>496.19999999999993</ele><time>2026-05-02T08:10:56.978Z</time></trkpt><trkpt lat="40.0513167" lon="15.4457933"><ele>497.8</ele><time>2026-05-02T08:10:57.977Z</time></trkpt><trkpt lat="40.05126" lon="15.4456867"><ele>499.4</ele><time>2026-05-02T08:10:58.977Z</time></trkpt><trkpt lat="40.051205" lon="15.4455817"><ele>501.0</ele><time>2026-05-02T08:10:59.978Z</time></trkpt><trkpt lat="40.0511567" lon="15.4454733"><ele>501.6</ele><time>2026-05-02T08:11:00.977Z</time></trkpt><trkpt lat="40.0511017" lon="15.4453683"><ele>502.20000000000005</ele><time>2026-05-02T08:11:01.977Z</time></trkpt><trkpt lat="40.0510467" lon="15.4452533"><ele>502.79999999999995</ele><time>2026-05-02T08:11:02.977Z</time></trkpt><trkpt lat="40.051" lon="15.4451367"><ele>503.4</ele><time>2026-05-02T08:11:03.977Z</time></trkpt><trkpt lat="40.0509467" lon="15.44503"><ele>504.0</ele><time>2026-05-02T08:11:04.977Z</time></trkpt><trkpt lat="40.0508917" lon="15.444925"><ele>504.0</ele><time>2026-05-02T08:11:05.977Z</time></trkpt><trkpt lat="40.0508417" lon="15.44481"><ele>504.0</ele><time>2026-05-02T08:11:06.977Z</time></trkpt><trkpt lat="40.05079" lon="15.44469"><ele>504.0</ele><time>2026-05-02T08:11:07.977Z</time></trkpt><trkpt lat="40.05075" lon="15.4445617"><ele>504.0</ele><time>2026-05-02T08:11:08.977Z</time></trkpt><trkpt lat="40.05074" lon="15.4444233"><ele>504.0</ele><time>2026-05-02T08:11:09.977Z</time></trkpt><trkpt lat="40.0507367" lon="15.4442883"><ele>504.0</ele><time>2026-05-02T08:11:10.977Z</time></trkpt><trkpt lat="40.0507317" lon="15.4441583"><ele>504.0</ele><time>2026-05-02T08:11:11.978Z</time></trkpt><trkpt lat="40.0507283" lon="15.4440317"><ele>504.0</ele><time>2026-05-02T08:11:12.977Z</time></trkpt><trkpt lat="40.0507083" lon="15.443905"><ele>504.0</ele><time>2026-05-02T08:11:13.978Z</time></trkpt><trkpt lat="40.0507" lon="15.4437833"><ele>504.0</ele><time>2026-05-02T08:11:14.978Z</time></trkpt><trkpt lat="40.0507033" lon="15.4436633"><ele>504.0</ele><time>2026-05-02T08:11:15.978Z</time></trkpt><trkpt lat="40.050705" lon="15.4435583"><ele>504.0</ele><time>2026-05-02T08:11:16.978Z</time></trkpt><trkpt lat="40.0507117" lon="15.4434683"><ele>504.0</ele><time>2026-05-02T08:11:17.977Z</time></trkpt><trkpt lat="40.0507317" lon="15.4433817"><ele>504.0</ele><time>2026-05-02T08:11:18.978Z</time></trkpt><trkpt lat="40.0507467" lon="15.4432967"><ele>504.0</ele><time>2026-05-02T08:11:19.978Z</time></trkpt><trkpt lat="40.0507683" lon="15.4432083"><ele>504.0</ele><time>2026-05-02T08:11:20.978Z</time></trkpt><trkpt lat="40.050795" lon="15.4431117"><ele>504.0</ele><time>2026-05-02T08:11:21.977Z</time></trkpt><trkpt lat="40.050825" lon="15.443015"><ele>505.8571428571429</ele><time>2026-05-02T08:11:22.977Z</time></trkpt><trkpt lat="40.05085" lon="15.4429117"><ele>507.7142857142857</ele><time>2026-05-02T08:11:23.978Z</time></trkpt><trkpt lat="40.0508667" lon="15.4428033"><ele>509.57142857142856</ele><time>2026-05-02T08:11:24.977Z</time></trkpt><trkpt lat="40.050875" lon="15.4427033"><ele>511.42857142857144</ele><time>2026-05-02T08:11:25.978Z</time></trkpt><trkpt lat="40.0508717" lon="15.44261"><ele>513.2857142857143</ele><time>2026-05-02T08:11:26.978Z</time></trkpt><trkpt lat="40.0508683" lon="15.4425217"><ele>515.1428571428571</ele><time>2026-05-02T08:11:27.978Z</time></trkpt><trkpt lat="40.0508583" lon="15.4424383"><ele>517.0</ele><time>2026-05-02T08:11:28.977Z</time></trkpt><trkpt lat="40.05084" lon="15.442275"><ele>517.0</ele><time>2026-05-02T08:11:30.977Z</time></trkpt><trkpt lat="40.050825" lon="15.442175"><ele>517.0</ele><time>2026-05-02T08:11:31.977Z</time></trkpt><trkpt lat="40.0508167" lon="15.4420667"><ele>517.0</ele><time>2026-05-02T08:11:32.978Z</time></trkpt><trkpt lat="40.0508083" lon="15.44197"><ele>517.0</ele><time>2026-05-02T08:11:33.978Z</time></trkpt><trkpt lat="40.0508" lon="15.4418767"><ele>517.0</ele><time>2026-05-02T08:11:34.978Z</time></trkpt><trkpt lat="40.0508017" lon="15.441785"><ele>517.0</ele><time>2026-05-02T08:11:35.978Z</time></trkpt><trkpt lat="40.05081" lon="15.441685"><ele>517.0</ele><time>2026-05-02T08:11:36.978Z</time></trkpt><trkpt lat="40.0508183" lon="15.441595"><ele>517.0</ele><time>2026-05-02T08:11:37.978Z</time></trkpt><trkpt lat="40.05083" lon="15.4415083"><ele>517.0</ele><time>2026-05-02T08:11:38.977Z</time></trkpt><trkpt lat="40.0508433" lon="15.441425"><ele>517.0</ele><time>2026-05-02T08:11:39.978Z</time></trkpt><trkpt lat="40.0508617" lon="15.441335"><ele>517.0</ele><time>2026-05-02T08:11:40.977Z</time></trkpt><trkpt lat="40.05088" lon="15.4412417"><ele>517.0</ele><time>2026-05-02T08:11:41.977Z</time></trkpt><trkpt lat="40.050905" lon="15.4411533"><ele>517.0</ele><time>2026-05-02T08:11:42.978Z</time></trkpt><trkpt lat="40.050935" lon="15.44106"><ele>517.0</ele><time>2026-05-02T08:11:43.977Z</time></trkpt><trkpt lat="40.050985" lon="15.440965"><ele>517.0</ele><time>2026-05-02T08:11:44.978Z</time></trkpt><trkpt lat="40.05106" lon="15.4408617"><ele>517.0</ele><time>2026-05-02T08:11:45.977Z</time></trkpt><trkpt lat="40.051155" lon="15.4407517"><ele>517.0</ele><time>2026-05-02T08:11:46.978Z</time></trkpt><trkpt lat="40.05126" lon="15.44062"><ele>517.0</ele><time>2026-05-02T08:11:47.978Z</time></trkpt><trkpt lat="40.0513583" lon="15.440495"><ele>517.0</ele><time>2026-05-02T08:11:48.977Z</time></trkpt><trkpt lat="40.0514417" lon="15.4403817"><ele>517.0</ele><time>2026-05-02T08:11:49.978Z</time></trkpt><trkpt lat="40.0515117" lon="15.440285"><ele>517.0</ele><time>2026-05-02T08:11:50.977Z</time></trkpt><trkpt lat="40.0515633" lon="15.440175"><ele>516.8000000000001</ele><time>2026-05-02T08:11:51.978Z</time></trkpt><trkpt lat="40.0516017" lon="15.4400483"><ele>516.6</ele><time>2026-05-02T08:11:52.977Z</time></trkpt><trkpt lat="40.0516317" lon="15.439905"><ele>516.4000000000001</ele><time>2026-05-02T08:11:53.978Z</time></trkpt><trkpt lat="40.051665" lon="15.43977"><ele>516.2</ele><time>2026-05-02T08:11:54.977Z</time></trkpt><trkpt lat="40.051695" lon="15.4396317"><ele>516.0</ele><time>2026-05-02T08:11:55.977Z</time></trkpt><trkpt lat="40.05173" lon="15.439495"><ele>516.0</ele><time>2026-05-02T08:11:56.977Z</time></trkpt><trkpt lat="40.0517667" lon="15.4393517"><ele>516.0</ele><time>2026-05-02T08:11:57.978Z</time></trkpt><trkpt lat="40.0517967" lon="15.4392083"><ele>516.0</ele><time>2026-05-02T08:11:58.978Z</time></trkpt><trkpt lat="40.0518183" lon="15.43906"><ele>516.0</ele><time>2026-05-02T08:11:59.977Z</time></trkpt><trkpt lat="40.0518333" lon="15.4389083"><ele>516.25</ele><time>2026-05-02T08:12:00.977Z</time></trkpt><trkpt lat="40.0518333" lon="15.438755"><ele>516.5</ele><time>2026-05-02T08:12:01.978Z</time></trkpt><trkpt lat="40.0518117" lon="15.4386033"><ele>516.75</ele><time>2026-05-02T08:12:02.977Z</time></trkpt><trkpt lat="40.05177" lon="15.43845"><ele>517.0</ele><time>2026-05-02T08:12:03.977Z</time></trkpt><trkpt lat="40.05171" lon="15.438305"><ele>517.0</ele><time>2026-05-02T08:12:04.977Z</time></trkpt><trkpt lat="40.0516333" lon="15.4381733"><ele>517.0</ele><time>2026-05-02T08:12:05.978Z</time></trkpt><trkpt lat="40.0515433" lon="15.4380383"><ele>517.0</ele><time>2026-05-02T08:12:06.978Z</time></trkpt><trkpt lat="40.0514417" lon="15.437905"><ele>517.0</ele><time>2026-05-02T08:12:07.977Z</time></trkpt><trkpt lat="40.0513467" lon="15.4377783"><ele>515.25</ele><time>2026-05-02T08:12:08.978Z</time></trkpt><trkpt lat="40.0512617" lon="15.43765"><ele>513.5</ele><time>2026-05-02T08:12:09.977Z</time></trkpt><trkpt lat="40.05118" lon="15.4375283"><ele>511.75</ele><time>2026-05-02T08:12:10.978Z</time></trkpt><trkpt lat="40.0510883" lon="15.437405"><ele>510.0</ele><time>2026-05-02T08:12:11.977Z</time></trkpt><trkpt lat="40.0510067" lon="15.4372783"><ele>510.0</ele><time>2026-05-02T08:12:12.977Z</time></trkpt><trkpt lat="40.0509133" lon="15.437145"><ele>510.0</ele><time>2026-05-02T08:12:13.978Z</time></trkpt><trkpt lat="40.0508233" lon="15.4370117"><ele>510.0</ele><time>2026-05-02T08:12:14.977Z</time></trkpt><trkpt lat="40.050735" lon="15.4368767"><ele>510.0</ele><time>2026-05-02T08:12:15.977Z</time></trkpt><trkpt lat="40.0506467" lon="15.4367483"><ele>509.25</ele><time>2026-05-02T08:12:16.977Z</time></trkpt><trkpt lat="40.0505617" lon="15.4366117"><ele>508.5</ele><time>2026-05-02T08:12:17.977Z</time></trkpt><trkpt lat="40.050485" lon="15.43648"><ele>507.75</ele><time>2026-05-02T08:12:18.977Z</time></trkpt><trkpt lat="40.0504083" lon="15.4363533"><ele>507.0</ele><time>2026-05-02T08:12:19.977Z</time></trkpt><trkpt lat="40.050335" lon="15.43623"><ele>507.0</ele><time>2026-05-02T08:12:20.977Z</time></trkpt><trkpt lat="40.05027" lon="15.4361033"><ele>507.0</ele><time>2026-05-02T08:12:21.977Z</time></trkpt><trkpt lat="40.0502017" lon="15.4359783"><ele>507.0</ele><time>2026-05-02T08:12:22.977Z</time></trkpt><trkpt lat="40.0501317" lon="15.4358533"><ele>507.0</ele><time>2026-05-02T08:12:23.978Z</time></trkpt><trkpt lat="40.050065" lon="15.4357217"><ele>507.0</ele><time>2026-05-02T08:12:24.977Z</time></trkpt><trkpt lat="40.0499867" lon="15.435585"><ele>507.0</ele><time>2026-05-02T08:12:25.977Z</time></trkpt><trkpt lat="40.049915" lon="15.4354467"><ele>507.0</ele><time>2026-05-02T08:12:26.977Z</time></trkpt><trkpt lat="40.049835" lon="15.435315"><ele>507.0</ele><time>2026-05-02T08:12:27.977Z</time></trkpt><trkpt lat="40.04975" lon="15.4351883"><ele>504.25</ele><time>2026-05-02T08:12:28.978Z</time></trkpt><trkpt lat="40.0496633" lon="15.435065"><ele>501.5</ele><time>2026-05-02T08:12:29.978Z</time></trkpt><trkpt lat="40.0495833" lon="15.4349383"><ele>498.75</ele><time>2026-05-02T08:12:30.978Z</time></trkpt><trkpt lat="40.0495" lon="15.4348083"><ele>496.0</ele><time>2026-05-02T08:12:31.977Z</time></trkpt><trkpt lat="40.0494183" lon="15.434675"><ele>496.5</ele><time>2026-05-02T08:12:32.977Z</time></trkpt><trkpt lat="40.0493367" lon="15.4345517"><ele>497.0</ele><time>2026-05-02T08:12:33.977Z</time></trkpt><trkpt lat="40.049265" lon="15.4344283"><ele>497.5</ele><time>2026-05-02T08:12:34.977Z</time></trkpt><trkpt lat="40.0491833" lon="15.4343183"><ele>498.0</ele><time>2026-05-02T08:12:35.978Z</time></trkpt><trkpt lat="40.049105" lon="15.4342017"><ele>497.0</ele><time>2026-05-02T08:12:36.978Z</time></trkpt><trkpt lat="40.049025" lon="15.4340883"><ele>496.0</ele><time>2026-05-02T08:12:37.977Z</time></trkpt><trkpt lat="40.048945" lon="15.433975"><ele>495.0</ele><time>2026-05-02T08:12:38.977Z</time></trkpt><trkpt lat="40.048865" lon="15.43387"><ele>494.0</ele><time>2026-05-02T08:12:39.977Z</time></trkpt><trkpt lat="40.0487933" lon="15.4337617"><ele>493.0</ele><time>2026-05-02T08:12:40.978Z</time></trkpt><trkpt lat="40.04873" lon="15.4336467"><ele>492.0</ele><time>2026-05-02T08:12:41.977Z</time></trkpt><trkpt lat="40.0486667" lon="15.433535"><ele>491.0</ele><time>2026-05-02T08:12:42.977Z</time></trkpt><trkpt lat="40.0486" lon="15.43343"><ele>490.0</ele><time>2026-05-02T08:12:43.977Z</time></trkpt><trkpt lat="40.0485317" lon="15.4333233"><ele>489.0</ele><time>2026-05-02T08:12:44.977Z</time></trkpt><trkpt lat="40.04846" lon="15.43321"><ele>489.0</ele><time>2026-05-02T08:12:45.978Z</time></trkpt><trkpt lat="40.04839" lon="15.4330783"><ele>489.0</ele><time>2026-05-02T08:12:46.977Z</time></trkpt><trkpt lat="40.0483233" lon="15.43293"><ele>489.0</ele><time>2026-05-02T08:12:47.978Z</time></trkpt><trkpt lat="40.0482583" lon="15.4327783"><ele>489.0</ele><time>2026-05-02T08:12:48.978Z</time></trkpt><trkpt lat="40.0481983" lon="15.432625"><ele>485.75</ele><time>2026-05-02T08:12:49.977Z</time></trkpt><trkpt lat="40.0481367" lon="15.4324717"><ele>482.5</ele><time>2026-05-02T08:12:50.978Z</time></trkpt><trkpt lat="40.0480683" lon="15.43232"><ele>479.25</ele><time>2026-05-02T08:12:51.978Z</time></trkpt><trkpt lat="40.0480033" lon="15.43217"><ele>476.0</ele><time>2026-05-02T08:12:52.977Z</time></trkpt><trkpt lat="40.0479433" lon="15.43202"><ele>476.0</ele><time>2026-05-02T08:12:53.977Z</time></trkpt><trkpt lat="40.0478833" lon="15.4318633"><ele>476.0</ele><time>2026-05-02T08:12:54.977Z</time></trkpt><trkpt lat="40.047805" lon="15.431725"><ele>476.0</ele><time>2026-05-02T08:12:55.977Z</time></trkpt><trkpt lat="40.0477167" lon="15.4316033"><ele>476.0</ele><time>2026-05-02T08:12:56.978Z</time></trkpt><trkpt lat="40.0476167" lon="15.4315033"><ele>476.0</ele><time>2026-05-02T08:12:57.978Z</time></trkpt><trkpt lat="40.0475267" lon="15.4314117"><ele>476.0</ele><time>2026-05-02T08:12:58.977Z</time></trkpt><trkpt lat="40.047435" lon="15.4313083"><ele>476.0</ele><time>2026-05-02T08:12:59.977Z</time></trkpt><trkpt lat="40.0473583" lon="15.4311883"><ele>476.0</ele><time>2026-05-02T08:13:00.977Z</time></trkpt><trkpt lat="40.0473083" lon="15.431025"><ele>472.5</ele><time>2026-05-02T08:13:01.978Z</time></trkpt><trkpt lat="40.0473083" lon="15.430845"><ele>469.0</ele><time>2026-05-02T08:13:02.978Z</time></trkpt><trkpt lat="40.047335" lon="15.4306583"><ele>465.5</ele><time>2026-05-02T08:13:03.977Z</time></trkpt><trkpt lat="40.047375" lon="15.4304867"><ele>462.0</ele><time>2026-05-02T08:13:04.977Z</time></trkpt><trkpt lat="40.0474133" lon="15.4303167"><ele>461.0</ele><time>2026-05-02T08:13:05.978Z</time></trkpt><trkpt lat="40.0474483" lon="15.4301567"><ele>460.0</ele><time>2026-05-02T08:13:06.978Z</time></trkpt><trkpt lat="40.0474833" lon="15.4300067"><ele>459.0</ele><time>2026-05-02T08:13:07.977Z</time></trkpt><trkpt lat="40.0475017" lon="15.4298517"><ele>458.0</ele><time>2026-05-02T08:13:08.977Z</time></trkpt><trkpt lat="40.0475017" lon="15.429695"><ele>458.5</ele><time>2026-05-02T08:13:09.977Z</time></trkpt><trkpt lat="40.047495" lon="15.4295367"><ele>459.0</ele><time>2026-05-02T08:13:10.977Z</time></trkpt><trkpt lat="40.0474633" lon="15.42938"><ele>459.5</ele><time>2026-05-02T08:13:11.978Z</time></trkpt><trkpt lat="40.0473983" lon="15.4292367"><ele>460.0</ele><time>2026-05-02T08:13:12.977Z</time></trkpt><trkpt lat="40.0473117" lon="15.4291067"><ele>460.0</ele><time>2026-05-02T08:13:13.977Z</time></trkpt><trkpt lat="40.0472383" lon="15.4289833"><ele>460.0</ele><time>2026-05-02T08:13:14.978Z</time></trkpt><trkpt lat="40.047165" lon="15.4288833"><ele>460.0</ele><time>2026-05-02T08:13:15.978Z</time></trkpt><trkpt lat="40.04708" lon="15.42881"><ele>460.0</ele><time>2026-05-02T08:13:16.978Z</time></trkpt><trkpt lat="40.047" lon="15.4287583"><ele>460.0</ele><time>2026-05-02T08:13:17.977Z</time></trkpt><trkpt lat="40.046905" lon="15.4287383"><ele>460.0</ele><time>2026-05-02T08:13:18.978Z</time></trkpt><trkpt lat="40.0468033" lon="15.4287083"><ele>460.0</ele><time>2026-05-02T08:13:19.977Z</time></trkpt><trkpt lat="40.046685" lon="15.4286633"><ele>460.0</ele><time>2026-05-02T08:13:20.978Z</time></trkpt><trkpt lat="40.04657" lon="15.4286083"><ele>460.0</ele><time>2026-05-02T08:13:21.977Z</time></trkpt><trkpt lat="40.0464733" lon="15.4285333"><ele>460.0</ele><time>2026-05-02T08:13:22.977Z</time></trkpt><trkpt lat="40.0463717" lon="15.428455"><ele>460.0</ele><time>2026-05-02T08:13:23.977Z</time></trkpt><trkpt lat="40.0462683" lon="15.428365"><ele>460.0</ele><time>2026-05-02T08:13:24.977Z</time></trkpt><trkpt lat="40.0461717" lon="15.4282867"><ele>460.0</ele><time>2026-05-02T08:13:25.978Z</time></trkpt><trkpt lat="40.0460733" lon="15.4282"><ele>460.0</ele><time>2026-05-02T08:13:26.977Z</time></trkpt><trkpt lat="40.04598" lon="15.4281167"><ele>460.0</ele><time>2026-05-02T08:13:27.978Z</time></trkpt><trkpt lat="40.0458833" lon="15.4280433"><ele>460.0</ele><time>2026-05-02T08:13:28.977Z</time></trkpt><trkpt lat="40.0457717" lon="15.4279917"><ele>460.0</ele><time>2026-05-02T08:13:29.977Z</time></trkpt><trkpt lat="40.0456617" lon="15.4279533"><ele>462.0</ele><time>2026-05-02T08:13:30.977Z</time></trkpt><trkpt lat="40.0455317" lon="15.4279317"><ele>464.0</ele><time>2026-05-02T08:13:31.977Z</time></trkpt><trkpt lat="40.0453917" lon="15.4279117"><ele>466.0</ele><time>2026-05-02T08:13:32.977Z</time></trkpt><trkpt lat="40.0452633" lon="15.4278867"><ele>468.0</ele><time>2026-05-02T08:13:33.978Z</time></trkpt><trkpt lat="40.045135" lon="15.4278583"><ele>468.0</ele><time>2026-05-02T08:13:34.978Z</time></trkpt><trkpt lat="40.0450167" lon="15.427815"><ele>468.0</ele><time>2026-05-02T08:13:35.977Z</time></trkpt><trkpt lat="40.044915" lon="15.42777"><ele>468.0</ele><time>2026-05-02T08:13:36.978Z</time></trkpt><trkpt lat="40.0448083" lon="15.4277217"><ele>468.0</ele><time>2026-05-02T08:13:37.977Z</time></trkpt><trkpt lat="40.0446933" lon="15.4276683"><ele>464.59999999999997</ele><time>2026-05-02T08:13:38.977Z</time></trkpt><trkpt lat="40.0445917" lon="15.4276167"><ele>461.19999999999993</ele><time>2026-05-02T08:13:39.977Z</time></trkpt><trkpt lat="40.0444983" lon="15.4275517"><ele>457.8</ele><time>2026-05-02T08:13:40.977Z</time></trkpt><trkpt lat="40.0444133" lon="15.427485"><ele>454.4</ele><time>2026-05-02T08:13:41.978Z</time></trkpt><trkpt lat="40.044345" lon="15.4273883"><ele>451.0</ele><time>2026-05-02T08:13:42.977Z</time></trkpt><trkpt lat="40.0443" lon="15.42727"><ele>453.4</ele><time>2026-05-02T08:13:43.977Z</time></trkpt><trkpt lat="40.0442617" lon="15.4271433"><ele>455.8</ele><time>2026-05-02T08:13:44.977Z</time></trkpt><trkpt lat="40.0442417" lon="15.42701"><ele>458.19999999999993</ele><time>2026-05-02T08:13:45.978Z</time></trkpt><trkpt lat="40.0442217" lon="15.4268833"><ele>460.59999999999997</ele><time>2026-05-02T08:13:46.978Z</time></trkpt><trkpt lat="40.0441983" lon="15.42677"><ele>463.0</ele><time>2026-05-02T08:13:47.977Z</time></trkpt><trkpt lat="40.0441733" lon="15.4266583"><ele>463.00000000000006</ele><time>2026-05-02T08:13:48.977Z</time></trkpt><trkpt lat="40.0441367" lon="15.4265517"><ele>463.0</ele><time>2026-05-02T08:13:49.978Z</time></trkpt><trkpt lat="40.0440983" lon="15.4264667"><ele>463.0</ele><time>2026-05-02T08:13:50.978Z</time></trkpt><trkpt lat="40.0440367" lon="15.4263933"><ele>463.0</ele><time>2026-05-02T08:13:51.977Z</time></trkpt><trkpt lat="40.04396" lon="15.426335"><ele>463.00000000000006</ele><time>2026-05-02T08:13:52.978Z</time></trkpt><trkpt lat="40.04387" lon="15.42629"><ele>463.0</ele><time>2026-05-02T08:13:53.977Z</time></trkpt><trkpt lat="40.0437683" lon="15.42625"><ele>463.5</ele><time>2026-05-02T08:13:54.977Z</time></trkpt><trkpt lat="40.0436583" lon="15.426205"><ele>464.0</ele><time>2026-05-02T08:13:55.977Z</time></trkpt><trkpt lat="40.04355" lon="15.4261583"><ele>464.5</ele><time>2026-05-02T08:13:56.977Z</time></trkpt><trkpt lat="40.0434417" lon="15.4261033"><ele>465.0</ele><time>2026-05-02T08:13:57.977Z</time></trkpt><trkpt lat="40.0433367" lon="15.4260517"><ele>464.75</ele><time>2026-05-02T08:13:58.978Z</time></trkpt><trkpt lat="40.0432267" lon="15.4259917"><ele>464.5</ele><time>2026-05-02T08:13:59.977Z</time></trkpt><trkpt lat="40.04311" lon="15.42593"><ele>464.25</ele><time>2026-05-02T08:14:00.977Z</time></trkpt><trkpt lat="40.0429983" lon="15.4258667"><ele>464.0</ele><time>2026-05-02T08:14:01.978Z</time></trkpt><trkpt lat="40.0428883" lon="15.42578"><ele>464.0</ele><time>2026-05-02T08:14:02.977Z</time></trkpt><trkpt lat="40.0427883" lon="15.4256883"><ele>464.0</ele><time>2026-05-02T08:14:03.978Z</time></trkpt><trkpt lat="40.042695" lon="15.4255867"><ele>464.0</ele><time>2026-05-02T08:14:04.977Z</time></trkpt><trkpt lat="40.0426" lon="15.4254917"><ele>464.0</ele><time>2026-05-02T08:14:05.977Z</time></trkpt><trkpt lat="40.0425" lon="15.4253883"><ele>463.25</ele><time>2026-05-02T08:14:06.977Z</time></trkpt><trkpt lat="40.04242" lon="15.425285"><ele>462.5</ele><time>2026-05-02T08:14:07.978Z</time></trkpt><trkpt lat="40.0423517" lon="15.4251667"><ele>461.75</ele><time>2026-05-02T08:14:08.978Z</time></trkpt><trkpt lat="40.04229" lon="15.42504"><ele>461.0</ele><time>2026-05-02T08:14:09.978Z</time></trkpt><trkpt lat="40.04224" lon="15.42491"><ele>461.0</ele><time>2026-05-02T08:14:10.978Z</time></trkpt><trkpt lat="40.0421867" lon="15.42477"><ele>461.0</ele><time>2026-05-02T08:14:11.978Z</time></trkpt><trkpt lat="40.0421333" lon="15.4246383"><ele>461.0</ele><time>2026-05-02T08:14:12.978Z</time></trkpt><trkpt lat="40.042085" lon="15.424495"><ele>461.0</ele><time>2026-05-02T08:14:13.977Z</time></trkpt><trkpt lat="40.04203" lon="15.424345"><ele>463.25</ele><time>2026-05-02T08:14:14.977Z</time></trkpt><trkpt lat="40.04197" lon="15.424195"><ele>465.5</ele><time>2026-05-02T08:14:15.978Z</time></trkpt><trkpt lat="40.041905" lon="15.424065"><ele>467.75</ele><time>2026-05-02T08:14:16.978Z</time></trkpt><trkpt lat="40.041845" lon="15.423945"><ele>470.0</ele><time>2026-05-02T08:14:17.977Z</time></trkpt><trkpt lat="40.0417683" lon="15.4238333"><ele>467.5</ele><time>2026-05-02T08:14:18.977Z</time></trkpt><trkpt lat="40.0416817" lon="15.4237283"><ele>465.0</ele><time>2026-05-02T08:14:19.977Z</time></trkpt><trkpt lat="40.0415833" lon="15.4236367"><ele>462.5</ele><time>2026-05-02T08:14:20.977Z</time></trkpt><trkpt lat="40.0415" lon="15.4235417"><ele>460.0</ele><time>2026-05-02T08:14:21.977Z</time></trkpt><trkpt lat="40.0414083" lon="15.4234517"><ele>460.0</ele><time>2026-05-02T08:14:22.977Z</time></trkpt><trkpt lat="40.0413167" lon="15.4233567"><ele>460.0</ele><time>2026-05-02T08:14:23.977Z</time></trkpt><trkpt lat="40.0412333" lon="15.4232583"><ele>460.0</ele><time>2026-05-02T08:14:24.978Z</time></trkpt><trkpt lat="40.04116" lon="15.4231583"><ele>460.0</ele><time>2026-05-02T08:14:25.978Z</time></trkpt><trkpt lat="40.0410983" lon="15.42306"><ele>460.0</ele><time>2026-05-02T08:14:26.978Z</time></trkpt><trkpt lat="40.04105" lon="15.4229433"><ele>462.8</ele><time>2026-05-02T08:14:27.978Z</time></trkpt><trkpt lat="40.04102" lon="15.4228167"><ele>465.6</ele><time>2026-05-02T08:14:28.977Z</time></trkpt><trkpt lat="40.0410017" lon="15.4226867"><ele>468.4</ele><time>2026-05-02T08:14:29.977Z</time></trkpt><trkpt lat="40.041" lon="15.4225533"><ele>471.2</ele><time>2026-05-02T08:14:30.977Z</time></trkpt><trkpt lat="40.0410183" lon="15.42242"><ele>474.0</ele><time>2026-05-02T08:14:31.977Z</time></trkpt><trkpt lat="40.0410333" lon="15.4222917"><ele>474.0</ele><time>2026-05-02T08:14:32.978Z</time></trkpt><trkpt lat="40.0410267" lon="15.4221717"><ele>474.0</ele><time>2026-05-02T08:14:33.977Z</time></trkpt><trkpt lat="40.04099" lon="15.42207"><ele>474.0</ele><time>2026-05-02T08:14:34.978Z</time></trkpt><trkpt lat="40.0409383" lon="15.4219733"><ele>474.0</ele><time>2026-05-02T08:14:35.977Z</time></trkpt><trkpt lat="40.0408767" lon="15.421895"><ele>474.0</ele><time>2026-05-02T08:14:36.977Z</time></trkpt><trkpt lat="40.040775" lon="15.4218533"><ele>472.0</ele><time>2026-05-02T08:14:37.977Z</time></trkpt><trkpt lat="40.0406383" lon="15.4218317"><ele>470.0</ele><time>2026-05-02T08:14:38.978Z</time></trkpt><trkpt lat="40.040505" lon="15.4217967"><ele>468.0</ele><time>2026-05-02T08:14:39.978Z</time></trkpt><trkpt lat="40.0403967" lon="15.421735"><ele>466.0</ele><time>2026-05-02T08:14:40.977Z</time></trkpt><trkpt lat="40.04032" lon="15.4216583"><ele>466.0</ele><time>2026-05-02T08:14:41.977Z</time></trkpt><trkpt lat="40.0402583" lon="15.42155"><ele>466.0</ele><time>2026-05-02T08:14:42.978Z</time></trkpt><trkpt lat="40.0402033" lon="15.42143"><ele>466.0</ele><time>2026-05-02T08:14:43.977Z</time></trkpt><trkpt lat="40.0401467" lon="15.421315"><ele>466.0</ele><time>2026-05-02T08:14:44.977Z</time></trkpt><trkpt lat="40.0401" lon="15.4212067"><ele>466.0</ele><time>2026-05-02T08:14:45.978Z</time></trkpt><trkpt lat="40.0400517" lon="15.421085"><ele>465.5</ele><time>2026-05-02T08:14:46.977Z</time></trkpt><trkpt lat="40.0399883" lon="15.4209617"><ele>465.0</ele><time>2026-05-02T08:14:47.978Z</time></trkpt><trkpt lat="40.0399183" lon="15.4208267"><ele>464.5</ele><time>2026-05-02T08:14:48.977Z</time></trkpt><trkpt lat="40.03984" lon="15.4206733"><ele>464.0</ele><time>2026-05-02T08:14:49.978Z</time></trkpt><trkpt lat="40.0397617" lon="15.420525"><ele>467.0</ele><time>2026-05-02T08:14:50.978Z</time></trkpt><trkpt lat="40.0396883" lon="15.42039"><ele>470.0</ele><time>2026-05-02T08:14:51.977Z</time></trkpt><trkpt lat="40.0396267" lon="15.4202683"><ele>473.0</ele><time>2026-05-02T08:14:52.977Z</time></trkpt><trkpt lat="40.0395883" lon="15.4201433"><ele>476.0</ele><time>2026-05-02T08:14:53.977Z</time></trkpt><trkpt lat="40.0395433" lon="15.42001"><ele>476.0</ele><time>2026-05-02T08:14:54.977Z</time></trkpt><trkpt lat="40.0395033" lon="15.4198633"><ele>476.0</ele><time>2026-05-02T08:14:55.977Z</time></trkpt><trkpt lat="40.03947" lon="15.419715"><ele>476.0</ele><time>2026-05-02T08:14:56.977Z</time></trkpt><trkpt lat="40.039435" lon="15.419575"><ele>476.0</ele><time>2026-05-02T08:14:57.977Z</time></trkpt><trkpt lat="40.03942" lon="15.419435"><ele>479.20000000000005</ele><time>2026-05-02T08:14:58.977Z</time></trkpt><trkpt lat="40.0394133" lon="15.4193"><ele>482.40000000000003</ele><time>2026-05-02T08:14:59.977Z</time></trkpt><trkpt lat="40.0394183" lon="15.4191683"><ele>485.6</ele><time>2026-05-02T08:15:00.977Z</time></trkpt><trkpt lat="40.0393833" lon="15.4190567"><ele>488.8</ele><time>2026-05-02T08:15:01.977Z</time></trkpt><trkpt lat="40.039315" lon="15.4189583"><ele>492.0</ele><time>2026-05-02T08:15:02.977Z</time></trkpt><trkpt lat="40.0392117" lon="15.4188783"><ele>491.25</ele><time>2026-05-02T08:15:03.978Z</time></trkpt><trkpt lat="40.0390933" lon="15.4188267"><ele>490.5</ele><time>2026-05-02T08:15:04.977Z</time></trkpt><trkpt lat="40.0389867" lon="15.418775"><ele>489.75</ele><time>2026-05-02T08:15:05.978Z</time></trkpt><trkpt lat="40.0388833" lon="15.4187117"><ele>489.0</ele><time>2026-05-02T08:15:06.977Z</time></trkpt><trkpt lat="40.0387917" lon="15.418625"><ele>489.0</ele><time>2026-05-02T08:15:07.977Z</time></trkpt><trkpt lat="40.0387" lon="15.4185067"><ele>489.0</ele><time>2026-05-02T08:15:08.978Z</time></trkpt><trkpt lat="40.03861" lon="15.418365"><ele>489.0</ele><time>2026-05-02T08:15:09.977Z</time></trkpt><trkpt lat="40.0385283" lon="15.4182167"><ele>489.0</ele><time>2026-05-02T08:15:10.977Z</time></trkpt><trkpt lat="40.0384333" lon="15.4180733"><ele>488.25</ele><time>2026-05-02T08:15:11.977Z</time></trkpt><trkpt lat="40.0383633" lon="15.417925"><ele>487.5</ele><time>2026-05-02T08:15:12.977Z</time></trkpt><trkpt lat="40.03829" lon="15.4177783"><ele>486.75</ele><time>2026-05-02T08:15:13.978Z</time></trkpt><trkpt lat="40.03821" lon="15.41764"><ele>486.0</ele><time>2026-05-02T08:15:14.977Z</time></trkpt><trkpt lat="40.0381383" lon="15.417505"><ele>486.0</ele><time>2026-05-02T08:15:15.977Z</time></trkpt><trkpt lat="40.0380667" lon="15.4173633"><ele>486.0</ele><time>2026-05-02T08:15:16.977Z</time></trkpt><trkpt lat="40.038" lon="15.4172183"><ele>486.0</ele><time>2026-05-02T08:15:17.978Z</time></trkpt><trkpt lat="40.0379233" lon="15.417075"><ele>486.0</ele><time>2026-05-02T08:15:18.977Z</time></trkpt><trkpt lat="40.0378467" lon="15.41693"><ele>488.75</ele><time>2026-05-02T08:15:19.978Z</time></trkpt><trkpt lat="40.037765" lon="15.41678"><ele>491.5</ele><time>2026-05-02T08:15:20.977Z</time></trkpt><trkpt lat="40.0376767" lon="15.4166383"><ele>494.25</ele><time>2026-05-02T08:15:21.977Z</time></trkpt><trkpt lat="40.0375933" lon="15.416495"><ele>497.0</ele><time>2026-05-02T08:15:22.977Z</time></trkpt><trkpt lat="40.037515" lon="15.416345"><ele>497.0</ele><time>2026-05-02T08:15:23.977Z</time></trkpt><trkpt lat="40.0374283" lon="15.416195"><ele>497.0</ele><time>2026-05-02T08:15:24.977Z</time></trkpt><trkpt lat="40.0373383" lon="15.4160517"><ele>497.0</ele><time>2026-05-02T08:15:25.978Z</time></trkpt><trkpt lat="40.03725" lon="15.4159217"><ele>497.0</ele><time>2026-05-02T08:15:26.978Z</time></trkpt><trkpt lat="40.0371367" lon="15.415805"><ele>497.0</ele><time>2026-05-02T08:15:27.978Z</time></trkpt><trkpt lat="40.0370167" lon="15.4156917"><ele>497.0</ele><time>2026-05-02T08:15:28.977Z</time></trkpt><trkpt lat="40.036895" lon="15.4155783"><ele>497.0</ele><time>2026-05-02T08:15:29.978Z</time></trkpt><trkpt lat="40.0367767" lon="15.4154583"><ele>497.0</ele><time>2026-05-02T08:15:30.977Z</time></trkpt><trkpt lat="40.0366733" lon="15.4153517"><ele>500.5</ele><time>2026-05-02T08:15:31.978Z</time></trkpt><trkpt lat="40.0365833" lon="15.4152367"><ele>504.0</ele><time>2026-05-02T08:15:32.977Z</time></trkpt><trkpt lat="40.036515" lon="15.41511"><ele>507.5</ele><time>2026-05-02T08:15:33.977Z</time></trkpt><trkpt lat="40.0364617" lon="15.4149783"><ele>511.0</ele><time>2026-05-02T08:15:34.978Z</time></trkpt><trkpt lat="40.0364233" lon="15.4148433"><ele>511.0</ele><time>2026-05-02T08:15:35.977Z</time></trkpt><trkpt lat="40.0363867" lon="15.414735"><ele>511.0</ele><time>2026-05-02T08:15:36.977Z</time></trkpt><trkpt lat="40.0363217" lon="15.4146533"><ele>511.0</ele><time>2026-05-02T08:15:37.977Z</time></trkpt><trkpt lat="40.0362333" lon="15.4146183"><ele>511.0</ele><time>2026-05-02T08:15:38.977Z</time></trkpt><trkpt lat="40.036125" lon="15.4146533"><ele>511.0</ele><time>2026-05-02T08:15:39.977Z</time></trkpt><trkpt lat="40.03603" lon="15.41474"><ele>511.0</ele><time>2026-05-02T08:15:40.977Z</time></trkpt><trkpt lat="40.0359633" lon="15.4148883"><ele>511.0</ele><time>2026-05-02T08:15:41.977Z</time></trkpt><trkpt lat="40.0359317" lon="15.4150367"><ele>511.0</ele><time>2026-05-02T08:15:42.978Z</time></trkpt><trkpt lat="40.0358933" lon="15.415155"><ele>511.0</ele><time>2026-05-02T08:15:43.977Z</time></trkpt><trkpt lat="40.03583" lon="15.4152367"><ele>511.0</ele><time>2026-05-02T08:15:44.977Z</time></trkpt><trkpt lat="40.0357383" lon="15.4152817"><ele>512.8</ele><time>2026-05-02T08:15:45.977Z</time></trkpt><trkpt lat="40.0356333" lon="15.4152833"><ele>514.6</ele><time>2026-05-02T08:15:46.978Z</time></trkpt><trkpt lat="40.0355267" lon="15.4152717"><ele>516.4</ele><time>2026-05-02T08:15:47.978Z</time></trkpt><trkpt lat="40.03542" lon="15.4152533"><ele>518.2</ele><time>2026-05-02T08:15:48.977Z</time></trkpt><trkpt lat="40.0353067" lon="15.415245"><ele>520.0</ele><time>2026-05-02T08:15:49.977Z</time></trkpt><trkpt lat="40.0351867" lon="15.4152333"><ele>520.0</ele><time>2026-05-02T08:15:50.977Z</time></trkpt><trkpt lat="40.035065" lon="15.4152167"><ele>520.0</ele><time>2026-05-02T08:15:51.977Z</time></trkpt><trkpt lat="40.0349517" lon="15.4151967"><ele>520.0</ele><time>2026-05-02T08:15:52.978Z</time></trkpt><trkpt lat="40.03485" lon="15.4152"><ele>520.0</ele><time>2026-05-02T08:15:53.978Z</time></trkpt><trkpt lat="40.0347467" lon="15.41525"><ele>520.0</ele><time>2026-05-02T08:15:54.978Z</time></trkpt><trkpt lat="40.0346417" lon="15.4153317"><ele>519.5</ele><time>2026-05-02T08:15:55.977Z</time></trkpt><trkpt lat="40.0345567" lon="15.4154433"><ele>519.0</ele><time>2026-05-02T08:15:56.977Z</time></trkpt><trkpt lat="40.0344983" lon="15.4155767"><ele>518.5</ele><time>2026-05-02T08:15:57.977Z</time></trkpt><trkpt lat="40.0344683" lon="15.415715"><ele>518.0</ele><time>2026-05-02T08:15:58.978Z</time></trkpt><trkpt lat="40.0344533" lon="15.4158467"><ele>518.0</ele><time>2026-05-02T08:15:59.977Z</time></trkpt><trkpt lat="40.0344267" lon="15.4159667"><ele>518.0</ele><time>2026-05-02T08:16:00.977Z</time></trkpt><trkpt lat="40.0343767" lon="15.41607"><ele>518.0</ele><time>2026-05-02T08:16:01.977Z</time></trkpt><trkpt lat="40.03431" lon="15.4161417"><ele>518.0</ele><time>2026-05-02T08:16:02.977Z</time></trkpt><trkpt lat="40.0342167" lon="15.4162017"><ele>518.0</ele><time>2026-05-02T08:16:03.977Z</time></trkpt><trkpt lat="40.03411" lon="15.4162467"><ele>517.75</ele><time>2026-05-02T08:16:04.977Z</time></trkpt><trkpt lat="40.0339967" lon="15.4162933"><ele>517.5</ele><time>2026-05-02T08:16:05.977Z</time></trkpt><trkpt lat="40.0338733" lon="15.4163283"><ele>517.25</ele><time>2026-05-02T08:16:06.977Z</time></trkpt><trkpt lat="40.033755" lon="15.4163667"><ele>517.0</ele><time>2026-05-02T08:16:07.977Z</time></trkpt><trkpt lat="40.0336283" lon="15.4164183"><ele>517.0</ele><time>2026-05-02T08:16:08.977Z</time></trkpt><trkpt lat="40.03349" lon="15.4164683"><ele>517.0</ele><time>2026-05-02T08:16:09.978Z</time></trkpt><trkpt lat="40.03335" lon="15.416505"><ele>517.0</ele><time>2026-05-02T08:16:10.978Z</time></trkpt><trkpt lat="40.0332133" lon="15.4165217"><ele>517.0</ele><time>2026-05-02T08:16:11.977Z</time></trkpt><trkpt lat="40.0330783" lon="15.41652"><ele>518.75</ele><time>2026-05-02T08:16:12.978Z</time></trkpt><trkpt lat="40.032945" lon="15.4165083"><ele>520.5</ele><time>2026-05-02T08:16:13.978Z</time></trkpt><trkpt lat="40.0328183" lon="15.4165017"><ele>522.25</ele><time>2026-05-02T08:16:14.977Z</time></trkpt><trkpt lat="40.0327" lon="15.4164817"><ele>524.0</ele><time>2026-05-02T08:16:15.977Z</time></trkpt><trkpt lat="40.03259" lon="15.41644"><ele>524.0</ele><time>2026-05-02T08:16:16.977Z</time></trkpt><trkpt lat="40.0324917" lon="15.4163667"><ele>524.0</ele><time>2026-05-02T08:16:17.977Z</time></trkpt><trkpt lat="40.032405" lon="15.4162533"><ele>524.0</ele><time>2026-05-02T08:16:18.977Z</time></trkpt><trkpt lat="40.0323283" lon="15.4161133"><ele>524.0</ele><time>2026-05-02T08:16:19.977Z</time></trkpt><trkpt lat="40.0322517" lon="15.4159667"><ele>521.25</ele><time>2026-05-02T08:16:20.977Z</time></trkpt><trkpt lat="40.03218" lon="15.4158183"><ele>518.5</ele><time>2026-05-02T08:16:21.977Z</time></trkpt><trkpt lat="40.032115" lon="15.41566"><ele>515.75</ele><time>2026-05-02T08:16:22.977Z</time></trkpt><trkpt lat="40.0320567" lon="15.4155117"><ele>513.0</ele><time>2026-05-02T08:16:23.977Z</time></trkpt><trkpt lat="40.032" lon="15.4153617"><ele>513.0</ele><time>2026-05-02T08:16:24.977Z</time></trkpt><trkpt lat="40.0319333" lon="15.4152217"><ele>513.0</ele><time>2026-05-02T08:16:25.977Z</time></trkpt><trkpt lat="40.0318467" lon="15.4150933"><ele>513.0</ele><time>2026-05-02T08:16:26.977Z</time></trkpt><trkpt lat="40.0317383" lon="15.4149867"><ele>513.0</ele><time>2026-05-02T08:16:27.978Z</time></trkpt><trkpt lat="40.0316167" lon="15.4149033"><ele>512.0</ele><time>2026-05-02T08:16:28.978Z</time></trkpt><trkpt lat="40.031485" lon="15.4148367"><ele>511.0</ele><time>2026-05-02T08:16:29.977Z</time></trkpt><trkpt lat="40.0313517" lon="15.4147767"><ele>510.0</ele><time>2026-05-02T08:16:30.977Z</time></trkpt><trkpt lat="40.0312267" lon="15.414715"><ele>509.0</ele><time>2026-05-02T08:16:31.977Z</time></trkpt><trkpt lat="40.03111" lon="15.4146467"><ele>509.0</ele><time>2026-05-02T08:16:32.977Z</time></trkpt><trkpt lat="40.0309967" lon="15.4145683"><ele>509.0</ele><time>2026-05-02T08:16:33.977Z</time></trkpt><trkpt lat="40.0308933" lon="15.4144683"><ele>509.0</ele><time>2026-05-02T08:16:34.978Z</time></trkpt><trkpt lat="40.0307967" lon="15.4143517"><ele>509.0</ele><time>2026-05-02T08:16:35.977Z</time></trkpt><trkpt lat="40.0307067" lon="15.41421"><ele>507.5</ele><time>2026-05-02T08:16:36.977Z</time></trkpt><trkpt lat="40.03062" lon="15.4140767"><ele>506.0</ele><time>2026-05-02T08:16:37.977Z</time></trkpt><trkpt lat="40.030535" lon="15.4139483"><ele>504.5</ele><time>2026-05-02T08:16:38.978Z</time></trkpt><trkpt lat="40.0304367" lon="15.413845"><ele>503.0</ele><time>2026-05-02T08:16:39.977Z</time></trkpt><trkpt lat="40.03033" lon="15.4137733"><ele>503.0</ele><time>2026-05-02T08:16:40.977Z</time></trkpt><trkpt lat="40.030215" lon="15.4137033"><ele>503.0</ele><time>2026-05-02T08:16:41.978Z</time></trkpt><trkpt lat="40.0301033" lon="15.4136383"><ele>503.0</ele><time>2026-05-02T08:16:42.977Z</time></trkpt><trkpt lat="40.0299983" lon="15.41357"><ele>503.0</ele><time>2026-05-02T08:16:43.978Z</time></trkpt><trkpt lat="40.0299017" lon="15.413505"><ele>500.79999999999995</ele><time>2026-05-02T08:16:44.978Z</time></trkpt><trkpt lat="40.0298" lon="15.413445"><ele>498.59999999999997</ele><time>2026-05-02T08:16:45.977Z</time></trkpt><trkpt lat="40.0296917" lon="15.4134017"><ele>496.40000000000003</ele><time>2026-05-02T08:16:46.977Z</time></trkpt><trkpt lat="40.02959" lon="15.4133767"><ele>494.20000000000005</ele><time>2026-05-02T08:16:47.978Z</time></trkpt><trkpt lat="40.0294867" lon="15.4133817"><ele>492.0</ele><time>2026-05-02T08:16:48.977Z</time></trkpt><trkpt lat="40.0293783" lon="15.4134167"><ele>492.0</ele><time>2026-05-02T08:16:49.978Z</time></trkpt><trkpt lat="40.0292683" lon="15.4134783"><ele>492.0</ele><time>2026-05-02T08:16:50.978Z</time></trkpt><trkpt lat="40.029155" lon="15.4135417"><ele>492.0</ele><time>2026-05-02T08:16:51.977Z</time></trkpt><trkpt lat="40.0290433" lon="15.41362"><ele>492.0</ele><time>2026-05-02T08:16:52.977Z</time></trkpt><trkpt lat="40.02893" lon="15.413735"><ele>491.0</ele><time>2026-05-02T08:16:53.977Z</time></trkpt><trkpt lat="40.0288333" lon="15.4138733"><ele>490.0</ele><time>2026-05-02T08:16:54.977Z</time></trkpt><trkpt lat="40.0287583" lon="15.4140417"><ele>489.0</ele><time>2026-05-02T08:16:55.977Z</time></trkpt><trkpt lat="40.0287183" lon="15.4142133"><ele>488.0</ele><time>2026-05-02T08:16:56.977Z</time></trkpt><trkpt lat="40.028715" lon="15.4144"><ele>488.0</ele><time>2026-05-02T08:16:57.977Z</time></trkpt><trkpt lat="40.0287233" lon="15.4146"><ele>488.0</ele><time>2026-05-02T08:16:58.977Z</time></trkpt><trkpt lat="40.0287333" lon="15.4147667"><ele>488.0</ele><time>2026-05-02T08:16:59.977Z</time></trkpt><trkpt lat="40.0287233" lon="15.4149233"><ele>488.0</ele><time>2026-05-02T08:17:00.977Z</time></trkpt><trkpt lat="40.0286867" lon="15.4150783"><ele>485.25</ele><time>2026-05-02T08:17:01.977Z</time></trkpt><trkpt lat="40.0286267" lon="15.4152017"><ele>482.5</ele><time>2026-05-02T08:17:02.977Z</time></trkpt><trkpt lat="40.02854" lon="15.415305"><ele>479.75</ele><time>2026-05-02T08:17:03.977Z</time></trkpt><trkpt lat="40.0284417" lon="15.4153883"><ele>477.0</ele><time>2026-05-02T08:17:04.977Z</time></trkpt><trkpt lat="40.028335" lon="15.4154317"><ele>473.8</ele><time>2026-05-02T08:17:05.978Z</time></trkpt><trkpt lat="40.0282283" lon="15.41544"><ele>470.6</ele><time>2026-05-02T08:17:06.977Z</time></trkpt><trkpt lat="40.028125" lon="15.4154183"><ele>467.40000000000003</ele><time>2026-05-02T08:17:07.978Z</time></trkpt><trkpt lat="40.0280317" lon="15.4153667"><ele>464.20000000000005</ele><time>2026-05-02T08:17:08.977Z</time></trkpt><trkpt lat="40.027945" lon="15.4152967"><ele>461.0</ele><time>2026-05-02T08:17:09.977Z</time></trkpt><trkpt lat="40.0278733" lon="15.4152083"><ele>461.0</ele><time>2026-05-02T08:17:10.978Z</time></trkpt><trkpt lat="40.0278083" lon="15.415115"><ele>461.0</ele><time>2026-05-02T08:17:11.977Z</time></trkpt><trkpt lat="40.027745" lon="15.4150217"><ele>461.0</ele><time>2026-05-02T08:17:12.977Z</time></trkpt><trkpt lat="40.02768" lon="15.4149283"><ele>461.0</ele><time>2026-05-02T08:17:13.977Z</time></trkpt><trkpt lat="40.0276167" lon="15.4148317"><ele>461.0</ele><time>2026-05-02T08:17:14.977Z</time></trkpt><trkpt lat="40.0275467" lon="15.4147283"><ele>458.20000000000005</ele><time>2026-05-02T08:17:15.977Z</time></trkpt><trkpt lat="40.0274733" lon="15.4146267"><ele>455.40000000000003</ele><time>2026-05-02T08:17:16.978Z</time></trkpt><trkpt lat="40.0274017" lon="15.4145183"><ele>452.6</ele><time>2026-05-02T08:17:17.977Z</time></trkpt><trkpt lat="40.0273317" lon="15.414405"><ele>449.8</ele><time>2026-05-02T08:17:18.978Z</time></trkpt><trkpt lat="40.0272583" lon="15.4142867"><ele>447.0</ele><time>2026-05-02T08:17:19.977Z</time></trkpt><trkpt lat="40.02718" lon="15.4141667"><ele>447.0</ele><time>2026-05-02T08:17:20.978Z</time></trkpt><trkpt lat="40.0271017" lon="15.4140483"><ele>447.0</ele><time>2026-05-02T08:17:21.977Z</time></trkpt><trkpt lat="40.0270233" lon="15.4139317"><ele>447.0</ele><time>2026-05-02T08:17:22.978Z</time></trkpt><trkpt lat="40.02694" lon="15.41381"><ele>447.0</ele><time>2026-05-02T08:17:23.978Z</time></trkpt><trkpt lat="40.02686" lon="15.4136833"><ele>443.0</ele><time>2026-05-02T08:17:24.977Z</time></trkpt><trkpt lat="40.02678" lon="15.413555"><ele>439.0</ele><time>2026-05-02T08:17:25.977Z</time></trkpt><trkpt lat="40.026695" lon="15.4134183"><ele>435.0</ele><time>2026-05-02T08:17:26.977Z</time></trkpt><trkpt lat="40.0266233" lon="15.4132783"><ele>431.0</ele><time>2026-05-02T08:17:27.977Z</time></trkpt><trkpt lat="40.0265483" lon="15.4131583"><ele>431.0</ele><time>2026-05-02T08:17:28.978Z</time></trkpt><trkpt lat="40.02648" lon="15.4130333"><ele>431.0</ele><time>2026-05-02T08:17:29.977Z</time></trkpt><trkpt lat="40.0264117" lon="15.4129183"><ele>431.0</ele><time>2026-05-02T08:17:30.978Z</time></trkpt><trkpt lat="40.0263433" lon="15.4128083"><ele>431.0</ele><time>2026-05-02T08:17:31.977Z</time></trkpt><trkpt lat="40.0262783" lon="15.4126933"><ele>431.0</ele><time>2026-05-02T08:17:32.977Z</time></trkpt><trkpt lat="40.0262167" lon="15.41258"><ele>434.4</ele><time>2026-05-02T08:17:33.977Z</time></trkpt><trkpt lat="40.026155" lon="15.412455"><ele>437.8</ele><time>2026-05-02T08:17:34.977Z</time></trkpt><trkpt lat="40.0260933" lon="15.4123333"><ele>441.19999999999993</ele><time>2026-05-02T08:17:35.977Z</time></trkpt><trkpt lat="40.0260367" lon="15.4122167"><ele>444.59999999999997</ele><time>2026-05-02T08:17:36.977Z</time></trkpt><trkpt lat="40.02598" lon="15.412105"><ele>448.0</ele><time>2026-05-02T08:17:37.977Z</time></trkpt><trkpt lat="40.0259283" lon="15.411995"><ele>451.75</ele><time>2026-05-02T08:17:38.977Z</time></trkpt><trkpt lat="40.0258767" lon="15.4118717"><ele>455.5</ele><time>2026-05-02T08:17:39.978Z</time></trkpt><trkpt lat="40.0258233" lon="15.41173"><ele>459.25</ele><time>2026-05-02T08:17:40.977Z</time></trkpt><trkpt lat="40.0257733" lon="15.4115733"><ele>463.0</ele><time>2026-05-02T08:17:41.977Z</time></trkpt><trkpt lat="40.025715" lon="15.411405"><ele>457.25</ele><time>2026-05-02T08:17:42.977Z</time></trkpt><trkpt lat="40.025665" lon="15.4112367"><ele>451.5</ele><time>2026-05-02T08:17:43.978Z</time></trkpt><trkpt lat="40.025625" lon="15.4110733"><ele>445.75</ele><time>2026-05-02T08:17:44.977Z</time></trkpt><trkpt lat="40.0256017" lon="15.4109167"><ele>440.0</ele><time>2026-05-02T08:17:45.977Z</time></trkpt><trkpt lat="40.025585" lon="15.4107617"><ele>440.0</ele><time>2026-05-02T08:17:46.978Z</time></trkpt><trkpt lat="40.0255717" lon="15.4106067"><ele>440.0</ele><time>2026-05-02T08:17:47.978Z</time></trkpt><trkpt lat="40.0255683" lon="15.41044"><ele>440.0</ele><time>2026-05-02T08:17:48.977Z</time></trkpt><trkpt lat="40.0255583" lon="15.410265"><ele>440.0</ele><time>2026-05-02T08:17:49.978Z</time></trkpt><trkpt lat="40.0255517" lon="15.4100883"><ele>441.25</ele><time>2026-05-02T08:17:50.978Z</time></trkpt><trkpt lat="40.0255467" lon="15.409915"><ele>442.5</ele><time>2026-05-02T08:17:51.977Z</time></trkpt><trkpt lat="40.0255383" lon="15.4097467"><ele>443.75</ele><time>2026-05-02T08:17:52.977Z</time></trkpt><trkpt lat="40.0255333" lon="15.4095817"><ele>445.0</ele><time>2026-05-02T08:17:53.977Z</time></trkpt><trkpt lat="40.0255333" lon="15.4094233"><ele>445.0</ele><time>2026-05-02T08:17:54.977Z</time></trkpt><trkpt lat="40.0255217" lon="15.409275"><ele>445.0</ele><time>2026-05-02T08:17:55.977Z</time></trkpt><trkpt lat="40.02552" lon="15.40912"><ele>445.0</ele><time>2026-05-02T08:17:56.977Z</time></trkpt><trkpt lat="40.025515" lon="15.4089683"><ele>445.0</ele><time>2026-05-02T08:17:57.977Z</time></trkpt><trkpt lat="40.02552" lon="15.408815"><ele>444.25</ele><time>2026-05-02T08:17:58.978Z</time></trkpt><trkpt lat="40.02553" lon="15.408645"><ele>443.5</ele><time>2026-05-02T08:17:59.978Z</time></trkpt><trkpt lat="40.0255317" lon="15.4084633"><ele>442.75</ele><time>2026-05-02T08:18:00.978Z</time></trkpt><trkpt lat="40.025525" lon="15.4082867"><ele>442.0</ele><time>2026-05-02T08:18:01.977Z</time></trkpt><trkpt lat="40.0255117" lon="15.40811"><ele>442.5</ele><time>2026-05-02T08:18:02.977Z</time></trkpt><trkpt lat="40.025495" lon="15.4079317"><ele>443.0</ele><time>2026-05-02T08:18:03.977Z</time></trkpt><trkpt lat="40.025485" lon="15.40774"><ele>443.5</ele><time>2026-05-02T08:18:04.977Z</time></trkpt><trkpt lat="40.0254783" lon="15.4075433"><ele>444.0</ele><time>2026-05-02T08:18:05.977Z</time></trkpt><trkpt lat="40.02547" lon="15.4073433"><ele>444.33333333333337</ele><time>2026-05-02T08:18:06.977Z</time></trkpt><trkpt lat="40.0254567" lon="15.4071367"><ele>444.6666666666667</ele><time>2026-05-02T08:18:07.977Z</time></trkpt><trkpt lat="40.0254317" lon="15.4069267"><ele>445.0</ele><time>2026-05-02T08:18:08.977Z</time></trkpt><trkpt lat="40.0253933" lon="15.4067283"><ele>445.0</ele><time>2026-05-02T08:18:09.978Z</time></trkpt><trkpt lat="40.02535" lon="15.4065333"><ele>445.0</ele><time>2026-05-02T08:18:10.978Z</time></trkpt><trkpt lat="40.025315" lon="15.4063367"><ele>445.0</ele><time>2026-05-02T08:18:11.977Z</time></trkpt><trkpt lat="40.0252833" lon="15.4061517"><ele>444.5</ele><time>2026-05-02T08:18:12.978Z</time></trkpt><trkpt lat="40.02525" lon="15.405975"><ele>444.0</ele><time>2026-05-02T08:18:13.977Z</time></trkpt><trkpt lat="40.025215" lon="15.4057983"><ele>443.5</ele><time>2026-05-02T08:18:14.978Z</time></trkpt><trkpt lat="40.025185" lon="15.40562"><ele>443.0</ele><time>2026-05-02T08:18:15.978Z</time></trkpt><trkpt lat="40.0251617" lon="15.40545"><ele>442.5</ele><time>2026-05-02T08:18:16.978Z</time></trkpt><trkpt lat="40.02514" lon="15.4052733"><ele>442.0</ele><time>2026-05-02T08:18:17.977Z</time></trkpt><trkpt lat="40.02512" lon="15.405105"><ele>441.5</ele><time>2026-05-02T08:18:18.978Z</time></trkpt><trkpt lat="40.0250917" lon="15.4049383"><ele>441.0</ele><time>2026-05-02T08:18:19.977Z</time></trkpt><trkpt lat="40.0250633" lon="15.4047783"><ele>440.25</ele><time>2026-05-02T08:18:20.977Z</time></trkpt><trkpt lat="40.0250433" lon="15.4046083"><ele>439.5</ele><time>2026-05-02T08:18:21.978Z</time></trkpt><trkpt lat="40.0250333" lon="15.4044267"><ele>438.75</ele><time>2026-05-02T08:18:22.977Z</time></trkpt><trkpt lat="40.0250367" lon="15.4042467"><ele>438.0</ele><time>2026-05-02T08:18:23.977Z</time></trkpt><trkpt lat="40.025035" lon="15.40406"><ele>438.0</ele><time>2026-05-02T08:18:24.977Z</time></trkpt><trkpt lat="40.02503" lon="15.4038933"><ele>438.0</ele><time>2026-05-02T08:18:25.977Z</time></trkpt><trkpt lat="40.0250017" lon="15.40375"><ele>438.0</ele><time>2026-05-02T08:18:26.977Z</time></trkpt><trkpt lat="40.02495" lon="15.4036333"><ele>438.0</ele><time>2026-05-02T08:18:27.978Z</time></trkpt><trkpt lat="40.02487" lon="15.40353"><ele>433.75</ele><time>2026-05-02T08:18:28.978Z</time></trkpt><trkpt lat="40.02477" lon="15.4034433"><ele>429.5</ele><time>2026-05-02T08:18:29.977Z</time></trkpt><trkpt lat="40.0246533" lon="15.40335"><ele>425.25</ele><time>2026-05-02T08:18:30.977Z</time></trkpt><trkpt lat="40.0245367" lon="15.4032417"><ele>421.0</ele><time>2026-05-02T08:18:31.977Z</time></trkpt><trkpt lat="40.0244267" lon="15.4031333"><ele>421.0</ele><time>2026-05-02T08:18:32.977Z</time></trkpt><trkpt lat="40.0243317" lon="15.4030067"><ele>421.0</ele><time>2026-05-02T08:18:33.978Z</time></trkpt><trkpt lat="40.0242367" lon="15.4028867"><ele>421.0</ele><time>2026-05-02T08:18:34.977Z</time></trkpt><trkpt lat="40.0241467" lon="15.4027683"><ele>421.0</ele><time>2026-05-02T08:18:35.978Z</time></trkpt><trkpt lat="40.0240667" lon="15.4026417"><ele>419.0</ele><time>2026-05-02T08:18:36.978Z</time></trkpt><trkpt lat="40.0239933" lon="15.4025133"><ele>417.0</ele><time>2026-05-02T08:18:37.977Z</time></trkpt><trkpt lat="40.0239233" lon="15.4023917"><ele>415.0</ele><time>2026-05-02T08:18:38.977Z</time></trkpt><trkpt lat="40.0238617" lon="15.4022733"><ele>413.0</ele><time>2026-05-02T08:18:39.977Z</time></trkpt><trkpt lat="40.0238083" lon="15.40216"><ele>412.99999999999994</ele><time>2026-05-02T08:18:40.977Z</time></trkpt><trkpt lat="40.0237683" lon="15.4020433"><ele>413.0</ele><time>2026-05-02T08:18:41.977Z</time></trkpt><trkpt lat="40.0237417" lon="15.401935"><ele>413.0</ele><time>2026-05-02T08:18:42.977Z</time></trkpt><trkpt lat="40.02373" lon="15.4018183"><ele>413.0</ele><time>2026-05-02T08:18:43.977Z</time></trkpt><trkpt lat="40.0237317" lon="15.4017067"><ele>412.99999999999994</ele><time>2026-05-02T08:18:44.977Z</time></trkpt><trkpt lat="40.0237417" lon="15.401595"><ele>413.0</ele><time>2026-05-02T08:18:45.978Z</time></trkpt><trkpt lat="40.0237583" lon="15.40148"><ele>412.99999999999994</ele><time>2026-05-02T08:18:46.977Z</time></trkpt><trkpt lat="40.0237733" lon="15.4013683"><ele>413.0</ele><time>2026-05-02T08:18:47.977Z</time></trkpt><trkpt lat="40.02379" lon="15.4012633"><ele>413.0</ele><time>2026-05-02T08:18:48.977Z</time></trkpt><trkpt lat="40.023805" lon="15.4011567"><ele>413.0</ele><time>2026-05-02T08:18:49.978Z</time></trkpt><trkpt lat="40.02382" lon="15.40105"><ele>412.99999999999994</ele><time>2026-05-02T08:18:50.978Z</time></trkpt><trkpt lat="40.0238317" lon="15.4009483"><ele>413.0</ele><time>2026-05-02T08:18:51.977Z</time></trkpt><trkpt lat="40.0238417" lon="15.4008367"><ele>412.16666666666663</ele><time>2026-05-02T08:18:52.977Z</time></trkpt><trkpt lat="40.0238567" lon="15.400725"><ele>411.3333333333333</ele><time>2026-05-02T08:18:53.977Z</time></trkpt><trkpt lat="40.0238733" lon="15.4006167"><ele>410.5</ele><time>2026-05-02T08:18:54.977Z</time></trkpt><trkpt lat="40.023895" lon="15.4005017"><ele>409.66666666666663</ele><time>2026-05-02T08:18:55.977Z</time></trkpt><trkpt lat="40.023925" lon="15.4003867"><ele>408.8333333333333</ele><time>2026-05-02T08:18:56.978Z</time></trkpt><trkpt lat="40.02397" lon="15.4002867"><ele>408.0</ele><time>2026-05-02T08:18:57.978Z</time></trkpt><trkpt lat="40.0240417" lon="15.400205"><ele>408.79999999999995</ele><time>2026-05-02T08:18:58.978Z</time></trkpt><trkpt lat="40.02412" lon="15.40016"><ele>409.6</ele><time>2026-05-02T08:18:59.977Z</time></trkpt><trkpt lat="40.0241983" lon="15.4001367"><ele>410.4</ele><time>2026-05-02T08:19:00.978Z</time></trkpt><trkpt lat="40.0242733" lon="15.4001083"><ele>411.20000000000005</ele><time>2026-05-02T08:19:01.978Z</time></trkpt><trkpt lat="40.0243467" lon="15.4000983"><ele>412.0</ele><time>2026-05-02T08:19:02.977Z</time></trkpt><trkpt lat="40.0244267" lon="15.4031333"><ele>411.5</ele><time>2026-05-02T08:18:32.977Z</time></trkpt><trkpt lat="40.0243317" lon="15.4030067"><ele>411.0</ele><time>2026-05-02T08:18:33.978Z</time></trkpt><trkpt lat="40.0242367" lon="15.4028867"><ele>410.5</ele><time>2026-05-02T08:18:34.977Z</time></trkpt><trkpt lat="40.0241467" lon="15.4027683"><ele>410.0</ele><time>2026-05-02T08:18:35.978Z</time></trkpt><trkpt lat="40.0240667" lon="15.4026417"><ele>410.0</ele><time>2026-05-02T08:18:36.978Z</time></trkpt><trkpt lat="40.0239933" lon="15.4025133"><ele>410.0</ele><time>2026-05-02T08:18:37.977Z</time></trkpt><trkpt lat="40.0239233" lon="15.4023917"><ele>410.0</ele><time>2026-05-02T08:18:38.977Z</time></trkpt><trkpt lat="40.0238617" lon="15.4022733"><ele>410.0</ele><time>2026-05-02T08:18:39.977Z</time></trkpt><trkpt lat="40.0238083" lon="15.40216"><ele>410.49999999999994</ele><time>2026-05-02T08:18:40.977Z</time></trkpt><trkpt lat="40.0237683" lon="15.4020433"><ele>411.0</ele><time>2026-05-02T08:18:41.977Z</time></trkpt><trkpt lat="40.0237417" lon="15.401935"><ele>411.5</ele><time>2026-05-02T08:18:42.977Z</time></trkpt><trkpt lat="40.02373" lon="15.4018183"><ele>412.0</ele><time>2026-05-02T08:18:43.977Z</time></trkpt><trkpt lat="40.0237317" lon="15.4017067"><ele>412.49999999999994</ele><time>2026-05-02T08:18:44.977Z</time></trkpt><trkpt lat="40.0237417" lon="15.401595"><ele>413.0</ele><time>2026-05-02T08:18:45.978Z</time></trkpt><trkpt lat="40.0237583" lon="15.40148"><ele>412.99999999999994</ele><time>2026-05-02T08:18:46.977Z</time></trkpt><trkpt lat="40.0237733" lon="15.4013683"><ele>413.0</ele><time>2026-05-02T08:18:47.977Z</time></trkpt><trkpt lat="40.02379" lon="15.4012633"><ele>413.0</ele><time>2026-05-02T08:18:48.977Z</time></trkpt><trkpt lat="40.023805" lon="15.4011567"><ele>413.0</ele><time>2026-05-02T08:18:49.978Z</time></trkpt><trkpt lat="40.02382" lon="15.40105"><ele>412.99999999999994</ele><time>2026-05-02T08:18:50.978Z</time></trkpt><trkpt lat="40.0238317" lon="15.4009483"><ele>413.0</ele><time>2026-05-02T08:18:51.977Z</time></trkpt><trkpt lat="40.0238417" lon="15.4008367"><ele>412.16666666666663</ele><time>2026-05-02T08:18:52.977Z</time></trkpt><trkpt lat="40.0238567" lon="15.400725"><ele>411.3333333333333</ele><time>2026-05-02T08:18:53.977Z</time></trkpt><trkpt lat="40.0238733" lon="15.4006167"><ele>410.5</ele><time>2026-05-02T08:18:54.977Z</time></trkpt><trkpt lat="40.023895" lon="15.4005017"><ele>409.66666666666663</ele><time>2026-05-02T08:18:55.977Z</time></trkpt><trkpt lat="40.023925" lon="15.4003867"><ele>408.8333333333333</ele><time>2026-05-02T08:18:56.978Z</time></trkpt><trkpt lat="40.02397" lon="15.4002867"><ele>408.0</ele><time>2026-05-02T08:18:57.978Z</time></trkpt><trkpt lat="40.0240417" lon="15.400205"><ele>408.6666666666667</ele><time>2026-05-02T08:18:58.978Z</time></trkpt><trkpt lat="40.02412" lon="15.40016"><ele>409.33333333333337</ele><time>2026-05-02T08:18:59.977Z</time></trkpt><trkpt lat="40.0241983" lon="15.4001367"><ele>410.0</ele><time>2026-05-02T08:19:00.978Z</time></trkpt><trkpt lat="40.0242733" lon="15.4001083"><ele>410.6666666666667</ele><time>2026-05-02T08:19:01.978Z</time></trkpt><trkpt lat="40.0243467" lon="15.4000983"><ele>411.33333333333337</ele><time>2026-05-02T08:19:02.977Z</time></trkpt><trkpt lat="40.0244083" lon="15.400075"><ele>412.0</ele><time>2026-05-02T08:19:03.977Z</time></trkpt><trkpt lat="40.0245317" lon="15.400045"><ele>411.99999999999994</ele><time>2026-05-02T08:19:05.977Z</time></trkpt><trkpt lat="40.0245967" lon="15.400035"><ele>412.0</ele><time>2026-05-02T08:19:06.978Z</time></trkpt><trkpt lat="40.0246633" lon="15.400025"><ele>412.0</ele><time>2026-05-02T08:19:07.977Z</time></trkpt><trkpt lat="40.0247333" lon="15.40001"><ele>412.0</ele><time>2026-05-02T08:19:08.977Z</time></trkpt><trkpt lat="40.02481" lon="15.3999967"><ele>412.0</ele><time>2026-05-02T08:19:09.977Z</time></trkpt><trkpt lat="40.0248883" lon="15.39998"><ele>411.99999999999994</ele><time>2026-05-02T08:19:10.978Z</time></trkpt><trkpt lat="40.02496" lon="15.39994"><ele>412.0</ele><time>2026-05-02T08:19:11.977Z</time></trkpt><trkpt lat="40.0250283" lon="15.3998667"><ele>412.1666666666667</ele><time>2026-05-02T08:19:12.977Z</time></trkpt><trkpt lat="40.025065" lon="15.3997667"><ele>412.33333333333337</ele><time>2026-05-02T08:19:13.977Z</time></trkpt><trkpt lat="40.02507" lon="15.39966"><ele>412.5</ele><time>2026-05-02T08:19:14.977Z</time></trkpt><trkpt lat="40.0250617" lon="15.3995633"><ele>412.66666666666663</ele><time>2026-05-02T08:19:15.977Z</time></trkpt><trkpt lat="40.02504" lon="15.3994683"><ele>412.8333333333333</ele><time>2026-05-02T08:19:16.977Z</time></trkpt><trkpt lat="40.0250017" lon="15.3993883"><ele>413.0</ele><time>2026-05-02T08:19:17.977Z</time></trkpt><trkpt lat="40.0249617" lon="15.39931"><ele>408.49999999999994</ele><time>2026-05-02T08:19:18.978Z</time></trkpt><trkpt lat="40.0249233" lon="15.39923"><ele>404.0</ele><time>2026-05-02T08:19:19.978Z</time></trkpt><trkpt lat="40.0248783" lon="15.39915"><ele>399.5</ele><time>2026-05-02T08:19:20.978Z</time></trkpt><trkpt lat="40.0248383" lon="15.3990683"><ele>395.0</ele><time>2026-05-02T08:19:21.977Z</time></trkpt><trkpt lat="40.024805" lon="15.3989933"><ele>390.49999999999994</ele><time>2026-05-02T08:19:22.977Z</time></trkpt><trkpt lat="40.0247417" lon="15.3988533"><ele>386.0</ele><time>2026-05-02T08:19:24.977Z</time></trkpt><trkpt lat="40.02472" lon="15.3987683"><ele>385.3333333333333</ele><time>2026-05-02T08:19:25.977Z</time></trkpt><trkpt lat="40.02471" lon="15.3986817"><ele>384.66666666666663</ele><time>2026-05-02T08:19:26.978Z</time></trkpt><trkpt lat="40.02471" lon="15.398595"><ele>384.0</ele><time>2026-05-02T08:19:27.977Z</time></trkpt><trkpt lat="40.024725" lon="15.3985017"><ele>383.3333333333333</ele><time>2026-05-02T08:19:28.978Z</time></trkpt><trkpt lat="40.024745" lon="15.3983917"><ele>382.66666666666663</ele><time>2026-05-02T08:19:29.978Z</time></trkpt><trkpt lat="40.0247483" lon="15.3982683"><ele>382.0</ele><time>2026-05-02T08:19:30.977Z</time></trkpt><trkpt lat="40.0247383" lon="15.3981283"><ele>384.25</ele><time>2026-05-02T08:19:31.978Z</time></trkpt><trkpt lat="40.024705" lon="15.3979883"><ele>386.5</ele><time>2026-05-02T08:19:32.978Z</time></trkpt><trkpt lat="40.0246433" lon="15.3978583"><ele>388.75</ele><time>2026-05-02T08:19:33.977Z</time></trkpt><trkpt lat="40.024575" lon="15.3977383"><ele>391.0</ele><time>2026-05-02T08:19:34.977Z</time></trkpt><trkpt lat="40.024485" lon="15.3976517"><ele>391.0</ele><time>2026-05-02T08:19:35.977Z</time></trkpt><trkpt lat="40.0243767" lon="15.3975883"><ele>391.0</ele><time>2026-05-02T08:19:36.977Z</time></trkpt><trkpt lat="40.0242567" lon="15.397545"><ele>391.0</ele><time>2026-05-02T08:19:37.977Z</time></trkpt><trkpt lat="40.0241517" lon="15.397495"><ele>391.0</ele><time>2026-05-02T08:19:38.978Z</time></trkpt><trkpt lat="40.02406" lon="15.3974383"><ele>385.0</ele><time>2026-05-02T08:19:39.978Z</time></trkpt><trkpt lat="40.0239917" lon="15.39736"><ele>379.0</ele><time>2026-05-02T08:19:40.977Z</time></trkpt><trkpt lat="40.02396" lon="15.397265"><ele>373.0</ele><time>2026-05-02T08:19:41.977Z</time></trkpt><trkpt lat="40.0239567" lon="15.397145"><ele>367.0</ele><time>2026-05-02T08:19:42.977Z</time></trkpt><trkpt lat="40.0239933" lon="15.3970067"><ele>361.0</ele><time>2026-05-02T08:19:43.977Z</time></trkpt><trkpt lat="40.0240617" lon="15.396865"><ele>360.5</ele><time>2026-05-02T08:19:44.977Z</time></trkpt><trkpt lat="40.0241367" lon="15.3966917"><ele>360.0</ele><time>2026-05-02T08:19:45.977Z</time></trkpt><trkpt lat="40.024205" lon="15.3965167"><ele>359.5</ele><time>2026-05-02T08:19:46.977Z</time></trkpt><trkpt lat="40.0242467" lon="15.396355"><ele>359.0</ele><time>2026-05-02T08:19:47.977Z</time></trkpt><trkpt lat="40.024265" lon="15.3961683"><ele>360.0</ele><time>2026-05-02T08:19:48.978Z</time></trkpt><trkpt lat="40.0242467" lon="15.395975"><ele>361.0</ele><time>2026-05-02T08:19:49.977Z</time></trkpt><trkpt lat="40.0242233" lon="15.395795"><ele>362.0</ele><time>2026-05-02T08:19:50.977Z</time></trkpt><trkpt lat="40.0241933" lon="15.3956317"><ele>363.0</ele><time>2026-05-02T08:19:51.977Z</time></trkpt><trkpt lat="40.024135" lon="15.3955017"><ele>363.0</ele><time>2026-05-02T08:19:52.977Z</time></trkpt><trkpt lat="40.0240367" lon="15.3953933"><ele>363.0</ele><time>2026-05-02T08:19:53.977Z</time></trkpt><trkpt lat="40.0239317" lon="15.3953033"><ele>363.0</ele><time>2026-05-02T08:19:54.978Z</time></trkpt><trkpt lat="40.0238233" lon="15.3952117"><ele>363.0</ele><time>2026-05-02T08:19:55.977Z</time></trkpt><trkpt lat="40.0237233" lon="15.3951133"><ele>363.0</ele><time>2026-05-02T08:19:56.977Z</time></trkpt><trkpt lat="40.0236583" lon="15.3949867"><ele>363.0</ele><time>2026-05-02T08:19:57.978Z</time></trkpt><trkpt lat="40.023615" lon="15.3948433"><ele>363.0</ele><time>2026-05-02T08:19:58.978Z</time></trkpt><trkpt lat="40.0235867" lon="15.3946783"><ele>363.0</ele><time>2026-05-02T08:19:59.977Z</time></trkpt><trkpt lat="40.0235783" lon="15.3945"><ele>363.25</ele><time>2026-05-02T08:20:00.977Z</time></trkpt><trkpt lat="40.023575" lon="15.3943033"><ele>363.5</ele><time>2026-05-02T08:20:01.977Z</time></trkpt><trkpt lat="40.02357" lon="15.3941033"><ele>363.75</ele><time>2026-05-02T08:20:02.977Z</time></trkpt><trkpt lat="40.0235617" lon="15.3939183"><ele>364.0</ele><time>2026-05-02T08:20:03.978Z</time></trkpt><trkpt lat="40.0235567" lon="15.3937467"><ele>362.5</ele><time>2026-05-02T08:20:04.978Z</time></trkpt><trkpt lat="40.0235683" lon="15.3935933"><ele>361.0</ele><time>2026-05-02T08:20:05.977Z</time></trkpt><trkpt lat="40.0236" lon="15.39344"><ele>359.5</ele><time>2026-05-02T08:20:06.977Z</time></trkpt><trkpt lat="40.023675" lon="15.3932917"><ele>358.0</ele><time>2026-05-02T08:20:07.977Z</time></trkpt><trkpt lat="40.023765" lon="15.393155"><ele>358.0</ele><time>2026-05-02T08:20:08.977Z</time></trkpt><trkpt lat="40.02386" lon="15.39302"><ele>358.0</ele><time>2026-05-02T08:20:09.977Z</time></trkpt><trkpt lat="40.0239317" lon="15.3928617"><ele>358.0</ele><time>2026-05-02T08:20:10.977Z</time></trkpt><trkpt lat="40.0239733" lon="15.3926783"><ele>358.0</ele><time>2026-05-02T08:20:11.977Z</time></trkpt><trkpt lat="40.02398" lon="15.3924667"><ele>356.5</ele><time>2026-05-02T08:20:12.978Z</time></trkpt><trkpt lat="40.0239567" lon="15.392275"><ele>355.0</ele><time>2026-05-02T08:20:13.978Z</time></trkpt><trkpt lat="40.0239017" lon="15.39212"><ele>353.5</ele><time>2026-05-02T08:20:14.978Z</time></trkpt><trkpt lat="40.0238217" lon="15.39197"><ele>352.0</ele><time>2026-05-02T08:20:15.978Z</time></trkpt><trkpt lat="40.0237283" lon="15.39184"><ele>352.0</ele><time>2026-05-02T08:20:16.977Z</time></trkpt><trkpt lat="40.0236417" lon="15.39171"><ele>352.0</ele><time>2026-05-02T08:20:17.977Z</time></trkpt><trkpt lat="40.02355" lon="15.3915833"><ele>352.0</ele><time>2026-05-02T08:20:18.977Z</time></trkpt><trkpt lat="40.0234767" lon="15.391455"><ele>352.0</ele><time>2026-05-02T08:20:19.977Z</time></trkpt><trkpt lat="40.02342" lon="15.391315"><ele>353.75</ele><time>2026-05-02T08:20:20.977Z</time></trkpt><trkpt lat="40.0233683" lon="15.3911633"><ele>355.5</ele><time>2026-05-02T08:20:21.977Z</time></trkpt><trkpt lat="40.0233417" lon="15.391"><ele>357.25</ele><time>2026-05-02T08:20:22.977Z</time></trkpt><trkpt lat="40.0233233" lon="15.390835"><ele>359.0</ele><time>2026-05-02T08:20:23.977Z</time></trkpt><trkpt lat="40.0233117" lon="15.39067"><ele>352.25</ele><time>2026-05-02T08:20:24.978Z</time></trkpt><trkpt lat="40.0232783" lon="15.3905167"><ele>345.5</ele><time>2026-05-02T08:20:25.977Z</time></trkpt><trkpt lat="40.0232133" lon="15.3903733"><ele>338.75</ele><time>2026-05-02T08:20:26.978Z</time></trkpt><trkpt lat="40.0231233" lon="15.3902467"><ele>332.0</ele><time>2026-05-02T08:20:27.978Z</time></trkpt><trkpt lat="40.0230367" lon="15.3901183"><ele>332.0</ele><time>2026-05-02T08:20:28.978Z</time></trkpt><trkpt lat="40.0229617" lon="15.3899933"><ele>332.0</ele><time>2026-05-02T08:20:29.977Z</time></trkpt><trkpt lat="40.0228967" lon="15.3898617"><ele>332.0</ele><time>2026-05-02T08:20:30.978Z</time></trkpt><trkpt lat="40.0228467" lon="15.38973"><ele>332.0</ele><time>2026-05-02T08:20:31.977Z</time></trkpt><trkpt lat="40.0228067" lon="15.3895983"><ele>332.40000000000003</ele><time>2026-05-02T08:20:32.977Z</time></trkpt><trkpt lat="40.0227767" lon="15.389465"><ele>332.8</ele><time>2026-05-02T08:20:33.977Z</time></trkpt><trkpt lat="40.02276" lon="15.3893283"><ele>333.2</ele><time>2026-05-02T08:20:34.977Z</time></trkpt><trkpt lat="40.022745" lon="15.3891917"><ele>333.6</ele><time>2026-05-02T08:20:35.977Z</time></trkpt><trkpt lat="40.0227367" lon="15.38906"><ele>334.0</ele><time>2026-05-02T08:20:36.978Z</time></trkpt><trkpt lat="40.0227317" lon="15.3889367"><ele>333.79999999999995</ele><time>2026-05-02T08:20:37.977Z</time></trkpt><trkpt lat="40.0227433" lon="15.3888067"><ele>333.59999999999997</ele><time>2026-05-02T08:20:38.977Z</time></trkpt><trkpt lat="40.0227583" lon="15.3886783"><ele>333.4</ele><time>2026-05-02T08:20:39.977Z</time></trkpt><trkpt lat="40.022775" lon="15.3885517"><ele>333.2</ele><time>2026-05-02T08:20:40.977Z</time></trkpt><trkpt lat="40.022795" lon="15.3884217"><ele>333.0</ele><time>2026-05-02T08:20:41.977Z</time></trkpt><trkpt lat="40.0228167" lon="15.3883083"><ele>333.0</ele><time>2026-05-02T08:20:42.977Z</time></trkpt><trkpt lat="40.0228283" lon="15.3881967"><ele>333.0</ele><time>2026-05-02T08:20:43.977Z</time></trkpt><trkpt lat="40.0228133" lon="15.3880883"><ele>333.0</ele><time>2026-05-02T08:20:44.978Z</time></trkpt><trkpt lat="40.02278" lon="15.3879933"><ele>333.0</ele><time>2026-05-02T08:20:45.978Z</time></trkpt><trkpt lat="40.0227317" lon="15.3879083"><ele>333.0</ele><time>2026-05-02T08:20:46.977Z</time></trkpt><trkpt lat="40.0226667" lon="15.3878317"><ele>333.0</ele><time>2026-05-02T08:20:47.977Z</time></trkpt><trkpt lat="40.0226033" lon="15.387755"><ele>334.3333333333333</ele><time>2026-05-02T08:20:48.977Z</time></trkpt><trkpt lat="40.0225433" lon="15.38768"><ele>335.6666666666667</ele><time>2026-05-02T08:20:49.977Z</time></trkpt><trkpt lat="40.0224933" lon="15.387595"><ele>337.0</ele><time>2026-05-02T08:20:50.978Z</time></trkpt><trkpt lat="40.0224483" lon="15.3874967"><ele>338.33333333333337</ele><time>2026-05-02T08:20:51.977Z</time></trkpt><trkpt lat="40.0224033" lon="15.3874"><ele>339.6666666666667</ele><time>2026-05-02T08:20:52.977Z</time></trkpt><trkpt lat="40.0223483" lon="15.3872967"><ele>341.0</ele><time>2026-05-02T08:20:53.977Z</time></trkpt><trkpt lat="40.0223083" lon="15.3871867"><ele>337.5</ele><time>2026-05-02T08:20:54.977Z</time></trkpt><trkpt lat="40.0222667" lon="15.3870867"><ele>334.0</ele><time>2026-05-02T08:20:55.978Z</time></trkpt><trkpt lat="40.022235" lon="15.3869867"><ele>330.5</ele><time>2026-05-02T08:20:56.977Z</time></trkpt><trkpt lat="40.0222" lon="15.38689"><ele>327.0</ele><time>2026-05-02T08:20:57.977Z</time></trkpt><trkpt lat="40.0221667" lon="15.386795"><ele>323.5</ele><time>2026-05-02T08:20:58.977Z</time></trkpt><trkpt lat="40.02213" lon="15.3867033"><ele>320.0</ele><time>2026-05-02T08:20:59.977Z</time></trkpt><trkpt lat="40.022095" lon="15.3866183"><ele>320.0</ele><time>2026-05-02T08:21:00.978Z</time></trkpt><trkpt lat="40.02207" lon="15.3865333"><ele>320.0</ele><time>2026-05-02T08:21:01.977Z</time></trkpt><trkpt lat="40.02205" lon="15.3864517"><ele>320.0</ele><time>2026-05-02T08:21:02.977Z</time></trkpt><trkpt lat="40.0220267" lon="15.386365"><ele>320.0</ele><time>2026-05-02T08:21:03.978Z</time></trkpt><trkpt lat="40.0220117" lon="15.3862783"><ele>320.0</ele><time>2026-05-02T08:21:04.977Z</time></trkpt><trkpt lat="40.0219767" lon="15.38612"><ele>320.0</ele><time>2026-05-02T08:21:06.977Z</time></trkpt><trkpt lat="40.0219517" lon="15.3859583"><ele>320.5</ele><time>2026-05-02T08:21:08.977Z</time></trkpt><trkpt lat="40.0219333" lon="15.3858683"><ele>321.0</ele><time>2026-05-02T08:21:09.977Z</time></trkpt><trkpt lat="40.0219133" lon="15.3857767"><ele>321.5</ele><time>2026-05-02T08:21:10.977Z</time></trkpt><trkpt lat="40.0218917" lon="15.38568"><ele>322.0</ele><time>2026-05-02T08:21:11.978Z</time></trkpt><trkpt lat="40.0218733" lon="15.3855767"><ele>322.5</ele><time>2026-05-02T08:21:12.978Z</time></trkpt><trkpt lat="40.0218583" lon="15.3854817"><ele>323.0</ele><time>2026-05-02T08:21:13.978Z</time></trkpt><trkpt lat="40.0218467" lon="15.385385"><ele>323.2</ele><time>2026-05-02T08:21:14.978Z</time></trkpt><trkpt lat="40.0218217" lon="15.3852783"><ele>323.4</ele><time>2026-05-02T08:21:15.977Z</time></trkpt><trkpt lat="40.0217983" lon="15.3851567"><ele>323.59999999999997</ele><time>2026-05-02T08:21:16.978Z</time></trkpt><trkpt lat="40.0217733" lon="15.3850133"><ele>323.79999999999995</ele><time>2026-05-02T08:21:17.977Z</time></trkpt><trkpt lat="40.0217533" lon="15.384855"><ele>324.0</ele><time>2026-05-02T08:21:18.977Z</time></trkpt><trkpt lat="40.0217267" lon="15.3846867"><ele>324.25</ele><time>2026-05-02T08:21:19.978Z</time></trkpt><trkpt lat="40.0217017" lon="15.3845333"><ele>324.5</ele><time>2026-05-02T08:21:20.977Z</time></trkpt><trkpt lat="40.0216833" lon="15.3843833"><ele>324.75</ele><time>2026-05-02T08:21:21.978Z</time></trkpt><trkpt lat="40.021665" lon="15.3842433"><ele>325.0</ele><time>2026-05-02T08:21:22.977Z</time></trkpt><trkpt lat="40.0216533" lon="15.384105"><ele>325.0</ele><time>2026-05-02T08:21:23.977Z</time></trkpt><trkpt lat="40.0216567" lon="15.3839717"><ele>325.0</ele><time>2026-05-02T08:21:24.978Z</time></trkpt><trkpt lat="40.0216767" lon="15.383835"><ele>325.0</ele><time>2026-05-02T08:21:25.977Z</time></trkpt><trkpt lat="40.021705" lon="15.3836933"><ele>325.0</ele><time>2026-05-02T08:21:26.978Z</time></trkpt><trkpt lat="40.0217333" lon="15.3835617"><ele>325.0</ele><time>2026-05-02T08:21:27.978Z</time></trkpt><trkpt lat="40.02177" lon="15.38344"><ele>323.6</ele><time>2026-05-02T08:21:28.977Z</time></trkpt><trkpt lat="40.0218083" lon="15.383315"><ele>322.2</ele><time>2026-05-02T08:21:29.978Z</time></trkpt><trkpt lat="40.0218383" lon="15.3831817"><ele>320.8</ele><time>2026-05-02T08:21:30.977Z</time></trkpt><trkpt lat="40.0218617" lon="15.3830483"><ele>319.4</ele><time>2026-05-02T08:21:31.977Z</time></trkpt><trkpt lat="40.02188" lon="15.3829183"><ele>318.0</ele><time>2026-05-02T08:21:32.977Z</time></trkpt><trkpt lat="40.021885" lon="15.382785"><ele>316.4</ele><time>2026-05-02T08:21:33.977Z</time></trkpt><trkpt lat="40.02189" lon="15.38265"><ele>314.8</ele><time>2026-05-02T08:21:34.977Z</time></trkpt><trkpt lat="40.0218967" lon="15.38252"><ele>313.2</ele><time>2026-05-02T08:21:35.977Z</time></trkpt><trkpt lat="40.02189" lon="15.3823967"><ele>311.6</ele><time>2026-05-02T08:21:36.977Z</time></trkpt><trkpt lat="40.0219" lon="15.3822833"><ele>310.0</ele><time>2026-05-02T08:21:37.977Z</time></trkpt><trkpt lat="40.021905" lon="15.3821733"><ele>309.3333333333333</ele><time>2026-05-02T08:21:38.978Z</time></trkpt><trkpt lat="40.0219217" lon="15.3820567"><ele>308.66666666666663</ele><time>2026-05-02T08:21:39.977Z</time></trkpt><trkpt lat="40.0219367" lon="15.3819517"><ele>308.0</ele><time>2026-05-02T08:21:40.977Z</time></trkpt><trkpt lat="40.02193" lon="15.381835"><ele>307.3333333333333</ele><time>2026-05-02T08:21:41.977Z</time></trkpt><trkpt lat="40.0219233" lon="15.3817333"><ele>306.6666666666667</ele><time>2026-05-02T08:21:42.978Z</time></trkpt><trkpt lat="40.02192" lon="15.3816233"><ele>306.0</ele><time>2026-05-02T08:21:43.977Z</time></trkpt><trkpt lat="40.0219217" lon="15.3815233"><ele>306.0</ele><time>2026-05-02T08:21:44.977Z</time></trkpt><trkpt lat="40.0219117" lon="15.3814217"><ele>306.0</ele><time>2026-05-02T08:21:45.978Z</time></trkpt><trkpt lat="40.0218933" lon="15.3813033"><ele>306.0</ele><time>2026-05-02T08:21:46.978Z</time></trkpt><trkpt lat="40.0218767" lon="15.3811783"><ele>306.0</ele><time>2026-05-02T08:21:47.977Z</time></trkpt><trkpt lat="40.0218533" lon="15.3810517"><ele>306.0</ele><time>2026-05-02T08:21:48.978Z</time></trkpt><trkpt lat="40.02183" lon="15.3809267"><ele>305.6</ele><time>2026-05-02T08:21:49.978Z</time></trkpt><trkpt lat="40.0218117" lon="15.380795"><ele>305.20000000000005</ele><time>2026-05-02T08:21:50.977Z</time></trkpt><trkpt lat="40.0218" lon="15.3806633"><ele>304.79999999999995</ele><time>2026-05-02T08:21:51.977Z</time></trkpt><trkpt lat="40.0218067" lon="15.3805317"><ele>304.4</ele><time>2026-05-02T08:21:52.977Z</time></trkpt><trkpt lat="40.021835" lon="15.3804"><ele>304.0</ele><time>2026-05-02T08:21:53.977Z</time></trkpt><trkpt lat="40.02188" lon="15.3802767"><ele>302.3333333333333</ele><time>2026-05-02T08:21:54.977Z</time></trkpt><trkpt lat="40.0219267" lon="15.3801683"><ele>300.66666666666663</ele><time>2026-05-02T08:21:55.977Z</time></trkpt><trkpt lat="40.0219633" lon="15.3800667"><ele>299.0</ele><time>2026-05-02T08:21:56.977Z</time></trkpt><trkpt lat="40.021975" lon="15.3799683"><ele>297.3333333333333</ele><time>2026-05-02T08:21:57.978Z</time></trkpt><trkpt lat="40.021955" lon="15.3798817"><ele>295.6666666666667</ele><time>2026-05-02T08:21:58.977Z</time></trkpt><trkpt lat="40.0219033" lon="15.37982"><ele>294.0</ele><time>2026-05-02T08:21:59.977Z</time></trkpt><trkpt lat="40.0218267" lon="15.379805"><ele>294.0</ele><time>2026-05-02T08:22:00.978Z</time></trkpt><trkpt lat="40.021755" lon="15.3798517"><ele>294.0</ele><time>2026-05-02T08:22:01.977Z</time></trkpt><trkpt lat="40.021695" lon="15.3799383"><ele>294.0</ele><time>2026-05-02T08:22:02.977Z</time></trkpt><trkpt lat="40.021665" lon="15.380035"><ele>294.0</ele><time>2026-05-02T08:22:03.978Z</time></trkpt><trkpt lat="40.021655" lon="15.38014"><ele>294.0</ele><time>2026-05-02T08:22:04.977Z</time></trkpt><trkpt lat="40.0216533" lon="15.3802417"><ele>294.0</ele><time>2026-05-02T08:22:05.977Z</time></trkpt><trkpt lat="40.021645" lon="15.3803383"><ele>290.8333333333333</ele><time>2026-05-02T08:22:06.977Z</time></trkpt><trkpt lat="40.0216333" lon="15.380435"><ele>287.6666666666667</ele><time>2026-05-02T08:22:07.978Z</time></trkpt><trkpt lat="40.0216217" lon="15.3805367"><ele>284.5</ele><time>2026-05-02T08:22:08.977Z</time></trkpt><trkpt lat="40.02161" lon="15.380645"><ele>281.33333333333337</ele><time>2026-05-02T08:22:09.978Z</time></trkpt><trkpt lat="40.0215983" lon="15.3807383"><ele>278.1666666666667</ele><time>2026-05-02T08:22:10.978Z</time></trkpt><trkpt lat="40.0215817" lon="15.3808367"><ele>275.0</ele><time>2026-05-02T08:22:11.977Z</time></trkpt><trkpt lat="40.021565" lon="15.3809383"><ele>275.0</ele><time>2026-05-02T08:22:12.977Z</time></trkpt><trkpt lat="40.0215483" lon="15.381045"><ele>275.0</ele><time>2026-05-02T08:22:13.978Z</time></trkpt><trkpt lat="40.0215267" lon="15.3811567"><ele>275.0</ele><time>2026-05-02T08:22:14.977Z</time></trkpt><trkpt lat="40.021495" lon="15.381275"><ele>275.0</ele><time>2026-05-02T08:22:15.978Z</time></trkpt><trkpt lat="40.021465" lon="15.3813817"><ele>275.0</ele><time>2026-05-02T08:22:16.978Z</time></trkpt><trkpt lat="40.021425" lon="15.3814867"><ele>275.0</ele><time>2026-05-02T08:22:17.978Z</time></trkpt><trkpt lat="40.02139" lon="15.3816"><ele>276.2</ele><time>2026-05-02T08:22:18.978Z</time></trkpt><trkpt lat="40.02135" lon="15.38172"><ele>277.4</ele><time>2026-05-02T08:22:19.977Z</time></trkpt><trkpt lat="40.0213" lon="15.3818267"><ele>278.6</ele><time>2026-05-02T08:22:20.977Z</time></trkpt><trkpt lat="40.0212567" lon="15.38194"><ele>279.8</ele><time>2026-05-02T08:22:21.978Z</time></trkpt><trkpt lat="40.021215" lon="15.3820433"><ele>281.0</ele><time>2026-05-02T08:22:22.978Z</time></trkpt><trkpt lat="40.0211733" lon="15.3821483"><ele>281.33333333333337</ele><time>2026-05-02T08:22:23.977Z</time></trkpt><trkpt lat="40.0211317" lon="15.3822567"><ele>281.6666666666667</ele><time>2026-05-02T08:22:24.977Z</time></trkpt><trkpt lat="40.0211" lon="15.3823633"><ele>282.0</ele><time>2026-05-02T08:22:25.977Z</time></trkpt><trkpt lat="40.0210633" lon="15.38247"><ele>282.3333333333333</ele><time>2026-05-02T08:22:26.977Z</time></trkpt><trkpt lat="40.0210317" lon="15.382575"><ele>282.66666666666663</ele><time>2026-05-02T08:22:27.977Z</time></trkpt><trkpt lat="40.0209867" lon="15.382675"><ele>283.0</ele><time>2026-05-02T08:22:28.978Z</time></trkpt><trkpt lat="40.02095" lon="15.3827783"><ele>283.0</ele><time>2026-05-02T08:22:29.977Z</time></trkpt><trkpt lat="40.0209217" lon="15.382885"><ele>283.0</ele><time>2026-05-02T08:22:30.977Z</time></trkpt><trkpt lat="40.020885" lon="15.38299"><ele>283.0</ele><time>2026-05-02T08:22:31.977Z</time></trkpt><trkpt lat="40.0208483" lon="15.3830967"><ele>283.0</ele><time>2026-05-02T08:22:32.977Z</time></trkpt><trkpt lat="40.0208133" lon="15.3832067"><ele>283.0</ele><time>2026-05-02T08:22:33.977Z</time></trkpt><trkpt lat="40.020785" lon="15.3833183"><ele>283.0</ele><time>2026-05-02T08:22:34.977Z</time></trkpt><trkpt lat="40.0207483" lon="15.3834267"><ele>277.8</ele><time>2026-05-02T08:22:35.977Z</time></trkpt><trkpt lat="40.020715" lon="15.3835383"><ele>272.6</ele><time>2026-05-02T08:22:36.977Z</time></trkpt><trkpt lat="40.0206783" lon="15.3836667"><ele>267.4</ele><time>2026-05-02T08:22:37.977Z</time></trkpt><trkpt lat="40.0206383" lon="15.3838083"><ele>262.2</ele><time>2026-05-02T08:22:38.977Z</time></trkpt><trkpt lat="40.0205967" lon="15.3839533"><ele>257.0</ele><time>2026-05-02T08:22:39.977Z</time></trkpt><trkpt lat="40.020565" lon="15.3840917"><ele>257.0</ele><time>2026-05-02T08:22:40.978Z</time></trkpt><trkpt lat="40.0205283" lon="15.38423"><ele>257.0</ele><time>2026-05-02T08:22:41.977Z</time></trkpt><trkpt lat="40.0204933" lon="15.384365"><ele>257.0</ele><time>2026-05-02T08:22:42.978Z</time></trkpt><trkpt lat="40.0204517" lon="15.3845017"><ele>257.0</ele><time>2026-05-02T08:22:43.978Z</time></trkpt><trkpt lat="40.0204067" lon="15.3846417"><ele>258.2</ele><time>2026-05-02T08:22:44.978Z</time></trkpt><trkpt lat="40.0203767" lon="15.384765"><ele>259.4</ele><time>2026-05-02T08:22:45.977Z</time></trkpt><trkpt lat="40.0203467" lon="15.3849"><ele>260.6</ele><time>2026-05-02T08:22:46.978Z</time></trkpt><trkpt lat="40.02031" lon="15.3850217"><ele>261.8</ele><time>2026-05-02T08:22:47.977Z</time></trkpt><trkpt lat="40.02027" lon="15.3851467"><ele>263.0</ele><time>2026-05-02T08:22:48.977Z</time></trkpt><trkpt lat="40.020235" lon="15.3852733"><ele>263.0</ele><time>2026-05-02T08:22:49.977Z</time></trkpt><trkpt lat="40.0202083" lon="15.3854117"><ele>263.0</ele><time>2026-05-02T08:22:50.977Z</time></trkpt><trkpt lat="40.0201867" lon="15.3855483"><ele>263.0</ele><time>2026-05-02T08:22:51.977Z</time></trkpt><trkpt lat="40.0201667" lon="15.3856783"><ele>263.0</ele><time>2026-05-02T08:22:52.977Z</time></trkpt><trkpt lat="40.0201483" lon="15.38581"><ele>263.0</ele><time>2026-05-02T08:22:53.978Z</time></trkpt><trkpt lat="40.02013" lon="15.385935"><ele>263.33333333333337</ele><time>2026-05-02T08:22:54.978Z</time></trkpt><trkpt lat="40.0201117" lon="15.3860533"><ele>263.6666666666667</ele><time>2026-05-02T08:22:55.977Z</time></trkpt><trkpt lat="40.0200983" lon="15.3861417"><ele>264.0</ele><time>2026-05-02T08:22:56.977Z</time></trkpt><trkpt lat="40.02008" lon="15.38623"><ele>264.3333333333333</ele><time>2026-05-02T08:22:58.977Z</time></trkpt><trkpt lat="40.02006" lon="15.3863117"><ele>264.66666666666663</ele><time>2026-05-02T08:23:03.977Z</time></trkpt><trkpt lat="40.0200217" lon="15.3863983"><ele>265.0</ele><time>2026-05-02T08:25:30.977Z</time></trkpt><trkpt lat="40.0199717" lon="15.3864983"><ele>265.0</ele><time>2026-05-02T08:25:32.977Z</time></trkpt><trkpt lat="40.0199267" lon="15.3865867"><ele>265.0</ele><time>2026-05-02T08:25:34.977Z</time></trkpt><trkpt lat="40.0198717" lon="15.386675"><ele>265.0</ele><time>2026-05-02T08:25:37.977Z</time></trkpt><trkpt lat="40.0198117" lon="15.3867417"><ele>265.0</ele><time>2026-05-02T08:25:40.978Z</time></trkpt><trkpt lat="40.0197383" lon="15.3867567"><ele>265.0</ele><time>2026-05-02T08:25:44.978Z</time></trkpt><trkpt lat="40.0196467" lon="15.386725"><ele>265.0</ele><time>2026-05-02T08:25:48.977Z</time></trkpt><trkpt lat="40.0195683" lon="15.3867283"><ele>265.0</ele><time>2026-05-02T08:25:50.977Z</time></trkpt><trkpt lat="40.0194917" lon="15.3866967"><ele>265.0</ele><time>2026-05-02T08:25:52.977Z</time></trkpt><trkpt lat="40.01942" lon="15.3866333"><ele>265.0</ele><time>2026-05-02T08:25:55.977Z</time></trkpt><trkpt lat="40.0193633" lon="15.386565"><ele>265.0</ele><time>2026-05-02T08:25:57.978Z</time></trkpt><trkpt lat="40.0192933" lon="15.3865067"><ele>265.0</ele><time>2026-05-02T08:25:59.978Z</time></trkpt><trkpt lat="40.0192117" lon="15.3864517"><ele>265.0</ele><time>2026-05-02T08:26:01.978Z</time></trkpt><trkpt lat="40.0191133" lon="15.3864"><ele>264.5</ele><time>2026-05-02T08:26:03.978Z</time></trkpt><trkpt lat="40.019005" lon="15.386355"><ele>264.0</ele><time>2026-05-02T08:26:05.977Z</time></trkpt><trkpt lat="40.0188933" lon="15.3863183"><ele>263.5</ele><time>2026-05-02T08:26:07.978Z</time></trkpt><trkpt lat="40.0188483" lon="15.3862567"><ele>263.0</ele><time>2026-05-02T08:26:08.977Z</time></trkpt><trkpt lat="40.0188017" lon="15.386195"><ele>262.5</ele><time>2026-05-02T08:26:09.977Z</time></trkpt><trkpt lat="40.0187583" lon="15.3861167"><ele>262.0</ele><time>2026-05-02T08:26:10.977Z</time></trkpt><trkpt lat="40.0187117" lon="15.3860467"><ele>263.0</ele><time>2026-05-02T08:26:11.977Z</time></trkpt><trkpt lat="40.0186583" lon="15.3859667"><ele>264.0</ele><time>2026-05-02T08:26:12.977Z</time></trkpt><trkpt lat="40.0186167" lon="15.3858867"><ele>265.0</ele><time>2026-05-02T08:26:13.977Z</time></trkpt><trkpt lat="40.018585" lon="15.3858117"><ele>266.0</ele><time>2026-05-02T08:26:14.978Z</time></trkpt><trkpt lat="40.0185567" lon="15.3856867"><ele>267.0</ele><time>2026-05-02T08:26:16.978Z</time></trkpt><trkpt lat="40.018535" lon="15.385605"><ele>268.0</ele><time>2026-05-02T08:26:20.977Z</time></trkpt><trkpt lat="40.0184683" lon="15.3855133"><ele>268.0</ele><time>2026-05-02T08:26:24.978Z</time></trkpt><trkpt lat="40.01841" lon="15.3854"><ele>268.0</ele><time>2026-05-02T08:26:26.977Z</time></trkpt><trkpt lat="40.01835" lon="15.3852633"><ele>268.0</ele><time>2026-05-02T08:26:28.977Z</time></trkpt><trkpt lat="40.0183233" lon="15.3851867"><ele>268.0</ele><time>2026-05-02T08:26:29.978Z</time></trkpt><trkpt lat="40.0182917" lon="15.3851083"><ele>268.0</ele><time>2026-05-02T08:26:30.978Z</time></trkpt><trkpt lat="40.0182333" lon="15.3849733"><ele>268.0</ele><time>2026-05-02T08:26:32.978Z</time></trkpt><trkpt lat="40.0181533" lon="15.3848917"><ele>268.0</ele><time>2026-05-02T08:26:34.978Z</time></trkpt><trkpt lat="40.01803" lon="15.3848567"><ele>268.0</ele><time>2026-05-02T08:26:36.977Z</time></trkpt><trkpt lat="40.0179467" lon="15.384855"><ele>268.0</ele><time>2026-05-02T08:26:37.978Z</time></trkpt><trkpt lat="40.0178617" lon="15.3848433"><ele>268.0</ele><time>2026-05-02T08:26:38.978Z</time></trkpt><trkpt lat="40.0177767" lon="15.3848167"><ele>268.0</ele><time>2026-05-02T08:26:39.977Z</time></trkpt><trkpt lat="40.0177033" lon="15.3847667"><ele>268.0</ele><time>2026-05-02T08:26:40.978Z</time></trkpt><trkpt lat="40.01764" lon="15.3846983"><ele>268.0</ele><time>2026-05-02T08:26:41.978Z</time></trkpt><trkpt lat="40.0175917" lon="15.384635"><ele>268.0</ele><time>2026-05-02T08:26:42.978Z</time></trkpt><trkpt lat="40.0175317" lon="15.3845017"><ele>268.0</ele><time>2026-05-02T08:26:44.978Z</time></trkpt><trkpt lat="40.0174783" lon="15.3843683"><ele>263.2</ele><time>2026-05-02T08:26:46.977Z</time></trkpt><trkpt lat="40.017415" lon="15.3842633"><ele>258.4</ele><time>2026-05-02T08:26:48.977Z</time></trkpt><trkpt lat="40.0173217" lon="15.3842467"><ele>253.59999999999997</ele><time>2026-05-02T08:26:50.977Z</time></trkpt><trkpt lat="40.0172217" lon="15.38435"><ele>248.79999999999998</ele><time>2026-05-02T08:26:52.978Z</time></trkpt><trkpt lat="40.01717" lon="15.3844233"><ele>244.0</ele><time>2026-05-02T08:26:53.977Z</time></trkpt><trkpt lat="40.0171183" lon="15.3845167"><ele>244.0</ele><time>2026-05-02T08:26:54.977Z</time></trkpt><trkpt lat="40.0170567" lon="15.3846333"><ele>243.99999999999997</ele><time>2026-05-02T08:26:55.977Z</time></trkpt><trkpt lat="40.0170033" lon="15.3847367"><ele>243.99999999999997</ele><time>2026-05-02T08:26:56.978Z</time></trkpt><trkpt lat="40.01694" lon="15.384835"><ele>244.0</ele><time>2026-05-02T08:26:57.977Z</time></trkpt><trkpt lat="40.01687" lon="15.3849083"><ele>244.0</ele><time>2026-05-02T08:26:58.978Z</time></trkpt><trkpt lat="40.0167867" lon="15.3849667"><ele>242.6</ele><time>2026-05-02T08:26:59.977Z</time></trkpt><trkpt lat="40.01669" lon="15.385015"><ele>241.2</ele><time>2026-05-02T08:27:00.977Z</time></trkpt><trkpt lat="40.0165933" lon="15.3850683"><ele>239.79999999999998</ele><time>2026-05-02T08:27:01.977Z</time></trkpt><trkpt lat="40.016495" lon="15.3851383"><ele>238.39999999999998</ele><time>2026-05-02T08:27:02.978Z</time></trkpt><trkpt lat="40.01642" lon="15.3852183"><ele>237.0</ele><time>2026-05-02T08:27:03.977Z</time></trkpt><trkpt lat="40.0163667" lon="15.3852867"><ele>237.0</ele><time>2026-05-02T08:27:04.978Z</time></trkpt><trkpt lat="40.01633" lon="15.3853567"><ele>237.0</ele><time>2026-05-02T08:27:05.977Z</time></trkpt><trkpt lat="40.01626" lon="15.385455"><ele>237.0</ele><time>2026-05-02T08:27:07.977Z</time></trkpt><trkpt lat="40.0161983" lon="15.3854317"><ele>237.0</ele><time>2026-05-02T08:27:09.978Z</time></trkpt><trkpt lat="40.0162217" lon="15.3852933"><ele>237.0</ele><time>2026-05-02T08:27:11.977Z</time></trkpt><trkpt lat="40.01628" lon="15.385225"><ele>237.0</ele><time>2026-05-02T08:27:12.977Z</time></trkpt><trkpt lat="40.016355" lon="15.385145"><ele>237.0</ele><time>2026-05-02T08:27:13.977Z</time></trkpt><trkpt lat="40.0164333" lon="15.385055"><ele>237.0</ele><time>2026-05-02T08:27:14.978Z</time></trkpt><trkpt lat="40.01651" lon="15.3849733"><ele>237.0</ele><time>2026-05-02T08:27:15.977Z</time></trkpt><trkpt lat="40.0165667" lon="15.384895"><ele>237.0</ele><time>2026-05-02T08:27:16.977Z</time></trkpt><trkpt lat="40.0166133" lon="15.3848217"><ele>237.0</ele><time>2026-05-02T08:27:17.977Z</time></trkpt><trkpt lat="40.01664" lon="15.38474"><ele>237.0</ele><time>2026-05-02T08:27:18.977Z</time></trkpt><trkpt lat="40.0166283" lon="15.3846533"><ele>237.6</ele><time>2026-05-02T08:27:19.977Z</time></trkpt><trkpt lat="40.01658" lon="15.3845817"><ele>238.2</ele><time>2026-05-02T08:27:20.977Z</time></trkpt><trkpt lat="40.0165067" lon="15.384515"><ele>238.8</ele><time>2026-05-02T08:27:21.977Z</time></trkpt><trkpt lat="40.0164333" lon="15.3844417"><ele>239.4</ele><time>2026-05-02T08:27:22.978Z</time></trkpt><trkpt lat="40.0163533" lon="15.3843583"><ele>240.0</ele><time>2026-05-02T08:27:23.978Z</time></trkpt><trkpt lat="40.0162783" lon="15.3842733"><ele>240.0</ele><time>2026-05-02T08:27:24.977Z</time></trkpt><trkpt lat="40.0162" lon="15.384195"><ele>240.0</ele><time>2026-05-02T08:27:25.978Z</time></trkpt><trkpt lat="40.01613" lon="15.3841217"><ele>240.0</ele><time>2026-05-02T08:27:26.977Z</time></trkpt><trkpt lat="40.0160433" lon="15.384055"><ele>240.0</ele><time>2026-05-02T08:27:27.978Z</time></trkpt><trkpt lat="40.015955" lon="15.3839767"><ele>240.0</ele><time>2026-05-02T08:27:28.977Z</time></trkpt><trkpt lat="40.015875" lon="15.3838917"><ele>237.6</ele><time>2026-05-02T08:27:29.978Z</time></trkpt><trkpt lat="40.01582" lon="15.38378"><ele>235.2</ele><time>2026-05-02T08:27:30.977Z</time></trkpt><trkpt lat="40.0157883" lon="15.3836483"><ele>232.8</ele><time>2026-05-02T08:27:31.978Z</time></trkpt><trkpt lat="40.0157617" lon="15.3835283"><ele>230.4</ele><time>2026-05-02T08:27:32.977Z</time></trkpt><trkpt lat="40.015715" lon="15.3834183"><ele>228.0</ele><time>2026-05-02T08:27:33.977Z</time></trkpt><trkpt lat="40.0156583" lon="15.3833433"><ele>228.0</ele><time>2026-05-02T08:27:34.977Z</time></trkpt><trkpt lat="40.0155783" lon="15.3832933"><ele>228.0</ele><time>2026-05-02T08:27:35.977Z</time></trkpt><trkpt lat="40.0154833" lon="15.38327"><ele>228.0</ele><time>2026-05-02T08:27:36.977Z</time></trkpt><trkpt lat="40.0153867" lon="15.3832483"><ele>228.0</ele><time>2026-05-02T08:27:37.978Z</time></trkpt><trkpt lat="40.0153017" lon="15.383225"><ele>228.0</ele><time>2026-05-02T08:27:38.978Z</time></trkpt><trkpt lat="40.015215" lon="15.3832333"><ele>228.0</ele><time>2026-05-02T08:27:39.977Z</time></trkpt><trkpt lat="40.0151383" lon="15.383275"><ele>228.0</ele><time>2026-05-02T08:27:40.977Z</time></trkpt><trkpt lat="40.01508" lon="15.3833367"><ele>228.0</ele><time>2026-05-02T08:27:41.978Z</time></trkpt><trkpt lat="40.0150583" lon="15.383425"><ele>228.0</ele><time>2026-05-02T08:27:42.977Z</time></trkpt><trkpt lat="40.0150533" lon="15.3835167"><ele>228.0</ele><time>2026-05-02T08:27:43.978Z</time></trkpt><trkpt lat="40.015035" lon="15.38362"><ele>228.0</ele><time>2026-05-02T08:27:44.977Z</time></trkpt><trkpt lat="40.01499" lon="15.3837183"><ele>226.33333333333334</ele><time>2026-05-02T08:27:45.977Z</time></trkpt><trkpt lat="40.0149417" lon="15.3837917"><ele>224.66666666666669</ele><time>2026-05-02T08:27:46.977Z</time></trkpt><trkpt lat="40.0148767" lon="15.3838517"><ele>223.0</ele><time>2026-05-02T08:27:47.977Z</time></trkpt><trkpt lat="40.014805" lon="15.3838817"><ele>221.33333333333334</ele><time>2026-05-02T08:27:48.978Z</time></trkpt><trkpt lat="40.0147267" lon="15.3838717"><ele>219.66666666666669</ele><time>2026-05-02T08:27:49.978Z</time></trkpt><trkpt lat="40.01464" lon="15.38383"><ele>218.0</ele><time>2026-05-02T08:27:50.977Z</time></trkpt><trkpt lat="40.014545" lon="15.3837633"><ele>218.0</ele><time>2026-05-02T08:27:51.977Z</time></trkpt><trkpt lat="40.0144467" lon="15.3836817"><ele>218.0</ele><time>2026-05-02T08:27:52.977Z</time></trkpt><trkpt lat="40.0143483" lon="15.3836017"><ele>218.0</ele><time>2026-05-02T08:27:53.977Z</time></trkpt><trkpt lat="40.0142517" lon="15.3835183"><ele>218.0</ele><time>2026-05-02T08:27:54.978Z</time></trkpt><trkpt lat="40.01417" lon="15.3834183"><ele>216.75</ele><time>2026-05-02T08:27:55.977Z</time></trkpt><trkpt lat="40.0140933" lon="15.38331"><ele>215.5</ele><time>2026-05-02T08:27:56.977Z</time></trkpt><trkpt lat="40.01403" lon="15.3831817"><ele>214.25</ele><time>2026-05-02T08:27:57.977Z</time></trkpt><trkpt lat="40.0139767" lon="15.3830433"><ele>213.0</ele><time>2026-05-02T08:27:58.977Z</time></trkpt><trkpt lat="40.0139267" lon="15.3829017"><ele>213.0</ele><time>2026-05-02T08:27:59.977Z</time></trkpt><trkpt lat="40.013875" lon="15.3827567"><ele>213.0</ele><time>2026-05-02T08:28:00.977Z</time></trkpt><trkpt lat="40.0138517" lon="15.38261"><ele>213.0</ele><time>2026-05-02T08:28:01.978Z</time></trkpt><trkpt lat="40.0138417" lon="15.3824583"><ele>213.0</ele><time>2026-05-02T08:28:02.977Z</time></trkpt><trkpt lat="40.0138417" lon="15.3823133"><ele>213.0</ele><time>2026-05-02T08:28:03.977Z</time></trkpt><trkpt lat="40.0138417" lon="15.3821817"><ele>213.0</ele><time>2026-05-02T08:28:04.978Z</time></trkpt><trkpt lat="40.0138133" lon="15.3820633"><ele>213.0</ele><time>2026-05-02T08:28:05.977Z</time></trkpt><trkpt lat="40.0137683" lon="15.381965"><ele>213.0</ele><time>2026-05-02T08:28:06.977Z</time></trkpt><trkpt lat="40.0137083" lon="15.3818983"><ele>213.0</ele><time>2026-05-02T08:28:07.977Z</time></trkpt><trkpt lat="40.0136267" lon="15.38187"><ele>213.0</ele><time>2026-05-02T08:28:08.977Z</time></trkpt><trkpt lat="40.0135383" lon="15.3818833"><ele>211.8</ele><time>2026-05-02T08:28:09.977Z</time></trkpt><trkpt lat="40.0134417" lon="15.3818967"><ele>210.60000000000002</ele><time>2026-05-02T08:28:10.977Z</time></trkpt><trkpt lat="40.01334" lon="15.38191"><ele>209.39999999999998</ele><time>2026-05-02T08:28:11.978Z</time></trkpt><trkpt lat="40.01325" lon="15.3819"><ele>208.2</ele><time>2026-05-02T08:28:12.978Z</time></trkpt><trkpt lat="40.013165" lon="15.38187"><ele>207.0</ele><time>2026-05-02T08:28:13.977Z</time></trkpt><trkpt lat="40.013085" lon="15.3818183"><ele>207.0</ele><time>2026-05-02T08:28:14.978Z</time></trkpt><trkpt lat="40.013025" lon="15.3817333"><ele>207.0</ele><time>2026-05-02T08:28:15.977Z</time></trkpt><trkpt lat="40.0129767" lon="15.3816217"><ele>207.0</ele><time>2026-05-02T08:28:16.978Z</time></trkpt><trkpt lat="40.01295" lon="15.3815"><ele>207.0</ele><time>2026-05-02T08:28:17.977Z</time></trkpt><trkpt lat="40.0129317" lon="15.3813733"><ele>207.0</ele><time>2026-05-02T08:28:18.977Z</time></trkpt><trkpt lat="40.0129183" lon="15.38123"><ele>206.2</ele><time>2026-05-02T08:28:19.978Z</time></trkpt><trkpt lat="40.0129" lon="15.3810983"><ele>205.39999999999998</ele><time>2026-05-02T08:28:20.978Z</time></trkpt><trkpt lat="40.0128783" lon="15.38098"><ele>204.60000000000002</ele><time>2026-05-02T08:28:21.977Z</time></trkpt><trkpt lat="40.01283" lon="15.38086"><ele>203.8</ele><time>2026-05-02T08:28:22.978Z</time></trkpt><trkpt lat="40.0127617" lon="15.38078"><ele>203.0</ele><time>2026-05-02T08:28:23.978Z</time></trkpt><trkpt lat="40.0126667" lon="15.3807267"><ele>203.0</ele><time>2026-05-02T08:28:24.977Z</time></trkpt><trkpt lat="40.0125667" lon="15.380695"><ele>203.0</ele><time>2026-05-02T08:28:25.978Z</time></trkpt><trkpt lat="40.0124517" lon="15.38069"><ele>203.0</ele><time>2026-05-02T08:28:26.977Z</time></trkpt><trkpt lat="40.0123383" lon="15.3807017"><ele>203.0</ele><time>2026-05-02T08:28:27.977Z</time></trkpt><trkpt lat="40.01223" lon="15.3807233"><ele>203.0</ele><time>2026-05-02T08:28:28.977Z</time></trkpt><trkpt lat="40.0121317" lon="15.3807517"><ele>200.4</ele><time>2026-05-02T08:28:29.977Z</time></trkpt><trkpt lat="40.012045" lon="15.3807983"><ele>197.8</ele><time>2026-05-02T08:28:30.978Z</time></trkpt><trkpt lat="40.0119667" lon="15.3808667"><ele>195.2</ele><time>2026-05-02T08:28:31.977Z</time></trkpt><trkpt lat="40.0119" lon="15.3809667"><ele>192.6</ele><time>2026-05-02T08:28:32.977Z</time></trkpt><trkpt lat="40.0118467" lon="15.3810933"><ele>190.0</ele><time>2026-05-02T08:28:33.978Z</time></trkpt><trkpt lat="40.0118" lon="15.3812333"><ele>190.5</ele><time>2026-05-02T08:28:34.977Z</time></trkpt><trkpt lat="40.0117583" lon="15.3813833"><ele>191.0</ele><time>2026-05-02T08:28:35.978Z</time></trkpt><trkpt lat="40.0117267" lon="15.381535"><ele>191.5</ele><time>2026-05-02T08:28:36.978Z</time></trkpt><trkpt lat="40.01169" lon="15.38168"><ele>192.0</ele><time>2026-05-02T08:28:37.977Z</time></trkpt><trkpt lat="40.0116433" lon="15.38183"><ele>189.0</ele><time>2026-05-02T08:28:38.977Z</time></trkpt><trkpt lat="40.0116" lon="15.3819767"><ele>186.0</ele><time>2026-05-02T08:28:39.977Z</time></trkpt><trkpt lat="40.0115583" lon="15.3821067"><ele>183.0</ele><time>2026-05-02T08:28:40.977Z</time></trkpt><trkpt lat="40.0115217" lon="15.3822367"><ele>180.0</ele><time>2026-05-02T08:28:41.977Z</time></trkpt><trkpt lat="40.0114983" lon="15.382355"><ele>177.0</ele><time>2026-05-02T08:28:42.978Z</time></trkpt><trkpt lat="40.011495" lon="15.3824617"><ele>177.0</ele><time>2026-05-02T08:28:43.977Z</time></trkpt><trkpt lat="40.0115117" lon="15.3825783"><ele>177.0</ele><time>2026-05-02T08:28:44.977Z</time></trkpt><trkpt lat="40.0115483" lon="15.3826817"><ele>177.0</ele><time>2026-05-02T08:28:45.977Z</time></trkpt><trkpt lat="40.01159" lon="15.3827917"><ele>177.0</ele><time>2026-05-02T08:28:46.977Z</time></trkpt><trkpt lat="40.011615" lon="15.3828867"><ele>177.0</ele><time>2026-05-02T08:28:47.977Z</time></trkpt><trkpt lat="40.0115567" lon="15.3830317"><ele>177.0</ele><time>2026-05-02T08:28:49.977Z</time></trkpt><trkpt lat="40.0114267" lon="15.383025"><ele>177.0</ele><time>2026-05-02T08:28:51.977Z</time></trkpt><trkpt lat="40.01135" lon="15.38294"><ele>177.0</ele><time>2026-05-02T08:28:52.977Z</time></trkpt><trkpt lat="40.0112783" lon="15.3828167"><ele>177.0</ele><time>2026-05-02T08:28:53.977Z</time></trkpt><trkpt lat="40.0112217" lon="15.3826867"><ele>177.0</ele><time>2026-05-02T08:28:54.978Z</time></trkpt><trkpt lat="40.011185" lon="15.38255"><ele>177.0</ele><time>2026-05-02T08:28:55.977Z</time></trkpt><trkpt lat="40.0111433" lon="15.3824217"><ele>177.0</ele><time>2026-05-02T08:28:56.977Z</time></trkpt><trkpt lat="40.0110967" lon="15.3822983"><ele>177.0</ele><time>2026-05-02T08:28:57.977Z</time></trkpt><trkpt lat="40.0110567" lon="15.3821683"><ele>177.0</ele><time>2026-05-02T08:28:58.977Z</time></trkpt><trkpt lat="40.011015" lon="15.3820283"><ele>177.0</ele><time>2026-05-02T08:28:59.977Z</time></trkpt><trkpt lat="40.0109633" lon="15.3819017"><ele>177.0</ele><time>2026-05-02T08:29:00.978Z</time></trkpt><trkpt lat="40.0109217" lon="15.3817817"><ele>177.0</ele><time>2026-05-02T08:29:01.977Z</time></trkpt><trkpt lat="40.0108983" lon="15.38165"><ele>177.0</ele><time>2026-05-02T08:29:02.977Z</time></trkpt><trkpt lat="40.010885" lon="15.3815117"><ele>177.0</ele><time>2026-05-02T08:29:03.977Z</time></trkpt><trkpt lat="40.0108883" lon="15.3813767"><ele>176.8</ele><time>2026-05-02T08:29:04.977Z</time></trkpt><trkpt lat="40.0108983" lon="15.3812367"><ele>176.6</ele><time>2026-05-02T08:29:05.978Z</time></trkpt><trkpt lat="40.01091" lon="15.381095"><ele>176.4</ele><time>2026-05-02T08:29:06.978Z</time></trkpt><trkpt lat="40.01091" lon="15.3809467"><ele>176.20000000000002</ele><time>2026-05-02T08:29:07.978Z</time></trkpt><trkpt lat="40.0108783" lon="15.3808167"><ele>176.0</ele><time>2026-05-02T08:29:08.977Z</time></trkpt><trkpt lat="40.0108383" lon="15.3806817"><ele>170.4</ele><time>2026-05-02T08:29:09.977Z</time></trkpt><trkpt lat="40.0107917" lon="15.3805517"><ele>164.8</ele><time>2026-05-02T08:29:10.977Z</time></trkpt><trkpt lat="40.0107633" lon="15.3804217"><ele>159.20000000000002</ele><time>2026-05-02T08:29:11.977Z</time></trkpt><trkpt lat="40.0107533" lon="15.3802917"><ele>153.60000000000002</ele><time>2026-05-02T08:29:12.977Z</time></trkpt><trkpt lat="40.01073" lon="15.3801867"><ele>148.0</ele><time>2026-05-02T08:29:13.977Z</time></trkpt><trkpt lat="40.0106833" lon="15.3801167"><ele>148.0</ele><time>2026-05-02T08:29:14.977Z</time></trkpt><trkpt lat="40.0106233" lon="15.3800917"><ele>148.0</ele><time>2026-05-02T08:29:15.978Z</time></trkpt><trkpt lat="40.0105233" lon="15.3801833"><ele>148.0</ele><time>2026-05-02T08:29:17.978Z</time></trkpt><trkpt lat="40.01052" lon="15.38028"><ele>148.0</ele><time>2026-05-02T08:29:18.978Z</time></trkpt><trkpt lat="40.01055" lon="15.380385"><ele>148.0</ele><time>2026-05-02T08:29:19.977Z</time></trkpt><trkpt lat="40.0105783" lon="15.3804883"><ele>148.0</ele><time>2026-05-02T08:29:20.978Z</time></trkpt><trkpt lat="40.0105883" lon="15.3806"><ele>148.0</ele><time>2026-05-02T08:29:21.977Z</time></trkpt><trkpt lat="40.0105767" lon="15.3807117"><ele>148.0</ele><time>2026-05-02T08:29:22.977Z</time></trkpt><trkpt lat="40.0105433" lon="15.380825"><ele>148.0</ele><time>2026-05-02T08:29:23.977Z</time></trkpt><trkpt lat="40.0104967" lon="15.3809317"><ele>148.0</ele><time>2026-05-02T08:29:24.977Z</time></trkpt><trkpt lat="40.0104367" lon="15.3810383"><ele>148.0</ele><time>2026-05-02T08:29:25.977Z</time></trkpt><trkpt lat="40.0103683" lon="15.38114"><ele>148.0</ele><time>2026-05-02T08:29:26.977Z</time></trkpt><trkpt lat="40.0102867" lon="15.3812317"><ele>148.0</ele><time>2026-05-02T08:29:27.977Z</time></trkpt><trkpt lat="40.0101967" lon="15.38132"><ele>148.0</ele><time>2026-05-02T08:29:28.978Z</time></trkpt><trkpt lat="40.0101183" lon="15.3814183"><ele>148.0</ele><time>2026-05-02T08:29:29.977Z</time></trkpt><trkpt lat="40.01005" lon="15.3815317"><ele>148.0</ele><time>2026-05-02T08:29:30.977Z</time></trkpt><trkpt lat="40.01" lon="15.38166"><ele>146.20000000000002</ele><time>2026-05-02T08:29:31.977Z</time></trkpt><trkpt lat="40.0099567" lon="15.381795"><ele>144.4</ele><time>2026-05-02T08:29:32.977Z</time></trkpt><trkpt lat="40.009915" lon="15.3819233"><ele>142.60000000000002</ele><time>2026-05-02T08:29:33.978Z</time></trkpt><trkpt lat="40.0098867" lon="15.3820517"><ele>140.8</ele><time>2026-05-02T08:29:34.978Z</time></trkpt><trkpt lat="40.00986" lon="15.3821717"><ele>139.0</ele><time>2026-05-02T08:29:35.977Z</time></trkpt><trkpt lat="40.0098533" lon="15.38229"><ele>136.8</ele><time>2026-05-02T08:29:36.977Z</time></trkpt><trkpt lat="40.0098767" lon="15.3824"><ele>134.60000000000002</ele><time>2026-05-02T08:29:37.977Z</time></trkpt><trkpt lat="40.0099133" lon="15.3824933"><ele>132.4</ele><time>2026-05-02T08:29:38.978Z</time></trkpt><trkpt lat="40.009935" lon="15.3825917"><ele>130.20000000000002</ele><time>2026-05-02T08:29:39.977Z</time></trkpt><trkpt lat="40.0098867" lon="15.3827267"><ele>128.0</ele><time>2026-05-02T08:29:41.977Z</time></trkpt><trkpt lat="40.00978" lon="15.3826867"><ele>127.99999999999999</ele><time>2026-05-02T08:29:43.977Z</time></trkpt><trkpt lat="40.009725" lon="15.3826117"><ele>128.0</ele><time>2026-05-02T08:29:44.977Z</time></trkpt><trkpt lat="40.0096883" lon="15.382515"><ele>128.0</ele><time>2026-05-02T08:29:45.977Z</time></trkpt><trkpt lat="40.0096583" lon="15.3824317"><ele>128.0</ele><time>2026-05-02T08:29:46.977Z</time></trkpt><trkpt lat="40.0096183" lon="15.38228"><ele>127.99999999999999</ele><time>2026-05-02T08:29:48.978Z</time></trkpt><trkpt lat="40.0096" lon="15.3822"><ele>128.0</ele><time>2026-05-02T08:29:49.977Z</time></trkpt><trkpt lat="40.0095833" lon="15.3821183"><ele>129.83333333333331</ele><time>2026-05-02T08:29:50.977Z</time></trkpt><trkpt lat="40.0095667" lon="15.3820383"><ele>131.66666666666666</ele><time>2026-05-02T08:29:51.978Z</time></trkpt><trkpt lat="40.00956" lon="15.38195"><ele>133.5</ele><time>2026-05-02T08:29:52.977Z</time></trkpt><trkpt lat="40.00956" lon="15.3818383"><ele>135.33333333333334</ele><time>2026-05-02T08:29:53.977Z</time></trkpt><trkpt lat="40.009565" lon="15.38172"><ele>137.16666666666669</ele><time>2026-05-02T08:29:54.977Z</time></trkpt><trkpt lat="40.0095833" lon="15.3815983"><ele>139.0</ele><time>2026-05-02T08:29:55.978Z</time></trkpt><trkpt lat="40.0096133" lon="15.3814783"><ele>139.0</ele><time>2026-05-02T08:29:56.977Z</time></trkpt><trkpt lat="40.0096483" lon="15.3813617"><ele>139.0</ele><time>2026-05-02T08:29:57.978Z</time></trkpt><trkpt lat="40.0096967" lon="15.3812633"><ele>139.0</ele><time>2026-05-02T08:29:58.977Z</time></trkpt><trkpt lat="40.0097483" lon="15.3811733"><ele>139.0</ele><time>2026-05-02T08:29:59.978Z</time></trkpt><trkpt lat="40.0097917" lon="15.3810967"><ele>139.0</ele><time>2026-05-02T08:30:00.977Z</time></trkpt><trkpt lat="40.0098217" lon="15.3810217"><ele>139.0</ele><time>2026-05-02T08:30:01.978Z</time></trkpt><trkpt lat="40.009775" lon="15.3809"><ele>139.0</ele><time>2026-05-02T08:30:03.978Z</time></trkpt><trkpt lat="40.0097117" lon="15.3808933"><ele>139.0</ele><time>2026-05-02T08:30:04.978Z</time></trkpt><trkpt lat="40.00965" lon="15.3809267"><ele>139.0</ele><time>2026-05-02T08:30:05.978Z</time></trkpt><trkpt lat="40.00961" lon="15.3810017"><ele>139.0</ele><time>2026-05-02T08:30:06.977Z</time></trkpt><trkpt lat="40.009585" lon="15.3810967"><ele>139.0</ele><time>2026-05-02T08:30:07.978Z</time></trkpt><trkpt lat="40.0095617" lon="15.38119"><ele>139.0</ele><time>2026-05-02T08:30:08.977Z</time></trkpt><trkpt lat="40.0095267" lon="15.381275"><ele>139.0</ele><time>2026-05-02T08:30:09.977Z</time></trkpt><trkpt lat="40.0094867" lon="15.38135"><ele>139.0</ele><time>2026-05-02T08:30:10.978Z</time></trkpt><trkpt lat="40.009425" lon="15.3814133"><ele>139.0</ele><time>2026-05-02T08:30:11.978Z</time></trkpt><trkpt lat="40.0093533" lon="15.3814617"><ele>139.0</ele><time>2026-05-02T08:30:12.977Z</time></trkpt><trkpt lat="40.0092767" lon="15.3815133"><ele>139.0</ele><time>2026-05-02T08:30:13.978Z</time></trkpt><trkpt lat="40.0092067" lon="15.38156"><ele>139.0</ele><time>2026-05-02T08:30:14.977Z</time></trkpt><trkpt lat="40.00914" lon="15.38162"><ele>139.0</ele><time>2026-05-02T08:30:15.977Z</time></trkpt><trkpt lat="40.0090833" lon="15.3817017"><ele>136.16666666666669</ele><time>2026-05-02T08:30:16.977Z</time></trkpt><trkpt lat="40.0090367" lon="15.3817917"><ele>133.33333333333334</ele><time>2026-05-02T08:30:17.977Z</time></trkpt><trkpt lat="40.009025" lon="15.3818983"><ele>130.5</ele><time>2026-05-02T08:30:18.977Z</time></trkpt><trkpt lat="40.0090433" lon="15.382"><ele>127.66666666666666</ele><time>2026-05-02T08:30:19.977Z</time></trkpt><trkpt lat="40.0090867" lon="15.38208"><ele>124.83333333333333</ele><time>2026-05-02T08:30:20.977Z</time></trkpt><trkpt lat="40.0091317" lon="15.3821517"><ele>122.0</ele><time>2026-05-02T08:30:21.978Z</time></trkpt><trkpt lat="40.00914" lon="15.3822683"><ele>122.0</ele><time>2026-05-02T08:30:23.977Z</time></trkpt><trkpt lat="40.009045" lon="15.3822867"><ele>121.99999999999999</ele><time>2026-05-02T08:30:25.977Z</time></trkpt><trkpt lat="40.008985" lon="15.3822483"><ele>121.99999999999999</ele><time>2026-05-02T08:30:26.977Z</time></trkpt><trkpt lat="40.0089417" lon="15.382185"><ele>122.0</ele><time>2026-05-02T08:30:27.978Z</time></trkpt><trkpt lat="40.008865" lon="15.3820617"><ele>122.0</ele><time>2026-05-02T08:30:29.978Z</time></trkpt><trkpt lat="40.0096183" lon="15.38228"><ele>122.85714285714283</ele><time>2026-05-02T08:29:48.978Z</time></trkpt><trkpt lat="40.0096" lon="15.3822"><ele>123.71428571428571</ele><time>2026-05-02T08:29:49.977Z</time></trkpt><trkpt lat="40.0095833" lon="15.3821183"><ele>124.57142857142856</ele><time>2026-05-02T08:29:50.977Z</time></trkpt><trkpt lat="40.0095667" lon="15.3820383"><ele>125.42857142857142</ele><time>2026-05-02T08:29:51.978Z</time></trkpt><trkpt lat="40.00956" lon="15.38195"><ele>126.28571428571428</ele><time>2026-05-02T08:29:52.977Z</time></trkpt><trkpt lat="40.00956" lon="15.3818383"><ele>127.14285714285714</ele><time>2026-05-02T08:29:53.977Z</time></trkpt><trkpt lat="40.009565" lon="15.38172"><ele>128.0</ele><time>2026-05-02T08:29:54.977Z</time></trkpt><trkpt lat="40.0095833" lon="15.3815983"><ele>127.49999999999999</ele><time>2026-05-02T08:29:55.978Z</time></trkpt><trkpt lat="40.0096133" lon="15.3814783"><ele>127.0</ele><time>2026-05-02T08:29:56.977Z</time></trkpt><trkpt lat="40.0096483" lon="15.3813617"><ele>126.5</ele><time>2026-05-02T08:29:57.978Z</time></trkpt><trkpt lat="40.0096967" lon="15.3812633"><ele>126.0</ele><time>2026-05-02T08:29:58.977Z</time></trkpt><trkpt lat="40.0097483" lon="15.3811733"><ele>125.49999999999999</ele><time>2026-05-02T08:29:59.978Z</time></trkpt><trkpt lat="40.0097917" lon="15.3810967"><ele>125.0</ele><time>2026-05-02T08:30:00.977Z</time></trkpt><trkpt lat="40.0098217" lon="15.3810217"><ele>124.99999999999999</ele><time>2026-05-02T08:30:01.978Z</time></trkpt><trkpt lat="40.009775" lon="15.3809"><ele>125.0</ele><time>2026-05-02T08:30:03.978Z</time></trkpt><trkpt lat="40.0097117" lon="15.3808933"><ele>125.0</ele><time>2026-05-02T08:30:04.978Z</time></trkpt><trkpt lat="40.00965" lon="15.3809267"><ele>125.0</ele><time>2026-05-02T08:30:05.978Z</time></trkpt><trkpt lat="40.00961" lon="15.3810017"><ele>124.99999999999999</ele><time>2026-05-02T08:30:06.977Z</time></trkpt><trkpt lat="40.009585" lon="15.3810967"><ele>125.0</ele><time>2026-05-02T08:30:07.978Z</time></trkpt><trkpt lat="40.0095617" lon="15.38119"><ele>124.99999999999999</ele><time>2026-05-02T08:30:08.977Z</time></trkpt><trkpt lat="40.0095267" lon="15.381275"><ele>125.0</ele><time>2026-05-02T08:30:09.977Z</time></trkpt><trkpt lat="40.0094867" lon="15.38135"><ele>125.0</ele><time>2026-05-02T08:30:10.978Z</time></trkpt><trkpt lat="40.009425" lon="15.3814133"><ele>125.0</ele><time>2026-05-02T08:30:11.978Z</time></trkpt><trkpt lat="40.0093533" lon="15.3814617"><ele>124.99999999999999</ele><time>2026-05-02T08:30:12.977Z</time></trkpt><trkpt lat="40.0092767" lon="15.3815133"><ele>125.0</ele><time>2026-05-02T08:30:13.978Z</time></trkpt><trkpt lat="40.0092067" lon="15.38156"><ele>124.49999999999999</ele><time>2026-05-02T08:30:14.977Z</time></trkpt><trkpt lat="40.00914" lon="15.38162"><ele>124.0</ele><time>2026-05-02T08:30:15.977Z</time></trkpt><trkpt lat="40.0090833" lon="15.3817017"><ele>123.5</ele><time>2026-05-02T08:30:16.977Z</time></trkpt><trkpt lat="40.0090367" lon="15.3817917"><ele>123.0</ele><time>2026-05-02T08:30:17.977Z</time></trkpt><trkpt lat="40.009025" lon="15.3818983"><ele>122.49999999999999</ele><time>2026-05-02T08:30:18.977Z</time></trkpt><trkpt lat="40.0090433" lon="15.382"><ele>122.0</ele><time>2026-05-02T08:30:19.977Z</time></trkpt><trkpt lat="40.0090867" lon="15.38208"><ele>121.99999999999999</ele><time>2026-05-02T08:30:20.977Z</time></trkpt><trkpt lat="40.0091317" lon="15.3821517"><ele>122.0</ele><time>2026-05-02T08:30:21.978Z</time></trkpt><trkpt lat="40.00914" lon="15.3822683"><ele>122.0</ele><time>2026-05-02T08:30:23.977Z</time></trkpt><trkpt lat="40.009045" lon="15.3822867"><ele>122.0</ele><time>2026-05-02T08:30:25.977Z</time></trkpt><trkpt lat="40.008985" lon="15.3822483"><ele>121.99999999999999</ele><time>2026-05-02T08:30:26.977Z</time></trkpt><trkpt lat="40.0089417" lon="15.382185"><ele>122.0</ele><time>2026-05-02T08:30:27.978Z</time></trkpt><trkpt lat="40.008865" lon="15.3820617"><ele>122.0</ele><time>2026-05-02T08:30:29.978Z</time></trkpt><trkpt lat="40.0088233" lon="15.38199"><ele>121.99999999999999</ele><time>2026-05-02T08:30:30.978Z</time></trkpt><trkpt lat="40.0087733" lon="15.3818967"><ele>121.99999999999999</ele><time>2026-05-02T08:30:31.978Z</time></trkpt><trkpt lat="40.0087383" lon="15.3817667"><ele>122.0</ele><time>2026-05-02T08:30:32.977Z</time></trkpt><trkpt lat="40.0087233" lon="15.3816367"><ele>122.0</ele><time>2026-05-02T08:30:33.978Z</time></trkpt><trkpt lat="40.0087317" lon="15.38152"><ele>121.99999999999999</ele><time>2026-05-02T08:30:34.977Z</time></trkpt><trkpt lat="40.0087617" lon="15.3814267"><ele>122.0</ele><time>2026-05-02T08:30:35.978Z</time></trkpt><trkpt lat="40.0088117" lon="15.381355"><ele>122.0</ele><time>2026-05-02T08:30:36.977Z</time></trkpt><trkpt lat="40.0088733" lon="15.3813183"><ele>122.0</ele><time>2026-05-02T08:30:37.977Z</time></trkpt><trkpt lat="40.0089467" lon="15.3813017"><ele>121.99999999999999</ele><time>2026-05-02T08:30:38.977Z</time></trkpt><trkpt lat="40.0090467" lon="15.3812667"><ele>122.0</ele><time>2026-05-02T08:30:40.977Z</time></trkpt><trkpt lat="40.00911" lon="15.3811883"><ele>118.33333333333333</ele><time>2026-05-02T08:30:42.977Z</time></trkpt><trkpt lat="40.0090833" lon="15.3810717"><ele>114.66666666666666</ele><time>2026-05-02T08:30:44.977Z</time></trkpt><trkpt lat="40.00899" lon="15.3810133"><ele>111.0</ele><time>2026-05-02T08:30:46.977Z</time></trkpt><trkpt lat="40.0088767" lon="15.3810483"><ele>107.33333333333334</ele><time>2026-05-02T08:30:48.977Z</time></trkpt><trkpt lat="40.0088167" lon="15.3810783"><ele>103.66666666666667</ele><time>2026-05-02T08:30:49.977Z</time></trkpt><trkpt lat="40.008755" lon="15.381115"><ele>100.0</ele><time>2026-05-02T08:30:50.978Z</time></trkpt><trkpt lat="40.008695" lon="15.3811667"><ele>100.00000000000001</ele><time>2026-05-02T08:30:51.978Z</time></trkpt><trkpt lat="40.008635" lon="15.3812133"><ele>100.0</ele><time>2026-05-02T08:30:52.977Z</time></trkpt><trkpt lat="40.00858" lon="15.3812767"><ele>100.0</ele><time>2026-05-02T08:30:53.977Z</time></trkpt><trkpt lat="40.0085217" lon="15.3813367"><ele>100.0</ele><time>2026-05-02T08:30:54.977Z</time></trkpt><trkpt lat="40.008465" lon="15.38141"><ele>100.00000000000001</ele><time>2026-05-02T08:30:55.978Z</time></trkpt><trkpt lat="40.0083983" lon="15.381475"><ele>100.0</ele><time>2026-05-02T08:30:56.977Z</time></trkpt><trkpt lat="40.00832" lon="15.3815233"><ele>100.83333333333334</ele><time>2026-05-02T08:30:57.978Z</time></trkpt><trkpt lat="40.00824" lon="15.38156"><ele>101.66666666666667</ele><time>2026-05-02T08:30:58.977Z</time></trkpt><trkpt lat="40.0081617" lon="15.3815867"><ele>102.5</ele><time>2026-05-02T08:30:59.978Z</time></trkpt><trkpt lat="40.00808" lon="15.3816133"><ele>103.33333333333334</ele><time>2026-05-02T08:31:00.977Z</time></trkpt><trkpt lat="40.007995" lon="15.38164"><ele>104.16666666666667</ele><time>2026-05-02T08:31:01.978Z</time></trkpt><trkpt lat="40.0079167" lon="15.3816667"><ele>105.0</ele><time>2026-05-02T08:31:02.977Z</time></trkpt><trkpt lat="40.007835" lon="15.3817117"><ele>105.0</ele><time>2026-05-02T08:31:03.978Z</time></trkpt><trkpt lat="40.0077717" lon="15.3817583"><ele>105.0</ele><time>2026-05-02T08:31:04.978Z</time></trkpt><trkpt lat="40.0077317" lon="15.3818283"><ele>105.0</ele><time>2026-05-02T08:31:05.977Z</time></trkpt><trkpt lat="40.0077267" lon="15.38198"><ele>105.0</ele><time>2026-05-02T08:31:07.977Z</time></trkpt><trkpt lat="40.007765" lon="15.3821217"><ele>105.0</ele><time>2026-05-02T08:31:09.977Z</time></trkpt><trkpt lat="40.0077433" lon="15.3822433"><ele>105.0</ele><time>2026-05-02T08:31:11.978Z</time></trkpt><trkpt lat="40.0076367" lon="15.382285"><ele>105.0</ele><time>2026-05-02T08:31:13.977Z</time></trkpt><trkpt lat="40.0075433" lon="15.3821617"><ele>105.0</ele><time>2026-05-02T08:31:15.978Z</time></trkpt><trkpt lat="40.0075133" lon="15.3820717"><ele>105.0</ele><time>2026-05-02T08:31:16.977Z</time></trkpt><trkpt lat="40.007495" lon="15.38198"><ele>105.0</ele><time>2026-05-02T08:31:17.977Z</time></trkpt><trkpt lat="40.0075" lon="15.3818133"><ele>105.0</ele><time>2026-05-02T08:31:19.977Z</time></trkpt><trkpt lat="40.0075333" lon="15.3817283"><ele>105.0</ele><time>2026-05-02T08:31:20.977Z</time></trkpt><trkpt lat="40.0075883" lon="15.3816433"><ele>105.0</ele><time>2026-05-02T08:31:21.977Z</time></trkpt><trkpt lat="40.00765" lon="15.38157"><ele>105.0</ele><time>2026-05-02T08:31:22.977Z</time></trkpt><trkpt lat="40.007715" lon="15.3815017"><ele>105.0</ele><time>2026-05-02T08:31:23.977Z</time></trkpt><trkpt lat="40.0077883" lon="15.3814383"><ele>105.0</ele><time>2026-05-02T08:31:24.978Z</time></trkpt><trkpt lat="40.0078617" lon="15.38138"><ele>99.66666666666667</ele><time>2026-05-02T08:31:25.977Z</time></trkpt><trkpt lat="40.007935" lon="15.3813267"><ele>94.33333333333333</ele><time>2026-05-02T08:31:26.977Z</time></trkpt><trkpt lat="40.0080067" lon="15.3812683"><ele>89.0</ele><time>2026-05-02T08:31:27.977Z</time></trkpt><trkpt lat="40.0080767" lon="15.3812283"><ele>83.66666666666666</ele><time>2026-05-02T08:31:28.978Z</time></trkpt><trkpt lat="40.0081433" lon="15.3811917"><ele>78.33333333333333</ele><time>2026-05-02T08:31:29.978Z</time></trkpt><trkpt lat="40.008215" lon="15.3811667"><ele>73.0</ele><time>2026-05-02T08:31:30.978Z</time></trkpt><trkpt lat="40.008275" lon="15.3811417"><ele>73.0</ele><time>2026-05-02T08:31:31.978Z</time></trkpt><trkpt lat="40.008355" lon="15.3810967"><ele>73.0</ele><time>2026-05-02T08:31:33.977Z</time></trkpt><trkpt lat="40.0083817" lon="15.3809967"><ele>73.0</ele><time>2026-05-02T08:31:35.978Z</time></trkpt><trkpt lat="40.0083267" lon="15.3809233"><ele>73.0</ele><time>2026-05-02T08:31:37.977Z</time></trkpt><trkpt lat="40.0082217" lon="15.380955"><ele>73.0</ele><time>2026-05-02T08:31:39.978Z</time></trkpt><trkpt lat="40.0081083" lon="15.381025"><ele>73.0</ele><time>2026-05-02T08:31:41.977Z</time></trkpt><trkpt lat="40.0080333" lon="15.3810817"><ele>73.0</ele><time>2026-05-02T08:31:42.977Z</time></trkpt><trkpt lat="40.0079517" lon="15.3811367"><ele>73.0</ele><time>2026-05-02T08:31:43.978Z</time></trkpt><trkpt lat="40.0078767" lon="15.3811817"><ele>73.0</ele><time>2026-05-02T08:31:44.977Z</time></trkpt><trkpt lat="40.0077983" lon="15.3812183"><ele>73.0</ele><time>2026-05-02T08:31:45.977Z</time></trkpt><trkpt lat="40.0077183" lon="15.381265"><ele>73.0</ele><time>2026-05-02T08:31:46.977Z</time></trkpt><trkpt lat="40.0076317" lon="15.3813133"><ele>75.4</ele><time>2026-05-02T08:31:47.977Z</time></trkpt><trkpt lat="40.0075433" lon="15.3813583"><ele>77.8</ele><time>2026-05-02T08:31:48.978Z</time></trkpt><trkpt lat="40.0074533" lon="15.381395"><ele>80.2</ele><time>2026-05-02T08:31:49.978Z</time></trkpt><trkpt lat="40.0073683" lon="15.3814433"><ele>82.6</ele><time>2026-05-02T08:31:50.978Z</time></trkpt><trkpt lat="40.0072883" lon="15.381495"><ele>85.0</ele><time>2026-05-02T08:31:51.977Z</time></trkpt><trkpt lat="40.0072017" lon="15.3815317"><ele>85.0</ele><time>2026-05-02T08:31:52.977Z</time></trkpt><trkpt lat="40.0071233" lon="15.3815633"><ele>85.0</ele><time>2026-05-02T08:31:53.977Z</time></trkpt><trkpt lat="40.0070433" lon="15.3816"><ele>85.0</ele><time>2026-05-02T08:31:54.977Z</time></trkpt><trkpt lat="40.0069633" lon="15.3816433"><ele>85.0</ele><time>2026-05-02T08:31:55.977Z</time></trkpt><trkpt lat="40.0068783" lon="15.38169"><ele>85.0</ele><time>2026-05-02T08:31:56.977Z</time></trkpt><trkpt lat="40.006785" lon="15.381725"><ele>85.0</ele><time>2026-05-02T08:31:57.977Z</time></trkpt><trkpt lat="40.006705" lon="15.3817517"><ele>78.83333333333333</ele><time>2026-05-02T08:31:58.978Z</time></trkpt><trkpt lat="40.0066267" lon="15.3817883"><ele>72.66666666666666</ele><time>2026-05-02T08:31:59.978Z</time></trkpt><trkpt lat="40.0065567" lon="15.3818233"><ele>66.5</ele><time>2026-05-02T08:32:00.978Z</time></trkpt><trkpt lat="40.00649" lon="15.381875"><ele>60.33333333333333</ele><time>2026-05-02T08:32:01.978Z</time></trkpt><trkpt lat="40.0064333" lon="15.381945"><ele>54.166666666666664</ele><time>2026-05-02T08:32:02.977Z</time></trkpt><trkpt lat="40.0064067" lon="15.382035"><ele>48.0</ele><time>2026-05-02T08:32:03.977Z</time></trkpt><trkpt lat="40.0063917" lon="15.38214"><ele>51.333333333333336</ele><time>2026-05-02T08:32:04.977Z</time></trkpt><trkpt lat="40.0063783" lon="15.382245"><ele>54.66666666666667</ele><time>2026-05-02T08:32:05.977Z</time></trkpt><trkpt lat="40.0063633" lon="15.3823367"><ele>58.0</ele><time>2026-05-02T08:32:06.977Z</time></trkpt><trkpt lat="40.0063133" lon="15.3824283"><ele>61.333333333333336</ele><time>2026-05-02T08:32:08.978Z</time></trkpt><trkpt lat="40.006245" lon="15.3824667"><ele>64.66666666666667</ele><time>2026-05-02T08:32:10.977Z</time></trkpt><trkpt lat="40.0061633" lon="15.3824233"><ele>68.0</ele><time>2026-05-02T08:32:12.978Z</time></trkpt><trkpt lat="40.006105" lon="15.382345"><ele>68.0</ele><time>2026-05-02T08:32:14.978Z</time></trkpt><trkpt lat="40.006075" lon="15.3822483"><ele>68.0</ele><time>2026-05-02T08:32:16.977Z</time></trkpt><trkpt lat="40.0060867" lon="15.3821167"><ele>68.0</ele><time>2026-05-02T08:32:18.977Z</time></trkpt><trkpt lat="40.0061" lon="15.3820317"><ele>68.0</ele><time>2026-05-02T08:32:19.978Z</time></trkpt><trkpt lat="40.0061333" lon="15.3819567"><ele>68.0</ele><time>2026-05-02T08:32:20.978Z</time></trkpt><trkpt lat="40.0061817" lon="15.38189"><ele>68.0</ele><time>2026-05-02T08:32:21.977Z</time></trkpt><trkpt lat="40.0062367" lon="15.3818317"><ele>70.83333333333334</ele><time>2026-05-02T08:32:22.978Z</time></trkpt><trkpt lat="40.0062983" lon="15.3817667"><ele>73.66666666666667</ele><time>2026-05-02T08:32:23.977Z</time></trkpt><trkpt lat="40.0063667" lon="15.3817083"><ele>76.5</ele><time>2026-05-02T08:32:24.977Z</time></trkpt><trkpt lat="40.0064367" lon="15.3816533"><ele>79.33333333333333</ele><time>2026-05-02T08:32:25.977Z</time></trkpt><trkpt lat="40.0065067" lon="15.3815883"><ele>82.16666666666666</ele><time>2026-05-02T08:32:26.977Z</time></trkpt><trkpt lat="40.0065883" lon="15.3815317"><ele>85.0</ele><time>2026-05-02T08:32:27.978Z</time></trkpt><trkpt lat="40.006685" lon="15.3814833"><ele>85.0</ele><time>2026-05-02T08:32:28.978Z</time></trkpt><trkpt lat="40.0067817" lon="15.381425"><ele>85.0</ele><time>2026-05-02T08:32:29.978Z</time></trkpt><trkpt lat="40.0068767" lon="15.38137"><ele>85.0</ele><time>2026-05-02T08:32:30.978Z</time></trkpt><trkpt lat="40.006975" lon="15.3813133"><ele>85.0</ele><time>2026-05-02T08:32:31.978Z</time></trkpt><trkpt lat="40.0070717" lon="15.3812567"><ele>85.0</ele><time>2026-05-02T08:32:32.977Z</time></trkpt><trkpt lat="40.0071733" lon="15.3812017"><ele>82.6</ele><time>2026-05-02T08:32:33.977Z</time></trkpt><trkpt lat="40.0072717" lon="15.38115"><ele>80.2</ele><time>2026-05-02T08:32:34.977Z</time></trkpt><trkpt lat="40.0073717" lon="15.381095"><ele>77.8</ele><time>2026-05-02T08:32:35.978Z</time></trkpt><trkpt lat="40.007475" lon="15.38104"><ele>75.4</ele><time>2026-05-02T08:32:36.978Z</time></trkpt><trkpt lat="40.0075717" lon="15.3809783"><ele>73.0</ele><time>2026-05-02T08:32:37.977Z</time></trkpt><trkpt lat="40.0076683" lon="15.3809183"><ele>73.0</ele><time>2026-05-02T08:32:38.977Z</time></trkpt><trkpt lat="40.0077683" lon="15.3808483"><ele>73.0</ele><time>2026-05-02T08:32:39.978Z</time></trkpt><trkpt lat="40.0078617" lon="15.3807683"><ele>73.0</ele><time>2026-05-02T08:32:40.977Z</time></trkpt><trkpt lat="40.0079417" lon="15.3806817"><ele>73.0</ele><time>2026-05-02T08:32:41.977Z</time></trkpt><trkpt lat="40.0080133" lon="15.3805933"><ele>73.0</ele><time>2026-05-02T08:32:42.977Z</time></trkpt><trkpt lat="40.0080917" lon="15.3805033"><ele>70.8</ele><time>2026-05-02T08:32:43.977Z</time></trkpt><trkpt lat="40.0081783" lon="15.3804233"><ele>68.6</ele><time>2026-05-02T08:32:44.977Z</time></trkpt><trkpt lat="40.0082633" lon="15.3803533"><ele>66.4</ele><time>2026-05-02T08:32:45.978Z</time></trkpt><trkpt lat="40.0083467" lon="15.380275"><ele>64.2</ele><time>2026-05-02T08:32:46.977Z</time></trkpt><trkpt lat="40.0084383" lon="15.38021"><ele>62.0</ele><time>2026-05-02T08:32:47.978Z</time></trkpt><trkpt lat="40.008525" lon="15.3801417"><ele>62.0</ele><time>2026-05-02T08:32:48.977Z</time></trkpt><trkpt lat="40.0086283" lon="15.3800733"><ele>62.0</ele><time>2026-05-02T08:32:49.977Z</time></trkpt><trkpt lat="40.0087333" lon="15.3800083"><ele>62.0</ele><time>2026-05-02T08:32:50.977Z</time></trkpt><trkpt lat="40.008835" lon="15.3799517"><ele>62.0</ele><time>2026-05-02T08:32:51.978Z</time></trkpt><trkpt lat="40.0089483" lon="15.3798967"><ele>62.0</ele><time>2026-05-02T08:32:52.977Z</time></trkpt><trkpt lat="40.0090567" lon="15.3798283"><ele>62.0</ele><time>2026-05-02T08:32:53.978Z</time></trkpt><trkpt lat="40.0091483" lon="15.3797383"><ele>62.0</ele><time>2026-05-02T08:32:54.977Z</time></trkpt><trkpt lat="40.0092383" lon="15.3796433"><ele>62.0</ele><time>2026-05-02T08:32:55.977Z</time></trkpt><trkpt lat="40.0093217" lon="15.3795267"><ele>59.0</ele><time>2026-05-02T08:32:56.977Z</time></trkpt><trkpt lat="40.0094" lon="15.3794083"><ele>56.0</ele><time>2026-05-02T08:32:57.977Z</time></trkpt><trkpt lat="40.0094767" lon="15.3792833"><ele>53.0</ele><time>2026-05-02T08:32:58.978Z</time></trkpt><trkpt lat="40.00955" lon="15.379135"><ele>50.0</ele><time>2026-05-02T08:32:59.977Z</time></trkpt><trkpt lat="40.0096217" lon="15.3789883"><ele>44.75</ele><time>2026-05-02T08:33:00.977Z</time></trkpt><trkpt lat="40.0097" lon="15.3788467"><ele>39.5</ele><time>2026-05-02T08:33:01.977Z</time></trkpt><trkpt lat="40.0097733" lon="15.3787133"><ele>34.25</ele><time>2026-05-02T08:33:02.978Z</time></trkpt><trkpt lat="40.0098383" lon="15.37859"><ele>29.0</ele><time>2026-05-02T08:33:03.977Z</time></trkpt><trkpt lat="40.0099083" lon="15.3784783"><ele>28.999999999999996</ele><time>2026-05-02T08:33:04.978Z</time></trkpt><trkpt lat="40.0099717" lon="15.3783717"><ele>29.0</ele><time>2026-05-02T08:33:05.978Z</time></trkpt><trkpt lat="40.0100333" lon="15.3782967"><ele>29.0</ele><time>2026-05-02T08:33:06.977Z</time></trkpt><trkpt lat="40.0100917" lon="15.3782283"><ele>29.0</ele><time>2026-05-02T08:33:07.977Z</time></trkpt><trkpt lat="40.010135" lon="15.3781567"><ele>28.999999999999996</ele><time>2026-05-02T08:33:08.978Z</time></trkpt><trkpt lat="40.0101633" lon="15.3780733"><ele>29.0</ele><time>2026-05-02T08:33:09.977Z</time></trkpt><trkpt lat="40.0101333" lon="15.3779467"><ele>28.999999999999996</ele><time>2026-05-02T08:33:11.977Z</time></trkpt><trkpt lat="40.0100367" lon="15.3779667"><ele>29.0</ele><time>2026-05-02T08:33:13.977Z</time></trkpt><trkpt lat="40.0099933" lon="15.37803"><ele>29.0</ele><time>2026-05-02T08:33:14.978Z</time></trkpt><trkpt lat="40.00996" lon="15.3781233"><ele>29.0</ele><time>2026-05-02T08:33:15.977Z</time></trkpt><trkpt lat="40.0099233" lon="15.37823"><ele>28.999999999999996</ele><time>2026-05-02T08:33:16.977Z</time></trkpt><trkpt lat="40.00988" lon="15.3783417"><ele>29.0</ele><time>2026-05-02T08:33:17.978Z</time></trkpt><trkpt lat="40.0098217" lon="15.3784533"><ele>29.0</ele><time>2026-05-02T08:33:18.977Z</time></trkpt><trkpt lat="40.0097483" lon="15.37856"><ele>29.0</ele><time>2026-05-02T08:33:19.977Z</time></trkpt><trkpt lat="40.00967" lon="15.3786583"><ele>29.0</ele><time>2026-05-02T08:33:20.977Z</time></trkpt><trkpt lat="40.00958" lon="15.378755"><ele>29.0</ele><time>2026-05-02T08:33:21.977Z</time></trkpt><trkpt lat="40.0094933" lon="15.37885"><ele>29.0</ele><time>2026-05-02T08:33:22.977Z</time></trkpt><trkpt lat="40.009415" lon="15.37895"><ele>28.0</ele><time>2026-05-02T08:33:23.977Z</time></trkpt><trkpt lat="40.0093383" lon="15.379045"><ele>27.0</ele><time>2026-05-02T08:33:24.977Z</time></trkpt><trkpt lat="40.00926" lon="15.3791417"><ele>26.0</ele><time>2026-05-02T08:33:25.977Z</time></trkpt><trkpt lat="40.0091883" lon="15.3792317"><ele>25.0</ele><time>2026-05-02T08:33:26.978Z</time></trkpt><trkpt lat="40.00912" lon="15.3793017"><ele>24.0</ele><time>2026-05-02T08:33:27.978Z</time></trkpt><trkpt lat="40.009025" lon="15.379355"><ele>24.0</ele><time>2026-05-02T08:33:28.977Z</time></trkpt><trkpt lat="40.008935" lon="15.3794017"><ele>24.0</ele><time>2026-05-02T08:33:29.977Z</time></trkpt><trkpt lat="40.0088317" lon="15.37944"><ele>24.0</ele><time>2026-05-02T08:33:30.977Z</time></trkpt><trkpt lat="40.00872" lon="15.37948"><ele>24.0</ele><time>2026-05-02T08:33:31.977Z</time></trkpt><trkpt lat="40.00861" lon="15.3795167"><ele>24.0</ele><time>2026-05-02T08:33:32.977Z</time></trkpt><trkpt lat="40.008505" lon="15.37955"><ele>24.0</ele><time>2026-05-02T08:33:33.977Z</time></trkpt><trkpt lat="40.0084" lon="15.3795867"><ele>24.0</ele><time>2026-05-02T08:33:34.977Z</time></trkpt><trkpt lat="40.0083017" lon="15.3796267"><ele>24.0</ele><time>2026-05-02T08:33:35.978Z</time></trkpt><trkpt lat="40.008205" lon="15.379675"><ele>24.0</ele><time>2026-05-02T08:33:36.977Z</time></trkpt><trkpt lat="40.0081033" lon="15.3797433"><ele>24.0</ele><time>2026-05-02T08:33:37.977Z</time></trkpt><trkpt lat="40.0080167" lon="15.3798217"><ele>25.2</ele><time>2026-05-02T08:33:38.977Z</time></trkpt><trkpt lat="40.0079317" lon="15.3799"><ele>26.4</ele><time>2026-05-02T08:33:39.977Z</time></trkpt><trkpt lat="40.007845" lon="15.3799867"><ele>27.6</ele><time>2026-05-02T08:33:40.977Z</time></trkpt><trkpt lat="40.0077533" lon="15.3800667"><ele>28.8</ele><time>2026-05-02T08:33:41.977Z</time></trkpt><trkpt lat="40.00766" lon="15.3801383"><ele>30.0</ele><time>2026-05-02T08:33:42.977Z</time></trkpt><trkpt lat="40.0075583" lon="15.3802083"><ele>27.0</ele><time>2026-05-02T08:33:43.977Z</time></trkpt><trkpt lat="40.00745" lon="15.3802633"><ele>24.0</ele><time>2026-05-02T08:33:44.978Z</time></trkpt><trkpt lat="40.0073317" lon="15.3803117"><ele>21.0</ele><time>2026-05-02T08:33:45.977Z</time></trkpt><trkpt lat="40.007215" lon="15.3803483"><ele>18.0</ele><time>2026-05-02T08:33:46.977Z</time></trkpt><trkpt lat="40.0070933" lon="15.3803817"><ele>18.0</ele><time>2026-05-02T08:33:47.977Z</time></trkpt><trkpt lat="40.006995" lon="15.3804133"><ele>18.0</ele><time>2026-05-02T08:33:48.977Z</time></trkpt><trkpt lat="40.0069033" lon="15.380455"><ele>18.0</ele><time>2026-05-02T08:33:49.977Z</time></trkpt><trkpt lat="40.0068133" lon="15.3805033"><ele>18.0</ele><time>2026-05-02T08:33:50.978Z</time></trkpt><trkpt lat="40.0067233" lon="15.3805567"><ele>18.0</ele><time>2026-05-02T08:33:51.977Z</time></trkpt><trkpt lat="40.00663" lon="15.3806183"><ele>19.0</ele><time>2026-05-02T08:33:52.977Z</time></trkpt><trkpt lat="40.0065333" lon="15.3806867"><ele>20.0</ele><time>2026-05-02T08:33:53.977Z</time></trkpt><trkpt lat="40.0064333" lon="15.38076"><ele>21.0</ele><time>2026-05-02T08:33:54.977Z</time></trkpt><trkpt lat="40.0063267" lon="15.3808367"><ele>22.0</ele><time>2026-05-02T08:33:55.977Z</time></trkpt><trkpt lat="40.0062233" lon="15.3809067"><ele>22.0</ele><time>2026-05-02T08:33:56.977Z</time></trkpt><trkpt lat="40.00612" lon="15.380975"><ele>22.0</ele><time>2026-05-02T08:33:57.977Z</time></trkpt><trkpt lat="40.0060183" lon="15.38103"><ele>22.0</ele><time>2026-05-02T08:33:58.977Z</time></trkpt><trkpt lat="40.00591" lon="15.3810917"><ele>22.0</ele><time>2026-05-02T08:33:59.978Z</time></trkpt><trkpt lat="40.0057983" lon="15.3811433"><ele>22.25</ele><time>2026-05-02T08:34:00.977Z</time></trkpt><trkpt lat="40.0056783" lon="15.3812"><ele>22.5</ele><time>2026-05-02T08:34:01.977Z</time></trkpt><trkpt lat="40.0055617" lon="15.3812567"><ele>22.75</ele><time>2026-05-02T08:34:02.978Z</time></trkpt><trkpt lat="40.0054383" lon="15.38132"><ele>23.0</ele><time>2026-05-02T08:34:03.977Z</time></trkpt><trkpt lat="40.0053117" lon="15.3813767"><ele>23.0</ele><time>2026-05-02T08:34:04.978Z</time></trkpt><trkpt lat="40.0051917" lon="15.3814133"><ele>23.0</ele><time>2026-05-02T08:34:05.977Z</time></trkpt><trkpt lat="40.0050733" lon="15.38146"><ele>23.0</ele><time>2026-05-02T08:34:06.978Z</time></trkpt><trkpt lat="40.004955" lon="15.3815083"><ele>23.0</ele><time>2026-05-02T08:34:07.977Z</time></trkpt><trkpt lat="40.0048367" lon="15.3815433"><ele>25.0</ele><time>2026-05-02T08:34:08.977Z</time></trkpt><trkpt lat="40.0047283" lon="15.3815683"><ele>27.0</ele><time>2026-05-02T08:34:09.977Z</time></trkpt><trkpt lat="40.0046183" lon="15.3815833"><ele>28.999999999999996</ele><time>2026-05-02T08:34:10.978Z</time></trkpt><trkpt lat="40.0045183" lon="15.3815583"><ele>31.0</ele><time>2026-05-02T08:34:11.978Z</time></trkpt><trkpt lat="40.00444" lon="15.3814933"><ele>33.0</ele><time>2026-05-02T08:34:12.977Z</time></trkpt><trkpt lat="40.0043783" lon="15.38139"><ele>34.199999999999996</ele><time>2026-05-02T08:34:13.978Z</time></trkpt><trkpt lat="40.0043317" lon="15.3812817"><ele>35.4</ele><time>2026-05-02T08:34:14.977Z</time></trkpt><trkpt lat="40.0042917" lon="15.381165"><ele>36.599999999999994</ele><time>2026-05-02T08:34:15.978Z</time></trkpt><trkpt lat="40.0042433" lon="15.3810717"><ele>37.8</ele><time>2026-05-02T08:34:16.977Z</time></trkpt><trkpt lat="40.0041733" lon="15.3809817"><ele>39.0</ele><time>2026-05-02T08:34:17.978Z</time></trkpt><trkpt lat="40.0040883" lon="15.380905"><ele>39.0</ele><time>2026-05-02T08:34:18.978Z</time></trkpt><trkpt lat="40.004" lon="15.380835"><ele>39.0</ele><time>2026-05-02T08:34:19.977Z</time></trkpt><trkpt lat="40.003915" lon="15.3807733"><ele>39.0</ele><time>2026-05-02T08:34:20.977Z</time></trkpt><trkpt lat="40.003825" lon="15.3807133"><ele>39.0</ele><time>2026-05-02T08:34:21.977Z</time></trkpt><trkpt lat="40.0037267" lon="15.3806583"><ele>39.0</ele><time>2026-05-02T08:34:22.977Z</time></trkpt><trkpt lat="40.00363" lon="15.3806083"><ele>39.0</ele><time>2026-05-02T08:34:23.978Z</time></trkpt><trkpt lat="40.0035267" lon="15.380555"><ele>39.0</ele><time>2026-05-02T08:34:24.978Z</time></trkpt><trkpt lat="40.003425" lon="15.3804917"><ele>39.0</ele><time>2026-05-02T08:34:25.977Z</time></trkpt><trkpt lat="40.0033383" lon="15.380415"><ele>39.0</ele><time>2026-05-02T08:34:26.977Z</time></trkpt><trkpt lat="40.0032567" lon="15.380315"><ele>39.0</ele><time>2026-05-02T08:34:27.977Z</time></trkpt><trkpt lat="40.0031817" lon="15.3802133"><ele>36.25</ele><time>2026-05-02T08:34:28.978Z</time></trkpt><trkpt lat="40.003095" lon="15.3801067"><ele>33.5</ele><time>2026-05-02T08:34:29.977Z</time></trkpt><trkpt lat="40.0030067" lon="15.3800167"><ele>30.75</ele><time>2026-05-02T08:34:30.978Z</time></trkpt><trkpt lat="40.00292" lon="15.379925"><ele>28.0</ele><time>2026-05-02T08:34:31.978Z</time></trkpt><trkpt lat="40.00283" lon="15.379845"><ele>28.0</ele><time>2026-05-02T08:34:32.977Z</time></trkpt><trkpt lat="40.0027267" lon="15.3797733"><ele>28.0</ele><time>2026-05-02T08:34:33.977Z</time></trkpt><trkpt lat="40.0026317" lon="15.3796983"><ele>28.0</ele><time>2026-05-02T08:34:34.977Z</time></trkpt><trkpt lat="40.0025317" lon="15.3796317"><ele>28.0</ele><time>2026-05-02T08:34:35.977Z</time></trkpt><trkpt lat="40.002435" lon="15.3795567"><ele>23.2</ele><time>2026-05-02T08:34:36.978Z</time></trkpt><trkpt lat="40.002355" lon="15.37949"><ele>18.4</ele><time>2026-05-02T08:34:37.978Z</time></trkpt><trkpt lat="40.00229" lon="15.3794183"><ele>13.6</ele><time>2026-05-02T08:34:38.978Z</time></trkpt><trkpt lat="40.0022483" lon="15.3792617"><ele>8.8</ele><time>2026-05-02T08:34:40.977Z</time></trkpt><trkpt lat="40.0022633" lon="15.37917"><ele>4.0</ele><time>2026-05-02T08:34:41.978Z</time></trkpt><trkpt lat="40.0022817" lon="15.3790733"><ele>3.9999999999999996</ele><time>2026-05-02T08:34:42.977Z</time></trkpt><trkpt lat="40.0023017" lon="15.3789733"><ele>4.0</ele><time>2026-05-02T08:34:43.978Z</time></trkpt><trkpt lat="40.0022917" lon="15.37886"><ele>4.0</ele><time>2026-05-02T08:34:44.978Z</time></trkpt><trkpt lat="40.0022533" lon="15.3787533"><ele>4.0</ele><time>2026-05-02T08:34:45.978Z</time></trkpt><trkpt lat="40.00221" lon="15.3786533"><ele>3.9999999999999996</ele><time>2026-05-02T08:34:46.978Z</time></trkpt><trkpt lat="40.0021617" lon="15.3785683"><ele>4.0</ele><time>2026-05-02T08:34:47.977Z</time></trkpt><trkpt lat="40.002115" lon="15.37848"><ele>3.9999999999999996</ele><time>2026-05-02T08:34:48.977Z</time></trkpt><trkpt lat="40.00206" lon="15.3783967"><ele>4.0</ele><time>2026-05-02T08:34:49.977Z</time></trkpt><trkpt lat="40.0020133" lon="15.3783133"><ele>4.0</ele><time>2026-05-02T08:34:50.977Z</time></trkpt><trkpt lat="40.0019633" lon="15.378225"><ele>4.0</ele><time>2026-05-02T08:34:51.977Z</time></trkpt><trkpt lat="40.0019167" lon="15.3781383"><ele>3.9999999999999996</ele><time>2026-05-02T08:34:52.978Z</time></trkpt><trkpt lat="40.0018767" lon="15.3780467"><ele>4.0</ele><time>2026-05-02T08:34:53.977Z</time></trkpt><trkpt lat="40.0018333" lon="15.377955"><ele>3.4999999999999996</ele><time>2026-05-02T08:34:54.978Z</time></trkpt><trkpt lat="40.00179" lon="15.37787"><ele>3.0</ele><time>2026-05-02T08:34:55.978Z</time></trkpt><trkpt lat="40.001745" lon="15.3777833"><ele>2.5</ele><time>2026-05-02T08:34:56.977Z</time></trkpt><trkpt lat="40.0017017" lon="15.3777033"><ele>2.0</ele><time>2026-05-02T08:34:57.978Z</time></trkpt><trkpt lat="40.001655" lon="15.3776133"><ele>1.5</ele><time>2026-05-02T08:34:58.977Z</time></trkpt><trkpt lat="40.001605" lon="15.3775317"><ele>1.0</ele><time>2026-05-02T08:34:59.977Z</time></trkpt><trkpt lat="40.00155" lon="15.3774517"><ele>0.9999999999999999</ele><time>2026-05-02T08:35:00.978Z</time></trkpt><trkpt lat="40.0015033" lon="15.3773767"><ele>1.0</ele><time>2026-05-02T08:35:01.978Z</time></trkpt><trkpt lat="40.0014683" lon="15.3773067"><ele>1.0</ele><time>2026-05-02T08:35:02.977Z</time></trkpt><trkpt lat="40.0014317" lon="15.377235"><ele>1.0</ele><time>2026-05-02T08:35:03.977Z</time></trkpt><trkpt lat="40.0013917" lon="15.3771133"><ele>0.9999999999999999</ele><time>2026-05-02T08:35:05.977Z</time></trkpt><trkpt lat="40.0013517" lon="15.3770017"><ele>1.0</ele><time>2026-05-02T08:35:07.978Z</time></trkpt><trkpt lat="40.00131" lon="15.3768933"><ele>1.5714285714285714</ele><time>2026-05-02T08:35:09.977Z</time></trkpt><trkpt lat="40.0012633" lon="15.376795"><ele>2.142857142857143</ele><time>2026-05-02T08:35:11.978Z</time></trkpt><trkpt lat="40.0012317" lon="15.3767067"><ele>2.7142857142857144</ele><time>2026-05-02T08:35:13.977Z</time></trkpt><trkpt lat="40.0011917" lon="15.376625"><ele>3.2857142857142856</ele><time>2026-05-02T08:35:15.977Z</time></trkpt><trkpt lat="40.0011167" lon="15.37661"><ele>3.857142857142857</ele><time>2026-05-02T08:35:18.977Z</time></trkpt><trkpt lat="40.0010483" lon="15.3766283"><ele>4.428571428571429</ele><time>2026-05-02T08:35:20.978Z</time></trkpt><trkpt lat="40.0009867" lon="15.3766467"><ele>5.0</ele><time>2026-05-02T08:35:22.978Z</time></trkpt><trkpt lat="40.0009233" lon="15.3766633"><ele>5.0</ele><time>2026-05-02T08:35:25.978Z</time></trkpt><trkpt lat="40.0008483" lon="15.3766733"><ele>5.0</ele><time>2026-05-02T08:35:28.978Z</time></trkpt><trkpt lat="40.000785" lon="15.37665"><ele>5.0</ele><time>2026-05-02T08:35:32.977Z</time></trkpt><trkpt lat="40.0007483" lon="15.3765733"><ele>5.0</ele><time>2026-05-02T08:35:35.977Z</time></trkpt><trkpt lat="40.000725" lon="15.3764583"><ele>5.0</ele><time>2026-05-02T08:35:38.977Z</time></trkpt><trkpt lat="40.000705" lon="15.3763433"><ele>5.0</ele><time>2026-05-02T08:35:40.977Z</time></trkpt><trkpt lat="40.0006867" lon="15.3762083"><ele>4.0</ele><time>2026-05-02T08:35:42.977Z</time></trkpt><trkpt lat="40.000665" lon="15.3760567"><ele>3.0</ele><time>2026-05-02T08:35:44.977Z</time></trkpt><trkpt lat="40.0006517" lon="15.375975"><ele>2.0</ele><time>2026-05-02T08:35:45.977Z</time></trkpt><trkpt lat="40.0006167" lon="15.3758267"><ele>1.0</ele><time>2026-05-02T08:35:47.977Z</time></trkpt><trkpt lat="40.0006033" lon="15.375705"><ele>0.0</ele><time>2026-05-02T08:35:49.977Z</time></trkpt><trkpt lat="40.0005883" lon="15.375575"><ele>0.0</ele><time>2026-05-02T08:35:51.977Z</time></trkpt><trkpt lat="40.000565" lon="15.3754383"><ele>0.0</ele><time>2026-05-02T08:35:53.977Z</time></trkpt><trkpt lat="40.0005383" lon="15.375295"><ele>0.0</ele><time>2026-05-02T08:35:55.977Z</time></trkpt><trkpt lat="40.0005" lon="15.3751533"><ele>0.0</ele><time>2026-05-02T08:35:57.977Z</time></trkpt><trkpt lat="40.000455" lon="15.375015"><ele>0.0</ele><time>2026-05-02T08:35:59.978Z</time></trkpt><trkpt lat="40.0004317" lon="15.3748717"><ele>0.0</ele><time>2026-05-02T08:36:01.978Z</time></trkpt><trkpt lat="40.0004067" lon="15.3747367"><ele>0.0</ele><time>2026-05-02T08:36:03.977Z</time></trkpt><trkpt lat="40.0003667" lon="15.3745967"><ele>0.0</ele><time>2026-05-02T08:36:05.977Z</time></trkpt><trkpt lat="40.000345" lon="15.374465"><ele>0.0</ele><time>2026-05-02T08:36:07.978Z</time></trkpt><trkpt lat="40.00032" lon="15.3743617"><ele>0.7142857142857143</ele><time>2026-05-02T08:36:09.977Z</time></trkpt><trkpt lat="40.0002783" lon="15.3742683"><ele>1.4285714285714286</ele><time>2026-05-02T08:36:11.977Z</time></trkpt><trkpt lat="40.0002267" lon="15.3741917"><ele>2.142857142857143</ele><time>2026-05-02T08:36:13.977Z</time></trkpt><trkpt lat="40.00018" lon="15.3741317"><ele>2.857142857142857</ele><time>2026-05-02T08:36:15.977Z</time></trkpt><trkpt lat="40.0001217" lon="15.3740833"><ele>3.5714285714285716</ele><time>2026-05-02T08:36:18.977Z</time></trkpt><trkpt lat="40.0000467" lon="15.37409"><ele>4.285714285714286</ele><time>2026-05-02T08:36:22.977Z</time></trkpt><trkpt lat="40.0000167" lon="15.3741783"><ele>5.0</ele><time>2026-05-02T08:36:27.977Z</time></trkpt><trkpt lat="40.0000633" lon="15.3742433"><ele>5.0</ele><time>2026-05-02T08:36:30.977Z</time></trkpt><trkpt lat="40.0001283" lon="15.3742317"><ele>5.0</ele><time>2026-05-02T08:36:33.978Z</time></trkpt><trkpt lat="40.000185" lon="15.3741867"><ele>5.0</ele><time>2026-05-02T08:36:38.977Z</time></trkpt><trkpt lat="40.0001717" lon="15.3740933"><ele>5.0</ele><time>2026-05-02T08:36:42.978Z</time></trkpt><trkpt lat="40.000115" lon="15.3740283"><ele>5.0</ele><time>2026-05-02T08:36:45.977Z</time></trkpt><trkpt lat="40.0000683" lon="15.373955"><ele>5.0</ele><time>2026-05-02T08:36:48.977Z</time></trkpt><trkpt lat="40.0000183" lon="15.37388"><ele>5.0</ele><time>2026-05-02T08:36:51.977Z</time></trkpt><trkpt lat="39.99997" lon="15.3738"><ele>6.333333333333334</ele><time>2026-05-02T08:36:54.977Z</time></trkpt><trkpt lat="39.9999117" lon="15.373755"><ele>7.666666666666666</ele><time>2026-05-02T08:36:56.977Z</time></trkpt><trkpt lat="39.9998483" lon="15.37371"><ele>9.0</ele><time>2026-05-02T08:36:58.977Z</time></trkpt><trkpt lat="39.999755" lon="15.3736683"><ele>10.333333333333332</ele><time>2026-05-02T08:37:01.977Z</time></trkpt><trkpt lat="39.9996683" lon="15.373645"><ele>11.666666666666666</ele><time>2026-05-02T08:37:03.977Z</time></trkpt><trkpt lat="39.9995733" lon="15.3736133"><ele>13.0</ele><time>2026-05-02T08:37:05.977Z</time></trkpt><trkpt lat="39.9994767" lon="15.3735833"><ele>12.999999999999998</ele><time>2026-05-02T08:37:07.977Z</time></trkpt><trkpt lat="39.9993833" lon="15.3735667"><ele>13.0</ele><time>2026-05-02T08:37:09.977Z</time></trkpt><trkpt lat="39.9992917" lon="15.3735517"><ele>13.0</ele><time>2026-05-02T08:37:11.977Z</time></trkpt><trkpt lat="39.99922" lon="15.373535"><ele>13.0</ele><time>2026-05-02T08:37:13.977Z</time></trkpt><trkpt lat="39.99917" lon="15.3735867"><ele>12.999999999999998</ele><time>2026-05-02T08:37:15.977Z</time></trkpt><trkpt lat="39.9991733" lon="15.3736817"><ele>13.0</ele><time>2026-05-02T08:37:17.977Z</time></trkpt><trkpt lat="39.99923" lon="15.3737267"><ele>12.999999999999998</ele><time>2026-05-02T08:37:19.977Z</time></trkpt><trkpt lat="39.99931" lon="15.37372"><ele>13.0</ele><time>2026-05-02T08:37:21.977Z</time></trkpt><trkpt lat="39.9993883" lon="15.373715"><ele>13.0</ele><time>2026-05-02T08:37:23.977Z</time></trkpt><trkpt lat="39.9994683" lon="15.37372"><ele>13.0</ele><time>2026-05-02T08:37:25.977Z</time></trkpt><trkpt lat="39.99956" lon="15.37374"><ele>12.999999999999998</ele><time>2026-05-02T08:37:28.977Z</time></trkpt><trkpt lat="39.9996183" lon="15.3737833"><ele>13.0</ele><time>2026-05-02T08:37:30.977Z</time></trkpt><trkpt lat="39.9996883" lon="15.37383"><ele>12.999999999999998</ele><time>2026-05-02T08:37:32.977Z</time></trkpt><trkpt lat="39.99977" lon="15.3738633"><ele>13.0</ele><time>2026-05-02T08:37:34.978Z</time></trkpt><trkpt lat="39.999835" lon="15.3738983"><ele>13.0</ele><time>2026-05-02T08:37:36.978Z</time></trkpt><trkpt lat="39.99991" lon="15.3739483"><ele>13.0</ele><time>2026-05-02T08:37:39.978Z</time></trkpt><trkpt lat="39.999985" lon="15.3739683"><ele>12.999999999999998</ele><time>2026-05-02T08:39:45.977Z</time></trkpt><trkpt lat="40.000005" lon="15.3738667"><ele>13.0</ele><time>2026-05-02T08:39:48.977Z</time></trkpt><trkpt lat="40.0000017" lon="15.3737833"><ele>13.0</ele><time>2026-05-02T08:39:51.977Z</time></trkpt><trkpt lat="40.00008" lon="15.3737367"><ele>13.0</ele><time>2026-05-02T08:39:57.978Z</time></trkpt><trkpt lat="40.0001683" lon="15.3738"><ele>13.0</ele><time>2026-05-02T08:39:59.977Z</time></trkpt><trkpt lat="40.0002633" lon="15.3739"><ele>13.0</ele><time>2026-05-02T08:40:01.977Z</time></trkpt><trkpt lat="40.000355" lon="15.374005"><ele>13.0</ele><time>2026-05-02T08:40:03.977Z</time></trkpt><trkpt lat="40.00043" lon="15.3741067"><ele>11.666666666666666</ele><time>2026-05-02T08:40:05.978Z</time></trkpt><trkpt lat="40.0004983" lon="15.374195"><ele>10.333333333333332</ele><time>2026-05-02T08:40:07.977Z</time></trkpt><trkpt lat="40.0005367" lon="15.3742933"><ele>9.0</ele><time>2026-05-02T08:40:09.977Z</time></trkpt><trkpt lat="40.0005683" lon="15.3744017"><ele>7.666666666666666</ele><time>2026-05-02T08:40:11.977Z</time></trkpt><trkpt lat="40.0005867" lon="15.3745117"><ele>6.333333333333334</ele><time>2026-05-02T08:40:13.978Z</time></trkpt><trkpt lat="40.0006133" lon="15.37462"><ele>5.0</ele><time>2026-05-02T08:40:15.978Z</time></trkpt><trkpt lat="40.00064" lon="15.3747433"><ele>4.0</ele><time>2026-05-02T08:40:17.977Z</time></trkpt><trkpt lat="40.0006817" lon="15.3748483"><ele>3.0</ele><time>2026-05-02T08:40:19.977Z</time></trkpt><trkpt lat="40.00073" lon="15.3749633"><ele>2.0</ele><time>2026-05-02T08:40:21.977Z</time></trkpt><trkpt lat="40.0007667" lon="15.375075"><ele>1.0</ele><time>2026-05-02T08:40:23.977Z</time></trkpt><trkpt lat="40.0008183" lon="15.37517"><ele>0.0</ele><time>2026-05-02T08:40:25.977Z</time></trkpt><trkpt lat="40.000865" lon="15.3752967"><ele>1.1666666666666667</ele><time>2026-05-02T08:40:27.978Z</time></trkpt><trkpt lat="40.00089" lon="15.3754267"><ele>2.3333333333333335</ele><time>2026-05-02T08:40:29.977Z</time></trkpt><trkpt lat="40.0008983" lon="15.37553"><ele>3.5</ele><time>2026-05-02T08:40:31.977Z</time></trkpt><trkpt lat="40.0009283" lon="15.3756133"><ele>4.666666666666667</ele><time>2026-05-02T08:40:33.978Z</time></trkpt><trkpt lat="40.000965" lon="15.3757067"><ele>5.833333333333334</ele><time>2026-05-02T08:40:35.977Z</time></trkpt><trkpt lat="40.00101" lon="15.3758317"><ele>7.0</ele><time>2026-05-02T08:40:37.977Z</time></trkpt><trkpt lat="40.0010317" lon="15.3759117"><ele>7.0</ele><time>2026-05-02T08:40:38.977Z</time></trkpt><trkpt lat="40.00106" lon="15.37599"><ele>6.999999999999999</ele><time>2026-05-02T08:40:39.977Z</time></trkpt><trkpt lat="40.0011033" lon="15.376135"><ele>6.999999999999999</ele><time>2026-05-02T08:40:41.977Z</time></trkpt><trkpt lat="40.0011283" lon="15.3762183"><ele>7.0</ele><time>2026-05-02T08:40:42.977Z</time></trkpt><trkpt lat="40.001155" lon="15.376355"><ele>7.0</ele><time>2026-05-02T08:40:44.978Z</time></trkpt><trkpt lat="40.0011767" lon="15.3764733"><ele>6.666666666666667</ele><time>2026-05-02T08:40:46.977Z</time></trkpt><trkpt lat="40.0011617" lon="15.3765767"><ele>6.333333333333334</ele><time>2026-05-02T08:40:48.978Z</time></trkpt><trkpt lat="40.00109" lon="15.3766167"><ele>6.0</ele><time>2026-05-02T08:40:50.978Z</time></trkpt><trkpt lat="40.000995" lon="15.3766333"><ele>5.666666666666667</ele><time>2026-05-02T08:40:52.978Z</time></trkpt><trkpt lat="40.000925" lon="15.3766383"><ele>5.333333333333334</ele><time>2026-05-02T08:40:54.978Z</time></trkpt><trkpt lat="40.0008367" lon="15.376675"><ele>5.0</ele><time>2026-05-02T08:40:57.977Z</time></trkpt><trkpt lat="40.0007733" lon="15.3766417"><ele>4.0</ele><time>2026-05-02T08:40:59.977Z</time></trkpt><trkpt lat="40.0007383" lon="15.3765383"><ele>3.0</ele><time>2026-05-02T08:41:01.978Z</time></trkpt><trkpt lat="40.0007183" lon="15.3763883"><ele>2.0</ele><time>2026-05-02T08:41:03.977Z</time></trkpt><trkpt lat="40.0007" lon="15.3763017"><ele>1.0</ele><time>2026-05-02T08:41:04.977Z</time></trkpt><trkpt lat="40.0006733" lon="15.37618"><ele>0.0</ele><time>2026-05-02T08:41:05.977Z</time></trkpt><trkpt lat="40.0006617" lon="15.376065"><ele>0.0</ele><time>2026-05-02T08:41:06.978Z</time></trkpt><trkpt lat="40.000645" lon="15.3759617"><ele>0.0</ele><time>2026-05-02T08:41:07.977Z</time></trkpt><trkpt lat="40.0006233" lon="15.3758717"><ele>0.0</ele><time>2026-05-02T08:41:08.977Z</time></trkpt><trkpt lat="40.000605" lon="15.3757217"><ele>0.0</ele><time>2026-05-02T08:41:10.977Z</time></trkpt><trkpt lat="40.0005867" lon="15.3756317"><ele>0.0</ele><time>2026-05-02T08:41:11.977Z</time></trkpt><trkpt lat="40.0005567" lon="15.3755283"><ele>0.0</ele><time>2026-05-02T08:41:12.977Z</time></trkpt><trkpt lat="40.000525" lon="15.3753967"><ele>0.0</ele><time>2026-05-02T08:41:13.977Z</time></trkpt><trkpt lat="40.0005067" lon="15.375265"><ele>0.0</ele><time>2026-05-02T08:41:14.977Z</time></trkpt><trkpt lat="40.000475" lon="15.3751267"><ele>0.0</ele><time>2026-05-02T08:41:15.978Z</time></trkpt><trkpt lat="40.000455" lon="15.3749867"><ele>0.0</ele><time>2026-05-02T08:41:16.977Z</time></trkpt><trkpt lat="40.000435" lon="15.3748683"><ele>0.0</ele><time>2026-05-02T08:41:17.977Z</time></trkpt><trkpt lat="40.0004067" lon="15.374765"><ele>0.8333333333333334</ele><time>2026-05-02T08:41:18.978Z</time></trkpt><trkpt lat="40.0003833" lon="15.3746583"><ele>1.6666666666666667</ele><time>2026-05-02T08:41:19.977Z</time></trkpt><trkpt lat="40.000365" lon="15.374565"><ele>2.5</ele><time>2026-05-02T08:41:20.977Z</time></trkpt><trkpt lat="40.00034" lon="15.37447"><ele>3.3333333333333335</ele><time>2026-05-02T08:41:21.977Z</time></trkpt><trkpt lat="40.0003133" lon="15.3743917"><ele>4.166666666666667</ele><time>2026-05-02T08:41:22.977Z</time></trkpt><trkpt lat="40.0002767" lon="15.374315"><ele>5.0</ele><time>2026-05-02T08:41:23.977Z</time></trkpt><trkpt lat="40.000225" lon="15.37421"><ele>5.0</ele><time>2026-05-02T08:41:25.978Z</time></trkpt><trkpt lat="40.00016" lon="15.37417"><ele>5.0</ele><time>2026-05-02T08:41:27.977Z</time></trkpt><trkpt lat="40.00009" lon="15.3741833"><ele>5.0</ele><time>2026-05-02T08:41:30.977Z</time></trkpt><trkpt lat="40.0000117" lon="15.3741683"><ele>5.0</ele><time>2026-05-02T08:41:34.977Z</time></trkpt><trkpt lat="40.00007" lon="15.3742"><ele>5.0</ele><time>2026-05-02T08:41:42.977Z</time></trkpt><trkpt lat="40.0000883" lon="15.3740967"><ele>5.0</ele><time>2026-05-02T08:50:10.976Z</time></trkpt><trkpt lat="40.0000367" lon="15.3740033"><ele>5.0</ele><time>2026-05-02T08:50:13.976Z</time></trkpt><trkpt lat="39.9999767" lon="15.3739733"><ele>5.0</ele><time>2026-05-02T08:50:17.976Z</time></trkpt><trkpt lat="39.999955" lon="15.3738817"><ele>5.0</ele><time>2026-05-02T09:07:31.973Z</time></trkpt><trkpt lat="39.999985" lon="15.3737767"><ele>5.0</ele><time>2026-05-02T09:07:34.974Z</time></trkpt><trkpt lat="40.000055" lon="15.3737333"><ele>5.0</ele><time>2026-05-02T09:07:36.973Z</time></trkpt><trkpt lat="40.0001333" lon="15.3737617"><ele>5.0</ele><time>2026-05-02T09:07:38.973Z</time></trkpt><trkpt lat="40.0001883" lon="15.3738333"><ele>5.0</ele><time>2026-05-02T09:07:40.973Z</time></trkpt><trkpt lat="40.0002417" lon="15.373895"><ele>5.0</ele><time>2026-05-02T09:07:42.973Z</time></trkpt><trkpt lat="40.000295" lon="15.3739717"><ele>5.0</ele><time>2026-05-02T09:07:44.974Z</time></trkpt><trkpt lat="40.0003567" lon="15.3740617"><ele>5.0</ele><time>2026-05-02T09:07:46.973Z</time></trkpt><trkpt lat="40.0004117" lon="15.374145"><ele>5.0</ele><time>2026-05-02T09:07:48.973Z</time></trkpt><trkpt lat="40.0004567" lon="15.374235"><ele>5.0</ele><time>2026-05-02T09:07:50.973Z</time></trkpt><trkpt lat="40.0004917" lon="15.3743317"><ele>5.0</ele><time>2026-05-02T09:07:52.974Z</time></trkpt><trkpt lat="40.0005117" lon="15.37442"><ele>5.0</ele><time>2026-05-02T09:07:54.973Z</time></trkpt><trkpt lat="40.0005517" lon="15.3745267"><ele>5.0</ele><time>2026-05-02T09:07:57.973Z</time></trkpt><trkpt lat="40.0005983" lon="15.3746217"><ele>5.0</ele><time>2026-05-02T09:08:00.974Z</time></trkpt><trkpt lat="40.000655" lon="15.3745617"><ele>5.0</ele><time>2026-05-02T09:09:17.973Z</time></trkpt><trkpt lat="40.0006983" lon="15.3744667"><ele>5.0</ele><time>2026-05-02T09:09:20.974Z</time></trkpt><trkpt lat="40.0007483" lon="15.374405"><ele>5.0</ele><time>2026-05-02T09:09:22.974Z</time></trkpt><trkpt lat="40.0007983" lon="15.3743267"><ele>5.0</ele><time>2026-05-02T09:09:24.974Z</time></trkpt><trkpt lat="40.00082" lon="15.374205"><ele>5.0</ele><time>2026-05-02T09:09:26.974Z</time></trkpt><trkpt lat="40.0008733" lon="15.3740567"><ele>5.0</ele><time>2026-05-02T09:09:28.974Z</time></trkpt><trkpt lat="40.0009067" lon="15.373975"><ele>5.0</ele><time>2026-05-02T09:09:29.974Z</time></trkpt><trkpt lat="40.00095" lon="15.3739017"><ele>5.0</ele><time>2026-05-02T09:09:30.973Z</time></trkpt><trkpt lat="40.000985" lon="15.373825"><ele>7.8</ele><time>2026-05-02T09:09:31.974Z</time></trkpt><trkpt lat="40.0010267" lon="15.3737583"><ele>10.6</ele><time>2026-05-02T09:09:32.974Z</time></trkpt><trkpt lat="40.0010533" lon="15.3736367"><ele>13.399999999999999</ele><time>2026-05-02T09:09:34.974Z</time></trkpt><trkpt lat="40.0010183" lon="15.3735017"><ele>16.2</ele><time>2026-05-02T09:09:36.974Z</time></trkpt><trkpt lat="40.00097" lon="15.3733767"><ele>19.0</ele><time>2026-05-02T09:09:38.974Z</time></trkpt><trkpt lat="40.0009183" lon="15.373275"><ele>19.0</ele><time>2026-05-02T09:09:40.973Z</time></trkpt><trkpt lat="40.0008533" lon="15.3731817"><ele>19.0</ele><time>2026-05-02T09:09:42.973Z</time></trkpt><trkpt lat="40.000775" lon="15.3730817"><ele>19.0</ele><time>2026-05-02T09:09:44.974Z</time></trkpt><trkpt lat="40.000715" lon="15.3729683"><ele>19.0</ele><time>2026-05-02T09:09:46.973Z</time></trkpt><trkpt lat="40.00068" lon="15.3728533"><ele>19.0</ele><time>2026-05-02T09:09:48.973Z</time></trkpt><trkpt lat="40.0006483" lon="15.3727633"><ele>19.5</ele><time>2026-05-02T09:09:50.974Z</time></trkpt><trkpt lat="40.0006183" lon="15.3726567"><ele>20.0</ele><time>2026-05-02T09:09:53.973Z</time></trkpt><trkpt lat="40.0005883" lon="15.37255"><ele>20.5</ele><time>2026-05-02T09:09:56.974Z</time></trkpt><trkpt lat="40.0005533" lon="15.3724583"><ele>21.0</ele><time>2026-05-02T09:09:59.973Z</time></trkpt><trkpt lat="40.0005217" lon="15.3723867"><ele>21.5</ele><time>2026-05-02T09:10:02.974Z</time></trkpt><trkpt lat="40.0004967" lon="15.3722917"><ele>22.0</ele><time>2026-05-02T09:10:06.973Z</time></trkpt><trkpt lat="40.0004717" lon="15.3722083"><ele>22.6</ele><time>2026-05-02T09:10:08.973Z</time></trkpt><trkpt lat="40.0004517" lon="15.3721017"><ele>23.200000000000003</ele><time>2026-05-02T09:10:11.974Z</time></trkpt><trkpt lat="40.00053" lon="15.3720283"><ele>23.8</ele><time>2026-05-02T09:10:14.974Z</time></trkpt><trkpt lat="40.0006233" lon="15.3719883"><ele>24.4</ele><time>2026-05-02T09:10:16.973Z</time></trkpt><trkpt lat="40.0007117" lon="15.371885"><ele>25.0</ele><time>2026-05-02T09:10:18.973Z</time></trkpt><trkpt lat="40.000765" lon="15.3717583"><ele>25.000000000000004</ele><time>2026-05-02T09:10:20.973Z</time></trkpt><trkpt lat="40.0008017" lon="15.3715917"><ele>25.0</ele><time>2026-05-02T09:10:22.974Z</time></trkpt><trkpt lat="40.0008267" lon="15.371495"><ele>25.0</ele><time>2026-05-02T09:10:23.973Z</time></trkpt><trkpt lat="40.0008583" lon="15.3714167"><ele>25.0</ele><time>2026-05-02T09:10:24.973Z</time></trkpt><trkpt lat="40.000885" lon="15.3713317"><ele>25.000000000000004</ele><time>2026-05-02T09:10:25.974Z</time></trkpt><trkpt lat="40.0009083" lon="15.371245"><ele>25.0</ele><time>2026-05-02T09:10:26.974Z</time></trkpt><trkpt lat="40.000925" lon="15.371165"><ele>25.6</ele><time>2026-05-02T09:10:27.973Z</time></trkpt><trkpt lat="40.0009767" lon="15.3710533"><ele>26.2</ele><time>2026-05-02T09:10:29.973Z</time></trkpt><trkpt lat="40.0010483" lon="15.370945"><ele>26.799999999999997</ele><time>2026-05-02T09:10:31.973Z</time></trkpt><trkpt lat="40.0011467" lon="15.370865"><ele>27.4</ele><time>2026-05-02T09:10:33.973Z</time></trkpt><trkpt lat="40.0012517" lon="15.3708"><ele>28.0</ele><time>2026-05-02T09:10:35.974Z</time></trkpt><trkpt lat="40.0013633" lon="15.3707417"><ele>28.0</ele><time>2026-05-02T09:10:37.974Z</time></trkpt><trkpt lat="40.0014333" lon="15.370725"><ele>27.999999999999996</ele><time>2026-05-02T09:10:38.973Z</time></trkpt><trkpt lat="40.0014983" lon="15.37071"><ele>27.999999999999996</ele><time>2026-05-02T09:10:39.974Z</time></trkpt><trkpt lat="40.00161" lon="15.3707033"><ele>28.0</ele><time>2026-05-02T09:10:41.973Z</time></trkpt><trkpt lat="40.0016883" lon="15.3707083"><ele>28.0</ele><time>2026-05-02T09:10:43.973Z</time></trkpt><trkpt lat="40.0018183" lon="15.3707417"><ele>29.000000000000004</ele><time>2026-05-02T09:10:45.973Z</time></trkpt><trkpt lat="40.0018867" lon="15.3707917"><ele>30.0</ele><time>2026-05-02T09:10:46.974Z</time></trkpt><trkpt lat="40.0019467" lon="15.3708517"><ele>31.0</ele><time>2026-05-02T09:10:47.973Z</time></trkpt><trkpt lat="40.002005" lon="15.37092"><ele>32.0</ele><time>2026-05-02T09:10:48.973Z</time></trkpt><trkpt lat="40.0020617" lon="15.37099"><ele>33.0</ele><time>2026-05-02T09:10:49.973Z</time></trkpt><trkpt lat="40.0021167" lon="15.3710567"><ele>34.0</ele><time>2026-05-02T09:10:50.973Z</time></trkpt><trkpt lat="40.0021633" lon="15.3711167"><ele>34.0</ele><time>2026-05-02T09:10:51.973Z</time></trkpt><trkpt lat="40.0022417" lon="15.3712217"><ele>34.0</ele><time>2026-05-02T09:10:53.974Z</time></trkpt><trkpt lat="40.0022967" lon="15.3712867"><ele>34.0</ele><time>2026-05-02T09:10:55.973Z</time></trkpt><trkpt lat="40.0023533" lon="15.371335"><ele>34.0</ele><time>2026-05-02T09:10:58.973Z</time></trkpt><trkpt lat="40.002415" lon="15.3714033"><ele>34.0</ele><time>2026-05-02T09:11:01.974Z</time></trkpt><trkpt lat="40.0024733" lon="15.3714767"><ele>34.0</ele><time>2026-05-02T09:11:04.974Z</time></trkpt><trkpt lat="40.0025333" lon="15.3715167"><ele>34.0</ele><time>2026-05-02T09:11:24.973Z</time></trkpt><trkpt lat="40.0026067" lon="15.3715467"><ele>34.0</ele><time>2026-05-02T09:11:26.972Z</time></trkpt><trkpt lat="40.0026967" lon="15.371595"><ele>34.0</ele><time>2026-05-02T09:12:04.973Z</time></trkpt><trkpt lat="40.0027733" lon="15.3716067"><ele>34.0</ele><time>2026-05-02T09:12:06.972Z</time></trkpt><trkpt lat="40.002845" lon="15.3715483"><ele>34.0</ele><time>2026-05-02T09:12:08.972Z</time></trkpt><trkpt lat="40.002885" lon="15.371435"><ele>34.0</ele><time>2026-05-02T09:12:10.972Z</time></trkpt><trkpt lat="40.00291" lon="15.3713217"><ele>34.0</ele><time>2026-05-02T09:12:12.972Z</time></trkpt><trkpt lat="40.0029483" lon="15.371195"><ele>34.0</ele><time>2026-05-02T09:12:14.973Z</time></trkpt><trkpt lat="40.00297" lon="15.3711117"><ele>34.0</ele><time>2026-05-02T09:12:15.972Z</time></trkpt><trkpt lat="40.0029983" lon="15.3710117"><ele>34.0</ele><time>2026-05-02T09:12:16.972Z</time></trkpt><trkpt lat="40.0030217" lon="15.370895"><ele>34.0</ele><time>2026-05-02T09:12:17.973Z</time></trkpt><trkpt lat="40.0030533" lon="15.3707717"><ele>34.0</ele><time>2026-05-02T09:12:18.972Z</time></trkpt><trkpt lat="40.00309" lon="15.37064"><ele>33.2</ele><time>2026-05-02T09:12:19.973Z</time></trkpt><trkpt lat="40.0031233" lon="15.370505"><ele>32.4</ele><time>2026-05-02T09:12:20.972Z</time></trkpt><trkpt lat="40.0031583" lon="15.3703667"><ele>31.6</ele><time>2026-05-02T09:12:21.973Z</time></trkpt><trkpt lat="40.0031917" lon="15.370225"><ele>30.8</ele><time>2026-05-02T09:12:22.972Z</time></trkpt><trkpt lat="40.0032233" lon="15.3700833"><ele>30.0</ele><time>2026-05-02T09:12:23.972Z</time></trkpt><trkpt lat="40.0032617" lon="15.3699483"><ele>30.0</ele><time>2026-05-02T09:12:24.972Z</time></trkpt><trkpt lat="40.0032767" lon="15.3698167"><ele>30.0</ele><time>2026-05-02T09:12:25.972Z</time></trkpt><trkpt lat="40.0032683" lon="15.3696783"><ele>30.0</ele><time>2026-05-02T09:12:26.973Z</time></trkpt><trkpt lat="40.003235" lon="15.36955"><ele>30.0</ele><time>2026-05-02T09:12:27.972Z</time></trkpt><trkpt lat="40.0031783" lon="15.369435"><ele>30.0</ele><time>2026-05-02T09:12:28.972Z</time></trkpt><trkpt lat="40.0031217" lon="15.3693417"><ele>30.5</ele><time>2026-05-02T09:12:29.972Z</time></trkpt><trkpt lat="40.0030567" lon="15.3692633"><ele>31.0</ele><time>2026-05-02T09:12:30.973Z</time></trkpt><trkpt lat="40.0029883" lon="15.3691883"><ele>31.5</ele><time>2026-05-02T09:12:31.972Z</time></trkpt><trkpt lat="40.0029233" lon="15.36911"><ele>32.0</ele><time>2026-05-02T09:12:32.972Z</time></trkpt><trkpt lat="40.0028633" lon="15.3690267"><ele>32.5</ele><time>2026-05-02T09:12:33.972Z</time></trkpt><trkpt lat="40.002805" lon="15.36893"><ele>33.0</ele><time>2026-05-02T09:12:34.973Z</time></trkpt><trkpt lat="40.0027483" lon="15.3688183"><ele>33.833333333333336</ele><time>2026-05-02T09:12:35.972Z</time></trkpt><trkpt lat="40.00271" lon="15.3687033"><ele>34.666666666666664</ele><time>2026-05-02T09:12:36.973Z</time></trkpt><trkpt lat="40.0026933" lon="15.3686017"><ele>35.5</ele><time>2026-05-02T09:12:37.972Z</time></trkpt><trkpt lat="40.0026917" lon="15.3685083"><ele>36.33333333333333</ele><time>2026-05-02T09:12:38.973Z</time></trkpt><trkpt lat="40.0026933" lon="15.3683483"><ele>37.166666666666664</ele><time>2026-05-02T09:12:40.972Z</time></trkpt><trkpt lat="40.0026933" lon="15.3682583"><ele>38.0</ele><time>2026-05-02T09:12:41.973Z</time></trkpt><trkpt lat="40.0026933" lon="15.3681533"><ele>37.25</ele><time>2026-05-02T09:12:42.972Z</time></trkpt><trkpt lat="40.0027" lon="15.368015"><ele>36.5</ele><time>2026-05-02T09:12:43.972Z</time></trkpt><trkpt lat="40.0027083" lon="15.3678767"><ele>35.75</ele><time>2026-05-02T09:12:44.972Z</time></trkpt><trkpt lat="40.00273" lon="15.367725"><ele>35.0</ele><time>2026-05-02T09:12:45.973Z</time></trkpt><trkpt lat="40.00278" lon="15.3675233"><ele>35.0</ele><time>2026-05-02T09:12:46.972Z</time></trkpt><trkpt lat="40.0028467" lon="15.3672983"><ele>35.0</ele><time>2026-05-02T09:12:47.972Z</time></trkpt><trkpt lat="40.002925" lon="15.3670483"><ele>35.0</ele><time>2026-05-02T09:12:48.972Z</time></trkpt><trkpt lat="40.0029967" lon="15.3668017"><ele>33.33333333333333</ele><time>2026-05-02T09:12:49.973Z</time></trkpt><trkpt lat="40.0030567" lon="15.3665883"><ele>31.666666666666664</ele><time>2026-05-02T09:12:50.973Z</time></trkpt><trkpt lat="40.0031" lon="15.366395"><ele>30.0</ele><time>2026-05-02T09:12:51.972Z</time></trkpt><trkpt lat="40.0031133" lon="15.36622"><ele>30.0</ele><time>2026-05-02T09:12:52.973Z</time></trkpt><trkpt lat="40.0031133" lon="15.3660217"><ele>30.0</ele><time>2026-05-02T09:12:53.972Z</time></trkpt><trkpt lat="40.0030917" lon="15.3658017"><ele>30.0</ele><time>2026-05-02T09:12:54.972Z</time></trkpt><trkpt lat="40.0030617" lon="15.365595"><ele>31.666666666666664</ele><time>2026-05-02T09:12:55.972Z</time></trkpt><trkpt lat="40.0030283" lon="15.3653667"><ele>33.33333333333333</ele><time>2026-05-02T09:12:56.973Z</time></trkpt><trkpt lat="40.002995" lon="15.36511"><ele>35.0</ele><time>2026-05-02T09:12:57.972Z</time></trkpt><trkpt lat="40.00296" lon="15.3648467"><ele>35.666666666666664</ele><time>2026-05-02T09:12:58.972Z</time></trkpt><trkpt lat="40.0029167" lon="15.3645717"><ele>36.333333333333336</ele><time>2026-05-02T09:12:59.972Z</time></trkpt><trkpt lat="40.00287" lon="15.364285"><ele>37.0</ele><time>2026-05-02T09:13:00.973Z</time></trkpt><trkpt lat="40.0028267" lon="15.3639867"><ele>38.0</ele><time>2026-05-02T09:13:01.972Z</time></trkpt><trkpt lat="40.0027783" lon="15.363695"><ele>39.0</ele><time>2026-05-02T09:13:02.972Z</time></trkpt><trkpt lat="40.0027383" lon="15.363415"><ele>40.0</ele><time>2026-05-02T09:13:03.973Z</time></trkpt><trkpt lat="40.0026983" lon="15.3631517"><ele>40.66666666666667</ele><time>2026-05-02T09:13:04.972Z</time></trkpt><trkpt lat="40.0026667" lon="15.3629017"><ele>41.333333333333336</ele><time>2026-05-02T09:13:05.973Z</time></trkpt><trkpt lat="40.0026433" lon="15.362695"><ele>42.0</ele><time>2026-05-02T09:13:06.973Z</time></trkpt><trkpt lat="40.002615" lon="15.36249"><ele>42.0</ele><time>2026-05-02T09:13:07.972Z</time></trkpt><trkpt lat="40.0025867" lon="15.3622667"><ele>42.0</ele><time>2026-05-02T09:13:08.972Z</time></trkpt><trkpt lat="40.0025633" lon="15.3620267"><ele>42.0</ele><time>2026-05-02T09:13:09.973Z</time></trkpt><trkpt lat="40.002535" lon="15.3618067"><ele>41.666666666666664</ele><time>2026-05-02T09:13:10.972Z</time></trkpt><trkpt lat="40.0024833" lon="15.3616"><ele>41.33333333333333</ele><time>2026-05-02T09:13:11.972Z</time></trkpt><trkpt lat="40.0024117" lon="15.3614033"><ele>41.0</ele><time>2026-05-02T09:13:12.973Z</time></trkpt><trkpt lat="40.0023133" lon="15.36119"><ele>41.0</ele><time>2026-05-02T09:13:13.972Z</time></trkpt><trkpt lat="40.0022017" lon="15.3609583"><ele>41.0</ele><time>2026-05-02T09:13:14.972Z</time></trkpt><trkpt lat="40.0020733" lon="15.36071"><ele>41.0</ele><time>2026-05-02T09:13:15.972Z</time></trkpt><trkpt lat="40.00194" lon="15.3604583"><ele>41.33333333333333</ele><time>2026-05-02T09:13:16.973Z</time></trkpt><trkpt lat="40.001805" lon="15.36021"><ele>41.666666666666664</ele><time>2026-05-02T09:13:17.972Z</time></trkpt><trkpt lat="40.0016867" lon="15.3599833"><ele>42.0</ele><time>2026-05-02T09:13:18.972Z</time></trkpt><trkpt lat="40.0015817" lon="15.3597917"><ele>39.0</ele><time>2026-05-02T09:13:19.973Z</time></trkpt><trkpt lat="40.0014917" lon="15.35962"><ele>36.0</ele><time>2026-05-02T09:13:20.972Z</time></trkpt><trkpt lat="40.0014067" lon="15.3594567"><ele>33.0</ele><time>2026-05-02T09:13:21.973Z</time></trkpt><trkpt lat="40.0013333" lon="15.3592933"><ele>33.0</ele><time>2026-05-02T09:13:22.973Z</time></trkpt><trkpt lat="40.0012833" lon="15.3591317"><ele>33.0</ele><time>2026-05-02T09:13:23.972Z</time></trkpt><trkpt lat="40.0012583" lon="15.358955"><ele>33.0</ele><time>2026-05-02T09:13:24.972Z</time></trkpt><trkpt lat="40.0012683" lon="15.3587817"><ele>33.0</ele><time>2026-05-02T09:13:25.972Z</time></trkpt><trkpt lat="40.0012983" lon="15.358605"><ele>31.666666666666664</ele><time>2026-05-02T09:13:26.972Z</time></trkpt><trkpt lat="40.0013517" lon="15.35841"><ele>30.333333333333332</ele><time>2026-05-02T09:13:27.972Z</time></trkpt><trkpt lat="40.0014267" lon="15.3581867"><ele>29.0</ele><time>2026-05-02T09:13:28.972Z</time></trkpt><trkpt lat="40.0015133" lon="15.357965"><ele>30.333333333333332</ele><time>2026-05-02T09:13:29.972Z</time></trkpt><trkpt lat="40.0015967" lon="15.3577533"><ele>31.666666666666664</ele><time>2026-05-02T09:13:30.972Z</time></trkpt><trkpt lat="40.0016767" lon="15.3575567"><ele>33.0</ele><time>2026-05-02T09:13:31.972Z</time></trkpt><trkpt lat="40.00176" lon="15.357395"><ele>33.0</ele><time>2026-05-02T09:13:32.973Z</time></trkpt><trkpt lat="40.00187" lon="15.35725"><ele>33.0</ele><time>2026-05-02T09:13:33.972Z</time></trkpt><trkpt lat="40.001985" lon="15.3571333"><ele>33.0</ele><time>2026-05-02T09:13:34.972Z</time></trkpt><trkpt lat="40.0021067" lon="15.3570233"><ele>31.75</ele><time>2026-05-02T09:13:35.972Z</time></trkpt><trkpt lat="40.0022217" lon="15.35692"><ele>30.5</ele><time>2026-05-02T09:13:36.972Z</time></trkpt><trkpt lat="40.00234" lon="15.3567917"><ele>29.25</ele><time>2026-05-02T09:13:37.973Z</time></trkpt><trkpt lat="40.002435" lon="15.3566383"><ele>28.0</ele><time>2026-05-02T09:13:38.972Z</time></trkpt><trkpt lat="40.0025333" lon="15.3564617"><ele>27.25</ele><time>2026-05-02T09:13:39.972Z</time></trkpt><trkpt lat="40.0026283" lon="15.35629"><ele>26.5</ele><time>2026-05-02T09:13:40.972Z</time></trkpt><trkpt lat="40.0027183" lon="15.3561417"><ele>25.75</ele><time>2026-05-02T09:13:41.972Z</time></trkpt><trkpt lat="40.0028117" lon="15.3560517"><ele>25.0</ele><time>2026-05-02T09:13:42.972Z</time></trkpt><trkpt lat="40.0029133" lon="15.35599"><ele>25.0</ele><time>2026-05-02T09:13:43.972Z</time></trkpt><trkpt lat="40.0030333" lon="15.3559767"><ele>25.0</ele><time>2026-05-02T09:13:44.972Z</time></trkpt><trkpt lat="40.003175" lon="15.356025"><ele>25.0</ele><time>2026-05-02T09:13:45.973Z</time></trkpt><trkpt lat="40.0033367" lon="15.3561233"><ele>25.0</ele><time>2026-05-02T09:13:46.972Z</time></trkpt><trkpt lat="40.0035133" lon="15.356255"><ele>28.5</ele><time>2026-05-02T09:13:47.972Z</time></trkpt><trkpt lat="40.0037233" lon="15.3563683"><ele>32.0</ele><time>2026-05-02T09:13:48.973Z</time></trkpt><trkpt lat="40.003965" lon="15.3564533"><ele>35.0</ele><time>2026-05-02T09:13:49.973Z</time></trkpt><trkpt lat="40.0042283" lon="15.3565"><ele>38.0</ele><time>2026-05-02T09:13:50.972Z</time></trkpt><trkpt lat="40.0044833" lon="15.3565217"><ele>38.0</ele><time>2026-05-02T09:13:51.972Z</time></trkpt><trkpt lat="40.0047133" lon="15.3565433"><ele>38.0</ele><time>2026-05-02T09:13:52.973Z</time></trkpt><trkpt lat="40.0049483" lon="15.35663"><ele>44.5</ele><time>2026-05-02T09:13:53.973Z</time></trkpt><trkpt lat="40.0051717" lon="15.35674"><ele>51.0</ele><time>2026-05-02T09:13:54.972Z</time></trkpt><trkpt lat="40.005385" lon="15.3568333"><ele>51.0</ele><time>2026-05-02T09:13:55.972Z</time></trkpt><trkpt lat="40.005615" lon="15.3568833"><ele>51.0</ele><time>2026-05-02T09:13:56.972Z</time></trkpt><trkpt lat="40.0058183" lon="15.3569017"><ele>51.0</ele><time>2026-05-02T09:13:57.972Z</time></trkpt><trkpt lat="40.005995" lon="15.3568967"><ele>53.66666666666667</ele><time>2026-05-02T09:13:58.973Z</time></trkpt><trkpt lat="40.0061467" lon="15.3568683"><ele>56.333333333333336</ele><time>2026-05-02T09:13:59.972Z</time></trkpt><trkpt lat="40.006285" lon="15.3567767"><ele>59.0</ele><time>2026-05-02T09:14:00.973Z</time></trkpt><trkpt lat="40.006415" lon="15.356655"><ele>59.0</ele><time>2026-05-02T09:14:01.972Z</time></trkpt><trkpt lat="40.0065233" lon="15.3565"><ele>59.0</ele><time>2026-05-02T09:14:02.972Z</time></trkpt><trkpt lat="40.006595" lon="15.3563267"><ele>59.0</ele><time>2026-05-02T09:14:03.972Z</time></trkpt><trkpt lat="40.0066333" lon="15.3561233"><ele>61.0</ele><time>2026-05-02T09:14:04.973Z</time></trkpt><trkpt lat="40.00664" lon="15.3558883"><ele>63.0</ele><time>2026-05-02T09:14:05.972Z</time></trkpt><trkpt lat="40.0066183" lon="15.3556233"><ele>65.0</ele><time>2026-05-02T09:14:06.973Z</time></trkpt><trkpt lat="40.0066067" lon="15.3553567"><ele>65.0</ele><time>2026-05-02T09:14:07.972Z</time></trkpt><trkpt lat="40.006615" lon="15.35514"><ele>65.0</ele><time>2026-05-02T09:14:08.972Z</time></trkpt><trkpt lat="40.0066467" lon="15.354945"><ele>65.0</ele><time>2026-05-02T09:14:09.972Z</time></trkpt><trkpt lat="40.0067033" lon="15.354755"><ele>66.0</ele><time>2026-05-02T09:14:10.972Z</time></trkpt><trkpt lat="40.0067883" lon="15.35458"><ele>67.0</ele><time>2026-05-02T09:14:11.972Z</time></trkpt><trkpt lat="40.0069033" lon="15.3544183"><ele>68.0</ele><time>2026-05-02T09:14:12.973Z</time></trkpt><trkpt lat="40.00706" lon="15.3542667"><ele>68.0</ele><time>2026-05-02T09:14:13.972Z</time></trkpt><trkpt lat="40.00724" lon="15.3541317"><ele>68.0</ele><time>2026-05-02T09:14:14.972Z</time></trkpt><trkpt lat="40.007405" lon="15.3539883"><ele>68.0</ele><time>2026-05-02T09:14:15.972Z</time></trkpt><trkpt lat="40.0075467" lon="15.3538233"><ele>69.0</ele><time>2026-05-02T09:14:16.972Z</time></trkpt><trkpt lat="40.00767" lon="15.353645"><ele>70.0</ele><time>2026-05-02T09:14:17.972Z</time></trkpt><trkpt lat="40.0077583" lon="15.35348"><ele>71.0</ele><time>2026-05-02T09:14:18.972Z</time></trkpt><trkpt lat="40.0078333" lon="15.3533017"><ele>71.0</ele><time>2026-05-02T09:14:19.973Z</time></trkpt><trkpt lat="40.0078983" lon="15.35307"><ele>71.0</ele><time>2026-05-02T09:14:20.972Z</time></trkpt><trkpt lat="40.00794" lon="15.35282"><ele>71.0</ele><time>2026-05-02T09:14:21.972Z</time></trkpt><trkpt lat="40.0079717" lon="15.3526017"><ele>70.5</ele><time>2026-05-02T09:14:22.972Z</time></trkpt><trkpt lat="40.0080083" lon="15.352425"><ele>70.0</ele><time>2026-05-02T09:14:23.972Z</time></trkpt><trkpt lat="40.0080533" lon="15.352265"><ele>69.5</ele><time>2026-05-02T09:14:24.972Z</time></trkpt><trkpt lat="40.00813" lon="15.3520883"><ele>69.0</ele><time>2026-05-02T09:14:25.972Z</time></trkpt><trkpt lat="40.0082267" lon="15.3518983"><ele>70.0</ele><time>2026-05-02T09:14:26.972Z</time></trkpt><trkpt lat="40.0083533" lon="15.351705"><ele>71.0</ele><time>2026-05-02T09:14:27.972Z</time></trkpt><trkpt lat="40.0084683" lon="15.3515183"><ele>72.0</ele><time>2026-05-02T09:14:28.972Z</time></trkpt><trkpt lat="40.00856" lon="15.3513267"><ele>69.66666666666667</ele><time>2026-05-02T09:14:29.973Z</time></trkpt><trkpt lat="40.00863" lon="15.351125"><ele>67.33333333333334</ele><time>2026-05-02T09:14:30.973Z</time></trkpt><trkpt lat="40.0086683" lon="15.3509333"><ele>65.0</ele><time>2026-05-02T09:14:31.972Z</time></trkpt><trkpt lat="40.008675" lon="15.350725"><ele>64.66666666666667</ele><time>2026-05-02T09:14:32.972Z</time></trkpt><trkpt lat="40.008645" lon="15.3505"><ele>64.33333333333333</ele><time>2026-05-02T09:14:33.973Z</time></trkpt><trkpt lat="40.0085767" lon="15.3502567"><ele>64.0</ele><time>2026-05-02T09:14:34.973Z</time></trkpt><trkpt lat="40.008485" lon="15.3499633"><ele>65.5</ele><time>2026-05-02T09:14:35.972Z</time></trkpt><trkpt lat="40.0083783" lon="15.3496633"><ele>67.0</ele><time>2026-05-02T09:14:36.972Z</time></trkpt><trkpt lat="40.00829" lon="15.3493833"><ele>59.33333333333333</ele><time>2026-05-02T09:14:37.972Z</time></trkpt><trkpt lat="40.008235" lon="15.3491367"><ele>51.666666666666664</ele><time>2026-05-02T09:14:38.973Z</time></trkpt><trkpt lat="40.008185" lon="15.34893"><ele>44.0</ele><time>2026-05-02T09:14:39.972Z</time></trkpt><trkpt lat="40.008115" lon="15.3487483"><ele>44.0</ele><time>2026-05-02T09:14:40.972Z</time></trkpt><trkpt lat="40.0080067" lon="15.3485567"><ele>44.0</ele><time>2026-05-02T09:14:41.972Z</time></trkpt><trkpt lat="40.0078633" lon="15.3483417"><ele>44.0</ele><time>2026-05-02T09:14:42.973Z</time></trkpt><trkpt lat="40.007675" lon="15.348095"><ele>35.5</ele><time>2026-05-02T09:14:43.972Z</time></trkpt><trkpt lat="40.0074817" lon="15.3478267"><ele>27.0</ele><time>2026-05-02T09:14:44.972Z</time></trkpt><trkpt lat="40.00731" lon="15.3475667"><ele>27.0</ele><time>2026-05-02T09:14:45.972Z</time></trkpt><trkpt lat="40.007145" lon="15.3473"><ele>27.0</ele><time>2026-05-02T09:14:46.972Z</time></trkpt><trkpt lat="40.0069733" lon="15.3470183"><ele>31.0</ele><time>2026-05-02T09:14:47.973Z</time></trkpt><trkpt lat="40.006825" lon="15.34673"><ele>35.0</ele><time>2026-05-02T09:14:48.972Z</time></trkpt><trkpt lat="40.0066817" lon="15.346465"><ele>30.333333333333332</ele><time>2026-05-02T09:14:49.973Z</time></trkpt><trkpt lat="40.00655" lon="15.3462"><ele>25.666666666666664</ele><time>2026-05-02T09:14:50.973Z</time></trkpt><trkpt lat="40.0064367" lon="15.3459783"><ele>21.0</ele><time>2026-05-02T09:14:51.972Z</time></trkpt><trkpt lat="40.0063283" lon="15.3458033"><ele>21.0</ele><time>2026-05-02T09:14:52.973Z</time></trkpt><trkpt lat="40.0061983" lon="15.3456517"><ele>21.0</ele><time>2026-05-02T09:14:53.972Z</time></trkpt><trkpt lat="40.0060483" lon="15.34551"><ele>21.0</ele><time>2026-05-02T09:14:54.972Z</time></trkpt><trkpt lat="40.0059233" lon="15.3453833"><ele>17.25</ele><time>2026-05-02T09:14:55.972Z</time></trkpt><trkpt lat="40.005825" lon="15.3452633"><ele>13.5</ele><time>2026-05-02T09:14:56.973Z</time></trkpt><trkpt lat="40.0057633" lon="15.345125"><ele>9.75</ele><time>2026-05-02T09:14:57.972Z</time></trkpt><trkpt lat="40.0057217" lon="15.3449817"><ele>6.0</ele><time>2026-05-02T09:14:58.973Z</time></trkpt><trkpt lat="40.0057" lon="15.3448233"><ele>7.0</ele><time>2026-05-02T09:14:59.973Z</time></trkpt><trkpt lat="40.0056783" lon="15.3446317"><ele>8.0</ele><time>2026-05-02T09:15:00.973Z</time></trkpt><trkpt lat="40.0056283" lon="15.3443933"><ele>9.0</ele><time>2026-05-02T09:15:01.972Z</time></trkpt><trkpt lat="40.0055767" lon="15.3441583"><ele>9.0</ele><time>2026-05-02T09:15:02.973Z</time></trkpt><trkpt lat="40.00553" lon="15.34394"><ele>9.0</ele><time>2026-05-02T09:15:03.972Z</time></trkpt><trkpt lat="40.005495" lon="15.343755"><ele>9.0</ele><time>2026-05-02T09:15:04.973Z</time></trkpt><trkpt lat="40.005485" lon="15.3435917"><ele>9.0</ele><time>2026-05-02T09:15:05.972Z</time></trkpt><trkpt lat="40.0055083" lon="15.34342"><ele>8.666666666666666</ele><time>2026-05-02T09:15:06.972Z</time></trkpt><trkpt lat="40.0055683" lon="15.3432467"><ele>8.333333333333332</ele><time>2026-05-02T09:15:07.973Z</time></trkpt><trkpt lat="40.0056433" lon="15.3430817"><ele>8.0</ele><time>2026-05-02T09:15:08.972Z</time></trkpt><trkpt lat="40.005715" lon="15.3428967"><ele>8.0</ele><time>2026-05-02T09:15:09.973Z</time></trkpt><trkpt lat="40.005795" lon="15.3427033"><ele>8.0</ele><time>2026-05-02T09:15:10.972Z</time></trkpt><trkpt lat="40.0058967" lon="15.342485"><ele>8.0</ele><time>2026-05-02T09:15:11.973Z</time></trkpt><trkpt lat="40.005995" lon="15.34228"><ele>10.0</ele><time>2026-05-02T09:15:12.972Z</time></trkpt><trkpt lat="40.0061017" lon="15.3420767"><ele>12.0</ele><time>2026-05-02T09:15:13.973Z</time></trkpt><trkpt lat="40.006205" lon="15.3418833"><ele>14.0</ele><time>2026-05-02T09:15:14.973Z</time></trkpt><trkpt lat="40.0063083" lon="15.3416883"><ele>14.0</ele><time>2026-05-02T09:15:15.972Z</time></trkpt><trkpt lat="40.006415" lon="15.3414967"><ele>14.0</ele><time>2026-05-02T09:15:16.972Z</time></trkpt><trkpt lat="40.0065283" lon="15.3413133"><ele>14.0</ele><time>2026-05-02T09:15:17.972Z</time></trkpt><trkpt lat="40.0075283" lon="15.3406883"><ele>14.0</ele><time>2026-05-02T09:15:21.981Z</time></trkpt><trkpt lat="40.0079467" lon="15.3404533"><ele>14.0</ele><time>2026-05-02T09:15:22.981Z</time></trkpt><trkpt lat="40.0082017" lon="15.3402767"><ele>14.0</ele><time>2026-05-02T09:15:23.982Z</time></trkpt><trkpt lat="40.0084383" lon="15.34012"><ele>18.333333333333336</ele><time>2026-05-02T09:15:24.982Z</time></trkpt><trkpt lat="40.00865" lon="15.3399817"><ele>22.666666666666668</ele><time>2026-05-02T09:15:25.982Z</time></trkpt><trkpt lat="40.0088383" lon="15.3398633"><ele>27.0</ele><time>2026-05-02T09:15:26.981Z</time></trkpt><trkpt lat="40.009" lon="15.3397417"><ele>23.25</ele><time>2026-05-02T09:15:27.982Z</time></trkpt><trkpt lat="40.009145" lon="15.339635"><ele>19.5</ele><time>2026-05-02T09:15:28.981Z</time></trkpt><trkpt lat="40.0092533" lon="15.3395517"><ele>15.75</ele><time>2026-05-02T09:15:29.981Z</time></trkpt><trkpt lat="40.009305" lon="15.3395017"><ele>12.0</ele><time>2026-05-02T09:15:30.982Z</time></trkpt><trkpt lat="40.0093867" lon="15.3394133"><ele>12.0</ele><time>2026-05-02T09:15:32.981Z</time></trkpt><trkpt lat="40.0094433" lon="15.33932"><ele>12.0</ele><time>2026-05-02T09:15:33.981Z</time></trkpt><trkpt lat="40.0095033" lon="15.33921"><ele>12.0</ele><time>2026-05-02T09:15:34.982Z</time></trkpt><trkpt lat="40.0095517" lon="15.3390867"><ele>12.0</ele><time>2026-05-02T09:15:35.981Z</time></trkpt><trkpt lat="40.00959" lon="15.3389467"><ele>12.0</ele><time>2026-05-02T09:15:36.982Z</time></trkpt><trkpt lat="40.0096233" lon="15.3388067"><ele>10.4</ele><time>2026-05-02T09:15:37.981Z</time></trkpt><trkpt lat="40.0096483" lon="15.3386833"><ele>8.799999999999999</ele><time>2026-05-02T09:15:38.981Z</time></trkpt><trkpt lat="40.0096683" lon="15.3385683"><ele>7.2</ele><time>2026-05-02T09:15:39.981Z</time></trkpt><trkpt lat="40.0096883" lon="15.3384567"><ele>5.6</ele><time>2026-05-02T09:15:40.981Z</time></trkpt><trkpt lat="40.0097067" lon="15.3383433"><ele>4.0</ele><time>2026-05-02T09:15:41.981Z</time></trkpt><trkpt lat="40.009725" lon="15.338225"><ele>4.0</ele><time>2026-05-02T09:15:42.981Z</time></trkpt><trkpt lat="40.0097483" lon="15.3381133"><ele>4.0</ele><time>2026-05-02T09:15:43.981Z</time></trkpt><trkpt lat="40.00978" lon="15.3379967"><ele>4.0</ele><time>2026-05-02T09:15:44.981Z</time></trkpt><trkpt lat="40.0098117" lon="15.3378867"><ele>4.0</ele><time>2026-05-02T09:15:45.981Z</time></trkpt><trkpt lat="40.009855" lon="15.337775"><ele>4.0</ele><time>2026-05-02T09:15:46.981Z</time></trkpt><trkpt lat="40.0099067" lon="15.3376717"><ele>3.4000000000000004</ele><time>2026-05-02T09:15:47.981Z</time></trkpt><trkpt lat="40.0099633" lon="15.33757"><ele>2.8000000000000003</ele><time>2026-05-02T09:15:48.982Z</time></trkpt><trkpt lat="40.0100217" lon="15.33746"><ele>2.2</ele><time>2026-05-02T09:15:49.981Z</time></trkpt><trkpt lat="40.0100933" lon="15.337325"><ele>1.6</ele><time>2026-05-02T09:15:50.982Z</time></trkpt><trkpt lat="40.0101917" lon="15.337245"><ele>1.0</ele><time>2026-05-02T09:15:51.982Z</time></trkpt><trkpt lat="40.0102783" lon="15.337175"><ele>1.0</ele><time>2026-05-02T09:15:52.982Z</time></trkpt><trkpt lat="40.010365" lon="15.3371267"><ele>1.0</ele><time>2026-05-02T09:15:53.982Z</time></trkpt><trkpt lat="40.0104667" lon="15.337075"><ele>1.0</ele><time>2026-05-02T09:15:54.982Z</time></trkpt><trkpt lat="40.0105683" lon="15.3370233"><ele>1.0</ele><time>2026-05-02T09:15:55.981Z</time></trkpt><trkpt lat="40.0106817" lon="15.3369633"><ele>1.0</ele><time>2026-05-02T09:15:56.982Z</time></trkpt><trkpt lat="40.0108" lon="15.3368983"><ele>2.5</ele><time>2026-05-02T09:15:57.982Z</time></trkpt><trkpt lat="40.0109017" lon="15.3368483"><ele>4.0</ele><time>2026-05-02T09:15:58.981Z</time></trkpt><trkpt lat="40.0110033" lon="15.3367883"><ele>5.5</ele><time>2026-05-02T09:15:59.981Z</time></trkpt><trkpt lat="40.0111083" lon="15.3367217"><ele>7.0</ele><time>2026-05-02T09:16:00.981Z</time></trkpt><trkpt lat="40.0112067" lon="15.3366367"><ele>7.0</ele><time>2026-05-02T09:16:01.982Z</time></trkpt><trkpt lat="40.0112967" lon="15.3365533"><ele>6.999999999999999</ele><time>2026-05-02T09:16:02.981Z</time></trkpt><trkpt lat="40.011375" lon="15.336485"><ele>6.999999999999999</ele><time>2026-05-02T09:16:03.981Z</time></trkpt><trkpt lat="40.0114417" lon="15.3364067"><ele>7.0</ele><time>2026-05-02T09:16:04.981Z</time></trkpt><trkpt lat="40.0115" lon="15.3363217"><ele>7.0</ele><time>2026-05-02T09:16:05.982Z</time></trkpt><trkpt lat="40.0115533" lon="15.3362433"><ele>7.428571428571429</ele><time>2026-05-02T09:16:06.981Z</time></trkpt><trkpt lat="40.0116033" lon="15.33617"><ele>7.857142857142858</ele><time>2026-05-02T09:16:07.982Z</time></trkpt><trkpt lat="40.0116433" lon="15.3361033"><ele>8.285714285714285</ele><time>2026-05-02T09:16:08.982Z</time></trkpt><trkpt lat="40.0116883" lon="15.33603"><ele>8.714285714285715</ele><time>2026-05-02T09:16:09.981Z</time></trkpt><trkpt lat="40.011735" lon="15.3359717"><ele>9.142857142857142</ele><time>2026-05-02T09:16:10.982Z</time></trkpt><trkpt lat="40.0117833" lon="15.3359033"><ele>9.571428571428571</ele><time>2026-05-02T09:16:11.981Z</time></trkpt><trkpt lat="40.011835" lon="15.3358333"><ele>10.0</ele><time>2026-05-02T09:16:12.982Z</time></trkpt><trkpt lat="40.0118883" lon="15.3357617"><ele>10.0</ele><time>2026-05-02T09:16:13.982Z</time></trkpt><trkpt lat="40.0119483" lon="15.3356917"><ele>10.0</ele><time>2026-05-02T09:16:14.981Z</time></trkpt><trkpt lat="40.0120117" lon="15.335625"><ele>10.0</ele><time>2026-05-02T09:16:15.981Z</time></trkpt><trkpt lat="40.0120833" lon="15.3355567"><ele>10.0</ele><time>2026-05-02T09:16:16.982Z</time></trkpt><trkpt lat="40.0121533" lon="15.3354983"><ele>10.0</ele><time>2026-05-02T09:16:17.982Z</time></trkpt><trkpt lat="40.0122317" lon="15.3354483"><ele>10.0</ele><time>2026-05-02T09:16:18.982Z</time></trkpt><trkpt lat="40.0123133" lon="15.3353967"><ele>8.8</ele><time>2026-05-02T09:16:19.982Z</time></trkpt><trkpt lat="40.0124017" lon="15.3353517"><ele>7.6</ele><time>2026-05-02T09:16:20.981Z</time></trkpt><trkpt lat="40.01249" lon="15.3353083"><ele>6.4</ele><time>2026-05-02T09:16:21.981Z</time></trkpt><trkpt lat="40.0125767" lon="15.3352683"><ele>5.2</ele><time>2026-05-02T09:16:22.982Z</time></trkpt><trkpt lat="40.0126567" lon="15.3352267"><ele>4.0</ele><time>2026-05-02T09:16:23.981Z</time></trkpt><trkpt lat="40.0127417" lon="15.3351783"><ele>4.0</ele><time>2026-05-02T09:16:24.981Z</time></trkpt><trkpt lat="40.012825" lon="15.33512"><ele>4.0</ele><time>2026-05-02T09:16:25.981Z</time></trkpt><trkpt lat="40.0129183" lon="15.335065"><ele>4.0</ele><time>2026-05-02T09:16:26.981Z</time></trkpt><trkpt lat="40.0130117" lon="15.334995"><ele>4.0</ele><time>2026-05-02T09:16:27.982Z</time></trkpt><trkpt lat="40.0131033" lon="15.3349183"><ele>4.0</ele><time>2026-05-02T09:16:28.981Z</time></trkpt><trkpt lat="40.0131983" lon="15.3348467"><ele>4.0</ele><time>2026-05-02T09:16:29.981Z</time></trkpt><trkpt lat="40.0132867" lon="15.3347667"><ele>4.0</ele><time>2026-05-02T09:16:30.981Z</time></trkpt><trkpt lat="40.0133767" lon="15.3347033"><ele>4.0</ele><time>2026-05-02T09:16:31.982Z</time></trkpt><trkpt lat="40.013465" lon="15.3346367"><ele>4.0</ele><time>2026-05-02T09:16:32.981Z</time></trkpt><trkpt lat="40.01355" lon="15.33457"><ele>4.0</ele><time>2026-05-02T09:16:33.982Z</time></trkpt><trkpt lat="40.0136317" lon="15.3345067"><ele>3.4000000000000004</ele><time>2026-05-02T09:16:34.981Z</time></trkpt><trkpt lat="40.0137117" lon="15.3344483"><ele>2.8000000000000003</ele><time>2026-05-02T09:16:35.982Z</time></trkpt><trkpt lat="40.0137933" lon="15.3343933"><ele>2.2</ele><time>2026-05-02T09:16:36.981Z</time></trkpt><trkpt lat="40.01387" lon="15.334335"><ele>1.6</ele><time>2026-05-02T09:16:37.981Z</time></trkpt><trkpt lat="40.0139483" lon="15.3342783"><ele>1.0</ele><time>2026-05-02T09:16:38.981Z</time></trkpt><trkpt lat="40.0140267" lon="15.3342167"><ele>0.9999999999999999</ele><time>2026-05-02T09:16:39.981Z</time></trkpt><trkpt lat="40.0141033" lon="15.3341583"><ele>1.0</ele><time>2026-05-02T09:16:40.981Z</time></trkpt><trkpt lat="40.0141767" lon="15.334105"><ele>1.0</ele><time>2026-05-02T09:16:41.981Z</time></trkpt><trkpt lat="40.0142483" lon="15.3340417"><ele>1.0</ele><time>2026-05-02T09:16:42.982Z</time></trkpt><trkpt lat="40.0143183" lon="15.3339883"><ele>0.9999999999999999</ele><time>2026-05-02T09:16:43.982Z</time></trkpt><trkpt lat="40.0143917" lon="15.3339367"><ele>1.0</ele><time>2026-05-02T09:16:44.981Z</time></trkpt><trkpt lat="40.0144583" lon="15.3338833"><ele>0.9999999999999999</ele><time>2026-05-02T09:16:45.981Z</time></trkpt><trkpt lat="40.0145267" lon="15.333825"><ele>1.0</ele><time>2026-05-02T09:16:46.981Z</time></trkpt><trkpt lat="40.0145933" lon="15.3337717"><ele>1.0</ele><time>2026-05-02T09:16:47.982Z</time></trkpt><trkpt lat="40.0146633" lon="15.33372"><ele>1.0</ele><time>2026-05-02T09:16:48.981Z</time></trkpt><trkpt lat="40.0147317" lon="15.3336667"><ele>0.9999999999999999</ele><time>2026-05-02T09:16:49.982Z</time></trkpt><trkpt lat="40.0148" lon="15.3336133"><ele>1.0</ele><time>2026-05-02T09:16:50.982Z</time></trkpt><trkpt lat="40.0148667" lon="15.3335617"><ele>0.9999999999999999</ele><time>2026-05-02T09:16:51.981Z</time></trkpt><trkpt lat="40.0149367" lon="15.3335083"><ele>1.0</ele><time>2026-05-02T09:16:52.982Z</time></trkpt><trkpt lat="40.0150067" lon="15.333455"><ele>1.0</ele><time>2026-05-02T09:16:53.982Z</time></trkpt><trkpt lat="40.01508" lon="15.3334"><ele>1.0</ele><time>2026-05-02T09:16:54.981Z</time></trkpt><trkpt lat="40.0151567" lon="15.3333417"><ele>0.9999999999999999</ele><time>2026-05-02T09:16:55.981Z</time></trkpt><trkpt lat="40.0152333" lon="15.33328"><ele>1.0</ele><time>2026-05-02T09:16:56.981Z</time></trkpt><trkpt lat="40.0153183" lon="15.33322"><ele>0.8</ele><time>2026-05-02T09:16:57.981Z</time></trkpt><trkpt lat="40.01541" lon="15.33316"><ele>0.6000000000000001</ele><time>2026-05-02T09:16:58.981Z</time></trkpt><trkpt lat="40.0155" lon="15.3331117"><ele>0.4</ele><time>2026-05-02T09:16:59.982Z</time></trkpt><trkpt lat="40.0155933" lon="15.3330667"><ele>0.2</ele><time>2026-05-02T09:17:00.981Z</time></trkpt><trkpt lat="40.0156883" lon="15.333035"><ele>0.0</ele><time>2026-05-02T09:17:01.981Z</time></trkpt><trkpt lat="40.015785" lon="15.3330067"><ele>0.0</ele><time>2026-05-02T09:17:02.981Z</time></trkpt><trkpt lat="40.0158833" lon="15.3329733"><ele>0.0</ele><time>2026-05-02T09:17:03.982Z</time></trkpt><trkpt lat="40.015985" lon="15.3329433"><ele>0.0</ele><time>2026-05-02T09:17:04.981Z</time></trkpt><trkpt lat="40.016085" lon="15.332915"><ele>0.0</ele><time>2026-05-02T09:17:05.981Z</time></trkpt><trkpt lat="40.016185" lon="15.33289"><ele>0.0</ele><time>2026-05-02T09:17:06.981Z</time></trkpt><trkpt lat="40.0162867" lon="15.3328617"><ele>0.0</ele><time>2026-05-02T09:17:07.982Z</time></trkpt><trkpt lat="40.0163867" lon="15.3328317"><ele>0.0</ele><time>2026-05-02T09:17:08.981Z</time></trkpt><trkpt lat="40.016475" lon="15.3328083"><ele>0.0</ele><time>2026-05-02T09:17:09.982Z</time></trkpt><trkpt lat="40.0165617" lon="15.3327833"><ele>0.0</ele><time>2026-05-02T09:17:10.981Z</time></trkpt><trkpt lat="40.01664" lon="15.3327667"><ele>0.0</ele><time>2026-05-02T09:17:11.982Z</time></trkpt><trkpt lat="40.01672" lon="15.3327433"><ele>0.0</ele><time>2026-05-02T09:17:12.981Z</time></trkpt><trkpt lat="40.0168" lon="15.3327083"><ele>0.0</ele><time>2026-05-02T09:17:13.981Z</time></trkpt><trkpt lat="40.0168867" lon="15.3326783"><ele>0.0</ele><time>2026-05-02T09:17:14.981Z</time></trkpt><trkpt lat="40.0169733" lon="15.3326517"><ele>0.0</ele><time>2026-05-02T09:17:15.982Z</time></trkpt><trkpt lat="40.01705" lon="15.33263"><ele>0.0</ele><time>2026-05-02T09:17:16.982Z</time></trkpt><trkpt lat="40.0171733" lon="15.3326"><ele>0.0</ele><time>2026-05-02T09:17:18.981Z</time></trkpt><trkpt lat="40.0173" lon="15.3325767"><ele>0.0</ele><time>2026-05-02T09:17:20.981Z</time></trkpt><trkpt lat="40.0173717" lon="15.3325583"><ele>0.0</ele><time>2026-05-02T09:17:21.982Z</time></trkpt><trkpt lat="40.0174417" lon="15.3325417"><ele>0.0</ele><time>2026-05-02T09:17:22.982Z</time></trkpt><trkpt lat="40.0175083" lon="15.3325217"><ele>0.0</ele><time>2026-05-02T09:17:23.981Z</time></trkpt><trkpt lat="40.017575" lon="15.3325"><ele>0.0</ele><time>2026-05-02T09:17:24.982Z</time></trkpt><trkpt lat="40.0176367" lon="15.332475"><ele>0.0</ele><time>2026-05-02T09:17:25.982Z</time></trkpt><trkpt lat="40.0177433" lon="15.332445"><ele>-0.16666666666666666</ele><time>2026-05-02T09:17:27.981Z</time></trkpt><trkpt lat="40.0178617" lon="15.3324083"><ele>-0.3333333333333333</ele><time>2026-05-02T09:17:29.981Z</time></trkpt><trkpt lat="40.0179233" lon="15.3323883"><ele>-0.5</ele><time>2026-05-02T09:17:30.981Z</time></trkpt><trkpt lat="40.017985" lon="15.3323683"><ele>-0.6666666666666666</ele><time>2026-05-02T09:17:31.981Z</time></trkpt><trkpt lat="40.0180517" lon="15.3323383"><ele>-0.8333333333333333</ele><time>2026-05-02T09:17:32.981Z</time></trkpt><trkpt lat="40.01812" lon="15.332315"><ele>-1.0</ele><time>2026-05-02T09:17:33.981Z</time></trkpt><trkpt lat="40.0181883" lon="15.3322883"><ele>-0.9999999999999999</ele><time>2026-05-02T09:17:34.981Z</time></trkpt><trkpt lat="40.01826" lon="15.33226"><ele>-1.0</ele><time>2026-05-02T09:17:35.981Z</time></trkpt><trkpt lat="40.0183333" lon="15.3322267"><ele>-1.0</ele><time>2026-05-02T09:17:36.981Z</time></trkpt><trkpt lat="40.0184117" lon="15.3321917"><ele>-1.0</ele><time>2026-05-02T09:17:37.981Z</time></trkpt><trkpt lat="40.0184883" lon="15.3321567"><ele>-0.9999999999999999</ele><time>2026-05-02T09:17:38.981Z</time></trkpt><trkpt lat="40.0185633" lon="15.3321217"><ele>-1.0</ele><time>2026-05-02T09:17:39.982Z</time></trkpt><trkpt lat="40.0186367" lon="15.3320833"><ele>1.1102230246251565E-16</ele><time>2026-05-02T09:17:40.982Z</time></trkpt><trkpt lat="40.01871" lon="15.3320467"><ele>1.0</ele><time>2026-05-02T09:17:41.981Z</time></trkpt><trkpt lat="40.0187767" lon="15.3320083"><ele>2.0</ele><time>2026-05-02T09:17:42.981Z</time></trkpt><trkpt lat="40.0188433" lon="15.33197"><ele>3.0</ele><time>2026-05-02T09:17:43.981Z</time></trkpt><trkpt lat="40.01891" lon="15.3319183"><ele>4.0</ele><time>2026-05-02T09:17:44.981Z</time></trkpt><trkpt lat="40.018985" lon="15.3318717"><ele>5.0</ele><time>2026-05-02T09:17:45.982Z</time></trkpt><trkpt lat="40.01906" lon="15.331815"><ele>5.0</ele><time>2026-05-02T09:17:46.982Z</time></trkpt><trkpt lat="40.0191283" lon="15.33177"><ele>5.0</ele><time>2026-05-02T09:17:47.981Z</time></trkpt><trkpt lat="40.0191917" lon="15.3317283"><ele>5.0</ele><time>2026-05-02T09:17:48.981Z</time></trkpt><trkpt lat="40.01926" lon="15.331685"><ele>5.0</ele><time>2026-05-02T09:17:49.982Z</time></trkpt><trkpt lat="40.019325" lon="15.33163"><ele>5.0</ele><time>2026-05-02T09:17:50.981Z</time></trkpt><trkpt lat="40.0193883" lon="15.331585"><ele>5.0</ele><time>2026-05-02T09:17:51.982Z</time></trkpt><trkpt lat="40.0194567" lon="15.3315483"><ele>5.0</ele><time>2026-05-02T09:17:52.982Z</time></trkpt><trkpt lat="40.019525" lon="15.331505"><ele>5.0</ele><time>2026-05-02T09:17:53.981Z</time></trkpt><trkpt lat="40.0195917" lon="15.3314583"><ele>5.0</ele><time>2026-05-02T09:17:54.981Z</time></trkpt><trkpt lat="40.01966" lon="15.3314117"><ele>5.0</ele><time>2026-05-02T09:17:55.981Z</time></trkpt><trkpt lat="40.019725" lon="15.33137"><ele>5.0</ele><time>2026-05-02T09:17:56.981Z</time></trkpt><trkpt lat="40.0197983" lon="15.3313217"><ele>5.0</ele><time>2026-05-02T09:17:57.981Z</time></trkpt><trkpt lat="40.0198733" lon="15.331275"><ele>5.0</ele><time>2026-05-02T09:17:58.981Z</time></trkpt><trkpt lat="40.0199517" lon="15.3312267"><ele>4.5</ele><time>2026-05-02T09:17:59.982Z</time></trkpt><trkpt lat="40.0200267" lon="15.331175"><ele>4.0</ele><time>2026-05-02T09:18:00.982Z</time></trkpt><trkpt lat="40.02009" lon="15.33113"><ele>3.5</ele><time>2026-05-02T09:18:01.982Z</time></trkpt><trkpt lat="40.0201483" lon="15.33109"><ele>3.0</ele><time>2026-05-02T09:18:02.982Z</time></trkpt><trkpt lat="40.0202533" lon="15.3310233"><ele>2.5</ele><time>2026-05-02T09:18:04.982Z</time></trkpt><trkpt lat="40.0203383" lon="15.330965"><ele>2.0</ele><time>2026-05-02T09:18:06.981Z</time></trkpt><trkpt lat="40.0204317" lon="15.3309033"><ele>1.9999999999999998</ele><time>2026-05-02T09:18:08.981Z</time></trkpt><trkpt lat="40.0204983" lon="15.33086"><ele>2.0</ele><time>2026-05-02T09:18:09.982Z</time></trkpt><trkpt lat="40.0205683" lon="15.33082"><ele>2.0</ele><time>2026-05-02T09:18:10.981Z</time></trkpt><trkpt lat="40.0206467" lon="15.3307683"><ele>2.0</ele><time>2026-05-02T09:18:11.982Z</time></trkpt><trkpt lat="40.020725" lon="15.3307067"><ele>1.9999999999999998</ele><time>2026-05-02T09:18:12.981Z</time></trkpt><trkpt lat="40.0208117" lon="15.3306483"><ele>2.0</ele><time>2026-05-02T09:18:13.981Z</time></trkpt><trkpt lat="40.0209" lon="15.3305933"><ele>2.2</ele><time>2026-05-02T09:18:14.982Z</time></trkpt><trkpt lat="40.0209867" lon="15.3305383"><ele>2.4000000000000004</ele><time>2026-05-02T09:18:15.981Z</time></trkpt><trkpt lat="40.0210733" lon="15.330485"><ele>2.5999999999999996</ele><time>2026-05-02T09:18:16.981Z</time></trkpt><trkpt lat="40.0211667" lon="15.3304317"><ele>2.8</ele><time>2026-05-02T09:18:17.981Z</time></trkpt><trkpt lat="40.0212633" lon="15.330375"><ele>3.0</ele><time>2026-05-02T09:18:18.981Z</time></trkpt><trkpt lat="40.0213667" lon="15.3303033"><ele>3.0</ele><time>2026-05-02T09:18:19.981Z</time></trkpt><trkpt lat="40.0214733" lon="15.3302267"><ele>3.0</ele><time>2026-05-02T09:18:20.981Z</time></trkpt><trkpt lat="40.0215817" lon="15.330155"><ele>3.0</ele><time>2026-05-02T09:18:21.981Z</time></trkpt><trkpt lat="40.021685" lon="15.3300883"><ele>3.0</ele><time>2026-05-02T09:18:22.981Z</time></trkpt><trkpt lat="40.02178" lon="15.33002"><ele>2.1999999999999997</ele><time>2026-05-02T09:18:23.981Z</time></trkpt><trkpt lat="40.021865" lon="15.3299483"><ele>1.4</ele><time>2026-05-02T09:18:24.981Z</time></trkpt><trkpt lat="40.021955" lon="15.3298783"><ele>0.5999999999999999</ele><time>2026-05-02T09:18:25.981Z</time></trkpt><trkpt lat="40.0220367" lon="15.32979"><ele>-0.20000000000000007</ele><time>2026-05-02T09:18:26.981Z</time></trkpt><trkpt lat="40.0221217" lon="15.3296983"><ele>-1.0</ele><time>2026-05-02T09:18:27.982Z</time></trkpt><trkpt lat="40.0222" lon="15.3296133"><ele>-1.0</ele><time>2026-05-02T09:18:28.981Z</time></trkpt><trkpt lat="40.0222767" lon="15.3295217"><ele>-1.0</ele><time>2026-05-02T09:18:29.982Z</time></trkpt><trkpt lat="40.022345" lon="15.3294117"><ele>-1.0</ele><time>2026-05-02T09:18:30.981Z</time></trkpt><trkpt lat="40.0224017" lon="15.3292983"><ele>-1.0</ele><time>2026-05-02T09:18:31.981Z</time></trkpt><trkpt lat="40.0224517" lon="15.329175"><ele>-1.0</ele><time>2026-05-02T09:18:32.982Z</time></trkpt><trkpt lat="40.0224983" lon="15.3290567"><ele>0.3999999999999999</ele><time>2026-05-02T09:18:33.981Z</time></trkpt><trkpt lat="40.0225517" lon="15.3289333"><ele>1.7999999999999998</ele><time>2026-05-02T09:18:34.981Z</time></trkpt><trkpt lat="40.0226083" lon="15.328805"><ele>3.1999999999999997</ele><time>2026-05-02T09:18:35.982Z</time></trkpt><trkpt lat="40.0226717" lon="15.328685"><ele>4.6</ele><time>2026-05-02T09:18:36.982Z</time></trkpt><trkpt lat="40.0227383" lon="15.3285667"><ele>6.0</ele><time>2026-05-02T09:18:37.982Z</time></trkpt><trkpt lat="40.0228067" lon="15.32845"><ele>6.0</ele><time>2026-05-02T09:18:38.982Z</time></trkpt><trkpt lat="40.0228817" lon="15.3283317"><ele>6.0</ele><time>2026-05-02T09:18:39.982Z</time></trkpt><trkpt lat="40.0229617" lon="15.3282233"><ele>6.0</ele><time>2026-05-02T09:18:40.982Z</time></trkpt><trkpt lat="40.0230433" lon="15.3281333"><ele>6.0</ele><time>2026-05-02T09:18:41.982Z</time></trkpt><trkpt lat="40.0231283" lon="15.3280417"><ele>6.0</ele><time>2026-05-02T09:18:42.981Z</time></trkpt><trkpt lat="40.023225" lon="15.3279767"><ele>6.0</ele><time>2026-05-02T09:18:43.981Z</time></trkpt><trkpt lat="40.0233333" lon="15.3279267"><ele>6.0</ele><time>2026-05-02T09:18:44.981Z</time></trkpt><trkpt lat="40.0234433" lon="15.3279033"><ele>6.0</ele><time>2026-05-02T09:18:45.981Z</time></trkpt><trkpt lat="40.0235583" lon="15.3278867"><ele>6.0</ele><time>2026-05-02T09:18:46.982Z</time></trkpt><trkpt lat="40.02368" lon="15.3279133"><ele>6.0</ele><time>2026-05-02T09:18:47.981Z</time></trkpt><trkpt lat="40.0238033" lon="15.327955"><ele>6.0</ele><time>2026-05-02T09:18:48.982Z</time></trkpt><trkpt lat="40.0239267" lon="15.3279933"><ele>6.0</ele><time>2026-05-02T09:18:49.981Z</time></trkpt><trkpt lat="40.0240467" lon="15.32802"><ele>5.75</ele><time>2026-05-02T09:18:50.982Z</time></trkpt><trkpt lat="40.0241667" lon="15.3280333"><ele>5.5</ele><time>2026-05-02T09:18:51.981Z</time></trkpt><trkpt lat="40.0242933" lon="15.328035"><ele>5.25</ele><time>2026-05-02T09:18:52.982Z</time></trkpt><trkpt lat="40.02441" lon="15.32803"><ele>5.0</ele><time>2026-05-02T09:18:53.981Z</time></trkpt><trkpt lat="40.024525" lon="15.3279917"><ele>5.0</ele><time>2026-05-02T09:18:54.981Z</time></trkpt><trkpt lat="40.0246283" lon="15.32795"><ele>5.0</ele><time>2026-05-02T09:18:55.982Z</time></trkpt><trkpt lat="40.0247267" lon="15.327895"><ele>5.0</ele><time>2026-05-02T09:18:56.982Z</time></trkpt><trkpt lat="40.0248217" lon="15.32783"><ele>5.0</ele><time>2026-05-02T09:18:57.982Z</time></trkpt><trkpt lat="40.0249183" lon="15.327745"><ele>5.0</ele><time>2026-05-02T09:18:58.982Z</time></trkpt><trkpt lat="40.0250033" lon="15.3276617"><ele>6.5</ele><time>2026-05-02T09:18:59.981Z</time></trkpt><trkpt lat="40.025095" lon="15.3275617"><ele>8.0</ele><time>2026-05-02T09:19:00.981Z</time></trkpt><trkpt lat="40.02519" lon="15.3274717"><ele>9.5</ele><time>2026-05-02T09:19:01.981Z</time></trkpt><trkpt lat="40.02528" lon="15.3273717"><ele>11.0</ele><time>2026-05-02T09:19:02.981Z</time></trkpt><trkpt lat="40.0253767" lon="15.3272767"><ele>9.0</ele><time>2026-05-02T09:19:03.981Z</time></trkpt><trkpt lat="40.02547" lon="15.3271833"><ele>7.0</ele><time>2026-05-02T09:19:04.981Z</time></trkpt><trkpt lat="40.025565" lon="15.3270867"><ele>5.0</ele><time>2026-05-02T09:19:05.982Z</time></trkpt><trkpt lat="40.0256567" lon="15.3270017"><ele>3.0</ele><time>2026-05-02T09:19:06.981Z</time></trkpt><trkpt lat="40.0257517" lon="15.3269067"><ele>5.0</ele><time>2026-05-02T09:19:07.981Z</time></trkpt><trkpt lat="40.025845" lon="15.3268117"><ele>7.0</ele><time>2026-05-02T09:19:08.981Z</time></trkpt><trkpt lat="40.0259317" lon="15.3267217"><ele>9.0</ele><time>2026-05-02T09:19:09.982Z</time></trkpt><trkpt lat="40.0260217" lon="15.3266283"><ele>11.0</ele><time>2026-05-02T09:19:10.982Z</time></trkpt><trkpt lat="40.0261117" lon="15.32653"><ele>11.0</ele><time>2026-05-02T09:19:11.982Z</time></trkpt><trkpt lat="40.0262017" lon="15.326435"><ele>11.0</ele><time>2026-05-02T09:19:12.981Z</time></trkpt><trkpt lat="40.0262933" lon="15.3263367"><ele>11.0</ele><time>2026-05-02T09:19:13.982Z</time></trkpt><trkpt lat="40.0263833" lon="15.32623"><ele>11.0</ele><time>2026-05-02T09:19:14.981Z</time></trkpt><trkpt lat="40.0264783" lon="15.326145"><ele>11.0</ele><time>2026-05-02T09:19:15.981Z</time></trkpt><trkpt lat="40.0265733" lon="15.3260517"><ele>11.0</ele><time>2026-05-02T09:19:16.981Z</time></trkpt><trkpt lat="40.0266667" lon="15.3259633"><ele>11.0</ele><time>2026-05-02T09:19:17.981Z</time></trkpt><trkpt lat="40.0267617" lon="15.3258667"><ele>11.0</ele><time>2026-05-02T09:19:18.981Z</time></trkpt><trkpt lat="40.0268617" lon="15.3257867"><ele>11.0</ele><time>2026-05-02T09:19:19.982Z</time></trkpt><trkpt lat="40.0269717" lon="15.3256967"><ele>11.0</ele><time>2026-05-02T09:19:20.982Z</time></trkpt><trkpt lat="40.027085" lon="15.325605"><ele>11.0</ele><time>2026-05-02T09:19:21.981Z</time></trkpt><trkpt lat="40.0271967" lon="15.32552"><ele>11.0</ele><time>2026-05-02T09:19:22.981Z</time></trkpt><trkpt lat="40.0273033" lon="15.32544"><ele>11.75</ele><time>2026-05-02T09:19:23.981Z</time></trkpt><trkpt lat="40.02741" lon="15.3253567"><ele>12.5</ele><time>2026-05-02T09:19:24.981Z</time></trkpt><trkpt lat="40.027515" lon="15.3252767"><ele>13.25</ele><time>2026-05-02T09:19:25.982Z</time></trkpt><trkpt lat="40.0276183" lon="15.3252"><ele>14.0</ele><time>2026-05-02T09:19:26.981Z</time></trkpt><trkpt lat="40.0277267" lon="15.3251267"><ele>14.0</ele><time>2026-05-02T09:19:27.981Z</time></trkpt><trkpt lat="40.0278333" lon="15.3250583"><ele>14.0</ele><time>2026-05-02T09:19:28.981Z</time></trkpt><trkpt lat="40.027935" lon="15.3249867"><ele>14.0</ele><time>2026-05-02T09:19:29.981Z</time></trkpt><trkpt lat="40.0280417" lon="15.3249117"><ele>14.0</ele><time>2026-05-02T09:19:30.981Z</time></trkpt><trkpt lat="40.0281433" lon="15.3248267"><ele>14.0</ele><time>2026-05-02T09:19:31.981Z</time></trkpt><trkpt lat="40.028245" lon="15.324725"><ele>14.0</ele><time>2026-05-02T09:19:32.981Z</time></trkpt><trkpt lat="40.0283483" lon="15.324625"><ele>14.0</ele><time>2026-05-02T09:19:33.981Z</time></trkpt><trkpt lat="40.02845" lon="15.3245033"><ele>14.0</ele><time>2026-05-02T09:19:34.982Z</time></trkpt><trkpt lat="40.0285533" lon="15.3243667"><ele>14.0</ele><time>2026-05-02T09:19:35.981Z</time></trkpt><trkpt lat="40.0286617" lon="15.3242217"><ele>14.0</ele><time>2026-05-02T09:19:36.981Z</time></trkpt><trkpt lat="40.0287583" lon="15.3240917"><ele>14.0</ele><time>2026-05-02T09:19:37.982Z</time></trkpt><trkpt lat="40.028855" lon="15.3239633"><ele>14.0</ele><time>2026-05-02T09:19:38.981Z</time></trkpt><trkpt lat="40.0289433" lon="15.32385"><ele>13.75</ele><time>2026-05-02T09:19:39.982Z</time></trkpt><trkpt lat="40.0290267" lon="15.3237367"><ele>13.5</ele><time>2026-05-02T09:19:40.981Z</time></trkpt><trkpt lat="40.0291217" lon="15.3236167"><ele>13.25</ele><time>2026-05-02T09:19:41.981Z</time></trkpt><trkpt lat="40.0292133" lon="15.3235083"><ele>13.0</ele><time>2026-05-02T09:19:42.982Z</time></trkpt><trkpt lat="40.0292983" lon="15.3233867"><ele>12.75</ele><time>2026-05-02T09:19:43.981Z</time></trkpt><trkpt lat="40.029385" lon="15.3232683"><ele>12.5</ele><time>2026-05-02T09:19:44.981Z</time></trkpt><trkpt lat="40.0294783" lon="15.3231483"><ele>12.25</ele><time>2026-05-02T09:19:45.981Z</time></trkpt><trkpt lat="40.0295633" lon="15.3230533"><ele>12.0</ele><time>2026-05-02T09:19:46.981Z</time></trkpt><trkpt lat="40.02965" lon="15.3229517"><ele>12.0</ele><time>2026-05-02T09:19:47.981Z</time></trkpt><trkpt lat="40.0297367" lon="15.3228467"><ele>12.0</ele><time>2026-05-02T09:19:48.981Z</time></trkpt><trkpt lat="40.0298217" lon="15.32274"><ele>12.0</ele><time>2026-05-02T09:19:49.982Z</time></trkpt><trkpt lat="40.0299083" lon="15.32263"><ele>12.0</ele><time>2026-05-02T09:19:50.981Z</time></trkpt><trkpt lat="40.0299983" lon="15.3225133"><ele>12.0</ele><time>2026-05-02T09:19:51.981Z</time></trkpt><trkpt lat="40.0300933" lon="15.3223933"><ele>12.0</ele><time>2026-05-02T09:19:52.981Z</time></trkpt><trkpt lat="40.0301783" lon="15.3222717"><ele>12.0</ele><time>2026-05-02T09:19:53.981Z</time></trkpt><trkpt lat="40.030265" lon="15.3221583"><ele>12.0</ele><time>2026-05-02T09:19:54.981Z</time></trkpt><trkpt lat="40.03035" lon="15.3220433"><ele>12.0</ele><time>2026-05-02T09:19:55.981Z</time></trkpt><trkpt lat="40.030435" lon="15.321935"><ele>12.0</ele><time>2026-05-02T09:19:56.981Z</time></trkpt><trkpt lat="40.03052" lon="15.321815"><ele>12.0</ele><time>2026-05-02T09:19:57.981Z</time></trkpt><trkpt lat="40.0306033" lon="15.32168"><ele>12.0</ele><time>2026-05-02T09:19:58.982Z</time></trkpt><trkpt lat="40.0306917" lon="15.321565"><ele>12.0</ele><time>2026-05-02T09:19:59.981Z</time></trkpt><trkpt lat="40.0307717" lon="15.32145"><ele>12.0</ele><time>2026-05-02T09:20:00.982Z</time></trkpt><trkpt lat="40.0308483" lon="15.321335"><ele>12.0</ele><time>2026-05-02T09:20:01.982Z</time></trkpt><trkpt lat="40.0309267" lon="15.3212133"><ele>12.0</ele><time>2026-05-02T09:20:02.981Z</time></trkpt><trkpt lat="40.031005" lon="15.3211017"><ele>11.6</ele><time>2026-05-02T09:20:03.981Z</time></trkpt><trkpt lat="40.03108" lon="15.3209967"><ele>11.2</ele><time>2026-05-02T09:20:04.981Z</time></trkpt><trkpt lat="40.03115" lon="15.32088"><ele>10.8</ele><time>2026-05-02T09:20:05.982Z</time></trkpt><trkpt lat="40.03122" lon="15.3207883"><ele>10.4</ele><time>2026-05-02T09:20:06.981Z</time></trkpt><trkpt lat="40.0312883" lon="15.3206667"><ele>10.0</ele><time>2026-05-02T09:20:07.981Z</time></trkpt><trkpt lat="40.0313617" lon="15.3205383"><ele>10.0</ele><time>2026-05-02T09:20:08.982Z</time></trkpt><trkpt lat="40.0314417" lon="15.3204133"><ele>10.0</ele><time>2026-05-02T09:20:09.982Z</time></trkpt><trkpt lat="40.0315167" lon="15.320285"><ele>10.0</ele><time>2026-05-02T09:20:10.981Z</time></trkpt><trkpt lat="40.0315817" lon="15.3201667"><ele>10.0</ele><time>2026-05-02T09:20:11.981Z</time></trkpt><trkpt lat="40.03165" lon="15.32006"><ele>9.25</ele><time>2026-05-02T09:20:12.981Z</time></trkpt><trkpt lat="40.0317233" lon="15.3199483"><ele>8.5</ele><time>2026-05-02T09:20:13.981Z</time></trkpt><trkpt lat="40.0317933" lon="15.31983"><ele>7.75</ele><time>2026-05-02T09:20:14.982Z</time></trkpt><trkpt lat="40.031865" lon="15.3197133"><ele>7.0</ele><time>2026-05-02T09:20:15.981Z</time></trkpt><trkpt lat="40.031935" lon="15.3195917"><ele>7.0</ele><time>2026-05-02T09:20:16.982Z</time></trkpt><trkpt lat="40.032005" lon="15.3194917"><ele>6.999999999999999</ele><time>2026-05-02T09:20:17.981Z</time></trkpt><trkpt lat="40.032065" lon="15.31938"><ele>6.999999999999999</ele><time>2026-05-02T09:20:18.981Z</time></trkpt><trkpt lat="40.0321283" lon="15.31927"><ele>7.0</ele><time>2026-05-02T09:20:19.982Z</time></trkpt><trkpt lat="40.0321933" lon="15.3191583"><ele>7.0</ele><time>2026-05-02T09:20:20.981Z</time></trkpt><trkpt lat="40.0322533" lon="15.3190533"><ele>7.0</ele><time>2026-05-02T09:20:21.981Z</time></trkpt><trkpt lat="40.0323167" lon="15.318945"><ele>6.999999999999999</ele><time>2026-05-02T09:20:22.981Z</time></trkpt><trkpt lat="40.0323717" lon="15.3188367"><ele>6.999999999999999</ele><time>2026-05-02T09:20:23.981Z</time></trkpt><trkpt lat="40.0324317" lon="15.3187333"><ele>7.0</ele><time>2026-05-02T09:20:24.983Z</time></trkpt><trkpt lat="40.0324967" lon="15.31863"><ele>7.0</ele><time>2026-05-02T09:20:25.982Z</time></trkpt><trkpt lat="40.0325583" lon="15.3185433"><ele>7.6</ele><time>2026-05-02T09:20:26.983Z</time></trkpt><trkpt lat="40.0326167" lon="15.3184567"><ele>8.2</ele><time>2026-05-02T09:20:27.983Z</time></trkpt><trkpt lat="40.03267" lon="15.3183633"><ele>8.8</ele><time>2026-05-02T09:20:28.982Z</time></trkpt><trkpt lat="40.0327317" lon="15.31825"><ele>9.4</ele><time>2026-05-02T09:20:29.982Z</time></trkpt><trkpt lat="40.0327983" lon="15.318145"><ele>10.0</ele><time>2026-05-02T09:20:30.982Z</time></trkpt><trkpt lat="40.0328583" lon="15.318035"><ele>10.0</ele><time>2026-05-02T09:20:31.982Z</time></trkpt><trkpt lat="40.0329217" lon="15.31793"><ele>10.0</ele><time>2026-05-02T09:20:32.982Z</time></trkpt><trkpt lat="40.0329867" lon="15.3178133"><ele>10.0</ele><time>2026-05-02T09:20:33.982Z</time></trkpt><trkpt lat="40.03306" lon="15.3177183"><ele>10.0</ele><time>2026-05-02T09:20:34.983Z</time></trkpt><trkpt lat="40.033135" lon="15.3176217"><ele>10.0</ele><time>2026-05-02T09:20:35.982Z</time></trkpt><trkpt lat="40.0332167" lon="15.3175467"><ele>14.0</ele><time>2026-05-02T09:20:36.983Z</time></trkpt><trkpt lat="40.0333133" lon="15.3174617"><ele>18.0</ele><time>2026-05-02T09:20:37.982Z</time></trkpt><trkpt lat="40.0334083" lon="15.3173917"><ele>22.0</ele><time>2026-05-02T09:20:38.983Z</time></trkpt><trkpt lat="40.0335117" lon="15.3173433"><ele>26.0</ele><time>2026-05-02T09:20:39.982Z</time></trkpt><trkpt lat="40.0336233" lon="15.3172933"><ele>26.0</ele><time>2026-05-02T09:20:40.983Z</time></trkpt><trkpt lat="40.0337367" lon="15.317245"><ele>26.0</ele><time>2026-05-02T09:20:41.983Z</time></trkpt><trkpt lat="40.0338433" lon="15.317195"><ele>26.0</ele><time>2026-05-02T09:20:42.982Z</time></trkpt><trkpt lat="40.0339483" lon="15.31714"><ele>26.0</ele><time>2026-05-02T09:20:43.982Z</time></trkpt><trkpt lat="40.03406" lon="15.3170833"><ele>22.5</ele><time>2026-05-02T09:20:44.982Z</time></trkpt><trkpt lat="40.0341733" lon="15.3170283"><ele>19.0</ele><time>2026-05-02T09:20:45.983Z</time></trkpt><trkpt lat="40.0342867" lon="15.3169617"><ele>15.5</ele><time>2026-05-02T09:20:46.983Z</time></trkpt><trkpt lat="40.0344033" lon="15.3168967"><ele>12.0</ele><time>2026-05-02T09:20:47.983Z</time></trkpt><trkpt lat="40.03452" lon="15.3168367"><ele>12.0</ele><time>2026-05-02T09:20:48.982Z</time></trkpt><trkpt lat="40.0346383" lon="15.3167783"><ele>12.0</ele><time>2026-05-02T09:20:49.982Z</time></trkpt><trkpt lat="40.0347567" lon="15.31672"><ele>12.0</ele><time>2026-05-02T09:20:50.982Z</time></trkpt><trkpt lat="40.03488" lon="15.3166683"><ele>12.0</ele><time>2026-05-02T09:20:51.983Z</time></trkpt><trkpt lat="40.035005" lon="15.3166083"><ele>11.25</ele><time>2026-05-02T09:20:52.983Z</time></trkpt><trkpt lat="40.0351283" lon="15.316545"><ele>10.5</ele><time>2026-05-02T09:20:53.982Z</time></trkpt><trkpt lat="40.0352483" lon="15.3164867"><ele>9.75</ele><time>2026-05-02T09:20:54.982Z</time></trkpt><trkpt lat="40.0353683" lon="15.31644"><ele>9.0</ele><time>2026-05-02T09:20:55.982Z</time></trkpt><trkpt lat="40.03549" lon="15.3163933"><ele>7.75</ele><time>2026-05-02T09:20:56.983Z</time></trkpt><trkpt lat="40.035615" lon="15.3163317"><ele>6.5</ele><time>2026-05-02T09:20:57.983Z</time></trkpt><trkpt lat="40.0357283" lon="15.3162783"><ele>5.25</ele><time>2026-05-02T09:20:58.982Z</time></trkpt><trkpt lat="40.0358383" lon="15.3162217"><ele>4.0</ele><time>2026-05-02T09:20:59.983Z</time></trkpt><trkpt lat="40.0359433" lon="15.316165"><ele>4.0</ele><time>2026-05-02T09:21:00.982Z</time></trkpt><trkpt lat="40.0360417" lon="15.3161183"><ele>4.0</ele><time>2026-05-02T09:21:01.982Z</time></trkpt><trkpt lat="40.0361417" lon="15.3160667"><ele>4.0</ele><time>2026-05-02T09:21:02.983Z</time></trkpt><trkpt lat="40.0362417" lon="15.3160217"><ele>4.0</ele><time>2026-05-02T09:21:03.983Z</time></trkpt><trkpt lat="40.03635" lon="15.315965"><ele>4.0</ele><time>2026-05-02T09:21:04.982Z</time></trkpt><trkpt lat="40.0364667" lon="15.3159033"><ele>4.0</ele><time>2026-05-02T09:21:05.982Z</time></trkpt><trkpt lat="40.0365833" lon="15.3158383"><ele>4.0</ele><time>2026-05-02T09:21:06.983Z</time></trkpt><trkpt lat="40.0367133" lon="15.3157733"><ele>4.0</ele><time>2026-05-02T09:21:07.982Z</time></trkpt><trkpt lat="40.036835" lon="15.3157083"><ele>4.0</ele><time>2026-05-02T09:21:08.983Z</time></trkpt><trkpt lat="40.0369583" lon="15.315645"><ele>3.75</ele><time>2026-05-02T09:21:09.982Z</time></trkpt><trkpt lat="40.03708" lon="15.315585"><ele>3.5</ele><time>2026-05-02T09:21:10.982Z</time></trkpt><trkpt lat="40.0372067" lon="15.3155267"><ele>3.25</ele><time>2026-05-02T09:21:11.983Z</time></trkpt><trkpt lat="40.03733" lon="15.315465"><ele>3.0</ele><time>2026-05-02T09:21:12.983Z</time></trkpt><trkpt lat="40.0374617" lon="15.3153983"><ele>3.0</ele><time>2026-05-02T09:21:13.982Z</time></trkpt><trkpt lat="40.0375917" lon="15.3153367"><ele>3.0</ele><time>2026-05-02T09:21:14.982Z</time></trkpt><trkpt lat="40.037715" lon="15.315275"><ele>3.0</ele><time>2026-05-02T09:21:15.983Z</time></trkpt><trkpt lat="40.03784" lon="15.315215"><ele>3.0</ele><time>2026-05-02T09:21:16.983Z</time></trkpt><trkpt lat="40.0379567" lon="15.315155"><ele>3.0</ele><time>2026-05-02T09:21:17.982Z</time></trkpt><trkpt lat="40.0380633" lon="15.3150967"><ele>3.0</ele><time>2026-05-02T09:21:18.982Z</time></trkpt><trkpt lat="40.03816" lon="15.3150233"><ele>3.0</ele><time>2026-05-02T09:21:19.982Z</time></trkpt><trkpt lat="40.03825" lon="15.3149467"><ele>3.0</ele><time>2026-05-02T09:21:20.982Z</time></trkpt><trkpt lat="40.0383367" lon="15.3148683"><ele>3.0</ele><time>2026-05-02T09:21:21.982Z</time></trkpt><trkpt lat="40.0384167" lon="15.3147933"><ele>3.1666666666666665</ele><time>2026-05-02T09:21:22.983Z</time></trkpt><trkpt lat="40.0384917" lon="15.31473"><ele>3.333333333333333</ele><time>2026-05-02T09:21:23.983Z</time></trkpt><trkpt lat="40.0385667" lon="15.31468"><ele>3.5</ele><time>2026-05-02T09:21:24.982Z</time></trkpt><trkpt lat="40.0386417" lon="15.3146583"><ele>3.6666666666666665</ele><time>2026-05-02T09:21:25.982Z</time></trkpt><trkpt lat="40.0387267" lon="15.3146583"><ele>3.833333333333333</ele><time>2026-05-02T09:21:26.982Z</time></trkpt><trkpt lat="40.0388033" lon="15.3146783"><ele>4.0</ele><time>2026-05-02T09:21:27.982Z</time></trkpt><trkpt lat="40.0388783" lon="15.314685"><ele>3.9999999999999996</ele><time>2026-05-02T09:21:28.982Z</time></trkpt><trkpt lat="40.0389417" lon="15.314655"><ele>4.0</ele><time>2026-05-02T09:21:29.983Z</time></trkpt><trkpt lat="40.039015" lon="15.314525"><ele>4.0</ele><time>2026-05-02T09:21:31.982Z</time></trkpt><trkpt lat="40.0390283" lon="15.3144433"><ele>4.0</ele><time>2026-05-02T09:21:32.982Z</time></trkpt><trkpt lat="40.0390317" lon="15.3143533"><ele>3.9999999999999996</ele><time>2026-05-02T09:21:33.982Z</time></trkpt><trkpt lat="40.0390233" lon="15.3142517"><ele>4.0</ele><time>2026-05-02T09:21:34.983Z</time></trkpt><trkpt lat="40.039015" lon="15.31414"><ele>4.0</ele><time>2026-05-02T09:21:35.982Z</time></trkpt><trkpt lat="40.0390017" lon="15.314025"><ele>4.0</ele><time>2026-05-02T09:21:36.983Z</time></trkpt><trkpt lat="40.0390067" lon="15.3139067"><ele>4.0</ele><time>2026-05-02T09:21:37.983Z</time></trkpt><trkpt lat="40.0390183" lon="15.313785"><ele>4.0</ele><time>2026-05-02T09:21:38.982Z</time></trkpt><trkpt lat="40.0390367" lon="15.3136567"><ele>4.0</ele><time>2026-05-02T09:21:39.983Z</time></trkpt><trkpt lat="40.039055" lon="15.3135283"><ele>4.2</ele><time>2026-05-02T09:21:40.982Z</time></trkpt><trkpt lat="40.0390633" lon="15.3134083"><ele>4.4</ele><time>2026-05-02T09:21:41.982Z</time></trkpt><trkpt lat="40.0390683" lon="15.313285"><ele>4.6</ele><time>2026-05-02T09:21:42.982Z</time></trkpt><trkpt lat="40.0390733" lon="15.3131533"><ele>4.8</ele><time>2026-05-02T09:21:43.983Z</time></trkpt><trkpt lat="40.0390733" lon="15.31302"><ele>5.0</ele><time>2026-05-02T09:21:44.983Z</time></trkpt><trkpt lat="40.0390767" lon="15.3128817"><ele>5.2</ele><time>2026-05-02T09:21:45.983Z</time></trkpt><trkpt lat="40.0390783" lon="15.3127417"><ele>5.4</ele><time>2026-05-02T09:21:46.982Z</time></trkpt><trkpt lat="40.03908" lon="15.3126033"><ele>5.6</ele><time>2026-05-02T09:21:47.983Z</time></trkpt><trkpt lat="40.039085" lon="15.312465"><ele>5.8</ele><time>2026-05-02T09:21:48.983Z</time></trkpt><trkpt lat="40.03909" lon="15.3123233"><ele>6.0</ele><time>2026-05-02T09:21:49.982Z</time></trkpt><trkpt lat="40.0390933" lon="15.3121867"><ele>6.199999999999999</ele><time>2026-05-02T09:21:50.983Z</time></trkpt><trkpt lat="40.0390917" lon="15.312045"><ele>6.3999999999999995</ele><time>2026-05-02T09:21:51.983Z</time></trkpt><trkpt lat="40.03909" lon="15.3119067"><ele>6.6</ele><time>2026-05-02T09:21:52.982Z</time></trkpt><trkpt lat="40.03909" lon="15.3117833"><ele>6.8</ele><time>2026-05-02T09:21:53.982Z</time></trkpt><trkpt lat="40.0390917" lon="15.3116583"><ele>7.0</ele><time>2026-05-02T09:21:54.982Z</time></trkpt><trkpt lat="40.0390967" lon="15.3115233"><ele>6.75</ele><time>2026-05-02T09:21:55.983Z</time></trkpt><trkpt lat="40.0390933" lon="15.3113817"><ele>6.5</ele><time>2026-05-02T09:21:56.982Z</time></trkpt><trkpt lat="40.0391033" lon="15.31123"><ele>6.25</ele><time>2026-05-02T09:21:57.983Z</time></trkpt><trkpt lat="40.0391133" lon="15.3110683"><ele>6.0</ele><time>2026-05-02T09:21:58.982Z</time></trkpt><trkpt lat="40.03912" lon="15.3109117"><ele>6.0</ele><time>2026-05-02T09:21:59.983Z</time></trkpt><trkpt lat="40.0391283" lon="15.31075"><ele>6.0</ele><time>2026-05-02T09:22:00.982Z</time></trkpt><trkpt lat="40.039135" lon="15.31059"><ele>6.0</ele><time>2026-05-02T09:22:01.982Z</time></trkpt><trkpt lat="40.0391367" lon="15.3104267"><ele>6.0</ele><time>2026-05-02T09:22:02.982Z</time></trkpt><trkpt lat="40.0391433" lon="15.3102633"><ele>6.0</ele><time>2026-05-02T09:22:03.983Z</time></trkpt><trkpt lat="40.0391483" lon="15.3100883"><ele>6.0</ele><time>2026-05-02T09:22:04.982Z</time></trkpt><trkpt lat="40.039155" lon="15.30992"><ele>6.0</ele><time>2026-05-02T09:22:05.982Z</time></trkpt><trkpt lat="40.0391583" lon="15.3097483"><ele>6.0</ele><time>2026-05-02T09:22:06.982Z</time></trkpt><trkpt lat="40.039165" lon="15.30958"><ele>6.0</ele><time>2026-05-02T09:22:07.982Z</time></trkpt><trkpt lat="40.0391717" lon="15.3094167"><ele>6.0</ele><time>2026-05-02T09:22:08.982Z</time></trkpt><trkpt lat="40.0391733" lon="15.309255"><ele>6.0</ele><time>2026-05-02T09:22:09.983Z</time></trkpt><trkpt lat="40.039175" lon="15.3090833"><ele>6.0</ele><time>2026-05-02T09:22:10.982Z</time></trkpt><trkpt lat="40.03917" lon="15.308905"><ele>6.0</ele><time>2026-05-02T09:22:11.982Z</time></trkpt><trkpt lat="40.0391567" lon="15.30872"><ele>6.0</ele><time>2026-05-02T09:22:12.982Z</time></trkpt><trkpt lat="40.03914" lon="15.3085317"><ele>6.0</ele><time>2026-05-02T09:22:13.982Z</time></trkpt><trkpt lat="40.0391233" lon="15.308345"><ele>6.0</ele><time>2026-05-02T09:22:14.982Z</time></trkpt><trkpt lat="40.0391" lon="15.30816"><ele>5.75</ele><time>2026-05-02T09:22:15.982Z</time></trkpt><trkpt lat="40.0390733" lon="15.3079767"><ele>5.5</ele><time>2026-05-02T09:22:16.982Z</time></trkpt><trkpt lat="40.0390433" lon="15.3077933"><ele>5.25</ele><time>2026-05-02T09:22:17.983Z</time></trkpt><trkpt lat="40.0390067" lon="15.3076183"><ele>5.0</ele><time>2026-05-02T09:22:18.983Z</time></trkpt><trkpt lat="40.0389633" lon="15.307445"><ele>5.0</ele><time>2026-05-02T09:22:19.982Z</time></trkpt><trkpt lat="40.03892" lon="15.3072783"><ele>5.0</ele><time>2026-05-02T09:22:20.982Z</time></trkpt><trkpt lat="40.0388667" lon="15.307105"><ele>5.0</ele><time>2026-05-02T09:22:21.982Z</time></trkpt><trkpt lat="40.0388117" lon="15.3069267"><ele>5.0</ele><time>2026-05-02T09:22:22.982Z</time></trkpt><trkpt lat="40.03876" lon="15.3067417"><ele>4.666666666666667</ele><time>2026-05-02T09:22:23.982Z</time></trkpt><trkpt lat="40.03871" lon="15.3065533"><ele>4.333333333333333</ele><time>2026-05-02T09:22:24.983Z</time></trkpt><trkpt lat="40.03866" lon="15.3063617"><ele>4.0</ele><time>2026-05-02T09:22:25.983Z</time></trkpt><trkpt lat="40.0386117" lon="15.3061783"><ele>4.666666666666666</ele><time>2026-05-02T09:22:26.983Z</time></trkpt><trkpt lat="40.0385633" lon="15.3059933"><ele>5.333333333333333</ele><time>2026-05-02T09:22:27.983Z</time></trkpt><trkpt lat="40.038515" lon="15.3058067"><ele>6.0</ele><time>2026-05-02T09:22:28.982Z</time></trkpt><trkpt lat="40.0384633" lon="15.3056233"><ele>6.333333333333334</ele><time>2026-05-02T09:22:29.982Z</time></trkpt><trkpt lat="40.03841" lon="15.305435"><ele>6.666666666666667</ele><time>2026-05-02T09:22:30.983Z</time></trkpt><trkpt lat="40.0383533" lon="15.30525"><ele>7.0</ele><time>2026-05-02T09:22:31.983Z</time></trkpt><trkpt lat="40.0382983" lon="15.305065"><ele>6.25</ele><time>2026-05-02T09:22:32.982Z</time></trkpt><trkpt lat="40.0382483" lon="15.3048833"><ele>5.5</ele><time>2026-05-02T09:22:33.983Z</time></trkpt><trkpt lat="40.038195" lon="15.304705"><ele>4.75</ele><time>2026-05-02T09:22:34.982Z</time></trkpt><trkpt lat="40.0381417" lon="15.3045283"><ele>4.0</ele><time>2026-05-02T09:22:35.982Z</time></trkpt><trkpt lat="40.038095" lon="15.3043467"><ele>4.0</ele><time>2026-05-02T09:22:36.982Z</time></trkpt><trkpt lat="40.038055" lon="15.3041667"><ele>4.0</ele><time>2026-05-02T09:22:37.983Z</time></trkpt><trkpt lat="40.0380217" lon="15.3039817"><ele>4.0</ele><time>2026-05-02T09:22:38.983Z</time></trkpt><trkpt lat="40.038" lon="15.30379"><ele>4.0</ele><time>2026-05-02T09:22:39.983Z</time></trkpt><trkpt lat="40.0379883" lon="15.3036017"><ele>5.0</ele><time>2026-05-02T09:22:40.983Z</time></trkpt><trkpt lat="40.0379933" lon="15.3034167"><ele>6.0</ele><time>2026-05-02T09:22:41.982Z</time></trkpt><trkpt lat="40.0380167" lon="15.3032283"><ele>7.0</ele><time>2026-05-02T09:22:42.982Z</time></trkpt><trkpt lat="40.0380467" lon="15.3030467"><ele>8.0</ele><time>2026-05-02T09:22:43.982Z</time></trkpt><trkpt lat="40.03809" lon="15.30287"><ele>9.25</ele><time>2026-05-02T09:22:44.982Z</time></trkpt><trkpt lat="40.0381417" lon="15.3026983"><ele>10.5</ele><time>2026-05-02T09:22:45.983Z</time></trkpt><trkpt lat="40.0382017" lon="15.3025417"><ele>11.75</ele><time>2026-05-02T09:22:46.982Z</time></trkpt><trkpt lat="40.0382717" lon="15.3023933"><ele>13.0</ele><time>2026-05-02T09:22:47.983Z</time></trkpt><trkpt lat="40.0383533" lon="15.3022667"><ele>12.0</ele><time>2026-05-02T09:22:48.982Z</time></trkpt><trkpt lat="40.0384467" lon="15.3021433"><ele>11.0</ele><time>2026-05-02T09:22:49.983Z</time></trkpt><trkpt lat="40.0385433" lon="15.3020267"><ele>10.0</ele><time>2026-05-02T09:22:50.983Z</time></trkpt><trkpt lat="40.0386333" lon="15.301925"><ele>9.0</ele><time>2026-05-02T09:22:51.982Z</time></trkpt><trkpt lat="40.0387367" lon="15.3018283"><ele>9.0</ele><time>2026-05-02T09:22:52.983Z</time></trkpt><trkpt lat="40.0388533" lon="15.30175"><ele>9.0</ele><time>2026-05-02T09:22:53.982Z</time></trkpt><trkpt lat="40.0389717" lon="15.3016783"><ele>9.0</ele><time>2026-05-02T09:22:54.982Z</time></trkpt><trkpt lat="40.0390967" lon="15.3016167"><ele>9.0</ele><time>2026-05-02T09:22:55.983Z</time></trkpt><trkpt lat="40.039225" lon="15.301555"><ele>9.25</ele><time>2026-05-02T09:22:56.982Z</time></trkpt><trkpt lat="40.03936" lon="15.3015017"><ele>9.5</ele><time>2026-05-02T09:22:57.983Z</time></trkpt><trkpt lat="40.039495" lon="15.30144"><ele>9.75</ele><time>2026-05-02T09:22:58.982Z</time></trkpt><trkpt lat="40.03963" lon="15.3013883"><ele>10.0</ele><time>2026-05-02T09:22:59.982Z</time></trkpt><trkpt lat="40.0397683" lon="15.3013267"><ele>10.0</ele><time>2026-05-02T09:23:00.982Z</time></trkpt><trkpt lat="40.0399067" lon="15.3012683"><ele>10.0</ele><time>2026-05-02T09:23:01.983Z</time></trkpt><trkpt lat="40.040045" lon="15.3012133"><ele>10.0</ele><time>2026-05-02T09:23:02.982Z</time></trkpt><trkpt lat="40.0401833" lon="15.3011583"><ele>10.0</ele><time>2026-05-02T09:23:03.982Z</time></trkpt><trkpt lat="40.0403167" lon="15.301105"><ele>10.25</ele><time>2026-05-02T09:23:04.982Z</time></trkpt><trkpt lat="40.04044" lon="15.3010483"><ele>10.5</ele><time>2026-05-02T09:23:05.982Z</time></trkpt><trkpt lat="40.040555" lon="15.3009883"><ele>10.75</ele><time>2026-05-02T09:23:06.982Z</time></trkpt><trkpt lat="40.0406617" lon="15.3009433"><ele>11.0</ele><time>2026-05-02T09:23:07.983Z</time></trkpt><trkpt lat="40.0407667" lon="15.3009017"><ele>11.75</ele><time>2026-05-02T09:23:08.982Z</time></trkpt><trkpt lat="40.040875" lon="15.3008533"><ele>12.5</ele><time>2026-05-02T09:23:09.982Z</time></trkpt><trkpt lat="40.0409817" lon="15.3008033"><ele>13.25</ele><time>2026-05-02T09:23:10.982Z</time></trkpt><trkpt lat="40.041095" lon="15.3007517"><ele>14.0</ele><time>2026-05-02T09:23:11.982Z</time></trkpt><trkpt lat="40.0412133" lon="15.3007067"><ele>14.0</ele><time>2026-05-02T09:23:12.982Z</time></trkpt><trkpt lat="40.0413317" lon="15.3006583"><ele>14.0</ele><time>2026-05-02T09:23:13.983Z</time></trkpt><trkpt lat="40.0414517" lon="15.30061"><ele>14.0</ele><time>2026-05-02T09:23:14.982Z</time></trkpt><trkpt lat="40.0415717" lon="15.30056"><ele>14.0</ele><time>2026-05-02T09:23:15.982Z</time></trkpt><trkpt lat="40.041685" lon="15.3005117"><ele>13.25</ele><time>2026-05-02T09:23:16.982Z</time></trkpt><trkpt lat="40.04179" lon="15.3004667"><ele>12.5</ele><time>2026-05-02T09:23:17.983Z</time></trkpt><trkpt lat="40.0419017" lon="15.300415"><ele>11.75</ele><time>2026-05-02T09:23:18.982Z</time></trkpt><trkpt lat="40.0420117" lon="15.3003667"><ele>11.0</ele><time>2026-05-02T09:23:19.982Z</time></trkpt><trkpt lat="40.042125" lon="15.3003167"><ele>11.0</ele><time>2026-05-02T09:23:20.983Z</time></trkpt><trkpt lat="40.0422367" lon="15.30027"><ele>11.0</ele><time>2026-05-02T09:23:21.982Z</time></trkpt><trkpt lat="40.0423483" lon="15.3002217"><ele>11.0</ele><time>2026-05-02T09:23:22.983Z</time></trkpt><trkpt lat="40.04246" lon="15.3001683"><ele>11.0</ele><time>2026-05-02T09:23:23.982Z</time></trkpt><trkpt lat="40.04257" lon="15.300115"><ele>11.75</ele><time>2026-05-02T09:23:24.982Z</time></trkpt><trkpt lat="40.0426767" lon="15.3000717"><ele>12.5</ele><time>2026-05-02T09:23:25.982Z</time></trkpt><trkpt lat="40.042785" lon="15.30002"><ele>13.25</ele><time>2026-05-02T09:23:26.983Z</time></trkpt><trkpt lat="40.0429" lon="15.2999717"><ele>14.0</ele><time>2026-05-02T09:23:27.983Z</time></trkpt><trkpt lat="40.0430183" lon="15.2999267"><ele>14.0</ele><time>2026-05-02T09:23:28.983Z</time></trkpt><trkpt lat="40.043135" lon="15.299875"><ele>14.0</ele><time>2026-05-02T09:23:29.982Z</time></trkpt><trkpt lat="40.043255" lon="15.2998233"><ele>14.0</ele><time>2026-05-02T09:23:30.982Z</time></trkpt><trkpt lat="40.043375" lon="15.2997717"><ele>14.0</ele><time>2026-05-02T09:23:31.982Z</time></trkpt><trkpt lat="40.0434967" lon="15.2997183"><ele>14.0</ele><time>2026-05-02T09:23:32.982Z</time></trkpt><trkpt lat="40.0436133" lon="15.2996683"><ele>14.0</ele><time>2026-05-02T09:23:33.983Z</time></trkpt><trkpt lat="40.0437417" lon="15.29961"><ele>14.0</ele><time>2026-05-02T09:23:34.982Z</time></trkpt><trkpt lat="40.0438617" lon="15.29955"><ele>14.0</ele><time>2026-05-02T09:23:35.982Z</time></trkpt><trkpt lat="40.0439867" lon="15.2994817"><ele>14.0</ele><time>2026-05-02T09:23:36.982Z</time></trkpt><trkpt lat="40.0441083" lon="15.2994233"><ele>14.0</ele><time>2026-05-02T09:23:37.982Z</time></trkpt><trkpt lat="40.044235" lon="15.2993533"><ele>14.0</ele><time>2026-05-02T09:23:38.983Z</time></trkpt><trkpt lat="40.0443583" lon="15.2992767"><ele>14.0</ele><time>2026-05-02T09:23:39.982Z</time></trkpt><trkpt lat="40.0444817" lon="15.2991933"><ele>13.75</ele><time>2026-05-02T09:23:40.982Z</time></trkpt><trkpt lat="40.0445983" lon="15.2991"><ele>13.5</ele><time>2026-05-02T09:23:41.982Z</time></trkpt><trkpt lat="40.044715" lon="15.2990033"><ele>13.25</ele><time>2026-05-02T09:23:42.982Z</time></trkpt><trkpt lat="40.0448317" lon="15.2989117"><ele>13.0</ele><time>2026-05-02T09:23:43.982Z</time></trkpt><trkpt lat="40.04495" lon="15.29882"><ele>14.0</ele><time>2026-05-02T09:23:44.982Z</time></trkpt><trkpt lat="40.0450617" lon="15.298735"><ele>15.0</ele><time>2026-05-02T09:23:45.983Z</time></trkpt><trkpt lat="40.0451733" lon="15.298635"><ele>16.0</ele><time>2026-05-02T09:23:46.982Z</time></trkpt><trkpt lat="40.0452867" lon="15.2985433"><ele>17.0</ele><time>2026-05-02T09:23:47.983Z</time></trkpt><trkpt lat="40.0454017" lon="15.298445"><ele>17.0</ele><time>2026-05-02T09:23:48.982Z</time></trkpt><trkpt lat="40.045505" lon="15.2983517"><ele>17.0</ele><time>2026-05-02T09:23:49.982Z</time></trkpt><trkpt lat="40.0456117" lon="15.29827"><ele>17.0</ele><time>2026-05-02T09:23:50.982Z</time></trkpt><trkpt lat="40.045715" lon="15.2981917"><ele>17.0</ele><time>2026-05-02T09:23:51.983Z</time></trkpt><trkpt lat="40.045825" lon="15.298105"><ele>16.75</ele><time>2026-05-02T09:23:52.983Z</time></trkpt><trkpt lat="40.0459317" lon="15.2980233"><ele>16.5</ele><time>2026-05-02T09:23:53.983Z</time></trkpt><trkpt lat="40.046035" lon="15.29793"><ele>16.25</ele><time>2026-05-02T09:23:54.983Z</time></trkpt><trkpt lat="40.046135" lon="15.2978483"><ele>16.0</ele><time>2026-05-02T09:23:55.983Z</time></trkpt><trkpt lat="40.0462317" lon="15.2977583"><ele>16.0</ele><time>2026-05-02T09:23:56.982Z</time></trkpt><trkpt lat="40.0463267" lon="15.2976733"><ele>16.0</ele><time>2026-05-02T09:23:57.982Z</time></trkpt><trkpt lat="40.0464217" lon="15.29758"><ele>16.0</ele><time>2026-05-02T09:23:58.982Z</time></trkpt><trkpt lat="40.046505" lon="15.2974867"><ele>16.0</ele><time>2026-05-02T09:23:59.982Z</time></trkpt><trkpt lat="40.046585" lon="15.29739"><ele>15.5</ele><time>2026-05-02T09:24:00.982Z</time></trkpt><trkpt lat="40.0466667" lon="15.297285"><ele>15.0</ele><time>2026-05-02T09:24:01.982Z</time></trkpt><trkpt lat="40.0467383" lon="15.2971717"><ele>14.5</ele><time>2026-05-02T09:24:02.982Z</time></trkpt><trkpt lat="40.0468083" lon="15.2970433"><ele>14.0</ele><time>2026-05-02T09:24:03.982Z</time></trkpt><trkpt lat="40.0468717" lon="15.2969067"><ele>14.0</ele><time>2026-05-02T09:24:04.982Z</time></trkpt><trkpt lat="40.0469267" lon="15.296765"><ele>14.0</ele><time>2026-05-02T09:24:05.982Z</time></trkpt><trkpt lat="40.046975" lon="15.2966117"><ele>14.0</ele><time>2026-05-02T09:24:06.982Z</time></trkpt><trkpt lat="40.0470133" lon="15.2964533"><ele>14.0</ele><time>2026-05-02T09:24:07.983Z</time></trkpt><trkpt lat="40.0470433" lon="15.2962917"><ele>13.25</ele><time>2026-05-02T09:24:08.983Z</time></trkpt><trkpt lat="40.0470683" lon="15.296135"><ele>12.5</ele><time>2026-05-02T09:24:09.982Z</time></trkpt><trkpt lat="40.0470867" lon="15.2959633"><ele>11.75</ele><time>2026-05-02T09:24:10.982Z</time></trkpt><trkpt lat="40.0470817" lon="15.2957867"><ele>11.0</ele><time>2026-05-02T09:24:11.982Z</time></trkpt><trkpt lat="40.0470833" lon="15.295605"><ele>11.25</ele><time>2026-05-02T09:24:12.982Z</time></trkpt><trkpt lat="40.04707" lon="15.2954233"><ele>11.5</ele><time>2026-05-02T09:24:13.983Z</time></trkpt><trkpt lat="40.0470433" lon="15.2952567"><ele>11.75</ele><time>2026-05-02T09:24:14.982Z</time></trkpt><trkpt lat="40.0470117" lon="15.295095"><ele>12.0</ele><time>2026-05-02T09:24:15.982Z</time></trkpt><trkpt lat="40.0469783" lon="15.29494"><ele>12.0</ele><time>2026-05-02T09:24:16.982Z</time></trkpt><trkpt lat="40.0469417" lon="15.2948017"><ele>12.0</ele><time>2026-05-02T09:24:17.982Z</time></trkpt><trkpt lat="40.0469067" lon="15.294665"><ele>12.0</ele><time>2026-05-02T09:24:18.983Z</time></trkpt><trkpt lat="40.0468717" lon="15.2945383"><ele>12.0</ele><time>2026-05-02T09:24:19.983Z</time></trkpt><trkpt lat="40.046845" lon="15.2944167"><ele>12.0</ele><time>2026-05-02T09:24:20.983Z</time></trkpt><trkpt lat="40.0468133" lon="15.2942917"><ele>12.0</ele><time>2026-05-02T09:24:21.982Z</time></trkpt><trkpt lat="40.0467817" lon="15.29417"><ele>12.0</ele><time>2026-05-02T09:24:22.982Z</time></trkpt><trkpt lat="40.04675" lon="15.2940467"><ele>12.0</ele><time>2026-05-02T09:24:23.983Z</time></trkpt><trkpt lat="40.046715" lon="15.2939233"><ele>12.0</ele><time>2026-05-02T09:24:24.982Z</time></trkpt><trkpt lat="40.04668" lon="15.2938"><ele>12.0</ele><time>2026-05-02T09:24:25.982Z</time></trkpt><trkpt lat="40.0466483" lon="15.2936683"><ele>12.0</ele><time>2026-05-02T09:24:26.982Z</time></trkpt><trkpt lat="40.0466133" lon="15.2935433"><ele>12.0</ele><time>2026-05-02T09:24:27.982Z</time></trkpt><trkpt lat="40.04658" lon="15.2934217"><ele>12.0</ele><time>2026-05-02T09:24:28.983Z</time></trkpt><trkpt lat="40.046545" lon="15.2932967"><ele>12.0</ele><time>2026-05-02T09:24:29.982Z</time></trkpt><trkpt lat="40.0465117" lon="15.2931783"><ele>12.0</ele><time>2026-05-02T09:24:30.983Z</time></trkpt><trkpt lat="40.0464833" lon="15.293055"><ele>12.2</ele><time>2026-05-02T09:24:31.982Z</time></trkpt><trkpt lat="40.0464533" lon="15.2929283"><ele>12.399999999999999</ele><time>2026-05-02T09:24:32.983Z</time></trkpt><trkpt lat="40.0464233" lon="15.2928"><ele>12.600000000000001</ele><time>2026-05-02T09:24:33.982Z</time></trkpt><trkpt lat="40.0463933" lon="15.292665"><ele>12.8</ele><time>2026-05-02T09:24:34.982Z</time></trkpt><trkpt lat="40.046365" lon="15.292535"><ele>13.0</ele><time>2026-05-02T09:24:35.983Z</time></trkpt><trkpt lat="40.0463317" lon="15.29241"><ele>12.999999999999998</ele><time>2026-05-02T09:24:36.983Z</time></trkpt><trkpt lat="40.0463033" lon="15.2922867"><ele>13.0</ele><time>2026-05-02T09:24:37.982Z</time></trkpt><trkpt lat="40.0462767" lon="15.292165"><ele>13.0</ele><time>2026-05-02T09:24:38.982Z</time></trkpt><trkpt lat="40.0462517" lon="15.29205"><ele>13.0</ele><time>2026-05-02T09:24:39.982Z</time></trkpt><trkpt lat="40.0462267" lon="15.2919483"><ele>12.999999999999998</ele><time>2026-05-02T09:24:40.982Z</time></trkpt><trkpt lat="40.046205" lon="15.2918483"><ele>13.0</ele><time>2026-05-02T09:24:41.983Z</time></trkpt><trkpt lat="40.0461833" lon="15.2917533"><ele>12.833333333333332</ele><time>2026-05-02T09:24:42.983Z</time></trkpt><trkpt lat="40.0461667" lon="15.2916483"><ele>12.666666666666666</ele><time>2026-05-02T09:24:43.982Z</time></trkpt><trkpt lat="40.0461467" lon="15.2915417"><ele>12.5</ele><time>2026-05-02T09:24:44.982Z</time></trkpt><trkpt lat="40.046125" lon="15.2914367"><ele>12.333333333333332</ele><time>2026-05-02T09:24:45.982Z</time></trkpt><trkpt lat="40.046095" lon="15.2913267"><ele>12.166666666666666</ele><time>2026-05-02T09:24:46.982Z</time></trkpt><trkpt lat="40.0460717" lon="15.2912133"><ele>12.0</ele><time>2026-05-02T09:24:47.982Z</time></trkpt><trkpt lat="40.0460417" lon="15.2910983"><ele>13.5</ele><time>2026-05-02T09:24:48.983Z</time></trkpt><trkpt lat="40.04601" lon="15.290985"><ele>15.0</ele><time>2026-05-02T09:24:49.982Z</time></trkpt><trkpt lat="40.0459717" lon="15.2908833"><ele>16.5</ele><time>2026-05-02T09:24:50.983Z</time></trkpt><trkpt lat="40.0459217" lon="15.2907917"><ele>18.0</ele><time>2026-05-02T09:24:51.982Z</time></trkpt><trkpt lat="40.0458617" lon="15.2907283"><ele>19.5</ele><time>2026-05-02T09:24:52.982Z</time></trkpt><trkpt lat="40.0457867" lon="15.2906967"><ele>21.0</ele><time>2026-05-02T09:24:53.983Z</time></trkpt><trkpt lat="40.0456983" lon="15.29069"><ele>22.0</ele><time>2026-05-02T09:24:54.983Z</time></trkpt><trkpt lat="40.0456" lon="15.29071"><ele>23.0</ele><time>2026-05-02T09:24:55.982Z</time></trkpt><trkpt lat="40.0455" lon="15.2907333"><ele>24.0</ele><time>2026-05-02T09:24:56.982Z</time></trkpt><trkpt lat="40.0454" lon="15.2907483"><ele>25.0</ele><time>2026-05-02T09:24:57.982Z</time></trkpt><trkpt lat="40.045295" lon="15.29076"><ele>26.0</ele><time>2026-05-02T09:24:58.982Z</time></trkpt><trkpt lat="40.0451867" lon="15.290755"><ele>26.0</ele><time>2026-05-02T09:24:59.982Z</time></trkpt><trkpt lat="40.0450817" lon="15.2907383"><ele>26.0</ele><time>2026-05-02T09:25:00.983Z</time></trkpt><trkpt lat="40.0449817" lon="15.29071"><ele>26.0</ele><time>2026-05-02T09:25:01.982Z</time></trkpt><trkpt lat="40.0448767" lon="15.2906683"><ele>26.0</ele><time>2026-05-02T09:25:02.983Z</time></trkpt><trkpt lat="40.0447667" lon="15.2906283"><ele>26.0</ele><time>2026-05-02T09:25:03.982Z</time></trkpt><trkpt lat="40.0446583" lon="15.2905883"><ele>32.75</ele><time>2026-05-02T09:25:04.982Z</time></trkpt><trkpt lat="40.0445483" lon="15.2905433"><ele>39.5</ele><time>2026-05-02T09:25:05.983Z</time></trkpt><trkpt lat="40.044435" lon="15.2905317"><ele>46.25</ele><time>2026-05-02T09:25:06.983Z</time></trkpt><trkpt lat="40.0443233" lon="15.290535"><ele>53.0</ele><time>2026-05-02T09:25:07.982Z</time></trkpt><trkpt lat="40.0442083" lon="15.2905517"><ele>52.5</ele><time>2026-05-02T09:25:08.983Z</time></trkpt><trkpt lat="40.04409" lon="15.2905817"><ele>52.0</ele><time>2026-05-02T09:25:09.983Z</time></trkpt><trkpt lat="40.0439683" lon="15.290605"><ele>51.5</ele><time>2026-05-02T09:25:10.982Z</time></trkpt><trkpt lat="40.0438483" lon="15.290635"><ele>51.0</ele><time>2026-05-02T09:25:11.982Z</time></trkpt><trkpt lat="40.0437333" lon="15.29066"><ele>47.599999999999994</ele><time>2026-05-02T09:25:12.982Z</time></trkpt><trkpt lat="40.0436167" lon="15.29068"><ele>44.199999999999996</ele><time>2026-05-02T09:25:13.983Z</time></trkpt><trkpt lat="40.0435083" lon="15.2906867"><ele>40.8</ele><time>2026-05-02T09:25:14.983Z</time></trkpt><trkpt lat="40.043405" lon="15.2906883"><ele>37.4</ele><time>2026-05-02T09:25:15.983Z</time></trkpt><trkpt lat="40.0433033" lon="15.29069"><ele>34.0</ele><time>2026-05-02T09:25:16.982Z</time></trkpt><trkpt lat="40.0432083" lon="15.290685"><ele>33.8</ele><time>2026-05-02T09:25:17.983Z</time></trkpt><trkpt lat="40.0431117" lon="15.2906867"><ele>33.599999999999994</ele><time>2026-05-02T09:25:18.983Z</time></trkpt><trkpt lat="40.0430217" lon="15.29067"><ele>33.4</ele><time>2026-05-02T09:25:19.982Z</time></trkpt><trkpt lat="40.0429283" lon="15.2906517"><ele>33.199999999999996</ele><time>2026-05-02T09:25:20.982Z</time></trkpt><trkpt lat="40.042845" lon="15.2906117"><ele>33.0</ele><time>2026-05-02T09:25:21.983Z</time></trkpt><trkpt lat="40.0427667" lon="15.29056"><ele>35.2</ele><time>2026-05-02T09:25:22.982Z</time></trkpt><trkpt lat="40.0427033" lon="15.290495"><ele>37.4</ele><time>2026-05-02T09:25:23.983Z</time></trkpt><trkpt lat="40.0426533" lon="15.2904417"><ele>39.6</ele><time>2026-05-02T09:25:24.983Z</time></trkpt><trkpt lat="40.04257" lon="15.29035"><ele>41.800000000000004</ele><time>2026-05-02T09:25:26.982Z</time></trkpt><trkpt lat="40.04249" lon="15.2902317"><ele>44.0</ele><time>2026-05-02T09:25:28.983Z</time></trkpt><trkpt lat="40.04242" lon="15.290105"><ele>43.166666666666664</ele><time>2026-05-02T09:25:30.983Z</time></trkpt><trkpt lat="40.0423883" lon="15.29001"><ele>42.33333333333333</ele><time>2026-05-02T09:25:32.982Z</time></trkpt><trkpt lat="40.042385" lon="15.28992"><ele>41.5</ele><time>2026-05-02T09:25:34.982Z</time></trkpt><trkpt lat="40.0424067" lon="15.289805"><ele>40.666666666666664</ele><time>2026-05-02T09:25:36.982Z</time></trkpt><trkpt lat="40.04247" lon="15.2896867"><ele>39.833333333333336</ele><time>2026-05-02T09:25:38.982Z</time></trkpt><trkpt lat="40.0425283" lon="15.2896217"><ele>39.0</ele><time>2026-05-02T09:25:39.982Z</time></trkpt><trkpt lat="40.0425983" lon="15.2895583"><ele>39.0</ele><time>2026-05-02T09:25:40.982Z</time></trkpt><trkpt lat="40.0426783" lon="15.289485"><ele>39.0</ele><time>2026-05-02T09:25:41.982Z</time></trkpt><trkpt lat="40.042765" lon="15.2894167"><ele>39.0</ele><time>2026-05-02T09:25:42.982Z</time></trkpt><trkpt lat="40.0428533" lon="15.2893333"><ele>39.0</ele><time>2026-05-02T09:25:43.982Z</time></trkpt><trkpt lat="40.042945" lon="15.2892567"><ele>39.0</ele><time>2026-05-02T09:25:44.982Z</time></trkpt><trkpt lat="40.0430367" lon="15.289185"><ele>39.0</ele><time>2026-05-02T09:25:45.982Z</time></trkpt><trkpt lat="40.0431317" lon="15.2891033"><ele>39.0</ele><time>2026-05-02T09:25:46.982Z</time></trkpt><trkpt lat="40.0432217" lon="15.28903"><ele>39.0</ele><time>2026-05-02T09:25:47.982Z</time></trkpt><trkpt lat="40.04331" lon="15.2889517"><ele>39.0</ele><time>2026-05-02T09:25:48.982Z</time></trkpt><trkpt lat="40.0434017" lon="15.2888717"><ele>39.0</ele><time>2026-05-02T09:25:49.982Z</time></trkpt><trkpt lat="40.0434967" lon="15.2887933"><ele>37.75</ele><time>2026-05-02T09:25:50.982Z</time></trkpt><trkpt lat="40.0435933" lon="15.288705"><ele>36.5</ele><time>2026-05-02T09:25:51.983Z</time></trkpt><trkpt lat="40.043695" lon="15.2886233"><ele>35.25</ele><time>2026-05-02T09:25:52.983Z</time></trkpt><trkpt lat="40.0438017" lon="15.2885417"><ele>34.0</ele><time>2026-05-02T09:25:53.982Z</time></trkpt><trkpt lat="40.0439117" lon="15.2884367"><ele>34.0</ele><time>2026-05-02T09:25:54.983Z</time></trkpt><trkpt lat="40.0440133" lon="15.2883517"><ele>34.0</ele><time>2026-05-02T09:25:55.982Z</time></trkpt><trkpt lat="40.04411" lon="15.288275"><ele>34.0</ele><time>2026-05-02T09:25:56.982Z</time></trkpt><trkpt lat="40.0442033" lon="15.2881967"><ele>34.0</ele><time>2026-05-02T09:25:57.982Z</time></trkpt><trkpt lat="40.0442967" lon="15.2881233"><ele>33.4</ele><time>2026-05-02T09:25:58.982Z</time></trkpt><trkpt lat="40.0443867" lon="15.2880533"><ele>32.8</ele><time>2026-05-02T09:25:59.982Z</time></trkpt><trkpt lat="40.044475" lon="15.2879817"><ele>32.2</ele><time>2026-05-02T09:26:00.982Z</time></trkpt><trkpt lat="40.044565" lon="15.287915"><ele>31.6</ele><time>2026-05-02T09:26:01.982Z</time></trkpt><trkpt lat="40.044645" lon="15.2878433"><ele>31.0</ele><time>2026-05-02T09:26:02.982Z</time></trkpt><trkpt lat="40.044725" lon="15.2877817"><ele>31.0</ele><time>2026-05-02T09:26:03.983Z</time></trkpt><trkpt lat="40.0448033" lon="15.287715"><ele>31.0</ele><time>2026-05-02T09:26:04.982Z</time></trkpt><trkpt lat="40.0448883" lon="15.2876583"><ele>31.0</ele><time>2026-05-02T09:26:05.982Z</time></trkpt><trkpt lat="40.0449783" lon="15.2876067"><ele>31.0</ele><time>2026-05-02T09:26:06.982Z</time></trkpt><trkpt lat="40.0450733" lon="15.287545"><ele>31.0</ele><time>2026-05-02T09:26:07.982Z</time></trkpt><trkpt lat="40.0451833" lon="15.2874933"><ele>31.75</ele><time>2026-05-02T09:26:08.982Z</time></trkpt><trkpt lat="40.0452933" lon="15.287445"><ele>32.5</ele><time>2026-05-02T09:26:09.983Z</time></trkpt><trkpt lat="40.045395" lon="15.287405"><ele>33.25</ele><time>2026-05-02T09:26:10.983Z</time></trkpt><trkpt lat="40.0455067" lon="15.2873533"><ele>34.0</ele><time>2026-05-02T09:26:11.983Z</time></trkpt><trkpt lat="40.0456133" lon="15.2873167"><ele>34.0</ele><time>2026-05-02T09:26:12.982Z</time></trkpt><trkpt lat="40.0457267" lon="15.2872717"><ele>34.0</ele><time>2026-05-02T09:26:13.983Z</time></trkpt><trkpt lat="40.0458367" lon="15.287225"><ele>34.0</ele><time>2026-05-02T09:26:14.983Z</time></trkpt><trkpt lat="40.045945" lon="15.287175"><ele>34.0</ele><time>2026-05-02T09:26:15.982Z</time></trkpt><trkpt lat="40.0460467" lon="15.2871283"><ele>32.25</ele><time>2026-05-02T09:26:16.982Z</time></trkpt><trkpt lat="40.0461533" lon="15.28707"><ele>30.5</ele><time>2026-05-02T09:26:17.983Z</time></trkpt><trkpt lat="40.0462633" lon="15.2870067"><ele>28.75</ele><time>2026-05-02T09:26:18.982Z</time></trkpt><trkpt lat="40.04637" lon="15.2869383"><ele>27.0</ele><time>2026-05-02T09:26:19.982Z</time></trkpt><trkpt lat="40.0464767" lon="15.286865"><ele>27.0</ele><time>2026-05-02T09:26:20.983Z</time></trkpt><trkpt lat="40.0465817" lon="15.2868017"><ele>27.0</ele><time>2026-05-02T09:26:21.983Z</time></trkpt><trkpt lat="40.0466867" lon="15.2867333"><ele>27.0</ele><time>2026-05-02T09:26:22.982Z</time></trkpt><trkpt lat="40.0467817" lon="15.28667"><ele>27.0</ele><time>2026-05-02T09:26:23.982Z</time></trkpt><trkpt lat="40.046885" lon="15.286595"><ele>27.25</ele><time>2026-05-02T09:26:24.982Z</time></trkpt><trkpt lat="40.0469933" lon="15.286515"><ele>27.5</ele><time>2026-05-02T09:26:25.982Z</time></trkpt><trkpt lat="40.0471067" lon="15.2864367"><ele>27.75</ele><time>2026-05-02T09:26:26.982Z</time></trkpt><trkpt lat="40.0472183" lon="15.28636"><ele>28.0</ele><time>2026-05-02T09:26:27.982Z</time></trkpt><trkpt lat="40.0473317" lon="15.2862767"><ele>27.0</ele><time>2026-05-02T09:26:28.982Z</time></trkpt><trkpt lat="40.047445" lon="15.2861983"><ele>26.0</ele><time>2026-05-02T09:26:29.982Z</time></trkpt><trkpt lat="40.0475583" lon="15.2861133"><ele>25.0</ele><time>2026-05-02T09:26:30.982Z</time></trkpt><trkpt lat="40.0476767" lon="15.2860267"><ele>24.0</ele><time>2026-05-02T09:26:31.982Z</time></trkpt><trkpt lat="40.04779" lon="15.285965"><ele>24.0</ele><time>2026-05-02T09:26:32.982Z</time></trkpt><trkpt lat="40.0479" lon="15.2858967"><ele>24.0</ele><time>2026-05-02T09:26:33.983Z</time></trkpt><trkpt lat="40.0480067" lon="15.2858267"><ele>24.0</ele><time>2026-05-02T09:26:34.983Z</time></trkpt><trkpt lat="40.048115" lon="15.285765"><ele>24.0</ele><time>2026-05-02T09:26:35.982Z</time></trkpt><trkpt lat="40.0482267" lon="15.2857083"><ele>25.0</ele><time>2026-05-02T09:26:36.982Z</time></trkpt><trkpt lat="40.04834" lon="15.2856483"><ele>26.0</ele><time>2026-05-02T09:26:37.983Z</time></trkpt><trkpt lat="40.04845" lon="15.2855883"><ele>27.0</ele><time>2026-05-02T09:26:38.983Z</time></trkpt><trkpt lat="40.04856" lon="15.2855283"><ele>28.0</ele><time>2026-05-02T09:26:39.982Z</time></trkpt><trkpt lat="40.0486733" lon="15.2854717"><ele>25.25</ele><time>2026-05-02T09:26:40.983Z</time></trkpt><trkpt lat="40.0487833" lon="15.2854167"><ele>22.5</ele><time>2026-05-02T09:26:41.983Z</time></trkpt><trkpt lat="40.048895" lon="15.2853567"><ele>19.75</ele><time>2026-05-02T09:26:42.982Z</time></trkpt><trkpt lat="40.0490033" lon="15.285295"><ele>17.0</ele><time>2026-05-02T09:26:43.983Z</time></trkpt><trkpt lat="40.049115" lon="15.2852383"><ele>17.25</ele><time>2026-05-02T09:26:44.982Z</time></trkpt><trkpt lat="40.0492233" lon="15.2851783"><ele>17.5</ele><time>2026-05-02T09:26:45.982Z</time></trkpt><trkpt lat="40.0493383" lon="15.2851217"><ele>17.75</ele><time>2026-05-02T09:26:46.982Z</time></trkpt><trkpt lat="40.04946" lon="15.2850633"><ele>18.0</ele><time>2026-05-02T09:26:47.982Z</time></trkpt><trkpt lat="40.0495833" lon="15.2849917"><ele>18.0</ele><time>2026-05-02T09:26:48.982Z</time></trkpt><trkpt lat="40.04971" lon="15.284915"><ele>18.0</ele><time>2026-05-02T09:26:49.982Z</time></trkpt><trkpt lat="40.0498367" lon="15.2848417"><ele>18.0</ele><time>2026-05-02T09:26:50.983Z</time></trkpt><trkpt lat="40.0499667" lon="15.2847717"><ele>18.0</ele><time>2026-05-02T09:26:51.982Z</time></trkpt><trkpt lat="40.0500933" lon="15.2847017"><ele>17.0</ele><time>2026-05-02T09:26:52.983Z</time></trkpt><trkpt lat="40.0502267" lon="15.2846283"><ele>16.0</ele><time>2026-05-02T09:26:53.983Z</time></trkpt><trkpt lat="40.0503483" lon="15.2845583"><ele>15.0</ele><time>2026-05-02T09:26:54.982Z</time></trkpt><trkpt lat="40.0504717" lon="15.2844867"><ele>14.0</ele><time>2026-05-02T09:26:55.982Z</time></trkpt><trkpt lat="40.0506" lon="15.28441"><ele>14.0</ele><time>2026-05-02T09:26:56.982Z</time></trkpt><trkpt lat="40.050725" lon="15.284335"><ele>14.0</ele><time>2026-05-02T09:26:57.982Z</time></trkpt><trkpt lat="40.050845" lon="15.2842717"><ele>14.0</ele><time>2026-05-02T09:26:58.982Z</time></trkpt><trkpt lat="40.05096" lon="15.28421"><ele>14.0</ele><time>2026-05-02T09:26:59.982Z</time></trkpt><trkpt lat="40.0510667" lon="15.28415"><ele>14.0</ele><time>2026-05-02T09:27:00.982Z</time></trkpt><trkpt lat="40.051165" lon="15.2840967"><ele>14.0</ele><time>2026-05-02T09:27:01.982Z</time></trkpt><trkpt lat="40.0512667" lon="15.2840333"><ele>14.0</ele><time>2026-05-02T09:27:02.982Z</time></trkpt><trkpt lat="40.0513767" lon="15.2839817"><ele>14.0</ele><time>2026-05-02T09:27:03.983Z</time></trkpt><trkpt lat="40.051485" lon="15.28393"><ele>12.5</ele><time>2026-05-02T09:27:04.982Z</time></trkpt><trkpt lat="40.05159" lon="15.2838883"><ele>11.0</ele><time>2026-05-02T09:27:05.982Z</time></trkpt><trkpt lat="40.0516967" lon="15.28384"><ele>9.5</ele><time>2026-05-02T09:27:06.982Z</time></trkpt><trkpt lat="40.0518017" lon="15.2837867"><ele>8.0</ele><time>2026-05-02T09:27:07.982Z</time></trkpt><trkpt lat="40.05191" lon="15.2837367"><ele>8.0</ele><time>2026-05-02T09:27:08.982Z</time></trkpt><trkpt lat="40.0520183" lon="15.2836883"><ele>8.0</ele><time>2026-05-02T09:27:09.982Z</time></trkpt><trkpt lat="40.0521333" lon="15.283635"><ele>8.0</ele><time>2026-05-02T09:27:10.982Z</time></trkpt><trkpt lat="40.05225" lon="15.2835833"><ele>8.0</ele><time>2026-05-02T09:27:11.982Z</time></trkpt><trkpt lat="40.052365" lon="15.2835383"><ele>8.4</ele><time>2026-05-02T09:27:12.982Z</time></trkpt><trkpt lat="40.0524767" lon="15.2834933"><ele>8.8</ele><time>2026-05-02T09:27:13.982Z</time></trkpt><trkpt lat="40.052585" lon="15.283455"><ele>9.2</ele><time>2026-05-02T09:27:14.983Z</time></trkpt><trkpt lat="40.0526867" lon="15.283435"><ele>9.6</ele><time>2026-05-02T09:27:15.982Z</time></trkpt><trkpt lat="40.0527817" lon="15.2834217"><ele>10.0</ele><time>2026-05-02T09:27:16.982Z</time></trkpt><trkpt lat="40.0528733" lon="15.2834067"><ele>10.0</ele><time>2026-05-02T09:27:17.983Z</time></trkpt><trkpt lat="40.0529667" lon="15.283395"><ele>10.0</ele><time>2026-05-02T09:27:18.983Z</time></trkpt><trkpt lat="40.0530583" lon="15.2833833"><ele>10.0</ele><time>2026-05-02T09:27:19.983Z</time></trkpt><trkpt lat="40.0531533" lon="15.28337"><ele>10.0</ele><time>2026-05-02T09:27:20.982Z</time></trkpt><trkpt lat="40.0532517" lon="15.2833583"><ele>10.0</ele><time>2026-05-02T09:27:21.982Z</time></trkpt><trkpt lat="40.0533517" lon="15.2833467"><ele>9.8</ele><time>2026-05-02T09:27:22.982Z</time></trkpt><trkpt lat="40.0534467" lon="15.283335"><ele>9.6</ele><time>2026-05-02T09:27:23.982Z</time></trkpt><trkpt lat="40.0535367" lon="15.28333"><ele>9.4</ele><time>2026-05-02T09:27:24.982Z</time></trkpt><trkpt lat="40.0536283" lon="15.283325"><ele>9.2</ele><time>2026-05-02T09:27:25.983Z</time></trkpt><trkpt lat="40.05372" lon="15.2833133"><ele>9.0</ele><time>2026-05-02T09:27:26.982Z</time></trkpt><trkpt lat="40.0538083" lon="15.2833033"><ele>9.0</ele><time>2026-05-02T09:27:27.982Z</time></trkpt><trkpt lat="40.0538817" lon="15.28329"><ele>9.0</ele><time>2026-05-02T09:27:28.983Z</time></trkpt><trkpt lat="40.0539933" lon="15.2832717"><ele>9.0</ele><time>2026-05-02T09:27:30.982Z</time></trkpt><trkpt lat="40.0540983" lon="15.2832567"><ele>9.0</ele><time>2026-05-02T09:27:32.982Z</time></trkpt><trkpt lat="40.054205" lon="15.2832467"><ele>9.0</ele><time>2026-05-02T09:27:34.982Z</time></trkpt><trkpt lat="40.0542683" lon="15.2832367"><ele>9.166666666666666</ele><time>2026-05-02T09:27:35.982Z</time></trkpt><trkpt lat="40.0543333" lon="15.2832267"><ele>9.333333333333334</ele><time>2026-05-02T09:27:36.982Z</time></trkpt><trkpt lat="40.0544033" lon="15.28322"><ele>9.5</ele><time>2026-05-02T09:27:37.982Z</time></trkpt><trkpt lat="40.0544733" lon="15.2832117"><ele>9.666666666666668</ele><time>2026-05-02T09:27:38.983Z</time></trkpt><trkpt lat="40.054555" lon="15.2831983"><ele>9.833333333333334</ele><time>2026-05-02T09:27:39.982Z</time></trkpt><trkpt lat="40.0546433" lon="15.2831883"><ele>10.0</ele><time>2026-05-02T09:27:40.982Z</time></trkpt><trkpt lat="40.05474" lon="15.2831717"><ele>10.0</ele><time>2026-05-02T09:27:41.982Z</time></trkpt><trkpt lat="40.0548367" lon="15.283155"><ele>10.0</ele><time>2026-05-02T09:27:42.983Z</time></trkpt><trkpt lat="40.0549267" lon="15.2831383"><ele>10.0</ele><time>2026-05-02T09:27:43.982Z</time></trkpt><trkpt lat="40.0550183" lon="15.2831217"><ele>10.0</ele><time>2026-05-02T09:27:44.982Z</time></trkpt><trkpt lat="40.055115" lon="15.2831033"><ele>10.0</ele><time>2026-05-02T09:27:45.982Z</time></trkpt><trkpt lat="40.0552133" lon="15.283085"><ele>8.2</ele><time>2026-05-02T09:27:46.983Z</time></trkpt><trkpt lat="40.0553117" lon="15.28306"><ele>6.4</ele><time>2026-05-02T09:27:47.982Z</time></trkpt><trkpt lat="40.0554133" lon="15.2830317"><ele>4.6</ele><time>2026-05-02T09:27:48.982Z</time></trkpt><trkpt lat="40.0555183" lon="15.2830033"><ele>2.8</ele><time>2026-05-02T09:27:49.982Z</time></trkpt><trkpt lat="40.0556267" lon="15.2829783"><ele>1.0</ele><time>2026-05-02T09:27:50.983Z</time></trkpt><trkpt lat="40.05574" lon="15.2829467"><ele>1.75</ele><time>2026-05-02T09:27:51.982Z</time></trkpt><trkpt lat="40.0558617" lon="15.28291"><ele>2.5</ele><time>2026-05-02T09:27:52.983Z</time></trkpt><trkpt lat="40.0559783" lon="15.2828783"><ele>3.25</ele><time>2026-05-02T09:27:53.982Z</time></trkpt><trkpt lat="40.056095" lon="15.2828433"><ele>4.0</ele><time>2026-05-02T09:27:54.982Z</time></trkpt><trkpt lat="40.0562083" lon="15.2828117"><ele>4.0</ele><time>2026-05-02T09:27:55.983Z</time></trkpt><trkpt lat="40.0563267" lon="15.2827767"><ele>4.0</ele><time>2026-05-02T09:27:56.982Z</time></trkpt><trkpt lat="40.05644" lon="15.2827483"><ele>4.0</ele><time>2026-05-02T09:27:57.982Z</time></trkpt><trkpt lat="40.0565467" lon="15.28272"><ele>4.0</ele><time>2026-05-02T09:27:58.983Z</time></trkpt><trkpt lat="40.056645" lon="15.2826967"><ele>4.0</ele><time>2026-05-02T09:27:59.983Z</time></trkpt><trkpt lat="40.0567483" lon="15.2826667"><ele>5.25</ele><time>2026-05-02T09:28:00.983Z</time></trkpt><trkpt lat="40.0568567" lon="15.2826317"><ele>6.5</ele><time>2026-05-02T09:28:01.982Z</time></trkpt><trkpt lat="40.0569733" lon="15.2825983"><ele>7.75</ele><time>2026-05-02T09:28:02.983Z</time></trkpt><trkpt lat="40.0570933" lon="15.2825567"><ele>9.0</ele><time>2026-05-02T09:28:03.982Z</time></trkpt><trkpt lat="40.05722" lon="15.2825167"><ele>9.0</ele><time>2026-05-02T09:28:04.982Z</time></trkpt><trkpt lat="40.057355" lon="15.2824733"><ele>9.0</ele><time>2026-05-02T09:28:05.982Z</time></trkpt><trkpt lat="40.0574833" lon="15.2824267"><ele>9.0</ele><time>2026-05-02T09:28:06.982Z</time></trkpt><trkpt lat="40.0576117" lon="15.2823817"><ele>9.0</ele><time>2026-05-02T09:28:07.983Z</time></trkpt><trkpt lat="40.0577383" lon="15.2823383"><ele>10.25</ele><time>2026-05-02T09:28:08.983Z</time></trkpt><trkpt lat="40.0578717" lon="15.2822867"><ele>11.5</ele><time>2026-05-02T09:28:09.982Z</time></trkpt><trkpt lat="40.058005" lon="15.2822333"><ele>12.75</ele><time>2026-05-02T09:28:10.982Z</time></trkpt><trkpt lat="40.058135" lon="15.2821867"><ele>14.0</ele><time>2026-05-02T09:28:11.982Z</time></trkpt><trkpt lat="40.058265" lon="15.282135"><ele>12.25</ele><time>2026-05-02T09:28:12.982Z</time></trkpt><trkpt lat="40.0583917" lon="15.2820867"><ele>10.5</ele><time>2026-05-02T09:28:13.983Z</time></trkpt><trkpt lat="40.0585183" lon="15.2820383"><ele>8.75</ele><time>2026-05-02T09:28:14.983Z</time></trkpt><trkpt lat="40.0586517" lon="15.2819817"><ele>7.0</ele><time>2026-05-02T09:28:15.983Z</time></trkpt><trkpt lat="40.0587817" lon="15.2819333"><ele>7.0</ele><time>2026-05-02T09:28:16.982Z</time></trkpt><trkpt lat="40.0589233" lon="15.28188"><ele>7.0</ele><time>2026-05-02T09:28:17.982Z</time></trkpt><trkpt lat="40.0590617" lon="15.2818217"><ele>7.0</ele><time>2026-05-02T09:28:18.982Z</time></trkpt><trkpt lat="40.0591983" lon="15.2817667"><ele>7.0</ele><time>2026-05-02T09:28:19.983Z</time></trkpt><trkpt lat="40.0593317" lon="15.28171"><ele>8.0</ele><time>2026-05-02T09:28:20.982Z</time></trkpt><trkpt lat="40.05947" lon="15.2816567"><ele>9.0</ele><time>2026-05-02T09:28:21.982Z</time></trkpt><trkpt lat="40.0596067" lon="15.2816033"><ele>10.0</ele><time>2026-05-02T09:28:22.982Z</time></trkpt><trkpt lat="40.0597467" lon="15.28154"><ele>11.0</ele><time>2026-05-02T09:28:23.982Z</time></trkpt><trkpt lat="40.05989" lon="15.2814817"><ele>10.333333333333332</ele><time>2026-05-02T09:28:24.983Z</time></trkpt><trkpt lat="40.0600367" lon="15.28142"><ele>9.666666666666666</ele><time>2026-05-02T09:28:25.982Z</time></trkpt><trkpt lat="40.060185" lon="15.2813617"><ele>9.0</ele><time>2026-05-02T09:28:26.983Z</time></trkpt><trkpt lat="40.0603317" lon="15.2813"><ele>9.0</ele><time>2026-05-02T09:28:27.982Z</time></trkpt><trkpt lat="40.0604783" lon="15.2812317"><ele>9.0</ele><time>2026-05-02T09:28:28.983Z</time></trkpt><trkpt lat="40.0606167" lon="15.2811717"><ele>9.0</ele><time>2026-05-02T09:28:29.983Z</time></trkpt><trkpt lat="40.0607483" lon="15.28111"><ele>9.0</ele><time>2026-05-02T09:28:30.982Z</time></trkpt><trkpt lat="40.060875" lon="15.2810567"><ele>9.25</ele><time>2026-05-02T09:28:31.983Z</time></trkpt><trkpt lat="40.0609967" lon="15.281005"><ele>9.5</ele><time>2026-05-02T09:28:32.982Z</time></trkpt><trkpt lat="40.061115" lon="15.2809667"><ele>9.75</ele><time>2026-05-02T09:28:33.983Z</time></trkpt><trkpt lat="40.06124" lon="15.2809233"><ele>10.0</ele><time>2026-05-02T09:28:34.982Z</time></trkpt><trkpt lat="40.06136" lon="15.28087"><ele>10.0</ele><time>2026-05-02T09:28:35.982Z</time></trkpt><trkpt lat="40.0614833" lon="15.280815"><ele>10.0</ele><time>2026-05-02T09:28:36.982Z</time></trkpt><trkpt lat="40.0616133" lon="15.280745"><ele>10.0</ele><time>2026-05-02T09:28:37.983Z</time></trkpt><trkpt lat="40.0617333" lon="15.2806767"><ele>10.0</ele><time>2026-05-02T09:28:38.982Z</time></trkpt><trkpt lat="40.061855" lon="15.2805933"><ele>9.0</ele><time>2026-05-02T09:28:39.982Z</time></trkpt><trkpt lat="40.0619783" lon="15.2805033"><ele>8.0</ele><time>2026-05-02T09:28:40.983Z</time></trkpt><trkpt lat="40.0621017" lon="15.280405"><ele>7.0</ele><time>2026-05-02T09:28:41.982Z</time></trkpt><trkpt lat="40.0622283" lon="15.2803033"><ele>6.0</ele><time>2026-05-02T09:28:42.982Z</time></trkpt><trkpt lat="40.06235" lon="15.2801967"><ele>7.25</ele><time>2026-05-02T09:28:43.982Z</time></trkpt><trkpt lat="40.062475" lon="15.2800917"><ele>8.5</ele><time>2026-05-02T09:28:44.982Z</time></trkpt><trkpt lat="40.0625967" lon="15.279985"><ele>9.75</ele><time>2026-05-02T09:28:45.982Z</time></trkpt><trkpt lat="40.062725" lon="15.279875"><ele>11.0</ele><time>2026-05-02T09:28:46.982Z</time></trkpt><trkpt lat="40.0628467" lon="15.2797767"><ele>11.0</ele><time>2026-05-02T09:28:47.982Z</time></trkpt><trkpt lat="40.0629717" lon="15.2796683"><ele>11.0</ele><time>2026-05-02T09:28:48.982Z</time></trkpt><trkpt lat="40.0630883" lon="15.279565"><ele>11.0</ele><time>2026-05-02T09:28:49.983Z</time></trkpt><trkpt lat="40.0632067" lon="15.2794617"><ele>11.0</ele><time>2026-05-02T09:28:50.982Z</time></trkpt><trkpt lat="40.06333" lon="15.2793667"><ele>11.0</ele><time>2026-05-02T09:28:51.983Z</time></trkpt><trkpt lat="40.0634483" lon="15.27927"><ele>11.0</ele><time>2026-05-02T09:28:52.982Z</time></trkpt><trkpt lat="40.0635667" lon="15.27919"><ele>11.0</ele><time>2026-05-02T09:28:53.982Z</time></trkpt><trkpt lat="40.0636933" lon="15.279105"><ele>11.0</ele><time>2026-05-02T09:28:54.982Z</time></trkpt><trkpt lat="40.063825" lon="15.27904"><ele>11.0</ele><time>2026-05-02T09:28:55.983Z</time></trkpt><trkpt lat="40.0639567" lon="15.2789717"><ele>11.0</ele><time>2026-05-02T09:28:56.982Z</time></trkpt><trkpt lat="40.0640983" lon="15.2789167"><ele>11.0</ele><time>2026-05-02T09:28:57.982Z</time></trkpt><trkpt lat="40.0642317" lon="15.27885"><ele>11.0</ele><time>2026-05-02T09:28:58.983Z</time></trkpt><trkpt lat="40.0643717" lon="15.278785"><ele>9.5</ele><time>2026-05-02T09:28:59.983Z</time></trkpt><trkpt lat="40.064515" lon="15.27872"><ele>8.0</ele><time>2026-05-02T09:29:00.982Z</time></trkpt><trkpt lat="40.064655" lon="15.2786617"><ele>6.5</ele><time>2026-05-02T09:29:01.982Z</time></trkpt><trkpt lat="40.0647933" lon="15.2786017"><ele>5.0</ele><time>2026-05-02T09:29:02.982Z</time></trkpt><trkpt lat="40.06493" lon="15.278545"><ele>6.333333333333334</ele><time>2026-05-02T09:29:03.982Z</time></trkpt><trkpt lat="40.0650717" lon="15.27848"><ele>7.666666666666667</ele><time>2026-05-02T09:29:04.983Z</time></trkpt><trkpt lat="40.0652183" lon="15.2784233"><ele>9.0</ele><time>2026-05-02T09:29:05.983Z</time></trkpt><trkpt lat="40.065365" lon="15.2783533"><ele>9.0</ele><time>2026-05-02T09:29:06.982Z</time></trkpt><trkpt lat="40.06552" lon="15.2782817"><ele>9.0</ele><time>2026-05-02T09:29:07.983Z</time></trkpt><trkpt lat="40.0656733" lon="15.2782067"><ele>9.0</ele><time>2026-05-02T09:29:08.983Z</time></trkpt><trkpt lat="40.0658267" lon="15.2781367"><ele>8.333333333333334</ele><time>2026-05-02T09:29:09.982Z</time></trkpt><trkpt lat="40.0659833" lon="15.27807"><ele>7.666666666666667</ele><time>2026-05-02T09:29:10.982Z</time></trkpt><trkpt lat="40.066135" lon="15.277985"><ele>7.0</ele><time>2026-05-02T09:29:11.982Z</time></trkpt><trkpt lat="40.0662783" lon="15.2779033"><ele>7.0</ele><time>2026-05-02T09:29:12.982Z</time></trkpt><trkpt lat="40.06642" lon="15.2778367"><ele>7.0</ele><time>2026-05-02T09:29:13.983Z</time></trkpt><trkpt lat="40.0665517" lon="15.2777683"><ele>7.0</ele><time>2026-05-02T09:29:14.983Z</time></trkpt><trkpt lat="40.0666767" lon="15.277695"><ele>7.0</ele><time>2026-05-02T09:29:15.982Z</time></trkpt><trkpt lat="40.0667983" lon="15.277635"><ele>7.25</ele><time>2026-05-02T09:29:16.983Z</time></trkpt><trkpt lat="40.0669133" lon="15.2775717"><ele>7.5</ele><time>2026-05-02T09:29:17.982Z</time></trkpt><trkpt lat="40.067025" lon="15.277505"><ele>7.75</ele><time>2026-05-02T09:29:18.982Z</time></trkpt><trkpt lat="40.067135" lon="15.2774383"><ele>8.0</ele><time>2026-05-02T09:29:19.982Z</time></trkpt><trkpt lat="40.067245" lon="15.2773733"><ele>8.0</ele><time>2026-05-02T09:29:20.982Z</time></trkpt><trkpt lat="40.0673467" lon="15.277305"><ele>8.0</ele><time>2026-05-02T09:29:21.982Z</time></trkpt><trkpt lat="40.0674483" lon="15.27724"><ele>8.0</ele><time>2026-05-02T09:29:22.983Z</time></trkpt><trkpt lat="40.0675483" lon="15.2771817"><ele>8.0</ele><time>2026-05-02T09:29:23.982Z</time></trkpt><trkpt lat="40.067645" lon="15.2771217"><ele>8.0</ele><time>2026-05-02T09:29:24.982Z</time></trkpt><trkpt lat="40.0677333" lon="15.2770667"><ele>7.4</ele><time>2026-05-02T09:29:25.983Z</time></trkpt><trkpt lat="40.0678183" lon="15.2770117"><ele>6.800000000000001</ele><time>2026-05-02T09:29:26.982Z</time></trkpt><trkpt lat="40.0679017" lon="15.2769583"><ele>6.2</ele><time>2026-05-02T09:29:27.983Z</time></trkpt><trkpt lat="40.067985" lon="15.2769"><ele>5.6</ele><time>2026-05-02T09:29:28.982Z</time></trkpt><trkpt lat="40.0680717" lon="15.27684"><ele>5.0</ele><time>2026-05-02T09:29:29.982Z</time></trkpt><trkpt lat="40.0681617" lon="15.2767717"><ele>5.0</ele><time>2026-05-02T09:29:30.982Z</time></trkpt><trkpt lat="40.0682483" lon="15.27671"><ele>5.0</ele><time>2026-05-02T09:29:31.982Z</time></trkpt><trkpt lat="40.0683367" lon="15.276645"><ele>5.0</ele><time>2026-05-02T09:29:32.982Z</time></trkpt><trkpt lat="40.0684333" lon="15.2765817"><ele>5.0</ele><time>2026-05-02T09:29:33.982Z</time></trkpt><trkpt lat="40.068535" lon="15.2765167"><ele>5.0</ele><time>2026-05-02T09:29:34.983Z</time></trkpt><trkpt lat="40.0686367" lon="15.2764483"><ele>5.25</ele><time>2026-05-02T09:29:35.982Z</time></trkpt><trkpt lat="40.0687467" lon="15.2763767"><ele>5.5</ele><time>2026-05-02T09:29:36.982Z</time></trkpt><trkpt lat="40.0688533" lon="15.2763117"><ele>5.75</ele><time>2026-05-02T09:29:37.982Z</time></trkpt><trkpt lat="40.0689617" lon="15.2762467"><ele>6.0</ele><time>2026-05-02T09:29:38.982Z</time></trkpt><trkpt lat="40.0690733" lon="15.2761867"><ele>6.5</ele><time>2026-05-02T09:29:39.982Z</time></trkpt><trkpt lat="40.06918" lon="15.27612"><ele>7.0</ele><time>2026-05-02T09:29:40.982Z</time></trkpt><trkpt lat="40.0692867" lon="15.276055"><ele>7.5</ele><time>2026-05-02T09:29:41.983Z</time></trkpt><trkpt lat="40.0693983" lon="15.2759917"><ele>8.0</ele><time>2026-05-02T09:29:42.982Z</time></trkpt><trkpt lat="40.0695083" lon="15.275935"><ele>8.0</ele><time>2026-05-02T09:29:43.982Z</time></trkpt><trkpt lat="40.0696117" lon="15.2758667"><ele>8.0</ele><time>2026-05-02T09:29:44.982Z</time></trkpt><trkpt lat="40.0697167" lon="15.2758067"><ele>8.0</ele><time>2026-05-02T09:29:45.983Z</time></trkpt><trkpt lat="40.069825" lon="15.2757567"><ele>8.0</ele><time>2026-05-02T09:29:46.982Z</time></trkpt><trkpt lat="40.069925" lon="15.275705"><ele>7.6000000000000005</ele><time>2026-05-02T09:29:47.982Z</time></trkpt><trkpt lat="40.07003" lon="15.2756433"><ele>7.200000000000001</ele><time>2026-05-02T09:29:48.982Z</time></trkpt><trkpt lat="40.0701283" lon="15.2755917"><ele>6.8</ele><time>2026-05-02T09:29:49.982Z</time></trkpt><trkpt lat="40.0702233" lon="15.2755467"><ele>6.4</ele><time>2026-05-02T09:29:50.982Z</time></trkpt><trkpt lat="40.0703183" lon="15.2755167"><ele>6.0</ele><time>2026-05-02T09:29:51.983Z</time></trkpt><trkpt lat="40.0704183" lon="15.27549"><ele>6.0</ele><time>2026-05-02T09:29:52.983Z</time></trkpt><trkpt lat="40.0705233" lon="15.2754767"><ele>6.0</ele><time>2026-05-02T09:29:53.982Z</time></trkpt><trkpt lat="40.0706317" lon="15.275465"><ele>6.0</ele><time>2026-05-02T09:29:54.983Z</time></trkpt><trkpt lat="40.070735" lon="15.2754617"><ele>6.0</ele><time>2026-05-02T09:29:55.982Z</time></trkpt><trkpt lat="40.0708367" lon="15.2754683"><ele>6.0</ele><time>2026-05-02T09:29:56.982Z</time></trkpt><trkpt lat="40.0709267" lon="15.2754783"><ele>6.6</ele><time>2026-05-02T09:29:57.982Z</time></trkpt><trkpt lat="40.0710117" lon="15.27549"><ele>7.199999999999999</ele><time>2026-05-02T09:29:58.982Z</time></trkpt><trkpt lat="40.0711" lon="15.2754917"><ele>7.800000000000001</ele><time>2026-05-02T09:29:59.983Z</time></trkpt><trkpt lat="40.071195" lon="15.2754867"><ele>8.4</ele><time>2026-05-02T09:30:00.982Z</time></trkpt><trkpt lat="40.0712917" lon="15.2754917"><ele>9.0</ele><time>2026-05-02T09:30:01.982Z</time></trkpt><trkpt lat="40.0713917" lon="15.275495"><ele>9.0</ele><time>2026-05-02T09:30:02.982Z</time></trkpt><trkpt lat="40.07149" lon="15.2755"><ele>9.0</ele><time>2026-05-02T09:30:03.982Z</time></trkpt><trkpt lat="40.0715817" lon="15.2754883"><ele>9.0</ele><time>2026-05-02T09:30:04.983Z</time></trkpt><trkpt lat="40.071675" lon="15.2754683"><ele>9.0</ele><time>2026-05-02T09:30:05.982Z</time></trkpt><trkpt lat="40.071765" lon="15.2754367"><ele>9.0</ele><time>2026-05-02T09:30:06.982Z</time></trkpt><trkpt lat="40.07185" lon="15.275385"><ele>10.0</ele><time>2026-05-02T09:30:07.982Z</time></trkpt><trkpt lat="40.0719217" lon="15.2753033"><ele>11.0</ele><time>2026-05-02T09:30:08.982Z</time></trkpt><trkpt lat="40.071975" lon="15.275205"><ele>11.999999999999998</ele><time>2026-05-02T09:30:09.982Z</time></trkpt><trkpt lat="40.0720067" lon="15.275085"><ele>13.0</ele><time>2026-05-02T09:30:10.983Z</time></trkpt><trkpt lat="40.0720167" lon="15.2749617"><ele>14.0</ele><time>2026-05-02T09:30:11.983Z</time></trkpt><trkpt lat="40.07203" lon="15.2748367"><ele>13.399999999999999</ele><time>2026-05-02T09:30:12.982Z</time></trkpt><trkpt lat="40.0720383" lon="15.27471"><ele>12.799999999999999</ele><time>2026-05-02T09:30:13.983Z</time></trkpt><trkpt lat="40.07205" lon="15.2745833"><ele>12.2</ele><time>2026-05-02T09:30:14.982Z</time></trkpt><trkpt lat="40.0720667" lon="15.2744517"><ele>11.600000000000001</ele><time>2026-05-02T09:30:15.982Z</time></trkpt><trkpt lat="40.07208" lon="15.2743367"><ele>11.0</ele><time>2026-05-02T09:30:16.982Z</time></trkpt><trkpt lat="40.0720983" lon="15.2742217"><ele>11.0</ele><time>2026-05-02T09:30:17.983Z</time></trkpt><trkpt lat="40.0721217" lon="15.2741117"><ele>11.0</ele><time>2026-05-02T09:30:18.982Z</time></trkpt><trkpt lat="40.0721617" lon="15.2740167"><ele>11.0</ele><time>2026-05-02T09:30:19.983Z</time></trkpt><trkpt lat="40.072215" lon="15.2739283"><ele>11.0</ele><time>2026-05-02T09:30:20.982Z</time></trkpt><trkpt lat="40.0722883" lon="15.2738633"><ele>11.0</ele><time>2026-05-02T09:30:21.982Z</time></trkpt><trkpt lat="40.072365" lon="15.273815"><ele>11.0</ele><time>2026-05-02T09:30:22.982Z</time></trkpt><trkpt lat="40.07244" lon="15.27377"><ele>11.666666666666666</ele><time>2026-05-02T09:30:23.983Z</time></trkpt><trkpt lat="40.0725133" lon="15.2737283"><ele>12.333333333333332</ele><time>2026-05-02T09:30:24.983Z</time></trkpt><trkpt lat="40.0725883" lon="15.2736883"><ele>13.0</ele><time>2026-05-02T09:30:25.982Z</time></trkpt><trkpt lat="40.0726733" lon="15.2736583"><ele>13.666666666666666</ele><time>2026-05-02T09:30:26.983Z</time></trkpt><trkpt lat="40.07276" lon="15.2736417"><ele>14.333333333333334</ele><time>2026-05-02T09:30:27.982Z</time></trkpt><trkpt lat="40.07285" lon="15.2736333"><ele>15.0</ele><time>2026-05-02T09:30:28.982Z</time></trkpt><trkpt lat="40.07295" lon="15.2736367"><ele>15.0</ele><time>2026-05-02T09:30:29.983Z</time></trkpt><trkpt lat="40.0730433" lon="15.27365"><ele>15.0</ele><time>2026-05-02T09:30:30.983Z</time></trkpt><trkpt lat="40.0731333" lon="15.2736683"><ele>15.0</ele><time>2026-05-02T09:30:31.982Z</time></trkpt><trkpt lat="40.07322" lon="15.2737017"><ele>15.0</ele><time>2026-05-02T09:30:32.983Z</time></trkpt><trkpt lat="40.07331" lon="15.2737183"><ele>15.0</ele><time>2026-05-02T09:30:33.983Z</time></trkpt><trkpt lat="40.0733983" lon="15.27373"><ele>15.4</ele><time>2026-05-02T09:30:34.982Z</time></trkpt><trkpt lat="40.0734867" lon="15.2737467"><ele>15.8</ele><time>2026-05-02T09:30:35.983Z</time></trkpt><trkpt lat="40.0735783" lon="15.2737683"><ele>16.2</ele><time>2026-05-02T09:30:36.982Z</time></trkpt><trkpt lat="40.0736717" lon="15.2737883"><ele>16.6</ele><time>2026-05-02T09:30:37.983Z</time></trkpt><trkpt lat="40.07377" lon="15.2738033"><ele>17.0</ele><time>2026-05-02T09:30:38.983Z</time></trkpt><trkpt lat="40.073855" lon="15.2738283"><ele>17.0</ele><time>2026-05-02T09:30:39.982Z</time></trkpt><trkpt lat="40.07394" lon="15.2738233"><ele>17.0</ele><time>2026-05-02T09:30:40.983Z</time></trkpt><trkpt lat="40.0740283" lon="15.2738017"><ele>17.0</ele><time>2026-05-02T09:30:41.982Z</time></trkpt><trkpt lat="40.074115" lon="15.2737767"><ele>17.0</ele><time>2026-05-02T09:30:42.982Z</time></trkpt><trkpt lat="40.07419" lon="15.273745"><ele>17.0</ele><time>2026-05-02T09:30:43.982Z</time></trkpt><trkpt lat="40.0742683" lon="15.2737"><ele>17.0</ele><time>2026-05-02T09:30:44.982Z</time></trkpt><trkpt lat="40.0743383" lon="15.2736367"><ele>17.8</ele><time>2026-05-02T09:30:45.982Z</time></trkpt><trkpt lat="40.07441" lon="15.2735483"><ele>18.6</ele><time>2026-05-02T09:30:46.983Z</time></trkpt><trkpt lat="40.0744767" lon="15.273465"><ele>19.400000000000002</ele><time>2026-05-02T09:30:47.982Z</time></trkpt><trkpt lat="40.0745433" lon="15.2733633"><ele>20.2</ele><time>2026-05-02T09:30:48.983Z</time></trkpt><trkpt lat="40.074605" lon="15.27327"><ele>21.0</ele><time>2026-05-02T09:30:49.982Z</time></trkpt><trkpt lat="40.07467" lon="15.2731683"><ele>19.400000000000002</ele><time>2026-05-02T09:30:50.982Z</time></trkpt><trkpt lat="40.0747367" lon="15.27306"><ele>17.8</ele><time>2026-05-02T09:30:51.983Z</time></trkpt><trkpt lat="40.0747933" lon="15.2729633"><ele>16.200000000000003</ele><time>2026-05-02T09:30:52.982Z</time></trkpt><trkpt lat="40.0748517" lon="15.2728617"><ele>14.600000000000001</ele><time>2026-05-02T09:30:53.982Z</time></trkpt><trkpt lat="40.074905" lon="15.2727567"><ele>13.0</ele><time>2026-05-02T09:30:54.983Z</time></trkpt><trkpt lat="40.074955" lon="15.2726617"><ele>17.0</ele><time>2026-05-02T09:30:55.983Z</time></trkpt><trkpt lat="40.07502" lon="15.2725717"><ele>21.0</ele><time>2026-05-02T09:30:56.983Z</time></trkpt><trkpt lat="40.0750833" lon="15.27249"><ele>24.999999999999996</ele><time>2026-05-02T09:30:57.982Z</time></trkpt><trkpt lat="40.07516" lon="15.2724433"><ele>29.0</ele><time>2026-05-02T09:30:58.982Z</time></trkpt><trkpt lat="40.075245" lon="15.2724067"><ele>33.0</ele><time>2026-05-02T09:30:59.983Z</time></trkpt><trkpt lat="40.07534" lon="15.2723733"><ele>33.0</ele><time>2026-05-02T09:31:00.983Z</time></trkpt><trkpt lat="40.0754417" lon="15.2723233"><ele>33.0</ele><time>2026-05-02T09:31:01.983Z</time></trkpt><trkpt lat="40.0755467" lon="15.2722717"><ele>33.0</ele><time>2026-05-02T09:31:02.982Z</time></trkpt><trkpt lat="40.0756467" lon="15.2722317"><ele>33.0</ele><time>2026-05-02T09:31:03.982Z</time></trkpt><trkpt lat="40.0757517" lon="15.27217"><ele>33.0</ele><time>2026-05-02T09:31:04.982Z</time></trkpt><trkpt lat="40.0758583" lon="15.2721183"><ele>35.2</ele><time>2026-05-02T09:31:05.982Z</time></trkpt><trkpt lat="40.0759567" lon="15.27206"><ele>37.4</ele><time>2026-05-02T09:31:06.983Z</time></trkpt><trkpt lat="40.07605" lon="15.2720083"><ele>39.6</ele><time>2026-05-02T09:31:07.982Z</time></trkpt><trkpt lat="40.0761483" lon="15.2719533"><ele>41.800000000000004</ele><time>2026-05-02T09:31:08.982Z</time></trkpt><trkpt lat="40.0762533" lon="15.2719017"><ele>44.0</ele><time>2026-05-02T09:31:09.983Z</time></trkpt><trkpt lat="40.0763533" lon="15.2718433"><ele>44.0</ele><time>2026-05-02T09:31:10.983Z</time></trkpt><trkpt lat="40.0764533" lon="15.2717767"><ele>44.0</ele><time>2026-05-02T09:31:11.983Z</time></trkpt><trkpt lat="40.0765417" lon="15.2717133"><ele>44.0</ele><time>2026-05-02T09:31:12.982Z</time></trkpt><trkpt lat="40.0766267" lon="15.2716517"><ele>44.0</ele><time>2026-05-02T09:31:13.982Z</time></trkpt><trkpt lat="40.0767133" lon="15.27161"><ele>44.0</ele><time>2026-05-02T09:31:14.982Z</time></trkpt><trkpt lat="40.076805" lon="15.27159"><ele>44.6</ele><time>2026-05-02T09:31:15.982Z</time></trkpt><trkpt lat="40.0768883" lon="15.2715883"><ele>45.2</ele><time>2026-05-02T09:31:16.982Z</time></trkpt><trkpt lat="40.07698" lon="15.2715967"><ele>45.800000000000004</ele><time>2026-05-02T09:31:17.983Z</time></trkpt><trkpt lat="40.07707" lon="15.2716333"><ele>46.400000000000006</ele><time>2026-05-02T09:31:18.982Z</time></trkpt><trkpt lat="40.0771567" lon="15.2716733"><ele>47.0</ele><time>2026-05-02T09:31:19.983Z</time></trkpt><trkpt lat="40.0772433" lon="15.2717167"><ele>47.0</ele><time>2026-05-02T09:31:20.983Z</time></trkpt><trkpt lat="40.0773283" lon="15.2717383"><ele>47.0</ele><time>2026-05-02T09:31:21.983Z</time></trkpt><trkpt lat="40.0774117" lon="15.2717467"><ele>47.0</ele><time>2026-05-02T09:31:22.982Z</time></trkpt><trkpt lat="40.077505" lon="15.2717133"><ele>47.0</ele><time>2026-05-02T09:31:23.982Z</time></trkpt><trkpt lat="40.0775933" lon="15.27167"><ele>47.0</ele><time>2026-05-02T09:31:24.982Z</time></trkpt><trkpt lat="40.0776817" lon="15.2716133"><ele>47.400000000000006</ele><time>2026-05-02T09:31:25.983Z</time></trkpt><trkpt lat="40.0777683" lon="15.2715583"><ele>47.800000000000004</ele><time>2026-05-02T09:31:26.983Z</time></trkpt><trkpt lat="40.0778583" lon="15.2715"><ele>48.2</ele><time>2026-05-02T09:31:27.982Z</time></trkpt><trkpt lat="40.0779517" lon="15.2714433"><ele>48.6</ele><time>2026-05-02T09:31:28.982Z</time></trkpt><trkpt lat="40.0780467" lon="15.2713917"><ele>49.0</ele><time>2026-05-02T09:31:29.982Z</time></trkpt><trkpt lat="40.07815" lon="15.271335"><ele>49.2</ele><time>2026-05-02T09:31:30.983Z</time></trkpt><trkpt lat="40.07825" lon="15.27129"><ele>49.400000000000006</ele><time>2026-05-02T09:31:31.983Z</time></trkpt><trkpt lat="40.0783517" lon="15.2712567"><ele>49.6</ele><time>2026-05-02T09:31:32.982Z</time></trkpt><trkpt lat="40.078455" lon="15.2712533"><ele>49.8</ele><time>2026-05-02T09:31:33.982Z</time></trkpt><trkpt lat="40.0785633" lon="15.2712533"><ele>50.0</ele><time>2026-05-02T09:31:34.982Z</time></trkpt><trkpt lat="40.0786683" lon="15.27124"><ele>50.00000000000001</ele><time>2026-05-02T09:31:35.983Z</time></trkpt><trkpt lat="40.0787533" lon="15.27121"><ele>50.0</ele><time>2026-05-02T09:31:36.982Z</time></trkpt><trkpt lat="40.0788233" lon="15.27115"><ele>50.0</ele><time>2026-05-02T09:31:37.983Z</time></trkpt><trkpt lat="40.0788767" lon="15.2710567"><ele>50.0</ele><time>2026-05-02T09:31:38.982Z</time></trkpt><trkpt lat="40.0789083" lon="15.2709483"><ele>50.00000000000001</ele><time>2026-05-02T09:31:39.982Z</time></trkpt><trkpt lat="40.0789083" lon="15.2708233"><ele>50.0</ele><time>2026-05-02T09:31:40.982Z</time></trkpt><trkpt lat="40.0788817" lon="15.2707083"><ele>50.833333333333336</ele><time>2026-05-02T09:31:41.982Z</time></trkpt><trkpt lat="40.0788417" lon="15.2706067"><ele>51.66666666666667</ele><time>2026-05-02T09:31:42.982Z</time></trkpt><trkpt lat="40.0787967" lon="15.2705017"><ele>52.5</ele><time>2026-05-02T09:31:43.982Z</time></trkpt><trkpt lat="40.0787567" lon="15.2704"><ele>53.33333333333333</ele><time>2026-05-02T09:31:44.982Z</time></trkpt><trkpt lat="40.078725" lon="15.2702933"><ele>54.166666666666664</ele><time>2026-05-02T09:31:45.983Z</time></trkpt><trkpt lat="40.0787167" lon="15.27017"><ele>55.0</ele><time>2026-05-02T09:31:46.983Z</time></trkpt><trkpt lat="40.0787317" lon="15.2700567"><ele>54.99999999999999</ele><time>2026-05-02T09:31:47.982Z</time></trkpt><trkpt lat="40.07877" lon="15.2699633"><ele>55.0</ele><time>2026-05-02T09:31:48.983Z</time></trkpt><trkpt lat="40.0788283" lon="15.269895"><ele>55.0</ele><time>2026-05-02T09:31:49.982Z</time></trkpt><trkpt lat="40.0789083" lon="15.2698633"><ele>55.0</ele><time>2026-05-02T09:31:50.982Z</time></trkpt><trkpt lat="40.079005" lon="15.2698617"><ele>54.99999999999999</ele><time>2026-05-02T09:31:51.983Z</time></trkpt><trkpt lat="40.079105" lon="15.2698717"><ele>55.0</ele><time>2026-05-02T09:31:52.982Z</time></trkpt><trkpt lat="40.07921" lon="15.2698617"><ele>55.0</ele><time>2026-05-02T09:31:53.983Z</time></trkpt><trkpt lat="40.0793167" lon="15.2698367"><ele>55.0</ele><time>2026-05-02T09:31:54.982Z</time></trkpt><trkpt lat="40.0794183" lon="15.2698117"><ele>55.0</ele><time>2026-05-02T09:31:55.982Z</time></trkpt><trkpt lat="40.0795133" lon="15.2697867"><ele>55.0</ele><time>2026-05-02T09:31:56.982Z</time></trkpt><trkpt lat="40.0796117" lon="15.2697317"><ele>55.0</ele><time>2026-05-02T09:31:57.982Z</time></trkpt><trkpt lat="40.0796983" lon="15.2696583"><ele>55.0</ele><time>2026-05-02T09:31:58.982Z</time></trkpt><trkpt lat="40.07977" lon="15.2695717"><ele>55.0</ele><time>2026-05-02T09:31:59.982Z</time></trkpt><trkpt lat="40.0798317" lon="15.26947"><ele>55.0</ele><time>2026-05-02T09:32:00.982Z</time></trkpt><trkpt lat="40.0798933" lon="15.2693633"><ele>55.0</ele><time>2026-05-02T09:32:01.982Z</time></trkpt><trkpt lat="40.0799483" lon="15.2692683"><ele>55.0</ele><time>2026-05-02T09:32:02.982Z</time></trkpt><trkpt lat="40.0800033" lon="15.2691733"><ele>56.166666666666664</ele><time>2026-05-02T09:32:03.982Z</time></trkpt><trkpt lat="40.0800667" lon="15.2690867"><ele>57.33333333333333</ele><time>2026-05-02T09:32:04.982Z</time></trkpt><trkpt lat="40.0801333" lon="15.2690117"><ele>58.5</ele><time>2026-05-02T09:32:05.982Z</time></trkpt><trkpt lat="40.08021" lon="15.268955"><ele>59.66666666666667</ele><time>2026-05-02T09:32:06.982Z</time></trkpt><trkpt lat="40.0802933" lon="15.2689183"><ele>60.833333333333336</ele><time>2026-05-02T09:32:07.982Z</time></trkpt><trkpt lat="40.0803767" lon="15.268915"><ele>62.0</ele><time>2026-05-02T09:32:08.983Z</time></trkpt><trkpt lat="40.0804683" lon="15.2689267"><ele>63.400000000000006</ele><time>2026-05-02T09:32:09.983Z</time></trkpt><trkpt lat="40.0805633" lon="15.2689433"><ele>64.80000000000001</ele><time>2026-05-02T09:32:10.982Z</time></trkpt><trkpt lat="40.080655" lon="15.2689533"><ele>66.2</ele><time>2026-05-02T09:32:11.982Z</time></trkpt><trkpt lat="40.0807483" lon="15.2689617"><ele>67.60000000000001</ele><time>2026-05-02T09:32:12.983Z</time></trkpt><trkpt lat="40.08084" lon="15.268955"><ele>69.0</ele><time>2026-05-02T09:32:13.982Z</time></trkpt><trkpt lat="40.0809367" lon="15.2689317"><ele>69.60000000000001</ele><time>2026-05-02T09:32:14.982Z</time></trkpt><trkpt lat="40.0810367" lon="15.268905"><ele>70.2</ele><time>2026-05-02T09:32:15.982Z</time></trkpt><trkpt lat="40.08114" lon="15.2688833"><ele>70.80000000000001</ele><time>2026-05-02T09:32:16.982Z</time></trkpt><trkpt lat="40.081245" lon="15.2688517"><ele>71.4</ele><time>2026-05-02T09:32:17.983Z</time></trkpt><trkpt lat="40.0813517" lon="15.26882"><ele>72.0</ele><time>2026-05-02T09:32:18.983Z</time></trkpt><trkpt lat="40.0814683" lon="15.2687783"><ele>72.0</ele><time>2026-05-02T09:32:19.982Z</time></trkpt><trkpt lat="40.0815883" lon="15.2687317"><ele>72.0</ele><time>2026-05-02T09:32:20.982Z</time></trkpt><trkpt lat="40.0817033" lon="15.2686933"><ele>72.0</ele><time>2026-05-02T09:32:21.983Z</time></trkpt><trkpt lat="40.0818167" lon="15.2686617"><ele>72.0</ele><time>2026-05-02T09:32:22.982Z</time></trkpt><trkpt lat="40.0819233" lon="15.2686283"><ele>72.4</ele><time>2026-05-02T09:32:23.982Z</time></trkpt><trkpt lat="40.0820217" lon="15.2685983"><ele>72.80000000000001</ele><time>2026-05-02T09:32:24.982Z</time></trkpt><trkpt lat="40.0821217" lon="15.26857"><ele>73.2</ele><time>2026-05-02T09:32:25.982Z</time></trkpt><trkpt lat="40.0822167" lon="15.2685433"><ele>73.60000000000001</ele><time>2026-05-02T09:32:26.982Z</time></trkpt><trkpt lat="40.082305" lon="15.2685067"><ele>74.0</ele><time>2026-05-02T09:32:27.982Z</time></trkpt><trkpt lat="40.0823917" lon="15.2684583"><ele>73.0</ele><time>2026-05-02T09:32:28.982Z</time></trkpt><trkpt lat="40.082475" lon="15.2683833"><ele>72.0</ele><time>2026-05-02T09:32:29.982Z</time></trkpt><trkpt lat="40.0825517" lon="15.2683"><ele>71.0</ele><time>2026-05-02T09:32:30.982Z</time></trkpt><trkpt lat="40.0826333" lon="15.2682133"><ele>70.0</ele><time>2026-05-02T09:32:31.983Z</time></trkpt><trkpt lat="40.0827033" lon="15.2681117"><ele>69.0</ele><time>2026-05-02T09:32:32.982Z</time></trkpt><trkpt lat="40.0827767" lon="15.2679917"><ele>69.0</ele><time>2026-05-02T09:32:33.982Z</time></trkpt><trkpt lat="40.0828367" lon="15.2678683"><ele>69.0</ele><time>2026-05-02T09:32:34.982Z</time></trkpt><trkpt lat="40.0828883" lon="15.2677483"><ele>69.0</ele><time>2026-05-02T09:32:35.982Z</time></trkpt><trkpt lat="40.082935" lon="15.26762"><ele>69.0</ele><time>2026-05-02T09:32:36.983Z</time></trkpt><trkpt lat="40.0829833" lon="15.2674783"><ele>69.0</ele><time>2026-05-02T09:32:37.982Z</time></trkpt><trkpt lat="40.0830333" lon="15.2673383"><ele>68.0</ele><time>2026-05-02T09:32:38.983Z</time></trkpt><trkpt lat="40.0830867" lon="15.2671983"><ele>67.0</ele><time>2026-05-02T09:32:39.983Z</time></trkpt><trkpt lat="40.0831433" lon="15.2670683"><ele>66.0</ele><time>2026-05-02T09:32:40.982Z</time></trkpt><trkpt lat="40.0832" lon="15.2669383"><ele>65.0</ele><time>2026-05-02T09:32:41.982Z</time></trkpt><trkpt lat="40.0832583" lon="15.2668117"><ele>67.0</ele><time>2026-05-02T09:32:42.982Z</time></trkpt><trkpt lat="40.0833217" lon="15.2666883"><ele>69.0</ele><time>2026-05-02T09:32:43.982Z</time></trkpt><trkpt lat="40.083395" lon="15.2665667"><ele>71.0</ele><time>2026-05-02T09:32:44.982Z</time></trkpt><trkpt lat="40.08347" lon="15.2664483"><ele>73.0</ele><time>2026-05-02T09:32:45.983Z</time></trkpt><trkpt lat="40.0835567" lon="15.2663333"><ele>73.0</ele><time>2026-05-02T09:32:46.983Z</time></trkpt><trkpt lat="40.0836483" lon="15.2662117"><ele>73.0</ele><time>2026-05-02T09:32:47.982Z</time></trkpt><trkpt lat="40.0837417" lon="15.2660867"><ele>73.0</ele><time>2026-05-02T09:32:48.982Z</time></trkpt><trkpt lat="40.0838283" lon="15.265965"><ele>73.0</ele><time>2026-05-02T09:32:49.983Z</time></trkpt><trkpt lat="40.0839117" lon="15.26585"><ele>73.0</ele><time>2026-05-02T09:32:50.983Z</time></trkpt><trkpt lat="40.0840033" lon="15.2657333"><ele>73.0</ele><time>2026-05-02T09:32:51.982Z</time></trkpt><trkpt lat="40.0840883" lon="15.2656233"><ele>73.0</ele><time>2026-05-02T09:32:52.982Z</time></trkpt><trkpt lat="40.084175" lon="15.2655117"><ele>73.0</ele><time>2026-05-02T09:32:53.983Z</time></trkpt><trkpt lat="40.084275" lon="15.2654033"><ele>72.75</ele><time>2026-05-02T09:32:54.982Z</time></trkpt><trkpt lat="40.0843717" lon="15.265305"><ele>72.5</ele><time>2026-05-02T09:32:55.982Z</time></trkpt><trkpt lat="40.08446" lon="15.265205"><ele>72.25</ele><time>2026-05-02T09:32:56.983Z</time></trkpt><trkpt lat="40.0845483" lon="15.2651067"><ele>72.0</ele><time>2026-05-02T09:32:57.982Z</time></trkpt><trkpt lat="40.0846367" lon="15.2649867"><ele>72.0</ele><time>2026-05-02T09:32:58.982Z</time></trkpt><trkpt lat="40.0847317" lon="15.2648667"><ele>72.0</ele><time>2026-05-02T09:32:59.982Z</time></trkpt><trkpt lat="40.0848317" lon="15.2647383"><ele>72.0</ele><time>2026-05-02T09:33:00.983Z</time></trkpt><trkpt lat="40.0849383" lon="15.2646083"><ele>72.0</ele><time>2026-05-02T09:33:01.982Z</time></trkpt><trkpt lat="40.08506" lon="15.2644667"><ele>67.33333333333333</ele><time>2026-05-02T09:33:02.982Z</time></trkpt><trkpt lat="40.0851817" lon="15.2643167"><ele>62.666666666666664</ele><time>2026-05-02T09:33:03.983Z</time></trkpt><trkpt lat="40.0852983" lon="15.264165"><ele>58.0</ele><time>2026-05-02T09:33:04.982Z</time></trkpt><trkpt lat="40.085405" lon="15.2640117"><ele>53.666666666666664</ele><time>2026-05-02T09:33:05.983Z</time></trkpt><trkpt lat="40.0855083" lon="15.2638467"><ele>49.33333333333333</ele><time>2026-05-02T09:33:06.982Z</time></trkpt><trkpt lat="40.0856067" lon="15.26368"><ele>45.0</ele><time>2026-05-02T09:33:07.983Z</time></trkpt><trkpt lat="40.0856967" lon="15.2635067"><ele>52.0</ele><time>2026-05-02T09:33:08.982Z</time></trkpt><trkpt lat="40.0857817" lon="15.2633233"><ele>59.0</ele><time>2026-05-02T09:33:09.982Z</time></trkpt><trkpt lat="40.0858633" lon="15.26314"><ele>66.0</ele><time>2026-05-02T09:33:10.983Z</time></trkpt><trkpt lat="40.085935" lon="15.2629517"><ele>66.66666666666667</ele><time>2026-05-02T09:33:11.982Z</time></trkpt><trkpt lat="40.0859933" lon="15.2627633"><ele>67.33333333333334</ele><time>2026-05-02T09:33:12.982Z</time></trkpt><trkpt lat="40.0860367" lon="15.26257"><ele>68.0</ele><time>2026-05-02T09:33:13.982Z</time></trkpt><trkpt lat="40.08606" lon="15.2623817"><ele>67.75</ele><time>2026-05-02T09:33:14.982Z</time></trkpt><trkpt lat="40.0860717" lon="15.2622017"><ele>67.5</ele><time>2026-05-02T09:33:15.982Z</time></trkpt><trkpt lat="40.0860833" lon="15.26202"><ele>67.25</ele><time>2026-05-02T09:33:16.982Z</time></trkpt><trkpt lat="40.0861033" lon="15.2618433"><ele>67.0</ele><time>2026-05-02T09:33:17.983Z</time></trkpt><trkpt lat="40.086135" lon="15.261665"><ele>67.0</ele><time>2026-05-02T09:33:18.982Z</time></trkpt><trkpt lat="40.086185" lon="15.26149"><ele>67.0</ele><time>2026-05-02T09:33:19.982Z</time></trkpt><trkpt lat="40.08624" lon="15.26131"><ele>67.0</ele><time>2026-05-02T09:33:20.982Z</time></trkpt><trkpt lat="40.0862967" lon="15.2611333"><ele>67.0</ele><time>2026-05-02T09:33:21.983Z</time></trkpt><trkpt lat="40.08635" lon="15.2609567"><ele>69.33333333333333</ele><time>2026-05-02T09:33:22.982Z</time></trkpt><trkpt lat="40.0864017" lon="15.26077"><ele>71.66666666666667</ele><time>2026-05-02T09:33:23.983Z</time></trkpt><trkpt lat="40.086455" lon="15.260575"><ele>74.0</ele><time>2026-05-02T09:33:24.983Z</time></trkpt><trkpt lat="40.0865033" lon="15.2603733"><ele>76.0</ele><time>2026-05-02T09:33:25.983Z</time></trkpt><trkpt lat="40.0865583" lon="15.2601717"><ele>78.0</ele><time>2026-05-02T09:33:26.984Z</time></trkpt><trkpt lat="40.0866033" lon="15.2599767"><ele>80.0</ele><time>2026-05-02T09:33:27.983Z</time></trkpt><trkpt lat="40.086645" lon="15.25978"><ele>83.66666666666667</ele><time>2026-05-02T09:33:28.983Z</time></trkpt><trkpt lat="40.0866867" lon="15.2595867"><ele>87.33333333333333</ele><time>2026-05-02T09:33:29.984Z</time></trkpt><trkpt lat="40.0867317" lon="15.2594017"><ele>91.0</ele><time>2026-05-02T09:33:30.983Z</time></trkpt><trkpt lat="40.0867767" lon="15.259205"><ele>91.0</ele><time>2026-05-02T09:33:31.983Z</time></trkpt><trkpt lat="40.0868283" lon="15.259005"><ele>91.0</ele><time>2026-05-02T09:33:32.983Z</time></trkpt><trkpt lat="40.0868767" lon="15.2588017"><ele>91.0</ele><time>2026-05-02T09:33:33.983Z</time></trkpt><trkpt lat="40.0869233" lon="15.2585967"><ele>90.25</ele><time>2026-05-02T09:33:34.984Z</time></trkpt><trkpt lat="40.0869717" lon="15.2583967"><ele>89.5</ele><time>2026-05-02T09:33:35.983Z</time></trkpt><trkpt lat="40.0870183" lon="15.2582083"><ele>88.75</ele><time>2026-05-02T09:33:36.983Z</time></trkpt><trkpt lat="40.08706" lon="15.2580383"><ele>88.0</ele><time>2026-05-02T09:33:37.983Z</time></trkpt><trkpt lat="40.0871067" lon="15.2578817"><ele>88.75</ele><time>2026-05-02T09:33:38.984Z</time></trkpt><trkpt lat="40.08717" lon="15.2577483"><ele>89.5</ele><time>2026-05-02T09:33:39.983Z</time></trkpt><trkpt lat="40.0872533" lon="15.25764"><ele>90.25</ele><time>2026-05-02T09:33:40.984Z</time></trkpt><trkpt lat="40.0873567" lon="15.2575583"><ele>91.0</ele><time>2026-05-02T09:33:41.983Z</time></trkpt><trkpt lat="40.0874683" lon="15.2575117"><ele>91.0</ele><time>2026-05-02T09:33:42.983Z</time></trkpt><trkpt lat="40.087585" lon="15.25749"><ele>91.0</ele><time>2026-05-02T09:33:43.983Z</time></trkpt><trkpt lat="40.0876983" lon="15.2574867"><ele>91.0</ele><time>2026-05-02T09:33:44.983Z</time></trkpt><trkpt lat="40.0878117" lon="15.257505"><ele>91.0</ele><time>2026-05-02T09:33:45.983Z</time></trkpt><trkpt lat="40.0879317" lon="15.2575167"><ele>91.0</ele><time>2026-05-02T09:33:46.983Z</time></trkpt><trkpt lat="40.0880533" lon="15.257515"><ele>91.0</ele><time>2026-05-02T09:33:47.984Z</time></trkpt><trkpt lat="40.0881767" lon="15.2574917"><ele>91.0</ele><time>2026-05-02T09:33:48.983Z</time></trkpt><trkpt lat="40.0882983" lon="15.2574583"><ele>91.0</ele><time>2026-05-02T09:33:49.983Z</time></trkpt><trkpt lat="40.0884283" lon="15.2574167"><ele>89.0</ele><time>2026-05-02T09:33:50.983Z</time></trkpt><trkpt lat="40.0885467" lon="15.2573717"><ele>87.0</ele><time>2026-05-02T09:33:51.984Z</time></trkpt><trkpt lat="40.08866" lon="15.2573133"><ele>85.0</ele><time>2026-05-02T09:33:52.984Z</time></trkpt><trkpt lat="40.0887567" lon="15.2572283"><ele>83.0</ele><time>2026-05-02T09:33:53.983Z</time></trkpt><trkpt lat="40.0888433" lon="15.2571283"><ele>83.0</ele><time>2026-05-02T09:33:54.983Z</time></trkpt><trkpt lat="40.08893" lon="15.2570183"><ele>83.0</ele><time>2026-05-02T09:33:55.983Z</time></trkpt><trkpt lat="40.089015" lon="15.2568933"><ele>83.0</ele><time>2026-05-02T09:33:56.984Z</time></trkpt><trkpt lat="40.0891067" lon="15.2567783"><ele>83.0</ele><time>2026-05-02T09:33:57.984Z</time></trkpt><trkpt lat="40.0892067" lon="15.2566817"><ele>90.0</ele><time>2026-05-02T09:33:58.983Z</time></trkpt><trkpt lat="40.0893167" lon="15.256615"><ele>97.0</ele><time>2026-05-02T09:33:59.984Z</time></trkpt><trkpt lat="40.0894333" lon="15.2565733"><ele>104.0</ele><time>2026-05-02T09:34:00.983Z</time></trkpt><trkpt lat="40.0895567" lon="15.2565617"><ele>111.0</ele><time>2026-05-02T09:34:01.983Z</time></trkpt><trkpt lat="40.0896883" lon="15.25655"><ele>111.0</ele><time>2026-05-02T09:34:02.984Z</time></trkpt><trkpt lat="40.0898183" lon="15.2565467"><ele>111.0</ele><time>2026-05-02T09:34:03.983Z</time></trkpt><trkpt lat="40.08994" lon="15.2565283"><ele>111.0</ele><time>2026-05-02T09:34:04.983Z</time></trkpt><trkpt lat="40.0900633" lon="15.256465"><ele>111.0</ele><time>2026-05-02T09:34:05.984Z</time></trkpt><trkpt lat="40.0901667" lon="15.2563683"><ele>111.0</ele><time>2026-05-02T09:34:06.984Z</time></trkpt><trkpt lat="40.09026" lon="15.2562583"><ele>111.0</ele><time>2026-05-02T09:34:07.984Z</time></trkpt><trkpt lat="40.0903267" lon="15.2561183"><ele>111.0</ele><time>2026-05-02T09:34:08.983Z</time></trkpt><trkpt lat="40.09037" lon="15.2559633"><ele>111.0</ele><time>2026-05-02T09:34:09.983Z</time></trkpt><trkpt lat="40.0904033" lon="15.2558033"><ele>111.0</ele><time>2026-05-02T09:34:10.983Z</time></trkpt><trkpt lat="40.090425" lon="15.2556267"><ele>111.0</ele><time>2026-05-02T09:34:11.983Z</time></trkpt><trkpt lat="40.09045" lon="15.2554583"><ele>111.0</ele><time>2026-05-02T09:34:12.983Z</time></trkpt><trkpt lat="40.0904767" lon="15.2552733"><ele>111.0</ele><time>2026-05-02T09:34:13.984Z</time></trkpt><trkpt lat="40.0905017" lon="15.2550817"><ele>109.33333333333334</ele><time>2026-05-02T09:34:14.984Z</time></trkpt><trkpt lat="40.0905333" lon="15.2548883"><ele>107.66666666666667</ele><time>2026-05-02T09:34:15.983Z</time></trkpt><trkpt lat="40.09057" lon="15.2546767"><ele>106.0</ele><time>2026-05-02T09:34:16.983Z</time></trkpt><trkpt lat="40.0906033" lon="15.2544667"><ele>105.0</ele><time>2026-05-02T09:34:17.983Z</time></trkpt><trkpt lat="40.0906367" lon="15.2542667"><ele>104.0</ele><time>2026-05-02T09:34:18.983Z</time></trkpt><trkpt lat="40.0906683" lon="15.2540567"><ele>103.0</ele><time>2026-05-02T09:34:19.984Z</time></trkpt><trkpt lat="40.0906917" lon="15.25384"><ele>100.66666666666667</ele><time>2026-05-02T09:34:20.984Z</time></trkpt><trkpt lat="40.090715" lon="15.2536167"><ele>98.33333333333334</ele><time>2026-05-02T09:34:21.983Z</time></trkpt><trkpt lat="40.0907217" lon="15.253395"><ele>96.0</ele><time>2026-05-02T09:34:22.983Z</time></trkpt><trkpt lat="40.0907183" lon="15.2531733"><ele>93.66666666666667</ele><time>2026-05-02T09:34:23.984Z</time></trkpt><trkpt lat="40.0907233" lon="15.252955"><ele>91.33333333333334</ele><time>2026-05-02T09:34:24.984Z</time></trkpt><trkpt lat="40.09074" lon="15.25275"><ele>89.0</ele><time>2026-05-02T09:34:25.983Z</time></trkpt><trkpt lat="40.0907717" lon="15.25255"><ele>96.5</ele><time>2026-05-02T09:34:26.983Z</time></trkpt><trkpt lat="40.0908217" lon="15.25237"><ele>104.0</ele><time>2026-05-02T09:34:27.983Z</time></trkpt><trkpt lat="40.0908883" lon="15.2522"><ele>111.5</ele><time>2026-05-02T09:34:28.984Z</time></trkpt><trkpt lat="40.0909733" lon="15.2520383"><ele>119.0</ele><time>2026-05-02T09:34:29.983Z</time></trkpt><trkpt lat="40.0910667" lon="15.2518817"><ele>119.0</ele><time>2026-05-02T09:34:30.983Z</time></trkpt><trkpt lat="40.0911617" lon="15.25171"><ele>119.0</ele><time>2026-05-02T09:34:31.983Z</time></trkpt><trkpt lat="40.091245" lon="15.25153"><ele>119.0</ele><time>2026-05-02T09:34:32.983Z</time></trkpt><trkpt lat="40.0913183" lon="15.2513367"><ele>113.66666666666666</ele><time>2026-05-02T09:34:33.983Z</time></trkpt><trkpt lat="40.09138" lon="15.2511433"><ele>108.33333333333334</ele><time>2026-05-02T09:34:34.983Z</time></trkpt><trkpt lat="40.0914467" lon="15.2509533"><ele>103.0</ele><time>2026-05-02T09:34:35.984Z</time></trkpt><trkpt lat="40.0915283" lon="15.2507683"><ele>112.0</ele><time>2026-05-02T09:34:36.983Z</time></trkpt><trkpt lat="40.0916167" lon="15.2505933"><ele>121.0</ele><time>2026-05-02T09:34:37.983Z</time></trkpt><trkpt lat="40.0917067" lon="15.2504233"><ele>130.0</ele><time>2026-05-02T09:34:38.983Z</time></trkpt><trkpt lat="40.091795" lon="15.2502483"><ele>130.0</ele><time>2026-05-02T09:34:39.983Z</time></trkpt><trkpt lat="40.0918867" lon="15.2500833"><ele>130.0</ele><time>2026-05-02T09:34:40.983Z</time></trkpt><trkpt lat="40.09197" lon="15.2499133"><ele>130.0</ele><time>2026-05-02T09:34:41.983Z</time></trkpt><trkpt lat="40.0920583" lon="15.249745"><ele>123.33333333333334</ele><time>2026-05-02T09:34:42.984Z</time></trkpt><trkpt lat="40.0921417" lon="15.2495817"><ele>116.66666666666666</ele><time>2026-05-02T09:34:43.984Z</time></trkpt><trkpt lat="40.0922283" lon="15.24943"><ele>110.0</ele><time>2026-05-02T09:34:44.983Z</time></trkpt><trkpt lat="40.09231" lon="15.24925"><ele>110.0</ele><time>2026-05-02T09:34:45.983Z</time></trkpt><trkpt lat="40.0923883" lon="15.249105"><ele>110.0</ele><time>2026-05-02T09:34:46.984Z</time></trkpt><trkpt lat="40.092465" lon="15.2489433"><ele>110.0</ele><time>2026-05-02T09:34:47.984Z</time></trkpt><trkpt lat="40.0925283" lon="15.248795"><ele>110.0</ele><time>2026-05-02T09:34:48.983Z</time></trkpt><trkpt lat="40.0925783" lon="15.2486467"><ele>118.25</ele><time>2026-05-02T09:34:49.984Z</time></trkpt><trkpt lat="40.092615" lon="15.2484933"><ele>126.5</ele><time>2026-05-02T09:34:50.983Z</time></trkpt><trkpt lat="40.09263" lon="15.248345"><ele>134.75</ele><time>2026-05-02T09:34:51.983Z</time></trkpt><trkpt lat="40.0926317" lon="15.248195"><ele>143.0</ele><time>2026-05-02T09:34:52.984Z</time></trkpt><trkpt lat="40.09262" lon="15.24805"><ele>143.0</ele><time>2026-05-02T09:34:53.983Z</time></trkpt><trkpt lat="40.09261" lon="15.2479083"><ele>143.0</ele><time>2026-05-02T09:34:54.983Z</time></trkpt><trkpt lat="40.092615" lon="15.2477667"><ele>143.0</ele><time>2026-05-02T09:34:55.983Z</time></trkpt><trkpt lat="40.09264" lon="15.2476183"><ele>143.0</ele><time>2026-05-02T09:34:56.983Z</time></trkpt><trkpt lat="40.0926767" lon="15.2474617"><ele>143.0</ele><time>2026-05-02T09:34:57.983Z</time></trkpt><trkpt lat="40.0927017" lon="15.2473067"><ele>143.0</ele><time>2026-05-02T09:34:58.983Z</time></trkpt><trkpt lat="40.092735" lon="15.2471367"><ele>143.0</ele><time>2026-05-02T09:34:59.984Z</time></trkpt><trkpt lat="40.09276" lon="15.2469767"><ele>143.0</ele><time>2026-05-02T09:35:00.984Z</time></trkpt><trkpt lat="40.0927983" lon="15.2468083"><ele>139.75</ele><time>2026-05-02T09:35:01.983Z</time></trkpt><trkpt lat="40.0928433" lon="15.2466467"><ele>136.5</ele><time>2026-05-02T09:35:02.984Z</time></trkpt><trkpt lat="40.0929" lon="15.24649"><ele>133.25</ele><time>2026-05-02T09:35:03.983Z</time></trkpt><trkpt lat="40.092965" lon="15.2463467"><ele>130.0</ele><time>2026-05-02T09:35:04.983Z</time></trkpt><trkpt lat="40.093045" lon="15.2462133"><ele>125.75</ele><time>2026-05-02T09:35:05.983Z</time></trkpt><trkpt lat="40.0931333" lon="15.2460867"><ele>121.5</ele><time>2026-05-02T09:35:06.983Z</time></trkpt><trkpt lat="40.0932333" lon="15.2459667"><ele>117.25</ele><time>2026-05-02T09:35:07.983Z</time></trkpt><trkpt lat="40.0933433" lon="15.2458767"><ele>113.0</ele><time>2026-05-02T09:35:08.983Z</time></trkpt><trkpt lat="40.0934633" lon="15.2458117"><ele>121.2</ele><time>2026-05-02T09:35:09.983Z</time></trkpt><trkpt lat="40.09358" lon="15.2457917"><ele>129.4</ele><time>2026-05-02T09:35:10.983Z</time></trkpt><trkpt lat="40.09369" lon="15.2457867"><ele>137.60000000000002</ele><time>2026-05-02T09:35:11.984Z</time></trkpt><trkpt lat="40.09378" lon="15.2457867"><ele>145.8</ele><time>2026-05-02T09:35:12.983Z</time></trkpt><trkpt lat="40.0938683" lon="15.2457533"><ele>154.0</ele><time>2026-05-02T09:35:13.983Z</time></trkpt><trkpt lat="40.09393" lon="15.2456867"><ele>150.16666666666669</ele><time>2026-05-02T09:35:14.984Z</time></trkpt><trkpt lat="40.0939667" lon="15.245595"><ele>146.33333333333334</ele><time>2026-05-02T09:35:15.983Z</time></trkpt><trkpt lat="40.093985" lon="15.245495"><ele>142.5</ele><time>2026-05-02T09:35:16.983Z</time></trkpt><trkpt lat="40.0939833" lon="15.2453833"><ele>138.66666666666666</ele><time>2026-05-02T09:35:17.983Z</time></trkpt><trkpt lat="40.0939717" lon="15.2452733"><ele>134.83333333333331</ele><time>2026-05-02T09:35:18.984Z</time></trkpt><trkpt lat="40.0939633" lon="15.2451617"><ele>131.0</ele><time>2026-05-02T09:35:19.983Z</time></trkpt><trkpt lat="40.0939683" lon="15.2450317"><ele>131.0</ele><time>2026-05-02T09:35:20.983Z</time></trkpt><trkpt lat="40.0940017" lon="15.2449033"><ele>131.0</ele><time>2026-05-02T09:35:21.983Z</time></trkpt><trkpt lat="40.094055" lon="15.2447783"><ele>131.0</ele><time>2026-05-02T09:35:22.983Z</time></trkpt><trkpt lat="40.0941217" lon="15.2446517"><ele>131.0</ele><time>2026-05-02T09:35:23.983Z</time></trkpt><trkpt lat="40.0941967" lon="15.244525"><ele>137.5</ele><time>2026-05-02T09:35:24.984Z</time></trkpt><trkpt lat="40.0942817" lon="15.2444067"><ele>144.0</ele><time>2026-05-02T09:35:25.984Z</time></trkpt><trkpt lat="40.0943717" lon="15.2442983"><ele>150.5</ele><time>2026-05-02T09:35:26.984Z</time></trkpt><trkpt lat="40.0944667" lon="15.2441817"><ele>157.0</ele><time>2026-05-02T09:35:27.984Z</time></trkpt><trkpt lat="40.094565" lon="15.2440633"><ele>153.75</ele><time>2026-05-02T09:35:28.984Z</time></trkpt><trkpt lat="40.094665" lon="15.2439433"><ele>150.5</ele><time>2026-05-02T09:35:29.983Z</time></trkpt><trkpt lat="40.0947667" lon="15.2438167"><ele>147.25</ele><time>2026-05-02T09:35:30.983Z</time></trkpt><trkpt lat="40.0948683" lon="15.2436883"><ele>144.0</ele><time>2026-05-02T09:35:31.983Z</time></trkpt><trkpt lat="40.09498" lon="15.2435667"><ele>146.5</ele><time>2026-05-02T09:35:32.984Z</time></trkpt><trkpt lat="40.095085" lon="15.2434417"><ele>149.0</ele><time>2026-05-02T09:35:33.983Z</time></trkpt><trkpt lat="40.0951933" lon="15.2433017"><ele>151.5</ele><time>2026-05-02T09:35:34.984Z</time></trkpt><trkpt lat="40.095305" lon="15.243165"><ele>154.0</ele><time>2026-05-02T09:35:35.983Z</time></trkpt><trkpt lat="40.095415" lon="15.243025"><ele>154.0</ele><time>2026-05-02T09:35:36.984Z</time></trkpt><trkpt lat="40.0955233" lon="15.2428933"><ele>154.0</ele><time>2026-05-02T09:35:37.983Z</time></trkpt><trkpt lat="40.095635" lon="15.2427667"><ele>154.0</ele><time>2026-05-02T09:35:38.983Z</time></trkpt><trkpt lat="40.0957517" lon="15.2426367"><ele>154.0</ele><time>2026-05-02T09:35:39.983Z</time></trkpt><trkpt lat="40.0958633" lon="15.2425083"><ele>155.25</ele><time>2026-05-02T09:35:40.984Z</time></trkpt><trkpt lat="40.0959783" lon="15.2423917"><ele>156.5</ele><time>2026-05-02T09:35:41.983Z</time></trkpt><trkpt lat="40.0960917" lon="15.2422817"><ele>157.75</ele><time>2026-05-02T09:35:42.983Z</time></trkpt><trkpt lat="40.0962017" lon="15.242165"><ele>159.0</ele><time>2026-05-02T09:35:43.983Z</time></trkpt><trkpt lat="40.0963033" lon="15.2420617"><ele>159.0</ele><time>2026-05-02T09:35:44.983Z</time></trkpt><trkpt lat="40.0964" lon="15.2419467"><ele>159.0</ele><time>2026-05-02T09:35:45.984Z</time></trkpt><trkpt lat="40.0964967" lon="15.241835"><ele>159.0</ele><time>2026-05-02T09:35:46.983Z</time></trkpt><trkpt lat="40.0965967" lon="15.2417167"><ele>159.0</ele><time>2026-05-02T09:35:47.984Z</time></trkpt><trkpt lat="40.0966983" lon="15.2416017"><ele>159.0</ele><time>2026-05-02T09:35:48.984Z</time></trkpt><trkpt lat="40.0967967" lon="15.2414917"><ele>159.0</ele><time>2026-05-02T09:35:49.984Z</time></trkpt><trkpt lat="40.0968983" lon="15.2413717"><ele>159.0</ele><time>2026-05-02T09:35:50.984Z</time></trkpt><trkpt lat="40.0969983" lon="15.2412533"><ele>159.0</ele><time>2026-05-02T09:35:51.983Z</time></trkpt><trkpt lat="40.0971017" lon="15.2411383"><ele>159.0</ele><time>2026-05-02T09:35:52.983Z</time></trkpt><trkpt lat="40.0972167" lon="15.2410367"><ele>159.0</ele><time>2026-05-02T09:35:53.984Z</time></trkpt><trkpt lat="40.0973367" lon="15.2409367"><ele>159.0</ele><time>2026-05-02T09:35:54.983Z</time></trkpt><trkpt lat="40.0974567" lon="15.24084"><ele>159.0</ele><time>2026-05-02T09:35:55.984Z</time></trkpt><trkpt lat="40.0975833" lon="15.2407533"><ele>158.0</ele><time>2026-05-02T09:35:56.983Z</time></trkpt><trkpt lat="40.0977033" lon="15.2406633"><ele>157.0</ele><time>2026-05-02T09:35:57.983Z</time></trkpt><trkpt lat="40.0978267" lon="15.2405717"><ele>156.0</ele><time>2026-05-02T09:35:58.984Z</time></trkpt><trkpt lat="40.0979483" lon="15.2405"><ele>155.0</ele><time>2026-05-02T09:35:59.983Z</time></trkpt><trkpt lat="40.0980667" lon="15.2404517"><ele>155.0</ele><time>2026-05-02T09:36:00.983Z</time></trkpt><trkpt lat="40.0981817" lon="15.2404317"><ele>155.0</ele><time>2026-05-02T09:36:01.983Z</time></trkpt><trkpt lat="40.0982933" lon="15.2404333"><ele>155.0</ele><time>2026-05-02T09:36:02.983Z</time></trkpt><trkpt lat="40.0983917" lon="15.2404567"><ele>155.0</ele><time>2026-05-02T09:36:03.984Z</time></trkpt><trkpt lat="40.0984783" lon="15.2404883"><ele>155.0</ele><time>2026-05-02T09:36:04.983Z</time></trkpt><trkpt lat="40.098555" lon="15.24049"><ele>159.8</ele><time>2026-05-02T09:36:05.984Z</time></trkpt><trkpt lat="40.0986283" lon="15.2404633"><ele>164.6</ele><time>2026-05-02T09:36:06.983Z</time></trkpt><trkpt lat="40.09869" lon="15.2403983"><ele>169.39999999999998</ele><time>2026-05-02T09:36:07.983Z</time></trkpt><trkpt lat="40.0987433" lon="15.2402933"><ele>174.2</ele><time>2026-05-02T09:36:08.983Z</time></trkpt><trkpt lat="40.0987917" lon="15.2401783"><ele>179.0</ele><time>2026-05-02T09:36:09.983Z</time></trkpt><trkpt lat="40.09884" lon="15.2400517"><ele>179.0</ele><time>2026-05-02T09:36:10.983Z</time></trkpt><trkpt lat="40.0988867" lon="15.2399233"><ele>179.0</ele><time>2026-05-02T09:36:11.983Z</time></trkpt><trkpt lat="40.0989433" lon="15.2397967"><ele>179.0</ele><time>2026-05-02T09:36:12.983Z</time></trkpt><trkpt lat="40.0990033" lon="15.2396717"><ele>179.0</ele><time>2026-05-02T09:36:13.983Z</time></trkpt><trkpt lat="40.0990783" lon="15.2395467"><ele>180.75</ele><time>2026-05-02T09:36:14.984Z</time></trkpt><trkpt lat="40.0991633" lon="15.2394167"><ele>182.5</ele><time>2026-05-02T09:36:15.984Z</time></trkpt><trkpt lat="40.0992567" lon="15.2392933"><ele>184.25</ele><time>2026-05-02T09:36:16.983Z</time></trkpt><trkpt lat="40.0993533" lon="15.239175"><ele>186.0</ele><time>2026-05-02T09:36:17.983Z</time></trkpt><trkpt lat="40.099455" lon="15.2390583"><ele>176.5</ele><time>2026-05-02T09:36:18.983Z</time></trkpt><trkpt lat="40.0995533" lon="15.2389517"><ele>167.0</ele><time>2026-05-02T09:36:19.984Z</time></trkpt><trkpt lat="40.0996567" lon="15.2388567"><ele>157.5</ele><time>2026-05-02T09:36:20.984Z</time></trkpt><trkpt lat="40.0997733" lon="15.238775"><ele>148.0</ele><time>2026-05-02T09:36:21.983Z</time></trkpt><trkpt lat="40.0999033" lon="15.238705"><ele>154.5</ele><time>2026-05-02T09:36:22.983Z</time></trkpt><trkpt lat="40.1000267" lon="15.2386533"><ele>161.0</ele><time>2026-05-02T09:36:23.983Z</time></trkpt><trkpt lat="40.1001467" lon="15.238615"><ele>167.5</ele><time>2026-05-02T09:36:24.983Z</time></trkpt><trkpt lat="40.100255" lon="15.2385967"><ele>174.0</ele><time>2026-05-02T09:36:25.983Z</time></trkpt><trkpt lat="40.1003583" lon="15.2385933"><ele>174.0</ele><time>2026-05-02T09:36:26.983Z</time></trkpt><trkpt lat="40.10047" lon="15.238625"><ele>174.0</ele><time>2026-05-02T09:36:27.984Z</time></trkpt><trkpt lat="40.1005717" lon="15.2386867"><ele>174.0</ele><time>2026-05-02T09:36:28.984Z</time></trkpt><trkpt lat="40.1006683" lon="15.238765"><ele>174.0</ele><time>2026-05-02T09:36:29.983Z</time></trkpt><trkpt lat="40.10075" lon="15.238865"><ele>178.0</ele><time>2026-05-02T09:36:30.984Z</time></trkpt><trkpt lat="40.1008117" lon="15.23898"><ele>182.0</ele><time>2026-05-02T09:36:31.983Z</time></trkpt><trkpt lat="40.1008617" lon="15.2390867"><ele>186.0</ele><time>2026-05-02T09:36:32.984Z</time></trkpt><trkpt lat="40.1008967" lon="15.2392167"><ele>190.0</ele><time>2026-05-02T09:36:33.983Z</time></trkpt><trkpt lat="40.1009183" lon="15.2393383"><ele>194.0</ele><time>2026-05-02T09:36:34.983Z</time></trkpt><trkpt lat="40.1009067" lon="15.2394867"><ele>194.0</ele><time>2026-05-02T09:36:35.983Z</time></trkpt><trkpt lat="40.1008967" lon="15.23964"><ele>194.0</ele><time>2026-05-02T09:36:36.984Z</time></trkpt><trkpt lat="40.1008767" lon="15.2397983"><ele>194.0</ele><time>2026-05-02T09:36:37.983Z</time></trkpt><trkpt lat="40.1008533" lon="15.2399683"><ele>194.0</ele><time>2026-05-02T09:36:38.983Z</time></trkpt><trkpt lat="40.1008367" lon="15.2401183"><ele>195.57142857142856</ele><time>2026-05-02T09:36:39.983Z</time></trkpt><trkpt lat="40.1008467" lon="15.240235"><ele>197.14285714285717</ele><time>2026-05-02T09:36:40.983Z</time></trkpt><trkpt lat="40.1008667" lon="15.2403283"><ele>198.71428571428572</ele><time>2026-05-02T09:36:41.983Z</time></trkpt><trkpt lat="40.1009067" lon="15.2403967"><ele>200.28571428571428</ele><time>2026-05-02T09:36:42.983Z</time></trkpt><trkpt lat="40.10097" lon="15.240435"><ele>201.85714285714283</ele><time>2026-05-02T09:36:43.983Z</time></trkpt><trkpt lat="40.10104" lon="15.2404583"><ele>203.42857142857144</ele><time>2026-05-02T09:36:44.984Z</time></trkpt><trkpt lat="40.1011117" lon="15.2404583"><ele>205.0</ele><time>2026-05-02T09:36:45.984Z</time></trkpt><trkpt lat="40.1011767" lon="15.2404383"><ele>205.0</ele><time>2026-05-02T09:36:46.983Z</time></trkpt><trkpt lat="40.10125" lon="15.2403467"><ele>205.0</ele><time>2026-05-02T09:36:47.983Z</time></trkpt><trkpt lat="40.101305" lon="15.24024"><ele>205.0</ele><time>2026-05-02T09:36:48.984Z</time></trkpt><trkpt lat="40.1013433" lon="15.24011"><ele>205.0</ele><time>2026-05-02T09:36:49.983Z</time></trkpt><trkpt lat="40.1013817" lon="15.2399617"><ele>205.0</ele><time>2026-05-02T09:36:50.984Z</time></trkpt><trkpt lat="40.1014267" lon="15.2398017"><ele>203.0</ele><time>2026-05-02T09:36:51.983Z</time></trkpt><trkpt lat="40.1014867" lon="15.23964"><ele>201.0</ele><time>2026-05-02T09:36:52.983Z</time></trkpt><trkpt lat="40.101545" lon="15.2394717"><ele>199.0</ele><time>2026-05-02T09:36:53.984Z</time></trkpt><trkpt lat="40.1016067" lon="15.2392933"><ele>197.0</ele><time>2026-05-02T09:36:54.983Z</time></trkpt><trkpt lat="40.1016683" lon="15.2391167"><ele>192.5</ele><time>2026-05-02T09:36:55.984Z</time></trkpt><trkpt lat="40.10173" lon="15.2389517"><ele>188.0</ele><time>2026-05-02T09:36:56.984Z</time></trkpt><trkpt lat="40.101775" lon="15.238815"><ele>183.5</ele><time>2026-05-02T09:36:57.983Z</time></trkpt><trkpt lat="40.1018133" lon="15.2386317"><ele>179.0</ele><time>2026-05-02T09:36:58.984Z</time></trkpt><trkpt lat="40.10183" lon="15.238465"><ele>179.0</ele><time>2026-05-02T09:36:59.984Z</time></trkpt><trkpt lat="40.1018283" lon="15.2383067"><ele>179.0</ele><time>2026-05-02T09:37:00.984Z</time></trkpt><trkpt lat="40.1018233" lon="15.238165"><ele>179.0</ele><time>2026-05-02T09:37:01.983Z</time></trkpt><trkpt lat="40.10183" lon="15.2380167"><ele>179.0</ele><time>2026-05-02T09:37:02.983Z</time></trkpt><trkpt lat="40.1018667" lon="15.2378967"><ele>179.0</ele><time>2026-05-02T09:37:03.983Z</time></trkpt><trkpt lat="40.1019333" lon="15.2378083"><ele>173.39999999999998</ele><time>2026-05-02T09:37:04.984Z</time></trkpt><trkpt lat="40.1020117" lon="15.2377717"><ele>167.79999999999998</ele><time>2026-05-02T09:37:05.983Z</time></trkpt><trkpt lat="40.102095" lon="15.237765"><ele>162.2</ele><time>2026-05-02T09:37:06.984Z</time></trkpt><trkpt lat="40.10219" lon="15.2377783"><ele>156.6</ele><time>2026-05-02T09:37:07.984Z</time></trkpt><trkpt lat="40.1022967" lon="15.23779"><ele>151.0</ele><time>2026-05-02T09:37:08.983Z</time></trkpt><trkpt lat="40.1024033" lon="15.2377867"><ele>156.0</ele><time>2026-05-02T09:37:09.984Z</time></trkpt><trkpt lat="40.1025017" lon="15.2377367"><ele>161.0</ele><time>2026-05-02T09:37:10.983Z</time></trkpt><trkpt lat="40.1025883" lon="15.2376433"><ele>166.0</ele><time>2026-05-02T09:37:11.984Z</time></trkpt><trkpt lat="40.1026717" lon="15.2375367"><ele>171.0</ele><time>2026-05-02T09:37:12.983Z</time></trkpt><trkpt lat="40.1027567" lon="15.2374417"><ele>176.0</ele><time>2026-05-02T09:37:13.983Z</time></trkpt><trkpt lat="40.1028533" lon="15.2373667"><ele>174.75</ele><time>2026-05-02T09:37:14.984Z</time></trkpt><trkpt lat="40.1029583" lon="15.2372967"><ele>173.5</ele><time>2026-05-02T09:37:15.984Z</time></trkpt><trkpt lat="40.10307" lon="15.2372333"><ele>172.25</ele><time>2026-05-02T09:37:16.983Z</time></trkpt><trkpt lat="40.1031817" lon="15.2371517"><ele>171.0</ele><time>2026-05-02T09:37:17.984Z</time></trkpt><trkpt lat="40.103285" lon="15.2370717"><ele>171.0</ele><time>2026-05-02T09:37:18.984Z</time></trkpt><trkpt lat="40.1033817" lon="15.2369817"><ele>171.0</ele><time>2026-05-02T09:37:19.984Z</time></trkpt><trkpt lat="40.1034683" lon="15.236885"><ele>171.0</ele><time>2026-05-02T09:37:20.983Z</time></trkpt><trkpt lat="40.1035517" lon="15.23679"><ele>171.0</ele><time>2026-05-02T09:37:21.984Z</time></trkpt><trkpt lat="40.1036933" lon="15.236595"><ele>171.0</ele><time>2026-05-02T09:37:23.984Z</time></trkpt><trkpt lat="40.10377" lon="15.2364817"><ele>171.0</ele><time>2026-05-02T09:37:24.983Z</time></trkpt><trkpt lat="40.1038433" lon="15.236375"><ele>171.0</ele><time>2026-05-02T09:37:25.984Z</time></trkpt><trkpt lat="40.1039217" lon="15.2362667"><ele>171.0</ele><time>2026-05-02T09:37:26.984Z</time></trkpt><trkpt lat="40.103995" lon="15.23621"><ele>171.0</ele><time>2026-05-02T09:37:27.984Z</time></trkpt><trkpt lat="40.10407" lon="15.2361833"><ele>168.8</ele><time>2026-05-02T09:37:28.983Z</time></trkpt><trkpt lat="40.1041467" lon="15.2361833"><ele>166.60000000000002</ele><time>2026-05-02T09:37:29.983Z</time></trkpt><trkpt lat="40.1042367" lon="15.2362283"><ele>164.4</ele><time>2026-05-02T09:37:30.984Z</time></trkpt><trkpt lat="40.1043317" lon="15.23629"><ele>162.2</ele><time>2026-05-02T09:37:31.983Z</time></trkpt><trkpt lat="40.1044383" lon="15.2363283"><ele>160.0</ele><time>2026-05-02T09:37:32.983Z</time></trkpt><trkpt lat="40.1045583" lon="15.2363233"><ele>160.0</ele><time>2026-05-02T09:37:33.983Z</time></trkpt><trkpt lat="40.104675" lon="15.2363183"><ele>160.0</ele><time>2026-05-02T09:37:34.984Z</time></trkpt><trkpt lat="40.1048" lon="15.23633"><ele>160.0</ele><time>2026-05-02T09:37:35.983Z</time></trkpt><trkpt lat="40.104925" lon="15.2363667"><ele>160.0</ele><time>2026-05-02T09:37:36.983Z</time></trkpt><trkpt lat="40.1050467" lon="15.23642"><ele>162.5</ele><time>2026-05-02T09:37:37.983Z</time></trkpt><trkpt lat="40.1051567" lon="15.2364733"><ele>165.0</ele><time>2026-05-02T09:37:38.983Z</time></trkpt><trkpt lat="40.10527" lon="15.2365233"><ele>167.5</ele><time>2026-05-02T09:37:39.984Z</time></trkpt><trkpt lat="40.1053783" lon="15.2365783"><ele>170.0</ele><time>2026-05-02T09:37:40.984Z</time></trkpt><trkpt lat="40.105485" lon="15.2366317"><ele>170.0</ele><time>2026-05-02T09:37:41.983Z</time></trkpt><trkpt lat="40.105595" lon="15.236685"><ele>170.0</ele><time>2026-05-02T09:37:42.983Z</time></trkpt><trkpt lat="40.1057033" lon="15.2367483"><ele>170.0</ele><time>2026-05-02T09:37:43.983Z</time></trkpt><trkpt lat="40.1058217" lon="15.23681"><ele>170.0</ele><time>2026-05-02T09:37:44.983Z</time></trkpt><trkpt lat="40.1059383" lon="15.236875"><ele>166.75</ele><time>2026-05-02T09:37:45.984Z</time></trkpt><trkpt lat="40.1060633" lon="15.2369417"><ele>163.5</ele><time>2026-05-02T09:37:46.983Z</time></trkpt><trkpt lat="40.1061883" lon="15.2370067"><ele>160.25</ele><time>2026-05-02T09:37:47.983Z</time></trkpt><trkpt lat="40.106315" lon="15.2370817"><ele>157.0</ele><time>2026-05-02T09:37:48.983Z</time></trkpt><trkpt lat="40.1064517" lon="15.2371483"><ele>162.0</ele><time>2026-05-02T09:37:49.983Z</time></trkpt><trkpt lat="40.1065933" lon="15.2372233"><ele>167.0</ele><time>2026-05-02T09:37:50.983Z</time></trkpt><trkpt lat="40.1067367" lon="15.237295"><ele>172.0</ele><time>2026-05-02T09:37:51.984Z</time></trkpt><trkpt lat="40.1068767" lon="15.2373617"><ele>172.0</ele><time>2026-05-02T09:37:52.984Z</time></trkpt><trkpt lat="40.1070167" lon="15.23744"><ele>172.0</ele><time>2026-05-02T09:37:53.983Z</time></trkpt><trkpt lat="40.107145" lon="15.2375217"><ele>172.0</ele><time>2026-05-02T09:37:54.984Z</time></trkpt><trkpt lat="40.1072683" lon="15.237595"><ele>172.0</ele><time>2026-05-02T09:37:55.983Z</time></trkpt><trkpt lat="40.1073917" lon="15.23766"><ele>170.83333333333334</ele><time>2026-05-02T09:37:56.983Z</time></trkpt><trkpt lat="40.1075" lon="15.2377133"><ele>169.66666666666669</ele><time>2026-05-02T09:37:57.983Z</time></trkpt><trkpt lat="40.1075983" lon="15.237735"><ele>168.5</ele><time>2026-05-02T09:37:58.983Z</time></trkpt><trkpt lat="40.1076783" lon="15.2377317"><ele>167.33333333333334</ele><time>2026-05-02T09:37:59.984Z</time></trkpt><trkpt lat="40.107745" lon="15.2377"><ele>166.16666666666666</ele><time>2026-05-02T09:38:00.983Z</time></trkpt><trkpt lat="40.1078117" lon="15.23764"><ele>165.0</ele><time>2026-05-02T09:38:01.983Z</time></trkpt><trkpt lat="40.1078783" lon="15.2375883"><ele>165.0</ele><time>2026-05-02T09:38:02.983Z</time></trkpt><trkpt lat="40.1079467" lon="15.2375417"><ele>165.0</ele><time>2026-05-02T09:38:03.983Z</time></trkpt><trkpt lat="40.1080167" lon="15.237485"><ele>165.0</ele><time>2026-05-02T09:38:04.983Z</time></trkpt><trkpt lat="40.1080817" lon="15.2373983"><ele>165.0</ele><time>2026-05-02T09:38:05.983Z</time></trkpt><trkpt lat="40.108135" lon="15.2373033"><ele>165.0</ele><time>2026-05-02T09:38:06.984Z</time></trkpt><trkpt lat="40.1081617" lon="15.2372017"><ele>165.0</ele><time>2026-05-02T09:38:07.983Z</time></trkpt><trkpt lat="40.1081467" lon="15.2370983"><ele>167.42857142857144</ele><time>2026-05-02T09:38:08.983Z</time></trkpt><trkpt lat="40.1081283" lon="15.2370133"><ele>169.85714285714286</ele><time>2026-05-02T09:38:09.984Z</time></trkpt><trkpt lat="40.1081117" lon="15.2369283"><ele>172.28571428571428</ele><time>2026-05-02T09:38:10.984Z</time></trkpt><trkpt lat="40.1081133" lon="15.2368417"><ele>174.71428571428572</ele><time>2026-05-02T09:38:11.983Z</time></trkpt><trkpt lat="40.108145" lon="15.2367567"><ele>177.14285714285714</ele><time>2026-05-02T09:38:12.983Z</time></trkpt><trkpt lat="40.1081933" lon="15.2366717"><ele>179.57142857142858</ele><time>2026-05-02T09:38:13.983Z</time></trkpt><trkpt lat="40.1082567" lon="15.2365983"><ele>182.0</ele><time>2026-05-02T09:38:14.983Z</time></trkpt><trkpt lat="40.108325" lon="15.2365267"><ele>178.6</ele><time>2026-05-02T09:38:15.983Z</time></trkpt><trkpt lat="40.108395" lon="15.2364517"><ele>175.2</ele><time>2026-05-02T09:38:16.983Z</time></trkpt><trkpt lat="40.1084667" lon="15.2363517"><ele>171.8</ele><time>2026-05-02T09:38:17.983Z</time></trkpt><trkpt lat="40.10853" lon="15.2362567"><ele>168.4</ele><time>2026-05-02T09:38:18.984Z</time></trkpt><trkpt lat="40.1085833" lon="15.236145"><ele>165.0</ele><time>2026-05-02T09:38:19.983Z</time></trkpt><trkpt lat="40.10864" lon="15.2360683"><ele>165.0</ele><time>2026-05-02T09:38:20.983Z</time></trkpt><trkpt lat="40.10871" lon="15.2359983"><ele>165.0</ele><time>2026-05-02T09:38:21.983Z</time></trkpt><trkpt lat="40.108775" lon="15.23592"><ele>165.0</ele><time>2026-05-02T09:38:22.983Z</time></trkpt><trkpt lat="40.1088333" lon="15.2358333"><ele>165.0</ele><time>2026-05-02T09:38:23.984Z</time></trkpt><trkpt lat="40.1088817" lon="15.2357317"><ele>165.0</ele><time>2026-05-02T09:38:24.983Z</time></trkpt><trkpt lat="40.1089217" lon="15.23562"><ele>164.83333333333334</ele><time>2026-05-02T09:38:25.983Z</time></trkpt><trkpt lat="40.108965" lon="15.23551"><ele>164.66666666666666</ele><time>2026-05-02T09:38:26.984Z</time></trkpt><trkpt lat="40.10899" lon="15.235425"><ele>164.5</ele><time>2026-05-02T09:38:27.983Z</time></trkpt><trkpt lat="40.1090317" lon="15.235345"><ele>164.33333333333331</ele><time>2026-05-02T09:38:28.984Z</time></trkpt><trkpt lat="40.1090783" lon="15.235285"><ele>164.16666666666666</ele><time>2026-05-02T09:38:29.983Z</time></trkpt><trkpt lat="40.109135" lon="15.235225"><ele>164.0</ele><time>2026-05-02T09:38:30.983Z</time></trkpt><trkpt lat="40.1092017" lon="15.235165"><ele>167.5</ele><time>2026-05-02T09:38:31.984Z</time></trkpt><trkpt lat="40.1092583" lon="15.2350917"><ele>171.0</ele><time>2026-05-02T09:38:32.984Z</time></trkpt><trkpt lat="40.1092933" lon="15.2350083"><ele>174.5</ele><time>2026-05-02T09:38:33.983Z</time></trkpt><trkpt lat="40.109315" lon="15.2349167"><ele>178.0</ele><time>2026-05-02T09:38:34.984Z</time></trkpt><trkpt lat="40.1093083" lon="15.2348217"><ele>181.5</ele><time>2026-05-02T09:38:35.983Z</time></trkpt><trkpt lat="40.1092767" lon="15.234725"><ele>185.0</ele><time>2026-05-02T09:38:36.983Z</time></trkpt><trkpt lat="40.1092333" lon="15.2346317"><ele>186.16666666666666</ele><time>2026-05-02T09:38:37.983Z</time></trkpt><trkpt lat="40.1091833" lon="15.2345367"><ele>187.33333333333331</ele><time>2026-05-02T09:38:38.983Z</time></trkpt><trkpt lat="40.109135" lon="15.2344367"><ele>188.5</ele><time>2026-05-02T09:38:39.983Z</time></trkpt><trkpt lat="40.1091033" lon="15.23433"><ele>189.66666666666666</ele><time>2026-05-02T09:38:40.983Z</time></trkpt><trkpt lat="40.1090883" lon="15.23424"><ele>190.83333333333334</ele><time>2026-05-02T09:38:41.984Z</time></trkpt><trkpt lat="40.1090733" lon="15.2341217"><ele>192.0</ele><time>2026-05-02T09:38:43.984Z</time></trkpt><trkpt lat="40.109045" lon="15.23404"><ele>191.66666666666666</ele><time>2026-05-02T09:38:48.983Z</time></trkpt><trkpt lat="40.1090133" lon="15.2339367"><ele>191.33333333333334</ele><time>2026-05-02T09:38:51.984Z</time></trkpt><trkpt lat="40.109" lon="15.2338267"><ele>191.0</ele><time>2026-05-02T09:38:53.983Z</time></trkpt><trkpt lat="40.1090083" lon="15.2337033"><ele>190.66666666666669</ele><time>2026-05-02T09:38:55.983Z</time></trkpt><trkpt lat="40.1090517" lon="15.23362"><ele>190.33333333333334</ele><time>2026-05-02T09:38:57.983Z</time></trkpt><trkpt lat="40.109135" lon="15.2335583"><ele>190.0</ele><time>2026-05-02T09:38:59.983Z</time></trkpt><trkpt lat="40.109235" lon="15.2335083"><ele>188.4</ele><time>2026-05-02T09:39:01.984Z</time></trkpt><trkpt lat="40.109365" lon="15.2334433"><ele>186.8</ele><time>2026-05-02T09:39:03.983Z</time></trkpt><trkpt lat="40.1094433" lon="15.2334033"><ele>185.2</ele><time>2026-05-02T09:39:04.983Z</time></trkpt><trkpt lat="40.1095167" lon="15.23337"><ele>183.6</ele><time>2026-05-02T09:39:05.983Z</time></trkpt><trkpt lat="40.10959" lon="15.233335"><ele>182.0</ele><time>2026-05-02T09:39:06.983Z</time></trkpt><trkpt lat="40.1096667" lon="15.2333017"><ele>182.0</ele><time>2026-05-02T09:39:07.983Z</time></trkpt><trkpt lat="40.109745" lon="15.2332717"><ele>182.0</ele><time>2026-05-02T09:39:08.984Z</time></trkpt><trkpt lat="40.109825" lon="15.23324"><ele>182.0</ele><time>2026-05-02T09:39:09.983Z</time></trkpt><trkpt lat="40.1099067" lon="15.2332133"><ele>182.0</ele><time>2026-05-02T09:39:10.984Z</time></trkpt><trkpt lat="40.1099917" lon="15.2331967"><ele>182.0</ele><time>2026-05-02T09:39:11.983Z</time></trkpt><trkpt lat="40.1100683" lon="15.233175"><ele>182.0</ele><time>2026-05-02T09:39:12.984Z</time></trkpt><trkpt lat="40.1101433" lon="15.2331567"><ele>183.14285714285714</ele><time>2026-05-02T09:39:13.984Z</time></trkpt><trkpt lat="40.110215" lon="15.233165"><ele>184.28571428571428</ele><time>2026-05-02T09:39:14.983Z</time></trkpt><trkpt lat="40.1102867" lon="15.2331967"><ele>185.42857142857144</ele><time>2026-05-02T09:39:15.984Z</time></trkpt><trkpt lat="40.1103617" lon="15.2332383"><ele>186.57142857142856</ele><time>2026-05-02T09:39:16.983Z</time></trkpt><trkpt lat="40.1104383" lon="15.23328"><ele>187.71428571428572</ele><time>2026-05-02T09:39:17.983Z</time></trkpt><trkpt lat="40.1105" lon="15.2333217"><ele>188.85714285714286</ele><time>2026-05-02T09:39:18.983Z</time></trkpt><trkpt lat="40.110565" lon="15.2333467"><ele>190.0</ele><time>2026-05-02T09:39:19.984Z</time></trkpt><trkpt lat="40.1106333" lon="15.233355"><ele>190.0</ele><time>2026-05-02T09:39:20.983Z</time></trkpt><trkpt lat="40.1107067" lon="15.2333233"><ele>190.0</ele><time>2026-05-02T09:39:21.984Z</time></trkpt><trkpt lat="40.110775" lon="15.2332683"><ele>190.0</ele><time>2026-05-02T09:39:22.983Z</time></trkpt><trkpt lat="40.1108433" lon="15.2332067"><ele>190.0</ele><time>2026-05-02T09:39:23.984Z</time></trkpt><trkpt lat="40.1109133" lon="15.2331467"><ele>190.0</ele><time>2026-05-02T09:39:24.984Z</time></trkpt><trkpt lat="40.1109933" lon="15.2330933"><ele>190.0</ele><time>2026-05-02T09:39:25.983Z</time></trkpt><trkpt lat="40.1110617" lon="15.2330283"><ele>188.33333333333334</ele><time>2026-05-02T09:39:26.983Z</time></trkpt><trkpt lat="40.1111233" lon="15.23296"><ele>186.66666666666669</ele><time>2026-05-02T09:39:27.984Z</time></trkpt><trkpt lat="40.1111733" lon="15.232885"><ele>185.0</ele><time>2026-05-02T09:39:28.984Z</time></trkpt><trkpt lat="40.1112" lon="15.23281"><ele>183.33333333333334</ele><time>2026-05-02T09:39:29.983Z</time></trkpt><trkpt lat="40.1112167" lon="15.2327267"><ele>181.66666666666666</ele><time>2026-05-02T09:39:30.984Z</time></trkpt><trkpt lat="40.1111667" lon="15.2325783"><ele>180.0</ele><time>2026-05-02T09:39:32.984Z</time></trkpt><trkpt lat="40.111105" lon="15.2325"><ele>180.0</ele><time>2026-05-02T09:39:33.983Z</time></trkpt><trkpt lat="40.1110217" lon="15.23242"><ele>180.0</ele><time>2026-05-02T09:39:34.983Z</time></trkpt><trkpt lat="40.1109467" lon="15.2323467"><ele>180.0</ele><time>2026-05-02T09:39:35.983Z</time></trkpt><trkpt lat="40.11086" lon="15.2322567"><ele>180.0</ele><time>2026-05-02T09:39:36.984Z</time></trkpt><trkpt lat="40.1107717" lon="15.232175"><ele>180.0</ele><time>2026-05-02T09:39:37.984Z</time></trkpt><trkpt lat="40.110675" lon="15.23212"><ele>179.2</ele><time>2026-05-02T09:39:38.983Z</time></trkpt><trkpt lat="40.1105817" lon="15.23208"><ele>178.4</ele><time>2026-05-02T09:39:39.983Z</time></trkpt><trkpt lat="40.1104933" lon="15.2320233"><ele>177.60000000000002</ele><time>2026-05-02T09:39:40.983Z</time></trkpt><trkpt lat="40.1104283" lon="15.23196"><ele>176.8</ele><time>2026-05-02T09:39:41.983Z</time></trkpt><trkpt lat="40.1103767" lon="15.231865"><ele>176.0</ele><time>2026-05-02T09:39:42.983Z</time></trkpt><trkpt lat="40.1103417" lon="15.2317383"><ele>176.0</ele><time>2026-05-02T09:39:43.983Z</time></trkpt><trkpt lat="40.1103067" lon="15.231625"><ele>176.0</ele><time>2026-05-02T09:39:44.983Z</time></trkpt><trkpt lat="40.1102583" lon="15.231525"><ele>176.0</ele><time>2026-05-02T09:39:45.983Z</time></trkpt><trkpt lat="40.1101933" lon="15.2314433"><ele>176.0</ele><time>2026-05-02T09:39:46.983Z</time></trkpt><trkpt lat="40.1101183" lon="15.23137"><ele>176.0</ele><time>2026-05-02T09:39:47.984Z</time></trkpt><trkpt lat="40.1100267" lon="15.2313067"><ele>176.20000000000002</ele><time>2026-05-02T09:39:48.984Z</time></trkpt><trkpt lat="40.1099433" lon="15.2312317"><ele>176.4</ele><time>2026-05-02T09:39:49.983Z</time></trkpt><trkpt lat="40.109865" lon="15.2311633"><ele>176.6</ele><time>2026-05-02T09:39:50.983Z</time></trkpt><trkpt lat="40.1097767" lon="15.2310983"><ele>176.8</ele><time>2026-05-02T09:39:51.983Z</time></trkpt><trkpt lat="40.1096867" lon="15.2310233"><ele>177.0</ele><time>2026-05-02T09:39:52.983Z</time></trkpt><trkpt lat="40.109595" lon="15.2309567"><ele>177.0</ele><time>2026-05-02T09:39:53.984Z</time></trkpt><trkpt lat="40.10951" lon="15.230875"><ele>177.0</ele><time>2026-05-02T09:39:54.984Z</time></trkpt><trkpt lat="40.1094317" lon="15.2307933"><ele>177.0</ele><time>2026-05-02T09:39:55.983Z</time></trkpt><trkpt lat="40.1093483" lon="15.2307117"><ele>177.0</ele><time>2026-05-02T09:39:56.984Z</time></trkpt><trkpt lat="40.109285" lon="15.2306233"><ele>177.0</ele><time>2026-05-02T09:39:57.984Z</time></trkpt><trkpt lat="40.109255" lon="15.2305133"><ele>180.39999999999998</ele><time>2026-05-02T09:39:58.984Z</time></trkpt><trkpt lat="40.1092367" lon="15.2303817"><ele>183.79999999999998</ele><time>2026-05-02T09:39:59.984Z</time></trkpt><trkpt lat="40.1092183" lon="15.2302533"><ele>187.2</ele><time>2026-05-02T09:40:00.984Z</time></trkpt><trkpt lat="40.1091917" lon="15.2301233"><ele>190.6</ele><time>2026-05-02T09:40:01.983Z</time></trkpt><trkpt lat="40.1091533" lon="15.2299933"><ele>194.0</ele><time>2026-05-02T09:40:02.983Z</time></trkpt><trkpt lat="40.1091033" lon="15.2298683"><ele>189.39999999999998</ele><time>2026-05-02T09:40:03.984Z</time></trkpt><trkpt lat="40.1090333" lon="15.229765"><ele>184.8</ele><time>2026-05-02T09:40:04.984Z</time></trkpt><trkpt lat="40.1089617" lon="15.22967"><ele>180.2</ele><time>2026-05-02T09:40:05.984Z</time></trkpt><trkpt lat="40.1088817" lon="15.229575"><ele>175.60000000000002</ele><time>2026-05-02T09:40:06.983Z</time></trkpt><trkpt lat="40.1088067" lon="15.229485"><ele>171.0</ele><time>2026-05-02T09:40:07.983Z</time></trkpt><trkpt lat="40.1087467" lon="15.2293983"><ele>171.0</ele><time>2026-05-02T09:40:08.984Z</time></trkpt><trkpt lat="40.10871" lon="15.2293"><ele>171.0</ele><time>2026-05-02T09:40:09.983Z</time></trkpt><trkpt lat="40.1087017" lon="15.2292033"><ele>171.0</ele><time>2026-05-02T09:40:10.983Z</time></trkpt><trkpt lat="40.108725" lon="15.2291233"><ele>171.0</ele><time>2026-05-02T09:40:11.983Z</time></trkpt><trkpt lat="40.1087917" lon="15.2290617"><ele>171.0</ele><time>2026-05-02T09:40:12.984Z</time></trkpt><trkpt lat="40.1088783" lon="15.2290283"><ele>171.0</ele><time>2026-05-02T09:40:13.983Z</time></trkpt><trkpt lat="40.1089683" lon="15.2290017"><ele>172.0</ele><time>2026-05-02T09:40:14.983Z</time></trkpt><trkpt lat="40.10907" lon="15.2289683"><ele>173.0</ele><time>2026-05-02T09:40:15.983Z</time></trkpt><trkpt lat="40.1091717" lon="15.2289167"><ele>174.0</ele><time>2026-05-02T09:40:16.983Z</time></trkpt><trkpt lat="40.1092767" lon="15.22887"><ele>175.0</ele><time>2026-05-02T09:40:17.983Z</time></trkpt><trkpt lat="40.1093783" lon="15.2288217"><ele>176.0</ele><time>2026-05-02T09:40:18.984Z</time></trkpt><trkpt lat="40.1094683" lon="15.228755"><ele>176.0</ele><time>2026-05-02T09:40:19.984Z</time></trkpt><trkpt lat="40.1095417" lon="15.2286767"><ele>176.0</ele><time>2026-05-02T09:40:20.983Z</time></trkpt><trkpt lat="40.1096017" lon="15.2285683"><ele>176.0</ele><time>2026-05-02T09:40:21.983Z</time></trkpt><trkpt lat="40.1096517" lon="15.22845"><ele>176.0</ele><time>2026-05-02T09:40:22.983Z</time></trkpt><trkpt lat="40.1096967" lon="15.22832"><ele>176.0</ele><time>2026-05-02T09:40:23.984Z</time></trkpt><trkpt lat="40.10975" lon="15.2281983"><ele>178.4</ele><time>2026-05-02T09:40:24.983Z</time></trkpt><trkpt lat="40.109805" lon="15.2280967"><ele>180.8</ele><time>2026-05-02T09:40:25.983Z</time></trkpt><trkpt lat="40.1098717" lon="15.2280033"><ele>183.20000000000002</ele><time>2026-05-02T09:40:26.984Z</time></trkpt><trkpt lat="40.1099583" lon="15.227935"><ele>185.60000000000002</ele><time>2026-05-02T09:40:27.983Z</time></trkpt><trkpt lat="40.1100533" lon="15.22789"><ele>188.0</ele><time>2026-05-02T09:40:28.983Z</time></trkpt><trkpt lat="40.1101483" lon="15.2278217"><ele>188.0</ele><time>2026-05-02T09:40:29.983Z</time></trkpt><trkpt lat="40.1102317" lon="15.2277383"><ele>188.0</ele><time>2026-05-02T09:40:30.983Z</time></trkpt><trkpt lat="40.110305" lon="15.22766"><ele>188.0</ele><time>2026-05-02T09:40:31.983Z</time></trkpt><trkpt lat="40.110385" lon="15.22757"><ele>188.0</ele><time>2026-05-02T09:40:32.984Z</time></trkpt><trkpt lat="40.11049" lon="15.2274867"><ele>188.0</ele><time>2026-05-02T09:40:33.983Z</time></trkpt><trkpt lat="40.11061" lon="15.22742"><ele>188.0</ele><time>2026-05-02T09:40:34.984Z</time></trkpt><trkpt lat="40.1107317" lon="15.227365"><ele>188.0</ele><time>2026-05-02T09:40:35.984Z</time></trkpt><trkpt lat="40.1108533" lon="15.2273133"><ele>188.0</ele><time>2026-05-02T09:40:36.984Z</time></trkpt><trkpt lat="40.1109833" lon="15.2272617"><ele>188.0</ele><time>2026-05-02T09:40:37.983Z</time></trkpt><trkpt lat="40.1111217" lon="15.227205"><ele>184.75</ele><time>2026-05-02T09:40:38.983Z</time></trkpt><trkpt lat="40.1112667" lon="15.22716"><ele>181.5</ele><time>2026-05-02T09:40:39.984Z</time></trkpt><trkpt lat="40.1113917" lon="15.227115"><ele>178.25</ele><time>2026-05-02T09:40:40.984Z</time></trkpt><trkpt lat="40.1114933" lon="15.2270733"><ele>175.0</ele><time>2026-05-02T09:40:41.984Z</time></trkpt><trkpt lat="40.1115733" lon="15.2270083"><ele>179.8</ele><time>2026-05-02T09:40:42.983Z</time></trkpt><trkpt lat="40.1116267" lon="15.2269083"><ele>184.6</ele><time>2026-05-02T09:40:43.983Z</time></trkpt><trkpt lat="40.1116467" lon="15.2267833"><ele>189.39999999999998</ele><time>2026-05-02T09:40:44.984Z</time></trkpt><trkpt lat="40.1116517" lon="15.22665"><ele>194.2</ele><time>2026-05-02T09:40:45.984Z</time></trkpt><trkpt lat="40.1116383" lon="15.2265217"><ele>199.0</ele><time>2026-05-02T09:40:46.984Z</time></trkpt><trkpt lat="40.1116183" lon="15.2264017"><ele>199.0</ele><time>2026-05-02T09:40:47.984Z</time></trkpt><trkpt lat="40.111595" lon="15.2262783"><ele>199.0</ele><time>2026-05-02T09:40:48.984Z</time></trkpt><trkpt lat="40.1115717" lon="15.226155"><ele>199.0</ele><time>2026-05-02T09:40:49.983Z</time></trkpt><trkpt lat="40.1115467" lon="15.22602"><ele>199.0</ele><time>2026-05-02T09:40:50.983Z</time></trkpt><trkpt lat="40.1115117" lon="15.225895"><ele>199.0</ele><time>2026-05-02T09:40:51.983Z</time></trkpt><trkpt lat="40.1114917" lon="15.2257783"><ele>196.6</ele><time>2026-05-02T09:40:52.983Z</time></trkpt><trkpt lat="40.1114883" lon="15.2256617"><ele>194.2</ele><time>2026-05-02T09:40:53.983Z</time></trkpt><trkpt lat="40.111495" lon="15.2255533"><ele>191.79999999999998</ele><time>2026-05-02T09:40:54.983Z</time></trkpt><trkpt lat="40.11153" lon="15.2254317"><ele>189.39999999999998</ele><time>2026-05-02T09:40:56.984Z</time></trkpt><trkpt lat="40.1116283" lon="15.22539"><ele>187.0</ele><time>2026-05-02T09:40:58.983Z</time></trkpt><trkpt lat="40.11171" lon="15.225405"><ele>187.0</ele><time>2026-05-02T09:40:59.983Z</time></trkpt><trkpt lat="40.1117933" lon="15.2254517"><ele>187.0</ele><time>2026-05-02T09:41:00.984Z</time></trkpt><trkpt lat="40.11188" lon="15.2255117"><ele>187.0</ele><time>2026-05-02T09:41:01.983Z</time></trkpt><trkpt lat="40.1119733" lon="15.225575"><ele>187.0</ele><time>2026-05-02T09:41:02.983Z</time></trkpt><trkpt lat="40.1120583" lon="15.2256517"><ele>187.0</ele><time>2026-05-02T09:41:03.984Z</time></trkpt><trkpt lat="40.1121567" lon="15.2257117"><ele>189.39999999999998</ele><time>2026-05-02T09:41:04.983Z</time></trkpt><trkpt lat="40.1122517" lon="15.2257633"><ele>191.79999999999998</ele><time>2026-05-02T09:41:05.984Z</time></trkpt><trkpt lat="40.1123417" lon="15.2258067"><ele>194.2</ele><time>2026-05-02T09:41:06.984Z</time></trkpt><trkpt lat="40.1124483" lon="15.2258417"><ele>196.6</ele><time>2026-05-02T09:41:07.983Z</time></trkpt><trkpt lat="40.11255" lon="15.2258667"><ele>199.0</ele><time>2026-05-02T09:41:08.983Z</time></trkpt><trkpt lat="40.11265" lon="15.2258983"><ele>199.39999999999998</ele><time>2026-05-02T09:41:09.984Z</time></trkpt><trkpt lat="40.11275" lon="15.2259267"><ele>199.8</ele><time>2026-05-02T09:41:10.983Z</time></trkpt><trkpt lat="40.11285" lon="15.2259483"><ele>200.2</ele><time>2026-05-02T09:41:11.984Z</time></trkpt><trkpt lat="40.11295" lon="15.225975"><ele>200.60000000000002</ele><time>2026-05-02T09:41:12.984Z</time></trkpt><trkpt lat="40.1130433" lon="15.2259917"><ele>201.0</ele><time>2026-05-02T09:41:13.983Z</time></trkpt><trkpt lat="40.1131467" lon="15.2259883"><ele>200.20000000000002</ele><time>2026-05-02T09:41:14.983Z</time></trkpt><trkpt lat="40.1132533" lon="15.225975"><ele>199.4</ele><time>2026-05-02T09:41:15.983Z</time></trkpt><trkpt lat="40.1133517" lon="15.225935"><ele>198.6</ele><time>2026-05-02T09:41:16.983Z</time></trkpt><trkpt lat="40.1134467" lon="15.2258783"><ele>197.8</ele><time>2026-05-02T09:41:17.984Z</time></trkpt><trkpt lat="40.1135367" lon="15.2257983"><ele>197.0</ele><time>2026-05-02T09:41:18.983Z</time></trkpt><trkpt lat="40.1136183" lon="15.2257183"><ele>191.75</ele><time>2026-05-02T09:41:19.983Z</time></trkpt><trkpt lat="40.1136967" lon="15.22561"><ele>186.5</ele><time>2026-05-02T09:41:20.984Z</time></trkpt><trkpt lat="40.1137667" lon="15.2254867"><ele>181.25</ele><time>2026-05-02T09:41:21.983Z</time></trkpt><trkpt lat="40.1138317" lon="15.2253533"><ele>176.0</ele><time>2026-05-02T09:41:22.983Z</time></trkpt><trkpt lat="40.1138917" lon="15.22521"><ele>176.0</ele><time>2026-05-02T09:41:23.984Z</time></trkpt><trkpt lat="40.11396" lon="15.2250667"><ele>176.0</ele><time>2026-05-02T09:41:24.983Z</time></trkpt><trkpt lat="40.1140167" lon="15.2249217"><ele>176.0</ele><time>2026-05-02T09:41:25.983Z</time></trkpt><trkpt lat="40.11407" lon="15.2247767"><ele>176.0</ele><time>2026-05-02T09:41:26.983Z</time></trkpt><trkpt lat="40.1141233" lon="15.2246467"><ele>178.0</ele><time>2026-05-02T09:41:27.984Z</time></trkpt><trkpt lat="40.1141883" lon="15.2245217"><ele>180.0</ele><time>2026-05-02T09:41:28.983Z</time></trkpt><trkpt lat="40.114265" lon="15.2244"><ele>182.0</ele><time>2026-05-02T09:41:29.983Z</time></trkpt><trkpt lat="40.1143483" lon="15.22428"><ele>184.0</ele><time>2026-05-02T09:41:30.983Z</time></trkpt><trkpt lat="40.114435" lon="15.2241617"><ele>184.0</ele><time>2026-05-02T09:41:31.984Z</time></trkpt><trkpt lat="40.1145117" lon="15.2240367"><ele>184.0</ele><time>2026-05-02T09:41:32.984Z</time></trkpt><trkpt lat="40.1145883" lon="15.2239033"><ele>184.0</ele><time>2026-05-02T09:41:33.984Z</time></trkpt><trkpt lat="40.1146583" lon="15.223765"><ele>184.0</ele><time>2026-05-02T09:41:34.983Z</time></trkpt><trkpt lat="40.1147367" lon="15.22362"><ele>183.0</ele><time>2026-05-02T09:41:35.983Z</time></trkpt><trkpt lat="40.1148117" lon="15.2234833"><ele>182.0</ele><time>2026-05-02T09:41:36.983Z</time></trkpt><trkpt lat="40.114885" lon="15.223365"><ele>181.0</ele><time>2026-05-02T09:41:37.983Z</time></trkpt><trkpt lat="40.114975" lon="15.2232517"><ele>180.0</ele><time>2026-05-02T09:41:38.984Z</time></trkpt><trkpt lat="40.115065" lon="15.22314"><ele>180.0</ele><time>2026-05-02T09:41:39.984Z</time></trkpt><trkpt lat="40.115135" lon="15.2230167"><ele>180.0</ele><time>2026-05-02T09:41:40.984Z</time></trkpt><trkpt lat="40.1152033" lon="15.2228783"><ele>180.0</ele><time>2026-05-02T09:41:41.984Z</time></trkpt><trkpt lat="40.1152783" lon="15.2227417"><ele>180.0</ele><time>2026-05-02T09:41:42.984Z</time></trkpt><trkpt lat="40.1153467" lon="15.2226017"><ele>180.0</ele><time>2026-05-02T09:41:43.984Z</time></trkpt><trkpt lat="40.1154083" lon="15.2224683"><ele>180.0</ele><time>2026-05-02T09:41:44.983Z</time></trkpt><trkpt lat="40.1154617" lon="15.222325"><ele>180.0</ele><time>2026-05-02T09:41:45.983Z</time></trkpt><trkpt lat="40.11552" lon="15.222195"><ele>180.0</ele><time>2026-05-02T09:41:46.983Z</time></trkpt><trkpt lat="40.1155683" lon="15.2220767"><ele>180.33333333333334</ele><time>2026-05-02T09:41:47.983Z</time></trkpt><trkpt lat="40.11562" lon="15.2219767"><ele>180.66666666666666</ele><time>2026-05-02T09:41:48.983Z</time></trkpt><trkpt lat="40.11569" lon="15.2219017"><ele>181.0</ele><time>2026-05-02T09:41:49.983Z</time></trkpt><trkpt lat="40.1157717" lon="15.22185"><ele>181.33333333333331</ele><time>2026-05-02T09:41:50.983Z</time></trkpt><trkpt lat="40.1158533" lon="15.22184"><ele>181.66666666666666</ele><time>2026-05-02T09:41:51.984Z</time></trkpt><trkpt lat="40.1159433" lon="15.2218533"><ele>182.0</ele><time>2026-05-02T09:41:52.984Z</time></trkpt><trkpt lat="40.1160333" lon="15.221875"><ele>182.0</ele><time>2026-05-02T09:41:53.984Z</time></trkpt><trkpt lat="40.11613" lon="15.2218967"><ele>182.0</ele><time>2026-05-02T09:41:54.984Z</time></trkpt><trkpt lat="40.1162283" lon="15.2219133"><ele>182.0</ele><time>2026-05-02T09:41:55.984Z</time></trkpt><trkpt lat="40.11633" lon="15.2219317"><ele>182.0</ele><time>2026-05-02T09:41:56.984Z</time></trkpt><trkpt lat="40.1164333" lon="15.2219517"><ele>182.0</ele><time>2026-05-02T09:41:57.983Z</time></trkpt><trkpt lat="40.116525" lon="15.221975"><ele>182.8</ele><time>2026-05-02T09:41:58.984Z</time></trkpt><trkpt lat="40.1166117" lon="15.22198"><ele>183.6</ele><time>2026-05-02T09:41:59.983Z</time></trkpt><trkpt lat="40.116705" lon="15.2219483"><ele>184.4</ele><time>2026-05-02T09:42:00.983Z</time></trkpt><trkpt lat="40.1167783" lon="15.221885"><ele>185.20000000000002</ele><time>2026-05-02T09:42:01.984Z</time></trkpt><trkpt lat="40.1168433" lon="15.221785"><ele>186.0</ele><time>2026-05-02T09:42:02.983Z</time></trkpt><trkpt lat="40.1168917" lon="15.2216767"><ele>186.0</ele><time>2026-05-02T09:42:03.983Z</time></trkpt><trkpt lat="40.1169483" lon="15.22157"><ele>186.0</ele><time>2026-05-02T09:42:04.983Z</time></trkpt><trkpt lat="40.11701" lon="15.221475"><ele>186.0</ele><time>2026-05-02T09:42:05.984Z</time></trkpt><trkpt lat="40.1170783" lon="15.22139"><ele>186.0</ele><time>2026-05-02T09:42:06.983Z</time></trkpt><trkpt lat="40.1171617" lon="15.22132"><ele>186.0</ele><time>2026-05-02T09:42:07.983Z</time></trkpt><trkpt lat="40.1172517" lon="15.2212467"><ele>185.5</ele><time>2026-05-02T09:42:08.984Z</time></trkpt><trkpt lat="40.1173483" lon="15.2211717"><ele>185.0</ele><time>2026-05-02T09:42:09.983Z</time></trkpt><trkpt lat="40.1174433" lon="15.2210817"><ele>184.5</ele><time>2026-05-02T09:42:10.984Z</time></trkpt><trkpt lat="40.117535" lon="15.2209783"><ele>184.0</ele><time>2026-05-02T09:42:11.983Z</time></trkpt><trkpt lat="40.11762" lon="15.2208767"><ele>184.0</ele><time>2026-05-02T09:42:12.984Z</time></trkpt><trkpt lat="40.1177017" lon="15.220765"><ele>184.0</ele><time>2026-05-02T09:42:13.983Z</time></trkpt><trkpt lat="40.1177817" lon="15.220645"><ele>184.0</ele><time>2026-05-02T09:42:14.983Z</time></trkpt><trkpt lat="40.11786" lon="15.2205217"><ele>184.0</ele><time>2026-05-02T09:42:15.984Z</time></trkpt><trkpt lat="40.1179317" lon="15.2203917"><ele>182.39999999999998</ele><time>2026-05-02T09:42:16.983Z</time></trkpt><trkpt lat="40.1179933" lon="15.2202617"><ele>180.8</ele><time>2026-05-02T09:42:17.983Z</time></trkpt><trkpt lat="40.11805" lon="15.220135"><ele>179.2</ele><time>2026-05-02T09:42:18.984Z</time></trkpt><trkpt lat="40.118105" lon="15.220005"><ele>177.60000000000002</ele><time>2026-05-02T09:42:19.983Z</time></trkpt><trkpt lat="40.11816" lon="15.2198883"><ele>176.0</ele><time>2026-05-02T09:42:20.983Z</time></trkpt><trkpt lat="40.118235" lon="15.219785"><ele>176.0</ele><time>2026-05-02T09:42:21.984Z</time></trkpt><trkpt lat="40.1183217" lon="15.2196717"><ele>176.0</ele><time>2026-05-02T09:42:22.984Z</time></trkpt><trkpt lat="40.1184217" lon="15.219585"><ele>176.0</ele><time>2026-05-02T09:42:23.984Z</time></trkpt><trkpt lat="40.1185267" lon="15.2195"><ele>176.0</ele><time>2026-05-02T09:42:24.983Z</time></trkpt><trkpt lat="40.1186333" lon="15.2194067"><ele>176.0</ele><time>2026-05-02T09:42:25.984Z</time></trkpt><trkpt lat="40.11875" lon="15.2193283"><ele>176.0</ele><time>2026-05-02T09:42:26.983Z</time></trkpt><trkpt lat="40.1188583" lon="15.2192583"><ele>176.0</ele><time>2026-05-02T09:42:27.984Z</time></trkpt><trkpt lat="40.1189683" lon="15.2191867"><ele>176.0</ele><time>2026-05-02T09:42:28.983Z</time></trkpt><trkpt lat="40.1190867" lon="15.219115"><ele>174.5</ele><time>2026-05-02T09:42:29.983Z</time></trkpt><trkpt lat="40.1192033" lon="15.2190533"><ele>173.0</ele><time>2026-05-02T09:42:30.983Z</time></trkpt><trkpt lat="40.119325" lon="15.2189767"><ele>171.5</ele><time>2026-05-02T09:42:31.983Z</time></trkpt><trkpt lat="40.1194383" lon="15.2189033"><ele>170.0</ele><time>2026-05-02T09:42:32.984Z</time></trkpt><trkpt lat="40.119545" lon="15.21882"><ele>170.0</ele><time>2026-05-02T09:42:33.983Z</time></trkpt><trkpt lat="40.1196433" lon="15.2187233"><ele>170.0</ele><time>2026-05-02T09:42:34.983Z</time></trkpt><trkpt lat="40.11974" lon="15.2186117"><ele>170.0</ele><time>2026-05-02T09:42:35.983Z</time></trkpt><trkpt lat="40.1198367" lon="15.2185033"><ele>170.0</ele><time>2026-05-02T09:42:36.983Z</time></trkpt><trkpt lat="40.1199333" lon="15.2183867"><ele>169.5</ele><time>2026-05-02T09:42:37.983Z</time></trkpt><trkpt lat="40.1200433" lon="15.2182683"><ele>169.0</ele><time>2026-05-02T09:42:38.983Z</time></trkpt><trkpt lat="40.12015" lon="15.2181383"><ele>168.5</ele><time>2026-05-02T09:42:39.983Z</time></trkpt><trkpt lat="40.1202633" lon="15.2180183"><ele>168.0</ele><time>2026-05-02T09:42:40.984Z</time></trkpt><trkpt lat="40.1203833" lon="15.2179033"><ele>168.0</ele><time>2026-05-02T09:42:41.983Z</time></trkpt><trkpt lat="40.1205033" lon="15.2177917"><ele>168.0</ele><time>2026-05-02T09:42:42.983Z</time></trkpt><trkpt lat="40.1206183" lon="15.2176717"><ele>168.0</ele><time>2026-05-02T09:42:43.984Z</time></trkpt><trkpt lat="40.12073" lon="15.2175417"><ele>168.0</ele><time>2026-05-02T09:42:44.983Z</time></trkpt><trkpt lat="40.1208333" lon="15.2174167"><ele>168.5</ele><time>2026-05-02T09:42:45.984Z</time></trkpt><trkpt lat="40.1209217" lon="15.217285"><ele>169.0</ele><time>2026-05-02T09:42:46.984Z</time></trkpt><trkpt lat="40.1209917" lon="15.2171433"><ele>169.5</ele><time>2026-05-02T09:42:47.983Z</time></trkpt><trkpt lat="40.1210583" lon="15.2170183"><ele>170.0</ele><time>2026-05-02T09:42:48.983Z</time></trkpt><trkpt lat="40.12111" lon="15.2168783"><ele>170.0</ele><time>2026-05-02T09:42:49.983Z</time></trkpt><trkpt lat="40.1211767" lon="15.2167517"><ele>170.0</ele><time>2026-05-02T09:42:50.984Z</time></trkpt><trkpt lat="40.121255" lon="15.2166217"><ele>170.0</ele><time>2026-05-02T09:42:51.983Z</time></trkpt><trkpt lat="40.1213417" lon="15.21648"><ele>170.0</ele><time>2026-05-02T09:42:52.983Z</time></trkpt><trkpt lat="40.121415" lon="15.2163483"><ele>173.5</ele><time>2026-05-02T09:42:53.983Z</time></trkpt><trkpt lat="40.1214883" lon="15.216225"><ele>177.0</ele><time>2026-05-02T09:42:54.983Z</time></trkpt><trkpt lat="40.1215733" lon="15.2161133"><ele>180.5</ele><time>2026-05-02T09:42:55.984Z</time></trkpt><trkpt lat="40.121655" lon="15.216005"><ele>184.0</ele><time>2026-05-02T09:42:56.983Z</time></trkpt><trkpt lat="40.1217367" lon="15.2158833"><ele>184.0</ele><time>2026-05-02T09:42:57.983Z</time></trkpt><trkpt lat="40.1218033" lon="15.2157483"><ele>184.0</ele><time>2026-05-02T09:42:58.984Z</time></trkpt><trkpt lat="40.121865" lon="15.2156"><ele>184.0</ele><time>2026-05-02T09:42:59.983Z</time></trkpt><trkpt lat="40.1219267" lon="15.2154533"><ele>184.0</ele><time>2026-05-02T09:43:00.984Z</time></trkpt><trkpt lat="40.1220017" lon="15.215315"><ele>186.0</ele><time>2026-05-02T09:43:01.983Z</time></trkpt><trkpt lat="40.1220917" lon="15.2152017"><ele>188.0</ele><time>2026-05-02T09:43:02.983Z</time></trkpt><trkpt lat="40.122195" lon="15.2150983"><ele>190.0</ele><time>2026-05-02T09:43:03.983Z</time></trkpt><trkpt lat="40.1223033" lon="15.2149967"><ele>192.0</ele><time>2026-05-02T09:43:04.983Z</time></trkpt><trkpt lat="40.1224217" lon="15.2149017"><ele>186.5</ele><time>2026-05-02T09:43:05.983Z</time></trkpt><trkpt lat="40.122535" lon="15.2148033"><ele>181.0</ele><time>2026-05-02T09:43:06.984Z</time></trkpt><trkpt lat="40.1226417" lon="15.21471"><ele>175.5</ele><time>2026-05-02T09:43:07.983Z</time></trkpt><trkpt lat="40.122745" lon="15.2146333"><ele>170.0</ele><time>2026-05-02T09:43:08.984Z</time></trkpt><trkpt lat="40.1228383" lon="15.21454"><ele>170.0</ele><time>2026-05-02T09:43:09.983Z</time></trkpt><trkpt lat="40.1229283" lon="15.2144533"><ele>170.0</ele><time>2026-05-02T09:43:10.983Z</time></trkpt><trkpt lat="40.1230167" lon="15.2143617"><ele>170.0</ele><time>2026-05-02T09:43:11.983Z</time></trkpt><trkpt lat="40.123105" lon="15.21426"><ele>170.0</ele><time>2026-05-02T09:43:12.983Z</time></trkpt><trkpt lat="40.1231967" lon="15.214155"><ele>171.0</ele><time>2026-05-02T09:43:13.983Z</time></trkpt><trkpt lat="40.1232867" lon="15.2140467"><ele>172.0</ele><time>2026-05-02T09:43:14.984Z</time></trkpt><trkpt lat="40.1233667" lon="15.2139333"><ele>173.0</ele><time>2026-05-02T09:43:15.983Z</time></trkpt><trkpt lat="40.1234433" lon="15.21383"><ele>174.0</ele><time>2026-05-02T09:43:16.983Z</time></trkpt><trkpt lat="40.1235117" lon="15.2137433"><ele>175.0</ele><time>2026-05-02T09:43:17.984Z</time></trkpt><trkpt lat="40.1235883" lon="15.21366"><ele>175.0</ele><time>2026-05-02T09:43:18.983Z</time></trkpt><trkpt lat="40.1236583" lon="15.2135817"><ele>175.0</ele><time>2026-05-02T09:43:19.984Z</time></trkpt><trkpt lat="40.12372" lon="15.2135033"><ele>175.0</ele><time>2026-05-02T09:43:20.983Z</time></trkpt><trkpt lat="40.1237783" lon="15.213435"><ele>175.0</ele><time>2026-05-02T09:43:21.984Z</time></trkpt><trkpt lat="40.123835" lon="15.2133783"><ele>175.0</ele><time>2026-05-02T09:43:22.983Z</time></trkpt><trkpt lat="40.1238833" lon="15.2133217"><ele>175.0</ele><time>2026-05-02T09:43:23.983Z</time></trkpt><trkpt lat="40.1239517" lon="15.213255"><ele>177.25</ele><time>2026-05-02T09:43:25.983Z</time></trkpt><trkpt lat="40.12408" lon="15.2133483"><ele>179.5</ele><time>2026-05-02T09:44:05.983Z</time></trkpt><trkpt lat="40.1241833" lon="15.213425"><ele>181.75</ele><time>2026-05-02T09:44:06.984Z</time></trkpt><trkpt lat="40.1242933" lon="15.2134817"><ele>184.0</ele><time>2026-05-02T09:44:07.984Z</time></trkpt><trkpt lat="40.1244" lon="15.21351"><ele>184.0</ele><time>2026-05-02T09:44:08.983Z</time></trkpt><trkpt lat="40.1244883" lon="15.21349"><ele>184.0</ele><time>2026-05-02T09:44:09.983Z</time></trkpt><trkpt lat="40.1245733" lon="15.21343"><ele>184.0</ele><time>2026-05-02T09:44:10.983Z</time></trkpt><trkpt lat="40.12465" lon="15.2133217"><ele>184.0</ele><time>2026-05-02T09:44:11.984Z</time></trkpt><trkpt lat="40.1247" lon="15.2131967"><ele>184.0</ele><time>2026-05-02T09:44:12.984Z</time></trkpt><trkpt lat="40.1247567" lon="15.2130483"><ele>181.0</ele><time>2026-05-02T09:44:13.983Z</time></trkpt><trkpt lat="40.12479" lon="15.212895"><ele>178.0</ele><time>2026-05-02T09:44:14.983Z</time></trkpt><trkpt lat="40.1248017" lon="15.21273"><ele>175.0</ele><time>2026-05-02T09:44:15.983Z</time></trkpt><trkpt lat="40.1248133" lon="15.2125667"><ele>172.0</ele><time>2026-05-02T09:44:16.984Z</time></trkpt><trkpt lat="40.12481" lon="15.2124133"><ele>173.2</ele><time>2026-05-02T09:44:17.983Z</time></trkpt><trkpt lat="40.1248133" lon="15.2122717"><ele>174.39999999999998</ele><time>2026-05-02T09:44:18.983Z</time></trkpt><trkpt lat="40.1248217" lon="15.2121417"><ele>175.60000000000002</ele><time>2026-05-02T09:44:19.983Z</time></trkpt><trkpt lat="40.12485" lon="15.212015"><ele>176.8</ele><time>2026-05-02T09:44:20.984Z</time></trkpt><trkpt lat="40.1248983" lon="15.2118883"><ele>178.0</ele><time>2026-05-02T09:44:21.983Z</time></trkpt><trkpt lat="40.1249617" lon="15.21178"><ele>178.0</ele><time>2026-05-02T09:44:22.984Z</time></trkpt><trkpt lat="40.1250333" lon="15.2116617"><ele>178.0</ele><time>2026-05-02T09:44:23.984Z</time></trkpt><trkpt lat="40.1251017" lon="15.21154"><ele>178.0</ele><time>2026-05-02T09:44:24.983Z</time></trkpt><trkpt lat="40.1251833" lon="15.21143"><ele>178.0</ele><time>2026-05-02T09:44:25.983Z</time></trkpt><trkpt lat="40.1252567" lon="15.2113117"><ele>172.0</ele><time>2026-05-02T09:44:26.983Z</time></trkpt><trkpt lat="40.1253333" lon="15.2111867"><ele>166.0</ele><time>2026-05-02T09:44:27.983Z</time></trkpt><trkpt lat="40.1254117" lon="15.2110567"><ele>160.0</ele><time>2026-05-02T09:44:28.983Z</time></trkpt><trkpt lat="40.1254817" lon="15.21091"><ele>154.0</ele><time>2026-05-02T09:44:29.983Z</time></trkpt><trkpt lat="40.125545" lon="15.210755"><ele>150.5</ele><time>2026-05-02T09:44:30.983Z</time></trkpt><trkpt lat="40.1256" lon="15.2105983"><ele>147.0</ele><time>2026-05-02T09:44:31.983Z</time></trkpt><trkpt lat="40.1256517" lon="15.2104383"><ele>143.5</ele><time>2026-05-02T09:44:32.984Z</time></trkpt><trkpt lat="40.1256967" lon="15.21028"><ele>140.0</ele><time>2026-05-02T09:44:33.983Z</time></trkpt><trkpt lat="40.1257283" lon="15.2101267"><ele>146.8</ele><time>2026-05-02T09:44:34.983Z</time></trkpt><trkpt lat="40.1257533" lon="15.20998"><ele>153.6</ele><time>2026-05-02T09:44:35.983Z</time></trkpt><trkpt lat="40.12578" lon="15.2098433"><ele>160.39999999999998</ele><time>2026-05-02T09:44:36.983Z</time></trkpt><trkpt lat="40.1258" lon="15.209715"><ele>167.2</ele><time>2026-05-02T09:44:37.984Z</time></trkpt><trkpt lat="40.125815" lon="15.2095917"><ele>174.0</ele><time>2026-05-02T09:44:38.983Z</time></trkpt><trkpt lat="40.1258283" lon="15.2094667"><ele>174.0</ele><time>2026-05-02T09:44:39.983Z</time></trkpt><trkpt lat="40.1258517" lon="15.2093483"><ele>174.0</ele><time>2026-05-02T09:44:40.983Z</time></trkpt><trkpt lat="40.1258717" lon="15.2092367"><ele>174.0</ele><time>2026-05-02T09:44:41.984Z</time></trkpt><trkpt lat="40.125885" lon="15.209115"><ele>174.0</ele><time>2026-05-02T09:44:42.983Z</time></trkpt><trkpt lat="40.1259" lon="15.208995"><ele>174.0</ele><time>2026-05-02T09:44:43.983Z</time></trkpt><trkpt lat="40.125915" lon="15.2088767"><ele>170.6</ele><time>2026-05-02T09:44:44.984Z</time></trkpt><trkpt lat="40.1259333" lon="15.208755"><ele>167.2</ele><time>2026-05-02T09:44:45.983Z</time></trkpt><trkpt lat="40.12596" lon="15.2086383"><ele>163.79999999999998</ele><time>2026-05-02T09:44:46.984Z</time></trkpt><trkpt lat="40.1259967" lon="15.2085133"><ele>160.39999999999998</ele><time>2026-05-02T09:44:47.983Z</time></trkpt><trkpt lat="40.1260433" lon="15.2084067"><ele>157.0</ele><time>2026-05-02T09:44:48.984Z</time></trkpt><trkpt lat="40.12611" lon="15.20831"><ele>157.0</ele><time>2026-05-02T09:44:49.983Z</time></trkpt><trkpt lat="40.1261833" lon="15.20822"><ele>157.0</ele><time>2026-05-02T09:44:50.983Z</time></trkpt><trkpt lat="40.1262667" lon="15.2081317"><ele>157.0</ele><time>2026-05-02T09:44:51.983Z</time></trkpt><trkpt lat="40.1263517" lon="15.2080417"><ele>157.0</ele><time>2026-05-02T09:44:52.983Z</time></trkpt><trkpt lat="40.12643" lon="15.2079417"><ele>157.0</ele><time>2026-05-02T09:44:53.983Z</time></trkpt><trkpt lat="40.1265033" lon="15.2078083"><ele>158.25</ele><time>2026-05-02T09:44:54.983Z</time></trkpt><trkpt lat="40.1265667" lon="15.2076683"><ele>159.5</ele><time>2026-05-02T09:44:55.983Z</time></trkpt><trkpt lat="40.12663" lon="15.2075217"><ele>160.75</ele><time>2026-05-02T09:44:56.983Z</time></trkpt><trkpt lat="40.1266883" lon="15.207375"><ele>162.0</ele><time>2026-05-02T09:44:57.983Z</time></trkpt><trkpt lat="40.1267433" lon="15.2072183"><ele>162.0</ele><time>2026-05-02T09:44:58.983Z</time></trkpt><trkpt lat="40.1267917" lon="15.2070517"><ele>162.0</ele><time>2026-05-02T09:44:59.983Z</time></trkpt><trkpt lat="40.1268317" lon="15.206885"><ele>162.0</ele><time>2026-05-02T09:45:00.983Z</time></trkpt><trkpt lat="40.1268633" lon="15.2067283"><ele>162.0</ele><time>2026-05-02T09:45:01.983Z</time></trkpt><trkpt lat="40.1268883" lon="15.206575"><ele>159.75</ele><time>2026-05-02T09:45:02.983Z</time></trkpt><trkpt lat="40.1269" lon="15.206415"><ele>157.5</ele><time>2026-05-02T09:45:03.983Z</time></trkpt><trkpt lat="40.12692" lon="15.2062633"><ele>155.25</ele><time>2026-05-02T09:45:04.983Z</time></trkpt><trkpt lat="40.1269417" lon="15.2061033"><ele>153.0</ele><time>2026-05-02T09:45:05.983Z</time></trkpt><trkpt lat="40.126965" lon="15.20594"><ele>153.0</ele><time>2026-05-02T09:45:06.983Z</time></trkpt><trkpt lat="40.12699" lon="15.2057817"><ele>153.0</ele><time>2026-05-02T09:45:07.984Z</time></trkpt><trkpt lat="40.12701" lon="15.2056283"><ele>153.0</ele><time>2026-05-02T09:45:08.983Z</time></trkpt><trkpt lat="40.1270317" lon="15.2054817"><ele>153.0</ele><time>2026-05-02T09:45:09.984Z</time></trkpt><trkpt lat="40.127045" lon="15.20534"><ele>153.0</ele><time>2026-05-02T09:45:10.983Z</time></trkpt><trkpt lat="40.1270483" lon="15.2052017"><ele>153.0</ele><time>2026-05-02T09:45:11.983Z</time></trkpt><trkpt lat="40.1270383" lon="15.2050617"><ele>153.0</ele><time>2026-05-02T09:45:12.983Z</time></trkpt><trkpt lat="40.127015" lon="15.2049167"><ele>153.0</ele><time>2026-05-02T09:45:13.984Z</time></trkpt><trkpt lat="40.126995" lon="15.2047633"><ele>153.0</ele><time>2026-05-02T09:45:14.983Z</time></trkpt><trkpt lat="40.1269783" lon="15.2046067"><ele>151.5</ele><time>2026-05-02T09:45:15.983Z</time></trkpt><trkpt lat="40.126975" lon="15.2044483"><ele>150.0</ele><time>2026-05-02T09:45:16.983Z</time></trkpt><trkpt lat="40.12698" lon="15.20429"><ele>148.5</ele><time>2026-05-02T09:45:17.983Z</time></trkpt><trkpt lat="40.1270017" lon="15.2041317"><ele>147.0</ele><time>2026-05-02T09:45:18.983Z</time></trkpt><trkpt lat="40.1270233" lon="15.2039683"><ele>146.75</ele><time>2026-05-02T09:45:19.984Z</time></trkpt><trkpt lat="40.1270383" lon="15.2038083"><ele>146.5</ele><time>2026-05-02T09:45:20.984Z</time></trkpt><trkpt lat="40.1270483" lon="15.2036617"><ele>146.25</ele><time>2026-05-02T09:45:21.983Z</time></trkpt><trkpt lat="40.12705" lon="15.2035117"><ele>146.0</ele><time>2026-05-02T09:45:22.983Z</time></trkpt><trkpt lat="40.127035" lon="15.20336"><ele>146.0</ele><time>2026-05-02T09:45:23.984Z</time></trkpt><trkpt lat="40.12701" lon="15.2032183"><ele>146.0</ele><time>2026-05-02T09:45:24.984Z</time></trkpt><trkpt lat="40.1269817" lon="15.2030767"><ele>146.0</ele><time>2026-05-02T09:45:25.983Z</time></trkpt><trkpt lat="40.1269583" lon="15.2029283"><ele>146.0</ele><time>2026-05-02T09:45:26.983Z</time></trkpt><trkpt lat="40.12694" lon="15.20279"><ele>146.0</ele><time>2026-05-02T09:45:27.983Z</time></trkpt><trkpt lat="40.126935" lon="15.20265"><ele>145.6</ele><time>2026-05-02T09:45:28.983Z</time></trkpt><trkpt lat="40.126945" lon="15.20251"><ele>145.2</ele><time>2026-05-02T09:45:29.984Z</time></trkpt><trkpt lat="40.1269633" lon="15.2023733"><ele>144.8</ele><time>2026-05-02T09:45:30.984Z</time></trkpt><trkpt lat="40.1269883" lon="15.2022367"><ele>144.4</ele><time>2026-05-02T09:45:31.983Z</time></trkpt><trkpt lat="40.1270083" lon="15.2021"><ele>144.0</ele><time>2026-05-02T09:45:32.984Z</time></trkpt><trkpt lat="40.1270183" lon="15.201975"><ele>144.0</ele><time>2026-05-02T09:45:33.983Z</time></trkpt><trkpt lat="40.1270233" lon="15.201855"><ele>144.0</ele><time>2026-05-02T09:45:34.983Z</time></trkpt><trkpt lat="40.127025" lon="15.201745"><ele>144.0</ele><time>2026-05-02T09:45:35.983Z</time></trkpt><trkpt lat="40.1270233" lon="15.201655"><ele>144.0</ele><time>2026-05-02T09:45:36.984Z</time></trkpt><trkpt lat="40.127025" lon="15.201505"><ele>144.0</ele><time>2026-05-02T09:45:38.984Z</time></trkpt><trkpt lat="40.1270133" lon="15.2013767"><ele>144.0</ele><time>2026-05-02T09:45:40.984Z</time></trkpt><trkpt lat="40.1270017" lon="15.2012617"><ele>144.0</ele><time>2026-05-02T09:45:42.983Z</time></trkpt><trkpt lat="40.1269983" lon="15.2011583"><ele>144.0</ele><time>2026-05-02T09:45:44.983Z</time></trkpt><trkpt lat="40.126995" lon="15.20107"><ele>144.0</ele><time>2026-05-02T09:45:46.984Z</time></trkpt><trkpt lat="40.12699" lon="15.2009767"><ele>144.0</ele><time>2026-05-02T09:45:48.983Z</time></trkpt><trkpt lat="40.1269883" lon="15.2008783"><ele>144.0</ele><time>2026-05-02T09:45:50.983Z</time></trkpt><trkpt lat="40.1269917" lon="15.2007883"><ele>144.0</ele><time>2026-05-02T09:45:52.983Z</time></trkpt><trkpt lat="40.1269933" lon="15.2006983"><ele>144.0</ele><time>2026-05-02T09:45:54.983Z</time></trkpt><trkpt lat="40.1270033" lon="15.2005933"><ele>144.0</ele><time>2026-05-02T09:45:56.983Z</time></trkpt><trkpt lat="40.1270117" lon="15.2004833"><ele>144.0</ele><time>2026-05-02T09:45:58.984Z</time></trkpt><trkpt lat="40.1270133" lon="15.2003733"><ele>144.0</ele><time>2026-05-02T09:46:00.984Z</time></trkpt><trkpt lat="40.12702" lon="15.2002567"><ele>144.0</ele><time>2026-05-02T09:46:02.983Z</time></trkpt><trkpt lat="40.12704" lon="15.200135"><ele>143.0</ele><time>2026-05-02T09:46:04.984Z</time></trkpt><trkpt lat="40.12705" lon="15.2"><ele>142.0</ele><time>2026-05-02T09:46:06.983Z</time></trkpt><trkpt lat="40.12706" lon="15.199865"><ele>141.0</ele><time>2026-05-02T09:46:08.983Z</time></trkpt><trkpt lat="40.1270567" lon="15.1997267"><ele>140.0</ele><time>2026-05-02T09:46:10.984Z</time></trkpt><trkpt lat="40.1270633" lon="15.1995967"><ele>139.0</ele><time>2026-05-02T09:46:12.983Z</time></trkpt><trkpt lat="40.1270667" lon="15.1995"><ele>138.42857142857142</ele><time>2026-05-02T09:46:14.983Z</time></trkpt><trkpt lat="40.1270667" lon="15.199395"><ele>137.85714285714286</ele><time>2026-05-02T09:46:17.983Z</time></trkpt><trkpt lat="40.1270717" lon="15.1993067"><ele>137.28571428571428</ele><time>2026-05-02T09:46:20.983Z</time></trkpt><trkpt lat="40.1270667" lon="15.19922"><ele>136.71428571428572</ele><time>2026-05-02T09:46:23.983Z</time></trkpt><trkpt lat="40.1270633" lon="15.1991267"><ele>136.14285714285714</ele><time>2026-05-02T09:46:28.983Z</time></trkpt><trkpt lat="40.1270717" lon="15.1990317"><ele>135.57142857142856</ele><time>2026-05-02T09:46:32.983Z</time></trkpt><trkpt lat="40.1270667" lon="15.1989333"><ele>135.0</ele><time>2026-05-02T09:46:43.983Z</time></trkpt><trkpt lat="40.1270517" lon="15.1988433"><ele>135.0</ele><time>2026-05-02T09:46:48.983Z</time></trkpt><trkpt lat="40.1270317" lon="15.198745"><ele>135.0</ele><time>2026-05-02T09:46:51.984Z</time></trkpt><trkpt lat="40.1270133" lon="15.1986533"><ele>135.0</ele><time>2026-05-02T09:46:53.983Z</time></trkpt><trkpt lat="40.1269967" lon="15.1985517"><ele>135.0</ele><time>2026-05-02T09:46:55.983Z</time></trkpt><trkpt lat="40.1269883" lon="15.1984483"><ele>135.0</ele><time>2026-05-02T09:46:57.983Z</time></trkpt><trkpt lat="40.1269867" lon="15.1983267"><ele>135.0</ele><time>2026-05-02T09:46:59.984Z</time></trkpt><trkpt lat="40.126975" lon="15.1981933"><ele>135.14285714285714</ele><time>2026-05-02T09:47:01.983Z</time></trkpt><trkpt lat="40.126965" lon="15.1981067"><ele>135.28571428571428</ele><time>2026-05-02T09:47:02.984Z</time></trkpt><trkpt lat="40.1269617" lon="15.1980017"><ele>135.42857142857142</ele><time>2026-05-02T09:47:03.984Z</time></trkpt><trkpt lat="40.1269533" lon="15.1978983"><ele>135.57142857142856</ele><time>2026-05-02T09:47:04.984Z</time></trkpt><trkpt lat="40.126955" lon="15.1978067"><ele>135.71428571428572</ele><time>2026-05-02T09:47:05.984Z</time></trkpt><trkpt lat="40.1269533" lon="15.1977133"><ele>135.85714285714283</ele><time>2026-05-02T09:47:06.983Z</time></trkpt><trkpt lat="40.1269483" lon="15.1976283"><ele>136.0</ele><time>2026-05-02T09:47:07.984Z</time></trkpt><trkpt lat="40.1269467" lon="15.1974617"><ele>136.0</ele><time>2026-05-02T09:47:09.983Z</time></trkpt><trkpt lat="40.1269417" lon="15.1973767"><ele>136.0</ele><time>2026-05-02T09:47:10.983Z</time></trkpt><trkpt lat="40.126935" lon="15.19723"><ele>136.0</ele><time>2026-05-02T09:47:12.984Z</time></trkpt><trkpt lat="40.126925" lon="15.1971333"><ele>136.0</ele><time>2026-05-02T09:47:14.983Z</time></trkpt><trkpt lat="40.1269083" lon="15.1970317"><ele>136.0</ele><time>2026-05-02T09:47:16.983Z</time></trkpt><trkpt lat="40.1268917" lon="15.1969033"><ele>136.0</ele><time>2026-05-02T09:47:18.984Z</time></trkpt><trkpt lat="40.1268683" lon="15.196755"><ele>134.25</ele><time>2026-05-02T09:47:20.983Z</time></trkpt><trkpt lat="40.1268717" lon="15.1966017"><ele>132.5</ele><time>2026-05-02T09:47:22.983Z</time></trkpt><trkpt lat="40.1268967" lon="15.196445"><ele>130.75</ele><time>2026-05-02T09:47:24.983Z</time></trkpt><trkpt lat="40.1269733" lon="15.1963067"><ele>129.0</ele><time>2026-05-02T09:47:26.983Z</time></trkpt><trkpt lat="40.1270367" lon="15.1962267"><ele>124.66666666666667</ele><time>2026-05-02T09:47:27.984Z</time></trkpt><trkpt lat="40.127105" lon="15.1961533"><ele>120.33333333333334</ele><time>2026-05-02T09:47:28.983Z</time></trkpt><trkpt lat="40.1271767" lon="15.196095"><ele>116.0</ele><time>2026-05-02T09:47:29.983Z</time></trkpt><trkpt lat="40.12725" lon="15.196055"><ele>111.66666666666667</ele><time>2026-05-02T09:47:30.983Z</time></trkpt><trkpt lat="40.1273217" lon="15.1960433"><ele>107.33333333333334</ele><time>2026-05-02T09:47:31.983Z</time></trkpt><trkpt lat="40.1273883" lon="15.1960533"><ele>103.0</ele><time>2026-05-02T09:47:32.983Z</time></trkpt><trkpt lat="40.1274867" lon="15.196115"><ele>103.0</ele><time>2026-05-02T09:47:34.984Z</time></trkpt><trkpt lat="40.1275817" lon="15.1962233"><ele>103.0</ele><time>2026-05-02T09:47:36.984Z</time></trkpt><trkpt lat="40.127665" lon="15.196345"><ele>103.0</ele><time>2026-05-02T09:47:38.983Z</time></trkpt><trkpt lat="40.127755" lon="15.1964517"><ele>103.0</ele><time>2026-05-02T09:47:40.983Z</time></trkpt><trkpt lat="40.1278667" lon="15.19653"><ele>101.2</ele><time>2026-05-02T09:47:42.983Z</time></trkpt><trkpt lat="40.1279283" lon="15.1965633"><ele>99.4</ele><time>2026-05-02T09:47:43.984Z</time></trkpt><trkpt lat="40.128045" lon="15.1965583"><ele>97.60000000000001</ele><time>2026-05-02T09:47:45.983Z</time></trkpt><trkpt lat="40.1281367" lon="15.19653"><ele>95.80000000000001</ele><time>2026-05-02T09:47:47.983Z</time></trkpt><trkpt lat="40.128235" lon="15.1965133"><ele>94.0</ele><time>2026-05-02T09:47:49.983Z</time></trkpt><trkpt lat="40.12833" lon="15.1965"><ele>94.0</ele><time>2026-05-02T09:47:51.984Z</time></trkpt><trkpt lat="40.128415" lon="15.196495"><ele>94.0</ele><time>2026-05-02T09:47:53.983Z</time></trkpt><trkpt lat="40.1285133" lon="15.19649"><ele>94.0</ele><time>2026-05-02T09:47:55.983Z</time></trkpt><trkpt lat="40.1286183" lon="15.19648"><ele>94.0</ele><time>2026-05-02T09:47:57.984Z</time></trkpt><trkpt lat="40.128735" lon="15.1964883"><ele>94.0</ele><time>2026-05-02T09:47:59.984Z</time></trkpt><trkpt lat="40.1287983" lon="15.1965"><ele>100.4</ele><time>2026-05-02T09:48:00.983Z</time></trkpt><trkpt lat="40.1288983" lon="15.196575"><ele>106.80000000000001</ele><time>2026-05-02T09:48:02.983Z</time></trkpt><trkpt lat="40.128975" lon="15.19668"><ele>113.19999999999999</ele><time>2026-05-02T09:48:04.983Z</time></trkpt><trkpt lat="40.129015" lon="15.1967867"><ele>119.6</ele><time>2026-05-02T09:48:06.982Z</time></trkpt><trkpt lat="40.1290383" lon="15.19689"><ele>126.0</ele><time>2026-05-02T09:48:08.982Z</time></trkpt><trkpt lat="40.1290517" lon="15.19698"><ele>126.33333333333333</ele><time>2026-05-02T09:48:10.982Z</time></trkpt><trkpt lat="40.1290683" lon="15.1970983"><ele>126.66666666666666</ele><time>2026-05-02T09:48:13.982Z</time></trkpt><trkpt lat="40.1290867" lon="15.1972083"><ele>127.0</ele><time>2026-05-02T09:48:16.982Z</time></trkpt><trkpt lat="40.129115" lon="15.1973183"><ele>127.33333333333333</ele><time>2026-05-02T09:48:19.982Z</time></trkpt><trkpt lat="40.1291533" lon="15.19741"><ele>127.66666666666666</ele><time>2026-05-02T09:48:22.982Z</time></trkpt><trkpt lat="40.1292133" lon="15.1974883"><ele>128.0</ele><time>2026-05-02T09:48:25.982Z</time></trkpt><trkpt lat="40.129275" lon="15.197555"><ele>128.0</ele><time>2026-05-02T09:48:28.982Z</time></trkpt><trkpt lat="40.12934" lon="15.1976233"><ele>128.0</ele><time>2026-05-02T09:48:31.982Z</time></trkpt><trkpt lat="40.12939" lon="15.1976783"><ele>128.0</ele><time>2026-05-02T09:48:33.983Z</time></trkpt><trkpt lat="40.1294433" lon="15.1977367"><ele>128.0</ele><time>2026-05-02T09:48:35.983Z</time></trkpt><trkpt lat="40.129015" lon="15.1967867"><ele>127.99999999999999</ele><time>2026-05-02T09:48:06.982Z</time></trkpt><trkpt lat="40.1290383" lon="15.19689"><ele>128.0</ele><time>2026-05-02T09:48:08.982Z</time></trkpt><trkpt lat="40.1290517" lon="15.19698"><ele>128.0</ele><time>2026-05-02T09:48:10.982Z</time></trkpt><trkpt lat="40.1290683" lon="15.1970983"><ele>128.0</ele><time>2026-05-02T09:48:13.982Z</time></trkpt><trkpt lat="40.1290867" lon="15.1972083"><ele>127.99999999999999</ele><time>2026-05-02T09:48:16.982Z</time></trkpt><trkpt lat="40.129115" lon="15.1973183"><ele>128.0</ele><time>2026-05-02T09:48:19.982Z</time></trkpt><trkpt lat="40.1291533" lon="15.19741"><ele>127.99999999999999</ele><time>2026-05-02T09:48:22.982Z</time></trkpt><trkpt lat="40.1292133" lon="15.1974883"><ele>128.0</ele><time>2026-05-02T09:48:25.982Z</time></trkpt><trkpt lat="40.129275" lon="15.197555"><ele>128.0</ele><time>2026-05-02T09:48:28.982Z</time></trkpt><trkpt lat="40.12934" lon="15.1976233"><ele>128.0</ele><time>2026-05-02T09:48:31.982Z</time></trkpt><trkpt lat="40.12939" lon="15.1976783"><ele>127.99999999999999</ele><time>2026-05-02T09:48:33.983Z</time></trkpt><trkpt lat="40.1294433" lon="15.1977367"><ele>128.0</ele><time>2026-05-02T09:48:35.983Z</time></trkpt><trkpt lat="40.1295" lon="15.1978"><ele>127.99999999999999</ele><time>2026-05-02T09:48:37.982Z</time></trkpt><trkpt lat="40.129555" lon="15.1978667"><ele>128.0</ele><time>2026-05-02T09:48:39.982Z</time></trkpt><trkpt lat="40.1296217" lon="15.1979133"><ele>128.0</ele><time>2026-05-02T09:48:41.983Z</time></trkpt><trkpt lat="40.1296867" lon="15.1979533"><ele>128.0</ele><time>2026-05-02T09:48:43.982Z</time></trkpt><trkpt lat="40.1297667" lon="15.1979783"><ele>127.99999999999999</ele><time>2026-05-02T09:48:45.983Z</time></trkpt><trkpt lat="40.12986" lon="15.1979867"><ele>128.0</ele><time>2026-05-02T09:48:47.982Z</time></trkpt><trkpt lat="40.1299717" lon="15.1979933"><ele>123.66666666666666</ele><time>2026-05-02T09:48:49.982Z</time></trkpt><trkpt lat="40.130105" lon="15.1980033"><ele>119.33333333333333</ele><time>2026-05-02T09:48:51.982Z</time></trkpt><trkpt lat="40.130175" lon="15.19801"><ele>115.0</ele><time>2026-05-02T09:48:52.982Z</time></trkpt><trkpt lat="40.1302417" lon="15.19801"><ele>110.66666666666666</ele><time>2026-05-02T09:48:53.982Z</time></trkpt><trkpt lat="40.1303117" lon="15.1980117"><ele>106.33333333333333</ele><time>2026-05-02T09:48:54.983Z</time></trkpt><trkpt lat="40.1303817" lon="15.198015"><ele>102.0</ele><time>2026-05-02T09:48:55.982Z</time></trkpt><trkpt lat="40.13045" lon="15.1980267"><ele>102.0</ele><time>2026-05-02T09:48:56.982Z</time></trkpt><trkpt lat="40.13052" lon="15.1980383"><ele>102.0</ele><time>2026-05-02T09:48:57.982Z</time></trkpt><trkpt lat="40.130605" lon="15.1980617"><ele>102.0</ele><time>2026-05-02T09:48:58.982Z</time></trkpt><trkpt lat="40.1307017" lon="15.198115"><ele>102.0</ele><time>2026-05-02T09:48:59.982Z</time></trkpt><trkpt lat="40.130805" lon="15.1981817"><ele>102.0</ele><time>2026-05-02T09:49:00.983Z</time></trkpt><trkpt lat="40.1308983" lon="15.1982633"><ele>105.8</ele><time>2026-05-02T09:49:01.982Z</time></trkpt><trkpt lat="40.1309983" lon="15.19834"><ele>109.6</ele><time>2026-05-02T09:49:02.983Z</time></trkpt><trkpt lat="40.1311033" lon="15.1984167"><ele>113.39999999999999</ele><time>2026-05-02T09:49:03.983Z</time></trkpt><trkpt lat="40.1312" lon="15.1984783"><ele>117.19999999999999</ele><time>2026-05-02T09:49:04.983Z</time></trkpt><trkpt lat="40.13129" lon="15.19854"><ele>121.0</ele><time>2026-05-02T09:49:05.983Z</time></trkpt><trkpt lat="40.1313617" lon="15.198585"><ele>121.0</ele><time>2026-05-02T09:49:06.982Z</time></trkpt><trkpt lat="40.13144" lon="15.1986233"><ele>121.0</ele><time>2026-05-02T09:49:07.982Z</time></trkpt><trkpt lat="40.1315267" lon="15.1986483"><ele>121.0</ele><time>2026-05-02T09:49:08.982Z</time></trkpt><trkpt lat="40.131615" lon="15.1986567"><ele>121.0</ele><time>2026-05-02T09:49:09.982Z</time></trkpt><trkpt lat="40.1317083" lon="15.198665"><ele>121.0</ele><time>2026-05-02T09:49:10.982Z</time></trkpt><trkpt lat="40.131805" lon="15.1986667"><ele>116.4</ele><time>2026-05-02T09:49:11.982Z</time></trkpt><trkpt lat="40.1319017" lon="15.198665"><ele>111.8</ele><time>2026-05-02T09:49:12.982Z</time></trkpt><trkpt lat="40.1319983" lon="15.1986783"><ele>107.2</ele><time>2026-05-02T09:49:13.983Z</time></trkpt><trkpt lat="40.1320967" lon="15.1986883"><ele>102.60000000000001</ele><time>2026-05-02T09:49:14.982Z</time></trkpt><trkpt lat="40.1321883" lon="15.19869"><ele>98.0</ele><time>2026-05-02T09:49:15.982Z</time></trkpt><trkpt lat="40.1322783" lon="15.1987"><ele>97.99999999999999</ele><time>2026-05-02T09:49:16.982Z</time></trkpt><trkpt lat="40.1323683" lon="15.19871"><ele>98.0</ele><time>2026-05-02T09:49:17.983Z</time></trkpt><trkpt lat="40.1324617" lon="15.198715"><ele>98.0</ele><time>2026-05-02T09:49:18.983Z</time></trkpt><trkpt lat="40.1325383" lon="15.1987317"><ele>98.0</ele><time>2026-05-02T09:49:19.983Z</time></trkpt><trkpt lat="40.1326133" lon="15.1987717"><ele>97.99999999999999</ele><time>2026-05-02T09:49:20.983Z</time></trkpt><trkpt lat="40.13267" lon="15.198825"><ele>98.0</ele><time>2026-05-02T09:49:21.983Z</time></trkpt><trkpt lat="40.1327083" lon="15.1989"><ele>97.49999999999999</ele><time>2026-05-02T09:49:22.982Z</time></trkpt><trkpt lat="40.13273" lon="15.1989883"><ele>97.0</ele><time>2026-05-02T09:49:23.982Z</time></trkpt><trkpt lat="40.1327167" lon="15.19909"><ele>96.5</ele><time>2026-05-02T09:49:24.982Z</time></trkpt><trkpt lat="40.13269" lon="15.199185"><ele>96.0</ele><time>2026-05-02T09:49:25.982Z</time></trkpt><trkpt lat="40.1326467" lon="15.199295"><ele>95.5</ele><time>2026-05-02T09:49:26.983Z</time></trkpt><trkpt lat="40.1325817" lon="15.1994183"><ele>95.0</ele><time>2026-05-02T09:49:27.983Z</time></trkpt><trkpt lat="40.1324967" lon="15.1995533"><ele>95.0</ele><time>2026-05-02T09:49:28.983Z</time></trkpt><trkpt lat="40.13242" lon="15.1996917"><ele>95.0</ele><time>2026-05-02T09:49:29.982Z</time></trkpt><trkpt lat="40.132365" lon="15.1998233"><ele>95.0</ele><time>2026-05-02T09:49:30.982Z</time></trkpt><trkpt lat="40.1322967" lon="15.1999417"><ele>95.0</ele><time>2026-05-02T09:49:31.983Z</time></trkpt><trkpt lat="40.1322367" lon="15.2000517"><ele>101.6</ele><time>2026-05-02T09:49:32.982Z</time></trkpt><trkpt lat="40.1321867" lon="15.20016"><ele>108.2</ele><time>2026-05-02T09:49:33.982Z</time></trkpt><trkpt lat="40.13216" lon="15.2002683"><ele>114.80000000000001</ele><time>2026-05-02T09:49:34.982Z</time></trkpt><trkpt lat="40.1321467" lon="15.2003783"><ele>121.4</ele><time>2026-05-02T09:49:35.982Z</time></trkpt><trkpt lat="40.1321467" lon="15.2005117"><ele>128.0</ele><time>2026-05-02T09:49:36.983Z</time></trkpt><trkpt lat="40.1321567" lon="15.20064"><ele>126.66666666666666</ele><time>2026-05-02T09:49:37.982Z</time></trkpt><trkpt lat="40.1321617" lon="15.2007417"><ele>125.33333333333333</ele><time>2026-05-02T09:49:38.982Z</time></trkpt><trkpt lat="40.1322" lon="15.2008233"><ele>124.0</ele><time>2026-05-02T09:49:39.983Z</time></trkpt><trkpt lat="40.1322567" lon="15.2008683"><ele>122.66666666666666</ele><time>2026-05-02T09:49:40.983Z</time></trkpt><trkpt lat="40.1323217" lon="15.2008767"><ele>121.33333333333333</ele><time>2026-05-02T09:49:41.982Z</time></trkpt><trkpt lat="40.1324017" lon="15.2008617"><ele>120.0</ele><time>2026-05-02T09:49:42.983Z</time></trkpt><trkpt lat="40.132495" lon="15.2008217"><ele>112.4</ele><time>2026-05-02T09:49:43.982Z</time></trkpt><trkpt lat="40.1325833" lon="15.2007767"><ele>104.8</ele><time>2026-05-02T09:49:44.982Z</time></trkpt><trkpt lat="40.13267" lon="15.2007367"><ele>97.19999999999999</ele><time>2026-05-02T09:49:45.982Z</time></trkpt><trkpt lat="40.132755" lon="15.200705"><ele>89.6</ele><time>2026-05-02T09:49:46.983Z</time></trkpt><trkpt lat="40.1328383" lon="15.2006667"><ele>82.0</ele><time>2026-05-02T09:49:47.982Z</time></trkpt><trkpt lat="40.1329217" lon="15.20063"><ele>82.0</ele><time>2026-05-02T09:49:48.982Z</time></trkpt><trkpt lat="40.1330033" lon="15.2005967"><ele>82.0</ele><time>2026-05-02T09:49:49.982Z</time></trkpt><trkpt lat="40.133085" lon="15.2005567"><ele>82.0</ele><time>2026-05-02T09:49:50.982Z</time></trkpt><trkpt lat="40.133165" lon="15.2005217"><ele>82.0</ele><time>2026-05-02T09:49:51.983Z</time></trkpt><trkpt lat="40.1332383" lon="15.2004817"><ele>82.0</ele><time>2026-05-02T09:49:52.982Z</time></trkpt><trkpt lat="40.133305" lon="15.2004467"><ele>82.0</ele><time>2026-05-02T09:49:53.983Z</time></trkpt><trkpt lat="40.1333583" lon="15.2003967"><ele>81.0</ele><time>2026-05-02T09:49:54.982Z</time></trkpt><trkpt lat="40.1334533" lon="15.2002833"><ele>80.0</ele><time>2026-05-02T09:49:56.983Z</time></trkpt><trkpt lat="40.1335" lon="15.2002233"><ele>79.0</ele><time>2026-05-02T09:49:57.982Z</time></trkpt><trkpt lat="40.13355" lon="15.2001567"><ele>78.0</ele><time>2026-05-02T09:49:58.982Z</time></trkpt><trkpt lat="40.1336" lon="15.2000917"><ele>77.0</ele><time>2026-05-02T09:49:59.983Z</time></trkpt><trkpt lat="40.133645" lon="15.200025"><ele>76.0</ele><time>2026-05-02T09:50:00.982Z</time></trkpt><trkpt lat="40.1336883" lon="15.19995"><ele>76.0</ele><time>2026-05-02T09:50:01.983Z</time></trkpt><trkpt lat="40.133735" lon="15.19987"><ele>76.0</ele><time>2026-05-02T09:50:02.983Z</time></trkpt><trkpt lat="40.1337867" lon="15.1997983"><ele>76.0</ele><time>2026-05-02T09:50:03.983Z</time></trkpt><trkpt lat="40.1338267" lon="15.19973"><ele>76.0</ele><time>2026-05-02T09:50:04.983Z</time></trkpt><trkpt lat="40.1338633" lon="15.1996417"><ele>76.0</ele><time>2026-05-02T09:50:05.982Z</time></trkpt><trkpt lat="40.1339167" lon="15.1995667"><ele>76.0</ele><time>2026-05-02T09:50:06.982Z</time></trkpt><trkpt lat="40.1339467" lon="15.1994833"><ele>76.0</ele><time>2026-05-02T09:50:07.983Z</time></trkpt><trkpt lat="40.13397" lon="15.1993967"><ele>75.0</ele><time>2026-05-02T09:50:08.983Z</time></trkpt><trkpt lat="40.1340067" lon="15.1993217"><ele>74.0</ele><time>2026-05-02T09:50:09.982Z</time></trkpt><trkpt lat="40.13405" lon="15.1992517"><ele>73.0</ele><time>2026-05-02T09:50:10.982Z</time></trkpt><trkpt lat="40.13411" lon="15.1992033"><ele>72.0</ele><time>2026-05-02T09:50:11.982Z</time></trkpt><trkpt lat="40.1341733" lon="15.1991633"><ele>71.0</ele><time>2026-05-02T09:50:12.982Z</time></trkpt><trkpt lat="40.13424" lon="15.1991433"><ele>70.0</ele><time>2026-05-02T09:50:13.982Z</time></trkpt><trkpt lat="40.1343083" lon="15.199135"><ele>69.0</ele><time>2026-05-02T09:50:14.982Z</time></trkpt><trkpt lat="40.1343833" lon="15.1991267"><ele>73.6</ele><time>2026-05-02T09:50:15.982Z</time></trkpt><trkpt lat="40.1344533" lon="15.1991"><ele>78.2</ele><time>2026-05-02T09:50:16.982Z</time></trkpt><trkpt lat="40.13454" lon="15.1989883"><ele>82.8</ele><time>2026-05-02T09:50:18.982Z</time></trkpt><trkpt lat="40.1345133" lon="15.1988283"><ele>87.39999999999999</ele><time>2026-05-02T09:50:20.982Z</time></trkpt><trkpt lat="40.1344583" lon="15.1987483"><ele>92.0</ele><time>2026-05-02T09:50:21.983Z</time></trkpt><trkpt lat="40.1343933" lon="15.19869"><ele>92.0</ele><time>2026-05-02T09:50:22.982Z</time></trkpt><trkpt lat="40.1343183" lon="15.19864"><ele>92.0</ele><time>2026-05-02T09:50:23.983Z</time></trkpt><trkpt lat="40.134245" lon="15.1985833"><ele>92.0</ele><time>2026-05-02T09:50:24.982Z</time></trkpt><trkpt lat="40.1341917" lon="15.1985017"><ele>92.0</ele><time>2026-05-02T09:50:25.983Z</time></trkpt><trkpt lat="40.1341533" lon="15.1983967"><ele>92.0</ele><time>2026-05-02T09:50:26.983Z</time></trkpt><trkpt lat="40.1341383" lon="15.1982933"><ele>92.0</ele><time>2026-05-02T09:50:27.982Z</time></trkpt><trkpt lat="40.1341433" lon="15.1981717"><ele>91.8</ele><time>2026-05-02T09:50:28.982Z</time></trkpt><trkpt lat="40.13418" lon="15.1980467"><ele>91.6</ele><time>2026-05-02T09:50:29.982Z</time></trkpt><trkpt lat="40.1342317" lon="15.1979283"><ele>91.39999999999999</ele><time>2026-05-02T09:50:30.982Z</time></trkpt><trkpt lat="40.1343067" lon="15.1978217"><ele>91.19999999999999</ele><time>2026-05-02T09:50:31.982Z</time></trkpt><trkpt lat="40.1343917" lon="15.1977167"><ele>91.0</ele><time>2026-05-02T09:50:32.982Z</time></trkpt><trkpt lat="40.1344817" lon="15.197615"><ele>91.0</ele><time>2026-05-02T09:50:33.982Z</time></trkpt><trkpt lat="40.1345683" lon="15.1975017"><ele>91.0</ele><time>2026-05-02T09:50:34.982Z</time></trkpt><trkpt lat="40.1346517" lon="15.1973917"><ele>91.0</ele><time>2026-05-02T09:50:35.982Z</time></trkpt><trkpt lat="40.13473" lon="15.1972833"><ele>91.0</ele><time>2026-05-02T09:50:36.982Z</time></trkpt><trkpt lat="40.1348033" lon="15.1971867"><ele>93.19999999999999</ele><time>2026-05-02T09:50:37.983Z</time></trkpt><trkpt lat="40.1348767" lon="15.197095"><ele>95.39999999999999</ele><time>2026-05-02T09:50:38.982Z</time></trkpt><trkpt lat="40.13495" lon="15.197"><ele>97.6</ele><time>2026-05-02T09:50:39.982Z</time></trkpt><trkpt lat="40.1350217" lon="15.19691"><ele>99.8</ele><time>2026-05-02T09:50:40.983Z</time></trkpt><trkpt lat="40.1350833" lon="15.1968133"><ele>102.0</ele><time>2026-05-02T09:50:41.982Z</time></trkpt><trkpt lat="40.1351417" lon="15.1967167"><ele>102.66666666666667</ele><time>2026-05-02T09:50:42.982Z</time></trkpt><trkpt lat="40.1351983" lon="15.1966167"><ele>103.33333333333334</ele><time>2026-05-02T09:50:43.982Z</time></trkpt><trkpt lat="40.1352467" lon="15.196515"><ele>104.0</ele><time>2026-05-02T09:50:44.982Z</time></trkpt><trkpt lat="40.1352817" lon="15.1964083"><ele>104.66666666666667</ele><time>2026-05-02T09:50:45.983Z</time></trkpt><trkpt lat="40.1352867" lon="15.1963183"><ele>105.33333333333334</ele><time>2026-05-02T09:50:46.983Z</time></trkpt><trkpt lat="40.135265" lon="15.1962317"><ele>106.0</ele><time>2026-05-02T09:50:47.982Z</time></trkpt><trkpt lat="40.1352133" lon="15.19616"><ele>110.0</ele><time>2026-05-02T09:50:48.982Z</time></trkpt><trkpt lat="40.13514" lon="15.1961267"><ele>114.0</ele><time>2026-05-02T09:50:49.982Z</time></trkpt><trkpt lat="40.1350633" lon="15.196135"><ele>118.0</ele><time>2026-05-02T09:50:50.983Z</time></trkpt><trkpt lat="40.1349867" lon="15.1961783"><ele>122.0</ele><time>2026-05-02T09:50:51.982Z</time></trkpt><trkpt lat="40.1349" lon="15.1962583"><ele>126.0</ele><time>2026-05-02T09:50:52.983Z</time></trkpt><trkpt lat="40.1347983" lon="15.1963267"><ele>127.25</ele><time>2026-05-02T09:50:53.982Z</time></trkpt><trkpt lat="40.1346933" lon="15.1963767"><ele>128.5</ele><time>2026-05-02T09:50:54.983Z</time></trkpt><trkpt lat="40.1345767" lon="15.1963983"><ele>129.75</ele><time>2026-05-02T09:50:55.983Z</time></trkpt><trkpt lat="40.1344617" lon="15.1964133"><ele>131.0</ele><time>2026-05-02T09:50:56.982Z</time></trkpt><trkpt lat="40.1343567" lon="15.1964367"><ele>131.0</ele><time>2026-05-02T09:50:57.983Z</time></trkpt><trkpt lat="40.1342483" lon="15.19645"><ele>131.0</ele><time>2026-05-02T09:50:58.982Z</time></trkpt><trkpt lat="40.134145" lon="15.19644"><ele>131.0</ele><time>2026-05-02T09:50:59.982Z</time></trkpt><trkpt lat="40.13405" lon="15.196415"><ele>131.0</ele><time>2026-05-02T09:51:00.982Z</time></trkpt><trkpt lat="40.1339717" lon="15.1963767"><ele>131.0</ele><time>2026-05-02T09:51:01.983Z</time></trkpt><trkpt lat="40.1339067" lon="15.1963267"><ele>129.16666666666666</ele><time>2026-05-02T09:51:02.983Z</time></trkpt><trkpt lat="40.1338633" lon="15.196265"><ele>127.33333333333333</ele><time>2026-05-02T09:51:03.982Z</time></trkpt><trkpt lat="40.1338367" lon="15.196185"><ele>125.5</ele><time>2026-05-02T09:51:04.982Z</time></trkpt><trkpt lat="40.1338283" lon="15.1960967"><ele>123.66666666666666</ele><time>2026-05-02T09:51:05.982Z</time></trkpt><trkpt lat="40.13383" lon="15.196"><ele>121.83333333333333</ele><time>2026-05-02T09:51:06.982Z</time></trkpt><trkpt lat="40.133805" lon="15.1959117"><ele>120.0</ele><time>2026-05-02T09:51:07.982Z</time></trkpt><trkpt lat="40.1337117" lon="15.1958283"><ele>120.0</ele><time>2026-05-02T09:51:09.982Z</time></trkpt><trkpt lat="40.133645" lon="15.1958333"><ele>120.0</ele><time>2026-05-02T09:51:10.983Z</time></trkpt><trkpt lat="40.133575" lon="15.19587"><ele>120.0</ele><time>2026-05-02T09:51:11.983Z</time></trkpt><trkpt lat="40.1335017" lon="15.1959267"><ele>120.0</ele><time>2026-05-02T09:51:12.983Z</time></trkpt><trkpt lat="40.1334217" lon="15.1959817"><ele>120.0</ele><time>2026-05-02T09:51:13.982Z</time></trkpt><trkpt lat="40.13335" lon="15.1960283"><ele>120.0</ele><time>2026-05-02T09:51:14.982Z</time></trkpt><trkpt lat="40.1332683" lon="15.196055"><ele>117.4</ele><time>2026-05-02T09:51:15.982Z</time></trkpt><trkpt lat="40.1331733" lon="15.1960617"><ele>114.8</ele><time>2026-05-02T09:51:16.982Z</time></trkpt><trkpt lat="40.133075" lon="15.1960367"><ele>112.19999999999999</ele><time>2026-05-02T09:51:17.982Z</time></trkpt><trkpt lat="40.1329917" lon="15.1959933"><ele>109.6</ele><time>2026-05-02T09:51:18.982Z</time></trkpt><trkpt lat="40.13292" lon="15.1959233"><ele>107.0</ele><time>2026-05-02T09:51:19.983Z</time></trkpt><trkpt lat="40.1328633" lon="15.1958267"><ele>107.0</ele><time>2026-05-02T09:51:20.982Z</time></trkpt><trkpt lat="40.132835" lon="15.19571"><ele>106.99999999999999</ele><time>2026-05-02T09:51:21.983Z</time></trkpt><trkpt lat="40.132825" lon="15.1955783"><ele>106.99999999999999</ele><time>2026-05-02T09:51:22.982Z</time></trkpt><trkpt lat="40.13282" lon="15.19545"><ele>107.0</ele><time>2026-05-02T09:51:23.982Z</time></trkpt><trkpt lat="40.13279" lon="15.1953483"><ele>107.0</ele><time>2026-05-02T09:51:24.982Z</time></trkpt><trkpt lat="40.1327383" lon="15.1952683"><ele>108.39999999999999</ele><time>2026-05-02T09:51:25.983Z</time></trkpt><trkpt lat="40.1326683" lon="15.1952167"><ele>109.79999999999998</ele><time>2026-05-02T09:51:26.983Z</time></trkpt><trkpt lat="40.132585" lon="15.1951683"><ele>111.2</ele><time>2026-05-02T09:51:27.983Z</time></trkpt><trkpt lat="40.132495" lon="15.1951317"><ele>112.6</ele><time>2026-05-02T09:51:28.983Z</time></trkpt><trkpt lat="40.1324083" lon="15.195085"><ele>114.0</ele><time>2026-05-02T09:51:29.983Z</time></trkpt><trkpt lat="40.13232" lon="15.1950533"><ele>114.0</ele><time>2026-05-02T09:51:30.982Z</time></trkpt><trkpt lat="40.1322283" lon="15.1950317"><ele>114.0</ele><time>2026-05-02T09:51:31.983Z</time></trkpt><trkpt lat="40.132145" lon="15.1950017"><ele>114.0</ele><time>2026-05-02T09:51:32.982Z</time></trkpt><trkpt lat="40.13206" lon="15.19497"><ele>114.0</ele><time>2026-05-02T09:51:33.982Z</time></trkpt><trkpt lat="40.1319817" lon="15.1949133"><ele>114.0</ele><time>2026-05-02T09:51:34.983Z</time></trkpt><trkpt lat="40.1319067" lon="15.1948467"><ele>114.0</ele><time>2026-05-02T09:51:35.982Z</time></trkpt><trkpt lat="40.1318417" lon="15.19476"><ele>111.33333333333333</ele><time>2026-05-02T09:51:36.982Z</time></trkpt><trkpt lat="40.1317783" lon="15.1946683"><ele>108.66666666666666</ele><time>2026-05-02T09:51:37.983Z</time></trkpt><trkpt lat="40.131715" lon="15.1945783"><ele>106.0</ele><time>2026-05-02T09:51:38.982Z</time></trkpt><trkpt lat="40.1316567" lon="15.1944883"><ele>103.33333333333333</ele><time>2026-05-02T09:51:39.982Z</time></trkpt><trkpt lat="40.131595" lon="15.1944067"><ele>100.66666666666666</ele><time>2026-05-02T09:51:40.983Z</time></trkpt><trkpt lat="40.1315383" lon="15.194335"><ele>98.0</ele><time>2026-05-02T09:51:41.982Z</time></trkpt><trkpt lat="40.13149" lon="15.1942683"><ele>97.99999999999999</ele><time>2026-05-02T09:51:42.982Z</time></trkpt><trkpt lat="40.1314483" lon="15.1941767"><ele>98.0</ele><time>2026-05-02T09:51:43.982Z</time></trkpt><trkpt lat="40.131415" lon="15.1940817"><ele>98.0</ele><time>2026-05-02T09:51:44.982Z</time></trkpt><trkpt lat="40.1313933" lon="15.19398"><ele>98.0</ele><time>2026-05-02T09:51:45.983Z</time></trkpt><trkpt lat="40.1313783" lon="15.1938717"><ele>97.99999999999999</ele><time>2026-05-02T09:51:46.983Z</time></trkpt><trkpt lat="40.131375" lon="15.1937633"><ele>98.0</ele><time>2026-05-02T09:51:47.983Z</time></trkpt><trkpt lat="40.13136" lon="15.1936683"><ele>105.33333333333333</ele><time>2026-05-02T09:51:48.982Z</time></trkpt><trkpt lat="40.131335" lon="15.1935867"><ele>112.66666666666666</ele><time>2026-05-02T09:51:49.982Z</time></trkpt><trkpt lat="40.1312917" lon="15.1935183"><ele>120.0</ele><time>2026-05-02T09:51:50.982Z</time></trkpt><trkpt lat="40.13123" lon="15.193465"><ele>127.33333333333334</ele><time>2026-05-02T09:51:51.983Z</time></trkpt><trkpt lat="40.1311483" lon="15.1934183"><ele>134.66666666666669</ele><time>2026-05-02T09:51:52.982Z</time></trkpt><trkpt lat="40.1310567" lon="15.1933883"><ele>142.0</ele><time>2026-05-02T09:51:53.982Z</time></trkpt><trkpt lat="40.13096" lon="15.1933583"><ele>142.0</ele><time>2026-05-02T09:51:54.982Z</time></trkpt><trkpt lat="40.1308683" lon="15.193325"><ele>142.0</ele><time>2026-05-02T09:51:55.983Z</time></trkpt><trkpt lat="40.1307733" lon="15.1932733"><ele>142.0</ele><time>2026-05-02T09:51:56.982Z</time></trkpt><trkpt lat="40.1306883" lon="15.1932083"><ele>142.0</ele><time>2026-05-02T09:51:57.982Z</time></trkpt><trkpt lat="40.1306033" lon="15.1931333"><ele>142.0</ele><time>2026-05-02T09:51:58.983Z</time></trkpt><trkpt lat="40.1305167" lon="15.1930583"><ele>145.66666666666669</ele><time>2026-05-02T09:51:59.983Z</time></trkpt><trkpt lat="40.1304433" lon="15.1929933"><ele>149.33333333333334</ele><time>2026-05-02T09:52:00.982Z</time></trkpt><trkpt lat="40.1303883" lon="15.1929467"><ele>153.0</ele><time>2026-05-02T09:52:01.982Z</time></trkpt><trkpt lat="40.1303017" lon="15.1928967"><ele>156.66666666666666</ele><time>2026-05-02T09:52:04.982Z</time></trkpt><trkpt lat="40.1302283" lon="15.19285"><ele>160.33333333333331</ele><time>2026-05-02T09:52:06.982Z</time></trkpt><trkpt lat="40.1301383" lon="15.1928033"><ele>164.0</ele><time>2026-05-02T09:52:08.982Z</time></trkpt><trkpt lat="40.13002" lon="15.1927583"><ele>164.0</ele><time>2026-05-02T09:52:10.983Z</time></trkpt><trkpt lat="40.1299533" lon="15.1927433"><ele>164.0</ele><time>2026-05-02T09:52:11.982Z</time></trkpt><trkpt lat="40.1298833" lon="15.1927233"><ele>164.0</ele><time>2026-05-02T09:52:12.982Z</time></trkpt><trkpt lat="40.12981" lon="15.1926967"><ele>164.0</ele><time>2026-05-02T09:52:13.982Z</time></trkpt><trkpt lat="40.1297383" lon="15.192655"><ele>164.0</ele><time>2026-05-02T09:52:14.982Z</time></trkpt><trkpt lat="40.1296683" lon="15.192595"><ele>164.0</ele><time>2026-05-02T09:52:15.982Z</time></trkpt><trkpt lat="40.1296033" lon="15.192525"><ele>165.33333333333331</ele><time>2026-05-02T09:52:16.982Z</time></trkpt><trkpt lat="40.1295383" lon="15.1924583"><ele>166.66666666666666</ele><time>2026-05-02T09:52:17.982Z</time></trkpt><trkpt lat="40.1294667" lon="15.1923817"><ele>168.0</ele><time>2026-05-02T09:52:18.982Z</time></trkpt><trkpt lat="40.1294" lon="15.19231"><ele>169.33333333333334</ele><time>2026-05-02T09:52:19.982Z</time></trkpt><trkpt lat="40.12933" lon="15.1922367"><ele>170.66666666666669</ele><time>2026-05-02T09:52:20.982Z</time></trkpt><trkpt lat="40.1292583" lon="15.1921617"><ele>172.0</ele><time>2026-05-02T09:52:21.983Z</time></trkpt><trkpt lat="40.129185" lon="15.1920967"><ele>172.0</ele><time>2026-05-02T09:52:22.982Z</time></trkpt><trkpt lat="40.129105" lon="15.1920333"><ele>172.0</ele><time>2026-05-02T09:52:23.982Z</time></trkpt><trkpt lat="40.1290317" lon="15.19198"><ele>172.0</ele><time>2026-05-02T09:52:24.982Z</time></trkpt><trkpt lat="40.1289517" lon="15.191935"><ele>172.0</ele><time>2026-05-02T09:52:25.983Z</time></trkpt><trkpt lat="40.1288617" lon="15.1919083"><ele>172.0</ele><time>2026-05-02T09:52:26.982Z</time></trkpt><trkpt lat="40.12876" lon="15.1918983"><ele>169.8</ele><time>2026-05-02T09:52:27.982Z</time></trkpt><trkpt lat="40.1286517" lon="15.1919067"><ele>167.6</ele><time>2026-05-02T09:52:28.982Z</time></trkpt><trkpt lat="40.1285433" lon="15.191905"><ele>165.4</ele><time>2026-05-02T09:52:29.982Z</time></trkpt><trkpt lat="40.1284283" lon="15.1918833"><ele>163.20000000000002</ele><time>2026-05-02T09:52:30.982Z</time></trkpt><trkpt lat="40.1283217" lon="15.191845"><ele>161.0</ele><time>2026-05-02T09:52:31.982Z</time></trkpt><trkpt lat="40.1282117" lon="15.1918083"><ele>157.20000000000002</ele><time>2026-05-02T09:52:32.982Z</time></trkpt><trkpt lat="40.1281033" lon="15.191785"><ele>153.4</ele><time>2026-05-02T09:52:33.983Z</time></trkpt><trkpt lat="40.1280033" lon="15.191745"><ele>149.6</ele><time>2026-05-02T09:52:34.982Z</time></trkpt><trkpt lat="40.127905" lon="15.1917083"><ele>145.8</ele><time>2026-05-02T09:52:35.982Z</time></trkpt><trkpt lat="40.12781" lon="15.1916567"><ele>142.0</ele><time>2026-05-02T09:52:36.983Z</time></trkpt><trkpt lat="40.12773" lon="15.19161"><ele>142.0</ele><time>2026-05-02T09:52:37.982Z</time></trkpt><trkpt lat="40.1276533" lon="15.19154"><ele>142.0</ele><time>2026-05-02T09:52:38.982Z</time></trkpt><trkpt lat="40.1276083" lon="15.19144"><ele>142.0</ele><time>2026-05-02T09:52:39.982Z</time></trkpt><trkpt lat="40.127595" lon="15.19134"><ele>142.0</ele><time>2026-05-02T09:52:40.982Z</time></trkpt><trkpt lat="40.1276083" lon="15.1912417"><ele>142.0</ele><time>2026-05-02T09:52:41.982Z</time></trkpt><trkpt lat="40.1276583" lon="15.1911467"><ele>142.0</ele><time>2026-05-02T09:52:42.982Z</time></trkpt><trkpt lat="40.12775" lon="15.1910667"><ele>142.0</ele><time>2026-05-02T09:52:43.982Z</time></trkpt><trkpt lat="40.12786" lon="15.1909883"><ele>142.0</ele><time>2026-05-02T09:52:44.982Z</time></trkpt><trkpt lat="40.1280117" lon="15.19092"><ele>142.0</ele><time>2026-05-02T09:52:45.982Z</time></trkpt><trkpt lat="40.12819" lon="15.1908867"><ele>144.75</ele><time>2026-05-02T09:52:46.983Z</time></trkpt><trkpt lat="40.1283483" lon="15.19086"><ele>147.5</ele><time>2026-05-02T09:52:47.983Z</time></trkpt><trkpt lat="40.1284817" lon="15.1908267"><ele>150.25</ele><time>2026-05-02T09:52:48.982Z</time></trkpt><trkpt lat="40.1286" lon="15.1908067"><ele>153.0</ele><time>2026-05-02T09:52:49.982Z</time></trkpt><trkpt lat="40.1287117" lon="15.1908"><ele>153.0</ele><time>2026-05-02T09:52:50.982Z</time></trkpt><trkpt lat="40.1288133" lon="15.1908083"><ele>153.0</ele><time>2026-05-02T09:52:51.982Z</time></trkpt><trkpt lat="40.1289117" lon="15.1908217"><ele>153.0</ele><time>2026-05-02T09:52:52.982Z</time></trkpt><trkpt lat="40.129005" lon="15.1908417"><ele>153.0</ele><time>2026-05-02T09:52:53.982Z</time></trkpt><trkpt lat="40.1290983" lon="15.1908467"><ele>153.0</ele><time>2026-05-02T09:52:54.982Z</time></trkpt><trkpt lat="40.1291883" lon="15.19084"><ele>155.0</ele><time>2026-05-02T09:52:55.983Z</time></trkpt><trkpt lat="40.129285" lon="15.1908367"><ele>157.0</ele><time>2026-05-02T09:52:56.983Z</time></trkpt><trkpt lat="40.1293783" lon="15.1908283"><ele>159.0</ele><time>2026-05-02T09:52:57.983Z</time></trkpt><trkpt lat="40.1294717" lon="15.190825"><ele>161.0</ele><time>2026-05-02T09:52:58.982Z</time></trkpt><trkpt lat="40.12956" lon="15.19084"><ele>163.0</ele><time>2026-05-02T09:52:59.982Z</time></trkpt><trkpt lat="40.129645" lon="15.1908533"><ele>163.0</ele><time>2026-05-02T09:53:00.982Z</time></trkpt><trkpt lat="40.1297367" lon="15.1908683"><ele>163.0</ele><time>2026-05-02T09:53:01.982Z</time></trkpt><trkpt lat="40.12983" lon="15.1908883"><ele>163.0</ele><time>2026-05-02T09:53:02.982Z</time></trkpt><trkpt lat="40.1299283" lon="15.19091"><ele>163.0</ele><time>2026-05-02T09:53:03.983Z</time></trkpt><trkpt lat="40.1300333" lon="15.1909333"><ele>163.0</ele><time>2026-05-02T09:53:04.983Z</time></trkpt><trkpt lat="40.13014" lon="15.1909633"><ele>163.2</ele><time>2026-05-02T09:53:05.982Z</time></trkpt><trkpt lat="40.1302417" lon="15.191"><ele>163.4</ele><time>2026-05-02T09:53:06.982Z</time></trkpt><trkpt lat="40.130345" lon="15.19104"><ele>163.6</ele><time>2026-05-02T09:53:07.983Z</time></trkpt><trkpt lat="40.1304433" lon="15.1910867"><ele>163.79999999999998</ele><time>2026-05-02T09:53:08.983Z</time></trkpt><trkpt lat="40.1305367" lon="15.19113"><ele>164.0</ele><time>2026-05-02T09:53:09.982Z</time></trkpt><trkpt lat="40.1306333" lon="15.1911667"><ele>166.2</ele><time>2026-05-02T09:53:10.983Z</time></trkpt><trkpt lat="40.13073" lon="15.19121"><ele>168.39999999999998</ele><time>2026-05-02T09:53:11.982Z</time></trkpt><trkpt lat="40.1308217" lon="15.1912467"><ele>170.6</ele><time>2026-05-02T09:53:12.982Z</time></trkpt><trkpt lat="40.1309083" lon="15.191275"><ele>172.8</ele><time>2026-05-02T09:53:13.982Z</time></trkpt><trkpt lat="40.1309883" lon="15.1912933"><ele>175.0</ele><time>2026-05-02T09:53:14.982Z</time></trkpt><trkpt lat="40.1310733" lon="15.1912717"><ele>175.0</ele><time>2026-05-02T09:53:15.983Z</time></trkpt><trkpt lat="40.1311633" lon="15.1912433"><ele>175.0</ele><time>2026-05-02T09:53:16.982Z</time></trkpt><trkpt lat="40.1312483" lon="15.191205"><ele>175.0</ele><time>2026-05-02T09:53:17.982Z</time></trkpt><trkpt lat="40.1313367" lon="15.191165"><ele>175.0</ele><time>2026-05-02T09:53:18.983Z</time></trkpt><trkpt lat="40.13143" lon="15.19113"><ele>175.0</ele><time>2026-05-02T09:53:19.983Z</time></trkpt><trkpt lat="40.1315267" lon="15.191095"><ele>177.2</ele><time>2026-05-02T09:53:20.982Z</time></trkpt><trkpt lat="40.1316283" lon="15.1910567"><ele>179.4</ele><time>2026-05-02T09:53:21.983Z</time></trkpt><trkpt lat="40.1317167" lon="15.191015"><ele>181.60000000000002</ele><time>2026-05-02T09:53:22.982Z</time></trkpt><trkpt lat="40.1318033" lon="15.1909633"><ele>183.8</ele><time>2026-05-02T09:53:23.982Z</time></trkpt><trkpt lat="40.131875" lon="15.1909117"><ele>186.0</ele><time>2026-05-02T09:53:24.983Z</time></trkpt><trkpt lat="40.1319267" lon="15.1908367"><ele>186.0</ele><time>2026-05-02T09:53:25.982Z</time></trkpt><trkpt lat="40.131955" lon="15.1906817"><ele>186.0</ele><time>2026-05-02T09:53:27.983Z</time></trkpt><trkpt lat="40.13192" lon="15.190585"><ele>186.0</ele><time>2026-05-02T09:53:28.983Z</time></trkpt><trkpt lat="40.1318633" lon="15.1905033"><ele>186.0</ele><time>2026-05-02T09:53:29.982Z</time></trkpt><trkpt lat="40.1317883" lon="15.1904467"><ele>186.0</ele><time>2026-05-02T09:53:30.982Z</time></trkpt><trkpt lat="40.1316967" lon="15.1904317"><ele>185.20000000000002</ele><time>2026-05-02T09:53:31.982Z</time></trkpt><trkpt lat="40.1315983" lon="15.19043"><ele>184.4</ele><time>2026-05-02T09:53:32.982Z</time></trkpt><trkpt lat="40.1315" lon="15.1904217"><ele>183.6</ele><time>2026-05-02T09:53:33.983Z</time></trkpt><trkpt lat="40.1314017" lon="15.190405"><ele>182.8</ele><time>2026-05-02T09:53:34.982Z</time></trkpt><trkpt lat="40.131305" lon="15.1903767"><ele>182.0</ele><time>2026-05-02T09:53:35.983Z</time></trkpt><trkpt lat="40.1312217" lon="15.1903317"><ele>182.0</ele><time>2026-05-02T09:53:36.982Z</time></trkpt><trkpt lat="40.13113" lon="15.1902717"><ele>182.0</ele><time>2026-05-02T09:53:37.983Z</time></trkpt><trkpt lat="40.13104" lon="15.1902083"><ele>182.0</ele><time>2026-05-02T09:53:38.983Z</time></trkpt><trkpt lat="40.1309617" lon="15.1901233"><ele>182.0</ele><time>2026-05-02T09:53:39.983Z</time></trkpt><trkpt lat="40.1308833" lon="15.1900283"><ele>182.0</ele><time>2026-05-02T09:53:40.983Z</time></trkpt><trkpt lat="40.130805" lon="15.1899333"><ele>182.0</ele><time>2026-05-02T09:53:41.983Z</time></trkpt><trkpt lat="40.13073" lon="15.1898483"><ele>182.0</ele><time>2026-05-02T09:53:42.982Z</time></trkpt><trkpt lat="40.1306583" lon="15.1897683"><ele>182.0</ele><time>2026-05-02T09:53:43.983Z</time></trkpt><trkpt lat="40.1305917" lon="15.1896983"><ele>182.0</ele><time>2026-05-02T09:53:44.982Z</time></trkpt><trkpt lat="40.1305167" lon="15.1896383"><ele>182.0</ele><time>2026-05-02T09:53:45.982Z</time></trkpt><trkpt lat="40.1304433" lon="15.18957"><ele>181.16666666666666</ele><time>2026-05-02T09:53:46.983Z</time></trkpt><trkpt lat="40.1303683" lon="15.1895033"><ele>180.33333333333331</ele><time>2026-05-02T09:53:47.982Z</time></trkpt><trkpt lat="40.1303217" lon="15.1894267"><ele>179.5</ele><time>2026-05-02T09:53:48.982Z</time></trkpt><trkpt lat="40.130295" lon="15.1893317"><ele>178.66666666666666</ele><time>2026-05-02T09:53:49.982Z</time></trkpt><trkpt lat="40.13029" lon="15.1892267"><ele>177.83333333333334</ele><time>2026-05-02T09:53:50.983Z</time></trkpt><trkpt lat="40.1303083" lon="15.1891217"><ele>177.0</ele><time>2026-05-02T09:53:51.982Z</time></trkpt><trkpt lat="40.130345" lon="15.1890283"><ele>176.8</ele><time>2026-05-02T09:53:52.982Z</time></trkpt><trkpt lat="40.13041" lon="15.1889283"><ele>176.6</ele><time>2026-05-02T09:53:53.982Z</time></trkpt><trkpt lat="40.1304867" lon="15.1888217"><ele>176.4</ele><time>2026-05-02T09:53:54.983Z</time></trkpt><trkpt lat="40.13054" lon="15.188725"><ele>176.20000000000002</ele><time>2026-05-02T09:53:55.982Z</time></trkpt><trkpt lat="40.1305983" lon="15.1886183"><ele>176.0</ele><time>2026-05-02T09:53:56.982Z</time></trkpt><trkpt lat="40.1306383" lon="15.1885117"><ele>176.0</ele><time>2026-05-02T09:53:57.982Z</time></trkpt><trkpt lat="40.1306867" lon="15.1883983"><ele>176.0</ele><time>2026-05-02T09:53:58.982Z</time></trkpt><trkpt lat="40.1307267" lon="15.1883033"><ele>176.0</ele><time>2026-05-02T09:53:59.982Z</time></trkpt><trkpt lat="40.1307567" lon="15.1882"><ele>176.0</ele><time>2026-05-02T09:54:00.982Z</time></trkpt><trkpt lat="40.1308033" lon="15.1880983"><ele>176.0</ele><time>2026-05-02T09:54:01.982Z</time></trkpt><trkpt lat="40.1308517" lon="15.1879983"><ele>176.0</ele><time>2026-05-02T09:54:02.982Z</time></trkpt><trkpt lat="40.1309133" lon="15.1879033"><ele>176.4</ele><time>2026-05-02T09:54:03.983Z</time></trkpt><trkpt lat="40.1309867" lon="15.187815"><ele>176.8</ele><time>2026-05-02T09:54:04.982Z</time></trkpt><trkpt lat="40.1310633" lon="15.1877333"><ele>177.20000000000002</ele><time>2026-05-02T09:54:05.982Z</time></trkpt><trkpt lat="40.1311483" lon="15.1876483"><ele>177.60000000000002</ele><time>2026-05-02T09:54:06.982Z</time></trkpt><trkpt lat="40.1312383" lon="15.18758"><ele>178.0</ele><time>2026-05-02T09:54:07.982Z</time></trkpt><trkpt lat="40.1313217" lon="15.18751"><ele>178.0</ele><time>2026-05-02T09:54:08.983Z</time></trkpt><trkpt lat="40.131405" lon="15.1874333"><ele>178.0</ele><time>2026-05-02T09:54:09.982Z</time></trkpt><trkpt lat="40.1314733" lon="15.18736"><ele>178.0</ele><time>2026-05-02T09:54:10.982Z</time></trkpt><trkpt lat="40.13154" lon="15.187275"><ele>178.0</ele><time>2026-05-02T09:54:11.982Z</time></trkpt><trkpt lat="40.1316083" lon="15.187195"><ele>178.0</ele><time>2026-05-02T09:54:12.982Z</time></trkpt><trkpt lat="40.1316817" lon="15.187125"><ele>176.5</ele><time>2026-05-02T09:54:13.983Z</time></trkpt><trkpt lat="40.1317583" lon="15.1870767"><ele>175.0</ele><time>2026-05-02T09:54:14.982Z</time></trkpt><trkpt lat="40.1318433" lon="15.1870517"><ele>173.5</ele><time>2026-05-02T09:54:15.983Z</time></trkpt><trkpt lat="40.1319333" lon="15.1870533"><ele>172.0</ele><time>2026-05-02T09:54:16.982Z</time></trkpt><trkpt lat="40.1320217" lon="15.187065"><ele>170.5</ele><time>2026-05-02T09:54:17.983Z</time></trkpt><trkpt lat="40.1321117" lon="15.18708"><ele>169.0</ele><time>2026-05-02T09:54:18.983Z</time></trkpt><trkpt lat="40.1322133" lon="15.1871033"><ele>169.0</ele><time>2026-05-02T09:54:19.982Z</time></trkpt><trkpt lat="40.1323133" lon="15.1871183"><ele>169.0</ele><time>2026-05-02T09:54:20.983Z</time></trkpt><trkpt lat="40.132415" lon="15.1871517"><ele>169.0</ele><time>2026-05-02T09:54:21.982Z</time></trkpt><trkpt lat="40.1325133" lon="15.1871817"><ele>169.0</ele><time>2026-05-02T09:54:22.982Z</time></trkpt><trkpt lat="40.1326217" lon="15.1872217"><ele>169.0</ele><time>2026-05-02T09:54:23.982Z</time></trkpt><trkpt lat="40.1327383" lon="15.18726"><ele>171.5</ele><time>2026-05-02T09:54:24.982Z</time></trkpt><trkpt lat="40.1328533" lon="15.1872917"><ele>174.0</ele><time>2026-05-02T09:54:25.982Z</time></trkpt><trkpt lat="40.1329733" lon="15.187325"><ele>176.5</ele><time>2026-05-02T09:54:26.982Z</time></trkpt><trkpt lat="40.1330817" lon="15.18737"><ele>179.0</ele><time>2026-05-02T09:54:27.982Z</time></trkpt><trkpt lat="40.133185" lon="15.187425"><ele>184.39999999999998</ele><time>2026-05-02T09:54:28.983Z</time></trkpt><trkpt lat="40.1332867" lon="15.18748"><ele>189.8</ele><time>2026-05-02T09:54:29.982Z</time></trkpt><trkpt lat="40.13339" lon="15.187535"><ele>195.2</ele><time>2026-05-02T09:54:30.982Z</time></trkpt><trkpt lat="40.1334867" lon="15.1875867"><ele>200.60000000000002</ele><time>2026-05-02T09:54:31.982Z</time></trkpt><trkpt lat="40.1335883" lon="15.1876033"><ele>206.0</ele><time>2026-05-02T09:54:32.983Z</time></trkpt><trkpt lat="40.1336833" lon="15.1875817"><ele>206.0</ele><time>2026-05-02T09:54:33.982Z</time></trkpt><trkpt lat="40.1337767" lon="15.1875433"><ele>206.0</ele><time>2026-05-02T09:54:34.982Z</time></trkpt><trkpt lat="40.13387" lon="15.1875117"><ele>206.0</ele><time>2026-05-02T09:54:35.982Z</time></trkpt><trkpt lat="40.1339617" lon="15.1874867"><ele>206.0</ele><time>2026-05-02T09:54:36.982Z</time></trkpt><trkpt lat="40.1340583" lon="15.1874683"><ele>206.0</ele><time>2026-05-02T09:54:37.982Z</time></trkpt><trkpt lat="40.1341567" lon="15.1874717"><ele>205.83333333333334</ele><time>2026-05-02T09:54:38.983Z</time></trkpt><trkpt lat="40.1342533" lon="15.1874833"><ele>205.66666666666669</ele><time>2026-05-02T09:54:39.983Z</time></trkpt><trkpt lat="40.1343517" lon="15.187495"><ele>205.5</ele><time>2026-05-02T09:54:40.982Z</time></trkpt><trkpt lat="40.13444" lon="15.187525"><ele>205.33333333333331</ele><time>2026-05-02T09:54:41.983Z</time></trkpt><trkpt lat="40.1345217" lon="15.1875533"><ele>205.16666666666666</ele><time>2026-05-02T09:54:42.982Z</time></trkpt><trkpt lat="40.134585" lon="15.187585"><ele>205.0</ele><time>2026-05-02T09:54:43.982Z</time></trkpt><trkpt lat="40.1346667" lon="15.187665"><ele>204.99999999999997</ele><time>2026-05-02T09:54:45.983Z</time></trkpt><trkpt lat="40.1347383" lon="15.1877217"><ele>205.0</ele><time>2026-05-02T09:54:48.982Z</time></trkpt><trkpt lat="40.1348067" lon="15.18778"><ele>205.0</ele><time>2026-05-02T09:54:51.982Z</time></trkpt><trkpt lat="40.134865" lon="15.1878267"><ele>205.0</ele><time>2026-05-02T09:54:53.983Z</time></trkpt><trkpt lat="40.1349367" lon="15.18788"><ele>204.99999999999997</ele><time>2026-05-02T09:54:55.983Z</time></trkpt><trkpt lat="40.1349933" lon="15.1879283"><ele>205.0</ele><time>2026-05-02T09:54:57.982Z</time></trkpt><trkpt lat="40.1350633" lon="15.1879933"><ele>203.8</ele><time>2026-05-02T09:55:00.983Z</time></trkpt><trkpt lat="40.1351283" lon="15.1880283"><ele>202.6</ele><time>2026-05-02T09:55:02.983Z</time></trkpt><trkpt lat="40.1352233" lon="15.1880667"><ele>201.39999999999998</ele><time>2026-05-02T09:55:04.983Z</time></trkpt><trkpt lat="40.1353383" lon="15.1881017"><ele>200.2</ele><time>2026-05-02T09:55:06.983Z</time></trkpt><trkpt lat="40.1354583" lon="15.1881433"><ele>199.0</ele><time>2026-05-02T09:55:08.982Z</time></trkpt><trkpt lat="40.1355283" lon="15.1881583"><ele>199.99999999999997</ele><time>2026-05-02T09:55:09.982Z</time></trkpt><trkpt lat="40.135605" lon="15.1881817"><ele>201.0</ele><time>2026-05-02T09:55:10.982Z</time></trkpt><trkpt lat="40.1356917" lon="15.1882"><ele>202.0</ele><time>2026-05-02T09:55:11.983Z</time></trkpt><trkpt lat="40.13577" lon="15.1882167"><ele>203.0</ele><time>2026-05-02T09:55:12.983Z</time></trkpt><trkpt lat="40.1358483" lon="15.1882383"><ele>203.99999999999997</ele><time>2026-05-02T09:55:13.982Z</time></trkpt><trkpt lat="40.135925" lon="15.1882583"><ele>205.0</ele><time>2026-05-02T09:55:14.982Z</time></trkpt><trkpt lat="40.1360067" lon="15.188275"><ele>205.0</ele><time>2026-05-02T09:55:15.983Z</time></trkpt><trkpt lat="40.1360883" lon="15.1882917"><ele>205.0</ele><time>2026-05-02T09:55:16.982Z</time></trkpt><trkpt lat="40.1361683" lon="15.1883133"><ele>205.0</ele><time>2026-05-02T09:55:17.982Z</time></trkpt><trkpt lat="40.1362367" lon="15.1883383"><ele>205.0</ele><time>2026-05-02T09:55:18.983Z</time></trkpt><trkpt lat="40.1363017" lon="15.1883617"><ele>205.0</ele><time>2026-05-02T09:55:19.982Z</time></trkpt><trkpt lat="40.1363633" lon="15.1883867"><ele>205.0</ele><time>2026-05-02T09:55:20.982Z</time></trkpt><trkpt lat="40.1364283" lon="15.1884017"><ele>205.0</ele><time>2026-05-02T09:55:21.982Z</time></trkpt><trkpt lat="40.136495" lon="15.1884183"><ele>205.14285714285714</ele><time>2026-05-02T09:55:22.982Z</time></trkpt><trkpt lat="40.1365633" lon="15.18843"><ele>205.28571428571428</ele><time>2026-05-02T09:55:23.982Z</time></trkpt><trkpt lat="40.1366367" lon="15.1884417"><ele>205.42857142857142</ele><time>2026-05-02T09:55:24.982Z</time></trkpt><trkpt lat="40.1367067" lon="15.1884433"><ele>205.57142857142856</ele><time>2026-05-02T09:55:25.983Z</time></trkpt><trkpt lat="40.13678" lon="15.1884633"><ele>205.71428571428572</ele><time>2026-05-02T09:55:26.982Z</time></trkpt><trkpt lat="40.1368567" lon="15.1884817"><ele>205.85714285714283</ele><time>2026-05-02T09:55:27.982Z</time></trkpt><trkpt lat="40.136935" lon="15.1884983"><ele>206.0</ele><time>2026-05-02T09:55:28.982Z</time></trkpt><trkpt lat="40.1370033" lon="15.1885183"><ele>206.0</ele><time>2026-05-02T09:55:29.982Z</time></trkpt><trkpt lat="40.1370717" lon="15.18854"><ele>206.0</ele><time>2026-05-02T09:55:30.983Z</time></trkpt><trkpt lat="40.1371883" lon="15.1885667"><ele>206.0</ele><time>2026-05-02T09:55:32.983Z</time></trkpt><trkpt lat="40.1372983" lon="15.1885933"><ele>206.0</ele><time>2026-05-02T09:55:34.983Z</time></trkpt><trkpt lat="40.137405" lon="15.1885967"><ele>206.0</ele><time>2026-05-02T09:55:36.982Z</time></trkpt><trkpt lat="40.13752" lon="15.1885767"><ele>206.66666666666669</ele><time>2026-05-02T09:55:38.982Z</time></trkpt><trkpt lat="40.1376383" lon="15.1885633"><ele>207.33333333333334</ele><time>2026-05-02T09:55:40.982Z</time></trkpt><trkpt lat="40.1377083" lon="15.18856"><ele>208.0</ele><time>2026-05-02T09:55:41.982Z</time></trkpt><trkpt lat="40.137775" lon="15.188565"><ele>208.66666666666669</ele><time>2026-05-02T09:55:42.983Z</time></trkpt><trkpt lat="40.1378483" lon="15.1885683"><ele>209.33333333333334</ele><time>2026-05-02T09:55:43.983Z</time></trkpt><trkpt lat="40.137925" lon="15.1885633"><ele>210.0</ele><time>2026-05-02T09:55:44.982Z</time></trkpt><trkpt lat="40.1380067" lon="15.1885717"><ele>210.0</ele><time>2026-05-02T09:55:45.983Z</time></trkpt><trkpt lat="40.1380817" lon="15.1885733"><ele>210.0</ele><time>2026-05-02T09:55:46.982Z</time></trkpt><trkpt lat="40.1381533" lon="15.1885617"><ele>210.0</ele><time>2026-05-02T09:55:47.982Z</time></trkpt><trkpt lat="40.1382117" lon="15.1885117"><ele>210.0</ele><time>2026-05-02T09:55:48.982Z</time></trkpt><trkpt lat="40.1382583" lon="15.18844"><ele>210.0</ele><time>2026-05-02T09:55:49.982Z</time></trkpt><trkpt lat="40.13827" lon="15.188335"><ele>210.0</ele><time>2026-05-02T09:55:50.983Z</time></trkpt><trkpt lat="40.1382683" lon="15.1882233"><ele>208.66666666666666</ele><time>2026-05-02T09:55:51.982Z</time></trkpt><trkpt lat="40.1382467" lon="15.18811"><ele>207.33333333333331</ele><time>2026-05-02T09:55:52.983Z</time></trkpt><trkpt lat="40.13823" lon="15.187995"><ele>206.0</ele><time>2026-05-02T09:55:53.982Z</time></trkpt><trkpt lat="40.1382067" lon="15.187885"><ele>204.66666666666666</ele><time>2026-05-02T09:55:54.982Z</time></trkpt><trkpt lat="40.1382" lon="15.18777"><ele>203.33333333333331</ele><time>2026-05-02T09:55:55.983Z</time></trkpt><trkpt lat="40.1382033" lon="15.1876567"><ele>202.0</ele><time>2026-05-02T09:55:56.983Z</time></trkpt><trkpt lat="40.13823" lon="15.1875617"><ele>202.83333333333331</ele><time>2026-05-02T09:55:57.982Z</time></trkpt><trkpt lat="40.1382667" lon="15.187475"><ele>203.66666666666666</ele><time>2026-05-02T09:55:58.982Z</time></trkpt><trkpt lat="40.138335" lon="15.1874033"><ele>204.5</ele><time>2026-05-02T09:55:59.983Z</time></trkpt><trkpt lat="40.1384067" lon="15.18733"><ele>205.33333333333331</ele><time>2026-05-02T09:56:00.982Z</time></trkpt><trkpt lat="40.1384933" lon="15.1872867"><ele>206.16666666666666</ele><time>2026-05-02T09:56:01.983Z</time></trkpt><trkpt lat="40.1385783" lon="15.1872433"><ele>207.0</ele><time>2026-05-02T09:56:02.982Z</time></trkpt><trkpt lat="40.1386517" lon="15.187215"><ele>207.0</ele><time>2026-05-02T09:56:03.982Z</time></trkpt><trkpt lat="40.1387383" lon="15.1871533"><ele>207.0</ele><time>2026-05-02T09:56:04.982Z</time></trkpt><trkpt lat="40.13882" lon="15.1871017"><ele>207.0</ele><time>2026-05-02T09:56:05.982Z</time></trkpt><trkpt lat="40.13889" lon="15.1870417"><ele>207.0</ele><time>2026-05-02T09:56:06.982Z</time></trkpt><trkpt lat="40.1389617" lon="15.1869933"><ele>207.0</ele><time>2026-05-02T09:56:07.983Z</time></trkpt><trkpt lat="40.13903" lon="15.186955"><ele>207.0</ele><time>2026-05-02T09:56:08.983Z</time></trkpt><trkpt lat="40.1391133" lon="15.1869017"><ele>210.0</ele><time>2026-05-02T09:56:09.982Z</time></trkpt><trkpt lat="40.1391867" lon="15.186825"><ele>213.0</ele><time>2026-05-02T09:56:10.982Z</time></trkpt><trkpt lat="40.1392517" lon="15.186755"><ele>216.0</ele><time>2026-05-02T09:56:11.983Z</time></trkpt><trkpt lat="40.1393267" lon="15.1867067"><ele>219.0</ele><time>2026-05-02T09:56:12.982Z</time></trkpt><trkpt lat="40.1393933" lon="15.1866533"><ele>222.0</ele><time>2026-05-02T09:56:13.982Z</time></trkpt><trkpt lat="40.139455" lon="15.1866067"><ele>225.0</ele><time>2026-05-02T09:56:14.983Z</time></trkpt><trkpt lat="40.1395167" lon="15.1865633"><ele>225.00000000000003</ele><time>2026-05-02T09:56:15.982Z</time></trkpt><trkpt lat="40.1395783" lon="15.1865283"><ele>225.0</ele><time>2026-05-02T09:56:16.982Z</time></trkpt><trkpt lat="40.139635" lon="15.1864817"><ele>225.00000000000003</ele><time>2026-05-02T09:56:17.982Z</time></trkpt><trkpt lat="40.1396783" lon="15.1864167"><ele>225.00000000000003</ele><time>2026-05-02T09:56:18.982Z</time></trkpt><trkpt lat="40.1397283" lon="15.1863483"><ele>225.0</ele><time>2026-05-02T09:56:19.982Z</time></trkpt><trkpt lat="40.13978" lon="15.18627"><ele>225.00000000000003</ele><time>2026-05-02T09:56:20.982Z</time></trkpt><trkpt lat="40.1398267" lon="15.186175"><ele>225.00000000000003</ele><time>2026-05-02T09:56:21.982Z</time></trkpt><trkpt lat="40.1398683" lon="15.18608"><ele>225.5</ele><time>2026-05-02T09:56:22.982Z</time></trkpt><trkpt lat="40.1399" lon="15.1859783"><ele>226.0</ele><time>2026-05-02T09:56:23.982Z</time></trkpt><trkpt lat="40.13994" lon="15.1858767"><ele>226.5</ele><time>2026-05-02T09:56:24.983Z</time></trkpt><trkpt lat="40.1399867" lon="15.185765"><ele>227.0</ele><time>2026-05-02T09:56:25.982Z</time></trkpt><trkpt lat="40.1400133" lon="15.1856633"><ele>227.5</ele><time>2026-05-02T09:56:26.982Z</time></trkpt><trkpt lat="40.1400567" lon="15.1855717"><ele>228.0</ele><time>2026-05-02T09:56:27.983Z</time></trkpt><trkpt lat="40.1401483" lon="15.18547"><ele>226.16666666666666</ele><time>2026-05-02T09:56:29.983Z</time></trkpt><trkpt lat="40.140215" lon="15.1854567"><ele>224.33333333333331</ele><time>2026-05-02T09:56:30.982Z</time></trkpt><trkpt lat="40.1403033" lon="15.1854533"><ele>222.5</ele><time>2026-05-02T09:56:31.983Z</time></trkpt><trkpt lat="40.1403983" lon="15.1854583"><ele>220.66666666666666</ele><time>2026-05-02T09:56:32.983Z</time></trkpt><trkpt lat="40.14049" lon="15.185455"><ele>218.83333333333331</ele><time>2026-05-02T09:56:33.982Z</time></trkpt><trkpt lat="40.140585" lon="15.1854417"><ele>217.0</ele><time>2026-05-02T09:56:34.982Z</time></trkpt><trkpt lat="40.1406767" lon="15.1854217"><ele>216.66666666666666</ele><time>2026-05-02T09:56:35.982Z</time></trkpt><trkpt lat="40.140765" lon="15.1853933"><ele>216.33333333333331</ele><time>2026-05-02T09:56:36.982Z</time></trkpt><trkpt lat="40.140845" lon="15.1853533"><ele>216.0</ele><time>2026-05-02T09:56:37.982Z</time></trkpt><trkpt lat="40.1409233" lon="15.1852967"><ele>215.66666666666669</ele><time>2026-05-02T09:56:38.982Z</time></trkpt><trkpt lat="40.14099" lon="15.185225"><ele>215.33333333333334</ele><time>2026-05-02T09:56:39.983Z</time></trkpt><trkpt lat="40.1410467" lon="15.1851483"><ele>215.0</ele><time>2026-05-02T09:56:40.983Z</time></trkpt><trkpt lat="40.14111" lon="15.1850617"><ele>215.00000000000003</ele><time>2026-05-02T09:56:41.982Z</time></trkpt><trkpt lat="40.1411667" lon="15.184975"><ele>215.0</ele><time>2026-05-02T09:56:42.983Z</time></trkpt><trkpt lat="40.14122" lon="15.1849"><ele>215.0</ele><time>2026-05-02T09:56:43.983Z</time></trkpt><trkpt lat="40.141275" lon="15.1848383"><ele>215.0</ele><time>2026-05-02T09:56:44.983Z</time></trkpt><trkpt lat="40.1413333" lon="15.1847767"><ele>215.00000000000003</ele><time>2026-05-02T09:56:45.982Z</time></trkpt><trkpt lat="40.14139" lon="15.1847217"><ele>215.0</ele><time>2026-05-02T09:56:46.982Z</time></trkpt><trkpt lat="40.141455" lon="15.1846617"><ele>214.57142857142856</ele><time>2026-05-02T09:56:47.982Z</time></trkpt><trkpt lat="40.1415133" lon="15.1846033"><ele>214.14285714285717</ele><time>2026-05-02T09:56:48.983Z</time></trkpt><trkpt lat="40.1415667" lon="15.1845417"><ele>213.71428571428572</ele><time>2026-05-02T09:56:49.983Z</time></trkpt><trkpt lat="40.1416133" lon="15.1844767"><ele>213.28571428571428</ele><time>2026-05-02T09:56:50.982Z</time></trkpt><trkpt lat="40.1416633" lon="15.1844117"><ele>212.85714285714283</ele><time>2026-05-02T09:56:51.983Z</time></trkpt><trkpt lat="40.1417083" lon="15.1843383"><ele>212.42857142857144</ele><time>2026-05-02T09:56:52.982Z</time></trkpt><trkpt lat="40.141745" lon="15.1842533"><ele>212.0</ele><time>2026-05-02T09:56:53.982Z</time></trkpt><trkpt lat="40.1417883" lon="15.1841617"><ele>212.00000000000003</ele><time>2026-05-02T09:56:54.983Z</time></trkpt><trkpt lat="40.14184" lon="15.184065"><ele>212.0</ele><time>2026-05-02T09:56:55.982Z</time></trkpt><trkpt lat="40.1418867" lon="15.1839767"><ele>212.0</ele><time>2026-05-02T09:56:56.982Z</time></trkpt><trkpt lat="40.1419283" lon="15.1838917"><ele>212.0</ele><time>2026-05-02T09:56:57.982Z</time></trkpt><trkpt lat="40.14198" lon="15.1838233"><ele>212.00000000000003</ele><time>2026-05-02T09:56:58.982Z</time></trkpt><trkpt lat="40.1420283" lon="15.1837567"><ele>212.0</ele><time>2026-05-02T09:56:59.982Z</time></trkpt><trkpt lat="40.1421317" lon="15.1837167"><ele>210.50000000000003</ele><time>2026-05-02T09:57:01.982Z</time></trkpt><trkpt lat="40.142255" lon="15.1837483"><ele>209.0</ele><time>2026-05-02T09:57:03.982Z</time></trkpt><trkpt lat="40.142315" lon="15.1837733"><ele>207.5</ele><time>2026-05-02T09:57:04.983Z</time></trkpt><trkpt lat="40.1423783" lon="15.1838083"><ele>206.0</ele><time>2026-05-02T09:57:05.982Z</time></trkpt><trkpt lat="40.14244" lon="15.18383"><ele>204.50000000000003</ele><time>2026-05-02T09:57:06.983Z</time></trkpt><trkpt lat="40.142505" lon="15.183825"><ele>203.0</ele><time>2026-05-02T09:57:07.982Z</time></trkpt><trkpt lat="40.1425617" lon="15.183785"><ele>203.00000000000003</ele><time>2026-05-02T09:57:08.982Z</time></trkpt><trkpt lat="40.1426117" lon="15.1837117"><ele>203.0</ele><time>2026-05-02T09:57:09.982Z</time></trkpt><trkpt lat="40.1426517" lon="15.1836183"><ele>203.0</ele><time>2026-05-02T09:57:10.982Z</time></trkpt><trkpt lat="40.1427" lon="15.1835133"><ele>203.0</ele><time>2026-05-02T09:57:11.982Z</time></trkpt><trkpt lat="40.1427417" lon="15.1834117"><ele>203.00000000000003</ele><time>2026-05-02T09:57:12.983Z</time></trkpt><trkpt lat="40.14278" lon="15.1833117"><ele>203.0</ele><time>2026-05-02T09:57:13.983Z</time></trkpt><trkpt lat="40.1428117" lon="15.1832067"><ele>200.83333333333334</ele><time>2026-05-02T09:57:14.982Z</time></trkpt><trkpt lat="40.142835" lon="15.1831017"><ele>198.66666666666669</ele><time>2026-05-02T09:57:15.983Z</time></trkpt><trkpt lat="40.142855" lon="15.1830033"><ele>196.5</ele><time>2026-05-02T09:57:16.982Z</time></trkpt><trkpt lat="40.14288" lon="15.182905"><ele>194.33333333333334</ele><time>2026-05-02T09:57:17.982Z</time></trkpt><trkpt lat="40.1428933" lon="15.18281"><ele>192.16666666666669</ele><time>2026-05-02T09:57:18.983Z</time></trkpt><trkpt lat="40.14292" lon="15.1827183"><ele>190.0</ele><time>2026-05-02T09:57:19.983Z</time></trkpt><trkpt lat="40.1429617" lon="15.1826083"><ele>190.0</ele><time>2026-05-02T09:57:20.983Z</time></trkpt><trkpt lat="40.1430083" lon="15.1824983"><ele>190.0</ele><time>2026-05-02T09:57:21.982Z</time></trkpt><trkpt lat="40.1430667" lon="15.1823983"><ele>190.0</ele><time>2026-05-02T09:57:22.982Z</time></trkpt><trkpt lat="40.1431383" lon="15.1823183"><ele>190.0</ele><time>2026-05-02T09:57:23.983Z</time></trkpt><trkpt lat="40.1432167" lon="15.1822833"><ele>190.0</ele><time>2026-05-02T09:57:24.982Z</time></trkpt><trkpt lat="40.1432983" lon="15.1822967"><ele>189.0</ele><time>2026-05-02T09:57:25.983Z</time></trkpt><trkpt lat="40.1433767" lon="15.182335"><ele>188.0</ele><time>2026-05-02T09:57:26.982Z</time></trkpt><trkpt lat="40.1434467" lon="15.1823967"><ele>187.0</ele><time>2026-05-02T09:57:27.982Z</time></trkpt><trkpt lat="40.1435217" lon="15.1824417"><ele>186.0</ele><time>2026-05-02T09:57:28.983Z</time></trkpt><trkpt lat="40.1436" lon="15.1824683"><ele>185.0</ele><time>2026-05-02T09:57:29.982Z</time></trkpt><trkpt lat="40.1436783" lon="15.182485"><ele>184.0</ele><time>2026-05-02T09:57:30.983Z</time></trkpt><trkpt lat="40.14376" lon="15.18246"><ele>184.0</ele><time>2026-05-02T09:57:31.983Z</time></trkpt><trkpt lat="40.1438417" lon="15.1824217"><ele>184.0</ele><time>2026-05-02T09:57:32.983Z</time></trkpt><trkpt lat="40.1439067" lon="15.1823667"><ele>184.0</ele><time>2026-05-02T09:57:33.983Z</time></trkpt><trkpt lat="40.143975" lon="15.1822883"><ele>184.0</ele><time>2026-05-02T09:57:34.982Z</time></trkpt><trkpt lat="40.14404" lon="15.1821933"><ele>184.0</ele><time>2026-05-02T09:57:35.982Z</time></trkpt><trkpt lat="40.1441067" lon="15.1821017"><ele>184.0</ele><time>2026-05-02T09:57:36.983Z</time></trkpt><trkpt lat="40.1441833" lon="15.1820183"><ele>183.79999999999998</ele><time>2026-05-02T09:57:37.983Z</time></trkpt><trkpt lat="40.1442783" lon="15.1819583"><ele>183.6</ele><time>2026-05-02T09:57:38.982Z</time></trkpt><trkpt lat="40.1443783" lon="15.1819117"><ele>183.4</ele><time>2026-05-02T09:57:39.982Z</time></trkpt><trkpt lat="40.1444883" lon="15.181895"><ele>183.2</ele><time>2026-05-02T09:57:40.982Z</time></trkpt><trkpt lat="40.1446033" lon="15.18189"><ele>183.0</ele><time>2026-05-02T09:57:41.983Z</time></trkpt><trkpt lat="40.144715" lon="15.1818933"><ele>183.0</ele><time>2026-05-02T09:57:42.983Z</time></trkpt><trkpt lat="40.1448283" lon="15.1818917"><ele>183.0</ele><time>2026-05-02T09:57:43.983Z</time></trkpt><trkpt lat="40.1449367" lon="15.18188"><ele>183.0</ele><time>2026-05-02T09:57:44.982Z</time></trkpt><trkpt lat="40.1450467" lon="15.1818367"><ele>183.0</ele><time>2026-05-02T09:57:45.982Z</time></trkpt><trkpt lat="40.1451633" lon="15.18176"><ele>183.5</ele><time>2026-05-02T09:57:46.983Z</time></trkpt><trkpt lat="40.1452633" lon="15.1816817"><ele>184.0</ele><time>2026-05-02T09:57:47.983Z</time></trkpt><trkpt lat="40.1453717" lon="15.1815933"><ele>184.5</ele><time>2026-05-02T09:57:48.982Z</time></trkpt><trkpt lat="40.1454817" lon="15.1814983"><ele>185.0</ele><time>2026-05-02T09:57:49.983Z</time></trkpt><trkpt lat="40.1455917" lon="15.181395"><ele>184.0</ele><time>2026-05-02T09:57:50.982Z</time></trkpt><trkpt lat="40.1457017" lon="15.181285"><ele>183.0</ele><time>2026-05-02T09:57:51.983Z</time></trkpt><trkpt lat="40.14581" lon="15.1811683"><ele>182.0</ele><time>2026-05-02T09:57:52.982Z</time></trkpt><trkpt lat="40.1459033" lon="15.1810417"><ele>181.0</ele><time>2026-05-02T09:57:53.982Z</time></trkpt><trkpt lat="40.14599" lon="15.1808983"><ele>181.0</ele><time>2026-05-02T09:57:54.982Z</time></trkpt><trkpt lat="40.1460617" lon="15.1807533"><ele>181.0</ele><time>2026-05-02T09:57:55.982Z</time></trkpt><trkpt lat="40.1461167" lon="15.1806017"><ele>181.0</ele><time>2026-05-02T09:57:56.982Z</time></trkpt><trkpt lat="40.1461617" lon="15.1804433"><ele>181.0</ele><time>2026-05-02T09:57:57.983Z</time></trkpt><trkpt lat="40.1462083" lon="15.18029"><ele>177.25</ele><time>2026-05-02T09:57:58.983Z</time></trkpt><trkpt lat="40.14627" lon="15.18014"><ele>173.5</ele><time>2026-05-02T09:57:59.983Z</time></trkpt><trkpt lat="40.146345" lon="15.1800117"><ele>169.75</ele><time>2026-05-02T09:58:00.982Z</time></trkpt><trkpt lat="40.14643" lon="15.1799067"><ele>166.0</ele><time>2026-05-02T09:58:01.983Z</time></trkpt><trkpt lat="40.1465333" lon="15.1798283"><ele>165.75</ele><time>2026-05-02T09:58:02.982Z</time></trkpt><trkpt lat="40.146645" lon="15.179755"><ele>165.5</ele><time>2026-05-02T09:58:03.982Z</time></trkpt><trkpt lat="40.1467483" lon="15.17968"><ele>165.25</ele><time>2026-05-02T09:58:04.982Z</time></trkpt><trkpt lat="40.1468417" lon="15.179605"><ele>165.0</ele><time>2026-05-02T09:58:05.982Z</time></trkpt><trkpt lat="40.1469183" lon="15.1795067"><ele>165.0</ele><time>2026-05-02T09:58:06.983Z</time></trkpt><trkpt lat="40.146985" lon="15.1793717"><ele>165.0</ele><time>2026-05-02T09:58:07.983Z</time></trkpt><trkpt lat="40.147025" lon="15.1792267"><ele>165.0</ele><time>2026-05-02T09:58:08.982Z</time></trkpt><trkpt lat="40.14705" lon="15.1790617"><ele>165.0</ele><time>2026-05-02T09:58:09.982Z</time></trkpt><trkpt lat="40.1470617" lon="15.1788917"><ele>163.5</ele><time>2026-05-02T09:58:10.983Z</time></trkpt><trkpt lat="40.14707" lon="15.1787267"><ele>162.0</ele><time>2026-05-02T09:58:11.982Z</time></trkpt><trkpt lat="40.14708" lon="15.1785733"><ele>160.5</ele><time>2026-05-02T09:58:12.982Z</time></trkpt><trkpt lat="40.147105" lon="15.1784333"><ele>159.0</ele><time>2026-05-02T09:58:13.982Z</time></trkpt><trkpt lat="40.1471433" lon="15.1783"><ele>157.75</ele><time>2026-05-02T09:58:14.983Z</time></trkpt><trkpt lat="40.14721" lon="15.178175"><ele>156.5</ele><time>2026-05-02T09:58:15.982Z</time></trkpt><trkpt lat="40.1472917" lon="15.1780717"><ele>155.25</ele><time>2026-05-02T09:58:16.983Z</time></trkpt><trkpt lat="40.1473917" lon="15.1779883"><ele>154.0</ele><time>2026-05-02T09:58:17.983Z</time></trkpt><trkpt lat="40.1475" lon="15.17794"><ele>154.0</ele><time>2026-05-02T09:58:18.982Z</time></trkpt><trkpt lat="40.147615" lon="15.1779267"><ele>154.0</ele><time>2026-05-02T09:58:19.983Z</time></trkpt><trkpt lat="40.1477317" lon="15.1779433"><ele>154.0</ele><time>2026-05-02T09:58:20.983Z</time></trkpt><trkpt lat="40.147845" lon="15.1780033"><ele>154.0</ele><time>2026-05-02T09:58:21.982Z</time></trkpt><trkpt lat="40.14795" lon="15.1781017"><ele>157.25</ele><time>2026-05-02T09:58:22.983Z</time></trkpt><trkpt lat="40.148025" lon="15.1782133"><ele>160.5</ele><time>2026-05-02T09:58:23.983Z</time></trkpt><trkpt lat="40.1480833" lon="15.178345"><ele>163.75</ele><time>2026-05-02T09:58:24.982Z</time></trkpt><trkpt lat="40.1481133" lon="15.1784933"><ele>167.0</ele><time>2026-05-02T09:58:25.983Z</time></trkpt><trkpt lat="40.14815" lon="15.178635"><ele>167.0</ele><time>2026-05-02T09:58:26.983Z</time></trkpt><trkpt lat="40.1481767" lon="15.1787517"><ele>167.0</ele><time>2026-05-02T09:58:27.983Z</time></trkpt><trkpt lat="40.1482033" lon="15.1788483"><ele>167.0</ele><time>2026-05-02T09:58:28.982Z</time></trkpt><trkpt lat="40.1482383" lon="15.1789217"><ele>167.0</ele><time>2026-05-02T09:58:29.982Z</time></trkpt><trkpt lat="40.14834" lon="15.1789467"><ele>167.0</ele><time>2026-05-02T09:58:31.982Z</time></trkpt><trkpt lat="40.1483783" lon="15.1788017"><ele>164.0</ele><time>2026-05-02T09:58:33.983Z</time></trkpt><trkpt lat="40.14836" lon="15.1786833"><ele>161.0</ele><time>2026-05-02T09:58:34.983Z</time></trkpt><trkpt lat="40.148335" lon="15.1785483"><ele>158.0</ele><time>2026-05-02T09:58:35.982Z</time></trkpt><trkpt lat="40.1483117" lon="15.178415"><ele>155.0</ele><time>2026-05-02T09:58:36.982Z</time></trkpt><trkpt lat="40.14828" lon="15.1782917"><ele>152.0</ele><time>2026-05-02T09:58:37.982Z</time></trkpt><trkpt lat="40.1482533" lon="15.178175"><ele>152.33333333333331</ele><time>2026-05-02T09:58:38.983Z</time></trkpt><trkpt lat="40.1482267" lon="15.178065"><ele>152.66666666666666</ele><time>2026-05-02T09:58:39.982Z</time></trkpt><trkpt lat="40.1481933" lon="15.1779667"><ele>153.0</ele><time>2026-05-02T09:58:40.982Z</time></trkpt><trkpt lat="40.14815" lon="15.17787"><ele>153.33333333333334</ele><time>2026-05-02T09:58:41.983Z</time></trkpt><trkpt lat="40.1481" lon="15.1777633"><ele>153.66666666666669</ele><time>2026-05-02T09:58:42.982Z</time></trkpt><trkpt lat="40.1480417" lon="15.17767"><ele>154.0</ele><time>2026-05-02T09:58:43.982Z</time></trkpt><trkpt lat="40.1479933" lon="15.177595"><ele>154.0</ele><time>2026-05-02T09:58:44.982Z</time></trkpt><trkpt lat="40.1479533" lon="15.1775267"><ele>154.0</ele><time>2026-05-02T09:58:45.982Z</time></trkpt><trkpt lat="40.147935" lon="15.1774117"><ele>154.0</ele><time>2026-05-02T09:58:47.983Z</time></trkpt><trkpt lat="40.1480133" lon="15.1773667"><ele>154.0</ele><time>2026-05-02T09:58:49.983Z</time></trkpt><trkpt lat="40.1481067" lon="15.1774667"><ele>154.0</ele><time>2026-05-02T09:58:51.982Z</time></trkpt><trkpt lat="40.148145" lon="15.1775683"><ele>154.0</ele><time>2026-05-02T09:58:52.982Z</time></trkpt><trkpt lat="40.1481867" lon="15.177675"><ele>153.6</ele><time>2026-05-02T09:58:53.982Z</time></trkpt><trkpt lat="40.1482317" lon="15.1777833"><ele>153.2</ele><time>2026-05-02T09:58:54.982Z</time></trkpt><trkpt lat="40.1482833" lon="15.1779017"><ele>152.79999999999998</ele><time>2026-05-02T09:58:55.982Z</time></trkpt><trkpt lat="40.1483267" lon="15.17802"><ele>152.4</ele><time>2026-05-02T09:58:56.982Z</time></trkpt><trkpt lat="40.1483717" lon="15.1781383"><ele>152.0</ele><time>2026-05-02T09:58:57.983Z</time></trkpt><trkpt lat="40.1484167" lon="15.17825"><ele>152.0</ele><time>2026-05-02T09:58:58.983Z</time></trkpt><trkpt lat="40.14846" lon="15.1783583"><ele>152.0</ele><time>2026-05-02T09:58:59.982Z</time></trkpt><trkpt lat="40.14851" lon="15.17846"><ele>152.0</ele><time>2026-05-02T09:59:00.982Z</time></trkpt><trkpt lat="40.148565" lon="15.1785483"><ele>152.0</ele><time>2026-05-02T09:59:01.982Z</time></trkpt><trkpt lat="40.1486267" lon="15.1786383"><ele>152.0</ele><time>2026-05-02T09:59:02.982Z</time></trkpt><trkpt lat="40.1487067" lon="15.1787283"><ele>152.0</ele><time>2026-05-02T09:59:03.983Z</time></trkpt><trkpt lat="40.1487933" lon="15.1788233"><ele>152.0</ele><time>2026-05-02T09:59:04.983Z</time></trkpt><trkpt lat="40.1488783" lon="15.1789233"><ele>152.0</ele><time>2026-05-02T09:59:05.982Z</time></trkpt><trkpt lat="40.14896" lon="15.1790233"><ele>152.0</ele><time>2026-05-02T09:59:06.982Z</time></trkpt><trkpt lat="40.1490317" lon="15.1791167"><ele>152.0</ele><time>2026-05-02T09:59:07.982Z</time></trkpt><trkpt lat="40.14908" lon="15.1792267"><ele>149.79999999999998</ele><time>2026-05-02T09:59:08.982Z</time></trkpt><trkpt lat="40.1491017" lon="15.1793483"><ele>147.6</ele><time>2026-05-02T09:59:09.982Z</time></trkpt><trkpt lat="40.1491117" lon="15.1794833"><ele>145.39999999999998</ele><time>2026-05-02T09:59:10.982Z</time></trkpt><trkpt lat="40.1490933" lon="15.1796333"><ele>143.2</ele><time>2026-05-02T09:59:11.982Z</time></trkpt><trkpt lat="40.1490833" lon="15.1797883"><ele>141.0</ele><time>2026-05-02T09:59:12.983Z</time></trkpt><trkpt lat="40.1490867" lon="15.1799417"><ele>141.0</ele><time>2026-05-02T09:59:13.983Z</time></trkpt><trkpt lat="40.1491067" lon="15.1800817"><ele>141.0</ele><time>2026-05-02T09:59:14.982Z</time></trkpt><trkpt lat="40.1491467" lon="15.1802133"><ele>141.0</ele><time>2026-05-02T09:59:15.982Z</time></trkpt><trkpt lat="40.14919" lon="15.180345"><ele>141.0</ele><time>2026-05-02T09:59:16.983Z</time></trkpt><trkpt lat="40.1492333" lon="15.1804717"><ele>141.0</ele><time>2026-05-02T09:59:17.982Z</time></trkpt><trkpt lat="40.149255" lon="15.1806117"><ele>140.0</ele><time>2026-05-02T09:59:18.982Z</time></trkpt><trkpt lat="40.1492433" lon="15.1807517"><ele>139.0</ele><time>2026-05-02T09:59:19.982Z</time></trkpt><trkpt lat="40.1492033" lon="15.180885"><ele>138.0</ele><time>2026-05-02T09:59:20.982Z</time></trkpt><trkpt lat="40.1491433" lon="15.1810183"><ele>137.0</ele><time>2026-05-02T09:59:21.982Z</time></trkpt><trkpt lat="40.14909" lon="15.1811467"><ele>136.0</ele><time>2026-05-02T09:59:22.982Z</time></trkpt><trkpt lat="40.1490417" lon="15.1812633"><ele>135.83333333333334</ele><time>2026-05-02T09:59:23.982Z</time></trkpt><trkpt lat="40.1490083" lon="15.1813733"><ele>135.66666666666669</ele><time>2026-05-02T09:59:24.983Z</time></trkpt><trkpt lat="40.149" lon="15.1814767"><ele>135.5</ele><time>2026-05-02T09:59:25.982Z</time></trkpt><trkpt lat="40.14902" lon="15.181575"><ele>135.33333333333334</ele><time>2026-05-02T09:59:26.983Z</time></trkpt><trkpt lat="40.14907" lon="15.1816433"><ele>135.16666666666666</ele><time>2026-05-02T09:59:27.982Z</time></trkpt><trkpt lat="40.14916" lon="15.181695"><ele>135.0</ele><time>2026-05-02T09:59:28.982Z</time></trkpt><trkpt lat="40.1492767" lon="15.1817067"><ele>135.0</ele><time>2026-05-02T09:59:29.982Z</time></trkpt><trkpt lat="40.1494217" lon="15.1816933"><ele>135.0</ele><time>2026-05-02T09:59:30.982Z</time></trkpt><trkpt lat="40.1495683" lon="15.1816467"><ele>135.0</ele><time>2026-05-02T09:59:31.982Z</time></trkpt><trkpt lat="40.1497" lon="15.18158"><ele>135.0</ele><time>2026-05-02T09:59:32.982Z</time></trkpt><trkpt lat="40.1498167" lon="15.1815183"><ele>132.83333333333334</ele><time>2026-05-02T09:59:33.983Z</time></trkpt><trkpt lat="40.1499183" lon="15.1814467"><ele>130.66666666666666</ele><time>2026-05-02T09:59:34.983Z</time></trkpt><trkpt lat="40.1500133" lon="15.1814"><ele>128.5</ele><time>2026-05-02T09:59:35.982Z</time></trkpt><trkpt lat="40.150095" lon="15.1813883"><ele>126.33333333333333</ele><time>2026-05-02T09:59:36.983Z</time></trkpt><trkpt lat="40.1501617" lon="15.18142"><ele>124.16666666666666</ele><time>2026-05-02T09:59:37.982Z</time></trkpt><trkpt lat="40.1502067" lon="15.1814833"><ele>122.0</ele><time>2026-05-02T09:59:38.982Z</time></trkpt><trkpt lat="40.1502233" lon="15.181575"><ele>122.0</ele><time>2026-05-02T09:59:39.982Z</time></trkpt><trkpt lat="40.1502167" lon="15.1816917"><ele>121.99999999999999</ele><time>2026-05-02T09:59:40.982Z</time></trkpt><trkpt lat="40.1502" lon="15.1818267"><ele>121.99999999999999</ele><time>2026-05-02T09:59:41.982Z</time></trkpt><trkpt lat="40.1501967" lon="15.181965"><ele>122.0</ele><time>2026-05-02T09:59:42.982Z</time></trkpt><trkpt lat="40.1502167" lon="15.1821"><ele>122.0</ele><time>2026-05-02T09:59:43.982Z</time></trkpt><trkpt lat="40.1502767" lon="15.1822067"><ele>122.0</ele><time>2026-05-02T09:59:44.982Z</time></trkpt><trkpt lat="40.150365" lon="15.1822833"><ele>121.99999999999999</ele><time>2026-05-02T09:59:45.982Z</time></trkpt><trkpt lat="40.1504717" lon="15.1823283"><ele>121.99999999999999</ele><time>2026-05-02T09:59:46.982Z</time></trkpt><trkpt lat="40.1505817" lon="15.18236"><ele>122.0</ele><time>2026-05-02T09:59:47.982Z</time></trkpt><trkpt lat="40.150675" lon="15.182435"><ele>122.0</ele><time>2026-05-02T09:59:48.982Z</time></trkpt><trkpt lat="40.15076" lon="15.1825317"><ele>120.25</ele><time>2026-05-02T09:59:49.982Z</time></trkpt><trkpt lat="40.15082" lon="15.1826567"><ele>118.5</ele><time>2026-05-02T09:59:50.982Z</time></trkpt><trkpt lat="40.1508517" lon="15.1828183"><ele>116.75</ele><time>2026-05-02T09:59:51.983Z</time></trkpt><trkpt lat="40.1508917" lon="15.182985"><ele>115.0</ele><time>2026-05-02T09:59:52.982Z</time></trkpt><trkpt lat="40.1509233" lon="15.1831367"><ele>116.25</ele><time>2026-05-02T09:59:53.983Z</time></trkpt><trkpt lat="40.1509783" lon="15.183285"><ele>117.5</ele><time>2026-05-02T09:59:54.982Z</time></trkpt><trkpt lat="40.1510517" lon="15.1834117"><ele>118.75</ele><time>2026-05-02T09:59:55.982Z</time></trkpt><trkpt lat="40.1511217" lon="15.1835267"><ele>120.0</ele><time>2026-05-02T09:59:56.982Z</time></trkpt><trkpt lat="40.1512017" lon="15.1836417"><ele>120.0</ele><time>2026-05-02T09:59:57.982Z</time></trkpt><trkpt lat="40.1512917" lon="15.1837333"><ele>120.0</ele><time>2026-05-02T09:59:58.983Z</time></trkpt><trkpt lat="40.1514067" lon="15.1837867"><ele>120.0</ele><time>2026-05-02T09:59:59.982Z</time></trkpt><trkpt lat="40.1515267" lon="15.1838183"><ele>120.0</ele><time>2026-05-02T10:00:00.982Z</time></trkpt><trkpt lat="40.1516467" lon="15.1838333"><ele>117.75</ele><time>2026-05-02T10:00:01.982Z</time></trkpt><trkpt lat="40.1517667" lon="15.1838583"><ele>115.5</ele><time>2026-05-02T10:00:02.982Z</time></trkpt><trkpt lat="40.151875" lon="15.1839033"><ele>113.25</ele><time>2026-05-02T10:00:03.982Z</time></trkpt><trkpt lat="40.1519683" lon="15.1839767"><ele>111.0</ele><time>2026-05-02T10:00:04.983Z</time></trkpt><trkpt lat="40.15205" lon="15.1840867"><ele>111.0</ele><time>2026-05-02T10:00:05.982Z</time></trkpt><trkpt lat="40.1521217" lon="15.1841967"><ele>111.0</ele><time>2026-05-02T10:00:06.982Z</time></trkpt><trkpt lat="40.1521983" lon="15.184305"><ele>111.0</ele><time>2026-05-02T10:00:07.982Z</time></trkpt><trkpt lat="40.152275" lon="15.1844117"><ele>111.0</ele><time>2026-05-02T10:00:08.982Z</time></trkpt><trkpt lat="40.1523567" lon="15.184505"><ele>111.0</ele><time>2026-05-02T10:00:09.982Z</time></trkpt><trkpt lat="40.1524383" lon="15.1845967"><ele>109.4</ele><time>2026-05-02T10:00:10.982Z</time></trkpt><trkpt lat="40.1525333" lon="15.1846667"><ele>107.8</ele><time>2026-05-02T10:00:11.982Z</time></trkpt><trkpt lat="40.1526267" lon="15.1847267"><ele>106.2</ele><time>2026-05-02T10:00:12.983Z</time></trkpt><trkpt lat="40.1527333" lon="15.184775"><ele>104.60000000000001</ele><time>2026-05-02T10:00:13.982Z</time></trkpt><trkpt lat="40.15284" lon="15.1848267"><ele>103.0</ele><time>2026-05-02T10:00:14.983Z</time></trkpt><trkpt lat="40.15295" lon="15.184885"><ele>103.0</ele><time>2026-05-02T10:00:15.982Z</time></trkpt><trkpt lat="40.1530533" lon="15.18493"><ele>103.0</ele><time>2026-05-02T10:00:16.982Z</time></trkpt><trkpt lat="40.1531583" lon="15.1849633"><ele>103.0</ele><time>2026-05-02T10:00:17.982Z</time></trkpt><trkpt lat="40.1532667" lon="15.18497"><ele>103.0</ele><time>2026-05-02T10:00:18.982Z</time></trkpt><trkpt lat="40.1533717" lon="15.18496"><ele>103.0</ele><time>2026-05-02T10:00:19.982Z</time></trkpt><trkpt lat="40.1534683" lon="15.184925"><ele>101.33333333333334</ele><time>2026-05-02T10:00:20.982Z</time></trkpt><trkpt lat="40.15355" lon="15.1848867"><ele>99.66666666666667</ele><time>2026-05-02T10:00:21.982Z</time></trkpt><trkpt lat="40.1536117" lon="15.18481"><ele>98.0</ele><time>2026-05-02T10:00:22.982Z</time></trkpt><trkpt lat="40.1536383" lon="15.184725"><ele>96.33333333333334</ele><time>2026-05-02T10:00:23.982Z</time></trkpt><trkpt lat="40.1536333" lon="15.1846383"><ele>94.66666666666667</ele><time>2026-05-02T10:00:24.983Z</time></trkpt><trkpt lat="40.1535983" lon="15.1845617"><ele>93.0</ele><time>2026-05-02T10:00:25.982Z</time></trkpt><trkpt lat="40.153535" lon="15.18451"><ele>92.60000000000001</ele><time>2026-05-02T10:00:26.982Z</time></trkpt><trkpt lat="40.15344" lon="15.1844817"><ele>92.2</ele><time>2026-05-02T10:00:27.982Z</time></trkpt><trkpt lat="40.1533367" lon="15.1844767"><ele>91.8</ele><time>2026-05-02T10:00:28.983Z</time></trkpt><trkpt lat="40.1532267" lon="15.1844967"><ele>91.4</ele><time>2026-05-02T10:00:29.982Z</time></trkpt><trkpt lat="40.15313" lon="15.1845167"><ele>91.0</ele><time>2026-05-02T10:00:30.982Z</time></trkpt><trkpt lat="40.1530317" lon="15.1845317"><ele>91.0</ele><time>2026-05-02T10:00:31.982Z</time></trkpt><trkpt lat="40.1529417" lon="15.18451"><ele>91.0</ele><time>2026-05-02T10:00:32.982Z</time></trkpt><trkpt lat="40.152855" lon="15.1844667"><ele>91.0</ele><time>2026-05-02T10:00:33.983Z</time></trkpt><trkpt lat="40.1527733" lon="15.1844033"><ele>91.0</ele><time>2026-05-02T10:00:34.982Z</time></trkpt><trkpt lat="40.1526983" lon="15.1843167"><ele>91.0</ele><time>2026-05-02T10:00:35.982Z</time></trkpt><trkpt lat="40.152635" lon="15.1842133"><ele>91.0</ele><time>2026-05-02T10:00:36.983Z</time></trkpt><trkpt lat="40.15258" lon="15.1840833"><ele>91.0</ele><time>2026-05-02T10:00:37.983Z</time></trkpt><trkpt lat="40.15254" lon="15.1839383"><ele>91.0</ele><time>2026-05-02T10:00:38.982Z</time></trkpt><trkpt lat="40.1524933" lon="15.1838"><ele>91.0</ele><time>2026-05-02T10:00:39.982Z</time></trkpt><trkpt lat="40.152435" lon="15.183675"><ele>92.19999999999999</ele><time>2026-05-02T10:00:40.983Z</time></trkpt><trkpt lat="40.1523717" lon="15.1835467"><ele>93.39999999999999</ele><time>2026-05-02T10:00:41.982Z</time></trkpt><trkpt lat="40.1522967" lon="15.1834317"><ele>94.6</ele><time>2026-05-02T10:00:42.983Z</time></trkpt><trkpt lat="40.1522217" lon="15.18333"><ele>95.8</ele><time>2026-05-02T10:00:43.983Z</time></trkpt><trkpt lat="40.1521533" lon="15.18323"><ele>97.0</ele><time>2026-05-02T10:00:44.983Z</time></trkpt><trkpt lat="40.15211" lon="15.183125"><ele>97.0</ele><time>2026-05-02T10:00:45.982Z</time></trkpt><trkpt lat="40.152095" lon="15.18301"><ele>97.0</ele><time>2026-05-02T10:00:46.982Z</time></trkpt><trkpt lat="40.1520967" lon="15.182885"><ele>97.0</ele><time>2026-05-02T10:00:47.982Z</time></trkpt><trkpt lat="40.1521267" lon="15.1827433"><ele>97.0</ele><time>2026-05-02T10:00:48.982Z</time></trkpt><trkpt lat="40.1521783" lon="15.1825917"><ele>97.0</ele><time>2026-05-02T10:00:49.983Z</time></trkpt><trkpt lat="40.1522517" lon="15.182435"><ele>97.75</ele><time>2026-05-02T10:00:50.982Z</time></trkpt><trkpt lat="40.1523233" lon="15.1822817"><ele>98.5</ele><time>2026-05-02T10:00:51.982Z</time></trkpt><trkpt lat="40.1523917" lon="15.1821333"><ele>99.25</ele><time>2026-05-02T10:00:52.982Z</time></trkpt><trkpt lat="40.1524583" lon="15.1819883"><ele>100.0</ele><time>2026-05-02T10:00:53.982Z</time></trkpt><trkpt lat="40.1525267" lon="15.18185"><ele>93.25</ele><time>2026-05-02T10:00:54.982Z</time></trkpt><trkpt lat="40.1525883" lon="15.18172"><ele>86.5</ele><time>2026-05-02T10:00:55.982Z</time></trkpt><trkpt lat="40.152655" lon="15.1815883"><ele>79.75</ele><time>2026-05-02T10:00:56.982Z</time></trkpt><trkpt lat="40.152725" lon="15.1814583"><ele>73.0</ele><time>2026-05-02T10:00:57.982Z</time></trkpt><trkpt lat="40.1527917" lon="15.1813183"><ele>73.0</ele><time>2026-05-02T10:00:58.983Z</time></trkpt><trkpt lat="40.1528533" lon="15.1811767"><ele>73.0</ele><time>2026-05-02T10:00:59.982Z</time></trkpt><trkpt lat="40.1528917" lon="15.1810133"><ele>73.0</ele><time>2026-05-02T10:01:00.982Z</time></trkpt><trkpt lat="40.1529067" lon="15.18084"><ele>73.0</ele><time>2026-05-02T10:01:01.983Z</time></trkpt><trkpt lat="40.1529033" lon="15.180675"><ele>71.75</ele><time>2026-05-02T10:01:02.982Z</time></trkpt><trkpt lat="40.1528933" lon="15.1805117"><ele>70.5</ele><time>2026-05-02T10:01:03.982Z</time></trkpt><trkpt lat="40.1529033" lon="15.1803467"><ele>69.25</ele><time>2026-05-02T10:01:04.982Z</time></trkpt><trkpt lat="40.1529167" lon="15.1801817"><ele>68.0</ele><time>2026-05-02T10:01:05.982Z</time></trkpt><trkpt lat="40.15293" lon="15.18002"><ele>68.0</ele><time>2026-05-02T10:01:06.982Z</time></trkpt><trkpt lat="40.15293" lon="15.1798633"><ele>68.0</ele><time>2026-05-02T10:01:07.982Z</time></trkpt><trkpt lat="40.15293" lon="15.1797133"><ele>68.0</ele><time>2026-05-02T10:01:08.982Z</time></trkpt><trkpt lat="40.1529533" lon="15.1795967"><ele>68.0</ele><time>2026-05-02T10:01:09.982Z</time></trkpt><trkpt lat="40.153" lon="15.1795083"><ele>68.0</ele><time>2026-05-02T10:01:10.983Z</time></trkpt><trkpt lat="40.1530717" lon="15.1794467"><ele>68.4</ele><time>2026-05-02T10:01:11.982Z</time></trkpt><trkpt lat="40.1531633" lon="15.1794183"><ele>68.8</ele><time>2026-05-02T10:01:12.982Z</time></trkpt><trkpt lat="40.1532617" lon="15.1793983"><ele>69.2</ele><time>2026-05-02T10:01:13.982Z</time></trkpt><trkpt lat="40.1533533" lon="15.17936"><ele>69.6</ele><time>2026-05-02T10:01:14.983Z</time></trkpt><trkpt lat="40.1534317" lon="15.1792983"><ele>70.0</ele><time>2026-05-02T10:01:15.982Z</time></trkpt><trkpt lat="40.1534833" lon="15.1792067"><ele>66.4</ele><time>2026-05-02T10:01:16.983Z</time></trkpt><trkpt lat="40.1535167" lon="15.1791017"><ele>62.8</ele><time>2026-05-02T10:01:17.982Z</time></trkpt><trkpt lat="40.1535283" lon="15.1789867"><ele>59.2</ele><time>2026-05-02T10:01:18.982Z</time></trkpt><trkpt lat="40.1535283" lon="15.1788633"><ele>55.6</ele><time>2026-05-02T10:01:19.982Z</time></trkpt><trkpt lat="40.1535117" lon="15.1787333"><ele>52.0</ele><time>2026-05-02T10:01:20.983Z</time></trkpt><trkpt lat="40.1534933" lon="15.1786083"><ele>52.0</ele><time>2026-05-02T10:01:21.983Z</time></trkpt><trkpt lat="40.1534733" lon="15.17848"><ele>52.0</ele><time>2026-05-02T10:01:22.982Z</time></trkpt><trkpt lat="40.1534517" lon="15.1783417"><ele>52.0</ele><time>2026-05-02T10:01:23.983Z</time></trkpt><trkpt lat="40.1534333" lon="15.1782"><ele>52.0</ele><time>2026-05-02T10:01:24.982Z</time></trkpt><trkpt lat="40.15342" lon="15.1780583"><ele>52.0</ele><time>2026-05-02T10:01:25.983Z</time></trkpt><trkpt lat="40.1534133" lon="15.1779133"><ele>50.75</ele><time>2026-05-02T10:01:26.982Z</time></trkpt><trkpt lat="40.1534083" lon="15.1777683"><ele>49.5</ele><time>2026-05-02T10:01:27.982Z</time></trkpt><trkpt lat="40.15341" lon="15.1776117"><ele>48.25</ele><time>2026-05-02T10:01:28.983Z</time></trkpt><trkpt lat="40.153435" lon="15.1774683"><ele>47.0</ele><time>2026-05-02T10:01:29.983Z</time></trkpt><trkpt lat="40.1534867" lon="15.1773367"><ele>45.4</ele><time>2026-05-02T10:01:30.983Z</time></trkpt><trkpt lat="40.153535" lon="15.1772167"><ele>43.800000000000004</ele><time>2026-05-02T10:01:31.982Z</time></trkpt><trkpt lat="40.1535467" lon="15.1770817"><ele>42.2</ele><time>2026-05-02T10:01:32.983Z</time></trkpt><trkpt lat="40.1535267" lon="15.1769533"><ele>40.6</ele><time>2026-05-02T10:01:33.983Z</time></trkpt><trkpt lat="40.1534783" lon="15.17684"><ele>39.0</ele><time>2026-05-02T10:01:34.982Z</time></trkpt><trkpt lat="40.153405" lon="15.1767583"><ele>39.0</ele><time>2026-05-02T10:01:35.982Z</time></trkpt><trkpt lat="40.1533233" lon="15.1766933"><ele>39.0</ele><time>2026-05-02T10:01:36.983Z</time></trkpt><trkpt lat="40.1532533" lon="15.1766283"><ele>39.0</ele><time>2026-05-02T10:01:37.982Z</time></trkpt><trkpt lat="40.1532033" lon="15.176555"><ele>39.0</ele><time>2026-05-02T10:01:38.983Z</time></trkpt><trkpt lat="40.1531833" lon="15.1764717"><ele>39.0</ele><time>2026-05-02T10:01:39.982Z</time></trkpt><trkpt lat="40.15322" lon="15.1763333"><ele>39.0</ele><time>2026-05-02T10:01:41.982Z</time></trkpt><trkpt lat="40.1533017" lon="15.1762933"><ele>38.8</ele><time>2026-05-02T10:01:42.983Z</time></trkpt><trkpt lat="40.153385" lon="15.1762633"><ele>38.599999999999994</ele><time>2026-05-02T10:01:43.982Z</time></trkpt><trkpt lat="40.15346" lon="15.1761933"><ele>38.4</ele><time>2026-05-02T10:01:44.983Z</time></trkpt><trkpt lat="40.153515" lon="15.176095"><ele>38.199999999999996</ele><time>2026-05-02T10:01:45.983Z</time></trkpt><trkpt lat="40.1535467" lon="15.1759833"><ele>38.0</ele><time>2026-05-02T10:01:46.982Z</time></trkpt><trkpt lat="40.15356" lon="15.17586"><ele>38.0</ele><time>2026-05-02T10:01:47.983Z</time></trkpt><trkpt lat="40.1535467" lon="15.175725"><ele>38.0</ele><time>2026-05-02T10:01:48.982Z</time></trkpt><trkpt lat="40.1535183" lon="15.1755917"><ele>38.0</ele><time>2026-05-02T10:01:49.983Z</time></trkpt><trkpt lat="40.1534967" lon="15.1754567"><ele>38.0</ele><time>2026-05-02T10:01:50.983Z</time></trkpt><trkpt lat="40.1534683" lon="15.1753133"><ele>38.0</ele><time>2026-05-02T10:01:51.982Z</time></trkpt><trkpt lat="40.153435" lon="15.1751733"><ele>38.5</ele><time>2026-05-02T10:01:52.982Z</time></trkpt><trkpt lat="40.1533917" lon="15.1750467"><ele>39.0</ele><time>2026-05-02T10:01:53.982Z</time></trkpt><trkpt lat="40.15333" lon="15.1749183"><ele>39.5</ele><time>2026-05-02T10:01:54.983Z</time></trkpt><trkpt lat="40.15325" lon="15.1748033"><ele>40.0</ele><time>2026-05-02T10:01:55.982Z</time></trkpt><trkpt lat="40.1531717" lon="15.1746867"><ele>40.0</ele><time>2026-05-02T10:01:56.983Z</time></trkpt><trkpt lat="40.1531117" lon="15.17455"><ele>40.0</ele><time>2026-05-02T10:01:57.982Z</time></trkpt><trkpt lat="40.1530667" lon="15.174415"><ele>40.0</ele><time>2026-05-02T10:01:58.982Z</time></trkpt><trkpt lat="40.1530383" lon="15.17426"><ele>40.0</ele><time>2026-05-02T10:01:59.983Z</time></trkpt><trkpt lat="40.1530067" lon="15.1741033"><ele>38.25</ele><time>2026-05-02T10:02:00.982Z</time></trkpt><trkpt lat="40.15297" lon="15.1739433"><ele>36.5</ele><time>2026-05-02T10:02:01.982Z</time></trkpt><trkpt lat="40.15291" lon="15.17378"><ele>34.75</ele><time>2026-05-02T10:02:02.982Z</time></trkpt><trkpt lat="40.1528633" lon="15.1736183"><ele>33.0</ele><time>2026-05-02T10:02:03.982Z</time></trkpt><trkpt lat="40.1528333" lon="15.173455"><ele>33.0</ele><time>2026-05-02T10:02:04.983Z</time></trkpt><trkpt lat="40.15283" lon="15.173295"><ele>33.0</ele><time>2026-05-02T10:02:05.982Z</time></trkpt><trkpt lat="40.152835" lon="15.173145"><ele>33.0</ele><time>2026-05-02T10:02:06.982Z</time></trkpt><trkpt lat="40.152845" lon="15.1729867"><ele>33.0</ele><time>2026-05-02T10:02:07.983Z</time></trkpt><trkpt lat="40.1528417" lon="15.172825"><ele>32.5</ele><time>2026-05-02T10:02:08.983Z</time></trkpt><trkpt lat="40.15283" lon="15.1726633"><ele>32.0</ele><time>2026-05-02T10:02:09.982Z</time></trkpt><trkpt lat="40.1528267" lon="15.1725067"><ele>31.5</ele><time>2026-05-02T10:02:10.983Z</time></trkpt><trkpt lat="40.152815" lon="15.1723467"><ele>31.0</ele><time>2026-05-02T10:02:11.983Z</time></trkpt><trkpt lat="40.1527983" lon="15.1721933"><ele>28.8</ele><time>2026-05-02T10:02:12.982Z</time></trkpt><trkpt lat="40.1527867" lon="15.172035"><ele>26.6</ele><time>2026-05-02T10:02:13.982Z</time></trkpt><trkpt lat="40.15277" lon="15.1718883"><ele>24.4</ele><time>2026-05-02T10:02:14.983Z</time></trkpt><trkpt lat="40.1527483" lon="15.1717567"><ele>22.2</ele><time>2026-05-02T10:02:15.983Z</time></trkpt><trkpt lat="40.152725" lon="15.171625"><ele>20.0</ele><time>2026-05-02T10:02:16.983Z</time></trkpt><trkpt lat="40.1526983" lon="15.171505"><ele>18.833333333333336</ele><time>2026-05-02T10:02:17.982Z</time></trkpt><trkpt lat="40.1526767" lon="15.17139"><ele>17.666666666666668</ele><time>2026-05-02T10:02:18.983Z</time></trkpt><trkpt lat="40.1526483" lon="15.1712817"><ele>16.5</ele><time>2026-05-02T10:02:19.982Z</time></trkpt><trkpt lat="40.1526183" lon="15.1711717"><ele>15.333333333333332</ele><time>2026-05-02T10:02:20.982Z</time></trkpt><trkpt lat="40.1525967" lon="15.1710733"><ele>14.166666666666666</ele><time>2026-05-02T10:02:21.983Z</time></trkpt><trkpt lat="40.1525733" lon="15.1709783"><ele>13.0</ele><time>2026-05-02T10:02:22.982Z</time></trkpt><trkpt lat="40.1525567" lon="15.1708783"><ele>12.999999999999998</ele><time>2026-05-02T10:02:23.982Z</time></trkpt><trkpt lat="40.1525383" lon="15.1707833"><ele>13.0</ele><time>2026-05-02T10:02:24.982Z</time></trkpt><trkpt lat="40.1525217" lon="15.1706933"><ele>13.0</ele><time>2026-05-02T10:02:25.983Z</time></trkpt><trkpt lat="40.152505" lon="15.1705967"><ele>13.0</ele><time>2026-05-02T10:02:26.982Z</time></trkpt><trkpt lat="40.1524883" lon="15.1705017"><ele>12.999999999999998</ele><time>2026-05-02T10:02:27.982Z</time></trkpt><trkpt lat="40.1524667" lon="15.1703917"><ele>13.0</ele><time>2026-05-02T10:02:28.982Z</time></trkpt><trkpt lat="40.15244" lon="15.1702667"><ele>12.600000000000001</ele><time>2026-05-02T10:02:29.982Z</time></trkpt><trkpt lat="40.15241" lon="15.1701417"><ele>12.200000000000001</ele><time>2026-05-02T10:02:30.982Z</time></trkpt><trkpt lat="40.1523783" lon="15.170025"><ele>11.8</ele><time>2026-05-02T10:02:31.983Z</time></trkpt><trkpt lat="40.15235" lon="15.1699067"><ele>11.4</ele><time>2026-05-02T10:02:32.982Z</time></trkpt><trkpt lat="40.1523267" lon="15.16979"><ele>11.0</ele><time>2026-05-02T10:02:33.982Z</time></trkpt><trkpt lat="40.1523067" lon="15.169685"><ele>12.333333333333332</ele><time>2026-05-02T10:02:34.982Z</time></trkpt><trkpt lat="40.15229" lon="15.1695867"><ele>13.666666666666666</ele><time>2026-05-02T10:02:35.983Z</time></trkpt><trkpt lat="40.15227" lon="15.1694883"><ele>15.0</ele><time>2026-05-02T10:02:36.982Z</time></trkpt><trkpt lat="40.15225" lon="15.1693833"><ele>16.333333333333332</ele><time>2026-05-02T10:02:37.982Z</time></trkpt><trkpt lat="40.152225" lon="15.169275"><ele>17.666666666666664</ele><time>2026-05-02T10:02:38.982Z</time></trkpt><trkpt lat="40.1522033" lon="15.1691667"><ele>19.0</ele><time>2026-05-02T10:02:39.982Z</time></trkpt><trkpt lat="40.1521767" lon="15.1690517"><ele>18.0</ele><time>2026-05-02T10:02:40.983Z</time></trkpt><trkpt lat="40.1521567" lon="15.16893"><ele>17.0</ele><time>2026-05-02T10:02:41.982Z</time></trkpt><trkpt lat="40.1521333" lon="15.1688083"><ele>15.999999999999998</ele><time>2026-05-02T10:02:42.982Z</time></trkpt><trkpt lat="40.15211" lon="15.1686883"><ele>15.0</ele><time>2026-05-02T10:02:43.982Z</time></trkpt><trkpt lat="40.15209" lon="15.1685717"><ele>14.0</ele><time>2026-05-02T10:02:44.982Z</time></trkpt><trkpt lat="40.1520683" lon="15.1684617"><ele>14.0</ele><time>2026-05-02T10:02:45.983Z</time></trkpt><trkpt lat="40.15205" lon="15.1683517"><ele>13.999999999999998</ele><time>2026-05-02T10:02:46.982Z</time></trkpt><trkpt lat="40.1520267" lon="15.16825"><ele>13.999999999999998</ele><time>2026-05-02T10:02:47.982Z</time></trkpt><trkpt lat="40.1520067" lon="15.168135"><ele>14.0</ele><time>2026-05-02T10:02:48.982Z</time></trkpt><trkpt lat="40.1519833" lon="15.1680067"><ele>14.0</ele><time>2026-05-02T10:02:49.982Z</time></trkpt><trkpt lat="40.1519583" lon="15.16786"><ele>12.5</ele><time>2026-05-02T10:02:50.982Z</time></trkpt><trkpt lat="40.151925" lon="15.1677217"><ele>11.0</ele><time>2026-05-02T10:02:51.983Z</time></trkpt><trkpt lat="40.1518867" lon="15.1675867"><ele>9.5</ele><time>2026-05-02T10:02:52.982Z</time></trkpt><trkpt lat="40.15182" lon="15.16746"><ele>8.0</ele><time>2026-05-02T10:02:53.982Z</time></trkpt><trkpt lat="40.1517217" lon="15.167355"><ele>7.75</ele><time>2026-05-02T10:02:54.983Z</time></trkpt><trkpt lat="40.1516233" lon="15.16725"><ele>7.5</ele><time>2026-05-02T10:02:55.981Z</time></trkpt><trkpt lat="40.15151" lon="15.167145"><ele>7.25</ele><time>2026-05-02T10:02:56.982Z</time></trkpt><trkpt lat="40.1513967" lon="15.1670617"><ele>7.0</ele><time>2026-05-02T10:02:57.982Z</time></trkpt><trkpt lat="40.1512683" lon="15.167"><ele>6.5</ele><time>2026-05-02T10:02:58.981Z</time></trkpt><trkpt lat="40.15114" lon="15.16694"><ele>6.0</ele><time>2026-05-02T10:02:59.981Z</time></trkpt><trkpt lat="40.1510167" lon="15.1668833"><ele>5.5</ele><time>2026-05-02T10:03:00.982Z</time></trkpt><trkpt lat="40.150905" lon="15.1668067"><ele>5.0</ele><time>2026-05-02T10:03:01.981Z</time></trkpt><trkpt lat="40.1508067" lon="15.1667"><ele>5.0</ele><time>2026-05-02T10:03:02.982Z</time></trkpt><trkpt lat="40.1507183" lon="15.1665667"><ele>5.0</ele><time>2026-05-02T10:03:03.982Z</time></trkpt><trkpt lat="40.15067" lon="15.1664183"><ele>5.0</ele><time>2026-05-02T10:03:04.981Z</time></trkpt><trkpt lat="40.150645" lon="15.1662733"><ele>5.0</ele><time>2026-05-02T10:03:05.981Z</time></trkpt><trkpt lat="40.15063" lon="15.1661433"><ele>4.833333333333334</ele><time>2026-05-02T10:03:06.982Z</time></trkpt><trkpt lat="40.1506333" lon="15.1660267"><ele>4.666666666666667</ele><time>2026-05-02T10:03:07.982Z</time></trkpt><trkpt lat="40.1506383" lon="15.1659433"><ele>4.5</ele><time>2026-05-02T10:03:08.981Z</time></trkpt><trkpt lat="40.15066" lon="15.1658583"><ele>4.333333333333333</ele><time>2026-05-02T10:03:09.982Z</time></trkpt><trkpt lat="40.15069" lon="15.1657767"><ele>4.166666666666666</ele><time>2026-05-02T10:03:10.981Z</time></trkpt><trkpt lat="40.1507267" lon="15.165695"><ele>4.0</ele><time>2026-05-02T10:03:11.981Z</time></trkpt><trkpt lat="40.1507883" lon="15.1656117"><ele>4.333333333333333</ele><time>2026-05-02T10:03:12.981Z</time></trkpt><trkpt lat="40.1508567" lon="15.1655417"><ele>4.666666666666666</ele><time>2026-05-02T10:03:13.982Z</time></trkpt><trkpt lat="40.1509283" lon="15.1654767"><ele>5.0</ele><time>2026-05-02T10:03:14.982Z</time></trkpt><trkpt lat="40.1510033" lon="15.165415"><ele>5.333333333333333</ele><time>2026-05-02T10:03:15.981Z</time></trkpt><trkpt lat="40.151075" lon="15.165365"><ele>5.666666666666667</ele><time>2026-05-02T10:03:16.981Z</time></trkpt><trkpt lat="40.1511483" lon="15.1653217"><ele>6.0</ele><time>2026-05-02T10:03:17.982Z</time></trkpt><trkpt lat="40.1512183" lon="15.16528"><ele>5.999999999999999</ele><time>2026-05-02T10:03:18.982Z</time></trkpt><trkpt lat="40.1512817" lon="15.1652383"><ele>6.0</ele><time>2026-05-02T10:03:19.981Z</time></trkpt><trkpt lat="40.1513433" lon="15.1651883"><ele>6.0</ele><time>2026-05-02T10:03:20.981Z</time></trkpt><trkpt lat="40.1514067" lon="15.1651433"><ele>6.0</ele><time>2026-05-02T10:03:21.982Z</time></trkpt><trkpt lat="40.15147" lon="15.1651033"><ele>6.0</ele><time>2026-05-02T10:03:22.981Z</time></trkpt><trkpt lat="40.151535" lon="15.1650583"><ele>5.999999999999999</ele><time>2026-05-02T10:03:23.982Z</time></trkpt><trkpt lat="40.1516033" lon="15.165015"><ele>6.0</ele><time>2026-05-02T10:03:24.982Z</time></trkpt><trkpt lat="40.1516733" lon="15.1649633"><ele>6.142857142857142</ele><time>2026-05-02T10:03:25.981Z</time></trkpt><trkpt lat="40.1517467" lon="15.1649183"><ele>6.285714285714286</ele><time>2026-05-02T10:03:26.981Z</time></trkpt><trkpt lat="40.1518167" lon="15.1648733"><ele>6.428571428571429</ele><time>2026-05-02T10:03:27.981Z</time></trkpt><trkpt lat="40.1518833" lon="15.1648317"><ele>6.571428571428571</ele><time>2026-05-02T10:03:28.982Z</time></trkpt><trkpt lat="40.1519467" lon="15.16479"><ele>6.714285714285714</ele><time>2026-05-02T10:03:29.982Z</time></trkpt><trkpt lat="40.1520083" lon="15.16475"><ele>6.857142857142857</ele><time>2026-05-02T10:03:30.981Z</time></trkpt><trkpt lat="40.1520733" lon="15.1647117"><ele>7.0</ele><time>2026-05-02T10:03:31.981Z</time></trkpt><trkpt lat="40.1521417" lon="15.1646683"><ele>7.166666666666667</ele><time>2026-05-02T10:03:32.981Z</time></trkpt><trkpt lat="40.1522117" lon="15.16462"><ele>7.333333333333334</ele><time>2026-05-02T10:03:33.981Z</time></trkpt><trkpt lat="40.1522733" lon="15.1645767"><ele>7.5</ele><time>2026-05-02T10:03:34.981Z</time></trkpt><trkpt lat="40.15234" lon="15.16453"><ele>7.666666666666666</ele><time>2026-05-02T10:03:35.981Z</time></trkpt><trkpt lat="40.1524017" lon="15.1644883"><ele>7.833333333333333</ele><time>2026-05-02T10:03:36.982Z</time></trkpt><trkpt lat="40.1524583" lon="15.16445"><ele>8.0</ele><time>2026-05-02T10:03:37.981Z</time></trkpt><trkpt lat="40.1525667" lon="15.1643567"><ele>7.999999999999999</ele><time>2026-05-02T10:03:39.981Z</time></trkpt><trkpt lat="40.152625" lon="15.164315"><ele>8.0</ele><time>2026-05-02T10:03:40.981Z</time></trkpt><trkpt lat="40.15268" lon="15.1642733"><ele>8.0</ele><time>2026-05-02T10:03:41.981Z</time></trkpt><trkpt lat="40.1527333" lon="15.164225"><ele>8.0</ele><time>2026-05-02T10:03:42.981Z</time></trkpt><trkpt lat="40.1527883" lon="15.1641833"><ele>7.999999999999999</ele><time>2026-05-02T10:03:43.981Z</time></trkpt><trkpt lat="40.1528833" lon="15.1641067"><ele>8.0</ele><time>2026-05-02T10:03:45.981Z</time></trkpt><trkpt lat="40.1529683" lon="15.1640233"><ele>7.666666666666666</ele><time>2026-05-02T10:03:47.981Z</time></trkpt><trkpt lat="40.15307" lon="15.1639417"><ele>7.333333333333333</ele><time>2026-05-02T10:03:49.981Z</time></trkpt><trkpt lat="40.1531233" lon="15.1638933"><ele>7.0</ele><time>2026-05-02T10:03:50.981Z</time></trkpt><trkpt lat="40.15318" lon="15.1638433"><ele>6.666666666666666</ele><time>2026-05-02T10:03:51.982Z</time></trkpt><trkpt lat="40.1532417" lon="15.1637933"><ele>6.333333333333333</ele><time>2026-05-02T10:03:52.981Z</time></trkpt><trkpt lat="40.1533017" lon="15.16374"><ele>6.0</ele><time>2026-05-02T10:03:53.982Z</time></trkpt><trkpt lat="40.1533633" lon="15.1636833"><ele>5.857142857142857</ele><time>2026-05-02T10:03:54.981Z</time></trkpt><trkpt lat="40.1534283" lon="15.1636283"><ele>5.714285714285714</ele><time>2026-05-02T10:03:55.981Z</time></trkpt><trkpt lat="40.1534917" lon="15.163565"><ele>5.571428571428571</ele><time>2026-05-02T10:03:56.981Z</time></trkpt><trkpt lat="40.1535517" lon="15.1635117"><ele>5.428571428571429</ele><time>2026-05-02T10:03:57.981Z</time></trkpt><trkpt lat="40.1536083" lon="15.1634567"><ele>5.285714285714286</ele><time>2026-05-02T10:03:58.982Z</time></trkpt><trkpt lat="40.1536667" lon="15.163395"><ele>5.142857142857142</ele><time>2026-05-02T10:03:59.982Z</time></trkpt><trkpt lat="40.1537217" lon="15.16334"><ele>5.0</ele><time>2026-05-02T10:04:00.982Z</time></trkpt><trkpt lat="40.153775" lon="15.1632833"><ele>5.0</ele><time>2026-05-02T10:04:01.981Z</time></trkpt><trkpt lat="40.1538283" lon="15.16323"><ele>5.0</ele><time>2026-05-02T10:04:02.982Z</time></trkpt><trkpt lat="40.1539333" lon="15.1631367"><ele>5.0</ele><time>2026-05-02T10:04:04.981Z</time></trkpt><trkpt lat="40.153985" lon="15.1630767"><ele>5.0</ele><time>2026-05-02T10:04:05.981Z</time></trkpt><trkpt lat="40.1540383" lon="15.16302"><ele>5.0</ele><time>2026-05-02T10:04:06.982Z</time></trkpt><trkpt lat="40.1540883" lon="15.1629683"><ele>5.0</ele><time>2026-05-02T10:04:07.982Z</time></trkpt><trkpt lat="40.1541783" lon="15.162865"><ele>5.166666666666667</ele><time>2026-05-02T10:04:09.982Z</time></trkpt><trkpt lat="40.1542733" lon="15.162765"><ele>5.333333333333334</ele><time>2026-05-02T10:04:11.982Z</time></trkpt><trkpt lat="40.154365" lon="15.16266"><ele>5.5</ele><time>2026-05-02T10:04:13.981Z</time></trkpt><trkpt lat="40.154415" lon="15.162605"><ele>5.666666666666667</ele><time>2026-05-02T10:04:14.982Z</time></trkpt><trkpt lat="40.1544633" lon="15.1625517"><ele>5.833333333333333</ele><time>2026-05-02T10:04:15.982Z</time></trkpt><trkpt lat="40.1545133" lon="15.1624917"><ele>6.0</ele><time>2026-05-02T10:04:16.981Z</time></trkpt><trkpt lat="40.154565" lon="15.16243"><ele>5.833333333333333</ele><time>2026-05-02T10:04:17.981Z</time></trkpt><trkpt lat="40.1546183" lon="15.1623583"><ele>5.666666666666667</ele><time>2026-05-02T10:04:18.981Z</time></trkpt><trkpt lat="40.154675" lon="15.1622867"><ele>5.5</ele><time>2026-05-02T10:04:19.981Z</time></trkpt><trkpt lat="40.1547317" lon="15.162205"><ele>5.333333333333334</ele><time>2026-05-02T10:04:20.982Z</time></trkpt><trkpt lat="40.15479" lon="15.1621183"><ele>5.166666666666667</ele><time>2026-05-02T10:04:21.982Z</time></trkpt><trkpt lat="40.15485" lon="15.16203"><ele>5.0</ele><time>2026-05-02T10:04:22.982Z</time></trkpt><trkpt lat="40.1549117" lon="15.16194"><ele>5.0</ele><time>2026-05-02T10:04:23.982Z</time></trkpt><trkpt lat="40.1549733" lon="15.1618517"><ele>5.0</ele><time>2026-05-02T10:04:24.982Z</time></trkpt><trkpt lat="40.1550383" lon="15.1617617"><ele>5.0</ele><time>2026-05-02T10:04:25.982Z</time></trkpt><trkpt lat="40.1550967" lon="15.161675"><ele>5.0</ele><time>2026-05-02T10:04:26.981Z</time></trkpt><trkpt lat="40.155155" lon="15.161595"><ele>5.0</ele><time>2026-05-02T10:04:27.981Z</time></trkpt><trkpt lat="40.15522" lon="15.16151"><ele>5.0</ele><time>2026-05-02T10:04:28.982Z</time></trkpt><trkpt lat="40.1552867" lon="15.161425"><ele>5.0</ele><time>2026-05-02T10:04:29.982Z</time></trkpt><trkpt lat="40.1553483" lon="15.1613367"><ele>5.0</ele><time>2026-05-02T10:04:30.981Z</time></trkpt><trkpt lat="40.1554133" lon="15.1612467"><ele>5.0</ele><time>2026-05-02T10:04:31.981Z</time></trkpt><trkpt lat="40.1554767" lon="15.1611617"><ele>5.0</ele><time>2026-05-02T10:04:32.981Z</time></trkpt><trkpt lat="40.15554" lon="15.1610733"><ele>5.0</ele><time>2026-05-02T10:04:33.981Z</time></trkpt><trkpt lat="40.1556067" lon="15.1609917"><ele>5.0</ele><time>2026-05-02T10:04:34.982Z</time></trkpt><trkpt lat="40.1556683" lon="15.1609017"><ele>5.0</ele><time>2026-05-02T10:04:35.981Z</time></trkpt><trkpt lat="40.15573" lon="15.1608083"><ele>5.0</ele><time>2026-05-02T10:04:36.982Z</time></trkpt><trkpt lat="40.1558033" lon="15.1607133"><ele>5.0</ele><time>2026-05-02T10:04:37.981Z</time></trkpt><trkpt lat="40.1558767" lon="15.16062"><ele>4.8</ele><time>2026-05-02T10:04:38.982Z</time></trkpt><trkpt lat="40.1559467" lon="15.16052"><ele>4.6</ele><time>2026-05-02T10:04:39.981Z</time></trkpt><trkpt lat="40.1560217" lon="15.1604133"><ele>4.4</ele><time>2026-05-02T10:04:40.981Z</time></trkpt><trkpt lat="40.15609" lon="15.1603017"><ele>4.2</ele><time>2026-05-02T10:04:41.981Z</time></trkpt><trkpt lat="40.156155" lon="15.1601833"><ele>4.0</ele><time>2026-05-02T10:04:42.982Z</time></trkpt><trkpt lat="40.1562117" lon="15.1600567"><ele>4.0</ele><time>2026-05-02T10:04:43.982Z</time></trkpt><trkpt lat="40.1562617" lon="15.159925"><ele>4.0</ele><time>2026-05-02T10:04:44.981Z</time></trkpt><trkpt lat="40.156305" lon="15.1597917"><ele>4.0</ele><time>2026-05-02T10:04:45.981Z</time></trkpt><trkpt lat="40.1563433" lon="15.1596517"><ele>4.0</ele><time>2026-05-02T10:04:46.981Z</time></trkpt><trkpt lat="40.1563817" lon="15.1595183"><ele>4.0</ele><time>2026-05-02T10:04:47.981Z</time></trkpt><trkpt lat="40.15642" lon="15.1593917"><ele>3.8000000000000003</ele><time>2026-05-02T10:04:48.982Z</time></trkpt><trkpt lat="40.1564567" lon="15.1592667"><ele>3.6000000000000005</ele><time>2026-05-02T10:04:49.981Z</time></trkpt><trkpt lat="40.1564967" lon="15.159135"><ele>3.4</ele><time>2026-05-02T10:04:50.982Z</time></trkpt><trkpt lat="40.15654" lon="15.1590083"><ele>3.2</ele><time>2026-05-02T10:04:51.982Z</time></trkpt><trkpt lat="40.15658" lon="15.1588717"><ele>3.0</ele><time>2026-05-02T10:04:52.981Z</time></trkpt><trkpt lat="40.156635" lon="15.1587217"><ele>3.0</ele><time>2026-05-02T10:04:53.981Z</time></trkpt><trkpt lat="40.1566933" lon="15.15857"><ele>3.0</ele><time>2026-05-02T10:04:54.982Z</time></trkpt><trkpt lat="40.1567567" lon="15.15841"><ele>3.0</ele><time>2026-05-02T10:04:55.981Z</time></trkpt><trkpt lat="40.1568133" lon="15.1582517"><ele>3.0</ele><time>2026-05-02T10:04:56.982Z</time></trkpt><trkpt lat="40.1568667" lon="15.1581033"><ele>3.0</ele><time>2026-05-02T10:04:57.982Z</time></trkpt><trkpt lat="40.1569233" lon="15.1579683"><ele>3.0</ele><time>2026-05-02T10:04:58.981Z</time></trkpt><trkpt lat="40.1569767" lon="15.1578383"><ele>3.0</ele><time>2026-05-02T10:04:59.981Z</time></trkpt><trkpt lat="40.157025" lon="15.1577117"><ele>3.0</ele><time>2026-05-02T10:05:00.981Z</time></trkpt><trkpt lat="40.1570833" lon="15.1575817"><ele>3.0</ele><time>2026-05-02T10:05:01.981Z</time></trkpt><trkpt lat="40.1571417" lon="15.1574567"><ele>3.0</ele><time>2026-05-02T10:05:02.981Z</time></trkpt><trkpt lat="40.1572017" lon="15.1573333"><ele>3.0</ele><time>2026-05-02T10:05:03.981Z</time></trkpt><trkpt lat="40.1572633" lon="15.157215"><ele>3.0</ele><time>2026-05-02T10:05:04.981Z</time></trkpt><trkpt lat="40.1573233" lon="15.1570933"><ele>3.0</ele><time>2026-05-02T10:05:05.981Z</time></trkpt><trkpt lat="40.1573867" lon="15.1569617"><ele>3.2</ele><time>2026-05-02T10:05:06.981Z</time></trkpt><trkpt lat="40.1574517" lon="15.1568383"><ele>3.4</ele><time>2026-05-02T10:05:07.982Z</time></trkpt><trkpt lat="40.157515" lon="15.156715"><ele>3.6000000000000005</ele><time>2026-05-02T10:05:08.982Z</time></trkpt><trkpt lat="40.1575783" lon="15.1565983"><ele>3.8000000000000003</ele><time>2026-05-02T10:05:09.981Z</time></trkpt><trkpt lat="40.1576383" lon="15.1564833"><ele>4.0</ele><time>2026-05-02T10:05:10.982Z</time></trkpt><trkpt lat="40.1576967" lon="15.1563767"><ele>3.9999999999999996</ele><time>2026-05-02T10:05:11.982Z</time></trkpt><trkpt lat="40.157745" lon="15.1562867"><ele>4.0</ele><time>2026-05-02T10:05:12.982Z</time></trkpt><trkpt lat="40.1577833" lon="15.15622"><ele>4.0</ele><time>2026-05-02T10:05:13.981Z</time></trkpt><trkpt lat="40.157815" lon="15.1561483"><ele>4.0</ele><time>2026-05-02T10:05:14.981Z</time></trkpt><trkpt lat="40.157885" lon="15.1560083"><ele>3.9999999999999996</ele><time>2026-05-02T10:05:16.981Z</time></trkpt><trkpt lat="40.1579233" lon="15.1559367"><ele>4.0</ele><time>2026-05-02T10:05:17.982Z</time></trkpt><trkpt lat="40.15799" lon="15.1558133"><ele>4.0</ele><time>2026-05-02T10:05:19.981Z</time></trkpt><trkpt lat="40.1580383" lon="15.15572"><ele>4.0</ele><time>2026-05-02T10:05:21.981Z</time></trkpt><trkpt lat="40.158095" lon="15.155615"><ele>4.0</ele><time>2026-05-02T10:05:23.981Z</time></trkpt><trkpt lat="40.15817" lon="15.1554717"><ele>4.0</ele><time>2026-05-02T10:05:25.981Z</time></trkpt><trkpt lat="40.1582167" lon="15.1553817"><ele>4.0</ele><time>2026-05-02T10:05:26.981Z</time></trkpt><trkpt lat="40.1582617" lon="15.155295"><ele>3.9999999999999996</ele><time>2026-05-02T10:05:27.982Z</time></trkpt><trkpt lat="40.15831" lon="15.155205"><ele>4.0</ele><time>2026-05-02T10:05:28.981Z</time></trkpt><trkpt lat="40.158355" lon="15.1551183"><ele>4.0</ele><time>2026-05-02T10:05:29.981Z</time></trkpt><trkpt lat="40.1584" lon="15.15503"><ele>4.0</ele><time>2026-05-02T10:05:30.981Z</time></trkpt><trkpt lat="40.1584467" lon="15.1549383"><ele>3.9999999999999996</ele><time>2026-05-02T10:05:31.981Z</time></trkpt><trkpt lat="40.1584933" lon="15.1548467"><ele>4.0</ele><time>2026-05-02T10:05:32.982Z</time></trkpt><trkpt lat="40.15853" lon="15.15475"><ele>3.9999999999999996</ele><time>2026-05-02T10:05:33.981Z</time></trkpt><trkpt lat="40.15855" lon="15.1546483"><ele>4.0</ele><time>2026-05-02T10:05:34.981Z</time></trkpt><trkpt lat="40.1585567" lon="15.1545333"><ele>4.0</ele><time>2026-05-02T10:05:35.982Z</time></trkpt><trkpt lat="40.15855" lon="15.1544133"><ele>4.0</ele><time>2026-05-02T10:05:36.981Z</time></trkpt><trkpt lat="40.1585317" lon="15.1542967"><ele>3.9999999999999996</ele><time>2026-05-02T10:05:37.982Z</time></trkpt><trkpt lat="40.158505" lon="15.1541783"><ele>4.0</ele><time>2026-05-02T10:05:38.982Z</time></trkpt><trkpt lat="40.1584833" lon="15.1540533"><ele>4.4</ele><time>2026-05-02T10:05:39.981Z</time></trkpt><trkpt lat="40.158475" lon="15.1539167"><ele>4.800000000000001</ele><time>2026-05-02T10:05:40.981Z</time></trkpt><trkpt lat="40.15847" lon="15.153775"><ele>5.199999999999999</ele><time>2026-05-02T10:05:41.982Z</time></trkpt><trkpt lat="40.1584817" lon="15.1536317"><ele>5.6</ele><time>2026-05-02T10:05:42.982Z</time></trkpt><trkpt lat="40.1584917" lon="15.1534967"><ele>6.0</ele><time>2026-05-02T10:05:43.982Z</time></trkpt><trkpt lat="40.1585067" lon="15.15336"><ele>6.0</ele><time>2026-05-02T10:05:44.982Z</time></trkpt><trkpt lat="40.1585217" lon="15.1532317"><ele>6.0</ele><time>2026-05-02T10:05:45.981Z</time></trkpt><trkpt lat="40.1585417" lon="15.1531117"><ele>6.0</ele><time>2026-05-02T10:05:46.981Z</time></trkpt><trkpt lat="40.1585733" lon="15.1529917"><ele>6.0</ele><time>2026-05-02T10:05:47.981Z</time></trkpt><trkpt lat="40.158615" lon="15.1528667"><ele>6.0</ele><time>2026-05-02T10:05:48.982Z</time></trkpt><trkpt lat="40.1586567" lon="15.15274"><ele>6.0</ele><time>2026-05-02T10:05:49.982Z</time></trkpt><trkpt lat="40.158705" lon="15.15263"><ele>6.0</ele><time>2026-05-02T10:05:50.981Z</time></trkpt><trkpt lat="40.1587533" lon="15.1525233"><ele>6.0</ele><time>2026-05-02T10:05:51.981Z</time></trkpt><trkpt lat="40.1588067" lon="15.15243"><ele>6.0</ele><time>2026-05-02T10:05:52.982Z</time></trkpt><trkpt lat="40.1588617" lon="15.1523533"><ele>6.0</ele><time>2026-05-02T10:05:53.981Z</time></trkpt><trkpt lat="40.1589183" lon="15.15228"><ele>6.0</ele><time>2026-05-02T10:05:54.982Z</time></trkpt><trkpt lat="40.1589817" lon="15.1522183"><ele>5.833333333333333</ele><time>2026-05-02T10:05:55.982Z</time></trkpt><trkpt lat="40.1590367" lon="15.1521683"><ele>5.666666666666667</ele><time>2026-05-02T10:05:56.982Z</time></trkpt><trkpt lat="40.1591283" lon="15.1520883"><ele>5.5</ele><time>2026-05-02T10:05:58.982Z</time></trkpt><trkpt lat="40.1592" lon="15.1520583"><ele>5.333333333333334</ele><time>2026-05-02T10:06:00.981Z</time></trkpt><trkpt lat="40.1592933" lon="15.1520517"><ele>5.166666666666667</ele><time>2026-05-02T10:06:03.981Z</time></trkpt><trkpt lat="40.1593767" lon="15.1520333"><ele>5.0</ele><time>2026-05-02T10:06:05.982Z</time></trkpt><trkpt lat="40.1594533" lon="15.15198"><ele>5.0</ele><time>2026-05-02T10:06:07.981Z</time></trkpt><trkpt lat="40.15951" lon="15.1518617"><ele>5.0</ele><time>2026-05-02T10:06:09.982Z</time></trkpt><trkpt lat="40.1595467" lon="15.1517917"><ele>5.0</ele><time>2026-05-02T10:06:10.981Z</time></trkpt><trkpt lat="40.159595" lon="15.151715"><ele>5.0</ele><time>2026-05-02T10:06:11.981Z</time></trkpt><trkpt lat="40.1596583" lon="15.1516433"><ele>5.0</ele><time>2026-05-02T10:06:12.981Z</time></trkpt><trkpt lat="40.15973" lon="15.151575"><ele>5.0</ele><time>2026-05-02T10:06:13.981Z</time></trkpt><trkpt lat="40.1598033" lon="15.15151"><ele>4.5</ele><time>2026-05-02T10:06:14.981Z</time></trkpt><trkpt lat="40.1598867" lon="15.1514483"><ele>4.0</ele><time>2026-05-02T10:06:15.981Z</time></trkpt><trkpt lat="40.1599633" lon="15.1513967"><ele>3.5</ele><time>2026-05-02T10:06:16.981Z</time></trkpt><trkpt lat="40.16004" lon="15.1513467"><ele>3.0</ele><time>2026-05-02T10:06:17.981Z</time></trkpt><trkpt lat="40.160115" lon="15.1512983"><ele>2.5</ele><time>2026-05-02T10:06:18.981Z</time></trkpt><trkpt lat="40.1601883" lon="15.1512383"><ele>2.0</ele><time>2026-05-02T10:06:19.982Z</time></trkpt><trkpt lat="40.160265" lon="15.1511783"><ele>2.0</ele><time>2026-05-02T10:06:20.981Z</time></trkpt><trkpt lat="40.1603433" lon="15.1511217"><ele>2.0</ele><time>2026-05-02T10:06:21.981Z</time></trkpt><trkpt lat="40.1604283" lon="15.15106"><ele>2.0</ele><time>2026-05-02T10:06:22.981Z</time></trkpt><trkpt lat="40.160515" lon="15.1509933"><ele>2.0</ele><time>2026-05-02T10:06:23.981Z</time></trkpt><trkpt lat="40.1606067" lon="15.150925"><ele>2.0</ele><time>2026-05-02T10:06:24.982Z</time></trkpt><trkpt lat="40.1607033" lon="15.1508533"><ele>2.0</ele><time>2026-05-02T10:06:25.982Z</time></trkpt><trkpt lat="40.1608017" lon="15.1507867"><ele>2.0</ele><time>2026-05-02T10:06:26.981Z</time></trkpt><trkpt lat="40.1608983" lon="15.1507183"><ele>2.0</ele><time>2026-05-02T10:06:27.981Z</time></trkpt><trkpt lat="40.1609867" lon="15.1506517"><ele>2.0</ele><time>2026-05-02T10:06:28.981Z</time></trkpt><trkpt lat="40.1610733" lon="15.1505833"><ele>2.0</ele><time>2026-05-02T10:06:29.981Z</time></trkpt><trkpt lat="40.16116" lon="15.1505167"><ele>2.0</ele><time>2026-05-02T10:06:30.981Z</time></trkpt><trkpt lat="40.16125" lon="15.150455"><ele>2.0</ele><time>2026-05-02T10:06:31.981Z</time></trkpt><trkpt lat="40.1613383" lon="15.1503833"><ele>2.0</ele><time>2026-05-02T10:06:32.982Z</time></trkpt><trkpt lat="40.1614283" lon="15.15032"><ele>2.0</ele><time>2026-05-02T10:06:33.981Z</time></trkpt><trkpt lat="40.16152" lon="15.150255"><ele>2.0</ele><time>2026-05-02T10:06:34.981Z</time></trkpt><trkpt lat="40.1616133" lon="15.150185"><ele>2.0</ele><time>2026-05-02T10:06:35.981Z</time></trkpt><trkpt lat="40.1617067" lon="15.150115"><ele>2.0</ele><time>2026-05-02T10:06:36.982Z</time></trkpt><trkpt lat="40.1618033" lon="15.150045"><ele>2.0</ele><time>2026-05-02T10:06:37.982Z</time></trkpt><trkpt lat="40.1619017" lon="15.1499767"><ele>2.0</ele><time>2026-05-02T10:06:38.982Z</time></trkpt><trkpt lat="40.1619983" lon="15.149905"><ele>2.0</ele><time>2026-05-02T10:06:39.982Z</time></trkpt><trkpt lat="40.162095" lon="15.149835"><ele>2.0</ele><time>2026-05-02T10:06:40.981Z</time></trkpt><trkpt lat="40.1621917" lon="15.1497617"><ele>2.0</ele><time>2026-05-02T10:06:41.981Z</time></trkpt><trkpt lat="40.1622817" lon="15.14969"><ele>2.0</ele><time>2026-05-02T10:06:42.981Z</time></trkpt><trkpt lat="40.1623733" lon="15.1496167"><ele>2.0</ele><time>2026-05-02T10:06:43.982Z</time></trkpt><trkpt lat="40.1624683" lon="15.1495467"><ele>2.0</ele><time>2026-05-02T10:06:44.981Z</time></trkpt><trkpt lat="40.16257" lon="15.1494717"><ele>1.75</ele><time>2026-05-02T10:06:45.982Z</time></trkpt><trkpt lat="40.162675" lon="15.1493967"><ele>1.5</ele><time>2026-05-02T10:06:46.981Z</time></trkpt><trkpt lat="40.1627883" lon="15.14931"><ele>1.25</ele><time>2026-05-02T10:06:47.981Z</time></trkpt><trkpt lat="40.1629133" lon="15.149215"><ele>1.0</ele><time>2026-05-02T10:06:48.981Z</time></trkpt><trkpt lat="40.1630517" lon="15.1491133"><ele>0.6666666666666666</ele><time>2026-05-02T10:06:49.981Z</time></trkpt><trkpt lat="40.1632017" lon="15.1489967"><ele>0.3333333333333333</ele><time>2026-05-02T10:06:50.982Z</time></trkpt><trkpt lat="40.1633433" lon="15.1488867"><ele>0.0</ele><time>2026-05-02T10:06:51.981Z</time></trkpt><trkpt lat="40.163475" lon="15.1487867"><ele>0.0</ele><time>2026-05-02T10:06:52.981Z</time></trkpt><trkpt lat="40.1636" lon="15.1486917"><ele>0.0</ele><time>2026-05-02T10:06:53.981Z</time></trkpt><trkpt lat="40.1637167" lon="15.1486017"><ele>0.0</ele><time>2026-05-02T10:06:54.981Z</time></trkpt><trkpt lat="40.163835" lon="15.1485217"><ele>0.0</ele><time>2026-05-02T10:06:55.981Z</time></trkpt><trkpt lat="40.1639517" lon="15.148435"><ele>0.0</ele><time>2026-05-02T10:06:56.982Z</time></trkpt><trkpt lat="40.1640717" lon="15.1483467"><ele>0.0</ele><time>2026-05-02T10:06:57.981Z</time></trkpt><trkpt lat="40.164195" lon="15.148255"><ele>0.0</ele><time>2026-05-02T10:06:58.982Z</time></trkpt><trkpt lat="40.1643167" lon="15.1481683"><ele>0.0</ele><time>2026-05-02T10:06:59.981Z</time></trkpt><trkpt lat="40.1644283" lon="15.148075"><ele>0.5</ele><time>2026-05-02T10:07:00.981Z</time></trkpt><trkpt lat="40.1645417" lon="15.14799"><ele>1.0</ele><time>2026-05-02T10:07:01.981Z</time></trkpt><trkpt lat="40.1646583" lon="15.1478983"><ele>1.5</ele><time>2026-05-02T10:07:02.982Z</time></trkpt><trkpt lat="40.1647817" lon="15.14781"><ele>2.0</ele><time>2026-05-02T10:07:03.982Z</time></trkpt><trkpt lat="40.1649" lon="15.147725"><ele>2.0</ele><time>2026-05-02T10:07:04.982Z</time></trkpt><trkpt lat="40.1650167" lon="15.14764"><ele>2.0</ele><time>2026-05-02T10:07:05.982Z</time></trkpt><trkpt lat="40.1651333" lon="15.14756"><ele>2.0</ele><time>2026-05-02T10:07:06.981Z</time></trkpt><trkpt lat="40.1652417" lon="15.1474767"><ele>2.0</ele><time>2026-05-02T10:07:07.981Z</time></trkpt><trkpt lat="40.1653483" lon="15.1473967"><ele>2.0</ele><time>2026-05-02T10:07:08.981Z</time></trkpt><trkpt lat="40.1654483" lon="15.1473217"><ele>2.0</ele><time>2026-05-02T10:07:09.982Z</time></trkpt><trkpt lat="40.1655483" lon="15.147245"><ele>2.0</ele><time>2026-05-02T10:07:10.981Z</time></trkpt><trkpt lat="40.1656467" lon="15.1471717"><ele>2.0</ele><time>2026-05-02T10:07:11.981Z</time></trkpt><trkpt lat="40.16574" lon="15.1471"><ele>2.0</ele><time>2026-05-02T10:07:12.982Z</time></trkpt><trkpt lat="40.1658267" lon="15.1470267"><ele>2.0</ele><time>2026-05-02T10:07:13.982Z</time></trkpt><trkpt lat="40.1659183" lon="15.1469567"><ele>2.0</ele><time>2026-05-02T10:07:14.981Z</time></trkpt><trkpt lat="40.1660133" lon="15.1468883"><ele>2.0</ele><time>2026-05-02T10:07:15.981Z</time></trkpt><trkpt lat="40.16611" lon="15.14682"><ele>2.0</ele><time>2026-05-02T10:07:16.982Z</time></trkpt><trkpt lat="40.1662117" lon="15.1467417"><ele>2.0</ele><time>2026-05-02T10:07:17.981Z</time></trkpt><trkpt lat="40.16632" lon="15.1466683"><ele>2.0</ele><time>2026-05-02T10:07:18.981Z</time></trkpt><trkpt lat="40.16643" lon="15.1465883"><ele>2.0</ele><time>2026-05-02T10:07:19.981Z</time></trkpt><trkpt lat="40.1665367" lon="15.14651"><ele>2.0</ele><time>2026-05-02T10:07:20.981Z</time></trkpt><trkpt lat="40.1666333" lon="15.1464333"><ele>1.8</ele><time>2026-05-02T10:07:21.981Z</time></trkpt><trkpt lat="40.16673" lon="15.1463617"><ele>1.6</ele><time>2026-05-02T10:07:22.981Z</time></trkpt><trkpt lat="40.16682" lon="15.1462917"><ele>1.4000000000000001</ele><time>2026-05-02T10:07:23.981Z</time></trkpt><trkpt lat="40.16692" lon="15.1462133"><ele>1.2000000000000002</ele><time>2026-05-02T10:07:24.981Z</time></trkpt><trkpt lat="40.1670167" lon="15.146135"><ele>1.0</ele><time>2026-05-02T10:07:25.982Z</time></trkpt><trkpt lat="40.167115" lon="15.14606"><ele>0.9999999999999999</ele><time>2026-05-02T10:07:26.981Z</time></trkpt><trkpt lat="40.1672133" lon="15.1459933"><ele>1.0</ele><time>2026-05-02T10:07:27.981Z</time></trkpt><trkpt lat="40.1672967" lon="15.1459367"><ele>1.0</ele><time>2026-05-02T10:07:28.982Z</time></trkpt><trkpt lat="40.1673717" lon="15.1458817"><ele>1.0</ele><time>2026-05-02T10:07:29.981Z</time></trkpt><trkpt lat="40.1674333" lon="15.145835"><ele>0.9999999999999999</ele><time>2026-05-02T10:07:30.982Z</time></trkpt><trkpt lat="40.167495" lon="15.1457883"><ele>1.0</ele><time>2026-05-02T10:07:31.981Z</time></trkpt><trkpt lat="40.1675867" lon="15.145715"><ele>1.2000000000000002</ele><time>2026-05-02T10:07:33.981Z</time></trkpt><trkpt lat="40.167655" lon="15.145655"><ele>1.4000000000000001</ele><time>2026-05-02T10:07:36.981Z</time></trkpt><trkpt lat="40.1677167" lon="15.145615"><ele>1.6</ele><time>2026-05-02T10:07:40.981Z</time></trkpt><trkpt lat="40.1677917" lon="15.14555"><ele>1.8</ele><time>2026-05-02T10:07:42.981Z</time></trkpt><trkpt lat="40.1678633" lon="15.1454967"><ele>2.0</ele><time>2026-05-02T10:07:43.982Z</time></trkpt><trkpt lat="40.167975" lon="15.1454133"><ele>2.0</ele><time>2026-05-02T10:07:44.981Z</time></trkpt><trkpt lat="40.16812" lon="15.1453017"><ele>2.0</ele><time>2026-05-02T10:07:45.981Z</time></trkpt><trkpt lat="40.16829" lon="15.1451733"><ele>2.0</ele><time>2026-05-02T10:07:46.982Z</time></trkpt><trkpt lat="40.168455" lon="15.1450483"><ele>1.75</ele><time>2026-05-02T10:07:47.981Z</time></trkpt><trkpt lat="40.1685933" lon="15.1449483"><ele>1.5</ele><time>2026-05-02T10:07:48.982Z</time></trkpt><trkpt lat="40.16871" lon="15.1448667"><ele>1.25</ele><time>2026-05-02T10:07:49.981Z</time></trkpt><trkpt lat="40.1688183" lon="15.14479"><ele>1.0</ele><time>2026-05-02T10:07:50.981Z</time></trkpt><trkpt lat="40.168915" lon="15.1447183"><ele>1.0</ele><time>2026-05-02T10:07:51.981Z</time></trkpt><trkpt lat="40.169015" lon="15.1446467"><ele>1.0</ele><time>2026-05-02T10:07:52.981Z</time></trkpt><trkpt lat="40.1691217" lon="15.1445717"><ele>1.0</ele><time>2026-05-02T10:07:53.981Z</time></trkpt><trkpt lat="40.1692267" lon="15.14449"><ele>1.0</ele><time>2026-05-02T10:07:54.981Z</time></trkpt><trkpt lat="40.1693383" lon="15.1444083"><ele>1.25</ele><time>2026-05-02T10:07:55.981Z</time></trkpt><trkpt lat="40.1694483" lon="15.1443267"><ele>1.5</ele><time>2026-05-02T10:07:56.981Z</time></trkpt><trkpt lat="40.169555" lon="15.144245"><ele>1.75</ele><time>2026-05-02T10:07:57.982Z</time></trkpt><trkpt lat="40.169665" lon="15.144165"><ele>2.0</ele><time>2026-05-02T10:07:58.981Z</time></trkpt><trkpt lat="40.1697817" lon="15.1440833"><ele>2.25</ele><time>2026-05-02T10:07:59.981Z</time></trkpt><trkpt lat="40.1698983" lon="15.144"><ele>2.5</ele><time>2026-05-02T10:08:00.981Z</time></trkpt><trkpt lat="40.170015" lon="15.1439167"><ele>2.75</ele><time>2026-05-02T10:08:01.982Z</time></trkpt><trkpt lat="40.17013" lon="15.1438317"><ele>3.0</ele><time>2026-05-02T10:08:02.982Z</time></trkpt><trkpt lat="40.170245" lon="15.1437467"><ele>3.0</ele><time>2026-05-02T10:08:03.982Z</time></trkpt><trkpt lat="40.1703667" lon="15.1436533"><ele>3.0</ele><time>2026-05-02T10:08:04.982Z</time></trkpt><trkpt lat="40.170505" lon="15.14354"><ele>3.0</ele><time>2026-05-02T10:08:05.982Z</time></trkpt><trkpt lat="40.1706617" lon="15.1434117"><ele>2.5</ele><time>2026-05-02T10:08:06.981Z</time></trkpt><trkpt lat="40.1708483" lon="15.1432633"><ele>2.0</ele><time>2026-05-02T10:08:07.982Z</time></trkpt><trkpt lat="40.1710617" lon="15.1431083"><ele>1.6666666666666665</ele><time>2026-05-02T10:08:08.982Z</time></trkpt><trkpt lat="40.171265" lon="15.1429617"><ele>1.3333333333333333</ele><time>2026-05-02T10:08:09.981Z</time></trkpt><trkpt lat="40.171445" lon="15.14283"><ele>1.0</ele><time>2026-05-02T10:08:10.981Z</time></trkpt><trkpt lat="40.1716" lon="15.1426917"><ele>1.0</ele><time>2026-05-02T10:08:11.981Z</time></trkpt><trkpt lat="40.1717317" lon="15.1425467"><ele>1.0</ele><time>2026-05-02T10:08:12.981Z</time></trkpt><trkpt lat="40.1718517" lon="15.1423983"><ele>1.0</ele><time>2026-05-02T10:08:13.981Z</time></trkpt><trkpt lat="40.171945" lon="15.1422633"><ele>1.25</ele><time>2026-05-02T10:08:14.982Z</time></trkpt><trkpt lat="40.17202" lon="15.142145"><ele>1.5</ele><time>2026-05-02T10:08:15.981Z</time></trkpt><trkpt lat="40.172085" lon="15.1420333"><ele>1.75</ele><time>2026-05-02T10:08:16.981Z</time></trkpt><trkpt lat="40.172145" lon="15.1419167"><ele>2.0</ele><time>2026-05-02T10:08:17.981Z</time></trkpt><trkpt lat="40.1722117" lon="15.1417733"><ele>2.0</ele><time>2026-05-02T10:08:18.981Z</time></trkpt><trkpt lat="40.1722733" lon="15.1416033"><ele>2.0</ele><time>2026-05-02T10:08:19.982Z</time></trkpt><trkpt lat="40.17233" lon="15.1413883"><ele>2.0</ele><time>2026-05-02T10:08:20.981Z</time></trkpt><trkpt lat="40.1723833" lon="15.1411317"><ele>2.5</ele><time>2026-05-02T10:08:21.981Z</time></trkpt><trkpt lat="40.1724583" lon="15.1408633"><ele>3.0</ele><time>2026-05-02T10:08:22.981Z</time></trkpt><trkpt lat="40.172535" lon="15.1405767"><ele>3.0</ele><time>2026-05-02T10:08:23.981Z</time></trkpt><trkpt lat="40.1726133" lon="15.1402733"><ele>3.0</ele><time>2026-05-02T10:08:24.982Z</time></trkpt><trkpt lat="40.1726967" lon="15.1399567"><ele>3.0</ele><time>2026-05-02T10:08:25.981Z</time></trkpt><trkpt lat="40.1727767" lon="15.1396283"><ele>3.0</ele><time>2026-05-02T10:08:26.982Z</time></trkpt><trkpt lat="40.1728567" lon="15.13929"><ele>3.0</ele><time>2026-05-02T10:08:27.981Z</time></trkpt><trkpt lat="40.172935" lon="15.1389483"><ele>3.0</ele><time>2026-05-02T10:08:28.982Z</time></trkpt><trkpt lat="40.1730167" lon="15.1386083"><ele>3.0</ele><time>2026-05-02T10:08:29.982Z</time></trkpt><trkpt lat="40.1731017" lon="15.13827"><ele>3.0</ele><time>2026-05-02T10:08:30.981Z</time></trkpt><trkpt lat="40.1731883" lon="15.1379317"><ele>2.0</ele><time>2026-05-02T10:08:31.981Z</time></trkpt><trkpt lat="40.1732683" lon="15.1375967"><ele>1.0</ele><time>2026-05-02T10:08:32.981Z</time></trkpt><trkpt lat="40.1733467" lon="15.1372833"><ele>1.0</ele><time>2026-05-02T10:08:33.981Z</time></trkpt><trkpt lat="40.17342" lon="15.1369783"><ele>1.0</ele><time>2026-05-02T10:08:34.981Z</time></trkpt><trkpt lat="40.1734983" lon="15.13667"><ele>1.0</ele><time>2026-05-02T10:08:35.981Z</time></trkpt><trkpt lat="40.1735783" lon="15.1363583"><ele>1.0</ele><time>2026-05-02T10:08:36.981Z</time></trkpt><trkpt lat="40.1736567" lon="15.1360467"><ele>1.0</ele><time>2026-05-02T10:08:37.981Z</time></trkpt><trkpt lat="40.17373" lon="15.1357533"><ele>1.0</ele><time>2026-05-02T10:08:38.982Z</time></trkpt><trkpt lat="40.1737967" lon="15.13548"><ele>1.3333333333333333</ele><time>2026-05-02T10:08:39.981Z</time></trkpt><trkpt lat="40.1738567" lon="15.1352233"><ele>1.6666666666666665</ele><time>2026-05-02T10:08:40.981Z</time></trkpt><trkpt lat="40.173915" lon="15.1349867"><ele>2.0</ele><time>2026-05-02T10:08:41.982Z</time></trkpt><trkpt lat="40.1739617" lon="15.13477"><ele>2.0</ele><time>2026-05-02T10:08:42.982Z</time></trkpt><trkpt lat="40.1740083" lon="15.13458"><ele>2.0</ele><time>2026-05-02T10:08:43.981Z</time></trkpt><trkpt lat="40.1740483" lon="15.13442"><ele>2.0</ele><time>2026-05-02T10:08:44.982Z</time></trkpt><trkpt lat="40.1740867" lon="15.13427"><ele>2.0</ele><time>2026-05-02T10:08:45.982Z</time></trkpt><trkpt lat="40.17413" lon="15.1341067"><ele>2.333333333333333</ele><time>2026-05-02T10:08:46.981Z</time></trkpt><trkpt lat="40.1741767" lon="15.1339267"><ele>2.6666666666666665</ele><time>2026-05-02T10:08:47.981Z</time></trkpt><trkpt lat="40.1742233" lon="15.133735"><ele>3.0</ele><time>2026-05-02T10:08:48.981Z</time></trkpt><trkpt lat="40.1742717" lon="15.13352"><ele>3.0</ele><time>2026-05-02T10:08:49.981Z</time></trkpt><trkpt lat="40.1743283" lon="15.1333017"><ele>3.0</ele><time>2026-05-02T10:08:50.982Z</time></trkpt><trkpt lat="40.1743833" lon="15.13306"><ele>3.0</ele><time>2026-05-02T10:08:51.981Z</time></trkpt><trkpt lat="40.1744583" lon="15.1328133"><ele>3.0</ele><time>2026-05-02T10:08:52.981Z</time></trkpt><trkpt lat="40.174535" lon="15.13257"><ele>3.0</ele><time>2026-05-02T10:08:53.981Z</time></trkpt><trkpt lat="40.174615" lon="15.132335"><ele>3.0</ele><time>2026-05-02T10:08:54.982Z</time></trkpt><trkpt lat="40.1747033" lon="15.1321033"><ele>3.0</ele><time>2026-05-02T10:08:55.981Z</time></trkpt><trkpt lat="40.1747883" lon="15.1318683"><ele>3.0</ele><time>2026-05-02T10:08:56.982Z</time></trkpt><trkpt lat="40.174875" lon="15.13164"><ele>3.0</ele><time>2026-05-02T10:08:57.981Z</time></trkpt><trkpt lat="40.1749617" lon="15.1314117"><ele>3.0</ele><time>2026-05-02T10:08:58.981Z</time></trkpt><trkpt lat="40.1750467" lon="15.1311833"><ele>3.0</ele><time>2026-05-02T10:08:59.981Z</time></trkpt><trkpt lat="40.1751283" lon="15.1309667"><ele>3.0</ele><time>2026-05-02T10:09:00.981Z</time></trkpt><trkpt lat="40.1752" lon="15.1307683"><ele>3.333333333333333</ele><time>2026-05-02T10:09:01.981Z</time></trkpt><trkpt lat="40.175275" lon="15.1305767"><ele>3.6666666666666665</ele><time>2026-05-02T10:09:02.981Z</time></trkpt><trkpt lat="40.1753433" lon="15.130395"><ele>4.0</ele><time>2026-05-02T10:09:03.981Z</time></trkpt><trkpt lat="40.175415" lon="15.1302133"><ele>4.0</ele><time>2026-05-02T10:09:04.982Z</time></trkpt><trkpt lat="40.1754833" lon="15.1300317"><ele>4.0</ele><time>2026-05-02T10:09:05.981Z</time></trkpt><trkpt lat="40.1755467" lon="15.1298617"><ele>4.0</ele><time>2026-05-02T10:09:06.981Z</time></trkpt><trkpt lat="40.17561" lon="15.1297"><ele>4.0</ele><time>2026-05-02T10:09:07.981Z</time></trkpt><trkpt lat="40.1756667" lon="15.129555"><ele>4.0</ele><time>2026-05-02T10:09:08.981Z</time></trkpt><trkpt lat="40.175715" lon="15.1294183"><ele>4.0</ele><time>2026-05-02T10:09:09.981Z</time></trkpt><trkpt lat="40.1757583" lon="15.1292833"><ele>4.0</ele><time>2026-05-02T10:09:10.982Z</time></trkpt><trkpt lat="40.1758017" lon="15.129165"><ele>4.0</ele><time>2026-05-02T10:09:11.981Z</time></trkpt><trkpt lat="40.17585" lon="15.1290517"><ele>4.0</ele><time>2026-05-02T10:09:12.981Z</time></trkpt><trkpt lat="40.1758983" lon="15.12895"><ele>3.8000000000000003</ele><time>2026-05-02T10:09:13.981Z</time></trkpt><trkpt lat="40.175945" lon="15.12885"><ele>3.6000000000000005</ele><time>2026-05-02T10:09:14.982Z</time></trkpt><trkpt lat="40.17598" lon="15.128755"><ele>3.4</ele><time>2026-05-02T10:09:15.981Z</time></trkpt><trkpt lat="40.1760167" lon="15.1286533"><ele>3.2</ele><time>2026-05-02T10:09:16.981Z</time></trkpt><trkpt lat="40.17606" lon="15.1285417"><ele>3.0</ele><time>2026-05-02T10:09:17.981Z</time></trkpt><trkpt lat="40.1761083" lon="15.1284167"><ele>3.0</ele><time>2026-05-02T10:09:18.981Z</time></trkpt><trkpt lat="40.1761583" lon="15.1282783"><ele>3.0</ele><time>2026-05-02T10:09:19.981Z</time></trkpt><trkpt lat="40.17621" lon="15.1281383"><ele>3.0</ele><time>2026-05-02T10:09:20.981Z</time></trkpt><trkpt lat="40.1762633" lon="15.128005"><ele>3.0</ele><time>2026-05-02T10:09:21.981Z</time></trkpt><trkpt lat="40.1763167" lon="15.1278683"><ele>3.2</ele><time>2026-05-02T10:09:22.981Z</time></trkpt><trkpt lat="40.1763717" lon="15.1277233"><ele>3.4</ele><time>2026-05-02T10:09:23.981Z</time></trkpt><trkpt lat="40.1764217" lon="15.1275817"><ele>3.6000000000000005</ele><time>2026-05-02T10:09:24.981Z</time></trkpt><trkpt lat="40.1764633" lon="15.12746"><ele>3.8000000000000003</ele><time>2026-05-02T10:09:25.981Z</time></trkpt><trkpt lat="40.1765033" lon="15.1273467"><ele>4.0</ele><time>2026-05-02T10:09:26.981Z</time></trkpt><trkpt lat="40.1765433" lon="15.12724"><ele>4.4</ele><time>2026-05-02T10:09:27.982Z</time></trkpt><trkpt lat="40.17658" lon="15.1271283"><ele>4.800000000000001</ele><time>2026-05-02T10:09:28.981Z</time></trkpt><trkpt lat="40.1766217" lon="15.1270117"><ele>5.199999999999999</ele><time>2026-05-02T10:09:29.981Z</time></trkpt><trkpt lat="40.1766667" lon="15.12689"><ele>5.6</ele><time>2026-05-02T10:09:30.981Z</time></trkpt><trkpt lat="40.17671" lon="15.1267683"><ele>6.0</ele><time>2026-05-02T10:09:31.981Z</time></trkpt><trkpt lat="40.1767567" lon="15.1266417"><ele>5.5</ele><time>2026-05-02T10:09:32.982Z</time></trkpt><trkpt lat="40.176805" lon="15.1265117"><ele>5.0</ele><time>2026-05-02T10:09:33.981Z</time></trkpt><trkpt lat="40.1768533" lon="15.1263767"><ele>4.5</ele><time>2026-05-02T10:09:34.982Z</time></trkpt><trkpt lat="40.1769017" lon="15.12624"><ele>4.0</ele><time>2026-05-02T10:09:35.982Z</time></trkpt><trkpt lat="40.1769533" lon="15.1261017"><ele>4.0</ele><time>2026-05-02T10:09:36.981Z</time></trkpt><trkpt lat="40.177005" lon="15.1259667"><ele>4.0</ele><time>2026-05-02T10:09:37.981Z</time></trkpt><trkpt lat="40.17705" lon="15.125835"><ele>4.0</ele><time>2026-05-02T10:09:38.981Z</time></trkpt><trkpt lat="40.1770933" lon="15.1257083"><ele>4.0</ele><time>2026-05-02T10:09:39.981Z</time></trkpt><trkpt lat="40.1771383" lon="15.1255933"><ele>4.0</ele><time>2026-05-02T10:09:40.981Z</time></trkpt><trkpt lat="40.1771783" lon="15.12548"><ele>4.0</ele><time>2026-05-02T10:09:41.982Z</time></trkpt><trkpt lat="40.1772233" lon="15.1253667"><ele>4.0</ele><time>2026-05-02T10:09:42.981Z</time></trkpt><trkpt lat="40.177265" lon="15.1252483"><ele>4.0</ele><time>2026-05-02T10:09:43.981Z</time></trkpt><trkpt lat="40.17731" lon="15.1251317"><ele>4.0</ele><time>2026-05-02T10:09:44.982Z</time></trkpt><trkpt lat="40.177355" lon="15.1250133"><ele>4.0</ele><time>2026-05-02T10:09:45.981Z</time></trkpt><trkpt lat="40.1773983" lon="15.124895"><ele>4.2</ele><time>2026-05-02T10:09:46.981Z</time></trkpt><trkpt lat="40.177445" lon="15.1247833"><ele>4.4</ele><time>2026-05-02T10:09:47.981Z</time></trkpt><trkpt lat="40.177485" lon="15.1246667"><ele>4.6</ele><time>2026-05-02T10:09:48.982Z</time></trkpt><trkpt lat="40.17752" lon="15.1245667"><ele>4.8</ele><time>2026-05-02T10:09:49.982Z</time></trkpt><trkpt lat="40.17755" lon="15.124485"><ele>5.0</ele><time>2026-05-02T10:09:50.981Z</time></trkpt><trkpt lat="40.1776033" lon="15.1243583"><ele>5.0</ele><time>2026-05-02T10:09:52.981Z</time></trkpt><trkpt lat="40.1776467" lon="15.1242533"><ele>5.0</ele><time>2026-05-02T10:09:54.981Z</time></trkpt><trkpt lat="40.17768" lon="15.12416"><ele>5.0</ele><time>2026-05-02T10:09:56.981Z</time></trkpt><trkpt lat="40.17771" lon="15.1240817"><ele>5.0</ele><time>2026-05-02T10:09:58.981Z</time></trkpt><trkpt lat="40.1777567" lon="15.123995"><ele>5.0</ele><time>2026-05-02T10:10:00.981Z</time></trkpt><trkpt lat="40.1778" lon="15.123875"><ele>5.0</ele><time>2026-05-02T10:10:02.981Z</time></trkpt><trkpt lat="40.17784" lon="15.123735"><ele>5.166666666666667</ele><time>2026-05-02T10:10:04.981Z</time></trkpt><trkpt lat="40.177885" lon="15.123625"><ele>5.333333333333334</ele><time>2026-05-02T10:10:06.981Z</time></trkpt><trkpt lat="40.1779267" lon="15.1235317"><ele>5.5</ele><time>2026-05-02T10:10:08.981Z</time></trkpt><trkpt lat="40.1779667" lon="15.12345"><ele>5.666666666666667</ele><time>2026-05-02T10:10:10.982Z</time></trkpt><trkpt lat="40.1779917" lon="15.123365"><ele>5.833333333333333</ele><time>2026-05-02T10:10:12.981Z</time></trkpt><trkpt lat="40.1780233" lon="15.12328"><ele>6.0</ele><time>2026-05-02T10:10:14.981Z</time></trkpt><trkpt lat="40.1780667" lon="15.1232067"><ele>6.25</ele><time>2026-05-02T10:10:16.981Z</time></trkpt><trkpt lat="40.1781433" lon="15.1231167"><ele>6.5</ele><time>2026-05-02T10:10:18.981Z</time></trkpt><trkpt lat="40.1782283" lon="15.123035"><ele>6.75</ele><time>2026-05-02T10:10:20.982Z</time></trkpt><trkpt lat="40.17833" lon="15.1229417"><ele>7.0</ele><time>2026-05-02T10:10:22.981Z</time></trkpt><trkpt lat="40.178385" lon="15.122805"><ele>7.833333333333334</ele><time>2026-05-02T10:10:24.981Z</time></trkpt><trkpt lat="40.178365" lon="15.1226917"><ele>8.666666666666668</ele><time>2026-05-02T10:10:26.982Z</time></trkpt><trkpt lat="40.178425" lon="15.1226167"><ele>9.5</ele><time>2026-05-02T10:11:31.981Z</time></trkpt><trkpt lat="40.1784833" lon="15.1225817"><ele>10.333333333333334</ele><time>2026-05-02T10:11:32.981Z</time></trkpt><trkpt lat="40.1785467" lon="15.122555"><ele>11.166666666666666</ele><time>2026-05-02T10:11:33.981Z</time></trkpt><trkpt lat="40.17866" lon="15.1225167"><ele>12.0</ele><time>2026-05-02T10:11:35.981Z</time></trkpt><trkpt lat="40.1787617" lon="15.1224267"><ele>14.0</ele><time>2026-05-02T10:11:37.981Z</time></trkpt><trkpt lat="40.1788067" lon="15.1223533"><ele>16.0</ele><time>2026-05-02T10:11:38.981Z</time></trkpt><trkpt lat="40.1788417" lon="15.122245"><ele>18.0</ele><time>2026-05-02T10:11:39.981Z</time></trkpt><trkpt lat="40.1788533" lon="15.122105"><ele>20.0</ele><time>2026-05-02T10:11:40.981Z</time></trkpt><trkpt lat="40.1788467" lon="15.12194"><ele>22.0</ele><time>2026-05-02T10:11:41.982Z</time></trkpt><trkpt lat="40.1788367" lon="15.1217567"><ele>22.0</ele><time>2026-05-02T10:11:42.981Z</time></trkpt><trkpt lat="40.1788183" lon="15.1215717"><ele>22.0</ele><time>2026-05-02T10:11:43.981Z</time></trkpt><trkpt lat="40.1787883" lon="15.1213967"><ele>22.0</ele><time>2026-05-02T10:11:44.982Z</time></trkpt><trkpt lat="40.178725" lon="15.1212183"><ele>22.0</ele><time>2026-05-02T10:11:45.982Z</time></trkpt><trkpt lat="40.1786383" lon="15.121055"><ele>21.333333333333332</ele><time>2026-05-02T10:11:46.981Z</time></trkpt><trkpt lat="40.1785333" lon="15.1208967"><ele>20.666666666666668</ele><time>2026-05-02T10:11:47.981Z</time></trkpt><trkpt lat="40.1784283" lon="15.120735"><ele>20.0</ele><time>2026-05-02T10:11:48.982Z</time></trkpt><trkpt lat="40.1783283" lon="15.12058"><ele>19.333333333333336</ele><time>2026-05-02T10:11:49.981Z</time></trkpt><trkpt lat="40.1782267" lon="15.1204083"><ele>18.666666666666668</ele><time>2026-05-02T10:11:50.981Z</time></trkpt><trkpt lat="40.1781283" lon="15.1202367"><ele>18.0</ele><time>2026-05-02T10:11:51.982Z</time></trkpt><trkpt lat="40.1780533" lon="15.12009"><ele>18.833333333333332</ele><time>2026-05-02T10:11:52.981Z</time></trkpt><trkpt lat="40.1780017" lon="15.11996"><ele>19.666666666666668</ele><time>2026-05-02T10:11:53.981Z</time></trkpt><trkpt lat="40.17798" lon="15.11986"><ele>20.5</ele><time>2026-05-02T10:11:54.982Z</time></trkpt><trkpt lat="40.1779883" lon="15.1197683"><ele>21.333333333333336</ele><time>2026-05-02T10:11:55.982Z</time></trkpt><trkpt lat="40.1780367" lon="15.1196967"><ele>22.166666666666668</ele><time>2026-05-02T10:11:56.982Z</time></trkpt><trkpt lat="40.1781083" lon="15.1196417"><ele>23.0</ele><time>2026-05-02T10:11:57.982Z</time></trkpt><trkpt lat="40.1781867" lon="15.1195967"><ele>23.599999999999998</ele><time>2026-05-02T10:11:58.981Z</time></trkpt><trkpt lat="40.1782633" lon="15.1195467"><ele>24.2</ele><time>2026-05-02T10:11:59.981Z</time></trkpt><trkpt lat="40.1783283" lon="15.1194667"><ele>24.8</ele><time>2026-05-02T10:12:00.982Z</time></trkpt><trkpt lat="40.1783667" lon="15.1193633"><ele>25.4</ele><time>2026-05-02T10:12:01.981Z</time></trkpt><trkpt lat="40.1783783" lon="15.1192233"><ele>26.0</ele><time>2026-05-02T10:12:02.981Z</time></trkpt><trkpt lat="40.1783517" lon="15.1190217"><ele>26.333333333333332</ele><time>2026-05-02T10:12:03.981Z</time></trkpt><trkpt lat="40.1783183" lon="15.118775"><ele>26.666666666666664</ele><time>2026-05-02T10:12:04.981Z</time></trkpt><trkpt lat="40.178275" lon="15.1185067"><ele>27.0</ele><time>2026-05-02T10:12:05.981Z</time></trkpt><trkpt lat="40.1782483" lon="15.1182467"><ele>29.0</ele><time>2026-05-02T10:12:06.981Z</time></trkpt><trkpt lat="40.178225" lon="15.1180133"><ele>31.0</ele><time>2026-05-02T10:12:07.981Z</time></trkpt><trkpt lat="40.178205" lon="15.1178133"><ele>33.0</ele><time>2026-05-02T10:12:08.982Z</time></trkpt><trkpt lat="40.17819" lon="15.1176483"><ele>31.2</ele><time>2026-05-02T10:12:09.982Z</time></trkpt><trkpt lat="40.17816" lon="15.1175083"><ele>29.4</ele><time>2026-05-02T10:12:10.981Z</time></trkpt><trkpt lat="40.178115" lon="15.1173983"><ele>27.599999999999998</ele><time>2026-05-02T10:12:11.982Z</time></trkpt><trkpt lat="40.17805" lon="15.117295"><ele>25.799999999999997</ele><time>2026-05-02T10:12:12.982Z</time></trkpt><trkpt lat="40.1779667" lon="15.1172"><ele>24.0</ele><time>2026-05-02T10:12:13.982Z</time></trkpt><trkpt lat="40.1778833" lon="15.1171117"><ele>24.0</ele><time>2026-05-02T10:12:14.981Z</time></trkpt><trkpt lat="40.17783" lon="15.1170133"><ele>24.0</ele><time>2026-05-02T10:12:15.981Z</time></trkpt><trkpt lat="40.17781" lon="15.1169167"><ele>24.0</ele><time>2026-05-02T10:12:16.982Z</time></trkpt><trkpt lat="40.1778133" lon="15.1168233"><ele>24.0</ele><time>2026-05-02T10:12:17.981Z</time></trkpt><trkpt lat="40.1778467" lon="15.1167367"><ele>24.0</ele><time>2026-05-02T10:12:18.981Z</time></trkpt><trkpt lat="40.1779067" lon="15.1166383"><ele>24.0</ele><time>2026-05-02T10:12:19.982Z</time></trkpt><trkpt lat="40.17797" lon="15.116525"><ele>23.75</ele><time>2026-05-02T10:12:20.982Z</time></trkpt><trkpt lat="40.1780383" lon="15.1163983"><ele>23.5</ele><time>2026-05-02T10:12:21.981Z</time></trkpt><trkpt lat="40.1781" lon="15.1162167"><ele>23.25</ele><time>2026-05-02T10:12:22.981Z</time></trkpt><trkpt lat="40.1781533" lon="15.116005"><ele>23.0</ele><time>2026-05-02T10:12:23.981Z</time></trkpt><trkpt lat="40.1781917" lon="15.1158033"><ele>28.75</ele><time>2026-05-02T10:12:24.982Z</time></trkpt><trkpt lat="40.17821" lon="15.1156083"><ele>34.5</ele><time>2026-05-02T10:12:25.982Z</time></trkpt><trkpt lat="40.1782083" lon="15.1154533"><ele>40.25</ele><time>2026-05-02T10:12:26.982Z</time></trkpt><trkpt lat="40.1782017" lon="15.115325"><ele>46.0</ele><time>2026-05-02T10:12:27.981Z</time></trkpt><trkpt lat="40.17819" lon="15.1152017"><ele>39.75</ele><time>2026-05-02T10:12:28.982Z</time></trkpt><trkpt lat="40.1781783" lon="15.1150667"><ele>33.5</ele><time>2026-05-02T10:12:29.981Z</time></trkpt><trkpt lat="40.1781617" lon="15.114905"><ele>27.25</ele><time>2026-05-02T10:12:30.981Z</time></trkpt><trkpt lat="40.1781517" lon="15.1147033"><ele>21.0</ele><time>2026-05-02T10:12:31.982Z</time></trkpt><trkpt lat="40.1781617" lon="15.1144967"><ele>20.8</ele><time>2026-05-02T10:12:32.981Z</time></trkpt><trkpt lat="40.1781683" lon="15.11432"><ele>20.6</ele><time>2026-05-02T10:12:33.981Z</time></trkpt><trkpt lat="40.1781817" lon="15.1141683"><ele>20.4</ele><time>2026-05-02T10:12:34.981Z</time></trkpt><trkpt lat="40.1781933" lon="15.1140367"><ele>20.2</ele><time>2026-05-02T10:12:35.982Z</time></trkpt><trkpt lat="40.1782083" lon="15.1139133"><ele>20.0</ele><time>2026-05-02T10:12:36.981Z</time></trkpt><trkpt lat="40.1782183" lon="15.1138033"><ele>20.25</ele><time>2026-05-02T10:12:37.981Z</time></trkpt><trkpt lat="40.1782117" lon="15.1137"><ele>20.5</ele><time>2026-05-02T10:12:38.982Z</time></trkpt><trkpt lat="40.1781633" lon="15.113585"><ele>20.75</ele><time>2026-05-02T10:12:39.981Z</time></trkpt><trkpt lat="40.1780917" lon="15.1134417"><ele>21.0</ele><time>2026-05-02T10:12:40.981Z</time></trkpt><trkpt lat="40.17799" lon="15.1132617"><ele>24.0</ele><time>2026-05-02T10:12:41.982Z</time></trkpt><trkpt lat="40.177885" lon="15.1130783"><ele>27.0</ele><time>2026-05-02T10:12:42.982Z</time></trkpt><trkpt lat="40.177795" lon="15.1128983"><ele>30.0</ele><time>2026-05-02T10:12:43.981Z</time></trkpt><trkpt lat="40.177725" lon="15.1127333"><ele>30.0</ele><time>2026-05-02T10:12:44.981Z</time></trkpt><trkpt lat="40.1776783" lon="15.1125517"><ele>30.0</ele><time>2026-05-02T10:12:45.981Z</time></trkpt><trkpt lat="40.1776333" lon="15.1123533"><ele>30.0</ele><time>2026-05-02T10:12:46.982Z</time></trkpt><trkpt lat="40.177615" lon="15.112145"><ele>32.333333333333336</ele><time>2026-05-02T10:12:47.981Z</time></trkpt><trkpt lat="40.1775967" lon="15.1119517"><ele>34.66666666666667</ele><time>2026-05-02T10:12:48.981Z</time></trkpt><trkpt lat="40.1775817" lon="15.111755"><ele>37.0</ele><time>2026-05-02T10:12:49.981Z</time></trkpt><trkpt lat="40.1775583" lon="15.1115583"><ele>40.0</ele><time>2026-05-02T10:12:50.982Z</time></trkpt><trkpt lat="40.17753" lon="15.1113883"><ele>43.0</ele><time>2026-05-02T10:12:51.981Z</time></trkpt><trkpt lat="40.1774967" lon="15.1112467"><ele>46.0</ele><time>2026-05-02T10:12:52.981Z</time></trkpt><trkpt lat="40.1774383" lon="15.1111367"><ele>49.0</ele><time>2026-05-02T10:12:53.981Z</time></trkpt><trkpt lat="40.177355" lon="15.111065"><ele>52.0</ele><time>2026-05-02T10:12:54.981Z</time></trkpt><trkpt lat="40.1772433" lon="15.1110183"><ele>49.4</ele><time>2026-05-02T10:12:55.981Z</time></trkpt><trkpt lat="40.1771483" lon="15.11099"><ele>46.800000000000004</ele><time>2026-05-02T10:12:56.981Z</time></trkpt><trkpt lat="40.177075" lon="15.1109383"><ele>44.2</ele><time>2026-05-02T10:12:57.982Z</time></trkpt><trkpt lat="40.1770183" lon="15.1108667"><ele>41.6</ele><time>2026-05-02T10:12:58.981Z</time></trkpt><trkpt lat="40.1769817" lon="15.1107667"><ele>39.0</ele><time>2026-05-02T10:12:59.982Z</time></trkpt><trkpt lat="40.17696" lon="15.1106167"><ele>39.0</ele><time>2026-05-02T10:13:00.982Z</time></trkpt><trkpt lat="40.1769117" lon="15.1104133"><ele>39.0</ele><time>2026-05-02T10:13:01.981Z</time></trkpt><trkpt lat="40.1768333" lon="15.110205"><ele>39.0</ele><time>2026-05-02T10:13:02.981Z</time></trkpt><trkpt lat="40.1767483" lon="15.110015"><ele>42.5</ele><time>2026-05-02T10:13:03.982Z</time></trkpt><trkpt lat="40.1766483" lon="15.109865"><ele>46.0</ele><time>2026-05-02T10:13:04.981Z</time></trkpt><trkpt lat="40.176555" lon="15.1097583"><ele>49.5</ele><time>2026-05-02T10:13:05.981Z</time></trkpt><trkpt lat="40.1764383" lon="15.1096717"><ele>53.0</ele><time>2026-05-02T10:13:06.981Z</time></trkpt><trkpt lat="40.1763133" lon="15.1096017"><ele>46.0</ele><time>2026-05-02T10:13:07.981Z</time></trkpt><trkpt lat="40.17619" lon="15.109545"><ele>39.0</ele><time>2026-05-02T10:13:08.982Z</time></trkpt><trkpt lat="40.1760717" lon="15.10947"><ele>32.0</ele><time>2026-05-02T10:13:09.982Z</time></trkpt><trkpt lat="40.1759717" lon="15.1093967"><ele>25.0</ele><time>2026-05-02T10:13:10.981Z</time></trkpt><trkpt lat="40.1758883" lon="15.1093117"><ele>25.0</ele><time>2026-05-02T10:13:11.982Z</time></trkpt><trkpt lat="40.1758233" lon="15.1092017"><ele>25.0</ele><time>2026-05-02T10:13:12.981Z</time></trkpt><trkpt lat="40.17577" lon="15.109065"><ele>25.0</ele><time>2026-05-02T10:13:13.982Z</time></trkpt><trkpt lat="40.1757383" lon="15.1089067"><ele>25.0</ele><time>2026-05-02T10:13:14.981Z</time></trkpt><trkpt lat="40.1757217" lon="15.1087167"><ele>26.666666666666668</ele><time>2026-05-02T10:13:15.981Z</time></trkpt><trkpt lat="40.17571" lon="15.108505"><ele>28.333333333333336</ele><time>2026-05-02T10:13:16.982Z</time></trkpt><trkpt lat="40.1757067" lon="15.1082667"><ele>30.0</ele><time>2026-05-02T10:13:17.981Z</time></trkpt><trkpt lat="40.1757217" lon="15.1080133"><ele>30.333333333333336</ele><time>2026-05-02T10:13:18.981Z</time></trkpt><trkpt lat="40.1757467" lon="15.1077783"><ele>30.666666666666668</ele><time>2026-05-02T10:13:19.982Z</time></trkpt><trkpt lat="40.1757783" lon="15.1075633"><ele>31.0</ele><time>2026-05-02T10:13:20.981Z</time></trkpt><trkpt lat="40.175815" lon="15.1073783"><ele>28.5</ele><time>2026-05-02T10:13:21.981Z</time></trkpt><trkpt lat="40.175865" lon="15.1072117"><ele>26.0</ele><time>2026-05-02T10:13:22.981Z</time></trkpt><trkpt lat="40.1759367" lon="15.10705"><ele>23.5</ele><time>2026-05-02T10:13:23.981Z</time></trkpt><trkpt lat="40.1760367" lon="15.1068917"><ele>21.0</ele><time>2026-05-02T10:13:24.981Z</time></trkpt><trkpt lat="40.1761367" lon="15.106755"><ele>21.0</ele><time>2026-05-02T10:13:25.981Z</time></trkpt><trkpt lat="40.176215" lon="15.1066383"><ele>21.0</ele><time>2026-05-02T10:13:26.981Z</time></trkpt><trkpt lat="40.1762667" lon="15.1065333"><ele>21.0</ele><time>2026-05-02T10:13:27.981Z</time></trkpt><trkpt lat="40.1762783" lon="15.10641"><ele>21.0</ele><time>2026-05-02T10:13:28.982Z</time></trkpt><trkpt lat="40.1762617" lon="15.1062917"><ele>21.0</ele><time>2026-05-02T10:13:29.981Z</time></trkpt><trkpt lat="40.1762167" lon="15.1061867"><ele>22.5</ele><time>2026-05-02T10:13:30.981Z</time></trkpt><trkpt lat="40.17614" lon="15.106105"><ele>24.0</ele><time>2026-05-02T10:13:31.981Z</time></trkpt><trkpt lat="40.17605" lon="15.106035"><ele>25.5</ele><time>2026-05-02T10:13:32.981Z</time></trkpt><trkpt lat="40.1759367" lon="15.105955"><ele>27.0</ele><time>2026-05-02T10:13:33.981Z</time></trkpt><trkpt lat="40.1758367" lon="15.1058733"><ele>27.0</ele><time>2026-05-02T10:13:34.981Z</time></trkpt><trkpt lat="40.1757617" lon="15.1057533"><ele>27.0</ele><time>2026-05-02T10:13:35.981Z</time></trkpt><trkpt lat="40.1756983" lon="15.10559"><ele>27.0</ele><time>2026-05-02T10:13:36.981Z</time></trkpt><trkpt lat="40.1756517" lon="15.1053867"><ele>27.0</ele><time>2026-05-02T10:13:37.981Z</time></trkpt><trkpt lat="40.1755967" lon="15.10516"><ele>24.333333333333332</ele><time>2026-05-02T10:13:38.981Z</time></trkpt><trkpt lat="40.1755233" lon="15.1049333"><ele>21.666666666666664</ele><time>2026-05-02T10:13:39.981Z</time></trkpt><trkpt lat="40.1754517" lon="15.104725"><ele>19.0</ele><time>2026-05-02T10:13:40.981Z</time></trkpt><trkpt lat="40.175375" lon="15.1045233"><ele>19.0</ele><time>2026-05-02T10:13:41.982Z</time></trkpt><trkpt lat="40.1753083" lon="15.104325"><ele>19.0</ele><time>2026-05-02T10:13:42.981Z</time></trkpt><trkpt lat="40.1752633" lon="15.10413"><ele>19.0</ele><time>2026-05-02T10:13:43.982Z</time></trkpt><trkpt lat="40.1752317" lon="15.1039467"><ele>21.333333333333332</ele><time>2026-05-02T10:13:44.981Z</time></trkpt><trkpt lat="40.1751833" lon="15.103755"><ele>23.666666666666664</ele><time>2026-05-02T10:13:45.982Z</time></trkpt><trkpt lat="40.1751233" lon="15.10356"><ele>26.0</ele><time>2026-05-02T10:13:46.982Z</time></trkpt><trkpt lat="40.1750567" lon="15.1033867"><ele>27.5</ele><time>2026-05-02T10:13:47.981Z</time></trkpt><trkpt lat="40.1749833" lon="15.1032167"><ele>29.0</ele><time>2026-05-02T10:13:48.981Z</time></trkpt><trkpt lat="40.1749183" lon="15.1030533"><ele>30.5</ele><time>2026-05-02T10:13:49.982Z</time></trkpt><trkpt lat="40.1748467" lon="15.1028767"><ele>32.0</ele><time>2026-05-02T10:13:50.981Z</time></trkpt><trkpt lat="40.1747733" lon="15.1027117"><ele>27.25</ele><time>2026-05-02T10:13:51.981Z</time></trkpt><trkpt lat="40.1747083" lon="15.1025267"><ele>22.5</ele><time>2026-05-02T10:13:52.981Z</time></trkpt><trkpt lat="40.1746533" lon="15.1023433"><ele>17.75</ele><time>2026-05-02T10:13:53.981Z</time></trkpt><trkpt lat="40.174605" lon="15.1021867"><ele>13.0</ele><time>2026-05-02T10:13:54.982Z</time></trkpt><trkpt lat="40.17455" lon="15.1020583"><ele>13.0</ele><time>2026-05-02T10:13:55.981Z</time></trkpt><trkpt lat="40.1744717" lon="15.1019517"><ele>13.0</ele><time>2026-05-02T10:13:56.981Z</time></trkpt><trkpt lat="40.174385" lon="15.1018533"><ele>13.0</ele><time>2026-05-02T10:13:57.981Z</time></trkpt><trkpt lat="40.1743217" lon="15.1017517"><ele>13.0</ele><time>2026-05-02T10:13:58.981Z</time></trkpt><trkpt lat="40.1742817" lon="15.1016333"><ele>13.0</ele><time>2026-05-02T10:13:59.982Z</time></trkpt><trkpt lat="40.1742783" lon="15.1015133"><ele>14.333333333333332</ele><time>2026-05-02T10:14:00.981Z</time></trkpt><trkpt lat="40.1742967" lon="15.1013983"><ele>15.666666666666666</ele><time>2026-05-02T10:14:01.981Z</time></trkpt><trkpt lat="40.1743133" lon="15.10129"><ele>17.0</ele><time>2026-05-02T10:14:02.981Z</time></trkpt><trkpt lat="40.1743133" lon="15.1011767"><ele>18.333333333333332</ele><time>2026-05-02T10:14:03.982Z</time></trkpt><trkpt lat="40.1742833" lon="15.1010867"><ele>19.666666666666668</ele><time>2026-05-02T10:14:04.981Z</time></trkpt><trkpt lat="40.174235" lon="15.1010067"><ele>21.0</ele><time>2026-05-02T10:14:05.982Z</time></trkpt><trkpt lat="40.1741617" lon="15.1009367"><ele>21.0</ele><time>2026-05-02T10:14:06.982Z</time></trkpt><trkpt lat="40.1740833" lon="15.1008783"><ele>21.0</ele><time>2026-05-02T10:14:07.981Z</time></trkpt><trkpt lat="40.1740067" lon="15.10082"><ele>21.0</ele><time>2026-05-02T10:14:08.982Z</time></trkpt><trkpt lat="40.1739267" lon="15.100745"><ele>21.0</ele><time>2026-05-02T10:14:09.982Z</time></trkpt><trkpt lat="40.173845" lon="15.10064"><ele>21.0</ele><time>2026-05-02T10:14:10.981Z</time></trkpt><trkpt lat="40.17377" lon="15.100525"><ele>18.5</ele><time>2026-05-02T10:14:11.982Z</time></trkpt><trkpt lat="40.17368" lon="15.1004133"><ele>16.0</ele><time>2026-05-02T10:14:12.981Z</time></trkpt><trkpt lat="40.1735933" lon="15.100305"><ele>13.5</ele><time>2026-05-02T10:14:13.982Z</time></trkpt><trkpt lat="40.17352" lon="15.1001917"><ele>11.0</ele><time>2026-05-02T10:14:14.982Z</time></trkpt><trkpt lat="40.173455" lon="15.10008"><ele>11.0</ele><time>2026-05-02T10:14:15.981Z</time></trkpt><trkpt lat="40.1733933" lon="15.0999633"><ele>11.0</ele><time>2026-05-02T10:14:16.982Z</time></trkpt><trkpt lat="40.17335" lon="15.0998133"><ele>11.0</ele><time>2026-05-02T10:14:17.981Z</time></trkpt><trkpt lat="40.17332" lon="15.099635"><ele>11.0</ele><time>2026-05-02T10:14:18.981Z</time></trkpt><trkpt lat="40.1733217" lon="15.0994167"><ele>11.666666666666666</ele><time>2026-05-02T10:14:19.981Z</time></trkpt><trkpt lat="40.1733233" lon="15.0991717"><ele>12.333333333333332</ele><time>2026-05-02T10:14:20.981Z</time></trkpt><trkpt lat="40.1733133" lon="15.09894"><ele>13.0</ele><time>2026-05-02T10:14:21.982Z</time></trkpt><trkpt lat="40.1733117" lon="15.0987433"><ele>13.0</ele><time>2026-05-02T10:14:22.981Z</time></trkpt><trkpt lat="40.1733067" lon="15.0985533"><ele>13.0</ele><time>2026-05-02T10:14:23.981Z</time></trkpt><trkpt lat="40.173305" lon="15.0983733"><ele>13.0</ele><time>2026-05-02T10:14:24.981Z</time></trkpt><trkpt lat="40.1733083" lon="15.0982133"><ele>13.0</ele><time>2026-05-02T10:14:25.981Z</time></trkpt><trkpt lat="40.1733217" lon="15.0980583"><ele>12.75</ele><time>2026-05-02T10:14:26.981Z</time></trkpt><trkpt lat="40.1733417" lon="15.0979217"><ele>12.5</ele><time>2026-05-02T10:14:27.981Z</time></trkpt><trkpt lat="40.1733767" lon="15.0977933"><ele>12.25</ele><time>2026-05-02T10:14:28.981Z</time></trkpt><trkpt lat="40.1734317" lon="15.097665"><ele>12.0</ele><time>2026-05-02T10:14:29.981Z</time></trkpt><trkpt lat="40.1734733" lon="15.0975083"><ele>11.0</ele><time>2026-05-02T10:14:30.982Z</time></trkpt><trkpt lat="40.1735083" lon="15.0972933"><ele>10.0</ele><time>2026-05-02T10:14:31.981Z</time></trkpt><trkpt lat="40.1735467" lon="15.0970867"><ele>9.0</ele><time>2026-05-02T10:14:32.981Z</time></trkpt><trkpt lat="40.1735917" lon="15.0969167"><ele>9.0</ele><time>2026-05-02T10:14:33.981Z</time></trkpt><trkpt lat="40.173635" lon="15.0967733"><ele>9.0</ele><time>2026-05-02T10:14:34.981Z</time></trkpt><trkpt lat="40.1736617" lon="15.0966317"><ele>9.0</ele><time>2026-05-02T10:14:35.982Z</time></trkpt><trkpt lat="40.1736767" lon="15.0965067"><ele>9.0</ele><time>2026-05-02T10:14:36.982Z</time></trkpt><trkpt lat="40.1736767" lon="15.0963933"><ele>9.0</ele><time>2026-05-02T10:14:37.981Z</time></trkpt><trkpt lat="40.17367" lon="15.096285"><ele>8.666666666666666</ele><time>2026-05-02T10:14:38.981Z</time></trkpt><trkpt lat="40.1736517" lon="15.09619"><ele>8.333333333333334</ele><time>2026-05-02T10:14:39.981Z</time></trkpt><trkpt lat="40.1736417" lon="15.0961033"><ele>8.0</ele><time>2026-05-02T10:14:40.981Z</time></trkpt><trkpt lat="40.173635" lon="15.0960183"><ele>7.666666666666667</ele><time>2026-05-02T10:14:41.982Z</time></trkpt><trkpt lat="40.17363" lon="15.0959317"><ele>7.333333333333334</ele><time>2026-05-02T10:14:42.981Z</time></trkpt><trkpt lat="40.17363" lon="15.095765"><ele>7.0</ele><time>2026-05-02T10:14:44.981Z</time></trkpt><trkpt lat="40.1736333" lon="15.0956717"><ele>6.428571428571429</ele><time>2026-05-02T10:14:45.981Z</time></trkpt><trkpt lat="40.1736467" lon="15.09558"><ele>5.857142857142857</ele><time>2026-05-02T10:14:46.981Z</time></trkpt><trkpt lat="40.1736633" lon="15.09548"><ele>5.285714285714286</ele><time>2026-05-02T10:14:47.981Z</time></trkpt><trkpt lat="40.1736767" lon="15.0953867"><ele>4.714285714285714</ele><time>2026-05-02T10:14:48.981Z</time></trkpt><trkpt lat="40.1736983" lon="15.095305"><ele>4.142857142857142</ele><time>2026-05-02T10:14:49.982Z</time></trkpt><trkpt lat="40.1737217" lon="15.095225"><ele>3.571428571428571</ele><time>2026-05-02T10:14:50.981Z</time></trkpt><trkpt lat="40.173755" lon="15.09515"><ele>3.0</ele><time>2026-05-02T10:14:51.982Z</time></trkpt><trkpt lat="40.1738" lon="15.0950783"><ele>3.0</ele><time>2026-05-02T10:14:52.981Z</time></trkpt><trkpt lat="40.1738517" lon="15.0950217"><ele>3.0</ele><time>2026-05-02T10:14:53.981Z</time></trkpt><trkpt lat="40.1739167" lon="15.0949667"><ele>3.0</ele><time>2026-05-02T10:14:54.981Z</time></trkpt><trkpt lat="40.1739833" lon="15.0949167"><ele>3.0</ele><time>2026-05-02T10:14:55.981Z</time></trkpt><trkpt lat="40.1740383" lon="15.0948583"><ele>3.0</ele><time>2026-05-02T10:14:56.981Z</time></trkpt><trkpt lat="40.1740883" lon="15.0947717"><ele>3.0</ele><time>2026-05-02T10:14:57.981Z</time></trkpt><trkpt lat="40.174125" lon="15.0946733"><ele>4.75</ele><time>2026-05-02T10:14:58.982Z</time></trkpt><trkpt lat="40.1741517" lon="15.0945567"><ele>6.5</ele><time>2026-05-02T10:14:59.981Z</time></trkpt><trkpt lat="40.1741667" lon="15.094405"><ele>8.25</ele><time>2026-05-02T10:15:00.981Z</time></trkpt><trkpt lat="40.1741967" lon="15.0942233"><ele>10.0</ele><time>2026-05-02T10:15:01.982Z</time></trkpt><trkpt lat="40.1742367" lon="15.0940117"><ele>10.0</ele><time>2026-05-02T10:15:02.981Z</time></trkpt><trkpt lat="40.1742883" lon="15.093795"><ele>10.0</ele><time>2026-05-02T10:15:03.982Z</time></trkpt><trkpt lat="40.174355" lon="15.0935967"><ele>10.0</ele><time>2026-05-02T10:15:04.981Z</time></trkpt><trkpt lat="40.1744033" lon="15.093415"><ele>9.25</ele><time>2026-05-02T10:15:05.982Z</time></trkpt><trkpt lat="40.1744267" lon="15.0932383"><ele>8.5</ele><time>2026-05-02T10:15:06.981Z</time></trkpt><trkpt lat="40.1744467" lon="15.0930967"><ele>7.75</ele><time>2026-05-02T10:15:07.981Z</time></trkpt><trkpt lat="40.174465" lon="15.0929667"><ele>7.0</ele><time>2026-05-02T10:15:08.981Z</time></trkpt><trkpt lat="40.1744633" lon="15.0928267"><ele>7.0</ele><time>2026-05-02T10:15:09.982Z</time></trkpt><trkpt lat="40.1744517" lon="15.0926583"><ele>7.0</ele><time>2026-05-02T10:15:10.981Z</time></trkpt><trkpt lat="40.174425" lon="15.09247"><ele>7.0</ele><time>2026-05-02T10:15:11.982Z</time></trkpt><trkpt lat="40.1744017" lon="15.0922783"><ele>7.0</ele><time>2026-05-02T10:15:12.981Z</time></trkpt><trkpt lat="40.17438" lon="15.0921133"><ele>7.0</ele><time>2026-05-02T10:15:13.981Z</time></trkpt><trkpt lat="40.1743583" lon="15.0919733"><ele>6.999999999999999</ele><time>2026-05-02T10:15:14.981Z</time></trkpt><trkpt lat="40.1743583" lon="15.09184"><ele>6.999999999999999</ele><time>2026-05-02T10:15:15.981Z</time></trkpt><trkpt lat="40.174365" lon="15.0917217"><ele>7.0</ele><time>2026-05-02T10:15:16.981Z</time></trkpt><trkpt lat="40.174365" lon="15.0915833"><ele>7.0</ele><time>2026-05-02T10:15:17.982Z</time></trkpt><trkpt lat="40.17437" lon="15.0914117"><ele>7.0</ele><time>2026-05-02T10:15:18.981Z</time></trkpt><trkpt lat="40.1743733" lon="15.0912417"><ele>6.999999999999999</ele><time>2026-05-02T10:15:19.981Z</time></trkpt><trkpt lat="40.174375" lon="15.0910867"><ele>6.999999999999999</ele><time>2026-05-02T10:15:20.981Z</time></trkpt><trkpt lat="40.174375" lon="15.0909583"><ele>7.0</ele><time>2026-05-02T10:15:21.981Z</time></trkpt><trkpt lat="40.17438" lon="15.0908517"><ele>7.0</ele><time>2026-05-02T10:15:22.981Z</time></trkpt><trkpt lat="40.1743767" lon="15.090715"><ele>7.000000000000001</ele><time>2026-05-02T10:15:24.982Z</time></trkpt><trkpt lat="40.17437" lon="15.0906183"><ele>7.0</ele><time>2026-05-02T10:15:27.981Z</time></trkpt><trkpt lat="40.174365" lon="15.0905233"><ele>7.0</ele><time>2026-05-02T10:15:30.981Z</time></trkpt><trkpt lat="40.1743717" lon="15.0904317"><ele>7.0</ele><time>2026-05-02T10:15:32.982Z</time></trkpt><trkpt lat="40.1743817" lon="15.0903167"><ele>7.000000000000001</ele><time>2026-05-02T10:15:34.982Z</time></trkpt><trkpt lat="40.1743883" lon="15.0901833"><ele>7.0</ele><time>2026-05-02T10:15:36.981Z</time></trkpt><trkpt lat="40.174395" lon="15.09003"><ele>6.8</ele><time>2026-05-02T10:15:38.981Z</time></trkpt><trkpt lat="40.1743733" lon="15.0899017"><ele>6.6</ele><time>2026-05-02T10:15:40.981Z</time></trkpt><trkpt lat="40.1743733" lon="15.0897717"><ele>6.3999999999999995</ele><time>2026-05-02T10:15:42.981Z</time></trkpt><trkpt lat="40.174375" lon="15.089625"><ele>6.199999999999999</ele><time>2026-05-02T10:15:44.981Z</time></trkpt><trkpt lat="40.1743733" lon="15.08949"><ele>6.0</ele><time>2026-05-02T10:15:46.981Z</time></trkpt><trkpt lat="40.1743667" lon="15.0893533"><ele>6.0</ele><time>2026-05-02T10:15:48.981Z</time></trkpt><trkpt lat="40.17437" lon="15.0892017"><ele>6.0</ele><time>2026-05-02T10:15:50.981Z</time></trkpt><trkpt lat="40.17437" lon="15.0891117"><ele>6.0</ele><time>2026-05-02T10:15:51.981Z</time></trkpt><trkpt lat="40.17437" lon="15.089015"><ele>6.0</ele><time>2026-05-02T10:15:52.982Z</time></trkpt><trkpt lat="40.1743667" lon="15.0889117"><ele>6.0</ele><time>2026-05-02T10:15:53.981Z</time></trkpt><trkpt lat="40.1743683" lon="15.088805"><ele>6.0</ele><time>2026-05-02T10:15:54.981Z</time></trkpt><trkpt lat="40.1743733" lon="15.0887033"><ele>6.333333333333333</ele><time>2026-05-02T10:15:55.981Z</time></trkpt><trkpt lat="40.1743783" lon="15.0886083"><ele>6.666666666666666</ele><time>2026-05-02T10:15:56.981Z</time></trkpt><trkpt lat="40.1743883" lon="15.0885117"><ele>7.0</ele><time>2026-05-02T10:15:57.981Z</time></trkpt><trkpt lat="40.1743917" lon="15.0884067"><ele>7.333333333333333</ele><time>2026-05-02T10:15:58.982Z</time></trkpt><trkpt lat="40.1743917" lon="15.0882967"><ele>7.666666666666666</ele><time>2026-05-02T10:15:59.981Z</time></trkpt><trkpt lat="40.1744017" lon="15.0881833"><ele>8.0</ele><time>2026-05-02T10:16:00.981Z</time></trkpt><trkpt lat="40.1743983" lon="15.0880667"><ele>8.333333333333332</ele><time>2026-05-02T10:16:01.981Z</time></trkpt><trkpt lat="40.17439" lon="15.0879517"><ele>8.666666666666666</ele><time>2026-05-02T10:16:02.981Z</time></trkpt><trkpt lat="40.1743867" lon="15.0878517"><ele>9.0</ele><time>2026-05-02T10:16:03.981Z</time></trkpt><trkpt lat="40.1743667" lon="15.0877583"><ele>9.333333333333334</ele><time>2026-05-02T10:16:04.982Z</time></trkpt><trkpt lat="40.1743467" lon="15.0876667"><ele>9.666666666666668</ele><time>2026-05-02T10:16:05.981Z</time></trkpt><trkpt lat="40.17433" lon="15.08757"><ele>10.0</ele><time>2026-05-02T10:16:06.982Z</time></trkpt><trkpt lat="40.1743067" lon="15.0874833"><ele>11.4</ele><time>2026-05-02T10:16:07.981Z</time></trkpt><trkpt lat="40.1742883" lon="15.0874017"><ele>12.8</ele><time>2026-05-02T10:16:08.982Z</time></trkpt><trkpt lat="40.174255" lon="15.0872767"><ele>14.2</ele><time>2026-05-02T10:16:10.982Z</time></trkpt><trkpt lat="40.1742233" lon="15.0871683"><ele>15.6</ele><time>2026-05-02T10:16:12.981Z</time></trkpt><trkpt lat="40.1742033" lon="15.08704"><ele>17.0</ele><time>2026-05-02T10:16:14.981Z</time></trkpt><trkpt lat="40.174185" lon="15.0868833"><ele>16.999999999999996</ele><time>2026-05-02T10:16:16.981Z</time></trkpt><trkpt lat="40.1741733" lon="15.08679"><ele>17.0</ele><time>2026-05-02T10:16:17.981Z</time></trkpt><trkpt lat="40.17416" lon="15.086695"><ele>17.0</ele><time>2026-05-02T10:16:18.982Z</time></trkpt><trkpt lat="40.17415" lon="15.0865983"><ele>17.0</ele><time>2026-05-02T10:16:19.982Z</time></trkpt><trkpt lat="40.174135" lon="15.0865083"><ele>17.0</ele><time>2026-05-02T10:16:20.981Z</time></trkpt><trkpt lat="40.17412" lon="15.08641"><ele>16.999999999999996</ele><time>2026-05-02T10:16:21.981Z</time></trkpt><trkpt lat="40.1741067" lon="15.0863117"><ele>17.0</ele><time>2026-05-02T10:16:22.982Z</time></trkpt><trkpt lat="40.1741017" lon="15.0862017"><ele>18.0</ele><time>2026-05-02T10:16:23.982Z</time></trkpt><trkpt lat="40.1740883" lon="15.0860917"><ele>19.0</ele><time>2026-05-02T10:16:24.981Z</time></trkpt><trkpt lat="40.174075" lon="15.085975"><ele>20.0</ele><time>2026-05-02T10:16:25.981Z</time></trkpt><trkpt lat="40.1740617" lon="15.0858533"><ele>21.0</ele><time>2026-05-02T10:16:26.981Z</time></trkpt><trkpt lat="40.1740467" lon="15.08573"><ele>22.0</ele><time>2026-05-02T10:16:27.982Z</time></trkpt><trkpt lat="40.174025" lon="15.0856067"><ele>19.6</ele><time>2026-05-02T10:16:28.981Z</time></trkpt><trkpt lat="40.1740033" lon="15.085485"><ele>17.200000000000003</ele><time>2026-05-02T10:16:29.981Z</time></trkpt><trkpt lat="40.1739733" lon="15.08536"><ele>14.8</ele><time>2026-05-02T10:16:30.982Z</time></trkpt><trkpt lat="40.173925" lon="15.0852283"><ele>12.4</ele><time>2026-05-02T10:16:31.981Z</time></trkpt><trkpt lat="40.1738767" lon="15.085115"><ele>10.0</ele><time>2026-05-02T10:16:32.982Z</time></trkpt><trkpt lat="40.1738183" lon="15.0850083"><ele>10.8</ele><time>2026-05-02T10:16:33.981Z</time></trkpt><trkpt lat="40.1737567" lon="15.0849083"><ele>11.6</ele><time>2026-05-02T10:16:34.981Z</time></trkpt><trkpt lat="40.1736867" lon="15.0848033"><ele>12.399999999999999</ele><time>2026-05-02T10:16:35.981Z</time></trkpt><trkpt lat="40.1736133" lon="15.0847067"><ele>13.2</ele><time>2026-05-02T10:16:36.981Z</time></trkpt><trkpt lat="40.173535" lon="15.0846067"><ele>14.0</ele><time>2026-05-02T10:16:37.981Z</time></trkpt><trkpt lat="40.1734633" lon="15.084515"><ele>14.0</ele><time>2026-05-02T10:16:38.982Z</time></trkpt><trkpt lat="40.1733983" lon="15.08441"><ele>13.999999999999998</ele><time>2026-05-02T10:16:39.981Z</time></trkpt><trkpt lat="40.1733333" lon="15.0843067"><ele>13.999999999999998</ele><time>2026-05-02T10:16:40.981Z</time></trkpt><trkpt lat="40.1732783" lon="15.0842033"><ele>14.0</ele><time>2026-05-02T10:16:41.982Z</time></trkpt><trkpt lat="40.173255" lon="15.0840867"><ele>14.0</ele><time>2026-05-02T10:16:42.981Z</time></trkpt><trkpt lat="40.1732533" lon="15.0839983"><ele>12.833333333333334</ele><time>2026-05-02T10:16:43.981Z</time></trkpt><trkpt lat="40.1732833" lon="15.0839183"><ele>11.666666666666668</ele><time>2026-05-02T10:16:44.981Z</time></trkpt><trkpt lat="40.1733517" lon="15.083865"><ele>10.5</ele><time>2026-05-02T10:16:45.981Z</time></trkpt><trkpt lat="40.1734367" lon="15.083825"><ele>9.333333333333334</ele><time>2026-05-02T10:16:46.981Z</time></trkpt><trkpt lat="40.1735233" lon="15.0837733"><ele>8.166666666666668</ele><time>2026-05-02T10:16:47.981Z</time></trkpt><trkpt lat="40.1736017" lon="15.0837117"><ele>7.0</ele><time>2026-05-02T10:16:48.981Z</time></trkpt><trkpt lat="40.1736717" lon="15.0836383"><ele>7.000000000000001</ele><time>2026-05-02T10:16:49.981Z</time></trkpt><trkpt lat="40.17373" lon="15.083565"><ele>7.0</ele><time>2026-05-02T10:16:50.982Z</time></trkpt><trkpt lat="40.1737733" lon="15.083485"><ele>7.0</ele><time>2026-05-02T10:16:51.981Z</time></trkpt><trkpt lat="40.1738683" lon="15.0833683"><ele>7.0</ele><time>2026-05-02T10:16:53.981Z</time></trkpt><trkpt lat="40.173935" lon="15.0833417"><ele>7.000000000000001</ele><time>2026-05-02T10:16:54.982Z</time></trkpt><trkpt lat="40.17401" lon="15.0833367"><ele>7.0</ele><time>2026-05-02T10:16:55.981Z</time></trkpt><trkpt lat="40.17409" lon="15.0833567"><ele>8.666666666666668</ele><time>2026-05-02T10:16:56.981Z</time></trkpt><trkpt lat="40.1741733" lon="15.08339"><ele>10.333333333333334</ele><time>2026-05-02T10:16:57.981Z</time></trkpt><trkpt lat="40.174265" lon="15.08343"><ele>12.0</ele><time>2026-05-02T10:16:58.982Z</time></trkpt><trkpt lat="40.174345" lon="15.0834667"><ele>13.666666666666668</ele><time>2026-05-02T10:16:59.982Z</time></trkpt><trkpt lat="40.1744217" lon="15.0834883"><ele>15.333333333333334</ele><time>2026-05-02T10:17:00.982Z</time></trkpt><trkpt lat="40.1744933" lon="15.083505"><ele>17.0</ele><time>2026-05-02T10:17:01.981Z</time></trkpt><trkpt lat="40.1745717" lon="15.0834967"><ele>17.0</ele><time>2026-05-02T10:17:02.982Z</time></trkpt><trkpt lat="40.1746433" lon="15.0834783"><ele>17.0</ele><time>2026-05-02T10:17:03.982Z</time></trkpt><trkpt lat="40.1747167" lon="15.083455"><ele>17.0</ele><time>2026-05-02T10:17:04.981Z</time></trkpt><trkpt lat="40.17479" lon="15.083435"><ele>17.0</ele><time>2026-05-02T10:17:05.982Z</time></trkpt><trkpt lat="40.17487" lon="15.08341"><ele>17.0</ele><time>2026-05-02T10:17:06.981Z</time></trkpt><trkpt lat="40.17495" lon="15.08338"><ele>17.0</ele><time>2026-05-02T10:17:07.981Z</time></trkpt><trkpt lat="40.1750183" lon="15.0833283"><ele>15.25</ele><time>2026-05-02T10:17:08.982Z</time></trkpt><trkpt lat="40.1750883" lon="15.0832417"><ele>13.5</ele><time>2026-05-02T10:17:09.982Z</time></trkpt><trkpt lat="40.1751467" lon="15.0831383"><ele>11.75</ele><time>2026-05-02T10:17:10.982Z</time></trkpt><trkpt lat="40.175225" lon="15.083015"><ele>10.0</ele><time>2026-05-02T10:17:11.981Z</time></trkpt><trkpt lat="40.1753183" lon="15.0828717"><ele>10.0</ele><time>2026-05-02T10:17:12.981Z</time></trkpt><trkpt lat="40.17545" lon="15.082745"><ele>10.0</ele><time>2026-05-02T10:17:13.981Z</time></trkpt><trkpt lat="40.1756033" lon="15.0826367"><ele>10.0</ele><time>2026-05-02T10:17:14.981Z</time></trkpt><trkpt lat="40.1757417" lon="15.0825517"><ele>10.25</ele><time>2026-05-02T10:17:15.981Z</time></trkpt><trkpt lat="40.17586" lon="15.082485"><ele>10.5</ele><time>2026-05-02T10:17:16.982Z</time></trkpt><trkpt lat="40.175965" lon="15.0824083"><ele>10.75</ele><time>2026-05-02T10:17:17.982Z</time></trkpt><trkpt lat="40.1760567" lon="15.0823317"><ele>11.0</ele><time>2026-05-02T10:17:18.981Z</time></trkpt><trkpt lat="40.1761483" lon="15.0822583"><ele>11.0</ele><time>2026-05-02T10:17:19.982Z</time></trkpt><trkpt lat="40.17624" lon="15.0821983"><ele>11.0</ele><time>2026-05-02T10:17:20.981Z</time></trkpt><trkpt lat="40.1763267" lon="15.0821433"><ele>11.0</ele><time>2026-05-02T10:17:21.982Z</time></trkpt><trkpt lat="40.1764083" lon="15.0820967"><ele>11.0</ele><time>2026-05-02T10:17:22.981Z</time></trkpt><trkpt lat="40.176485" lon="15.0820567"><ele>11.0</ele><time>2026-05-02T10:17:23.982Z</time></trkpt><trkpt lat="40.17656" lon="15.0820233"><ele>12.5</ele><time>2026-05-02T10:17:24.982Z</time></trkpt><trkpt lat="40.1766333" lon="15.0819867"><ele>14.0</ele><time>2026-05-02T10:17:25.981Z</time></trkpt><trkpt lat="40.17671" lon="15.08195"><ele>15.5</ele><time>2026-05-02T10:17:26.981Z</time></trkpt><trkpt lat="40.1767883" lon="15.0819067"><ele>17.0</ele><time>2026-05-02T10:17:27.981Z</time></trkpt><trkpt lat="40.176875" lon="15.0818667"><ele>18.5</ele><time>2026-05-02T10:17:28.981Z</time></trkpt><trkpt lat="40.176955" lon="15.0818283"><ele>20.0</ele><time>2026-05-02T10:17:29.982Z</time></trkpt><trkpt lat="40.1770333" lon="15.0817717"><ele>20.0</ele><time>2026-05-02T10:17:30.981Z</time></trkpt><trkpt lat="40.177105" lon="15.0816833"><ele>20.0</ele><time>2026-05-02T10:17:31.981Z</time></trkpt><trkpt lat="40.1771533" lon="15.0815833"><ele>20.0</ele><time>2026-05-02T10:17:32.982Z</time></trkpt><trkpt lat="40.1771733" lon="15.08146"><ele>20.0</ele><time>2026-05-02T10:17:33.981Z</time></trkpt><trkpt lat="40.17716" lon="15.0813167"><ele>20.0</ele><time>2026-05-02T10:17:34.981Z</time></trkpt><trkpt lat="40.1771283" lon="15.081175"><ele>18.75</ele><time>2026-05-02T10:17:35.981Z</time></trkpt><trkpt lat="40.1770883" lon="15.0810217"><ele>17.5</ele><time>2026-05-02T10:17:36.981Z</time></trkpt><trkpt lat="40.17704" lon="15.080865"><ele>16.25</ele><time>2026-05-02T10:17:37.981Z</time></trkpt><trkpt lat="40.1769933" lon="15.0807167"><ele>15.0</ele><time>2026-05-02T10:17:38.981Z</time></trkpt><trkpt lat="40.1769517" lon="15.0805667"><ele>15.0</ele><time>2026-05-02T10:17:39.982Z</time></trkpt><trkpt lat="40.176905" lon="15.0804183"><ele>15.0</ele><time>2026-05-02T10:17:40.981Z</time></trkpt><trkpt lat="40.17686" lon="15.0802783"><ele>15.0</ele><time>2026-05-02T10:17:41.981Z</time></trkpt><trkpt lat="40.1768217" lon="15.080145"><ele>15.0</ele><time>2026-05-02T10:17:42.982Z</time></trkpt><trkpt lat="40.1767883" lon="15.0800367"><ele>15.0</ele><time>2026-05-02T10:17:43.982Z</time></trkpt><trkpt lat="40.1767567" lon="15.07994"><ele>17.285714285714285</ele><time>2026-05-02T10:17:44.981Z</time></trkpt><trkpt lat="40.1767267" lon="15.07985"><ele>19.57142857142857</ele><time>2026-05-02T10:17:45.982Z</time></trkpt><trkpt lat="40.1767" lon="15.0797683"><ele>21.857142857142858</ele><time>2026-05-02T10:17:46.981Z</time></trkpt><trkpt lat="40.17667" lon="15.079695"><ele>24.142857142857146</ele><time>2026-05-02T10:17:47.981Z</time></trkpt><trkpt lat="40.1766317" lon="15.0796217"><ele>26.42857142857143</ele><time>2026-05-02T10:17:48.981Z</time></trkpt><trkpt lat="40.176575" lon="15.0795517"><ele>28.714285714285715</ele><time>2026-05-02T10:17:49.981Z</time></trkpt><trkpt lat="40.1765033" lon="15.079505"><ele>31.0</ele><time>2026-05-02T10:17:50.981Z</time></trkpt><trkpt lat="40.17642" lon="15.079485"><ele>32.4</ele><time>2026-05-02T10:17:51.981Z</time></trkpt><trkpt lat="40.1763333" lon="15.079485"><ele>33.8</ele><time>2026-05-02T10:17:52.982Z</time></trkpt><trkpt lat="40.176245" lon="15.0795117"><ele>35.199999999999996</ele><time>2026-05-02T10:17:53.981Z</time></trkpt><trkpt lat="40.1761417" lon="15.0795533"><ele>36.6</ele><time>2026-05-02T10:17:54.981Z</time></trkpt><trkpt lat="40.1760367" lon="15.079575"><ele>38.0</ele><time>2026-05-02T10:17:55.982Z</time></trkpt><trkpt lat="40.1759317" lon="15.0795817"><ele>38.0</ele><time>2026-05-02T10:17:56.981Z</time></trkpt><trkpt lat="40.17582" lon="15.079565"><ele>38.0</ele><time>2026-05-02T10:17:57.982Z</time></trkpt><trkpt lat="40.1757067" lon="15.0795433"><ele>38.0</ele><time>2026-05-02T10:17:58.981Z</time></trkpt><trkpt lat="40.17559" lon="15.0795117"><ele>38.0</ele><time>2026-05-02T10:17:59.981Z</time></trkpt><trkpt lat="40.1754833" lon="15.0794633"><ele>38.4</ele><time>2026-05-02T10:18:00.981Z</time></trkpt><trkpt lat="40.1753817" lon="15.0793983"><ele>38.8</ele><time>2026-05-02T10:18:01.981Z</time></trkpt><trkpt lat="40.175295" lon="15.079325"><ele>39.2</ele><time>2026-05-02T10:18:02.982Z</time></trkpt><trkpt lat="40.17523" lon="15.0792583"><ele>39.6</ele><time>2026-05-02T10:18:03.981Z</time></trkpt><trkpt lat="40.1751583" lon="15.079215"><ele>40.0</ele><time>2026-05-02T10:18:04.982Z</time></trkpt><trkpt lat="40.1750833" lon="15.0792133"><ele>40.0</ele><time>2026-05-02T10:18:05.982Z</time></trkpt><trkpt lat="40.175005" lon="15.0792433"><ele>40.0</ele><time>2026-05-02T10:18:06.981Z</time></trkpt><trkpt lat="40.17494" lon="15.0793267"><ele>40.0</ele><time>2026-05-02T10:18:07.982Z</time></trkpt><trkpt lat="40.1749017" lon="15.079435"><ele>40.0</ele><time>2026-05-02T10:18:08.981Z</time></trkpt><trkpt lat="40.1748967" lon="15.0795783"><ele>40.0</ele><time>2026-05-02T10:18:09.981Z</time></trkpt><trkpt lat="40.174905" lon="15.0797217"><ele>40.0</ele><time>2026-05-02T10:18:10.982Z</time></trkpt><trkpt lat="40.1748967" lon="15.0798517"><ele>40.0</ele><time>2026-05-02T10:18:11.981Z</time></trkpt><trkpt lat="40.1748717" lon="15.079965"><ele>40.0</ele><time>2026-05-02T10:18:12.981Z</time></trkpt><trkpt lat="40.1748283" lon="15.080055"><ele>40.0</ele><time>2026-05-02T10:18:13.981Z</time></trkpt><trkpt lat="40.17475" lon="15.0801167"><ele>40.0</ele><time>2026-05-02T10:18:14.981Z</time></trkpt><trkpt lat="40.1746633" lon="15.0801783"><ele>41.4</ele><time>2026-05-02T10:18:15.982Z</time></trkpt><trkpt lat="40.1745817" lon="15.0802567"><ele>42.8</ele><time>2026-05-02T10:18:16.982Z</time></trkpt><trkpt lat="40.1745117" lon="15.0803633"><ele>44.2</ele><time>2026-05-02T10:18:17.982Z</time></trkpt><trkpt lat="40.174445" lon="15.0804817"><ele>45.6</ele><time>2026-05-02T10:18:18.981Z</time></trkpt><trkpt lat="40.17437" lon="15.0805833"><ele>47.0</ele><time>2026-05-02T10:18:19.981Z</time></trkpt><trkpt lat="40.1742933" lon="15.0806733"><ele>47.0</ele><time>2026-05-02T10:18:20.982Z</time></trkpt><trkpt lat="40.1742133" lon="15.0807567"><ele>47.0</ele><time>2026-05-02T10:18:21.981Z</time></trkpt><trkpt lat="40.1741367" lon="15.0808283"><ele>47.0</ele><time>2026-05-02T10:18:22.981Z</time></trkpt><trkpt lat="40.17406" lon="15.0808733"><ele>47.0</ele><time>2026-05-02T10:18:23.982Z</time></trkpt><trkpt lat="40.1739883" lon="15.0808983"><ele>47.0</ele><time>2026-05-02T10:18:24.982Z</time></trkpt><trkpt lat="40.17391" lon="15.0808833"><ele>47.0</ele><time>2026-05-02T10:18:25.982Z</time></trkpt><trkpt lat="40.1738417" lon="15.08082"><ele>48.8</ele><time>2026-05-02T10:18:26.982Z</time></trkpt><trkpt lat="40.1737917" lon="15.08072"><ele>50.6</ele><time>2026-05-02T10:18:27.982Z</time></trkpt><trkpt lat="40.173735" lon="15.08061"><ele>52.39999999999999</ele><time>2026-05-02T10:18:28.981Z</time></trkpt><trkpt lat="40.173665" lon="15.080505"><ele>54.199999999999996</ele><time>2026-05-02T10:18:29.981Z</time></trkpt><trkpt lat="40.1735883" lon="15.08041"><ele>56.0</ele><time>2026-05-02T10:18:30.981Z</time></trkpt><trkpt lat="40.173505" lon="15.0803133"><ele>56.0</ele><time>2026-05-02T10:18:31.981Z</time></trkpt><trkpt lat="40.173415" lon="15.080235"><ele>55.99999999999999</ele><time>2026-05-02T10:18:32.981Z</time></trkpt><trkpt lat="40.1733367" lon="15.0801633"><ele>55.99999999999999</ele><time>2026-05-02T10:18:33.982Z</time></trkpt><trkpt lat="40.1732633" lon="15.0801067"><ele>56.0</ele><time>2026-05-02T10:18:34.981Z</time></trkpt><trkpt lat="40.1731983" lon="15.08006"><ele>56.0</ele><time>2026-05-02T10:18:35.981Z</time></trkpt><trkpt lat="40.1730917" lon="15.0800217"><ele>59.0</ele><time>2026-05-02T10:18:37.982Z</time></trkpt><trkpt lat="40.1730233" lon="15.08005"><ele>61.99999999999999</ele><time>2026-05-02T10:18:39.981Z</time></trkpt><trkpt lat="40.17297" lon="15.0801667"><ele>65.0</ele><time>2026-05-02T10:20:01.982Z</time></trkpt><trkpt lat="40.1729017" lon="15.0803033"><ele>68.0</ele><time>2026-05-02T10:20:03.982Z</time></trkpt><trkpt lat="40.172865" lon="15.0803917"><ele>71.0</ele><time>2026-05-02T10:20:04.982Z</time></trkpt><trkpt lat="40.1728167" lon="15.080495"><ele>71.0</ele><time>2026-05-02T10:20:05.982Z</time></trkpt><trkpt lat="40.1727533" lon="15.0806"><ele>71.0</ele><time>2026-05-02T10:20:06.982Z</time></trkpt><trkpt lat="40.1726733" lon="15.08068"><ele>71.0</ele><time>2026-05-02T10:20:07.982Z</time></trkpt><trkpt lat="40.1725683" lon="15.0807317"><ele>71.0</ele><time>2026-05-02T10:20:08.982Z</time></trkpt><trkpt lat="40.1724533" lon="15.0807617"><ele>71.0</ele><time>2026-05-02T10:20:09.981Z</time></trkpt><trkpt lat="40.172325" lon="15.0807817"><ele>69.0</ele><time>2026-05-02T10:20:10.981Z</time></trkpt><trkpt lat="40.1721867" lon="15.0807733"><ele>67.0</ele><time>2026-05-02T10:20:11.982Z</time></trkpt><trkpt lat="40.1720517" lon="15.0807683"><ele>65.0</ele><time>2026-05-02T10:20:12.981Z</time></trkpt><trkpt lat="40.171945" lon="15.080745"><ele>63.0</ele><time>2026-05-02T10:20:13.982Z</time></trkpt><trkpt lat="40.1718467" lon="15.0806933"><ele>63.0</ele><time>2026-05-02T10:20:14.981Z</time></trkpt><trkpt lat="40.1717617" lon="15.080595"><ele>63.0</ele><time>2026-05-02T10:20:15.981Z</time></trkpt><trkpt lat="40.1717" lon="15.080465"><ele>63.0</ele><time>2026-05-02T10:20:16.982Z</time></trkpt><trkpt lat="40.17168" lon="15.0803117"><ele>63.0</ele><time>2026-05-02T10:20:17.982Z</time></trkpt><trkpt lat="40.1716933" lon="15.0801267"><ele>63.0</ele><time>2026-05-02T10:20:18.981Z</time></trkpt><trkpt lat="40.1717017" lon="15.0799467"><ele>63.0</ele><time>2026-05-02T10:20:19.981Z</time></trkpt><trkpt lat="40.1716767" lon="15.0797733"><ele>63.0</ele><time>2026-05-02T10:20:20.982Z</time></trkpt><trkpt lat="40.1716367" lon="15.0796"><ele>63.0</ele><time>2026-05-02T10:20:21.981Z</time></trkpt><trkpt lat="40.17158" lon="15.07943"><ele>66.0</ele><time>2026-05-02T10:20:22.981Z</time></trkpt><trkpt lat="40.1714833" lon="15.079265"><ele>69.0</ele><time>2026-05-02T10:20:23.982Z</time></trkpt><trkpt lat="40.1713683" lon="15.0791167"><ele>72.0</ele><time>2026-05-02T10:20:24.981Z</time></trkpt><trkpt lat="40.1712333" lon="15.0789983"><ele>72.0</ele><time>2026-05-02T10:20:25.981Z</time></trkpt><trkpt lat="40.17109" lon="15.0788867"><ele>72.0</ele><time>2026-05-02T10:20:26.981Z</time></trkpt><trkpt lat="40.1709533" lon="15.0787717"><ele>72.0</ele><time>2026-05-02T10:20:27.981Z</time></trkpt><trkpt lat="40.1708283" lon="15.0786283"><ele>72.0</ele><time>2026-05-02T10:20:28.981Z</time></trkpt><trkpt lat="40.1707267" lon="15.0784567"><ele>72.0</ele><time>2026-05-02T10:20:29.981Z</time></trkpt><trkpt lat="40.1706467" lon="15.078265"><ele>72.0</ele><time>2026-05-02T10:20:30.981Z</time></trkpt><trkpt lat="40.1705767" lon="15.07807"><ele>67.0</ele><time>2026-05-02T10:20:31.981Z</time></trkpt><trkpt lat="40.1705017" lon="15.0778817"><ele>62.0</ele><time>2026-05-02T10:20:32.982Z</time></trkpt><trkpt lat="40.17041" lon="15.0776967"><ele>57.0</ele><time>2026-05-02T10:20:33.981Z</time></trkpt><trkpt lat="40.1703033" lon="15.0775167"><ele>63.0</ele><time>2026-05-02T10:20:34.982Z</time></trkpt><trkpt lat="40.1701833" lon="15.077345"><ele>69.0</ele><time>2026-05-02T10:20:35.981Z</time></trkpt><trkpt lat="40.1700783" lon="15.07718"><ele>75.0</ele><time>2026-05-02T10:20:36.981Z</time></trkpt><trkpt lat="40.16999" lon="15.0769983"><ele>75.0</ele><time>2026-05-02T10:20:37.981Z</time></trkpt><trkpt lat="40.1699233" lon="15.0767883"><ele>75.0</ele><time>2026-05-02T10:20:38.981Z</time></trkpt><trkpt lat="40.1698733" lon="15.0765483"><ele>75.0</ele><time>2026-05-02T10:20:39.981Z</time></trkpt><trkpt lat="40.16981" lon="15.07631"><ele>71.33333333333333</ele><time>2026-05-02T10:20:40.981Z</time></trkpt><trkpt lat="40.169725" lon="15.0760683"><ele>67.66666666666666</ele><time>2026-05-02T10:20:41.981Z</time></trkpt><trkpt lat="40.1696267" lon="15.0758267"><ele>64.0</ele><time>2026-05-02T10:20:42.981Z</time></trkpt><trkpt lat="40.1695317" lon="15.07559"><ele>64.0</ele><time>2026-05-02T10:20:43.981Z</time></trkpt><trkpt lat="40.1694583" lon="15.075365"><ele>64.0</ele><time>2026-05-02T10:20:44.981Z</time></trkpt><trkpt lat="40.169385" lon="15.0751533"><ele>64.0</ele><time>2026-05-02T10:20:45.981Z</time></trkpt><trkpt lat="40.1693233" lon="15.0749333"><ele>66.0</ele><time>2026-05-02T10:20:46.981Z</time></trkpt><trkpt lat="40.1692567" lon="15.0747333"><ele>68.0</ele><time>2026-05-02T10:20:47.981Z</time></trkpt><trkpt lat="40.1691883" lon="15.074565"><ele>70.0</ele><time>2026-05-02T10:20:48.981Z</time></trkpt><trkpt lat="40.1691283" lon="15.0744167"><ele>72.0</ele><time>2026-05-02T10:20:49.981Z</time></trkpt><trkpt lat="40.1690967" lon="15.0742633"><ele>72.0</ele><time>2026-05-02T10:20:50.982Z</time></trkpt><trkpt lat="40.1691117" lon="15.0741117"><ele>72.0</ele><time>2026-05-02T10:20:51.981Z</time></trkpt><trkpt lat="40.1691467" lon="15.0739417"><ele>72.0</ele><time>2026-05-02T10:20:52.982Z</time></trkpt><trkpt lat="40.169165" lon="15.0737483"><ele>72.0</ele><time>2026-05-02T10:20:53.981Z</time></trkpt><trkpt lat="40.1691433" lon="15.0735617"><ele>73.66666666666667</ele><time>2026-05-02T10:20:54.981Z</time></trkpt><trkpt lat="40.1690717" lon="15.0733867"><ele>75.33333333333334</ele><time>2026-05-02T10:20:55.981Z</time></trkpt><trkpt lat="40.168985" lon="15.073225"><ele>77.0</ele><time>2026-05-02T10:20:56.981Z</time></trkpt><trkpt lat="40.16889" lon="15.0730633"><ele>73.0</ele><time>2026-05-02T10:20:57.981Z</time></trkpt><trkpt lat="40.168795" lon="15.0729033"><ele>69.0</ele><time>2026-05-02T10:20:58.981Z</time></trkpt><trkpt lat="40.1687317" lon="15.0727517"><ele>65.0</ele><time>2026-05-02T10:20:59.981Z</time></trkpt><trkpt lat="40.1686983" lon="15.0726167"><ele>61.0</ele><time>2026-05-02T10:21:00.981Z</time></trkpt><trkpt lat="40.168705" lon="15.0724783"><ele>59.75</ele><time>2026-05-02T10:21:01.981Z</time></trkpt><trkpt lat="40.16876" lon="15.0723317"><ele>58.5</ele><time>2026-05-02T10:21:02.981Z</time></trkpt><trkpt lat="40.1688483" lon="15.07221"><ele>57.25</ele><time>2026-05-02T10:21:03.982Z</time></trkpt><trkpt lat="40.168955" lon="15.0720783"><ele>56.0</ele><time>2026-05-02T10:21:04.981Z</time></trkpt><trkpt lat="40.16906" lon="15.0719317"><ele>61.0</ele><time>2026-05-02T10:21:05.981Z</time></trkpt><trkpt lat="40.1691533" lon="15.0717883"><ele>66.0</ele><time>2026-05-02T10:21:06.982Z</time></trkpt><trkpt lat="40.169245" lon="15.0716483"><ele>71.0</ele><time>2026-05-02T10:21:07.981Z</time></trkpt><trkpt lat="40.1693217" lon="15.0715133"><ele>76.0</ele><time>2026-05-02T10:21:08.982Z</time></trkpt><trkpt lat="40.1693783" lon="15.0713733"><ele>77.0</ele><time>2026-05-02T10:21:09.982Z</time></trkpt><trkpt lat="40.1693967" lon="15.0712183"><ele>78.0</ele><time>2026-05-02T10:21:10.981Z</time></trkpt><trkpt lat="40.1693867" lon="15.0710517"><ele>79.0</ele><time>2026-05-02T10:21:11.981Z</time></trkpt><trkpt lat="40.16934" lon="15.07089"><ele>80.0</ele><time>2026-05-02T10:21:12.981Z</time></trkpt><trkpt lat="40.16926" lon="15.07075"><ele>82.25</ele><time>2026-05-02T10:21:13.981Z</time></trkpt><trkpt lat="40.1691517" lon="15.07064"><ele>84.5</ele><time>2026-05-02T10:21:14.981Z</time></trkpt><trkpt lat="40.169035" lon="15.07055"><ele>86.75</ele><time>2026-05-02T10:21:15.981Z</time></trkpt><trkpt lat="40.1689333" lon="15.0704533"><ele>89.0</ele><time>2026-05-02T10:21:16.981Z</time></trkpt><trkpt lat="40.1688483" lon="15.070335"><ele>83.0</ele><time>2026-05-02T10:21:17.981Z</time></trkpt><trkpt lat="40.1688" lon="15.07021"><ele>77.0</ele><time>2026-05-02T10:21:18.981Z</time></trkpt><trkpt lat="40.1687983" lon="15.070065"><ele>71.0</ele><time>2026-05-02T10:21:19.982Z</time></trkpt><trkpt lat="40.168835" lon="15.0699217"><ele>65.0</ele><time>2026-05-02T10:21:20.981Z</time></trkpt><trkpt lat="40.16889" lon="15.0697733"><ele>65.0</ele><time>2026-05-02T10:21:21.981Z</time></trkpt><trkpt lat="40.1689467" lon="15.06961"><ele>65.0</ele><time>2026-05-02T10:21:22.981Z</time></trkpt><trkpt lat="40.1690133" lon="15.0694383"><ele>65.0</ele><time>2026-05-02T10:21:23.982Z</time></trkpt><trkpt lat="40.169075" lon="15.0692667"><ele>65.0</ele><time>2026-05-02T10:21:24.982Z</time></trkpt><trkpt lat="40.1691217" lon="15.0690867"><ele>67.75</ele><time>2026-05-02T10:21:25.981Z</time></trkpt><trkpt lat="40.169135" lon="15.0688917"><ele>70.5</ele><time>2026-05-02T10:21:26.982Z</time></trkpt><trkpt lat="40.16912" lon="15.0687017"><ele>73.25</ele><time>2026-05-02T10:21:27.981Z</time></trkpt><trkpt lat="40.169075" lon="15.0685317"><ele>76.0</ele><time>2026-05-02T10:21:28.981Z</time></trkpt><trkpt lat="40.1690067" lon="15.0683817"><ele>80.75</ele><time>2026-05-02T10:21:29.982Z</time></trkpt><trkpt lat="40.1689033" lon="15.068255"><ele>85.5</ele><time>2026-05-02T10:21:30.982Z</time></trkpt><trkpt lat="40.1687833" lon="15.0681533"><ele>90.25</ele><time>2026-05-02T10:21:31.981Z</time></trkpt><trkpt lat="40.16866" lon="15.068055"><ele>95.0</ele><time>2026-05-02T10:21:32.981Z</time></trkpt><trkpt lat="40.168525" lon="15.0679767"><ele>95.0</ele><time>2026-05-02T10:21:33.981Z</time></trkpt><trkpt lat="40.1683917" lon="15.0678917"><ele>95.0</ele><time>2026-05-02T10:21:34.981Z</time></trkpt><trkpt lat="40.1682517" lon="15.0677967"><ele>95.0</ele><time>2026-05-02T10:21:35.981Z</time></trkpt><trkpt lat="40.1681217" lon="15.0676983"><ele>95.25</ele><time>2026-05-02T10:21:36.981Z</time></trkpt><trkpt lat="40.1679933" lon="15.0676083"><ele>95.5</ele><time>2026-05-02T10:21:37.981Z</time></trkpt><trkpt lat="40.1678733" lon="15.06751"><ele>95.75</ele><time>2026-05-02T10:21:38.982Z</time></trkpt><trkpt lat="40.167755" lon="15.06741"><ele>96.0</ele><time>2026-05-02T10:21:39.981Z</time></trkpt><trkpt lat="40.1676383" lon="15.0673"><ele>96.0</ele><time>2026-05-02T10:21:40.981Z</time></trkpt><trkpt lat="40.1675217" lon="15.06719"><ele>96.0</ele><time>2026-05-02T10:21:41.982Z</time></trkpt><trkpt lat="40.1674083" lon="15.0670767"><ele>96.0</ele><time>2026-05-02T10:21:42.981Z</time></trkpt><trkpt lat="40.16731" lon="15.0669533"><ele>96.0</ele><time>2026-05-02T10:21:43.982Z</time></trkpt><trkpt lat="40.1672433" lon="15.0668267"><ele>90.8</ele><time>2026-05-02T10:21:44.981Z</time></trkpt><trkpt lat="40.16721" lon="15.0667"><ele>85.6</ele><time>2026-05-02T10:21:45.981Z</time></trkpt><trkpt lat="40.1672067" lon="15.0665717"><ele>80.4</ele><time>2026-05-02T10:21:46.981Z</time></trkpt><trkpt lat="40.16723" lon="15.06643"><ele>75.2</ele><time>2026-05-02T10:21:47.981Z</time></trkpt><trkpt lat="40.1672817" lon="15.066295"><ele>70.0</ele><time>2026-05-02T10:21:48.982Z</time></trkpt><trkpt lat="40.1673517" lon="15.0661533"><ele>71.2</ele><time>2026-05-02T10:21:49.982Z</time></trkpt><trkpt lat="40.1674333" lon="15.06602"><ele>72.4</ele><time>2026-05-02T10:21:50.981Z</time></trkpt><trkpt lat="40.1675167" lon="15.0659033"><ele>73.6</ele><time>2026-05-02T10:21:51.981Z</time></trkpt><trkpt lat="40.1675883" lon="15.06581"><ele>74.8</ele><time>2026-05-02T10:21:52.982Z</time></trkpt><trkpt lat="40.1676533" lon="15.0657417"><ele>76.0</ele><time>2026-05-02T10:21:53.981Z</time></trkpt><trkpt lat="40.1677017" lon="15.06568"><ele>76.0</ele><time>2026-05-02T10:21:54.982Z</time></trkpt><trkpt lat="40.1677783" lon="15.0655683"><ele>76.0</ele><time>2026-05-02T10:21:56.981Z</time></trkpt><trkpt lat="40.1678467" lon="15.06547"><ele>76.0</ele><time>2026-05-02T10:21:58.981Z</time></trkpt><trkpt lat="40.1679017" lon="15.065405"><ele>76.0</ele><time>2026-05-02T10:22:00.982Z</time></trkpt><trkpt lat="40.16797" lon="15.0653283"><ele>76.0</ele><time>2026-05-02T10:22:02.981Z</time></trkpt><trkpt lat="40.1680883" lon="15.0652567"><ele>76.0</ele><time>2026-05-02T10:22:04.982Z</time></trkpt><trkpt lat="40.168175" lon="15.065235"><ele>76.0</ele><time>2026-05-02T10:22:05.981Z</time></trkpt><trkpt lat="40.1682767" lon="15.0652367"><ele>76.0</ele><time>2026-05-02T10:22:06.981Z</time></trkpt><trkpt lat="40.1683867" lon="15.0652617"><ele>76.0</ele><time>2026-05-02T10:22:07.981Z</time></trkpt><trkpt lat="40.1685017" lon="15.0652967"><ele>76.0</ele><time>2026-05-02T10:22:08.982Z</time></trkpt><trkpt lat="40.1686283" lon="15.0653483"><ele>78.0</ele><time>2026-05-02T10:22:09.982Z</time></trkpt><trkpt lat="40.16875" lon="15.065395"><ele>80.0</ele><time>2026-05-02T10:22:10.982Z</time></trkpt><trkpt lat="40.16887" lon="15.0654333"><ele>82.0</ele><time>2026-05-02T10:22:11.981Z</time></trkpt><trkpt lat="40.1689917" lon="15.06547"><ele>84.0</ele><time>2026-05-02T10:22:12.982Z</time></trkpt><trkpt lat="40.169115" lon="15.065505"><ele>84.2</ele><time>2026-05-02T10:22:13.982Z</time></trkpt><trkpt lat="40.1692267" lon="15.06553"><ele>84.4</ele><time>2026-05-02T10:22:14.981Z</time></trkpt><trkpt lat="40.1693417" lon="15.0655583"><ele>84.6</ele><time>2026-05-02T10:22:15.982Z</time></trkpt><trkpt lat="40.1694417" lon="15.0655767"><ele>84.8</ele><time>2026-05-02T10:22:16.981Z</time></trkpt><trkpt lat="40.1695333" lon="15.0655567"><ele>85.0</ele><time>2026-05-02T10:22:17.981Z</time></trkpt><trkpt lat="40.16962" lon="15.0654933"><ele>85.0</ele><time>2026-05-02T10:22:18.982Z</time></trkpt><trkpt lat="40.1696883" lon="15.0654"><ele>85.0</ele><time>2026-05-02T10:22:19.981Z</time></trkpt><trkpt lat="40.1697333" lon="15.06528"><ele>85.0</ele><time>2026-05-02T10:22:20.981Z</time></trkpt><trkpt lat="40.1697683" lon="15.0651433"><ele>85.0</ele><time>2026-05-02T10:22:21.981Z</time></trkpt><trkpt lat="40.1697983" lon="15.06501"><ele>85.0</ele><time>2026-05-02T10:22:22.982Z</time></trkpt><trkpt lat="40.1698117" lon="15.064885"><ele>83.83333333333333</ele><time>2026-05-02T10:22:23.981Z</time></trkpt><trkpt lat="40.1698033" lon="15.0647767"><ele>82.66666666666666</ele><time>2026-05-02T10:22:24.981Z</time></trkpt><trkpt lat="40.16978" lon="15.0646733"><ele>81.5</ele><time>2026-05-02T10:22:25.981Z</time></trkpt><trkpt lat="40.169735" lon="15.0645783"><ele>80.33333333333333</ele><time>2026-05-02T10:22:26.982Z</time></trkpt><trkpt lat="40.1696833" lon="15.064475"><ele>79.16666666666667</ele><time>2026-05-02T10:22:27.981Z</time></trkpt><trkpt lat="40.1696467" lon="15.0643783"><ele>78.0</ele><time>2026-05-02T10:22:28.982Z</time></trkpt><trkpt lat="40.1696367" lon="15.0642767"><ele>78.0</ele><time>2026-05-02T10:22:29.981Z</time></trkpt><trkpt lat="40.1696467" lon="15.064185"><ele>78.0</ele><time>2026-05-02T10:22:30.981Z</time></trkpt><trkpt lat="40.169675" lon="15.0640983"><ele>78.0</ele><time>2026-05-02T10:22:31.981Z</time></trkpt><trkpt lat="40.16973" lon="15.064025"><ele>78.0</ele><time>2026-05-02T10:22:32.981Z</time></trkpt><trkpt lat="40.1698117" lon="15.06397"><ele>78.0</ele><time>2026-05-02T10:22:33.982Z</time></trkpt><trkpt lat="40.169905" lon="15.0639033"><ele>78.0</ele><time>2026-05-02T10:22:34.982Z</time></trkpt><trkpt lat="40.1700183" lon="15.0638267"><ele>79.0</ele><time>2026-05-02T10:22:35.981Z</time></trkpt><trkpt lat="40.1701467" lon="15.0637467"><ele>80.0</ele><time>2026-05-02T10:22:36.982Z</time></trkpt><trkpt lat="40.1702667" lon="15.0636683"><ele>81.0</ele><time>2026-05-02T10:22:37.981Z</time></trkpt><trkpt lat="40.1703767" lon="15.0635817"><ele>82.0</ele><time>2026-05-02T10:22:38.981Z</time></trkpt><trkpt lat="40.17049" lon="15.0634917"><ele>82.0</ele><time>2026-05-02T10:22:39.981Z</time></trkpt><trkpt lat="40.1705983" lon="15.06341"><ele>82.0</ele><time>2026-05-02T10:22:40.981Z</time></trkpt><trkpt lat="40.1707017" lon="15.0633383"><ele>82.0</ele><time>2026-05-02T10:22:41.982Z</time></trkpt><trkpt lat="40.1707983" lon="15.0632717"><ele>82.0</ele><time>2026-05-02T10:22:42.981Z</time></trkpt><trkpt lat="40.1708833" lon="15.0632067"><ele>82.66666666666666</ele><time>2026-05-02T10:22:43.981Z</time></trkpt><trkpt lat="40.1709517" lon="15.063145"><ele>83.33333333333333</ele><time>2026-05-02T10:22:44.982Z</time></trkpt><trkpt lat="40.1710067" lon="15.0630683"><ele>84.0</ele><time>2026-05-02T10:22:45.981Z</time></trkpt><trkpt lat="40.1710483" lon="15.062975"><ele>84.66666666666667</ele><time>2026-05-02T10:22:46.981Z</time></trkpt><trkpt lat="40.17107" lon="15.0628683"><ele>85.33333333333334</ele><time>2026-05-02T10:22:47.981Z</time></trkpt><trkpt lat="40.1710683" lon="15.06273"><ele>86.0</ele><time>2026-05-02T10:22:48.982Z</time></trkpt><trkpt lat="40.1710417" lon="15.06257"><ele>85.5</ele><time>2026-05-02T10:22:49.981Z</time></trkpt><trkpt lat="40.1710117" lon="15.0623833"><ele>85.0</ele><time>2026-05-02T10:22:50.982Z</time></trkpt><trkpt lat="40.17099" lon="15.0621867"><ele>84.5</ele><time>2026-05-02T10:22:51.981Z</time></trkpt><trkpt lat="40.170985" lon="15.0619933"><ele>84.0</ele><time>2026-05-02T10:22:52.981Z</time></trkpt><trkpt lat="40.1709917" lon="15.0618033"><ele>84.0</ele><time>2026-05-02T10:22:53.982Z</time></trkpt><trkpt lat="40.170995" lon="15.06164"><ele>84.0</ele><time>2026-05-02T10:22:54.981Z</time></trkpt><trkpt lat="40.17098" lon="15.061495"><ele>84.0</ele><time>2026-05-02T10:22:55.981Z</time></trkpt><trkpt lat="40.17093" lon="15.0613683"><ele>84.0</ele><time>2026-05-02T10:22:56.981Z</time></trkpt><trkpt lat="40.1708567" lon="15.06125"><ele>86.25</ele><time>2026-05-02T10:22:57.982Z</time></trkpt><trkpt lat="40.17076" lon="15.0611317"><ele>88.5</ele><time>2026-05-02T10:22:58.981Z</time></trkpt><trkpt lat="40.1706467" lon="15.0610217"><ele>90.75</ele><time>2026-05-02T10:22:59.982Z</time></trkpt><trkpt lat="40.1705283" lon="15.0609133"><ele>93.0</ele><time>2026-05-02T10:23:00.981Z</time></trkpt><trkpt lat="40.1703967" lon="15.060815"><ele>88.75</ele><time>2026-05-02T10:23:01.981Z</time></trkpt><trkpt lat="40.1702733" lon="15.0607133"><ele>84.5</ele><time>2026-05-02T10:23:02.981Z</time></trkpt><trkpt lat="40.1701517" lon="15.0606167"><ele>80.25</ele><time>2026-05-02T10:23:03.981Z</time></trkpt><trkpt lat="40.1700483" lon="15.0605067"><ele>76.0</ele><time>2026-05-02T10:23:04.981Z</time></trkpt><trkpt lat="40.1699433" lon="15.0604017"><ele>71.0</ele><time>2026-05-02T10:23:05.982Z</time></trkpt><trkpt lat="40.1698417" lon="15.0602733"><ele>66.0</ele><time>2026-05-02T10:23:06.98Z</time></trkpt><trkpt lat="40.1697467" lon="15.060125"><ele>61.0</ele><time>2026-05-02T10:23:07.981Z</time></trkpt><trkpt lat="40.16967" lon="15.0599617"><ele>56.0</ele><time>2026-05-02T10:23:08.98Z</time></trkpt><trkpt lat="40.1696" lon="15.0598"><ele>54.833333333333336</ele><time>2026-05-02T10:23:09.98Z</time></trkpt><trkpt lat="40.1695633" lon="15.0596633"><ele>53.66666666666667</ele><time>2026-05-02T10:23:10.98Z</time></trkpt><trkpt lat="40.1695517" lon="15.0595417"><ele>52.5</ele><time>2026-05-02T10:23:11.981Z</time></trkpt><trkpt lat="40.1695667" lon="15.05945"><ele>51.33333333333333</ele><time>2026-05-02T10:23:12.98Z</time></trkpt><trkpt lat="40.1696" lon="15.0593683"><ele>50.166666666666664</ele><time>2026-05-02T10:23:13.981Z</time></trkpt><trkpt lat="40.1696633" lon="15.0593267"><ele>49.0</ele><time>2026-05-02T10:23:14.98Z</time></trkpt><trkpt lat="40.1697633" lon="15.059305"><ele>54.25</ele><time>2026-05-02T10:23:15.981Z</time></trkpt><trkpt lat="40.1698917" lon="15.0592917"><ele>59.5</ele><time>2026-05-02T10:23:16.98Z</time></trkpt><trkpt lat="40.1700217" lon="15.0592767"><ele>64.75</ele><time>2026-05-02T10:23:17.981Z</time></trkpt><trkpt lat="40.1701233" lon="15.0592383"><ele>70.0</ele><time>2026-05-02T10:23:18.981Z</time></trkpt><trkpt lat="40.1702033" lon="15.0591583"><ele>66.0</ele><time>2026-05-02T10:23:19.981Z</time></trkpt><trkpt lat="40.17025" lon="15.059035"><ele>62.0</ele><time>2026-05-02T10:23:20.981Z</time></trkpt><trkpt lat="40.17027" lon="15.0588767"><ele>58.0</ele><time>2026-05-02T10:23:21.98Z</time></trkpt><trkpt lat="40.1702767" lon="15.0587"><ele>54.0</ele><time>2026-05-02T10:23:22.98Z</time></trkpt><trkpt lat="40.1702867" lon="15.0585517"><ele>54.0</ele><time>2026-05-02T10:23:23.98Z</time></trkpt><trkpt lat="40.1703067" lon="15.0584383"><ele>54.0</ele><time>2026-05-02T10:23:24.98Z</time></trkpt><trkpt lat="40.1703433" lon="15.0583483"><ele>54.0</ele><time>2026-05-02T10:23:25.981Z</time></trkpt><trkpt lat="40.1704117" lon="15.0582917"><ele>54.0</ele><time>2026-05-02T10:23:26.981Z</time></trkpt><trkpt lat="40.1705033" lon="15.0582683"><ele>54.0</ele><time>2026-05-02T10:23:27.98Z</time></trkpt><trkpt lat="40.17061" lon="15.058265"><ele>54.0</ele><time>2026-05-02T10:23:28.981Z</time></trkpt><trkpt lat="40.1706933" lon="15.0582367"><ele>57.2</ele><time>2026-05-02T10:23:29.98Z</time></trkpt><trkpt lat="40.1707567" lon="15.0581883"><ele>60.400000000000006</ele><time>2026-05-02T10:23:30.98Z</time></trkpt><trkpt lat="40.1708017" lon="15.0581"><ele>63.6</ele><time>2026-05-02T10:23:31.98Z</time></trkpt><trkpt lat="40.1708233" lon="15.0579817"><ele>66.8</ele><time>2026-05-02T10:23:32.981Z</time></trkpt><trkpt lat="40.1708167" lon="15.057855"><ele>70.0</ele><time>2026-05-02T10:23:33.98Z</time></trkpt><trkpt lat="40.1707833" lon="15.0577217"><ele>70.0</ele><time>2026-05-02T10:23:34.98Z</time></trkpt><trkpt lat="40.1707617" lon="15.057595"><ele>70.0</ele><time>2026-05-02T10:23:35.98Z</time></trkpt><trkpt lat="40.1707667" lon="15.057465"><ele>70.0</ele><time>2026-05-02T10:23:36.98Z</time></trkpt><trkpt lat="40.170795" lon="15.0573267"><ele>70.0</ele><time>2026-05-02T10:23:37.98Z</time></trkpt><trkpt lat="40.1708467" lon="15.0571717"><ele>70.0</ele><time>2026-05-02T10:23:38.98Z</time></trkpt><trkpt lat="40.1709017" lon="15.0570067"><ele>66.0</ele><time>2026-05-02T10:23:39.981Z</time></trkpt><trkpt lat="40.1709583" lon="15.05685"><ele>62.0</ele><time>2026-05-02T10:23:40.98Z</time></trkpt><trkpt lat="40.1710333" lon="15.0567033"><ele>58.0</ele><time>2026-05-02T10:23:41.981Z</time></trkpt><trkpt lat="40.17112" lon="15.056565"><ele>54.0</ele><time>2026-05-02T10:23:42.981Z</time></trkpt><trkpt lat="40.1712117" lon="15.0564417"><ele>56.25</ele><time>2026-05-02T10:23:43.98Z</time></trkpt><trkpt lat="40.171305" lon="15.0563267"><ele>58.5</ele><time>2026-05-02T10:23:44.98Z</time></trkpt><trkpt lat="40.17139" lon="15.0562117"><ele>60.75</ele><time>2026-05-02T10:23:45.98Z</time></trkpt><trkpt lat="40.1714683" lon="15.0561017"><ele>63.0</ele><time>2026-05-02T10:23:46.981Z</time></trkpt><trkpt lat="40.171545" lon="15.055995"><ele>63.0</ele><time>2026-05-02T10:23:47.98Z</time></trkpt><trkpt lat="40.1716183" lon="15.055885"><ele>63.0</ele><time>2026-05-02T10:23:48.981Z</time></trkpt><trkpt lat="40.171685" lon="15.05578"><ele>63.0</ele><time>2026-05-02T10:23:49.981Z</time></trkpt><trkpt lat="40.1717383" lon="15.0556517"><ele>63.0</ele><time>2026-05-02T10:23:50.981Z</time></trkpt><trkpt lat="40.1717833" lon="15.05552"><ele>63.0</ele><time>2026-05-02T10:23:51.98Z</time></trkpt><trkpt lat="40.1718217" lon="15.055385"><ele>61.0</ele><time>2026-05-02T10:23:52.98Z</time></trkpt><trkpt lat="40.171845" lon="15.05525"><ele>59.0</ele><time>2026-05-02T10:23:53.98Z</time></trkpt><trkpt lat="40.1718433" lon="15.0550983"><ele>57.0</ele><time>2026-05-02T10:23:54.981Z</time></trkpt><trkpt lat="40.1718133" lon="15.0549367"><ele>55.0</ele><time>2026-05-02T10:23:55.98Z</time></trkpt><trkpt lat="40.17178" lon="15.0547717"><ele>54.0</ele><time>2026-05-02T10:23:56.98Z</time></trkpt><trkpt lat="40.1717567" lon="15.0546"><ele>53.0</ele><time>2026-05-02T10:23:57.98Z</time></trkpt><trkpt lat="40.171735" lon="15.054425"><ele>52.0</ele><time>2026-05-02T10:23:58.98Z</time></trkpt><trkpt lat="40.171715" lon="15.0542483"><ele>51.0</ele><time>2026-05-02T10:23:59.981Z</time></trkpt><trkpt lat="40.1716967" lon="15.054085"><ele>50.5</ele><time>2026-05-02T10:24:00.981Z</time></trkpt><trkpt lat="40.171695" lon="15.0539083"><ele>50.0</ele><time>2026-05-02T10:24:01.98Z</time></trkpt><trkpt lat="40.1716983" lon="15.05373"><ele>49.5</ele><time>2026-05-02T10:24:02.98Z</time></trkpt><trkpt lat="40.17169" lon="15.053545"><ele>49.0</ele><time>2026-05-02T10:24:03.98Z</time></trkpt><trkpt lat="40.1716717" lon="15.05337"><ele>49.0</ele><time>2026-05-02T10:24:04.98Z</time></trkpt><trkpt lat="40.17166" lon="15.053195"><ele>49.0</ele><time>2026-05-02T10:24:05.98Z</time></trkpt><trkpt lat="40.17166" lon="15.0530183"><ele>49.0</ele><time>2026-05-02T10:24:06.981Z</time></trkpt><trkpt lat="40.1716667" lon="15.052845"><ele>49.0</ele><time>2026-05-02T10:24:07.98Z</time></trkpt><trkpt lat="40.1716717" lon="15.05267"><ele>49.0</ele><time>2026-05-02T10:24:08.98Z</time></trkpt><trkpt lat="40.1716817" lon="15.0525033"><ele>49.0</ele><time>2026-05-02T10:24:09.98Z</time></trkpt><trkpt lat="40.1716883" lon="15.0523517"><ele>49.0</ele><time>2026-05-02T10:24:10.981Z</time></trkpt><trkpt lat="40.171715" lon="15.0522"><ele>49.0</ele><time>2026-05-02T10:24:11.98Z</time></trkpt><trkpt lat="40.1717517" lon="15.0520583"><ele>47.5</ele><time>2026-05-02T10:24:12.98Z</time></trkpt><trkpt lat="40.1718083" lon="15.0519183"><ele>46.0</ele><time>2026-05-02T10:24:13.98Z</time></trkpt><trkpt lat="40.1718583" lon="15.051775"><ele>44.5</ele><time>2026-05-02T10:24:14.981Z</time></trkpt><trkpt lat="40.1718883" lon="15.0516317"><ele>43.0</ele><time>2026-05-02T10:24:15.98Z</time></trkpt><trkpt lat="40.171885" lon="15.0514817"><ele>43.0</ele><time>2026-05-02T10:24:16.98Z</time></trkpt><trkpt lat="40.1718617" lon="15.0513283"><ele>43.0</ele><time>2026-05-02T10:24:17.981Z</time></trkpt><trkpt lat="40.1718233" lon="15.051155"><ele>43.0</ele><time>2026-05-02T10:24:18.98Z</time></trkpt><trkpt lat="40.171785" lon="15.0509867"><ele>43.0</ele><time>2026-05-02T10:24:19.98Z</time></trkpt><trkpt lat="40.1717533" lon="15.050815"><ele>45.25</ele><time>2026-05-02T10:24:20.981Z</time></trkpt><trkpt lat="40.1717283" lon="15.05064"><ele>47.5</ele><time>2026-05-02T10:24:21.98Z</time></trkpt><trkpt lat="40.171685" lon="15.05046"><ele>49.75</ele><time>2026-05-02T10:24:22.98Z</time></trkpt><trkpt lat="40.17164" lon="15.050295"><ele>52.0</ele><time>2026-05-02T10:24:23.98Z</time></trkpt><trkpt lat="40.1715917" lon="15.0501367"><ele>52.0</ele><time>2026-05-02T10:24:24.981Z</time></trkpt><trkpt lat="40.1715433" lon="15.049985"><ele>52.0</ele><time>2026-05-02T10:24:25.981Z</time></trkpt><trkpt lat="40.17149" lon="15.0498317"><ele>52.0</ele><time>2026-05-02T10:24:26.981Z</time></trkpt><trkpt lat="40.17144" lon="15.04968"><ele>52.0</ele><time>2026-05-02T10:24:27.98Z</time></trkpt><trkpt lat="40.1713933" lon="15.049525"><ele>45.25</ele><time>2026-05-02T10:24:28.981Z</time></trkpt><trkpt lat="40.1713433" lon="15.049365"><ele>38.5</ele><time>2026-05-02T10:24:29.98Z</time></trkpt><trkpt lat="40.1712933" lon="15.0492"><ele>31.75</ele><time>2026-05-02T10:24:30.98Z</time></trkpt><trkpt lat="40.1712567" lon="15.0490333"><ele>25.0</ele><time>2026-05-02T10:24:31.98Z</time></trkpt><trkpt lat="40.171225" lon="15.04888"><ele>25.0</ele><time>2026-05-02T10:24:32.98Z</time></trkpt><trkpt lat="40.1712117" lon="15.0487317"><ele>25.0</ele><time>2026-05-02T10:24:33.98Z</time></trkpt><trkpt lat="40.171205" lon="15.0485817"><ele>25.0</ele><time>2026-05-02T10:24:34.98Z</time></trkpt><trkpt lat="40.1712" lon="15.04844"><ele>25.0</ele><time>2026-05-02T10:24:35.981Z</time></trkpt><trkpt lat="40.171195" lon="15.0483117"><ele>25.0</ele><time>2026-05-02T10:24:36.98Z</time></trkpt><trkpt lat="40.171175" lon="15.048195"><ele>27.833333333333336</ele><time>2026-05-02T10:24:37.98Z</time></trkpt><trkpt lat="40.171145" lon="15.04809"><ele>30.666666666666668</ele><time>2026-05-02T10:24:38.981Z</time></trkpt><trkpt lat="40.1710917" lon="15.0479967"><ele>33.5</ele><time>2026-05-02T10:24:39.981Z</time></trkpt><trkpt lat="40.171035" lon="15.047915"><ele>36.333333333333336</ele><time>2026-05-02T10:24:40.981Z</time></trkpt><trkpt lat="40.1709717" lon="15.0478367"><ele>39.166666666666664</ele><time>2026-05-02T10:24:41.981Z</time></trkpt><trkpt lat="40.17091" lon="15.0477467"><ele>42.0</ele><time>2026-05-02T10:24:42.981Z</time></trkpt><trkpt lat="40.170855" lon="15.04765"><ele>42.0</ele><time>2026-05-02T10:24:43.981Z</time></trkpt><trkpt lat="40.1707967" lon="15.0475483"><ele>42.0</ele><time>2026-05-02T10:24:44.98Z</time></trkpt><trkpt lat="40.1707383" lon="15.04745"><ele>42.0</ele><time>2026-05-02T10:24:45.981Z</time></trkpt><trkpt lat="40.170685" lon="15.04735"><ele>42.0</ele><time>2026-05-02T10:24:46.98Z</time></trkpt><trkpt lat="40.1706383" lon="15.0472433"><ele>42.0</ele><time>2026-05-02T10:24:47.98Z</time></trkpt><trkpt lat="40.1705883" lon="15.0471367"><ele>37.2</ele><time>2026-05-02T10:24:48.98Z</time></trkpt><trkpt lat="40.1705383" lon="15.0470317"><ele>32.400000000000006</ele><time>2026-05-02T10:24:49.98Z</time></trkpt><trkpt lat="40.1704967" lon="15.04692"><ele>27.6</ele><time>2026-05-02T10:24:50.981Z</time></trkpt><trkpt lat="40.17045" lon="15.0468217"><ele>22.8</ele><time>2026-05-02T10:24:51.981Z</time></trkpt><trkpt lat="40.1704" lon="15.046725"><ele>18.0</ele><time>2026-05-02T10:24:52.981Z</time></trkpt><trkpt lat="40.1703467" lon="15.0466267"><ele>18.0</ele><time>2026-05-02T10:24:53.981Z</time></trkpt><trkpt lat="40.1702983" lon="15.04653"><ele>18.0</ele><time>2026-05-02T10:24:54.981Z</time></trkpt><trkpt lat="40.17025" lon="15.0464467"><ele>18.0</ele><time>2026-05-02T10:24:55.98Z</time></trkpt><trkpt lat="40.1702083" lon="15.046375"><ele>18.0</ele><time>2026-05-02T10:24:56.98Z</time></trkpt><trkpt lat="40.1701567" lon="15.0462617"><ele>18.0</ele><time>2026-05-02T10:24:58.98Z</time></trkpt><trkpt lat="40.1701167" lon="15.0461717"><ele>18.0</ele><time>2026-05-02T10:25:00.981Z</time></trkpt><trkpt lat="40.1700833" lon="15.046075"><ele>18.0</ele><time>2026-05-02T10:25:04.981Z</time></trkpt><trkpt lat="40.1700833" lon="15.0459883"><ele>18.0</ele><time>2026-05-02T10:25:06.981Z</time></trkpt><trkpt lat="40.1700917" lon="15.045865"><ele>18.0</ele><time>2026-05-02T10:25:08.98Z</time></trkpt><trkpt lat="40.170095" lon="15.0457283"><ele>18.0</ele><time>2026-05-02T10:25:10.98Z</time></trkpt><trkpt lat="40.170125" lon="15.0455733"><ele>18.0</ele><time>2026-05-02T10:25:12.98Z</time></trkpt><trkpt lat="40.170145" lon="15.0454933"><ele>17.166666666666668</ele><time>2026-05-02T10:25:13.98Z</time></trkpt><trkpt lat="40.1701667" lon="15.0454133"><ele>16.333333333333332</ele><time>2026-05-02T10:25:14.98Z</time></trkpt><trkpt lat="40.1701967" lon="15.0453317"><ele>15.5</ele><time>2026-05-02T10:25:15.981Z</time></trkpt><trkpt lat="40.1702367" lon="15.0452317"><ele>14.666666666666666</ele><time>2026-05-02T10:25:16.98Z</time></trkpt><trkpt lat="40.1702667" lon="15.0451317"><ele>13.833333333333332</ele><time>2026-05-02T10:25:17.98Z</time></trkpt><trkpt lat="40.170295" lon="15.0450333"><ele>13.0</ele><time>2026-05-02T10:25:18.981Z</time></trkpt><trkpt lat="40.1703283" lon="15.04494"><ele>13.333333333333332</ele><time>2026-05-02T10:25:19.981Z</time></trkpt><trkpt lat="40.1703667" lon="15.0448533"><ele>13.666666666666666</ele><time>2026-05-02T10:25:20.981Z</time></trkpt><trkpt lat="40.1704167" lon="15.0447683"><ele>14.0</ele><time>2026-05-02T10:25:21.981Z</time></trkpt><trkpt lat="40.1704817" lon="15.0446933"><ele>14.333333333333332</ele><time>2026-05-02T10:25:22.98Z</time></trkpt><trkpt lat="40.17056" lon="15.0446367"><ele>14.666666666666666</ele><time>2026-05-02T10:25:23.98Z</time></trkpt><trkpt lat="40.1706467" lon="15.0445883"><ele>15.0</ele><time>2026-05-02T10:25:24.98Z</time></trkpt><trkpt lat="40.1707367" lon="15.0445433"><ele>15.0</ele><time>2026-05-02T10:25:25.98Z</time></trkpt><trkpt lat="40.1708333" lon="15.0444917"><ele>15.0</ele><time>2026-05-02T10:25:26.98Z</time></trkpt><trkpt lat="40.1709283" lon="15.0444317"><ele>15.0</ele><time>2026-05-02T10:25:27.98Z</time></trkpt><trkpt lat="40.17103" lon="15.0443667"><ele>15.0</ele><time>2026-05-02T10:25:28.981Z</time></trkpt><trkpt lat="40.1711317" lon="15.0443033"><ele>15.0</ele><time>2026-05-02T10:25:29.98Z</time></trkpt><trkpt lat="40.17123" lon="15.04425"><ele>15.0</ele><time>2026-05-02T10:25:30.981Z</time></trkpt><trkpt lat="40.1713267" lon="15.0441967"><ele>15.0</ele><time>2026-05-02T10:25:31.98Z</time></trkpt><trkpt lat="40.1714167" lon="15.0441467"><ele>15.0</ele><time>2026-05-02T10:25:32.98Z</time></trkpt><trkpt lat="40.1714933" lon="15.04409"><ele>15.0</ele><time>2026-05-02T10:25:33.98Z</time></trkpt><trkpt lat="40.1715483" lon="15.0440167"><ele>15.0</ele><time>2026-05-02T10:25:34.98Z</time></trkpt><trkpt lat="40.1715833" lon="15.0439417"><ele>15.0</ele><time>2026-05-02T10:25:35.98Z</time></trkpt><trkpt lat="40.17159" lon="15.0438117"><ele>14.2</ele><time>2026-05-02T10:25:37.981Z</time></trkpt><trkpt lat="40.1715533" lon="15.04369"><ele>13.4</ele><time>2026-05-02T10:25:39.981Z</time></trkpt><trkpt lat="40.1714967" lon="15.043555"><ele>12.600000000000001</ele><time>2026-05-02T10:25:41.98Z</time></trkpt><trkpt lat="40.1714567" lon="15.04348"><ele>11.8</ele><time>2026-05-02T10:25:42.981Z</time></trkpt><trkpt lat="40.1714133" lon="15.0433817"><ele>11.0</ele><time>2026-05-02T10:25:43.981Z</time></trkpt><trkpt lat="40.1713667" lon="15.0432667"><ele>10.75</ele><time>2026-05-02T10:25:44.98Z</time></trkpt><trkpt lat="40.1713083" lon="15.0431383"><ele>10.5</ele><time>2026-05-02T10:25:45.98Z</time></trkpt><trkpt lat="40.1712633" lon="15.042995"><ele>10.25</ele><time>2026-05-02T10:25:46.98Z</time></trkpt><trkpt lat="40.17123" lon="15.042835"><ele>10.0</ele><time>2026-05-02T10:25:47.981Z</time></trkpt><trkpt lat="40.1712067" lon="15.0426767"><ele>10.0</ele><time>2026-05-02T10:25:48.98Z</time></trkpt><trkpt lat="40.1711933" lon="15.0425333"><ele>10.0</ele><time>2026-05-02T10:25:49.98Z</time></trkpt><trkpt lat="40.1711933" lon="15.0423883"><ele>10.0</ele><time>2026-05-02T10:25:50.98Z</time></trkpt><trkpt lat="40.1712217" lon="15.0422517"><ele>10.0</ele><time>2026-05-02T10:25:51.98Z</time></trkpt><trkpt lat="40.1712717" lon="15.0421133"><ele>10.0</ele><time>2026-05-02T10:25:52.981Z</time></trkpt><trkpt lat="40.1713283" lon="15.0419667"><ele>9.75</ele><time>2026-05-02T10:25:53.981Z</time></trkpt><trkpt lat="40.1713833" lon="15.041805"><ele>9.5</ele><time>2026-05-02T10:25:54.98Z</time></trkpt><trkpt lat="40.171435" lon="15.0416333"><ele>9.25</ele><time>2026-05-02T10:25:55.981Z</time></trkpt><trkpt lat="40.1714933" lon="15.0414517"><ele>9.0</ele><time>2026-05-02T10:25:56.98Z</time></trkpt><trkpt lat="40.1715517" lon="15.0412683"><ele>9.666666666666666</ele><time>2026-05-02T10:25:57.981Z</time></trkpt><trkpt lat="40.1716167" lon="15.041085"><ele>10.333333333333332</ele><time>2026-05-02T10:25:58.981Z</time></trkpt><trkpt lat="40.171685" lon="15.040895"><ele>11.0</ele><time>2026-05-02T10:25:59.98Z</time></trkpt><trkpt lat="40.1717533" lon="15.0407"><ele>11.0</ele><time>2026-05-02T10:26:00.981Z</time></trkpt><trkpt lat="40.1718217" lon="15.0405"><ele>11.0</ele><time>2026-05-02T10:26:01.981Z</time></trkpt><trkpt lat="40.171895" lon="15.040305"><ele>11.0</ele><time>2026-05-02T10:26:02.98Z</time></trkpt><trkpt lat="40.1719667" lon="15.040105"><ele>9.333333333333332</ele><time>2026-05-02T10:26:03.981Z</time></trkpt><trkpt lat="40.1720433" lon="15.0399067"><ele>7.666666666666666</ele><time>2026-05-02T10:26:04.98Z</time></trkpt><trkpt lat="40.1721233" lon="15.0397083"><ele>6.0</ele><time>2026-05-02T10:26:05.98Z</time></trkpt><trkpt lat="40.1722117" lon="15.03952"><ele>6.0</ele><time>2026-05-02T10:26:06.98Z</time></trkpt><trkpt lat="40.172295" lon="15.0393317"><ele>6.0</ele><time>2026-05-02T10:26:07.981Z</time></trkpt><trkpt lat="40.1723783" lon="15.0391383"><ele>6.0</ele><time>2026-05-02T10:26:08.981Z</time></trkpt><trkpt lat="40.172455" lon="15.0389483"><ele>8.333333333333332</ele><time>2026-05-02T10:26:09.98Z</time></trkpt><trkpt lat="40.17254" lon="15.038755"><ele>10.666666666666666</ele><time>2026-05-02T10:26:10.981Z</time></trkpt><trkpt lat="40.1726267" lon="15.0385667"><ele>13.0</ele><time>2026-05-02T10:26:11.981Z</time></trkpt><trkpt lat="40.1727133" lon="15.0383783"><ele>12.333333333333332</ele><time>2026-05-02T10:26:12.98Z</time></trkpt><trkpt lat="40.1727983" lon="15.0381883"><ele>11.666666666666666</ele><time>2026-05-02T10:26:13.98Z</time></trkpt><trkpt lat="40.1728817" lon="15.0379983"><ele>11.0</ele><time>2026-05-02T10:26:14.98Z</time></trkpt><trkpt lat="40.17296" lon="15.0378117"><ele>11.0</ele><time>2026-05-02T10:26:15.981Z</time></trkpt><trkpt lat="40.1730417" lon="15.03762"><ele>11.0</ele><time>2026-05-02T10:26:16.981Z</time></trkpt><trkpt lat="40.1731183" lon="15.03743"><ele>11.0</ele><time>2026-05-02T10:26:17.981Z</time></trkpt><trkpt lat="40.1732033" lon="15.0372383"><ele>13.666666666666666</ele><time>2026-05-02T10:26:18.98Z</time></trkpt><trkpt lat="40.1732883" lon="15.0370417"><ele>16.333333333333332</ele><time>2026-05-02T10:26:19.98Z</time></trkpt><trkpt lat="40.17338" lon="15.036855"><ele>19.0</ele><time>2026-05-02T10:26:20.98Z</time></trkpt><trkpt lat="40.1734833" lon="15.0366683"><ele>17.666666666666664</ele><time>2026-05-02T10:26:21.981Z</time></trkpt><trkpt lat="40.1735933" lon="15.0364817"><ele>16.333333333333332</ele><time>2026-05-02T10:26:22.98Z</time></trkpt><trkpt lat="40.173725" lon="15.036315"><ele>15.0</ele><time>2026-05-02T10:26:23.981Z</time></trkpt><trkpt lat="40.1738517" lon="15.0361533"><ele>15.0</ele><time>2026-05-02T10:26:24.98Z</time></trkpt><trkpt lat="40.173975" lon="15.03599"><ele>15.0</ele><time>2026-05-02T10:26:25.98Z</time></trkpt><trkpt lat="40.1740933" lon="15.0358417"><ele>15.0</ele><time>2026-05-02T10:26:26.981Z</time></trkpt><trkpt lat="40.1742033" lon="15.035705"><ele>14.75</ele><time>2026-05-02T10:26:27.98Z</time></trkpt><trkpt lat="40.1743083" lon="15.0355767"><ele>14.5</ele><time>2026-05-02T10:26:28.981Z</time></trkpt><trkpt lat="40.1744067" lon="15.0354467"><ele>14.25</ele><time>2026-05-02T10:26:29.981Z</time></trkpt><trkpt lat="40.1745033" lon="15.0353167"><ele>14.0</ele><time>2026-05-02T10:26:30.98Z</time></trkpt><trkpt lat="40.17461" lon="15.0351783"><ele>14.0</ele><time>2026-05-02T10:26:31.98Z</time></trkpt><trkpt lat="40.1747133" lon="15.035035"><ele>14.0</ele><time>2026-05-02T10:26:32.981Z</time></trkpt><trkpt lat="40.1748217" lon="15.0348833"><ele>14.0</ele><time>2026-05-02T10:26:33.981Z</time></trkpt><trkpt lat="40.1749317" lon="15.0347283"><ele>14.0</ele><time>2026-05-02T10:26:34.98Z</time></trkpt><trkpt lat="40.1750533" lon="15.0345733"><ele>14.0</ele><time>2026-05-02T10:26:35.98Z</time></trkpt><trkpt lat="40.175175" lon="15.0344117"><ele>14.0</ele><time>2026-05-02T10:26:36.98Z</time></trkpt><trkpt lat="40.1753" lon="15.034265"><ele>11.666666666666668</ele><time>2026-05-02T10:26:37.98Z</time></trkpt><trkpt lat="40.175415" lon="15.0341167"><ele>9.333333333333334</ele><time>2026-05-02T10:26:38.981Z</time></trkpt><trkpt lat="40.1755217" lon="15.0339783"><ele>7.0</ele><time>2026-05-02T10:26:39.98Z</time></trkpt><trkpt lat="40.17562" lon="15.03385"><ele>9.5</ele><time>2026-05-02T10:26:40.981Z</time></trkpt><trkpt lat="40.17571" lon="15.03373"><ele>12.0</ele><time>2026-05-02T10:26:41.98Z</time></trkpt><trkpt lat="40.175805" lon="15.0336217"><ele>14.5</ele><time>2026-05-02T10:26:42.98Z</time></trkpt><trkpt lat="40.175895" lon="15.0335167"><ele>17.0</ele><time>2026-05-02T10:26:43.98Z</time></trkpt><trkpt lat="40.1759783" lon="15.0334117"><ele>17.0</ele><time>2026-05-02T10:26:44.981Z</time></trkpt><trkpt lat="40.17606" lon="15.0333067"><ele>17.0</ele><time>2026-05-02T10:26:45.981Z</time></trkpt><trkpt lat="40.1761467" lon="15.0331967"><ele>17.0</ele><time>2026-05-02T10:26:46.98Z</time></trkpt><trkpt lat="40.1762317" lon="15.0330883"><ele>17.0</ele><time>2026-05-02T10:26:47.98Z</time></trkpt><trkpt lat="40.1763183" lon="15.03298"><ele>16.0</ele><time>2026-05-02T10:26:48.98Z</time></trkpt><trkpt lat="40.1763967" lon="15.0328767"><ele>15.0</ele><time>2026-05-02T10:26:49.98Z</time></trkpt><trkpt lat="40.1764817" lon="15.03277"><ele>14.0</ele><time>2026-05-02T10:26:50.98Z</time></trkpt><trkpt lat="40.1765683" lon="15.0326667"><ele>13.0</ele><time>2026-05-02T10:26:51.981Z</time></trkpt><trkpt lat="40.1766533" lon="15.0325583"><ele>11.0</ele><time>2026-05-02T10:26:52.98Z</time></trkpt><trkpt lat="40.176735" lon="15.0324533"><ele>9.0</ele><time>2026-05-02T10:26:53.981Z</time></trkpt><trkpt lat="40.176815" lon="15.0323467"><ele>7.0</ele><time>2026-05-02T10:26:54.98Z</time></trkpt><trkpt lat="40.1769" lon="15.0322367"><ele>5.0</ele><time>2026-05-02T10:26:55.98Z</time></trkpt><trkpt lat="40.1769817" lon="15.0321317"><ele>5.0</ele><time>2026-05-02T10:26:56.981Z</time></trkpt><trkpt lat="40.1770617" lon="15.0320233"><ele>5.0</ele><time>2026-05-02T10:26:57.981Z</time></trkpt><trkpt lat="40.1771483" lon="15.03191"><ele>5.0</ele><time>2026-05-02T10:26:58.98Z</time></trkpt><trkpt lat="40.177235" lon="15.0317967"><ele>5.0</ele><time>2026-05-02T10:26:59.98Z</time></trkpt><trkpt lat="40.1773233" lon="15.0316783"><ele>7.25</ele><time>2026-05-02T10:27:00.98Z</time></trkpt><trkpt lat="40.1774167" lon="15.03157"><ele>9.5</ele><time>2026-05-02T10:27:01.981Z</time></trkpt><trkpt lat="40.1775017" lon="15.0314617"><ele>11.75</ele><time>2026-05-02T10:27:02.98Z</time></trkpt><trkpt lat="40.1775883" lon="15.0313583"><ele>14.0</ele><time>2026-05-02T10:27:03.98Z</time></trkpt><trkpt lat="40.1776717" lon="15.03125"><ele>14.0</ele><time>2026-05-02T10:27:04.981Z</time></trkpt><trkpt lat="40.1777533" lon="15.0311467"><ele>13.999999999999998</ele><time>2026-05-02T10:27:05.981Z</time></trkpt><trkpt lat="40.17783" lon="15.0310483"><ele>13.999999999999998</ele><time>2026-05-02T10:27:06.98Z</time></trkpt><trkpt lat="40.1779067" lon="15.03095"><ele>14.0</ele><time>2026-05-02T10:27:07.98Z</time></trkpt><trkpt lat="40.1779833" lon="15.030855"><ele>14.0</ele><time>2026-05-02T10:27:08.981Z</time></trkpt><trkpt lat="40.1780567" lon="15.0307483"><ele>15.0</ele><time>2026-05-02T10:27:09.98Z</time></trkpt><trkpt lat="40.1781367" lon="15.0306517"><ele>16.0</ele><time>2026-05-02T10:27:10.98Z</time></trkpt><trkpt lat="40.1782167" lon="15.030545"><ele>17.0</ele><time>2026-05-02T10:27:11.98Z</time></trkpt><trkpt lat="40.1783" lon="15.0304383"><ele>18.0</ele><time>2026-05-02T10:27:12.98Z</time></trkpt><trkpt lat="40.178385" lon="15.0303417"><ele>18.0</ele><time>2026-05-02T10:27:13.98Z</time></trkpt><trkpt lat="40.1784783" lon="15.0302517"><ele>18.0</ele><time>2026-05-02T10:27:14.981Z</time></trkpt><trkpt lat="40.1785717" lon="15.030165"><ele>18.0</ele><time>2026-05-02T10:27:15.981Z</time></trkpt><trkpt lat="40.17867" lon="15.0300917"><ele>18.0</ele><time>2026-05-02T10:27:16.981Z</time></trkpt><trkpt lat="40.1787783" lon="15.0300267"><ele>17.5</ele><time>2026-05-02T10:27:17.981Z</time></trkpt><trkpt lat="40.1788833" lon="15.0299717"><ele>17.0</ele><time>2026-05-02T10:27:18.98Z</time></trkpt><trkpt lat="40.1789917" lon="15.02991"><ele>16.5</ele><time>2026-05-02T10:27:19.98Z</time></trkpt><trkpt lat="40.1791017" lon="15.0298483"><ele>16.0</ele><time>2026-05-02T10:27:20.981Z</time></trkpt><trkpt lat="40.1792067" lon="15.0297967"><ele>16.0</ele><time>2026-05-02T10:27:21.981Z</time></trkpt><trkpt lat="40.1793083" lon="15.02974"><ele>16.0</ele><time>2026-05-02T10:27:22.981Z</time></trkpt><trkpt lat="40.1794" lon="15.0296867"><ele>16.0</ele><time>2026-05-02T10:27:23.981Z</time></trkpt><trkpt lat="40.179485" lon="15.0296467"><ele>16.0</ele><time>2026-05-02T10:27:24.98Z</time></trkpt><trkpt lat="40.1795717" lon="15.0296017"><ele>16.0</ele><time>2026-05-02T10:27:25.98Z</time></trkpt><trkpt lat="40.17965" lon="15.0295583"><ele>15.999999999999998</ele><time>2026-05-02T10:27:26.98Z</time></trkpt><trkpt lat="40.17972" lon="15.0295167"><ele>16.0</ele><time>2026-05-02T10:27:27.98Z</time></trkpt><trkpt lat="40.1797867" lon="15.029475"><ele>16.0</ele><time>2026-05-02T10:27:28.98Z</time></trkpt><trkpt lat="40.1798917" lon="15.0294283"><ele>16.0</ele><time>2026-05-02T10:27:30.981Z</time></trkpt><trkpt lat="40.1799733" lon="15.0293917"><ele>15.999999999999998</ele><time>2026-05-02T10:27:32.981Z</time></trkpt><trkpt lat="40.1800383" lon="15.0293533"><ele>16.0</ele><time>2026-05-02T10:27:34.98Z</time></trkpt><trkpt lat="40.18011" lon="15.02931"><ele>15.499999999999998</ele><time>2026-05-02T10:27:39.98Z</time></trkpt><trkpt lat="40.180165" lon="15.0292633"><ele>15.0</ele><time>2026-05-02T10:27:41.98Z</time></trkpt><trkpt lat="40.1802267" lon="15.02922"><ele>14.5</ele><time>2026-05-02T10:27:43.981Z</time></trkpt><trkpt lat="40.1803" lon="15.0291767"><ele>14.0</ele><time>2026-05-02T10:27:46.981Z</time></trkpt><trkpt lat="40.1803033" lon="15.0290517"><ele>13.499999999999998</ele><time>2026-05-02T10:27:57.981Z</time></trkpt><trkpt lat="40.1802433" lon="15.0289417"><ele>13.0</ele><time>2026-05-02T10:28:15.98Z</time></trkpt><trkpt lat="40.1801883" lon="15.0288267"><ele>13.0</ele><time>2026-05-02T10:28:16.98Z</time></trkpt><trkpt lat="40.1801167" lon="15.02867"><ele>13.0</ele><time>2026-05-02T10:28:17.98Z</time></trkpt><trkpt lat="40.1800633" lon="15.028535"><ele>13.0</ele><time>2026-05-02T10:28:18.98Z</time></trkpt><trkpt lat="40.180025" lon="15.0284217"><ele>13.0</ele><time>2026-05-02T10:28:19.98Z</time></trkpt><trkpt lat="40.1799967" lon="15.0283167"><ele>13.0</ele><time>2026-05-02T10:28:20.98Z</time></trkpt><trkpt lat="40.1799833" lon="15.0282217"><ele>12.4</ele><time>2026-05-02T10:28:21.98Z</time></trkpt><trkpt lat="40.1799867" lon="15.0281383"><ele>11.8</ele><time>2026-05-02T10:28:22.98Z</time></trkpt><trkpt lat="40.1799867" lon="15.02799"><ele>11.2</ele><time>2026-05-02T10:28:24.98Z</time></trkpt><trkpt lat="40.179935" lon="15.0278883"><ele>10.6</ele><time>2026-05-02T10:28:26.981Z</time></trkpt><trkpt lat="40.1798517" lon="15.02785"><ele>10.0</ele><time>2026-05-02T10:28:28.98Z</time></trkpt><trkpt lat="40.1797533" lon="15.0278833"><ele>9.666666666666668</ele><time>2026-05-02T10:28:30.98Z</time></trkpt><trkpt lat="40.17967" lon="15.0279217"><ele>9.333333333333334</ele><time>2026-05-02T10:28:32.98Z</time></trkpt><trkpt lat="40.1795817" lon="15.027955"><ele>9.0</ele><time>2026-05-02T10:28:34.98Z</time></trkpt><trkpt lat="40.1794983" lon="15.02795"><ele>8.666666666666666</ele><time>2026-05-02T10:28:36.98Z</time></trkpt><trkpt lat="40.17942" lon="15.0279083"><ele>8.333333333333332</ele><time>2026-05-02T10:28:38.981Z</time></trkpt><trkpt lat="40.17936" lon="15.027845"><ele>8.0</ele><time>2026-05-02T10:28:40.98Z</time></trkpt><trkpt lat="40.179315" lon="15.0277767"><ele>7.999999999999999</ele><time>2026-05-02T10:28:42.98Z</time></trkpt><trkpt lat="40.17925" lon="15.0277217"><ele>8.0</ele><time>2026-05-02T10:28:44.98Z</time></trkpt><trkpt lat="40.1791833" lon="15.0276983"><ele>8.0</ele><time>2026-05-02T10:28:47.98Z</time></trkpt><trkpt lat="40.17912" lon="15.0276817"><ele>8.0</ele><time>2026-05-02T10:28:50.98Z</time></trkpt><trkpt lat="40.1790383" lon="15.0276517"><ele>7.999999999999999</ele><time>2026-05-02T10:28:52.98Z</time></trkpt><trkpt lat="40.1789717" lon="15.02757"><ele>8.0</ele><time>2026-05-02T10:29:01.981Z</time></trkpt><trkpt lat="40.17893" lon="15.0274983"><ele>2.0</ele><time>2026-05-02T10:29:05.98Z</time></trkpt><trkpt lat="40.1788383" lon="15.0274717"><ele>3.0</ele><time>2026-05-02T11:47:46.98Z</time></trkpt></trkseg><trkseg><trkpt lat="40.1788533" lon="15.02757"><ele>2.0</ele><time>2026-05-02T12:26:57.981Z</time></trkpt><trkpt lat="40.1788117" lon="15.027665"><ele>2.0</ele><time>2026-05-02T12:27:00.98Z</time></trkpt><trkpt lat="40.1787717" lon="15.0277717"><ele>2.0</ele><time>2026-05-02T12:27:03.98Z</time></trkpt><trkpt lat="40.178735" lon="15.02786"><ele>2.0</ele><time>2026-05-02T12:27:05.98Z</time></trkpt><trkpt lat="40.1786833" lon="15.0279783"><ele>2.0</ele><time>2026-05-02T12:27:07.98Z</time></trkpt><trkpt lat="40.1786417" lon="15.0280967"><ele>1.9999999999999998</ele><time>2026-05-02T12:27:09.981Z</time></trkpt><trkpt lat="40.1785767" lon="15.02823"><ele>2.0</ele><time>2026-05-02T12:27:11.981Z</time></trkpt><trkpt lat="40.178545" lon="15.0283033"><ele>2.0</ele><time>2026-05-02T12:27:12.98Z</time></trkpt><trkpt lat="40.1785117" lon="15.0283767"><ele>2.0</ele><time>2026-05-02T12:27:13.98Z</time></trkpt><trkpt lat="40.1784783" lon="15.0284533"><ele>1.9999999999999998</ele><time>2026-05-02T12:27:14.981Z</time></trkpt><trkpt lat="40.17844" lon="15.0285317"><ele>2.0</ele><time>2026-05-02T12:27:15.98Z</time></trkpt><trkpt lat="40.17843" lon="15.0286167"><ele>2.1666666666666665</ele><time>2026-05-02T12:27:16.981Z</time></trkpt><trkpt lat="40.1783983" lon="15.0286883"><ele>2.333333333333333</ele><time>2026-05-02T12:27:17.981Z</time></trkpt><trkpt lat="40.1783683" lon="15.028765"><ele>2.5</ele><time>2026-05-02T12:27:18.98Z</time></trkpt><trkpt lat="40.178335" lon="15.0288417"><ele>2.6666666666666665</ele><time>2026-05-02T12:27:19.98Z</time></trkpt><trkpt lat="40.1782633" lon="15.0289767"><ele>2.8333333333333335</ele><time>2026-05-02T12:27:21.98Z</time></trkpt><trkpt lat="40.1782117" lon="15.0291233"><ele>3.0</ele><time>2026-05-02T12:27:23.981Z</time></trkpt><trkpt lat="40.1781717" lon="15.0292117"><ele>3.0</ele><time>2026-05-02T12:27:25.98Z</time></trkpt><trkpt lat="40.1781233" lon="15.0292933"><ele>3.0</ele><time>2026-05-02T12:27:30.981Z</time></trkpt><trkpt lat="40.1780917" lon="15.0294033"><ele>3.0</ele><time>2026-05-02T12:27:32.98Z</time></trkpt><trkpt lat="40.1780467" lon="15.029525"><ele>3.0</ele><time>2026-05-02T12:27:34.98Z</time></trkpt><trkpt lat="40.1780067" lon="15.0296367"><ele>3.0</ele><time>2026-05-02T12:27:36.981Z</time></trkpt><trkpt lat="40.1779667" lon="15.0297433"><ele>3.0</ele><time>2026-05-02T12:27:38.98Z</time></trkpt><trkpt lat="40.1779117" lon="15.0299067"><ele>3.0</ele><time>2026-05-02T12:27:40.98Z</time></trkpt><trkpt lat="40.177865" lon="15.0299817"><ele>3.0</ele><time>2026-05-02T12:27:41.98Z</time></trkpt><trkpt lat="40.1778217" lon="15.03005"><ele>3.0</ele><time>2026-05-02T12:27:42.98Z</time></trkpt><trkpt lat="40.177775" lon="15.0301317"><ele>3.0</ele><time>2026-05-02T12:27:43.981Z</time></trkpt><trkpt lat="40.17773" lon="15.0302167"><ele>3.0</ele><time>2026-05-02T12:27:44.98Z</time></trkpt><trkpt lat="40.1776817" lon="15.0302983"><ele>3.833333333333333</ele><time>2026-05-02T12:27:45.98Z</time></trkpt><trkpt lat="40.177635" lon="15.0303817"><ele>4.666666666666666</ele><time>2026-05-02T12:27:46.98Z</time></trkpt><trkpt lat="40.17759" lon="15.030465"><ele>5.5</ele><time>2026-05-02T12:27:47.98Z</time></trkpt><trkpt lat="40.1775483" lon="15.0305433"><ele>6.333333333333333</ele><time>2026-05-02T12:27:48.981Z</time></trkpt><trkpt lat="40.1775167" lon="15.030635"><ele>7.166666666666666</ele><time>2026-05-02T12:27:49.981Z</time></trkpt><trkpt lat="40.177495" lon="15.0307217"><ele>8.0</ele><time>2026-05-02T12:27:50.98Z</time></trkpt><trkpt lat="40.1774817" lon="15.0308167"><ele>9.0</ele><time>2026-05-02T12:27:51.98Z</time></trkpt><trkpt lat="40.1774833" lon="15.03093"><ele>10.0</ele><time>2026-05-02T12:27:52.98Z</time></trkpt><trkpt lat="40.1774817" lon="15.0310433"><ele>11.0</ele><time>2026-05-02T12:27:53.98Z</time></trkpt><trkpt lat="40.17747" lon="15.0311617"><ele>12.0</ele><time>2026-05-02T12:27:54.981Z</time></trkpt><trkpt lat="40.1774533" lon="15.0312783"><ele>13.000000000000002</ele><time>2026-05-02T12:27:55.981Z</time></trkpt><trkpt lat="40.1774467" lon="15.0313883"><ele>14.0</ele><time>2026-05-02T12:27:56.981Z</time></trkpt><trkpt lat="40.1774317" lon="15.0314817"><ele>14.0</ele><time>2026-05-02T12:27:57.98Z</time></trkpt><trkpt lat="40.177455" lon="15.0316067"><ele>13.999999999999998</ele><time>2026-05-02T12:27:58.981Z</time></trkpt><trkpt lat="40.1774083" lon="15.0317317"><ele>13.999999999999998</ele><time>2026-05-02T12:28:00.98Z</time></trkpt><trkpt lat="40.177385" lon="15.0318267"><ele>14.0</ele><time>2026-05-02T12:28:01.981Z</time></trkpt><trkpt lat="40.1773433" lon="15.031915"><ele>14.0</ele><time>2026-05-02T12:28:02.981Z</time></trkpt><trkpt lat="40.177285" lon="15.0320133"><ele>13.75</ele><time>2026-05-02T12:28:03.981Z</time></trkpt><trkpt lat="40.1772217" lon="15.0321317"><ele>13.5</ele><time>2026-05-02T12:28:04.98Z</time></trkpt><trkpt lat="40.177155" lon="15.03226"><ele>13.25</ele><time>2026-05-02T12:28:05.981Z</time></trkpt><trkpt lat="40.1770867" lon="15.0323933"><ele>13.0</ele><time>2026-05-02T12:28:06.98Z</time></trkpt><trkpt lat="40.1770183" lon="15.0325083"><ele>12.999999999999998</ele><time>2026-05-02T12:28:07.98Z</time></trkpt><trkpt lat="40.17695" lon="15.0326017"><ele>13.0</ele><time>2026-05-02T12:28:08.981Z</time></trkpt><trkpt lat="40.17688" lon="15.0326817"><ele>13.0</ele><time>2026-05-02T12:28:09.981Z</time></trkpt><trkpt lat="40.1768117" lon="15.03275"><ele>13.0</ele><time>2026-05-02T12:28:10.98Z</time></trkpt><trkpt lat="40.176735" lon="15.03278"><ele>12.999999999999998</ele><time>2026-05-02T12:28:11.98Z</time></trkpt><trkpt lat="40.1766567" lon="15.0327833"><ele>13.0</ele><time>2026-05-02T12:28:12.98Z</time></trkpt><trkpt lat="40.17657" lon="15.0327667"><ele>12.600000000000001</ele><time>2026-05-02T12:28:13.98Z</time></trkpt><trkpt lat="40.1764783" lon="15.0327433"><ele>12.200000000000001</ele><time>2026-05-02T12:28:14.98Z</time></trkpt><trkpt lat="40.1763767" lon="15.0326783"><ele>11.8</ele><time>2026-05-02T12:28:15.981Z</time></trkpt><trkpt lat="40.1762833" lon="15.0326283"><ele>11.4</ele><time>2026-05-02T12:28:16.98Z</time></trkpt><trkpt lat="40.1762" lon="15.03259"><ele>11.0</ele><time>2026-05-02T12:28:17.98Z</time></trkpt><trkpt lat="40.176125" lon="15.0325933"><ele>11.0</ele><time>2026-05-02T12:28:18.981Z</time></trkpt><trkpt lat="40.1760483" lon="15.0326267"><ele>11.0</ele><time>2026-05-02T12:28:19.98Z</time></trkpt><trkpt lat="40.175965" lon="15.0326967"><ele>11.0</ele><time>2026-05-02T12:28:20.98Z</time></trkpt><trkpt lat="40.1758867" lon="15.0327833"><ele>11.0</ele><time>2026-05-02T12:28:21.981Z</time></trkpt><trkpt lat="40.175805" lon="15.0328817"><ele>11.0</ele><time>2026-05-02T12:28:22.981Z</time></trkpt><trkpt lat="40.1757283" lon="15.0329917"><ele>10.200000000000001</ele><time>2026-05-02T12:28:23.98Z</time></trkpt><trkpt lat="40.1756483" lon="15.0330833"><ele>9.4</ele><time>2026-05-02T12:28:24.98Z</time></trkpt><trkpt lat="40.1755633" lon="15.0331733"><ele>8.6</ele><time>2026-05-02T12:28:25.981Z</time></trkpt><trkpt lat="40.175495" lon="15.03326"><ele>7.8</ele><time>2026-05-02T12:28:26.98Z</time></trkpt><trkpt lat="40.1754267" lon="15.033345"><ele>7.0</ele><time>2026-05-02T12:28:27.98Z</time></trkpt><trkpt lat="40.1753483" lon="15.0334333"><ele>7.000000000000001</ele><time>2026-05-02T12:28:28.98Z</time></trkpt><trkpt lat="40.1752867" lon="15.03352"><ele>7.0</ele><time>2026-05-02T12:28:29.981Z</time></trkpt><trkpt lat="40.1752317" lon="15.0335983"><ele>7.0</ele><time>2026-05-02T12:28:30.98Z</time></trkpt><trkpt lat="40.17519" lon="15.0336867"><ele>7.0</ele><time>2026-05-02T12:28:31.98Z</time></trkpt><trkpt lat="40.17515" lon="15.0337683"><ele>7.000000000000001</ele><time>2026-05-02T12:28:32.98Z</time></trkpt><trkpt lat="40.1751067" lon="15.03384"><ele>7.0</ele><time>2026-05-02T12:28:33.981Z</time></trkpt><trkpt lat="40.17506" lon="15.03392"><ele>7.0</ele><time>2026-05-02T12:28:34.981Z</time></trkpt><trkpt lat="40.175" lon="15.0340117"><ele>6.999999999999999</ele><time>2026-05-02T12:28:35.981Z</time></trkpt><trkpt lat="40.17493" lon="15.0341017"><ele>6.999999999999999</ele><time>2026-05-02T12:28:36.98Z</time></trkpt><trkpt lat="40.1748417" lon="15.0341883"><ele>7.0</ele><time>2026-05-02T12:28:37.98Z</time></trkpt><trkpt lat="40.1747317" lon="15.0342767"><ele>7.0</ele><time>2026-05-02T12:28:38.981Z</time></trkpt><trkpt lat="40.1746117" lon="15.0343583"><ele>6.25</ele><time>2026-05-02T12:28:39.98Z</time></trkpt><trkpt lat="40.1744933" lon="15.0344317"><ele>5.5</ele><time>2026-05-02T12:28:40.98Z</time></trkpt><trkpt lat="40.1743867" lon="15.0345"><ele>4.75</ele><time>2026-05-02T12:28:41.98Z</time></trkpt><trkpt lat="40.1742783" lon="15.0345683"><ele>4.0</ele><time>2026-05-02T12:28:42.98Z</time></trkpt><trkpt lat="40.1740667" lon="15.0347167"><ele>3.25</ele><time>2026-05-02T12:28:44.98Z</time></trkpt><trkpt lat="40.17396" lon="15.034795"><ele>2.5</ele><time>2026-05-02T12:28:45.98Z</time></trkpt><trkpt lat="40.1738467" lon="15.03485"><ele>1.75</ele><time>2026-05-02T12:28:46.981Z</time></trkpt><trkpt lat="40.1737333" lon="15.034905"><ele>1.0</ele><time>2026-05-02T12:28:47.98Z</time></trkpt><trkpt lat="40.173625" lon="15.0349633"><ele>1.0</ele><time>2026-05-02T12:28:48.98Z</time></trkpt><trkpt lat="40.1735117" lon="15.0350233"><ele>1.0</ele><time>2026-05-02T12:28:49.981Z</time></trkpt><trkpt lat="40.1733983" lon="15.03508"><ele>1.0</ele><time>2026-05-02T12:28:50.981Z</time></trkpt><trkpt lat="40.1732867" lon="15.0351383"><ele>1.0</ele><time>2026-05-02T12:28:51.98Z</time></trkpt><trkpt lat="40.173175" lon="15.0352033"><ele>1.0</ele><time>2026-05-02T12:28:52.98Z</time></trkpt><trkpt lat="40.17308" lon="15.0352733"><ele>1.0</ele><time>2026-05-02T12:28:53.98Z</time></trkpt><trkpt lat="40.1730017" lon="15.0353533"><ele>1.0</ele><time>2026-05-02T12:28:54.98Z</time></trkpt><trkpt lat="40.1729433" lon="15.0354583"><ele>1.0</ele><time>2026-05-02T12:28:55.981Z</time></trkpt><trkpt lat="40.17291" lon="15.035575"><ele>1.0</ele><time>2026-05-02T12:28:56.98Z</time></trkpt><trkpt lat="40.1729" lon="15.0357083"><ele>1.6</ele><time>2026-05-02T12:28:57.98Z</time></trkpt><trkpt lat="40.1728933" lon="15.0358333"><ele>2.2</ele><time>2026-05-02T12:28:58.981Z</time></trkpt><trkpt lat="40.1728933" lon="15.0359567"><ele>2.8000000000000003</ele><time>2026-05-02T12:28:59.981Z</time></trkpt><trkpt lat="40.1728933" lon="15.03609"><ele>3.4000000000000004</ele><time>2026-05-02T12:29:00.98Z</time></trkpt><trkpt lat="40.1728817" lon="15.036225"><ele>4.0</ele><time>2026-05-02T12:29:01.98Z</time></trkpt><trkpt lat="40.1728717" lon="15.0363717"><ele>4.0</ele><time>2026-05-02T12:29:02.98Z</time></trkpt><trkpt lat="40.1728617" lon="15.0365133"><ele>4.0</ele><time>2026-05-02T12:29:03.981Z</time></trkpt><trkpt lat="40.1728483" lon="15.0366533"><ele>4.0</ele><time>2026-05-02T12:29:04.98Z</time></trkpt><trkpt lat="40.1728367" lon="15.0367983"><ele>4.0</ele><time>2026-05-02T12:29:05.98Z</time></trkpt><trkpt lat="40.172825" lon="15.0369417"><ele>4.0</ele><time>2026-05-02T12:29:06.98Z</time></trkpt><trkpt lat="40.1728083" lon="15.037075"><ele>4.6</ele><time>2026-05-02T12:29:07.981Z</time></trkpt><trkpt lat="40.1727883" lon="15.0372"><ele>5.2</ele><time>2026-05-02T12:29:08.98Z</time></trkpt><trkpt lat="40.1727633" lon="15.037325"><ele>5.799999999999999</ele><time>2026-05-02T12:29:09.981Z</time></trkpt><trkpt lat="40.172735" lon="15.03745"><ele>6.3999999999999995</ele><time>2026-05-02T12:29:10.98Z</time></trkpt><trkpt lat="40.1727017" lon="15.037565"><ele>7.0</ele><time>2026-05-02T12:29:11.98Z</time></trkpt><trkpt lat="40.172685" lon="15.0377"><ele>7.666666666666667</ele><time>2026-05-02T12:29:12.98Z</time></trkpt><trkpt lat="40.1726467" lon="15.0378067"><ele>8.333333333333334</ele><time>2026-05-02T12:29:13.98Z</time></trkpt><trkpt lat="40.17262" lon="15.0379283"><ele>9.0</ele><time>2026-05-02T12:29:14.981Z</time></trkpt><trkpt lat="40.1726" lon="15.0380417"><ele>9.666666666666666</ele><time>2026-05-02T12:29:15.98Z</time></trkpt><trkpt lat="40.1725967" lon="15.0381567"><ele>10.333333333333332</ele><time>2026-05-02T12:29:16.981Z</time></trkpt><trkpt lat="40.17262" lon="15.038245"><ele>11.0</ele><time>2026-05-02T12:29:17.98Z</time></trkpt><trkpt lat="40.172665" lon="15.0383117"><ele>11.0</ele><time>2026-05-02T12:29:19.981Z</time></trkpt><trkpt lat="40.1727533" lon="15.0382783"><ele>11.0</ele><time>2026-05-02T12:29:25.98Z</time></trkpt><trkpt lat="40.1728217" lon="15.03819"><ele>11.0</ele><time>2026-05-02T12:29:27.981Z</time></trkpt><trkpt lat="40.1728533" lon="15.0381067"><ele>11.0</ele><time>2026-05-02T12:29:28.98Z</time></trkpt><trkpt lat="40.1728917" lon="15.0380133"><ele>11.0</ele><time>2026-05-02T12:29:29.98Z</time></trkpt><trkpt lat="40.1729317" lon="15.037905"><ele>11.0</ele><time>2026-05-02T12:29:30.98Z</time></trkpt><trkpt lat="40.1729783" lon="15.03779"><ele>11.0</ele><time>2026-05-02T12:29:31.98Z</time></trkpt><trkpt lat="40.1730317" lon="15.037665"><ele>11.0</ele><time>2026-05-02T12:29:32.98Z</time></trkpt><trkpt lat="40.1730833" lon="15.037535"><ele>11.0</ele><time>2026-05-02T12:29:33.981Z</time></trkpt><trkpt lat="40.173145" lon="15.0374033"><ele>11.0</ele><time>2026-05-02T12:29:34.98Z</time></trkpt><trkpt lat="40.1732067" lon="15.0372633"><ele>13.0</ele><time>2026-05-02T12:29:35.98Z</time></trkpt><trkpt lat="40.1732783" lon="15.0371133"><ele>15.0</ele><time>2026-05-02T12:29:36.98Z</time></trkpt><trkpt lat="40.1733483" lon="15.03696"><ele>17.0</ele><time>2026-05-02T12:29:37.981Z</time></trkpt><trkpt lat="40.1734183" lon="15.0368033"><ele>19.0</ele><time>2026-05-02T12:29:38.98Z</time></trkpt><trkpt lat="40.1735017" lon="15.03665"><ele>18.0</ele><time>2026-05-02T12:29:39.98Z</time></trkpt><trkpt lat="40.1735917" lon="15.0365067"><ele>17.0</ele><time>2026-05-02T12:29:40.98Z</time></trkpt><trkpt lat="40.1736867" lon="15.0363633"><ele>16.0</ele><time>2026-05-02T12:29:41.98Z</time></trkpt><trkpt lat="40.1737883" lon="15.0362367"><ele>15.0</ele><time>2026-05-02T12:29:42.98Z</time></trkpt><trkpt lat="40.17389" lon="15.0361033"><ele>15.0</ele><time>2026-05-02T12:29:43.98Z</time></trkpt><trkpt lat="40.17399" lon="15.0359717"><ele>15.0</ele><time>2026-05-02T12:29:44.98Z</time></trkpt><trkpt lat="40.17409" lon="15.03584"><ele>15.0</ele><time>2026-05-02T12:29:45.98Z</time></trkpt><trkpt lat="40.174195" lon="15.0357083"><ele>15.0</ele><time>2026-05-02T12:29:46.98Z</time></trkpt><trkpt lat="40.1743033" lon="15.0355633"><ele>14.666666666666668</ele><time>2026-05-02T12:29:47.981Z</time></trkpt><trkpt lat="40.1744183" lon="15.03541"><ele>14.333333333333334</ele><time>2026-05-02T12:29:48.98Z</time></trkpt><trkpt lat="40.17454" lon="15.0352567"><ele>14.0</ele><time>2026-05-02T12:29:49.98Z</time></trkpt><trkpt lat="40.1746683" lon="15.0351117"><ele>14.0</ele><time>2026-05-02T12:29:50.98Z</time></trkpt><trkpt lat="40.17479" lon="15.0349633"><ele>14.0</ele><time>2026-05-02T12:29:51.981Z</time></trkpt><trkpt lat="40.174905" lon="15.0348183"><ele>14.0</ele><time>2026-05-02T12:29:52.98Z</time></trkpt><trkpt lat="40.1750183" lon="15.0346717"><ele>14.0</ele><time>2026-05-02T12:29:53.981Z</time></trkpt><trkpt lat="40.175115" lon="15.03454"><ele>14.0</ele><time>2026-05-02T12:29:54.98Z</time></trkpt><trkpt lat="40.1752183" lon="15.0344117"><ele>14.0</ele><time>2026-05-02T12:29:55.981Z</time></trkpt><trkpt lat="40.1753117" lon="15.0342767"><ele>14.0</ele><time>2026-05-02T12:29:56.98Z</time></trkpt><trkpt lat="40.17542" lon="15.0341483"><ele>14.75</ele><time>2026-05-02T12:29:57.98Z</time></trkpt><trkpt lat="40.175525" lon="15.0340183"><ele>15.5</ele><time>2026-05-02T12:29:58.98Z</time></trkpt><trkpt lat="40.1756267" lon="15.0338817"><ele>16.25</ele><time>2026-05-02T12:29:59.981Z</time></trkpt><trkpt lat="40.1757317" lon="15.0337517"><ele>17.0</ele><time>2026-05-02T12:30:00.98Z</time></trkpt><trkpt lat="40.1758333" lon="15.0336233"><ele>17.0</ele><time>2026-05-02T12:30:01.98Z</time></trkpt><trkpt lat="40.1759283" lon="15.0335"><ele>17.0</ele><time>2026-05-02T12:30:02.98Z</time></trkpt><trkpt lat="40.176015" lon="15.0333817"><ele>17.0</ele><time>2026-05-02T12:30:03.981Z</time></trkpt><trkpt lat="40.1761" lon="15.0332667"><ele>17.0</ele><time>2026-05-02T12:30:04.98Z</time></trkpt><trkpt lat="40.1761783" lon="15.0331617"><ele>16.2</ele><time>2026-05-02T12:30:05.98Z</time></trkpt><trkpt lat="40.17626" lon="15.03306"><ele>15.399999999999999</ele><time>2026-05-02T12:30:06.981Z</time></trkpt><trkpt lat="40.17634" lon="15.0329633"><ele>14.600000000000001</ele><time>2026-05-02T12:30:07.98Z</time></trkpt><trkpt lat="40.1764183" lon="15.0328633"><ele>13.8</ele><time>2026-05-02T12:30:08.981Z</time></trkpt><trkpt lat="40.1764983" lon="15.0327633"><ele>13.0</ele><time>2026-05-02T12:30:09.981Z</time></trkpt><trkpt lat="40.1765783" lon="15.032655"><ele>13.0</ele><time>2026-05-02T12:30:10.98Z</time></trkpt><trkpt lat="40.176655" lon="15.0325467"><ele>13.0</ele><time>2026-05-02T12:30:11.98Z</time></trkpt><trkpt lat="40.17674" lon="15.0324417"><ele>13.0</ele><time>2026-05-02T12:30:12.981Z</time></trkpt><trkpt lat="40.17682" lon="15.0323467"><ele>13.0</ele><time>2026-05-02T12:30:13.98Z</time></trkpt><trkpt lat="40.1768917" lon="15.0322517"><ele>13.0</ele><time>2026-05-02T12:30:14.98Z</time></trkpt><trkpt lat="40.1769667" lon="15.03216"><ele>11.4</ele><time>2026-05-02T12:30:15.981Z</time></trkpt><trkpt lat="40.177035" lon="15.03207"><ele>9.8</ele><time>2026-05-02T12:30:16.98Z</time></trkpt><trkpt lat="40.1771067" lon="15.0319817"><ele>8.2</ele><time>2026-05-02T12:30:17.98Z</time></trkpt><trkpt lat="40.1771767" lon="15.0318933"><ele>6.6</ele><time>2026-05-02T12:30:18.981Z</time></trkpt><trkpt lat="40.1772417" lon="15.0318017"><ele>5.0</ele><time>2026-05-02T12:30:19.98Z</time></trkpt><trkpt lat="40.1773117" lon="15.031715"><ele>6.8</ele><time>2026-05-02T12:30:20.98Z</time></trkpt><trkpt lat="40.1773817" lon="15.03163"><ele>8.6</ele><time>2026-05-02T12:30:21.98Z</time></trkpt><trkpt lat="40.17745" lon="15.0315383"><ele>10.399999999999999</ele><time>2026-05-02T12:30:22.98Z</time></trkpt><trkpt lat="40.1775167" lon="15.0314467"><ele>12.2</ele><time>2026-05-02T12:30:23.981Z</time></trkpt><trkpt lat="40.17759" lon="15.0313583"><ele>14.0</ele><time>2026-05-02T12:30:24.98Z</time></trkpt><trkpt lat="40.1776633" lon="15.031265"><ele>14.0</ele><time>2026-05-02T12:30:25.981Z</time></trkpt><trkpt lat="40.17774" lon="15.0311667"><ele>13.999999999999998</ele><time>2026-05-02T12:30:26.981Z</time></trkpt><trkpt lat="40.1778133" lon="15.0310633"><ele>13.999999999999998</ele><time>2026-05-02T12:30:27.98Z</time></trkpt><trkpt lat="40.1778917" lon="15.03096"><ele>14.0</ele><time>2026-05-02T12:30:28.98Z</time></trkpt><trkpt lat="40.1779717" lon="15.0308583"><ele>14.0</ele><time>2026-05-02T12:30:29.98Z</time></trkpt><trkpt lat="40.1780417" lon="15.030765"><ele>14.799999999999999</ele><time>2026-05-02T12:30:30.981Z</time></trkpt><trkpt lat="40.1781117" lon="15.03067"><ele>15.599999999999998</ele><time>2026-05-02T12:30:31.981Z</time></trkpt><trkpt lat="40.1781733" lon="15.030585"><ele>16.4</ele><time>2026-05-02T12:30:32.981Z</time></trkpt><trkpt lat="40.1782417" lon="15.030505"><ele>17.2</ele><time>2026-05-02T12:30:33.98Z</time></trkpt><trkpt lat="40.1783083" lon="15.0304333"><ele>18.0</ele><time>2026-05-02T12:30:34.981Z</time></trkpt><trkpt lat="40.178375" lon="15.0303633"><ele>18.0</ele><time>2026-05-02T12:30:35.98Z</time></trkpt><trkpt lat="40.17844" lon="15.0303083"><ele>18.0</ele><time>2026-05-02T12:30:36.98Z</time></trkpt><trkpt lat="40.1785067" lon="15.0302517"><ele>18.0</ele><time>2026-05-02T12:30:37.98Z</time></trkpt><trkpt lat="40.1785683" lon="15.0301983"><ele>18.0</ele><time>2026-05-02T12:30:38.98Z</time></trkpt><trkpt lat="40.1786283" lon="15.030145"><ele>18.0</ele><time>2026-05-02T12:30:39.98Z</time></trkpt><trkpt lat="40.1786933" lon="15.0301"><ele>18.0</ele><time>2026-05-02T12:30:40.98Z</time></trkpt><trkpt lat="40.178765" lon="15.03005"><ele>18.0</ele><time>2026-05-02T12:30:41.98Z</time></trkpt><trkpt lat="40.1788417" lon="15.0300017"><ele>18.0</ele><time>2026-05-02T12:30:42.98Z</time></trkpt><trkpt lat="40.17892" lon="15.0299533"><ele>18.0</ele><time>2026-05-02T12:30:43.981Z</time></trkpt><trkpt lat="40.178995" lon="15.0299083"><ele>18.0</ele><time>2026-05-02T12:30:44.98Z</time></trkpt><trkpt lat="40.1790683" lon="15.0298683"><ele>18.0</ele><time>2026-05-02T12:30:45.981Z</time></trkpt><trkpt lat="40.179155" lon="15.02983"><ele>18.0</ele><time>2026-05-02T12:30:46.98Z</time></trkpt><trkpt lat="40.1792367" lon="15.0297817"><ele>17.6</ele><time>2026-05-02T12:30:47.98Z</time></trkpt><trkpt lat="40.1793267" lon="15.029735"><ele>17.200000000000003</ele><time>2026-05-02T12:30:48.98Z</time></trkpt><trkpt lat="40.1794167" lon="15.029685"><ele>16.8</ele><time>2026-05-02T12:30:49.981Z</time></trkpt><trkpt lat="40.1794983" lon="15.0296333"><ele>16.400000000000002</ele><time>2026-05-02T12:30:50.981Z</time></trkpt><trkpt lat="40.1795867" lon="15.0295817"><ele>16.0</ele><time>2026-05-02T12:30:51.981Z</time></trkpt><trkpt lat="40.17967" lon="15.0295333"><ele>15.999999999999998</ele><time>2026-05-02T12:30:52.98Z</time></trkpt><trkpt lat="40.1797483" lon="15.0294917"><ele>16.0</ele><time>2026-05-02T12:30:53.981Z</time></trkpt><trkpt lat="40.179825" lon="15.0294533"><ele>16.0</ele><time>2026-05-02T12:30:54.98Z</time></trkpt><trkpt lat="40.1799067" lon="15.0294083"><ele>16.0</ele><time>2026-05-02T12:30:55.98Z</time></trkpt><trkpt lat="40.1799917" lon="15.0293583"><ele>15.999999999999998</ele><time>2026-05-02T12:30:56.98Z</time></trkpt><trkpt lat="40.1800833" lon="15.029305"><ele>16.0</ele><time>2026-05-02T12:30:57.981Z</time></trkpt><trkpt lat="40.18017" lon="15.0292517"><ele>15.4</ele><time>2026-05-02T12:30:58.98Z</time></trkpt><trkpt lat="40.1802567" lon="15.0291917"><ele>14.8</ele><time>2026-05-02T12:30:59.981Z</time></trkpt><trkpt lat="40.1803367" lon="15.0291367"><ele>14.200000000000001</ele><time>2026-05-02T12:31:00.98Z</time></trkpt><trkpt lat="40.1804233" lon="15.0290733"><ele>13.600000000000001</ele><time>2026-05-02T12:31:01.981Z</time></trkpt><trkpt lat="40.18051" lon="15.029005"><ele>13.0</ele><time>2026-05-02T12:31:02.981Z</time></trkpt><trkpt lat="40.1805967" lon="15.0289383"><ele>14.0</ele><time>2026-05-02T12:31:03.981Z</time></trkpt><trkpt lat="40.1806833" lon="15.028865"><ele>15.0</ele><time>2026-05-02T12:31:04.981Z</time></trkpt><trkpt lat="40.1807767" lon="15.0287917"><ele>16.0</ele><time>2026-05-02T12:31:05.98Z</time></trkpt><trkpt lat="40.1808683" lon="15.0287167"><ele>17.0</ele><time>2026-05-02T12:31:06.98Z</time></trkpt><trkpt lat="40.18096" lon="15.028645"><ele>18.0</ele><time>2026-05-02T12:31:07.98Z</time></trkpt><trkpt lat="40.1810533" lon="15.0285733"><ele>18.0</ele><time>2026-05-02T12:31:08.98Z</time></trkpt><trkpt lat="40.181145" lon="15.028495"><ele>18.0</ele><time>2026-05-02T12:31:09.981Z</time></trkpt><trkpt lat="40.1812283" lon="15.02843"><ele>18.0</ele><time>2026-05-02T12:31:10.981Z</time></trkpt><trkpt lat="40.1813067" lon="15.02837"><ele>18.0</ele><time>2026-05-02T12:31:11.98Z</time></trkpt><trkpt lat="40.1813833" lon="15.028305"><ele>18.0</ele><time>2026-05-02T12:31:12.98Z</time></trkpt><trkpt lat="40.181465" lon="15.0282433"><ele>17.2</ele><time>2026-05-02T12:31:13.98Z</time></trkpt><trkpt lat="40.1815533" lon="15.0281733"><ele>16.4</ele><time>2026-05-02T12:31:14.981Z</time></trkpt><trkpt lat="40.1816433" lon="15.02811"><ele>15.599999999999998</ele><time>2026-05-02T12:31:15.98Z</time></trkpt><trkpt lat="40.1817283" lon="15.028045"><ele>14.799999999999999</ele><time>2026-05-02T12:31:16.98Z</time></trkpt><trkpt lat="40.1818033" lon="15.0279933"><ele>14.0</ele><time>2026-05-02T12:31:17.98Z</time></trkpt><trkpt lat="40.1818867" lon="15.027935"><ele>14.0</ele><time>2026-05-02T12:31:18.981Z</time></trkpt><trkpt lat="40.1819767" lon="15.027885"><ele>13.999999999999998</ele><time>2026-05-02T12:31:19.98Z</time></trkpt><trkpt lat="40.1820783" lon="15.02783"><ele>13.999999999999998</ele><time>2026-05-02T12:31:20.98Z</time></trkpt><trkpt lat="40.1821833" lon="15.027775"><ele>14.0</ele><time>2026-05-02T12:31:21.98Z</time></trkpt><trkpt lat="40.1822817" lon="15.02773"><ele>14.0</ele><time>2026-05-02T12:31:22.981Z</time></trkpt><trkpt lat="40.1823817" lon="15.0276867"><ele>14.399999999999999</ele><time>2026-05-02T12:31:23.98Z</time></trkpt><trkpt lat="40.1824817" lon="15.02764"><ele>14.799999999999999</ele><time>2026-05-02T12:31:24.98Z</time></trkpt><trkpt lat="40.182575" lon="15.027595"><ele>15.200000000000001</ele><time>2026-05-02T12:31:25.98Z</time></trkpt><trkpt lat="40.1826683" lon="15.0275533"><ele>15.600000000000001</ele><time>2026-05-02T12:31:26.98Z</time></trkpt><trkpt lat="40.1827667" lon="15.0275167"><ele>16.0</ele><time>2026-05-02T12:31:27.98Z</time></trkpt><trkpt lat="40.1828633" lon="15.0274783"><ele>15.4</ele><time>2026-05-02T12:31:28.98Z</time></trkpt><trkpt lat="40.1829583" lon="15.02744"><ele>14.8</ele><time>2026-05-02T12:31:29.98Z</time></trkpt><trkpt lat="40.1830583" lon="15.0273933"><ele>14.200000000000001</ele><time>2026-05-02T12:31:30.98Z</time></trkpt><trkpt lat="40.1831617" lon="15.0273417"><ele>13.600000000000001</ele><time>2026-05-02T12:31:31.98Z</time></trkpt><trkpt lat="40.1832733" lon="15.0272833"><ele>13.0</ele><time>2026-05-02T12:31:32.98Z</time></trkpt><trkpt lat="40.18339" lon="15.0272283"><ele>13.0</ele><time>2026-05-02T12:31:33.981Z</time></trkpt><trkpt lat="40.1835033" lon="15.0271833"><ele>13.0</ele><time>2026-05-02T12:31:34.98Z</time></trkpt><trkpt lat="40.1836183" lon="15.0271333"><ele>13.0</ele><time>2026-05-02T12:31:35.98Z</time></trkpt><trkpt lat="40.183735" lon="15.0270917"><ele>13.0</ele><time>2026-05-02T12:31:36.981Z</time></trkpt><trkpt lat="40.1838533" lon="15.0270417"><ele>13.0</ele><time>2026-05-02T12:31:37.98Z</time></trkpt><trkpt lat="40.1839733" lon="15.02699"><ele>13.0</ele><time>2026-05-02T12:31:38.98Z</time></trkpt><trkpt lat="40.18409" lon="15.0269317"><ele>13.0</ele><time>2026-05-02T12:31:39.98Z</time></trkpt><trkpt lat="40.184205" lon="15.0268717"><ele>13.0</ele><time>2026-05-02T12:31:40.98Z</time></trkpt><trkpt lat="40.1843217" lon="15.02682"><ele>13.75</ele><time>2026-05-02T12:31:41.981Z</time></trkpt><trkpt lat="40.1844367" lon="15.0267633"><ele>14.5</ele><time>2026-05-02T12:31:42.98Z</time></trkpt><trkpt lat="40.18455" lon="15.0267117"><ele>15.25</ele><time>2026-05-02T12:31:43.981Z</time></trkpt><trkpt lat="40.1846583" lon="15.02666"><ele>16.0</ele><time>2026-05-02T12:31:44.981Z</time></trkpt><trkpt lat="40.1847717" lon="15.0266033"><ele>14.25</ele><time>2026-05-02T12:31:45.98Z</time></trkpt><trkpt lat="40.1848783" lon="15.0265583"><ele>12.5</ele><time>2026-05-02T12:31:46.98Z</time></trkpt><trkpt lat="40.1849883" lon="15.02651"><ele>10.75</ele><time>2026-05-02T12:31:47.98Z</time></trkpt><trkpt lat="40.1851017" lon="15.0264583"><ele>9.0</ele><time>2026-05-02T12:31:48.98Z</time></trkpt><trkpt lat="40.18521" lon="15.026405"><ele>9.0</ele><time>2026-05-02T12:31:49.98Z</time></trkpt><trkpt lat="40.1853233" lon="15.0263517"><ele>9.0</ele><time>2026-05-02T12:31:50.981Z</time></trkpt><trkpt lat="40.1854283" lon="15.0262917"><ele>9.0</ele><time>2026-05-02T12:31:51.98Z</time></trkpt><trkpt lat="40.18553" lon="15.026225"><ele>9.0</ele><time>2026-05-02T12:31:52.981Z</time></trkpt><trkpt lat="40.1856267" lon="15.0261567"><ele>9.0</ele><time>2026-05-02T12:31:53.981Z</time></trkpt><trkpt lat="40.1857183" lon="15.0260817"><ele>9.0</ele><time>2026-05-02T12:31:54.98Z</time></trkpt><trkpt lat="40.18581" lon="15.0260133"><ele>9.0</ele><time>2026-05-02T12:31:55.981Z</time></trkpt><trkpt lat="40.1858967" lon="15.0259417"><ele>9.0</ele><time>2026-05-02T12:31:56.98Z</time></trkpt><trkpt lat="40.1859833" lon="15.0258767"><ele>9.0</ele><time>2026-05-02T12:31:57.98Z</time></trkpt><trkpt lat="40.18607" lon="15.025805"><ele>9.0</ele><time>2026-05-02T12:31:58.981Z</time></trkpt><trkpt lat="40.18615" lon="15.0257417"><ele>9.0</ele><time>2026-05-02T12:31:59.98Z</time></trkpt><trkpt lat="40.186225" lon="15.025685"><ele>9.0</ele><time>2026-05-02T12:32:00.98Z</time></trkpt><trkpt lat="40.1863083" lon="15.0256283"><ele>9.0</ele><time>2026-05-02T12:32:01.981Z</time></trkpt><trkpt lat="40.1863883" lon="15.0255667"><ele>9.0</ele><time>2026-05-02T12:32:02.98Z</time></trkpt><trkpt lat="40.1864633" lon="15.0255067"><ele>9.666666666666666</ele><time>2026-05-02T12:32:03.98Z</time></trkpt><trkpt lat="40.1865367" lon="15.0254467"><ele>10.333333333333332</ele><time>2026-05-02T12:32:04.98Z</time></trkpt><trkpt lat="40.186615" lon="15.0253833"><ele>11.0</ele><time>2026-05-02T12:32:05.981Z</time></trkpt><trkpt lat="40.1866867" lon="15.0253267"><ele>11.666666666666666</ele><time>2026-05-02T12:32:06.98Z</time></trkpt><trkpt lat="40.1867583" lon="15.0252733"><ele>12.333333333333332</ele><time>2026-05-02T12:32:07.98Z</time></trkpt><trkpt lat="40.1868333" lon="15.0252033"><ele>13.0</ele><time>2026-05-02T12:32:08.98Z</time></trkpt><trkpt lat="40.1869183" lon="15.0251367"><ele>13.0</ele><time>2026-05-02T12:32:09.98Z</time></trkpt><trkpt lat="40.187005" lon="15.02508"><ele>13.0</ele><time>2026-05-02T12:32:10.981Z</time></trkpt><trkpt lat="40.187085" lon="15.0250183"><ele>13.0</ele><time>2026-05-02T12:32:11.98Z</time></trkpt><trkpt lat="40.187175" lon="15.0249567"><ele>13.0</ele><time>2026-05-02T12:32:12.98Z</time></trkpt><trkpt lat="40.1872617" lon="15.0248983"><ele>13.0</ele><time>2026-05-02T12:32:13.98Z</time></trkpt><trkpt lat="40.18735" lon="15.0248367"><ele>13.0</ele><time>2026-05-02T12:32:14.981Z</time></trkpt><trkpt lat="40.1874417" lon="15.02477"><ele>13.0</ele><time>2026-05-02T12:32:15.98Z</time></trkpt><trkpt lat="40.1875283" lon="15.0247017"><ele>13.0</ele><time>2026-05-02T12:32:16.981Z</time></trkpt><trkpt lat="40.1876233" lon="15.024635"><ele>13.0</ele><time>2026-05-02T12:32:17.981Z</time></trkpt><trkpt lat="40.1877167" lon="15.0245633"><ele>13.0</ele><time>2026-05-02T12:32:18.98Z</time></trkpt><trkpt lat="40.1878" lon="15.0244883"><ele>13.0</ele><time>2026-05-02T12:32:19.98Z</time></trkpt><trkpt lat="40.1878867" lon="15.0244167"><ele>13.0</ele><time>2026-05-02T12:32:20.98Z</time></trkpt><trkpt lat="40.187975" lon="15.0243383"><ele>13.0</ele><time>2026-05-02T12:32:21.981Z</time></trkpt><trkpt lat="40.1880567" lon="15.0242783"><ele>13.0</ele><time>2026-05-02T12:32:22.981Z</time></trkpt><trkpt lat="40.188145" lon="15.0242233"><ele>13.0</ele><time>2026-05-02T12:32:23.98Z</time></trkpt><trkpt lat="40.1882333" lon="15.0241583"><ele>12.8</ele><time>2026-05-02T12:32:24.98Z</time></trkpt><trkpt lat="40.1883167" lon="15.0240883"><ele>12.600000000000001</ele><time>2026-05-02T12:32:25.981Z</time></trkpt><trkpt lat="40.1884017" lon="15.0240183"><ele>12.399999999999999</ele><time>2026-05-02T12:32:26.981Z</time></trkpt><trkpt lat="40.18849" lon="15.0239517"><ele>12.2</ele><time>2026-05-02T12:32:27.98Z</time></trkpt><trkpt lat="40.1885683" lon="15.023885"><ele>12.0</ele><time>2026-05-02T12:32:28.98Z</time></trkpt><trkpt lat="40.1886633" lon="15.023815"><ele>12.0</ele><time>2026-05-02T12:32:29.98Z</time></trkpt><trkpt lat="40.1887533" lon="15.023755"><ele>12.0</ele><time>2026-05-02T12:32:30.98Z</time></trkpt><trkpt lat="40.18885" lon="15.0236933"><ele>12.0</ele><time>2026-05-02T12:32:31.981Z</time></trkpt><trkpt lat="40.18894" lon="15.0236333"><ele>12.0</ele><time>2026-05-02T12:32:32.981Z</time></trkpt><trkpt lat="40.1890333" lon="15.023585"><ele>12.0</ele><time>2026-05-02T12:32:33.981Z</time></trkpt><trkpt lat="40.18913" lon="15.0235333"><ele>12.399999999999999</ele><time>2026-05-02T12:32:34.98Z</time></trkpt><trkpt lat="40.1892283" lon="15.0234783"><ele>12.799999999999999</ele><time>2026-05-02T12:32:35.98Z</time></trkpt><trkpt lat="40.1893233" lon="15.0234183"><ele>13.2</ele><time>2026-05-02T12:32:36.98Z</time></trkpt><trkpt lat="40.1894233" lon="15.0233533"><ele>13.6</ele><time>2026-05-02T12:32:37.98Z</time></trkpt><trkpt lat="40.1895283" lon="15.0233017"><ele>14.0</ele><time>2026-05-02T12:32:38.98Z</time></trkpt><trkpt lat="40.18963" lon="15.023245"><ele>14.399999999999999</ele><time>2026-05-02T12:32:39.98Z</time></trkpt><trkpt lat="40.1897317" lon="15.02319"><ele>14.799999999999999</ele><time>2026-05-02T12:32:40.981Z</time></trkpt><trkpt lat="40.1898317" lon="15.023135"><ele>15.200000000000001</ele><time>2026-05-02T12:32:41.98Z</time></trkpt><trkpt lat="40.1899317" lon="15.02308"><ele>15.600000000000001</ele><time>2026-05-02T12:32:42.981Z</time></trkpt><trkpt lat="40.1900283" lon="15.023025"><ele>16.0</ele><time>2026-05-02T12:32:43.981Z</time></trkpt><trkpt lat="40.19013" lon="15.0229733"><ele>16.0</ele><time>2026-05-02T12:32:44.98Z</time></trkpt><trkpt lat="40.1902283" lon="15.0229217"><ele>16.0</ele><time>2026-05-02T12:32:45.981Z</time></trkpt><trkpt lat="40.1903267" lon="15.0228667"><ele>16.0</ele><time>2026-05-02T12:32:46.98Z</time></trkpt><trkpt lat="40.1904183" lon="15.0228133"><ele>16.0</ele><time>2026-05-02T12:32:47.98Z</time></trkpt><trkpt lat="40.190515" lon="15.0227567"><ele>16.0</ele><time>2026-05-02T12:32:48.981Z</time></trkpt><trkpt lat="40.190615" lon="15.0227017"><ele>15.600000000000001</ele><time>2026-05-02T12:32:49.981Z</time></trkpt><trkpt lat="40.1907167" lon="15.0226417"><ele>15.200000000000001</ele><time>2026-05-02T12:32:50.98Z</time></trkpt><trkpt lat="40.19081" lon="15.0225917"><ele>14.799999999999999</ele><time>2026-05-02T12:32:51.98Z</time></trkpt><trkpt lat="40.1908983" lon="15.02254"><ele>14.399999999999999</ele><time>2026-05-02T12:32:52.98Z</time></trkpt><trkpt lat="40.19099" lon="15.022495"><ele>14.0</ele><time>2026-05-02T12:32:53.981Z</time></trkpt><trkpt lat="40.1910867" lon="15.022455"><ele>14.0</ele><time>2026-05-02T12:32:54.98Z</time></trkpt><trkpt lat="40.19118" lon="15.0224317"><ele>13.999999999999998</ele><time>2026-05-02T12:32:55.981Z</time></trkpt><trkpt lat="40.19127" lon="15.022425"><ele>13.999999999999998</ele><time>2026-05-02T12:32:56.98Z</time></trkpt><trkpt lat="40.19136" lon="15.02242"><ele>14.0</ele><time>2026-05-02T12:32:57.981Z</time></trkpt><trkpt lat="40.1914483" lon="15.0224317"><ele>14.0</ele><time>2026-05-02T12:32:58.981Z</time></trkpt><trkpt lat="40.1915317" lon="15.0224617"><ele>16.799999999999997</ele><time>2026-05-02T12:32:59.981Z</time></trkpt><trkpt lat="40.19162" lon="15.022495"><ele>19.599999999999998</ele><time>2026-05-02T12:33:00.981Z</time></trkpt><trkpt lat="40.191705" lon="15.0225233"><ele>22.4</ele><time>2026-05-02T12:33:01.98Z</time></trkpt><trkpt lat="40.1917933" lon="15.0225567"><ele>25.2</ele><time>2026-05-02T12:33:02.98Z</time></trkpt><trkpt lat="40.19189" lon="15.0225917"><ele>28.0</ele><time>2026-05-02T12:33:03.98Z</time></trkpt><trkpt lat="40.1919883" lon="15.0226233"><ele>28.0</ele><time>2026-05-02T12:33:04.981Z</time></trkpt><trkpt lat="40.1920983" lon="15.0226517"><ele>27.999999999999996</ele><time>2026-05-02T12:33:05.98Z</time></trkpt><trkpt lat="40.1922017" lon="15.0226633"><ele>27.999999999999996</ele><time>2026-05-02T12:33:06.98Z</time></trkpt><trkpt lat="40.1923017" lon="15.0226517"><ele>28.0</ele><time>2026-05-02T12:33:07.98Z</time></trkpt><trkpt lat="40.1923983" lon="15.0226117"><ele>28.0</ele><time>2026-05-02T12:33:08.98Z</time></trkpt><trkpt lat="40.1924817" lon="15.0225533"><ele>26.4</ele><time>2026-05-02T12:33:09.981Z</time></trkpt><trkpt lat="40.1925667" lon="15.02248"><ele>24.799999999999997</ele><time>2026-05-02T12:33:10.98Z</time></trkpt><trkpt lat="40.1926533" lon="15.0223967"><ele>23.2</ele><time>2026-05-02T12:33:11.98Z</time></trkpt><trkpt lat="40.19274" lon="15.022315"><ele>21.6</ele><time>2026-05-02T12:33:12.98Z</time></trkpt><trkpt lat="40.192825" lon="15.0222333"><ele>20.0</ele><time>2026-05-02T12:33:13.98Z</time></trkpt><trkpt lat="40.192915" lon="15.0221583"><ele>20.0</ele><time>2026-05-02T12:33:14.98Z</time></trkpt><trkpt lat="40.1930033" lon="15.02208"><ele>20.0</ele><time>2026-05-02T12:33:15.98Z</time></trkpt><trkpt lat="40.1930867" lon="15.0220067"><ele>20.0</ele><time>2026-05-02T12:33:16.98Z</time></trkpt><trkpt lat="40.1931683" lon="15.0219367"><ele>20.0</ele><time>2026-05-02T12:33:17.98Z</time></trkpt><trkpt lat="40.19325" lon="15.0218667"><ele>20.0</ele><time>2026-05-02T12:33:18.981Z</time></trkpt><trkpt lat="40.1933267" lon="15.0217967"><ele>20.4</ele><time>2026-05-02T12:33:19.98Z</time></trkpt><trkpt lat="40.1934017" lon="15.0217183"><ele>20.8</ele><time>2026-05-02T12:33:20.98Z</time></trkpt><trkpt lat="40.1934833" lon="15.0216417"><ele>21.200000000000003</ele><time>2026-05-02T12:33:21.98Z</time></trkpt><trkpt lat="40.19356" lon="15.0215767"><ele>21.6</ele><time>2026-05-02T12:33:22.98Z</time></trkpt><trkpt lat="40.19364" lon="15.0214967"><ele>22.0</ele><time>2026-05-02T12:33:23.981Z</time></trkpt><trkpt lat="40.1937167" lon="15.02142"><ele>22.0</ele><time>2026-05-02T12:33:24.98Z</time></trkpt><trkpt lat="40.1937867" lon="15.0213533"><ele>22.0</ele><time>2026-05-02T12:33:25.98Z</time></trkpt><trkpt lat="40.1938567" lon="15.02129"><ele>22.0</ele><time>2026-05-02T12:33:26.98Z</time></trkpt><trkpt lat="40.1939183" lon="15.0212083"><ele>22.0</ele><time>2026-05-02T12:33:27.98Z</time></trkpt><trkpt lat="40.19397" lon="15.02113"><ele>22.0</ele><time>2026-05-02T12:33:28.981Z</time></trkpt><trkpt lat="40.19402" lon="15.021035"><ele>22.0</ele><time>2026-05-02T12:33:29.981Z</time></trkpt><trkpt lat="40.1940967" lon="15.0209683"><ele>21.8</ele><time>2026-05-02T12:33:30.98Z</time></trkpt><trkpt lat="40.1941717" lon="15.0209033"><ele>21.6</ele><time>2026-05-02T12:33:31.981Z</time></trkpt><trkpt lat="40.1942583" lon="15.0208533"><ele>21.400000000000002</ele><time>2026-05-02T12:33:32.98Z</time></trkpt><trkpt lat="40.194365" lon="15.0208183"><ele>21.200000000000003</ele><time>2026-05-02T12:33:33.98Z</time></trkpt><trkpt lat="40.1944633" lon="15.0207867"><ele>21.0</ele><time>2026-05-02T12:33:34.98Z</time></trkpt><trkpt lat="40.1945667" lon="15.0207733"><ele>21.0</ele><time>2026-05-02T12:33:35.981Z</time></trkpt><trkpt lat="40.19467" lon="15.02076"><ele>21.0</ele><time>2026-05-02T12:33:36.98Z</time></trkpt><trkpt lat="40.194755" lon="15.0207183"><ele>21.0</ele><time>2026-05-02T12:33:37.98Z</time></trkpt><trkpt lat="40.1948367" lon="15.0206617"><ele>21.0</ele><time>2026-05-02T12:33:38.979Z</time></trkpt><trkpt lat="40.194905" lon="15.0205917"><ele>21.0</ele><time>2026-05-02T12:33:39.98Z</time></trkpt><trkpt lat="40.194975" lon="15.0205067"><ele>22.200000000000003</ele><time>2026-05-02T12:33:40.98Z</time></trkpt><trkpt lat="40.1950517" lon="15.02043"><ele>23.400000000000002</ele><time>2026-05-02T12:33:41.979Z</time></trkpt><trkpt lat="40.1951417" lon="15.02036"><ele>24.6</ele><time>2026-05-02T12:33:42.98Z</time></trkpt><trkpt lat="40.1952367" lon="15.020305"><ele>25.8</ele><time>2026-05-02T12:33:43.979Z</time></trkpt><trkpt lat="40.195335" lon="15.0202467"><ele>27.0</ele><time>2026-05-02T12:33:44.979Z</time></trkpt><trkpt lat="40.19544" lon="15.0201917"><ele>27.0</ele><time>2026-05-02T12:33:45.979Z</time></trkpt><trkpt lat="40.19555" lon="15.0201383"><ele>27.0</ele><time>2026-05-02T12:33:46.98Z</time></trkpt><trkpt lat="40.19566" lon="15.02007"><ele>27.0</ele><time>2026-05-02T12:33:47.979Z</time></trkpt><trkpt lat="40.1957667" lon="15.02"><ele>27.0</ele><time>2026-05-02T12:33:48.98Z</time></trkpt><trkpt lat="40.1958733" lon="15.0199383"><ele>26.0</ele><time>2026-05-02T12:33:49.979Z</time></trkpt><trkpt lat="40.1959617" lon="15.0198867"><ele>25.000000000000004</ele><time>2026-05-02T12:33:50.979Z</time></trkpt><trkpt lat="40.1960417" lon="15.0198333"><ele>24.0</ele><time>2026-05-02T12:33:51.979Z</time></trkpt><trkpt lat="40.19613" lon="15.0197633"><ele>23.0</ele><time>2026-05-02T12:33:52.979Z</time></trkpt><trkpt lat="40.196215" lon="15.0196967"><ele>22.0</ele><time>2026-05-02T12:33:53.98Z</time></trkpt><trkpt lat="40.1962983" lon="15.019635"><ele>22.0</ele><time>2026-05-02T12:33:54.979Z</time></trkpt><trkpt lat="40.1963783" lon="15.0195583"><ele>22.0</ele><time>2026-05-02T12:33:55.979Z</time></trkpt><trkpt lat="40.196455" lon="15.019485"><ele>22.0</ele><time>2026-05-02T12:33:56.979Z</time></trkpt><trkpt lat="40.1965433" lon="15.019415"><ele>22.0</ele><time>2026-05-02T12:33:57.979Z</time></trkpt><trkpt lat="40.1966267" lon="15.0193417"><ele>22.0</ele><time>2026-05-02T12:33:58.979Z</time></trkpt><trkpt lat="40.1967067" lon="15.0192717"><ele>22.0</ele><time>2026-05-02T12:33:59.979Z</time></trkpt><trkpt lat="40.19679" lon="15.0192033"><ele>22.0</ele><time>2026-05-02T12:34:00.98Z</time></trkpt><trkpt lat="40.1968867" lon="15.0191433"><ele>22.0</ele><time>2026-05-02T12:34:01.98Z</time></trkpt><trkpt lat="40.1969783" lon="15.0190817"><ele>22.0</ele><time>2026-05-02T12:34:02.979Z</time></trkpt><trkpt lat="40.1970817" lon="15.01903"><ele>22.0</ele><time>2026-05-02T12:34:03.979Z</time></trkpt><trkpt lat="40.1971917" lon="15.0189883"><ele>22.0</ele><time>2026-05-02T12:34:04.979Z</time></trkpt><trkpt lat="40.1972983" lon="15.01895"><ele>22.0</ele><time>2026-05-02T12:34:05.979Z</time></trkpt><trkpt lat="40.1974117" lon="15.018925"><ele>22.0</ele><time>2026-05-02T12:34:06.979Z</time></trkpt><trkpt lat="40.1975133" lon="15.01888"><ele>22.0</ele><time>2026-05-02T12:34:07.979Z</time></trkpt><trkpt lat="40.197605" lon="15.0188333"><ele>22.0</ele><time>2026-05-02T12:34:08.979Z</time></trkpt><trkpt lat="40.1976817" lon="15.0187867"><ele>23.0</ele><time>2026-05-02T12:34:09.98Z</time></trkpt><trkpt lat="40.1977817" lon="15.01874"><ele>24.0</ele><time>2026-05-02T12:34:10.979Z</time></trkpt><trkpt lat="40.19787" lon="15.018685"><ele>25.000000000000004</ele><time>2026-05-02T12:34:11.979Z</time></trkpt><trkpt lat="40.197965" lon="15.0186283"><ele>26.0</ele><time>2026-05-02T12:34:12.98Z</time></trkpt><trkpt lat="40.1980683" lon="15.0185733"><ele>27.0</ele><time>2026-05-02T12:34:13.979Z</time></trkpt><trkpt lat="40.1981817" lon="15.0185217"><ele>26.75</ele><time>2026-05-02T12:34:14.98Z</time></trkpt><trkpt lat="40.1982917" lon="15.0184633"><ele>26.5</ele><time>2026-05-02T12:34:15.979Z</time></trkpt><trkpt lat="40.1984017" lon="15.0183983"><ele>26.25</ele><time>2026-05-02T12:34:16.98Z</time></trkpt><trkpt lat="40.1985083" lon="15.0183433"><ele>26.0</ele><time>2026-05-02T12:34:17.979Z</time></trkpt><trkpt lat="40.198615" lon="15.0182867"><ele>26.0</ele><time>2026-05-02T12:34:18.979Z</time></trkpt><trkpt lat="40.1987167" lon="15.0182317"><ele>26.0</ele><time>2026-05-02T12:34:19.979Z</time></trkpt><trkpt lat="40.1988067" lon="15.0181783"><ele>26.0</ele><time>2026-05-02T12:34:20.98Z</time></trkpt><trkpt lat="40.1989033" lon="15.018135"><ele>26.0</ele><time>2026-05-02T12:34:21.979Z</time></trkpt><trkpt lat="40.1989867" lon="15.0180917"><ele>26.0</ele><time>2026-05-02T12:34:22.979Z</time></trkpt><trkpt lat="40.1990733" lon="15.0180333"><ele>27.6</ele><time>2026-05-02T12:34:23.979Z</time></trkpt><trkpt lat="40.1991667" lon="15.0179817"><ele>29.200000000000003</ele><time>2026-05-02T12:34:24.979Z</time></trkpt><trkpt lat="40.1992633" lon="15.0179233"><ele>30.799999999999997</ele><time>2026-05-02T12:34:25.98Z</time></trkpt><trkpt lat="40.1993567" lon="15.0178683"><ele>32.4</ele><time>2026-05-02T12:34:26.98Z</time></trkpt><trkpt lat="40.19945" lon="15.017805"><ele>34.0</ele><time>2026-05-02T12:34:27.979Z</time></trkpt><trkpt lat="40.19954" lon="15.01774"><ele>34.0</ele><time>2026-05-02T12:34:28.979Z</time></trkpt><trkpt lat="40.1996267" lon="15.017685"><ele>34.0</ele><time>2026-05-02T12:34:29.979Z</time></trkpt><trkpt lat="40.19971" lon="15.017635"><ele>34.0</ele><time>2026-05-02T12:34:30.979Z</time></trkpt><trkpt lat="40.1997933" lon="15.0175767"><ele>34.0</ele><time>2026-05-02T12:34:31.98Z</time></trkpt><trkpt lat="40.1998817" lon="15.017515"><ele>34.0</ele><time>2026-05-02T12:34:32.98Z</time></trkpt><trkpt lat="40.19998" lon="15.0174533"><ele>33.4</ele><time>2026-05-02T12:34:33.979Z</time></trkpt><trkpt lat="40.2000767" lon="15.017395"><ele>32.8</ele><time>2026-05-02T12:34:34.979Z</time></trkpt><trkpt lat="40.2001683" lon="15.01733"><ele>32.2</ele><time>2026-05-02T12:34:35.979Z</time></trkpt><trkpt lat="40.200265" lon="15.0172717"><ele>31.6</ele><time>2026-05-02T12:34:36.98Z</time></trkpt><trkpt lat="40.20035" lon="15.017225"><ele>31.0</ele><time>2026-05-02T12:34:37.98Z</time></trkpt><trkpt lat="40.2004333" lon="15.0171817"><ele>31.0</ele><time>2026-05-02T12:34:38.98Z</time></trkpt><trkpt lat="40.2005267" lon="15.0171483"><ele>31.0</ele><time>2026-05-02T12:34:39.98Z</time></trkpt><trkpt lat="40.20062" lon="15.0171283"><ele>31.0</ele><time>2026-05-02T12:34:40.98Z</time></trkpt><trkpt lat="40.20071" lon="15.017115"><ele>31.0</ele><time>2026-05-02T12:34:41.979Z</time></trkpt><trkpt lat="40.2007967" lon="15.0171267"><ele>31.0</ele><time>2026-05-02T12:34:42.98Z</time></trkpt><trkpt lat="40.2008833" lon="15.017165"><ele>31.500000000000004</ele><time>2026-05-02T12:34:43.979Z</time></trkpt><trkpt lat="40.2009467" lon="15.0172333"><ele>32.0</ele><time>2026-05-02T12:34:44.98Z</time></trkpt><trkpt lat="40.2010083" lon="15.0173167"><ele>32.5</ele><time>2026-05-02T12:34:45.98Z</time></trkpt><trkpt lat="40.2010767" lon="15.0173933"><ele>33.0</ele><time>2026-05-02T12:34:46.979Z</time></trkpt><trkpt lat="40.2011533" lon="15.017465"><ele>33.5</ele><time>2026-05-02T12:34:47.979Z</time></trkpt><trkpt lat="40.2012317" lon="15.017505"><ele>34.0</ele><time>2026-05-02T12:34:48.979Z</time></trkpt><trkpt lat="40.2013033" lon="15.0175167"><ele>34.0</ele><time>2026-05-02T12:34:49.98Z</time></trkpt><trkpt lat="40.2013983" lon="15.017505"><ele>34.0</ele><time>2026-05-02T12:34:50.98Z</time></trkpt><trkpt lat="40.20149" lon="15.0174367"><ele>34.0</ele><time>2026-05-02T12:34:51.979Z</time></trkpt><trkpt lat="40.2015717" lon="15.0173433"><ele>34.0</ele><time>2026-05-02T12:34:52.979Z</time></trkpt><trkpt lat="40.201645" lon="15.017245"><ele>34.0</ele><time>2026-05-02T12:34:53.979Z</time></trkpt><trkpt lat="40.2017133" lon="15.017155"><ele>36.5</ele><time>2026-05-02T12:34:54.98Z</time></trkpt><trkpt lat="40.2017767" lon="15.0170817"><ele>39.0</ele><time>2026-05-02T12:34:55.979Z</time></trkpt><trkpt lat="40.2018267" lon="15.017015"><ele>41.5</ele><time>2026-05-02T12:34:56.979Z</time></trkpt><trkpt lat="40.2018567" lon="15.0169333"><ele>44.0</ele><time>2026-05-02T12:34:57.979Z</time></trkpt><trkpt lat="40.201855" lon="15.0168167"><ele>46.49999999999999</ele><time>2026-05-02T12:34:58.979Z</time></trkpt><trkpt lat="40.2018433" lon="15.0167283"><ele>49.0</ele><time>2026-05-02T12:34:59.979Z</time></trkpt><trkpt lat="40.2018067" lon="15.016635"><ele>49.0</ele><time>2026-05-02T12:35:00.979Z</time></trkpt><trkpt lat="40.2017583" lon="15.0165333"><ele>49.0</ele><time>2026-05-02T12:35:01.979Z</time></trkpt><trkpt lat="40.2017067" lon="15.0164283"><ele>49.0</ele><time>2026-05-02T12:35:02.98Z</time></trkpt><trkpt lat="40.2016667" lon="15.0163167"><ele>49.0</ele><time>2026-05-02T12:35:03.979Z</time></trkpt><trkpt lat="40.20164" lon="15.0162033"><ele>49.0</ele><time>2026-05-02T12:35:04.979Z</time></trkpt><trkpt lat="40.2016317" lon="15.0160833"><ele>49.0</ele><time>2026-05-02T12:35:05.98Z</time></trkpt><trkpt lat="40.2016383" lon="15.0159783"><ele>49.0</ele><time>2026-05-02T12:35:06.979Z</time></trkpt><trkpt lat="40.2016633" lon="15.0158683"><ele>49.0</ele><time>2026-05-02T12:35:07.98Z</time></trkpt><trkpt lat="40.2017067" lon="15.0157633"><ele>49.0</ele><time>2026-05-02T12:35:08.98Z</time></trkpt><trkpt lat="40.2017583" lon="15.0156567"><ele>49.0</ele><time>2026-05-02T12:35:09.979Z</time></trkpt><trkpt lat="40.2018133" lon="15.015535"><ele>47.25</ele><time>2026-05-02T12:35:10.98Z</time></trkpt><trkpt lat="40.2018617" lon="15.0154033"><ele>45.5</ele><time>2026-05-02T12:35:11.979Z</time></trkpt><trkpt lat="40.20191" lon="15.0152717"><ele>43.75</ele><time>2026-05-02T12:35:12.98Z</time></trkpt><trkpt lat="40.2019633" lon="15.0151383"><ele>42.0</ele><time>2026-05-02T12:35:13.979Z</time></trkpt><trkpt lat="40.202025" lon="15.0150017"><ele>39.75</ele><time>2026-05-02T12:35:14.979Z</time></trkpt><trkpt lat="40.202095" lon="15.0148717"><ele>37.5</ele><time>2026-05-02T12:35:15.979Z</time></trkpt><trkpt lat="40.2021717" lon="15.0147517"><ele>35.25</ele><time>2026-05-02T12:35:16.98Z</time></trkpt><trkpt lat="40.2022383" lon="15.0146417"><ele>33.0</ele><time>2026-05-02T12:35:17.979Z</time></trkpt><trkpt lat="40.2023117" lon="15.0145383"><ele>36.2</ele><time>2026-05-02T12:35:18.979Z</time></trkpt><trkpt lat="40.2023717" lon="15.014435"><ele>39.4</ele><time>2026-05-02T12:35:19.98Z</time></trkpt><trkpt lat="40.202435" lon="15.014335"><ele>42.6</ele><time>2026-05-02T12:35:20.979Z</time></trkpt><trkpt lat="40.2024833" lon="15.0142333"><ele>45.800000000000004</ele><time>2026-05-02T12:35:21.979Z</time></trkpt><trkpt lat="40.2025167" lon="15.014125"><ele>49.0</ele><time>2026-05-02T12:35:22.979Z</time></trkpt><trkpt lat="40.202535" lon="15.014015"><ele>49.0</ele><time>2026-05-02T12:35:23.979Z</time></trkpt><trkpt lat="40.2025483" lon="15.0138967"><ele>49.0</ele><time>2026-05-02T12:35:24.979Z</time></trkpt><trkpt lat="40.2025633" lon="15.01378"><ele>49.0</ele><time>2026-05-02T12:35:25.979Z</time></trkpt><trkpt lat="40.2025817" lon="15.0136583"><ele>49.0</ele><time>2026-05-02T12:35:26.979Z</time></trkpt><trkpt lat="40.2026133" lon="15.01354"><ele>49.0</ele><time>2026-05-02T12:35:27.979Z</time></trkpt><trkpt lat="40.2026633" lon="15.01342"><ele>44.6</ele><time>2026-05-02T12:35:28.98Z</time></trkpt><trkpt lat="40.2027267" lon="15.0133017"><ele>40.2</ele><time>2026-05-02T12:35:29.98Z</time></trkpt><trkpt lat="40.202795" lon="15.01319"><ele>35.800000000000004</ele><time>2026-05-02T12:35:30.98Z</time></trkpt><trkpt lat="40.20286" lon="15.0130883"><ele>31.400000000000002</ele><time>2026-05-02T12:35:31.979Z</time></trkpt><trkpt lat="40.202925" lon="15.0129917"><ele>27.0</ele><time>2026-05-02T12:35:32.979Z</time></trkpt><trkpt lat="40.2029833" lon="15.0128917"><ele>27.0</ele><time>2026-05-02T12:35:33.98Z</time></trkpt><trkpt lat="40.2030433" lon="15.01279"><ele>27.000000000000004</ele><time>2026-05-02T12:35:34.979Z</time></trkpt><trkpt lat="40.2031033" lon="15.0126683"><ele>27.000000000000004</ele><time>2026-05-02T12:35:35.979Z</time></trkpt><trkpt lat="40.2031617" lon="15.01254"><ele>27.0</ele><time>2026-05-02T12:35:36.98Z</time></trkpt><trkpt lat="40.203215" lon="15.01241"><ele>27.0</ele><time>2026-05-02T12:35:37.979Z</time></trkpt><trkpt lat="40.2032783" lon="15.0122867"><ele>30.200000000000003</ele><time>2026-05-02T12:35:38.98Z</time></trkpt><trkpt lat="40.2033417" lon="15.0121867"><ele>33.400000000000006</ele><time>2026-05-02T12:35:39.979Z</time></trkpt><trkpt lat="40.2034133" lon="15.0121117"><ele>36.599999999999994</ele><time>2026-05-02T12:35:40.979Z</time></trkpt><trkpt lat="40.2034933" lon="15.01207"><ele>39.8</ele><time>2026-05-02T12:35:41.979Z</time></trkpt><trkpt lat="40.2035783" lon="15.012065"><ele>43.0</ele><time>2026-05-02T12:35:42.98Z</time></trkpt><trkpt lat="40.2036633" lon="15.0121033"><ele>43.0</ele><time>2026-05-02T12:35:43.979Z</time></trkpt><trkpt lat="40.2037383" lon="15.01217"><ele>43.0</ele><time>2026-05-02T12:35:44.979Z</time></trkpt><trkpt lat="40.2038333" lon="15.0122317"><ele>43.0</ele><time>2026-05-02T12:35:45.979Z</time></trkpt><trkpt lat="40.2039217" lon="15.0122417"><ele>43.0</ele><time>2026-05-02T12:35:46.979Z</time></trkpt><trkpt lat="40.2040017" lon="15.01221"><ele>43.0</ele><time>2026-05-02T12:35:47.98Z</time></trkpt><trkpt lat="40.20407" lon="15.0121383"><ele>44.2</ele><time>2026-05-02T12:35:48.98Z</time></trkpt><trkpt lat="40.2041167" lon="15.0120283"><ele>45.4</ele><time>2026-05-02T12:35:49.979Z</time></trkpt><trkpt lat="40.2041333" lon="15.0119017"><ele>46.6</ele><time>2026-05-02T12:35:50.979Z</time></trkpt><trkpt lat="40.2041467" lon="15.011775"><ele>47.800000000000004</ele><time>2026-05-02T12:35:51.979Z</time></trkpt><trkpt lat="40.2041617" lon="15.0116567"><ele>49.0</ele><time>2026-05-02T12:35:52.98Z</time></trkpt><trkpt lat="40.2041783" lon="15.011555"><ele>49.0</ele><time>2026-05-02T12:35:53.98Z</time></trkpt><trkpt lat="40.2042067" lon="15.011455"><ele>49.0</ele><time>2026-05-02T12:35:54.979Z</time></trkpt><trkpt lat="40.20426" lon="15.01136"><ele>49.0</ele><time>2026-05-02T12:35:55.979Z</time></trkpt><trkpt lat="40.20431" lon="15.0112717"><ele>49.0</ele><time>2026-05-02T12:35:56.979Z</time></trkpt><trkpt lat="40.2043817" lon="15.0111883"><ele>49.0</ele><time>2026-05-02T12:35:57.979Z</time></trkpt><trkpt lat="40.2044617" lon="15.0110983"><ele>49.0</ele><time>2026-05-02T12:35:58.979Z</time></trkpt><trkpt lat="40.204555" lon="15.0110033"><ele>49.0</ele><time>2026-05-02T12:35:59.98Z</time></trkpt><trkpt lat="40.2046517" lon="15.010915"><ele>49.0</ele><time>2026-05-02T12:36:00.979Z</time></trkpt><trkpt lat="40.2047533" lon="15.010825"><ele>49.0</ele><time>2026-05-02T12:36:01.979Z</time></trkpt><trkpt lat="40.2048533" lon="15.010735"><ele>49.0</ele><time>2026-05-02T12:36:02.979Z</time></trkpt><trkpt lat="40.2049467" lon="15.010665"><ele>49.0</ele><time>2026-05-02T12:36:03.98Z</time></trkpt><trkpt lat="40.2050383" lon="15.0106"><ele>49.0</ele><time>2026-05-02T12:36:04.979Z</time></trkpt><trkpt lat="40.20514" lon="15.0105467"><ele>49.0</ele><time>2026-05-02T12:36:05.98Z</time></trkpt><trkpt lat="40.2052483" lon="15.0105183"><ele>49.0</ele><time>2026-05-02T12:36:06.98Z</time></trkpt><trkpt lat="40.20536" lon="15.0104817"><ele>49.0</ele><time>2026-05-02T12:36:07.979Z</time></trkpt><trkpt lat="40.2054717" lon="15.01045"><ele>49.0</ele><time>2026-05-02T12:36:08.98Z</time></trkpt><trkpt lat="40.2055633" lon="15.010395"><ele>49.0</ele><time>2026-05-02T12:36:09.98Z</time></trkpt><trkpt lat="40.205655" lon="15.0103233"><ele>49.0</ele><time>2026-05-02T12:36:10.98Z</time></trkpt><trkpt lat="40.205745" lon="15.010235"><ele>49.0</ele><time>2026-05-02T12:36:11.98Z</time></trkpt><trkpt lat="40.2058183" lon="15.0101333"><ele>51.400000000000006</ele><time>2026-05-02T12:36:12.979Z</time></trkpt><trkpt lat="40.2058867" lon="15.010015"><ele>53.8</ele><time>2026-05-02T12:36:13.979Z</time></trkpt><trkpt lat="40.2059517" lon="15.0099"><ele>56.199999999999996</ele><time>2026-05-02T12:36:14.979Z</time></trkpt><trkpt lat="40.2060167" lon="15.00979"><ele>58.599999999999994</ele><time>2026-05-02T12:36:15.979Z</time></trkpt><trkpt lat="40.2060767" lon="15.00969"><ele>61.0</ele><time>2026-05-02T12:36:16.979Z</time></trkpt><trkpt lat="40.20614" lon="15.0095983"><ele>61.0</ele><time>2026-05-02T12:36:17.979Z</time></trkpt><trkpt lat="40.2062267" lon="15.009535"><ele>61.0</ele><time>2026-05-02T12:36:18.979Z</time></trkpt><trkpt lat="40.2063233" lon="15.0094833"><ele>61.0</ele><time>2026-05-02T12:36:19.979Z</time></trkpt><trkpt lat="40.2064283" lon="15.009415"><ele>61.0</ele><time>2026-05-02T12:36:20.98Z</time></trkpt><trkpt lat="40.2065367" lon="15.0093217"><ele>59.0</ele><time>2026-05-02T12:36:21.979Z</time></trkpt><trkpt lat="40.2066467" lon="15.0092233"><ele>57.0</ele><time>2026-05-02T12:36:22.979Z</time></trkpt><trkpt lat="40.2067467" lon="15.0091217"><ele>55.0</ele><time>2026-05-02T12:36:23.979Z</time></trkpt><trkpt lat="40.2068417" lon="15.009035"><ele>53.0</ele><time>2026-05-02T12:36:24.98Z</time></trkpt><trkpt lat="40.2069283" lon="15.0089683"><ele>53.0</ele><time>2026-05-02T12:36:25.979Z</time></trkpt><trkpt lat="40.2070133" lon="15.0089067"><ele>53.0</ele><time>2026-05-02T12:36:26.979Z</time></trkpt><trkpt lat="40.2071033" lon="15.0088517"><ele>53.0</ele><time>2026-05-02T12:36:27.98Z</time></trkpt><trkpt lat="40.207205" lon="15.0088017"><ele>53.0</ele><time>2026-05-02T12:36:28.979Z</time></trkpt><trkpt lat="40.20732" lon="15.00877"><ele>53.0</ele><time>2026-05-02T12:36:29.979Z</time></trkpt><trkpt lat="40.2074333" lon="15.0087367"><ele>56.8</ele><time>2026-05-02T12:36:30.98Z</time></trkpt><trkpt lat="40.2075517" lon="15.0087017"><ele>60.599999999999994</ele><time>2026-05-02T12:36:31.98Z</time></trkpt><trkpt lat="40.2076533" lon="15.00867"><ele>64.4</ele><time>2026-05-02T12:36:32.979Z</time></trkpt><trkpt lat="40.2077517" lon="15.00864"><ele>68.2</ele><time>2026-05-02T12:36:33.979Z</time></trkpt><trkpt lat="40.2078417" lon="15.0085917"><ele>72.0</ele><time>2026-05-02T12:36:34.98Z</time></trkpt><trkpt lat="40.2079233" lon="15.0085467"><ele>72.0</ele><time>2026-05-02T12:36:35.979Z</time></trkpt><trkpt lat="40.2079967" lon="15.00847"><ele>72.0</ele><time>2026-05-02T12:36:36.98Z</time></trkpt><trkpt lat="40.2080583" lon="15.0083733"><ele>72.0</ele><time>2026-05-02T12:36:37.979Z</time></trkpt><trkpt lat="40.2081233" lon="15.0082567"><ele>72.0</ele><time>2026-05-02T12:36:38.98Z</time></trkpt><trkpt lat="40.2081833" lon="15.0081233"><ele>72.0</ele><time>2026-05-02T12:36:39.979Z</time></trkpt><trkpt lat="40.2082483" lon="15.0079833"><ele>74.75</ele><time>2026-05-02T12:36:40.979Z</time></trkpt><trkpt lat="40.2083133" lon="15.0078317"><ele>77.5</ele><time>2026-05-02T12:36:41.98Z</time></trkpt><trkpt lat="40.2083833" lon="15.007695"><ele>80.25</ele><time>2026-05-02T12:36:42.979Z</time></trkpt><trkpt lat="40.208445" lon="15.0075567"><ele>83.0</ele><time>2026-05-02T12:36:43.979Z</time></trkpt><trkpt lat="40.208505" lon="15.0074283"><ele>78.2</ele><time>2026-05-02T12:36:44.979Z</time></trkpt><trkpt lat="40.208565" lon="15.007295"><ele>73.4</ele><time>2026-05-02T12:36:45.979Z</time></trkpt><trkpt lat="40.20862" lon="15.00717"><ele>68.60000000000001</ele><time>2026-05-02T12:36:46.98Z</time></trkpt><trkpt lat="40.2086667" lon="15.00705"><ele>63.800000000000004</ele><time>2026-05-02T12:36:47.979Z</time></trkpt><trkpt lat="40.20871" lon="15.0069367"><ele>59.0</ele><time>2026-05-02T12:36:48.979Z</time></trkpt><trkpt lat="40.20875" lon="15.00683"><ele>59.0</ele><time>2026-05-02T12:36:49.979Z</time></trkpt><trkpt lat="40.2087867" lon="15.0067133"><ele>59.00000000000001</ele><time>2026-05-02T12:36:50.98Z</time></trkpt><trkpt lat="40.2088317" lon="15.0065933"><ele>59.00000000000001</ele><time>2026-05-02T12:36:51.979Z</time></trkpt><trkpt lat="40.2088783" lon="15.0064633"><ele>59.0</ele><time>2026-05-02T12:36:52.979Z</time></trkpt><trkpt lat="40.208925" lon="15.006335"><ele>59.0</ele><time>2026-05-02T12:36:53.98Z</time></trkpt><trkpt lat="40.2089617" lon="15.00621"><ele>60.00000000000001</ele><time>2026-05-02T12:36:54.98Z</time></trkpt><trkpt lat="40.2089967" lon="15.0061"><ele>61.0</ele><time>2026-05-02T12:36:55.98Z</time></trkpt><trkpt lat="40.2090267" lon="15.0059933"><ele>62.0</ele><time>2026-05-02T12:36:56.98Z</time></trkpt><trkpt lat="40.2090517" lon="15.005885"><ele>63.0</ele><time>2026-05-02T12:36:57.979Z</time></trkpt><trkpt lat="40.2090767" lon="15.0057767"><ele>64.0</ele><time>2026-05-02T12:36:58.979Z</time></trkpt><trkpt lat="40.2091067" lon="15.0056717"><ele>65.0</ele><time>2026-05-02T12:36:59.979Z</time></trkpt><trkpt lat="40.20914" lon="15.0055717"><ele>65.0</ele><time>2026-05-02T12:37:00.979Z</time></trkpt><trkpt lat="40.2091817" lon="15.005465"><ele>65.0</ele><time>2026-05-02T12:37:01.98Z</time></trkpt><trkpt lat="40.2092467" lon="15.0053317"><ele>65.0</ele><time>2026-05-02T12:37:02.98Z</time></trkpt><trkpt lat="40.2093117" lon="15.0051767"><ele>65.0</ele><time>2026-05-02T12:37:03.979Z</time></trkpt><trkpt lat="40.20938" lon="15.0050367"><ele>59.5</ele><time>2026-05-02T12:37:04.98Z</time></trkpt><trkpt lat="40.2094483" lon="15.0048933"><ele>54.0</ele><time>2026-05-02T12:37:05.98Z</time></trkpt><trkpt lat="40.2095183" lon="15.0047617"><ele>48.5</ele><time>2026-05-02T12:37:06.98Z</time></trkpt><trkpt lat="40.20958" lon="15.0046267"><ele>43.0</ele><time>2026-05-02T12:37:07.979Z</time></trkpt><trkpt lat="40.209635" lon="15.0044967"><ele>43.0</ele><time>2026-05-02T12:37:08.979Z</time></trkpt><trkpt lat="40.20969" lon="15.004375"><ele>43.0</ele><time>2026-05-02T12:37:09.979Z</time></trkpt><trkpt lat="40.2097467" lon="15.0042533"><ele>43.0</ele><time>2026-05-02T12:37:10.979Z</time></trkpt><trkpt lat="40.2097983" lon="15.004125"><ele>43.0</ele><time>2026-05-02T12:37:11.979Z</time></trkpt><trkpt lat="40.209855" lon="15.004"><ele>43.0</ele><time>2026-05-02T12:37:12.979Z</time></trkpt><trkpt lat="40.2099117" lon="15.0038683"><ele>45.75</ele><time>2026-05-02T12:37:13.98Z</time></trkpt><trkpt lat="40.20997" lon="15.003735"><ele>48.5</ele><time>2026-05-02T12:37:14.98Z</time></trkpt><trkpt lat="40.210035" lon="15.0036"><ele>51.25</ele><time>2026-05-02T12:37:15.979Z</time></trkpt><trkpt lat="40.21011" lon="15.0034817"><ele>54.0</ele><time>2026-05-02T12:37:16.98Z</time></trkpt><trkpt lat="40.2101933" lon="15.0033617"><ele>48.75</ele><time>2026-05-02T12:37:17.979Z</time></trkpt><trkpt lat="40.2102767" lon="15.0032517"><ele>43.5</ele><time>2026-05-02T12:37:18.98Z</time></trkpt><trkpt lat="40.2103633" lon="15.0031567"><ele>38.25</ele><time>2026-05-02T12:37:19.979Z</time></trkpt><trkpt lat="40.21045" lon="15.0030517"><ele>33.0</ele><time>2026-05-02T12:37:20.979Z</time></trkpt><trkpt lat="40.2105317" lon="15.002945"><ele>33.0</ele><time>2026-05-02T12:37:21.979Z</time></trkpt><trkpt lat="40.2106167" lon="15.0028383"><ele>33.0</ele><time>2026-05-02T12:37:22.979Z</time></trkpt><trkpt lat="40.2107083" lon="15.0027333"><ele>33.0</ele><time>2026-05-02T12:37:23.979Z</time></trkpt><trkpt lat="40.2107983" lon="15.0026267"><ele>33.0</ele><time>2026-05-02T12:37:24.98Z</time></trkpt><trkpt lat="40.2108867" lon="15.0025167"><ele>31.25</ele><time>2026-05-02T12:37:25.98Z</time></trkpt><trkpt lat="40.2109767" lon="15.0024083"><ele>29.5</ele><time>2026-05-02T12:37:26.979Z</time></trkpt><trkpt lat="40.2110617" lon="15.0023017"><ele>27.75</ele><time>2026-05-02T12:37:27.979Z</time></trkpt><trkpt lat="40.2111417" lon="15.0022083"><ele>26.0</ele><time>2026-05-02T12:37:28.979Z</time></trkpt><trkpt lat="40.211235" lon="15.0021367"><ele>26.0</ele><time>2026-05-02T12:37:29.979Z</time></trkpt><trkpt lat="40.21133" lon="15.00207"><ele>26.0</ele><time>2026-05-02T12:37:30.979Z</time></trkpt><trkpt lat="40.211425" lon="15.00201"><ele>26.0</ele><time>2026-05-02T12:37:31.979Z</time></trkpt><trkpt lat="40.211525" lon="15.001965"><ele>26.0</ele><time>2026-05-02T12:37:32.98Z</time></trkpt><trkpt lat="40.2116267" lon="15.0019317"><ele>26.0</ele><time>2026-05-02T12:37:33.979Z</time></trkpt><trkpt lat="40.2117333" lon="15.0019067"><ele>29.0</ele><time>2026-05-02T12:37:34.979Z</time></trkpt><trkpt lat="40.2118483" lon="15.0018717"><ele>32.0</ele><time>2026-05-02T12:37:35.979Z</time></trkpt><trkpt lat="40.211965" lon="15.0018317"><ele>35.0</ele><time>2026-05-02T12:37:36.979Z</time></trkpt><trkpt lat="40.2120817" lon="15.0017867"><ele>38.0</ele><time>2026-05-02T12:37:37.979Z</time></trkpt><trkpt lat="40.2121967" lon="15.0017383"><ele>38.0</ele><time>2026-05-02T12:37:38.979Z</time></trkpt><trkpt lat="40.2123033" lon="15.00169"><ele>38.0</ele><time>2026-05-02T12:37:39.98Z</time></trkpt><trkpt lat="40.2124117" lon="15.0016317"><ele>38.0</ele><time>2026-05-02T12:37:40.979Z</time></trkpt><trkpt lat="40.212515" lon="15.0015683"><ele>38.0</ele><time>2026-05-02T12:37:41.98Z</time></trkpt><trkpt lat="40.2126183" lon="15.0014967"><ele>34.5</ele><time>2026-05-02T12:37:42.979Z</time></trkpt><trkpt lat="40.2127267" lon="15.001425"><ele>31.0</ele><time>2026-05-02T12:37:43.979Z</time></trkpt><trkpt lat="40.21283" lon="15.001355"><ele>27.5</ele><time>2026-05-02T12:37:44.979Z</time></trkpt><trkpt lat="40.2129367" lon="15.00129"><ele>24.0</ele><time>2026-05-02T12:37:45.98Z</time></trkpt><trkpt lat="40.2130533" lon="15.0012167"><ele>27.0</ele><time>2026-05-02T12:37:46.979Z</time></trkpt><trkpt lat="40.2131617" lon="15.001155"><ele>30.0</ele><time>2026-05-02T12:37:47.979Z</time></trkpt><trkpt lat="40.2132667" lon="15.001095"><ele>33.0</ele><time>2026-05-02T12:37:48.979Z</time></trkpt><trkpt lat="40.2133733" lon="15.0010467"><ele>36.0</ele><time>2026-05-02T12:37:49.979Z</time></trkpt><trkpt lat="40.2134783" lon="15.0010033"><ele>36.0</ele><time>2026-05-02T12:37:50.979Z</time></trkpt><trkpt lat="40.2135833" lon="15.0009633"><ele>36.0</ele><time>2026-05-02T12:37:51.979Z</time></trkpt><trkpt lat="40.21369" lon="15.00092"><ele>36.0</ele><time>2026-05-02T12:37:52.979Z</time></trkpt><trkpt lat="40.2137917" lon="15.0008833"><ele>36.0</ele><time>2026-05-02T12:37:53.98Z</time></trkpt><trkpt lat="40.2138983" lon="15.00084"><ele>36.0</ele><time>2026-05-02T12:37:54.98Z</time></trkpt><trkpt lat="40.214005" lon="15.0007983"><ele>33.25</ele><time>2026-05-02T12:37:55.98Z</time></trkpt><trkpt lat="40.2141117" lon="15.0007533"><ele>30.5</ele><time>2026-05-02T12:37:56.979Z</time></trkpt><trkpt lat="40.2142133" lon="15.0006933"><ele>27.75</ele><time>2026-05-02T12:37:57.979Z</time></trkpt><trkpt lat="40.214315" lon="15.0006333"><ele>25.0</ele><time>2026-05-02T12:37:58.979Z</time></trkpt><trkpt lat="40.2144117" lon="15.0005467"><ele>25.0</ele><time>2026-05-02T12:37:59.98Z</time></trkpt><trkpt lat="40.2145067" lon="15.00045"><ele>25.0</ele><time>2026-05-02T12:38:00.98Z</time></trkpt><trkpt lat="40.214595" lon="15.0003567"><ele>25.0</ele><time>2026-05-02T12:38:01.98Z</time></trkpt><trkpt lat="40.21469" lon="15.0002617"><ele>25.0</ele><time>2026-05-02T12:38:02.98Z</time></trkpt><trkpt lat="40.214785" lon="15.0001733"><ele>27.0</ele><time>2026-05-02T12:38:03.979Z</time></trkpt><trkpt lat="40.2148767" lon="15.0000683"><ele>29.0</ele><time>2026-05-02T12:38:04.979Z</time></trkpt><trkpt lat="40.21496" lon="14.99996"><ele>31.0</ele><time>2026-05-02T12:38:05.979Z</time></trkpt><trkpt lat="40.21503" lon="14.999845"><ele>33.0</ele><time>2026-05-02T12:38:06.98Z</time></trkpt><trkpt lat="40.2150967" lon="14.99972"><ele>33.0</ele><time>2026-05-02T12:38:07.979Z</time></trkpt><trkpt lat="40.2151733" lon="14.9996033"><ele>33.0</ele><time>2026-05-02T12:38:08.979Z</time></trkpt><trkpt lat="40.2152617" lon="14.9995"><ele>33.0</ele><time>2026-05-02T12:38:09.979Z</time></trkpt><trkpt lat="40.2153583" lon="14.99942"><ele>33.0</ele><time>2026-05-02T12:38:10.979Z</time></trkpt><trkpt lat="40.215465" lon="14.9993633"><ele>33.0</ele><time>2026-05-02T12:38:11.98Z</time></trkpt><trkpt lat="40.2155717" lon="14.9993367"><ele>33.0</ele><time>2026-05-02T12:38:12.979Z</time></trkpt><trkpt lat="40.2156667" lon="14.99933"><ele>33.0</ele><time>2026-05-02T12:38:13.98Z</time></trkpt><trkpt lat="40.2157567" lon="14.9993433"><ele>33.0</ele><time>2026-05-02T12:38:14.98Z</time></trkpt><trkpt lat="40.2158383" lon="14.9993967"><ele>33.0</ele><time>2026-05-02T12:38:15.98Z</time></trkpt><trkpt lat="40.215915" lon="14.9994717"><ele>32.25</ele><time>2026-05-02T12:38:16.98Z</time></trkpt><trkpt lat="40.2159983" lon="14.999575"><ele>31.5</ele><time>2026-05-02T12:38:17.979Z</time></trkpt><trkpt lat="40.21608" lon="14.9996817"><ele>30.75</ele><time>2026-05-02T12:38:18.979Z</time></trkpt><trkpt lat="40.216155" lon="14.9998017"><ele>30.0</ele><time>2026-05-02T12:38:19.979Z</time></trkpt><trkpt lat="40.21623" lon="14.99992"><ele>30.0</ele><time>2026-05-02T12:38:20.979Z</time></trkpt><trkpt lat="40.2163133" lon="15.0000267"><ele>30.0</ele><time>2026-05-02T12:38:21.98Z</time></trkpt><trkpt lat="40.2163833" lon="15.00014"><ele>30.0</ele><time>2026-05-02T12:38:22.979Z</time></trkpt><trkpt lat="40.21646" lon="15.0002467"><ele>30.0</ele><time>2026-05-02T12:38:23.979Z</time></trkpt><trkpt lat="40.21655" lon="15.0003367"><ele>28.0</ele><time>2026-05-02T12:38:24.979Z</time></trkpt><trkpt lat="40.2166317" lon="15.0004133"><ele>26.0</ele><time>2026-05-02T12:38:25.979Z</time></trkpt><trkpt lat="40.2167217" lon="15.0004733"><ele>24.0</ele><time>2026-05-02T12:38:26.979Z</time></trkpt><trkpt lat="40.216825" lon="15.0005267"><ele>22.0</ele><time>2026-05-02T12:38:27.979Z</time></trkpt><trkpt lat="40.216925" lon="15.00057"><ele>20.0</ele><time>2026-05-02T12:38:28.979Z</time></trkpt><trkpt lat="40.217015" lon="15.0005883"><ele>20.0</ele><time>2026-05-02T12:38:29.98Z</time></trkpt><trkpt lat="40.2171183" lon="15.000575"><ele>20.0</ele><time>2026-05-02T12:38:30.979Z</time></trkpt><trkpt lat="40.2172117" lon="15.0005267"><ele>20.0</ele><time>2026-05-02T12:38:31.979Z</time></trkpt><trkpt lat="40.2173017" lon="15.000455"><ele>20.0</ele><time>2026-05-02T12:38:32.979Z</time></trkpt><trkpt lat="40.2173817" lon="15.0003567"><ele>20.0</ele><time>2026-05-02T12:38:33.98Z</time></trkpt><trkpt lat="40.2174583" lon="15.000255"><ele>19.75</ele><time>2026-05-02T12:38:34.979Z</time></trkpt><trkpt lat="40.2175467" lon="15.0001567"><ele>19.5</ele><time>2026-05-02T12:38:35.979Z</time></trkpt><trkpt lat="40.2176317" lon="15.0000583"><ele>19.25</ele><time>2026-05-02T12:38:36.979Z</time></trkpt><trkpt lat="40.2177167" lon="14.999965"><ele>19.0</ele><time>2026-05-02T12:38:37.979Z</time></trkpt><trkpt lat="40.21781" lon="14.9998583"><ele>19.0</ele><time>2026-05-02T12:38:38.98Z</time></trkpt><trkpt lat="40.2178983" lon="14.9997667"><ele>19.0</ele><time>2026-05-02T12:38:39.979Z</time></trkpt><trkpt lat="40.21799" lon="14.9996683"><ele>19.0</ele><time>2026-05-02T12:38:40.979Z</time></trkpt><trkpt lat="40.2180867" lon="14.9995717"><ele>19.0</ele><time>2026-05-02T12:38:41.979Z</time></trkpt><trkpt lat="40.21817" lon="14.9994717"><ele>18.4</ele><time>2026-05-02T12:38:42.979Z</time></trkpt><trkpt lat="40.21825" lon="14.9993817"><ele>17.799999999999997</ele><time>2026-05-02T12:38:43.979Z</time></trkpt><trkpt lat="40.21833" lon="14.9992983"><ele>17.200000000000003</ele><time>2026-05-02T12:38:44.979Z</time></trkpt><trkpt lat="40.2184033" lon="14.9992033"><ele>16.6</ele><time>2026-05-02T12:38:45.979Z</time></trkpt><trkpt lat="40.2184817" lon="14.999105"><ele>16.0</ele><time>2026-05-02T12:38:46.979Z</time></trkpt><trkpt lat="40.2185617" lon="14.9990217"><ele>16.0</ele><time>2026-05-02T12:38:47.979Z</time></trkpt><trkpt lat="40.2186433" lon="14.9989417"><ele>16.0</ele><time>2026-05-02T12:38:48.979Z</time></trkpt><trkpt lat="40.2187183" lon="14.9988567"><ele>16.0</ele><time>2026-05-02T12:38:49.98Z</time></trkpt><trkpt lat="40.2187917" lon="14.9987667"><ele>16.0</ele><time>2026-05-02T12:38:50.98Z</time></trkpt><trkpt lat="40.2188517" lon="14.9986683"><ele>16.0</ele><time>2026-05-02T12:38:51.979Z</time></trkpt><trkpt lat="40.218885" lon="14.998555"><ele>16.0</ele><time>2026-05-02T12:38:52.98Z</time></trkpt><trkpt lat="40.2188883" lon="14.9984333"><ele>16.0</ele><time>2026-05-02T12:38:53.979Z</time></trkpt><trkpt lat="40.218865" lon="14.9983117"><ele>16.0</ele><time>2026-05-02T12:38:54.979Z</time></trkpt><trkpt lat="40.21883" lon="14.9982"><ele>16.0</ele><time>2026-05-02T12:38:55.979Z</time></trkpt><trkpt lat="40.2187783" lon="14.9980867"><ele>16.0</ele><time>2026-05-02T12:38:56.98Z</time></trkpt><trkpt lat="40.2187267" lon="14.997965"><ele>16.400000000000002</ele><time>2026-05-02T12:38:57.979Z</time></trkpt><trkpt lat="40.2186733" lon="14.9978433"><ele>16.8</ele><time>2026-05-02T12:38:58.979Z</time></trkpt><trkpt lat="40.21862" lon="14.9977167"><ele>17.200000000000003</ele><time>2026-05-02T12:38:59.98Z</time></trkpt><trkpt lat="40.2185683" lon="14.997585"><ele>17.6</ele><time>2026-05-02T12:39:00.979Z</time></trkpt><trkpt lat="40.2185133" lon="14.9974617"><ele>18.0</ele><time>2026-05-02T12:39:01.979Z</time></trkpt><trkpt lat="40.2184633" lon="14.9973517"><ele>18.8</ele><time>2026-05-02T12:39:02.98Z</time></trkpt><trkpt lat="40.2184167" lon="14.9972383"><ele>19.6</ele><time>2026-05-02T12:39:03.98Z</time></trkpt><trkpt lat="40.2183733" lon="14.99712"><ele>20.400000000000002</ele><time>2026-05-02T12:39:04.979Z</time></trkpt><trkpt lat="40.2183217" lon="14.9970017"><ele>21.200000000000003</ele><time>2026-05-02T12:39:05.98Z</time></trkpt><trkpt lat="40.2182733" lon="14.996875"><ele>22.0</ele><time>2026-05-02T12:39:06.979Z</time></trkpt><trkpt lat="40.2182183" lon="14.9967417"><ele>21.6</ele><time>2026-05-02T12:39:07.979Z</time></trkpt><trkpt lat="40.2181817" lon="14.99661"><ele>21.200000000000003</ele><time>2026-05-02T12:39:08.979Z</time></trkpt><trkpt lat="40.21815" lon="14.9964783"><ele>20.8</ele><time>2026-05-02T12:39:09.98Z</time></trkpt><trkpt lat="40.2181367" lon="14.996335"><ele>20.4</ele><time>2026-05-02T12:39:10.979Z</time></trkpt><trkpt lat="40.2181267" lon="14.9962"><ele>20.0</ele><time>2026-05-02T12:39:11.979Z</time></trkpt><trkpt lat="40.2181217" lon="14.9960667"><ele>19.6</ele><time>2026-05-02T12:39:12.98Z</time></trkpt><trkpt lat="40.218115" lon="14.9959267"><ele>19.2</ele><time>2026-05-02T12:39:13.979Z</time></trkpt><trkpt lat="40.21812" lon="14.9957867"><ele>18.8</ele><time>2026-05-02T12:39:14.979Z</time></trkpt><trkpt lat="40.2181317" lon="14.9956517"><ele>18.4</ele><time>2026-05-02T12:39:15.979Z</time></trkpt><trkpt lat="40.2181483" lon="14.9955133"><ele>18.0</ele><time>2026-05-02T12:39:16.98Z</time></trkpt><trkpt lat="40.21817" lon="14.9953767"><ele>18.0</ele><time>2026-05-02T12:39:17.979Z</time></trkpt><trkpt lat="40.2181783" lon="14.99524"><ele>18.0</ele><time>2026-05-02T12:39:18.979Z</time></trkpt><trkpt lat="40.2181633" lon="14.9951"><ele>18.0</ele><time>2026-05-02T12:39:19.979Z</time></trkpt><trkpt lat="40.2181433" lon="14.994965"><ele>18.0</ele><time>2026-05-02T12:39:20.979Z</time></trkpt><trkpt lat="40.2181133" lon="14.9948367"><ele>18.0</ele><time>2026-05-02T12:39:21.979Z</time></trkpt><trkpt lat="40.2180867" lon="14.99471"><ele>18.4</ele><time>2026-05-02T12:39:22.979Z</time></trkpt><trkpt lat="40.2180717" lon="14.9945867"><ele>18.8</ele><time>2026-05-02T12:39:23.979Z</time></trkpt><trkpt lat="40.21808" lon="14.9944567"><ele>19.2</ele><time>2026-05-02T12:39:24.979Z</time></trkpt><trkpt lat="40.2181033" lon="14.9943167"><ele>19.6</ele><time>2026-05-02T12:39:25.98Z</time></trkpt><trkpt lat="40.2181483" lon="14.9941917"><ele>20.0</ele><time>2026-05-02T12:39:26.98Z</time></trkpt><trkpt lat="40.218205" lon="14.994065"><ele>20.0</ele><time>2026-05-02T12:39:27.979Z</time></trkpt><trkpt lat="40.218265" lon="14.993945"><ele>20.0</ele><time>2026-05-02T12:39:28.979Z</time></trkpt><trkpt lat="40.2183317" lon="14.9938317"><ele>20.0</ele><time>2026-05-02T12:39:29.979Z</time></trkpt><trkpt lat="40.218395" lon="14.9937117"><ele>20.0</ele><time>2026-05-02T12:39:30.98Z</time></trkpt><trkpt lat="40.218445" lon="14.9935867"><ele>20.0</ele><time>2026-05-02T12:39:31.98Z</time></trkpt><trkpt lat="40.218515" lon="14.9934667"><ele>18.5</ele><time>2026-05-02T12:39:32.979Z</time></trkpt><trkpt lat="40.2185717" lon="14.9933333"><ele>17.0</ele><time>2026-05-02T12:39:33.98Z</time></trkpt><trkpt lat="40.2186083" lon="14.9931917"><ele>15.5</ele><time>2026-05-02T12:39:34.98Z</time></trkpt><trkpt lat="40.2186383" lon="14.99305"><ele>14.0</ele><time>2026-05-02T12:39:35.979Z</time></trkpt><trkpt lat="40.2186817" lon="14.9929133"><ele>14.0</ele><time>2026-05-02T12:39:36.98Z</time></trkpt><trkpt lat="40.2187133" lon="14.992785"><ele>13.999999999999998</ele><time>2026-05-02T12:39:37.979Z</time></trkpt><trkpt lat="40.2187517" lon="14.9926533"><ele>13.999999999999998</ele><time>2026-05-02T12:39:38.98Z</time></trkpt><trkpt lat="40.2187933" lon="14.99253"><ele>14.0</ele><time>2026-05-02T12:39:39.979Z</time></trkpt><trkpt lat="40.218835" lon="14.9923967"><ele>14.0</ele><time>2026-05-02T12:39:40.979Z</time></trkpt><trkpt lat="40.2188783" lon="14.992265"><ele>12.6</ele><time>2026-05-02T12:39:41.979Z</time></trkpt><trkpt lat="40.2189183" lon="14.992145"><ele>11.2</ele><time>2026-05-02T12:39:42.979Z</time></trkpt><trkpt lat="40.218955" lon="14.9920167"><ele>9.799999999999999</ele><time>2026-05-02T12:39:43.979Z</time></trkpt><trkpt lat="40.2189933" lon="14.9918933"><ele>8.399999999999999</ele><time>2026-05-02T12:39:44.979Z</time></trkpt><trkpt lat="40.2190333" lon="14.9917667"><ele>7.0</ele><time>2026-05-02T12:39:45.98Z</time></trkpt><trkpt lat="40.2190583" lon="14.99164"><ele>9.8</ele><time>2026-05-02T12:39:46.98Z</time></trkpt><trkpt lat="40.2190867" lon="14.991515"><ele>12.6</ele><time>2026-05-02T12:39:47.979Z</time></trkpt><trkpt lat="40.2191183" lon="14.99139"><ele>15.400000000000002</ele><time>2026-05-02T12:39:48.979Z</time></trkpt><trkpt lat="40.2191533" lon="14.99127"><ele>18.2</ele><time>2026-05-02T12:39:49.98Z</time></trkpt><trkpt lat="40.2191983" lon="14.9911417"><ele>21.0</ele><time>2026-05-02T12:39:50.979Z</time></trkpt><trkpt lat="40.21925" lon="14.9910233"><ele>21.0</ele><time>2026-05-02T12:39:51.979Z</time></trkpt><trkpt lat="40.2193033" lon="14.9909083"><ele>21.0</ele><time>2026-05-02T12:39:52.98Z</time></trkpt><trkpt lat="40.2193583" lon="14.9907833"><ele>21.0</ele><time>2026-05-02T12:39:53.98Z</time></trkpt><trkpt lat="40.2194133" lon="14.99065"><ele>21.0</ele><time>2026-05-02T12:39:54.979Z</time></trkpt><trkpt lat="40.2194717" lon="14.9905133"><ele>21.0</ele><time>2026-05-02T12:39:55.98Z</time></trkpt><trkpt lat="40.2195217" lon="14.990375"><ele>18.75</ele><time>2026-05-02T12:39:56.979Z</time></trkpt><trkpt lat="40.2195667" lon="14.9902283"><ele>16.5</ele><time>2026-05-02T12:39:57.979Z</time></trkpt><trkpt lat="40.2196067" lon="14.9900783"><ele>14.25</ele><time>2026-05-02T12:39:58.98Z</time></trkpt><trkpt lat="40.2196483" lon="14.9899333"><ele>12.0</ele><time>2026-05-02T12:39:59.979Z</time></trkpt><trkpt lat="40.2196883" lon="14.9897817"><ele>10.75</ele><time>2026-05-02T12:40:00.98Z</time></trkpt><trkpt lat="40.2197183" lon="14.989635"><ele>9.5</ele><time>2026-05-02T12:40:01.98Z</time></trkpt><trkpt lat="40.2197533" lon="14.98949"><ele>8.25</ele><time>2026-05-02T12:40:02.98Z</time></trkpt><trkpt lat="40.219795" lon="14.9893483"><ele>7.0</ele><time>2026-05-02T12:40:03.98Z</time></trkpt><trkpt lat="40.219845" lon="14.9892117"><ele>14.0</ele><time>2026-05-02T12:40:04.979Z</time></trkpt><trkpt lat="40.2199017" lon="14.98908"><ele>21.0</ele><time>2026-05-02T12:40:05.979Z</time></trkpt><trkpt lat="40.2199567" lon="14.98895"><ele>28.0</ele><time>2026-05-02T12:40:06.98Z</time></trkpt><trkpt lat="40.2200183" lon="14.9888267"><ele>35.0</ele><time>2026-05-02T12:40:07.979Z</time></trkpt><trkpt lat="40.22008" lon="14.9887033"><ele>35.0</ele><time>2026-05-02T12:40:08.98Z</time></trkpt><trkpt lat="40.22014" lon="14.9885817"><ele>35.0</ele><time>2026-05-02T12:40:09.979Z</time></trkpt><trkpt lat="40.220205" lon="14.9884717"><ele>35.0</ele><time>2026-05-02T12:40:10.979Z</time></trkpt><trkpt lat="40.2202683" lon="14.9883617"><ele>35.0</ele><time>2026-05-02T12:40:11.979Z</time></trkpt><trkpt lat="40.2203317" lon="14.9882483"><ele>35.0</ele><time>2026-05-02T12:40:12.979Z</time></trkpt><trkpt lat="40.2203967" lon="14.9881383"><ele>30.25</ele><time>2026-05-02T12:40:13.979Z</time></trkpt><trkpt lat="40.22045" lon="14.988"><ele>25.5</ele><time>2026-05-02T12:40:14.98Z</time></trkpt><trkpt lat="40.2204967" lon="14.9878617"><ele>20.75</ele><time>2026-05-02T12:40:15.979Z</time></trkpt><trkpt lat="40.2205433" lon="14.9877167"><ele>16.0</ele><time>2026-05-02T12:40:16.979Z</time></trkpt><trkpt lat="40.2205833" lon="14.98755"><ele>13.25</ele><time>2026-05-02T12:40:17.98Z</time></trkpt><trkpt lat="40.2206267" lon="14.9873883"><ele>10.5</ele><time>2026-05-02T12:40:18.979Z</time></trkpt><trkpt lat="40.2206733" lon="14.9872267"><ele>7.75</ele><time>2026-05-02T12:40:19.98Z</time></trkpt><trkpt lat="40.22072" lon="14.98707"><ele>5.0</ele><time>2026-05-02T12:40:20.98Z</time></trkpt><trkpt lat="40.220765" lon="14.9869133"><ele>10.8</ele><time>2026-05-02T12:40:21.98Z</time></trkpt><trkpt lat="40.2208083" lon="14.9867617"><ele>16.6</ele><time>2026-05-02T12:40:22.979Z</time></trkpt><trkpt lat="40.2208517" lon="14.9866233"><ele>22.4</ele><time>2026-05-02T12:40:23.979Z</time></trkpt><trkpt lat="40.2208917" lon="14.9864967"><ele>28.2</ele><time>2026-05-02T12:40:24.979Z</time></trkpt><trkpt lat="40.22093" lon="14.9863783"><ele>34.0</ele><time>2026-05-02T12:40:25.979Z</time></trkpt><trkpt lat="40.2209767" lon="14.9862767"><ele>34.0</ele><time>2026-05-02T12:40:26.979Z</time></trkpt><trkpt lat="40.2210417" lon="14.9861983"><ele>34.0</ele><time>2026-05-02T12:40:27.98Z</time></trkpt><trkpt lat="40.221115" lon="14.986155"><ele>34.0</ele><time>2026-05-02T12:40:28.98Z</time></trkpt><trkpt lat="40.2211867" lon="14.9861433"><ele>34.0</ele><time>2026-05-02T12:40:29.98Z</time></trkpt><trkpt lat="40.22127" lon="14.98616"><ele>34.0</ele><time>2026-05-02T12:40:30.98Z</time></trkpt><trkpt lat="40.2213467" lon="14.9862017"><ele>34.0</ele><time>2026-05-02T12:40:31.98Z</time></trkpt><trkpt lat="40.2214217" lon="14.9862533"><ele>35.6</ele><time>2026-05-02T12:40:32.979Z</time></trkpt><trkpt lat="40.221485" lon="14.9862983"><ele>37.2</ele><time>2026-05-02T12:40:33.98Z</time></trkpt><trkpt lat="40.2215867" lon="14.986365"><ele>38.800000000000004</ele><time>2026-05-02T12:40:35.98Z</time></trkpt><trkpt lat="40.2216717" lon="14.9864167"><ele>40.4</ele><time>2026-05-02T12:40:37.98Z</time></trkpt><trkpt lat="40.22174" lon="14.98647"><ele>42.0</ele><time>2026-05-02T12:40:39.979Z</time></trkpt><trkpt lat="40.2218317" lon="14.9865"><ele>42.0</ele><time>2026-05-02T12:40:41.979Z</time></trkpt><trkpt lat="40.2219467" lon="14.9865433"><ele>42.0</ele><time>2026-05-02T12:40:43.979Z</time></trkpt><trkpt lat="40.2220633" lon="14.9865783"><ele>42.0</ele><time>2026-05-02T12:40:45.979Z</time></trkpt><trkpt lat="40.222135" lon="14.986605"><ele>42.0</ele><time>2026-05-02T12:40:46.979Z</time></trkpt><trkpt lat="40.2222683" lon="14.9866267"><ele>42.0</ele><time>2026-05-02T12:40:48.979Z</time></trkpt><trkpt lat="40.22234" lon="14.98662"><ele>41.666666666666664</ele><time>2026-05-02T12:40:49.98Z</time></trkpt><trkpt lat="40.2224167" lon="14.986605"><ele>41.333333333333336</ele><time>2026-05-02T12:40:50.979Z</time></trkpt><trkpt lat="40.2224967" lon="14.9865767"><ele>41.0</ele><time>2026-05-02T12:40:51.98Z</time></trkpt><trkpt lat="40.2225733" lon="14.986535"><ele>40.66666666666667</ele><time>2026-05-02T12:40:52.979Z</time></trkpt><trkpt lat="40.2226517" lon="14.98648"><ele>40.333333333333336</ele><time>2026-05-02T12:40:53.979Z</time></trkpt><trkpt lat="40.2227283" lon="14.9864217"><ele>40.0</ele><time>2026-05-02T12:40:54.98Z</time></trkpt><trkpt lat="40.2228133" lon="14.9863667"><ele>40.0</ele><time>2026-05-02T12:40:55.98Z</time></trkpt><trkpt lat="40.2228983" lon="14.9863083"><ele>40.0</ele><time>2026-05-02T12:40:56.98Z</time></trkpt><trkpt lat="40.2229833" lon="14.9862483"><ele>40.0</ele><time>2026-05-02T12:40:57.979Z</time></trkpt><trkpt lat="40.22306" lon="14.9862"><ele>40.0</ele><time>2026-05-02T12:40:58.98Z</time></trkpt><trkpt lat="40.2231433" lon="14.9861717"><ele>40.0</ele><time>2026-05-02T12:40:59.98Z</time></trkpt><trkpt lat="40.22323" lon="14.986155"><ele>42.0</ele><time>2026-05-02T12:41:00.979Z</time></trkpt><trkpt lat="40.2233217" lon="14.9861383"><ele>44.0</ele><time>2026-05-02T12:41:01.979Z</time></trkpt><trkpt lat="40.2234117" lon="14.9861217"><ele>46.0</ele><time>2026-05-02T12:41:02.979Z</time></trkpt><trkpt lat="40.2235217" lon="14.98612"><ele>48.0</ele><time>2026-05-02T12:41:03.979Z</time></trkpt><trkpt lat="40.2236217" lon="14.98614"><ele>50.0</ele><time>2026-05-02T12:41:04.979Z</time></trkpt><trkpt lat="40.223715" lon="14.9861633"><ele>50.0</ele><time>2026-05-02T12:41:05.98Z</time></trkpt><trkpt lat="40.2238017" lon="14.986205"><ele>50.0</ele><time>2026-05-02T12:41:06.979Z</time></trkpt><trkpt lat="40.223885" lon="14.9862683"><ele>50.0</ele><time>2026-05-02T12:41:07.979Z</time></trkpt><trkpt lat="40.2239583" lon="14.9863433"><ele>50.0</ele><time>2026-05-02T12:41:08.979Z</time></trkpt><trkpt lat="40.2240233" lon="14.9864317"><ele>50.0</ele><time>2026-05-02T12:41:09.979Z</time></trkpt><trkpt lat="40.2240833" lon="14.9865083"><ele>47.4</ele><time>2026-05-02T12:41:10.979Z</time></trkpt><trkpt lat="40.2241667" lon="14.9865767"><ele>44.8</ele><time>2026-05-02T12:41:11.98Z</time></trkpt><trkpt lat="40.2242533" lon="14.9866167"><ele>42.2</ele><time>2026-05-02T12:41:12.979Z</time></trkpt><trkpt lat="40.224345" lon="14.9866317"><ele>39.6</ele><time>2026-05-02T12:41:13.979Z</time></trkpt><trkpt lat="40.22444" lon="14.98663"><ele>37.0</ele><time>2026-05-02T12:41:14.979Z</time></trkpt><trkpt lat="40.224545" lon="14.98661"><ele>37.0</ele><time>2026-05-02T12:41:15.98Z</time></trkpt><trkpt lat="40.2246567" lon="14.98657"><ele>37.0</ele><time>2026-05-02T12:41:16.98Z</time></trkpt><trkpt lat="40.2247767" lon="14.986535"><ele>37.0</ele><time>2026-05-02T12:41:17.979Z</time></trkpt><trkpt lat="40.2249017" lon="14.98651"><ele>37.0</ele><time>2026-05-02T12:41:18.979Z</time></trkpt><trkpt lat="40.225035" lon="14.9864983"><ele>37.0</ele><time>2026-05-02T12:41:19.979Z</time></trkpt><trkpt lat="40.2251733" lon="14.98649"><ele>37.0</ele><time>2026-05-02T12:41:20.979Z</time></trkpt><trkpt lat="40.2253067" lon="14.9865"><ele>37.0</ele><time>2026-05-02T12:41:21.979Z</time></trkpt><trkpt lat="40.2254367" lon="14.98652"><ele>37.0</ele><time>2026-05-02T12:41:22.979Z</time></trkpt><trkpt lat="40.2255717" lon="14.986545"><ele>35.0</ele><time>2026-05-02T12:41:23.98Z</time></trkpt><trkpt lat="40.2256967" lon="14.9865717"><ele>33.0</ele><time>2026-05-02T12:41:24.979Z</time></trkpt><trkpt lat="40.22582" lon="14.986595"><ele>31.0</ele><time>2026-05-02T12:41:25.979Z</time></trkpt><trkpt lat="40.22594" lon="14.9866117"><ele>29.0</ele><time>2026-05-02T12:41:26.98Z</time></trkpt><trkpt lat="40.2260633" lon="14.98663"><ele>29.0</ele><time>2026-05-02T12:41:27.979Z</time></trkpt><trkpt lat="40.2261833" lon="14.986645"><ele>29.0</ele><time>2026-05-02T12:41:28.98Z</time></trkpt><trkpt lat="40.2263017" lon="14.9866667"><ele>29.0</ele><time>2026-05-02T12:41:29.979Z</time></trkpt><trkpt lat="40.2264133" lon="14.98668"><ele>29.0</ele><time>2026-05-02T12:41:30.98Z</time></trkpt><trkpt lat="40.2265183" lon="14.98669"><ele>34.4</ele><time>2026-05-02T12:41:31.98Z</time></trkpt><trkpt lat="40.226625" lon="14.9867067"><ele>39.8</ele><time>2026-05-02T12:41:32.979Z</time></trkpt><trkpt lat="40.22673" lon="14.98672"><ele>45.199999999999996</ele><time>2026-05-02T12:41:33.979Z</time></trkpt><trkpt lat="40.2268483" lon="14.9867283"><ele>50.599999999999994</ele><time>2026-05-02T12:41:34.979Z</time></trkpt><trkpt lat="40.2269617" lon="14.9867417"><ele>56.0</ele><time>2026-05-02T12:41:35.98Z</time></trkpt><trkpt lat="40.2270717" lon="14.9867333"><ele>56.0</ele><time>2026-05-02T12:41:36.979Z</time></trkpt><trkpt lat="40.2271783" lon="14.98672"><ele>55.99999999999999</ele><time>2026-05-02T12:41:37.98Z</time></trkpt><trkpt lat="40.2272717" lon="14.9866917"><ele>55.99999999999999</ele><time>2026-05-02T12:41:38.979Z</time></trkpt><trkpt lat="40.2273683" lon="14.9866583"><ele>56.0</ele><time>2026-05-02T12:41:39.979Z</time></trkpt><trkpt lat="40.2274567" lon="14.9866167"><ele>56.0</ele><time>2026-05-02T12:41:40.979Z</time></trkpt><trkpt lat="40.2275233" lon="14.9865533"><ele>50.4</ele><time>2026-05-02T12:41:41.979Z</time></trkpt><trkpt lat="40.22757" lon="14.98646"><ele>44.8</ele><time>2026-05-02T12:41:42.979Z</time></trkpt><trkpt lat="40.2276067" lon="14.98636"><ele>39.199999999999996</ele><time>2026-05-02T12:41:43.979Z</time></trkpt><trkpt lat="40.2276317" lon="14.9862417"><ele>33.599999999999994</ele><time>2026-05-02T12:41:44.98Z</time></trkpt><trkpt lat="40.22766" lon="14.9861183"><ele>28.0</ele><time>2026-05-02T12:41:45.98Z</time></trkpt><trkpt lat="40.22769" lon="14.985995"><ele>28.000000000000004</ele><time>2026-05-02T12:41:46.98Z</time></trkpt><trkpt lat="40.227715" lon="14.98586"><ele>28.0</ele><time>2026-05-02T12:41:47.979Z</time></trkpt><trkpt lat="40.2277417" lon="14.9857433"><ele>28.0</ele><time>2026-05-02T12:41:48.98Z</time></trkpt><trkpt lat="40.2277633" lon="14.9856333"><ele>28.0</ele><time>2026-05-02T12:41:49.979Z</time></trkpt><trkpt lat="40.2277833" lon="14.9855333"><ele>28.000000000000004</ele><time>2026-05-02T12:41:50.979Z</time></trkpt><trkpt lat="40.2278" lon="14.9854317"><ele>28.0</ele><time>2026-05-02T12:41:51.979Z</time></trkpt><trkpt lat="40.22782" lon="14.9853383"><ele>26.333333333333336</ele><time>2026-05-02T12:41:52.98Z</time></trkpt><trkpt lat="40.2278367" lon="14.9852483"><ele>24.666666666666668</ele><time>2026-05-02T12:41:53.979Z</time></trkpt><trkpt lat="40.22785" lon="14.9851667"><ele>23.0</ele><time>2026-05-02T12:41:54.979Z</time></trkpt><trkpt lat="40.2278783" lon="14.9850133"><ele>21.333333333333336</ele><time>2026-05-02T12:41:56.98Z</time></trkpt><trkpt lat="40.2279067" lon="14.9849117"><ele>19.666666666666668</ele><time>2026-05-02T12:41:58.98Z</time></trkpt><trkpt lat="40.2279417" lon="14.984835"><ele>18.0</ele><time>2026-05-02T12:42:00.979Z</time></trkpt><trkpt lat="40.2279867" lon="14.9847633"><ele>18.0</ele><time>2026-05-02T12:42:02.98Z</time></trkpt><trkpt lat="40.2280167" lon="14.984685"><ele>18.0</ele><time>2026-05-02T12:42:04.979Z</time></trkpt><trkpt lat="40.227975" lon="14.9845683"><ele>18.0</ele><time>2026-05-02T12:42:06.979Z</time></trkpt><trkpt lat="40.22793" lon="14.9844883"><ele>18.0</ele><time>2026-05-02T12:42:07.979Z</time></trkpt><trkpt lat="40.227875" lon="14.9844"><ele>18.0</ele><time>2026-05-02T12:42:08.979Z</time></trkpt><trkpt lat="40.2278167" lon="14.98431"><ele>18.0</ele><time>2026-05-02T12:42:09.979Z</time></trkpt><trkpt lat="40.2277567" lon="14.9842333"><ele>20.0</ele><time>2026-05-02T12:42:10.979Z</time></trkpt><trkpt lat="40.2276783" lon="14.984145"><ele>22.0</ele><time>2026-05-02T12:42:11.979Z</time></trkpt><trkpt lat="40.2276033" lon="14.9840583"><ele>23.999999999999996</ele><time>2026-05-02T12:42:12.979Z</time></trkpt><trkpt lat="40.22753" lon="14.98396"><ele>26.0</ele><time>2026-05-02T12:42:13.979Z</time></trkpt><trkpt lat="40.227455" lon="14.9838617"><ele>28.0</ele><time>2026-05-02T12:42:14.979Z</time></trkpt><trkpt lat="40.2273833" lon="14.98378"><ele>26.4</ele><time>2026-05-02T12:42:15.98Z</time></trkpt><trkpt lat="40.2273083" lon="14.9836917"><ele>24.799999999999997</ele><time>2026-05-02T12:42:16.979Z</time></trkpt><trkpt lat="40.22723" lon="14.983615"><ele>23.2</ele><time>2026-05-02T12:42:17.979Z</time></trkpt><trkpt lat="40.2271583" lon="14.98353"><ele>21.6</ele><time>2026-05-02T12:42:18.979Z</time></trkpt><trkpt lat="40.22708" lon="14.9834717"><ele>20.0</ele><time>2026-05-02T12:42:19.979Z</time></trkpt><trkpt lat="40.2270017" lon="14.98342"><ele>20.0</ele><time>2026-05-02T12:42:20.979Z</time></trkpt><trkpt lat="40.226925" lon="14.9833683"><ele>20.0</ele><time>2026-05-02T12:42:21.979Z</time></trkpt><trkpt lat="40.2268483" lon="14.9833167"><ele>20.0</ele><time>2026-05-02T12:42:22.979Z</time></trkpt><trkpt lat="40.2267683" lon="14.9832717"><ele>20.0</ele><time>2026-05-02T12:42:23.979Z</time></trkpt><trkpt lat="40.2266833" lon="14.983235"><ele>20.0</ele><time>2026-05-02T12:42:24.979Z</time></trkpt><trkpt lat="40.2265983" lon="14.9832017"><ele>20.0</ele><time>2026-05-02T12:42:25.979Z</time></trkpt><trkpt lat="40.22651" lon="14.9831733"><ele>22.0</ele><time>2026-05-02T12:42:26.979Z</time></trkpt><trkpt lat="40.2264183" lon="14.9831567"><ele>24.0</ele><time>2026-05-02T12:42:27.98Z</time></trkpt><trkpt lat="40.2263217" lon="14.9831467"><ele>26.0</ele><time>2026-05-02T12:42:28.979Z</time></trkpt><trkpt lat="40.2262133" lon="14.983125"><ele>28.0</ele><time>2026-05-02T12:42:29.979Z</time></trkpt><trkpt lat="40.2261033" lon="14.983105"><ele>30.0</ele><time>2026-05-02T12:42:30.98Z</time></trkpt><trkpt lat="40.2259933" lon="14.9830867"><ele>30.0</ele><time>2026-05-02T12:42:31.979Z</time></trkpt><trkpt lat="40.2258833" lon="14.98306"><ele>30.0</ele><time>2026-05-02T12:42:32.979Z</time></trkpt><trkpt lat="40.2257717" lon="14.9830467"><ele>30.0</ele><time>2026-05-02T12:42:33.979Z</time></trkpt><trkpt lat="40.2256567" lon="14.9830333"><ele>30.0</ele><time>2026-05-02T12:42:34.979Z</time></trkpt><trkpt lat="40.225545" lon="14.9830133"><ele>28.6</ele><time>2026-05-02T12:42:35.979Z</time></trkpt><trkpt lat="40.2254333" lon="14.98299"><ele>27.2</ele><time>2026-05-02T12:42:36.979Z</time></trkpt><trkpt lat="40.2253267" lon="14.9829617"><ele>25.799999999999997</ele><time>2026-05-02T12:42:37.979Z</time></trkpt><trkpt lat="40.2252167" lon="14.9829367"><ele>24.4</ele><time>2026-05-02T12:42:38.979Z</time></trkpt><trkpt lat="40.22511" lon="14.9829083"><ele>23.0</ele><time>2026-05-02T12:42:39.979Z</time></trkpt><trkpt lat="40.2250233" lon="14.982875"><ele>23.0</ele><time>2026-05-02T12:42:40.98Z</time></trkpt><trkpt lat="40.2249467" lon="14.982835"><ele>23.0</ele><time>2026-05-02T12:42:41.98Z</time></trkpt><trkpt lat="40.224875" lon="14.9827633"><ele>23.0</ele><time>2026-05-02T12:42:42.979Z</time></trkpt><trkpt lat="40.2248133" lon="14.9826733"><ele>23.0</ele><time>2026-05-02T12:42:43.98Z</time></trkpt><trkpt lat="40.2247483" lon="14.9825783"><ele>23.0</ele><time>2026-05-02T12:42:44.98Z</time></trkpt><trkpt lat="40.2246983" lon="14.98246"><ele>22.799999999999997</ele><time>2026-05-02T12:42:45.979Z</time></trkpt><trkpt lat="40.22464" lon="14.9823417"><ele>22.6</ele><time>2026-05-02T12:42:46.979Z</time></trkpt><trkpt lat="40.2245867" lon="14.9822083"><ele>22.4</ele><time>2026-05-02T12:42:47.98Z</time></trkpt><trkpt lat="40.224545" lon="14.9820683"><ele>22.200000000000003</ele><time>2026-05-02T12:42:48.98Z</time></trkpt><trkpt lat="40.2245283" lon="14.9819267"><ele>22.0</ele><time>2026-05-02T12:42:49.98Z</time></trkpt><trkpt lat="40.2245233" lon="14.9817717"><ele>24.0</ele><time>2026-05-02T12:42:50.979Z</time></trkpt><trkpt lat="40.2245233" lon="14.98162"><ele>26.0</ele><time>2026-05-02T12:42:51.98Z</time></trkpt><trkpt lat="40.2245267" lon="14.9814817"><ele>28.0</ele><time>2026-05-02T12:42:52.979Z</time></trkpt><trkpt lat="40.2245467" lon="14.98134"><ele>30.0</ele><time>2026-05-02T12:42:53.979Z</time></trkpt><trkpt lat="40.22457" lon="14.9811867"><ele>30.0</ele><time>2026-05-02T12:42:54.979Z</time></trkpt><trkpt lat="40.2245967" lon="14.981035"><ele>30.0</ele><time>2026-05-02T12:42:55.979Z</time></trkpt><trkpt lat="40.2246317" lon="14.9808733"><ele>30.0</ele><time>2026-05-02T12:42:56.979Z</time></trkpt><trkpt lat="40.2246717" lon="14.9807"><ele>30.0</ele><time>2026-05-02T12:42:57.979Z</time></trkpt><trkpt lat="40.2247067" lon="14.980525"><ele>30.5</ele><time>2026-05-02T12:42:58.98Z</time></trkpt><trkpt lat="40.2247567" lon="14.98034"><ele>31.0</ele><time>2026-05-02T12:42:59.979Z</time></trkpt><trkpt lat="40.2247983" lon="14.9801683"><ele>31.5</ele><time>2026-05-02T12:43:00.979Z</time></trkpt><trkpt lat="40.2248367" lon="14.9800033"><ele>32.0</ele><time>2026-05-02T12:43:01.979Z</time></trkpt><trkpt lat="40.2248783" lon="14.9798417"><ele>37.5</ele><time>2026-05-02T12:43:02.98Z</time></trkpt><trkpt lat="40.2249217" lon="14.9796917"><ele>43.0</ele><time>2026-05-02T12:43:03.979Z</time></trkpt><trkpt lat="40.2249467" lon="14.9795217"><ele>48.5</ele><time>2026-05-02T12:43:04.98Z</time></trkpt><trkpt lat="40.22498" lon="14.979355"><ele>54.0</ele><time>2026-05-02T12:43:05.979Z</time></trkpt><trkpt lat="40.225005" lon="14.9791783"><ele>54.0</ele><time>2026-05-02T12:43:06.979Z</time></trkpt><trkpt lat="40.2250267" lon="14.9789967"><ele>54.0</ele><time>2026-05-02T12:43:07.98Z</time></trkpt><trkpt lat="40.2250483" lon="14.9788133"><ele>54.0</ele><time>2026-05-02T12:43:08.979Z</time></trkpt><trkpt lat="40.225075" lon="14.9786317"><ele>54.0</ele><time>2026-05-02T12:43:09.979Z</time></trkpt><trkpt lat="40.225095" lon="14.97844"><ele>54.25</ele><time>2026-05-02T12:43:10.979Z</time></trkpt><trkpt lat="40.225125" lon="14.9782483"><ele>54.5</ele><time>2026-05-02T12:43:11.979Z</time></trkpt><trkpt lat="40.2251367" lon="14.9780567"><ele>54.75</ele><time>2026-05-02T12:43:12.98Z</time></trkpt><trkpt lat="40.2251467" lon="14.9778667"><ele>55.0</ele><time>2026-05-02T12:43:13.98Z</time></trkpt><trkpt lat="40.2251667" lon="14.977675"><ele>55.666666666666664</ele><time>2026-05-02T12:43:14.979Z</time></trkpt><trkpt lat="40.2251867" lon="14.9774783"><ele>56.33333333333333</ele><time>2026-05-02T12:43:15.979Z</time></trkpt><trkpt lat="40.225205" lon="14.977285"><ele>57.0</ele><time>2026-05-02T12:43:16.979Z</time></trkpt><trkpt lat="40.2252333" lon="14.9770917"><ele>57.0</ele><time>2026-05-02T12:43:17.979Z</time></trkpt><trkpt lat="40.2252683" lon="14.9769083"><ele>57.0</ele><time>2026-05-02T12:43:18.98Z</time></trkpt><trkpt lat="40.2253017" lon="14.9767283"><ele>57.0</ele><time>2026-05-02T12:43:19.979Z</time></trkpt><trkpt lat="40.22534" lon="14.976545"><ele>57.0</ele><time>2026-05-02T12:43:20.979Z</time></trkpt><trkpt lat="40.2253933" lon="14.9763633"><ele>56.75</ele><time>2026-05-02T12:43:21.98Z</time></trkpt><trkpt lat="40.2254483" lon="14.9761917"><ele>56.5</ele><time>2026-05-02T12:43:22.98Z</time></trkpt><trkpt lat="40.2255133" lon="14.9760317"><ele>56.25</ele><time>2026-05-02T12:43:23.98Z</time></trkpt><trkpt lat="40.2255783" lon="14.975885"><ele>56.0</ele><time>2026-05-02T12:43:24.98Z</time></trkpt><trkpt lat="40.2256467" lon="14.9757633"><ele>61.0</ele><time>2026-05-02T12:43:25.979Z</time></trkpt><trkpt lat="40.2257033" lon="14.9756367"><ele>66.0</ele><time>2026-05-02T12:43:26.98Z</time></trkpt><trkpt lat="40.22575" lon="14.9755083"><ele>71.0</ele><time>2026-05-02T12:43:27.979Z</time></trkpt><trkpt lat="40.2257667" lon="14.9753833"><ele>76.0</ele><time>2026-05-02T12:43:28.979Z</time></trkpt><trkpt lat="40.2257617" lon="14.9752583"><ele>81.0</ele><time>2026-05-02T12:43:29.979Z</time></trkpt><trkpt lat="40.2257433" lon="14.975145"><ele>81.0</ele><time>2026-05-02T12:43:30.979Z</time></trkpt><trkpt lat="40.2256983" lon="14.97505"><ele>81.0</ele><time>2026-05-02T12:43:31.979Z</time></trkpt><trkpt lat="40.2256217" lon="14.974975"><ele>81.0</ele><time>2026-05-02T12:43:32.98Z</time></trkpt><trkpt lat="40.2255317" lon="14.97493"><ele>81.0</ele><time>2026-05-02T12:43:33.979Z</time></trkpt><trkpt lat="40.2254183" lon="14.97492"><ele>81.0</ele><time>2026-05-02T12:43:34.979Z</time></trkpt><trkpt lat="40.2252833" lon="14.9749383"><ele>79.75</ele><time>2026-05-02T12:43:35.979Z</time></trkpt><trkpt lat="40.2251567" lon="14.9749467"><ele>78.5</ele><time>2026-05-02T12:43:36.979Z</time></trkpt><trkpt lat="40.2250183" lon="14.97494"><ele>77.25</ele><time>2026-05-02T12:43:37.979Z</time></trkpt><trkpt lat="40.2248933" lon="14.9749267"><ele>76.0</ele><time>2026-05-02T12:43:38.98Z</time></trkpt><trkpt lat="40.2247717" lon="14.9749033"><ele>75.8</ele><time>2026-05-02T12:43:39.979Z</time></trkpt><trkpt lat="40.224655" lon="14.9748867"><ele>75.6</ele><time>2026-05-02T12:43:40.979Z</time></trkpt><trkpt lat="40.224545" lon="14.97486"><ele>75.4</ele><time>2026-05-02T12:43:41.979Z</time></trkpt><trkpt lat="40.22444" lon="14.974825"><ele>75.2</ele><time>2026-05-02T12:43:42.979Z</time></trkpt><trkpt lat="40.22435" lon="14.9747683"><ele>75.0</ele><time>2026-05-02T12:43:43.979Z</time></trkpt><trkpt lat="40.2242583" lon="14.9747017"><ele>75.0</ele><time>2026-05-02T12:43:44.979Z</time></trkpt><trkpt lat="40.224175" lon="14.9746317"><ele>75.0</ele><time>2026-05-02T12:43:45.978Z</time></trkpt><trkpt lat="40.2241017" lon="14.9745733"><ele>75.0</ele><time>2026-05-02T12:43:46.978Z</time></trkpt><trkpt lat="40.224025" lon="14.9745517"><ele>75.0</ele><time>2026-05-02T12:43:47.978Z</time></trkpt><trkpt lat="40.2239417" lon="14.9745733"><ele>75.0</ele><time>2026-05-02T12:43:48.979Z</time></trkpt><trkpt lat="40.2238583" lon="14.9746217"><ele>75.0</ele><time>2026-05-02T12:43:49.978Z</time></trkpt><trkpt lat="40.223765" lon="14.974725"><ele>74.25</ele><time>2026-05-02T12:43:50.979Z</time></trkpt><trkpt lat="40.223665" lon="14.9748483"><ele>73.5</ele><time>2026-05-02T12:43:51.978Z</time></trkpt><trkpt lat="40.2235617" lon="14.97497"><ele>72.75</ele><time>2026-05-02T12:43:52.979Z</time></trkpt><trkpt lat="40.2234483" lon="14.9750867"><ele>72.0</ele><time>2026-05-02T12:43:53.979Z</time></trkpt><trkpt lat="40.223345" lon="14.9752017"><ele>72.0</ele><time>2026-05-02T12:43:54.979Z</time></trkpt><trkpt lat="40.22324" lon="14.975315"><ele>72.0</ele><time>2026-05-02T12:43:55.978Z</time></trkpt><trkpt lat="40.2231333" lon="14.97541"><ele>72.0</ele><time>2026-05-02T12:43:56.978Z</time></trkpt><trkpt lat="40.223035" lon="14.9754967"><ele>72.0</ele><time>2026-05-02T12:43:57.978Z</time></trkpt><trkpt lat="40.2229317" lon="14.9755817"><ele>73.0</ele><time>2026-05-02T12:43:58.978Z</time></trkpt><trkpt lat="40.2228267" lon="14.9756533"><ele>74.0</ele><time>2026-05-02T12:43:59.978Z</time></trkpt><trkpt lat="40.2227117" lon="14.97572"><ele>75.0</ele><time>2026-05-02T12:44:00.979Z</time></trkpt><trkpt lat="40.2225933" lon="14.9758"><ele>76.0</ele><time>2026-05-02T12:44:01.978Z</time></trkpt><trkpt lat="40.2224733" lon="14.9758733"><ele>76.0</ele><time>2026-05-02T12:44:02.978Z</time></trkpt><trkpt lat="40.22235" lon="14.9759617"><ele>76.0</ele><time>2026-05-02T12:44:03.979Z</time></trkpt><trkpt lat="40.22224" lon="14.9760783"><ele>76.0</ele><time>2026-05-02T12:44:04.979Z</time></trkpt><trkpt lat="40.2221367" lon="14.976215"><ele>76.0</ele><time>2026-05-02T12:44:05.979Z</time></trkpt><trkpt lat="40.2220433" lon="14.976345"><ele>79.19999999999999</ele><time>2026-05-02T12:44:06.979Z</time></trkpt><trkpt lat="40.2219583" lon="14.9764483"><ele>82.39999999999999</ele><time>2026-05-02T12:44:07.978Z</time></trkpt><trkpt lat="40.2218617" lon="14.9764983"><ele>85.6</ele><time>2026-05-02T12:44:08.978Z</time></trkpt><trkpt lat="40.221775" lon="14.9764983"><ele>88.8</ele><time>2026-05-02T12:44:09.978Z</time></trkpt><trkpt lat="40.2216817" lon="14.97646"><ele>92.0</ele><time>2026-05-02T12:44:10.978Z</time></trkpt><trkpt lat="40.221595" lon="14.9764033"><ele>92.0</ele><time>2026-05-02T12:44:11.978Z</time></trkpt><trkpt lat="40.2214883" lon="14.9763617"><ele>92.0</ele><time>2026-05-02T12:44:12.979Z</time></trkpt><trkpt lat="40.22139" lon="14.9763467"><ele>92.0</ele><time>2026-05-02T12:44:13.978Z</time></trkpt><trkpt lat="40.2213" lon="14.9763683"><ele>92.0</ele><time>2026-05-02T12:44:14.979Z</time></trkpt><trkpt lat="40.22123" lon="14.97641"><ele>92.0</ele><time>2026-05-02T12:44:15.978Z</time></trkpt><trkpt lat="40.2211717" lon="14.9764467"><ele>92.0</ele><time>2026-05-02T12:44:16.979Z</time></trkpt><trkpt lat="40.221095" lon="14.9765117"><ele>87.8</ele><time>2026-05-02T12:44:18.978Z</time></trkpt><trkpt lat="40.22101" lon="14.9765617"><ele>83.6</ele><time>2026-05-02T12:44:20.978Z</time></trkpt><trkpt lat="40.2209167" lon="14.976565"><ele>79.39999999999999</ele><time>2026-05-02T12:44:22.978Z</time></trkpt><trkpt lat="40.2207967" lon="14.976555"><ele>75.19999999999999</ele><time>2026-05-02T12:44:24.978Z</time></trkpt><trkpt lat="40.2207483" lon="14.9764583"><ele>71.0</ele><time>2026-05-02T12:44:26.979Z</time></trkpt><trkpt lat="40.2207967" lon="14.9763467"><ele>71.0</ele><time>2026-05-02T12:44:28.978Z</time></trkpt><trkpt lat="40.2208583" lon="14.976325"><ele>71.0</ele><time>2026-05-02T12:44:29.978Z</time></trkpt><trkpt lat="40.2209433" lon="14.9763233"><ele>71.0</ele><time>2026-05-02T12:44:30.978Z</time></trkpt><trkpt lat="40.22103" lon="14.976305"><ele>71.0</ele><time>2026-05-02T12:44:31.978Z</time></trkpt><trkpt lat="40.2211233" lon="14.9762783"><ele>71.0</ele><time>2026-05-02T12:44:32.978Z</time></trkpt><trkpt lat="40.221205" lon="14.976235"><ele>71.0</ele><time>2026-05-02T12:44:33.979Z</time></trkpt><trkpt lat="40.2212833" lon="14.9761833"><ele>71.0</ele><time>2026-05-02T12:44:34.978Z</time></trkpt><trkpt lat="40.221355" lon="14.976135"><ele>71.0</ele><time>2026-05-02T12:44:35.978Z</time></trkpt><trkpt lat="40.2214283" lon="14.9760933"><ele>71.0</ele><time>2026-05-02T12:44:36.978Z</time></trkpt><trkpt lat="40.2215067" lon="14.9760633"><ele>71.0</ele><time>2026-05-02T12:44:37.979Z</time></trkpt><trkpt lat="40.2215867" lon="14.97605"><ele>71.0</ele><time>2026-05-02T12:44:38.979Z</time></trkpt><trkpt lat="40.22166" lon="14.9760317"><ele>71.0</ele><time>2026-05-02T12:44:39.978Z</time></trkpt><trkpt lat="40.22176" lon="14.9759817"><ele>75.19999999999999</ele><time>2026-05-02T12:44:41.978Z</time></trkpt><trkpt lat="40.221845" lon="14.9758833"><ele>79.39999999999999</ele><time>2026-05-02T12:44:43.978Z</time></trkpt><trkpt lat="40.2219267" lon="14.9757833"><ele>83.6</ele><time>2026-05-02T12:44:45.978Z</time></trkpt><trkpt lat="40.2219783" lon="14.9757267"><ele>87.8</ele><time>2026-05-02T12:44:46.978Z</time></trkpt><trkpt lat="40.2220633" lon="14.9756433"><ele>92.0</ele><time>2026-05-02T12:44:48.978Z</time></trkpt><trkpt lat="40.2221133" lon="14.9755467"><ele>95.5</ele><time>2026-05-02T12:44:50.979Z</time></trkpt><trkpt lat="40.2221" lon="14.9754283"><ele>99.0</ele><time>2026-05-02T12:44:52.979Z</time></trkpt><trkpt lat="40.2220117" lon="14.9753583"><ele>102.5</ele><time>2026-05-02T12:44:54.979Z</time></trkpt><trkpt lat="40.2219417" lon="14.9753817"><ele>106.0</ele><time>2026-05-02T12:44:55.979Z</time></trkpt><trkpt lat="40.22188" lon="14.9754367"><ele>109.49999999999999</ele><time>2026-05-02T12:44:56.978Z</time></trkpt><trkpt lat="40.2218267" lon="14.9755333"><ele>113.0</ele><time>2026-05-02T12:44:57.979Z</time></trkpt><trkpt lat="40.2217683" lon="14.9756117"><ele>112.99999999999999</ele><time>2026-05-02T12:44:58.979Z</time></trkpt><trkpt lat="40.2216933" lon="14.9756783"><ele>113.0</ele><time>2026-05-02T12:44:59.978Z</time></trkpt><trkpt lat="40.221615" lon="14.9757"><ele>113.0</ele><time>2026-05-02T12:45:00.978Z</time></trkpt><trkpt lat="40.221535" lon="14.9757133"><ele>113.0</ele><time>2026-05-02T12:45:01.978Z</time></trkpt><trkpt lat="40.2214633" lon="14.9757083"><ele>112.99999999999999</ele><time>2026-05-02T12:45:02.979Z</time></trkpt><trkpt lat="40.2213917" lon="14.9757"><ele>113.0</ele><time>2026-05-02T12:45:03.978Z</time></trkpt><trkpt lat="40.2213283" lon="14.975675"><ele>107.60000000000001</ele><time>2026-05-02T12:45:04.978Z</time></trkpt><trkpt lat="40.221235" lon="14.975565"><ele>102.20000000000002</ele><time>2026-05-02T12:45:06.978Z</time></trkpt><trkpt lat="40.2212167" lon="14.9754783"><ele>96.8</ele><time>2026-05-02T12:45:07.979Z</time></trkpt><trkpt lat="40.2212267" lon="14.9753817"><ele>91.4</ele><time>2026-05-02T12:45:08.978Z</time></trkpt><trkpt lat="40.2212717" lon="14.9752867"><ele>86.0</ele><time>2026-05-02T12:45:09.978Z</time></trkpt><trkpt lat="40.2213383" lon="14.975185"><ele>86.0</ele><time>2026-05-02T12:45:10.978Z</time></trkpt><trkpt lat="40.2214017" lon="14.97508"><ele>86.0</ele><time>2026-05-02T12:45:11.978Z</time></trkpt><trkpt lat="40.2214383" lon="14.9749633"><ele>86.0</ele><time>2026-05-02T12:45:12.978Z</time></trkpt><trkpt lat="40.2214383" lon="14.9748367"><ele>86.0</ele><time>2026-05-02T12:45:13.978Z</time></trkpt><trkpt lat="40.2214283" lon="14.9746983"><ele>86.0</ele><time>2026-05-02T12:45:14.978Z</time></trkpt><trkpt lat="40.221405" lon="14.9745533"><ele>86.19999999999999</ele><time>2026-05-02T12:45:15.978Z</time></trkpt><trkpt lat="40.2213917" lon="14.9744117"><ele>86.39999999999999</ele><time>2026-05-02T12:45:16.978Z</time></trkpt><trkpt lat="40.2213817" lon="14.9742683"><ele>86.6</ele><time>2026-05-02T12:45:17.978Z</time></trkpt><trkpt lat="40.221365" lon="14.97413"><ele>86.8</ele><time>2026-05-02T12:45:18.978Z</time></trkpt><trkpt lat="40.2213617" lon="14.9740017"><ele>87.0</ele><time>2026-05-02T12:45:19.978Z</time></trkpt><trkpt lat="40.221375" lon="14.9738783"><ele>83.39999999999999</ele><time>2026-05-02T12:45:20.979Z</time></trkpt><trkpt lat="40.22139" lon="14.973745"><ele>79.8</ele><time>2026-05-02T12:45:21.978Z</time></trkpt><trkpt lat="40.22142" lon="14.97361"><ele>76.2</ele><time>2026-05-02T12:45:22.979Z</time></trkpt><trkpt lat="40.2214533" lon="14.9734783"><ele>72.6</ele><time>2026-05-02T12:45:23.978Z</time></trkpt><trkpt lat="40.2214833" lon="14.9733483"><ele>69.0</ele><time>2026-05-02T12:45:24.978Z</time></trkpt><trkpt lat="40.221515" lon="14.9732217"><ele>82.5</ele><time>2026-05-02T12:45:25.978Z</time></trkpt><trkpt lat="40.2215583" lon="14.973085"><ele>96.0</ele><time>2026-05-02T12:45:26.978Z</time></trkpt><trkpt lat="40.2216033" lon="14.9729517"><ele>109.5</ele><time>2026-05-02T12:45:27.978Z</time></trkpt><trkpt lat="40.2216567" lon="14.97282"><ele>123.0</ele><time>2026-05-02T12:45:28.979Z</time></trkpt><trkpt lat="40.221715" lon="14.972695"><ele>123.0</ele><time>2026-05-02T12:45:29.978Z</time></trkpt><trkpt lat="40.22177" lon="14.97256"><ele>123.0</ele><time>2026-05-02T12:45:30.978Z</time></trkpt><trkpt lat="40.22183" lon="14.972425"><ele>123.0</ele><time>2026-05-02T12:45:31.979Z</time></trkpt><trkpt lat="40.22189" lon="14.9722933"><ele>123.0</ele><time>2026-05-02T12:45:32.979Z</time></trkpt><trkpt lat="40.2219567" lon="14.9721617"><ele>114.0</ele><time>2026-05-02T12:45:33.978Z</time></trkpt><trkpt lat="40.222025" lon="14.9720333"><ele>105.0</ele><time>2026-05-02T12:45:34.978Z</time></trkpt><trkpt lat="40.2220917" lon="14.9718917"><ele>96.0</ele><time>2026-05-02T12:45:35.978Z</time></trkpt><trkpt lat="40.2221583" lon="14.9717467"><ele>87.0</ele><time>2026-05-02T12:45:36.979Z</time></trkpt><trkpt lat="40.222215" lon="14.9716083"><ele>80.0</ele><time>2026-05-02T12:45:37.978Z</time></trkpt><trkpt lat="40.2222667" lon="14.9714583"><ele>73.0</ele><time>2026-05-02T12:45:38.978Z</time></trkpt><trkpt lat="40.22232" lon="14.9713117"><ele>66.0</ele><time>2026-05-02T12:45:39.978Z</time></trkpt><trkpt lat="40.2223617" lon="14.9711667"><ele>59.0</ele><time>2026-05-02T12:45:40.978Z</time></trkpt><trkpt lat="40.2224067" lon="14.9710183"><ele>72.75</ele><time>2026-05-02T12:45:41.978Z</time></trkpt><trkpt lat="40.2224517" lon="14.9708683"><ele>86.5</ele><time>2026-05-02T12:45:42.979Z</time></trkpt><trkpt lat="40.222515" lon="14.9707067"><ele>100.25</ele><time>2026-05-02T12:45:43.979Z</time></trkpt><trkpt lat="40.2225717" lon="14.970565"><ele>114.0</ele><time>2026-05-02T12:45:44.978Z</time></trkpt><trkpt lat="40.2226333" lon="14.9704283"><ele>114.0</ele><time>2026-05-02T12:45:45.979Z</time></trkpt><trkpt lat="40.222695" lon="14.9703017"><ele>114.0</ele><time>2026-05-02T12:45:46.978Z</time></trkpt><trkpt lat="40.2227533" lon="14.9701783"><ele>114.0</ele><time>2026-05-02T12:45:47.979Z</time></trkpt><trkpt lat="40.2228167" lon="14.97006"><ele>114.0</ele><time>2026-05-02T12:45:48.978Z</time></trkpt><trkpt lat="40.22289" lon="14.969945"><ele>106.25</ele><time>2026-05-02T12:45:49.978Z</time></trkpt><trkpt lat="40.222965" lon="14.9698433"><ele>98.5</ele><time>2026-05-02T12:45:50.979Z</time></trkpt><trkpt lat="40.223045" lon="14.96974"><ele>90.75</ele><time>2026-05-02T12:45:51.979Z</time></trkpt><trkpt lat="40.22312" lon="14.9696283"><ele>83.0</ele><time>2026-05-02T12:45:52.979Z</time></trkpt><trkpt lat="40.2232" lon="14.969515"><ele>90.75</ele><time>2026-05-02T12:45:53.979Z</time></trkpt><trkpt lat="40.2232817" lon="14.9693917"><ele>98.5</ele><time>2026-05-02T12:45:54.978Z</time></trkpt><trkpt lat="40.22337" lon="14.9692767"><ele>106.25</ele><time>2026-05-02T12:45:55.979Z</time></trkpt><trkpt lat="40.2234733" lon="14.9691767"><ele>114.0</ele><time>2026-05-02T12:45:56.978Z</time></trkpt><trkpt lat="40.22358" lon="14.9690933"><ele>114.0</ele><time>2026-05-02T12:45:57.978Z</time></trkpt><trkpt lat="40.223695" lon="14.96901"><ele>114.0</ele><time>2026-05-02T12:45:58.979Z</time></trkpt><trkpt lat="40.2238167" lon="14.9689217"><ele>114.0</ele><time>2026-05-02T12:45:59.978Z</time></trkpt><trkpt lat="40.2239333" lon="14.9688483"><ele>114.0</ele><time>2026-05-02T12:46:00.979Z</time></trkpt><trkpt lat="40.2240517" lon="14.9687933"><ele>124.0</ele><time>2026-05-02T12:46:01.979Z</time></trkpt><trkpt lat="40.2241867" lon="14.9687683"><ele>134.0</ele><time>2026-05-02T12:46:02.978Z</time></trkpt><trkpt lat="40.2243083" lon="14.96876"><ele>144.0</ele><time>2026-05-02T12:46:03.978Z</time></trkpt><trkpt lat="40.22442" lon="14.9687533"><ele>154.0</ele><time>2026-05-02T12:46:04.978Z</time></trkpt><trkpt lat="40.2245333" lon="14.96874"><ele>154.0</ele><time>2026-05-02T12:46:05.978Z</time></trkpt><trkpt lat="40.22464" lon="14.9686917"><ele>154.0</ele><time>2026-05-02T12:46:06.978Z</time></trkpt><trkpt lat="40.2247417" lon="14.9686117"><ele>154.0</ele><time>2026-05-02T12:46:07.978Z</time></trkpt><trkpt lat="40.2248533" lon="14.968505"><ele>154.0</ele><time>2026-05-02T12:46:08.978Z</time></trkpt><trkpt lat="40.2249533" lon="14.9683867"><ele>145.75</ele><time>2026-05-02T12:46:09.978Z</time></trkpt><trkpt lat="40.2250417" lon="14.968275"><ele>137.5</ele><time>2026-05-02T12:46:10.978Z</time></trkpt><trkpt lat="40.2251217" lon="14.9681617"><ele>129.25</ele><time>2026-05-02T12:46:11.978Z</time></trkpt><trkpt lat="40.225185" lon="14.968035"><ele>121.0</ele><time>2026-05-02T12:46:12.978Z</time></trkpt><trkpt lat="40.2252383" lon="14.9679017"><ele>121.0</ele><time>2026-05-02T12:46:13.978Z</time></trkpt><trkpt lat="40.2253083" lon="14.9677683"><ele>121.0</ele><time>2026-05-02T12:46:14.979Z</time></trkpt><trkpt lat="40.2253817" lon="14.967655"><ele>121.0</ele><time>2026-05-02T12:46:15.979Z</time></trkpt><trkpt lat="40.225475" lon="14.9675467"><ele>121.0</ele><time>2026-05-02T12:46:16.978Z</time></trkpt><trkpt lat="40.2255583" lon="14.96743"><ele>124.5</ele><time>2026-05-02T12:46:17.979Z</time></trkpt><trkpt lat="40.225645" lon="14.9673083"><ele>128.0</ele><time>2026-05-02T12:46:18.978Z</time></trkpt><trkpt lat="40.22573" lon="14.9672"><ele>131.5</ele><time>2026-05-02T12:46:19.978Z</time></trkpt><trkpt lat="40.2258117" lon="14.9670883"><ele>135.0</ele><time>2026-05-02T12:46:20.978Z</time></trkpt><trkpt lat="40.2258933" lon="14.9669667"><ele>135.0</ele><time>2026-05-02T12:46:21.978Z</time></trkpt><trkpt lat="40.2259867" lon="14.9668517"><ele>135.0</ele><time>2026-05-02T12:46:22.978Z</time></trkpt><trkpt lat="40.22611" lon="14.9667717"><ele>135.0</ele><time>2026-05-02T12:46:23.978Z</time></trkpt><trkpt lat="40.22623" lon="14.966675"><ele>135.0</ele><time>2026-05-02T12:46:24.978Z</time></trkpt><trkpt lat="40.2263317" lon="14.9665733"><ele>134.0</ele><time>2026-05-02T12:46:25.978Z</time></trkpt><trkpt lat="40.2264467" lon="14.96645"><ele>133.0</ele><time>2026-05-02T12:46:26.978Z</time></trkpt><trkpt lat="40.226575" lon="14.9662683"><ele>132.0</ele><time>2026-05-02T12:46:27.979Z</time></trkpt><trkpt lat="40.2267083" lon="14.96605"><ele>120.0</ele><time>2026-05-02T12:46:28.978Z</time></trkpt><trkpt lat="40.2268417" lon="14.96582"><ele>108.0</ele><time>2026-05-02T12:46:29.979Z</time></trkpt><trkpt lat="40.2269717" lon="14.9656033"><ele>96.0</ele><time>2026-05-02T12:46:30.979Z</time></trkpt><trkpt lat="40.2271067" lon="14.9654167"><ele>96.0</ele><time>2026-05-02T12:46:31.978Z</time></trkpt><trkpt lat="40.22726" lon="14.96525"><ele>96.0</ele><time>2026-05-02T12:46:32.978Z</time></trkpt><trkpt lat="40.2274233" lon="14.9651017"><ele>96.0</ele><time>2026-05-02T12:46:33.978Z</time></trkpt><trkpt lat="40.227575" lon="14.96499"><ele>97.66666666666666</ele><time>2026-05-02T12:46:34.979Z</time></trkpt><trkpt lat="40.2277217" lon="14.964875"><ele>99.33333333333333</ele><time>2026-05-02T12:46:35.978Z</time></trkpt><trkpt lat="40.2278717" lon="14.9647667"><ele>101.0</ele><time>2026-05-02T12:46:36.978Z</time></trkpt><trkpt lat="40.2280083" lon="14.9646783"><ele>101.0</ele><time>2026-05-02T12:46:37.979Z</time></trkpt><trkpt lat="40.2281283" lon="14.9645483"><ele>101.0</ele><time>2026-05-02T12:46:38.978Z</time></trkpt><trkpt lat="40.2282333" lon="14.964385"><ele>101.0</ele><time>2026-05-02T12:46:39.978Z</time></trkpt><trkpt lat="40.2283283" lon="14.9642383"><ele>96.25</ele><time>2026-05-02T12:46:40.979Z</time></trkpt><trkpt lat="40.2284217" lon="14.9641083"><ele>91.5</ele><time>2026-05-02T12:46:41.978Z</time></trkpt><trkpt lat="40.22852" lon="14.9639567"><ele>86.75</ele><time>2026-05-02T12:46:42.978Z</time></trkpt><trkpt lat="40.2286367" lon="14.96383"><ele>82.0</ele><time>2026-05-02T12:46:43.978Z</time></trkpt><trkpt lat="40.2287533" lon="14.9637283"><ele>82.0</ele><time>2026-05-02T12:46:44.978Z</time></trkpt><trkpt lat="40.228875" lon="14.9636167"><ele>82.0</ele><time>2026-05-02T12:46:45.978Z</time></trkpt><trkpt lat="40.22901" lon="14.9635283"><ele>82.0</ele><time>2026-05-02T12:46:46.978Z</time></trkpt><trkpt lat="40.2291517" lon="14.9634367"><ele>80.33333333333333</ele><time>2026-05-02T12:46:47.978Z</time></trkpt><trkpt lat="40.22932" lon="14.96334"><ele>78.66666666666667</ele><time>2026-05-02T12:46:48.978Z</time></trkpt><trkpt lat="40.2294783" lon="14.9632083"><ele>77.0</ele><time>2026-05-02T12:46:49.978Z</time></trkpt><trkpt lat="40.2296383" lon="14.9630967"><ele>77.0</ele><time>2026-05-02T12:46:50.978Z</time></trkpt><trkpt lat="40.229795" lon="14.96299"><ele>77.0</ele><time>2026-05-02T12:46:51.979Z</time></trkpt><trkpt lat="40.2299483" lon="14.9628867"><ele>77.0</ele><time>2026-05-02T12:46:52.979Z</time></trkpt><trkpt lat="40.2300967" lon="14.9627733"><ele>88.0</ele><time>2026-05-02T12:46:53.978Z</time></trkpt><trkpt lat="40.2302567" lon="14.96271"><ele>99.0</ele><time>2026-05-02T12:46:54.978Z</time></trkpt><trkpt lat="40.2304117" lon="14.9626583"><ele>110.0</ele><time>2026-05-02T12:46:55.978Z</time></trkpt><trkpt lat="40.2305667" lon="14.9626083"><ele>111.5</ele><time>2026-05-02T12:46:56.978Z</time></trkpt><trkpt lat="40.230715" lon="14.9625567"><ele>113.0</ele><time>2026-05-02T12:46:57.978Z</time></trkpt><trkpt lat="40.230845" lon="14.9625117"><ele>114.5</ele><time>2026-05-02T12:46:58.978Z</time></trkpt><trkpt lat="40.2309683" lon="14.96246"><ele>116.0</ele><time>2026-05-02T12:46:59.979Z</time></trkpt><trkpt lat="40.231075" lon="14.9623883"><ele>106.5</ele><time>2026-05-02T12:47:00.978Z</time></trkpt><trkpt lat="40.2311867" lon="14.9622867"><ele>97.0</ele><time>2026-05-02T12:47:01.978Z</time></trkpt><trkpt lat="40.2312833" lon="14.9621483"><ele>87.5</ele><time>2026-05-02T12:47:02.979Z</time></trkpt><trkpt lat="40.23137" lon="14.96199"><ele>78.0</ele><time>2026-05-02T12:47:03.978Z</time></trkpt><trkpt lat="40.2314633" lon="14.9618267"><ele>74.33333333333333</ele><time>2026-05-02T12:47:04.978Z</time></trkpt><trkpt lat="40.2315767" lon="14.9616833"><ele>70.66666666666666</ele><time>2026-05-02T12:47:05.978Z</time></trkpt><trkpt lat="40.2317083" lon="14.96156"><ele>67.0</ele><time>2026-05-02T12:47:06.978Z</time></trkpt><trkpt lat="40.23184" lon="14.9614583"><ele>67.0</ele><time>2026-05-02T12:47:07.979Z</time></trkpt><trkpt lat="40.231975" lon="14.9613733"><ele>67.0</ele><time>2026-05-02T12:47:08.979Z</time></trkpt><trkpt lat="40.2321233" lon="14.9613183"><ele>67.0</ele><time>2026-05-02T12:47:09.979Z</time></trkpt><trkpt lat="40.2322717" lon="14.96128"><ele>71.0</ele><time>2026-05-02T12:47:10.978Z</time></trkpt><trkpt lat="40.2324067" lon="14.9612533"><ele>75.0</ele><time>2026-05-02T12:47:11.978Z</time></trkpt><trkpt lat="40.2325467" lon="14.961215"><ele>79.0</ele><time>2026-05-02T12:47:12.978Z</time></trkpt><trkpt lat="40.2326967" lon="14.9611883"><ele>83.0</ele><time>2026-05-02T12:47:13.978Z</time></trkpt><trkpt lat="40.2328567" lon="14.9611933"><ele>83.0</ele><time>2026-05-02T12:47:14.979Z</time></trkpt><trkpt lat="40.233045" lon="14.9612167"><ele>83.0</ele><time>2026-05-02T12:47:15.978Z</time></trkpt><trkpt lat="40.2332533" lon="14.9612467"><ele>83.0</ele><time>2026-05-02T12:47:16.978Z</time></trkpt><trkpt lat="40.233455" lon="14.9612467"><ele>80.0</ele><time>2026-05-02T12:47:17.978Z</time></trkpt><trkpt lat="40.23364" lon="14.9612283"><ele>77.0</ele><time>2026-05-02T12:47:18.979Z</time></trkpt><trkpt lat="40.2338033" lon="14.9612167"><ele>74.0</ele><time>2026-05-02T12:47:19.978Z</time></trkpt><trkpt lat="40.23396" lon="14.9612283"><ele>71.0</ele><time>2026-05-02T12:47:20.979Z</time></trkpt><trkpt lat="40.2340983" lon="14.9612667"><ele>68.0</ele><time>2026-05-02T12:47:21.978Z</time></trkpt><trkpt lat="40.234225" lon="14.9613417"><ele>65.0</ele><time>2026-05-02T12:47:22.979Z</time></trkpt><trkpt lat="40.2343233" lon="14.9614383"><ele>62.0</ele><time>2026-05-02T12:47:23.978Z</time></trkpt><trkpt lat="40.2344067" lon="14.9615483"><ele>62.0</ele><time>2026-05-02T12:47:24.979Z</time></trkpt><trkpt lat="40.2344767" lon="14.9616633"><ele>62.0</ele><time>2026-05-02T12:47:25.978Z</time></trkpt><trkpt lat="40.2345367" lon="14.9617967"><ele>62.0</ele><time>2026-05-02T12:47:26.978Z</time></trkpt><trkpt lat="40.2345867" lon="14.9619383"><ele>62.0</ele><time>2026-05-02T12:47:27.979Z</time></trkpt><trkpt lat="40.2346367" lon="14.9621033"><ele>62.5</ele><time>2026-05-02T12:47:28.979Z</time></trkpt><trkpt lat="40.2346783" lon="14.96227"><ele>63.0</ele><time>2026-05-02T12:47:29.978Z</time></trkpt><trkpt lat="40.2347167" lon="14.96242"><ele>63.5</ele><time>2026-05-02T12:47:30.979Z</time></trkpt><trkpt lat="40.23475" lon="14.9625633"><ele>64.0</ele><time>2026-05-02T12:47:31.979Z</time></trkpt><trkpt lat="40.2347733" lon="14.962705"><ele>64.0</ele><time>2026-05-02T12:47:32.978Z</time></trkpt><trkpt lat="40.2347767" lon="14.962845"><ele>64.0</ele><time>2026-05-02T12:47:33.979Z</time></trkpt><trkpt lat="40.2347683" lon="14.9630017"><ele>64.0</ele><time>2026-05-02T12:47:34.978Z</time></trkpt><trkpt lat="40.2347433" lon="14.96316"><ele>64.0</ele><time>2026-05-02T12:47:35.979Z</time></trkpt><trkpt lat="40.23471" lon="14.9633117"><ele>60.400000000000006</ele><time>2026-05-02T12:47:36.978Z</time></trkpt><trkpt lat="40.2346783" lon="14.96346"><ele>56.800000000000004</ele><time>2026-05-02T12:47:37.978Z</time></trkpt><trkpt lat="40.2346417" lon="14.963605"><ele>53.2</ele><time>2026-05-02T12:47:38.978Z</time></trkpt><trkpt lat="40.2346" lon="14.96373"><ele>49.599999999999994</ele><time>2026-05-02T12:47:39.978Z</time></trkpt><trkpt lat="40.2345567" lon="14.9638433"><ele>46.0</ele><time>2026-05-02T12:47:40.979Z</time></trkpt><trkpt lat="40.2345183" lon="14.96395"><ele>46.0</ele><time>2026-05-02T12:47:41.978Z</time></trkpt><trkpt lat="40.2344767" lon="14.9640383"><ele>46.0</ele><time>2026-05-02T12:47:42.979Z</time></trkpt><trkpt lat="40.2344333" lon="14.9641183"><ele>46.0</ele><time>2026-05-02T12:47:43.978Z</time></trkpt><trkpt lat="40.2343767" lon="14.9641967"><ele>46.0</ele><time>2026-05-02T12:47:44.978Z</time></trkpt><trkpt lat="40.2342967" lon="14.9642633"><ele>46.0</ele><time>2026-05-02T12:47:45.978Z</time></trkpt><trkpt lat="40.234215" lon="14.964305"><ele>46.0</ele><time>2026-05-02T12:47:46.978Z</time></trkpt><trkpt lat="40.2341367" lon="14.964325"><ele>46.4</ele><time>2026-05-02T12:47:47.978Z</time></trkpt><trkpt lat="40.2340683" lon="14.96435"><ele>46.8</ele><time>2026-05-02T12:47:48.978Z</time></trkpt><trkpt lat="40.2339633" lon="14.9644167"><ele>47.199999999999996</ele><time>2026-05-02T12:47:50.978Z</time></trkpt><trkpt lat="40.2339067" lon="14.9645383"><ele>47.599999999999994</ele><time>2026-05-02T12:47:52.978Z</time></trkpt><trkpt lat="40.2339033" lon="14.9646333"><ele>48.0</ele><time>2026-05-02T12:47:53.978Z</time></trkpt><trkpt lat="40.23393" lon="14.9647467"><ele>48.0</ele><time>2026-05-02T12:47:54.978Z</time></trkpt><trkpt lat="40.233965" lon="14.9648533"><ele>48.0</ele><time>2026-05-02T12:47:55.978Z</time></trkpt><trkpt lat="40.2340017" lon="14.9649533"><ele>48.0</ele><time>2026-05-02T12:47:56.978Z</time></trkpt><trkpt lat="40.2340383" lon="14.9650383"><ele>48.0</ele><time>2026-05-02T12:47:57.978Z</time></trkpt><trkpt lat="40.2340867" lon="14.9651033"><ele>48.0</ele><time>2026-05-02T12:47:58.978Z</time></trkpt><trkpt lat="40.2341583" lon="14.96514"><ele>48.0</ele><time>2026-05-02T12:47:59.978Z</time></trkpt><trkpt lat="40.2342483" lon="14.96516"><ele>54.66666666666667</ele><time>2026-05-02T12:48:00.978Z</time></trkpt><trkpt lat="40.2343783" lon="14.9651567"><ele>61.333333333333336</ele><time>2026-05-02T12:48:01.978Z</time></trkpt><trkpt lat="40.234555" lon="14.9651233"><ele>68.0</ele><time>2026-05-02T12:48:02.979Z</time></trkpt><trkpt lat="40.2347583" lon="14.96503"><ele>55.5</ele><time>2026-05-02T12:48:03.978Z</time></trkpt><trkpt lat="40.2349967" lon="14.9648733"><ele>43.0</ele><time>2026-05-02T12:48:04.979Z</time></trkpt><trkpt lat="40.2352133" lon="14.9646717"><ele>43.0</ele><time>2026-05-02T12:48:05.978Z</time></trkpt><trkpt lat="40.2354083" lon="14.964485"><ele>43.0</ele><time>2026-05-02T12:48:06.979Z</time></trkpt><trkpt lat="40.23555" lon="14.9643083"><ele>43.0</ele><time>2026-05-02T12:48:07.978Z</time></trkpt><trkpt lat="40.235685" lon="14.9641717"><ele>41.5</ele><time>2026-05-02T12:48:08.978Z</time></trkpt><trkpt lat="40.2357967" lon="14.96405"><ele>40.0</ele><time>2026-05-02T12:48:09.979Z</time></trkpt><trkpt lat="40.2358983" lon="14.9639417"><ele>38.5</ele><time>2026-05-02T12:48:10.978Z</time></trkpt><trkpt lat="40.236" lon="14.9638417"><ele>37.0</ele><time>2026-05-02T12:48:11.978Z</time></trkpt><trkpt lat="40.2360967" lon="14.96375"><ele>37.0</ele><time>2026-05-02T12:48:12.978Z</time></trkpt><trkpt lat="40.2361917" lon="14.9636367"><ele>37.0</ele><time>2026-05-02T12:48:13.978Z</time></trkpt><trkpt lat="40.23628" lon="14.963555"><ele>37.0</ele><time>2026-05-02T12:48:14.978Z</time></trkpt><trkpt lat="40.2363717" lon="14.9634917"><ele>37.0</ele><time>2026-05-02T12:48:15.978Z</time></trkpt><trkpt lat="40.2364417" lon="14.9634617"><ele>37.0</ele><time>2026-05-02T12:48:16.978Z</time></trkpt><trkpt lat="40.2365183" lon="14.9634683"><ele>36.6</ele><time>2026-05-02T12:48:17.978Z</time></trkpt><trkpt lat="40.236605" lon="14.9635617"><ele>36.2</ele><time>2026-05-02T12:48:19.978Z</time></trkpt><trkpt lat="40.2366383" lon="14.9636633"><ele>35.8</ele><time>2026-05-02T12:48:20.978Z</time></trkpt><trkpt lat="40.2366783" lon="14.9637833"><ele>35.4</ele><time>2026-05-02T12:48:21.978Z</time></trkpt><trkpt lat="40.2367217" lon="14.9639367"><ele>35.0</ele><time>2026-05-02T12:48:22.978Z</time></trkpt><trkpt lat="40.2367667" lon="14.9640817"><ele>35.0</ele><time>2026-05-02T12:48:23.978Z</time></trkpt><trkpt lat="40.2368067" lon="14.9642133"><ele>35.0</ele><time>2026-05-02T12:48:24.978Z</time></trkpt><trkpt lat="40.23686" lon="14.9643367"><ele>35.0</ele><time>2026-05-02T12:48:25.978Z</time></trkpt><trkpt lat="40.2369067" lon="14.9644483"><ele>35.0</ele><time>2026-05-02T12:48:26.978Z</time></trkpt><trkpt lat="40.2369467" lon="14.96456"><ele>35.0</ele><time>2026-05-02T12:48:27.979Z</time></trkpt><trkpt lat="40.236995" lon="14.9646783"><ele>35.0</ele><time>2026-05-02T12:48:28.979Z</time></trkpt><trkpt lat="40.2370417" lon="14.96479"><ele>35.0</ele><time>2026-05-02T12:48:29.978Z</time></trkpt><trkpt lat="40.2370917" lon="14.9648983"><ele>35.0</ele><time>2026-05-02T12:48:30.978Z</time></trkpt><trkpt lat="40.2371367" lon="14.965"><ele>35.0</ele><time>2026-05-02T12:48:31.978Z</time></trkpt><trkpt lat="40.2371783" lon="14.965105"><ele>35.0</ele><time>2026-05-02T12:48:32.978Z</time></trkpt><trkpt lat="40.2372317" lon="14.9651967"><ele>36.0</ele><time>2026-05-02T12:48:33.978Z</time></trkpt><trkpt lat="40.2373067" lon="14.9652583"><ele>37.0</ele><time>2026-05-02T12:48:34.978Z</time></trkpt><trkpt lat="40.237385" lon="14.9652983"><ele>38.0</ele><time>2026-05-02T12:48:35.978Z</time></trkpt><trkpt lat="40.237465" lon="14.9652967"><ele>39.0</ele><time>2026-05-02T12:48:36.979Z</time></trkpt><trkpt lat="40.2375583" lon="14.9652433"><ele>40.0</ele><time>2026-05-02T12:48:37.978Z</time></trkpt><trkpt lat="40.2376717" lon="14.9651517"><ele>39.333333333333336</ele><time>2026-05-02T12:48:38.979Z</time></trkpt><trkpt lat="40.2378233" lon="14.96499"><ele>38.666666666666664</ele><time>2026-05-02T12:48:39.978Z</time></trkpt><trkpt lat="40.2380067" lon="14.964795"><ele>38.0</ele><time>2026-05-02T12:48:40.978Z</time></trkpt><trkpt lat="40.2381833" lon="14.9645917"><ele>38.0</ele><time>2026-05-02T12:48:41.978Z</time></trkpt><trkpt lat="40.238335" lon="14.964415"><ele>38.0</ele><time>2026-05-02T12:48:42.979Z</time></trkpt><trkpt lat="40.2384467" lon="14.9642683"><ele>38.0</ele><time>2026-05-02T12:48:43.978Z</time></trkpt><trkpt lat="40.238555" lon="14.964165"><ele>38.8</ele><time>2026-05-02T12:48:44.978Z</time></trkpt><trkpt lat="40.238665" lon="14.9641117"><ele>39.599999999999994</ele><time>2026-05-02T12:48:45.978Z</time></trkpt><trkpt lat="40.238765" lon="14.9640933"><ele>40.400000000000006</ele><time>2026-05-02T12:48:46.978Z</time></trkpt><trkpt lat="40.2388617" lon="14.9641067"><ele>41.2</ele><time>2026-05-02T12:48:47.978Z</time></trkpt><trkpt lat="40.2389617" lon="14.9641467"><ele>42.0</ele><time>2026-05-02T12:48:48.978Z</time></trkpt><trkpt lat="40.2390917" lon="14.964215"><ele>42.0</ele><time>2026-05-02T12:48:49.979Z</time></trkpt><trkpt lat="40.2392433" lon="14.96433"><ele>42.0</ele><time>2026-05-02T12:48:50.978Z</time></trkpt><trkpt lat="40.239425" lon="14.96447"><ele>42.0</ele><time>2026-05-02T12:48:51.978Z</time></trkpt><trkpt lat="40.2395867" lon="14.964575"><ele>42.0</ele><time>2026-05-02T12:48:52.979Z</time></trkpt><trkpt lat="40.2397183" lon="14.96466"><ele>42.0</ele><time>2026-05-02T12:48:53.979Z</time></trkpt><trkpt lat="40.2398267" lon="14.9646967"><ele>42.0</ele><time>2026-05-02T12:48:54.978Z</time></trkpt><trkpt lat="40.2399467" lon="14.9646867"><ele>42.0</ele><time>2026-05-02T12:48:55.978Z</time></trkpt><trkpt lat="40.2400567" lon="14.9646333"><ele>36.666666666666664</ele><time>2026-05-02T12:48:56.978Z</time></trkpt><trkpt lat="40.2401967" lon="14.9645183"><ele>31.333333333333332</ele><time>2026-05-02T12:48:57.978Z</time></trkpt><trkpt lat="40.240345" lon="14.9643567"><ele>26.0</ele><time>2026-05-02T12:48:58.979Z</time></trkpt><trkpt lat="40.2405217" lon="14.96414"><ele>19.5</ele><time>2026-05-02T12:48:59.978Z</time></trkpt><trkpt lat="40.24071" lon="14.96392"><ele>13.0</ele><time>2026-05-02T12:49:00.979Z</time></trkpt><trkpt lat="40.2409183" lon="14.9636983"><ele>13.0</ele><time>2026-05-02T12:49:01.979Z</time></trkpt><trkpt lat="40.2411517" lon="14.9634567"><ele>13.0</ele><time>2026-05-02T12:49:02.978Z</time></trkpt><trkpt lat="40.2413867" lon="14.963195"><ele>13.0</ele><time>2026-05-02T12:49:03.978Z</time></trkpt><trkpt lat="40.2416117" lon="14.9629317"><ele>13.0</ele><time>2026-05-02T12:49:04.978Z</time></trkpt><trkpt lat="40.2418483" lon="14.9626683"><ele>12.0</ele><time>2026-05-02T12:49:05.978Z</time></trkpt><trkpt lat="40.2420733" lon="14.962415"><ele>11.0</ele><time>2026-05-02T12:49:06.979Z</time></trkpt><trkpt lat="40.2422783" lon="14.96218"><ele>11.0</ele><time>2026-05-02T12:49:07.979Z</time></trkpt><trkpt lat="40.2424767" lon="14.961955"><ele>11.0</ele><time>2026-05-02T12:49:08.978Z</time></trkpt><trkpt lat="40.24266" lon="14.9617517"><ele>12.0</ele><time>2026-05-02T12:49:09.978Z</time></trkpt><trkpt lat="40.2428167" lon="14.9615617"><ele>13.0</ele><time>2026-05-02T12:49:10.979Z</time></trkpt><trkpt lat="40.2429633" lon="14.96139"><ele>14.0</ele><time>2026-05-02T12:49:11.978Z</time></trkpt><trkpt lat="40.2431067" lon="14.9612317"><ele>14.333333333333334</ele><time>2026-05-02T12:49:12.979Z</time></trkpt><trkpt lat="40.243255" lon="14.961075"><ele>14.666666666666668</ele><time>2026-05-02T12:49:13.979Z</time></trkpt><trkpt lat="40.2433967" lon="14.9608983"><ele>15.0</ele><time>2026-05-02T12:49:14.978Z</time></trkpt><trkpt lat="40.2435517" lon="14.9606933"><ele>16.0</ele><time>2026-05-02T12:49:15.979Z</time></trkpt><trkpt lat="40.2437267" lon="14.96048"><ele>17.0</ele><time>2026-05-02T12:49:16.979Z</time></trkpt><trkpt lat="40.24392" lon="14.960265"><ele>17.0</ele><time>2026-05-02T12:49:17.978Z</time></trkpt><trkpt lat="40.2441333" lon="14.96004"><ele>17.0</ele><time>2026-05-02T12:49:18.978Z</time></trkpt><trkpt lat="40.24436" lon="14.9598067"><ele>17.0</ele><time>2026-05-02T12:49:19.978Z</time></trkpt><trkpt lat="40.2446033" lon="14.9595583"><ele>17.0</ele><time>2026-05-02T12:49:20.978Z</time></trkpt><trkpt lat="40.2448567" lon="14.9593233"><ele>18.0</ele><time>2026-05-02T12:49:21.978Z</time></trkpt><trkpt lat="40.2451117" lon="14.9590867"><ele>19.0</ele><time>2026-05-02T12:49:22.978Z</time></trkpt><trkpt lat="40.2453517" lon="14.958845"><ele>19.0</ele><time>2026-05-02T12:49:23.979Z</time></trkpt><trkpt lat="40.2455817" lon="14.9586167"><ele>19.0</ele><time>2026-05-02T12:49:24.978Z</time></trkpt><trkpt lat="40.2457917" lon="14.9584067"><ele>20.0</ele><time>2026-05-02T12:49:25.979Z</time></trkpt><trkpt lat="40.2459883" lon="14.9582067"><ele>21.0</ele><time>2026-05-02T12:49:26.979Z</time></trkpt><trkpt lat="40.2461667" lon="14.958025"><ele>21.0</ele><time>2026-05-02T12:49:27.978Z</time></trkpt><trkpt lat="40.2463383" lon="14.9578567"><ele>21.0</ele><time>2026-05-02T12:49:28.978Z</time></trkpt><trkpt lat="40.2465" lon="14.957695"><ele>21.0</ele><time>2026-05-02T12:49:29.979Z</time></trkpt><trkpt lat="40.24666" lon="14.957535"><ele>21.666666666666668</ele><time>2026-05-02T12:49:30.978Z</time></trkpt><trkpt lat="40.24681" lon="14.9573867"><ele>22.333333333333336</ele><time>2026-05-02T12:49:31.978Z</time></trkpt><trkpt lat="40.24696" lon="14.9572533"><ele>23.0</ele><time>2026-05-02T12:49:32.978Z</time></trkpt><trkpt lat="40.247095" lon="14.9571133"><ele>23.0</ele><time>2026-05-02T12:49:33.979Z</time></trkpt><trkpt lat="40.2472183" lon="14.9569883"><ele>23.0</ele><time>2026-05-02T12:49:34.978Z</time></trkpt><trkpt lat="40.2473417" lon="14.9568667"><ele>23.0</ele><time>2026-05-02T12:49:35.978Z</time></trkpt><trkpt lat="40.247475" lon="14.956735"><ele>22.666666666666668</ele><time>2026-05-02T12:49:36.979Z</time></trkpt><trkpt lat="40.2476033" lon="14.9566033"><ele>22.333333333333332</ele><time>2026-05-02T12:49:37.978Z</time></trkpt><trkpt lat="40.2477367" lon="14.9564767"><ele>22.0</ele><time>2026-05-02T12:49:38.979Z</time></trkpt><trkpt lat="40.247865" lon="14.9563583"><ele>22.0</ele><time>2026-05-02T12:49:39.978Z</time></trkpt><trkpt lat="40.2479967" lon="14.9562433"><ele>22.0</ele><time>2026-05-02T12:49:40.978Z</time></trkpt><trkpt lat="40.2481333" lon="14.9561467"><ele>22.0</ele><time>2026-05-02T12:49:41.979Z</time></trkpt><trkpt lat="40.24827" lon="14.9560617"><ele>22.0</ele><time>2026-05-02T12:49:42.978Z</time></trkpt><trkpt lat="40.248415" lon="14.9559733"><ele>22.0</ele><time>2026-05-02T12:49:43.978Z</time></trkpt><trkpt lat="40.2485517" lon="14.9558933"><ele>22.0</ele><time>2026-05-02T12:49:44.979Z</time></trkpt><trkpt lat="40.2487017" lon="14.9558167"><ele>22.0</ele><time>2026-05-02T12:49:45.978Z</time></trkpt><trkpt lat="40.248835" lon="14.9557267"><ele>22.0</ele><time>2026-05-02T12:49:46.978Z</time></trkpt><trkpt lat="40.248975" lon="14.955645"><ele>22.0</ele><time>2026-05-02T12:49:47.978Z</time></trkpt><trkpt lat="40.2491217" lon="14.9555517"><ele>21.75</ele><time>2026-05-02T12:49:48.978Z</time></trkpt><trkpt lat="40.2492667" lon="14.9554717"><ele>21.5</ele><time>2026-05-02T12:49:49.978Z</time></trkpt><trkpt lat="40.2494083" lon="14.9553967"><ele>21.25</ele><time>2026-05-02T12:49:50.978Z</time></trkpt><trkpt lat="40.2495333" lon="14.9553283"><ele>21.0</ele><time>2026-05-02T12:49:51.979Z</time></trkpt><trkpt lat="40.2496317" lon="14.95526"><ele>21.0</ele><time>2026-05-02T12:49:52.978Z</time></trkpt><trkpt lat="40.2497383" lon="14.9552"><ele>21.0</ele><time>2026-05-02T12:49:53.978Z</time></trkpt><trkpt lat="40.2498383" lon="14.9551383"><ele>21.0</ele><time>2026-05-02T12:49:54.978Z</time></trkpt><trkpt lat="40.249935" lon="14.9550833"><ele>21.0</ele><time>2026-05-02T12:49:55.979Z</time></trkpt><trkpt lat="40.2500417" lon="14.9550283"><ele>21.0</ele><time>2026-05-02T12:49:56.978Z</time></trkpt><trkpt lat="40.2501433" lon="14.9549733"><ele>21.75</ele><time>2026-05-02T12:49:57.978Z</time></trkpt><trkpt lat="40.25025" lon="14.954915"><ele>22.5</ele><time>2026-05-02T12:49:58.978Z</time></trkpt><trkpt lat="40.2503583" lon="14.9548533"><ele>23.25</ele><time>2026-05-02T12:49:59.978Z</time></trkpt><trkpt lat="40.2504767" lon="14.954795"><ele>24.0</ele><time>2026-05-02T12:50:00.979Z</time></trkpt><trkpt lat="40.2505967" lon="14.9547317"><ele>23.5</ele><time>2026-05-02T12:50:01.979Z</time></trkpt><trkpt lat="40.25072" lon="14.9546617"><ele>23.0</ele><time>2026-05-02T12:50:02.979Z</time></trkpt><trkpt lat="40.2508567" lon="14.95459"><ele>22.5</ele><time>2026-05-02T12:50:03.978Z</time></trkpt><trkpt lat="40.251" lon="14.95452"><ele>22.0</ele><time>2026-05-02T12:50:04.978Z</time></trkpt><trkpt lat="40.2511433" lon="14.9544433"><ele>22.0</ele><time>2026-05-02T12:50:05.979Z</time></trkpt><trkpt lat="40.2512917" lon="14.95437"><ele>22.0</ele><time>2026-05-02T12:50:06.978Z</time></trkpt><trkpt lat="40.25143" lon="14.9542833"><ele>22.0</ele><time>2026-05-02T12:50:07.978Z</time></trkpt><trkpt lat="40.2515833" lon="14.954195"><ele>23.0</ele><time>2026-05-02T12:50:08.978Z</time></trkpt><trkpt lat="40.251725" lon="14.9540817"><ele>24.0</ele><time>2026-05-02T12:50:09.979Z</time></trkpt><trkpt lat="40.2518567" lon="14.9539783"><ele>25.0</ele><time>2026-05-02T12:50:10.978Z</time></trkpt><trkpt lat="40.251995" lon="14.9538633"><ele>25.0</ele><time>2026-05-02T12:50:11.979Z</time></trkpt><trkpt lat="40.2521233" lon="14.9537467"><ele>25.0</ele><time>2026-05-02T12:50:12.978Z</time></trkpt><trkpt lat="40.2522517" lon="14.9536383"><ele>25.0</ele><time>2026-05-02T12:50:13.978Z</time></trkpt><trkpt lat="40.252385" lon="14.9535333"><ele>25.0</ele><time>2026-05-02T12:50:14.978Z</time></trkpt><trkpt lat="40.2525117" lon="14.9534217"><ele>25.0</ele><time>2026-05-02T12:50:15.978Z</time></trkpt><trkpt lat="40.2526367" lon="14.953315"><ele>25.0</ele><time>2026-05-02T12:50:16.978Z</time></trkpt><trkpt lat="40.2527683" lon="14.9532067"><ele>25.0</ele><time>2026-05-02T12:50:17.978Z</time></trkpt><trkpt lat="40.2528933" lon="14.9530933"><ele>25.0</ele><time>2026-05-02T12:50:18.978Z</time></trkpt><trkpt lat="40.2530117" lon="14.95299"><ele>25.0</ele><time>2026-05-02T12:50:19.979Z</time></trkpt><trkpt lat="40.2531367" lon="14.9528917"><ele>25.0</ele><time>2026-05-02T12:50:20.978Z</time></trkpt><trkpt lat="40.2532533" lon="14.9527817"><ele>26.0</ele><time>2026-05-02T12:50:21.978Z</time></trkpt><trkpt lat="40.2533733" lon="14.9526583"><ele>27.0</ele><time>2026-05-02T12:50:22.979Z</time></trkpt><trkpt lat="40.2534867" lon="14.9525283"><ele>28.0</ele><time>2026-05-02T12:50:23.978Z</time></trkpt><trkpt lat="40.2536117" lon="14.9523917"><ele>28.333333333333336</ele><time>2026-05-02T12:50:24.979Z</time></trkpt><trkpt lat="40.2537233" lon="14.9522317"><ele>28.666666666666664</ele><time>2026-05-02T12:50:25.978Z</time></trkpt><trkpt lat="40.25384" lon="14.9520767"><ele>29.0</ele><time>2026-05-02T12:50:26.978Z</time></trkpt><trkpt lat="40.2539633" lon="14.95192"><ele>28.666666666666664</ele><time>2026-05-02T12:50:27.979Z</time></trkpt><trkpt lat="40.2540917" lon="14.95178"><ele>28.333333333333336</ele><time>2026-05-02T12:50:28.978Z</time></trkpt><trkpt lat="40.2542217" lon="14.9516333"><ele>28.0</ele><time>2026-05-02T12:50:29.978Z</time></trkpt><trkpt lat="40.2543617" lon="14.9514867"><ele>28.0</ele><time>2026-05-02T12:50:30.978Z</time></trkpt><trkpt lat="40.2545133" lon="14.9513567"><ele>28.0</ele><time>2026-05-02T12:50:31.978Z</time></trkpt><trkpt lat="40.2546783" lon="14.951245"><ele>28.0</ele><time>2026-05-02T12:50:32.978Z</time></trkpt><trkpt lat="40.254845" lon="14.9511267"><ele>27.333333333333336</ele><time>2026-05-02T12:50:33.978Z</time></trkpt><trkpt lat="40.25501" lon="14.95101"><ele>26.666666666666664</ele><time>2026-05-02T12:50:34.978Z</time></trkpt><trkpt lat="40.255175" lon="14.9508917"><ele>26.0</ele><time>2026-05-02T12:50:35.978Z</time></trkpt><trkpt lat="40.25534" lon="14.9507867"><ele>27.333333333333332</ele><time>2026-05-02T12:50:36.978Z</time></trkpt><trkpt lat="40.2554967" lon="14.950685"><ele>28.666666666666664</ele><time>2026-05-02T12:50:37.978Z</time></trkpt><trkpt lat="40.2556433" lon="14.9505817"><ele>30.0</ele><time>2026-05-02T12:50:38.978Z</time></trkpt><trkpt lat="40.255785" lon="14.95049"><ele>30.0</ele><time>2026-05-02T12:50:39.978Z</time></trkpt><trkpt lat="40.255935" lon="14.9504167"><ele>30.0</ele><time>2026-05-02T12:50:40.978Z</time></trkpt><trkpt lat="40.256095" lon="14.9503817"><ele>30.0</ele><time>2026-05-02T12:50:41.978Z</time></trkpt><trkpt lat="40.2562583" lon="14.9503667"><ele>30.0</ele><time>2026-05-02T12:50:42.978Z</time></trkpt><trkpt lat="40.25643" lon="14.9503533"><ele>30.0</ele><time>2026-05-02T12:50:43.979Z</time></trkpt><trkpt lat="40.2565967" lon="14.9503383"><ele>30.0</ele><time>2026-05-02T12:50:44.979Z</time></trkpt><trkpt lat="40.25677" lon="14.9503167"><ele>31.333333333333336</ele><time>2026-05-02T12:50:45.978Z</time></trkpt><trkpt lat="40.2569333" lon="14.9502767"><ele>32.66666666666667</ele><time>2026-05-02T12:50:46.978Z</time></trkpt><trkpt lat="40.2570967" lon="14.9502117"><ele>34.0</ele><time>2026-05-02T12:50:47.978Z</time></trkpt><trkpt lat="40.2572533" lon="14.95012"><ele>34.333333333333336</ele><time>2026-05-02T12:50:48.978Z</time></trkpt><trkpt lat="40.2574283" lon="14.9500017"><ele>34.666666666666664</ele><time>2026-05-02T12:50:49.979Z</time></trkpt><trkpt lat="40.257595" lon="14.9498567"><ele>35.0</ele><time>2026-05-02T12:50:50.978Z</time></trkpt><trkpt lat="40.2577583" lon="14.9497067"><ele>35.0</ele><time>2026-05-02T12:50:51.979Z</time></trkpt><trkpt lat="40.2579167" lon="14.9495483"><ele>35.0</ele><time>2026-05-02T12:50:52.978Z</time></trkpt><trkpt lat="40.258075" lon="14.9493933"><ele>35.0</ele><time>2026-05-02T12:50:53.978Z</time></trkpt><trkpt lat="40.2582333" lon="14.9492383"><ele>35.666666666666664</ele><time>2026-05-02T12:50:54.978Z</time></trkpt><trkpt lat="40.2583917" lon="14.9490817"><ele>36.333333333333336</ele><time>2026-05-02T12:50:55.979Z</time></trkpt><trkpt lat="40.25856" lon="14.9489367"><ele>37.0</ele><time>2026-05-02T12:50:56.978Z</time></trkpt><trkpt lat="40.2587283" lon="14.94879"><ele>37.0</ele><time>2026-05-02T12:50:57.978Z</time></trkpt><trkpt lat="40.2588967" lon="14.948635"><ele>37.0</ele><time>2026-05-02T12:50:58.978Z</time></trkpt><trkpt lat="40.2590633" lon="14.9484733"><ele>37.0</ele><time>2026-05-02T12:50:59.979Z</time></trkpt><trkpt lat="40.2592333" lon="14.9483117"><ele>37.333333333333336</ele><time>2026-05-02T12:51:00.978Z</time></trkpt><trkpt lat="40.2594017" lon="14.9481567"><ele>37.666666666666664</ele><time>2026-05-02T12:51:01.978Z</time></trkpt><trkpt lat="40.2595733" lon="14.948005"><ele>38.0</ele><time>2026-05-02T12:51:02.978Z</time></trkpt><trkpt lat="40.259745" lon="14.9478417"><ele>37.666666666666664</ele><time>2026-05-02T12:51:03.978Z</time></trkpt><trkpt lat="40.2599217" lon="14.947685"><ele>37.333333333333336</ele><time>2026-05-02T12:51:04.978Z</time></trkpt><trkpt lat="40.2600983" lon="14.9475317"><ele>37.0</ele><time>2026-05-02T12:51:05.978Z</time></trkpt><trkpt lat="40.2602733" lon="14.94738"><ele>37.0</ele><time>2026-05-02T12:51:06.978Z</time></trkpt><trkpt lat="40.2604517" lon="14.9472333"><ele>37.0</ele><time>2026-05-02T12:51:07.978Z</time></trkpt><trkpt lat="40.2606167" lon="14.9470833"><ele>37.0</ele><time>2026-05-02T12:51:08.978Z</time></trkpt><trkpt lat="40.26077" lon="14.9469283"><ele>37.0</ele><time>2026-05-02T12:51:09.979Z</time></trkpt><trkpt lat="40.2609233" lon="14.9467767"><ele>37.0</ele><time>2026-05-02T12:51:10.978Z</time></trkpt><trkpt lat="40.26108" lon="14.946635"><ele>37.0</ele><time>2026-05-02T12:51:11.978Z</time></trkpt><trkpt lat="40.26123" lon="14.946495"><ele>38.0</ele><time>2026-05-02T12:51:12.978Z</time></trkpt><trkpt lat="40.26138" lon="14.9463517"><ele>39.0</ele><time>2026-05-02T12:51:13.978Z</time></trkpt><trkpt lat="40.261535" lon="14.94621"><ele>40.0</ele><time>2026-05-02T12:51:14.979Z</time></trkpt><trkpt lat="40.261685" lon="14.9460767"><ele>40.66666666666667</ele><time>2026-05-02T12:51:15.978Z</time></trkpt><trkpt lat="40.2618267" lon="14.9459433"><ele>41.333333333333336</ele><time>2026-05-02T12:51:16.979Z</time></trkpt><trkpt lat="40.2619617" lon="14.9458067"><ele>42.0</ele><time>2026-05-02T12:51:17.979Z</time></trkpt><trkpt lat="40.2620933" lon="14.9456867"><ele>42.0</ele><time>2026-05-02T12:51:18.979Z</time></trkpt><trkpt lat="40.2622317" lon="14.9455783"><ele>42.0</ele><time>2026-05-02T12:51:19.978Z</time></trkpt><trkpt lat="40.2623617" lon="14.9454767"><ele>42.0</ele><time>2026-05-02T12:51:20.978Z</time></trkpt><trkpt lat="40.2624883" lon="14.9454067"><ele>42.0</ele><time>2026-05-02T12:51:21.978Z</time></trkpt><trkpt lat="40.2626183" lon="14.9453533"><ele>42.0</ele><time>2026-05-02T12:51:22.978Z</time></trkpt><trkpt lat="40.2627633" lon="14.9453117"><ele>42.0</ele><time>2026-05-02T12:51:23.979Z</time></trkpt><trkpt lat="40.2629133" lon="14.9452783"><ele>42.0</ele><time>2026-05-02T12:51:24.978Z</time></trkpt><trkpt lat="40.2630683" lon="14.9452483"><ele>42.0</ele><time>2026-05-02T12:51:25.979Z</time></trkpt><trkpt lat="40.26323" lon="14.9452233"><ele>42.0</ele><time>2026-05-02T12:51:26.978Z</time></trkpt><trkpt lat="40.2633967" lon="14.9452017"><ele>42.0</ele><time>2026-05-02T12:51:27.978Z</time></trkpt><trkpt lat="40.2635717" lon="14.9451683"><ele>42.0</ele><time>2026-05-02T12:51:28.979Z</time></trkpt><trkpt lat="40.2637483" lon="14.9451333"><ele>42.0</ele><time>2026-05-02T12:51:29.978Z</time></trkpt><trkpt lat="40.2639317" lon="14.945105"><ele>42.0</ele><time>2026-05-02T12:51:30.979Z</time></trkpt><trkpt lat="40.26412" lon="14.945065"><ele>41.0</ele><time>2026-05-02T12:51:31.978Z</time></trkpt><trkpt lat="40.264305" lon="14.9450367"><ele>40.0</ele><time>2026-05-02T12:51:32.978Z</time></trkpt><trkpt lat="40.2645" lon="14.9450033"><ele>39.0</ele><time>2026-05-02T12:51:33.979Z</time></trkpt><trkpt lat="40.2647017" lon="14.94498"><ele>38.333333333333336</ele><time>2026-05-02T12:51:34.978Z</time></trkpt><trkpt lat="40.2649033" lon="14.944945"><ele>37.66666666666667</ele><time>2026-05-02T12:51:35.979Z</time></trkpt><trkpt lat="40.2651" lon="14.94492"><ele>37.0</ele><time>2026-05-02T12:51:36.978Z</time></trkpt><trkpt lat="40.2652933" lon="14.9448967"><ele>37.0</ele><time>2026-05-02T12:51:37.979Z</time></trkpt><trkpt lat="40.2654967" lon="14.9448717"><ele>37.0</ele><time>2026-05-02T12:51:38.978Z</time></trkpt><trkpt lat="40.265695" lon="14.9448467"><ele>37.0</ele><time>2026-05-02T12:51:39.979Z</time></trkpt><trkpt lat="40.2658917" lon="14.944815"><ele>36.66666666666667</ele><time>2026-05-02T12:51:40.978Z</time></trkpt><trkpt lat="40.2660783" lon="14.9447833"><ele>36.333333333333336</ele><time>2026-05-02T12:51:41.978Z</time></trkpt><trkpt lat="40.2662533" lon="14.94475"><ele>36.0</ele><time>2026-05-02T12:51:42.978Z</time></trkpt><trkpt lat="40.266425" lon="14.9447133"><ele>36.333333333333336</ele><time>2026-05-02T12:51:43.978Z</time></trkpt><trkpt lat="40.266595" lon="14.94467"><ele>36.66666666666667</ele><time>2026-05-02T12:51:44.978Z</time></trkpt><trkpt lat="40.2667533" lon="14.9446383"><ele>37.0</ele><time>2026-05-02T12:51:45.979Z</time></trkpt><trkpt lat="40.266905" lon="14.944615"><ele>37.0</ele><time>2026-05-02T12:51:46.978Z</time></trkpt><trkpt lat="40.2670467" lon="14.9445867"><ele>37.0</ele><time>2026-05-02T12:51:47.978Z</time></trkpt><trkpt lat="40.26718" lon="14.9445683"><ele>37.0</ele><time>2026-05-02T12:51:48.978Z</time></trkpt><trkpt lat="40.2673233" lon="14.944555"><ele>37.0</ele><time>2026-05-02T12:51:49.978Z</time></trkpt><trkpt lat="40.2674633" lon="14.94454"><ele>37.25</ele><time>2026-05-02T12:51:50.978Z</time></trkpt><trkpt lat="40.2675983" lon="14.9445333"><ele>37.5</ele><time>2026-05-02T12:51:51.978Z</time></trkpt><trkpt lat="40.2677183" lon="14.9445167"><ele>37.75</ele><time>2026-05-02T12:51:52.978Z</time></trkpt><trkpt lat="40.2678183" lon="14.9444967"><ele>38.0</ele><time>2026-05-02T12:51:53.978Z</time></trkpt><trkpt lat="40.2679133" lon="14.9444733"><ele>38.0</ele><time>2026-05-02T12:51:54.979Z</time></trkpt><trkpt lat="40.2680033" lon="14.9444533"><ele>38.0</ele><time>2026-05-02T12:51:55.979Z</time></trkpt><trkpt lat="40.2680867" lon="14.94443"><ele>38.0</ele><time>2026-05-02T12:51:56.979Z</time></trkpt><trkpt lat="40.2681683" lon="14.944405"><ele>38.0</ele><time>2026-05-02T12:51:57.979Z</time></trkpt><trkpt lat="40.2682567" lon="14.9443783"><ele>38.0</ele><time>2026-05-02T12:51:58.979Z</time></trkpt><trkpt lat="40.2683433" lon="14.94435"><ele>38.0</ele><time>2026-05-02T12:51:59.978Z</time></trkpt><trkpt lat="40.2684317" lon="14.94432"><ele>38.0</ele><time>2026-05-02T12:52:00.978Z</time></trkpt><trkpt lat="40.26852" lon="14.9442983"><ele>38.0</ele><time>2026-05-02T12:52:01.978Z</time></trkpt><trkpt lat="40.26861" lon="14.94429"><ele>38.0</ele><time>2026-05-02T12:52:02.978Z</time></trkpt><trkpt lat="40.2687017" lon="14.9442867"><ele>38.0</ele><time>2026-05-02T12:52:03.978Z</time></trkpt><trkpt lat="40.268815" lon="14.9443167"><ele>38.0</ele><time>2026-05-02T12:52:04.978Z</time></trkpt><trkpt lat="40.2689117" lon="14.9443083"><ele>37.4</ele><time>2026-05-02T12:52:05.978Z</time></trkpt><trkpt lat="40.2690133" lon="14.9442883"><ele>36.8</ele><time>2026-05-02T12:52:06.978Z</time></trkpt><trkpt lat="40.2691217" lon="14.94425"><ele>36.2</ele><time>2026-05-02T12:52:07.978Z</time></trkpt><trkpt lat="40.26923" lon="14.9442267"><ele>35.6</ele><time>2026-05-02T12:52:08.979Z</time></trkpt><trkpt lat="40.26935" lon="14.9442117"><ele>35.0</ele><time>2026-05-02T12:52:09.979Z</time></trkpt><trkpt lat="40.2694833" lon="14.9441933"><ele>34.5</ele><time>2026-05-02T12:52:10.979Z</time></trkpt><trkpt lat="40.26962" lon="14.9441683"><ele>34.0</ele><time>2026-05-02T12:52:11.978Z</time></trkpt><trkpt lat="40.2697667" lon="14.9441333"><ele>33.5</ele><time>2026-05-02T12:52:12.979Z</time></trkpt><trkpt lat="40.26992" lon="14.94409"><ele>33.0</ele><time>2026-05-02T12:52:13.978Z</time></trkpt><trkpt lat="40.2700833" lon="14.9440517"><ele>33.0</ele><time>2026-05-02T12:52:14.978Z</time></trkpt><trkpt lat="40.2702467" lon="14.9440133"><ele>33.0</ele><time>2026-05-02T12:52:15.979Z</time></trkpt><trkpt lat="40.2704067" lon="14.9439733"><ele>33.0</ele><time>2026-05-02T12:52:16.978Z</time></trkpt><trkpt lat="40.27056" lon="14.9439383"><ele>35.75</ele><time>2026-05-02T12:52:17.978Z</time></trkpt><trkpt lat="40.2707017" lon="14.94391"><ele>38.5</ele><time>2026-05-02T12:52:18.978Z</time></trkpt><trkpt lat="40.27084" lon="14.9438833"><ele>41.25</ele><time>2026-05-02T12:52:19.978Z</time></trkpt><trkpt lat="40.2709717" lon="14.943855"><ele>44.0</ele><time>2026-05-02T12:52:20.979Z</time></trkpt><trkpt lat="40.2710967" lon="14.9438183"><ele>44.0</ele><time>2026-05-02T12:52:21.978Z</time></trkpt><trkpt lat="40.27121" lon="14.9437933"><ele>44.0</ele><time>2026-05-02T12:52:22.978Z</time></trkpt><trkpt lat="40.2713333" lon="14.9437817"><ele>44.0</ele><time>2026-05-02T12:52:23.978Z</time></trkpt><trkpt lat="40.2714383" lon="14.9437767"><ele>44.0</ele><time>2026-05-02T12:52:24.978Z</time></trkpt><trkpt lat="40.27154" lon="14.9437683"><ele>44.0</ele><time>2026-05-02T12:52:25.978Z</time></trkpt><trkpt lat="40.2716317" lon="14.9437883"><ele>44.6</ele><time>2026-05-02T12:52:26.978Z</time></trkpt><trkpt lat="40.2717217" lon="14.9438183"><ele>45.2</ele><time>2026-05-02T12:52:27.978Z</time></trkpt><trkpt lat="40.2718" lon="14.9438483"><ele>45.800000000000004</ele><time>2026-05-02T12:52:28.979Z</time></trkpt><trkpt lat="40.27188" lon="14.943895"><ele>46.400000000000006</ele><time>2026-05-02T12:52:29.978Z</time></trkpt><trkpt lat="40.2719733" lon="14.9439567"><ele>47.0</ele><time>2026-05-02T12:52:30.978Z</time></trkpt><trkpt lat="40.2720683" lon="14.9440083"><ele>47.0</ele><time>2026-05-02T12:52:31.978Z</time></trkpt><trkpt lat="40.2721667" lon="14.9440617"><ele>47.0</ele><time>2026-05-02T12:52:32.978Z</time></trkpt><trkpt lat="40.2722733" lon="14.9441217"><ele>47.0</ele><time>2026-05-02T12:52:33.979Z</time></trkpt><trkpt lat="40.2723933" lon="14.9441917"><ele>47.0</ele><time>2026-05-02T12:52:34.978Z</time></trkpt><trkpt lat="40.2725217" lon="14.9442383"><ele>52.25</ele><time>2026-05-02T12:52:35.978Z</time></trkpt><trkpt lat="40.2726567" lon="14.94427"><ele>57.5</ele><time>2026-05-02T12:52:36.979Z</time></trkpt><trkpt lat="40.2727917" lon="14.9442967"><ele>62.75</ele><time>2026-05-02T12:52:37.979Z</time></trkpt><trkpt lat="40.2729367" lon="14.9443117"><ele>68.0</ele><time>2026-05-02T12:52:38.979Z</time></trkpt><trkpt lat="40.2730733" lon="14.9443183"><ele>68.0</ele><time>2026-05-02T12:52:39.979Z</time></trkpt><trkpt lat="40.2732183" lon="14.9443267"><ele>68.0</ele><time>2026-05-02T12:52:40.978Z</time></trkpt><trkpt lat="40.2733633" lon="14.9443383"><ele>68.0</ele><time>2026-05-02T12:52:41.979Z</time></trkpt><trkpt lat="40.2735083" lon="14.9443517"><ele>68.0</ele><time>2026-05-02T12:52:42.978Z</time></trkpt><trkpt lat="40.273655" lon="14.9443683"><ele>68.0</ele><time>2026-05-02T12:52:43.978Z</time></trkpt><trkpt lat="40.2737917" lon="14.9443867"><ele>68.0</ele><time>2026-05-02T12:52:44.978Z</time></trkpt><trkpt lat="40.273925" lon="14.9444117"><ele>68.0</ele><time>2026-05-02T12:52:45.979Z</time></trkpt><trkpt lat="40.2740583" lon="14.9444383"><ele>68.0</ele><time>2026-05-02T12:52:46.978Z</time></trkpt><trkpt lat="40.2741867" lon="14.9444617"><ele>65.5</ele><time>2026-05-02T12:52:47.978Z</time></trkpt><trkpt lat="40.2743017" lon="14.944505"><ele>63.0</ele><time>2026-05-02T12:52:48.978Z</time></trkpt><trkpt lat="40.2744283" lon="14.944555"><ele>60.5</ele><time>2026-05-02T12:52:49.979Z</time></trkpt><trkpt lat="40.274545" lon="14.9446283"><ele>58.0</ele><time>2026-05-02T12:52:50.979Z</time></trkpt><trkpt lat="40.2746667" lon="14.9447083"><ele>55.33333333333333</ele><time>2026-05-02T12:52:51.979Z</time></trkpt><trkpt lat="40.27479" lon="14.9448367"><ele>52.66666666666667</ele><time>2026-05-02T12:52:52.978Z</time></trkpt><trkpt lat="40.2749" lon="14.9449667"><ele>50.0</ele><time>2026-05-02T12:52:53.979Z</time></trkpt><trkpt lat="40.2750217" lon="14.945105"><ele>50.0</ele><time>2026-05-02T12:52:54.978Z</time></trkpt><trkpt lat="40.2751317" lon="14.945215"><ele>50.0</ele><time>2026-05-02T12:52:55.978Z</time></trkpt><trkpt lat="40.2752367" lon="14.9453233"><ele>50.0</ele><time>2026-05-02T12:52:56.978Z</time></trkpt><trkpt lat="40.2753383" lon="14.94542"><ele>50.0</ele><time>2026-05-02T12:52:57.978Z</time></trkpt><trkpt lat="40.2754383" lon="14.9455267"><ele>50.0</ele><time>2026-05-02T12:52:58.978Z</time></trkpt><trkpt lat="40.2755383" lon="14.945625"><ele>50.0</ele><time>2026-05-02T12:52:59.979Z</time></trkpt><trkpt lat="40.2756533" lon="14.945735"><ele>50.0</ele><time>2026-05-02T12:53:00.978Z</time></trkpt><trkpt lat="40.27576" lon="14.9458017"><ele>50.0</ele><time>2026-05-02T12:53:01.978Z</time></trkpt><trkpt lat="40.2759067" lon="14.9458767"><ele>54.0</ele><time>2026-05-02T12:53:02.978Z</time></trkpt><trkpt lat="40.27608" lon="14.9459467"><ele>58.0</ele><time>2026-05-02T12:53:03.978Z</time></trkpt><trkpt lat="40.27628" lon="14.94601"><ele>62.0</ele><time>2026-05-02T12:53:04.978Z</time></trkpt><trkpt lat="40.2764983" lon="14.9460483"><ele>62.0</ele><time>2026-05-02T12:53:05.978Z</time></trkpt><trkpt lat="40.2767117" lon="14.9460533"><ele>62.0</ele><time>2026-05-02T12:53:06.979Z</time></trkpt><trkpt lat="40.276905" lon="14.9460317"><ele>62.0</ele><time>2026-05-02T12:53:07.978Z</time></trkpt><trkpt lat="40.277075" lon="14.9459767"><ele>62.0</ele><time>2026-05-02T12:53:08.979Z</time></trkpt><trkpt lat="40.27723" lon="14.9459317"><ele>62.0</ele><time>2026-05-02T12:53:09.978Z</time></trkpt><trkpt lat="40.2773667" lon="14.9459"><ele>62.0</ele><time>2026-05-02T12:53:10.978Z</time></trkpt><trkpt lat="40.2774833" lon="14.9459017"><ele>62.0</ele><time>2026-05-02T12:53:11.978Z</time></trkpt><trkpt lat="40.2775933" lon="14.9459033"><ele>62.25</ele><time>2026-05-02T12:53:12.978Z</time></trkpt><trkpt lat="40.27771" lon="14.9459017"><ele>62.5</ele><time>2026-05-02T12:53:13.978Z</time></trkpt><trkpt lat="40.2778267" lon="14.9458983"><ele>62.75</ele><time>2026-05-02T12:53:14.979Z</time></trkpt><trkpt lat="40.277945" lon="14.9458983"><ele>63.0</ele><time>2026-05-02T12:53:15.978Z</time></trkpt><trkpt lat="40.2780667" lon="14.9458917"><ele>62.5</ele><time>2026-05-02T12:53:16.978Z</time></trkpt><trkpt lat="40.2781883" lon="14.94589"><ele>62.0</ele><time>2026-05-02T12:53:17.978Z</time></trkpt><trkpt lat="40.27831" lon="14.9458867"><ele>61.5</ele><time>2026-05-02T12:53:18.979Z</time></trkpt><trkpt lat="40.278425" lon="14.94589"><ele>61.0</ele><time>2026-05-02T12:53:19.978Z</time></trkpt><trkpt lat="40.27855" lon="14.9459017"><ele>61.0</ele><time>2026-05-02T12:53:20.978Z</time></trkpt><trkpt lat="40.27867" lon="14.9459167"><ele>61.0</ele><time>2026-05-02T12:53:21.979Z</time></trkpt><trkpt lat="40.278785" lon="14.9459383"><ele>61.0</ele><time>2026-05-02T12:53:22.978Z</time></trkpt><trkpt lat="40.27889" lon="14.9459667"><ele>61.0</ele><time>2026-05-02T12:53:23.979Z</time></trkpt><trkpt lat="40.2790017" lon="14.9459983"><ele>58.5</ele><time>2026-05-02T12:53:24.978Z</time></trkpt><trkpt lat="40.2791233" lon="14.9460183"><ele>56.0</ele><time>2026-05-02T12:53:25.979Z</time></trkpt><trkpt lat="40.279235" lon="14.9460467"><ele>53.5</ele><time>2026-05-02T12:53:26.978Z</time></trkpt><trkpt lat="40.2793483" lon="14.946075"><ele>51.0</ele><time>2026-05-02T12:53:27.978Z</time></trkpt><trkpt lat="40.2794633" lon="14.94609"><ele>51.0</ele><time>2026-05-02T12:53:28.978Z</time></trkpt><trkpt lat="40.27957" lon="14.946105"><ele>51.0</ele><time>2026-05-02T12:53:29.978Z</time></trkpt><trkpt lat="40.2796567" lon="14.94612"><ele>51.0</ele><time>2026-05-02T12:53:30.978Z</time></trkpt><trkpt lat="40.2797467" lon="14.9461283"><ele>51.0</ele><time>2026-05-02T12:53:31.979Z</time></trkpt><trkpt lat="40.279835" lon="14.946145"><ele>51.0</ele><time>2026-05-02T12:53:32.978Z</time></trkpt><trkpt lat="40.279915" lon="14.94617"><ele>51.0</ele><time>2026-05-02T12:53:33.978Z</time></trkpt><trkpt lat="40.28001" lon="14.9461883"><ele>51.0</ele><time>2026-05-02T12:53:34.978Z</time></trkpt><trkpt lat="40.2801117" lon="14.946195"><ele>51.0</ele><time>2026-05-02T12:53:35.978Z</time></trkpt><trkpt lat="40.2802167" lon="14.9462233"><ele>51.0</ele><time>2026-05-02T12:53:36.978Z</time></trkpt><trkpt lat="40.2803233" lon="14.94626"><ele>51.0</ele><time>2026-05-02T12:53:37.978Z</time></trkpt><trkpt lat="40.2804467" lon="14.946305"><ele>51.0</ele><time>2026-05-02T12:53:38.979Z</time></trkpt><trkpt lat="40.28056" lon="14.9463617"><ele>51.0</ele><time>2026-05-02T12:53:39.978Z</time></trkpt><trkpt lat="40.2806767" lon="14.946425"><ele>51.0</ele><time>2026-05-02T12:53:40.978Z</time></trkpt><trkpt lat="40.2807933" lon="14.94649"><ele>51.0</ele><time>2026-05-02T12:53:41.978Z</time></trkpt><trkpt lat="40.2809083" lon="14.9465533"><ele>49.25</ele><time>2026-05-02T12:53:42.978Z</time></trkpt><trkpt lat="40.2810317" lon="14.946615"><ele>47.5</ele><time>2026-05-02T12:53:43.978Z</time></trkpt><trkpt lat="40.2811533" lon="14.9466783"><ele>45.75</ele><time>2026-05-02T12:53:44.979Z</time></trkpt><trkpt lat="40.2812733" lon="14.9467467"><ele>44.0</ele><time>2026-05-02T12:53:45.978Z</time></trkpt><trkpt lat="40.28139" lon="14.9468183"><ele>49.0</ele><time>2026-05-02T12:53:46.979Z</time></trkpt><trkpt lat="40.2815" lon="14.9469"><ele>54.0</ele><time>2026-05-02T12:53:47.978Z</time></trkpt><trkpt lat="40.2816233" lon="14.94699"><ele>59.0</ele><time>2026-05-02T12:53:48.978Z</time></trkpt><trkpt lat="40.2817183" lon="14.9470917"><ele>64.0</ele><time>2026-05-02T12:53:49.979Z</time></trkpt><trkpt lat="40.2818117" lon="14.947215"><ele>64.0</ele><time>2026-05-02T12:53:50.978Z</time></trkpt><trkpt lat="40.2819067" lon="14.9473467"><ele>64.0</ele><time>2026-05-02T12:53:51.979Z</time></trkpt><trkpt lat="40.28202" lon="14.94748"><ele>64.0</ele><time>2026-05-02T12:53:52.978Z</time></trkpt><trkpt lat="40.2821317" lon="14.9476033"><ele>64.0</ele><time>2026-05-02T12:53:53.978Z</time></trkpt><trkpt lat="40.282245" lon="14.947715"><ele>69.33333333333333</ele><time>2026-05-02T12:53:54.978Z</time></trkpt><trkpt lat="40.28238" lon="14.94782"><ele>74.66666666666667</ele><time>2026-05-02T12:53:55.978Z</time></trkpt><trkpt lat="40.2825217" lon="14.9479017"><ele>80.0</ele><time>2026-05-02T12:53:56.978Z</time></trkpt><trkpt lat="40.2826717" lon="14.9479633"><ele>80.0</ele><time>2026-05-02T12:53:57.979Z</time></trkpt><trkpt lat="40.282835" lon="14.9480067"><ele>80.0</ele><time>2026-05-02T12:53:58.978Z</time></trkpt><trkpt lat="40.283" lon="14.9480383"><ele>80.0</ele><time>2026-05-02T12:53:59.978Z</time></trkpt><trkpt lat="40.2831667" lon="14.9480567"><ele>74.66666666666667</ele><time>2026-05-02T12:54:00.978Z</time></trkpt><trkpt lat="40.2833367" lon="14.9480683"><ele>69.33333333333333</ele><time>2026-05-02T12:54:01.978Z</time></trkpt><trkpt lat="40.28349" lon="14.948095"><ele>64.0</ele><time>2026-05-02T12:54:02.977Z</time></trkpt><trkpt lat="40.2836383" lon="14.9481283"><ele>64.0</ele><time>2026-05-02T12:54:03.978Z</time></trkpt><trkpt lat="40.2837783" lon="14.9481817"><ele>64.0</ele><time>2026-05-02T12:54:04.978Z</time></trkpt><trkpt lat="40.2839117" lon="14.9482633"><ele>64.0</ele><time>2026-05-02T12:54:05.977Z</time></trkpt><trkpt lat="40.28403" lon="14.9483567"><ele>64.0</ele><time>2026-05-02T12:54:06.977Z</time></trkpt><trkpt lat="40.2841367" lon="14.94847"><ele>64.5</ele><time>2026-05-02T12:54:07.977Z</time></trkpt><trkpt lat="40.2842383" lon="14.9485967"><ele>65.0</ele><time>2026-05-02T12:54:08.977Z</time></trkpt><trkpt lat="40.2843233" lon="14.9487367"><ele>65.5</ele><time>2026-05-02T12:54:09.978Z</time></trkpt><trkpt lat="40.284395" lon="14.9488933"><ele>66.0</ele><time>2026-05-02T12:54:10.977Z</time></trkpt><trkpt lat="40.2844683" lon="14.9490467"><ele>66.0</ele><time>2026-05-02T12:54:11.977Z</time></trkpt><trkpt lat="40.2845533" lon="14.9492"><ele>66.0</ele><time>2026-05-02T12:54:12.978Z</time></trkpt><trkpt lat="40.284635" lon="14.9493517"><ele>66.0</ele><time>2026-05-02T12:54:13.977Z</time></trkpt><trkpt lat="40.284725" lon="14.94949"><ele>66.0</ele><time>2026-05-02T12:54:14.978Z</time></trkpt><trkpt lat="40.2848167" lon="14.9496333"><ele>68.33333333333333</ele><time>2026-05-02T12:54:15.977Z</time></trkpt><trkpt lat="40.284925" lon="14.9497717"><ele>70.66666666666666</ele><time>2026-05-02T12:54:16.977Z</time></trkpt><trkpt lat="40.2850417" lon="14.949915"><ele>73.0</ele><time>2026-05-02T12:54:17.977Z</time></trkpt><trkpt lat="40.2851683" lon="14.9500533"><ele>73.0</ele><time>2026-05-02T12:54:18.977Z</time></trkpt><trkpt lat="40.2853017" lon="14.9501717"><ele>73.0</ele><time>2026-05-02T12:54:19.977Z</time></trkpt><trkpt lat="40.28544" lon="14.9502833"><ele>73.0</ele><time>2026-05-02T12:54:20.977Z</time></trkpt><trkpt lat="40.2855733" lon="14.950375"><ele>68.25</ele><time>2026-05-02T12:54:21.977Z</time></trkpt><trkpt lat="40.285695" lon="14.9504567"><ele>63.5</ele><time>2026-05-02T12:54:22.978Z</time></trkpt><trkpt lat="40.28582" lon="14.9505167"><ele>58.75</ele><time>2026-05-02T12:54:23.977Z</time></trkpt><trkpt lat="40.2859367" lon="14.9505767"><ele>54.0</ele><time>2026-05-02T12:54:24.977Z</time></trkpt><trkpt lat="40.2860367" lon="14.9506317"><ele>54.0</ele><time>2026-05-02T12:54:25.977Z</time></trkpt><trkpt lat="40.2861317" lon="14.950685"><ele>54.00000000000001</ele><time>2026-05-02T12:54:26.977Z</time></trkpt><trkpt lat="40.28623" lon="14.95074"><ele>54.00000000000001</ele><time>2026-05-02T12:54:27.977Z</time></trkpt><trkpt lat="40.2863267" lon="14.9507933"><ele>54.0</ele><time>2026-05-02T12:54:28.977Z</time></trkpt><trkpt lat="40.2864217" lon="14.950845"><ele>54.0</ele><time>2026-05-02T12:54:29.977Z</time></trkpt><trkpt lat="40.2865233" lon="14.9508933"><ele>54.25</ele><time>2026-05-02T12:54:30.977Z</time></trkpt><trkpt lat="40.2866367" lon="14.9509517"><ele>54.5</ele><time>2026-05-02T12:54:31.978Z</time></trkpt><trkpt lat="40.2867433" lon="14.9510117"><ele>54.75</ele><time>2026-05-02T12:54:32.978Z</time></trkpt><trkpt lat="40.2868483" lon="14.95108"><ele>55.0</ele><time>2026-05-02T12:54:33.977Z</time></trkpt><trkpt lat="40.2869683" lon="14.9511517"><ele>55.0</ele><time>2026-05-02T12:54:34.978Z</time></trkpt><trkpt lat="40.2871033" lon="14.9512167"><ele>55.0</ele><time>2026-05-02T12:54:35.977Z</time></trkpt><trkpt lat="40.287245" lon="14.95129"><ele>55.0</ele><time>2026-05-02T12:54:36.977Z</time></trkpt><trkpt lat="40.28737" lon="14.951355"><ele>55.0</ele><time>2026-05-02T12:54:37.977Z</time></trkpt><trkpt lat="40.2874983" lon="14.9514167"><ele>52.0</ele><time>2026-05-02T12:54:38.977Z</time></trkpt><trkpt lat="40.2876233" lon="14.9514867"><ele>49.0</ele><time>2026-05-02T12:54:39.977Z</time></trkpt><trkpt lat="40.2877417" lon="14.9515483"><ele>46.0</ele><time>2026-05-02T12:54:40.977Z</time></trkpt><trkpt lat="40.28786" lon="14.9516167"><ele>43.0</ele><time>2026-05-02T12:54:41.978Z</time></trkpt><trkpt lat="40.28799" lon="14.9516933"><ele>43.5</ele><time>2026-05-02T12:54:42.977Z</time></trkpt><trkpt lat="40.2881133" lon="14.9517683"><ele>44.0</ele><time>2026-05-02T12:54:43.977Z</time></trkpt><trkpt lat="40.28823" lon="14.9518633"><ele>44.5</ele><time>2026-05-02T12:54:44.977Z</time></trkpt><trkpt lat="40.2883483" lon="14.9519583"><ele>45.0</ele><time>2026-05-02T12:54:45.978Z</time></trkpt><trkpt lat="40.2884533" lon="14.95206"><ele>45.0</ele><time>2026-05-02T12:54:46.978Z</time></trkpt><trkpt lat="40.2885617" lon="14.952175"><ele>45.0</ele><time>2026-05-02T12:54:47.978Z</time></trkpt><trkpt lat="40.28867" lon="14.9522933"><ele>45.0</ele><time>2026-05-02T12:54:48.978Z</time></trkpt><trkpt lat="40.2887833" lon="14.9524083"><ele>45.0</ele><time>2026-05-02T12:54:49.978Z</time></trkpt><trkpt lat="40.2888967" lon="14.9525267"><ele>45.25</ele><time>2026-05-02T12:54:50.977Z</time></trkpt><trkpt lat="40.289005" lon="14.9526483"><ele>45.5</ele><time>2026-05-02T12:54:51.977Z</time></trkpt><trkpt lat="40.28911" lon="14.9527567"><ele>45.75</ele><time>2026-05-02T12:54:52.977Z</time></trkpt><trkpt lat="40.2892117" lon="14.95286"><ele>46.0</ele><time>2026-05-02T12:54:53.977Z</time></trkpt><trkpt lat="40.2892983" lon="14.9529617"><ele>46.0</ele><time>2026-05-02T12:54:54.978Z</time></trkpt><trkpt lat="40.2893767" lon="14.95305"><ele>46.0</ele><time>2026-05-02T12:54:55.977Z</time></trkpt><trkpt lat="40.28945" lon="14.9531383"><ele>46.0</ele><time>2026-05-02T12:54:56.977Z</time></trkpt><trkpt lat="40.2895167" lon="14.9532217"><ele>46.0</ele><time>2026-05-02T12:54:57.977Z</time></trkpt><trkpt lat="40.28958" lon="14.953305"><ele>46.0</ele><time>2026-05-02T12:54:58.977Z</time></trkpt><trkpt lat="40.2896283" lon="14.9533983"><ele>46.8</ele><time>2026-05-02T12:54:59.977Z</time></trkpt><trkpt lat="40.2896667" lon="14.9534783"><ele>47.599999999999994</ele><time>2026-05-02T12:55:00.977Z</time></trkpt><trkpt lat="40.2897233" lon="14.9535483"><ele>48.4</ele><time>2026-05-02T12:55:01.977Z</time></trkpt><trkpt lat="40.2898017" lon="14.95359"><ele>49.2</ele><time>2026-05-02T12:55:02.977Z</time></trkpt><trkpt lat="40.2899083" lon="14.95362"><ele>50.0</ele><time>2026-05-02T12:55:03.978Z</time></trkpt><trkpt lat="40.2900317" lon="14.95367"><ele>50.0</ele><time>2026-05-02T12:55:04.977Z</time></trkpt><trkpt lat="40.2901567" lon="14.9537383"><ele>50.0</ele><time>2026-05-02T12:55:05.978Z</time></trkpt><trkpt lat="40.29028" lon="14.9538233"><ele>50.0</ele><time>2026-05-02T12:55:06.977Z</time></trkpt><trkpt lat="40.290405" lon="14.9538933"><ele>50.0</ele><time>2026-05-02T12:55:07.978Z</time></trkpt><trkpt lat="40.2905217" lon="14.9539583"><ele>47.75</ele><time>2026-05-02T12:55:08.977Z</time></trkpt><trkpt lat="40.29065" lon="14.9540033"><ele>45.5</ele><time>2026-05-02T12:55:09.978Z</time></trkpt><trkpt lat="40.2907867" lon="14.9540417"><ele>43.25</ele><time>2026-05-02T12:55:10.977Z</time></trkpt><trkpt lat="40.2909233" lon="14.9540683"><ele>41.0</ele><time>2026-05-02T12:55:11.977Z</time></trkpt><trkpt lat="40.29106" lon="14.9541017"><ele>41.0</ele><time>2026-05-02T12:55:12.978Z</time></trkpt><trkpt lat="40.2911967" lon="14.9541367"><ele>41.0</ele><time>2026-05-02T12:55:13.977Z</time></trkpt><trkpt lat="40.291335" lon="14.954165"><ele>41.0</ele><time>2026-05-02T12:55:14.978Z</time></trkpt><trkpt lat="40.291485" lon="14.9541933"><ele>41.0</ele><time>2026-05-02T12:55:15.978Z</time></trkpt><trkpt lat="40.2916283" lon="14.9542183"><ele>41.33333333333333</ele><time>2026-05-02T12:55:16.977Z</time></trkpt><trkpt lat="40.29178" lon="14.954245"><ele>41.666666666666664</ele><time>2026-05-02T12:55:17.977Z</time></trkpt><trkpt lat="40.2919383" lon="14.95428"><ele>42.0</ele><time>2026-05-02T12:55:18.978Z</time></trkpt><trkpt lat="40.2920933" lon="14.9543133"><ele>42.0</ele><time>2026-05-02T12:55:19.977Z</time></trkpt><trkpt lat="40.29225" lon="14.9543483"><ele>42.0</ele><time>2026-05-02T12:55:20.977Z</time></trkpt><trkpt lat="40.2924" lon="14.9543767"><ele>42.0</ele><time>2026-05-02T12:55:21.978Z</time></trkpt><trkpt lat="40.292555" lon="14.9544033"><ele>40.75</ele><time>2026-05-02T12:55:22.978Z</time></trkpt><trkpt lat="40.2927" lon="14.9544383"><ele>39.5</ele><time>2026-05-02T12:55:23.978Z</time></trkpt><trkpt lat="40.2928517" lon="14.9544717"><ele>38.25</ele><time>2026-05-02T12:55:24.977Z</time></trkpt><trkpt lat="40.292995" lon="14.9545"><ele>37.0</ele><time>2026-05-02T12:55:25.977Z</time></trkpt><trkpt lat="40.29314" lon="14.9545383"><ele>36.333333333333336</ele><time>2026-05-02T12:55:26.977Z</time></trkpt><trkpt lat="40.2932883" lon="14.9545683"><ele>35.666666666666664</ele><time>2026-05-02T12:55:27.977Z</time></trkpt><trkpt lat="40.2934433" lon="14.954605"><ele>35.0</ele><time>2026-05-02T12:55:28.977Z</time></trkpt><trkpt lat="40.2935917" lon="14.9546433"><ele>35.0</ele><time>2026-05-02T12:55:29.977Z</time></trkpt><trkpt lat="40.29374" lon="14.954675"><ele>35.0</ele><time>2026-05-02T12:55:30.978Z</time></trkpt><trkpt lat="40.293885" lon="14.954715"><ele>35.0</ele><time>2026-05-02T12:55:31.978Z</time></trkpt><trkpt lat="40.2940383" lon="14.9547433"><ele>34.666666666666664</ele><time>2026-05-02T12:55:32.977Z</time></trkpt><trkpt lat="40.2941933" lon="14.9547783"><ele>34.333333333333336</ele><time>2026-05-02T12:55:33.977Z</time></trkpt><trkpt lat="40.29435" lon="14.9548217"><ele>34.0</ele><time>2026-05-02T12:55:34.977Z</time></trkpt><trkpt lat="40.29452" lon="14.9548783"><ele>34.0</ele><time>2026-05-02T12:55:35.977Z</time></trkpt><trkpt lat="40.2946883" lon="14.95495"><ele>34.0</ele><time>2026-05-02T12:55:36.977Z</time></trkpt><trkpt lat="40.294845" lon="14.9550283"><ele>34.0</ele><time>2026-05-02T12:55:37.977Z</time></trkpt><trkpt lat="40.2949883" lon="14.955125"><ele>33.333333333333336</ele><time>2026-05-02T12:55:38.978Z</time></trkpt><trkpt lat="40.295125" lon="14.9552383"><ele>32.666666666666664</ele><time>2026-05-02T12:55:39.978Z</time></trkpt><trkpt lat="40.2952483" lon="14.9553683"><ele>32.0</ele><time>2026-05-02T12:55:40.977Z</time></trkpt><trkpt lat="40.2953683" lon="14.9555067"><ele>32.0</ele><time>2026-05-02T12:55:41.977Z</time></trkpt><trkpt lat="40.2954783" lon="14.9556517"><ele>32.0</ele><time>2026-05-02T12:55:42.977Z</time></trkpt><trkpt lat="40.2955767" lon="14.9557917"><ele>32.0</ele><time>2026-05-02T12:55:43.977Z</time></trkpt><trkpt lat="40.2956567" lon="14.9559133"><ele>32.0</ele><time>2026-05-02T12:55:44.977Z</time></trkpt><trkpt lat="40.2957117" lon="14.956015"><ele>32.42857142857143</ele><time>2026-05-02T12:55:45.977Z</time></trkpt><trkpt lat="40.29575" lon="14.956105"><ele>32.857142857142854</ele><time>2026-05-02T12:55:46.978Z</time></trkpt><trkpt lat="40.2957917" lon="14.95619"><ele>33.285714285714285</ele><time>2026-05-02T12:55:47.977Z</time></trkpt><trkpt lat="40.29582" lon="14.95628"><ele>33.714285714285715</ele><time>2026-05-02T12:55:48.977Z</time></trkpt><trkpt lat="40.2958367" lon="14.9563733"><ele>34.14285714285714</ele><time>2026-05-02T12:55:49.978Z</time></trkpt><trkpt lat="40.2958367" lon="14.9564567"><ele>34.57142857142857</ele><time>2026-05-02T12:55:50.978Z</time></trkpt><trkpt lat="40.295855" lon="14.95654"><ele>35.0</ele><time>2026-05-02T12:55:51.978Z</time></trkpt><trkpt lat="40.2959383" lon="14.95665"><ele>35.0</ele><time>2026-05-02T12:55:53.978Z</time></trkpt><trkpt lat="40.2959933" lon="14.9566967"><ele>35.0</ele><time>2026-05-02T12:55:54.978Z</time></trkpt><trkpt lat="40.296055" lon="14.956765"><ele>35.0</ele><time>2026-05-02T12:55:55.977Z</time></trkpt><trkpt lat="40.2961183" lon="14.9568467"><ele>35.0</ele><time>2026-05-02T12:55:56.977Z</time></trkpt><trkpt lat="40.29618" lon="14.9569483"><ele>35.0</ele><time>2026-05-02T12:55:57.977Z</time></trkpt><trkpt lat="40.296245" lon="14.95706"><ele>35.0</ele><time>2026-05-02T12:55:58.977Z</time></trkpt><trkpt lat="40.2963133" lon="14.9571767"><ele>36.25</ele><time>2026-05-02T12:55:59.977Z</time></trkpt><trkpt lat="40.2963917" lon="14.9572967"><ele>37.5</ele><time>2026-05-02T12:56:00.978Z</time></trkpt><trkpt lat="40.2964717" lon="14.957415"><ele>38.75</ele><time>2026-05-02T12:56:01.977Z</time></trkpt><trkpt lat="40.29655" lon="14.957525"><ele>40.0</ele><time>2026-05-02T12:56:02.977Z</time></trkpt><trkpt lat="40.2966283" lon="14.9576217"><ele>42.0</ele><time>2026-05-02T12:56:03.978Z</time></trkpt><trkpt lat="40.296705" lon="14.9577233"><ele>44.0</ele><time>2026-05-02T12:56:04.977Z</time></trkpt><trkpt lat="40.2967717" lon="14.9578283"><ele>46.0</ele><time>2026-05-02T12:56:05.978Z</time></trkpt><trkpt lat="40.2968533" lon="14.9579283"><ele>48.0</ele><time>2026-05-02T12:56:06.978Z</time></trkpt><trkpt lat="40.2969283" lon="14.9580183"><ele>50.0</ele><time>2026-05-02T12:56:07.977Z</time></trkpt><trkpt lat="40.2969917" lon="14.95811"><ele>50.0</ele><time>2026-05-02T12:56:08.977Z</time></trkpt><trkpt lat="40.29706" lon="14.9582117"><ele>50.0</ele><time>2026-05-02T12:56:09.977Z</time></trkpt><trkpt lat="40.29713" lon="14.9583017"><ele>50.0</ele><time>2026-05-02T12:56:10.978Z</time></trkpt><trkpt lat="40.2971983" lon="14.9584017"><ele>50.0</ele><time>2026-05-02T12:56:11.977Z</time></trkpt><trkpt lat="40.2972783" lon="14.958485"><ele>50.0</ele><time>2026-05-02T12:56:12.977Z</time></trkpt><trkpt lat="40.2973533" lon="14.95858"><ele>49.75</ele><time>2026-05-02T12:56:13.977Z</time></trkpt><trkpt lat="40.29743" lon="14.9586817"><ele>49.5</ele><time>2026-05-02T12:56:14.978Z</time></trkpt><trkpt lat="40.2975117" lon="14.958785"><ele>49.25</ele><time>2026-05-02T12:56:15.978Z</time></trkpt><trkpt lat="40.2975967" lon="14.9589"><ele>49.0</ele><time>2026-05-02T12:56:16.977Z</time></trkpt><trkpt lat="40.2976867" lon="14.95902"><ele>49.0</ele><time>2026-05-02T12:56:17.978Z</time></trkpt><trkpt lat="40.2977683" lon="14.9591383"><ele>49.0</ele><time>2026-05-02T12:56:18.977Z</time></trkpt><trkpt lat="40.2978517" lon="14.95926"><ele>49.0</ele><time>2026-05-02T12:56:19.978Z</time></trkpt><trkpt lat="40.2979417" lon="14.95937"><ele>49.0</ele><time>2026-05-02T12:56:20.978Z</time></trkpt><trkpt lat="40.2980367" lon="14.9594767"><ele>49.25</ele><time>2026-05-02T12:56:21.977Z</time></trkpt><trkpt lat="40.2981283" lon="14.9595917"><ele>49.5</ele><time>2026-05-02T12:56:22.977Z</time></trkpt><trkpt lat="40.2982133" lon="14.9597133"><ele>49.75</ele><time>2026-05-02T12:56:23.978Z</time></trkpt><trkpt lat="40.298295" lon="14.9598283"><ele>50.0</ele><time>2026-05-02T12:56:24.978Z</time></trkpt><trkpt lat="40.298375" lon="14.95994"><ele>51.4</ele><time>2026-05-02T12:56:25.977Z</time></trkpt><trkpt lat="40.29845" lon="14.96005"><ele>52.8</ele><time>2026-05-02T12:56:26.977Z</time></trkpt><trkpt lat="40.2985167" lon="14.9601483"><ele>54.2</ele><time>2026-05-02T12:56:27.977Z</time></trkpt><trkpt lat="40.29857" lon="14.9602433"><ele>55.6</ele><time>2026-05-02T12:56:28.977Z</time></trkpt><trkpt lat="40.2986183" lon="14.9603267"><ele>57.0</ele><time>2026-05-02T12:56:29.978Z</time></trkpt><trkpt lat="40.298665" lon="14.9604183"><ele>57.0</ele><time>2026-05-02T12:56:30.977Z</time></trkpt><trkpt lat="40.2987" lon="14.9605017"><ele>57.0</ele><time>2026-05-02T12:56:31.977Z</time></trkpt><trkpt lat="40.2987267" lon="14.96058"><ele>57.0</ele><time>2026-05-02T12:56:32.978Z</time></trkpt><trkpt lat="40.2987433" lon="14.96075"><ele>57.0</ele><time>2026-05-02T12:56:34.977Z</time></trkpt><trkpt lat="40.2987483" lon="14.9608533"><ele>57.0</ele><time>2026-05-02T12:56:35.977Z</time></trkpt><trkpt lat="40.2987383" lon="14.9609583"><ele>57.0</ele><time>2026-05-02T12:56:36.978Z</time></trkpt><trkpt lat="40.2987117" lon="14.9610633"><ele>57.2</ele><time>2026-05-02T12:56:37.977Z</time></trkpt><trkpt lat="40.2986833" lon="14.9611767"><ele>57.400000000000006</ele><time>2026-05-02T12:56:38.977Z</time></trkpt><trkpt lat="40.29864" lon="14.961285"><ele>57.599999999999994</ele><time>2026-05-02T12:56:39.977Z</time></trkpt><trkpt lat="40.2985883" lon="14.9613883"><ele>57.8</ele><time>2026-05-02T12:56:40.978Z</time></trkpt><trkpt lat="40.2985217" lon="14.96148"><ele>58.0</ele><time>2026-05-02T12:56:41.977Z</time></trkpt><trkpt lat="40.2984467" lon="14.9615617"><ele>58.0</ele><time>2026-05-02T12:56:42.978Z</time></trkpt><trkpt lat="40.2983667" lon="14.961635"><ele>58.0</ele><time>2026-05-02T12:56:43.977Z</time></trkpt><trkpt lat="40.2982783" lon="14.961705"><ele>58.0</ele><time>2026-05-02T12:56:44.977Z</time></trkpt><trkpt lat="40.29818" lon="14.9617683"><ele>58.0</ele><time>2026-05-02T12:56:45.977Z</time></trkpt><trkpt lat="40.2980733" lon="14.9618117"><ele>58.0</ele><time>2026-05-02T12:56:46.978Z</time></trkpt><trkpt lat="40.2979617" lon="14.96183"><ele>58.4</ele><time>2026-05-02T12:56:47.978Z</time></trkpt><trkpt lat="40.2978417" lon="14.961835"><ele>58.8</ele><time>2026-05-02T12:56:48.978Z</time></trkpt><trkpt lat="40.2977383" lon="14.9618317"><ele>59.2</ele><time>2026-05-02T12:56:49.978Z</time></trkpt><trkpt lat="40.2976283" lon="14.9618367"><ele>59.6</ele><time>2026-05-02T12:56:50.978Z</time></trkpt><trkpt lat="40.2975183" lon="14.961855"><ele>60.0</ele><time>2026-05-02T12:56:51.977Z</time></trkpt><trkpt lat="40.2974133" lon="14.9619183"><ele>60.0</ele><time>2026-05-02T12:56:52.977Z</time></trkpt><trkpt lat="40.2973283" lon="14.9620067"><ele>60.0</ele><time>2026-05-02T12:56:53.978Z</time></trkpt><trkpt lat="40.2972617" lon="14.962115"><ele>60.0</ele><time>2026-05-02T12:56:54.978Z</time></trkpt><trkpt lat="40.2971967" lon="14.9622283"><ele>60.0</ele><time>2026-05-02T12:56:55.977Z</time></trkpt><trkpt lat="40.2971517" lon="14.9623517"><ele>60.0</ele><time>2026-05-02T12:56:56.977Z</time></trkpt><trkpt lat="40.2971333" lon="14.9624767"><ele>61.4</ele><time>2026-05-02T12:56:57.978Z</time></trkpt><trkpt lat="40.29714" lon="14.9625983"><ele>62.8</ele><time>2026-05-02T12:56:58.977Z</time></trkpt><trkpt lat="40.297165" lon="14.962705"><ele>64.2</ele><time>2026-05-02T12:56:59.978Z</time></trkpt><trkpt lat="40.29723" lon="14.9628033"><ele>65.6</ele><time>2026-05-02T12:57:00.977Z</time></trkpt><trkpt lat="40.2973183" lon="14.9628883"><ele>67.0</ele><time>2026-05-02T12:57:01.977Z</time></trkpt><trkpt lat="40.29742" lon="14.9629733"><ele>67.0</ele><time>2026-05-02T12:57:02.978Z</time></trkpt><trkpt lat="40.297525" lon="14.9630617"><ele>67.0</ele><time>2026-05-02T12:57:03.977Z</time></trkpt><trkpt lat="40.2976183" lon="14.9631633"><ele>67.0</ele><time>2026-05-02T12:57:04.978Z</time></trkpt><trkpt lat="40.2977133" lon="14.9632933"><ele>67.0</ele><time>2026-05-02T12:57:05.978Z</time></trkpt><trkpt lat="40.2978033" lon="14.963445"><ele>72.0</ele><time>2026-05-02T12:57:06.977Z</time></trkpt><trkpt lat="40.29789" lon="14.96361"><ele>77.0</ele><time>2026-05-02T12:57:07.978Z</time></trkpt><trkpt lat="40.297975" lon="14.9637867"><ele>82.0</ele><time>2026-05-02T12:57:08.978Z</time></trkpt><trkpt lat="40.2980617" lon="14.9639683"><ele>78.0</ele><time>2026-05-02T12:57:09.978Z</time></trkpt><trkpt lat="40.2981467" lon="14.9641433"><ele>74.0</ele><time>2026-05-02T12:57:10.977Z</time></trkpt><trkpt lat="40.29822" lon="14.9643083"><ele>70.0</ele><time>2026-05-02T12:57:11.977Z</time></trkpt><trkpt lat="40.2982983" lon="14.9644717"><ele>70.0</ele><time>2026-05-02T12:57:12.978Z</time></trkpt><trkpt lat="40.2983683" lon="14.9646217"><ele>70.0</ele><time>2026-05-02T12:57:13.977Z</time></trkpt><trkpt lat="40.2984367" lon="14.9647667"><ele>70.0</ele><time>2026-05-02T12:57:14.978Z</time></trkpt><trkpt lat="40.2985133" lon="14.9648967"><ele>70.0</ele><time>2026-05-02T12:57:15.977Z</time></trkpt><trkpt lat="40.298615" lon="14.965025"><ele>69.5</ele><time>2026-05-02T12:57:16.977Z</time></trkpt><trkpt lat="40.29873" lon="14.9651167"><ele>69.0</ele><time>2026-05-02T12:57:17.977Z</time></trkpt><trkpt lat="40.29885" lon="14.9651767"><ele>68.5</ele><time>2026-05-02T12:57:18.977Z</time></trkpt><trkpt lat="40.2989883" lon="14.9652267"><ele>68.0</ele><time>2026-05-02T12:57:19.978Z</time></trkpt><trkpt lat="40.2991167" lon="14.9652917"><ele>68.0</ele><time>2026-05-02T12:57:20.977Z</time></trkpt><trkpt lat="40.2992317" lon="14.96538"><ele>68.0</ele><time>2026-05-02T12:57:21.977Z</time></trkpt><trkpt lat="40.2993317" lon="14.9654833"><ele>68.0</ele><time>2026-05-02T12:57:22.977Z</time></trkpt><trkpt lat="40.2994117" lon="14.9656"><ele>68.0</ele><time>2026-05-02T12:57:23.977Z</time></trkpt><trkpt lat="40.2994683" lon="14.9657433"><ele>70.75</ele><time>2026-05-02T12:57:24.977Z</time></trkpt><trkpt lat="40.2995133" lon="14.9658933"><ele>73.5</ele><time>2026-05-02T12:57:25.977Z</time></trkpt><trkpt lat="40.2995533" lon="14.966045"><ele>76.25</ele><time>2026-05-02T12:57:26.977Z</time></trkpt><trkpt lat="40.2995917" lon="14.9662017"><ele>79.0</ele><time>2026-05-02T12:57:27.977Z</time></trkpt><trkpt lat="40.29964" lon="14.9663783"><ele>79.0</ele><time>2026-05-02T12:57:28.978Z</time></trkpt><trkpt lat="40.29969" lon="14.9665467"><ele>79.0</ele><time>2026-05-02T12:57:29.977Z</time></trkpt><trkpt lat="40.29976" lon="14.9667067"><ele>79.0</ele><time>2026-05-02T12:57:30.977Z</time></trkpt><trkpt lat="40.299835" lon="14.96686"><ele>79.0</ele><time>2026-05-02T12:57:31.977Z</time></trkpt><trkpt lat="40.2999183" lon="14.9670167"><ele>76.75</ele><time>2026-05-02T12:57:32.977Z</time></trkpt><trkpt lat="40.3000033" lon="14.9671667"><ele>74.5</ele><time>2026-05-02T12:57:33.977Z</time></trkpt><trkpt lat="40.3000933" lon="14.967295"><ele>72.25</ele><time>2026-05-02T12:57:34.978Z</time></trkpt><trkpt lat="40.3002067" lon="14.96741"><ele>70.0</ele><time>2026-05-02T12:57:35.978Z</time></trkpt><trkpt lat="40.30031" lon="14.9675233"><ele>69.6</ele><time>2026-05-02T12:57:36.978Z</time></trkpt><trkpt lat="40.3003967" lon="14.9676433"><ele>69.2</ele><time>2026-05-02T12:57:37.977Z</time></trkpt><trkpt lat="40.3004583" lon="14.9677717"><ele>68.8</ele><time>2026-05-02T12:57:38.977Z</time></trkpt><trkpt lat="40.3004783" lon="14.9679"><ele>68.4</ele><time>2026-05-02T12:57:39.977Z</time></trkpt><trkpt lat="40.3004667" lon="14.96803"><ele>68.0</ele><time>2026-05-02T12:57:40.978Z</time></trkpt><trkpt lat="40.30043" lon="14.968165"><ele>68.0</ele><time>2026-05-02T12:57:41.978Z</time></trkpt><trkpt lat="40.3003733" lon="14.96829"><ele>68.0</ele><time>2026-05-02T12:57:42.977Z</time></trkpt><trkpt lat="40.3003" lon="14.9684067"><ele>68.0</ele><time>2026-05-02T12:57:43.977Z</time></trkpt><trkpt lat="40.3002167" lon="14.9685183"><ele>68.0</ele><time>2026-05-02T12:57:44.977Z</time></trkpt><trkpt lat="40.300125" lon="14.96862"><ele>66.25</ele><time>2026-05-02T12:57:45.977Z</time></trkpt><trkpt lat="40.300015" lon="14.968715"><ele>64.5</ele><time>2026-05-02T12:57:46.978Z</time></trkpt><trkpt lat="40.2999117" lon="14.9687967"><ele>62.75</ele><time>2026-05-02T12:57:47.977Z</time></trkpt><trkpt lat="40.2998183" lon="14.968875"><ele>61.0</ele><time>2026-05-02T12:57:48.977Z</time></trkpt><trkpt lat="40.2997383" lon="14.9689717"><ele>61.0</ele><time>2026-05-02T12:57:49.977Z</time></trkpt><trkpt lat="40.2996817" lon="14.969085"><ele>60.99999999999999</ele><time>2026-05-02T12:57:50.977Z</time></trkpt><trkpt lat="40.2996617" lon="14.96921"><ele>60.99999999999999</ele><time>2026-05-02T12:57:51.978Z</time></trkpt><trkpt lat="40.2996733" lon="14.9693383"><ele>61.0</ele><time>2026-05-02T12:57:52.977Z</time></trkpt><trkpt lat="40.2997133" lon="14.969455"><ele>61.0</ele><time>2026-05-02T12:57:53.978Z</time></trkpt><trkpt lat="40.2997733" lon="14.969545"><ele>61.0</ele><time>2026-05-02T12:57:54.978Z</time></trkpt><trkpt lat="40.2998467" lon="14.9696217"><ele>60.99999999999999</ele><time>2026-05-02T12:57:55.978Z</time></trkpt><trkpt lat="40.299935" lon="14.9696967"><ele>60.99999999999999</ele><time>2026-05-02T12:57:56.977Z</time></trkpt><trkpt lat="40.3000217" lon="14.9697683"><ele>61.0</ele><time>2026-05-02T12:57:57.977Z</time></trkpt><trkpt lat="40.3000917" lon="14.96986"><ele>61.0</ele><time>2026-05-02T12:57:58.977Z</time></trkpt><trkpt lat="40.3001317" lon="14.969975"><ele>59.599999999999994</ele><time>2026-05-02T12:57:59.977Z</time></trkpt><trkpt lat="40.300145" lon="14.970085"><ele>58.199999999999996</ele><time>2026-05-02T12:58:00.977Z</time></trkpt><trkpt lat="40.3001317" lon="14.970195"><ele>56.800000000000004</ele><time>2026-05-02T12:58:01.977Z</time></trkpt><trkpt lat="40.30009" lon="14.9702983"><ele>55.400000000000006</ele><time>2026-05-02T12:58:02.977Z</time></trkpt><trkpt lat="40.3000167" lon="14.9703883"><ele>54.0</ele><time>2026-05-02T12:58:03.977Z</time></trkpt><trkpt lat="40.2999217" lon="14.9704683"><ele>54.0</ele><time>2026-05-02T12:58:04.978Z</time></trkpt><trkpt lat="40.2998067" lon="14.9705517"><ele>54.0</ele><time>2026-05-02T12:58:05.977Z</time></trkpt><trkpt lat="40.2996883" lon="14.970655"><ele>54.0</ele><time>2026-05-02T12:58:06.978Z</time></trkpt><trkpt lat="40.2995567" lon="14.9707667"><ele>54.0</ele><time>2026-05-02T12:58:07.977Z</time></trkpt><trkpt lat="40.299425" lon="14.9708733"><ele>55.0</ele><time>2026-05-02T12:58:08.977Z</time></trkpt><trkpt lat="40.2993033" lon="14.9709767"><ele>56.0</ele><time>2026-05-02T12:58:09.977Z</time></trkpt><trkpt lat="40.2991917" lon="14.971095"><ele>57.0</ele><time>2026-05-02T12:58:10.977Z</time></trkpt><trkpt lat="40.2991117" lon="14.9712183"><ele>58.0</ele><time>2026-05-02T12:58:11.978Z</time></trkpt><trkpt lat="40.2990467" lon="14.9713467"><ele>58.0</ele><time>2026-05-02T12:58:12.977Z</time></trkpt><trkpt lat="40.2990083" lon="14.9714917"><ele>58.0</ele><time>2026-05-02T12:58:13.977Z</time></trkpt><trkpt lat="40.2989767" lon="14.9716467"><ele>58.0</ele><time>2026-05-02T12:58:14.978Z</time></trkpt><trkpt lat="40.2989517" lon="14.9718"><ele>58.0</ele><time>2026-05-02T12:58:15.977Z</time></trkpt><trkpt lat="40.2989367" lon="14.9719483"><ele>57.8</ele><time>2026-05-02T12:58:16.977Z</time></trkpt><trkpt lat="40.2989467" lon="14.9720883"><ele>57.599999999999994</ele><time>2026-05-02T12:58:17.978Z</time></trkpt><trkpt lat="40.2989767" lon="14.972225"><ele>57.400000000000006</ele><time>2026-05-02T12:58:18.977Z</time></trkpt><trkpt lat="40.2990233" lon="14.972355"><ele>57.2</ele><time>2026-05-02T12:58:19.977Z</time></trkpt><trkpt lat="40.2990833" lon="14.9724833"><ele>57.0</ele><time>2026-05-02T12:58:20.977Z</time></trkpt><trkpt lat="40.2991633" lon="14.9726033"><ele>59.5</ele><time>2026-05-02T12:58:21.977Z</time></trkpt><trkpt lat="40.2992533" lon="14.97272"><ele>62.0</ele><time>2026-05-02T12:58:22.977Z</time></trkpt><trkpt lat="40.2993633" lon="14.9728167"><ele>64.5</ele><time>2026-05-02T12:58:23.978Z</time></trkpt><trkpt lat="40.299485" lon="14.972905"><ele>67.0</ele><time>2026-05-02T12:58:24.977Z</time></trkpt><trkpt lat="40.29961" lon="14.9729983"><ele>67.0</ele><time>2026-05-02T12:58:25.978Z</time></trkpt><trkpt lat="40.29972" lon="14.9731017"><ele>67.0</ele><time>2026-05-02T12:58:26.978Z</time></trkpt><trkpt lat="40.299815" lon="14.9732083"><ele>67.0</ele><time>2026-05-02T12:58:27.977Z</time></trkpt><trkpt lat="40.2998867" lon="14.97333"><ele>67.0</ele><time>2026-05-02T12:58:28.977Z</time></trkpt><trkpt lat="40.2999367" lon="14.9734733"><ele>65.5</ele><time>2026-05-02T12:58:29.978Z</time></trkpt><trkpt lat="40.299965" lon="14.9736283"><ele>64.0</ele><time>2026-05-02T12:58:30.977Z</time></trkpt><trkpt lat="40.2999567" lon="14.9737883"><ele>62.5</ele><time>2026-05-02T12:58:31.977Z</time></trkpt><trkpt lat="40.2999183" lon="14.973935"><ele>61.0</ele><time>2026-05-02T12:58:32.978Z</time></trkpt><trkpt lat="40.2998617" lon="14.974075"><ele>61.0</ele><time>2026-05-02T12:58:33.977Z</time></trkpt><trkpt lat="40.299795" lon="14.9742167"><ele>61.0</ele><time>2026-05-02T12:58:34.977Z</time></trkpt><trkpt lat="40.2997267" lon="14.974355"><ele>61.0</ele><time>2026-05-02T12:58:35.977Z</time></trkpt><trkpt lat="40.2996583" lon="14.9744883"><ele>61.0</ele><time>2026-05-02T12:58:36.977Z</time></trkpt><trkpt lat="40.2995917" lon="14.9746133"><ele>63.75</ele><time>2026-05-02T12:58:37.977Z</time></trkpt><trkpt lat="40.2995233" lon="14.9747333"><ele>66.5</ele><time>2026-05-02T12:58:38.977Z</time></trkpt><trkpt lat="40.29944" lon="14.974845"><ele>69.25</ele><time>2026-05-02T12:58:39.977Z</time></trkpt><trkpt lat="40.299355" lon="14.9749617"><ele>72.0</ele><time>2026-05-02T12:58:40.978Z</time></trkpt><trkpt lat="40.2992617" lon="14.9750717"><ele>72.0</ele><time>2026-05-02T12:58:41.977Z</time></trkpt><trkpt lat="40.2991667" lon="14.9751833"><ele>72.0</ele><time>2026-05-02T12:58:42.977Z</time></trkpt><trkpt lat="40.2990767" lon="14.9753033"><ele>72.0</ele><time>2026-05-02T12:58:43.978Z</time></trkpt><trkpt lat="40.299005" lon="14.9754467"><ele>72.0</ele><time>2026-05-02T12:58:44.977Z</time></trkpt><trkpt lat="40.2988817" lon="14.9759467"><ele>74.25</ele><time>2026-05-02T12:58:47.978Z</time></trkpt><trkpt lat="40.29888" lon="14.976125"><ele>76.5</ele><time>2026-05-02T12:58:48.978Z</time></trkpt><trkpt lat="40.2988967" lon="14.9763"><ele>78.75</ele><time>2026-05-02T12:58:49.977Z</time></trkpt><trkpt lat="40.2989133" lon="14.9764867"><ele>81.0</ele><time>2026-05-02T12:58:50.977Z</time></trkpt><trkpt lat="40.2989517" lon="14.9768367"><ele>81.0</ele><time>2026-05-02T12:58:52.977Z</time></trkpt><trkpt lat="40.2989483" lon="14.9769883"><ele>81.0</ele><time>2026-05-02T12:58:53.977Z</time></trkpt><trkpt lat="40.29894" lon="14.9771317"><ele>81.0</ele><time>2026-05-02T12:58:54.978Z</time></trkpt><trkpt lat="40.298905" lon="14.977285"><ele>81.0</ele><time>2026-05-02T12:58:55.977Z</time></trkpt><trkpt lat="40.2988583" lon="14.9774233"><ele>84.5</ele><time>2026-05-02T12:58:56.977Z</time></trkpt><trkpt lat="40.2988" lon="14.9775583"><ele>88.0</ele><time>2026-05-02T12:58:57.978Z</time></trkpt><trkpt lat="40.298735" lon="14.977685"><ele>91.5</ele><time>2026-05-02T12:58:58.977Z</time></trkpt><trkpt lat="40.29867" lon="14.9778133"><ele>95.0</ele><time>2026-05-02T12:58:59.977Z</time></trkpt><trkpt lat="40.298605" lon="14.9779467"><ele>95.0</ele><time>2026-05-02T12:59:00.977Z</time></trkpt><trkpt lat="40.2985533" lon="14.9780917"><ele>95.0</ele><time>2026-05-02T12:59:01.977Z</time></trkpt><trkpt lat="40.298515" lon="14.9782467"><ele>95.0</ele><time>2026-05-02T12:59:02.978Z</time></trkpt><trkpt lat="40.2984833" lon="14.9784067"><ele>95.0</ele><time>2026-05-02T12:59:03.977Z</time></trkpt><trkpt lat="40.2984533" lon="14.9785583"><ele>96.25</ele><time>2026-05-02T12:59:04.977Z</time></trkpt><trkpt lat="40.2984383" lon="14.9787167"><ele>97.5</ele><time>2026-05-02T12:59:05.978Z</time></trkpt><trkpt lat="40.2984417" lon="14.97888"><ele>98.75</ele><time>2026-05-02T12:59:06.978Z</time></trkpt><trkpt lat="40.2984767" lon="14.97905"><ele>100.0</ele><time>2026-05-02T12:59:07.977Z</time></trkpt><trkpt lat="40.298535" lon="14.9792183"><ele>102.0</ele><time>2026-05-02T12:59:08.978Z</time></trkpt><trkpt lat="40.2986017" lon="14.979375"><ele>104.0</ele><time>2026-05-02T12:59:09.978Z</time></trkpt><trkpt lat="40.2986683" lon="14.979515"><ele>106.0</ele><time>2026-05-02T12:59:10.977Z</time></trkpt><trkpt lat="40.2987533" lon="14.979645"><ele>108.0</ele><time>2026-05-02T12:59:11.977Z</time></trkpt><trkpt lat="40.29884" lon="14.9797633"><ele>107.0</ele><time>2026-05-02T12:59:12.978Z</time></trkpt><trkpt lat="40.2989367" lon="14.9798717"><ele>106.0</ele><time>2026-05-02T12:59:13.977Z</time></trkpt><trkpt lat="40.29904" lon="14.97996"><ele>105.0</ele><time>2026-05-02T12:59:14.977Z</time></trkpt><trkpt lat="40.29916" lon="14.9800333"><ele>104.0</ele><time>2026-05-02T12:59:15.977Z</time></trkpt><trkpt lat="40.2992783" lon="14.9800967"><ele>107.25</ele><time>2026-05-02T12:59:16.977Z</time></trkpt><trkpt lat="40.29939" lon="14.980175"><ele>110.5</ele><time>2026-05-02T12:59:17.977Z</time></trkpt><trkpt lat="40.2995017" lon="14.9802467"><ele>113.75</ele><time>2026-05-02T12:59:18.977Z</time></trkpt><trkpt lat="40.299605" lon="14.9803167"><ele>117.0</ele><time>2026-05-02T12:59:19.977Z</time></trkpt><trkpt lat="40.299695" lon="14.980395"><ele>117.0</ele><time>2026-05-02T12:59:20.978Z</time></trkpt><trkpt lat="40.2997717" lon="14.9804933"><ele>116.99999999999999</ele><time>2026-05-02T12:59:21.977Z</time></trkpt><trkpt lat="40.2998283" lon="14.98062"><ele>116.99999999999999</ele><time>2026-05-02T12:59:22.977Z</time></trkpt><trkpt lat="40.2998633" lon="14.9807567"><ele>117.0</ele><time>2026-05-02T12:59:23.978Z</time></trkpt><trkpt lat="40.2998667" lon="14.98091"><ele>117.0</ele><time>2026-05-02T12:59:24.977Z</time></trkpt><trkpt lat="40.2998567" lon="14.9810667"><ele>117.0</ele><time>2026-05-02T12:59:25.978Z</time></trkpt><trkpt lat="40.2998567" lon="14.981225"><ele>117.0</ele><time>2026-05-02T12:59:26.977Z</time></trkpt><trkpt lat="40.2998883" lon="14.9813767"><ele>117.0</ele><time>2026-05-02T12:59:27.977Z</time></trkpt><trkpt lat="40.2999533" lon="14.9815"><ele>117.0</ele><time>2026-05-02T12:59:28.977Z</time></trkpt><trkpt lat="40.3000433" lon="14.981585"><ele>117.0</ele><time>2026-05-02T12:59:29.978Z</time></trkpt><trkpt lat="40.300155" lon="14.9816467"><ele>117.0</ele><time>2026-05-02T12:59:30.978Z</time></trkpt><trkpt lat="40.300265" lon="14.9817083"><ele>117.0</ele><time>2026-05-02T12:59:31.978Z</time></trkpt><trkpt lat="40.3003717" lon="14.9817983"><ele>117.0</ele><time>2026-05-02T12:59:32.977Z</time></trkpt><trkpt lat="40.3004717" lon="14.9819017"><ele>117.0</ele><time>2026-05-02T12:59:33.978Z</time></trkpt><trkpt lat="40.30057" lon="14.9820117"><ele>117.0</ele><time>2026-05-02T12:59:34.977Z</time></trkpt><trkpt lat="40.300665" lon="14.9821267"><ele>117.0</ele><time>2026-05-02T12:59:35.977Z</time></trkpt><trkpt lat="40.3007433" lon="14.9822333"><ele>117.0</ele><time>2026-05-02T12:59:36.977Z</time></trkpt><trkpt lat="40.3008133" lon="14.982325"><ele>117.0</ele><time>2026-05-02T12:59:37.977Z</time></trkpt><trkpt lat="40.3008717" lon="14.9824033"><ele>117.0</ele><time>2026-05-02T12:59:38.977Z</time></trkpt><trkpt lat="40.3009283" lon="14.9824867"><ele>117.0</ele><time>2026-05-02T12:59:39.977Z</time></trkpt><trkpt lat="40.3009867" lon="14.98257"><ele>117.0</ele><time>2026-05-02T12:59:40.978Z</time></trkpt><trkpt lat="40.3010517" lon="14.9826583"><ele>117.0</ele><time>2026-05-02T12:59:41.977Z</time></trkpt><trkpt lat="40.3011067" lon="14.9827417"><ele>117.0</ele><time>2026-05-02T12:59:42.978Z</time></trkpt><trkpt lat="40.301165" lon="14.9828267"><ele>116.8</ele><time>2026-05-02T12:59:43.977Z</time></trkpt><trkpt lat="40.30123" lon="14.9829083"><ele>116.6</ele><time>2026-05-02T12:59:44.977Z</time></trkpt><trkpt lat="40.3012933" lon="14.9829867"><ele>116.39999999999999</ele><time>2026-05-02T12:59:45.978Z</time></trkpt><trkpt lat="40.3013533" lon="14.9830717"><ele>116.19999999999999</ele><time>2026-05-02T12:59:46.977Z</time></trkpt><trkpt lat="40.3014183" lon="14.983155"><ele>116.0</ele><time>2026-05-02T12:59:47.978Z</time></trkpt><trkpt lat="40.3014933" lon="14.9832417"><ele>116.0</ele><time>2026-05-02T12:59:48.977Z</time></trkpt><trkpt lat="40.3015633" lon="14.9833417"><ele>116.0</ele><time>2026-05-02T12:59:49.978Z</time></trkpt><trkpt lat="40.30164" lon="14.983435"><ele>116.0</ele><time>2026-05-02T12:59:50.977Z</time></trkpt><trkpt lat="40.3017117" lon="14.9835317"><ele>116.0</ele><time>2026-05-02T12:59:51.978Z</time></trkpt><trkpt lat="40.3017817" lon="14.9836417"><ele>116.0</ele><time>2026-05-02T12:59:52.977Z</time></trkpt><trkpt lat="40.3018483" lon="14.9837317"><ele>116.16666666666666</ele><time>2026-05-02T12:59:53.978Z</time></trkpt><trkpt lat="40.3019083" lon="14.98382"><ele>116.33333333333333</ele><time>2026-05-02T12:59:54.977Z</time></trkpt><trkpt lat="40.3019583" lon="14.983895"><ele>116.5</ele><time>2026-05-02T12:59:55.978Z</time></trkpt><trkpt lat="40.3020017" lon="14.98396"><ele>116.66666666666666</ele><time>2026-05-02T12:59:56.978Z</time></trkpt><trkpt lat="40.302075" lon="14.9840783"><ele>116.83333333333333</ele><time>2026-05-02T12:59:58.978Z</time></trkpt><trkpt lat="40.302135" lon="14.9841783"><ele>117.0</ele><time>2026-05-02T13:00:00.977Z</time></trkpt><trkpt lat="40.3021783" lon="14.9842667"><ele>116.83333333333333</ele><time>2026-05-02T13:00:02.977Z</time></trkpt><trkpt lat="40.30222" lon="14.9843367"><ele>116.66666666666666</ele><time>2026-05-02T13:00:04.977Z</time></trkpt><trkpt lat="40.3022767" lon="14.9844383"><ele>116.5</ele><time>2026-05-02T13:00:06.977Z</time></trkpt><trkpt lat="40.3023483" lon="14.98458"><ele>116.33333333333333</ele><time>2026-05-02T13:00:08.977Z</time></trkpt><trkpt lat="40.30239" lon="14.9846567"><ele>116.16666666666666</ele><time>2026-05-02T13:00:09.977Z</time></trkpt><trkpt lat="40.3024233" lon="14.9847383"><ele>116.0</ele><time>2026-05-02T13:00:10.978Z</time></trkpt><trkpt lat="40.3024617" lon="14.98483"><ele>116.0</ele><time>2026-05-02T13:00:11.978Z</time></trkpt><trkpt lat="40.3025017" lon="14.98493"><ele>116.0</ele><time>2026-05-02T13:00:12.978Z</time></trkpt><trkpt lat="40.3025467" lon="14.98504"><ele>116.0</ele><time>2026-05-02T13:00:13.977Z</time></trkpt><trkpt lat="40.3025983" lon="14.9851433"><ele>116.0</ele><time>2026-05-02T13:00:14.977Z</time></trkpt><trkpt lat="40.302655" lon="14.9852517"><ele>116.0</ele><time>2026-05-02T13:00:15.977Z</time></trkpt><trkpt lat="40.3027183" lon="14.9853533"><ele>114.6</ele><time>2026-05-02T13:00:16.977Z</time></trkpt><trkpt lat="40.3027933" lon="14.985455"><ele>113.19999999999999</ele><time>2026-05-02T13:00:17.977Z</time></trkpt><trkpt lat="40.3028617" lon="14.9855583"><ele>111.80000000000001</ele><time>2026-05-02T13:00:18.977Z</time></trkpt><trkpt lat="40.3029267" lon="14.9856667"><ele>110.4</ele><time>2026-05-02T13:00:19.977Z</time></trkpt><trkpt lat="40.30298" lon="14.9857783"><ele>109.0</ele><time>2026-05-02T13:00:20.977Z</time></trkpt><trkpt lat="40.303025" lon="14.9858967"><ele>110.0</ele><time>2026-05-02T13:00:21.977Z</time></trkpt><trkpt lat="40.303075" lon="14.9860117"><ele>111.0</ele><time>2026-05-02T13:00:22.977Z</time></trkpt><trkpt lat="40.3031217" lon="14.986135"><ele>112.0</ele><time>2026-05-02T13:00:23.978Z</time></trkpt><trkpt lat="40.30317" lon="14.9862633"><ele>113.0</ele><time>2026-05-02T13:00:24.977Z</time></trkpt><trkpt lat="40.303215" lon="14.9863883"><ele>114.0</ele><time>2026-05-02T13:00:25.977Z</time></trkpt><trkpt lat="40.3032617" lon="14.9865133"><ele>114.0</ele><time>2026-05-02T13:00:26.977Z</time></trkpt><trkpt lat="40.30331" lon="14.9866383"><ele>114.0</ele><time>2026-05-02T13:00:27.977Z</time></trkpt><trkpt lat="40.3033533" lon="14.9867617"><ele>114.0</ele><time>2026-05-02T13:00:28.977Z</time></trkpt><trkpt lat="40.3033917" lon="14.9868833"><ele>114.0</ele><time>2026-05-02T13:00:29.977Z</time></trkpt><trkpt lat="40.3034333" lon="14.9870117"><ele>114.0</ele><time>2026-05-02T13:00:30.977Z</time></trkpt><trkpt lat="40.3034767" lon="14.98714"><ele>111.5</ele><time>2026-05-02T13:00:31.978Z</time></trkpt><trkpt lat="40.303535" lon="14.987275"><ele>109.0</ele><time>2026-05-02T13:00:32.977Z</time></trkpt><trkpt lat="40.3035917" lon="14.987405"><ele>106.5</ele><time>2026-05-02T13:00:33.978Z</time></trkpt><trkpt lat="40.3036583" lon="14.9875383"><ele>104.0</ele><time>2026-05-02T13:00:34.977Z</time></trkpt><trkpt lat="40.3037283" lon="14.9876667"><ele>104.6</ele><time>2026-05-02T13:00:35.977Z</time></trkpt><trkpt lat="40.303805" lon="14.9877767"><ele>105.2</ele><time>2026-05-02T13:00:36.977Z</time></trkpt><trkpt lat="40.30388" lon="14.9878783"><ele>105.79999999999998</ele><time>2026-05-02T13:00:37.977Z</time></trkpt><trkpt lat="40.30396" lon="14.9879767"><ele>106.39999999999999</ele><time>2026-05-02T13:00:38.977Z</time></trkpt><trkpt lat="40.304025" lon="14.9880767"><ele>107.0</ele><time>2026-05-02T13:00:39.977Z</time></trkpt><trkpt lat="40.3040967" lon="14.9881783"><ele>107.0</ele><time>2026-05-02T13:00:40.978Z</time></trkpt><trkpt lat="40.3041483" lon="14.988285"><ele>106.99999999999999</ele><time>2026-05-02T13:00:41.977Z</time></trkpt><trkpt lat="40.30419" lon="14.988405"><ele>106.99999999999999</ele><time>2026-05-02T13:00:42.977Z</time></trkpt><trkpt lat="40.3042133" lon="14.9885317"><ele>107.0</ele><time>2026-05-02T13:00:43.977Z</time></trkpt><trkpt lat="40.30422" lon="14.988665"><ele>107.0</ele><time>2026-05-02T13:00:44.978Z</time></trkpt><trkpt lat="40.304215" lon="14.98881"><ele>106.25</ele><time>2026-05-02T13:00:45.977Z</time></trkpt><trkpt lat="40.3041917" lon="14.98896"><ele>105.5</ele><time>2026-05-02T13:00:46.978Z</time></trkpt><trkpt lat="40.3041617" lon="14.989135"><ele>104.75</ele><time>2026-05-02T13:00:47.977Z</time></trkpt><trkpt lat="40.3041333" lon="14.9893117"><ele>104.0</ele><time>2026-05-02T13:00:48.977Z</time></trkpt><trkpt lat="40.3041317" lon="14.9894883"><ele>101.0</ele><time>2026-05-02T13:00:49.978Z</time></trkpt><trkpt lat="40.3041667" lon="14.98966"><ele>98.0</ele><time>2026-05-02T13:00:50.977Z</time></trkpt><trkpt lat="40.30423" lon="14.9898467"><ele>95.0</ele><time>2026-05-02T13:00:51.977Z</time></trkpt><trkpt lat="40.3043233" lon="14.9900233"><ele>91.33333333333334</ele><time>2026-05-02T13:00:52.977Z</time></trkpt><trkpt lat="40.3044467" lon="14.9901783"><ele>87.66666666666667</ele><time>2026-05-02T13:00:53.977Z</time></trkpt><trkpt lat="40.30458" lon="14.99032"><ele>84.0</ele><time>2026-05-02T13:00:54.977Z</time></trkpt><trkpt lat="40.3047267" lon="14.9904333"><ele>87.0</ele><time>2026-05-02T13:00:55.977Z</time></trkpt><trkpt lat="40.3048783" lon="14.9905183"><ele>90.0</ele><time>2026-05-02T13:00:56.978Z</time></trkpt><trkpt lat="40.3050283" lon="14.9905667"><ele>93.0</ele><time>2026-05-02T13:00:57.977Z</time></trkpt><trkpt lat="40.3051683" lon="14.99059"><ele>93.0</ele><time>2026-05-02T13:00:58.977Z</time></trkpt><trkpt lat="40.3053" lon="14.9906017"><ele>93.0</ele><time>2026-05-02T13:00:59.978Z</time></trkpt><trkpt lat="40.3054333" lon="14.99061"><ele>93.0</ele><time>2026-05-02T13:01:00.978Z</time></trkpt><trkpt lat="40.3055567" lon="14.9906183"><ele>93.0</ele><time>2026-05-02T13:01:01.977Z</time></trkpt><trkpt lat="40.3056767" lon="14.9906317"><ele>93.0</ele><time>2026-05-02T13:01:02.978Z</time></trkpt><trkpt lat="40.3058" lon="14.9906417"><ele>93.0</ele><time>2026-05-02T13:01:03.977Z</time></trkpt><trkpt lat="40.3059333" lon="14.9906517"><ele>93.0</ele><time>2026-05-02T13:01:04.977Z</time></trkpt><trkpt lat="40.3060617" lon="14.990665"><ele>93.0</ele><time>2026-05-02T13:01:05.977Z</time></trkpt><trkpt lat="40.3061883" lon="14.990685"><ele>93.0</ele><time>2026-05-02T13:01:06.977Z</time></trkpt><trkpt lat="40.306315" lon="14.9907117"><ele>93.0</ele><time>2026-05-02T13:01:07.978Z</time></trkpt><trkpt lat="40.3064283" lon="14.99076"><ele>93.0</ele><time>2026-05-02T13:01:08.977Z</time></trkpt><trkpt lat="40.3065333" lon="14.9908267"><ele>93.0</ele><time>2026-05-02T13:01:09.977Z</time></trkpt><trkpt lat="40.3066383" lon="14.990915"><ele>91.75</ele><time>2026-05-02T13:01:10.977Z</time></trkpt><trkpt lat="40.3067367" lon="14.991025"><ele>90.5</ele><time>2026-05-02T13:01:11.978Z</time></trkpt><trkpt lat="40.30682" lon="14.9911483"><ele>89.25</ele><time>2026-05-02T13:01:12.977Z</time></trkpt><trkpt lat="40.30689" lon="14.991285"><ele>88.0</ele><time>2026-05-02T13:01:13.977Z</time></trkpt><trkpt lat="40.3069483" lon="14.99143"><ele>88.0</ele><time>2026-05-02T13:01:14.977Z</time></trkpt><trkpt lat="40.3069883" lon="14.991585"><ele>88.0</ele><time>2026-05-02T13:01:15.977Z</time></trkpt><trkpt lat="40.3070117" lon="14.9917467"><ele>88.0</ele><time>2026-05-02T13:01:16.977Z</time></trkpt><trkpt lat="40.307015" lon="14.991915"><ele>88.0</ele><time>2026-05-02T13:01:17.977Z</time></trkpt><trkpt lat="40.3070017" lon="14.9920733"><ele>88.25</ele><time>2026-05-02T13:01:18.977Z</time></trkpt><trkpt lat="40.3069733" lon="14.9922333"><ele>88.5</ele><time>2026-05-02T13:01:19.978Z</time></trkpt><trkpt lat="40.306925" lon="14.9923817"><ele>88.75</ele><time>2026-05-02T13:01:20.978Z</time></trkpt><trkpt lat="40.3068733" lon="14.9925267"><ele>89.0</ele><time>2026-05-02T13:01:21.977Z</time></trkpt><trkpt lat="40.306825" lon="14.99267"><ele>89.0</ele><time>2026-05-02T13:01:22.977Z</time></trkpt><trkpt lat="40.3067783" lon="14.9928083"><ele>89.0</ele><time>2026-05-02T13:01:23.977Z</time></trkpt><trkpt lat="40.3067317" lon="14.9929417"><ele>89.0</ele><time>2026-05-02T13:01:24.977Z</time></trkpt><trkpt lat="40.3066967" lon="14.9930767"><ele>89.0</ele><time>2026-05-02T13:01:25.978Z</time></trkpt><trkpt lat="40.30666" lon="14.9932183"><ele>88.6</ele><time>2026-05-02T13:01:26.977Z</time></trkpt><trkpt lat="40.3066333" lon="14.9933633"><ele>88.2</ele><time>2026-05-02T13:01:27.977Z</time></trkpt><trkpt lat="40.3066183" lon="14.9935033"><ele>87.8</ele><time>2026-05-02T13:01:28.978Z</time></trkpt><trkpt lat="40.3066083" lon="14.9936417"><ele>87.39999999999999</ele><time>2026-05-02T13:01:29.977Z</time></trkpt><trkpt lat="40.3066" lon="14.99378"><ele>87.0</ele><time>2026-05-02T13:01:30.977Z</time></trkpt><trkpt lat="40.3065933" lon="14.9939267"><ele>87.0</ele><time>2026-05-02T13:01:31.977Z</time></trkpt><trkpt lat="40.3065883" lon="14.9940667"><ele>87.0</ele><time>2026-05-02T13:01:32.978Z</time></trkpt><trkpt lat="40.3065917" lon="14.9942067"><ele>87.0</ele><time>2026-05-02T13:01:33.977Z</time></trkpt><trkpt lat="40.306605" lon="14.9943533"><ele>87.0</ele><time>2026-05-02T13:01:34.977Z</time></trkpt><trkpt lat="40.306635" lon="14.994495"><ele>87.0</ele><time>2026-05-02T13:01:35.978Z</time></trkpt><trkpt lat="40.3066767" lon="14.9946383"><ele>85.75</ele><time>2026-05-02T13:01:36.978Z</time></trkpt><trkpt lat="40.30673" lon="14.9947833"><ele>84.5</ele><time>2026-05-02T13:01:37.977Z</time></trkpt><trkpt lat="40.306785" lon="14.99492"><ele>83.25</ele><time>2026-05-02T13:01:38.978Z</time></trkpt><trkpt lat="40.306855" lon="14.99504"><ele>82.0</ele><time>2026-05-02T13:01:39.977Z</time></trkpt><trkpt lat="40.306945" lon="14.9951517"><ele>80.25</ele><time>2026-05-02T13:01:40.977Z</time></trkpt><trkpt lat="40.3070467" lon="14.9952433"><ele>78.5</ele><time>2026-05-02T13:01:41.977Z</time></trkpt><trkpt lat="40.30714" lon="14.9953283"><ele>76.75</ele><time>2026-05-02T13:01:42.977Z</time></trkpt><trkpt lat="40.30724" lon="14.9954133"><ele>75.0</ele><time>2026-05-02T13:01:43.977Z</time></trkpt><trkpt lat="40.3073333" lon="14.9954933"><ele>75.0</ele><time>2026-05-02T13:01:44.978Z</time></trkpt><trkpt lat="40.30743" lon="14.9955783"><ele>75.0</ele><time>2026-05-02T13:01:45.977Z</time></trkpt><trkpt lat="40.307525" lon="14.995665"><ele>75.0</ele><time>2026-05-02T13:01:46.977Z</time></trkpt><trkpt lat="40.3076217" lon="14.9957467"><ele>75.0</ele><time>2026-05-02T13:01:47.978Z</time></trkpt><trkpt lat="40.3077217" lon="14.9958267"><ele>76.0</ele><time>2026-05-02T13:01:48.977Z</time></trkpt><trkpt lat="40.30782" lon="14.9959117"><ele>77.0</ele><time>2026-05-02T13:01:49.977Z</time></trkpt><trkpt lat="40.3079183" lon="14.9960083"><ele>78.0</ele><time>2026-05-02T13:01:50.978Z</time></trkpt><trkpt lat="40.3080083" lon="14.9961083"><ele>79.0</ele><time>2026-05-02T13:01:51.977Z</time></trkpt><trkpt lat="40.3080933" lon="14.9962267"><ele>79.0</ele><time>2026-05-02T13:01:52.978Z</time></trkpt><trkpt lat="40.3081617" lon="14.99636"><ele>79.0</ele><time>2026-05-02T13:01:53.977Z</time></trkpt><trkpt lat="40.308205" lon="14.99651"><ele>79.0</ele><time>2026-05-02T13:01:54.978Z</time></trkpt><trkpt lat="40.3082267" lon="14.9966733"><ele>79.0</ele><time>2026-05-02T13:01:55.977Z</time></trkpt><trkpt lat="40.3082383" lon="14.9968417"><ele>79.25</ele><time>2026-05-02T13:01:56.977Z</time></trkpt><trkpt lat="40.3082183" lon="14.9970183"><ele>79.5</ele><time>2026-05-02T13:01:57.977Z</time></trkpt><trkpt lat="40.30819" lon="14.997205"><ele>79.75</ele><time>2026-05-02T13:01:58.978Z</time></trkpt><trkpt lat="40.3081533" lon="14.9973917"><ele>80.0</ele><time>2026-05-02T13:01:59.978Z</time></trkpt><trkpt lat="40.3081133" lon="14.997575"><ele>76.25</ele><time>2026-05-02T13:02:00.977Z</time></trkpt><trkpt lat="40.30807" lon="14.9977583"><ele>72.5</ele><time>2026-05-02T13:02:01.978Z</time></trkpt><trkpt lat="40.3080317" lon="14.9979417"><ele>68.75</ele><time>2026-05-02T13:02:02.978Z</time></trkpt><trkpt lat="40.3079933" lon="14.9981317"><ele>65.0</ele><time>2026-05-02T13:02:03.977Z</time></trkpt><trkpt lat="40.3079483" lon="14.9983183"><ele>65.5</ele><time>2026-05-02T13:02:04.978Z</time></trkpt><trkpt lat="40.3079083" lon="14.9984933"><ele>66.0</ele><time>2026-05-02T13:02:05.977Z</time></trkpt><trkpt lat="40.30787" lon="14.9986633"><ele>66.5</ele><time>2026-05-02T13:02:06.978Z</time></trkpt><trkpt lat="40.3078317" lon="14.9988133"><ele>67.0</ele><time>2026-05-02T13:02:07.977Z</time></trkpt><trkpt lat="40.30779" lon="14.9989683"><ele>67.0</ele><time>2026-05-02T13:02:08.977Z</time></trkpt><trkpt lat="40.3077533" lon="14.9991217"><ele>67.0</ele><time>2026-05-02T13:02:09.977Z</time></trkpt><trkpt lat="40.3077233" lon="14.99927"><ele>67.0</ele><time>2026-05-02T13:02:10.977Z</time></trkpt><trkpt lat="40.307705" lon="14.99942"><ele>67.0</ele><time>2026-05-02T13:02:11.978Z</time></trkpt><trkpt lat="40.30771" lon="14.9995717"><ele>66.0</ele><time>2026-05-02T13:02:12.978Z</time></trkpt><trkpt lat="40.3077417" lon="14.99972"><ele>65.0</ele><time>2026-05-02T13:02:13.977Z</time></trkpt><trkpt lat="40.3078067" lon="14.9998517"><ele>64.0</ele><time>2026-05-02T13:02:14.977Z</time></trkpt><trkpt lat="40.30789" lon="14.9999783"><ele>63.0</ele><time>2026-05-02T13:02:15.978Z</time></trkpt><trkpt lat="40.307995" lon="15.0000783"><ele>66.0</ele><time>2026-05-02T13:02:16.977Z</time></trkpt><trkpt lat="40.3081133" lon="15.0001533"><ele>69.0</ele><time>2026-05-02T13:02:17.978Z</time></trkpt><trkpt lat="40.3082483" lon="15.00021"><ele>72.0</ele><time>2026-05-02T13:02:18.978Z</time></trkpt><trkpt lat="40.308385" lon="15.000275"><ele>75.0</ele><time>2026-05-02T13:02:19.977Z</time></trkpt><trkpt lat="40.3085217" lon="15.0003383"><ele>75.0</ele><time>2026-05-02T13:02:20.978Z</time></trkpt><trkpt lat="40.30866" lon="15.0004183"><ele>75.0</ele><time>2026-05-02T13:02:21.977Z</time></trkpt><trkpt lat="40.3087917" lon="15.0005033"><ele>75.0</ele><time>2026-05-02T13:02:22.977Z</time></trkpt><trkpt lat="40.30891" lon="15.0005867"><ele>75.0</ele><time>2026-05-02T13:02:23.977Z</time></trkpt><trkpt lat="40.3090217" lon="15.0006583"><ele>74.0</ele><time>2026-05-02T13:02:24.977Z</time></trkpt><trkpt lat="40.3091333" lon="15.000725"><ele>73.0</ele><time>2026-05-02T13:02:25.978Z</time></trkpt><trkpt lat="40.3092367" lon="15.0007917"><ele>72.0</ele><time>2026-05-02T13:02:26.977Z</time></trkpt><trkpt lat="40.3093333" lon="15.000875"><ele>71.0</ele><time>2026-05-02T13:02:27.978Z</time></trkpt><trkpt lat="40.3094233" lon="15.00098"><ele>71.0</ele><time>2026-05-02T13:02:28.978Z</time></trkpt><trkpt lat="40.30951" lon="15.0010833"><ele>71.0</ele><time>2026-05-02T13:02:29.978Z</time></trkpt><trkpt lat="40.30959" lon="15.0011817"><ele>71.0</ele><time>2026-05-02T13:02:30.978Z</time></trkpt><trkpt lat="40.30966" lon="15.0012817"><ele>71.0</ele><time>2026-05-02T13:02:31.978Z</time></trkpt><trkpt lat="40.3097267" lon="15.0013817"><ele>71.0</ele><time>2026-05-02T13:02:32.977Z</time></trkpt><trkpt lat="40.309785" lon="15.0014933"><ele>71.2</ele><time>2026-05-02T13:02:33.977Z</time></trkpt><trkpt lat="40.3098433" lon="15.00161"><ele>71.39999999999999</ele><time>2026-05-02T13:02:34.977Z</time></trkpt><trkpt lat="40.3099017" lon="15.00173"><ele>71.6</ele><time>2026-05-02T13:02:35.978Z</time></trkpt><trkpt lat="40.3099633" lon="15.001845"><ele>71.8</ele><time>2026-05-02T13:02:36.978Z</time></trkpt><trkpt lat="40.3100467" lon="15.0019467"><ele>72.0</ele><time>2026-05-02T13:02:37.977Z</time></trkpt><trkpt lat="40.31014" lon="15.0020367"><ele>72.0</ele><time>2026-05-02T13:02:38.977Z</time></trkpt><trkpt lat="40.3102367" lon="15.0021233"><ele>72.0</ele><time>2026-05-02T13:02:39.978Z</time></trkpt><trkpt lat="40.3103417" lon="15.002205"><ele>72.0</ele><time>2026-05-02T13:02:40.978Z</time></trkpt><trkpt lat="40.3104517" lon="15.0022933"><ele>72.0</ele><time>2026-05-02T13:02:41.977Z</time></trkpt><trkpt lat="40.3105533" lon="15.0023783"><ele>71.5</ele><time>2026-05-02T13:02:42.977Z</time></trkpt><trkpt lat="40.31065" lon="15.0024667"><ele>71.0</ele><time>2026-05-02T13:02:43.977Z</time></trkpt><trkpt lat="40.31074" lon="15.0025517"><ele>70.5</ele><time>2026-05-02T13:02:44.977Z</time></trkpt><trkpt lat="40.31083" lon="15.002645"><ele>70.0</ele><time>2026-05-02T13:02:45.977Z</time></trkpt><trkpt lat="40.3109183" lon="15.0027233"><ele>70.0</ele><time>2026-05-02T13:02:46.977Z</time></trkpt><trkpt lat="40.31101" lon="15.00279"><ele>70.0</ele><time>2026-05-02T13:02:47.977Z</time></trkpt><trkpt lat="40.311105" lon="15.0028283"><ele>70.0</ele><time>2026-05-02T13:02:48.977Z</time></trkpt><trkpt lat="40.3111967" lon="15.0028533"><ele>70.0</ele><time>2026-05-02T13:02:49.978Z</time></trkpt><trkpt lat="40.3112883" lon="15.002875"><ele>70.0</ele><time>2026-05-02T13:02:50.978Z</time></trkpt><trkpt lat="40.3113883" lon="15.0029067"><ele>71.25</ele><time>2026-05-02T13:02:51.977Z</time></trkpt><trkpt lat="40.311495" lon="15.0029383"><ele>72.5</ele><time>2026-05-02T13:02:52.977Z</time></trkpt><trkpt lat="40.31161" lon="15.0029883"><ele>73.75</ele><time>2026-05-02T13:02:53.978Z</time></trkpt><trkpt lat="40.3117217" lon="15.0030383"><ele>75.0</ele><time>2026-05-02T13:02:54.977Z</time></trkpt><trkpt lat="40.3118383" lon="15.0030967"><ele>75.0</ele><time>2026-05-02T13:02:55.977Z</time></trkpt><trkpt lat="40.3119517" lon="15.0031467"><ele>75.0</ele><time>2026-05-02T13:02:56.977Z</time></trkpt><trkpt lat="40.31207" lon="15.0032"><ele>75.0</ele><time>2026-05-02T13:02:57.977Z</time></trkpt><trkpt lat="40.3121833" lon="15.0032533"><ele>75.0</ele><time>2026-05-02T13:02:58.977Z</time></trkpt><trkpt lat="40.3122983" lon="15.0033167"><ele>73.5</ele><time>2026-05-02T13:02:59.977Z</time></trkpt><trkpt lat="40.31241" lon="15.003385"><ele>72.0</ele><time>2026-05-02T13:03:00.977Z</time></trkpt><trkpt lat="40.3125233" lon="15.00346"><ele>70.5</ele><time>2026-05-02T13:03:01.978Z</time></trkpt><trkpt lat="40.3126417" lon="15.003525"><ele>69.0</ele><time>2026-05-02T13:03:02.978Z</time></trkpt><trkpt lat="40.3127667" lon="15.00359"><ele>69.0</ele><time>2026-05-02T13:03:03.978Z</time></trkpt><trkpt lat="40.31289" lon="15.003655"><ele>69.0</ele><time>2026-05-02T13:03:04.978Z</time></trkpt><trkpt lat="40.31302" lon="15.0037133"><ele>69.0</ele><time>2026-05-02T13:03:05.977Z</time></trkpt><trkpt lat="40.3131433" lon="15.0037733"><ele>69.0</ele><time>2026-05-02T13:03:06.977Z</time></trkpt><trkpt lat="40.3132667" lon="15.003825"><ele>71.5</ele><time>2026-05-02T13:03:07.978Z</time></trkpt><trkpt lat="40.3133883" lon="15.0038717"><ele>74.0</ele><time>2026-05-02T13:03:08.978Z</time></trkpt><trkpt lat="40.3135133" lon="15.003915"><ele>76.5</ele><time>2026-05-02T13:03:09.978Z</time></trkpt><trkpt lat="40.3136417" lon="15.0039433"><ele>79.0</ele><time>2026-05-02T13:03:10.977Z</time></trkpt><trkpt lat="40.3137817" lon="15.0039717"><ele>79.75</ele><time>2026-05-02T13:03:11.978Z</time></trkpt><trkpt lat="40.31392" lon="15.003975"><ele>80.5</ele><time>2026-05-02T13:03:12.977Z</time></trkpt><trkpt lat="40.3140517" lon="15.0039783"><ele>81.25</ele><time>2026-05-02T13:03:13.977Z</time></trkpt><trkpt lat="40.3141833" lon="15.00397"><ele>82.0</ele><time>2026-05-02T13:03:14.977Z</time></trkpt><trkpt lat="40.3143183" lon="15.0039617"><ele>82.0</ele><time>2026-05-02T13:03:15.977Z</time></trkpt><trkpt lat="40.3144483" lon="15.00396"><ele>82.0</ele><time>2026-05-02T13:03:16.977Z</time></trkpt><trkpt lat="40.3145767" lon="15.00395"><ele>82.0</ele><time>2026-05-02T13:03:17.978Z</time></trkpt><trkpt lat="40.3146983" lon="15.003935"><ele>82.0</ele><time>2026-05-02T13:03:18.978Z</time></trkpt><trkpt lat="40.3148133" lon="15.003905"><ele>79.39999999999999</ele><time>2026-05-02T13:03:19.978Z</time></trkpt><trkpt lat="40.3149233" lon="15.0038517"><ele>76.8</ele><time>2026-05-02T13:03:20.978Z</time></trkpt><trkpt lat="40.3150233" lon="15.0037817"><ele>74.2</ele><time>2026-05-02T13:03:21.977Z</time></trkpt><trkpt lat="40.3151133" lon="15.0036933"><ele>71.6</ele><time>2026-05-02T13:03:22.977Z</time></trkpt><trkpt lat="40.3151933" lon="15.0036067"><ele>69.0</ele><time>2026-05-02T13:03:23.978Z</time></trkpt><trkpt lat="40.3152733" lon="15.0035067"><ele>69.0</ele><time>2026-05-02T13:03:24.978Z</time></trkpt><trkpt lat="40.315355" lon="15.0034017"><ele>69.0</ele><time>2026-05-02T13:03:25.978Z</time></trkpt><trkpt lat="40.3154367" lon="15.0032967"><ele>69.0</ele><time>2026-05-02T13:03:26.977Z</time></trkpt><trkpt lat="40.3155233" lon="15.00319"><ele>69.0</ele><time>2026-05-02T13:03:27.977Z</time></trkpt><trkpt lat="40.31561" lon="15.003085"><ele>67.0</ele><time>2026-05-02T13:03:28.977Z</time></trkpt><trkpt lat="40.3156933" lon="15.0029833"><ele>65.0</ele><time>2026-05-02T13:03:29.977Z</time></trkpt><trkpt lat="40.315775" lon="15.0028783"><ele>63.00000000000001</ele><time>2026-05-02T13:03:30.977Z</time></trkpt><trkpt lat="40.31585" lon="15.0027733"><ele>61.0</ele><time>2026-05-02T13:03:31.977Z</time></trkpt><trkpt lat="40.3159217" lon="15.0026683"><ele>59.0</ele><time>2026-05-02T13:03:32.978Z</time></trkpt><trkpt lat="40.315975" lon="15.0025617"><ele>61.400000000000006</ele><time>2026-05-02T13:03:33.977Z</time></trkpt><trkpt lat="40.3160267" lon="15.0024533"><ele>63.800000000000004</ele><time>2026-05-02T13:03:34.978Z</time></trkpt><trkpt lat="40.3160767" lon="15.0023333"><ele>66.19999999999999</ele><time>2026-05-02T13:03:35.978Z</time></trkpt><trkpt lat="40.3161333" lon="15.0022167"><ele>68.6</ele><time>2026-05-02T13:03:36.978Z</time></trkpt><trkpt lat="40.3161917" lon="15.0021017"><ele>71.0</ele><time>2026-05-02T13:03:37.977Z</time></trkpt><trkpt lat="40.3162667" lon="15.0020033"><ele>71.0</ele><time>2026-05-02T13:03:38.977Z</time></trkpt><trkpt lat="40.3163517" lon="15.00193"><ele>71.0</ele><time>2026-05-02T13:03:39.977Z</time></trkpt><trkpt lat="40.316445" lon="15.001865"><ele>71.0</ele><time>2026-05-02T13:03:40.978Z</time></trkpt><trkpt lat="40.31654" lon="15.0018033"><ele>71.0</ele><time>2026-05-02T13:03:41.977Z</time></trkpt><trkpt lat="40.3166267" lon="15.001755"><ele>71.0</ele><time>2026-05-02T13:03:42.977Z</time></trkpt><trkpt lat="40.3167083" lon="15.0017067"><ele>70.5</ele><time>2026-05-02T13:03:43.977Z</time></trkpt><trkpt lat="40.3167933" lon="15.0016683"><ele>70.0</ele><time>2026-05-02T13:03:44.978Z</time></trkpt><trkpt lat="40.3168717" lon="15.00166"><ele>69.5</ele><time>2026-05-02T13:03:45.977Z</time></trkpt><trkpt lat="40.3169617" lon="15.00167"><ele>69.0</ele><time>2026-05-02T13:03:46.977Z</time></trkpt><trkpt lat="40.31704" lon="15.00171"><ele>68.5</ele><time>2026-05-02T13:03:47.977Z</time></trkpt><trkpt lat="40.317105" lon="15.00178"><ele>68.0</ele><time>2026-05-02T13:03:48.977Z</time></trkpt><trkpt lat="40.3171483" lon="15.00188"><ele>68.0</ele><time>2026-05-02T13:03:49.978Z</time></trkpt><trkpt lat="40.3171733" lon="15.0020033"><ele>68.0</ele><time>2026-05-02T13:03:50.977Z</time></trkpt><trkpt lat="40.3172" lon="15.00213"><ele>68.0</ele><time>2026-05-02T13:03:51.977Z</time></trkpt><trkpt lat="40.317225" lon="15.0022583"><ele>68.0</ele><time>2026-05-02T13:03:52.977Z</time></trkpt><trkpt lat="40.317255" lon="15.00239"><ele>68.0</ele><time>2026-05-02T13:03:53.978Z</time></trkpt><trkpt lat="40.3172917" lon="15.0025333"><ele>66.75</ele><time>2026-05-02T13:03:54.977Z</time></trkpt><trkpt lat="40.3173333" lon="15.0026833"><ele>65.5</ele><time>2026-05-02T13:03:55.977Z</time></trkpt><trkpt lat="40.3173717" lon="15.0028267"><ele>64.25</ele><time>2026-05-02T13:03:56.977Z</time></trkpt><trkpt lat="40.3174033" lon="15.0029667"><ele>63.0</ele><time>2026-05-02T13:03:57.977Z</time></trkpt><trkpt lat="40.3174317" lon="15.0031033"><ele>63.0</ele><time>2026-05-02T13:03:58.977Z</time></trkpt><trkpt lat="40.3174533" lon="15.00323"><ele>63.0</ele><time>2026-05-02T13:03:59.977Z</time></trkpt><trkpt lat="40.3174567" lon="15.0033567"><ele>63.0</ele><time>2026-05-02T13:04:00.978Z</time></trkpt><trkpt lat="40.3174367" lon="15.0034817"><ele>63.0</ele><time>2026-05-02T13:04:01.977Z</time></trkpt><trkpt lat="40.3174033" lon="15.0036183"><ele>63.0</ele><time>2026-05-02T13:04:02.977Z</time></trkpt><trkpt lat="40.3173717" lon="15.0037567"><ele>62.8</ele><time>2026-05-02T13:04:03.978Z</time></trkpt><trkpt lat="40.3173417" lon="15.00389"><ele>62.599999999999994</ele><time>2026-05-02T13:04:04.977Z</time></trkpt><trkpt lat="40.3173" lon="15.004015"><ele>62.400000000000006</ele><time>2026-05-02T13:04:05.978Z</time></trkpt><trkpt lat="40.3172517" lon="15.00414"><ele>62.2</ele><time>2026-05-02T13:04:06.977Z</time></trkpt><trkpt lat="40.3172" lon="15.0042633"><ele>62.0</ele><time>2026-05-02T13:04:07.978Z</time></trkpt><trkpt lat="40.3171583" lon="15.0043933"><ele>59.6</ele><time>2026-05-02T13:04:08.977Z</time></trkpt><trkpt lat="40.3171333" lon="15.004525"><ele>57.2</ele><time>2026-05-02T13:04:09.977Z</time></trkpt><trkpt lat="40.3171217" lon="15.0046567"><ele>54.8</ele><time>2026-05-02T13:04:10.977Z</time></trkpt><trkpt lat="40.3171183" lon="15.0047917"><ele>52.4</ele><time>2026-05-02T13:04:11.977Z</time></trkpt><trkpt lat="40.3171117" lon="15.0049283"><ele>50.0</ele><time>2026-05-02T13:04:12.978Z</time></trkpt><trkpt lat="40.3171083" lon="15.0050633"><ele>49.8</ele><time>2026-05-02T13:04:13.977Z</time></trkpt><trkpt lat="40.31711" lon="15.0052017"><ele>49.6</ele><time>2026-05-02T13:04:14.978Z</time></trkpt><trkpt lat="40.3171117" lon="15.0053433"><ele>49.400000000000006</ele><time>2026-05-02T13:04:15.977Z</time></trkpt><trkpt lat="40.3171117" lon="15.0054867"><ele>49.2</ele><time>2026-05-02T13:04:16.978Z</time></trkpt><trkpt lat="40.3171117" lon="15.00562"><ele>49.0</ele><time>2026-05-02T13:04:17.977Z</time></trkpt><trkpt lat="40.31712" lon="15.00576"><ele>48.800000000000004</ele><time>2026-05-02T13:04:18.977Z</time></trkpt><trkpt lat="40.3171367" lon="15.00589"><ele>48.6</ele><time>2026-05-02T13:04:19.978Z</time></trkpt><trkpt lat="40.31716" lon="15.0060283"><ele>48.4</ele><time>2026-05-02T13:04:20.977Z</time></trkpt><trkpt lat="40.3171983" lon="15.0061617"><ele>48.2</ele><time>2026-05-02T13:04:21.977Z</time></trkpt><trkpt lat="40.3172433" lon="15.0062933"><ele>48.0</ele><time>2026-05-02T13:04:22.978Z</time></trkpt><trkpt lat="40.31729" lon="15.00643"><ele>50.5</ele><time>2026-05-02T13:04:23.978Z</time></trkpt><trkpt lat="40.317345" lon="15.0065617"><ele>53.0</ele><time>2026-05-02T13:04:24.978Z</time></trkpt><trkpt lat="40.31741" lon="15.00669"><ele>55.5</ele><time>2026-05-02T13:04:25.978Z</time></trkpt><trkpt lat="40.3174767" lon="15.0068117"><ele>58.0</ele><time>2026-05-02T13:04:26.978Z</time></trkpt><trkpt lat="40.3175567" lon="15.0069217"><ele>58.0</ele><time>2026-05-02T13:04:27.977Z</time></trkpt><trkpt lat="40.3176483" lon="15.0070167"><ele>58.0</ele><time>2026-05-02T13:04:28.978Z</time></trkpt><trkpt lat="40.3177483" lon="15.0070967"><ele>58.0</ele><time>2026-05-02T13:04:29.978Z</time></trkpt><trkpt lat="40.31786" lon="15.0071617"><ele>58.0</ele><time>2026-05-02T13:04:30.977Z</time></trkpt><trkpt lat="40.3179717" lon="15.0072267"><ele>58.0</ele><time>2026-05-02T13:04:31.977Z</time></trkpt><trkpt lat="40.318075" lon="15.0072967"><ele>58.0</ele><time>2026-05-02T13:04:32.978Z</time></trkpt><trkpt lat="40.3181783" lon="15.0073717"><ele>58.0</ele><time>2026-05-02T13:04:33.977Z</time></trkpt><trkpt lat="40.3182717" lon="15.007465"><ele>58.0</ele><time>2026-05-02T13:04:34.977Z</time></trkpt><trkpt lat="40.3183483" lon="15.00758"><ele>58.0</ele><time>2026-05-02T13:04:35.977Z</time></trkpt><trkpt lat="40.31842" lon="15.0076967"><ele>58.0</ele><time>2026-05-02T13:04:36.977Z</time></trkpt><trkpt lat="40.3184983" lon="15.0078117"><ele>58.0</ele><time>2026-05-02T13:04:37.978Z</time></trkpt><trkpt lat="40.31859" lon="15.0079133"><ele>58.0</ele><time>2026-05-02T13:04:38.977Z</time></trkpt><trkpt lat="40.3186883" lon="15.008005"><ele>58.0</ele><time>2026-05-02T13:04:39.977Z</time></trkpt><trkpt lat="40.3187983" lon="15.008095"><ele>58.0</ele><time>2026-05-02T13:04:40.977Z</time></trkpt><trkpt lat="40.3189083" lon="15.0081717"><ele>58.0</ele><time>2026-05-02T13:04:41.977Z</time></trkpt><trkpt lat="40.3190267" lon="15.0082533"><ele>58.0</ele><time>2026-05-02T13:04:42.977Z</time></trkpt><trkpt lat="40.31915" lon="15.0083133"><ele>58.0</ele><time>2026-05-02T13:04:43.977Z</time></trkpt><trkpt lat="40.3192617" lon="15.00836"><ele>58.0</ele><time>2026-05-02T13:04:44.978Z</time></trkpt><trkpt lat="40.3193717" lon="15.0084133"><ele>58.0</ele><time>2026-05-02T13:04:45.977Z</time></trkpt><trkpt lat="40.31948" lon="15.0084817"><ele>58.0</ele><time>2026-05-02T13:04:46.977Z</time></trkpt><trkpt lat="40.3195767" lon="15.0085783"><ele>58.0</ele><time>2026-05-02T13:04:47.977Z</time></trkpt><trkpt lat="40.3196717" lon="15.0086817"><ele>58.0</ele><time>2026-05-02T13:04:48.978Z</time></trkpt><trkpt lat="40.31978" lon="15.0087817"><ele>58.0</ele><time>2026-05-02T13:04:49.977Z</time></trkpt><trkpt lat="40.3198917" lon="15.0088667"><ele>58.0</ele><time>2026-05-02T13:04:50.977Z</time></trkpt><trkpt lat="40.32001" lon="15.0089433"><ele>58.0</ele><time>2026-05-02T13:04:51.978Z</time></trkpt><trkpt lat="40.3201283" lon="15.009005"><ele>58.0</ele><time>2026-05-02T13:04:52.978Z</time></trkpt><trkpt lat="40.3202433" lon="15.0090517"><ele>58.0</ele><time>2026-05-02T13:04:53.977Z</time></trkpt><trkpt lat="40.3203567" lon="15.0091"><ele>58.0</ele><time>2026-05-02T13:04:54.977Z</time></trkpt><trkpt lat="40.3204567" lon="15.0091683"><ele>58.0</ele><time>2026-05-02T13:04:55.978Z</time></trkpt><trkpt lat="40.32055" lon="15.00925"><ele>58.0</ele><time>2026-05-02T13:04:56.977Z</time></trkpt><trkpt lat="40.3206383" lon="15.0093617"><ele>58.0</ele><time>2026-05-02T13:04:57.977Z</time></trkpt><trkpt lat="40.3207167" lon="15.0094883"><ele>58.0</ele><time>2026-05-02T13:04:58.977Z</time></trkpt><trkpt lat="40.32079" lon="15.0096217"><ele>58.25</ele><time>2026-05-02T13:04:59.978Z</time></trkpt><trkpt lat="40.320865" lon="15.0097717"><ele>58.5</ele><time>2026-05-02T13:05:00.977Z</time></trkpt><trkpt lat="40.32093" lon="15.0099217"><ele>58.75</ele><time>2026-05-02T13:05:01.978Z</time></trkpt><trkpt lat="40.321" lon="15.0100817"><ele>59.0</ele><time>2026-05-02T13:05:02.977Z</time></trkpt><trkpt lat="40.3210467" lon="15.01025"><ele>59.0</ele><time>2026-05-02T13:05:03.977Z</time></trkpt><trkpt lat="40.321075" lon="15.0104183"><ele>59.0</ele><time>2026-05-02T13:05:04.978Z</time></trkpt><trkpt lat="40.3210883" lon="15.01059"><ele>59.0</ele><time>2026-05-02T13:05:05.977Z</time></trkpt><trkpt lat="40.3210917" lon="15.0107683"><ele>59.0</ele><time>2026-05-02T13:05:06.977Z</time></trkpt><trkpt lat="40.321095" lon="15.0109433"><ele>57.5</ele><time>2026-05-02T13:05:07.978Z</time></trkpt><trkpt lat="40.3210917" lon="15.0111067"><ele>56.0</ele><time>2026-05-02T13:05:08.978Z</time></trkpt><trkpt lat="40.3210967" lon="15.01127"><ele>54.5</ele><time>2026-05-02T13:05:09.978Z</time></trkpt><trkpt lat="40.3211017" lon="15.0114167"><ele>53.0</ele><time>2026-05-02T13:05:10.977Z</time></trkpt><trkpt lat="40.3211067" lon="15.011555"><ele>52.2</ele><time>2026-05-02T13:05:11.977Z</time></trkpt><trkpt lat="40.3211217" lon="15.011685"><ele>51.4</ele><time>2026-05-02T13:05:12.977Z</time></trkpt><trkpt lat="40.3211467" lon="15.0118117"><ele>50.6</ele><time>2026-05-02T13:05:13.977Z</time></trkpt><trkpt lat="40.3211867" lon="15.0119317"><ele>49.800000000000004</ele><time>2026-05-02T13:05:14.977Z</time></trkpt><trkpt lat="40.3212317" lon="15.01204"><ele>49.0</ele><time>2026-05-02T13:05:15.978Z</time></trkpt><trkpt lat="40.321295" lon="15.0121267"><ele>49.0</ele><time>2026-05-02T13:05:16.978Z</time></trkpt><trkpt lat="40.3213783" lon="15.0122033"><ele>49.0</ele><time>2026-05-02T13:05:17.977Z</time></trkpt><trkpt lat="40.3214717" lon="15.01225"><ele>49.0</ele><time>2026-05-02T13:05:18.977Z</time></trkpt><trkpt lat="40.3215717" lon="15.0122717"><ele>49.0</ele><time>2026-05-02T13:05:19.978Z</time></trkpt><trkpt lat="40.32167" lon="15.0122717"><ele>49.0</ele><time>2026-05-02T13:05:20.978Z</time></trkpt><trkpt lat="40.3217667" lon="15.0122417"><ele>51.400000000000006</ele><time>2026-05-02T13:05:21.978Z</time></trkpt><trkpt lat="40.321865" lon="15.0121833"><ele>53.8</ele><time>2026-05-02T13:05:22.977Z</time></trkpt><trkpt lat="40.3219483" lon="15.0120983"><ele>56.199999999999996</ele><time>2026-05-02T13:05:23.978Z</time></trkpt><trkpt lat="40.3220367" lon="15.01201"><ele>58.599999999999994</ele><time>2026-05-02T13:05:24.977Z</time></trkpt><trkpt lat="40.3221267" lon="15.011925"><ele>61.0</ele><time>2026-05-02T13:05:25.977Z</time></trkpt><trkpt lat="40.3222317" lon="15.0118433"><ele>61.0</ele><time>2026-05-02T13:05:26.977Z</time></trkpt><trkpt lat="40.3223467" lon="15.011785"><ele>61.0</ele><time>2026-05-02T13:05:27.977Z</time></trkpt><trkpt lat="40.3224667" lon="15.0117533"><ele>61.0</ele><time>2026-05-02T13:05:28.977Z</time></trkpt><trkpt lat="40.322585" lon="15.0117567"><ele>61.0</ele><time>2026-05-02T13:05:29.977Z</time></trkpt><trkpt lat="40.3226883" lon="15.0118067"><ele>61.0</ele><time>2026-05-02T13:05:30.977Z</time></trkpt><trkpt lat="40.32279" lon="15.011875"><ele>61.0</ele><time>2026-05-02T13:05:31.977Z</time></trkpt><trkpt lat="40.322905" lon="15.011935"><ele>61.0</ele><time>2026-05-02T13:05:32.977Z</time></trkpt><trkpt lat="40.3230217" lon="15.0119633"><ele>61.0</ele><time>2026-05-02T13:05:33.978Z</time></trkpt><trkpt lat="40.3231383" lon="15.0119733"><ele>62.4</ele><time>2026-05-02T13:05:34.977Z</time></trkpt><trkpt lat="40.323245" lon="15.0119817"><ele>63.8</ele><time>2026-05-02T13:05:35.978Z</time></trkpt><trkpt lat="40.323345" lon="15.0119783"><ele>65.19999999999999</ele><time>2026-05-02T13:05:36.978Z</time></trkpt><trkpt lat="40.3234367" lon="15.0119767"><ele>66.6</ele><time>2026-05-02T13:05:37.978Z</time></trkpt><trkpt lat="40.32353" lon="15.0119733"><ele>68.0</ele><time>2026-05-02T13:05:38.977Z</time></trkpt><trkpt lat="40.32362" lon="15.0119683"><ele>68.0</ele><time>2026-05-02T13:05:39.977Z</time></trkpt><trkpt lat="40.3237067" lon="15.0119633"><ele>68.0</ele><time>2026-05-02T13:05:40.978Z</time></trkpt><trkpt lat="40.3237933" lon="15.0119567"><ele>68.0</ele><time>2026-05-02T13:05:41.978Z</time></trkpt><trkpt lat="40.32388" lon="15.0119533"><ele>68.0</ele><time>2026-05-02T13:05:42.978Z</time></trkpt><trkpt lat="40.3239733" lon="15.0119517"><ele>68.0</ele><time>2026-05-02T13:05:43.978Z</time></trkpt><trkpt lat="40.3240717" lon="15.0119617"><ele>66.8</ele><time>2026-05-02T13:05:44.978Z</time></trkpt><trkpt lat="40.32417" lon="15.0119867"><ele>65.6</ele><time>2026-05-02T13:05:45.978Z</time></trkpt><trkpt lat="40.32427" lon="15.01203"><ele>64.4</ele><time>2026-05-02T13:05:46.978Z</time></trkpt><trkpt lat="40.32436" lon="15.0120933"><ele>63.2</ele><time>2026-05-02T13:05:47.977Z</time></trkpt><trkpt lat="40.3244367" lon="15.012185"><ele>62.0</ele><time>2026-05-02T13:05:48.977Z</time></trkpt><trkpt lat="40.324495" lon="15.0122933"><ele>62.0</ele><time>2026-05-02T13:05:49.977Z</time></trkpt><trkpt lat="40.3245367" lon="15.0124267"><ele>62.0</ele><time>2026-05-02T13:05:50.977Z</time></trkpt><trkpt lat="40.3245733" lon="15.01257"><ele>62.0</ele><time>2026-05-02T13:05:51.977Z</time></trkpt><trkpt lat="40.32462" lon="15.0127017"><ele>62.0</ele><time>2026-05-02T13:05:52.978Z</time></trkpt><trkpt lat="40.32469" lon="15.0127983"><ele>62.0</ele><time>2026-05-02T13:05:53.977Z</time></trkpt><trkpt lat="40.3247783" lon="15.0128533"><ele>57.75</ele><time>2026-05-02T13:05:54.977Z</time></trkpt><trkpt lat="40.3248783" lon="15.0128383"><ele>53.5</ele><time>2026-05-02T13:05:55.977Z</time></trkpt><trkpt lat="40.324975" lon="15.01277"><ele>49.25</ele><time>2026-05-02T13:05:56.977Z</time></trkpt><trkpt lat="40.3250617" lon="15.012655"><ele>45.0</ele><time>2026-05-02T13:05:57.978Z</time></trkpt><trkpt lat="40.3251417" lon="15.0125267"><ele>48.0</ele><time>2026-05-02T13:05:58.977Z</time></trkpt><trkpt lat="40.32522" lon="15.0124017"><ele>51.0</ele><time>2026-05-02T13:05:59.978Z</time></trkpt><trkpt lat="40.325295" lon="15.0122933"><ele>54.0</ele><time>2026-05-02T13:06:00.978Z</time></trkpt><trkpt lat="40.3253633" lon="15.01219"><ele>57.0</ele><time>2026-05-02T13:06:01.977Z</time></trkpt><trkpt lat="40.3254333" lon="15.0121117"><ele>60.0</ele><time>2026-05-02T13:06:02.977Z</time></trkpt><trkpt lat="40.3255033" lon="15.01204"><ele>57.166666666666664</ele><time>2026-05-02T13:06:03.978Z</time></trkpt><trkpt lat="40.32558" lon="15.01197"><ele>54.333333333333336</ele><time>2026-05-02T13:06:04.978Z</time></trkpt><trkpt lat="40.325655" lon="15.01191"><ele>51.5</ele><time>2026-05-02T13:06:05.977Z</time></trkpt><trkpt lat="40.32574" lon="15.0118767"><ele>48.66666666666667</ele><time>2026-05-02T13:06:06.977Z</time></trkpt><trkpt lat="40.32583" lon="15.0118617"><ele>45.833333333333336</ele><time>2026-05-02T13:06:07.977Z</time></trkpt><trkpt lat="40.3259183" lon="15.0118683"><ele>43.0</ele><time>2026-05-02T13:06:08.978Z</time></trkpt><trkpt lat="40.326015" lon="15.01188"><ele>43.0</ele><time>2026-05-02T13:06:09.978Z</time></trkpt><trkpt lat="40.3261183" lon="15.0118917"><ele>43.0</ele><time>2026-05-02T13:06:10.977Z</time></trkpt><trkpt lat="40.32623" lon="15.0119067"><ele>43.0</ele><time>2026-05-02T13:06:11.978Z</time></trkpt><trkpt lat="40.3263483" lon="15.0119183"><ele>43.0</ele><time>2026-05-02T13:06:12.978Z</time></trkpt><trkpt lat="40.32647" lon="15.01194"><ele>42.25</ele><time>2026-05-02T13:06:13.977Z</time></trkpt><trkpt lat="40.3265933" lon="15.011945"><ele>41.5</ele><time>2026-05-02T13:06:14.978Z</time></trkpt><trkpt lat="40.3267133" lon="15.0119317"><ele>40.75</ele><time>2026-05-02T13:06:15.978Z</time></trkpt><trkpt lat="40.3268233" lon="15.0119033"><ele>40.0</ele><time>2026-05-02T13:06:16.977Z</time></trkpt><trkpt lat="40.326925" lon="15.0118433"><ele>40.0</ele><time>2026-05-02T13:06:17.977Z</time></trkpt><trkpt lat="40.32701" lon="15.0117633"><ele>40.0</ele><time>2026-05-02T13:06:18.978Z</time></trkpt><trkpt lat="40.32709" lon="15.0116767"><ele>40.0</ele><time>2026-05-02T13:06:19.978Z</time></trkpt><trkpt lat="40.32718" lon="15.0115933"><ele>40.0</ele><time>2026-05-02T13:06:20.977Z</time></trkpt><trkpt lat="40.3272817" lon="15.0115267"><ele>40.0</ele><time>2026-05-02T13:06:21.977Z</time></trkpt><trkpt lat="40.3273917" lon="15.0114767"><ele>42.5</ele><time>2026-05-02T13:06:22.978Z</time></trkpt><trkpt lat="40.3275117" lon="15.0114467"><ele>45.0</ele><time>2026-05-02T13:06:23.977Z</time></trkpt><trkpt lat="40.32764" lon="15.011435"><ele>47.5</ele><time>2026-05-02T13:06:24.977Z</time></trkpt><trkpt lat="40.3277767" lon="15.0114283"><ele>50.0</ele><time>2026-05-02T13:06:25.978Z</time></trkpt><trkpt lat="40.3279117" lon="15.0114267"><ele>50.0</ele><time>2026-05-02T13:06:26.978Z</time></trkpt><trkpt lat="40.3280467" lon="15.0114183"><ele>50.0</ele><time>2026-05-02T13:06:27.978Z</time></trkpt><trkpt lat="40.3281733" lon="15.0113933"><ele>50.0</ele><time>2026-05-02T13:06:28.978Z</time></trkpt><trkpt lat="40.3282983" lon="15.0113633"><ele>50.0</ele><time>2026-05-02T13:06:29.977Z</time></trkpt><trkpt lat="40.3284233" lon="15.0113333"><ele>51.25</ele><time>2026-05-02T13:06:30.978Z</time></trkpt><trkpt lat="40.32855" lon="15.01132"><ele>52.5</ele><time>2026-05-02T13:06:31.977Z</time></trkpt><trkpt lat="40.328675" lon="15.0113217"><ele>53.75</ele><time>2026-05-02T13:06:32.977Z</time></trkpt><trkpt lat="40.3287917" lon="15.0113283"><ele>55.0</ele><time>2026-05-02T13:06:33.978Z</time></trkpt><trkpt lat="40.3288967" lon="15.01134"><ele>53.0</ele><time>2026-05-02T13:06:34.977Z</time></trkpt><trkpt lat="40.3289967" lon="15.01136"><ele>51.0</ele><time>2026-05-02T13:06:35.977Z</time></trkpt><trkpt lat="40.329095" lon="15.0113733"><ele>49.0</ele><time>2026-05-02T13:06:36.978Z</time></trkpt><trkpt lat="40.32919" lon="15.011375"><ele>47.0</ele><time>2026-05-02T13:06:37.977Z</time></trkpt><trkpt lat="40.3292833" lon="15.0113583"><ele>45.0</ele><time>2026-05-02T13:06:38.978Z</time></trkpt><trkpt lat="40.3293733" lon="15.011295"><ele>45.0</ele><time>2026-05-02T13:06:39.977Z</time></trkpt><trkpt lat="40.3294467" lon="15.0112083"><ele>45.0</ele><time>2026-05-02T13:06:40.978Z</time></trkpt><trkpt lat="40.3295083" lon="15.0111017"><ele>45.0</ele><time>2026-05-02T13:06:41.978Z</time></trkpt><trkpt lat="40.32955" lon="15.01098"><ele>45.0</ele><time>2026-05-02T13:06:42.977Z</time></trkpt><trkpt lat="40.32957" lon="15.01083"><ele>45.0</ele><time>2026-05-02T13:06:43.977Z</time></trkpt><trkpt lat="40.3295967" lon="15.0106867"><ele>46.0</ele><time>2026-05-02T13:06:44.977Z</time></trkpt><trkpt lat="40.3296317" lon="15.0105467"><ele>47.0</ele><time>2026-05-02T13:06:45.977Z</time></trkpt><trkpt lat="40.32969" lon="15.010415"><ele>48.0</ele><time>2026-05-02T13:06:46.978Z</time></trkpt><trkpt lat="40.3297617" lon="15.0102783"><ele>49.0</ele><time>2026-05-02T13:06:47.978Z</time></trkpt><trkpt lat="40.32984" lon="15.0101517"><ele>50.0</ele><time>2026-05-02T13:06:48.977Z</time></trkpt><trkpt lat="40.3299217" lon="15.0100317"><ele>51.0</ele><time>2026-05-02T13:06:49.977Z</time></trkpt><trkpt lat="40.3300167" lon="15.0099083"><ele>52.0</ele><time>2026-05-02T13:06:50.977Z</time></trkpt><trkpt lat="40.3301217" lon="15.0097933"><ele>53.0</ele><time>2026-05-02T13:06:51.977Z</time></trkpt><trkpt lat="40.3302267" lon="15.0096983"><ele>53.0</ele><time>2026-05-02T13:06:52.977Z</time></trkpt><trkpt lat="40.330345" lon="15.009615"><ele>53.0</ele><time>2026-05-02T13:06:53.977Z</time></trkpt><trkpt lat="40.3304633" lon="15.0095417"><ele>53.0</ele><time>2026-05-02T13:06:54.977Z</time></trkpt><trkpt lat="40.3305883" lon="15.0094733"><ele>53.0</ele><time>2026-05-02T13:06:55.978Z</time></trkpt><trkpt lat="40.3307133" lon="15.009395"><ele>54.75</ele><time>2026-05-02T13:06:56.977Z</time></trkpt><trkpt lat="40.3308317" lon="15.0093167"><ele>56.5</ele><time>2026-05-02T13:06:57.977Z</time></trkpt><trkpt lat="40.3309483" lon="15.0092367"><ele>58.25</ele><time>2026-05-02T13:06:58.978Z</time></trkpt><trkpt lat="40.331065" lon="15.009145"><ele>60.0</ele><time>2026-05-02T13:06:59.978Z</time></trkpt><trkpt lat="40.331175" lon="15.009045"><ele>60.0</ele><time>2026-05-02T13:07:00.977Z</time></trkpt><trkpt lat="40.3312733" lon="15.0089383"><ele>60.0</ele><time>2026-05-02T13:07:01.977Z</time></trkpt><trkpt lat="40.3313717" lon="15.008835"><ele>60.0</ele><time>2026-05-02T13:07:02.977Z</time></trkpt><trkpt lat="40.331475" lon="15.0087283"><ele>60.0</ele><time>2026-05-02T13:07:03.977Z</time></trkpt><trkpt lat="40.3315733" lon="15.0086483"><ele>54.5</ele><time>2026-05-02T13:07:04.977Z</time></trkpt><trkpt lat="40.3316883" lon="15.00858"><ele>49.0</ele><time>2026-05-02T13:07:05.977Z</time></trkpt><trkpt lat="40.3318" lon="15.0085283"><ele>43.5</ele><time>2026-05-02T13:07:06.978Z</time></trkpt><trkpt lat="40.3319083" lon="15.0084867"><ele>38.0</ele><time>2026-05-02T13:07:07.978Z</time></trkpt><trkpt lat="40.3320217" lon="15.0084433"><ele>38.0</ele><time>2026-05-02T13:07:08.977Z</time></trkpt><trkpt lat="40.3321333" lon="15.0083783"><ele>38.0</ele><time>2026-05-02T13:07:09.977Z</time></trkpt><trkpt lat="40.3322367" lon="15.0083"><ele>38.0</ele><time>2026-05-02T13:07:10.977Z</time></trkpt><trkpt lat="40.3323233" lon="15.0081917"><ele>38.0</ele><time>2026-05-02T13:07:11.978Z</time></trkpt><trkpt lat="40.3323933" lon="15.00807"><ele>39.0</ele><time>2026-05-02T13:07:12.977Z</time></trkpt><trkpt lat="40.332465" lon="15.0079317"><ele>40.0</ele><time>2026-05-02T13:07:13.977Z</time></trkpt><trkpt lat="40.33254" lon="15.0077867"><ele>41.0</ele><time>2026-05-02T13:07:14.977Z</time></trkpt><trkpt lat="40.3326083" lon="15.0076383"><ele>42.0</ele><time>2026-05-02T13:07:15.977Z</time></trkpt><trkpt lat="40.3326783" lon="15.0075033"><ele>46.5</ele><time>2026-05-02T13:07:16.977Z</time></trkpt><trkpt lat="40.33276" lon="15.0073717"><ele>51.0</ele><time>2026-05-02T13:07:17.977Z</time></trkpt><trkpt lat="40.332845" lon="15.0072583"><ele>55.5</ele><time>2026-05-02T13:07:18.977Z</time></trkpt><trkpt lat="40.33294" lon="15.007145"><ele>60.0</ele><time>2026-05-02T13:07:19.977Z</time></trkpt><trkpt lat="40.3330417" lon="15.007025"><ele>55.75</ele><time>2026-05-02T13:07:20.978Z</time></trkpt><trkpt lat="40.3331367" lon="15.0069083"><ele>51.5</ele><time>2026-05-02T13:07:21.978Z</time></trkpt><trkpt lat="40.33323" lon="15.006785"><ele>47.25</ele><time>2026-05-02T13:07:22.977Z</time></trkpt><trkpt lat="40.3333317" lon="15.0066683"><ele>43.0</ele><time>2026-05-02T13:07:23.977Z</time></trkpt><trkpt lat="40.33343" lon="15.006545"><ele>43.0</ele><time>2026-05-02T13:07:24.978Z</time></trkpt><trkpt lat="40.3335283" lon="15.0064117"><ele>43.0</ele><time>2026-05-02T13:07:25.977Z</time></trkpt><trkpt lat="40.33362" lon="15.006265"><ele>43.0</ele><time>2026-05-02T13:07:26.977Z</time></trkpt><trkpt lat="40.3337067" lon="15.0061167"><ele>43.0</ele><time>2026-05-02T13:07:27.978Z</time></trkpt><trkpt lat="40.3337833" lon="15.0059633"><ele>44.5</ele><time>2026-05-02T13:07:28.977Z</time></trkpt><trkpt lat="40.3338633" lon="15.0058"><ele>46.0</ele><time>2026-05-02T13:07:29.977Z</time></trkpt><trkpt lat="40.333945" lon="15.00564"><ele>47.5</ele><time>2026-05-02T13:07:30.977Z</time></trkpt><trkpt lat="40.334015" lon="15.00548"><ele>49.0</ele><time>2026-05-02T13:07:31.978Z</time></trkpt><trkpt lat="40.3340833" lon="15.0053183"><ele>46.25</ele><time>2026-05-02T13:07:32.978Z</time></trkpt><trkpt lat="40.3341433" lon="15.0051567"><ele>43.5</ele><time>2026-05-02T13:07:33.977Z</time></trkpt><trkpt lat="40.3342" lon="15.005005"><ele>40.75</ele><time>2026-05-02T13:07:34.977Z</time></trkpt><trkpt lat="40.334265" lon="15.0048583"><ele>38.0</ele><time>2026-05-02T13:07:35.977Z</time></trkpt><trkpt lat="40.3343333" lon="15.0047133"><ele>38.0</ele><time>2026-05-02T13:07:36.978Z</time></trkpt><trkpt lat="40.3344183" lon="15.0045833"><ele>38.0</ele><time>2026-05-02T13:07:37.977Z</time></trkpt><trkpt lat="40.334505" lon="15.004475"><ele>38.0</ele><time>2026-05-02T13:07:38.978Z</time></trkpt><trkpt lat="40.334605" lon="15.0043867"><ele>38.0</ele><time>2026-05-02T13:07:39.977Z</time></trkpt><trkpt lat="40.3347183" lon="15.0043017"><ele>39.0</ele><time>2026-05-02T13:07:40.977Z</time></trkpt><trkpt lat="40.3348417" lon="15.0042233"><ele>40.0</ele><time>2026-05-02T13:07:41.977Z</time></trkpt><trkpt lat="40.33497" lon="15.0041517"><ele>41.0</ele><time>2026-05-02T13:07:42.977Z</time></trkpt><trkpt lat="40.3351" lon="15.00408"><ele>42.0</ele><time>2026-05-02T13:07:43.978Z</time></trkpt><trkpt lat="40.3352317" lon="15.0040033"><ele>42.0</ele><time>2026-05-02T13:07:44.978Z</time></trkpt><trkpt lat="40.335355" lon="15.00393"><ele>42.0</ele><time>2026-05-02T13:07:45.977Z</time></trkpt><trkpt lat="40.3354817" lon="15.0038483"><ele>42.0</ele><time>2026-05-02T13:07:46.977Z</time></trkpt><trkpt lat="40.3356083" lon="15.0037717"><ele>42.0</ele><time>2026-05-02T13:07:47.977Z</time></trkpt><trkpt lat="40.3357383" lon="15.0036883"><ele>38.25</ele><time>2026-05-02T13:07:48.977Z</time></trkpt><trkpt lat="40.335865" lon="15.0036017"><ele>34.5</ele><time>2026-05-02T13:07:49.977Z</time></trkpt><trkpt lat="40.3359833" lon="15.0035117"><ele>30.75</ele><time>2026-05-02T13:07:50.977Z</time></trkpt><trkpt lat="40.3360883" lon="15.0034217"><ele>27.0</ele><time>2026-05-02T13:07:51.977Z</time></trkpt><trkpt lat="40.33619" lon="15.0033317"><ele>26.8</ele><time>2026-05-02T13:07:52.977Z</time></trkpt><trkpt lat="40.3362783" lon="15.0032483"><ele>26.6</ele><time>2026-05-02T13:07:53.977Z</time></trkpt><trkpt lat="40.3363617" lon="15.0031617"><ele>26.400000000000002</ele><time>2026-05-02T13:07:54.978Z</time></trkpt><trkpt lat="40.3364383" lon="15.003075"><ele>26.200000000000003</ele><time>2026-05-02T13:07:55.977Z</time></trkpt><trkpt lat="40.3365117" lon="15.0029967"><ele>26.0</ele><time>2026-05-02T13:07:56.977Z</time></trkpt><trkpt lat="40.33658" lon="15.0029233"><ele>25.999999999999996</ele><time>2026-05-02T13:07:57.977Z</time></trkpt><trkpt lat="40.336645" lon="15.0028633"><ele>26.0</ele><time>2026-05-02T13:07:58.977Z</time></trkpt><trkpt lat="40.3367067" lon="15.0028033"><ele>26.0</ele><time>2026-05-02T13:07:59.978Z</time></trkpt><trkpt lat="40.3367667" lon="15.002755"><ele>26.0</ele><time>2026-05-02T13:08:00.977Z</time></trkpt><trkpt lat="40.3368817" lon="15.0027083"><ele>25.999999999999996</ele><time>2026-05-02T13:08:02.977Z</time></trkpt><trkpt lat="40.3369733" lon="15.0027067"><ele>26.0</ele><time>2026-05-02T13:08:04.977Z</time></trkpt><trkpt lat="40.3370433" lon="15.002685"><ele>26.0</ele><time>2026-05-02T13:08:06.977Z</time></trkpt><trkpt lat="40.337105" lon="15.0025883"><ele>26.0</ele><time>2026-05-02T13:08:08.977Z</time></trkpt><trkpt lat="40.3371767" lon="15.0024517"><ele>26.0</ele><time>2026-05-02T13:08:10.977Z</time></trkpt><trkpt lat="40.33723" lon="15.002385"><ele>26.0</ele><time>2026-05-02T13:08:11.978Z</time></trkpt><trkpt lat="40.3372933" lon="15.0023333"><ele>26.0</ele><time>2026-05-02T13:08:12.977Z</time></trkpt><trkpt lat="40.33737" lon="15.0022883"><ele>26.4</ele><time>2026-05-02T13:08:13.977Z</time></trkpt><trkpt lat="40.3374533" lon="15.0022483"><ele>26.8</ele><time>2026-05-02T13:08:14.978Z</time></trkpt><trkpt lat="40.337545" lon="15.0022017"><ele>27.199999999999996</ele><time>2026-05-02T13:08:15.977Z</time></trkpt><trkpt lat="40.3376417" lon="15.00215"><ele>27.599999999999998</ele><time>2026-05-02T13:08:16.977Z</time></trkpt><trkpt lat="40.337735" lon="15.0020967"><ele>28.0</ele><time>2026-05-02T13:08:17.977Z</time></trkpt><trkpt lat="40.3378283" lon="15.0020467"><ele>28.0</ele><time>2026-05-02T13:08:18.977Z</time></trkpt><trkpt lat="40.33793" lon="15.0019967"><ele>27.999999999999996</ele><time>2026-05-02T13:08:19.977Z</time></trkpt><trkpt lat="40.3380317" lon="15.00196"><ele>27.999999999999996</ele><time>2026-05-02T13:08:20.977Z</time></trkpt><trkpt lat="40.3381383" lon="15.00193"><ele>28.0</ele><time>2026-05-02T13:08:21.977Z</time></trkpt><trkpt lat="40.33824" lon="15.0019167"><ele>28.0</ele><time>2026-05-02T13:08:22.978Z</time></trkpt><trkpt lat="40.3383433" lon="15.001905"><ele>27.4</ele><time>2026-05-02T13:08:23.977Z</time></trkpt><trkpt lat="40.3384433" lon="15.0019033"><ele>26.799999999999997</ele><time>2026-05-02T13:08:24.978Z</time></trkpt><trkpt lat="40.3385533" lon="15.0019083"><ele>26.2</ele><time>2026-05-02T13:08:25.978Z</time></trkpt><trkpt lat="40.3386567" lon="15.0019117"><ele>25.6</ele><time>2026-05-02T13:08:26.977Z</time></trkpt><trkpt lat="40.3387583" lon="15.0019083"><ele>25.0</ele><time>2026-05-02T13:08:27.978Z</time></trkpt><trkpt lat="40.3388567" lon="15.0018933"><ele>24.0</ele><time>2026-05-02T13:08:28.977Z</time></trkpt><trkpt lat="40.33895" lon="15.0018533"><ele>23.0</ele><time>2026-05-02T13:08:29.978Z</time></trkpt><trkpt lat="40.339045" lon="15.0017883"><ele>22.0</ele><time>2026-05-02T13:08:30.978Z</time></trkpt><trkpt lat="40.339135" lon="15.0017017"><ele>21.0</ele><time>2026-05-02T13:08:31.977Z</time></trkpt><trkpt lat="40.3392267" lon="15.00161"><ele>20.0</ele><time>2026-05-02T13:08:32.977Z</time></trkpt><trkpt lat="40.33932" lon="15.0015017"><ele>23.75</ele><time>2026-05-02T13:08:33.978Z</time></trkpt><trkpt lat="40.3394083" lon="15.001395"><ele>27.5</ele><time>2026-05-02T13:08:34.977Z</time></trkpt><trkpt lat="40.33949" lon="15.0012817"><ele>31.25</ele><time>2026-05-02T13:08:35.977Z</time></trkpt><trkpt lat="40.339565" lon="15.0011567"><ele>35.0</ele><time>2026-05-02T13:08:36.977Z</time></trkpt><trkpt lat="40.3396317" lon="15.0010333"><ele>35.0</ele><time>2026-05-02T13:08:37.977Z</time></trkpt><trkpt lat="40.339675" lon="15.0008983"><ele>35.0</ele><time>2026-05-02T13:08:38.977Z</time></trkpt><trkpt lat="40.3397083" lon="15.0007683"><ele>35.0</ele><time>2026-05-02T13:08:39.978Z</time></trkpt><trkpt lat="40.33974" lon="15.0006317"><ele>35.0</ele><time>2026-05-02T13:08:40.978Z</time></trkpt><trkpt lat="40.339775" lon="15.000495"><ele>35.0</ele><time>2026-05-02T13:08:41.978Z</time></trkpt><trkpt lat="40.339805" lon="15.0003483"><ele>30.5</ele><time>2026-05-02T13:08:42.977Z</time></trkpt><trkpt lat="40.3398333" lon="15.0001967"><ele>26.0</ele><time>2026-05-02T13:08:43.978Z</time></trkpt><trkpt lat="40.3398617" lon="15.0000483"><ele>21.5</ele><time>2026-05-02T13:08:44.977Z</time></trkpt><trkpt lat="40.339885" lon="14.9999"><ele>17.0</ele><time>2026-05-02T13:08:45.977Z</time></trkpt><trkpt lat="40.3399133" lon="14.9997433"><ele>17.0</ele><time>2026-05-02T13:08:46.977Z</time></trkpt><trkpt lat="40.3399533" lon="14.9995917"><ele>17.0</ele><time>2026-05-02T13:08:47.977Z</time></trkpt><trkpt lat="40.34" lon="14.9994417"><ele>17.0</ele><time>2026-05-02T13:08:48.977Z</time></trkpt><trkpt lat="40.34005" lon="14.9992933"><ele>17.0</ele><time>2026-05-02T13:08:49.978Z</time></trkpt><trkpt lat="40.340115" lon="14.9991533"><ele>17.0</ele><time>2026-05-02T13:08:50.977Z</time></trkpt><trkpt lat="40.3402017" lon="14.99902"><ele>17.0</ele><time>2026-05-02T13:08:51.977Z</time></trkpt><trkpt lat="40.3402917" lon="14.9989033"><ele>17.0</ele><time>2026-05-02T13:08:52.977Z</time></trkpt><trkpt lat="40.3403733" lon="14.998795"><ele>17.0</ele><time>2026-05-02T13:08:53.978Z</time></trkpt><trkpt lat="40.3404533" lon="14.99871"><ele>17.0</ele><time>2026-05-02T13:08:54.977Z</time></trkpt><trkpt lat="40.3405267" lon="14.9986533"><ele>17.0</ele><time>2026-05-02T13:08:55.978Z</time></trkpt><trkpt lat="40.3405983" lon="14.9985983"><ele>17.0</ele><time>2026-05-02T13:08:56.977Z</time></trkpt><trkpt lat="40.3406617" lon="14.9985467"><ele>17.0</ele><time>2026-05-02T13:08:57.977Z</time></trkpt><trkpt lat="40.340715" lon="14.998495"><ele>17.0</ele><time>2026-05-02T13:08:58.977Z</time></trkpt><trkpt lat="40.34081" lon="14.9983767"><ele>17.0</ele><time>2026-05-02T13:09:00.977Z</time></trkpt><trkpt lat="40.3408683" lon="14.9983083"><ele>17.0</ele><time>2026-05-02T13:09:01.977Z</time></trkpt><trkpt lat="40.340925" lon="14.9982283"><ele>17.0</ele><time>2026-05-02T13:09:02.977Z</time></trkpt><trkpt lat="40.3409917" lon="14.9981383"><ele>17.0</ele><time>2026-05-02T13:09:03.977Z</time></trkpt><trkpt lat="40.34106" lon="14.9980633"><ele>17.0</ele><time>2026-05-02T13:09:04.977Z</time></trkpt><trkpt lat="40.3411383" lon="14.9979917"><ele>17.0</ele><time>2026-05-02T13:09:05.977Z</time></trkpt><trkpt lat="40.3412283" lon="14.99792"><ele>17.0</ele><time>2026-05-02T13:09:06.977Z</time></trkpt><trkpt lat="40.3413117" lon="14.99786"><ele>17.0</ele><time>2026-05-02T13:09:07.977Z</time></trkpt><trkpt lat="40.3413933" lon="14.9977983"><ele>17.0</ele><time>2026-05-02T13:09:08.978Z</time></trkpt><trkpt lat="40.3414733" lon="14.9977383"><ele>17.0</ele><time>2026-05-02T13:09:09.978Z</time></trkpt><trkpt lat="40.3415517" lon="14.9976733"><ele>17.0</ele><time>2026-05-02T13:09:10.978Z</time></trkpt><trkpt lat="40.341635" lon="14.9976033"><ele>16.6</ele><time>2026-05-02T13:09:11.977Z</time></trkpt><trkpt lat="40.34172" lon="14.99754"><ele>16.2</ele><time>2026-05-02T13:09:12.978Z</time></trkpt><trkpt lat="40.3418117" lon="14.9974667"><ele>15.8</ele><time>2026-05-02T13:09:13.977Z</time></trkpt><trkpt lat="40.3419067" lon="14.9973917"><ele>15.4</ele><time>2026-05-02T13:09:14.977Z</time></trkpt><trkpt lat="40.3419967" lon="14.9973217"><ele>15.0</ele><time>2026-05-02T13:09:15.977Z</time></trkpt><trkpt lat="40.3420867" lon="14.9972467"><ele>15.0</ele><time>2026-05-02T13:09:16.978Z</time></trkpt><trkpt lat="40.3421767" lon="14.997175"><ele>15.0</ele><time>2026-05-02T13:09:17.978Z</time></trkpt><trkpt lat="40.3422617" lon="14.9971083"><ele>15.0</ele><time>2026-05-02T13:09:18.978Z</time></trkpt><trkpt lat="40.3423467" lon="14.9970433"><ele>15.0</ele><time>2026-05-02T13:09:19.977Z</time></trkpt><trkpt lat="40.34243" lon="14.996975"><ele>15.0</ele><time>2026-05-02T13:09:20.978Z</time></trkpt><trkpt lat="40.34252" lon="14.9969067"><ele>14.4</ele><time>2026-05-02T13:09:21.977Z</time></trkpt><trkpt lat="40.3426083" lon="14.99685"><ele>13.8</ele><time>2026-05-02T13:09:22.977Z</time></trkpt><trkpt lat="40.3426967" lon="14.996785"><ele>13.2</ele><time>2026-05-02T13:09:23.978Z</time></trkpt><trkpt lat="40.3427833" lon="14.9967267"><ele>12.6</ele><time>2026-05-02T13:09:24.978Z</time></trkpt><trkpt lat="40.3428633" lon="14.99666"><ele>12.0</ele><time>2026-05-02T13:09:25.977Z</time></trkpt><trkpt lat="40.342935" lon="14.9965983"><ele>12.0</ele><time>2026-05-02T13:09:26.977Z</time></trkpt><trkpt lat="40.343015" lon="14.99653"><ele>12.0</ele><time>2026-05-02T13:09:27.977Z</time></trkpt><trkpt lat="40.3430833" lon="14.996465"><ele>12.0</ele><time>2026-05-02T13:09:28.977Z</time></trkpt><trkpt lat="40.343155" lon="14.9964067"><ele>12.0</ele><time>2026-05-02T13:09:29.978Z</time></trkpt><trkpt lat="40.343225" lon="14.9963533"><ele>12.0</ele><time>2026-05-02T13:09:30.977Z</time></trkpt><trkpt lat="40.3432933" lon="14.9962983"><ele>12.0</ele><time>2026-05-02T13:09:31.978Z</time></trkpt><trkpt lat="40.343355" lon="14.9962433"><ele>11.833333333333334</ele><time>2026-05-02T13:09:32.978Z</time></trkpt><trkpt lat="40.34345" lon="14.9961917"><ele>11.666666666666666</ele><time>2026-05-02T13:09:34.977Z</time></trkpt><trkpt lat="40.343535" lon="14.996195"><ele>11.5</ele><time>2026-05-02T13:09:36.977Z</time></trkpt><trkpt lat="40.3436017" lon="14.9962267"><ele>11.333333333333332</ele><time>2026-05-02T13:09:38.978Z</time></trkpt><trkpt lat="40.34367" lon="14.9962217"><ele>11.166666666666666</ele><time>2026-05-02T13:09:40.977Z</time></trkpt><trkpt lat="40.343725" lon="14.9961167"><ele>11.0</ele><time>2026-05-02T13:09:42.977Z</time></trkpt><trkpt lat="40.3437517" lon="14.9959633"><ele>10.8</ele><time>2026-05-02T13:09:44.977Z</time></trkpt><trkpt lat="40.3438017" lon="14.9958117"><ele>10.600000000000001</ele><time>2026-05-02T13:09:46.978Z</time></trkpt><trkpt lat="40.343895" lon="14.995715"><ele>10.4</ele><time>2026-05-02T13:09:48.977Z</time></trkpt><trkpt lat="40.343975" lon="14.99565"><ele>10.2</ele><time>2026-05-02T13:09:50.978Z</time></trkpt><trkpt lat="40.3440417" lon="14.9955967"><ele>10.0</ele><time>2026-05-02T13:09:54.977Z</time></trkpt><trkpt lat="40.3441117" lon="14.995535"><ele>9.833333333333334</ele><time>2026-05-02T13:09:56.977Z</time></trkpt><trkpt lat="40.3441967" lon="14.9954667"><ele>9.666666666666668</ele><time>2026-05-02T13:09:58.978Z</time></trkpt><trkpt lat="40.3442917" lon="14.99539"><ele>9.5</ele><time>2026-05-02T13:10:00.977Z</time></trkpt><trkpt lat="40.34434" lon="14.9953367"><ele>9.333333333333334</ele><time>2026-05-02T13:10:01.977Z</time></trkpt><trkpt lat="40.344395" lon="14.9952817"><ele>9.166666666666666</ele><time>2026-05-02T13:10:02.978Z</time></trkpt><trkpt lat="40.344465" lon="14.99522"><ele>9.0</ele><time>2026-05-02T13:10:03.978Z</time></trkpt><trkpt lat="40.34453" lon="14.9951583"><ele>9.0</ele><time>2026-05-02T13:10:04.977Z</time></trkpt><trkpt lat="40.3445983" lon="14.9950817"><ele>9.0</ele><time>2026-05-02T13:10:05.977Z</time></trkpt><trkpt lat="40.3447067" lon="14.9949867"><ele>9.0</ele><time>2026-05-02T13:10:06.977Z</time></trkpt><trkpt lat="40.3448383" lon="14.9948783"><ele>9.0</ele><time>2026-05-02T13:10:07.977Z</time></trkpt><trkpt lat="40.3449683" lon="14.9947633"><ele>9.5</ele><time>2026-05-02T13:10:08.978Z</time></trkpt><trkpt lat="40.345075" lon="14.9946383"><ele>10.0</ele><time>2026-05-02T13:10:09.977Z</time></trkpt><trkpt lat="40.3451767" lon="14.99456"><ele>10.5</ele><time>2026-05-02T13:10:10.978Z</time></trkpt><trkpt lat="40.3452533" lon="14.9944667"><ele>11.0</ele><time>2026-05-02T13:10:11.978Z</time></trkpt><trkpt lat="40.3453417" lon="14.9944033"><ele>11.0</ele><time>2026-05-02T13:10:12.978Z</time></trkpt><trkpt lat="40.3454183" lon="14.9943267"><ele>11.0</ele><time>2026-05-02T13:10:13.977Z</time></trkpt><trkpt lat="40.345495" lon="14.9942967"><ele>11.0</ele><time>2026-05-02T13:10:14.977Z</time></trkpt><trkpt lat="40.3455667" lon="14.9942317"><ele>11.0</ele><time>2026-05-02T13:10:15.977Z</time></trkpt><trkpt lat="40.34562" lon="14.9941617"><ele>11.0</ele><time>2026-05-02T13:10:16.978Z</time></trkpt><trkpt lat="40.3456817" lon="14.9941067"><ele>11.0</ele><time>2026-05-02T13:10:17.977Z</time></trkpt><trkpt lat="40.3457417" lon="14.9940467"><ele>10.5</ele><time>2026-05-02T13:10:18.977Z</time></trkpt><trkpt lat="40.34581" lon="14.9939883"><ele>10.0</ele><time>2026-05-02T13:10:19.977Z</time></trkpt><trkpt lat="40.3458767" lon="14.99393"><ele>9.5</ele><time>2026-05-02T13:10:20.978Z</time></trkpt><trkpt lat="40.3459417" lon="14.9938483"><ele>9.0</ele><time>2026-05-02T13:10:21.977Z</time></trkpt><trkpt lat="40.346005" lon="14.9937983"><ele>8.5</ele><time>2026-05-02T13:10:22.978Z</time></trkpt><trkpt lat="40.346075" lon="14.993755"><ele>8.0</ele><time>2026-05-02T13:10:23.977Z</time></trkpt><trkpt lat="40.3461317" lon="14.993685"><ele>8.0</ele><time>2026-05-02T13:10:24.977Z</time></trkpt><trkpt lat="40.3461933" lon="14.993615"><ele>7.999999999999999</ele><time>2026-05-02T13:10:25.978Z</time></trkpt><trkpt lat="40.346255" lon="14.9935517"><ele>8.0</ele><time>2026-05-02T13:10:26.977Z</time></trkpt><trkpt lat="40.3463183" lon="14.9934883"><ele>8.0</ele><time>2026-05-02T13:10:27.977Z</time></trkpt><trkpt lat="40.346375" lon="14.9934383"><ele>7.999999999999999</ele><time>2026-05-02T13:10:28.977Z</time></trkpt><trkpt lat="40.3464317" lon="14.9933967"><ele>8.0</ele><time>2026-05-02T13:10:29.978Z</time></trkpt><trkpt lat="40.3464967" lon="14.9933433"><ele>8.0</ele><time>2026-05-02T13:10:30.977Z</time></trkpt><trkpt lat="40.3465667" lon="14.9932767"><ele>7.999999999999999</ele><time>2026-05-02T13:10:31.978Z</time></trkpt><trkpt lat="40.3466283" lon="14.9932083"><ele>8.0</ele><time>2026-05-02T13:10:32.977Z</time></trkpt><trkpt lat="40.3467" lon="14.99314"><ele>8.0</ele><time>2026-05-02T13:10:33.977Z</time></trkpt><trkpt lat="40.3467667" lon="14.99306"><ele>8.0</ele><time>2026-05-02T13:10:34.977Z</time></trkpt><trkpt lat="40.3468433" lon="14.9929867"><ele>7.999999999999999</ele><time>2026-05-02T13:10:35.977Z</time></trkpt><trkpt lat="40.34692" lon="14.9929133"><ele>8.0</ele><time>2026-05-02T13:10:36.977Z</time></trkpt><trkpt lat="40.346995" lon="14.9928483"><ele>8.0</ele><time>2026-05-02T13:10:37.977Z</time></trkpt><trkpt lat="40.3470683" lon="14.9927767"><ele>8.0</ele><time>2026-05-02T13:10:38.977Z</time></trkpt><trkpt lat="40.3471333" lon="14.9927133"><ele>8.0</ele><time>2026-05-02T13:10:39.977Z</time></trkpt><trkpt lat="40.3472167" lon="14.992645"><ele>8.0</ele><time>2026-05-02T13:10:40.978Z</time></trkpt><trkpt lat="40.3473033" lon="14.99256"><ele>8.0</ele><time>2026-05-02T13:10:41.977Z</time></trkpt><trkpt lat="40.3473917" lon="14.9924883"><ele>8.666666666666666</ele><time>2026-05-02T13:10:42.977Z</time></trkpt><trkpt lat="40.3474667" lon="14.9924067"><ele>9.333333333333332</ele><time>2026-05-02T13:10:43.977Z</time></trkpt><trkpt lat="40.3475267" lon="14.992345"><ele>10.0</ele><time>2026-05-02T13:10:44.977Z</time></trkpt><trkpt lat="40.3475933" lon="14.9922783"><ele>10.666666666666666</ele><time>2026-05-02T13:10:45.977Z</time></trkpt><trkpt lat="40.3476467" lon="14.9922183"><ele>11.333333333333334</ele><time>2026-05-02T13:10:46.977Z</time></trkpt><trkpt lat="40.347695" lon="14.992165"><ele>12.0</ele><time>2026-05-02T13:10:47.978Z</time></trkpt><trkpt lat="40.3477767" lon="14.9920783"><ele>12.0</ele><time>2026-05-02T13:10:49.978Z</time></trkpt><trkpt lat="40.3478417" lon="14.9921417"><ele>12.0</ele><time>2026-05-02T13:10:51.977Z</time></trkpt><trkpt lat="40.34789" lon="14.9922"><ele>12.0</ele><time>2026-05-02T13:10:52.977Z</time></trkpt><trkpt lat="40.347935" lon="14.9922733"><ele>12.0</ele><time>2026-05-02T13:10:53.978Z</time></trkpt><trkpt lat="40.347995" lon="14.9923683"><ele>12.0</ele><time>2026-05-02T13:10:54.977Z</time></trkpt><trkpt lat="40.3480633" lon="14.9924433"><ele>12.0</ele><time>2026-05-02T13:10:55.978Z</time></trkpt><trkpt lat="40.3481233" lon="14.9925067"><ele>11.333333333333334</ele><time>2026-05-02T13:10:56.977Z</time></trkpt><trkpt lat="40.3481933" lon="14.9925617"><ele>10.666666666666666</ele><time>2026-05-02T13:10:57.977Z</time></trkpt><trkpt lat="40.348265" lon="14.99263"><ele>10.0</ele><time>2026-05-02T13:10:58.978Z</time></trkpt><trkpt lat="40.3483417" lon="14.9927133"><ele>9.333333333333332</ele><time>2026-05-02T13:10:59.977Z</time></trkpt><trkpt lat="40.3484233" lon="14.9927717"><ele>8.666666666666666</ele><time>2026-05-02T13:11:00.977Z</time></trkpt><trkpt lat="40.3484883" lon="14.9928317"><ele>8.0</ele><time>2026-05-02T13:11:01.978Z</time></trkpt><trkpt lat="40.3485583" lon="14.9928917"><ele>7.999999999999999</ele><time>2026-05-02T13:11:02.977Z</time></trkpt><trkpt lat="40.34863" lon="14.9929467"><ele>8.0</ele><time>2026-05-02T13:11:03.977Z</time></trkpt><trkpt lat="40.348705" lon="14.9929933"><ele>8.0</ele><time>2026-05-02T13:11:04.977Z</time></trkpt><trkpt lat="40.34878" lon="14.9930383"><ele>8.0</ele><time>2026-05-02T13:11:05.977Z</time></trkpt><trkpt lat="40.348855" lon="14.9930683"><ele>7.999999999999999</ele><time>2026-05-02T13:11:06.977Z</time></trkpt><trkpt lat="40.3489167" lon="14.9931067"><ele>8.0</ele><time>2026-05-02T13:11:07.977Z</time></trkpt><trkpt lat="40.34898" lon="14.9931483"><ele>8.142857142857142</ele><time>2026-05-02T13:11:08.977Z</time></trkpt><trkpt lat="40.3490467" lon="14.9931883"><ele>8.285714285714285</ele><time>2026-05-02T13:11:09.977Z</time></trkpt><trkpt lat="40.349115" lon="14.99322"><ele>8.428571428571429</ele><time>2026-05-02T13:11:10.977Z</time></trkpt><trkpt lat="40.3491833" lon="14.9932683"><ele>8.571428571428571</ele><time>2026-05-02T13:11:11.977Z</time></trkpt><trkpt lat="40.3492467" lon="14.9933017"><ele>8.714285714285715</ele><time>2026-05-02T13:11:12.977Z</time></trkpt><trkpt lat="40.3493133" lon="14.9933433"><ele>8.857142857142858</ele><time>2026-05-02T13:11:13.977Z</time></trkpt><trkpt lat="40.3493717" lon="14.9933833"><ele>9.0</ele><time>2026-05-02T13:11:14.978Z</time></trkpt><trkpt lat="40.3494683" lon="14.9934583"><ele>8.4</ele><time>2026-05-02T13:11:16.977Z</time></trkpt><trkpt lat="40.34954" lon="14.9935367"><ele>7.800000000000001</ele><time>2026-05-02T13:11:18.977Z</time></trkpt><trkpt lat="40.3495567" lon="14.9937083"><ele>7.199999999999999</ele><time>2026-05-02T13:11:20.978Z</time></trkpt><trkpt lat="40.3495517" lon="14.993815"><ele>6.6</ele><time>2026-05-02T13:11:21.978Z</time></trkpt><trkpt lat="40.3495367" lon="14.993915"><ele>6.0</ele><time>2026-05-02T13:11:22.977Z</time></trkpt><trkpt lat="40.3495233" lon="14.9940133"><ele>5.8</ele><time>2026-05-02T13:11:23.977Z</time></trkpt><trkpt lat="40.3494833" lon="14.9941733"><ele>5.6</ele><time>2026-05-02T13:11:25.978Z</time></trkpt><trkpt lat="40.3494583" lon="14.994255"><ele>5.4</ele><time>2026-05-02T13:11:26.977Z</time></trkpt><trkpt lat="40.3494267" lon="14.9943267"><ele>5.2</ele><time>2026-05-02T13:11:27.977Z</time></trkpt><trkpt lat="40.3493717" lon="14.994455"><ele>5.0</ele><time>2026-05-02T13:11:29.977Z</time></trkpt><trkpt lat="40.34931" lon="14.9945917"><ele>5.0</ele><time>2026-05-02T13:11:31.977Z</time></trkpt><trkpt lat="40.349325" lon="14.9947033"><ele>5.0</ele><time>2026-05-02T13:11:33.977Z</time></trkpt><trkpt lat="40.349405" lon="14.994755"><ele>5.0</ele><time>2026-05-02T13:11:35.977Z</time></trkpt><trkpt lat="40.3494717" lon="14.9946617"><ele>5.0</ele><time>2026-05-02T13:11:37.977Z</time></trkpt><trkpt lat="40.349485" lon="14.9945767"><ele>5.0</ele><time>2026-05-02T13:11:38.977Z</time></trkpt><trkpt lat="40.34949" lon="14.9944867"><ele>5.0</ele><time>2026-05-02T13:11:39.978Z</time></trkpt><trkpt lat="40.3494983" lon="14.9943967"><ele>5.0</ele><time>2026-05-02T13:11:40.977Z</time></trkpt><trkpt lat="40.3495083" lon="14.9943083"><ele>5.0</ele><time>2026-05-02T13:11:41.978Z</time></trkpt><trkpt lat="40.3495217" lon="14.994225"><ele>5.0</ele><time>2026-05-02T13:11:42.978Z</time></trkpt><trkpt lat="40.3495317" lon="14.9941417"><ele>5.0</ele><time>2026-05-02T13:11:43.978Z</time></trkpt><trkpt lat="40.3495367" lon="14.9940517"><ele>5.0</ele><time>2026-05-02T13:11:44.977Z</time></trkpt><trkpt lat="40.34954" lon="14.9939583"><ele>5.0</ele><time>2026-05-02T13:11:45.977Z</time></trkpt><trkpt lat="40.3495533" lon="14.9938733"><ele>5.0</ele><time>2026-05-02T13:11:46.977Z</time></trkpt><trkpt lat="40.3495667" lon="14.9937733"><ele>5.166666666666667</ele><time>2026-05-02T13:11:47.978Z</time></trkpt><trkpt lat="40.3495817" lon="14.9936733"><ele>5.333333333333334</ele><time>2026-05-02T13:11:48.977Z</time></trkpt><trkpt lat="40.3495917" lon="14.99356"><ele>5.5</ele><time>2026-05-02T13:11:49.977Z</time></trkpt><trkpt lat="40.349605" lon="14.9934583"><ele>5.666666666666667</ele><time>2026-05-02T13:11:50.978Z</time></trkpt><trkpt lat="40.3496217" lon="14.993365"><ele>5.833333333333333</ele><time>2026-05-02T13:11:51.977Z</time></trkpt><trkpt lat="40.349635" lon="14.9932667"><ele>6.0</ele><time>2026-05-02T13:11:52.977Z</time></trkpt><trkpt lat="40.3496467" lon="14.9931783"><ele>6.5</ele><time>2026-05-02T13:11:53.977Z</time></trkpt><trkpt lat="40.349655" lon="14.9930767"><ele>7.0</ele><time>2026-05-02T13:11:54.976Z</time></trkpt><trkpt lat="40.3496617" lon="14.9929683"><ele>7.5</ele><time>2026-05-02T13:11:55.976Z</time></trkpt><trkpt lat="40.3496733" lon="14.9928683"><ele>8.0</ele><time>2026-05-02T13:11:56.976Z</time></trkpt><trkpt lat="40.3496867" lon="14.992775"><ele>8.5</ele><time>2026-05-02T13:11:57.977Z</time></trkpt><trkpt lat="40.3497083" lon="14.992625"><ele>9.0</ele><time>2026-05-02T13:11:59.977Z</time></trkpt><trkpt lat="40.34977" lon="14.992475"><ele>10.166666666666666</ele><time>2026-05-02T13:12:01.976Z</time></trkpt><trkpt lat="40.349815" lon="14.992395"><ele>11.333333333333332</ele><time>2026-05-02T13:12:02.976Z</time></trkpt><trkpt lat="40.3498667" lon="14.9923133"><ele>12.5</ele><time>2026-05-02T13:12:03.976Z</time></trkpt><trkpt lat="40.349915" lon="14.9922367"><ele>13.666666666666666</ele><time>2026-05-02T13:12:04.976Z</time></trkpt><trkpt lat="40.3499567" lon="14.9921617"><ele>14.833333333333332</ele><time>2026-05-02T13:12:05.977Z</time></trkpt><trkpt lat="40.3500067" lon="14.99209"><ele>16.0</ele><time>2026-05-02T13:12:06.977Z</time></trkpt><trkpt lat="40.3500633" lon="14.9920233"><ele>16.0</ele><time>2026-05-02T13:12:07.977Z</time></trkpt><trkpt lat="40.3501233" lon="14.9919783"><ele>15.999999999999998</ele><time>2026-05-02T13:12:08.976Z</time></trkpt><trkpt lat="40.3501917" lon="14.9919367"><ele>16.0</ele><time>2026-05-02T13:12:09.977Z</time></trkpt><trkpt lat="40.3502617" lon="14.9918983"><ele>16.0</ele><time>2026-05-02T13:12:10.977Z</time></trkpt><trkpt lat="40.3503333" lon="14.9918583"><ele>15.999999999999998</ele><time>2026-05-02T13:12:11.976Z</time></trkpt><trkpt lat="40.3504017" lon="14.9918267"><ele>16.0</ele><time>2026-05-02T13:12:12.976Z</time></trkpt><trkpt lat="40.3504633" lon="14.9918017"><ele>16.0</ele><time>2026-05-02T13:12:13.976Z</time></trkpt><trkpt lat="40.3505617" lon="14.9917517"><ele>16.5</ele><time>2026-05-02T13:12:15.976Z</time></trkpt><trkpt lat="40.3506217" lon="14.9916883"><ele>17.0</ele><time>2026-05-02T13:12:18.977Z</time></trkpt><trkpt lat="40.35063" lon="14.99158"><ele>17.5</ele><time>2026-05-02T13:12:21.976Z</time></trkpt><trkpt lat="40.3505983" lon="14.9914733"><ele>18.0</ele><time>2026-05-02T13:12:24.976Z</time></trkpt><trkpt lat="40.3505833" lon="14.991355"><ele>18.5</ele><time>2026-05-02T13:12:33.976Z</time></trkpt><trkpt lat="40.3505567" lon="14.9912783"><ele>19.0</ele><time>2026-05-02T13:12:34.976Z</time></trkpt><trkpt lat="40.3505283" lon="14.9911967"><ele>19.0</ele><time>2026-05-02T13:12:35.977Z</time></trkpt><trkpt lat="40.3505067" lon="14.9911067"><ele>19.0</ele><time>2026-05-02T13:12:36.976Z</time></trkpt><trkpt lat="40.350485" lon="14.9910217"><ele>19.0</ele><time>2026-05-02T13:12:37.976Z</time></trkpt><trkpt lat="40.350465" lon="14.9909433"><ele>19.0</ele><time>2026-05-02T13:12:38.976Z</time></trkpt><trkpt lat="40.3504517" lon="14.9908617"><ele>19.0</ele><time>2026-05-02T13:12:39.976Z</time></trkpt><trkpt lat="40.350425" lon="14.99072"><ele>19.0</ele><time>2026-05-02T13:12:41.977Z</time></trkpt><trkpt lat="40.350405" lon="14.9906233"><ele>20.4</ele><time>2026-05-02T13:12:43.976Z</time></trkpt><trkpt lat="40.350385" lon="14.9905167"><ele>21.799999999999997</ele><time>2026-05-02T13:12:45.976Z</time></trkpt><trkpt lat="40.3503517" lon="14.9904383"><ele>23.200000000000003</ele><time>2026-05-02T13:12:48.976Z</time></trkpt><trkpt lat="40.3503033" lon="14.99034"><ele>24.6</ele><time>2026-05-02T13:13:00.976Z</time></trkpt><trkpt lat="40.35028" lon="14.9901983"><ele>26.0</ele><time>2026-05-02T13:13:02.976Z</time></trkpt><trkpt lat="40.35025" lon="14.9900583"><ele>26.200000000000003</ele><time>2026-05-02T13:13:04.977Z</time></trkpt><trkpt lat="40.3501917" lon="14.9899583"><ele>26.400000000000002</ele><time>2026-05-02T13:13:06.976Z</time></trkpt><trkpt lat="40.3501133" lon="14.989875"><ele>26.6</ele><time>2026-05-02T13:13:08.976Z</time></trkpt><trkpt lat="40.350025" lon="14.9897683"><ele>26.8</ele><time>2026-05-02T13:13:10.976Z</time></trkpt><trkpt lat="40.34997" lon="14.9897183"><ele>27.0</ele><time>2026-05-02T13:13:11.976Z</time></trkpt><trkpt lat="40.3498783" lon="14.98962"><ele>27.0</ele><time>2026-05-02T13:13:13.977Z</time></trkpt><trkpt lat="40.3497933" lon="14.9895383"><ele>27.000000000000004</ele><time>2026-05-02T13:13:15.976Z</time></trkpt><trkpt lat="40.34971" lon="14.989425"><ele>27.000000000000004</ele><time>2026-05-02T13:13:17.977Z</time></trkpt><trkpt lat="40.34962" lon="14.98937"><ele>27.0</ele><time>2026-05-02T13:13:19.976Z</time></trkpt><trkpt lat="40.349525" lon="14.989285"><ele>27.0</ele><time>2026-05-02T13:13:21.977Z</time></trkpt><trkpt lat="40.3494317" lon="14.9891917"><ele>26.400000000000002</ele><time>2026-05-02T13:13:23.976Z</time></trkpt><trkpt lat="40.3493533" lon="14.98912"><ele>25.800000000000004</ele><time>2026-05-02T13:13:25.976Z</time></trkpt><trkpt lat="40.3492683" lon="14.98904"><ele>25.2</ele><time>2026-05-02T13:13:27.976Z</time></trkpt><trkpt lat="40.34916" lon="14.9889367"><ele>24.6</ele><time>2026-05-02T13:13:29.976Z</time></trkpt><trkpt lat="40.3491017" lon="14.988895"><ele>24.0</ele><time>2026-05-02T13:13:30.977Z</time></trkpt><trkpt lat="40.3490367" lon="14.9888433"><ele>23.999999999999996</ele><time>2026-05-02T13:13:31.976Z</time></trkpt><trkpt lat="40.348965" lon="14.9887817"><ele>24.0</ele><time>2026-05-02T13:13:32.976Z</time></trkpt><trkpt lat="40.3488983" lon="14.9887233"><ele>24.0</ele><time>2026-05-02T13:13:33.977Z</time></trkpt><trkpt lat="40.34884" lon="14.9886733"><ele>24.0</ele><time>2026-05-02T13:13:34.977Z</time></trkpt><trkpt lat="40.34878" lon="14.9886217"><ele>24.0</ele><time>2026-05-02T13:13:35.977Z</time></trkpt><trkpt lat="40.3487167" lon="14.9885683"><ele>23.999999999999996</ele><time>2026-05-02T13:13:36.977Z</time></trkpt><trkpt lat="40.3486683" lon="14.988515"><ele>24.0</ele><time>2026-05-02T13:13:37.976Z</time></trkpt><trkpt lat="40.34858" lon="14.9884333"><ele>25.0</ele><time>2026-05-02T13:13:39.977Z</time></trkpt><trkpt lat="40.348535" lon="14.98836"><ele>26.0</ele><time>2026-05-02T13:13:41.977Z</time></trkpt><trkpt lat="40.3485417" lon="14.98827"><ele>27.0</ele><time>2026-05-02T13:13:43.976Z</time></trkpt><trkpt lat="40.348625" lon="14.98813"><ele>28.0</ele><time>2026-05-02T13:13:45.977Z</time></trkpt><trkpt lat="40.34867" lon="14.9880367"><ele>29.0</ele><time>2026-05-02T13:13:46.977Z</time></trkpt><trkpt lat="40.3487033" lon="14.9879283"><ele>30.0</ele><time>2026-05-02T13:13:47.977Z</time></trkpt><trkpt lat="40.3487367" lon="14.9878167"><ele>29.6</ele><time>2026-05-02T13:13:48.976Z</time></trkpt><trkpt lat="40.3487667" lon="14.987715"><ele>29.2</ele><time>2026-05-02T13:13:49.977Z</time></trkpt><trkpt lat="40.348795" lon="14.9876283"><ele>28.799999999999997</ele><time>2026-05-02T13:13:50.976Z</time></trkpt><trkpt lat="40.3488183" lon="14.987545"><ele>28.4</ele><time>2026-05-02T13:13:51.976Z</time></trkpt><trkpt lat="40.3488733" lon="14.987395"><ele>28.0</ele><time>2026-05-02T13:13:53.976Z</time></trkpt><trkpt lat="40.34892" lon="14.987265"><ele>28.0</ele><time>2026-05-02T13:13:55.976Z</time></trkpt><trkpt lat="40.3489633" lon="14.9871633"><ele>27.999999999999996</ele><time>2026-05-02T13:13:57.976Z</time></trkpt><trkpt lat="40.3490367" lon="14.9870267"><ele>27.999999999999996</ele><time>2026-05-02T13:14:08.976Z</time></trkpt><trkpt lat="40.3489983" lon="14.9869533"><ele>28.0</ele><time>2026-05-02T13:14:10.976Z</time></trkpt><trkpt lat="40.3488867" lon="14.9868733"><ele>28.0</ele><time>2026-05-02T13:14:12.976Z</time></trkpt><trkpt lat="40.3488167" lon="14.986835"><ele>29.799999999999997</ele><time>2026-05-02T13:14:13.976Z</time></trkpt><trkpt lat="40.3487567" lon="14.9868017"><ele>31.599999999999998</ele><time>2026-05-02T13:14:14.976Z</time></trkpt><trkpt lat="40.3486967" lon="14.9867017"><ele>33.400000000000006</ele><time>2026-05-02T13:14:16.976Z</time></trkpt><trkpt lat="40.3487117" lon="14.9865667"><ele>35.2</ele><time>2026-05-02T13:14:18.976Z</time></trkpt><trkpt lat="40.3487383" lon="14.9864433"><ele>37.0</ele><time>2026-05-02T13:14:19.977Z</time></trkpt><trkpt lat="40.348765" lon="14.9863067"><ele>37.2</ele><time>2026-05-02T13:14:20.977Z</time></trkpt><trkpt lat="40.3487867" lon="14.9861933"><ele>37.400000000000006</ele><time>2026-05-02T13:14:21.977Z</time></trkpt><trkpt lat="40.3488117" lon="14.9860517"><ele>37.599999999999994</ele><time>2026-05-02T13:14:23.977Z</time></trkpt><trkpt lat="40.3487867" lon="14.98593"><ele>37.8</ele><time>2026-05-02T13:14:25.976Z</time></trkpt><trkpt lat="40.3487267" lon="14.9858367"><ele>38.0</ele><time>2026-05-02T13:14:27.977Z</time></trkpt><trkpt lat="40.3486967" lon="14.98571"><ele>38.5</ele><time>2026-05-02T13:14:29.976Z</time></trkpt><trkpt lat="40.3486917" lon="14.9856267"><ele>39.0</ele><time>2026-05-02T13:14:30.976Z</time></trkpt><trkpt lat="40.3486867" lon="14.9855317"><ele>39.5</ele><time>2026-05-02T13:14:31.976Z</time></trkpt><trkpt lat="40.3486783" lon="14.9854317"><ele>40.0</ele><time>2026-05-02T13:14:32.976Z</time></trkpt><trkpt lat="40.348675" lon="14.98532"><ele>40.5</ele><time>2026-05-02T13:14:33.977Z</time></trkpt><trkpt lat="40.3486717" lon="14.9852067"><ele>41.0</ele><time>2026-05-02T13:14:34.976Z</time></trkpt><trkpt lat="40.3486667" lon="14.98509"><ele>41.4</ele><time>2026-05-02T13:14:35.976Z</time></trkpt><trkpt lat="40.3486667" lon="14.9849783"><ele>41.8</ele><time>2026-05-02T13:14:36.976Z</time></trkpt><trkpt lat="40.3486667" lon="14.98488"><ele>42.199999999999996</ele><time>2026-05-02T13:14:37.976Z</time></trkpt><trkpt lat="40.34865" lon="14.9847267"><ele>42.599999999999994</ele><time>2026-05-02T13:14:39.976Z</time></trkpt><trkpt lat="40.3486633" lon="14.9846417"><ele>43.0</ele><time>2026-05-02T13:14:40.977Z</time></trkpt><trkpt lat="40.348695" lon="14.984495"><ele>43.0</ele><time>2026-05-02T13:14:42.977Z</time></trkpt><trkpt lat="40.3487117" lon="14.9843717"><ele>43.0</ele><time>2026-05-02T13:14:44.976Z</time></trkpt><trkpt lat="40.348735" lon="14.9842717"><ele>43.0</ele><time>2026-05-02T13:14:46.976Z</time></trkpt><trkpt lat="40.34875" lon="14.9841833"><ele>43.0</ele><time>2026-05-02T13:14:48.976Z</time></trkpt><trkpt lat="40.3487867" lon="14.9840633"><ele>43.0</ele><time>2026-05-02T13:15:06.976Z</time></trkpt><trkpt lat="40.3487983" lon="14.9839733"><ele>43.0</ele><time>2026-05-02T13:15:09.976Z</time></trkpt><trkpt lat="40.3487967" lon="14.9838667"><ele>44.2</ele><time>2026-05-02T13:15:12.977Z</time></trkpt><trkpt lat="40.34879" lon="14.9837483"><ele>45.4</ele><time>2026-05-02T13:15:14.977Z</time></trkpt><trkpt lat="40.3487817" lon="14.9836083"><ele>46.6</ele><time>2026-05-02T13:15:16.977Z</time></trkpt><trkpt lat="40.3487733" lon="14.9835233"><ele>47.800000000000004</ele><time>2026-05-02T13:15:17.977Z</time></trkpt><trkpt lat="40.3487683" lon="14.9833583"><ele>49.0</ele><time>2026-05-02T13:15:19.977Z</time></trkpt><trkpt lat="40.3487583" lon="14.9832083"><ele>50.166666666666664</ele><time>2026-05-02T13:15:21.976Z</time></trkpt><trkpt lat="40.3487533" lon="14.98306"><ele>51.33333333333333</ele><time>2026-05-02T13:15:23.976Z</time></trkpt><trkpt lat="40.34875" lon="14.9829617"><ele>52.5</ele><time>2026-05-02T13:15:25.976Z</time></trkpt><trkpt lat="40.3487517" lon="14.9828567"><ele>53.66666666666667</ele><time>2026-05-02T13:15:28.976Z</time></trkpt><trkpt lat="40.3487483" lon="14.9827367"><ele>54.833333333333336</ele><time>2026-05-02T13:15:31.977Z</time></trkpt><trkpt lat="40.3488033" lon="14.9826833"><ele>56.0</ele><time>2026-05-02T13:15:34.976Z</time></trkpt><trkpt lat="40.3488583" lon="14.98275"><ele>50.8</ele><time>2026-05-02T13:15:36.977Z</time></trkpt><trkpt lat="40.3489367" lon="14.9828433"><ele>45.599999999999994</ele><time>2026-05-02T13:15:38.976Z</time></trkpt><trkpt lat="40.3489983" lon="14.9829433"><ele>40.4</ele><time>2026-05-02T13:15:40.976Z</time></trkpt><trkpt lat="40.3490717" lon="14.983045"><ele>35.2</ele><time>2026-05-02T13:15:42.976Z</time></trkpt><trkpt lat="40.3491317" lon="14.9831483"><ele>30.0</ele><time>2026-05-02T13:15:44.976Z</time></trkpt><trkpt lat="40.3492" lon="14.98327"><ele>29.4</ele><time>2026-05-02T13:15:46.977Z</time></trkpt><trkpt lat="40.3492533" lon="14.9833917"><ele>28.8</ele><time>2026-05-02T13:15:48.977Z</time></trkpt><trkpt lat="40.3493083" lon="14.98351"><ele>28.200000000000003</ele><time>2026-05-02T13:15:50.976Z</time></trkpt><trkpt lat="40.3493483" lon="14.98366"><ele>27.6</ele><time>2026-05-02T13:15:52.976Z</time></trkpt><trkpt lat="40.3493817" lon="14.9837733"><ele>27.0</ele><time>2026-05-02T13:15:54.976Z</time></trkpt><trkpt lat="40.349425" lon="14.9838567"><ele>27.0</ele><time>2026-05-02T13:15:57.976Z</time></trkpt><trkpt lat="40.3494733" lon="14.9839267"><ele>27.0</ele><time>2026-05-02T13:16:00.976Z</time></trkpt><trkpt lat="40.3495433" lon="14.9839817"><ele>27.0</ele><time>2026-05-02T13:16:03.976Z</time></trkpt><trkpt lat="40.3496067" lon="14.9840467"><ele>27.0</ele><time>2026-05-02T13:16:07.977Z</time></trkpt><trkpt lat="40.3496767" lon="14.98412"><ele>27.0</ele><time>2026-05-02T13:16:10.976Z</time></trkpt><trkpt lat="40.3497667" lon="14.9841817"><ele>27.0</ele><time>2026-05-02T13:16:12.976Z</time></trkpt><trkpt lat="40.3498867" lon="14.98423"><ele>25.200000000000003</ele><time>2026-05-02T13:16:14.976Z</time></trkpt><trkpt lat="40.35001" lon="14.9842533"><ele>23.400000000000002</ele><time>2026-05-02T13:16:16.977Z</time></trkpt><trkpt lat="40.3500733" lon="14.9842633"><ele>21.6</ele><time>2026-05-02T13:16:17.976Z</time></trkpt><trkpt lat="40.350185" lon="14.9842433"><ele>19.8</ele><time>2026-05-02T13:16:19.976Z</time></trkpt><trkpt lat="40.350265" lon="14.9841517"><ele>18.0</ele><time>2026-05-02T13:16:21.976Z</time></trkpt><trkpt lat="40.3503133" lon="14.9840317"><ele>17.0</ele><time>2026-05-02T13:16:23.977Z</time></trkpt><trkpt lat="40.350365" lon="14.9838983"><ele>16.0</ele><time>2026-05-02T13:16:25.976Z</time></trkpt><trkpt lat="40.3504133" lon="14.9837967"><ele>15.0</ele><time>2026-05-02T13:16:27.977Z</time></trkpt><trkpt lat="40.3504517" lon="14.9837133"><ele>14.0</ele><time>2026-05-02T13:16:29.977Z</time></trkpt><trkpt lat="40.3504983" lon="14.9836567"><ele>13.0</ele><time>2026-05-02T13:16:32.977Z</time></trkpt><trkpt lat="40.3505483" lon="14.9835967"><ele>12.0</ele><time>2026-05-02T13:16:36.977Z</time></trkpt><trkpt lat="40.3505733" lon="14.9835017"><ele>12.0</ele><time>2026-05-02T13:16:40.977Z</time></trkpt><trkpt lat="40.3505283" lon="14.9834367"><ele>12.0</ele><time>2026-05-02T13:29:23.976Z</time></trkpt><trkpt lat="40.350455" lon="14.9834917"><ele>12.0</ele><time>2026-05-02T13:29:26.976Z</time></trkpt><trkpt lat="40.35042" lon="14.9836033"><ele>12.0</ele><time>2026-05-02T13:29:29.976Z</time></trkpt><trkpt lat="40.350405" lon="14.983725"><ele>12.0</ele><time>2026-05-02T13:29:31.976Z</time></trkpt><trkpt lat="40.3503633" lon="14.9838567"><ele>12.0</ele><time>2026-05-02T13:29:33.976Z</time></trkpt><trkpt lat="40.350325" lon="14.9839517"><ele>12.0</ele><time>2026-05-02T13:29:35.977Z</time></trkpt><trkpt lat="40.3502867" lon="14.984035"><ele>12.0</ele><time>2026-05-02T13:29:37.976Z</time></trkpt><trkpt lat="40.3502517" lon="14.9841133"><ele>12.0</ele><time>2026-05-02T13:29:39.977Z</time></trkpt><trkpt lat="40.3502017" lon="14.98419"><ele>12.0</ele><time>2026-05-02T13:29:43.977Z</time></trkpt><trkpt lat="40.350135" lon="14.984245"><ele>12.0</ele><time>2026-05-02T13:29:47.976Z</time></trkpt><trkpt lat="40.350035" lon="14.9842167"><ele>12.0</ele><time>2026-05-02T13:29:50.976Z</time></trkpt><trkpt lat="40.3499583" lon="14.98419"><ele>11.999999999999998</ele><time>2026-05-02T13:29:52.976Z</time></trkpt><trkpt lat="40.3498917" lon="14.9841733"><ele>12.0</ele><time>2026-05-02T13:29:54.977Z</time></trkpt><trkpt lat="40.3498267" lon="14.9841533"><ele>12.0</ele><time>2026-05-02T13:29:56.977Z</time></trkpt><trkpt lat="40.3497583" lon="14.9841183"><ele>12.0</ele><time>2026-05-02T13:29:58.977Z</time></trkpt><trkpt lat="40.3496917" lon="14.9840817"><ele>12.0</ele><time>2026-05-02T13:30:00.976Z</time></trkpt><trkpt lat="40.3496283" lon="14.9840917"><ele>11.999999999999998</ele><time>2026-05-02T13:30:03.976Z</time></trkpt><trkpt lat="40.349605" lon="14.984215"><ele>12.0</ele><time>2026-05-02T13:30:06.976Z</time></trkpt><trkpt lat="40.3495967" lon="14.9843367"><ele>14.166666666666668</ele><time>2026-05-02T13:30:08.976Z</time></trkpt><trkpt lat="40.349595" lon="14.98444"><ele>16.333333333333336</ele><time>2026-05-02T13:30:10.976Z</time></trkpt><trkpt lat="40.3495917" lon="14.9845483"><ele>18.5</ele><time>2026-05-02T13:30:13.976Z</time></trkpt><trkpt lat="40.3495867" lon="14.9846467"><ele>20.666666666666668</ele><time>2026-05-02T13:30:16.976Z</time></trkpt><trkpt lat="40.3495733" lon="14.9847583"><ele>22.833333333333336</ele><time>2026-05-02T13:30:18.977Z</time></trkpt><trkpt lat="40.3495533" lon="14.9848567"><ele>25.0</ele><time>2026-05-02T13:30:20.976Z</time></trkpt><trkpt lat="40.349535" lon="14.98495"><ele>25.4</ele><time>2026-05-02T13:30:22.976Z</time></trkpt><trkpt lat="40.349525" lon="14.9850767"><ele>25.8</ele><time>2026-05-02T13:30:24.976Z</time></trkpt><trkpt lat="40.349535" lon="14.985185"><ele>26.200000000000003</ele><time>2026-05-02T13:30:26.977Z</time></trkpt><trkpt lat="40.34956" lon="14.9852983"><ele>26.6</ele><time>2026-05-02T13:30:28.976Z</time></trkpt><trkpt lat="40.34958" lon="14.9854117"><ele>27.0</ele><time>2026-05-02T13:30:30.976Z</time></trkpt><trkpt lat="40.3496083" lon="14.9855267"><ele>27.0</ele><time>2026-05-02T13:30:32.977Z</time></trkpt><trkpt lat="40.3496317" lon="14.9856467"><ele>27.000000000000004</ele><time>2026-05-02T13:30:34.977Z</time></trkpt><trkpt lat="40.3496433" lon="14.9857933"><ele>27.000000000000004</ele><time>2026-05-02T13:30:36.976Z</time></trkpt><trkpt lat="40.3496417" lon="14.9859467"><ele>27.0</ele><time>2026-05-02T13:30:38.976Z</time></trkpt><trkpt lat="40.3496483" lon="14.986085"><ele>27.0</ele><time>2026-05-02T13:30:40.976Z</time></trkpt><trkpt lat="40.349655" lon="14.9861683"><ele>27.0</ele><time>2026-05-02T13:30:41.977Z</time></trkpt><trkpt lat="40.3496483" lon="14.9862833"><ele>27.0</ele><time>2026-05-02T13:30:42.976Z</time></trkpt><trkpt lat="40.349645" lon="14.9864"><ele>27.0</ele><time>2026-05-02T13:30:43.977Z</time></trkpt><trkpt lat="40.3496417" lon="14.9865083"><ele>27.0</ele><time>2026-05-02T13:30:44.977Z</time></trkpt><trkpt lat="40.3496433" lon="14.9866167"><ele>27.0</ele><time>2026-05-02T13:30:45.977Z</time></trkpt><trkpt lat="40.34963" lon="14.9867217"><ele>27.0</ele><time>2026-05-02T13:30:46.976Z</time></trkpt><trkpt lat="40.3496233" lon="14.9868217"><ele>27.166666666666668</ele><time>2026-05-02T13:30:47.976Z</time></trkpt><trkpt lat="40.349625" lon="14.9869183"><ele>27.333333333333336</ele><time>2026-05-02T13:30:48.977Z</time></trkpt><trkpt lat="40.349615" lon="14.9870117"><ele>27.5</ele><time>2026-05-02T13:30:49.977Z</time></trkpt><trkpt lat="40.349615" lon="14.9871033"><ele>27.666666666666668</ele><time>2026-05-02T13:30:50.976Z</time></trkpt><trkpt lat="40.34962" lon="14.987195"><ele>27.833333333333336</ele><time>2026-05-02T13:30:51.976Z</time></trkpt><trkpt lat="40.3496367" lon="14.9873467"><ele>28.0</ele><time>2026-05-02T13:30:53.977Z</time></trkpt><trkpt lat="40.34968" lon="14.98747"><ele>27.500000000000004</ele><time>2026-05-02T13:30:55.976Z</time></trkpt><trkpt lat="40.3497467" lon="14.9875283"><ele>27.0</ele><time>2026-05-02T13:30:57.977Z</time></trkpt><trkpt lat="40.3498267" lon="14.9875567"><ele>26.5</ele><time>2026-05-02T13:30:59.976Z</time></trkpt><trkpt lat="40.3499083" lon="14.9875983"><ele>26.0</ele><time>2026-05-02T13:31:01.976Z</time></trkpt><trkpt lat="40.3499767" lon="14.9876467"><ele>25.500000000000004</ele><time>2026-05-02T13:31:03.976Z</time></trkpt><trkpt lat="40.3500233" lon="14.987715"><ele>25.0</ele><time>2026-05-02T13:31:05.976Z</time></trkpt><trkpt lat="40.35008" lon="14.98778"><ele>25.000000000000004</ele><time>2026-05-02T13:31:07.976Z</time></trkpt><trkpt lat="40.350145" lon="14.9878433"><ele>25.0</ele><time>2026-05-02T13:31:09.976Z</time></trkpt><trkpt lat="40.3502017" lon="14.9878983"><ele>25.0</ele><time>2026-05-02T13:31:11.977Z</time></trkpt><trkpt lat="40.3502583" lon="14.9879483"><ele>25.0</ele><time>2026-05-02T13:31:13.977Z</time></trkpt><trkpt lat="40.350325" lon="14.9879983"><ele>25.0</ele><time>2026-05-02T13:31:15.977Z</time></trkpt><trkpt lat="40.3503983" lon="14.9880367"><ele>25.000000000000004</ele><time>2026-05-02T13:31:17.976Z</time></trkpt><trkpt lat="40.3504283" lon="14.98811"><ele>25.0</ele><time>2026-05-02T13:31:20.976Z</time></trkpt><trkpt lat="40.3503817" lon="14.98818"><ele>25.0</ele><time>2026-05-02T13:31:23.976Z</time></trkpt><trkpt lat="40.3503183" lon="14.9882383"><ele>25.0</ele><time>2026-05-02T13:31:25.976Z</time></trkpt><trkpt lat="40.3502767" lon="14.9883367"><ele>25.0</ele><time>2026-05-02T13:31:27.976Z</time></trkpt><trkpt lat="40.3502317" lon="14.9884517"><ele>25.0</ele><time>2026-05-02T13:31:29.976Z</time></trkpt><trkpt lat="40.3501733" lon="14.9885767"><ele>25.0</ele><time>2026-05-02T13:31:31.976Z</time></trkpt><trkpt lat="40.3501083" lon="14.9887017"><ele>25.166666666666668</ele><time>2026-05-02T13:31:33.976Z</time></trkpt><trkpt lat="40.3500417" lon="14.98879"><ele>25.333333333333336</ele><time>2026-05-02T13:31:35.976Z</time></trkpt><trkpt lat="40.3500033" lon="14.9888567"><ele>25.5</ele><time>2026-05-02T13:31:36.977Z</time></trkpt><trkpt lat="40.349935" lon="14.9889883"><ele>25.666666666666664</ele><time>2026-05-02T13:31:38.977Z</time></trkpt><trkpt lat="40.349895" lon="14.989065"><ele>25.833333333333332</ele><time>2026-05-02T13:31:39.977Z</time></trkpt><trkpt lat="40.3498283" lon="14.9891433"><ele>26.0</ele><time>2026-05-02T13:31:40.976Z</time></trkpt><trkpt lat="40.3497683" lon="14.9892267"><ele>26.200000000000003</ele><time>2026-05-02T13:31:41.976Z</time></trkpt><trkpt lat="40.3497233" lon="14.9892983"><ele>26.400000000000002</ele><time>2026-05-02T13:31:42.976Z</time></trkpt><trkpt lat="40.3496667" lon="14.9894033"><ele>26.6</ele><time>2026-05-02T13:31:44.977Z</time></trkpt><trkpt lat="40.3495733" lon="14.9893717"><ele>26.8</ele><time>2026-05-02T13:31:47.976Z</time></trkpt><trkpt lat="40.3495067" lon="14.9892683"><ele>27.0</ele><time>2026-05-02T13:31:49.976Z</time></trkpt><trkpt lat="40.3494283" lon="14.9891783"><ele>26.400000000000002</ele><time>2026-05-02T13:31:51.976Z</time></trkpt><trkpt lat="40.3493517" lon="14.9891233"><ele>25.800000000000004</ele><time>2026-05-02T13:31:53.977Z</time></trkpt><trkpt lat="40.3492817" lon="14.9892017"><ele>25.2</ele><time>2026-05-02T13:31:56.977Z</time></trkpt><trkpt lat="40.3492183" lon="14.9893333"><ele>24.6</ele><time>2026-05-02T13:31:58.976Z</time></trkpt><trkpt lat="40.3491433" lon="14.9894833"><ele>24.0</ele><time>2026-05-02T13:32:00.977Z</time></trkpt><trkpt lat="40.3490983" lon="14.9895633"><ele>24.0</ele><time>2026-05-02T13:32:01.976Z</time></trkpt><trkpt lat="40.3490667" lon="14.9896467"><ele>24.0</ele><time>2026-05-02T13:32:02.976Z</time></trkpt><trkpt lat="40.3490367" lon="14.989725"><ele>24.0</ele><time>2026-05-02T13:32:03.976Z</time></trkpt><trkpt lat="40.3489933" lon="14.9898433"><ele>24.0</ele><time>2026-05-02T13:32:05.976Z</time></trkpt><trkpt lat="40.3489883" lon="14.9899383"><ele>24.0</ele><time>2026-05-02T13:32:07.977Z</time></trkpt><trkpt lat="40.3490367" lon="14.9900117"><ele>24.0</ele><time>2026-05-02T13:32:09.976Z</time></trkpt><trkpt lat="40.349125" lon="14.9900667"><ele>23.4</ele><time>2026-05-02T13:32:11.977Z</time></trkpt><trkpt lat="40.3492267" lon="14.9901517"><ele>22.799999999999997</ele><time>2026-05-02T13:32:13.976Z</time></trkpt><trkpt lat="40.3493283" lon="14.9902267"><ele>22.200000000000003</ele><time>2026-05-02T13:32:15.977Z</time></trkpt><trkpt lat="40.3494133" lon="14.990295"><ele>21.6</ele><time>2026-05-02T13:32:17.977Z</time></trkpt><trkpt lat="40.3494767" lon="14.9903633"><ele>21.0</ele><time>2026-05-02T13:32:19.976Z</time></trkpt><trkpt lat="40.34951" lon="14.99045"><ele>21.0</ele><time>2026-05-02T13:32:22.976Z</time></trkpt><trkpt lat="40.3494683" lon="14.9905383"><ele>21.0</ele><time>2026-05-02T13:32:26.976Z</time></trkpt><trkpt lat="40.3494167" lon="14.990605"><ele>21.0</ele><time>2026-05-02T13:32:29.976Z</time></trkpt><trkpt lat="40.3493567" lon="14.99065"><ele>21.0</ele><time>2026-05-02T13:32:31.976Z</time></trkpt><trkpt lat="40.3492833" lon="14.990715"><ele>21.0</ele><time>2026-05-02T13:32:34.977Z</time></trkpt><trkpt lat="40.34923" lon="14.9907717"><ele>21.0</ele><time>2026-05-02T13:32:38.976Z</time></trkpt><trkpt lat="40.3491617" lon="14.9908317"><ele>20.0</ele><time>2026-05-02T13:32:41.976Z</time></trkpt><trkpt lat="40.349095" lon="14.9909067"><ele>19.0</ele><time>2026-05-02T13:32:44.976Z</time></trkpt><trkpt lat="40.3490433" lon="14.9909617"><ele>18.0</ele><time>2026-05-02T13:32:46.976Z</time></trkpt><trkpt lat="40.3489717" lon="14.99104"><ele>17.0</ele><time>2026-05-02T13:32:49.976Z</time></trkpt><trkpt lat="40.34892" lon="14.9911033"><ele>16.0</ele><time>2026-05-02T13:32:51.977Z</time></trkpt><trkpt lat="40.34884" lon="14.9911567"><ele>15.0</ele><time>2026-05-02T13:32:53.976Z</time></trkpt><trkpt lat="40.3487717" lon="14.99121"><ele>15.0</ele><time>2026-05-02T13:32:56.976Z</time></trkpt><trkpt lat="40.3486967" lon="14.9912683"><ele>15.0</ele><time>2026-05-02T13:32:59.977Z</time></trkpt><trkpt lat="40.348645" lon="14.99133"><ele>15.0</ele><time>2026-05-02T13:33:01.976Z</time></trkpt><trkpt lat="40.3486633" lon="14.9914433"><ele>15.0</ele><time>2026-05-02T13:33:04.976Z</time></trkpt><trkpt lat="40.3487317" lon="14.99154"><ele>15.0</ele><time>2026-05-02T13:33:06.977Z</time></trkpt><trkpt lat="40.3487883" lon="14.9916717"><ele>14.666666666666666</ele><time>2026-05-02T13:33:08.976Z</time></trkpt><trkpt lat="40.3488417" lon="14.9917667"><ele>14.333333333333332</ele><time>2026-05-02T13:33:10.976Z</time></trkpt><trkpt lat="40.348895" lon="14.9918383"><ele>14.0</ele><time>2026-05-02T13:33:12.976Z</time></trkpt><trkpt lat="40.3489467" lon="14.9919083"><ele>13.666666666666666</ele><time>2026-05-02T13:33:14.976Z</time></trkpt><trkpt lat="40.3490233" lon="14.991965"><ele>13.333333333333332</ele><time>2026-05-02T13:33:16.976Z</time></trkpt><trkpt lat="40.3491067" lon="14.99202"><ele>13.0</ele><time>2026-05-02T13:33:18.976Z</time></trkpt><trkpt lat="40.3491867" lon="14.992095"><ele>13.0</ele><time>2026-05-02T13:33:20.977Z</time></trkpt><trkpt lat="40.3492617" lon="14.9921767"><ele>13.0</ele><time>2026-05-02T13:33:22.976Z</time></trkpt><trkpt lat="40.3493483" lon="14.9922567"><ele>13.0</ele><time>2026-05-02T13:33:24.976Z</time></trkpt><trkpt lat="40.34944" lon="14.992325"><ele>13.0</ele><time>2026-05-02T13:33:26.977Z</time></trkpt><trkpt lat="40.34953" lon="14.9923933"><ele>13.0</ele><time>2026-05-02T13:33:28.977Z</time></trkpt><trkpt lat="40.3496217" lon="14.992455"><ele>13.600000000000001</ele><time>2026-05-02T13:33:30.976Z</time></trkpt><trkpt lat="40.349695" lon="14.9925067"><ele>14.200000000000001</ele><time>2026-05-02T13:33:32.977Z</time></trkpt><trkpt lat="40.349775" lon="14.9924833"><ele>14.8</ele><time>2026-05-02T13:33:34.976Z</time></trkpt><trkpt lat="40.3498367" lon="14.9923933"><ele>15.4</ele><time>2026-05-02T13:33:36.976Z</time></trkpt><trkpt lat="40.3499017" lon="14.9922767"><ele>16.0</ele><time>2026-05-02T13:33:38.976Z</time></trkpt><trkpt lat="40.3499767" lon="14.9921483"><ele>16.0</ele><time>2026-05-02T13:33:40.976Z</time></trkpt><trkpt lat="40.3500467" lon="14.992035"><ele>16.0</ele><time>2026-05-02T13:33:42.977Z</time></trkpt><trkpt lat="40.3501517" lon="14.9919467"><ele>16.0</ele><time>2026-05-02T13:33:44.977Z</time></trkpt><trkpt lat="40.3502483" lon="14.9918917"><ele>16.0</ele><time>2026-05-02T13:33:46.976Z</time></trkpt><trkpt lat="40.350345" lon="14.9918467"><ele>16.0</ele><time>2026-05-02T13:33:48.976Z</time></trkpt><trkpt lat="40.35045" lon="14.9918"><ele>16.833333333333332</ele><time>2026-05-02T13:33:50.976Z</time></trkpt><trkpt lat="40.3505417" lon="14.9917517"><ele>17.666666666666664</ele><time>2026-05-02T13:33:52.977Z</time></trkpt><trkpt lat="40.3506183" lon="14.9917383"><ele>18.5</ele><time>2026-05-02T13:33:54.976Z</time></trkpt><trkpt lat="40.3506817" lon="14.9918083"><ele>19.333333333333332</ele><time>2026-05-02T13:33:56.977Z</time></trkpt><trkpt lat="40.35071" lon="14.9919267"><ele>20.166666666666668</ele><time>2026-05-02T13:33:58.976Z</time></trkpt><trkpt lat="40.3507283" lon="14.9920117"><ele>21.0</ele><time>2026-05-02T13:34:00.977Z</time></trkpt><trkpt lat="40.3507117" lon="14.9920983"><ele>21.0</ele><time>2026-05-02T13:34:05.976Z</time></trkpt><trkpt lat="40.3506433" lon="14.992125"><ele>21.0</ele><time>2026-05-02T13:34:08.976Z</time></trkpt><trkpt lat="40.35052" lon="14.992155"><ele>21.0</ele><time>2026-05-02T13:34:25.977Z</time></trkpt><trkpt lat="40.35043" lon="14.9921933"><ele>21.0</ele><time>2026-05-02T13:34:37.976Z</time></trkpt><trkpt lat="40.35034" lon="14.9921967"><ele>21.0</ele><time>2026-05-02T13:34:40.976Z</time></trkpt><trkpt lat="40.3503483" lon="14.9922833"><ele>21.0</ele><time>2026-05-02T14:04:39.974Z</time></trkpt><trkpt lat="40.3504117" lon="14.992155"><ele>21.0</ele><time>2026-05-02T14:45:38.971Z</time></trkpt><trkpt lat="40.3504483" lon="14.992225"><ele>21.0</ele><time>2026-05-02T15:04:26.972Z</time></trkpt><trkpt lat="40.3505117" lon="14.9922"><ele>21.0</ele><time>2026-05-02T15:04:28.972Z</time></trkpt><trkpt lat="40.3505983" lon="14.992155"><ele>21.0</ele><time>2026-05-02T15:04:30.973Z</time></trkpt><trkpt lat="40.3506717" lon="14.9921117"><ele>21.0</ele><time>2026-05-02T15:04:32.973Z</time></trkpt><trkpt lat="40.350735" lon="14.99209"><ele>21.0</ele><time>2026-05-02T15:04:34.973Z</time></trkpt><trkpt lat="40.3507967" lon="14.9921283"><ele>21.0</ele><time>2026-05-02T15:04:39.972Z</time></trkpt><trkpt lat="40.3508717" lon="14.9920983"><ele>21.0</ele><time>2026-05-02T15:04:43.972Z</time></trkpt><trkpt lat="40.3509367" lon="14.9920617"><ele>21.0</ele><time>2026-05-02T15:04:46.973Z</time></trkpt><trkpt lat="40.35101" lon="14.992025"><ele>21.0</ele><time>2026-05-02T15:04:50.972Z</time></trkpt><trkpt lat="40.3510783" lon="14.9920233"><ele>21.0</ele><time>2026-05-02T15:04:53.972Z</time></trkpt><trkpt lat="40.35115" lon="14.9920467"><ele>21.0</ele><time>2026-05-02T15:04:56.972Z</time></trkpt><trkpt lat="40.3511483" lon="14.9919483"><ele>21.0</ele><time>2026-05-02T15:05:00.973Z</time></trkpt><trkpt lat="40.3511317" lon="14.9918283"><ele>21.0</ele><time>2026-05-02T15:05:02.972Z</time></trkpt><trkpt lat="40.3511133" lon="14.9916867"><ele>21.0</ele><time>2026-05-02T15:05:04.972Z</time></trkpt><trkpt lat="40.3511" lon="14.9915483"><ele>21.0</ele><time>2026-05-02T15:05:06.973Z</time></trkpt><trkpt lat="40.3510783" lon="14.9914567"><ele>21.0</ele><time>2026-05-02T15:05:08.972Z</time></trkpt><trkpt lat="40.3510367" lon="14.9913333"><ele>21.0</ele><time>2026-05-02T15:05:10.972Z</time></trkpt><trkpt lat="40.3509983" lon="14.9912333"><ele>20.6</ele><time>2026-05-02T15:05:12.973Z</time></trkpt><trkpt lat="40.3509517" lon="14.9911517"><ele>20.200000000000003</ele><time>2026-05-02T15:05:14.972Z</time></trkpt><trkpt lat="40.3508433" lon="14.99113"><ele>19.799999999999997</ele><time>2026-05-02T15:05:17.973Z</time></trkpt><trkpt lat="40.3507167" lon="14.991175"><ele>19.4</ele><time>2026-05-02T15:05:19.972Z</time></trkpt><trkpt lat="40.3506517" lon="14.9912117"><ele>19.0</ele><time>2026-05-02T15:05:20.972Z</time></trkpt><trkpt lat="40.3505183" lon="14.9912783"><ele>19.0</ele><time>2026-05-02T15:05:22.972Z</time></trkpt><trkpt lat="40.350455" lon="14.99131"><ele>19.0</ele><time>2026-05-02T15:05:23.973Z</time></trkpt><trkpt lat="40.3503917" lon="14.991335"><ele>19.0</ele><time>2026-05-02T15:05:24.972Z</time></trkpt><trkpt lat="40.3502833" lon="14.9913867"><ele>19.0</ele><time>2026-05-02T15:05:26.972Z</time></trkpt><trkpt lat="40.3501817" lon="14.991425"><ele>19.0</ele><time>2026-05-02T15:05:28.973Z</time></trkpt><trkpt lat="40.3500967" lon="14.9914333"><ele>19.0</ele><time>2026-05-02T15:05:30.972Z</time></trkpt><trkpt lat="40.3500033" lon="14.9914583"><ele>19.0</ele><time>2026-05-02T15:05:32.972Z</time></trkpt><trkpt lat="40.3498933" lon="14.99152"><ele>19.0</ele><time>2026-05-02T15:05:34.972Z</time></trkpt><trkpt lat="40.3498083" lon="14.991565"><ele>19.0</ele><time>2026-05-02T15:05:35.972Z</time></trkpt><trkpt lat="40.34971" lon="14.9916"><ele>19.0</ele><time>2026-05-02T15:05:36.972Z</time></trkpt><trkpt lat="40.3496233" lon="14.9916567"><ele>19.0</ele><time>2026-05-02T15:05:37.972Z</time></trkpt><trkpt lat="40.3495433" lon="14.99171"><ele>18.0</ele><time>2026-05-02T15:05:38.972Z</time></trkpt><trkpt lat="40.349475" lon="14.9917667"><ele>17.0</ele><time>2026-05-02T15:05:39.973Z</time></trkpt><trkpt lat="40.3494433" lon="14.9918583"><ele>16.0</ele><time>2026-05-02T15:05:40.972Z</time></trkpt><trkpt lat="40.3493867" lon="14.9919133"><ele>15.0</ele><time>2026-05-02T15:05:41.972Z</time></trkpt><trkpt lat="40.3492933" lon="14.991995"><ele>13.999999999999998</ele><time>2026-05-02T15:05:43.973Z</time></trkpt><trkpt lat="40.3492133" lon="14.99203"><ele>13.0</ele><time>2026-05-02T15:05:45.972Z</time></trkpt><trkpt lat="40.34913" lon="14.9919733"><ele>12.999999999999998</ele><time>2026-05-02T15:05:47.972Z</time></trkpt><trkpt lat="40.34904" lon="14.99188"><ele>13.0</ele><time>2026-05-02T15:05:49.972Z</time></trkpt><trkpt lat="40.34896" lon="14.991805"><ele>13.0</ele><time>2026-05-02T15:05:51.972Z</time></trkpt><trkpt lat="40.348895" lon="14.9917467"><ele>13.0</ele><time>2026-05-02T15:05:53.973Z</time></trkpt><trkpt lat="40.3488433" lon="14.9916967"><ele>12.999999999999998</ele><time>2026-05-02T15:05:55.973Z</time></trkpt><trkpt lat="40.348785" lon="14.99161"><ele>13.0</ele><time>2026-05-02T15:05:58.972Z</time></trkpt><trkpt lat="40.3487217" lon="14.9915167"><ele>13.333333333333332</ele><time>2026-05-02T15:06:01.973Z</time></trkpt><trkpt lat="40.3486683" lon="14.9914617"><ele>13.666666666666666</ele><time>2026-05-02T15:06:03.972Z</time></trkpt><trkpt lat="40.3485917" lon="14.99146"><ele>14.0</ele><time>2026-05-02T15:06:08.973Z</time></trkpt><trkpt lat="40.34853" lon="14.9914983"><ele>14.333333333333332</ele><time>2026-05-02T15:06:10.972Z</time></trkpt><trkpt lat="40.34844" lon="14.9915583"><ele>14.666666666666666</ele><time>2026-05-02T15:06:12.972Z</time></trkpt><trkpt lat="40.3483533" lon="14.991655"><ele>15.0</ele><time>2026-05-02T15:06:14.972Z</time></trkpt><trkpt lat="40.34829" lon="14.991715"><ele>14.5</ele><time>2026-05-02T15:06:15.972Z</time></trkpt><trkpt lat="40.34823" lon="14.991775"><ele>14.0</ele><time>2026-05-02T15:06:16.972Z</time></trkpt><trkpt lat="40.34816" lon="14.9918167"><ele>13.5</ele><time>2026-05-02T15:06:17.972Z</time></trkpt><trkpt lat="40.3481017" lon="14.991865"><ele>13.0</ele><time>2026-05-02T15:06:18.972Z</time></trkpt><trkpt lat="40.3480167" lon="14.99195"><ele>12.5</ele><time>2026-05-02T15:06:20.972Z</time></trkpt><trkpt lat="40.34794" lon="14.9919983"><ele>12.0</ele><time>2026-05-02T15:06:22.972Z</time></trkpt><trkpt lat="40.3478617" lon="14.9920433"><ele>12.0</ele><time>2026-05-02T15:06:25.972Z</time></trkpt><trkpt lat="40.347795" lon="14.99211"><ele>12.0</ele><time>2026-05-02T15:06:28.972Z</time></trkpt><trkpt lat="40.3477317" lon="14.992155"><ele>12.0</ele><time>2026-05-02T15:06:30.972Z</time></trkpt><trkpt lat="40.34765" lon="14.992215"><ele>12.0</ele><time>2026-05-02T15:06:32.972Z</time></trkpt><trkpt lat="40.3475217" lon="14.99232"><ele>12.0</ele><time>2026-05-02T15:06:34.972Z</time></trkpt><trkpt lat="40.34743" lon="14.9923833"><ele>12.0</ele><time>2026-05-02T15:06:35.973Z</time></trkpt><trkpt lat="40.34735" lon="14.9924617"><ele>12.0</ele><time>2026-05-02T15:06:36.972Z</time></trkpt><trkpt lat="40.3472767" lon="14.9925283"><ele>12.0</ele><time>2026-05-02T15:06:37.972Z</time></trkpt><trkpt lat="40.3472117" lon="14.9925933"><ele>12.0</ele><time>2026-05-02T15:06:38.972Z</time></trkpt><trkpt lat="40.34715" lon="14.9926383"><ele>12.0</ele><time>2026-05-02T15:06:39.973Z</time></trkpt><trkpt lat="40.347085" lon="14.9926867"><ele>12.0</ele><time>2026-05-02T15:06:40.972Z</time></trkpt><trkpt lat="40.3470283" lon="14.9927533"><ele>11.0</ele><time>2026-05-02T15:06:41.972Z</time></trkpt><trkpt lat="40.3469567" lon="14.9928267"><ele>10.0</ele><time>2026-05-02T15:06:42.972Z</time></trkpt><trkpt lat="40.3468817" lon="14.9929233"><ele>9.0</ele><time>2026-05-02T15:06:43.973Z</time></trkpt><trkpt lat="40.3467917" lon="14.99303"><ele>8.0</ele><time>2026-05-02T15:06:44.973Z</time></trkpt><trkpt lat="40.3466817" lon="14.9931333"><ele>8.0</ele><time>2026-05-02T15:06:45.973Z</time></trkpt><trkpt lat="40.3465783" lon="14.9932267"><ele>8.0</ele><time>2026-05-02T15:06:46.973Z</time></trkpt><trkpt lat="40.346475" lon="14.9933033"><ele>8.0</ele><time>2026-05-02T15:06:47.972Z</time></trkpt><trkpt lat="40.34638" lon="14.9933683"><ele>8.0</ele><time>2026-05-02T15:06:48.972Z</time></trkpt><trkpt lat="40.34629" lon="14.99343"><ele>7.999999999999999</ele><time>2026-05-02T15:06:49.972Z</time></trkpt><trkpt lat="40.3462083" lon="14.9934783"><ele>8.0</ele><time>2026-05-02T15:06:50.973Z</time></trkpt><trkpt lat="40.3461417" lon="14.9935217"><ele>8.0</ele><time>2026-05-02T15:06:51.972Z</time></trkpt><trkpt lat="40.3460683" lon="14.9935717"><ele>8.0</ele><time>2026-05-02T15:06:52.972Z</time></trkpt><trkpt lat="40.3460083" lon="14.9936317"><ele>7.999999999999999</ele><time>2026-05-02T15:06:53.972Z</time></trkpt><trkpt lat="40.3459517" lon="14.9936933"><ele>8.0</ele><time>2026-05-02T15:06:54.973Z</time></trkpt><trkpt lat="40.3459017" lon="14.9937567"><ele>7.999999999999999</ele><time>2026-05-02T15:06:55.972Z</time></trkpt><trkpt lat="40.34585" lon="14.9938133"><ele>8.0</ele><time>2026-05-02T15:06:56.973Z</time></trkpt><trkpt lat="40.3457933" lon="14.993885"><ele>8.0</ele><time>2026-05-02T15:06:57.973Z</time></trkpt><trkpt lat="40.3457283" lon="14.9939733"><ele>8.0</ele><time>2026-05-02T15:06:58.973Z</time></trkpt><trkpt lat="40.345665" lon="14.994055"><ele>7.999999999999999</ele><time>2026-05-02T15:06:59.972Z</time></trkpt><trkpt lat="40.3455967" lon="14.9941033"><ele>8.0</ele><time>2026-05-02T15:07:00.972Z</time></trkpt><trkpt lat="40.3455467" lon="14.9941633"><ele>8.600000000000001</ele><time>2026-05-02T15:07:01.973Z</time></trkpt><trkpt lat="40.34549" lon="14.994235"><ele>9.200000000000001</ele><time>2026-05-02T15:07:02.972Z</time></trkpt><trkpt lat="40.3454167" lon="14.9943083"><ele>9.8</ele><time>2026-05-02T15:07:03.972Z</time></trkpt><trkpt lat="40.34533" lon="14.9943817"><ele>10.4</ele><time>2026-05-02T15:07:04.972Z</time></trkpt><trkpt lat="40.3452483" lon="14.9944517"><ele>11.0</ele><time>2026-05-02T15:07:05.973Z</time></trkpt><trkpt lat="40.3451683" lon="14.99453"><ele>11.0</ele><time>2026-05-02T15:07:06.973Z</time></trkpt><trkpt lat="40.3450833" lon="14.9946017"><ele>11.0</ele><time>2026-05-02T15:07:07.973Z</time></trkpt><trkpt lat="40.3449917" lon="14.99468"><ele>11.0</ele><time>2026-05-02T15:07:08.972Z</time></trkpt><trkpt lat="40.3449033" lon="14.9947667"><ele>11.0</ele><time>2026-05-02T15:07:09.972Z</time></trkpt><trkpt lat="40.34482" lon="14.9948467"><ele>11.0</ele><time>2026-05-02T15:07:10.973Z</time></trkpt><trkpt lat="40.344745" lon="14.99491"><ele>11.166666666666666</ele><time>2026-05-02T15:07:11.972Z</time></trkpt><trkpt lat="40.3446767" lon="14.9949633"><ele>11.333333333333332</ele><time>2026-05-02T15:07:12.972Z</time></trkpt><trkpt lat="40.3446133" lon="14.9950117"><ele>11.5</ele><time>2026-05-02T15:07:13.972Z</time></trkpt><trkpt lat="40.3445467" lon="14.9950783"><ele>11.666666666666666</ele><time>2026-05-02T15:07:14.972Z</time></trkpt><trkpt lat="40.3444717" lon="14.9951433"><ele>11.833333333333334</ele><time>2026-05-02T15:07:15.972Z</time></trkpt><trkpt lat="40.344395" lon="14.9952133"><ele>12.0</ele><time>2026-05-02T15:07:16.972Z</time></trkpt><trkpt lat="40.34432" lon="14.995285"><ele>11.4</ele><time>2026-05-02T15:07:17.972Z</time></trkpt><trkpt lat="40.3442483" lon="14.995355"><ele>10.799999999999999</ele><time>2026-05-02T15:07:18.973Z</time></trkpt><trkpt lat="40.344175" lon="14.995425"><ele>10.2</ele><time>2026-05-02T15:07:19.972Z</time></trkpt><trkpt lat="40.344105" lon="14.9955133"><ele>9.6</ele><time>2026-05-02T15:07:20.972Z</time></trkpt><trkpt lat="40.3440183" lon="14.9956017"><ele>9.0</ele><time>2026-05-02T15:07:21.972Z</time></trkpt><trkpt lat="40.343925" lon="14.995695"><ele>9.2</ele><time>2026-05-02T15:07:22.973Z</time></trkpt><trkpt lat="40.3438333" lon="14.99577"><ele>9.4</ele><time>2026-05-02T15:07:23.972Z</time></trkpt><trkpt lat="40.3437533" lon="14.9958483"><ele>9.6</ele><time>2026-05-02T15:07:24.973Z</time></trkpt><trkpt lat="40.3436733" lon="14.9959233"><ele>9.8</ele><time>2026-05-02T15:07:25.972Z</time></trkpt><trkpt lat="40.34359" lon="14.9959933"><ele>10.0</ele><time>2026-05-02T15:07:26.972Z</time></trkpt><trkpt lat="40.3435017" lon="14.9960717"><ele>10.25</ele><time>2026-05-02T15:07:27.973Z</time></trkpt><trkpt lat="40.3433967" lon="14.996155"><ele>10.5</ele><time>2026-05-02T15:07:28.972Z</time></trkpt><trkpt lat="40.3432933" lon="14.9962367"><ele>10.75</ele><time>2026-05-02T15:07:29.972Z</time></trkpt><trkpt lat="40.3432033" lon="14.9963233"><ele>11.0</ele><time>2026-05-02T15:07:30.972Z</time></trkpt><trkpt lat="40.3431017" lon="14.9964"><ele>11.25</ele><time>2026-05-02T15:07:31.972Z</time></trkpt><trkpt lat="40.3430017" lon="14.996495"><ele>11.5</ele><time>2026-05-02T15:07:32.972Z</time></trkpt><trkpt lat="40.3428983" lon="14.9965833"><ele>11.75</ele><time>2026-05-02T15:07:33.973Z</time></trkpt><trkpt lat="40.34278" lon="14.9966833"><ele>12.0</ele><time>2026-05-02T15:07:34.973Z</time></trkpt><trkpt lat="40.3426617" lon="14.9967867"><ele>12.0</ele><time>2026-05-02T15:07:35.973Z</time></trkpt><trkpt lat="40.342525" lon="14.9968967"><ele>12.0</ele><time>2026-05-02T15:07:36.973Z</time></trkpt><trkpt lat="40.3423883" lon="14.9969883"><ele>12.0</ele><time>2026-05-02T15:07:37.973Z</time></trkpt><trkpt lat="40.342265" lon="14.9970767"><ele>12.75</ele><time>2026-05-02T15:07:38.973Z</time></trkpt><trkpt lat="40.34216" lon="14.997155"><ele>13.5</ele><time>2026-05-02T15:07:39.973Z</time></trkpt><trkpt lat="40.3420583" lon="14.9972367"><ele>14.25</ele><time>2026-05-02T15:07:40.973Z</time></trkpt><trkpt lat="40.341965" lon="14.9973083"><ele>15.0</ele><time>2026-05-02T15:07:41.973Z</time></trkpt><trkpt lat="40.3418767" lon="14.9973783"><ele>15.0</ele><time>2026-05-02T15:07:42.972Z</time></trkpt><trkpt lat="40.341785" lon="14.9974433"><ele>15.0</ele><time>2026-05-02T15:07:43.973Z</time></trkpt><trkpt lat="40.3416967" lon="14.997515"><ele>15.0</ele><time>2026-05-02T15:07:44.973Z</time></trkpt><trkpt lat="40.3416033" lon="14.9975883"><ele>15.0</ele><time>2026-05-02T15:07:45.972Z</time></trkpt><trkpt lat="40.3415067" lon="14.99766"><ele>15.0</ele><time>2026-05-02T15:07:46.972Z</time></trkpt><trkpt lat="40.341415" lon="14.9977333"><ele>15.4</ele><time>2026-05-02T15:07:47.972Z</time></trkpt><trkpt lat="40.3413183" lon="14.9978117"><ele>15.8</ele><time>2026-05-02T15:07:48.972Z</time></trkpt><trkpt lat="40.34122" lon="14.99788"><ele>16.2</ele><time>2026-05-02T15:07:49.973Z</time></trkpt><trkpt lat="40.3411383" lon="14.99795"><ele>16.6</ele><time>2026-05-02T15:07:50.973Z</time></trkpt><trkpt lat="40.341065" lon="14.998005"><ele>17.0</ele><time>2026-05-02T15:07:51.972Z</time></trkpt><trkpt lat="40.341" lon="14.99805"><ele>17.0</ele><time>2026-05-02T15:07:52.972Z</time></trkpt><trkpt lat="40.3409417" lon="14.998085"><ele>17.0</ele><time>2026-05-02T15:07:53.972Z</time></trkpt><trkpt lat="40.3408267" lon="14.9981333"><ele>17.0</ele><time>2026-05-02T15:07:55.972Z</time></trkpt><trkpt lat="40.3407083" lon="14.9981483"><ele>17.0</ele><time>2026-05-02T15:07:57.972Z</time></trkpt><trkpt lat="40.3406183" lon="14.99824"><ele>17.0</ele><time>2026-05-02T15:07:59.972Z</time></trkpt><trkpt lat="40.3405917" lon="14.99832"><ele>17.0</ele><time>2026-05-02T15:08:00.973Z</time></trkpt><trkpt lat="40.34056" lon="14.998405"><ele>17.0</ele><time>2026-05-02T15:08:01.973Z</time></trkpt><trkpt lat="40.34052" lon="14.998495"><ele>17.0</ele><time>2026-05-02T15:08:02.972Z</time></trkpt><trkpt lat="40.3404683" lon="14.998595"><ele>17.0</ele><time>2026-05-02T15:08:03.972Z</time></trkpt><trkpt lat="40.3404033" lon="14.9986933"><ele>17.0</ele><time>2026-05-02T15:08:04.972Z</time></trkpt><trkpt lat="40.34033" lon="14.99879"><ele>17.0</ele><time>2026-05-02T15:08:05.972Z</time></trkpt><trkpt lat="40.3402467" lon="14.998885"><ele>17.0</ele><time>2026-05-02T15:08:06.973Z</time></trkpt><trkpt lat="40.3401633" lon="14.998985"><ele>17.0</ele><time>2026-05-02T15:08:07.973Z</time></trkpt><trkpt lat="40.3400883" lon="14.9991183"><ele>17.0</ele><time>2026-05-02T15:08:08.972Z</time></trkpt><trkpt lat="40.3400117" lon="14.9992617"><ele>17.0</ele><time>2026-05-02T15:08:09.973Z</time></trkpt><trkpt lat="40.3399533" lon="14.999425"><ele>17.0</ele><time>2026-05-02T15:08:10.972Z</time></trkpt><trkpt lat="40.3399067" lon="14.99961"><ele>17.0</ele><time>2026-05-02T15:08:11.973Z</time></trkpt><trkpt lat="40.3398717" lon="14.99982"><ele>17.0</ele><time>2026-05-02T15:08:12.973Z</time></trkpt><trkpt lat="40.33983" lon="15.00005"><ele>17.0</ele><time>2026-05-02T15:08:13.973Z</time></trkpt><trkpt lat="40.339795" lon="15.0002883"><ele>17.0</ele><time>2026-05-02T15:08:14.973Z</time></trkpt><trkpt lat="40.3397433" lon="15.00054"><ele>17.0</ele><time>2026-05-02T15:08:15.972Z</time></trkpt><trkpt lat="40.33967" lon="15.00079"><ele>23.0</ele><time>2026-05-02T15:08:16.972Z</time></trkpt><trkpt lat="40.3395783" lon="15.00103"><ele>29.0</ele><time>2026-05-02T15:08:17.973Z</time></trkpt><trkpt lat="40.3394717" lon="15.0012383"><ele>35.0</ele><time>2026-05-02T15:08:18.972Z</time></trkpt><trkpt lat="40.3393467" lon="15.0014183"><ele>35.0</ele><time>2026-05-02T15:08:19.972Z</time></trkpt><trkpt lat="40.33922" lon="15.0015767"><ele>35.0</ele><time>2026-05-02T15:08:20.972Z</time></trkpt><trkpt lat="40.339105" lon="15.0017067"><ele>35.0</ele><time>2026-05-02T15:08:21.972Z</time></trkpt><trkpt lat="40.33898" lon="15.0018033"><ele>32.5</ele><time>2026-05-02T15:08:22.972Z</time></trkpt><trkpt lat="40.3388617" lon="15.0018633"><ele>30.0</ele><time>2026-05-02T15:08:23.972Z</time></trkpt><trkpt lat="40.3387483" lon="15.0018867"><ele>27.5</ele><time>2026-05-02T15:08:24.973Z</time></trkpt><trkpt lat="40.3386383" lon="15.0018817"><ele>25.0</ele><time>2026-05-02T15:08:25.973Z</time></trkpt><trkpt lat="40.33853" lon="15.0018733"><ele>25.0</ele><time>2026-05-02T15:08:26.973Z</time></trkpt><trkpt lat="40.338425" lon="15.00187"><ele>25.0</ele><time>2026-05-02T15:08:27.972Z</time></trkpt><trkpt lat="40.3383217" lon="15.00187"><ele>25.0</ele><time>2026-05-02T15:08:28.972Z</time></trkpt><trkpt lat="40.3382133" lon="15.0018783"><ele>25.0</ele><time>2026-05-02T15:08:29.972Z</time></trkpt><trkpt lat="40.3381033" lon="15.0019033"><ele>25.0</ele><time>2026-05-02T15:08:30.972Z</time></trkpt><trkpt lat="40.3379933" lon="15.0019467"><ele>25.500000000000004</ele><time>2026-05-02T15:08:31.972Z</time></trkpt><trkpt lat="40.337895" lon="15.00199"><ele>26.0</ele><time>2026-05-02T15:08:32.972Z</time></trkpt><trkpt lat="40.3378133" lon="15.0020267"><ele>26.5</ele><time>2026-05-02T15:08:33.972Z</time></trkpt><trkpt lat="40.3377467" lon="15.0020583"><ele>27.0</ele><time>2026-05-02T15:08:34.972Z</time></trkpt><trkpt lat="40.337685" lon="15.0020883"><ele>27.500000000000004</ele><time>2026-05-02T15:08:35.972Z</time></trkpt><trkpt lat="40.3375767" lon="15.0021333"><ele>28.0</ele><time>2026-05-02T15:08:37.972Z</time></trkpt><trkpt lat="40.3375167" lon="15.0021617"><ele>28.0</ele><time>2026-05-02T15:08:38.972Z</time></trkpt><trkpt lat="40.3374" lon="15.00222"><ele>27.999999999999996</ele><time>2026-05-02T15:08:40.972Z</time></trkpt><trkpt lat="40.3373067" lon="15.0022783"><ele>27.999999999999996</ele><time>2026-05-02T15:08:42.972Z</time></trkpt><trkpt lat="40.3372467" lon="15.00232"><ele>28.0</ele><time>2026-05-02T15:08:45.972Z</time></trkpt><trkpt lat="40.3371717" lon="15.0023817"><ele>28.0</ele><time>2026-05-02T15:08:48.972Z</time></trkpt><trkpt lat="40.3370933" lon="15.002405"><ele>27.666666666666668</ele><time>2026-05-02T15:08:51.972Z</time></trkpt><trkpt lat="40.3370017" lon="15.0024383"><ele>27.333333333333336</ele><time>2026-05-02T15:08:54.972Z</time></trkpt><trkpt lat="40.336935" lon="15.0025167"><ele>27.0</ele><time>2026-05-02T15:08:56.973Z</time></trkpt><trkpt lat="40.3369467" lon="15.0026417"><ele>26.666666666666664</ele><time>2026-05-02T15:08:58.972Z</time></trkpt><trkpt lat="40.3369917" lon="15.0027117"><ele>26.333333333333332</ele><time>2026-05-02T15:08:59.972Z</time></trkpt><trkpt lat="40.3370567" lon="15.002795"><ele>26.0</ele><time>2026-05-02T15:09:00.972Z</time></trkpt><trkpt lat="40.337125" lon="15.002895"><ele>26.0</ele><time>2026-05-02T15:09:01.972Z</time></trkpt><trkpt lat="40.3371833" lon="15.0030233"><ele>26.0</ele><time>2026-05-02T15:09:02.972Z</time></trkpt><trkpt lat="40.3372317" lon="15.003165"><ele>26.0</ele><time>2026-05-02T15:09:03.972Z</time></trkpt><trkpt lat="40.3372717" lon="15.0033017"><ele>26.0</ele><time>2026-05-02T15:09:04.973Z</time></trkpt><trkpt lat="40.3373" lon="15.0034433"><ele>23.25</ele><time>2026-05-02T15:09:05.972Z</time></trkpt><trkpt lat="40.337335" lon="15.0035967"><ele>20.5</ele><time>2026-05-02T15:09:06.973Z</time></trkpt><trkpt lat="40.3373717" lon="15.003755"><ele>17.75</ele><time>2026-05-02T15:09:07.972Z</time></trkpt><trkpt lat="40.3374167" lon="15.0039167"><ele>15.0</ele><time>2026-05-02T15:09:08.972Z</time></trkpt><trkpt lat="40.3374533" lon="15.0040783"><ele>15.0</ele><time>2026-05-02T15:09:09.973Z</time></trkpt><trkpt lat="40.3374983" lon="15.004245"><ele>15.0</ele><time>2026-05-02T15:09:10.973Z</time></trkpt><trkpt lat="40.337545" lon="15.0044133"><ele>15.0</ele><time>2026-05-02T15:09:11.972Z</time></trkpt><trkpt lat="40.33759" lon="15.00459"><ele>15.0</ele><time>2026-05-02T15:09:12.972Z</time></trkpt><trkpt lat="40.3376317" lon="15.00477"><ele>15.0</ele><time>2026-05-02T15:09:13.973Z</time></trkpt><trkpt lat="40.3376733" lon="15.0049433"><ele>15.0</ele><time>2026-05-02T15:09:14.973Z</time></trkpt><trkpt lat="40.337715" lon="15.0051183"><ele>15.0</ele><time>2026-05-02T15:09:15.972Z</time></trkpt><trkpt lat="40.33776" lon="15.00528"><ele>15.0</ele><time>2026-05-02T15:09:16.972Z</time></trkpt><trkpt lat="40.3378067" lon="15.00544"><ele>15.0</ele><time>2026-05-02T15:09:17.972Z</time></trkpt><trkpt lat="40.3378517" lon="15.0055933"><ele>15.0</ele><time>2026-05-02T15:09:18.972Z</time></trkpt><trkpt lat="40.33789" lon="15.0057467"><ele>15.0</ele><time>2026-05-02T15:09:19.972Z</time></trkpt><trkpt lat="40.3379233" lon="15.0059183"><ele>15.0</ele><time>2026-05-02T15:09:20.972Z</time></trkpt><trkpt lat="40.3379767" lon="15.0060767"><ele>15.0</ele><time>2026-05-02T15:09:21.972Z</time></trkpt><trkpt lat="40.338005" lon="15.0062367"><ele>15.0</ele><time>2026-05-02T15:09:22.972Z</time></trkpt><trkpt lat="40.3380333" lon="15.00637"><ele>15.0</ele><time>2026-05-02T15:09:23.972Z</time></trkpt><trkpt lat="40.3380683" lon="15.0064717"><ele>15.0</ele><time>2026-05-02T15:09:24.972Z</time></trkpt><trkpt lat="40.3380933" lon="15.0065583"><ele>15.0</ele><time>2026-05-02T15:09:25.972Z</time></trkpt><trkpt lat="40.3381167" lon="15.006635"><ele>15.0</ele><time>2026-05-02T15:09:26.973Z</time></trkpt><trkpt lat="40.3381417" lon="15.006745"><ele>14.833333333333334</ele><time>2026-05-02T15:09:28.972Z</time></trkpt><trkpt lat="40.3381667" lon="15.0068433"><ele>14.666666666666668</ele><time>2026-05-02T15:09:30.972Z</time></trkpt><trkpt lat="40.3381917" lon="15.0069483"><ele>14.5</ele><time>2026-05-02T15:09:32.972Z</time></trkpt><trkpt lat="40.3382133" lon="15.0070583"><ele>14.333333333333334</ele><time>2026-05-02T15:09:34.973Z</time></trkpt><trkpt lat="40.33821" lon="15.0071683"><ele>14.166666666666668</ele><time>2026-05-02T15:09:36.972Z</time></trkpt><trkpt lat="40.3381767" lon="15.0072717"><ele>14.0</ele><time>2026-05-02T15:09:38.972Z</time></trkpt><trkpt lat="40.3380883" lon="15.0073633"><ele>14.285714285714285</ele><time>2026-05-02T15:09:40.972Z</time></trkpt><trkpt lat="40.33802" lon="15.0073883"><ele>14.571428571428571</ele><time>2026-05-02T15:09:41.972Z</time></trkpt><trkpt lat="40.33795" lon="15.00738"><ele>14.857142857142858</ele><time>2026-05-02T15:09:42.972Z</time></trkpt><trkpt lat="40.33788" lon="15.0073467"><ele>15.142857142857142</ele><time>2026-05-02T15:09:43.973Z</time></trkpt><trkpt lat="40.3378233" lon="15.0072967"><ele>15.428571428571427</ele><time>2026-05-02T15:09:44.972Z</time></trkpt><trkpt lat="40.3377717" lon="15.0072333"><ele>15.714285714285714</ele><time>2026-05-02T15:09:45.973Z</time></trkpt><trkpt lat="40.33773" lon="15.0071467"><ele>16.0</ele><time>2026-05-02T15:09:46.972Z</time></trkpt><trkpt lat="40.3376817" lon="15.0070467"><ele>15.999999999999998</ele><time>2026-05-02T15:09:47.972Z</time></trkpt><trkpt lat="40.3376483" lon="15.006945"><ele>16.0</ele><time>2026-05-02T15:09:48.972Z</time></trkpt><trkpt lat="40.3376283" lon="15.006835"><ele>16.0</ele><time>2026-05-02T15:09:49.972Z</time></trkpt><trkpt lat="40.3376217" lon="15.0067217"><ele>16.0</ele><time>2026-05-02T15:09:50.972Z</time></trkpt><trkpt lat="40.3376317" lon="15.0066067"><ele>15.999999999999998</ele><time>2026-05-02T15:09:51.972Z</time></trkpt><trkpt lat="40.3376583" lon="15.0065"><ele>16.0</ele><time>2026-05-02T15:09:52.972Z</time></trkpt><trkpt lat="40.3376967" lon="15.0064033"><ele>15.8</ele><time>2026-05-02T15:09:53.973Z</time></trkpt><trkpt lat="40.3377533" lon="15.0063033"><ele>15.600000000000001</ele><time>2026-05-02T15:09:54.972Z</time></trkpt><trkpt lat="40.33783" lon="15.00621"><ele>15.4</ele><time>2026-05-02T15:09:55.972Z</time></trkpt><trkpt lat="40.3379117" lon="15.0061367"><ele>15.2</ele><time>2026-05-02T15:09:56.973Z</time></trkpt><trkpt lat="40.337995" lon="15.0060567"><ele>15.0</ele><time>2026-05-02T15:09:57.972Z</time></trkpt><trkpt lat="40.3380767" lon="15.0059767"><ele>15.5</ele><time>2026-05-02T15:09:58.973Z</time></trkpt><trkpt lat="40.3381633" lon="15.00589"><ele>16.0</ele><time>2026-05-02T15:09:59.973Z</time></trkpt><trkpt lat="40.338255" lon="15.0058083"><ele>16.5</ele><time>2026-05-02T15:10:00.972Z</time></trkpt><trkpt lat="40.33836" lon="15.0057083"><ele>17.0</ele><time>2026-05-02T15:10:01.972Z</time></trkpt><trkpt lat="40.3384733" lon="15.0056"><ele>17.0</ele><time>2026-05-02T15:10:02.973Z</time></trkpt><trkpt lat="40.3385767" lon="15.0054933"><ele>17.0</ele><time>2026-05-02T15:10:03.972Z</time></trkpt><trkpt lat="40.3386783" lon="15.0053917"><ele>17.0</ele><time>2026-05-02T15:10:04.973Z</time></trkpt><trkpt lat="40.3387933" lon="15.00529"><ele>17.0</ele><time>2026-05-02T15:10:05.973Z</time></trkpt><trkpt lat="40.338915" lon="15.0051633"><ele>16.0</ele><time>2026-05-02T15:10:06.973Z</time></trkpt><trkpt lat="40.3390417" lon="15.0050333"><ele>15.0</ele><time>2026-05-02T15:10:07.972Z</time></trkpt><trkpt lat="40.3391817" lon="15.0048883"><ele>14.0</ele><time>2026-05-02T15:10:08.972Z</time></trkpt><trkpt lat="40.3393467" lon="15.004735"><ele>14.0</ele><time>2026-05-02T15:10:09.972Z</time></trkpt><trkpt lat="40.3395233" lon="15.0045567"><ele>14.0</ele><time>2026-05-02T15:10:10.972Z</time></trkpt><trkpt lat="40.3397267" lon="15.004365"><ele>13.0</ele><time>2026-05-02T15:10:11.973Z</time></trkpt><trkpt lat="40.3399417" lon="15.00416"><ele>12.0</ele><time>2026-05-02T15:10:12.973Z</time></trkpt><trkpt lat="40.34017" lon="15.0039467"><ele>12.0</ele><time>2026-05-02T15:10:13.972Z</time></trkpt><trkpt lat="40.3403817" lon="15.0037583"><ele>12.0</ele><time>2026-05-02T15:10:14.972Z</time></trkpt><trkpt lat="40.3405767" lon="15.0035817"><ele>11.666666666666666</ele><time>2026-05-02T15:10:15.972Z</time></trkpt><trkpt lat="40.3407433" lon="15.003425"><ele>11.333333333333332</ele><time>2026-05-02T15:10:16.973Z</time></trkpt><trkpt lat="40.34089" lon="15.00329"><ele>11.0</ele><time>2026-05-02T15:10:17.972Z</time></trkpt><trkpt lat="40.3410183" lon="15.0031683"><ele>10.75</ele><time>2026-05-02T15:10:18.972Z</time></trkpt><trkpt lat="40.3411467" lon="15.00305"><ele>10.5</ele><time>2026-05-02T15:10:19.972Z</time></trkpt><trkpt lat="40.3412717" lon="15.002945"><ele>10.25</ele><time>2026-05-02T15:10:20.972Z</time></trkpt><trkpt lat="40.3413883" lon="15.0028483"><ele>10.0</ele><time>2026-05-02T15:10:21.972Z</time></trkpt><trkpt lat="40.3415" lon="15.002755"><ele>10.5</ele><time>2026-05-02T15:10:22.973Z</time></trkpt><trkpt lat="40.3416117" lon="15.0026717"><ele>11.0</ele><time>2026-05-02T15:10:23.972Z</time></trkpt><trkpt lat="40.34172" lon="15.00259"><ele>11.5</ele><time>2026-05-02T15:10:24.973Z</time></trkpt><trkpt lat="40.34183" lon="15.0025117"><ele>12.0</ele><time>2026-05-02T15:10:25.972Z</time></trkpt><trkpt lat="40.34194" lon="15.00243"><ele>12.0</ele><time>2026-05-02T15:10:26.972Z</time></trkpt><trkpt lat="40.3420567" lon="15.0023517"><ele>12.0</ele><time>2026-05-02T15:10:27.972Z</time></trkpt><trkpt lat="40.3421717" lon="15.0022733"><ele>12.0</ele><time>2026-05-02T15:10:28.972Z</time></trkpt><trkpt lat="40.342295" lon="15.002205"><ele>12.0</ele><time>2026-05-02T15:10:29.972Z</time></trkpt><trkpt lat="40.3424283" lon="15.0021383"><ele>11.25</ele><time>2026-05-02T15:10:30.973Z</time></trkpt><trkpt lat="40.3425617" lon="15.0020733"><ele>10.5</ele><time>2026-05-02T15:10:31.972Z</time></trkpt><trkpt lat="40.34269" lon="15.002005"><ele>9.75</ele><time>2026-05-02T15:10:32.973Z</time></trkpt><trkpt lat="40.3428133" lon="15.0019467"><ele>9.0</ele><time>2026-05-02T15:10:33.972Z</time></trkpt><trkpt lat="40.3429383" lon="15.0018983"><ele>9.25</ele><time>2026-05-02T15:10:34.973Z</time></trkpt><trkpt lat="40.3430633" lon="15.00185"><ele>9.5</ele><time>2026-05-02T15:10:35.972Z</time></trkpt><trkpt lat="40.3431867" lon="15.0018083"><ele>9.75</ele><time>2026-05-02T15:10:36.972Z</time></trkpt><trkpt lat="40.3433067" lon="15.0017683"><ele>10.0</ele><time>2026-05-02T15:10:37.972Z</time></trkpt><trkpt lat="40.343425" lon="15.00174"><ele>10.0</ele><time>2026-05-02T15:10:38.973Z</time></trkpt><trkpt lat="40.343545" lon="15.00171"><ele>10.0</ele><time>2026-05-02T15:10:39.973Z</time></trkpt><trkpt lat="40.3436717" lon="15.0016867"><ele>10.0</ele><time>2026-05-02T15:10:40.973Z</time></trkpt><trkpt lat="40.3437983" lon="15.00167"><ele>10.0</ele><time>2026-05-02T15:10:41.972Z</time></trkpt><trkpt lat="40.3439217" lon="15.0016583"><ele>9.75</ele><time>2026-05-02T15:10:42.972Z</time></trkpt><trkpt lat="40.34405" lon="15.0016417"><ele>9.5</ele><time>2026-05-02T15:10:43.972Z</time></trkpt><trkpt lat="40.3441783" lon="15.0016267"><ele>9.25</ele><time>2026-05-02T15:10:44.972Z</time></trkpt><trkpt lat="40.3442967" lon="15.0016167"><ele>9.0</ele><time>2026-05-02T15:10:45.973Z</time></trkpt><trkpt lat="40.344415" lon="15.001615"><ele>9.0</ele><time>2026-05-02T15:10:46.972Z</time></trkpt><trkpt lat="40.34453" lon="15.0016267"><ele>9.0</ele><time>2026-05-02T15:10:47.972Z</time></trkpt><trkpt lat="40.3446483" lon="15.0016317"><ele>9.0</ele><time>2026-05-02T15:10:48.973Z</time></trkpt><trkpt lat="40.3447717" lon="15.001635"><ele>9.0</ele><time>2026-05-02T15:10:49.972Z</time></trkpt><trkpt lat="40.3449" lon="15.0016467"><ele>9.25</ele><time>2026-05-02T15:10:50.972Z</time></trkpt><trkpt lat="40.345025" lon="15.0016633"><ele>9.5</ele><time>2026-05-02T15:10:51.972Z</time></trkpt><trkpt lat="40.3451567" lon="15.0016717"><ele>9.75</ele><time>2026-05-02T15:10:52.973Z</time></trkpt><trkpt lat="40.3452833" lon="15.001685"><ele>10.0</ele><time>2026-05-02T15:10:53.972Z</time></trkpt><trkpt lat="40.3454133" lon="15.0017017"><ele>11.75</ele><time>2026-05-02T15:10:54.972Z</time></trkpt><trkpt lat="40.3455467" lon="15.0017183"><ele>13.5</ele><time>2026-05-02T15:10:55.972Z</time></trkpt><trkpt lat="40.345685" lon="15.0017367"><ele>15.25</ele><time>2026-05-02T15:10:56.972Z</time></trkpt><trkpt lat="40.3458167" lon="15.00175"><ele>17.0</ele><time>2026-05-02T15:10:57.972Z</time></trkpt><trkpt lat="40.3459483" lon="15.00176"><ele>17.0</ele><time>2026-05-02T15:10:58.972Z</time></trkpt><trkpt lat="40.34608" lon="15.0017783"><ele>17.0</ele><time>2026-05-02T15:10:59.972Z</time></trkpt><trkpt lat="40.34622" lon="15.0018"><ele>17.0</ele><time>2026-05-02T15:11:00.972Z</time></trkpt><trkpt lat="40.3463433" lon="15.0018233"><ele>17.0</ele><time>2026-05-02T15:11:01.972Z</time></trkpt><trkpt lat="40.3464683" lon="15.0018467"><ele>17.5</ele><time>2026-05-02T15:11:02.973Z</time></trkpt><trkpt lat="40.3465883" lon="15.0018617"><ele>18.0</ele><time>2026-05-02T15:11:03.972Z</time></trkpt><trkpt lat="40.346705" lon="15.001885"><ele>18.5</ele><time>2026-05-02T15:11:04.972Z</time></trkpt><trkpt lat="40.3468183" lon="15.0018983"><ele>19.0</ele><time>2026-05-02T15:11:05.973Z</time></trkpt><trkpt lat="40.34693" lon="15.0019"><ele>19.0</ele><time>2026-05-02T15:11:06.973Z</time></trkpt><trkpt lat="40.3470383" lon="15.0019183"><ele>19.0</ele><time>2026-05-02T15:11:07.973Z</time></trkpt><trkpt lat="40.3471467" lon="15.001945"><ele>19.0</ele><time>2026-05-02T15:11:08.972Z</time></trkpt><trkpt lat="40.34726" lon="15.00196"><ele>19.0</ele><time>2026-05-02T15:11:09.973Z</time></trkpt><trkpt lat="40.3473817" lon="15.0019733"><ele>19.0</ele><time>2026-05-02T15:11:10.972Z</time></trkpt><trkpt lat="40.34751" lon="15.0019883"><ele>19.0</ele><time>2026-05-02T15:11:11.973Z</time></trkpt><trkpt lat="40.3476417" lon="15.0020067"><ele>19.0</ele><time>2026-05-02T15:11:12.972Z</time></trkpt><trkpt lat="40.3477783" lon="15.00203"><ele>19.0</ele><time>2026-05-02T15:11:13.972Z</time></trkpt><trkpt lat="40.3479267" lon="15.0020583"><ele>18.666666666666664</ele><time>2026-05-02T15:11:14.972Z</time></trkpt><trkpt lat="40.3480917" lon="15.002085"><ele>18.333333333333332</ele><time>2026-05-02T15:11:15.972Z</time></trkpt><trkpt lat="40.3482567" lon="15.0021083"><ele>18.0</ele><time>2026-05-02T15:11:16.972Z</time></trkpt><trkpt lat="40.3484133" lon="15.0021367"><ele>18.0</ele><time>2026-05-02T15:11:17.972Z</time></trkpt><trkpt lat="40.3485667" lon="15.0021617"><ele>18.0</ele><time>2026-05-02T15:11:18.973Z</time></trkpt><trkpt lat="40.3487133" lon="15.00219"><ele>18.0</ele><time>2026-05-02T15:11:19.972Z</time></trkpt><trkpt lat="40.3488633" lon="15.00224"><ele>16.75</ele><time>2026-05-02T15:11:20.972Z</time></trkpt><trkpt lat="40.349" lon="15.0022733"><ele>15.5</ele><time>2026-05-02T15:11:21.972Z</time></trkpt><trkpt lat="40.349135" lon="15.0023133"><ele>14.25</ele><time>2026-05-02T15:11:22.972Z</time></trkpt><trkpt lat="40.3492783" lon="15.0023533"><ele>13.0</ele><time>2026-05-02T15:11:23.972Z</time></trkpt><trkpt lat="40.3494217" lon="15.0023967"><ele>13.0</ele><time>2026-05-02T15:11:24.972Z</time></trkpt><trkpt lat="40.3495717" lon="15.0024417"><ele>13.0</ele><time>2026-05-02T15:11:25.972Z</time></trkpt><trkpt lat="40.3497133" lon="15.0024983"><ele>13.0</ele><time>2026-05-02T15:11:26.972Z</time></trkpt><trkpt lat="40.3498567" lon="15.002555"><ele>14.666666666666666</ele><time>2026-05-02T15:11:27.972Z</time></trkpt><trkpt lat="40.3499967" lon="15.0026117"><ele>16.333333333333332</ele><time>2026-05-02T15:11:28.973Z</time></trkpt><trkpt lat="40.3501417" lon="15.0026733"><ele>18.0</ele><time>2026-05-02T15:11:29.972Z</time></trkpt><trkpt lat="40.350285" lon="15.002745"><ele>18.0</ele><time>2026-05-02T15:11:30.972Z</time></trkpt><trkpt lat="40.3504283" lon="15.0028117"><ele>18.0</ele><time>2026-05-02T15:11:31.972Z</time></trkpt><trkpt lat="40.3505767" lon="15.0028717"><ele>18.0</ele><time>2026-05-02T15:11:32.972Z</time></trkpt><trkpt lat="40.3507183" lon="15.0029333"><ele>16.75</ele><time>2026-05-02T15:11:33.973Z</time></trkpt><trkpt lat="40.3508667" lon="15.0029783"><ele>15.5</ele><time>2026-05-02T15:11:34.972Z</time></trkpt><trkpt lat="40.351005" lon="15.00304"><ele>14.25</ele><time>2026-05-02T15:11:35.972Z</time></trkpt><trkpt lat="40.351145" lon="15.0030983"><ele>13.0</ele><time>2026-05-02T15:11:36.972Z</time></trkpt><trkpt lat="40.35128" lon="15.0031567"><ele>13.0</ele><time>2026-05-02T15:11:37.972Z</time></trkpt><trkpt lat="40.351415" lon="15.003215"><ele>13.0</ele><time>2026-05-02T15:11:38.972Z</time></trkpt><trkpt lat="40.3515483" lon="15.00327"><ele>13.0</ele><time>2026-05-02T15:11:39.972Z</time></trkpt><trkpt lat="40.351685" lon="15.0033233"><ele>13.0</ele><time>2026-05-02T15:11:40.972Z</time></trkpt><trkpt lat="40.3518183" lon="15.003365"><ele>14.0</ele><time>2026-05-02T15:11:41.972Z</time></trkpt><trkpt lat="40.3519467" lon="15.0034133"><ele>15.0</ele><time>2026-05-02T15:11:42.972Z</time></trkpt><trkpt lat="40.3520883" lon="15.0034567"><ele>16.0</ele><time>2026-05-02T15:11:43.972Z</time></trkpt><trkpt lat="40.3522317" lon="15.0034983"><ele>17.0</ele><time>2026-05-02T15:11:44.972Z</time></trkpt><trkpt lat="40.3523733" lon="15.003545"><ele>17.0</ele><time>2026-05-02T15:11:45.972Z</time></trkpt><trkpt lat="40.3525167" lon="15.0035817"><ele>17.0</ele><time>2026-05-02T15:11:46.973Z</time></trkpt><trkpt lat="40.35266" lon="15.0036233"><ele>17.0</ele><time>2026-05-02T15:11:47.972Z</time></trkpt><trkpt lat="40.35281" lon="15.0036567"><ele>17.0</ele><time>2026-05-02T15:11:48.973Z</time></trkpt><trkpt lat="40.35296" lon="15.0036867"><ele>16.333333333333336</ele><time>2026-05-02T15:11:49.972Z</time></trkpt><trkpt lat="40.35311" lon="15.0037233"><ele>15.666666666666668</ele><time>2026-05-02T15:11:50.972Z</time></trkpt><trkpt lat="40.35326" lon="15.003755"><ele>15.0</ele><time>2026-05-02T15:11:51.973Z</time></trkpt><trkpt lat="40.3534133" lon="15.00378"><ele>15.0</ele><time>2026-05-02T15:11:52.972Z</time></trkpt><trkpt lat="40.3535633" lon="15.0038033"><ele>15.0</ele><time>2026-05-02T15:11:53.973Z</time></trkpt><trkpt lat="40.35372" lon="15.00382"><ele>15.0</ele><time>2026-05-02T15:11:54.972Z</time></trkpt><trkpt lat="40.3538767" lon="15.0038367"><ele>14.666666666666668</ele><time>2026-05-02T15:11:55.973Z</time></trkpt><trkpt lat="40.35403" lon="15.0038467"><ele>14.333333333333334</ele><time>2026-05-02T15:11:56.973Z</time></trkpt><trkpt lat="40.3541833" lon="15.0038617"><ele>14.0</ele><time>2026-05-02T15:11:57.972Z</time></trkpt><trkpt lat="40.3543367" lon="15.0038717"><ele>14.0</ele><time>2026-05-02T15:11:58.972Z</time></trkpt><trkpt lat="40.3545" lon="15.0038767"><ele>14.0</ele><time>2026-05-02T15:11:59.972Z</time></trkpt><trkpt lat="40.3546633" lon="15.0038783"><ele>14.0</ele><time>2026-05-02T15:12:00.972Z</time></trkpt><trkpt lat="40.3548183" lon="15.003875"><ele>15.0</ele><time>2026-05-02T15:12:01.972Z</time></trkpt><trkpt lat="40.3549683" lon="15.003875"><ele>16.0</ele><time>2026-05-02T15:12:02.972Z</time></trkpt><trkpt lat="40.3551183" lon="15.0038783"><ele>17.0</ele><time>2026-05-02T15:12:03.972Z</time></trkpt><trkpt lat="40.355275" lon="15.0038717"><ele>17.0</ele><time>2026-05-02T15:12:04.972Z</time></trkpt><trkpt lat="40.3554333" lon="15.003865"><ele>17.0</ele><time>2026-05-02T15:12:05.972Z</time></trkpt><trkpt lat="40.355595" lon="15.0038517"><ele>17.0</ele><time>2026-05-02T15:12:06.972Z</time></trkpt><trkpt lat="40.3557533" lon="15.00384"><ele>17.666666666666668</ele><time>2026-05-02T15:12:07.972Z</time></trkpt><trkpt lat="40.3559217" lon="15.003815"><ele>18.333333333333332</ele><time>2026-05-02T15:12:08.973Z</time></trkpt><trkpt lat="40.3560933" lon="15.0037817"><ele>19.0</ele><time>2026-05-02T15:12:09.973Z</time></trkpt><trkpt lat="40.3562583" lon="15.0037433"><ele>19.333333333333332</ele><time>2026-05-02T15:12:10.972Z</time></trkpt><trkpt lat="40.35642" lon="15.0037133"><ele>19.666666666666668</ele><time>2026-05-02T15:12:11.973Z</time></trkpt><trkpt lat="40.3565767" lon="15.0036783"><ele>20.0</ele><time>2026-05-02T15:12:12.973Z</time></trkpt><trkpt lat="40.356735" lon="15.003635"><ele>20.0</ele><time>2026-05-02T15:12:13.973Z</time></trkpt><trkpt lat="40.3568917" lon="15.0036"><ele>20.0</ele><time>2026-05-02T15:12:14.972Z</time></trkpt><trkpt lat="40.3570467" lon="15.0035733"><ele>20.0</ele><time>2026-05-02T15:12:15.972Z</time></trkpt><trkpt lat="40.3571867" lon="15.0035317"><ele>20.0</ele><time>2026-05-02T15:12:16.972Z</time></trkpt><trkpt lat="40.357335" lon="15.0034883"><ele>20.0</ele><time>2026-05-02T15:12:17.973Z</time></trkpt><trkpt lat="40.3574833" lon="15.0034433"><ele>20.0</ele><time>2026-05-02T15:12:18.973Z</time></trkpt><trkpt lat="40.3576333" lon="15.0033983"><ele>20.0</ele><time>2026-05-02T15:12:19.972Z</time></trkpt><trkpt lat="40.357785" lon="15.0033583"><ele>20.0</ele><time>2026-05-02T15:12:20.972Z</time></trkpt><trkpt lat="40.3579333" lon="15.00331"><ele>20.0</ele><time>2026-05-02T15:12:21.973Z</time></trkpt><trkpt lat="40.358085" lon="15.0032683"><ele>17.666666666666668</ele><time>2026-05-02T15:12:22.973Z</time></trkpt><trkpt lat="40.3582417" lon="15.0032267"><ele>15.333333333333332</ele><time>2026-05-02T15:12:23.972Z</time></trkpt><trkpt lat="40.3584" lon="15.0031817"><ele>13.0</ele><time>2026-05-02T15:12:24.973Z</time></trkpt><trkpt lat="40.358555" lon="15.0031383"><ele>13.0</ele><time>2026-05-02T15:12:25.973Z</time></trkpt><trkpt lat="40.3587067" lon="15.0030983"><ele>13.0</ele><time>2026-05-02T15:12:26.973Z</time></trkpt><trkpt lat="40.3588517" lon="15.0030567"><ele>13.0</ele><time>2026-05-02T15:12:27.972Z</time></trkpt><trkpt lat="40.359005" lon="15.0030083"><ele>13.0</ele><time>2026-05-02T15:12:28.972Z</time></trkpt><trkpt lat="40.35916" lon="15.0029667"><ele>13.0</ele><time>2026-05-02T15:12:29.973Z</time></trkpt><trkpt lat="40.3593167" lon="15.0029267"><ele>13.0</ele><time>2026-05-02T15:12:30.973Z</time></trkpt><trkpt lat="40.3594767" lon="15.00288"><ele>13.0</ele><time>2026-05-02T15:12:31.972Z</time></trkpt><trkpt lat="40.3596433" lon="15.00283"><ele>13.0</ele><time>2026-05-02T15:12:32.972Z</time></trkpt><trkpt lat="40.3598167" lon="15.0027733"><ele>13.0</ele><time>2026-05-02T15:12:33.973Z</time></trkpt><trkpt lat="40.359995" lon="15.002725"><ele>12.666666666666666</ele><time>2026-05-02T15:12:34.973Z</time></trkpt><trkpt lat="40.3601733" lon="15.00268"><ele>12.333333333333332</ele><time>2026-05-02T15:12:35.972Z</time></trkpt><trkpt lat="40.3603417" lon="15.00263"><ele>12.0</ele><time>2026-05-02T15:12:36.972Z</time></trkpt><trkpt lat="40.360515" lon="15.0025867"><ele>12.666666666666668</ele><time>2026-05-02T15:12:37.972Z</time></trkpt><trkpt lat="40.3606917" lon="15.0025383"><ele>13.333333333333334</ele><time>2026-05-02T15:12:38.973Z</time></trkpt><trkpt lat="40.360865" lon="15.0024867"><ele>14.0</ele><time>2026-05-02T15:12:39.973Z</time></trkpt><trkpt lat="40.3610367" lon="15.0024417"><ele>12.333333333333334</ele><time>2026-05-02T15:12:40.972Z</time></trkpt><trkpt lat="40.3612033" lon="15.0024"><ele>10.666666666666668</ele><time>2026-05-02T15:12:41.972Z</time></trkpt><trkpt lat="40.3613667" lon="15.0023517"><ele>9.0</ele><time>2026-05-02T15:12:42.973Z</time></trkpt><trkpt lat="40.361525" lon="15.002305"><ele>9.0</ele><time>2026-05-02T15:12:43.973Z</time></trkpt><trkpt lat="40.361675" lon="15.0022617"><ele>9.0</ele><time>2026-05-02T15:12:44.973Z</time></trkpt><trkpt lat="40.3618217" lon="15.0022167"><ele>9.0</ele><time>2026-05-02T15:12:45.972Z</time></trkpt><trkpt lat="40.3619717" lon="15.002175"><ele>9.0</ele><time>2026-05-02T15:12:46.973Z</time></trkpt><trkpt lat="40.3621217" lon="15.00213"><ele>9.0</ele><time>2026-05-02T15:12:47.972Z</time></trkpt><trkpt lat="40.3622733" lon="15.00209"><ele>9.0</ele><time>2026-05-02T15:12:48.972Z</time></trkpt><trkpt lat="40.362425" lon="15.0020483"><ele>9.333333333333334</ele><time>2026-05-02T15:12:49.973Z</time></trkpt><trkpt lat="40.3625733" lon="15.00201"><ele>9.666666666666668</ele><time>2026-05-02T15:12:50.972Z</time></trkpt><trkpt lat="40.3627317" lon="15.0019667"><ele>10.0</ele><time>2026-05-02T15:12:51.972Z</time></trkpt><trkpt lat="40.3628917" lon="15.0019217"><ele>9.666666666666668</ele><time>2026-05-02T15:12:52.972Z</time></trkpt><trkpt lat="40.3630583" lon="15.00187"><ele>9.333333333333334</ele><time>2026-05-02T15:12:53.972Z</time></trkpt><trkpt lat="40.363235" lon="15.0018317"><ele>9.0</ele><time>2026-05-02T15:12:54.972Z</time></trkpt><trkpt lat="40.3634117" lon="15.0018"><ele>9.0</ele><time>2026-05-02T15:12:55.973Z</time></trkpt><trkpt lat="40.3635817" lon="15.001775"><ele>9.0</ele><time>2026-05-02T15:12:56.973Z</time></trkpt><trkpt lat="40.3637517" lon="15.0017467"><ele>9.0</ele><time>2026-05-02T15:12:57.973Z</time></trkpt><trkpt lat="40.3639217" lon="15.0017267"><ele>9.333333333333334</ele><time>2026-05-02T15:12:58.972Z</time></trkpt><trkpt lat="40.3641" lon="15.0017067"><ele>9.666666666666668</ele><time>2026-05-02T15:12:59.972Z</time></trkpt><trkpt lat="40.3642733" lon="15.0017"><ele>10.0</ele><time>2026-05-02T15:13:00.973Z</time></trkpt><trkpt lat="40.3644483" lon="15.00169"><ele>10.0</ele><time>2026-05-02T15:13:01.972Z</time></trkpt><trkpt lat="40.3646217" lon="15.0016767"><ele>10.0</ele><time>2026-05-02T15:13:02.972Z</time></trkpt><trkpt lat="40.3647883" lon="15.0016667"><ele>10.0</ele><time>2026-05-02T15:13:03.972Z</time></trkpt><trkpt lat="40.36495" lon="15.0016617"><ele>8.666666666666668</ele><time>2026-05-02T15:13:04.972Z</time></trkpt><trkpt lat="40.3651083" lon="15.00166"><ele>7.333333333333334</ele><time>2026-05-02T15:13:05.973Z</time></trkpt><trkpt lat="40.3652667" lon="15.00166"><ele>6.0</ele><time>2026-05-02T15:13:06.972Z</time></trkpt><trkpt lat="40.3654283" lon="15.0016533"><ele>6.333333333333334</ele><time>2026-05-02T15:13:07.972Z</time></trkpt><trkpt lat="40.3655917" lon="15.0016517"><ele>6.666666666666667</ele><time>2026-05-02T15:13:08.972Z</time></trkpt><trkpt lat="40.3657533" lon="15.0016417"><ele>7.0</ele><time>2026-05-02T15:13:09.973Z</time></trkpt><trkpt lat="40.36591" lon="15.001635"><ele>7.0</ele><time>2026-05-02T15:13:10.972Z</time></trkpt><trkpt lat="40.3660617" lon="15.00163"><ele>7.0</ele><time>2026-05-02T15:13:11.973Z</time></trkpt><trkpt lat="40.3662" lon="15.0016267"><ele>7.0</ele><time>2026-05-02T15:13:12.973Z</time></trkpt><trkpt lat="40.3663333" lon="15.001625"><ele>7.0</ele><time>2026-05-02T15:13:13.973Z</time></trkpt><trkpt lat="40.3664667" lon="15.001615"><ele>6.75</ele><time>2026-05-02T15:13:14.972Z</time></trkpt><trkpt lat="40.3665983" lon="15.0016083"><ele>6.5</ele><time>2026-05-02T15:13:15.972Z</time></trkpt><trkpt lat="40.3667317" lon="15.001605"><ele>6.25</ele><time>2026-05-02T15:13:16.972Z</time></trkpt><trkpt lat="40.3668767" lon="15.0015933"><ele>6.0</ele><time>2026-05-02T15:13:17.973Z</time></trkpt><trkpt lat="40.36702" lon="15.0015867"><ele>6.0</ele><time>2026-05-02T15:13:18.973Z</time></trkpt><trkpt lat="40.36716" lon="15.001585"><ele>6.0</ele><time>2026-05-02T15:13:19.972Z</time></trkpt><trkpt lat="40.367305" lon="15.0015833"><ele>6.0</ele><time>2026-05-02T15:13:20.972Z</time></trkpt><trkpt lat="40.3674533" lon="15.00158"><ele>6.0</ele><time>2026-05-02T15:13:21.973Z</time></trkpt><trkpt lat="40.3675967" lon="15.0015767"><ele>6.5</ele><time>2026-05-02T15:13:22.972Z</time></trkpt><trkpt lat="40.3677467" lon="15.0015683"><ele>7.0</ele><time>2026-05-02T15:13:23.972Z</time></trkpt><trkpt lat="40.3678933" lon="15.0015567"><ele>7.5</ele><time>2026-05-02T15:13:24.972Z</time></trkpt><trkpt lat="40.368035" lon="15.0015483"><ele>8.0</ele><time>2026-05-02T15:13:25.973Z</time></trkpt><trkpt lat="40.3681617" lon="15.00154"><ele>8.75</ele><time>2026-05-02T15:13:26.972Z</time></trkpt><trkpt lat="40.368295" lon="15.0015383"><ele>9.5</ele><time>2026-05-02T15:13:27.972Z</time></trkpt><trkpt lat="40.3684217" lon="15.0015367"><ele>10.25</ele><time>2026-05-02T15:13:28.973Z</time></trkpt><trkpt lat="40.368545" lon="15.001535"><ele>11.0</ele><time>2026-05-02T15:13:29.972Z</time></trkpt><trkpt lat="40.3686683" lon="15.0015367"><ele>11.0</ele><time>2026-05-02T15:13:30.972Z</time></trkpt><trkpt lat="40.3687833" lon="15.0015333"><ele>11.0</ele><time>2026-05-02T15:13:31.972Z</time></trkpt><trkpt lat="40.3689117" lon="15.0015283"><ele>11.0</ele><time>2026-05-02T15:13:32.972Z</time></trkpt><trkpt lat="40.36904" lon="15.0015133"><ele>11.0</ele><time>2026-05-02T15:13:33.972Z</time></trkpt><trkpt lat="40.3691633" lon="15.001515"><ele>11.75</ele><time>2026-05-02T15:13:34.972Z</time></trkpt><trkpt lat="40.369295" lon="15.00151"><ele>12.5</ele><time>2026-05-02T15:13:35.972Z</time></trkpt><trkpt lat="40.369435" lon="15.0015117"><ele>13.25</ele><time>2026-05-02T15:13:36.972Z</time></trkpt><trkpt lat="40.3695767" lon="15.0015183"><ele>14.0</ele><time>2026-05-02T15:13:37.972Z</time></trkpt><trkpt lat="40.3697133" lon="15.0015283"><ele>14.333333333333334</ele><time>2026-05-02T15:13:38.972Z</time></trkpt><trkpt lat="40.3698617" lon="15.0015433"><ele>14.666666666666668</ele><time>2026-05-02T15:13:39.972Z</time></trkpt><trkpt lat="40.370015" lon="15.00155"><ele>15.0</ele><time>2026-05-02T15:13:40.972Z</time></trkpt><trkpt lat="40.37017" lon="15.0015633"><ele>15.0</ele><time>2026-05-02T15:13:41.972Z</time></trkpt><trkpt lat="40.3703217" lon="15.0015817"><ele>15.0</ele><time>2026-05-02T15:13:42.973Z</time></trkpt><trkpt lat="40.3704783" lon="15.001605"><ele>15.0</ele><time>2026-05-02T15:13:43.972Z</time></trkpt><trkpt lat="40.3706367" lon="15.0016333"><ele>15.666666666666668</ele><time>2026-05-02T15:13:44.972Z</time></trkpt><trkpt lat="40.3707967" lon="15.0016583"><ele>16.333333333333336</ele><time>2026-05-02T15:13:45.973Z</time></trkpt><trkpt lat="40.3709683" lon="15.0016767"><ele>17.0</ele><time>2026-05-02T15:13:46.972Z</time></trkpt><trkpt lat="40.3711217" lon="15.00171"><ele>18.333333333333336</ele><time>2026-05-02T15:13:47.972Z</time></trkpt><trkpt lat="40.3712733" lon="15.00174"><ele>19.666666666666668</ele><time>2026-05-02T15:13:48.972Z</time></trkpt><trkpt lat="40.37143" lon="15.00177"><ele>21.0</ele><time>2026-05-02T15:13:49.972Z</time></trkpt><trkpt lat="40.37158" lon="15.0017983"><ele>21.0</ele><time>2026-05-02T15:13:50.973Z</time></trkpt><trkpt lat="40.3717417" lon="15.00182"><ele>21.0</ele><time>2026-05-02T15:13:51.973Z</time></trkpt><trkpt lat="40.3719017" lon="15.0018467"><ele>21.0</ele><time>2026-05-02T15:13:52.972Z</time></trkpt><trkpt lat="40.3720617" lon="15.0018717"><ele>20.666666666666668</ele><time>2026-05-02T15:13:53.973Z</time></trkpt><trkpt lat="40.37222" lon="15.0018983"><ele>20.333333333333336</ele><time>2026-05-02T15:13:54.973Z</time></trkpt><trkpt lat="40.372385" lon="15.00193"><ele>20.0</ele><time>2026-05-02T15:13:55.973Z</time></trkpt><trkpt lat="40.3725417" lon="15.0019583"><ele>20.0</ele><time>2026-05-02T15:13:56.972Z</time></trkpt><trkpt lat="40.3726883" lon="15.0019917"><ele>20.0</ele><time>2026-05-02T15:13:57.972Z</time></trkpt><trkpt lat="40.3728233" lon="15.0020167"><ele>20.0</ele><time>2026-05-02T15:13:58.972Z</time></trkpt><trkpt lat="40.3729567" lon="15.0020333"><ele>20.0</ele><time>2026-05-02T15:13:59.973Z</time></trkpt><trkpt lat="40.3730933" lon="15.0020533"><ele>20.0</ele><time>2026-05-02T15:14:00.973Z</time></trkpt><trkpt lat="40.37324" lon="15.0020833"><ele>20.0</ele><time>2026-05-02T15:14:01.973Z</time></trkpt><trkpt lat="40.3733833" lon="15.0021133"><ele>20.0</ele><time>2026-05-02T15:14:02.972Z</time></trkpt><trkpt lat="40.3735267" lon="15.002145"><ele>20.0</ele><time>2026-05-02T15:14:03.972Z</time></trkpt><trkpt lat="40.3736733" lon="15.0021717"><ele>20.0</ele><time>2026-05-02T15:14:04.972Z</time></trkpt><trkpt lat="40.373815" lon="15.0022033"><ele>20.0</ele><time>2026-05-02T15:14:05.972Z</time></trkpt><trkpt lat="40.37396" lon="15.0022283"><ele>20.0</ele><time>2026-05-02T15:14:06.972Z</time></trkpt><trkpt lat="40.3741083" lon="15.0022583"><ele>20.0</ele><time>2026-05-02T15:14:07.973Z</time></trkpt><trkpt lat="40.37426" lon="15.0022867"><ele>19.0</ele><time>2026-05-02T15:14:08.973Z</time></trkpt><trkpt lat="40.3744083" lon="15.00232"><ele>18.0</ele><time>2026-05-02T15:14:09.972Z</time></trkpt><trkpt lat="40.374545" lon="15.0023567"><ele>17.0</ele><time>2026-05-02T15:14:10.972Z</time></trkpt><trkpt lat="40.3746867" lon="15.0024"><ele>16.0</ele><time>2026-05-02T15:14:11.972Z</time></trkpt><trkpt lat="40.3748283" lon="15.0024517"><ele>18.5</ele><time>2026-05-02T15:14:12.972Z</time></trkpt><trkpt lat="40.375115" lon="15.0025933"><ele>21.0</ele><time>2026-05-02T15:14:14.972Z</time></trkpt><trkpt lat="40.3752583" lon="15.0026733"><ele>21.0</ele><time>2026-05-02T15:14:15.972Z</time></trkpt><trkpt lat="40.3754083" lon="15.0027583"><ele>21.0</ele><time>2026-05-02T15:14:16.972Z</time></trkpt><trkpt lat="40.37555" lon="15.0028483"><ele>21.0</ele><time>2026-05-02T15:14:17.972Z</time></trkpt><trkpt lat="40.3756867" lon="15.0029533"><ele>20.666666666666668</ele><time>2026-05-02T15:14:18.972Z</time></trkpt><trkpt lat="40.3758183" lon="15.0030567"><ele>20.333333333333336</ele><time>2026-05-02T15:14:19.973Z</time></trkpt><trkpt lat="40.37595" lon="15.00315"><ele>20.0</ele><time>2026-05-02T15:14:20.972Z</time></trkpt><trkpt lat="40.3760783" lon="15.0032617"><ele>19.333333333333336</ele><time>2026-05-02T15:14:21.973Z</time></trkpt><trkpt lat="40.3762083" lon="15.00338"><ele>18.666666666666668</ele><time>2026-05-02T15:14:22.972Z</time></trkpt><trkpt lat="40.3763417" lon="15.0035"><ele>18.0</ele><time>2026-05-02T15:14:23.972Z</time></trkpt><trkpt lat="40.3764633" lon="15.0036233"><ele>18.0</ele><time>2026-05-02T15:14:24.972Z</time></trkpt><trkpt lat="40.3765833" lon="15.0037467"><ele>18.0</ele><time>2026-05-02T15:14:25.972Z</time></trkpt><trkpt lat="40.3767" lon="15.0038667"><ele>18.0</ele><time>2026-05-02T15:14:26.972Z</time></trkpt><trkpt lat="40.3769417" lon="15.00414"><ele>18.0</ele><time>2026-05-02T15:14:28.972Z</time></trkpt><trkpt lat="40.3770683" lon="15.0042767"><ele>18.0</ele><time>2026-05-02T15:14:29.972Z</time></trkpt><trkpt lat="40.3772017" lon="15.004425"><ele>18.0</ele><time>2026-05-02T15:14:30.973Z</time></trkpt><trkpt lat="40.377335" lon="15.004575"><ele>18.0</ele><time>2026-05-02T15:14:31.973Z</time></trkpt><trkpt lat="40.3774683" lon="15.0047233"><ele>18.0</ele><time>2026-05-02T15:14:32.972Z</time></trkpt><trkpt lat="40.377595" lon="15.00486"><ele>18.0</ele><time>2026-05-02T15:14:33.972Z</time></trkpt><trkpt lat="40.3777183" lon="15.0049917"><ele>18.0</ele><time>2026-05-02T15:14:34.972Z</time></trkpt><trkpt lat="40.3778383" lon="15.005125"><ele>18.0</ele><time>2026-05-02T15:14:35.972Z</time></trkpt><trkpt lat="40.3779517" lon="15.0052517"><ele>18.0</ele><time>2026-05-02T15:14:36.972Z</time></trkpt><trkpt lat="40.37807" lon="15.0053767"><ele>18.0</ele><time>2026-05-02T15:14:37.972Z</time></trkpt><trkpt lat="40.3781817" lon="15.0055067"><ele>18.0</ele><time>2026-05-02T15:14:38.972Z</time></trkpt><trkpt lat="40.3782983" lon="15.0056333"><ele>18.0</ele><time>2026-05-02T15:14:39.972Z</time></trkpt><trkpt lat="40.3784117" lon="15.00576"><ele>18.0</ele><time>2026-05-02T15:14:40.972Z</time></trkpt><trkpt lat="40.378525" lon="15.0058917"><ele>18.75</ele><time>2026-05-02T15:14:41.972Z</time></trkpt><trkpt lat="40.37864" lon="15.0060233"><ele>19.5</ele><time>2026-05-02T15:14:42.973Z</time></trkpt><trkpt lat="40.37875" lon="15.0061467"><ele>20.25</ele><time>2026-05-02T15:14:43.972Z</time></trkpt><trkpt lat="40.3788683" lon="15.00627"><ele>21.0</ele><time>2026-05-02T15:14:44.972Z</time></trkpt><trkpt lat="40.3789833" lon="15.0063967"><ele>21.0</ele><time>2026-05-02T15:14:45.973Z</time></trkpt><trkpt lat="40.3791" lon="15.006525"><ele>21.0</ele><time>2026-05-02T15:14:46.972Z</time></trkpt><trkpt lat="40.3792133" lon="15.0066633"><ele>21.0</ele><time>2026-05-02T15:14:47.973Z</time></trkpt><trkpt lat="40.379325" lon="15.006805"><ele>24.0</ele><time>2026-05-02T15:14:48.973Z</time></trkpt><trkpt lat="40.37944" lon="15.006955"><ele>27.0</ele><time>2026-05-02T15:14:49.973Z</time></trkpt><trkpt lat="40.379555" lon="15.00711"><ele>30.0</ele><time>2026-05-02T15:14:50.972Z</time></trkpt><trkpt lat="40.37967" lon="15.007275"><ele>28.0</ele><time>2026-05-02T15:14:51.973Z</time></trkpt><trkpt lat="40.379785" lon="15.00745"><ele>26.0</ele><time>2026-05-02T15:14:52.972Z</time></trkpt><trkpt lat="40.3798967" lon="15.0076283"><ele>24.0</ele><time>2026-05-02T15:14:53.972Z</time></trkpt><trkpt lat="40.38" lon="15.0078167"><ele>24.0</ele><time>2026-05-02T15:14:54.972Z</time></trkpt><trkpt lat="40.3801033" lon="15.008005"><ele>24.0</ele><time>2026-05-02T15:14:55.972Z</time></trkpt><trkpt lat="40.3802017" lon="15.0081983"><ele>24.0</ele><time>2026-05-02T15:14:56.973Z</time></trkpt><trkpt lat="40.3803" lon="15.008395"><ele>22.333333333333332</ele><time>2026-05-02T15:14:57.972Z</time></trkpt><trkpt lat="40.380395" lon="15.0085867"><ele>20.666666666666664</ele><time>2026-05-02T15:14:58.972Z</time></trkpt><trkpt lat="40.380485" lon="15.0087717"><ele>19.0</ele><time>2026-05-02T15:14:59.972Z</time></trkpt><trkpt lat="40.3805617" lon="15.0089467"><ele>19.0</ele><time>2026-05-02T15:15:00.972Z</time></trkpt><trkpt lat="40.3806333" lon="15.0091217"><ele>19.0</ele><time>2026-05-02T15:15:01.973Z</time></trkpt><trkpt lat="40.3807083" lon="15.00929"><ele>19.0</ele><time>2026-05-02T15:15:02.973Z</time></trkpt><trkpt lat="40.380765" lon="15.0094683"><ele>19.0</ele><time>2026-05-02T15:15:03.973Z</time></trkpt><trkpt lat="40.3808217" lon="15.009655"><ele>21.0</ele><time>2026-05-02T15:15:04.972Z</time></trkpt><trkpt lat="40.3808817" lon="15.0098483"><ele>23.0</ele><time>2026-05-02T15:15:05.973Z</time></trkpt><trkpt lat="40.3809417" lon="15.01004"><ele>25.0</ele><time>2026-05-02T15:15:06.972Z</time></trkpt><trkpt lat="40.381" lon="15.01023"><ele>26.333333333333336</ele><time>2026-05-02T15:15:07.972Z</time></trkpt><trkpt lat="40.381055" lon="15.0104283"><ele>27.666666666666664</ele><time>2026-05-02T15:15:08.973Z</time></trkpt><trkpt lat="40.3811117" lon="15.01063"><ele>29.0</ele><time>2026-05-02T15:15:09.973Z</time></trkpt><trkpt lat="40.3811683" lon="15.010825"><ele>29.333333333333332</ele><time>2026-05-02T15:15:10.972Z</time></trkpt><trkpt lat="40.38122" lon="15.011025"><ele>29.666666666666664</ele><time>2026-05-02T15:15:11.972Z</time></trkpt><trkpt lat="40.3812783" lon="15.0112183"><ele>30.0</ele><time>2026-05-02T15:15:12.972Z</time></trkpt><trkpt lat="40.3813333" lon="15.01141"><ele>27.333333333333332</ele><time>2026-05-02T15:15:13.972Z</time></trkpt><trkpt lat="40.3813867" lon="15.0116"><ele>24.666666666666664</ele><time>2026-05-02T15:15:14.972Z</time></trkpt><trkpt lat="40.3814367" lon="15.0117933"><ele>22.0</ele><time>2026-05-02T15:15:15.973Z</time></trkpt><trkpt lat="40.3814833" lon="15.011975"><ele>22.0</ele><time>2026-05-02T15:15:16.973Z</time></trkpt><trkpt lat="40.381535" lon="15.012155"><ele>22.0</ele><time>2026-05-02T15:15:17.972Z</time></trkpt><trkpt lat="40.3815883" lon="15.012335"><ele>22.0</ele><time>2026-05-02T15:15:18.973Z</time></trkpt><trkpt lat="40.3816417" lon="15.01252"><ele>22.0</ele><time>2026-05-02T15:15:19.972Z</time></trkpt><trkpt lat="40.3816967" lon="15.0127067"><ele>22.5</ele><time>2026-05-02T15:15:20.972Z</time></trkpt><trkpt lat="40.3817433" lon="15.0128983"><ele>23.0</ele><time>2026-05-02T15:15:21.973Z</time></trkpt><trkpt lat="40.381795" lon="15.01308"><ele>23.5</ele><time>2026-05-02T15:15:22.972Z</time></trkpt><trkpt lat="40.3818417" lon="15.0132533"><ele>24.0</ele><time>2026-05-02T15:15:23.973Z</time></trkpt><trkpt lat="40.3818933" lon="15.0134333"><ele>25.666666666666664</ele><time>2026-05-02T15:15:24.972Z</time></trkpt><trkpt lat="40.381945" lon="15.01362"><ele>27.333333333333332</ele><time>2026-05-02T15:15:25.973Z</time></trkpt><trkpt lat="40.3820067" lon="15.0138083"><ele>29.0</ele><time>2026-05-02T15:15:26.972Z</time></trkpt><trkpt lat="40.38207" lon="15.0139917"><ele>29.0</ele><time>2026-05-02T15:15:27.973Z</time></trkpt><trkpt lat="40.382125" lon="15.0141533"><ele>29.0</ele><time>2026-05-02T15:15:28.972Z</time></trkpt><trkpt lat="40.3821867" lon="15.014315"><ele>29.0</ele><time>2026-05-02T15:15:29.972Z</time></trkpt><trkpt lat="40.382245" lon="15.0144767"><ele>29.0</ele><time>2026-05-02T15:15:30.972Z</time></trkpt><trkpt lat="40.3823117" lon="15.0146283"><ele>27.0</ele><time>2026-05-02T15:15:31.972Z</time></trkpt><trkpt lat="40.3823767" lon="15.0147817"><ele>25.0</ele><time>2026-05-02T15:15:32.972Z</time></trkpt><trkpt lat="40.3824417" lon="15.0149367"><ele>23.0</ele><time>2026-05-02T15:15:33.973Z</time></trkpt><trkpt lat="40.3825233" lon="15.015105"><ele>21.0</ele><time>2026-05-02T15:15:34.972Z</time></trkpt><trkpt lat="40.3826117" lon="15.0152733"><ele>21.0</ele><time>2026-05-02T15:15:35.972Z</time></trkpt><trkpt lat="40.382705" lon="15.0154367"><ele>21.0</ele><time>2026-05-02T15:15:36.972Z</time></trkpt><trkpt lat="40.3828033" lon="15.0155967"><ele>21.0</ele><time>2026-05-02T15:15:37.973Z</time></trkpt><trkpt lat="40.3828983" lon="15.0157617"><ele>21.333333333333332</ele><time>2026-05-02T15:15:38.973Z</time></trkpt><trkpt lat="40.3829983" lon="15.0159167"><ele>21.666666666666664</ele><time>2026-05-02T15:15:39.973Z</time></trkpt><trkpt lat="40.3830967" lon="15.016065"><ele>22.0</ele><time>2026-05-02T15:15:40.972Z</time></trkpt><trkpt lat="40.38321" lon="15.0162117"><ele>19.666666666666664</ele><time>2026-05-02T15:15:41.972Z</time></trkpt><trkpt lat="40.3833267" lon="15.0163467"><ele>17.333333333333332</ele><time>2026-05-02T15:15:42.972Z</time></trkpt><trkpt lat="40.3834383" lon="15.0164817"><ele>15.0</ele><time>2026-05-02T15:15:43.972Z</time></trkpt><trkpt lat="40.383555" lon="15.01661"><ele>14.666666666666668</ele><time>2026-05-02T15:15:44.972Z</time></trkpt><trkpt lat="40.3836733" lon="15.0167267"><ele>14.333333333333334</ele><time>2026-05-02T15:15:45.972Z</time></trkpt><trkpt lat="40.383805" lon="15.01684"><ele>14.0</ele><time>2026-05-02T15:15:46.972Z</time></trkpt><trkpt lat="40.3839383" lon="15.0169483"><ele>13.0</ele><time>2026-05-02T15:15:47.972Z</time></trkpt><trkpt lat="40.38407" lon="15.017045"><ele>12.0</ele><time>2026-05-02T15:15:48.973Z</time></trkpt><trkpt lat="40.3842167" lon="15.0171367"><ele>11.0</ele><time>2026-05-02T15:15:49.973Z</time></trkpt><trkpt lat="40.3843667" lon="15.01723"><ele>11.0</ele><time>2026-05-02T15:15:50.972Z</time></trkpt><trkpt lat="40.3845167" lon="15.0173283"><ele>11.0</ele><time>2026-05-02T15:15:51.972Z</time></trkpt><trkpt lat="40.38467" lon="15.0174183"><ele>11.0</ele><time>2026-05-02T15:15:52.972Z</time></trkpt><trkpt lat="40.384825" lon="15.01751"><ele>11.666666666666666</ele><time>2026-05-02T15:15:53.972Z</time></trkpt><trkpt lat="40.3849867" lon="15.0175833"><ele>12.333333333333332</ele><time>2026-05-02T15:15:54.972Z</time></trkpt><trkpt lat="40.38516" lon="15.0176383"><ele>13.0</ele><time>2026-05-02T15:15:55.973Z</time></trkpt><trkpt lat="40.385335" lon="15.0176867"><ele>13.0</ele><time>2026-05-02T15:15:56.972Z</time></trkpt><trkpt lat="40.3855017" lon="15.0177333"><ele>13.0</ele><time>2026-05-02T15:15:57.973Z</time></trkpt><trkpt lat="40.3856683" lon="15.01777"><ele>13.0</ele><time>2026-05-02T15:15:58.972Z</time></trkpt><trkpt lat="40.3858383" lon="15.0177983"><ele>11.333333333333332</ele><time>2026-05-02T15:15:59.973Z</time></trkpt><trkpt lat="40.3860017" lon="15.0178383"><ele>9.666666666666666</ele><time>2026-05-02T15:16:00.972Z</time></trkpt><trkpt lat="40.38616" lon="15.0178683"><ele>8.0</ele><time>2026-05-02T15:16:01.973Z</time></trkpt><trkpt lat="40.3863317" lon="15.0178933"><ele>7.666666666666666</ele><time>2026-05-02T15:16:02.973Z</time></trkpt><trkpt lat="40.3865033" lon="15.0179133"><ele>7.333333333333334</ele><time>2026-05-02T15:16:03.972Z</time></trkpt><trkpt lat="40.3866717" lon="15.01793"><ele>7.0</ele><time>2026-05-02T15:16:04.972Z</time></trkpt><trkpt lat="40.386835" lon="15.0179433"><ele>7.0</ele><time>2026-05-02T15:16:05.972Z</time></trkpt><trkpt lat="40.3869983" lon="15.01796"><ele>7.0</ele><time>2026-05-02T15:16:06.972Z</time></trkpt><trkpt lat="40.3871617" lon="15.0179783"><ele>7.0</ele><time>2026-05-02T15:16:07.973Z</time></trkpt><trkpt lat="40.3873183" lon="15.0180017"><ele>7.333333333333334</ele><time>2026-05-02T15:16:08.972Z</time></trkpt><trkpt lat="40.3874817" lon="15.01802"><ele>7.666666666666666</ele><time>2026-05-02T15:16:09.972Z</time></trkpt><trkpt lat="40.3876467" lon="15.0180383"><ele>8.0</ele><time>2026-05-02T15:16:10.972Z</time></trkpt><trkpt lat="40.38781" lon="15.0180633"><ele>8.0</ele><time>2026-05-02T15:16:11.973Z</time></trkpt><trkpt lat="40.3879783" lon="15.0180833"><ele>8.0</ele><time>2026-05-02T15:16:12.972Z</time></trkpt><trkpt lat="40.3881483" lon="15.018105"><ele>8.0</ele><time>2026-05-02T15:16:13.973Z</time></trkpt><trkpt lat="40.38832" lon="15.0181283"><ele>8.333333333333332</ele><time>2026-05-02T15:16:14.972Z</time></trkpt><trkpt lat="40.3884917" lon="15.0181467"><ele>8.666666666666666</ele><time>2026-05-02T15:16:15.973Z</time></trkpt><trkpt lat="40.38867" lon="15.0181683"><ele>9.0</ele><time>2026-05-02T15:16:16.973Z</time></trkpt><trkpt lat="40.3888483" lon="15.018185"><ele>9.0</ele><time>2026-05-02T15:16:17.972Z</time></trkpt><trkpt lat="40.38902" lon="15.018205"><ele>9.0</ele><time>2026-05-02T15:16:18.972Z</time></trkpt><trkpt lat="40.3891883" lon="15.0182283"><ele>9.0</ele><time>2026-05-02T15:16:19.972Z</time></trkpt><trkpt lat="40.3893567" lon="15.0182467"><ele>9.0</ele><time>2026-05-02T15:16:20.972Z</time></trkpt><trkpt lat="40.3895183" lon="15.0182667"><ele>9.0</ele><time>2026-05-02T15:16:21.972Z</time></trkpt><trkpt lat="40.3896867" lon="15.0182917"><ele>9.0</ele><time>2026-05-02T15:16:22.972Z</time></trkpt><trkpt lat="40.3898583" lon="15.0183117"><ele>9.0</ele><time>2026-05-02T15:16:23.972Z</time></trkpt><trkpt lat="40.390025" lon="15.0183317"><ele>9.0</ele><time>2026-05-02T15:16:24.972Z</time></trkpt><trkpt lat="40.3901967" lon="15.0183517"><ele>9.0</ele><time>2026-05-02T15:16:25.973Z</time></trkpt><trkpt lat="40.3903717" lon="15.0183733"><ele>9.0</ele><time>2026-05-02T15:16:26.972Z</time></trkpt><trkpt lat="40.3905367" lon="15.0183967"><ele>9.0</ele><time>2026-05-02T15:16:27.973Z</time></trkpt><trkpt lat="40.3907033" lon="15.0184217"><ele>9.0</ele><time>2026-05-02T15:16:28.972Z</time></trkpt><trkpt lat="40.390875" lon="15.0184367"><ele>9.0</ele><time>2026-05-02T15:16:29.972Z</time></trkpt><trkpt lat="40.391045" lon="15.0184567"><ele>9.0</ele><time>2026-05-02T15:16:30.972Z</time></trkpt><trkpt lat="40.3912167" lon="15.0184767"><ele>9.0</ele><time>2026-05-02T15:16:31.973Z</time></trkpt><trkpt lat="40.3913917" lon="15.018495"><ele>9.666666666666666</ele><time>2026-05-02T15:16:32.973Z</time></trkpt><trkpt lat="40.3915633" lon="15.0185183"><ele>10.333333333333332</ele><time>2026-05-02T15:16:33.972Z</time></trkpt><trkpt lat="40.391735" lon="15.01854"><ele>11.0</ele><time>2026-05-02T15:16:34.972Z</time></trkpt><trkpt lat="40.391915" lon="15.0185583"><ele>11.0</ele><time>2026-05-02T15:16:35.972Z</time></trkpt><trkpt lat="40.3920867" lon="15.0185767"><ele>11.0</ele><time>2026-05-02T15:16:36.973Z</time></trkpt><trkpt lat="40.3922617" lon="15.0186083"><ele>11.0</ele><time>2026-05-02T15:16:37.972Z</time></trkpt><trkpt lat="40.3924383" lon="15.0186333"><ele>10.666666666666666</ele><time>2026-05-02T15:16:38.973Z</time></trkpt><trkpt lat="40.3926183" lon="15.018655"><ele>10.333333333333334</ele><time>2026-05-02T15:16:39.972Z</time></trkpt><trkpt lat="40.3928" lon="15.0186717"><ele>10.0</ele><time>2026-05-02T15:16:40.972Z</time></trkpt><trkpt lat="40.3929833" lon="15.0186917"><ele>10.0</ele><time>2026-05-02T15:16:41.972Z</time></trkpt><trkpt lat="40.39317" lon="15.018705"><ele>10.0</ele><time>2026-05-02T15:16:42.973Z</time></trkpt><trkpt lat="40.3933517" lon="15.0187183"><ele>10.0</ele><time>2026-05-02T15:16:43.972Z</time></trkpt><trkpt lat="40.3935333" lon="15.01873"><ele>10.0</ele><time>2026-05-02T15:16:44.972Z</time></trkpt><trkpt lat="40.39371" lon="15.0187383"><ele>10.0</ele><time>2026-05-02T15:16:45.972Z</time></trkpt><trkpt lat="40.3938883" lon="15.018745"><ele>10.0</ele><time>2026-05-02T15:16:46.972Z</time></trkpt><trkpt lat="40.3940633" lon="15.0187583"><ele>9.666666666666668</ele><time>2026-05-02T15:16:47.972Z</time></trkpt><trkpt lat="40.3942433" lon="15.0187617"><ele>9.333333333333334</ele><time>2026-05-02T15:16:48.972Z</time></trkpt><trkpt lat="40.3944283" lon="15.018765"><ele>9.0</ele><time>2026-05-02T15:16:49.972Z</time></trkpt><trkpt lat="40.3946133" lon="15.018765"><ele>8.666666666666666</ele><time>2026-05-02T15:16:50.973Z</time></trkpt><trkpt lat="40.39479" lon="15.0187733"><ele>8.333333333333332</ele><time>2026-05-02T15:16:51.972Z</time></trkpt><trkpt lat="40.39497" lon="15.0187783"><ele>8.0</ele><time>2026-05-02T15:16:52.972Z</time></trkpt><trkpt lat="40.3951533" lon="15.0187733"><ele>8.0</ele><time>2026-05-02T15:16:53.972Z</time></trkpt><trkpt lat="40.395335" lon="15.0187683"><ele>8.0</ele><time>2026-05-02T15:16:54.973Z</time></trkpt><trkpt lat="40.3955167" lon="15.0187683"><ele>8.0</ele><time>2026-05-02T15:16:55.973Z</time></trkpt><trkpt lat="40.3956917" lon="15.0187767"><ele>7.666666666666666</ele><time>2026-05-02T15:16:56.972Z</time></trkpt><trkpt lat="40.395875" lon="15.01877"><ele>7.333333333333334</ele><time>2026-05-02T15:16:57.972Z</time></trkpt><trkpt lat="40.3960517" lon="15.018765"><ele>7.0</ele><time>2026-05-02T15:16:58.972Z</time></trkpt><trkpt lat="40.3962267" lon="15.0187617"><ele>6.666666666666667</ele><time>2026-05-02T15:16:59.972Z</time></trkpt><trkpt lat="40.3964017" lon="15.0187583"><ele>6.333333333333334</ele><time>2026-05-02T15:17:00.972Z</time></trkpt><trkpt lat="40.3965667" lon="15.0187483"><ele>6.0</ele><time>2026-05-02T15:17:01.973Z</time></trkpt><trkpt lat="40.396735" lon="15.0187483"><ele>6.0</ele><time>2026-05-02T15:17:02.972Z</time></trkpt><trkpt lat="40.3969133" lon="15.0187433"><ele>6.0</ele><time>2026-05-02T15:17:03.972Z</time></trkpt><trkpt lat="40.3970933" lon="15.0187333"><ele>6.0</ele><time>2026-05-02T15:17:04.972Z</time></trkpt><trkpt lat="40.39727" lon="15.0187267"><ele>6.0</ele><time>2026-05-02T15:17:05.972Z</time></trkpt><trkpt lat="40.39746" lon="15.0187133"><ele>6.0</ele><time>2026-05-02T15:17:06.972Z</time></trkpt><trkpt lat="40.3976517" lon="15.0187017"><ele>6.0</ele><time>2026-05-02T15:17:07.972Z</time></trkpt><trkpt lat="40.3978417" lon="15.0186933"><ele>6.333333333333334</ele><time>2026-05-02T15:17:08.972Z</time></trkpt><trkpt lat="40.3980283" lon="15.0186867"><ele>6.666666666666667</ele><time>2026-05-02T15:17:09.972Z</time></trkpt><trkpt lat="40.3982233" lon="15.0186717"><ele>7.0</ele><time>2026-05-02T15:17:10.973Z</time></trkpt><trkpt lat="40.3984183" lon="15.0186567"><ele>7.0</ele><time>2026-05-02T15:17:11.973Z</time></trkpt><trkpt lat="40.3986133" lon="15.0186467"><ele>7.0</ele><time>2026-05-02T15:17:12.972Z</time></trkpt><trkpt lat="40.3988067" lon="15.01864"><ele>7.0</ele><time>2026-05-02T15:17:13.973Z</time></trkpt><trkpt lat="40.3989883" lon="15.01864"><ele>7.666666666666667</ele><time>2026-05-02T15:17:14.972Z</time></trkpt><trkpt lat="40.399155" lon="15.0186333"><ele>8.333333333333334</ele><time>2026-05-02T15:17:15.973Z</time></trkpt><trkpt lat="40.399325" lon="15.0186283"><ele>9.0</ele><time>2026-05-02T15:17:16.973Z</time></trkpt><trkpt lat="40.3994883" lon="15.0186183"><ele>9.0</ele><time>2026-05-02T15:17:17.972Z</time></trkpt><trkpt lat="40.3996483" lon="15.0186083"><ele>9.0</ele><time>2026-05-02T15:17:18.973Z</time></trkpt><trkpt lat="40.3998017" lon="15.0186067"><ele>9.0</ele><time>2026-05-02T15:17:19.972Z</time></trkpt><trkpt lat="40.3999467" lon="15.0185933"><ele>9.75</ele><time>2026-05-02T15:17:20.973Z</time></trkpt><trkpt lat="40.4000867" lon="15.0185817"><ele>10.5</ele><time>2026-05-02T15:17:21.972Z</time></trkpt><trkpt lat="40.4002233" lon="15.0185733"><ele>11.25</ele><time>2026-05-02T15:17:22.973Z</time></trkpt><trkpt lat="40.4003583" lon="15.018565"><ele>12.0</ele><time>2026-05-02T15:17:23.972Z</time></trkpt><trkpt lat="40.400495" lon="15.0185583"><ele>12.5</ele><time>2026-05-02T15:17:24.973Z</time></trkpt><trkpt lat="40.400635" lon="15.018545"><ele>13.0</ele><time>2026-05-02T15:17:25.972Z</time></trkpt><trkpt lat="40.40077" lon="15.018535"><ele>13.5</ele><time>2026-05-02T15:17:26.972Z</time></trkpt><trkpt lat="40.4008933" lon="15.0185283"><ele>14.0</ele><time>2026-05-02T15:17:27.973Z</time></trkpt><trkpt lat="40.4010167" lon="15.0185183"><ele>14.0</ele><time>2026-05-02T15:17:28.973Z</time></trkpt><trkpt lat="40.4011333" lon="15.0185133"><ele>14.0</ele><time>2026-05-02T15:17:29.973Z</time></trkpt><trkpt lat="40.40125" lon="15.0185083"><ele>14.0</ele><time>2026-05-02T15:17:30.973Z</time></trkpt><trkpt lat="40.4013733" lon="15.0185"><ele>14.0</ele><time>2026-05-02T15:17:31.972Z</time></trkpt><trkpt lat="40.4014967" lon="15.018495"><ele>14.0</ele><time>2026-05-02T15:17:32.972Z</time></trkpt><trkpt lat="40.4016233" lon="15.0184883"><ele>14.0</ele><time>2026-05-02T15:17:33.972Z</time></trkpt><trkpt lat="40.4017533" lon="15.0184817"><ele>14.0</ele><time>2026-05-02T15:17:34.973Z</time></trkpt><trkpt lat="40.4018867" lon="15.0184817"><ele>14.0</ele><time>2026-05-02T15:17:35.973Z</time></trkpt><trkpt lat="40.402025" lon="15.0184783"><ele>14.0</ele><time>2026-05-02T15:17:36.973Z</time></trkpt><trkpt lat="40.4021633" lon="15.01847"><ele>14.0</ele><time>2026-05-02T15:17:37.972Z</time></trkpt><trkpt lat="40.4023117" lon="15.0184533"><ele>14.0</ele><time>2026-05-02T15:17:38.972Z</time></trkpt><trkpt lat="40.40246" lon="15.0184433"><ele>14.0</ele><time>2026-05-02T15:17:39.972Z</time></trkpt><trkpt lat="40.4026117" lon="15.0184333"><ele>14.0</ele><time>2026-05-02T15:17:40.972Z</time></trkpt><trkpt lat="40.4027583" lon="15.01843"><ele>14.0</ele><time>2026-05-02T15:17:41.972Z</time></trkpt><trkpt lat="40.4029067" lon="15.0184267"><ele>14.0</ele><time>2026-05-02T15:17:42.972Z</time></trkpt><trkpt lat="40.40305" lon="15.018425"><ele>14.0</ele><time>2026-05-02T15:17:43.972Z</time></trkpt><trkpt lat="40.4031933" lon="15.0184183"><ele>14.0</ele><time>2026-05-02T15:17:44.972Z</time></trkpt><trkpt lat="40.4033317" lon="15.018405"><ele>14.0</ele><time>2026-05-02T15:17:45.972Z</time></trkpt><trkpt lat="40.403465" lon="15.018395"><ele>14.0</ele><time>2026-05-02T15:17:46.972Z</time></trkpt><trkpt lat="40.403595" lon="15.0183883"><ele>14.0</ele><time>2026-05-02T15:17:47.972Z</time></trkpt><trkpt lat="40.4037217" lon="15.01838"><ele>14.5</ele><time>2026-05-02T15:17:48.972Z</time></trkpt><trkpt lat="40.403845" lon="15.0183767"><ele>15.0</ele><time>2026-05-02T15:17:49.973Z</time></trkpt><trkpt lat="40.40397" lon="15.0183733"><ele>15.5</ele><time>2026-05-02T15:17:50.972Z</time></trkpt><trkpt lat="40.4041" lon="15.018365"><ele>16.0</ele><time>2026-05-02T15:17:51.972Z</time></trkpt><trkpt lat="40.4042283" lon="15.0183567"><ele>16.0</ele><time>2026-05-02T15:17:52.972Z</time></trkpt><trkpt lat="40.404355" lon="15.0183467"><ele>16.0</ele><time>2026-05-02T15:17:53.973Z</time></trkpt><trkpt lat="40.4044733" lon="15.0183467"><ele>16.0</ele><time>2026-05-02T15:17:54.972Z</time></trkpt><trkpt lat="40.404585" lon="15.0183417"><ele>16.0</ele><time>2026-05-02T15:17:55.973Z</time></trkpt><trkpt lat="40.4047" lon="15.0183367"><ele>16.0</ele><time>2026-05-02T15:17:56.972Z</time></trkpt><trkpt lat="40.404805" lon="15.0183283"><ele>16.0</ele><time>2026-05-02T15:17:57.973Z</time></trkpt><trkpt lat="40.4048967" lon="15.018325"><ele>16.0</ele><time>2026-05-02T15:17:58.972Z</time></trkpt><trkpt lat="40.4049833" lon="15.01832"><ele>16.0</ele><time>2026-05-02T15:17:59.972Z</time></trkpt><trkpt lat="40.4050717" lon="15.0183183"><ele>16.0</ele><time>2026-05-02T15:18:00.972Z</time></trkpt><trkpt lat="40.405165" lon="15.0183167"><ele>15.75</ele><time>2026-05-02T15:18:01.973Z</time></trkpt><trkpt lat="40.4052683" lon="15.0183117"><ele>15.5</ele><time>2026-05-02T15:18:02.972Z</time></trkpt><trkpt lat="40.405385" lon="15.0183017"><ele>15.25</ele><time>2026-05-02T15:18:03.972Z</time></trkpt><trkpt lat="40.405505" lon="15.0182967"><ele>15.0</ele><time>2026-05-02T15:18:04.972Z</time></trkpt><trkpt lat="40.4056267" lon="15.0182883"><ele>15.5</ele><time>2026-05-02T15:18:05.973Z</time></trkpt><trkpt lat="40.4057533" lon="15.01828"><ele>16.0</ele><time>2026-05-02T15:18:06.973Z</time></trkpt><trkpt lat="40.4058817" lon="15.018275"><ele>16.5</ele><time>2026-05-02T15:18:07.972Z</time></trkpt><trkpt lat="40.406015" lon="15.018265"><ele>17.0</ele><time>2026-05-02T15:18:08.972Z</time></trkpt><trkpt lat="40.40615" lon="15.0182583"><ele>17.0</ele><time>2026-05-02T15:18:09.972Z</time></trkpt><trkpt lat="40.4062783" lon="15.0182533"><ele>17.0</ele><time>2026-05-02T15:18:10.973Z</time></trkpt><trkpt lat="40.4064017" lon="15.0182533"><ele>17.0</ele><time>2026-05-02T15:18:11.972Z</time></trkpt><trkpt lat="40.4065283" lon="15.0182517"><ele>17.0</ele><time>2026-05-02T15:18:12.972Z</time></trkpt><trkpt lat="40.4066583" lon="15.0182433"><ele>17.25</ele><time>2026-05-02T15:18:13.972Z</time></trkpt><trkpt lat="40.4067967" lon="15.0182367"><ele>17.5</ele><time>2026-05-02T15:18:14.973Z</time></trkpt><trkpt lat="40.4069317" lon="15.018225"><ele>17.75</ele><time>2026-05-02T15:18:15.972Z</time></trkpt><trkpt lat="40.4070517" lon="15.0182133"><ele>18.0</ele><time>2026-05-02T15:18:16.972Z</time></trkpt><trkpt lat="40.4071533" lon="15.0182067"><ele>17.8</ele><time>2026-05-02T15:18:17.973Z</time></trkpt><trkpt lat="40.40724" lon="15.0181983"><ele>17.6</ele><time>2026-05-02T15:18:18.972Z</time></trkpt><trkpt lat="40.40731" lon="15.0181983"><ele>17.4</ele><time>2026-05-02T15:18:19.972Z</time></trkpt><trkpt lat="40.4073783" lon="15.0181967"><ele>17.2</ele><time>2026-05-02T15:18:20.972Z</time></trkpt><trkpt lat="40.4074983" lon="15.0181867"><ele>17.0</ele><time>2026-05-02T15:18:22.972Z</time></trkpt><trkpt lat="40.407625" lon="15.0181717"><ele>16.999999999999996</ele><time>2026-05-02T15:18:24.972Z</time></trkpt><trkpt lat="40.40769" lon="15.01817"><ele>17.0</ele><time>2026-05-02T15:18:25.972Z</time></trkpt><trkpt lat="40.4077567" lon="15.0181717"><ele>17.0</ele><time>2026-05-02T15:18:26.972Z</time></trkpt><trkpt lat="40.4078217" lon="15.0181667"><ele>17.0</ele><time>2026-05-02T15:18:27.973Z</time></trkpt><trkpt lat="40.40789" lon="15.0181717"><ele>17.0</ele><time>2026-05-02T15:18:28.973Z</time></trkpt><trkpt lat="40.40796" lon="15.0181667"><ele>16.999999999999996</ele><time>2026-05-02T15:18:29.973Z</time></trkpt><trkpt lat="40.4080317" lon="15.01816"><ele>17.0</ele><time>2026-05-02T15:18:30.972Z</time></trkpt><trkpt lat="40.408105" lon="15.0181533"><ele>16.857142857142854</ele><time>2026-05-02T15:18:31.972Z</time></trkpt><trkpt lat="40.4081783" lon="15.0181467"><ele>16.714285714285715</ele><time>2026-05-02T15:18:32.973Z</time></trkpt><trkpt lat="40.40825" lon="15.01815"><ele>16.57142857142857</ele><time>2026-05-02T15:18:33.972Z</time></trkpt><trkpt lat="40.4083233" lon="15.01815"><ele>16.428571428571427</ele><time>2026-05-02T15:18:34.973Z</time></trkpt><trkpt lat="40.4083933" lon="15.01815"><ele>16.285714285714285</ele><time>2026-05-02T15:18:35.972Z</time></trkpt><trkpt lat="40.4084667" lon="15.0181417"><ele>16.142857142857142</ele><time>2026-05-02T15:18:36.972Z</time></trkpt><trkpt lat="40.408535" lon="15.0181383"><ele>16.0</ele><time>2026-05-02T15:18:37.972Z</time></trkpt><trkpt lat="40.4086067" lon="15.0181317"><ele>15.999999999999998</ele><time>2026-05-02T15:18:38.972Z</time></trkpt><trkpt lat="40.4086783" lon="15.01813"><ele>16.0</ele><time>2026-05-02T15:18:39.973Z</time></trkpt><trkpt lat="40.4087483" lon="15.0181233"><ele>16.0</ele><time>2026-05-02T15:18:40.973Z</time></trkpt><trkpt lat="40.4088117" lon="15.0181217"><ele>16.0</ele><time>2026-05-02T15:18:41.972Z</time></trkpt><trkpt lat="40.4089333" lon="15.0181117"><ele>15.999999999999998</ele><time>2026-05-02T15:18:43.972Z</time></trkpt><trkpt lat="40.409" lon="15.018105"><ele>16.0</ele><time>2026-05-02T15:18:44.973Z</time></trkpt><trkpt lat="40.4090667" lon="15.018105"><ele>15.999999999999998</ele><time>2026-05-02T15:18:45.972Z</time></trkpt><trkpt lat="40.409135" lon="15.0180983"><ele>16.0</ele><time>2026-05-02T15:18:46.973Z</time></trkpt><trkpt lat="40.4092083" lon="15.0180933"><ele>16.0</ele><time>2026-05-02T15:18:47.972Z</time></trkpt><trkpt lat="40.4092817" lon="15.0180933"><ele>16.0</ele><time>2026-05-02T15:18:48.972Z</time></trkpt><trkpt lat="40.4093583" lon="15.0180917"><ele>15.999999999999998</ele><time>2026-05-02T15:18:49.972Z</time></trkpt><trkpt lat="40.409435" lon="15.018085"><ele>16.0</ele><time>2026-05-02T15:18:50.973Z</time></trkpt><trkpt lat="40.4095167" lon="15.0180817"><ele>16.0</ele><time>2026-05-02T15:18:51.972Z</time></trkpt><trkpt lat="40.4096117" lon="15.0180717"><ele>16.0</ele><time>2026-05-02T15:18:52.972Z</time></trkpt><trkpt lat="40.409715" lon="15.01806"><ele>16.0</ele><time>2026-05-02T15:18:53.973Z</time></trkpt><trkpt lat="40.40982" lon="15.0180567"><ele>16.0</ele><time>2026-05-02T15:18:54.973Z</time></trkpt><trkpt lat="40.40992" lon="15.0180583"><ele>16.0</ele><time>2026-05-02T15:18:55.972Z</time></trkpt><trkpt lat="40.4100233" lon="15.01805"><ele>16.2</ele><time>2026-05-02T15:18:56.973Z</time></trkpt><trkpt lat="40.4101233" lon="15.0180517"><ele>16.400000000000002</ele><time>2026-05-02T15:18:57.972Z</time></trkpt><trkpt lat="40.4102233" lon="15.0180433"><ele>16.6</ele><time>2026-05-02T15:18:58.973Z</time></trkpt><trkpt lat="40.410335" lon="15.0180383"><ele>16.8</ele><time>2026-05-02T15:18:59.972Z</time></trkpt><trkpt lat="40.41044" lon="15.018035"><ele>17.0</ele><time>2026-05-02T15:19:00.973Z</time></trkpt><trkpt lat="40.4105567" lon="15.018025"><ele>17.25</ele><time>2026-05-02T15:19:01.973Z</time></trkpt><trkpt lat="40.4106717" lon="15.018025"><ele>17.5</ele><time>2026-05-02T15:19:02.972Z</time></trkpt><trkpt lat="40.4107917" lon="15.0180117"><ele>17.75</ele><time>2026-05-02T15:19:03.972Z</time></trkpt><trkpt lat="40.4109067" lon="15.0180033"><ele>18.0</ele><time>2026-05-02T15:19:04.973Z</time></trkpt><trkpt lat="40.4110183" lon="15.018"><ele>18.0</ele><time>2026-05-02T15:19:05.972Z</time></trkpt><trkpt lat="40.4111283" lon="15.0179917"><ele>18.0</ele><time>2026-05-02T15:19:06.972Z</time></trkpt><trkpt lat="40.4112417" lon="15.017985"><ele>18.0</ele><time>2026-05-02T15:19:07.973Z</time></trkpt><trkpt lat="40.4113467" lon="15.0179767"><ele>18.0</ele><time>2026-05-02T15:19:08.973Z</time></trkpt><trkpt lat="40.4114483" lon="15.0179733"><ele>18.0</ele><time>2026-05-02T15:19:09.973Z</time></trkpt><trkpt lat="40.411545" lon="15.017965"><ele>17.75</ele><time>2026-05-02T15:19:10.972Z</time></trkpt><trkpt lat="40.411655" lon="15.017955"><ele>17.5</ele><time>2026-05-02T15:19:11.973Z</time></trkpt><trkpt lat="40.411775" lon="15.0179533"><ele>17.25</ele><time>2026-05-02T15:19:12.972Z</time></trkpt><trkpt lat="40.411895" lon="15.0179433"><ele>17.0</ele><time>2026-05-02T15:19:13.973Z</time></trkpt><trkpt lat="40.4120183" lon="15.01794"><ele>17.0</ele><time>2026-05-02T15:19:14.973Z</time></trkpt><trkpt lat="40.4121417" lon="15.01794"><ele>17.0</ele><time>2026-05-02T15:19:15.972Z</time></trkpt><trkpt lat="40.412265" lon="15.0179317"><ele>17.0</ele><time>2026-05-02T15:19:16.972Z</time></trkpt><trkpt lat="40.4123883" lon="15.017925"><ele>17.0</ele><time>2026-05-02T15:19:17.972Z</time></trkpt><trkpt lat="40.4125133" lon="15.0179233"><ele>17.0</ele><time>2026-05-02T15:19:18.973Z</time></trkpt><trkpt lat="40.4126417" lon="15.01792"><ele>17.0</ele><time>2026-05-02T15:19:19.972Z</time></trkpt><trkpt lat="40.4127783" lon="15.0179017"><ele>17.0</ele><time>2026-05-02T15:19:20.973Z</time></trkpt><trkpt lat="40.4129233" lon="15.017885"><ele>17.0</ele><time>2026-05-02T15:19:21.972Z</time></trkpt><trkpt lat="40.4130633" lon="15.0178783"><ele>17.25</ele><time>2026-05-02T15:19:22.973Z</time></trkpt><trkpt lat="40.4132033" lon="15.0178733"><ele>17.5</ele><time>2026-05-02T15:19:23.972Z</time></trkpt><trkpt lat="40.4133333" lon="15.0178733"><ele>17.75</ele><time>2026-05-02T15:19:24.973Z</time></trkpt><trkpt lat="40.4134583" lon="15.017865"><ele>18.0</ele><time>2026-05-02T15:19:25.973Z</time></trkpt><trkpt lat="40.413585" lon="15.0178517"><ele>18.0</ele><time>2026-05-02T15:19:26.972Z</time></trkpt><trkpt lat="40.4137183" lon="15.0178417"><ele>18.0</ele><time>2026-05-02T15:19:27.972Z</time></trkpt><trkpt lat="40.4138467" lon="15.0178367"><ele>18.0</ele><time>2026-05-02T15:19:28.973Z</time></trkpt><trkpt lat="40.4139783" lon="15.0178317"><ele>18.0</ele><time>2026-05-02T15:19:29.972Z</time></trkpt><trkpt lat="40.4141117" lon="15.0178367"><ele>18.0</ele><time>2026-05-02T15:19:30.973Z</time></trkpt><trkpt lat="40.4142517" lon="15.0178267"><ele>18.0</ele><time>2026-05-02T15:19:31.973Z</time></trkpt><trkpt lat="40.414395" lon="15.01782"><ele>18.0</ele><time>2026-05-02T15:19:32.972Z</time></trkpt><trkpt lat="40.4145333" lon="15.0178117"><ele>18.0</ele><time>2026-05-02T15:19:33.972Z</time></trkpt><trkpt lat="40.4146683" lon="15.0178"><ele>18.0</ele><time>2026-05-02T15:19:34.972Z</time></trkpt><trkpt lat="40.4148" lon="15.0177917"><ele>18.0</ele><time>2026-05-02T15:19:35.973Z</time></trkpt><trkpt lat="40.4149383" lon="15.017785"><ele>18.0</ele><time>2026-05-02T15:19:36.973Z</time></trkpt><trkpt lat="40.41507" lon="15.01778"><ele>18.0</ele><time>2026-05-02T15:19:37.973Z</time></trkpt><trkpt lat="40.415205" lon="15.0177767"><ele>18.0</ele><time>2026-05-02T15:19:38.972Z</time></trkpt><trkpt lat="40.41534" lon="15.0177667"><ele>18.0</ele><time>2026-05-02T15:19:39.972Z</time></trkpt><trkpt lat="40.4154733" lon="15.01776"><ele>18.0</ele><time>2026-05-02T15:19:40.972Z</time></trkpt><trkpt lat="40.4155967" lon="15.0177533"><ele>18.0</ele><time>2026-05-02T15:19:41.972Z</time></trkpt><trkpt lat="40.4157283" lon="15.0177467"><ele>18.25</ele><time>2026-05-02T15:19:42.972Z</time></trkpt><trkpt lat="40.4158533" lon="15.0177383"><ele>18.5</ele><time>2026-05-02T15:19:43.973Z</time></trkpt><trkpt lat="40.4159833" lon="15.0177417"><ele>18.75</ele><time>2026-05-02T15:19:44.972Z</time></trkpt><trkpt lat="40.4161167" lon="15.0177433"><ele>19.0</ele><time>2026-05-02T15:19:45.972Z</time></trkpt><trkpt lat="40.41625" lon="15.0177483"><ele>19.25</ele><time>2026-05-02T15:19:46.972Z</time></trkpt><trkpt lat="40.4163933" lon="15.017755"><ele>19.5</ele><time>2026-05-02T15:19:47.972Z</time></trkpt><trkpt lat="40.416535" lon="15.0177717"><ele>19.75</ele><time>2026-05-02T15:19:48.972Z</time></trkpt><trkpt lat="40.4166717" lon="15.017795"><ele>20.0</ele><time>2026-05-02T15:19:49.972Z</time></trkpt><trkpt lat="40.4167967" lon="15.0178133"><ele>20.0</ele><time>2026-05-02T15:19:50.972Z</time></trkpt><trkpt lat="40.41692" lon="15.0178267"><ele>20.0</ele><time>2026-05-02T15:19:51.973Z</time></trkpt><trkpt lat="40.4170417" lon="15.0178417"><ele>20.0</ele><time>2026-05-02T15:19:52.972Z</time></trkpt><trkpt lat="40.4171667" lon="15.0178567"><ele>20.0</ele><time>2026-05-02T15:19:53.972Z</time></trkpt><trkpt lat="40.4172917" lon="15.01787"><ele>20.0</ele><time>2026-05-02T15:19:54.972Z</time></trkpt><trkpt lat="40.417415" lon="15.01789"><ele>20.0</ele><time>2026-05-02T15:19:55.972Z</time></trkpt><trkpt lat="40.4175467" lon="15.0179117"><ele>20.0</ele><time>2026-05-02T15:19:56.972Z</time></trkpt><trkpt lat="40.4176783" lon="15.01793"><ele>20.0</ele><time>2026-05-02T15:19:57.972Z</time></trkpt><trkpt lat="40.417805" lon="15.017945"><ele>20.0</ele><time>2026-05-02T15:19:58.972Z</time></trkpt><trkpt lat="40.41794" lon="15.0179633"><ele>20.0</ele><time>2026-05-02T15:19:59.972Z</time></trkpt><trkpt lat="40.4180767" lon="15.0179833"><ele>20.0</ele><time>2026-05-02T15:20:00.973Z</time></trkpt><trkpt lat="40.4182183" lon="15.017995"><ele>20.0</ele><time>2026-05-02T15:20:01.972Z</time></trkpt><trkpt lat="40.4183567" lon="15.0180183"><ele>20.0</ele><time>2026-05-02T15:20:02.972Z</time></trkpt><trkpt lat="40.418495" lon="15.0180383"><ele>20.0</ele><time>2026-05-02T15:20:03.973Z</time></trkpt><trkpt lat="40.4186333" lon="15.01806"><ele>20.0</ele><time>2026-05-02T15:20:04.972Z</time></trkpt><trkpt lat="40.4187767" lon="15.01808"><ele>20.0</ele><time>2026-05-02T15:20:05.973Z</time></trkpt><trkpt lat="40.418925" lon="15.0180983"><ele>19.25</ele><time>2026-05-02T15:20:06.973Z</time></trkpt><trkpt lat="40.4190733" lon="15.0181217"><ele>18.5</ele><time>2026-05-02T15:20:07.972Z</time></trkpt><trkpt lat="40.4192067" lon="15.0181383"><ele>17.75</ele><time>2026-05-02T15:20:08.972Z</time></trkpt><trkpt lat="40.4193383" lon="15.018165"><ele>17.0</ele><time>2026-05-02T15:20:09.972Z</time></trkpt><trkpt lat="40.4194733" lon="15.0181833"><ele>17.0</ele><time>2026-05-02T15:20:10.972Z</time></trkpt><trkpt lat="40.419615" lon="15.0181967"><ele>17.0</ele><time>2026-05-02T15:20:11.972Z</time></trkpt><trkpt lat="40.4197583" lon="15.0182083"><ele>17.0</ele><time>2026-05-02T15:20:12.973Z</time></trkpt><trkpt lat="40.4198983" lon="15.018225"><ele>17.0</ele><time>2026-05-02T15:20:13.973Z</time></trkpt><trkpt lat="40.42004" lon="15.0182483"><ele>17.0</ele><time>2026-05-02T15:20:14.972Z</time></trkpt><trkpt lat="40.4201817" lon="15.01827"><ele>17.0</ele><time>2026-05-02T15:20:15.972Z</time></trkpt><trkpt lat="40.420325" lon="15.0182883"><ele>17.0</ele><time>2026-05-02T15:20:16.973Z</time></trkpt><trkpt lat="40.420465" lon="15.018305"><ele>17.0</ele><time>2026-05-02T15:20:17.973Z</time></trkpt><trkpt lat="40.4206117" lon="15.0183233"><ele>18.0</ele><time>2026-05-02T15:20:18.972Z</time></trkpt><trkpt lat="40.4207617" lon="15.0183483"><ele>19.0</ele><time>2026-05-02T15:20:19.972Z</time></trkpt><trkpt lat="40.42091" lon="15.0183633"><ele>20.0</ele><time>2026-05-02T15:20:20.973Z</time></trkpt><trkpt lat="40.42106" lon="15.01838"><ele>20.0</ele><time>2026-05-02T15:20:21.973Z</time></trkpt><trkpt lat="40.4211967" lon="15.018405"><ele>20.0</ele><time>2026-05-02T15:20:22.972Z</time></trkpt><trkpt lat="40.4213367" lon="15.0184267"><ele>20.0</ele><time>2026-05-02T15:20:23.972Z</time></trkpt><trkpt lat="40.4214783" lon="15.018445"><ele>20.0</ele><time>2026-05-02T15:20:24.973Z</time></trkpt><trkpt lat="40.4216133" lon="15.0184667"><ele>20.0</ele><time>2026-05-02T15:20:25.973Z</time></trkpt><trkpt lat="40.42175" lon="15.0184817"><ele>20.0</ele><time>2026-05-02T15:20:26.972Z</time></trkpt><trkpt lat="40.4218867" lon="15.0184917"><ele>20.0</ele><time>2026-05-02T15:20:27.972Z</time></trkpt><trkpt lat="40.4220267" lon="15.0184917"><ele>20.0</ele><time>2026-05-02T15:20:28.972Z</time></trkpt><trkpt lat="40.42217" lon="15.0184833"><ele>20.0</ele><time>2026-05-02T15:20:29.973Z</time></trkpt><trkpt lat="40.422305" lon="15.01848"><ele>20.0</ele><time>2026-05-02T15:20:30.972Z</time></trkpt><trkpt lat="40.42244" lon="15.0184733"><ele>20.0</ele><time>2026-05-02T15:20:31.972Z</time></trkpt><trkpt lat="40.422575" lon="15.0184667"><ele>20.0</ele><time>2026-05-02T15:20:32.972Z</time></trkpt><trkpt lat="40.4227183" lon="15.0184567"><ele>20.0</ele><time>2026-05-02T15:20:33.973Z</time></trkpt><trkpt lat="40.4228617" lon="15.0184567"><ele>20.0</ele><time>2026-05-02T15:20:34.972Z</time></trkpt><trkpt lat="40.42301" lon="15.01845"><ele>20.0</ele><time>2026-05-02T15:20:35.973Z</time></trkpt><trkpt lat="40.4231533" lon="15.0184433"><ele>20.0</ele><time>2026-05-02T15:20:36.972Z</time></trkpt><trkpt lat="40.4233017" lon="15.0184367"><ele>19.75</ele><time>2026-05-02T15:20:37.972Z</time></trkpt><trkpt lat="40.4234417" lon="15.0184333"><ele>19.5</ele><time>2026-05-02T15:20:38.972Z</time></trkpt><trkpt lat="40.4235833" lon="15.01842"><ele>19.25</ele><time>2026-05-02T15:20:39.972Z</time></trkpt><trkpt lat="40.4237283" lon="15.0184"><ele>19.0</ele><time>2026-05-02T15:20:40.972Z</time></trkpt><trkpt lat="40.4238717" lon="15.0184017"><ele>19.0</ele><time>2026-05-02T15:20:41.972Z</time></trkpt><trkpt lat="40.424015" lon="15.0184067"><ele>19.0</ele><time>2026-05-02T15:20:42.972Z</time></trkpt><trkpt lat="40.42416" lon="15.0184083"><ele>19.0</ele><time>2026-05-02T15:20:43.972Z</time></trkpt><trkpt lat="40.4243067" lon="15.01841"><ele>19.0</ele><time>2026-05-02T15:20:44.972Z</time></trkpt><trkpt lat="40.4244583" lon="15.018405"><ele>19.0</ele><time>2026-05-02T15:20:45.973Z</time></trkpt><trkpt lat="40.4246067" lon="15.0183983"><ele>19.0</ele><time>2026-05-02T15:20:46.973Z</time></trkpt><trkpt lat="40.4247583" lon="15.01839"><ele>19.0</ele><time>2026-05-02T15:20:47.972Z</time></trkpt><trkpt lat="40.4249167" lon="15.0183917"><ele>18.666666666666664</ele><time>2026-05-02T15:20:48.973Z</time></trkpt><trkpt lat="40.4250783" lon="15.0183767"><ele>18.333333333333332</ele><time>2026-05-02T15:20:49.972Z</time></trkpt><trkpt lat="40.4252433" lon="15.018375"><ele>18.0</ele><time>2026-05-02T15:20:50.972Z</time></trkpt><trkpt lat="40.425405" lon="15.0183717"><ele>18.0</ele><time>2026-05-02T15:20:51.972Z</time></trkpt><trkpt lat="40.4255683" lon="15.0183583"><ele>18.0</ele><time>2026-05-02T15:20:52.972Z</time></trkpt><trkpt lat="40.4257433" lon="15.0183533"><ele>18.0</ele><time>2026-05-02T15:20:53.972Z</time></trkpt><trkpt lat="40.4259067" lon="15.0183533"><ele>18.0</ele><time>2026-05-02T15:20:54.972Z</time></trkpt><trkpt lat="40.4260683" lon="15.018345"><ele>18.0</ele><time>2026-05-02T15:20:55.973Z</time></trkpt><trkpt lat="40.4262233" lon="15.0183467"><ele>18.0</ele><time>2026-05-02T15:20:56.973Z</time></trkpt><trkpt lat="40.4263867" lon="15.01834"><ele>18.0</ele><time>2026-05-02T15:20:57.972Z</time></trkpt><trkpt lat="40.4265467" lon="15.0183333"><ele>18.0</ele><time>2026-05-02T15:20:58.973Z</time></trkpt><trkpt lat="40.4266983" lon="15.0183317"><ele>18.0</ele><time>2026-05-02T15:20:59.972Z</time></trkpt><trkpt lat="40.426855" lon="15.0183167"><ele>17.75</ele><time>2026-05-02T15:21:00.972Z</time></trkpt><trkpt lat="40.4270017" lon="15.0183083"><ele>17.5</ele><time>2026-05-02T15:21:01.973Z</time></trkpt><trkpt lat="40.4271433" lon="15.01831"><ele>17.25</ele><time>2026-05-02T15:21:02.972Z</time></trkpt><trkpt lat="40.4272883" lon="15.0183033"><ele>17.0</ele><time>2026-05-02T15:21:03.972Z</time></trkpt><trkpt lat="40.4274367" lon="15.018295"><ele>17.0</ele><time>2026-05-02T15:21:04.972Z</time></trkpt><trkpt lat="40.4275767" lon="15.0182933"><ele>17.0</ele><time>2026-05-02T15:21:05.972Z</time></trkpt><trkpt lat="40.4277183" lon="15.018285"><ele>17.0</ele><time>2026-05-02T15:21:06.973Z</time></trkpt><trkpt lat="40.4278683" lon="15.01828"><ele>17.0</ele><time>2026-05-02T15:21:07.972Z</time></trkpt><trkpt lat="40.428015" lon="15.0182767"><ele>16.666666666666668</ele><time>2026-05-02T15:21:08.973Z</time></trkpt><trkpt lat="40.4281667" lon="15.0182667"><ele>16.333333333333332</ele><time>2026-05-02T15:21:09.972Z</time></trkpt><trkpt lat="40.4283133" lon="15.0182633"><ele>16.0</ele><time>2026-05-02T15:21:10.973Z</time></trkpt><trkpt lat="40.4284683" lon="15.018255"><ele>16.0</ele><time>2026-05-02T15:21:11.972Z</time></trkpt><trkpt lat="40.4286133" lon="15.0182617"><ele>16.0</ele><time>2026-05-02T15:21:12.972Z</time></trkpt><trkpt lat="40.4287617" lon="15.0182633"><ele>16.0</ele><time>2026-05-02T15:21:13.972Z</time></trkpt><trkpt lat="40.4289133" lon="15.0182567"><ele>16.0</ele><time>2026-05-02T15:21:14.972Z</time></trkpt><trkpt lat="40.4290717" lon="15.01825"><ele>16.75</ele><time>2026-05-02T15:21:15.972Z</time></trkpt><trkpt lat="40.4292283" lon="15.018235"><ele>17.5</ele><time>2026-05-02T15:21:16.972Z</time></trkpt><trkpt lat="40.4293733" lon="15.0182367"><ele>18.25</ele><time>2026-05-02T15:21:17.972Z</time></trkpt><trkpt lat="40.4295167" lon="15.018235"><ele>19.0</ele><time>2026-05-02T15:21:18.972Z</time></trkpt><trkpt lat="40.4296517" lon="15.0182467"><ele>19.25</ele><time>2026-05-02T15:21:19.972Z</time></trkpt><trkpt lat="40.4297917" lon="15.0182483"><ele>19.5</ele><time>2026-05-02T15:21:20.973Z</time></trkpt><trkpt lat="40.4299283" lon="15.018265"><ele>19.75</ele><time>2026-05-02T15:21:21.973Z</time></trkpt><trkpt lat="40.4300733" lon="15.01827"><ele>20.0</ele><time>2026-05-02T15:21:22.973Z</time></trkpt><trkpt lat="40.4302167" lon="15.018285"><ele>20.0</ele><time>2026-05-02T15:21:23.973Z</time></trkpt><trkpt lat="40.4303633" lon="15.0182983"><ele>20.0</ele><time>2026-05-02T15:21:24.972Z</time></trkpt><trkpt lat="40.4305167" lon="15.0183133"><ele>20.0</ele><time>2026-05-02T15:21:25.972Z</time></trkpt><trkpt lat="40.430665" lon="15.01833"><ele>20.0</ele><time>2026-05-02T15:21:26.972Z</time></trkpt><trkpt lat="40.4308183" lon="15.0183333"><ele>20.0</ele><time>2026-05-02T15:21:27.973Z</time></trkpt><trkpt lat="40.43097" lon="15.0183583"><ele>20.0</ele><time>2026-05-02T15:21:28.973Z</time></trkpt><trkpt lat="40.4311233" lon="15.0183633"><ele>20.0</ele><time>2026-05-02T15:21:29.972Z</time></trkpt><trkpt lat="40.431275" lon="15.0183767"><ele>20.0</ele><time>2026-05-02T15:21:30.973Z</time></trkpt><trkpt lat="40.4314317" lon="15.0183917"><ele>20.0</ele><time>2026-05-02T15:21:31.972Z</time></trkpt><trkpt lat="40.4315833" lon="15.0184067"><ele>20.0</ele><time>2026-05-02T15:21:32.972Z</time></trkpt><trkpt lat="40.4317367" lon="15.018415"><ele>20.0</ele><time>2026-05-02T15:21:33.972Z</time></trkpt><trkpt lat="40.4318883" lon="15.0184367"><ele>20.0</ele><time>2026-05-02T15:21:34.972Z</time></trkpt><trkpt lat="40.4320467" lon="15.0184483"><ele>20.0</ele><time>2026-05-02T15:21:35.973Z</time></trkpt><trkpt lat="40.432205" lon="15.0184633"><ele>20.0</ele><time>2026-05-02T15:21:36.972Z</time></trkpt><trkpt lat="40.4323633" lon="15.0184783"><ele>20.0</ele><time>2026-05-02T15:21:37.972Z</time></trkpt><trkpt lat="40.4325167" lon="15.0184933"><ele>20.0</ele><time>2026-05-02T15:21:38.973Z</time></trkpt><trkpt lat="40.4326717" lon="15.018505"><ele>20.0</ele><time>2026-05-02T15:21:39.972Z</time></trkpt><trkpt lat="40.4328267" lon="15.0185133"><ele>20.0</ele><time>2026-05-02T15:21:40.972Z</time></trkpt><trkpt lat="40.4329833" lon="15.0185217"><ele>19.666666666666668</ele><time>2026-05-02T15:21:41.972Z</time></trkpt><trkpt lat="40.43314" lon="15.018535"><ele>19.333333333333332</ele><time>2026-05-02T15:21:42.973Z</time></trkpt><trkpt lat="40.4332983" lon="15.0185483"><ele>19.0</ele><time>2026-05-02T15:21:43.972Z</time></trkpt><trkpt lat="40.433455" lon="15.018565"><ele>19.0</ele><time>2026-05-02T15:21:44.973Z</time></trkpt><trkpt lat="40.4336117" lon="15.0185733"><ele>19.0</ele><time>2026-05-02T15:21:45.972Z</time></trkpt><trkpt lat="40.433775" lon="15.0185833"><ele>19.0</ele><time>2026-05-02T15:21:46.972Z</time></trkpt><trkpt lat="40.4339333" lon="15.0186"><ele>19.333333333333332</ele><time>2026-05-02T15:21:47.972Z</time></trkpt><trkpt lat="40.4340867" lon="15.0186167"><ele>19.666666666666668</ele><time>2026-05-02T15:21:48.972Z</time></trkpt><trkpt lat="40.434245" lon="15.01863"><ele>20.0</ele><time>2026-05-02T15:21:49.972Z</time></trkpt><trkpt lat="40.4343967" lon="15.0186433"><ele>20.0</ele><time>2026-05-02T15:21:50.972Z</time></trkpt><trkpt lat="40.4345483" lon="15.0186517"><ele>20.0</ele><time>2026-05-02T15:21:51.972Z</time></trkpt><trkpt lat="40.43469" lon="15.0186567"><ele>20.0</ele><time>2026-05-02T15:21:52.972Z</time></trkpt><trkpt lat="40.4348267" lon="15.018665"><ele>20.0</ele><time>2026-05-02T15:21:53.972Z</time></trkpt><trkpt lat="40.434955" lon="15.018675"><ele>20.0</ele><time>2026-05-02T15:21:54.973Z</time></trkpt><trkpt lat="40.4350733" lon="15.0186933"><ele>20.0</ele><time>2026-05-02T15:21:55.972Z</time></trkpt><trkpt lat="40.435195" lon="15.0187067"><ele>20.0</ele><time>2026-05-02T15:21:56.972Z</time></trkpt><trkpt lat="40.4353167" lon="15.0187217"><ele>20.0</ele><time>2026-05-02T15:21:57.972Z</time></trkpt><trkpt lat="40.43545" lon="15.0187283"><ele>20.5</ele><time>2026-05-02T15:21:58.972Z</time></trkpt><trkpt lat="40.4355883" lon="15.0187383"><ele>21.0</ele><time>2026-05-02T15:21:59.973Z</time></trkpt><trkpt lat="40.435725" lon="15.01875"><ele>21.5</ele><time>2026-05-02T15:22:00.973Z</time></trkpt><trkpt lat="40.435865" lon="15.0187633"><ele>22.0</ele><time>2026-05-02T15:22:01.973Z</time></trkpt><trkpt lat="40.4360083" lon="15.0187783"><ele>22.0</ele><time>2026-05-02T15:22:02.973Z</time></trkpt><trkpt lat="40.4361533" lon="15.01879"><ele>22.0</ele><time>2026-05-02T15:22:03.972Z</time></trkpt><trkpt lat="40.4362933" lon="15.01881"><ele>22.0</ele><time>2026-05-02T15:22:04.973Z</time></trkpt><trkpt lat="40.436435" lon="15.0188183"><ele>22.0</ele><time>2026-05-02T15:22:05.972Z</time></trkpt><trkpt lat="40.4365833" lon="15.0188217"><ele>21.75</ele><time>2026-05-02T15:22:06.972Z</time></trkpt><trkpt lat="40.436735" lon="15.0188283"><ele>21.5</ele><time>2026-05-02T15:22:07.973Z</time></trkpt><trkpt lat="40.4368867" lon="15.01884"><ele>21.25</ele><time>2026-05-02T15:22:08.972Z</time></trkpt><trkpt lat="40.437015" lon="15.018855"><ele>21.0</ele><time>2026-05-02T15:22:09.972Z</time></trkpt><trkpt lat="40.437135" lon="15.0188633"><ele>21.0</ele><time>2026-05-02T15:22:10.973Z</time></trkpt><trkpt lat="40.4372333" lon="15.018875"><ele>21.0</ele><time>2026-05-02T15:22:11.973Z</time></trkpt><trkpt lat="40.4373267" lon="15.0188833"><ele>21.0</ele><time>2026-05-02T15:22:12.972Z</time></trkpt><trkpt lat="40.43741" lon="15.01889"><ele>21.0</ele><time>2026-05-02T15:22:13.973Z</time></trkpt><trkpt lat="40.4374867" lon="15.0188983"><ele>21.0</ele><time>2026-05-02T15:22:14.972Z</time></trkpt><trkpt lat="40.437565" lon="15.018905"><ele>21.0</ele><time>2026-05-02T15:22:15.972Z</time></trkpt><trkpt lat="40.4376433" lon="15.0189117"><ele>21.0</ele><time>2026-05-02T15:22:16.973Z</time></trkpt><trkpt lat="40.4377183" lon="15.0189217"><ele>21.0</ele><time>2026-05-02T15:22:17.972Z</time></trkpt><trkpt lat="40.4378033" lon="15.018935"><ele>21.0</ele><time>2026-05-02T15:22:18.973Z</time></trkpt><trkpt lat="40.43789" lon="15.0189417"><ele>21.0</ele><time>2026-05-02T15:22:19.972Z</time></trkpt><trkpt lat="40.4379833" lon="15.01895"><ele>21.0</ele><time>2026-05-02T15:22:20.973Z</time></trkpt><trkpt lat="40.43809" lon="15.018955"><ele>21.0</ele><time>2026-05-02T15:22:21.973Z</time></trkpt><trkpt lat="40.4381933" lon="15.0189633"><ele>21.6</ele><time>2026-05-02T15:22:22.973Z</time></trkpt><trkpt lat="40.4382983" lon="15.0189767"><ele>22.200000000000003</ele><time>2026-05-02T15:22:23.973Z</time></trkpt><trkpt lat="40.4384117" lon="15.01898"><ele>22.799999999999997</ele><time>2026-05-02T15:22:24.972Z</time></trkpt><trkpt lat="40.43853" lon="15.018985"><ele>23.4</ele><time>2026-05-02T15:22:25.972Z</time></trkpt><trkpt lat="40.4386383" lon="15.0189983"><ele>24.0</ele><time>2026-05-02T15:22:26.973Z</time></trkpt><trkpt lat="40.43875" lon="15.0190067"><ele>24.0</ele><time>2026-05-02T15:22:27.972Z</time></trkpt><trkpt lat="40.4388617" lon="15.0190183"><ele>24.0</ele><time>2026-05-02T15:22:28.972Z</time></trkpt><trkpt lat="40.438975" lon="15.0190283"><ele>24.0</ele><time>2026-05-02T15:22:29.973Z</time></trkpt><trkpt lat="40.439085" lon="15.019035"><ele>24.0</ele><time>2026-05-02T15:22:30.972Z</time></trkpt><trkpt lat="40.4392017" lon="15.0190383"><ele>24.0</ele><time>2026-05-02T15:22:31.972Z</time></trkpt><trkpt lat="40.43931" lon="15.0190567"><ele>24.0</ele><time>2026-05-02T15:22:32.972Z</time></trkpt><trkpt lat="40.43943" lon="15.01906"><ele>24.0</ele><time>2026-05-02T15:22:33.972Z</time></trkpt><trkpt lat="40.439545" lon="15.0190717"><ele>24.0</ele><time>2026-05-02T15:22:34.972Z</time></trkpt><trkpt lat="40.4396717" lon="15.0190883"><ele>24.0</ele><time>2026-05-02T15:22:35.972Z</time></trkpt><trkpt lat="40.4398017" lon="15.019095"><ele>24.0</ele><time>2026-05-02T15:22:36.973Z</time></trkpt><trkpt lat="40.4399283" lon="15.019105"><ele>24.0</ele><time>2026-05-02T15:22:37.972Z</time></trkpt><trkpt lat="40.4400483" lon="15.0191167"><ele>24.0</ele><time>2026-05-02T15:22:38.973Z</time></trkpt><trkpt lat="40.4401783" lon="15.019125"><ele>24.0</ele><time>2026-05-02T15:22:39.972Z</time></trkpt><trkpt lat="40.4403083" lon="15.01913"><ele>24.0</ele><time>2026-05-02T15:22:40.972Z</time></trkpt><trkpt lat="40.4404383" lon="15.01914"><ele>24.0</ele><time>2026-05-02T15:22:41.972Z</time></trkpt><trkpt lat="40.44057" lon="15.0191483"><ele>24.0</ele><time>2026-05-02T15:22:42.972Z</time></trkpt><trkpt lat="40.4407083" lon="15.0191617"><ele>24.25</ele><time>2026-05-02T15:22:43.973Z</time></trkpt><trkpt lat="40.44085" lon="15.0191683"><ele>24.5</ele><time>2026-05-02T15:22:44.973Z</time></trkpt><trkpt lat="40.4409917" lon="15.0191767"><ele>24.75</ele><time>2026-05-02T15:22:45.973Z</time></trkpt><trkpt lat="40.4411267" lon="15.0191883"><ele>25.0</ele><time>2026-05-02T15:22:46.972Z</time></trkpt><trkpt lat="40.4412567" lon="15.0192"><ele>25.5</ele><time>2026-05-02T15:22:47.973Z</time></trkpt><trkpt lat="40.44139" lon="15.0192117"><ele>26.0</ele><time>2026-05-02T15:22:48.972Z</time></trkpt><trkpt lat="40.44152" lon="15.01922"><ele>26.5</ele><time>2026-05-02T15:22:49.972Z</time></trkpt><trkpt lat="40.4416533" lon="15.0192283"><ele>27.0</ele><time>2026-05-02T15:22:50.972Z</time></trkpt><trkpt lat="40.4417883" lon="15.0192433"><ele>27.0</ele><time>2026-05-02T15:22:51.972Z</time></trkpt><trkpt lat="40.4419183" lon="15.0192533"><ele>27.0</ele><time>2026-05-02T15:22:52.972Z</time></trkpt><trkpt lat="40.4420433" lon="15.0192667"><ele>27.0</ele><time>2026-05-02T15:22:53.972Z</time></trkpt><trkpt lat="40.4421767" lon="15.019275"><ele>27.0</ele><time>2026-05-02T15:22:54.973Z</time></trkpt><trkpt lat="40.4423083" lon="15.0192833"><ele>27.5</ele><time>2026-05-02T15:22:55.972Z</time></trkpt><trkpt lat="40.4424417" lon="15.0192883"><ele>28.0</ele><time>2026-05-02T15:22:56.973Z</time></trkpt><trkpt lat="40.44257" lon="15.0193067"><ele>28.5</ele><time>2026-05-02T15:22:57.973Z</time></trkpt><trkpt lat="40.4426917" lon="15.01932"><ele>29.0</ele><time>2026-05-02T15:22:58.972Z</time></trkpt><trkpt lat="40.4428183" lon="15.01933"><ele>29.0</ele><time>2026-05-02T15:22:59.972Z</time></trkpt><trkpt lat="40.44294" lon="15.0193383"><ele>29.0</ele><time>2026-05-02T15:23:00.973Z</time></trkpt><trkpt lat="40.4430633" lon="15.019345"><ele>29.0</ele><time>2026-05-02T15:23:01.972Z</time></trkpt><trkpt lat="40.443195" lon="15.0193517"><ele>29.0</ele><time>2026-05-02T15:23:02.972Z</time></trkpt><trkpt lat="40.4433317" lon="15.0193533"><ele>29.5</ele><time>2026-05-02T15:23:03.973Z</time></trkpt><trkpt lat="40.44347" lon="15.0193533"><ele>30.0</ele><time>2026-05-02T15:23:04.973Z</time></trkpt><trkpt lat="40.4436067" lon="15.01936"><ele>30.5</ele><time>2026-05-02T15:23:05.972Z</time></trkpt><trkpt lat="40.44375" lon="15.0193633"><ele>31.0</ele><time>2026-05-02T15:23:06.972Z</time></trkpt><trkpt lat="40.443895" lon="15.0193517"><ele>31.0</ele><time>2026-05-02T15:23:07.973Z</time></trkpt><trkpt lat="40.44405" lon="15.019325"><ele>31.0</ele><time>2026-05-02T15:23:08.972Z</time></trkpt><trkpt lat="40.4442067" lon="15.0192983"><ele>31.0</ele><time>2026-05-02T15:23:09.972Z</time></trkpt><trkpt lat="40.4443617" lon="15.01927"><ele>31.0</ele><time>2026-05-02T15:23:10.972Z</time></trkpt><trkpt lat="40.4445183" lon="15.0192483"><ele>31.0</ele><time>2026-05-02T15:23:11.972Z</time></trkpt><trkpt lat="40.444665" lon="15.0192183"><ele>31.0</ele><time>2026-05-02T15:23:12.973Z</time></trkpt><trkpt lat="40.4448167" lon="15.0191917"><ele>30.333333333333336</ele><time>2026-05-02T15:23:13.972Z</time></trkpt><trkpt lat="40.4449633" lon="15.0191583"><ele>29.666666666666664</ele><time>2026-05-02T15:23:14.972Z</time></trkpt><trkpt lat="40.44512" lon="15.0191283"><ele>29.0</ele><time>2026-05-02T15:23:15.972Z</time></trkpt><trkpt lat="40.445275" lon="15.0191117"><ele>28.333333333333332</ele><time>2026-05-02T15:23:16.972Z</time></trkpt><trkpt lat="40.4454267" lon="15.019085"><ele>27.666666666666664</ele><time>2026-05-02T15:23:17.972Z</time></trkpt><trkpt lat="40.44558" lon="15.019055"><ele>27.0</ele><time>2026-05-02T15:23:18.972Z</time></trkpt><trkpt lat="40.4457267" lon="15.0190317"><ele>25.666666666666668</ele><time>2026-05-02T15:23:19.973Z</time></trkpt><trkpt lat="40.445875" lon="15.0190017"><ele>24.333333333333336</ele><time>2026-05-02T15:23:20.972Z</time></trkpt><trkpt lat="40.44603" lon="15.0189717"><ele>23.0</ele><time>2026-05-02T15:23:21.972Z</time></trkpt><trkpt lat="40.4461783" lon="15.0189383"><ele>23.25</ele><time>2026-05-02T15:23:22.972Z</time></trkpt><trkpt lat="40.4463283" lon="15.01891"><ele>23.5</ele><time>2026-05-02T15:23:23.973Z</time></trkpt><trkpt lat="40.446475" lon="15.0188883"><ele>23.75</ele><time>2026-05-02T15:23:24.973Z</time></trkpt><trkpt lat="40.44662" lon="15.0188583"><ele>24.0</ele><time>2026-05-02T15:23:25.973Z</time></trkpt><trkpt lat="40.4467717" lon="15.01883"><ele>24.0</ele><time>2026-05-02T15:23:26.973Z</time></trkpt><trkpt lat="40.44692" lon="15.0188033"><ele>24.0</ele><time>2026-05-02T15:23:27.973Z</time></trkpt><trkpt lat="40.44707" lon="15.0187767"><ele>24.0</ele><time>2026-05-02T15:23:28.972Z</time></trkpt><trkpt lat="40.4472167" lon="15.0187517"><ele>24.0</ele><time>2026-05-02T15:23:29.973Z</time></trkpt><trkpt lat="40.4473683" lon="15.0187217"><ele>24.333333333333336</ele><time>2026-05-02T15:23:30.973Z</time></trkpt><trkpt lat="40.4475217" lon="15.0186917"><ele>24.666666666666668</ele><time>2026-05-02T15:23:31.972Z</time></trkpt><trkpt lat="40.447675" lon="15.0186683"><ele>25.0</ele><time>2026-05-02T15:23:32.973Z</time></trkpt><trkpt lat="40.44783" lon="15.0186467"><ele>25.0</ele><time>2026-05-02T15:23:33.973Z</time></trkpt><trkpt lat="40.44799" lon="15.018615"><ele>25.0</ele><time>2026-05-02T15:23:34.973Z</time></trkpt><trkpt lat="40.4481467" lon="15.0185867"><ele>25.0</ele><time>2026-05-02T15:23:35.972Z</time></trkpt><trkpt lat="40.4483017" lon="15.01856"><ele>25.0</ele><time>2026-05-02T15:23:36.972Z</time></trkpt><trkpt lat="40.448455" lon="15.0185383"><ele>25.0</ele><time>2026-05-02T15:23:37.972Z</time></trkpt><trkpt lat="40.4486167" lon="15.0185133"><ele>25.0</ele><time>2026-05-02T15:23:38.973Z</time></trkpt><trkpt lat="40.4487767" lon="15.0184867"><ele>25.333333333333336</ele><time>2026-05-02T15:23:39.972Z</time></trkpt><trkpt lat="40.448945" lon="15.0184533"><ele>25.666666666666664</ele><time>2026-05-02T15:23:40.973Z</time></trkpt><trkpt lat="40.4491133" lon="15.018425"><ele>26.0</ele><time>2026-05-02T15:23:41.972Z</time></trkpt><trkpt lat="40.4492817" lon="15.0183917"><ele>26.0</ele><time>2026-05-02T15:23:42.972Z</time></trkpt><trkpt lat="40.4494433" lon="15.0183633"><ele>26.0</ele><time>2026-05-02T15:23:43.972Z</time></trkpt><trkpt lat="40.4496133" lon="15.0183283"><ele>26.0</ele><time>2026-05-02T15:23:44.973Z</time></trkpt><trkpt lat="40.4497833" lon="15.018295"><ele>25.666666666666664</ele><time>2026-05-02T15:23:45.972Z</time></trkpt><trkpt lat="40.44995" lon="15.0182633"><ele>25.333333333333336</ele><time>2026-05-02T15:23:46.973Z</time></trkpt><trkpt lat="40.4501217" lon="15.0182283"><ele>25.0</ele><time>2026-05-02T15:23:47.973Z</time></trkpt><trkpt lat="40.45029" lon="15.0181983"><ele>25.0</ele><time>2026-05-02T15:23:48.972Z</time></trkpt><trkpt lat="40.4504567" lon="15.01817"><ele>25.0</ele><time>2026-05-02T15:23:49.973Z</time></trkpt><trkpt lat="40.4506283" lon="15.0181383"><ele>25.0</ele><time>2026-05-02T15:23:50.972Z</time></trkpt><trkpt lat="40.4507933" lon="15.0181067"><ele>24.666666666666668</ele><time>2026-05-02T15:23:51.972Z</time></trkpt><trkpt lat="40.4509583" lon="15.018075"><ele>24.333333333333336</ele><time>2026-05-02T15:23:52.972Z</time></trkpt><trkpt lat="40.451125" lon="15.018045"><ele>24.0</ele><time>2026-05-02T15:23:53.972Z</time></trkpt><trkpt lat="40.4512833" lon="15.018015"><ele>24.0</ele><time>2026-05-02T15:23:54.973Z</time></trkpt><trkpt lat="40.4514433" lon="15.0179917"><ele>24.0</ele><time>2026-05-02T15:23:55.973Z</time></trkpt><trkpt lat="40.451605" lon="15.0179633"><ele>24.0</ele><time>2026-05-02T15:23:56.972Z</time></trkpt><trkpt lat="40.4517667" lon="15.017935"><ele>24.0</ele><time>2026-05-02T15:23:57.973Z</time></trkpt><trkpt lat="40.45193" lon="15.017905"><ele>24.0</ele><time>2026-05-02T15:23:58.972Z</time></trkpt><trkpt lat="40.4520917" lon="15.0178783"><ele>24.0</ele><time>2026-05-02T15:23:59.972Z</time></trkpt><trkpt lat="40.4522583" lon="15.0178517"><ele>24.333333333333336</ele><time>2026-05-02T15:24:00.972Z</time></trkpt><trkpt lat="40.4524283" lon="15.0178167"><ele>24.666666666666668</ele><time>2026-05-02T15:24:01.972Z</time></trkpt><trkpt lat="40.4526033" lon="15.0177883"><ele>25.0</ele><time>2026-05-02T15:24:02.973Z</time></trkpt><trkpt lat="40.4527733" lon="15.0177567"><ele>25.0</ele><time>2026-05-02T15:24:03.972Z</time></trkpt><trkpt lat="40.4529467" lon="15.0177267"><ele>25.0</ele><time>2026-05-02T15:24:04.973Z</time></trkpt><trkpt lat="40.4531283" lon="15.01769"><ele>25.0</ele><time>2026-05-02T15:24:05.972Z</time></trkpt><trkpt lat="40.453305" lon="15.0176567"><ele>25.0</ele><time>2026-05-02T15:24:06.972Z</time></trkpt><trkpt lat="40.4534917" lon="15.0176233"><ele>25.0</ele><time>2026-05-02T15:24:07.972Z</time></trkpt><trkpt lat="40.4536717" lon="15.01759"><ele>25.0</ele><time>2026-05-02T15:24:08.973Z</time></trkpt><trkpt lat="40.4538533" lon="15.0175567"><ele>25.0</ele><time>2026-05-02T15:24:09.972Z</time></trkpt><trkpt lat="40.45403" lon="15.017525"><ele>25.0</ele><time>2026-05-02T15:24:10.972Z</time></trkpt><trkpt lat="40.454215" lon="15.01749"><ele>25.0</ele><time>2026-05-02T15:24:11.972Z</time></trkpt><trkpt lat="40.4543867" lon="15.0174583"><ele>24.0</ele><time>2026-05-02T15:24:12.972Z</time></trkpt><trkpt lat="40.4545583" lon="15.01743"><ele>23.0</ele><time>2026-05-02T15:24:13.972Z</time></trkpt><trkpt lat="40.4547167" lon="15.017395"><ele>22.0</ele><time>2026-05-02T15:24:14.973Z</time></trkpt><trkpt lat="40.454855" lon="15.0173717"><ele>22.0</ele><time>2026-05-02T15:24:15.972Z</time></trkpt><trkpt lat="40.454975" lon="15.017355"><ele>22.0</ele><time>2026-05-02T15:24:16.972Z</time></trkpt><trkpt lat="40.455085" lon="15.0173383"><ele>22.0</ele><time>2026-05-02T15:24:17.973Z</time></trkpt><trkpt lat="40.4551883" lon="15.01732"><ele>22.0</ele><time>2026-05-02T15:24:18.972Z</time></trkpt><trkpt lat="40.45527" lon="15.0173083"><ele>22.0</ele><time>2026-05-02T15:24:19.972Z</time></trkpt><trkpt lat="40.4553383" lon="15.0173083"><ele>22.0</ele><time>2026-05-02T15:24:20.972Z</time></trkpt><trkpt lat="40.4554233" lon="15.0173217"><ele>22.0</ele><time>2026-05-02T15:24:22.973Z</time></trkpt><trkpt lat="40.4555067" lon="15.017435"><ele>22.0</ele><time>2026-05-02T15:29:09.973Z</time></trkpt><trkpt lat="40.45556" lon="15.0175"><ele>22.0</ele><time>2026-05-02T15:29:10.972Z</time></trkpt><trkpt lat="40.4556067" lon="15.0175817"><ele>22.0</ele><time>2026-05-02T15:29:11.973Z</time></trkpt><trkpt lat="40.4556433" lon="15.0176883"><ele>22.0</ele><time>2026-05-02T15:29:12.972Z</time></trkpt><trkpt lat="40.4556567" lon="15.0178083"><ele>22.6</ele><time>2026-05-02T15:29:13.973Z</time></trkpt><trkpt lat="40.4556517" lon="15.017945"><ele>23.200000000000003</ele><time>2026-05-02T15:29:14.972Z</time></trkpt><trkpt lat="40.4556233" lon="15.0180817"><ele>23.8</ele><time>2026-05-02T15:29:15.972Z</time></trkpt><trkpt lat="40.4555683" lon="15.018185"><ele>24.4</ele><time>2026-05-02T15:29:16.972Z</time></trkpt><trkpt lat="40.455495" lon="15.01827"><ele>25.0</ele><time>2026-05-02T15:29:17.972Z</time></trkpt><trkpt lat="40.4554017" lon="15.0183117"><ele>25.000000000000004</ele><time>2026-05-02T15:29:18.973Z</time></trkpt><trkpt lat="40.4552983" lon="15.0183267"><ele>25.0</ele><time>2026-05-02T15:29:19.972Z</time></trkpt><trkpt lat="40.455195" lon="15.0183033"><ele>25.0</ele><time>2026-05-02T15:29:20.972Z</time></trkpt><trkpt lat="40.455115" lon="15.0182533"><ele>25.0</ele><time>2026-05-02T15:29:21.972Z</time></trkpt><trkpt lat="40.4550483" lon="15.0182033"><ele>25.000000000000004</ele><time>2026-05-02T15:29:22.972Z</time></trkpt><trkpt lat="40.4549983" lon="15.0181383"><ele>25.0</ele><time>2026-05-02T15:29:23.972Z</time></trkpt><trkpt lat="40.4549283" lon="15.0180767"><ele>25.0</ele><time>2026-05-02T15:29:25.972Z</time></trkpt><trkpt lat="40.4548583" lon="15.0181167"><ele>25.0</ele><time>2026-05-02T15:29:28.973Z</time></trkpt><trkpt lat="40.454825" lon="15.018245"><ele>25.0</ele><time>2026-05-02T15:29:30.973Z</time></trkpt><trkpt lat="40.4548" lon="15.018375"><ele>25.0</ele><time>2026-05-02T15:29:31.972Z</time></trkpt><trkpt lat="40.4547567" lon="15.01856"><ele>25.0</ele><time>2026-05-02T15:29:32.972Z</time></trkpt><trkpt lat="40.4547" lon="15.0187883"><ele>25.0</ele><time>2026-05-02T15:29:33.972Z</time></trkpt><trkpt lat="40.4546483" lon="15.019015"><ele>25.0</ele><time>2026-05-02T15:29:34.973Z</time></trkpt><trkpt lat="40.45459" lon="15.019205"><ele>25.0</ele><time>2026-05-02T15:29:35.972Z</time></trkpt><trkpt lat="40.4545433" lon="15.01938"><ele>25.0</ele><time>2026-05-02T15:29:36.972Z</time></trkpt><trkpt lat="40.454505" lon="15.0195417"><ele>25.0</ele><time>2026-05-02T15:29:37.973Z</time></trkpt><trkpt lat="40.454475" lon="15.019695"><ele>25.0</ele><time>2026-05-02T15:29:38.973Z</time></trkpt><trkpt lat="40.4544483" lon="15.0198483"><ele>25.0</ele><time>2026-05-02T15:29:39.972Z</time></trkpt><trkpt lat="40.45442" lon="15.0200017"><ele>25.5</ele><time>2026-05-02T15:29:40.972Z</time></trkpt><trkpt lat="40.454385" lon="15.02015"><ele>26.0</ele><time>2026-05-02T15:29:41.972Z</time></trkpt><trkpt lat="40.4543483" lon="15.0203033"><ele>26.5</ele><time>2026-05-02T15:29:42.973Z</time></trkpt><trkpt lat="40.454315" lon="15.020455"><ele>27.0</ele><time>2026-05-02T15:29:43.972Z</time></trkpt><trkpt lat="40.4542867" lon="15.0206067"><ele>27.0</ele><time>2026-05-02T15:29:44.972Z</time></trkpt><trkpt lat="40.4542583" lon="15.0207567"><ele>27.0</ele><time>2026-05-02T15:29:45.973Z</time></trkpt><trkpt lat="40.45423" lon="15.020915"><ele>27.0</ele><time>2026-05-02T15:29:46.973Z</time></trkpt><trkpt lat="40.4541967" lon="15.0210633"><ele>27.0</ele><time>2026-05-02T15:29:47.972Z</time></trkpt><trkpt lat="40.4541617" lon="15.0212017"><ele>27.0</ele><time>2026-05-02T15:29:48.973Z</time></trkpt><trkpt lat="40.454135" lon="15.0213383"><ele>27.0</ele><time>2026-05-02T15:29:49.972Z</time></trkpt><trkpt lat="40.4541067" lon="15.021485"><ele>27.0</ele><time>2026-05-02T15:29:50.972Z</time></trkpt><trkpt lat="40.45407" lon="15.02163"><ele>27.0</ele><time>2026-05-02T15:29:51.972Z</time></trkpt><trkpt lat="40.4540417" lon="15.0217767"><ele>27.0</ele><time>2026-05-02T15:29:52.972Z</time></trkpt><trkpt lat="40.4540033" lon="15.02193"><ele>27.0</ele><time>2026-05-02T15:29:53.972Z</time></trkpt><trkpt lat="40.4539733" lon="15.0220917"><ele>27.0</ele><time>2026-05-02T15:29:54.972Z</time></trkpt><trkpt lat="40.453945" lon="15.0222467"><ele>27.0</ele><time>2026-05-02T15:29:55.972Z</time></trkpt><trkpt lat="40.4539167" lon="15.0223883"><ele>27.0</ele><time>2026-05-02T15:29:56.972Z</time></trkpt><trkpt lat="40.4538867" lon="15.02252"><ele>27.0</ele><time>2026-05-02T15:29:57.973Z</time></trkpt><trkpt lat="40.4538583" lon="15.0226633"><ele>27.0</ele><time>2026-05-02T15:29:58.972Z</time></trkpt><trkpt lat="40.4538283" lon="15.02282"><ele>27.0</ele><time>2026-05-02T15:29:59.973Z</time></trkpt><trkpt lat="40.4537917" lon="15.0229667"><ele>27.25</ele><time>2026-05-02T15:30:00.972Z</time></trkpt><trkpt lat="40.4537483" lon="15.0231183"><ele>27.5</ele><time>2026-05-02T15:30:01.973Z</time></trkpt><trkpt lat="40.4537133" lon="15.0232733"><ele>27.75</ele><time>2026-05-02T15:30:02.973Z</time></trkpt><trkpt lat="40.45369" lon="15.0234283"><ele>28.0</ele><time>2026-05-02T15:30:03.972Z</time></trkpt><trkpt lat="40.4536667" lon="15.0235617"><ele>28.2</ele><time>2026-05-02T15:30:04.972Z</time></trkpt><trkpt lat="40.4536367" lon="15.0236867"><ele>28.4</ele><time>2026-05-02T15:30:05.972Z</time></trkpt><trkpt lat="40.4536017" lon="15.0238083"><ele>28.599999999999998</ele><time>2026-05-02T15:30:06.972Z</time></trkpt><trkpt lat="40.453565" lon="15.023925"><ele>28.799999999999997</ele><time>2026-05-02T15:30:07.973Z</time></trkpt><trkpt lat="40.4535367" lon="15.0240517"><ele>29.0</ele><time>2026-05-02T15:30:08.972Z</time></trkpt><trkpt lat="40.4535167" lon="15.0242"><ele>29.25</ele><time>2026-05-02T15:30:09.973Z</time></trkpt><trkpt lat="40.45348" lon="15.0243617"><ele>29.5</ele><time>2026-05-02T15:30:10.972Z</time></trkpt><trkpt lat="40.4534433" lon="15.0245417"><ele>29.75</ele><time>2026-05-02T15:30:11.973Z</time></trkpt><trkpt lat="40.4534117" lon="15.024735"><ele>30.0</ele><time>2026-05-02T15:30:12.972Z</time></trkpt><trkpt lat="40.4533717" lon="15.0249217"><ele>30.0</ele><time>2026-05-02T15:30:13.973Z</time></trkpt><trkpt lat="40.45333" lon="15.0251083"><ele>30.0</ele><time>2026-05-02T15:30:14.972Z</time></trkpt><trkpt lat="40.4532867" lon="15.0253033"><ele>30.0</ele><time>2026-05-02T15:30:15.973Z</time></trkpt><trkpt lat="40.4532383" lon="15.0255067"><ele>30.0</ele><time>2026-05-02T15:30:16.972Z</time></trkpt><trkpt lat="40.4531833" lon="15.0257167"><ele>30.0</ele><time>2026-05-02T15:30:17.972Z</time></trkpt><trkpt lat="40.453135" lon="15.0259417"><ele>30.0</ele><time>2026-05-02T15:30:18.973Z</time></trkpt><trkpt lat="40.453085" lon="15.0261483"><ele>30.0</ele><time>2026-05-02T15:30:19.972Z</time></trkpt><trkpt lat="40.4530467" lon="15.0263433"><ele>30.0</ele><time>2026-05-02T15:30:20.972Z</time></trkpt><trkpt lat="40.4530117" lon="15.02654"><ele>30.0</ele><time>2026-05-02T15:30:21.972Z</time></trkpt><trkpt lat="40.4529733" lon="15.0267283"><ele>30.0</ele><time>2026-05-02T15:30:22.973Z</time></trkpt><trkpt lat="40.4529317" lon="15.026915"><ele>30.0</ele><time>2026-05-02T15:30:23.973Z</time></trkpt><trkpt lat="40.4528817" lon="15.0271117"><ele>30.0</ele><time>2026-05-02T15:30:24.972Z</time></trkpt><trkpt lat="40.4528433" lon="15.027325"><ele>30.666666666666664</ele><time>2026-05-02T15:30:25.973Z</time></trkpt><trkpt lat="40.4528" lon="15.0275317"><ele>31.333333333333332</ele><time>2026-05-02T15:30:26.972Z</time></trkpt><trkpt lat="40.4527583" lon="15.0277433"><ele>32.0</ele><time>2026-05-02T15:30:27.973Z</time></trkpt><trkpt lat="40.452715" lon="15.0279433"><ele>32.0</ele><time>2026-05-02T15:30:28.972Z</time></trkpt><trkpt lat="40.4526767" lon="15.0281717"><ele>32.0</ele><time>2026-05-02T15:30:29.972Z</time></trkpt><trkpt lat="40.4526233" lon="15.0284033"><ele>32.0</ele><time>2026-05-02T15:30:30.972Z</time></trkpt><trkpt lat="40.4525767" lon="15.02866"><ele>32.0</ele><time>2026-05-02T15:30:31.972Z</time></trkpt><trkpt lat="40.4525183" lon="15.0289383"><ele>32.0</ele><time>2026-05-02T15:30:32.972Z</time></trkpt><trkpt lat="40.452455" lon="15.0292283"><ele>32.0</ele><time>2026-05-02T15:30:33.972Z</time></trkpt><trkpt lat="40.452385" lon="15.02949"><ele>32.666666666666664</ele><time>2026-05-02T15:30:34.972Z</time></trkpt><trkpt lat="40.4523283" lon="15.0297567"><ele>33.333333333333336</ele><time>2026-05-02T15:30:35.972Z</time></trkpt><trkpt lat="40.45227" lon="15.029995"><ele>34.0</ele><time>2026-05-02T15:30:36.973Z</time></trkpt><trkpt lat="40.45222" lon="15.030225"><ele>34.333333333333336</ele><time>2026-05-02T15:30:37.972Z</time></trkpt><trkpt lat="40.45218" lon="15.0304417"><ele>34.666666666666664</ele><time>2026-05-02T15:30:38.973Z</time></trkpt><trkpt lat="40.4521333" lon="15.0306733"><ele>35.0</ele><time>2026-05-02T15:30:39.972Z</time></trkpt><trkpt lat="40.45209" lon="15.0309183"><ele>34.666666666666664</ele><time>2026-05-02T15:30:40.972Z</time></trkpt><trkpt lat="40.452035" lon="15.0311817"><ele>34.333333333333336</ele><time>2026-05-02T15:30:41.972Z</time></trkpt><trkpt lat="40.451975" lon="15.0314667"><ele>34.0</ele><time>2026-05-02T15:30:42.973Z</time></trkpt><trkpt lat="40.4519083" lon="15.0317533"><ele>34.0</ele><time>2026-05-02T15:30:43.972Z</time></trkpt><trkpt lat="40.4518383" lon="15.0320467"><ele>34.0</ele><time>2026-05-02T15:30:44.972Z</time></trkpt><trkpt lat="40.4517733" lon="15.0323417"><ele>33.66666666666667</ele><time>2026-05-02T15:30:45.973Z</time></trkpt><trkpt lat="40.4517217" lon="15.03261"><ele>33.333333333333336</ele><time>2026-05-02T15:30:46.972Z</time></trkpt><trkpt lat="40.4516767" lon="15.0328333"><ele>33.0</ele><time>2026-05-02T15:30:47.973Z</time></trkpt><trkpt lat="40.451635" lon="15.03304"><ele>33.0</ele><time>2026-05-02T15:30:48.972Z</time></trkpt><trkpt lat="40.4515883" lon="15.033225"><ele>33.0</ele><time>2026-05-02T15:30:49.972Z</time></trkpt><trkpt lat="40.451545" lon="15.0334033"><ele>33.0</ele><time>2026-05-02T15:30:50.973Z</time></trkpt><trkpt lat="40.4515017" lon="15.0335633"><ele>33.0</ele><time>2026-05-02T15:30:51.972Z</time></trkpt><trkpt lat="40.4514567" lon="15.0337133"><ele>33.199999999999996</ele><time>2026-05-02T15:30:52.972Z</time></trkpt><trkpt lat="40.4514317" lon="15.0338633"><ele>33.4</ele><time>2026-05-02T15:30:53.972Z</time></trkpt><trkpt lat="40.4514067" lon="15.0339733"><ele>33.599999999999994</ele><time>2026-05-02T15:30:54.973Z</time></trkpt><trkpt lat="40.4513717" lon="15.03405"><ele>33.8</ele><time>2026-05-02T15:30:55.973Z</time></trkpt><trkpt lat="40.4513133" lon="15.034145"><ele>34.0</ele><time>2026-05-02T15:30:57.973Z</time></trkpt><trkpt lat="40.4512933" lon="15.0342717"><ele>34.0</ele><time>2026-05-02T15:30:59.973Z</time></trkpt><trkpt lat="40.4512983" lon="15.0343667"><ele>34.0</ele><time>2026-05-02T15:31:01.972Z</time></trkpt><trkpt lat="40.4512817" lon="15.03446"><ele>34.0</ele><time>2026-05-02T15:31:04.972Z</time></trkpt><trkpt lat="40.4512133" lon="15.0344183"><ele>34.0</ele><time>2026-05-02T15:31:08.973Z</time></trkpt><trkpt lat="40.451205" lon="15.0343167"><ele>34.0</ele><time>2026-05-02T15:31:10.973Z</time></trkpt><trkpt lat="40.4512183" lon="15.03421"><ele>34.0</ele><time>2026-05-02T15:31:12.973Z</time></trkpt><trkpt lat="40.4512433" lon="15.0340967"><ele>33.99999999999999</ele><time>2026-05-02T15:31:14.973Z</time></trkpt><trkpt lat="40.45127" lon="15.03402"><ele>34.0</ele><time>2026-05-02T15:31:16.973Z</time></trkpt><trkpt lat="40.4513333" lon="15.0340283"><ele>34.0</ele><time>2026-05-02T15:31:20.972Z</time></trkpt><trkpt lat="40.4513067" lon="15.0341083"><ele>34.0</ele><time>2026-05-02T15:31:27.973Z</time></trkpt><trkpt lat="40.4512833" lon="15.034215"><ele>34.0</ele><time>2026-05-02T15:31:30.972Z</time></trkpt><trkpt lat="40.4512867" lon="15.0343117"><ele>33.99999999999999</ele><time>2026-05-02T15:31:33.972Z</time></trkpt><trkpt lat="40.4512867" lon="15.0344367"><ele>34.0</ele><time>2026-05-02T15:32:15.973Z</time></trkpt><trkpt lat="40.4512267" lon="15.0344833"><ele>34.0</ele><time>2026-05-02T15:32:17.972Z</time></trkpt><trkpt lat="40.45115" lon="15.0344783"><ele>34.0</ele><time>2026-05-02T15:32:19.973Z</time></trkpt><trkpt lat="40.4512183" lon="15.0344717"><ele>34.0</ele><time>2026-05-02T15:52:14.973Z</time></trkpt><trkpt lat="40.4512567" lon="15.0345517"><ele>34.0</ele><time>2026-05-02T15:52:17.974Z</time></trkpt><trkpt lat="40.451265" lon="15.0346433"><ele>34.0</ele><time>2026-05-02T15:52:41.973Z</time></trkpt><trkpt lat="40.45123" lon="15.0347567"><ele>34.0</ele><time>2026-05-02T15:52:44.974Z</time></trkpt><trkpt lat="40.4511967" lon="15.034875"><ele>34.16666666666667</ele><time>2026-05-02T15:52:46.973Z</time></trkpt><trkpt lat="40.4511683" lon="15.0350283"><ele>34.333333333333336</ele><time>2026-05-02T15:52:48.973Z</time></trkpt><trkpt lat="40.45115" lon="15.035115"><ele>34.5</ele><time>2026-05-02T15:52:49.973Z</time></trkpt><trkpt lat="40.4511283" lon="15.0351933"><ele>34.666666666666664</ele><time>2026-05-02T15:52:50.973Z</time></trkpt><trkpt lat="40.45109" lon="15.0353417"><ele>34.83333333333333</ele><time>2026-05-02T15:52:52.974Z</time></trkpt><trkpt lat="40.4510767" lon="15.03544"><ele>35.0</ele><time>2026-05-02T15:52:53.974Z</time></trkpt><trkpt lat="40.4510517" lon="15.035545"><ele>35.0</ele><time>2026-05-02T15:52:54.973Z</time></trkpt><trkpt lat="40.4510283" lon="15.03565"><ele>35.0</ele><time>2026-05-02T15:52:55.974Z</time></trkpt><trkpt lat="40.4510083" lon="15.035745"><ele>35.0</ele><time>2026-05-02T15:52:56.974Z</time></trkpt><trkpt lat="40.450985" lon="15.0358483"><ele>35.0</ele><time>2026-05-02T15:52:57.973Z</time></trkpt><trkpt lat="40.4509667" lon="15.035975"><ele>35.0</ele><time>2026-05-02T15:52:58.973Z</time></trkpt><trkpt lat="40.45094" lon="15.0361017"><ele>35.0</ele><time>2026-05-02T15:52:59.974Z</time></trkpt><trkpt lat="40.4509133" lon="15.0362283"><ele>34.8</ele><time>2026-05-02T15:53:00.974Z</time></trkpt><trkpt lat="40.450885" lon="15.036365"><ele>34.6</ele><time>2026-05-02T15:53:01.974Z</time></trkpt><trkpt lat="40.4508517" lon="15.0364983"><ele>34.4</ele><time>2026-05-02T15:53:02.974Z</time></trkpt><trkpt lat="40.45082" lon="15.036635"><ele>34.2</ele><time>2026-05-02T15:53:03.974Z</time></trkpt><trkpt lat="40.4507917" lon="15.0367817"><ele>34.0</ele><time>2026-05-02T15:53:04.974Z</time></trkpt><trkpt lat="40.4507617" lon="15.0369233"><ele>34.0</ele><time>2026-05-02T15:53:05.974Z</time></trkpt><trkpt lat="40.4507333" lon="15.03706"><ele>34.0</ele><time>2026-05-02T15:53:06.973Z</time></trkpt><trkpt lat="40.4507067" lon="15.0372017"><ele>34.0</ele><time>2026-05-02T15:53:07.974Z</time></trkpt><trkpt lat="40.4506717" lon="15.0373367"><ele>34.0</ele><time>2026-05-02T15:53:08.974Z</time></trkpt><trkpt lat="40.4506417" lon="15.0374783"><ele>34.0</ele><time>2026-05-02T15:53:09.974Z</time></trkpt><trkpt lat="40.450615" lon="15.0376267"><ele>34.0</ele><time>2026-05-02T15:53:10.974Z</time></trkpt><trkpt lat="40.4505867" lon="15.0377733"><ele>34.0</ele><time>2026-05-02T15:53:11.974Z</time></trkpt><trkpt lat="40.450555" lon="15.0379167"><ele>34.0</ele><time>2026-05-02T15:53:12.973Z</time></trkpt><trkpt lat="40.4505233" lon="15.0380667"><ele>34.0</ele><time>2026-05-02T15:53:13.974Z</time></trkpt><trkpt lat="40.4504917" lon="15.0382167"><ele>34.0</ele><time>2026-05-02T15:53:14.974Z</time></trkpt><trkpt lat="40.4504583" lon="15.03837"><ele>34.0</ele><time>2026-05-02T15:53:15.974Z</time></trkpt><trkpt lat="40.450425" lon="15.03853"><ele>34.0</ele><time>2026-05-02T15:53:16.973Z</time></trkpt><trkpt lat="40.4503867" lon="15.0386817"><ele>34.0</ele><time>2026-05-02T15:53:17.974Z</time></trkpt><trkpt lat="40.45035" lon="15.03883"><ele>34.0</ele><time>2026-05-02T15:53:18.973Z</time></trkpt><trkpt lat="40.45032" lon="15.0389883"><ele>34.0</ele><time>2026-05-02T15:53:19.974Z</time></trkpt><trkpt lat="40.4502833" lon="15.03915"><ele>34.0</ele><time>2026-05-02T15:53:20.974Z</time></trkpt><trkpt lat="40.450245" lon="15.0393283"><ele>34.0</ele><time>2026-05-02T15:53:21.973Z</time></trkpt><trkpt lat="40.4502067" lon="15.0395183"><ele>34.0</ele><time>2026-05-02T15:53:22.974Z</time></trkpt><trkpt lat="40.450165" lon="15.0397133"><ele>34.0</ele><time>2026-05-02T15:53:23.973Z</time></trkpt><trkpt lat="40.4501417" lon="15.0399217"><ele>34.0</ele><time>2026-05-02T15:53:24.973Z</time></trkpt><trkpt lat="40.4501383" lon="15.040155"><ele>34.0</ele><time>2026-05-02T15:53:25.973Z</time></trkpt><trkpt lat="40.45015" lon="15.0403767"><ele>34.0</ele><time>2026-05-02T15:53:26.973Z</time></trkpt><trkpt lat="40.4501717" lon="15.040575"><ele>34.0</ele><time>2026-05-02T15:53:27.973Z</time></trkpt><trkpt lat="40.4502117" lon="15.0407583"><ele>34.25</ele><time>2026-05-02T15:53:28.973Z</time></trkpt><trkpt lat="40.4502733" lon="15.0409317"><ele>34.5</ele><time>2026-05-02T15:53:29.973Z</time></trkpt><trkpt lat="40.4503467" lon="15.041095"><ele>34.75</ele><time>2026-05-02T15:53:30.974Z</time></trkpt><trkpt lat="40.4504467" lon="15.041235"><ele>35.0</ele><time>2026-05-02T15:53:31.973Z</time></trkpt><trkpt lat="40.4505467" lon="15.041375"><ele>35.25</ele><time>2026-05-02T15:53:32.973Z</time></trkpt><trkpt lat="40.4506517" lon="15.041495"><ele>35.5</ele><time>2026-05-02T15:53:33.973Z</time></trkpt><trkpt lat="40.450775" lon="15.0415867"><ele>35.75</ele><time>2026-05-02T15:53:34.974Z</time></trkpt><trkpt lat="40.4509133" lon="15.0416783"><ele>36.0</ele><time>2026-05-02T15:53:35.974Z</time></trkpt><trkpt lat="40.4510633" lon="15.04175"><ele>36.0</ele><time>2026-05-02T15:53:36.974Z</time></trkpt><trkpt lat="40.4512267" lon="15.0418267"><ele>36.0</ele><time>2026-05-02T15:53:37.974Z</time></trkpt><trkpt lat="40.4514067" lon="15.041935"><ele>36.0</ele><time>2026-05-02T15:53:38.973Z</time></trkpt><trkpt lat="40.4515767" lon="15.0420383"><ele>36.666666666666664</ele><time>2026-05-02T15:53:39.973Z</time></trkpt><trkpt lat="40.45174" lon="15.0421267"><ele>37.33333333333333</ele><time>2026-05-02T15:53:40.974Z</time></trkpt><trkpt lat="40.4518917" lon="15.042205"><ele>38.0</ele><time>2026-05-02T15:53:41.974Z</time></trkpt><trkpt lat="40.4520467" lon="15.0422833"><ele>38.0</ele><time>2026-05-02T15:53:42.974Z</time></trkpt><trkpt lat="40.4522117" lon="15.042365"><ele>38.0</ele><time>2026-05-02T15:53:43.974Z</time></trkpt><trkpt lat="40.452365" lon="15.04246"><ele>38.0</ele><time>2026-05-02T15:53:44.973Z</time></trkpt><trkpt lat="40.4525067" lon="15.0425417"><ele>38.33333333333333</ele><time>2026-05-02T15:53:45.973Z</time></trkpt><trkpt lat="40.4526567" lon="15.04262"><ele>38.666666666666664</ele><time>2026-05-02T15:53:46.973Z</time></trkpt><trkpt lat="40.4528117" lon="15.0427"><ele>39.0</ele><time>2026-05-02T15:53:47.973Z</time></trkpt><trkpt lat="40.4529617" lon="15.042775"><ele>40.0</ele><time>2026-05-02T15:53:48.974Z</time></trkpt><trkpt lat="40.4531067" lon="15.04285"><ele>41.0</ele><time>2026-05-02T15:53:49.973Z</time></trkpt><trkpt lat="40.453225" lon="15.0429233"><ele>42.0</ele><time>2026-05-02T15:53:50.973Z</time></trkpt><trkpt lat="40.453345" lon="15.04298"><ele>43.0</ele><time>2026-05-02T15:53:51.973Z</time></trkpt><trkpt lat="40.4534517" lon="15.0430517"><ele>43.0</ele><time>2026-05-02T15:53:52.974Z</time></trkpt><trkpt lat="40.4535567" lon="15.043115"><ele>43.0</ele><time>2026-05-02T15:53:53.973Z</time></trkpt><trkpt lat="40.4536533" lon="15.04318"><ele>43.0</ele><time>2026-05-02T15:53:54.973Z</time></trkpt><trkpt lat="40.45375" lon="15.0432433"><ele>43.0</ele><time>2026-05-02T15:53:55.973Z</time></trkpt><trkpt lat="40.453855" lon="15.0433033"><ele>43.0</ele><time>2026-05-02T15:53:56.974Z</time></trkpt><trkpt lat="40.4539733" lon="15.0433617"><ele>43.5</ele><time>2026-05-02T15:53:57.973Z</time></trkpt><trkpt lat="40.45411" lon="15.0434133"><ele>44.0</ele><time>2026-05-02T15:53:58.973Z</time></trkpt><trkpt lat="40.4542433" lon="15.0434717"><ele>44.5</ele><time>2026-05-02T15:53:59.973Z</time></trkpt><trkpt lat="40.4543667" lon="15.0435317"><ele>45.0</ele><time>2026-05-02T15:54:00.974Z</time></trkpt><trkpt lat="40.4544883" lon="15.0435983"><ele>45.0</ele><time>2026-05-02T15:54:01.973Z</time></trkpt><trkpt lat="40.4546183" lon="15.04368"><ele>45.0</ele><time>2026-05-02T15:54:02.974Z</time></trkpt><trkpt lat="40.4547517" lon="15.0437667"><ele>45.0</ele><time>2026-05-02T15:54:03.974Z</time></trkpt><trkpt lat="40.4548817" lon="15.0438583"><ele>45.0</ele><time>2026-05-02T15:54:04.973Z</time></trkpt><trkpt lat="40.4550017" lon="15.0439633"><ele>45.0</ele><time>2026-05-02T15:54:05.973Z</time></trkpt><trkpt lat="40.455115" lon="15.0440567"><ele>45.0</ele><time>2026-05-02T15:54:06.973Z</time></trkpt><trkpt lat="40.4552333" lon="15.0441633"><ele>45.0</ele><time>2026-05-02T15:54:07.973Z</time></trkpt><trkpt lat="40.4553467" lon="15.0442683"><ele>45.0</ele><time>2026-05-02T15:54:08.973Z</time></trkpt><trkpt lat="40.455455" lon="15.0443667"><ele>45.0</ele><time>2026-05-02T15:54:09.973Z</time></trkpt><trkpt lat="40.455565" lon="15.0444717"><ele>45.0</ele><time>2026-05-02T15:54:10.973Z</time></trkpt><trkpt lat="40.4556717" lon="15.0445833"><ele>45.0</ele><time>2026-05-02T15:54:11.973Z</time></trkpt><trkpt lat="40.4557783" lon="15.0447033"><ele>45.0</ele><time>2026-05-02T15:54:12.974Z</time></trkpt><trkpt lat="40.4558833" lon="15.044825"><ele>45.0</ele><time>2026-05-02T15:54:13.973Z</time></trkpt><trkpt lat="40.45599" lon="15.04494"><ele>45.0</ele><time>2026-05-02T15:54:14.974Z</time></trkpt><trkpt lat="40.456095" lon="15.0450617"><ele>45.0</ele><time>2026-05-02T15:54:15.974Z</time></trkpt><trkpt lat="40.4562" lon="15.045185"><ele>45.0</ele><time>2026-05-02T15:54:16.973Z</time></trkpt><trkpt lat="40.4563033" lon="15.0453017"><ele>45.25</ele><time>2026-05-02T15:54:17.973Z</time></trkpt><trkpt lat="40.4564033" lon="15.04543"><ele>45.5</ele><time>2026-05-02T15:54:18.974Z</time></trkpt><trkpt lat="40.4565033" lon="15.0455667"><ele>45.75</ele><time>2026-05-02T15:54:19.973Z</time></trkpt><trkpt lat="40.4566033" lon="15.04571"><ele>46.0</ele><time>2026-05-02T15:54:20.973Z</time></trkpt><trkpt lat="40.4566933" lon="15.045855"><ele>46.5</ele><time>2026-05-02T15:54:21.974Z</time></trkpt><trkpt lat="40.4567783" lon="15.0460033"><ele>47.0</ele><time>2026-05-02T15:54:22.974Z</time></trkpt><trkpt lat="40.4568517" lon="15.0461567"><ele>47.5</ele><time>2026-05-02T15:54:23.973Z</time></trkpt><trkpt lat="40.4569233" lon="15.046305"><ele>48.0</ele><time>2026-05-02T15:54:24.973Z</time></trkpt><trkpt lat="40.45699" lon="15.0464683"><ele>48.5</ele><time>2026-05-02T15:54:25.973Z</time></trkpt><trkpt lat="40.4570467" lon="15.046635"><ele>49.0</ele><time>2026-05-02T15:54:26.973Z</time></trkpt><trkpt lat="40.4571" lon="15.0467917"><ele>49.5</ele><time>2026-05-02T15:54:27.973Z</time></trkpt><trkpt lat="40.4571417" lon="15.046955"><ele>50.0</ele><time>2026-05-02T15:54:28.973Z</time></trkpt><trkpt lat="40.4571767" lon="15.0471317"><ele>49.25</ele><time>2026-05-02T15:54:29.974Z</time></trkpt><trkpt lat="40.4572067" lon="15.0473067"><ele>48.5</ele><time>2026-05-02T15:54:30.973Z</time></trkpt><trkpt lat="40.4572383" lon="15.0474783"><ele>47.75</ele><time>2026-05-02T15:54:31.973Z</time></trkpt><trkpt lat="40.4572717" lon="15.0476467"><ele>47.0</ele><time>2026-05-02T15:54:32.974Z</time></trkpt><trkpt lat="40.4573033" lon="15.0478167"><ele>47.0</ele><time>2026-05-02T15:54:33.973Z</time></trkpt><trkpt lat="40.4573333" lon="15.0479933"><ele>47.0</ele><time>2026-05-02T15:54:34.973Z</time></trkpt><trkpt lat="40.4573633" lon="15.0481667"><ele>47.0</ele><time>2026-05-02T15:54:35.973Z</time></trkpt><trkpt lat="40.4573917" lon="15.048325"><ele>47.0</ele><time>2026-05-02T15:54:36.973Z</time></trkpt><trkpt lat="40.4574217" lon="15.048485"><ele>47.75</ele><time>2026-05-02T15:54:37.973Z</time></trkpt><trkpt lat="40.4574467" lon="15.048655"><ele>48.5</ele><time>2026-05-02T15:54:38.973Z</time></trkpt><trkpt lat="40.4574733" lon="15.0488233"><ele>49.25</ele><time>2026-05-02T15:54:39.974Z</time></trkpt><trkpt lat="40.4575017" lon="15.0489917"><ele>50.0</ele><time>2026-05-02T15:54:40.973Z</time></trkpt><trkpt lat="40.4575283" lon="15.0491617"><ele>50.75</ele><time>2026-05-02T15:54:41.973Z</time></trkpt><trkpt lat="40.4575583" lon="15.0493317"><ele>51.5</ele><time>2026-05-02T15:54:42.973Z</time></trkpt><trkpt lat="40.4575833" lon="15.0495033"><ele>52.25</ele><time>2026-05-02T15:54:43.974Z</time></trkpt><trkpt lat="40.4575983" lon="15.0496817"><ele>53.0</ele><time>2026-05-02T15:54:44.973Z</time></trkpt><trkpt lat="40.4576183" lon="15.0498517"><ele>53.25</ele><time>2026-05-02T15:54:45.973Z</time></trkpt><trkpt lat="40.457645" lon="15.0500267"><ele>53.5</ele><time>2026-05-02T15:54:46.974Z</time></trkpt><trkpt lat="40.4576717" lon="15.0502033"><ele>53.75</ele><time>2026-05-02T15:54:47.973Z</time></trkpt><trkpt lat="40.4576933" lon="15.0503817"><ele>54.0</ele><time>2026-05-02T15:54:48.973Z</time></trkpt><trkpt lat="40.4577117" lon="15.0505567"><ele>54.0</ele><time>2026-05-02T15:54:49.974Z</time></trkpt><trkpt lat="40.457735" lon="15.0507367"><ele>54.0</ele><time>2026-05-02T15:54:50.973Z</time></trkpt><trkpt lat="40.45776" lon="15.0508967"><ele>54.0</ele><time>2026-05-02T15:54:51.974Z</time></trkpt><trkpt lat="40.45778" lon="15.0510567"><ele>54.0</ele><time>2026-05-02T15:54:52.973Z</time></trkpt><trkpt lat="40.4578033" lon="15.0512067"><ele>54.6</ele><time>2026-05-02T15:54:53.974Z</time></trkpt><trkpt lat="40.4578267" lon="15.051345"><ele>55.2</ele><time>2026-05-02T15:54:54.974Z</time></trkpt><trkpt lat="40.457845" lon="15.05148"><ele>55.800000000000004</ele><time>2026-05-02T15:54:55.974Z</time></trkpt><trkpt lat="40.4578633" lon="15.0516067"><ele>56.400000000000006</ele><time>2026-05-02T15:54:56.973Z</time></trkpt><trkpt lat="40.4578767" lon="15.05175"><ele>57.0</ele><time>2026-05-02T15:54:57.974Z</time></trkpt><trkpt lat="40.457895" lon="15.051895"><ele>57.2</ele><time>2026-05-02T15:54:58.973Z</time></trkpt><trkpt lat="40.457915" lon="15.0520417"><ele>57.400000000000006</ele><time>2026-05-02T15:54:59.974Z</time></trkpt><trkpt lat="40.4579267" lon="15.0521767"><ele>57.599999999999994</ele><time>2026-05-02T15:55:00.974Z</time></trkpt><trkpt lat="40.45794" lon="15.0523217"><ele>57.8</ele><time>2026-05-02T15:55:01.973Z</time></trkpt><trkpt lat="40.45796" lon="15.05246"><ele>58.0</ele><time>2026-05-02T15:55:02.974Z</time></trkpt><trkpt lat="40.4579817" lon="15.0526117"><ele>57.5</ele><time>2026-05-02T15:55:03.974Z</time></trkpt><trkpt lat="40.4580083" lon="15.0527817"><ele>57.0</ele><time>2026-05-02T15:55:04.973Z</time></trkpt><trkpt lat="40.4580433" lon="15.05295"><ele>56.5</ele><time>2026-05-02T15:55:05.973Z</time></trkpt><trkpt lat="40.4580767" lon="15.0531033"><ele>56.0</ele><time>2026-05-02T15:55:06.973Z</time></trkpt><trkpt lat="40.4581133" lon="15.0532283"><ele>56.0</ele><time>2026-05-02T15:55:07.973Z</time></trkpt><trkpt lat="40.458155" lon="15.0533467"><ele>55.99999999999999</ele><time>2026-05-02T15:55:08.974Z</time></trkpt><trkpt lat="40.4581917" lon="15.05348"><ele>55.99999999999999</ele><time>2026-05-02T15:55:09.974Z</time></trkpt><trkpt lat="40.4582333" lon="15.0536"><ele>56.0</ele><time>2026-05-02T15:55:10.974Z</time></trkpt><trkpt lat="40.4582767" lon="15.0537117"><ele>56.0</ele><time>2026-05-02T15:55:11.974Z</time></trkpt><trkpt lat="40.4583267" lon="15.053815"><ele>56.00000000000001</ele><time>2026-05-02T15:55:12.974Z</time></trkpt><trkpt lat="40.4583683" lon="15.053925"><ele>56.0</ele><time>2026-05-02T15:55:13.974Z</time></trkpt><trkpt lat="40.45841" lon="15.0540267"><ele>56.0</ele><time>2026-05-02T15:55:14.973Z</time></trkpt><trkpt lat="40.4584433" lon="15.05411"><ele>56.0</ele><time>2026-05-02T15:55:15.974Z</time></trkpt><trkpt lat="40.4584767" lon="15.0541933"><ele>56.00000000000001</ele><time>2026-05-02T15:55:16.974Z</time></trkpt><trkpt lat="40.458505" lon="15.05429"><ele>56.0</ele><time>2026-05-02T15:55:17.973Z</time></trkpt><trkpt lat="40.458535" lon="15.054375"><ele>56.16666666666667</ele><time>2026-05-02T15:55:18.973Z</time></trkpt><trkpt lat="40.45856" lon="15.0544517"><ele>56.333333333333336</ele><time>2026-05-02T15:55:19.973Z</time></trkpt><trkpt lat="40.4585817" lon="15.0545467"><ele>56.5</ele><time>2026-05-02T15:55:20.973Z</time></trkpt><trkpt lat="40.458595" lon="15.05466"><ele>56.66666666666667</ele><time>2026-05-02T15:55:21.974Z</time></trkpt><trkpt lat="40.4586133" lon="15.0547783"><ele>56.833333333333336</ele><time>2026-05-02T15:55:22.974Z</time></trkpt><trkpt lat="40.4586333" lon="15.05493"><ele>57.0</ele><time>2026-05-02T15:55:23.973Z</time></trkpt><trkpt lat="40.45865" lon="15.0551133"><ele>57.0</ele><time>2026-05-02T15:55:24.973Z</time></trkpt><trkpt lat="40.45867" lon="15.0553183"><ele>57.0</ele><time>2026-05-02T15:55:25.974Z</time></trkpt><trkpt lat="40.458695" lon="15.0555267"><ele>57.0</ele><time>2026-05-02T15:55:26.973Z</time></trkpt><trkpt lat="40.45872" lon="15.0557483"><ele>57.0</ele><time>2026-05-02T15:55:27.974Z</time></trkpt><trkpt lat="40.4587433" lon="15.0559717"><ele>57.0</ele><time>2026-05-02T15:55:28.973Z</time></trkpt><trkpt lat="40.458765" lon="15.0561917"><ele>57.0</ele><time>2026-05-02T15:55:29.973Z</time></trkpt><trkpt lat="40.4587883" lon="15.0564133"><ele>57.33333333333333</ele><time>2026-05-02T15:55:30.973Z</time></trkpt><trkpt lat="40.4588133" lon="15.0566217"><ele>57.666666666666664</ele><time>2026-05-02T15:55:31.974Z</time></trkpt><trkpt lat="40.458835" lon="15.0568383"><ele>58.0</ele><time>2026-05-02T15:55:32.973Z</time></trkpt><trkpt lat="40.4588533" lon="15.0570717"><ele>58.0</ele><time>2026-05-02T15:55:33.974Z</time></trkpt><trkpt lat="40.4588733" lon="15.0573017"><ele>58.0</ele><time>2026-05-02T15:55:34.974Z</time></trkpt><trkpt lat="40.4588883" lon="15.0574983"><ele>58.0</ele><time>2026-05-02T15:55:35.974Z</time></trkpt><trkpt lat="40.4589117" lon="15.0576933"><ele>57.75</ele><time>2026-05-02T15:55:36.973Z</time></trkpt><trkpt lat="40.4589333" lon="15.0578933"><ele>57.5</ele><time>2026-05-02T15:55:37.974Z</time></trkpt><trkpt lat="40.4589533" lon="15.0580783"><ele>57.25</ele><time>2026-05-02T15:55:38.973Z</time></trkpt><trkpt lat="40.458965" lon="15.05825"><ele>57.0</ele><time>2026-05-02T15:55:39.973Z</time></trkpt><trkpt lat="40.4589833" lon="15.05843"><ele>57.0</ele><time>2026-05-02T15:55:40.973Z</time></trkpt><trkpt lat="40.4589983" lon="15.0586183"><ele>57.0</ele><time>2026-05-02T15:55:41.974Z</time></trkpt><trkpt lat="40.45901" lon="15.0587933"><ele>57.0</ele><time>2026-05-02T15:55:42.973Z</time></trkpt><trkpt lat="40.4590267" lon="15.0589733"><ele>57.0</ele><time>2026-05-02T15:55:43.973Z</time></trkpt><trkpt lat="40.4590433" lon="15.0591733"><ele>57.0</ele><time>2026-05-02T15:55:44.973Z</time></trkpt><trkpt lat="40.4590567" lon="15.0593767"><ele>57.0</ele><time>2026-05-02T15:55:45.973Z</time></trkpt><trkpt lat="40.4590767" lon="15.059575"><ele>57.0</ele><time>2026-05-02T15:55:46.973Z</time></trkpt><trkpt lat="40.4591017" lon="15.05979"><ele>56.66666666666667</ele><time>2026-05-02T15:55:47.973Z</time></trkpt><trkpt lat="40.459135" lon="15.060065"><ele>56.333333333333336</ele><time>2026-05-02T15:55:48.973Z</time></trkpt><trkpt lat="40.459165" lon="15.0603633"><ele>56.0</ele><time>2026-05-02T15:55:49.973Z</time></trkpt><trkpt lat="40.4591917" lon="15.0606767"><ele>56.0</ele><time>2026-05-02T15:55:50.973Z</time></trkpt><trkpt lat="40.4592183" lon="15.06099"><ele>56.0</ele><time>2026-05-02T15:55:51.973Z</time></trkpt><trkpt lat="40.4592417" lon="15.0612983"><ele>56.0</ele><time>2026-05-02T15:55:52.974Z</time></trkpt><trkpt lat="40.4592633" lon="15.061595"><ele>56.0</ele><time>2026-05-02T15:55:53.973Z</time></trkpt><trkpt lat="40.459285" lon="15.0618733"><ele>56.0</ele><time>2026-05-02T15:55:54.974Z</time></trkpt><trkpt lat="40.459305" lon="15.0621367"><ele>56.0</ele><time>2026-05-02T15:55:55.973Z</time></trkpt><trkpt lat="40.45933" lon="15.062395"><ele>56.0</ele><time>2026-05-02T15:55:56.974Z</time></trkpt><trkpt lat="40.4593517" lon="15.0626583"><ele>56.0</ele><time>2026-05-02T15:55:57.973Z</time></trkpt><trkpt lat="40.459375" lon="15.0628983"><ele>56.0</ele><time>2026-05-02T15:55:58.973Z</time></trkpt><trkpt lat="40.4593967" lon="15.0631333"><ele>56.0</ele><time>2026-05-02T15:55:59.973Z</time></trkpt><trkpt lat="40.45942" lon="15.06338"><ele>56.0</ele><time>2026-05-02T15:56:00.974Z</time></trkpt><trkpt lat="40.45944" lon="15.0636233"><ele>56.0</ele><time>2026-05-02T15:56:01.973Z</time></trkpt><trkpt lat="40.459465" lon="15.0638617"><ele>56.0</ele><time>2026-05-02T15:56:02.973Z</time></trkpt><trkpt lat="40.45948" lon="15.0641117"><ele>56.0</ele><time>2026-05-02T15:56:03.973Z</time></trkpt><trkpt lat="40.459495" lon="15.0643683"><ele>56.333333333333336</ele><time>2026-05-02T15:56:04.973Z</time></trkpt><trkpt lat="40.4595033" lon="15.06461"><ele>56.66666666666667</ele><time>2026-05-02T15:56:05.973Z</time></trkpt><trkpt lat="40.4595083" lon="15.0648533"><ele>57.0</ele><time>2026-05-02T15:56:06.973Z</time></trkpt><trkpt lat="40.4595133" lon="15.0651033"><ele>57.0</ele><time>2026-05-02T15:56:07.973Z</time></trkpt><trkpt lat="40.45952" lon="15.0653583"><ele>57.0</ele><time>2026-05-02T15:56:08.974Z</time></trkpt><trkpt lat="40.4595283" lon="15.0655917"><ele>57.0</ele><time>2026-05-02T15:56:09.973Z</time></trkpt><trkpt lat="40.459535" lon="15.06585"><ele>56.66666666666667</ele><time>2026-05-02T15:56:10.974Z</time></trkpt><trkpt lat="40.45953" lon="15.0660983"><ele>56.333333333333336</ele><time>2026-05-02T15:56:11.974Z</time></trkpt><trkpt lat="40.4595367" lon="15.06635"><ele>56.0</ele><time>2026-05-02T15:56:12.974Z</time></trkpt><trkpt lat="40.4595433" lon="15.066625"><ele>56.0</ele><time>2026-05-02T15:56:13.973Z</time></trkpt><trkpt lat="40.45955" lon="15.0668933"><ele>56.0</ele><time>2026-05-02T15:56:14.974Z</time></trkpt><trkpt lat="40.459555" lon="15.0671433"><ele>56.0</ele><time>2026-05-02T15:56:15.973Z</time></trkpt><trkpt lat="40.4595733" lon="15.0673917"><ele>56.333333333333336</ele><time>2026-05-02T15:56:16.973Z</time></trkpt><trkpt lat="40.4596033" lon="15.0676283"><ele>56.66666666666667</ele><time>2026-05-02T15:56:17.973Z</time></trkpt><trkpt lat="40.4596333" lon="15.0678683"><ele>57.0</ele><time>2026-05-02T15:56:18.973Z</time></trkpt><trkpt lat="40.4596717" lon="15.068135"><ele>56.0</ele><time>2026-05-02T15:56:19.973Z</time></trkpt><trkpt lat="40.4597133" lon="15.068385"><ele>55.0</ele><time>2026-05-02T15:56:20.974Z</time></trkpt><trkpt lat="40.4597633" lon="15.06862"><ele>54.0</ele><time>2026-05-02T15:56:21.973Z</time></trkpt><trkpt lat="40.459805" lon="15.0688683"><ele>54.0</ele><time>2026-05-02T15:56:22.973Z</time></trkpt><trkpt lat="40.4598467" lon="15.0691033"><ele>54.0</ele><time>2026-05-02T15:56:23.974Z</time></trkpt><trkpt lat="40.4598917" lon="15.069355"><ele>54.0</ele><time>2026-05-02T15:56:24.974Z</time></trkpt><trkpt lat="40.4599283" lon="15.0696067"><ele>54.33333333333333</ele><time>2026-05-02T15:56:25.973Z</time></trkpt><trkpt lat="40.459965" lon="15.069845"><ele>54.666666666666664</ele><time>2026-05-02T15:56:26.973Z</time></trkpt><trkpt lat="40.4600017" lon="15.07009"><ele>55.0</ele><time>2026-05-02T15:56:27.974Z</time></trkpt><trkpt lat="40.4600417" lon="15.0703217"><ele>55.0</ele><time>2026-05-02T15:56:28.973Z</time></trkpt><trkpt lat="40.4600817" lon="15.0705517"><ele>55.0</ele><time>2026-05-02T15:56:29.973Z</time></trkpt><trkpt lat="40.4601217" lon="15.070785"><ele>55.0</ele><time>2026-05-02T15:56:30.973Z</time></trkpt><trkpt lat="40.4601617" lon="15.0710067"><ele>55.33333333333333</ele><time>2026-05-02T15:56:31.973Z</time></trkpt><trkpt lat="40.4601933" lon="15.0712483"><ele>55.66666666666667</ele><time>2026-05-02T15:56:32.973Z</time></trkpt><trkpt lat="40.460225" lon="15.07148"><ele>56.0</ele><time>2026-05-02T15:56:33.973Z</time></trkpt><trkpt lat="40.4602683" lon="15.0717183"><ele>56.0</ele><time>2026-05-02T15:56:34.973Z</time></trkpt><trkpt lat="40.460305" lon="15.0719667"><ele>56.0</ele><time>2026-05-02T15:56:35.973Z</time></trkpt><trkpt lat="40.460345" lon="15.0721967"><ele>56.0</ele><time>2026-05-02T15:56:36.973Z</time></trkpt><trkpt lat="40.4603883" lon="15.0724483"><ele>55.66666666666667</ele><time>2026-05-02T15:56:37.973Z</time></trkpt><trkpt lat="40.460425" lon="15.0726733"><ele>55.33333333333333</ele><time>2026-05-02T15:56:38.973Z</time></trkpt><trkpt lat="40.4604617" lon="15.0728983"><ele>55.0</ele><time>2026-05-02T15:56:39.974Z</time></trkpt><trkpt lat="40.460505" lon="15.0731283"><ele>54.666666666666664</ele><time>2026-05-02T15:56:40.973Z</time></trkpt><trkpt lat="40.4605417" lon="15.0733433"><ele>54.33333333333333</ele><time>2026-05-02T15:56:41.974Z</time></trkpt><trkpt lat="40.4605817" lon="15.0735783"><ele>54.0</ele><time>2026-05-02T15:56:42.973Z</time></trkpt><trkpt lat="40.4606217" lon="15.0738017"><ele>54.0</ele><time>2026-05-02T15:56:43.973Z</time></trkpt><trkpt lat="40.4606583" lon="15.0740333"><ele>54.0</ele><time>2026-05-02T15:56:44.973Z</time></trkpt><trkpt lat="40.4607" lon="15.074275"><ele>54.0</ele><time>2026-05-02T15:56:45.974Z</time></trkpt><trkpt lat="40.46074" lon="15.074505"><ele>53.66666666666667</ele><time>2026-05-02T15:56:46.973Z</time></trkpt><trkpt lat="40.460775" lon="15.0747417"><ele>53.333333333333336</ele><time>2026-05-02T15:56:47.974Z</time></trkpt><trkpt lat="40.4608083" lon="15.074945"><ele>53.0</ele><time>2026-05-02T15:56:48.974Z</time></trkpt><trkpt lat="40.4608433" lon="15.0751483"><ele>53.5</ele><time>2026-05-02T15:56:49.973Z</time></trkpt><trkpt lat="40.4608733" lon="15.0753333"><ele>54.0</ele><time>2026-05-02T15:56:50.973Z</time></trkpt><trkpt lat="40.4609033" lon="15.075515"><ele>54.5</ele><time>2026-05-02T15:56:51.974Z</time></trkpt><trkpt lat="40.4609317" lon="15.075685"><ele>55.0</ele><time>2026-05-02T15:56:52.973Z</time></trkpt><trkpt lat="40.4609633" lon="15.0758533"><ele>55.0</ele><time>2026-05-02T15:56:53.974Z</time></trkpt><trkpt lat="40.4609983" lon="15.07602"><ele>55.0</ele><time>2026-05-02T15:56:54.973Z</time></trkpt><trkpt lat="40.4610383" lon="15.0761983"><ele>55.0</ele><time>2026-05-02T15:56:55.974Z</time></trkpt><trkpt lat="40.4610717" lon="15.0763817"><ele>55.0</ele><time>2026-05-02T15:56:56.975Z</time></trkpt><trkpt lat="40.4610983" lon="15.0765717"><ele>54.5</ele><time>2026-05-02T15:56:57.975Z</time></trkpt><trkpt lat="40.4611267" lon="15.0767533"><ele>54.0</ele><time>2026-05-02T15:56:58.975Z</time></trkpt><trkpt lat="40.4611583" lon="15.07694"><ele>53.5</ele><time>2026-05-02T15:56:59.975Z</time></trkpt><trkpt lat="40.4611933" lon="15.0771167"><ele>53.0</ele><time>2026-05-02T15:57:00.974Z</time></trkpt><trkpt lat="40.46122" lon="15.0773017"><ele>53.25</ele><time>2026-05-02T15:57:01.974Z</time></trkpt><trkpt lat="40.4612467" lon="15.0774783"><ele>53.5</ele><time>2026-05-02T15:57:02.974Z</time></trkpt><trkpt lat="40.4612767" lon="15.077665"><ele>53.75</ele><time>2026-05-02T15:57:03.975Z</time></trkpt><trkpt lat="40.4613067" lon="15.07785"><ele>54.0</ele><time>2026-05-02T15:57:04.974Z</time></trkpt><trkpt lat="40.4613417" lon="15.0780317"><ele>53.75</ele><time>2026-05-02T15:57:05.974Z</time></trkpt><trkpt lat="40.4613733" lon="15.0782067"><ele>53.5</ele><time>2026-05-02T15:57:06.974Z</time></trkpt><trkpt lat="40.4614033" lon="15.07838"><ele>53.25</ele><time>2026-05-02T15:57:07.975Z</time></trkpt><trkpt lat="40.4614333" lon="15.078565"><ele>53.0</ele><time>2026-05-02T15:57:08.974Z</time></trkpt><trkpt lat="40.4614667" lon="15.078755"><ele>53.0</ele><time>2026-05-02T15:57:09.974Z</time></trkpt><trkpt lat="40.4614983" lon="15.0789633"><ele>53.0</ele><time>2026-05-02T15:57:10.974Z</time></trkpt><trkpt lat="40.461535" lon="15.0791767"><ele>53.0</ele><time>2026-05-02T15:57:11.975Z</time></trkpt><trkpt lat="40.4615733" lon="15.0794"><ele>53.333333333333336</ele><time>2026-05-02T15:57:12.975Z</time></trkpt><trkpt lat="40.4616117" lon="15.07963"><ele>53.66666666666667</ele><time>2026-05-02T15:57:13.974Z</time></trkpt><trkpt lat="40.4616467" lon="15.0798617"><ele>54.0</ele><time>2026-05-02T15:57:14.974Z</time></trkpt><trkpt lat="40.4616833" lon="15.0800917"><ele>54.0</ele><time>2026-05-02T15:57:15.974Z</time></trkpt><trkpt lat="40.461725" lon="15.0803033"><ele>54.0</ele><time>2026-05-02T15:57:16.974Z</time></trkpt><trkpt lat="40.4617633" lon="15.0805217"><ele>54.0</ele><time>2026-05-02T15:57:17.975Z</time></trkpt><trkpt lat="40.4617983" lon="15.08075"><ele>54.0</ele><time>2026-05-02T15:57:18.975Z</time></trkpt><trkpt lat="40.4618383" lon="15.08097"><ele>54.0</ele><time>2026-05-02T15:57:19.975Z</time></trkpt><trkpt lat="40.4618767" lon="15.0811917"><ele>54.0</ele><time>2026-05-02T15:57:20.975Z</time></trkpt><trkpt lat="40.461915" lon="15.0814117"><ele>53.33333333333333</ele><time>2026-05-02T15:57:21.975Z</time></trkpt><trkpt lat="40.4619467" lon="15.081625"><ele>52.666666666666664</ele><time>2026-05-02T15:57:22.975Z</time></trkpt><trkpt lat="40.4619867" lon="15.0818467"><ele>52.0</ele><time>2026-05-02T15:57:23.975Z</time></trkpt><trkpt lat="40.4620217" lon="15.0820683"><ele>52.0</ele><time>2026-05-02T15:57:24.975Z</time></trkpt><trkpt lat="40.4620583" lon="15.0822883"><ele>52.0</ele><time>2026-05-02T15:57:25.975Z</time></trkpt><trkpt lat="40.46209" lon="15.082495"><ele>52.0</ele><time>2026-05-02T15:57:26.974Z</time></trkpt><trkpt lat="40.462125" lon="15.0827033"><ele>52.33333333333333</ele><time>2026-05-02T15:57:27.975Z</time></trkpt><trkpt lat="40.4621617" lon="15.0829133"><ele>52.66666666666667</ele><time>2026-05-02T15:57:28.974Z</time></trkpt><trkpt lat="40.4621967" lon="15.08313"><ele>53.0</ele><time>2026-05-02T15:57:29.974Z</time></trkpt><trkpt lat="40.4622367" lon="15.08334"><ele>53.66666666666667</ele><time>2026-05-02T15:57:30.975Z</time></trkpt><trkpt lat="40.4622783" lon="15.08355"><ele>54.33333333333333</ele><time>2026-05-02T15:57:31.974Z</time></trkpt><trkpt lat="40.4623183" lon="15.0837617"><ele>55.0</ele><time>2026-05-02T15:57:32.974Z</time></trkpt><trkpt lat="40.4623517" lon="15.083975"><ele>55.0</ele><time>2026-05-02T15:57:33.974Z</time></trkpt><trkpt lat="40.46239" lon="15.084195"><ele>55.0</ele><time>2026-05-02T15:57:34.975Z</time></trkpt><trkpt lat="40.4624233" lon="15.08442"><ele>55.0</ele><time>2026-05-02T15:57:35.975Z</time></trkpt><trkpt lat="40.4624433" lon="15.084645"><ele>55.0</ele><time>2026-05-02T15:57:36.974Z</time></trkpt><trkpt lat="40.462445" lon="15.0848817"><ele>55.0</ele><time>2026-05-02T15:57:37.974Z</time></trkpt><trkpt lat="40.4624367" lon="15.08512"><ele>55.0</ele><time>2026-05-02T15:57:38.974Z</time></trkpt><trkpt lat="40.4624217" lon="15.0853533"><ele>54.33333333333333</ele><time>2026-05-02T15:57:39.974Z</time></trkpt><trkpt lat="40.4623983" lon="15.0855967"><ele>53.66666666666667</ele><time>2026-05-02T15:57:40.974Z</time></trkpt><trkpt lat="40.462375" lon="15.08584"><ele>53.0</ele><time>2026-05-02T15:57:41.974Z</time></trkpt><trkpt lat="40.4623583" lon="15.08608"><ele>53.0</ele><time>2026-05-02T15:57:42.974Z</time></trkpt><trkpt lat="40.4623417" lon="15.086325"><ele>53.0</ele><time>2026-05-02T15:57:43.975Z</time></trkpt><trkpt lat="40.4623233" lon="15.08656"><ele>53.0</ele><time>2026-05-02T15:57:44.975Z</time></trkpt><trkpt lat="40.4623083" lon="15.0867933"><ele>53.0</ele><time>2026-05-02T15:57:45.974Z</time></trkpt><trkpt lat="40.4623" lon="15.0870233"><ele>53.0</ele><time>2026-05-02T15:57:46.974Z</time></trkpt><trkpt lat="40.462285" lon="15.08726"><ele>53.0</ele><time>2026-05-02T15:57:47.974Z</time></trkpt><trkpt lat="40.4622683" lon="15.0874867"><ele>53.333333333333336</ele><time>2026-05-02T15:57:48.974Z</time></trkpt><trkpt lat="40.462255" lon="15.0877233"><ele>53.66666666666667</ele><time>2026-05-02T15:57:49.974Z</time></trkpt><trkpt lat="40.46224" lon="15.08795"><ele>54.0</ele><time>2026-05-02T15:57:50.975Z</time></trkpt><trkpt lat="40.462225" lon="15.0881767"><ele>54.66666666666667</ele><time>2026-05-02T15:57:51.975Z</time></trkpt><trkpt lat="40.4622133" lon="15.0884017"><ele>55.333333333333336</ele><time>2026-05-02T15:57:52.974Z</time></trkpt><trkpt lat="40.4622033" lon="15.0886283"><ele>56.0</ele><time>2026-05-02T15:57:53.975Z</time></trkpt><trkpt lat="40.4621833" lon="15.08885"><ele>56.0</ele><time>2026-05-02T15:57:54.974Z</time></trkpt><trkpt lat="40.46217" lon="15.089075"><ele>56.0</ele><time>2026-05-02T15:57:55.974Z</time></trkpt><trkpt lat="40.4621567" lon="15.0892917"><ele>56.0</ele><time>2026-05-02T15:57:56.975Z</time></trkpt><trkpt lat="40.462145" lon="15.0895017"><ele>56.333333333333336</ele><time>2026-05-02T15:57:57.974Z</time></trkpt><trkpt lat="40.4621433" lon="15.0897133"><ele>56.66666666666667</ele><time>2026-05-02T15:57:58.974Z</time></trkpt><trkpt lat="40.4621533" lon="15.0899317"><ele>57.0</ele><time>2026-05-02T15:57:59.974Z</time></trkpt><trkpt lat="40.4621667" lon="15.0901533"><ele>57.0</ele><time>2026-05-02T15:58:00.974Z</time></trkpt><trkpt lat="40.4621883" lon="15.0903717"><ele>57.0</ele><time>2026-05-02T15:58:01.974Z</time></trkpt><trkpt lat="40.4622017" lon="15.090585"><ele>57.0</ele><time>2026-05-02T15:58:02.975Z</time></trkpt><trkpt lat="40.462205" lon="15.0908117"><ele>55.33333333333333</ele><time>2026-05-02T15:58:03.975Z</time></trkpt><trkpt lat="40.4621833" lon="15.0910383"><ele>53.666666666666664</ele><time>2026-05-02T15:58:04.974Z</time></trkpt><trkpt lat="40.46215" lon="15.0912717"><ele>52.0</ele><time>2026-05-02T15:58:05.974Z</time></trkpt><trkpt lat="40.4620933" lon="15.0914983"><ele>51.33333333333333</ele><time>2026-05-02T15:58:06.974Z</time></trkpt><trkpt lat="40.4620217" lon="15.0917167"><ele>50.66666666666667</ele><time>2026-05-02T15:58:07.975Z</time></trkpt><trkpt lat="40.4619433" lon="15.0919417"><ele>50.0</ele><time>2026-05-02T15:58:08.975Z</time></trkpt><trkpt lat="40.4618667" lon="15.09217"><ele>50.0</ele><time>2026-05-02T15:58:09.974Z</time></trkpt><trkpt lat="40.4617867" lon="15.0924033"><ele>50.0</ele><time>2026-05-02T15:58:10.975Z</time></trkpt><trkpt lat="40.46171" lon="15.0926367"><ele>50.0</ele><time>2026-05-02T15:58:11.974Z</time></trkpt><trkpt lat="40.46164" lon="15.09287"><ele>50.333333333333336</ele><time>2026-05-02T15:58:12.974Z</time></trkpt><trkpt lat="40.461565" lon="15.09309"><ele>50.66666666666667</ele><time>2026-05-02T15:58:13.975Z</time></trkpt><trkpt lat="40.4614967" lon="15.093305"><ele>51.0</ele><time>2026-05-02T15:58:14.974Z</time></trkpt><trkpt lat="40.4614267" lon="15.0935283"><ele>51.66666666666667</ele><time>2026-05-02T15:58:15.975Z</time></trkpt><trkpt lat="40.461355" lon="15.09375"><ele>52.333333333333336</ele><time>2026-05-02T15:58:16.974Z</time></trkpt><trkpt lat="40.4612867" lon="15.0939667"><ele>53.0</ele><time>2026-05-02T15:58:17.974Z</time></trkpt><trkpt lat="40.4612117" lon="15.094195"><ele>53.0</ele><time>2026-05-02T15:58:18.974Z</time></trkpt><trkpt lat="40.46114" lon="15.0944133"><ele>53.0</ele><time>2026-05-02T15:58:19.974Z</time></trkpt><trkpt lat="40.461075" lon="15.0946367"><ele>53.0</ele><time>2026-05-02T15:58:20.974Z</time></trkpt><trkpt lat="40.4610083" lon="15.0948583"><ele>52.333333333333336</ele><time>2026-05-02T15:58:21.974Z</time></trkpt><trkpt lat="40.46094" lon="15.0950767"><ele>51.66666666666667</ele><time>2026-05-02T15:58:22.974Z</time></trkpt><trkpt lat="40.46087" lon="15.0953017"><ele>51.0</ele><time>2026-05-02T15:58:23.975Z</time></trkpt><trkpt lat="40.4607983" lon="15.09552"><ele>51.0</ele><time>2026-05-02T15:58:24.974Z</time></trkpt><trkpt lat="40.4607283" lon="15.0957367"><ele>51.0</ele><time>2026-05-02T15:58:25.974Z</time></trkpt><trkpt lat="40.4606583" lon="15.0959483"><ele>51.0</ele><time>2026-05-02T15:58:26.974Z</time></trkpt><trkpt lat="40.460585" lon="15.0961567"><ele>51.0</ele><time>2026-05-02T15:58:27.974Z</time></trkpt><trkpt lat="40.4605167" lon="15.09637"><ele>51.0</ele><time>2026-05-02T15:58:28.975Z</time></trkpt><trkpt lat="40.460455" lon="15.0965783"><ele>51.0</ele><time>2026-05-02T15:58:29.974Z</time></trkpt><trkpt lat="40.46039" lon="15.0967817"><ele>53.0</ele><time>2026-05-02T15:58:30.974Z</time></trkpt><trkpt lat="40.4603217" lon="15.0969833"><ele>55.0</ele><time>2026-05-02T15:58:31.974Z</time></trkpt><trkpt lat="40.46026" lon="15.0971817"><ele>57.0</ele><time>2026-05-02T15:58:32.974Z</time></trkpt><trkpt lat="40.4601933" lon="15.0973767"><ele>57.0</ele><time>2026-05-02T15:58:33.974Z</time></trkpt><trkpt lat="40.46013" lon="15.0975783"><ele>57.0</ele><time>2026-05-02T15:58:34.974Z</time></trkpt><trkpt lat="40.46007" lon="15.0977867"><ele>57.0</ele><time>2026-05-02T15:58:35.974Z</time></trkpt><trkpt lat="40.4600033" lon="15.097995"><ele>57.0</ele><time>2026-05-02T15:58:36.975Z</time></trkpt><trkpt lat="40.4599333" lon="15.0981983"><ele>57.0</ele><time>2026-05-02T15:58:37.974Z</time></trkpt><trkpt lat="40.4598717" lon="15.0984067"><ele>57.0</ele><time>2026-05-02T15:58:38.974Z</time></trkpt><trkpt lat="40.459805" lon="15.0986133"><ele>57.0</ele><time>2026-05-02T15:58:39.974Z</time></trkpt><trkpt lat="40.4597333" lon="15.0988167"><ele>57.0</ele><time>2026-05-02T15:58:40.974Z</time></trkpt><trkpt lat="40.4596733" lon="15.09901"><ele>57.0</ele><time>2026-05-02T15:58:41.974Z</time></trkpt><trkpt lat="40.4596117" lon="15.099205"><ele>58.33333333333333</ele><time>2026-05-02T15:58:42.975Z</time></trkpt><trkpt lat="40.4595517" lon="15.0994"><ele>59.666666666666664</ele><time>2026-05-02T15:58:43.975Z</time></trkpt><trkpt lat="40.45949" lon="15.09959"><ele>61.0</ele><time>2026-05-02T15:58:44.975Z</time></trkpt><trkpt lat="40.4594167" lon="15.0997767"><ele>62.0</ele><time>2026-05-02T15:58:45.975Z</time></trkpt><trkpt lat="40.459335" lon="15.0999517"><ele>63.0</ele><time>2026-05-02T15:58:46.974Z</time></trkpt><trkpt lat="40.4592583" lon="15.1001283"><ele>64.0</ele><time>2026-05-02T15:58:47.974Z</time></trkpt><trkpt lat="40.4591767" lon="15.1002983"><ele>64.0</ele><time>2026-05-02T15:58:48.974Z</time></trkpt><trkpt lat="40.4590867" lon="15.1004667"><ele>64.0</ele><time>2026-05-02T15:58:49.975Z</time></trkpt><trkpt lat="40.4589867" lon="15.1006467"><ele>64.0</ele><time>2026-05-02T15:58:50.975Z</time></trkpt><trkpt lat="40.4589033" lon="15.10083"><ele>62.666666666666664</ele><time>2026-05-02T15:58:51.974Z</time></trkpt><trkpt lat="40.4588183" lon="15.1010167"><ele>61.33333333333333</ele><time>2026-05-02T15:58:52.974Z</time></trkpt><trkpt lat="40.458735" lon="15.1012017"><ele>60.0</ele><time>2026-05-02T15:58:53.975Z</time></trkpt><trkpt lat="40.45865" lon="15.1013833"><ele>62.0</ele><time>2026-05-02T15:58:54.975Z</time></trkpt><trkpt lat="40.458575" lon="15.1015733"><ele>64.0</ele><time>2026-05-02T15:58:55.974Z</time></trkpt><trkpt lat="40.4585" lon="15.1017633"><ele>66.0</ele><time>2026-05-02T15:58:56.974Z</time></trkpt><trkpt lat="40.4584233" lon="15.1019517"><ele>66.0</ele><time>2026-05-02T15:58:57.975Z</time></trkpt><trkpt lat="40.4583467" lon="15.1021433"><ele>66.0</ele><time>2026-05-02T15:58:58.974Z</time></trkpt><trkpt lat="40.4582717" lon="15.1023317"><ele>66.0</ele><time>2026-05-02T15:58:59.975Z</time></trkpt><trkpt lat="40.458195" lon="15.1025367"><ele>65.0</ele><time>2026-05-02T15:59:00.974Z</time></trkpt><trkpt lat="40.4581133" lon="15.1027333"><ele>64.0</ele><time>2026-05-02T15:59:01.974Z</time></trkpt><trkpt lat="40.45803" lon="15.1029417"><ele>63.0</ele><time>2026-05-02T15:59:02.974Z</time></trkpt><trkpt lat="40.4579533" lon="15.1031567"><ele>64.66666666666667</ele><time>2026-05-02T15:59:03.975Z</time></trkpt><trkpt lat="40.457885" lon="15.1033817"><ele>66.33333333333334</ele><time>2026-05-02T15:59:04.974Z</time></trkpt><trkpt lat="40.4578267" lon="15.10361"><ele>68.0</ele><time>2026-05-02T15:59:05.974Z</time></trkpt><trkpt lat="40.4577833" lon="15.1038367"><ele>68.0</ele><time>2026-05-02T15:59:06.974Z</time></trkpt><trkpt lat="40.45774" lon="15.1040683"><ele>68.0</ele><time>2026-05-02T15:59:07.974Z</time></trkpt><trkpt lat="40.4577" lon="15.1042917"><ele>68.0</ele><time>2026-05-02T15:59:08.975Z</time></trkpt><trkpt lat="40.4576567" lon="15.1045117"><ele>68.33333333333334</ele><time>2026-05-02T15:59:09.974Z</time></trkpt><trkpt lat="40.457605" lon="15.1047333"><ele>68.66666666666667</ele><time>2026-05-02T15:59:10.975Z</time></trkpt><trkpt lat="40.4575483" lon="15.1049483"><ele>69.0</ele><time>2026-05-02T15:59:11.975Z</time></trkpt><trkpt lat="40.457495" lon="15.10517"><ele>68.0</ele><time>2026-05-02T15:59:12.974Z</time></trkpt><trkpt lat="40.4574383" lon="15.1053967"><ele>67.0</ele><time>2026-05-02T15:59:13.975Z</time></trkpt><trkpt lat="40.4573767" lon="15.1056117"><ele>66.0</ele><time>2026-05-02T15:59:14.974Z</time></trkpt><trkpt lat="40.457315" lon="15.1058383"><ele>64.66666666666667</ele><time>2026-05-02T15:59:15.974Z</time></trkpt><trkpt lat="40.4572533" lon="15.10606"><ele>63.333333333333336</ele><time>2026-05-02T15:59:16.975Z</time></trkpt><trkpt lat="40.4572" lon="15.10629"><ele>62.0</ele><time>2026-05-02T15:59:17.975Z</time></trkpt><trkpt lat="40.4571567" lon="15.1065217"><ele>61.333333333333336</ele><time>2026-05-02T15:59:18.974Z</time></trkpt><trkpt lat="40.45713" lon="15.1067633"><ele>60.66666666666667</ele><time>2026-05-02T15:59:19.974Z</time></trkpt><trkpt lat="40.457105" lon="15.10701"><ele>60.0</ele><time>2026-05-02T15:59:20.975Z</time></trkpt><trkpt lat="40.4570717" lon="15.1072583"><ele>63.0</ele><time>2026-05-02T15:59:21.975Z</time></trkpt><trkpt lat="40.457035" lon="15.1075033"><ele>66.0</ele><time>2026-05-02T15:59:22.975Z</time></trkpt><trkpt lat="40.4570067" lon="15.1077567"><ele>69.0</ele><time>2026-05-02T15:59:23.974Z</time></trkpt><trkpt lat="40.456975" lon="15.1080133"><ele>69.33333333333333</ele><time>2026-05-02T15:59:24.974Z</time></trkpt><trkpt lat="40.45694" lon="15.1082733"><ele>69.66666666666666</ele><time>2026-05-02T15:59:25.974Z</time></trkpt><trkpt lat="40.4569017" lon="15.1085283"><ele>70.0</ele><time>2026-05-02T15:59:26.974Z</time></trkpt><trkpt lat="40.456865" lon="15.1087783"><ele>70.0</ele><time>2026-05-02T15:59:27.974Z</time></trkpt><trkpt lat="40.45683" lon="15.1090233"><ele>70.0</ele><time>2026-05-02T15:59:28.974Z</time></trkpt><trkpt lat="40.456795" lon="15.1092633"><ele>70.0</ele><time>2026-05-02T15:59:29.975Z</time></trkpt><trkpt lat="40.4567583" lon="15.1095033"><ele>69.33333333333333</ele><time>2026-05-02T15:59:30.974Z</time></trkpt><trkpt lat="40.45672" lon="15.1097383"><ele>68.66666666666667</ele><time>2026-05-02T15:59:31.974Z</time></trkpt><trkpt lat="40.4566933" lon="15.10997"><ele>68.0</ele><time>2026-05-02T15:59:32.974Z</time></trkpt><trkpt lat="40.4566583" lon="15.1101883"><ele>68.0</ele><time>2026-05-02T15:59:33.974Z</time></trkpt><trkpt lat="40.4566317" lon="15.110385"><ele>68.0</ele><time>2026-05-02T15:59:34.975Z</time></trkpt><trkpt lat="40.45661" lon="15.1105767"><ele>68.0</ele><time>2026-05-02T15:59:35.974Z</time></trkpt><trkpt lat="40.4565833" lon="15.1107567"><ele>68.0</ele><time>2026-05-02T15:59:36.974Z</time></trkpt><trkpt lat="40.4565583" lon="15.110935"><ele>67.75</ele><time>2026-05-02T15:59:37.974Z</time></trkpt><trkpt lat="40.4565333" lon="15.11111"><ele>67.5</ele><time>2026-05-02T15:59:38.974Z</time></trkpt><trkpt lat="40.4565133" lon="15.1112817"><ele>67.25</ele><time>2026-05-02T15:59:39.975Z</time></trkpt><trkpt lat="40.4564883" lon="15.1114633"><ele>67.0</ele><time>2026-05-02T15:59:40.974Z</time></trkpt><trkpt lat="40.4564617" lon="15.1116467"><ele>66.0</ele><time>2026-05-02T15:59:41.974Z</time></trkpt><trkpt lat="40.4564383" lon="15.1118383"><ele>65.0</ele><time>2026-05-02T15:59:42.974Z</time></trkpt><trkpt lat="40.4564083" lon="15.1120267"><ele>64.0</ele><time>2026-05-02T15:59:43.974Z</time></trkpt><trkpt lat="40.45638" lon="15.1122317"><ele>63.0</ele><time>2026-05-02T15:59:44.975Z</time></trkpt><trkpt lat="40.456355" lon="15.1124383"><ele>62.0</ele><time>2026-05-02T15:59:45.974Z</time></trkpt><trkpt lat="40.4563283" lon="15.1126483"><ele>61.0</ele><time>2026-05-02T15:59:46.974Z</time></trkpt><trkpt lat="40.456305" lon="15.11286"><ele>62.666666666666664</ele><time>2026-05-02T15:59:47.974Z</time></trkpt><trkpt lat="40.4562783" lon="15.1130633"><ele>64.33333333333333</ele><time>2026-05-02T15:59:48.974Z</time></trkpt><trkpt lat="40.4562583" lon="15.1132717"><ele>66.0</ele><time>2026-05-02T15:59:49.975Z</time></trkpt><trkpt lat="40.4562383" lon="15.11347"><ele>66.0</ele><time>2026-05-02T15:59:50.974Z</time></trkpt><trkpt lat="40.4562183" lon="15.1136583"><ele>66.0</ele><time>2026-05-02T15:59:51.974Z</time></trkpt><trkpt lat="40.4561983" lon="15.113845"><ele>66.0</ele><time>2026-05-02T15:59:52.975Z</time></trkpt><trkpt lat="40.4561717" lon="15.1140317"><ele>66.0</ele><time>2026-05-02T15:59:53.975Z</time></trkpt><trkpt lat="40.4561517" lon="15.1142233"><ele>65.75</ele><time>2026-05-02T15:59:54.974Z</time></trkpt><trkpt lat="40.4561283" lon="15.1144183"><ele>65.5</ele><time>2026-05-02T15:59:55.974Z</time></trkpt><trkpt lat="40.4560983" lon="15.1146117"><ele>65.25</ele><time>2026-05-02T15:59:56.975Z</time></trkpt><trkpt lat="40.4560717" lon="15.1148033"><ele>65.0</ele><time>2026-05-02T15:59:57.974Z</time></trkpt><trkpt lat="40.4560483" lon="15.1150033"><ele>64.33333333333334</ele><time>2026-05-02T15:59:58.975Z</time></trkpt><trkpt lat="40.456025" lon="15.1152083"><ele>63.66666666666667</ele><time>2026-05-02T15:59:59.974Z</time></trkpt><trkpt lat="40.4559983" lon="15.1154117"><ele>63.0</ele><time>2026-05-02T16:00:00.974Z</time></trkpt><trkpt lat="40.4559717" lon="15.1156083"><ele>62.66666666666667</ele><time>2026-05-02T16:00:01.975Z</time></trkpt><trkpt lat="40.4559383" lon="15.1158133"><ele>62.333333333333336</ele><time>2026-05-02T16:00:02.974Z</time></trkpt><trkpt lat="40.4559067" lon="15.1160267"><ele>62.0</ele><time>2026-05-02T16:00:03.974Z</time></trkpt><trkpt lat="40.4558783" lon="15.1162383"><ele>62.0</ele><time>2026-05-02T16:00:04.974Z</time></trkpt><trkpt lat="40.4558517" lon="15.11646"><ele>62.0</ele><time>2026-05-02T16:00:05.975Z</time></trkpt><trkpt lat="40.4558217" lon="15.1166717"><ele>62.0</ele><time>2026-05-02T16:00:06.974Z</time></trkpt><trkpt lat="40.4558" lon="15.1168833"><ele>62.0</ele><time>2026-05-02T16:00:07.974Z</time></trkpt><trkpt lat="40.4557783" lon="15.1171033"><ele>62.0</ele><time>2026-05-02T16:00:08.974Z</time></trkpt><trkpt lat="40.4557517" lon="15.1173183"><ele>62.0</ele><time>2026-05-02T16:00:09.974Z</time></trkpt><trkpt lat="40.4557233" lon="15.1175367"><ele>62.0</ele><time>2026-05-02T16:00:10.975Z</time></trkpt><trkpt lat="40.4556683" lon="15.1179733"><ele>62.0</ele><time>2026-05-02T16:00:12.974Z</time></trkpt><trkpt lat="40.4556483" lon="15.118195"><ele>62.66666666666667</ele><time>2026-05-02T16:00:13.974Z</time></trkpt><trkpt lat="40.45562" lon="15.1184133"><ele>63.33333333333333</ele><time>2026-05-02T16:00:14.974Z</time></trkpt><trkpt lat="40.455595" lon="15.11862"><ele>64.0</ele><time>2026-05-02T16:00:15.974Z</time></trkpt><trkpt lat="40.4555633" lon="15.1188317"><ele>64.0</ele><time>2026-05-02T16:00:16.975Z</time></trkpt><trkpt lat="40.45554" lon="15.1190367"><ele>64.0</ele><time>2026-05-02T16:00:17.974Z</time></trkpt><trkpt lat="40.45552" lon="15.1192333"><ele>64.0</ele><time>2026-05-02T16:00:18.975Z</time></trkpt><trkpt lat="40.455505" lon="15.11944"><ele>64.75</ele><time>2026-05-02T16:00:19.975Z</time></trkpt><trkpt lat="40.4554833" lon="15.119635"><ele>65.5</ele><time>2026-05-02T16:00:20.974Z</time></trkpt><trkpt lat="40.4554583" lon="15.1198283"><ele>66.25</ele><time>2026-05-02T16:00:21.975Z</time></trkpt><trkpt lat="40.455435" lon="15.1200217"><ele>67.0</ele><time>2026-05-02T16:00:22.975Z</time></trkpt><trkpt lat="40.4554067" lon="15.120215"><ele>69.0</ele><time>2026-05-02T16:00:23.974Z</time></trkpt><trkpt lat="40.4553733" lon="15.1204133"><ele>71.0</ele><time>2026-05-02T16:00:24.975Z</time></trkpt><trkpt lat="40.4553467" lon="15.12061"><ele>73.0</ele><time>2026-05-02T16:00:25.974Z</time></trkpt><trkpt lat="40.4553233" lon="15.1208"><ele>73.0</ele><time>2026-05-02T16:00:26.974Z</time></trkpt><trkpt lat="40.4552983" lon="15.121"><ele>73.0</ele><time>2026-05-02T16:00:27.974Z</time></trkpt><trkpt lat="40.45526" lon="15.1212"><ele>73.0</ele><time>2026-05-02T16:00:28.974Z</time></trkpt><trkpt lat="40.455205" lon="15.1213867"><ele>73.0</ele><time>2026-05-02T16:00:29.975Z</time></trkpt><trkpt lat="40.4551417" lon="15.1215617"><ele>73.0</ele><time>2026-05-02T16:00:30.974Z</time></trkpt><trkpt lat="40.4550717" lon="15.1217433"><ele>73.0</ele><time>2026-05-02T16:00:31.974Z</time></trkpt><trkpt lat="40.4550167" lon="15.1219167"><ele>73.0</ele><time>2026-05-02T16:00:32.974Z</time></trkpt><trkpt lat="40.4549917" lon="15.1221083"><ele>73.0</ele><time>2026-05-02T16:00:33.974Z</time></trkpt><trkpt lat="40.454985" lon="15.1223017"><ele>73.0</ele><time>2026-05-02T16:00:34.974Z</time></trkpt><trkpt lat="40.4549767" lon="15.1224817"><ele>73.0</ele><time>2026-05-02T16:00:35.974Z</time></trkpt><trkpt lat="40.4549533" lon="15.1226617"><ele>73.0</ele><time>2026-05-02T16:00:36.974Z</time></trkpt><trkpt lat="40.4549217" lon="15.1228333"><ele>73.0</ele><time>2026-05-02T16:00:37.975Z</time></trkpt><trkpt lat="40.4548983" lon="15.1230017"><ele>73.0</ele><time>2026-05-02T16:00:38.975Z</time></trkpt><trkpt lat="40.454905" lon="15.1231533"><ele>73.0</ele><time>2026-05-02T16:00:39.974Z</time></trkpt><trkpt lat="40.4549233" lon="15.1232867"><ele>73.0</ele><time>2026-05-02T16:00:40.974Z</time></trkpt><trkpt lat="40.4549483" lon="15.1234"><ele>73.0</ele><time>2026-05-02T16:00:41.974Z</time></trkpt><trkpt lat="40.4549717" lon="15.1234983"><ele>73.4</ele><time>2026-05-02T16:00:42.974Z</time></trkpt><trkpt lat="40.454995" lon="15.1235817"><ele>73.8</ele><time>2026-05-02T16:00:43.974Z</time></trkpt><trkpt lat="40.4550283" lon="15.1237367"><ele>74.2</ele><time>2026-05-02T16:00:45.974Z</time></trkpt><trkpt lat="40.4550583" lon="15.1238633"><ele>74.6</ele><time>2026-05-02T16:00:47.975Z</time></trkpt><trkpt lat="40.4550733" lon="15.1239967"><ele>75.0</ele><time>2026-05-02T16:02:25.974Z</time></trkpt><trkpt lat="40.4550917" lon="15.12409"><ele>75.66666666666667</ele><time>2026-05-02T16:02:26.975Z</time></trkpt><trkpt lat="40.4551133" lon="15.1242033"><ele>76.33333333333333</ele><time>2026-05-02T16:02:27.974Z</time></trkpt><trkpt lat="40.4551433" lon="15.1243217"><ele>77.0</ele><time>2026-05-02T16:02:28.975Z</time></trkpt><trkpt lat="40.45517" lon="15.1244267"><ele>77.66666666666666</ele><time>2026-05-02T16:02:29.974Z</time></trkpt><trkpt lat="40.4551983" lon="15.1245233"><ele>78.33333333333333</ele><time>2026-05-02T16:02:30.974Z</time></trkpt><trkpt lat="40.4552133" lon="15.124615"><ele>79.0</ele><time>2026-05-02T16:02:31.974Z</time></trkpt><trkpt lat="40.4552417" lon="15.1247667"><ele>79.0</ele><time>2026-05-02T16:02:33.975Z</time></trkpt><trkpt lat="40.4553" lon="15.12489"><ele>79.0</ele><time>2026-05-02T16:02:35.975Z</time></trkpt><trkpt lat="40.4553833" lon="15.124965"><ele>79.0</ele><time>2026-05-02T16:02:37.974Z</time></trkpt><trkpt lat="40.4555033" lon="15.124985"><ele>79.0</ele><time>2026-05-02T16:02:39.975Z</time></trkpt><trkpt lat="40.4555717" lon="15.1249833"><ele>79.0</ele><time>2026-05-02T16:02:40.975Z</time></trkpt><trkpt lat="40.455645" lon="15.1249867"><ele>79.0</ele><time>2026-05-02T16:02:41.974Z</time></trkpt><trkpt lat="40.45572" lon="15.1249933"><ele>79.0</ele><time>2026-05-02T16:02:42.974Z</time></trkpt><trkpt lat="40.4557867" lon="15.125015"><ele>79.0</ele><time>2026-05-02T16:02:43.974Z</time></trkpt><trkpt lat="40.45585" lon="15.12505"><ele>79.0</ele><time>2026-05-02T16:02:44.974Z</time></trkpt><trkpt lat="40.4559017" lon="15.1252117"><ele>79.0</ele><time>2026-05-02T16:02:46.975Z</time></trkpt><trkpt lat="40.4559017" lon="15.1253167"><ele>79.0</ele><time>2026-05-02T16:02:47.974Z</time></trkpt><trkpt lat="40.4558967" lon="15.12544"><ele>79.0</ele><time>2026-05-02T16:02:48.975Z</time></trkpt><trkpt lat="40.4558933" lon="15.1255667"><ele>79.0</ele><time>2026-05-02T16:02:49.974Z</time></trkpt><trkpt lat="40.4558867" lon="15.1257017"><ele>79.0</ele><time>2026-05-02T16:02:50.974Z</time></trkpt><trkpt lat="40.4558817" lon="15.1258317"><ele>79.0</ele><time>2026-05-02T16:02:51.975Z</time></trkpt><trkpt lat="40.4558783" lon="15.12596"><ele>79.0</ele><time>2026-05-02T16:02:52.975Z</time></trkpt><trkpt lat="40.455875" lon="15.1260933"><ele>80.25</ele><time>2026-05-02T16:02:53.974Z</time></trkpt><trkpt lat="40.4558533" lon="15.1262267"><ele>81.5</ele><time>2026-05-02T16:02:54.974Z</time></trkpt><trkpt lat="40.4558283" lon="15.126375"><ele>82.75</ele><time>2026-05-02T16:02:55.974Z</time></trkpt><trkpt lat="40.4558017" lon="15.1265267"><ele>84.0</ele><time>2026-05-02T16:02:56.975Z</time></trkpt><trkpt lat="40.455775" lon="15.12669"><ele>85.0</ele><time>2026-05-02T16:02:57.974Z</time></trkpt><trkpt lat="40.45575" lon="15.1268617"><ele>86.0</ele><time>2026-05-02T16:02:58.975Z</time></trkpt><trkpt lat="40.455725" lon="15.127025"><ele>87.0</ele><time>2026-05-02T16:02:59.974Z</time></trkpt><trkpt lat="40.4556967" lon="15.1272167"><ele>88.0</ele><time>2026-05-02T16:03:00.974Z</time></trkpt><trkpt lat="40.4556533" lon="15.1273983"><ele>88.5</ele><time>2026-05-02T16:03:01.974Z</time></trkpt><trkpt lat="40.4556017" lon="15.1275833"><ele>89.0</ele><time>2026-05-02T16:03:02.974Z</time></trkpt><trkpt lat="40.45555" lon="15.1277667"><ele>89.5</ele><time>2026-05-02T16:03:03.974Z</time></trkpt><trkpt lat="40.4554933" lon="15.127935"><ele>90.0</ele><time>2026-05-02T16:03:04.974Z</time></trkpt><trkpt lat="40.4554333" lon="15.128095"><ele>87.75</ele><time>2026-05-02T16:03:05.974Z</time></trkpt><trkpt lat="40.4553783" lon="15.1282433"><ele>85.5</ele><time>2026-05-02T16:03:06.975Z</time></trkpt><trkpt lat="40.4553283" lon="15.1283983"><ele>83.25</ele><time>2026-05-02T16:03:07.974Z</time></trkpt><trkpt lat="40.4552883" lon="15.1285533"><ele>81.0</ele><time>2026-05-02T16:03:08.974Z</time></trkpt><trkpt lat="40.4552733" lon="15.1287"><ele>81.0</ele><time>2026-05-02T16:03:09.975Z</time></trkpt><trkpt lat="40.4552533" lon="15.12886"><ele>81.0</ele><time>2026-05-02T16:03:10.975Z</time></trkpt><trkpt lat="40.455225" lon="15.129025"><ele>81.0</ele><time>2026-05-02T16:03:11.975Z</time></trkpt><trkpt lat="40.455185" lon="15.1291883"><ele>81.0</ele><time>2026-05-02T16:03:12.974Z</time></trkpt><trkpt lat="40.45514" lon="15.129355"><ele>82.25</ele><time>2026-05-02T16:03:13.975Z</time></trkpt><trkpt lat="40.4550833" lon="15.129515"><ele>83.5</ele><time>2026-05-02T16:03:14.975Z</time></trkpt><trkpt lat="40.4550167" lon="15.1296733"><ele>84.75</ele><time>2026-05-02T16:03:15.974Z</time></trkpt><trkpt lat="40.45495" lon="15.1298317"><ele>86.0</ele><time>2026-05-02T16:03:16.974Z</time></trkpt><trkpt lat="40.4548867" lon="15.1299833"><ele>88.0</ele><time>2026-05-02T16:03:17.974Z</time></trkpt><trkpt lat="40.4548233" lon="15.1301483"><ele>90.0</ele><time>2026-05-02T16:03:18.975Z</time></trkpt><trkpt lat="40.4547633" lon="15.1303"><ele>92.0</ele><time>2026-05-02T16:03:19.974Z</time></trkpt><trkpt lat="40.4547133" lon="15.130455"><ele>94.0</ele><time>2026-05-02T16:03:20.974Z</time></trkpt><trkpt lat="40.454665" lon="15.1306067"><ele>94.75</ele><time>2026-05-02T16:03:21.974Z</time></trkpt><trkpt lat="40.4546267" lon="15.1307683"><ele>95.5</ele><time>2026-05-02T16:03:22.974Z</time></trkpt><trkpt lat="40.4545933" lon="15.1309467"><ele>96.25</ele><time>2026-05-02T16:03:23.975Z</time></trkpt><trkpt lat="40.454595" lon="15.1311317"><ele>97.0</ele><time>2026-05-02T16:03:24.974Z</time></trkpt><trkpt lat="40.4546117" lon="15.1313167"><ele>98.0</ele><time>2026-05-02T16:03:25.974Z</time></trkpt><trkpt lat="40.454635" lon="15.1315133"><ele>99.0</ele><time>2026-05-02T16:03:26.974Z</time></trkpt><trkpt lat="40.4546633" lon="15.1316933"><ele>100.0</ele><time>2026-05-02T16:03:27.974Z</time></trkpt><trkpt lat="40.4546633" lon="15.13186"><ele>101.0</ele><time>2026-05-02T16:03:28.975Z</time></trkpt><trkpt lat="40.4546533" lon="15.1320217"><ele>99.25</ele><time>2026-05-02T16:03:29.975Z</time></trkpt><trkpt lat="40.45462" lon="15.132175"><ele>97.5</ele><time>2026-05-02T16:03:30.975Z</time></trkpt><trkpt lat="40.4545633" lon="15.1323117"><ele>95.75</ele><time>2026-05-02T16:03:31.974Z</time></trkpt><trkpt lat="40.4544933" lon="15.132445"><ele>94.0</ele><time>2026-05-02T16:03:32.975Z</time></trkpt><trkpt lat="40.454415" lon="15.1325667"><ele>93.25</ele><time>2026-05-02T16:03:33.974Z</time></trkpt><trkpt lat="40.454325" lon="15.1326667"><ele>92.5</ele><time>2026-05-02T16:03:34.975Z</time></trkpt><trkpt lat="40.454225" lon="15.132755"><ele>91.75</ele><time>2026-05-02T16:03:35.974Z</time></trkpt><trkpt lat="40.4541183" lon="15.132835"><ele>91.0</ele><time>2026-05-02T16:03:36.974Z</time></trkpt><trkpt lat="40.4540167" lon="15.1329117"><ele>91.0</ele><time>2026-05-02T16:03:37.975Z</time></trkpt><trkpt lat="40.453925" lon="15.1330017"><ele>91.0</ele><time>2026-05-02T16:03:38.975Z</time></trkpt><trkpt lat="40.4538367" lon="15.1330983"><ele>91.0</ele><time>2026-05-02T16:03:39.975Z</time></trkpt><trkpt lat="40.4537567" lon="15.133215"><ele>91.0</ele><time>2026-05-02T16:03:40.974Z</time></trkpt><trkpt lat="40.4536783" lon="15.133335"><ele>91.25</ele><time>2026-05-02T16:03:41.974Z</time></trkpt><trkpt lat="40.4536033" lon="15.1334617"><ele>91.5</ele><time>2026-05-02T16:03:42.974Z</time></trkpt><trkpt lat="40.4535283" lon="15.1335983"><ele>91.75</ele><time>2026-05-02T16:03:43.974Z</time></trkpt><trkpt lat="40.4534467" lon="15.1337483"><ele>92.0</ele><time>2026-05-02T16:03:44.975Z</time></trkpt><trkpt lat="40.4533717" lon="15.1339067"><ele>94.0</ele><time>2026-05-02T16:03:45.975Z</time></trkpt><trkpt lat="40.453295" lon="15.134065"><ele>96.0</ele><time>2026-05-02T16:03:46.974Z</time></trkpt><trkpt lat="40.4532183" lon="15.13423"><ele>98.0</ele><time>2026-05-02T16:03:47.974Z</time></trkpt><trkpt lat="40.4531517" lon="15.1343817"><ele>100.0</ele><time>2026-05-02T16:03:48.975Z</time></trkpt><trkpt lat="40.453095" lon="15.13454"><ele>100.0</ele><time>2026-05-02T16:03:49.975Z</time></trkpt><trkpt lat="40.4530517" lon="15.1347033"><ele>100.0</ele><time>2026-05-02T16:03:50.974Z</time></trkpt><trkpt lat="40.4530267" lon="15.1348767"><ele>100.0</ele><time>2026-05-02T16:03:51.974Z</time></trkpt><trkpt lat="40.4530017" lon="15.13504"><ele>100.0</ele><time>2026-05-02T16:03:52.974Z</time></trkpt><trkpt lat="40.452985" lon="15.13522"><ele>100.0</ele><time>2026-05-02T16:03:53.974Z</time></trkpt><trkpt lat="40.4529617" lon="15.1353983"><ele>100.0</ele><time>2026-05-02T16:03:54.975Z</time></trkpt><trkpt lat="40.4529367" lon="15.1355683"><ele>100.0</ele><time>2026-05-02T16:03:55.975Z</time></trkpt><trkpt lat="40.45291" lon="15.135745"><ele>100.0</ele><time>2026-05-02T16:03:56.974Z</time></trkpt><trkpt lat="40.4528917" lon="15.1359217"><ele>100.0</ele><time>2026-05-02T16:03:57.974Z</time></trkpt><trkpt lat="40.4528717" lon="15.1360967"><ele>100.0</ele><time>2026-05-02T16:03:58.975Z</time></trkpt><trkpt lat="40.452865" lon="15.1362733"><ele>100.0</ele><time>2026-05-02T16:03:59.975Z</time></trkpt><trkpt lat="40.4528767" lon="15.1364383"><ele>100.0</ele><time>2026-05-02T16:04:00.975Z</time></trkpt><trkpt lat="40.4528917" lon="15.1366017"><ele>100.0</ele><time>2026-05-02T16:04:01.974Z</time></trkpt><trkpt lat="40.45292" lon="15.1367683"><ele>100.0</ele><time>2026-05-02T16:04:02.974Z</time></trkpt><trkpt lat="40.45296" lon="15.1369217"><ele>100.0</ele><time>2026-05-02T16:04:03.975Z</time></trkpt><trkpt lat="40.4529933" lon="15.13709"><ele>100.0</ele><time>2026-05-02T16:04:04.974Z</time></trkpt><trkpt lat="40.4530233" lon="15.13726"><ele>104.25</ele><time>2026-05-02T16:04:05.974Z</time></trkpt><trkpt lat="40.4530333" lon="15.1374267"><ele>108.5</ele><time>2026-05-02T16:04:06.974Z</time></trkpt><trkpt lat="40.453045" lon="15.1375983"><ele>112.75</ele><time>2026-05-02T16:04:07.975Z</time></trkpt><trkpt lat="40.4530517" lon="15.1377667"><ele>117.0</ele><time>2026-05-02T16:04:08.974Z</time></trkpt><trkpt lat="40.4530633" lon="15.1379333"><ele>117.0</ele><time>2026-05-02T16:04:09.974Z</time></trkpt><trkpt lat="40.4530733" lon="15.1381233"><ele>117.0</ele><time>2026-05-02T16:04:10.974Z</time></trkpt><trkpt lat="40.453075" lon="15.1383"><ele>117.0</ele><time>2026-05-02T16:04:11.975Z</time></trkpt><trkpt lat="40.4530617" lon="15.1384717"><ele>117.0</ele><time>2026-05-02T16:04:12.975Z</time></trkpt><trkpt lat="40.4530333" lon="15.13864"><ele>116.25</ele><time>2026-05-02T16:04:13.974Z</time></trkpt><trkpt lat="40.4529983" lon="15.13881"><ele>115.5</ele><time>2026-05-02T16:04:14.974Z</time></trkpt><trkpt lat="40.4529517" lon="15.1389833"><ele>114.75</ele><time>2026-05-02T16:04:15.974Z</time></trkpt><trkpt lat="40.4529033" lon="15.13916"><ele>114.0</ele><time>2026-05-02T16:04:16.975Z</time></trkpt><trkpt lat="40.4528583" lon="15.1393417"><ele>112.25</ele><time>2026-05-02T16:04:17.974Z</time></trkpt><trkpt lat="40.4528267" lon="15.1395233"><ele>110.5</ele><time>2026-05-02T16:04:18.974Z</time></trkpt><trkpt lat="40.4528233" lon="15.1397133"><ele>108.75</ele><time>2026-05-02T16:04:19.974Z</time></trkpt><trkpt lat="40.45284" lon="15.1399017"><ele>107.0</ele><time>2026-05-02T16:04:20.974Z</time></trkpt><trkpt lat="40.4528817" lon="15.1400867"><ele>107.0</ele><time>2026-05-02T16:04:21.975Z</time></trkpt><trkpt lat="40.4529183" lon="15.1402717"><ele>107.0</ele><time>2026-05-02T16:04:22.974Z</time></trkpt><trkpt lat="40.4529433" lon="15.14046"><ele>107.0</ele><time>2026-05-02T16:04:23.974Z</time></trkpt><trkpt lat="40.4529417" lon="15.1406533"><ele>107.0</ele><time>2026-05-02T16:04:24.975Z</time></trkpt><trkpt lat="40.452915" lon="15.1408317"><ele>107.19999999999999</ele><time>2026-05-02T16:04:25.975Z</time></trkpt><trkpt lat="40.4528717" lon="15.14099"><ele>107.39999999999999</ele><time>2026-05-02T16:04:26.974Z</time></trkpt><trkpt lat="40.4528167" lon="15.1411267"><ele>107.60000000000001</ele><time>2026-05-02T16:04:27.974Z</time></trkpt><trkpt lat="40.45277" lon="15.1412483"><ele>107.80000000000001</ele><time>2026-05-02T16:04:28.974Z</time></trkpt><trkpt lat="40.4527233" lon="15.1413567"><ele>108.0</ele><time>2026-05-02T16:04:29.974Z</time></trkpt><trkpt lat="40.45268" lon="15.1414533"><ele>108.0</ele><time>2026-05-02T16:04:30.974Z</time></trkpt><trkpt lat="40.4526383" lon="15.141545"><ele>108.00000000000001</ele><time>2026-05-02T16:04:31.975Z</time></trkpt><trkpt lat="40.4525917" lon="15.1416467"><ele>108.00000000000001</ele><time>2026-05-02T16:04:32.974Z</time></trkpt><trkpt lat="40.4525217" lon="15.14174"><ele>108.0</ele><time>2026-05-02T16:04:33.975Z</time></trkpt><trkpt lat="40.4524433" lon="15.1418183"><ele>108.0</ele><time>2026-05-02T16:04:34.975Z</time></trkpt><trkpt lat="40.4523517" lon="15.1418733"><ele>109.0</ele><time>2026-05-02T16:04:35.974Z</time></trkpt><trkpt lat="40.4522517" lon="15.1419167"><ele>110.00000000000001</ele><time>2026-05-02T16:04:36.974Z</time></trkpt><trkpt lat="40.4521433" lon="15.14195"><ele>111.00000000000001</ele><time>2026-05-02T16:04:37.974Z</time></trkpt><trkpt lat="40.4520367" lon="15.1419933"><ele>112.0</ele><time>2026-05-02T16:04:38.974Z</time></trkpt><trkpt lat="40.4519283" lon="15.1420417"><ele>113.0</ele><time>2026-05-02T16:04:39.975Z</time></trkpt><trkpt lat="40.4518217" lon="15.1421033"><ele>113.0</ele><time>2026-05-02T16:04:40.974Z</time></trkpt><trkpt lat="40.4517267" lon="15.1421817"><ele>113.0</ele><time>2026-05-02T16:04:41.974Z</time></trkpt><trkpt lat="40.4516433" lon="15.142275"><ele>113.0</ele><time>2026-05-02T16:04:42.974Z</time></trkpt><trkpt lat="40.4515583" lon="15.1423967"><ele>113.0</ele><time>2026-05-02T16:04:43.974Z</time></trkpt><trkpt lat="40.4514867" lon="15.14253"><ele>114.25</ele><time>2026-05-02T16:04:44.975Z</time></trkpt><trkpt lat="40.45142" lon="15.1426683"><ele>115.5</ele><time>2026-05-02T16:04:45.974Z</time></trkpt><trkpt lat="40.4513633" lon="15.1428083"><ele>116.75</ele><time>2026-05-02T16:04:46.974Z</time></trkpt><trkpt lat="40.4513133" lon="15.1429483"><ele>118.0</ele><time>2026-05-02T16:04:47.974Z</time></trkpt><trkpt lat="40.45126" lon="15.14309"><ele>118.5</ele><time>2026-05-02T16:04:48.974Z</time></trkpt><trkpt lat="40.451215" lon="15.143245"><ele>119.0</ele><time>2026-05-02T16:04:49.974Z</time></trkpt><trkpt lat="40.4511883" lon="15.1434117"><ele>119.5</ele><time>2026-05-02T16:04:50.974Z</time></trkpt><trkpt lat="40.4511667" lon="15.1435667"><ele>120.0</ele><time>2026-05-02T16:04:51.974Z</time></trkpt><trkpt lat="40.451145" lon="15.1437333"><ele>120.0</ele><time>2026-05-02T16:04:52.974Z</time></trkpt><trkpt lat="40.4511267" lon="15.1438967"><ele>120.0</ele><time>2026-05-02T16:04:53.975Z</time></trkpt><trkpt lat="40.4511117" lon="15.14406"><ele>120.0</ele><time>2026-05-02T16:04:54.974Z</time></trkpt><trkpt lat="40.4510867" lon="15.1442217"><ele>120.0</ele><time>2026-05-02T16:04:55.975Z</time></trkpt><trkpt lat="40.4510667" lon="15.1443833"><ele>120.0</ele><time>2026-05-02T16:04:56.974Z</time></trkpt><trkpt lat="40.4510517" lon="15.144545"><ele>120.0</ele><time>2026-05-02T16:04:57.974Z</time></trkpt><trkpt lat="40.451045" lon="15.144715"><ele>120.0</ele><time>2026-05-02T16:04:58.975Z</time></trkpt><trkpt lat="40.451035" lon="15.1448883"><ele>120.0</ele><time>2026-05-02T16:04:59.975Z</time></trkpt><trkpt lat="40.45102" lon="15.1450617"><ele>121.25</ele><time>2026-05-02T16:05:00.974Z</time></trkpt><trkpt lat="40.4510017" lon="15.1452217"><ele>122.5</ele><time>2026-05-02T16:05:01.975Z</time></trkpt><trkpt lat="40.4509767" lon="15.1453817"><ele>123.75</ele><time>2026-05-02T16:05:02.974Z</time></trkpt><trkpt lat="40.45095" lon="15.1455333"><ele>125.0</ele><time>2026-05-02T16:05:03.975Z</time></trkpt><trkpt lat="40.4509217" lon="15.145685"><ele>125.75</ele><time>2026-05-02T16:05:04.974Z</time></trkpt><trkpt lat="40.4509167" lon="15.145845"><ele>126.5</ele><time>2026-05-02T16:05:05.974Z</time></trkpt><trkpt lat="40.4509183" lon="15.1460067"><ele>127.25</ele><time>2026-05-02T16:05:06.974Z</time></trkpt><trkpt lat="40.45094" lon="15.14617"><ele>128.0</ele><time>2026-05-02T16:05:07.974Z</time></trkpt><trkpt lat="40.450975" lon="15.1463283"><ele>128.0</ele><time>2026-05-02T16:05:08.975Z</time></trkpt><trkpt lat="40.4510233" lon="15.1464817"><ele>128.0</ele><time>2026-05-02T16:05:09.975Z</time></trkpt><trkpt lat="40.4510767" lon="15.1466317"><ele>128.0</ele><time>2026-05-02T16:05:10.974Z</time></trkpt><trkpt lat="40.4511217" lon="15.1467817"><ele>128.0</ele><time>2026-05-02T16:05:11.974Z</time></trkpt><trkpt lat="40.4511667" lon="15.1469367"><ele>128.5</ele><time>2026-05-02T16:05:12.974Z</time></trkpt><trkpt lat="40.451215" lon="15.14708"><ele>129.0</ele><time>2026-05-02T16:05:13.974Z</time></trkpt><trkpt lat="40.4512617" lon="15.1472233"><ele>129.5</ele><time>2026-05-02T16:05:14.974Z</time></trkpt><trkpt lat="40.451305" lon="15.1473633"><ele>130.0</ele><time>2026-05-02T16:05:15.974Z</time></trkpt><trkpt lat="40.4513433" lon="15.1474983"><ele>131.8</ele><time>2026-05-02T16:05:16.974Z</time></trkpt><trkpt lat="40.4513833" lon="15.1476417"><ele>133.6</ele><time>2026-05-02T16:05:17.974Z</time></trkpt><trkpt lat="40.4514217" lon="15.1477717"><ele>135.4</ele><time>2026-05-02T16:05:18.974Z</time></trkpt><trkpt lat="40.4514483" lon="15.1479017"><ele>137.2</ele><time>2026-05-02T16:05:19.975Z</time></trkpt><trkpt lat="40.45147" lon="15.1480483"><ele>139.0</ele><time>2026-05-02T16:05:20.974Z</time></trkpt><trkpt lat="40.451485" lon="15.1481933"><ele>139.25</ele><time>2026-05-02T16:05:21.975Z</time></trkpt><trkpt lat="40.4514983" lon="15.1483433"><ele>139.5</ele><time>2026-05-02T16:05:22.975Z</time></trkpt><trkpt lat="40.4515083" lon="15.1484933"><ele>139.75</ele><time>2026-05-02T16:05:23.974Z</time></trkpt><trkpt lat="40.45152" lon="15.1486483"><ele>140.0</ele><time>2026-05-02T16:05:24.975Z</time></trkpt><trkpt lat="40.4515217" lon="15.1487967"><ele>140.0</ele><time>2026-05-02T16:05:25.974Z</time></trkpt><trkpt lat="40.45152" lon="15.1489417"><ele>140.0</ele><time>2026-05-02T16:05:26.974Z</time></trkpt><trkpt lat="40.4515233" lon="15.1490967"><ele>140.0</ele><time>2026-05-02T16:05:27.975Z</time></trkpt><trkpt lat="40.4515317" lon="15.14925"><ele>140.0</ele><time>2026-05-02T16:05:28.975Z</time></trkpt><trkpt lat="40.4515417" lon="15.149415"><ele>141.0</ele><time>2026-05-02T16:05:29.974Z</time></trkpt><trkpt lat="40.4515567" lon="15.1495883"><ele>142.0</ele><time>2026-05-02T16:05:30.974Z</time></trkpt><trkpt lat="40.4515667" lon="15.1497633"><ele>143.0</ele><time>2026-05-02T16:05:31.974Z</time></trkpt><trkpt lat="40.4515617" lon="15.1499383"><ele>144.0</ele><time>2026-05-02T16:05:32.974Z</time></trkpt><trkpt lat="40.451535" lon="15.1501167"><ele>144.0</ele><time>2026-05-02T16:05:33.974Z</time></trkpt><trkpt lat="40.4514983" lon="15.1502783"><ele>144.0</ele><time>2026-05-02T16:05:34.974Z</time></trkpt><trkpt lat="40.4514383" lon="15.1504167"><ele>144.0</ele><time>2026-05-02T16:05:35.975Z</time></trkpt><trkpt lat="40.4513683" lon="15.1505183"><ele>144.0</ele><time>2026-05-02T16:05:36.974Z</time></trkpt><trkpt lat="40.4512817" lon="15.1505783"><ele>143.4</ele><time>2026-05-02T16:05:37.975Z</time></trkpt><trkpt lat="40.451175" lon="15.15057"><ele>142.8</ele><time>2026-05-02T16:05:38.974Z</time></trkpt><trkpt lat="40.4510617" lon="15.1505333"><ele>142.2</ele><time>2026-05-02T16:05:39.975Z</time></trkpt><trkpt lat="40.45097" lon="15.1504867"><ele>141.6</ele><time>2026-05-02T16:05:40.975Z</time></trkpt><trkpt lat="40.4508767" lon="15.1504417"><ele>141.0</ele><time>2026-05-02T16:05:41.975Z</time></trkpt><trkpt lat="40.4507883" lon="15.1503967"><ele>141.0</ele><time>2026-05-02T16:05:42.975Z</time></trkpt><trkpt lat="40.4507033" lon="15.1503483"><ele>141.0</ele><time>2026-05-02T16:05:43.975Z</time></trkpt><trkpt lat="40.4506117" lon="15.1502967"><ele>141.0</ele><time>2026-05-02T16:05:44.974Z</time></trkpt><trkpt lat="40.450515" lon="15.15026"><ele>141.0</ele><time>2026-05-02T16:05:45.975Z</time></trkpt><trkpt lat="40.45042" lon="15.15021"><ele>141.0</ele><time>2026-05-02T16:05:46.974Z</time></trkpt><trkpt lat="40.45033" lon="15.1501567"><ele>142.0</ele><time>2026-05-02T16:05:47.975Z</time></trkpt><trkpt lat="40.4502517" lon="15.1501317"><ele>143.0</ele><time>2026-05-02T16:05:48.974Z</time></trkpt><trkpt lat="40.4501583" lon="15.1501233"><ele>144.0</ele><time>2026-05-02T16:05:49.974Z</time></trkpt><trkpt lat="40.4500683" lon="15.1501433"><ele>145.0</ele><time>2026-05-02T16:05:50.974Z</time></trkpt><trkpt lat="40.4499783" lon="15.1501883"><ele>146.0</ele><time>2026-05-02T16:05:51.975Z</time></trkpt><trkpt lat="40.4499" lon="15.150245"><ele>146.0</ele><time>2026-05-02T16:05:52.975Z</time></trkpt><trkpt lat="40.44984" lon="15.1503217"><ele>146.0</ele><time>2026-05-02T16:05:53.975Z</time></trkpt><trkpt lat="40.4497867" lon="15.1504083"><ele>146.0</ele><time>2026-05-02T16:05:54.974Z</time></trkpt><trkpt lat="40.4497667" lon="15.150505"><ele>146.0</ele><time>2026-05-02T16:05:55.975Z</time></trkpt><trkpt lat="40.4497683" lon="15.1506133"><ele>146.0</ele><time>2026-05-02T16:05:56.974Z</time></trkpt><trkpt lat="40.4498" lon="15.1507133"><ele>146.0</ele><time>2026-05-02T16:05:57.974Z</time></trkpt><trkpt lat="40.4498533" lon="15.15081"><ele>147.16666666666666</ele><time>2026-05-02T16:05:58.975Z</time></trkpt><trkpt lat="40.4499117" lon="15.1509033"><ele>148.33333333333331</ele><time>2026-05-02T16:05:59.975Z</time></trkpt><trkpt lat="40.4499633" lon="15.15099"><ele>149.5</ele><time>2026-05-02T16:06:00.974Z</time></trkpt><trkpt lat="40.4500083" lon="15.1510733"><ele>150.66666666666666</ele><time>2026-05-02T16:06:01.974Z</time></trkpt><trkpt lat="40.450055" lon="15.15116"><ele>151.83333333333334</ele><time>2026-05-02T16:06:02.974Z</time></trkpt><trkpt lat="40.4501017" lon="15.1512383"><ele>153.0</ele><time>2026-05-02T16:06:03.974Z</time></trkpt><trkpt lat="40.4501383" lon="15.1513283"><ele>153.0</ele><time>2026-05-02T16:06:04.975Z</time></trkpt><trkpt lat="40.4501767" lon="15.1514167"><ele>153.0</ele><time>2026-05-02T16:06:05.975Z</time></trkpt><trkpt lat="40.450215" lon="15.1515"><ele>153.0</ele><time>2026-05-02T16:06:06.974Z</time></trkpt><trkpt lat="40.4502517" lon="15.15159"><ele>153.0</ele><time>2026-05-02T16:06:07.974Z</time></trkpt><trkpt lat="40.4502833" lon="15.1516867"><ele>153.0</ele><time>2026-05-02T16:06:08.974Z</time></trkpt><trkpt lat="40.4503217" lon="15.1517767"><ele>153.0</ele><time>2026-05-02T16:06:09.975Z</time></trkpt><trkpt lat="40.450355" lon="15.151865"><ele>153.0</ele><time>2026-05-02T16:06:10.975Z</time></trkpt><trkpt lat="40.450395" lon="15.1519517"><ele>153.0</ele><time>2026-05-02T16:06:11.974Z</time></trkpt><trkpt lat="40.4504267" lon="15.15204"><ele>153.0</ele><time>2026-05-02T16:06:12.974Z</time></trkpt><trkpt lat="40.4504617" lon="15.1521317"><ele>153.0</ele><time>2026-05-02T16:06:13.974Z</time></trkpt><trkpt lat="40.4504883" lon="15.152215"><ele>153.0</ele><time>2026-05-02T16:06:14.974Z</time></trkpt><trkpt lat="40.4504783" lon="15.152355"><ele>153.0</ele><time>2026-05-02T16:06:16.974Z</time></trkpt><trkpt lat="40.4504" lon="15.1523633"><ele>154.33333333333334</ele><time>2026-05-02T16:06:18.975Z</time></trkpt><trkpt lat="40.4503367" lon="15.15231"><ele>155.66666666666666</ele><time>2026-05-02T16:06:19.974Z</time></trkpt><trkpt lat="40.450265" lon="15.1522533"><ele>157.0</ele><time>2026-05-02T16:06:20.974Z</time></trkpt><trkpt lat="40.4501817" lon="15.1522017"><ele>158.33333333333331</ele><time>2026-05-02T16:06:21.975Z</time></trkpt><trkpt lat="40.4501" lon="15.15216"><ele>159.66666666666666</ele><time>2026-05-02T16:06:22.974Z</time></trkpt><trkpt lat="40.4500183" lon="15.15214"><ele>161.0</ele><time>2026-05-02T16:06:23.974Z</time></trkpt><trkpt lat="40.449945" lon="15.152155"><ele>161.0</ele><time>2026-05-02T16:06:24.974Z</time></trkpt><trkpt lat="40.44986" lon="15.1522633"><ele>161.0</ele><time>2026-05-02T16:06:26.974Z</time></trkpt><trkpt lat="40.4498667" lon="15.1523483"><ele>161.0</ele><time>2026-05-02T16:06:27.974Z</time></trkpt><trkpt lat="40.4499017" lon="15.1524367"><ele>161.0</ele><time>2026-05-02T16:06:28.975Z</time></trkpt><trkpt lat="40.4499667" lon="15.1525183"><ele>161.0</ele><time>2026-05-02T16:06:29.974Z</time></trkpt><trkpt lat="40.450035" lon="15.1526067"><ele>161.0</ele><time>2026-05-02T16:06:30.974Z</time></trkpt><trkpt lat="40.450105" lon="15.1527067"><ele>162.20000000000002</ele><time>2026-05-02T16:06:31.975Z</time></trkpt><trkpt lat="40.4501667" lon="15.1528233"><ele>163.4</ele><time>2026-05-02T16:06:32.974Z</time></trkpt><trkpt lat="40.4502233" lon="15.152955"><ele>164.6</ele><time>2026-05-02T16:06:33.975Z</time></trkpt><trkpt lat="40.4502617" lon="15.1530883"><ele>165.8</ele><time>2026-05-02T16:06:34.974Z</time></trkpt><trkpt lat="40.450285" lon="15.1532167"><ele>167.0</ele><time>2026-05-02T16:06:35.974Z</time></trkpt><trkpt lat="40.4503017" lon="15.1533233"><ele>168.16666666666666</ele><time>2026-05-02T16:06:36.975Z</time></trkpt><trkpt lat="40.45031" lon="15.1534083"><ele>169.33333333333331</ele><time>2026-05-02T16:06:37.975Z</time></trkpt><trkpt lat="40.45028" lon="15.1535217"><ele>170.5</ele><time>2026-05-02T16:06:39.975Z</time></trkpt><trkpt lat="40.450205" lon="15.1535233"><ele>171.66666666666666</ele><time>2026-05-02T16:06:41.975Z</time></trkpt><trkpt lat="40.45012" lon="15.1534167"><ele>172.83333333333334</ele><time>2026-05-02T16:06:43.974Z</time></trkpt><trkpt lat="40.4500817" lon="15.1533433"><ele>174.0</ele><time>2026-05-02T16:06:44.974Z</time></trkpt><trkpt lat="40.4500217" lon="15.1532833"><ele>174.0</ele><time>2026-05-02T16:06:45.974Z</time></trkpt><trkpt lat="40.4499483" lon="15.1532333"><ele>174.0</ele><time>2026-05-02T16:06:46.975Z</time></trkpt><trkpt lat="40.44987" lon="15.1532083"><ele>174.0</ele><time>2026-05-02T16:06:47.974Z</time></trkpt><trkpt lat="40.4497883" lon="15.1532067"><ele>174.0</ele><time>2026-05-02T16:06:48.974Z</time></trkpt><trkpt lat="40.4497067" lon="15.1532117"><ele>174.0</ele><time>2026-05-02T16:06:49.974Z</time></trkpt><trkpt lat="40.4496283" lon="15.1532167"><ele>174.0</ele><time>2026-05-02T16:06:50.974Z</time></trkpt><trkpt lat="40.4495517" lon="15.15323"><ele>174.85714285714286</ele><time>2026-05-02T16:06:51.975Z</time></trkpt><trkpt lat="40.449465" lon="15.153255"><ele>175.71428571428572</ele><time>2026-05-02T16:06:52.975Z</time></trkpt><trkpt lat="40.4493967" lon="15.1533"><ele>176.57142857142856</ele><time>2026-05-02T16:06:53.974Z</time></trkpt><trkpt lat="40.449345" lon="15.153365"><ele>177.42857142857144</ele><time>2026-05-02T16:06:54.975Z</time></trkpt><trkpt lat="40.4493317" lon="15.1534483"><ele>178.2857142857143</ele><time>2026-05-02T16:06:55.974Z</time></trkpt><trkpt lat="40.4493533" lon="15.15353"><ele>179.14285714285714</ele><time>2026-05-02T16:06:56.974Z</time></trkpt><trkpt lat="40.4494083" lon="15.153605"><ele>180.0</ele><time>2026-05-02T16:06:57.974Z</time></trkpt><trkpt lat="40.44948" lon="15.1536867"><ele>180.0</ele><time>2026-05-02T16:06:58.974Z</time></trkpt><trkpt lat="40.44956" lon="15.1537883"><ele>180.0</ele><time>2026-05-02T16:06:59.975Z</time></trkpt><trkpt lat="40.44963" lon="15.1539033"><ele>180.0</ele><time>2026-05-02T16:07:00.974Z</time></trkpt><trkpt lat="40.4496867" lon="15.154035"><ele>180.0</ele><time>2026-05-02T16:07:01.975Z</time></trkpt><trkpt lat="40.449725" lon="15.15419"><ele>179.25</ele><time>2026-05-02T16:07:02.974Z</time></trkpt><trkpt lat="40.449745" lon="15.1543567"><ele>178.5</ele><time>2026-05-02T16:07:03.974Z</time></trkpt><trkpt lat="40.4497483" lon="15.15453"><ele>177.75</ele><time>2026-05-02T16:07:04.975Z</time></trkpt><trkpt lat="40.4497317" lon="15.154685"><ele>177.0</ele><time>2026-05-02T16:07:05.975Z</time></trkpt><trkpt lat="40.4497083" lon="15.1548367"><ele>177.6</ele><time>2026-05-02T16:07:06.975Z</time></trkpt><trkpt lat="40.4496783" lon="15.15498"><ele>178.2</ele><time>2026-05-02T16:07:07.974Z</time></trkpt><trkpt lat="40.4496533" lon="15.1551167"><ele>178.8</ele><time>2026-05-02T16:07:08.974Z</time></trkpt><trkpt lat="40.44963" lon="15.15524"><ele>179.4</ele><time>2026-05-02T16:07:09.975Z</time></trkpt><trkpt lat="40.44961" lon="15.155345"><ele>180.0</ele><time>2026-05-02T16:07:10.974Z</time></trkpt><trkpt lat="40.4495733" lon="15.15542"><ele>182.0</ele><time>2026-05-02T16:07:11.975Z</time></trkpt><trkpt lat="40.4494633" lon="15.155475"><ele>184.0</ele><time>2026-05-02T16:07:13.974Z</time></trkpt><trkpt lat="40.4494033" lon="15.1554417"><ele>186.0</ele><time>2026-05-02T16:07:14.975Z</time></trkpt><trkpt lat="40.4493367" lon="15.1553767"><ele>188.0</ele><time>2026-05-02T16:07:15.975Z</time></trkpt><trkpt lat="40.4492767" lon="15.1552817"><ele>190.0</ele><time>2026-05-02T16:07:16.974Z</time></trkpt><trkpt lat="40.4492167" lon="15.1551817"><ele>190.0</ele><time>2026-05-02T16:07:17.975Z</time></trkpt><trkpt lat="40.4491533" lon="15.1550767"><ele>190.0</ele><time>2026-05-02T16:07:18.974Z</time></trkpt><trkpt lat="40.449085" lon="15.15498"><ele>190.0</ele><time>2026-05-02T16:07:19.974Z</time></trkpt><trkpt lat="40.4490267" lon="15.1548833"><ele>190.0</ele><time>2026-05-02T16:07:20.974Z</time></trkpt><trkpt lat="40.4489617" lon="15.1547883"><ele>190.0</ele><time>2026-05-02T16:07:21.975Z</time></trkpt><trkpt lat="40.4488833" lon="15.154695"><ele>189.2</ele><time>2026-05-02T16:07:22.974Z</time></trkpt><trkpt lat="40.4488033" lon="15.1546067"><ele>188.4</ele><time>2026-05-02T16:07:23.975Z</time></trkpt><trkpt lat="40.4487217" lon="15.1545283"><ele>187.60000000000002</ele><time>2026-05-02T16:07:24.974Z</time></trkpt><trkpt lat="40.448635" lon="15.154455"><ele>186.8</ele><time>2026-05-02T16:07:25.975Z</time></trkpt><trkpt lat="40.4485517" lon="15.1543983"><ele>186.0</ele><time>2026-05-02T16:07:26.974Z</time></trkpt><trkpt lat="40.4484733" lon="15.1543517"><ele>187.83333333333334</ele><time>2026-05-02T16:07:27.975Z</time></trkpt><trkpt lat="40.448395" lon="15.1543167"><ele>189.66666666666669</ele><time>2026-05-02T16:07:28.974Z</time></trkpt><trkpt lat="40.4483317" lon="15.1543017"><ele>191.5</ele><time>2026-05-02T16:07:29.975Z</time></trkpt><trkpt lat="40.44824" lon="15.15435"><ele>193.33333333333334</ele><time>2026-05-02T16:07:31.974Z</time></trkpt><trkpt lat="40.4482067" lon="15.1544967"><ele>195.16666666666669</ele><time>2026-05-02T16:07:33.974Z</time></trkpt><trkpt lat="40.44823" lon="15.1545867"><ele>197.0</ele><time>2026-05-02T16:07:34.975Z</time></trkpt><trkpt lat="40.448275" lon="15.1546817"><ele>197.0</ele><time>2026-05-02T16:07:35.975Z</time></trkpt><trkpt lat="40.4483283" lon="15.154785"><ele>197.0</ele><time>2026-05-02T16:07:36.975Z</time></trkpt><trkpt lat="40.4483667" lon="15.1549067"><ele>197.0</ele><time>2026-05-02T16:07:37.974Z</time></trkpt><trkpt lat="40.4483867" lon="15.15504"><ele>197.0</ele><time>2026-05-02T16:07:38.975Z</time></trkpt><trkpt lat="40.4483867" lon="15.1551967"><ele>197.0</ele><time>2026-05-02T16:07:39.974Z</time></trkpt><trkpt lat="40.4483717" lon="15.1553417"><ele>198.5</ele><time>2026-05-02T16:07:40.974Z</time></trkpt><trkpt lat="40.4483517" lon="15.1555033"><ele>200.0</ele><time>2026-05-02T16:07:41.974Z</time></trkpt><trkpt lat="40.4483183" lon="15.1556867"><ele>201.5</ele><time>2026-05-02T16:07:42.974Z</time></trkpt><trkpt lat="40.4482783" lon="15.1558783"><ele>203.0</ele><time>2026-05-02T16:07:43.974Z</time></trkpt><trkpt lat="40.44824" lon="15.15608"><ele>204.0</ele><time>2026-05-02T16:07:44.974Z</time></trkpt><trkpt lat="40.4482" lon="15.1562867"><ele>205.0</ele><time>2026-05-02T16:07:45.975Z</time></trkpt><trkpt lat="40.448165" lon="15.1564983"><ele>206.0</ele><time>2026-05-02T16:07:46.974Z</time></trkpt><trkpt lat="40.44813" lon="15.1567183"><ele>206.33333333333334</ele><time>2026-05-02T16:07:47.974Z</time></trkpt><trkpt lat="40.4480867" lon="15.1569283"><ele>206.66666666666669</ele><time>2026-05-02T16:07:48.975Z</time></trkpt><trkpt lat="40.448045" lon="15.1571267"><ele>207.0</ele><time>2026-05-02T16:07:49.974Z</time></trkpt><trkpt lat="40.4480117" lon="15.15731"><ele>208.0</ele><time>2026-05-02T16:07:50.974Z</time></trkpt><trkpt lat="40.4479717" lon="15.1574833"><ele>209.0</ele><time>2026-05-02T16:07:51.975Z</time></trkpt><trkpt lat="40.44794" lon="15.15766"><ele>210.0</ele><time>2026-05-02T16:07:52.974Z</time></trkpt><trkpt lat="40.4479217" lon="15.1578283"><ele>211.0</ele><time>2026-05-02T16:07:53.974Z</time></trkpt><trkpt lat="40.44793" lon="15.1579817"><ele>211.0</ele><time>2026-05-02T16:07:54.974Z</time></trkpt><trkpt lat="40.4479683" lon="15.1581217"><ele>211.0</ele><time>2026-05-02T16:07:55.975Z</time></trkpt><trkpt lat="40.448025" lon="15.1582333"><ele>211.0</ele><time>2026-05-02T16:07:56.974Z</time></trkpt><trkpt lat="40.448085" lon="15.1583333"><ele>211.0</ele><time>2026-05-02T16:07:57.974Z</time></trkpt><trkpt lat="40.4481333" lon="15.15843"><ele>211.0</ele><time>2026-05-02T16:07:58.974Z</time></trkpt><trkpt lat="40.4481583" lon="15.158525"><ele>212.4</ele><time>2026-05-02T16:07:59.975Z</time></trkpt><trkpt lat="40.4481033" lon="15.15865"><ele>213.8</ele><time>2026-05-02T16:08:01.975Z</time></trkpt><trkpt lat="40.4479817" lon="15.1586117"><ele>215.20000000000002</ele><time>2026-05-02T16:08:03.974Z</time></trkpt><trkpt lat="40.4479033" lon="15.158535"><ele>216.60000000000002</ele><time>2026-05-02T16:08:04.975Z</time></trkpt><trkpt lat="40.4478133" lon="15.1584533"><ele>218.0</ele><time>2026-05-02T16:08:05.974Z</time></trkpt><trkpt lat="40.4477167" lon="15.1583833"><ele>220.0</ele><time>2026-05-02T16:08:06.974Z</time></trkpt><trkpt lat="40.4476083" lon="15.158335"><ele>222.0</ele><time>2026-05-02T16:08:07.974Z</time></trkpt><trkpt lat="40.4474967" lon="15.158315"><ele>224.0</ele><time>2026-05-02T16:08:08.974Z</time></trkpt><trkpt lat="40.4473867" lon="15.1583133"><ele>226.0</ele><time>2026-05-02T16:08:09.975Z</time></trkpt><trkpt lat="40.447275" lon="15.1583083"><ele>228.0</ele><time>2026-05-02T16:08:10.975Z</time></trkpt><trkpt lat="40.4471567" lon="15.1583117"><ele>228.60000000000002</ele><time>2026-05-02T16:08:11.974Z</time></trkpt><trkpt lat="40.4470433" lon="15.15831"><ele>229.20000000000002</ele><time>2026-05-02T16:08:12.975Z</time></trkpt><trkpt lat="40.4469367" lon="15.1583033"><ele>229.8</ele><time>2026-05-02T16:08:13.974Z</time></trkpt><trkpt lat="40.4468317" lon="15.1582933"><ele>230.4</ele><time>2026-05-02T16:08:14.974Z</time></trkpt><trkpt lat="40.4467367" lon="15.1582867"><ele>231.0</ele><time>2026-05-02T16:08:15.974Z</time></trkpt><trkpt lat="40.4466433" lon="15.1583033"><ele>231.0</ele><time>2026-05-02T16:08:16.974Z</time></trkpt><trkpt lat="40.4465717" lon="15.158345"><ele>231.0</ele><time>2026-05-02T16:08:17.974Z</time></trkpt><trkpt lat="40.446525" lon="15.1584167"><ele>231.0</ele><time>2026-05-02T16:08:18.975Z</time></trkpt><trkpt lat="40.4465083" lon="15.15851"><ele>231.0</ele><time>2026-05-02T16:08:19.975Z</time></trkpt><trkpt lat="40.4465267" lon="15.1586133"><ele>231.0</ele><time>2026-05-02T16:08:20.974Z</time></trkpt><trkpt lat="40.4466033" lon="15.1587183"><ele>231.0</ele><time>2026-05-02T16:08:21.974Z</time></trkpt><trkpt lat="40.4467033" lon="15.1588217"><ele>231.0</ele><time>2026-05-02T16:08:22.974Z</time></trkpt><trkpt lat="40.4467917" lon="15.1589217"><ele>231.0</ele><time>2026-05-02T16:08:23.975Z</time></trkpt><trkpt lat="40.4468817" lon="15.1590217"><ele>231.0</ele><time>2026-05-02T16:08:24.974Z</time></trkpt><trkpt lat="40.4469717" lon="15.1591133"><ele>231.0</ele><time>2026-05-02T16:08:25.975Z</time></trkpt><trkpt lat="40.4470533" lon="15.1592017"><ele>231.83333333333334</ele><time>2026-05-02T16:08:26.974Z</time></trkpt><trkpt lat="40.447125" lon="15.15929"><ele>232.66666666666669</ele><time>2026-05-02T16:08:27.975Z</time></trkpt><trkpt lat="40.4471817" lon="15.15938"><ele>233.5</ele><time>2026-05-02T16:08:28.975Z</time></trkpt><trkpt lat="40.4472217" lon="15.1594833"><ele>234.33333333333334</ele><time>2026-05-02T16:08:29.974Z</time></trkpt><trkpt lat="40.4472333" lon="15.1595933"><ele>235.16666666666669</ele><time>2026-05-02T16:08:30.975Z</time></trkpt><trkpt lat="40.447215" lon="15.1596967"><ele>236.0</ele><time>2026-05-02T16:08:31.974Z</time></trkpt><trkpt lat="40.4471667" lon="15.1597917"><ele>238.0</ele><time>2026-05-02T16:08:32.974Z</time></trkpt><trkpt lat="40.447095" lon="15.1598833"><ele>240.0</ele><time>2026-05-02T16:08:33.975Z</time></trkpt><trkpt lat="40.4469983" lon="15.1599917"><ele>242.0</ele><time>2026-05-02T16:08:34.974Z</time></trkpt><trkpt lat="40.4469033" lon="15.1601083"><ele>244.0</ele><time>2026-05-02T16:08:35.974Z</time></trkpt><trkpt lat="40.4468067" lon="15.1602217"><ele>244.0</ele><time>2026-05-02T16:08:36.974Z</time></trkpt><trkpt lat="40.446715" lon="15.160345"><ele>244.0</ele><time>2026-05-02T16:08:37.975Z</time></trkpt><trkpt lat="40.4466217" lon="15.1604667"><ele>244.0</ele><time>2026-05-02T16:08:38.974Z</time></trkpt><trkpt lat="40.4465283" lon="15.160585"><ele>244.0</ele><time>2026-05-02T16:08:39.974Z</time></trkpt><trkpt lat="40.4464433" lon="15.1607033"><ele>245.75</ele><time>2026-05-02T16:08:40.974Z</time></trkpt><trkpt lat="40.44635" lon="15.1608133"><ele>247.5</ele><time>2026-05-02T16:08:41.975Z</time></trkpt><trkpt lat="40.446255" lon="15.1609133"><ele>249.25</ele><time>2026-05-02T16:08:42.975Z</time></trkpt><trkpt lat="40.446155" lon="15.16101"><ele>251.0</ele><time>2026-05-02T16:08:43.974Z</time></trkpt><trkpt lat="40.4460483" lon="15.1611"><ele>251.0</ele><time>2026-05-02T16:08:44.974Z</time></trkpt><trkpt lat="40.4459333" lon="15.161165"><ele>251.0</ele><time>2026-05-02T16:08:45.975Z</time></trkpt><trkpt lat="40.44581" lon="15.16123"><ele>251.0</ele><time>2026-05-02T16:08:46.974Z</time></trkpt><trkpt lat="40.44568" lon="15.1613"><ele>251.0</ele><time>2026-05-02T16:08:47.975Z</time></trkpt><trkpt lat="40.44554" lon="15.1613883"><ele>251.75</ele><time>2026-05-02T16:08:48.974Z</time></trkpt><trkpt lat="40.4453983" lon="15.1614717"><ele>252.5</ele><time>2026-05-02T16:08:49.974Z</time></trkpt><trkpt lat="40.4452683" lon="15.1615533"><ele>253.25</ele><time>2026-05-02T16:08:50.974Z</time></trkpt><trkpt lat="40.445135" lon="15.1616317"><ele>254.0</ele><time>2026-05-02T16:08:51.974Z</time></trkpt><trkpt lat="40.4450067" lon="15.1617117"><ele>255.75</ele><time>2026-05-02T16:08:52.975Z</time></trkpt><trkpt lat="40.44488" lon="15.16179"><ele>257.5</ele><time>2026-05-02T16:08:53.974Z</time></trkpt><trkpt lat="40.444755" lon="15.1618667"><ele>259.25</ele><time>2026-05-02T16:08:54.974Z</time></trkpt><trkpt lat="40.4446267" lon="15.1619333"><ele>261.0</ele><time>2026-05-02T16:08:55.974Z</time></trkpt><trkpt lat="40.4445033" lon="15.162"><ele>262.25</ele><time>2026-05-02T16:08:56.975Z</time></trkpt><trkpt lat="40.4443867" lon="15.1620833"><ele>263.5</ele><time>2026-05-02T16:08:57.974Z</time></trkpt><trkpt lat="40.44427" lon="15.1621633"><ele>264.75</ele><time>2026-05-02T16:08:58.975Z</time></trkpt><trkpt lat="40.4441667" lon="15.162235"><ele>266.0</ele><time>2026-05-02T16:08:59.975Z</time></trkpt><trkpt lat="40.44407" lon="15.162295"><ele>266.0</ele><time>2026-05-02T16:09:00.974Z</time></trkpt><trkpt lat="40.4439833" lon="15.162355"><ele>266.0</ele><time>2026-05-02T16:09:01.975Z</time></trkpt><trkpt lat="40.4439033" lon="15.1623983"><ele>266.0</ele><time>2026-05-02T16:09:02.974Z</time></trkpt><trkpt lat="40.443825" lon="15.1624167"><ele>266.0</ele><time>2026-05-02T16:09:03.974Z</time></trkpt><trkpt lat="40.443765" lon="15.162445"><ele>266.0</ele><time>2026-05-02T16:09:04.974Z</time></trkpt><trkpt lat="40.443655" lon="15.1624517"><ele>266.0</ele><time>2026-05-02T16:09:06.974Z</time></trkpt><trkpt lat="40.4435167" lon="15.16239"><ele>268.0</ele><time>2026-05-02T16:09:08.974Z</time></trkpt><trkpt lat="40.4434067" lon="15.1623167"><ele>270.0</ele><time>2026-05-02T16:09:09.974Z</time></trkpt><trkpt lat="40.4432767" lon="15.16221"><ele>272.0</ele><time>2026-05-02T16:09:10.974Z</time></trkpt><trkpt lat="40.4431717" lon="15.1620967"><ele>274.0</ele><time>2026-05-02T16:09:11.974Z</time></trkpt><trkpt lat="40.443105" lon="15.1619633"><ele>274.0</ele><time>2026-05-02T16:09:12.975Z</time></trkpt><trkpt lat="40.44304" lon="15.1618267"><ele>274.0</ele><time>2026-05-02T16:09:13.974Z</time></trkpt><trkpt lat="40.4429683" lon="15.1616983"><ele>274.0</ele><time>2026-05-02T16:09:14.975Z</time></trkpt><trkpt lat="40.442885" lon="15.1615883"><ele>274.0</ele><time>2026-05-02T16:09:15.975Z</time></trkpt><trkpt lat="40.4427967" lon="15.161495"><ele>274.25</ele><time>2026-05-02T16:09:16.974Z</time></trkpt><trkpt lat="40.4427033" lon="15.1614183"><ele>274.5</ele><time>2026-05-02T16:09:17.974Z</time></trkpt><trkpt lat="40.4425933" lon="15.1613567"><ele>274.75</ele><time>2026-05-02T16:09:18.974Z</time></trkpt><trkpt lat="40.4424767" lon="15.1612967"><ele>275.0</ele><time>2026-05-02T16:09:19.974Z</time></trkpt><trkpt lat="40.44235" lon="15.1612467"><ele>275.0</ele><time>2026-05-02T16:09:20.975Z</time></trkpt><trkpt lat="40.442235" lon="15.1611867"><ele>275.0</ele><time>2026-05-02T16:09:21.975Z</time></trkpt><trkpt lat="40.4421117" lon="15.1611267"><ele>275.0</ele><time>2026-05-02T16:09:22.974Z</time></trkpt><trkpt lat="40.4419917" lon="15.16107"><ele>275.0</ele><time>2026-05-02T16:09:23.974Z</time></trkpt><trkpt lat="40.44186" lon="15.1610533"><ele>275.5</ele><time>2026-05-02T16:09:24.974Z</time></trkpt><trkpt lat="40.4417317" lon="15.161065"><ele>276.0</ele><time>2026-05-02T16:09:25.975Z</time></trkpt><trkpt lat="40.4415933" lon="15.1610967"><ele>276.5</ele><time>2026-05-02T16:09:26.974Z</time></trkpt><trkpt lat="40.44145" lon="15.1611467"><ele>277.0</ele><time>2026-05-02T16:09:27.974Z</time></trkpt><trkpt lat="40.44131" lon="15.1612067"><ele>277.75</ele><time>2026-05-02T16:09:28.974Z</time></trkpt><trkpt lat="40.4411817" lon="15.1612733"><ele>278.5</ele><time>2026-05-02T16:09:29.974Z</time></trkpt><trkpt lat="40.4410517" lon="15.1613483"><ele>279.25</ele><time>2026-05-02T16:09:30.974Z</time></trkpt><trkpt lat="40.4409367" lon="15.1614467"><ele>280.0</ele><time>2026-05-02T16:09:31.974Z</time></trkpt><trkpt lat="40.4408333" lon="15.1615917"><ele>277.0</ele><time>2026-05-02T16:09:32.975Z</time></trkpt><trkpt lat="40.44073" lon="15.1617533"><ele>274.0</ele><time>2026-05-02T16:09:33.974Z</time></trkpt><trkpt lat="40.4406183" lon="15.16193"><ele>271.0</ele><time>2026-05-02T16:09:34.975Z</time></trkpt><trkpt lat="40.4405" lon="15.1620967"><ele>273.66666666666663</ele><time>2026-05-02T16:09:35.974Z</time></trkpt><trkpt lat="40.4403867" lon="15.16225"><ele>276.3333333333333</ele><time>2026-05-02T16:09:36.974Z</time></trkpt><trkpt lat="40.44028" lon="15.1624017"><ele>279.0</ele><time>2026-05-02T16:09:37.974Z</time></trkpt><trkpt lat="40.4401817" lon="15.1625533"><ele>279.0</ele><time>2026-05-02T16:09:38.975Z</time></trkpt><trkpt lat="40.440075" lon="15.1626933"><ele>279.0</ele><time>2026-05-02T16:09:39.974Z</time></trkpt><trkpt lat="40.4399717" lon="15.1628383"><ele>279.0</ele><time>2026-05-02T16:09:40.974Z</time></trkpt><trkpt lat="40.4398733" lon="15.1629667"><ele>279.0</ele><time>2026-05-02T16:09:41.974Z</time></trkpt><trkpt lat="40.4397867" lon="15.1630933"><ele>280.5</ele><time>2026-05-02T16:09:42.974Z</time></trkpt><trkpt lat="40.4396933" lon="15.1632233"><ele>282.0</ele><time>2026-05-02T16:09:43.974Z</time></trkpt><trkpt lat="40.4396067" lon="15.1633333"><ele>283.5</ele><time>2026-05-02T16:09:44.975Z</time></trkpt><trkpt lat="40.4395067" lon="15.1634233"><ele>285.0</ele><time>2026-05-02T16:09:45.974Z</time></trkpt><trkpt lat="40.4394033" lon="15.1635067"><ele>285.0</ele><time>2026-05-02T16:09:46.975Z</time></trkpt><trkpt lat="40.439285" lon="15.1635683"><ele>285.0</ele><time>2026-05-02T16:09:47.974Z</time></trkpt><trkpt lat="40.4391583" lon="15.16361"><ele>285.0</ele><time>2026-05-02T16:09:48.974Z</time></trkpt><trkpt lat="40.43903" lon="15.163625"><ele>285.0</ele><time>2026-05-02T16:09:49.974Z</time></trkpt><trkpt lat="40.4389017" lon="15.163615"><ele>287.5</ele><time>2026-05-02T16:09:50.974Z</time></trkpt><trkpt lat="40.438785" lon="15.163605"><ele>290.0</ele><time>2026-05-02T16:09:51.974Z</time></trkpt><trkpt lat="40.4386533" lon="15.1635967"><ele>292.5</ele><time>2026-05-02T16:09:52.974Z</time></trkpt><trkpt lat="40.4385333" lon="15.1636067"><ele>295.0</ele><time>2026-05-02T16:09:53.974Z</time></trkpt><trkpt lat="40.4384167" lon="15.16363"><ele>295.0</ele><time>2026-05-02T16:09:54.974Z</time></trkpt><trkpt lat="40.4382983" lon="15.1636783"><ele>295.0</ele><time>2026-05-02T16:09:55.975Z</time></trkpt><trkpt lat="40.4381883" lon="15.1637283"><ele>295.0</ele><time>2026-05-02T16:09:56.975Z</time></trkpt><trkpt lat="40.438075" lon="15.1637967"><ele>295.0</ele><time>2026-05-02T16:09:57.974Z</time></trkpt><trkpt lat="40.4379733" lon="15.1638833"><ele>294.75</ele><time>2026-05-02T16:09:58.974Z</time></trkpt><trkpt lat="40.4378783" lon="15.1639817"><ele>294.5</ele><time>2026-05-02T16:09:59.974Z</time></trkpt><trkpt lat="40.4377933" lon="15.1641217"><ele>294.25</ele><time>2026-05-02T16:10:00.975Z</time></trkpt><trkpt lat="40.4377183" lon="15.1642667"><ele>294.0</ele><time>2026-05-02T16:10:01.974Z</time></trkpt><trkpt lat="40.4376383" lon="15.1644183"><ele>294.0</ele><time>2026-05-02T16:10:02.974Z</time></trkpt><trkpt lat="40.4375567" lon="15.1645633"><ele>294.0</ele><time>2026-05-02T16:10:03.975Z</time></trkpt><trkpt lat="40.4374733" lon="15.1647083"><ele>294.0</ele><time>2026-05-02T16:10:04.975Z</time></trkpt><trkpt lat="40.4373883" lon="15.1648467"><ele>294.0</ele><time>2026-05-02T16:10:05.974Z</time></trkpt><trkpt lat="40.4373017" lon="15.1649933"><ele>292.5</ele><time>2026-05-02T16:10:06.975Z</time></trkpt><trkpt lat="40.437235" lon="15.1651433"><ele>291.0</ele><time>2026-05-02T16:10:07.974Z</time></trkpt><trkpt lat="40.437205" lon="15.1653"><ele>289.5</ele><time>2026-05-02T16:10:08.975Z</time></trkpt><trkpt lat="40.4372067" lon="15.16547"><ele>288.0</ele><time>2026-05-02T16:10:09.974Z</time></trkpt><trkpt lat="40.4372233" lon="15.1656567"><ele>288.0</ele><time>2026-05-02T16:10:10.974Z</time></trkpt><trkpt lat="40.4372483" lon="15.1658433"><ele>288.0</ele><time>2026-05-02T16:10:11.975Z</time></trkpt><trkpt lat="40.4372667" lon="15.16603"><ele>288.0</ele><time>2026-05-02T16:10:12.974Z</time></trkpt><trkpt lat="40.43728" lon="15.166215"><ele>288.0</ele><time>2026-05-02T16:10:13.975Z</time></trkpt><trkpt lat="40.4372983" lon="15.1664"><ele>287.5</ele><time>2026-05-02T16:10:14.974Z</time></trkpt><trkpt lat="40.4373283" lon="15.1665833"><ele>287.0</ele><time>2026-05-02T16:10:15.974Z</time></trkpt><trkpt lat="40.43734" lon="15.1667717"><ele>286.5</ele><time>2026-05-02T16:10:16.974Z</time></trkpt><trkpt lat="40.4373383" lon="15.1669467"><ele>286.0</ele><time>2026-05-02T16:10:17.974Z</time></trkpt><trkpt lat="40.4373067" lon="15.1671283"><ele>286.0</ele><time>2026-05-02T16:10:18.974Z</time></trkpt><trkpt lat="40.4372517" lon="15.167305"><ele>286.0</ele><time>2026-05-02T16:10:19.975Z</time></trkpt><trkpt lat="40.4371733" lon="15.1674867"><ele>286.0</ele><time>2026-05-02T16:10:20.974Z</time></trkpt><trkpt lat="40.4370967" lon="15.16767"><ele>294.0</ele><time>2026-05-02T16:10:21.974Z</time></trkpt><trkpt lat="40.4370217" lon="15.1678617"><ele>302.0</ele><time>2026-05-02T16:10:22.974Z</time></trkpt><trkpt lat="40.436955" lon="15.16805"><ele>310.0</ele><time>2026-05-02T16:10:23.975Z</time></trkpt><trkpt lat="40.4369017" lon="15.1682483"><ele>310.0</ele><time>2026-05-02T16:10:24.974Z</time></trkpt><trkpt lat="40.4368483" lon="15.168445"><ele>310.0</ele><time>2026-05-02T16:10:25.974Z</time></trkpt><trkpt lat="40.4367883" lon="15.16865"><ele>310.0</ele><time>2026-05-02T16:10:26.974Z</time></trkpt><trkpt lat="40.4367317" lon="15.1688517"><ele>308.3333333333333</ele><time>2026-05-02T16:10:27.975Z</time></trkpt><trkpt lat="40.4366667" lon="15.1690583"><ele>306.6666666666667</ele><time>2026-05-02T16:10:28.975Z</time></trkpt><trkpt lat="40.4366133" lon="15.1692583"><ele>305.0</ele><time>2026-05-02T16:10:29.974Z</time></trkpt><trkpt lat="40.43658" lon="15.1694717"><ele>305.0</ele><time>2026-05-02T16:10:30.974Z</time></trkpt><trkpt lat="40.4365567" lon="15.169695"><ele>305.0</ele><time>2026-05-02T16:10:31.974Z</time></trkpt><trkpt lat="40.4365517" lon="15.16991"><ele>305.0</ele><time>2026-05-02T16:10:32.975Z</time></trkpt><trkpt lat="40.436545" lon="15.1701267"><ele>302.33333333333337</ele><time>2026-05-02T16:10:33.975Z</time></trkpt><trkpt lat="40.4365367" lon="15.170335"><ele>299.6666666666667</ele><time>2026-05-02T16:10:34.974Z</time></trkpt><trkpt lat="40.4365233" lon="15.170545"><ele>297.0</ele><time>2026-05-02T16:10:35.974Z</time></trkpt><trkpt lat="40.4365083" lon="15.1707467"><ele>297.0</ele><time>2026-05-02T16:10:36.974Z</time></trkpt><trkpt lat="40.4365017" lon="15.1709367"><ele>297.0</ele><time>2026-05-02T16:10:37.974Z</time></trkpt><trkpt lat="40.4365" lon="15.1711367"><ele>297.0</ele><time>2026-05-02T16:10:38.975Z</time></trkpt><trkpt lat="40.43649" lon="15.1713433"><ele>296.6666666666667</ele><time>2026-05-02T16:10:39.974Z</time></trkpt><trkpt lat="40.4364783" lon="15.17155"><ele>296.33333333333337</ele><time>2026-05-02T16:10:40.975Z</time></trkpt><trkpt lat="40.4364567" lon="15.171755"><ele>296.0</ele><time>2026-05-02T16:10:41.974Z</time></trkpt><trkpt lat="40.4364267" lon="15.17196"><ele>296.0</ele><time>2026-05-02T16:10:42.975Z</time></trkpt><trkpt lat="40.4363717" lon="15.1721517"><ele>296.0</ele><time>2026-05-02T16:10:43.974Z</time></trkpt><trkpt lat="40.43633" lon="15.1723483"><ele>296.0</ele><time>2026-05-02T16:10:44.974Z</time></trkpt><trkpt lat="40.436305" lon="15.1725333"><ele>301.75</ele><time>2026-05-02T16:10:45.974Z</time></trkpt><trkpt lat="40.436285" lon="15.172735"><ele>307.5</ele><time>2026-05-02T16:10:46.974Z</time></trkpt><trkpt lat="40.436275" lon="15.172925"><ele>313.25</ele><time>2026-05-02T16:10:47.974Z</time></trkpt><trkpt lat="40.4362483" lon="15.1731117"><ele>319.0</ele><time>2026-05-02T16:10:48.974Z</time></trkpt><trkpt lat="40.43619" lon="15.1732817"><ele>319.0</ele><time>2026-05-02T16:10:49.975Z</time></trkpt><trkpt lat="40.4360967" lon="15.17343"><ele>319.0</ele><time>2026-05-02T16:10:50.974Z</time></trkpt><trkpt lat="40.4359883" lon="15.1735633"><ele>319.0</ele><time>2026-05-02T16:10:51.974Z</time></trkpt><trkpt lat="40.4358867" lon="15.1737"><ele>319.0</ele><time>2026-05-02T16:10:52.974Z</time></trkpt><trkpt lat="40.43578" lon="15.1738433"><ele>319.0</ele><time>2026-05-02T16:10:53.975Z</time></trkpt><trkpt lat="40.4356833" lon="15.174"><ele>319.0</ele><time>2026-05-02T16:10:54.974Z</time></trkpt><trkpt lat="40.4355767" lon="15.1741567"><ele>319.0</ele><time>2026-05-02T16:10:55.974Z</time></trkpt><trkpt lat="40.4354833" lon="15.1743217"><ele>320.0</ele><time>2026-05-02T16:10:56.974Z</time></trkpt><trkpt lat="40.4353933" lon="15.1744917"><ele>321.0</ele><time>2026-05-02T16:10:57.975Z</time></trkpt><trkpt lat="40.4352967" lon="15.1746767"><ele>322.0</ele><time>2026-05-02T16:10:58.975Z</time></trkpt><trkpt lat="40.4351983" lon="15.1748733"><ele>322.0</ele><time>2026-05-02T16:10:59.975Z</time></trkpt><trkpt lat="40.4351167" lon="15.1750683"><ele>322.0</ele><time>2026-05-02T16:11:00.974Z</time></trkpt><trkpt lat="40.4350333" lon="15.17527"><ele>322.0</ele><time>2026-05-02T16:11:01.974Z</time></trkpt><trkpt lat="40.4349533" lon="15.1754717"><ele>322.0</ele><time>2026-05-02T16:11:02.974Z</time></trkpt><trkpt lat="40.43489" lon="15.175675"><ele>322.0</ele><time>2026-05-02T16:11:03.974Z</time></trkpt><trkpt lat="40.434835" lon="15.175865"><ele>322.0</ele><time>2026-05-02T16:11:04.974Z</time></trkpt><trkpt lat="40.4347783" lon="15.17605"><ele>319.0</ele><time>2026-05-02T16:11:05.974Z</time></trkpt><trkpt lat="40.43472" lon="15.1762267"><ele>316.0</ele><time>2026-05-02T16:11:06.974Z</time></trkpt><trkpt lat="40.43466" lon="15.1763967"><ele>313.0</ele><time>2026-05-02T16:11:07.975Z</time></trkpt><trkpt lat="40.4345967" lon="15.1765683"><ele>310.0</ele><time>2026-05-02T16:11:08.975Z</time></trkpt><trkpt lat="40.4345417" lon="15.1767517"><ele>321.3333333333333</ele><time>2026-05-02T16:11:09.974Z</time></trkpt><trkpt lat="40.4344917" lon="15.1769367"><ele>332.6666666666667</ele><time>2026-05-02T16:11:10.974Z</time></trkpt><trkpt lat="40.434455" lon="15.1771417"><ele>344.0</ele><time>2026-05-02T16:11:11.975Z</time></trkpt><trkpt lat="40.434435" lon="15.17735"><ele>342.0</ele><time>2026-05-02T16:11:12.975Z</time></trkpt><trkpt lat="40.4344317" lon="15.1775533"><ele>340.0</ele><time>2026-05-02T16:11:13.974Z</time></trkpt><trkpt lat="40.4344267" lon="15.1777667"><ele>338.0</ele><time>2026-05-02T16:11:14.975Z</time></trkpt><trkpt lat="40.434435" lon="15.1779717"><ele>339.6666666666667</ele><time>2026-05-02T16:11:15.974Z</time></trkpt><trkpt lat="40.43444" lon="15.1781867"><ele>341.3333333333333</ele><time>2026-05-02T16:11:16.974Z</time></trkpt><trkpt lat="40.4344467" lon="15.17839"><ele>343.0</ele><time>2026-05-02T16:11:17.975Z</time></trkpt><trkpt lat="40.4344717" lon="15.1785983"><ele>343.0</ele><time>2026-05-02T16:11:18.974Z</time></trkpt><trkpt lat="40.4344983" lon="15.1788067"><ele>343.0</ele><time>2026-05-02T16:11:19.975Z</time></trkpt><trkpt lat="40.4345333" lon="15.1790033"><ele>343.0</ele><time>2026-05-02T16:11:20.975Z</time></trkpt><trkpt lat="40.4345583" lon="15.1792133"><ele>344.3333333333333</ele><time>2026-05-02T16:11:21.974Z</time></trkpt><trkpt lat="40.434585" lon="15.1794183"><ele>345.6666666666667</ele><time>2026-05-02T16:11:22.974Z</time></trkpt><trkpt lat="40.4345867" lon="15.1796183"><ele>347.0</ele><time>2026-05-02T16:11:23.975Z</time></trkpt><trkpt lat="40.43459" lon="15.1798367"><ele>345.0</ele><time>2026-05-02T16:11:24.974Z</time></trkpt><trkpt lat="40.4345717" lon="15.1800567"><ele>343.0</ele><time>2026-05-02T16:11:25.974Z</time></trkpt><trkpt lat="40.4345483" lon="15.1802783"><ele>341.0</ele><time>2026-05-02T16:11:26.974Z</time></trkpt><trkpt lat="40.4345183" lon="15.1804917"><ele>340.0</ele><time>2026-05-02T16:11:27.974Z</time></trkpt><trkpt lat="40.434485" lon="15.1807067"><ele>339.0</ele><time>2026-05-02T16:11:28.974Z</time></trkpt><trkpt lat="40.434455" lon="15.1809267"><ele>338.0</ele><time>2026-05-02T16:11:29.974Z</time></trkpt><trkpt lat="40.434415" lon="15.1811367"><ele>338.0</ele><time>2026-05-02T16:11:30.975Z</time></trkpt><trkpt lat="40.4343717" lon="15.1813417"><ele>338.0</ele><time>2026-05-02T16:11:31.975Z</time></trkpt><trkpt lat="40.4343233" lon="15.18154"><ele>338.0</ele><time>2026-05-02T16:11:32.976Z</time></trkpt><trkpt lat="40.4342817" lon="15.1817383"><ele>337.0</ele><time>2026-05-02T16:11:33.975Z</time></trkpt><trkpt lat="40.43422" lon="15.1819317"><ele>336.0</ele><time>2026-05-02T16:11:34.975Z</time></trkpt><trkpt lat="40.4341583" lon="15.182125"><ele>335.0</ele><time>2026-05-02T16:11:35.975Z</time></trkpt><trkpt lat="40.4340833" lon="15.182295"><ele>333.0</ele><time>2026-05-02T16:11:36.976Z</time></trkpt><trkpt lat="40.4340033" lon="15.18246"><ele>331.0</ele><time>2026-05-02T16:11:37.975Z</time></trkpt><trkpt lat="40.4339167" lon="15.18262"><ele>329.0</ele><time>2026-05-02T16:11:38.975Z</time></trkpt><trkpt lat="40.4338367" lon="15.1827867"><ele>327.0</ele><time>2026-05-02T16:11:39.975Z</time></trkpt><trkpt lat="40.433785" lon="15.1829617"><ele>337.3333333333333</ele><time>2026-05-02T16:11:40.975Z</time></trkpt><trkpt lat="40.4337433" lon="15.1831533"><ele>347.66666666666663</ele><time>2026-05-02T16:11:41.976Z</time></trkpt><trkpt lat="40.433695" lon="15.1833567"><ele>358.0</ele><time>2026-05-02T16:11:42.975Z</time></trkpt><trkpt lat="40.4336383" lon="15.1835517"><ele>358.0</ele><time>2026-05-02T16:11:43.975Z</time></trkpt><trkpt lat="40.4335717" lon="15.1837383"><ele>358.0</ele><time>2026-05-02T16:11:44.975Z</time></trkpt><trkpt lat="40.4335033" lon="15.1839067"><ele>358.0</ele><time>2026-05-02T16:11:45.975Z</time></trkpt><trkpt lat="40.4334067" lon="15.1840383"><ele>358.0</ele><time>2026-05-02T16:11:46.976Z</time></trkpt><trkpt lat="40.4332967" lon="15.1841233"><ele>355.25</ele><time>2026-05-02T16:11:47.976Z</time></trkpt><trkpt lat="40.4331817" lon="15.184175"><ele>352.5</ele><time>2026-05-02T16:11:48.975Z</time></trkpt><trkpt lat="40.4330683" lon="15.1841983"><ele>349.75</ele><time>2026-05-02T16:11:49.976Z</time></trkpt><trkpt lat="40.4329533" lon="15.1841917"><ele>347.0</ele><time>2026-05-02T16:11:50.975Z</time></trkpt><trkpt lat="40.4328383" lon="15.184145"><ele>347.0</ele><time>2026-05-02T16:11:51.976Z</time></trkpt><trkpt lat="40.4327083" lon="15.1840933"><ele>347.0</ele><time>2026-05-02T16:11:52.976Z</time></trkpt><trkpt lat="40.4325667" lon="15.184055"><ele>347.0</ele><time>2026-05-02T16:11:53.975Z</time></trkpt><trkpt lat="40.4324233" lon="15.184045"><ele>347.0</ele><time>2026-05-02T16:11:54.975Z</time></trkpt><trkpt lat="40.4322683" lon="15.1840667"><ele>349.33333333333337</ele><time>2026-05-02T16:11:55.976Z</time></trkpt><trkpt lat="40.43211" lon="15.1841117"><ele>351.6666666666667</ele><time>2026-05-02T16:11:56.975Z</time></trkpt><trkpt lat="40.4319533" lon="15.1841717"><ele>354.0</ele><time>2026-05-02T16:11:57.975Z</time></trkpt><trkpt lat="40.4318117" lon="15.1842367"><ele>354.0</ele><time>2026-05-02T16:11:58.975Z</time></trkpt><trkpt lat="40.4316633" lon="15.1842833"><ele>354.0</ele><time>2026-05-02T16:11:59.975Z</time></trkpt><trkpt lat="40.43152" lon="15.184315"><ele>354.0</ele><time>2026-05-02T16:12:00.975Z</time></trkpt><trkpt lat="40.4313733" lon="15.1843367"><ele>354.0</ele><time>2026-05-02T16:12:01.976Z</time></trkpt><trkpt lat="40.431235" lon="15.1843433"><ele>353.0</ele><time>2026-05-02T16:12:02.975Z</time></trkpt><trkpt lat="40.4310933" lon="15.1843317"><ele>352.0</ele><time>2026-05-02T16:12:03.975Z</time></trkpt><trkpt lat="40.4309567" lon="15.1842933"><ele>351.0</ele><time>2026-05-02T16:12:04.975Z</time></trkpt><trkpt lat="40.4308283" lon="15.1842317"><ele>350.0</ele><time>2026-05-02T16:12:05.975Z</time></trkpt><trkpt lat="40.4306967" lon="15.1841617"><ele>350.0</ele><time>2026-05-02T16:12:06.975Z</time></trkpt><trkpt lat="40.4305667" lon="15.1841067"><ele>350.0</ele><time>2026-05-02T16:12:07.975Z</time></trkpt><trkpt lat="40.4304317" lon="15.1840567"><ele>350.0</ele><time>2026-05-02T16:12:08.975Z</time></trkpt><trkpt lat="40.4303033" lon="15.1840033"><ele>350.0</ele><time>2026-05-02T16:12:09.975Z</time></trkpt><trkpt lat="40.4301833" lon="15.1839633"><ele>356.83333333333337</ele><time>2026-05-02T16:12:10.975Z</time></trkpt><trkpt lat="40.430085" lon="15.1839183"><ele>363.6666666666667</ele><time>2026-05-02T16:12:11.975Z</time></trkpt><trkpt lat="40.430005" lon="15.1838833"><ele>370.5</ele><time>2026-05-02T16:12:12.975Z</time></trkpt><trkpt lat="40.4299383" lon="15.18385"><ele>377.33333333333337</ele><time>2026-05-02T16:12:13.975Z</time></trkpt><trkpt lat="40.4298783" lon="15.18382"><ele>384.1666666666667</ele><time>2026-05-02T16:12:14.975Z</time></trkpt><trkpt lat="40.4297683" lon="15.18376"><ele>391.0</ele><time>2026-05-02T16:12:16.975Z</time></trkpt><trkpt lat="40.4296633" lon="15.1837083"><ele>389.33333333333337</ele><time>2026-05-02T16:12:18.975Z</time></trkpt><trkpt lat="40.4295933" lon="15.18369"><ele>387.6666666666667</ele><time>2026-05-02T16:12:19.976Z</time></trkpt><trkpt lat="40.429525" lon="15.1836633"><ele>386.0</ele><time>2026-05-02T16:12:20.975Z</time></trkpt><trkpt lat="40.4294567" lon="15.1836317"><ele>384.33333333333337</ele><time>2026-05-02T16:12:21.976Z</time></trkpt><trkpt lat="40.42938" lon="15.1836"><ele>382.6666666666667</ele><time>2026-05-02T16:12:22.976Z</time></trkpt><trkpt lat="40.429295" lon="15.1835683"><ele>381.0</ele><time>2026-05-02T16:12:23.975Z</time></trkpt><trkpt lat="40.4291917" lon="15.1835383"><ele>381.0</ele><time>2026-05-02T16:12:24.975Z</time></trkpt><trkpt lat="40.42908" lon="15.1835183"><ele>381.0</ele><time>2026-05-02T16:12:25.975Z</time></trkpt><trkpt lat="40.42897" lon="15.1834967"><ele>381.0</ele><time>2026-05-02T16:12:26.976Z</time></trkpt><trkpt lat="40.4288583" lon="15.1834833"><ele>381.0</ele><time>2026-05-02T16:12:27.975Z</time></trkpt><trkpt lat="40.42875" lon="15.183475"><ele>381.0</ele><time>2026-05-02T16:12:28.976Z</time></trkpt><trkpt lat="40.42863" lon="15.1834567"><ele>380.0</ele><time>2026-05-02T16:12:29.976Z</time></trkpt><trkpt lat="40.4285" lon="15.1834317"><ele>379.0</ele><time>2026-05-02T16:12:30.975Z</time></trkpt><trkpt lat="40.4283683" lon="15.1833933"><ele>378.0</ele><time>2026-05-02T16:12:31.975Z</time></trkpt><trkpt lat="40.428235" lon="15.1833567"><ele>377.0</ele><time>2026-05-02T16:12:32.975Z</time></trkpt><trkpt lat="40.4280933" lon="15.1833217"><ele>377.75</ele><time>2026-05-02T16:12:33.976Z</time></trkpt><trkpt lat="40.42797" lon="15.1832833"><ele>378.5</ele><time>2026-05-02T16:12:34.975Z</time></trkpt><trkpt lat="40.4278583" lon="15.1832533"><ele>379.25</ele><time>2026-05-02T16:12:35.976Z</time></trkpt><trkpt lat="40.4277517" lon="15.18323"><ele>380.0</ele><time>2026-05-02T16:12:36.975Z</time></trkpt><trkpt lat="40.4276483" lon="15.1832283"><ele>380.0</ele><time>2026-05-02T16:12:37.976Z</time></trkpt><trkpt lat="40.4275367" lon="15.18327"><ele>380.0</ele><time>2026-05-02T16:12:38.975Z</time></trkpt><trkpt lat="40.427425" lon="15.1833433"><ele>380.0</ele><time>2026-05-02T16:12:39.976Z</time></trkpt><trkpt lat="40.4273367" lon="15.18346"><ele>380.0</ele><time>2026-05-02T16:12:40.976Z</time></trkpt><trkpt lat="40.4272633" lon="15.1835983"><ele>380.0</ele><time>2026-05-02T16:12:41.976Z</time></trkpt><trkpt lat="40.427225" lon="15.1837483"><ele>380.0</ele><time>2026-05-02T16:12:42.976Z</time></trkpt><trkpt lat="40.427195" lon="15.1839167"><ele>380.0</ele><time>2026-05-02T16:12:43.975Z</time></trkpt><trkpt lat="40.4271683" lon="15.1840917"><ele>380.0</ele><time>2026-05-02T16:12:44.976Z</time></trkpt><trkpt lat="40.4271517" lon="15.1842667"><ele>387.0</ele><time>2026-05-02T16:12:45.975Z</time></trkpt><trkpt lat="40.4271367" lon="15.1844433"><ele>394.0</ele><time>2026-05-02T16:12:46.975Z</time></trkpt><trkpt lat="40.4271283" lon="15.1846117"><ele>401.0</ele><time>2026-05-02T16:12:47.975Z</time></trkpt><trkpt lat="40.4271183" lon="15.184785"><ele>408.0</ele><time>2026-05-02T16:12:48.975Z</time></trkpt><trkpt lat="40.427095" lon="15.1849417"><ele>408.0</ele><time>2026-05-02T16:12:49.975Z</time></trkpt><trkpt lat="40.42705" lon="15.1851117"><ele>408.0</ele><time>2026-05-02T16:12:50.976Z</time></trkpt><trkpt lat="40.42699" lon="15.1852917"><ele>408.0</ele><time>2026-05-02T16:12:51.975Z</time></trkpt><trkpt lat="40.4269217" lon="15.1854667"><ele>408.0</ele><time>2026-05-02T16:12:52.975Z</time></trkpt><trkpt lat="40.4268517" lon="15.18564"><ele>404.75</ele><time>2026-05-02T16:12:53.975Z</time></trkpt><trkpt lat="40.426775" lon="15.185795"><ele>401.5</ele><time>2026-05-02T16:12:54.976Z</time></trkpt><trkpt lat="40.426685" lon="15.1859367"><ele>398.25</ele><time>2026-05-02T16:12:55.976Z</time></trkpt><trkpt lat="40.4265833" lon="15.1860533"><ele>395.0</ele><time>2026-05-02T16:12:56.975Z</time></trkpt><trkpt lat="40.426465" lon="15.186155"><ele>395.0</ele><time>2026-05-02T16:12:57.976Z</time></trkpt><trkpt lat="40.42634" lon="15.1862633"><ele>395.0</ele><time>2026-05-02T16:12:58.975Z</time></trkpt><trkpt lat="40.426215" lon="15.1863683"><ele>395.0</ele><time>2026-05-02T16:12:59.976Z</time></trkpt><trkpt lat="40.4260917" lon="15.1864667"><ele>395.0</ele><time>2026-05-02T16:13:00.975Z</time></trkpt><trkpt lat="40.4259567" lon="15.1865783"><ele>396.3333333333333</ele><time>2026-05-02T16:13:01.975Z</time></trkpt><trkpt lat="40.42582" lon="15.1866983"><ele>397.66666666666663</ele><time>2026-05-02T16:13:02.976Z</time></trkpt><trkpt lat="40.4256717" lon="15.186815"><ele>399.0</ele><time>2026-05-02T16:13:03.975Z</time></trkpt><trkpt lat="40.4255433" lon="15.1869383"><ele>406.66666666666663</ele><time>2026-05-02T16:13:04.975Z</time></trkpt><trkpt lat="40.4254167" lon="15.1870567"><ele>414.3333333333333</ele><time>2026-05-02T16:13:05.976Z</time></trkpt><trkpt lat="40.425285" lon="15.1871917"><ele>422.0</ele><time>2026-05-02T16:13:06.975Z</time></trkpt><trkpt lat="40.4251667" lon="15.1873183"><ele>413.3333333333333</ele><time>2026-05-02T16:13:07.975Z</time></trkpt><trkpt lat="40.4250583" lon="15.1874367"><ele>404.66666666666663</ele><time>2026-05-02T16:13:08.976Z</time></trkpt><trkpt lat="40.4249433" lon="15.1875683"><ele>396.0</ele><time>2026-05-02T16:13:09.976Z</time></trkpt><trkpt lat="40.42483" lon="15.187715"><ele>396.0</ele><time>2026-05-02T16:13:10.976Z</time></trkpt><trkpt lat="40.4247067" lon="15.18786"><ele>396.0</ele><time>2026-05-02T16:13:11.976Z</time></trkpt><trkpt lat="40.4245967" lon="15.1880117"><ele>396.0</ele><time>2026-05-02T16:13:12.975Z</time></trkpt><trkpt lat="40.4244733" lon="15.18817"><ele>397.0</ele><time>2026-05-02T16:13:13.975Z</time></trkpt><trkpt lat="40.4243567" lon="15.1883183"><ele>398.0</ele><time>2026-05-02T16:13:14.975Z</time></trkpt><trkpt lat="40.42425" lon="15.1884567"><ele>399.0</ele><time>2026-05-02T16:13:15.976Z</time></trkpt><trkpt lat="40.424135" lon="15.1885917"><ele>399.0</ele><time>2026-05-02T16:13:16.976Z</time></trkpt><trkpt lat="40.4240233" lon="15.188725"><ele>399.0</ele><time>2026-05-02T16:13:17.975Z</time></trkpt><trkpt lat="40.4239067" lon="15.188875"><ele>399.0</ele><time>2026-05-02T16:13:18.975Z</time></trkpt><trkpt lat="40.423775" lon="15.1890383"><ele>401.33333333333337</ele><time>2026-05-02T16:13:19.976Z</time></trkpt><trkpt lat="40.4236283" lon="15.1892217"><ele>403.6666666666667</ele><time>2026-05-02T16:13:20.975Z</time></trkpt><trkpt lat="40.42348" lon="15.1894117"><ele>406.0</ele><time>2026-05-02T16:13:21.976Z</time></trkpt><trkpt lat="40.4233367" lon="15.1895933"><ele>406.0</ele><time>2026-05-02T16:13:22.975Z</time></trkpt><trkpt lat="40.4232" lon="15.189755"><ele>406.0</ele><time>2026-05-02T16:13:23.975Z</time></trkpt><trkpt lat="40.4230717" lon="15.1899083"><ele>406.0</ele><time>2026-05-02T16:13:24.975Z</time></trkpt><trkpt lat="40.4229383" lon="15.1900383"><ele>404.33333333333337</ele><time>2026-05-02T16:13:25.976Z</time></trkpt><trkpt lat="40.4227983" lon="15.19014"><ele>402.66666666666663</ele><time>2026-05-02T16:13:26.975Z</time></trkpt><trkpt lat="40.42264" lon="15.1902117"><ele>401.0</ele><time>2026-05-02T16:13:27.975Z</time></trkpt><trkpt lat="40.4224867" lon="15.190245"><ele>401.0</ele><time>2026-05-02T16:13:28.976Z</time></trkpt><trkpt lat="40.42233" lon="15.1902683"><ele>401.0</ele><time>2026-05-02T16:13:29.975Z</time></trkpt><trkpt lat="40.4222" lon="15.19027"><ele>401.0</ele><time>2026-05-02T16:13:30.975Z</time></trkpt><trkpt lat="40.4220833" lon="15.1902767"><ele>401.0</ele><time>2026-05-02T16:13:31.975Z</time></trkpt><trkpt lat="40.4219717" lon="15.1902783"><ele>400.99999999999994</ele><time>2026-05-02T16:13:32.975Z</time></trkpt><trkpt lat="40.4218717" lon="15.190275"><ele>401.0</ele><time>2026-05-02T16:13:33.975Z</time></trkpt><trkpt lat="40.4217867" lon="15.19027"><ele>401.0</ele><time>2026-05-02T16:13:34.975Z</time></trkpt><trkpt lat="40.4217217" lon="15.1902667"><ele>401.0</ele><time>2026-05-02T16:13:35.975Z</time></trkpt><trkpt lat="40.4216567" lon="15.190265"><ele>400.99999999999994</ele><time>2026-05-02T16:13:36.976Z</time></trkpt><trkpt lat="40.4215383" lon="15.1902617"><ele>401.0</ele><time>2026-05-02T16:13:38.975Z</time></trkpt><trkpt lat="40.4214283" lon="15.190335"><ele>400.99999999999994</ele><time>2026-05-02T16:13:40.975Z</time></trkpt><trkpt lat="40.421385" lon="15.1904117"><ele>401.0</ele><time>2026-05-02T16:13:41.975Z</time></trkpt><trkpt lat="40.4213533" lon="15.1905067"><ele>401.0</ele><time>2026-05-02T16:13:42.975Z</time></trkpt><trkpt lat="40.4213167" lon="15.19061"><ele>401.0</ele><time>2026-05-02T16:13:43.975Z</time></trkpt><trkpt lat="40.4212683" lon="15.19072"><ele>400.99999999999994</ele><time>2026-05-02T16:13:44.976Z</time></trkpt><trkpt lat="40.42121" lon="15.1908233"><ele>401.0</ele><time>2026-05-02T16:13:45.975Z</time></trkpt><trkpt lat="40.421145" lon="15.1909167"><ele>400.8</ele><time>2026-05-02T16:13:46.975Z</time></trkpt><trkpt lat="40.4210767" lon="15.191005"><ele>400.6</ele><time>2026-05-02T16:13:47.975Z</time></trkpt><trkpt lat="40.4210033" lon="15.1910933"><ele>400.4</ele><time>2026-05-02T16:13:48.975Z</time></trkpt><trkpt lat="40.4209267" lon="15.1911683"><ele>400.2</ele><time>2026-05-02T16:13:49.975Z</time></trkpt><trkpt lat="40.4208483" lon="15.1912283"><ele>400.0</ele><time>2026-05-02T16:13:50.975Z</time></trkpt><trkpt lat="40.4207733" lon="15.1912783"><ele>400.0</ele><time>2026-05-02T16:13:51.975Z</time></trkpt><trkpt lat="40.4206833" lon="15.1913133"><ele>400.0</ele><time>2026-05-02T16:13:52.975Z</time></trkpt><trkpt lat="40.420595" lon="15.19134"><ele>400.0</ele><time>2026-05-02T16:13:53.976Z</time></trkpt><trkpt lat="40.4205033" lon="15.19138"><ele>400.0</ele><time>2026-05-02T16:13:54.975Z</time></trkpt><trkpt lat="40.420415" lon="15.19142"><ele>400.0</ele><time>2026-05-02T16:13:55.975Z</time></trkpt><trkpt lat="40.4203333" lon="15.1914633"><ele>398.50000000000006</ele><time>2026-05-02T16:13:56.976Z</time></trkpt><trkpt lat="40.4202783" lon="15.191515"><ele>397.0</ele><time>2026-05-02T16:13:57.975Z</time></trkpt><trkpt lat="40.42023" lon="15.1915917"><ele>395.5</ele><time>2026-05-02T16:13:58.975Z</time></trkpt><trkpt lat="40.4202" lon="15.1916733"><ele>394.0</ele><time>2026-05-02T16:13:59.975Z</time></trkpt><trkpt lat="40.420185" lon="15.1917717"><ele>392.50000000000006</ele><time>2026-05-02T16:14:00.975Z</time></trkpt><trkpt lat="40.4201917" lon="15.191875"><ele>391.0</ele><time>2026-05-02T16:14:01.976Z</time></trkpt><trkpt lat="40.4202183" lon="15.19199"><ele>391.0</ele><time>2026-05-02T16:14:02.975Z</time></trkpt><trkpt lat="40.42025" lon="15.1921067"><ele>391.0</ele><time>2026-05-02T16:14:03.975Z</time></trkpt><trkpt lat="40.42029" lon="15.1922133"><ele>391.0</ele><time>2026-05-02T16:14:04.975Z</time></trkpt><trkpt lat="40.420335" lon="15.1923333"><ele>391.0</ele><time>2026-05-02T16:14:05.975Z</time></trkpt><trkpt lat="40.4203833" lon="15.19246"><ele>391.0</ele><time>2026-05-02T16:14:06.975Z</time></trkpt><trkpt lat="40.420435" lon="15.1925767"><ele>393.0</ele><time>2026-05-02T16:14:07.975Z</time></trkpt><trkpt lat="40.4204883" lon="15.1926883"><ele>395.0</ele><time>2026-05-02T16:14:08.975Z</time></trkpt><trkpt lat="40.4205317" lon="15.1927867"><ele>397.0</ele><time>2026-05-02T16:14:09.975Z</time></trkpt><trkpt lat="40.420585" lon="15.192885"><ele>399.0</ele><time>2026-05-02T16:14:10.975Z</time></trkpt><trkpt lat="40.42063" lon="15.1929917"><ele>401.0</ele><time>2026-05-02T16:14:11.975Z</time></trkpt><trkpt lat="40.4206817" lon="15.1930967"><ele>398.8</ele><time>2026-05-02T16:14:12.975Z</time></trkpt><trkpt lat="40.42073" lon="15.1932017"><ele>396.6</ele><time>2026-05-02T16:14:13.975Z</time></trkpt><trkpt lat="40.420785" lon="15.193315"><ele>394.4</ele><time>2026-05-02T16:14:14.976Z</time></trkpt><trkpt lat="40.4208417" lon="15.193435"><ele>392.2</ele><time>2026-05-02T16:14:15.975Z</time></trkpt><trkpt lat="40.4209" lon="15.1935567"><ele>390.0</ele><time>2026-05-02T16:14:16.975Z</time></trkpt><trkpt lat="40.4209517" lon="15.1936833"><ele>390.0</ele><time>2026-05-02T16:14:17.975Z</time></trkpt><trkpt lat="40.4210033" lon="15.1938033"><ele>390.0</ele><time>2026-05-02T16:14:18.975Z</time></trkpt><trkpt lat="40.42106" lon="15.19392"><ele>390.0</ele><time>2026-05-02T16:14:19.975Z</time></trkpt><trkpt lat="40.4211117" lon="15.19404"><ele>390.0</ele><time>2026-05-02T16:14:20.976Z</time></trkpt><trkpt lat="40.4211633" lon="15.1941533"><ele>390.0</ele><time>2026-05-02T16:14:21.975Z</time></trkpt><trkpt lat="40.421215" lon="15.1942667"><ele>391.2</ele><time>2026-05-02T16:14:22.975Z</time></trkpt><trkpt lat="40.4212633" lon="15.194375"><ele>392.4</ele><time>2026-05-02T16:14:23.975Z</time></trkpt><trkpt lat="40.42132" lon="15.1944833"><ele>393.6</ele><time>2026-05-02T16:14:24.975Z</time></trkpt><trkpt lat="40.421395" lon="15.1945817"><ele>394.8</ele><time>2026-05-02T16:14:25.975Z</time></trkpt><trkpt lat="40.42148" lon="15.1946683"><ele>396.0</ele><time>2026-05-02T16:14:26.976Z</time></trkpt><trkpt lat="40.42158" lon="15.1947483"><ele>396.0</ele><time>2026-05-02T16:14:27.975Z</time></trkpt><trkpt lat="40.4216833" lon="15.1948"><ele>396.0</ele><time>2026-05-02T16:14:28.975Z</time></trkpt><trkpt lat="40.421785" lon="15.1948483"><ele>396.0</ele><time>2026-05-02T16:14:29.976Z</time></trkpt><trkpt lat="40.4218967" lon="15.1948833"><ele>396.0</ele><time>2026-05-02T16:14:30.975Z</time></trkpt><trkpt lat="40.4220067" lon="15.1949083"><ele>396.0</ele><time>2026-05-02T16:14:31.975Z</time></trkpt><trkpt lat="40.42212" lon="15.19492"><ele>394.4</ele><time>2026-05-02T16:14:32.975Z</time></trkpt><trkpt lat="40.422235" lon="15.1949"><ele>392.8</ele><time>2026-05-02T16:14:33.976Z</time></trkpt><trkpt lat="40.42234" lon="15.194855"><ele>391.2</ele><time>2026-05-02T16:14:34.975Z</time></trkpt><trkpt lat="40.422435" lon="15.194785"><ele>389.59999999999997</ele><time>2026-05-02T16:14:35.975Z</time></trkpt><trkpt lat="40.4225333" lon="15.1947167"><ele>388.0</ele><time>2026-05-02T16:14:36.976Z</time></trkpt><trkpt lat="40.4226283" lon="15.19465"><ele>388.0</ele><time>2026-05-02T16:14:37.975Z</time></trkpt><trkpt lat="40.4227333" lon="15.1945783"><ele>388.0</ele><time>2026-05-02T16:14:38.975Z</time></trkpt><trkpt lat="40.422845" lon="15.194495"><ele>388.0</ele><time>2026-05-02T16:14:39.976Z</time></trkpt><trkpt lat="40.4229667" lon="15.1944233"><ele>388.0</ele><time>2026-05-02T16:14:40.975Z</time></trkpt><trkpt lat="40.4230933" lon="15.194365"><ele>383.75</ele><time>2026-05-02T16:14:41.975Z</time></trkpt><trkpt lat="40.4232183" lon="15.1943133"><ele>379.5</ele><time>2026-05-02T16:14:42.975Z</time></trkpt><trkpt lat="40.42335" lon="15.1942717"><ele>375.25</ele><time>2026-05-02T16:14:43.975Z</time></trkpt><trkpt lat="40.423485" lon="15.19423"><ele>371.0</ele><time>2026-05-02T16:14:44.975Z</time></trkpt><trkpt lat="40.4236133" lon="15.1941917"><ele>371.0</ele><time>2026-05-02T16:14:45.975Z</time></trkpt><trkpt lat="40.4237367" lon="15.1941683"><ele>371.0</ele><time>2026-05-02T16:14:46.976Z</time></trkpt><trkpt lat="40.4238533" lon="15.1941667"><ele>371.0</ele><time>2026-05-02T16:14:47.975Z</time></trkpt><trkpt lat="40.4239633" lon="15.1941817"><ele>371.0</ele><time>2026-05-02T16:14:48.975Z</time></trkpt><trkpt lat="40.42406" lon="15.194225"><ele>371.1666666666667</ele><time>2026-05-02T16:14:49.975Z</time></trkpt><trkpt lat="40.424155" lon="15.194275"><ele>371.33333333333337</ele><time>2026-05-02T16:14:50.975Z</time></trkpt><trkpt lat="40.424225" lon="15.1943383"><ele>371.5</ele><time>2026-05-02T16:14:51.976Z</time></trkpt><trkpt lat="40.4242767" lon="15.1944183"><ele>371.6666666666667</ele><time>2026-05-02T16:14:52.976Z</time></trkpt><trkpt lat="40.4243083" lon="15.194505"><ele>371.8333333333333</ele><time>2026-05-02T16:14:53.975Z</time></trkpt><trkpt lat="40.4243317" lon="15.1945933"><ele>372.0</ele><time>2026-05-02T16:14:54.975Z</time></trkpt><trkpt lat="40.4243417" lon="15.1947233"><ele>372.0</ele><time>2026-05-02T16:14:56.976Z</time></trkpt><trkpt lat="40.4243217" lon="15.1948283"><ele>372.0</ele><time>2026-05-02T16:14:58.976Z</time></trkpt><trkpt lat="40.4242633" lon="15.19491"><ele>372.0</ele><time>2026-05-02T16:15:00.975Z</time></trkpt><trkpt lat="40.4241967" lon="15.1949467"><ele>372.0</ele><time>2026-05-02T16:15:02.975Z</time></trkpt><trkpt lat="40.42409" lon="15.1949067"><ele>372.0</ele><time>2026-05-02T16:15:04.976Z</time></trkpt><trkpt lat="40.424025" lon="15.1948367"><ele>372.0</ele><time>2026-05-02T16:15:05.975Z</time></trkpt><trkpt lat="40.42395" lon="15.1947617"><ele>372.0</ele><time>2026-05-02T16:15:06.976Z</time></trkpt><trkpt lat="40.4238533" lon="15.1947"><ele>372.0</ele><time>2026-05-02T16:15:07.975Z</time></trkpt><trkpt lat="40.4237367" lon="15.1946617"><ele>372.0</ele><time>2026-05-02T16:15:08.975Z</time></trkpt><trkpt lat="40.42361" lon="15.1946433"><ele>372.0</ele><time>2026-05-02T16:15:09.976Z</time></trkpt><trkpt lat="40.42348" lon="15.19466"><ele>371.75</ele><time>2026-05-02T16:15:10.975Z</time></trkpt><trkpt lat="40.4233533" lon="15.19471"><ele>371.5</ele><time>2026-05-02T16:15:11.976Z</time></trkpt><trkpt lat="40.4232267" lon="15.194795"><ele>371.25</ele><time>2026-05-02T16:15:12.976Z</time></trkpt><trkpt lat="40.4230983" lon="15.19488"><ele>371.0</ele><time>2026-05-02T16:15:13.975Z</time></trkpt><trkpt lat="40.4229717" lon="15.1949833"><ele>370.0</ele><time>2026-05-02T16:15:14.975Z</time></trkpt><trkpt lat="40.422845" lon="15.195075"><ele>369.0</ele><time>2026-05-02T16:15:15.975Z</time></trkpt><trkpt lat="40.42271" lon="15.19516"><ele>368.0</ele><time>2026-05-02T16:15:16.975Z</time></trkpt><trkpt lat="40.4225683" lon="15.1952433"><ele>368.0</ele><time>2026-05-02T16:15:17.976Z</time></trkpt><trkpt lat="40.4224183" lon="15.1953233"><ele>368.0</ele><time>2026-05-02T16:15:18.975Z</time></trkpt><trkpt lat="40.4222667" lon="15.1953917"><ele>368.0</ele><time>2026-05-02T16:15:19.976Z</time></trkpt><trkpt lat="40.4221133" lon="15.1954417"><ele>369.0</ele><time>2026-05-02T16:15:20.975Z</time></trkpt><trkpt lat="40.4219667" lon="15.1954717"><ele>370.0</ele><time>2026-05-02T16:15:21.976Z</time></trkpt><trkpt lat="40.4218167" lon="15.1954767"><ele>371.0</ele><time>2026-05-02T16:15:22.975Z</time></trkpt><trkpt lat="40.421665" lon="15.1954433"><ele>371.0</ele><time>2026-05-02T16:15:23.975Z</time></trkpt><trkpt lat="40.4215133" lon="15.1953767"><ele>371.0</ele><time>2026-05-02T16:15:24.975Z</time></trkpt><trkpt lat="40.4213717" lon="15.1952867"><ele>371.0</ele><time>2026-05-02T16:15:25.975Z</time></trkpt><trkpt lat="40.421235" lon="15.19519"><ele>365.33333333333337</ele><time>2026-05-02T16:15:26.975Z</time></trkpt><trkpt lat="40.42109" lon="15.1950867"><ele>359.6666666666667</ele><time>2026-05-02T16:15:27.975Z</time></trkpt><trkpt lat="40.420955" lon="15.1949783"><ele>354.0</ele><time>2026-05-02T16:15:28.975Z</time></trkpt><trkpt lat="40.4208183" lon="15.1948717"><ele>356.6666666666667</ele><time>2026-05-02T16:15:29.976Z</time></trkpt><trkpt lat="40.4206783" lon="15.1947667"><ele>359.33333333333337</ele><time>2026-05-02T16:15:30.976Z</time></trkpt><trkpt lat="40.42054" lon="15.19466"><ele>362.0</ele><time>2026-05-02T16:15:31.975Z</time></trkpt><trkpt lat="40.4204067" lon="15.1945517"><ele>362.0</ele><time>2026-05-02T16:15:32.976Z</time></trkpt><trkpt lat="40.420265" lon="15.1944483"><ele>362.0</ele><time>2026-05-02T16:15:33.976Z</time></trkpt><trkpt lat="40.420125" lon="15.1943317"><ele>362.0</ele><time>2026-05-02T16:15:34.975Z</time></trkpt><trkpt lat="40.4199917" lon="15.1942083"><ele>362.0</ele><time>2026-05-02T16:15:35.975Z</time></trkpt><trkpt lat="40.4198583" lon="15.1940983"><ele>362.0</ele><time>2026-05-02T16:15:36.976Z</time></trkpt><trkpt lat="40.4197367" lon="15.193965"><ele>362.0</ele><time>2026-05-02T16:15:37.976Z</time></trkpt><trkpt lat="40.419615" lon="15.19384"><ele>361.0</ele><time>2026-05-02T16:15:38.976Z</time></trkpt><trkpt lat="40.4195033" lon="15.193695"><ele>360.0</ele><time>2026-05-02T16:15:39.976Z</time></trkpt><trkpt lat="40.4193967" lon="15.19354"><ele>359.0</ele><time>2026-05-02T16:15:40.975Z</time></trkpt><trkpt lat="40.4192917" lon="15.1933733"><ele>359.0</ele><time>2026-05-02T16:15:41.976Z</time></trkpt><trkpt lat="40.419195" lon="15.1932"><ele>359.0</ele><time>2026-05-02T16:15:42.976Z</time></trkpt><trkpt lat="40.41912" lon="15.1930283"><ele>359.0</ele><time>2026-05-02T16:15:43.975Z</time></trkpt><trkpt lat="40.4190633" lon="15.1928567"><ele>360.6</ele><time>2026-05-02T16:15:44.975Z</time></trkpt><trkpt lat="40.41902" lon="15.1927117"><ele>362.2</ele><time>2026-05-02T16:15:45.975Z</time></trkpt><trkpt lat="40.4189817" lon="15.1925933"><ele>363.8</ele><time>2026-05-02T16:15:46.975Z</time></trkpt><trkpt lat="40.4189167" lon="15.1925017"><ele>365.40000000000003</ele><time>2026-05-02T16:15:47.976Z</time></trkpt><trkpt lat="40.418835" lon="15.1924483"><ele>367.0</ele><time>2026-05-02T16:15:48.975Z</time></trkpt><trkpt lat="40.4187383" lon="15.1924467"><ele>367.0</ele><time>2026-05-02T16:15:49.975Z</time></trkpt><trkpt lat="40.4186433" lon="15.192465"><ele>367.0</ele><time>2026-05-02T16:15:50.975Z</time></trkpt><trkpt lat="40.418535" lon="15.1925167"><ele>367.0</ele><time>2026-05-02T16:15:51.975Z</time></trkpt><trkpt lat="40.4184167" lon="15.1926267"><ele>367.0</ele><time>2026-05-02T16:15:52.976Z</time></trkpt><trkpt lat="40.418315" lon="15.1927717"><ele>367.0</ele><time>2026-05-02T16:15:53.975Z</time></trkpt><trkpt lat="40.41823" lon="15.1929283"><ele>367.0</ele><time>2026-05-02T16:15:54.976Z</time></trkpt><trkpt lat="40.4181683" lon="15.1931117"><ele>367.0</ele><time>2026-05-02T16:15:55.975Z</time></trkpt><trkpt lat="40.4181433" lon="15.1932883"><ele>367.0</ele><time>2026-05-02T16:15:56.976Z</time></trkpt><trkpt lat="40.41815" lon="15.1934733"><ele>365.5</ele><time>2026-05-02T16:15:57.975Z</time></trkpt><trkpt lat="40.4181683" lon="15.1936467"><ele>364.0</ele><time>2026-05-02T16:15:58.975Z</time></trkpt><trkpt lat="40.4181883" lon="15.1938017"><ele>362.5</ele><time>2026-05-02T16:15:59.975Z</time></trkpt><trkpt lat="40.4182133" lon="15.1939483"><ele>361.0</ele><time>2026-05-02T16:16:00.975Z</time></trkpt><trkpt lat="40.4182317" lon="15.1940883"><ele>360.6</ele><time>2026-05-02T16:16:01.975Z</time></trkpt><trkpt lat="40.418245" lon="15.1942317"><ele>360.20000000000005</ele><time>2026-05-02T16:16:02.975Z</time></trkpt><trkpt lat="40.418245" lon="15.1943733"><ele>359.79999999999995</ele><time>2026-05-02T16:16:03.976Z</time></trkpt><trkpt lat="40.4182283" lon="15.1945067"><ele>359.4</ele><time>2026-05-02T16:16:04.975Z</time></trkpt><trkpt lat="40.4181783" lon="15.1946267"><ele>359.0</ele><time>2026-05-02T16:16:05.975Z</time></trkpt><trkpt lat="40.4181033" lon="15.1947283"><ele>359.0</ele><time>2026-05-02T16:16:06.975Z</time></trkpt><trkpt lat="40.418005" lon="15.1948083"><ele>359.0</ele><time>2026-05-02T16:16:07.976Z</time></trkpt><trkpt lat="40.4178817" lon="15.1948683"><ele>359.0</ele><time>2026-05-02T16:16:08.975Z</time></trkpt><trkpt lat="40.4177517" lon="15.1949283"><ele>359.0</ele><time>2026-05-02T16:16:09.976Z</time></trkpt><trkpt lat="40.41761" lon="15.1949967"><ele>360.0</ele><time>2026-05-02T16:16:10.976Z</time></trkpt><trkpt lat="40.41747" lon="15.1950733"><ele>361.0</ele><time>2026-05-02T16:16:11.975Z</time></trkpt><trkpt lat="40.4173517" lon="15.1951717"><ele>362.0</ele><time>2026-05-02T16:16:12.975Z</time></trkpt><trkpt lat="40.4172483" lon="15.19527"><ele>363.0</ele><time>2026-05-02T16:16:13.975Z</time></trkpt><trkpt lat="40.41716" lon="15.1953633"><ele>364.59999999999997</ele><time>2026-05-02T16:16:14.975Z</time></trkpt><trkpt lat="40.4170767" lon="15.1954533"><ele>366.2</ele><time>2026-05-02T16:16:15.976Z</time></trkpt><trkpt lat="40.4170067" lon="15.1955567"><ele>367.8</ele><time>2026-05-02T16:16:16.976Z</time></trkpt><trkpt lat="40.41695" lon="15.1956717"><ele>369.4</ele><time>2026-05-02T16:16:17.975Z</time></trkpt><trkpt lat="40.4169467" lon="15.195795"><ele>371.0</ele><time>2026-05-02T16:16:18.976Z</time></trkpt><trkpt lat="40.4169833" lon="15.1959133"><ele>371.0</ele><time>2026-05-02T16:16:19.975Z</time></trkpt><trkpt lat="40.4170483" lon="15.1960183"><ele>371.0</ele><time>2026-05-02T16:16:20.975Z</time></trkpt><trkpt lat="40.4171233" lon="15.19611"><ele>371.0</ele><time>2026-05-02T16:16:21.975Z</time></trkpt><trkpt lat="40.417175" lon="15.1962083"><ele>371.0</ele><time>2026-05-02T16:16:22.976Z</time></trkpt><trkpt lat="40.4172067" lon="15.1963083"><ele>371.0</ele><time>2026-05-02T16:16:23.975Z</time></trkpt><trkpt lat="40.4172117" lon="15.19643"><ele>371.4</ele><time>2026-05-02T16:16:24.975Z</time></trkpt><trkpt lat="40.4171917" lon="15.196555"><ele>371.8</ele><time>2026-05-02T16:16:25.976Z</time></trkpt><trkpt lat="40.4171617" lon="15.1966833"><ele>372.2</ele><time>2026-05-02T16:16:26.976Z</time></trkpt><trkpt lat="40.4171267" lon="15.196825"><ele>372.59999999999997</ele><time>2026-05-02T16:16:27.975Z</time></trkpt><trkpt lat="40.417105" lon="15.1969667"><ele>373.0</ele><time>2026-05-02T16:16:28.976Z</time></trkpt><trkpt lat="40.4170933" lon="15.1971067"><ele>373.0</ele><time>2026-05-02T16:16:29.976Z</time></trkpt><trkpt lat="40.4170733" lon="15.1972433"><ele>373.0</ele><time>2026-05-02T16:16:30.976Z</time></trkpt><trkpt lat="40.41706" lon="15.19738"><ele>373.0</ele><time>2026-05-02T16:16:31.975Z</time></trkpt><trkpt lat="40.4170317" lon="15.19753"><ele>373.0</ele><time>2026-05-02T16:16:32.975Z</time></trkpt><trkpt lat="40.4169883" lon="15.1976733"><ele>373.0</ele><time>2026-05-02T16:16:33.975Z</time></trkpt><trkpt lat="40.416935" lon="15.1978117"><ele>372.4</ele><time>2026-05-02T16:16:34.976Z</time></trkpt><trkpt lat="40.4168617" lon="15.197925"><ele>371.79999999999995</ele><time>2026-05-02T16:16:35.975Z</time></trkpt><trkpt lat="40.41678" lon="15.1980267"><ele>371.2</ele><time>2026-05-02T16:16:36.976Z</time></trkpt><trkpt lat="40.41669" lon="15.1981117"><ele>370.6</ele><time>2026-05-02T16:16:37.975Z</time></trkpt><trkpt lat="40.4166183" lon="15.1982217"><ele>370.0</ele><time>2026-05-02T16:16:38.976Z</time></trkpt><trkpt lat="40.41656" lon="15.19834"><ele>367.75</ele><time>2026-05-02T16:16:39.975Z</time></trkpt><trkpt lat="40.4165283" lon="15.1984883"><ele>365.5</ele><time>2026-05-02T16:16:40.975Z</time></trkpt><trkpt lat="40.4165167" lon="15.19865"><ele>363.25</ele><time>2026-05-02T16:16:41.975Z</time></trkpt><trkpt lat="40.4165217" lon="15.1988117"><ele>361.0</ele><time>2026-05-02T16:16:42.976Z</time></trkpt><trkpt lat="40.4165317" lon="15.1989933"><ele>361.0</ele><time>2026-05-02T16:16:43.975Z</time></trkpt><trkpt lat="40.4165517" lon="15.1991717"><ele>361.0</ele><time>2026-05-02T16:16:44.975Z</time></trkpt><trkpt lat="40.41659" lon="15.1993567"><ele>361.0</ele><time>2026-05-02T16:16:45.976Z</time></trkpt><trkpt lat="40.4166467" lon="15.1995283"><ele>361.0</ele><time>2026-05-02T16:16:46.975Z</time></trkpt><trkpt lat="40.4167317" lon="15.19969"><ele>364.0</ele><time>2026-05-02T16:16:47.975Z</time></trkpt><trkpt lat="40.4168283" lon="15.19984"><ele>367.0</ele><time>2026-05-02T16:16:48.976Z</time></trkpt><trkpt lat="40.41693" lon="15.1999883"><ele>370.0</ele><time>2026-05-02T16:16:49.975Z</time></trkpt><trkpt lat="40.417025" lon="15.20014"><ele>370.0</ele><time>2026-05-02T16:16:50.975Z</time></trkpt><trkpt lat="40.4171167" lon="15.2002933"><ele>370.0</ele><time>2026-05-02T16:16:51.975Z</time></trkpt><trkpt lat="40.417195" lon="15.200455"><ele>370.0</ele><time>2026-05-02T16:16:52.976Z</time></trkpt><trkpt lat="40.4172617" lon="15.2006117"><ele>370.0</ele><time>2026-05-02T16:16:53.975Z</time></trkpt><trkpt lat="40.4173067" lon="15.20078"><ele>364.0</ele><time>2026-05-02T16:16:54.976Z</time></trkpt><trkpt lat="40.4173317" lon="15.2009683"><ele>358.0</ele><time>2026-05-02T16:16:55.976Z</time></trkpt><trkpt lat="40.4173617" lon="15.2011817"><ele>352.0</ele><time>2026-05-02T16:16:56.975Z</time></trkpt><trkpt lat="40.417385" lon="15.201415"><ele>353.0</ele><time>2026-05-02T16:16:57.976Z</time></trkpt><trkpt lat="40.417435" lon="15.2016483"><ele>354.0</ele><time>2026-05-02T16:16:58.975Z</time></trkpt><trkpt lat="40.4174833" lon="15.2018617"><ele>355.0</ele><time>2026-05-02T16:16:59.976Z</time></trkpt><trkpt lat="40.417545" lon="15.2020633"><ele>355.0</ele><time>2026-05-02T16:17:00.975Z</time></trkpt><trkpt lat="40.4176017" lon="15.20226"><ele>355.0</ele><time>2026-05-02T16:17:01.976Z</time></trkpt><trkpt lat="40.4176617" lon="15.2024617"><ele>355.0</ele><time>2026-05-02T16:17:02.975Z</time></trkpt><trkpt lat="40.4177267" lon="15.2026683"><ele>357.66666666666663</ele><time>2026-05-02T16:17:03.975Z</time></trkpt><trkpt lat="40.4177917" lon="15.2028633"><ele>360.3333333333333</ele><time>2026-05-02T16:17:04.976Z</time></trkpt><trkpt lat="40.4178633" lon="15.2030383"><ele>363.0</ele><time>2026-05-02T16:17:05.975Z</time></trkpt><trkpt lat="40.417945" lon="15.2031983"><ele>358.6666666666667</ele><time>2026-05-02T16:17:06.976Z</time></trkpt><trkpt lat="40.4180633" lon="15.20333"><ele>354.33333333333337</ele><time>2026-05-02T16:17:07.975Z</time></trkpt><trkpt lat="40.41821" lon="15.2034367"><ele>350.0</ele><time>2026-05-02T16:17:08.975Z</time></trkpt><trkpt lat="40.41837" lon="15.203525"><ele>350.0</ele><time>2026-05-02T16:17:09.976Z</time></trkpt><trkpt lat="40.4185233" lon="15.203605"><ele>350.0</ele><time>2026-05-02T16:17:10.975Z</time></trkpt><trkpt lat="40.41868" lon="15.20367"><ele>350.0</ele><time>2026-05-02T16:17:11.975Z</time></trkpt><trkpt lat="40.4188333" lon="15.203695"><ele>347.25</ele><time>2026-05-02T16:17:12.975Z</time></trkpt><trkpt lat="40.4189783" lon="15.2037"><ele>344.5</ele><time>2026-05-02T16:17:13.976Z</time></trkpt><trkpt lat="40.4191017" lon="15.2036917"><ele>341.75</ele><time>2026-05-02T16:17:14.975Z</time></trkpt><trkpt lat="40.4192267" lon="15.2037"><ele>339.0</ele><time>2026-05-02T16:17:15.975Z</time></trkpt><trkpt lat="40.4193417" lon="15.2037517"><ele>339.0</ele><time>2026-05-02T16:17:16.975Z</time></trkpt><trkpt lat="40.4194433" lon="15.2038483"><ele>339.0</ele><time>2026-05-02T16:17:17.976Z</time></trkpt><trkpt lat="40.4195317" lon="15.20398"><ele>339.0</ele><time>2026-05-02T16:17:18.975Z</time></trkpt><trkpt lat="40.4196133" lon="15.2041"><ele>339.0</ele><time>2026-05-02T16:17:19.975Z</time></trkpt><trkpt lat="40.4197033" lon="15.2042067"><ele>338.5</ele><time>2026-05-02T16:17:20.975Z</time></trkpt><trkpt lat="40.41979" lon="15.2043"><ele>338.0</ele><time>2026-05-02T16:17:21.975Z</time></trkpt><trkpt lat="40.41989" lon="15.2043917"><ele>337.5</ele><time>2026-05-02T16:17:22.976Z</time></trkpt><trkpt lat="40.4200017" lon="15.2044567"><ele>337.0</ele><time>2026-05-02T16:17:23.975Z</time></trkpt><trkpt lat="40.4201217" lon="15.204515"><ele>337.0</ele><time>2026-05-02T16:17:24.976Z</time></trkpt><trkpt lat="40.4202317" lon="15.2045767"><ele>337.0</ele><time>2026-05-02T16:17:25.976Z</time></trkpt><trkpt lat="40.4203317" lon="15.20465"><ele>337.0</ele><time>2026-05-02T16:17:26.975Z</time></trkpt><trkpt lat="40.42041" lon="15.2047583"><ele>337.0</ele><time>2026-05-02T16:17:27.975Z</time></trkpt><trkpt lat="40.4204617" lon="15.2049033"><ele>335.0</ele><time>2026-05-02T16:17:28.976Z</time></trkpt><trkpt lat="40.4205083" lon="15.2050683"><ele>333.0</ele><time>2026-05-02T16:17:29.976Z</time></trkpt><trkpt lat="40.4205433" lon="15.205235"><ele>331.0</ele><time>2026-05-02T16:17:30.975Z</time></trkpt><trkpt lat="40.42058" lon="15.205395"><ele>329.0</ele><time>2026-05-02T16:17:31.975Z</time></trkpt><trkpt lat="40.42063" lon="15.2055283"><ele>329.0</ele><time>2026-05-02T16:17:32.975Z</time></trkpt><trkpt lat="40.4206983" lon="15.205655"><ele>329.0</ele><time>2026-05-02T16:17:33.976Z</time></trkpt><trkpt lat="40.4207867" lon="15.2057717"><ele>329.0</ele><time>2026-05-02T16:17:34.975Z</time></trkpt><trkpt lat="40.420885" lon="15.2058767"><ele>329.0</ele><time>2026-05-02T16:17:35.975Z</time></trkpt><trkpt lat="40.4209967" lon="15.2059767"><ele>327.0</ele><time>2026-05-02T16:17:36.975Z</time></trkpt><trkpt lat="40.4211283" lon="15.2060717"><ele>325.0</ele><time>2026-05-02T16:17:37.975Z</time></trkpt><trkpt lat="40.4212617" lon="15.20616"><ele>323.0</ele><time>2026-05-02T16:17:38.975Z</time></trkpt><trkpt lat="40.4214033" lon="15.2062417"><ele>323.0</ele><time>2026-05-02T16:17:39.975Z</time></trkpt><trkpt lat="40.4215583" lon="15.20629"><ele>323.0</ele><time>2026-05-02T16:17:40.976Z</time></trkpt><trkpt lat="40.4217167" lon="15.206325"><ele>323.0</ele><time>2026-05-02T16:17:41.976Z</time></trkpt><trkpt lat="40.42187" lon="15.20635"><ele>323.0</ele><time>2026-05-02T16:17:42.975Z</time></trkpt><trkpt lat="40.4220167" lon="15.2063783"><ele>323.0</ele><time>2026-05-02T16:17:43.975Z</time></trkpt><trkpt lat="40.422155" lon="15.206395"><ele>323.0</ele><time>2026-05-02T16:17:44.975Z</time></trkpt><trkpt lat="40.42229" lon="15.2063967"><ele>323.0</ele><time>2026-05-02T16:17:45.975Z</time></trkpt><trkpt lat="40.42242" lon="15.2063633"><ele>323.0</ele><time>2026-05-02T16:17:46.975Z</time></trkpt><trkpt lat="40.4225417" lon="15.2062967"><ele>323.0</ele><time>2026-05-02T16:17:47.975Z</time></trkpt><trkpt lat="40.422665" lon="15.2062083"><ele>323.0</ele><time>2026-05-02T16:17:48.976Z</time></trkpt><trkpt lat="40.422775" lon="15.206105"><ele>323.0</ele><time>2026-05-02T16:17:49.975Z</time></trkpt><trkpt lat="40.422875" lon="15.2059883"><ele>323.0</ele><time>2026-05-02T16:17:50.975Z</time></trkpt><trkpt lat="40.4229533" lon="15.2058533"><ele>323.0</ele><time>2026-05-02T16:17:51.975Z</time></trkpt><trkpt lat="40.423025" lon="15.2057117"><ele>323.0</ele><time>2026-05-02T16:17:52.975Z</time></trkpt><trkpt lat="40.4231033" lon="15.2055883"><ele>323.0</ele><time>2026-05-02T16:17:53.975Z</time></trkpt><trkpt lat="40.42319" lon="15.2054983"><ele>318.0</ele><time>2026-05-02T16:17:54.975Z</time></trkpt><trkpt lat="40.42329" lon="15.2054617"><ele>313.0</ele><time>2026-05-02T16:17:55.975Z</time></trkpt><trkpt lat="40.4234033" lon="15.2054783"><ele>308.0</ele><time>2026-05-02T16:17:56.975Z</time></trkpt><trkpt lat="40.4235333" lon="15.2055217"><ele>303.0</ele><time>2026-05-02T16:17:57.975Z</time></trkpt><trkpt lat="40.4236567" lon="15.2055817"><ele>303.0</ele><time>2026-05-02T16:17:58.975Z</time></trkpt><trkpt lat="40.4237833" lon="15.20563"><ele>303.0</ele><time>2026-05-02T16:17:59.976Z</time></trkpt><trkpt lat="40.4238967" lon="15.2056767"><ele>303.0</ele><time>2026-05-02T16:18:00.975Z</time></trkpt><trkpt lat="40.424005" lon="15.2057167"><ele>303.0</ele><time>2026-05-02T16:18:01.976Z</time></trkpt><trkpt lat="40.4241183" lon="15.205755"><ele>307.5</ele><time>2026-05-02T16:18:02.976Z</time></trkpt><trkpt lat="40.4242333" lon="15.2057883"><ele>312.0</ele><time>2026-05-02T16:18:03.975Z</time></trkpt><trkpt lat="40.4243583" lon="15.205825"><ele>316.5</ele><time>2026-05-02T16:18:04.975Z</time></trkpt><trkpt lat="40.4244883" lon="15.2058783"><ele>321.0</ele><time>2026-05-02T16:18:05.976Z</time></trkpt><trkpt lat="40.424615" lon="15.2059267"><ele>318.5</ele><time>2026-05-02T16:18:06.976Z</time></trkpt><trkpt lat="40.42475" lon="15.20596"><ele>316.0</ele><time>2026-05-02T16:18:07.975Z</time></trkpt><trkpt lat="40.4248767" lon="15.2059733"><ele>313.5</ele><time>2026-05-02T16:18:08.975Z</time></trkpt><trkpt lat="40.4249917" lon="15.2059633"><ele>311.0</ele><time>2026-05-02T16:18:09.976Z</time></trkpt><trkpt lat="40.4250917" lon="15.205935"><ele>311.0</ele><time>2026-05-02T16:18:10.975Z</time></trkpt><trkpt lat="40.4251867" lon="15.2059"><ele>311.0</ele><time>2026-05-02T16:18:11.976Z</time></trkpt><trkpt lat="40.42528" lon="15.2058617"><ele>311.0</ele><time>2026-05-02T16:18:12.975Z</time></trkpt><trkpt lat="40.42536" lon="15.20588"><ele>311.0</ele><time>2026-05-02T16:18:13.975Z</time></trkpt><trkpt lat="40.425415" lon="15.205955"><ele>311.0</ele><time>2026-05-02T16:18:14.975Z</time></trkpt><trkpt lat="40.425435" lon="15.2060733"><ele>311.0</ele><time>2026-05-02T16:18:15.975Z</time></trkpt><trkpt lat="40.42541" lon="15.2062083"><ele>311.0</ele><time>2026-05-02T16:18:16.975Z</time></trkpt><trkpt lat="40.42536" lon="15.2063667"><ele>311.0</ele><time>2026-05-02T16:18:17.976Z</time></trkpt><trkpt lat="40.42533" lon="15.2065"><ele>311.0</ele><time>2026-05-02T16:18:18.975Z</time></trkpt><trkpt lat="40.4253317" lon="15.2066383"><ele>311.0</ele><time>2026-05-02T16:18:19.975Z</time></trkpt><trkpt lat="40.425375" lon="15.206765"><ele>311.0</ele><time>2026-05-02T16:18:20.976Z</time></trkpt><trkpt lat="40.425445" lon="15.2068867"><ele>309.25</ele><time>2026-05-02T16:18:21.975Z</time></trkpt><trkpt lat="40.4255233" lon="15.2070067"><ele>307.5</ele><time>2026-05-02T16:18:22.975Z</time></trkpt><trkpt lat="40.4255983" lon="15.2071267"><ele>305.75</ele><time>2026-05-02T16:18:23.975Z</time></trkpt><trkpt lat="40.425675" lon="15.207245"><ele>304.0</ele><time>2026-05-02T16:18:24.975Z</time></trkpt><trkpt lat="40.4257533" lon="15.2073633"><ele>304.0</ele><time>2026-05-02T16:18:25.976Z</time></trkpt><trkpt lat="40.4258367" lon="15.2074933"><ele>304.0</ele><time>2026-05-02T16:18:26.975Z</time></trkpt><trkpt lat="40.4259233" lon="15.20764"><ele>304.0</ele><time>2026-05-02T16:18:27.975Z</time></trkpt><trkpt lat="40.4260083" lon="15.2077917"><ele>304.0</ele><time>2026-05-02T16:18:28.975Z</time></trkpt><trkpt lat="40.4260967" lon="15.207935"><ele>304.0</ele><time>2026-05-02T16:18:29.975Z</time></trkpt><trkpt lat="40.4261783" lon="15.2080717"><ele>304.0</ele><time>2026-05-02T16:18:30.976Z</time></trkpt><trkpt lat="40.4262567" lon="15.2082017"><ele>304.0</ele><time>2026-05-02T16:18:31.975Z</time></trkpt><trkpt lat="40.4263267" lon="15.20833"><ele>304.0</ele><time>2026-05-02T16:18:32.975Z</time></trkpt><trkpt lat="40.4263817" lon="15.20846"><ele>303.0</ele><time>2026-05-02T16:18:33.975Z</time></trkpt><trkpt lat="40.4264133" lon="15.2086017"><ele>302.0</ele><time>2026-05-02T16:18:34.976Z</time></trkpt><trkpt lat="40.4264317" lon="15.20875"><ele>301.0</ele><time>2026-05-02T16:18:35.975Z</time></trkpt><trkpt lat="40.4264333" lon="15.2088833"><ele>300.0</ele><time>2026-05-02T16:18:36.975Z</time></trkpt><trkpt lat="40.4264583" lon="15.2089967"><ele>299.0</ele><time>2026-05-02T16:18:37.975Z</time></trkpt><trkpt lat="40.426505" lon="15.2090767"><ele>299.0</ele><time>2026-05-02T16:18:38.975Z</time></trkpt><trkpt lat="40.4265783" lon="15.209115"><ele>299.0</ele><time>2026-05-02T16:18:39.975Z</time></trkpt><trkpt lat="40.426665" lon="15.2091133"><ele>299.0</ele><time>2026-05-02T16:18:40.975Z</time></trkpt><trkpt lat="40.426745" lon="15.2090817"><ele>299.0</ele><time>2026-05-02T16:18:41.975Z</time></trkpt><trkpt lat="40.426825" lon="15.20903"><ele>299.0</ele><time>2026-05-02T16:18:42.976Z</time></trkpt><trkpt lat="40.4269117" lon="15.209"><ele>299.0</ele><time>2026-05-02T16:18:43.976Z</time></trkpt><trkpt lat="40.4270033" lon="15.2090083"><ele>299.0</ele><time>2026-05-02T16:18:44.976Z</time></trkpt><trkpt lat="40.4270967" lon="15.209065"><ele>299.0</ele><time>2026-05-02T16:18:45.976Z</time></trkpt><trkpt lat="40.427155" lon="15.2091767"><ele>299.0</ele><time>2026-05-02T16:18:46.975Z</time></trkpt><trkpt lat="40.4272167" lon="15.209305"><ele>299.0</ele><time>2026-05-02T16:18:47.975Z</time></trkpt><trkpt lat="40.4272933" lon="15.20944"><ele>297.0</ele><time>2026-05-02T16:18:48.975Z</time></trkpt><trkpt lat="40.427385" lon="15.2095583"><ele>295.0</ele><time>2026-05-02T16:18:49.975Z</time></trkpt><trkpt lat="40.4274983" lon="15.2096633"><ele>293.0</ele><time>2026-05-02T16:18:50.976Z</time></trkpt><trkpt lat="40.427625" lon="15.2097567"><ele>291.0</ele><time>2026-05-02T16:18:51.976Z</time></trkpt><trkpt lat="40.4277617" lon="15.2098333"><ele>291.0</ele><time>2026-05-02T16:18:52.975Z</time></trkpt><trkpt lat="40.4278933" lon="15.2099117"><ele>291.0</ele><time>2026-05-02T16:18:53.976Z</time></trkpt><trkpt lat="40.428035" lon="15.2099817"><ele>291.0</ele><time>2026-05-02T16:18:54.975Z</time></trkpt><trkpt lat="40.4281683" lon="15.2100533"><ele>291.0</ele><time>2026-05-02T16:18:55.976Z</time></trkpt><trkpt lat="40.4282983" lon="15.2101217"><ele>288.25</ele><time>2026-05-02T16:18:56.976Z</time></trkpt><trkpt lat="40.428425" lon="15.2101983"><ele>285.5</ele><time>2026-05-02T16:18:57.975Z</time></trkpt><trkpt lat="40.42853" lon="15.2102867"><ele>282.75</ele><time>2026-05-02T16:18:58.976Z</time></trkpt><trkpt lat="40.4286017" lon="15.210395"><ele>280.0</ele><time>2026-05-02T16:18:59.976Z</time></trkpt><trkpt lat="40.4286333" lon="15.210535"><ele>280.5</ele><time>2026-05-02T16:19:00.976Z</time></trkpt><trkpt lat="40.4286533" lon="15.2106917"><ele>281.0</ele><time>2026-05-02T16:19:01.976Z</time></trkpt><trkpt lat="40.4286517" lon="15.2108583"><ele>281.5</ele><time>2026-05-02T16:19:02.975Z</time></trkpt><trkpt lat="40.4286417" lon="15.2110417"><ele>282.0</ele><time>2026-05-02T16:19:03.975Z</time></trkpt><trkpt lat="40.42862" lon="15.21123"><ele>282.0</ele><time>2026-05-02T16:19:04.975Z</time></trkpt><trkpt lat="40.4285883" lon="15.2114083"><ele>282.0</ele><time>2026-05-02T16:19:05.976Z</time></trkpt><trkpt lat="40.428535" lon="15.211565"><ele>282.0</ele><time>2026-05-02T16:19:06.975Z</time></trkpt><trkpt lat="40.4284883" lon="15.21172"><ele>282.0</ele><time>2026-05-02T16:19:07.975Z</time></trkpt><trkpt lat="40.4284683" lon="15.2118833"><ele>281.25</ele><time>2026-05-02T16:19:08.976Z</time></trkpt><trkpt lat="40.4284783" lon="15.2120433"><ele>280.5</ele><time>2026-05-02T16:19:09.975Z</time></trkpt><trkpt lat="40.4285133" lon="15.21219"><ele>279.75</ele><time>2026-05-02T16:19:10.975Z</time></trkpt><trkpt lat="40.4285517" lon="15.21233"><ele>279.0</ele><time>2026-05-02T16:19:11.976Z</time></trkpt><trkpt lat="40.4285883" lon="15.2124633"><ele>278.4</ele><time>2026-05-02T16:19:12.975Z</time></trkpt><trkpt lat="40.4286067" lon="15.2125983"><ele>277.79999999999995</ele><time>2026-05-02T16:19:13.976Z</time></trkpt><trkpt lat="40.4286017" lon="15.21273"><ele>277.20000000000005</ele><time>2026-05-02T16:19:14.976Z</time></trkpt><trkpt lat="40.4285733" lon="15.21286"><ele>276.6</ele><time>2026-05-02T16:19:15.975Z</time></trkpt><trkpt lat="40.4285283" lon="15.2129883"><ele>276.0</ele><time>2026-05-02T16:19:16.976Z</time></trkpt><trkpt lat="40.42848" lon="15.2131033"><ele>275.40000000000003</ele><time>2026-05-02T16:19:17.975Z</time></trkpt><trkpt lat="40.42844" lon="15.213225"><ele>274.8</ele><time>2026-05-02T16:19:18.975Z</time></trkpt><trkpt lat="40.4284233" lon="15.213365"><ele>274.20000000000005</ele><time>2026-05-02T16:19:19.975Z</time></trkpt><trkpt lat="40.42844" lon="15.2135033"><ele>273.6</ele><time>2026-05-02T16:19:20.975Z</time></trkpt><trkpt lat="40.4284783" lon="15.21363"><ele>273.0</ele><time>2026-05-02T16:19:21.976Z</time></trkpt><trkpt lat="40.4285233" lon="15.2137583"><ele>273.0</ele><time>2026-05-02T16:19:22.975Z</time></trkpt><trkpt lat="40.428575" lon="15.21389"><ele>273.0</ele><time>2026-05-02T16:19:23.976Z</time></trkpt><trkpt lat="40.428615" lon="15.214025"><ele>273.0</ele><time>2026-05-02T16:19:24.975Z</time></trkpt><trkpt lat="40.42865" lon="15.2141583"><ele>273.0</ele><time>2026-05-02T16:19:25.976Z</time></trkpt><trkpt lat="40.428675" lon="15.21429"><ele>273.0</ele><time>2026-05-02T16:19:26.975Z</time></trkpt><trkpt lat="40.4286833" lon="15.214425"><ele>271.0</ele><time>2026-05-02T16:19:27.975Z</time></trkpt></trkseg><trkseg><trkpt lat="40.4280687" lon="15.2914121"><ele>251.0</ele><time>2026-05-02T16:28:52.884Z</time></trkpt><trkpt lat="40.4283634" lon="15.2918288"><ele>259.0</ele><time>2026-05-02T16:28:55.883Z</time></trkpt><trkpt lat="40.428502" lon="15.2919209"><ele>259.0</ele><time>2026-05-02T16:28:56.883Z</time></trkpt><trkpt lat="40.4286361" lon="15.2919921"><ele>259.0</ele><time>2026-05-02T16:28:57.884Z</time></trkpt><trkpt lat="40.4287509" lon="15.2920526"><ele>259.0</ele><time>2026-05-02T16:28:58.884Z</time></trkpt><trkpt lat="40.4288427" lon="15.2921439"><ele>259.0</ele><time>2026-05-02T16:28:59.884Z</time></trkpt><trkpt lat="40.4288881" lon="15.2922583"><ele>256.2</ele><time>2026-05-02T16:29:00.884Z</time></trkpt><trkpt lat="40.428879" lon="15.2923831"><ele>253.39999999999998</ele><time>2026-05-02T16:29:01.884Z</time></trkpt><trkpt lat="40.4288319" lon="15.2925074"><ele>250.6</ele><time>2026-05-02T16:29:02.884Z</time></trkpt><trkpt lat="40.4287668" lon="15.2926321"><ele>247.8</ele><time>2026-05-02T16:29:03.884Z</time></trkpt><trkpt lat="40.4286899" lon="15.2927349"><ele>245.0</ele><time>2026-05-02T16:29:04.884Z</time></trkpt><trkpt lat="40.4286097" lon="15.2928242"><ele>250.6</ele><time>2026-05-02T16:29:05.884Z</time></trkpt><trkpt lat="40.4285362" lon="15.2929127"><ele>256.2</ele><time>2026-05-02T16:29:06.884Z</time></trkpt><trkpt lat="40.428484" lon="15.2930184"><ele>261.8</ele><time>2026-05-02T16:29:07.883Z</time></trkpt><trkpt lat="40.4284614" lon="15.2931509"><ele>267.4</ele><time>2026-05-02T16:29:08.884Z</time></trkpt><trkpt lat="40.4284665" lon="15.2933071"><ele>273.0</ele><time>2026-05-02T16:29:09.884Z</time></trkpt><trkpt lat="40.4284991" lon="15.2934606"><ele>273.0</ele><time>2026-05-02T16:29:10.884Z</time></trkpt><trkpt lat="40.4285416" lon="15.2935912"><ele>273.0</ele><time>2026-05-02T16:29:11.884Z</time></trkpt><trkpt lat="40.4286027" lon="15.2937017"><ele>273.0</ele><time>2026-05-02T16:29:12.884Z</time></trkpt><trkpt lat="40.4286855" lon="15.2937571"><ele>273.0</ele><time>2026-05-02T16:29:13.883Z</time></trkpt><trkpt lat="40.4287771" lon="15.2937587"><ele>273.0</ele><time>2026-05-02T16:29:14.884Z</time></trkpt><trkpt lat="40.4288707" lon="15.2937197"><ele>269.2</ele><time>2026-05-02T16:29:15.884Z</time></trkpt><trkpt lat="40.4289687" lon="15.2936476"><ele>265.4</ele><time>2026-05-02T16:29:16.884Z</time></trkpt><trkpt lat="40.4290698" lon="15.2935715"><ele>261.59999999999997</ele><time>2026-05-02T16:29:17.884Z</time></trkpt><trkpt lat="40.4291731" lon="15.2935392"><ele>257.8</ele><time>2026-05-02T16:29:18.884Z</time></trkpt><trkpt lat="40.4292849" lon="15.2935361"><ele>254.0</ele><time>2026-05-02T16:29:19.884Z</time></trkpt><trkpt lat="40.4293884" lon="15.2935822"><ele>254.0</ele><time>2026-05-02T16:29:20.884Z</time></trkpt><trkpt lat="40.4295037" lon="15.2936546"><ele>254.0</ele><time>2026-05-02T16:29:21.883Z</time></trkpt><trkpt lat="40.4296137" lon="15.2937453"><ele>254.0</ele><time>2026-05-02T16:29:22.883Z</time></trkpt><trkpt lat="40.429726" lon="15.2938423"><ele>254.0</ele><time>2026-05-02T16:29:23.884Z</time></trkpt><trkpt lat="40.4298414" lon="15.2939514"><ele>256.5</ele><time>2026-05-02T16:29:24.884Z</time></trkpt><trkpt lat="40.4299444" lon="15.2940531"><ele>259.0</ele><time>2026-05-02T16:29:25.883Z</time></trkpt><trkpt lat="40.4300245" lon="15.2941787"><ele>261.5</ele><time>2026-05-02T16:29:26.884Z</time></trkpt><trkpt lat="40.4300669" lon="15.2943203"><ele>264.0</ele><time>2026-05-02T16:29:27.884Z</time></trkpt><trkpt lat="40.4300649" lon="15.2944864"><ele>264.0</ele><time>2026-05-02T16:29:28.884Z</time></trkpt><trkpt lat="40.4300317" lon="15.2946529"><ele>264.0</ele><time>2026-05-02T16:29:29.884Z</time></trkpt><trkpt lat="40.4299897" lon="15.2948213"><ele>264.0</ele><time>2026-05-02T16:29:30.884Z</time></trkpt><trkpt lat="40.4299621" lon="15.2950021"><ele>264.0</ele><time>2026-05-02T16:29:31.884Z</time></trkpt><trkpt lat="40.4299599" lon="15.2951896"><ele>265.5</ele><time>2026-05-02T16:29:32.883Z</time></trkpt><trkpt lat="40.429971" lon="15.2953772"><ele>267.0</ele><time>2026-05-02T16:29:33.883Z</time></trkpt><trkpt lat="40.4299974" lon="15.2955496"><ele>268.5</ele><time>2026-05-02T16:29:34.884Z</time></trkpt><trkpt lat="40.4300333" lon="15.295704"><ele>270.0</ele><time>2026-05-02T16:29:35.884Z</time></trkpt><trkpt lat="40.4300908" lon="15.2958254"><ele>270.75</ele><time>2026-05-02T16:29:36.884Z</time></trkpt><trkpt lat="40.4301756" lon="15.2959068"><ele>271.5</ele><time>2026-05-02T16:29:37.884Z</time></trkpt><trkpt lat="40.4302832" lon="15.2959647"><ele>272.25</ele><time>2026-05-02T16:29:38.884Z</time></trkpt><trkpt lat="40.4304138" lon="15.2959853"><ele>273.0</ele><time>2026-05-02T16:29:39.884Z</time></trkpt><trkpt lat="40.4305477" lon="15.2959964"><ele>273.0</ele><time>2026-05-02T16:29:40.884Z</time></trkpt><trkpt lat="40.4306878" lon="15.2959908"><ele>273.0</ele><time>2026-05-02T16:29:41.884Z</time></trkpt><trkpt lat="40.4308187" lon="15.2959915"><ele>273.0</ele><time>2026-05-02T16:29:42.884Z</time></trkpt><trkpt lat="40.4309501" lon="15.2959879"><ele>273.0</ele><time>2026-05-02T16:29:43.884Z</time></trkpt><trkpt lat="40.4310853" lon="15.2960291"><ele>273.0</ele><time>2026-05-02T16:29:44.884Z</time></trkpt><trkpt lat="40.4312198" lon="15.2961211"><ele>273.0</ele><time>2026-05-02T16:29:45.884Z</time></trkpt><trkpt lat="40.4313438" lon="15.2962429"><ele>273.0</ele><time>2026-05-02T16:29:46.884Z</time></trkpt><trkpt lat="40.4314389" lon="15.2963718"><ele>273.0</ele><time>2026-05-02T16:29:47.884Z</time></trkpt><trkpt lat="40.4315024" lon="15.2965267"><ele>271.3333333333333</ele><time>2026-05-02T16:29:48.883Z</time></trkpt><trkpt lat="40.4315203" lon="15.2967306"><ele>269.66666666666663</ele><time>2026-05-02T16:29:49.884Z</time></trkpt><trkpt lat="40.4314883" lon="15.2969417"><ele>268.0</ele><time>2026-05-02T16:29:50.884Z</time></trkpt><trkpt lat="40.4314576" lon="15.2971379"><ele>269.4</ele><time>2026-05-02T16:29:51.884Z</time></trkpt><trkpt lat="40.4314281" lon="15.2972965"><ele>270.8</ele><time>2026-05-02T16:29:52.884Z</time></trkpt><trkpt lat="40.4314154" lon="15.2974211"><ele>272.2</ele><time>2026-05-02T16:29:53.884Z</time></trkpt><trkpt lat="40.431423" lon="15.2975289"><ele>273.6</ele><time>2026-05-02T16:29:54.884Z</time></trkpt><trkpt lat="40.4314595" lon="15.2976211"><ele>275.0</ele><time>2026-05-02T16:29:55.884Z</time></trkpt><trkpt lat="40.43152" lon="15.2977067"><ele>275.0</ele><time>2026-05-02T16:29:56.883Z</time></trkpt><trkpt lat="40.4315987" lon="15.2977809"><ele>275.0</ele><time>2026-05-02T16:29:57.883Z</time></trkpt><trkpt lat="40.4316664" lon="15.2978436"><ele>275.0</ele><time>2026-05-02T16:29:58.884Z</time></trkpt><trkpt lat="40.4317075" lon="15.2979085"><ele>275.0</ele><time>2026-05-02T16:29:59.884Z</time></trkpt><trkpt lat="40.4316913" lon="15.2980553"><ele>275.0</ele><time>2026-05-02T16:30:01.884Z</time></trkpt><trkpt lat="40.431634" lon="15.2981048"><ele>275.0</ele><time>2026-05-02T16:30:02.884Z</time></trkpt><trkpt lat="40.4314975" lon="15.2980388"><ele>275.0</ele><time>2026-05-02T16:30:04.884Z</time></trkpt><trkpt lat="40.431426" lon="15.2979408"><ele>275.0</ele><time>2026-05-02T16:30:05.883Z</time></trkpt><trkpt lat="40.4313598" lon="15.2978165"><ele>275.0</ele><time>2026-05-02T16:30:06.884Z</time></trkpt><trkpt lat="40.4313078" lon="15.297682"><ele>275.0</ele><time>2026-05-02T16:30:07.884Z</time></trkpt><trkpt lat="40.4312783" lon="15.2975267"><ele>273.25</ele><time>2026-05-02T16:30:08.884Z</time></trkpt><trkpt lat="40.4312783" lon="15.2973618"><ele>271.5</ele><time>2026-05-02T16:30:09.884Z</time></trkpt><trkpt lat="40.4312906" lon="15.2971987"><ele>269.75</ele><time>2026-05-02T16:30:10.883Z</time></trkpt><trkpt lat="40.4313011" lon="15.2970522"><ele>268.0</ele><time>2026-05-02T16:30:11.883Z</time></trkpt><trkpt lat="40.4313098" lon="15.2969178"><ele>268.0</ele><time>2026-05-02T16:30:12.884Z</time></trkpt><trkpt lat="40.431308" lon="15.2967983"><ele>268.0</ele><time>2026-05-02T16:30:13.884Z</time></trkpt><trkpt lat="40.4312937" lon="15.2966839"><ele>268.0</ele><time>2026-05-02T16:30:14.884Z</time></trkpt><trkpt lat="40.4312579" lon="15.2965742"><ele>268.0</ele><time>2026-05-02T16:30:15.884Z</time></trkpt><trkpt lat="40.4311922" lon="15.2964988"><ele>268.0</ele><time>2026-05-02T16:30:16.884Z</time></trkpt><trkpt lat="40.4311082" lon="15.2964638"><ele>268.0</ele><time>2026-05-02T16:30:17.884Z</time></trkpt><trkpt lat="40.4310027" lon="15.296476"><ele>273.25</ele><time>2026-05-02T16:30:18.883Z</time></trkpt><trkpt lat="40.4308777" lon="15.2965301"><ele>278.5</ele><time>2026-05-02T16:30:19.884Z</time></trkpt><trkpt lat="40.4307314" lon="15.2966006"><ele>283.75</ele><time>2026-05-02T16:30:20.884Z</time></trkpt><trkpt lat="40.4305793" lon="15.2966295"><ele>289.0</ele><time>2026-05-02T16:30:21.884Z</time></trkpt><trkpt lat="40.4304167" lon="15.296619"><ele>292.0</ele><time>2026-05-02T16:30:22.884Z</time></trkpt><trkpt lat="40.4302585" lon="15.2965923"><ele>295.0</ele><time>2026-05-02T16:30:23.884Z</time></trkpt><trkpt lat="40.4300982" lon="15.2965896"><ele>298.0</ele><time>2026-05-02T16:30:24.884Z</time></trkpt><trkpt lat="40.4299343" lon="15.2966302"><ele>298.0</ele><time>2026-05-02T16:30:25.883Z</time></trkpt><trkpt lat="40.4297724" lon="15.2966691"><ele>298.0</ele><time>2026-05-02T16:30:26.884Z</time></trkpt><trkpt lat="40.4296119" lon="15.2966815"><ele>298.0</ele><time>2026-05-02T16:30:27.883Z</time></trkpt><trkpt lat="40.4294397" lon="15.2966685"><ele>299.3333333333333</ele><time>2026-05-02T16:30:28.884Z</time></trkpt><trkpt lat="40.4292708" lon="15.2966393"><ele>300.6666666666667</ele><time>2026-05-02T16:30:29.884Z</time></trkpt><trkpt lat="40.4291064" lon="15.2965819"><ele>302.0</ele><time>2026-05-02T16:30:30.884Z</time></trkpt><trkpt lat="40.4289423" lon="15.2965056"><ele>301.33333333333337</ele><time>2026-05-02T16:30:31.884Z</time></trkpt><trkpt lat="40.4287735" lon="15.2964328"><ele>300.6666666666667</ele><time>2026-05-02T16:30:32.884Z</time></trkpt><trkpt lat="40.4286162" lon="15.2963664"><ele>300.0</ele><time>2026-05-02T16:30:33.884Z</time></trkpt><trkpt lat="40.4284543" lon="15.2963359"><ele>300.0</ele><time>2026-05-02T16:30:34.884Z</time></trkpt><trkpt lat="40.4282795" lon="15.2963514"><ele>300.0</ele><time>2026-05-02T16:30:35.883Z</time></trkpt><trkpt lat="40.4281073" lon="15.296395"><ele>300.0</ele><time>2026-05-02T16:30:36.884Z</time></trkpt><trkpt lat="40.427946" lon="15.2964215"><ele>304.0</ele><time>2026-05-02T16:30:37.884Z</time></trkpt><trkpt lat="40.4277841" lon="15.2964192"><ele>308.0</ele><time>2026-05-02T16:30:38.884Z</time></trkpt><trkpt lat="40.42762" lon="15.2963985"><ele>312.0</ele><time>2026-05-02T16:30:39.883Z</time></trkpt><trkpt lat="40.42746" lon="15.2963933"><ele>312.0</ele><time>2026-05-02T16:30:40.884Z</time></trkpt><trkpt lat="40.4273048" lon="15.2964175"><ele>312.0</ele><time>2026-05-02T16:30:41.883Z</time></trkpt><trkpt lat="40.427176" lon="15.2964523"><ele>312.0</ele><time>2026-05-02T16:30:42.884Z</time></trkpt><trkpt lat="40.4270721" lon="15.2964648"><ele>312.0</ele><time>2026-05-02T16:30:43.884Z</time></trkpt><trkpt lat="40.4269935" lon="15.2964291"><ele>315.1666666666667</ele><time>2026-05-02T16:30:44.883Z</time></trkpt><trkpt lat="40.4269257" lon="15.2963647"><ele>318.3333333333333</ele><time>2026-05-02T16:30:45.884Z</time></trkpt><trkpt lat="40.4268755" lon="15.2962674"><ele>321.5</ele><time>2026-05-02T16:30:46.884Z</time></trkpt><trkpt lat="40.4268375" lon="15.2961668"><ele>324.66666666666663</ele><time>2026-05-02T16:30:47.883Z</time></trkpt><trkpt lat="40.4268239" lon="15.2960713"><ele>327.8333333333333</ele><time>2026-05-02T16:30:48.884Z</time></trkpt><trkpt lat="40.4268462" lon="15.2959803"><ele>331.0</ele><time>2026-05-02T16:30:49.884Z</time></trkpt><trkpt lat="40.4269025" lon="15.2958892"><ele>331.0</ele><time>2026-05-02T16:30:50.884Z</time></trkpt><trkpt lat="40.4269573" lon="15.295779"><ele>331.0</ele><time>2026-05-02T16:30:51.883Z</time></trkpt><trkpt lat="40.426988" lon="15.295652"><ele>331.0</ele><time>2026-05-02T16:30:52.884Z</time></trkpt><trkpt lat="40.4269939" lon="15.2955111"><ele>331.0</ele><time>2026-05-02T16:30:53.883Z</time></trkpt><trkpt lat="40.4269907" lon="15.2953634"><ele>331.0</ele><time>2026-05-02T16:30:54.884Z</time></trkpt><trkpt lat="40.4270055" lon="15.2952028"><ele>333.5</ele><time>2026-05-02T16:30:55.884Z</time></trkpt><trkpt lat="40.4270601" lon="15.2950694"><ele>336.0</ele><time>2026-05-02T16:30:56.884Z</time></trkpt><trkpt lat="40.4271501" lon="15.2949682"><ele>338.5</ele><time>2026-05-02T16:30:57.884Z</time></trkpt><trkpt lat="40.4272549" lon="15.2948821"><ele>341.0</ele><time>2026-05-02T16:30:58.883Z</time></trkpt><trkpt lat="40.4273434" lon="15.2947881"><ele>337.0</ele><time>2026-05-02T16:30:59.884Z</time></trkpt><trkpt lat="40.4274073" lon="15.2946719"><ele>333.0</ele><time>2026-05-02T16:31:00.884Z</time></trkpt><trkpt lat="40.4274465" lon="15.294528"><ele>329.0</ele><time>2026-05-02T16:31:01.884Z</time></trkpt><trkpt lat="40.4274572" lon="15.2943812"><ele>325.0</ele><time>2026-05-02T16:31:02.884Z</time></trkpt><trkpt lat="40.4274486" lon="15.2942476"><ele>321.0</ele><time>2026-05-02T16:31:03.884Z</time></trkpt><trkpt lat="40.4274166" lon="15.2941249"><ele>321.0</ele><time>2026-05-02T16:31:04.883Z</time></trkpt><trkpt lat="40.4273533" lon="15.2940168"><ele>321.0</ele><time>2026-05-02T16:31:05.884Z</time></trkpt><trkpt lat="40.4272736" lon="15.29393"><ele>321.0</ele><time>2026-05-02T16:31:06.883Z</time></trkpt><trkpt lat="40.427185" lon="15.2938499"><ele>321.0</ele><time>2026-05-02T16:31:07.883Z</time></trkpt><trkpt lat="40.4271048" lon="15.2937714"><ele>321.0</ele><time>2026-05-02T16:31:08.884Z</time></trkpt><trkpt lat="40.4270398" lon="15.2936726"><ele>322.5</ele><time>2026-05-02T16:31:09.884Z</time></trkpt><trkpt lat="40.4270018" lon="15.2935508"><ele>324.0</ele><time>2026-05-02T16:31:10.884Z</time></trkpt><trkpt lat="40.4269831" lon="15.2934042"><ele>325.5</ele><time>2026-05-02T16:31:11.884Z</time></trkpt><trkpt lat="40.426956" lon="15.2932477"><ele>327.0</ele><time>2026-05-02T16:31:12.883Z</time></trkpt><trkpt lat="40.426909" lon="15.2930863"><ele>327.0</ele><time>2026-05-02T16:31:13.884Z</time></trkpt><trkpt lat="40.4268386" lon="15.2929434"><ele>327.0</ele><time>2026-05-02T16:31:14.884Z</time></trkpt><trkpt lat="40.4267575" lon="15.2928258"><ele>327.0</ele><time>2026-05-02T16:31:15.883Z</time></trkpt><trkpt lat="40.4266485" lon="15.2927311"><ele>327.0</ele><time>2026-05-02T16:31:16.884Z</time></trkpt><trkpt lat="40.4265136" lon="15.2926556"><ele>327.0</ele><time>2026-05-02T16:31:17.883Z</time></trkpt><trkpt lat="40.4263727" lon="15.2925729"><ele>327.0</ele><time>2026-05-02T16:31:18.884Z</time></trkpt><trkpt lat="40.4262419" lon="15.292485"><ele>327.0</ele><time>2026-05-02T16:31:19.883Z</time></trkpt><trkpt lat="40.4261145" lon="15.292418"><ele>327.0</ele><time>2026-05-02T16:31:20.884Z</time></trkpt><trkpt lat="40.4259716" lon="15.2923725"><ele>331.6666666666667</ele><time>2026-05-02T16:31:21.884Z</time></trkpt><trkpt lat="40.4258131" lon="15.2923665"><ele>336.33333333333337</ele><time>2026-05-02T16:31:22.884Z</time></trkpt><trkpt lat="40.4256458" lon="15.2923501"><ele>341.0</ele><time>2026-05-02T16:31:23.884Z</time></trkpt><trkpt lat="40.4254787" lon="15.292336"><ele>343.0</ele><time>2026-05-02T16:31:24.884Z</time></trkpt><trkpt lat="40.4253198" lon="15.2923277"><ele>345.0</ele><time>2026-05-02T16:31:25.884Z</time></trkpt><trkpt lat="40.4251761" lon="15.2923272"><ele>347.0</ele><time>2026-05-02T16:31:26.883Z</time></trkpt><trkpt lat="40.4250408" lon="15.2923268"><ele>349.0</ele><time>2026-05-02T16:31:27.884Z</time></trkpt><trkpt lat="40.4249118" lon="15.2923064"><ele>347.0</ele><time>2026-05-02T16:31:28.884Z</time></trkpt><trkpt lat="40.4247894" lon="15.292242"><ele>345.0</ele><time>2026-05-02T16:31:29.884Z</time></trkpt><trkpt lat="40.4246877" lon="15.2921535"><ele>343.0</ele><time>2026-05-02T16:31:30.884Z</time></trkpt><trkpt lat="40.4246059" lon="15.29208"><ele>341.0</ele><time>2026-05-02T16:31:31.884Z</time></trkpt><trkpt lat="40.4245148" lon="15.292041"><ele>339.0</ele><time>2026-05-02T16:31:32.884Z</time></trkpt><trkpt lat="40.4244217" lon="15.2920495"><ele>339.0</ele><time>2026-05-02T16:31:33.884Z</time></trkpt><trkpt lat="40.4243252" lon="15.2921049"><ele>339.0</ele><time>2026-05-02T16:31:34.884Z</time></trkpt><trkpt lat="40.4242344" lon="15.2921877"><ele>339.0</ele><time>2026-05-02T16:31:35.884Z</time></trkpt><trkpt lat="40.4241378" lon="15.2922657"><ele>339.0</ele><time>2026-05-02T16:31:36.884Z</time></trkpt><trkpt lat="40.4240416" lon="15.2923057"><ele>339.0</ele><time>2026-05-02T16:31:37.884Z</time></trkpt><trkpt lat="40.423951" lon="15.2923043"><ele>342.75</ele><time>2026-05-02T16:31:38.884Z</time></trkpt><trkpt lat="40.423863" lon="15.2922655"><ele>346.5</ele><time>2026-05-02T16:31:39.884Z</time></trkpt><trkpt lat="40.4237869" lon="15.2921792"><ele>350.25</ele><time>2026-05-02T16:31:40.884Z</time></trkpt><trkpt lat="40.4237258" lon="15.2920428"><ele>354.0</ele><time>2026-05-02T16:31:41.884Z</time></trkpt><trkpt lat="40.4236688" lon="15.2918713"><ele>355.0</ele><time>2026-05-02T16:31:42.883Z</time></trkpt><trkpt lat="40.423616" lon="15.2916908"><ele>356.0</ele><time>2026-05-02T16:31:43.884Z</time></trkpt><trkpt lat="40.4235688" lon="15.2915151"><ele>357.0</ele><time>2026-05-02T16:31:44.883Z</time></trkpt><trkpt lat="40.4235344" lon="15.2913387"><ele>358.0</ele><time>2026-05-02T16:31:45.883Z</time></trkpt><trkpt lat="40.4235333" lon="15.2911592"><ele>358.0</ele><time>2026-05-02T16:31:46.883Z</time></trkpt><trkpt lat="40.423547" lon="15.2909679"><ele>358.0</ele><time>2026-05-02T16:31:47.884Z</time></trkpt><trkpt lat="40.4235556" lon="15.2907711"><ele>358.0</ele><time>2026-05-02T16:31:48.883Z</time></trkpt><trkpt lat="40.4235441" lon="15.2905949"><ele>358.0</ele><time>2026-05-02T16:31:49.884Z</time></trkpt><trkpt lat="40.4235185" lon="15.2904279"><ele>355.0</ele><time>2026-05-02T16:31:50.884Z</time></trkpt><trkpt lat="40.4234887" lon="15.2902757"><ele>352.0</ele><time>2026-05-02T16:31:51.883Z</time></trkpt><trkpt lat="40.4234418" lon="15.290158"><ele>349.0</ele><time>2026-05-02T16:31:52.884Z</time></trkpt><trkpt lat="40.4233697" lon="15.2900818"><ele>346.0</ele><time>2026-05-02T16:31:53.883Z</time></trkpt><trkpt lat="40.4232798" lon="15.2900442"><ele>343.0</ele><time>2026-05-02T16:31:54.883Z</time></trkpt><trkpt lat="40.4231754" lon="15.290062"><ele>343.0</ele><time>2026-05-02T16:31:55.884Z</time></trkpt><trkpt lat="40.4230455" lon="15.2901101"><ele>343.0</ele><time>2026-05-02T16:31:56.883Z</time></trkpt><trkpt lat="40.4228922" lon="15.2901851"><ele>343.0</ele><time>2026-05-02T16:31:57.884Z</time></trkpt><trkpt lat="40.4227115" lon="15.2902691"><ele>345.0</ele><time>2026-05-02T16:31:58.883Z</time></trkpt><trkpt lat="40.4225156" lon="15.2903487"><ele>347.0</ele><time>2026-05-02T16:31:59.883Z</time></trkpt><trkpt lat="40.422341" lon="15.2904264"><ele>349.0</ele><time>2026-05-02T16:32:00.884Z</time></trkpt><trkpt lat="40.4222024" lon="15.2904533"><ele>351.25</ele><time>2026-05-02T16:32:01.884Z</time></trkpt><trkpt lat="40.4220981" lon="15.2904277"><ele>353.5</ele><time>2026-05-02T16:32:02.884Z</time></trkpt><trkpt lat="40.4220037" lon="15.2903319"><ele>355.75</ele><time>2026-05-02T16:32:03.884Z</time></trkpt><trkpt lat="40.4219172" lon="15.2901899"><ele>358.0</ele><time>2026-05-02T16:32:04.884Z</time></trkpt><trkpt lat="40.4218407" lon="15.2900677"><ele>358.0</ele><time>2026-05-02T16:32:05.884Z</time></trkpt><trkpt lat="40.4217543" lon="15.289973"><ele>358.0</ele><time>2026-05-02T16:32:06.884Z</time></trkpt><trkpt lat="40.4216593" lon="15.2899102"><ele>358.0</ele><time>2026-05-02T16:32:07.884Z</time></trkpt><trkpt lat="40.421558" lon="15.2898861"><ele>358.0</ele><time>2026-05-02T16:32:08.884Z</time></trkpt><trkpt lat="40.4214544" lon="15.2898946"><ele>358.0</ele><time>2026-05-02T16:32:09.884Z</time></trkpt><trkpt lat="40.4213339" lon="15.2899144"><ele>359.5</ele><time>2026-05-02T16:32:10.883Z</time></trkpt><trkpt lat="40.4211901" lon="15.2899368"><ele>361.0</ele><time>2026-05-02T16:32:11.884Z</time></trkpt><trkpt lat="40.4210395" lon="15.2899591"><ele>362.5</ele><time>2026-05-02T16:32:12.884Z</time></trkpt><trkpt lat="40.420907" lon="15.2899704"><ele>364.0</ele><time>2026-05-02T16:32:13.884Z</time></trkpt><trkpt lat="40.4207929" lon="15.289948"><ele>364.0</ele><time>2026-05-02T16:32:14.884Z</time></trkpt><trkpt lat="40.420699" lon="15.2898815"><ele>364.0</ele><time>2026-05-02T16:32:15.883Z</time></trkpt><trkpt lat="40.4206293" lon="15.2897743"><ele>364.0</ele><time>2026-05-02T16:32:16.884Z</time></trkpt><trkpt lat="40.4205607" lon="15.2896508"><ele>364.0</ele><time>2026-05-02T16:32:17.884Z</time></trkpt><trkpt lat="40.4204703" lon="15.2895614"><ele>364.0</ele><time>2026-05-02T16:32:18.884Z</time></trkpt><trkpt lat="40.4203583" lon="15.289517"><ele>364.5</ele><time>2026-05-02T16:32:19.884Z</time></trkpt><trkpt lat="40.4202375" lon="15.2895025"><ele>365.0</ele><time>2026-05-02T16:32:20.884Z</time></trkpt><trkpt lat="40.42011" lon="15.2894898"><ele>365.5</ele><time>2026-05-02T16:32:21.884Z</time></trkpt><trkpt lat="40.4200001" lon="15.2894528"><ele>366.0</ele><time>2026-05-02T16:32:22.884Z</time></trkpt><trkpt lat="40.419907" lon="15.2893819"><ele>366.0</ele><time>2026-05-02T16:32:23.884Z</time></trkpt><trkpt lat="40.419835" lon="15.2892682"><ele>366.0</ele><time>2026-05-02T16:32:24.884Z</time></trkpt><trkpt lat="40.4197699" lon="15.2891151"><ele>366.0</ele><time>2026-05-02T16:32:25.883Z</time></trkpt><trkpt lat="40.4196963" lon="15.2889412"><ele>366.0</ele><time>2026-05-02T16:32:26.884Z</time></trkpt><trkpt lat="40.4196255" lon="15.2887784"><ele>366.20000000000005</ele><time>2026-05-02T16:32:27.884Z</time></trkpt><trkpt lat="40.419557" lon="15.2886566"><ele>366.40000000000003</ele><time>2026-05-02T16:32:28.884Z</time></trkpt><trkpt lat="40.4194809" lon="15.2885814"><ele>366.6</ele><time>2026-05-02T16:32:29.884Z</time></trkpt><trkpt lat="40.41939" lon="15.2885509"><ele>366.8</ele><time>2026-05-02T16:32:30.883Z</time></trkpt><trkpt lat="40.4192853" lon="15.2885695"><ele>367.0</ele><time>2026-05-02T16:32:31.884Z</time></trkpt><trkpt lat="40.4191782" lon="15.288621"><ele>367.0</ele><time>2026-05-02T16:32:32.883Z</time></trkpt><trkpt lat="40.4190604" lon="15.2886833"><ele>367.0</ele><time>2026-05-02T16:32:33.884Z</time></trkpt><trkpt lat="40.4189312" lon="15.2887296"><ele>367.0</ele><time>2026-05-02T16:32:34.884Z</time></trkpt><trkpt lat="40.4188047" lon="15.2887225"><ele>367.0</ele><time>2026-05-02T16:32:35.884Z</time></trkpt><trkpt lat="40.4186943" lon="15.2887165"><ele>367.0</ele><time>2026-05-02T16:32:36.883Z</time></trkpt><trkpt lat="40.4186263" lon="15.288763"><ele>367.0</ele><time>2026-05-02T16:32:37.884Z</time></trkpt><trkpt lat="40.418574" lon="15.2888467"><ele>367.0</ele><time>2026-05-02T16:32:38.883Z</time></trkpt><trkpt lat="40.4185364" lon="15.2889596"><ele>367.0</ele><time>2026-05-02T16:32:39.884Z</time></trkpt><trkpt lat="40.4185057" lon="15.2890923"><ele>367.0</ele><time>2026-05-02T16:32:40.884Z</time></trkpt><trkpt lat="40.4184591" lon="15.2892415"><ele>369.5</ele><time>2026-05-02T16:32:41.883Z</time></trkpt><trkpt lat="40.4183955" lon="15.2893863"><ele>372.0</ele><time>2026-05-02T16:32:42.884Z</time></trkpt><trkpt lat="40.4183138" lon="15.2895191"><ele>374.5</ele><time>2026-05-02T16:32:43.884Z</time></trkpt><trkpt lat="40.4182167" lon="15.2896468"><ele>377.0</ele><time>2026-05-02T16:32:44.883Z</time></trkpt><trkpt lat="40.4181261" lon="15.2897771"><ele>380.25</ele><time>2026-05-02T16:32:45.884Z</time></trkpt><trkpt lat="40.4180549" lon="15.2899289"><ele>383.5</ele><time>2026-05-02T16:32:46.884Z</time></trkpt><trkpt lat="40.418012" lon="15.2901009"><ele>386.75</ele><time>2026-05-02T16:32:47.884Z</time></trkpt><trkpt lat="40.417995" lon="15.2902938"><ele>390.0</ele><time>2026-05-02T16:32:48.884Z</time></trkpt><trkpt lat="40.4180087" lon="15.2905219"><ele>393.0</ele><time>2026-05-02T16:32:49.883Z</time></trkpt><trkpt lat="40.4180249" lon="15.2907765"><ele>396.0</ele><time>2026-05-02T16:32:50.884Z</time></trkpt><trkpt lat="40.4180406" lon="15.2910368"><ele>399.0</ele><time>2026-05-02T16:32:51.884Z</time></trkpt><trkpt lat="40.4180469" lon="15.291288"><ele>399.66666666666663</ele><time>2026-05-02T16:32:52.884Z</time></trkpt><trkpt lat="40.4180552" lon="15.2915132"><ele>400.3333333333333</ele><time>2026-05-02T16:32:53.883Z</time></trkpt><trkpt lat="40.4180583" lon="15.2917051"><ele>401.0</ele><time>2026-05-02T16:32:54.884Z</time></trkpt><trkpt lat="40.418081" lon="15.2918766"><ele>401.0</ele><time>2026-05-02T16:32:55.883Z</time></trkpt><trkpt lat="40.4181327" lon="15.2920296"><ele>401.0</ele><time>2026-05-02T16:32:56.884Z</time></trkpt><trkpt lat="40.4182099" lon="15.2921588"><ele>401.0</ele><time>2026-05-02T16:32:57.884Z</time></trkpt><trkpt lat="40.4183079" lon="15.2922809"><ele>401.0</ele><time>2026-05-02T16:32:58.884Z</time></trkpt><trkpt lat="40.4184084" lon="15.2924029"><ele>399.8</ele><time>2026-05-02T16:32:59.884Z</time></trkpt><trkpt lat="40.4184968" lon="15.2925212"><ele>398.6</ele><time>2026-05-02T16:33:00.884Z</time></trkpt><trkpt lat="40.4185588" lon="15.2926411"><ele>397.4</ele><time>2026-05-02T16:33:01.884Z</time></trkpt><trkpt lat="40.4185906" lon="15.2927719"><ele>396.2</ele><time>2026-05-02T16:33:02.884Z</time></trkpt><trkpt lat="40.4185833" lon="15.2929117"><ele>395.0</ele><time>2026-05-02T16:33:03.884Z</time></trkpt><trkpt lat="40.4185393" lon="15.2930641"><ele>395.66666666666663</ele><time>2026-05-02T16:33:04.884Z</time></trkpt><trkpt lat="40.4184821" lon="15.2932505"><ele>396.33333333333337</ele><time>2026-05-02T16:33:05.883Z</time></trkpt><trkpt lat="40.418425" lon="15.2934475"><ele>397.0</ele><time>2026-05-02T16:33:06.884Z</time></trkpt><trkpt lat="40.4183847" lon="15.2936331"><ele>397.0</ele><time>2026-05-02T16:33:07.884Z</time></trkpt><trkpt lat="40.4183684" lon="15.2938102"><ele>397.0</ele><time>2026-05-02T16:33:08.884Z</time></trkpt><trkpt lat="40.4183722" lon="15.2939799"><ele>397.0</ele><time>2026-05-02T16:33:09.884Z</time></trkpt><trkpt lat="40.4183993" lon="15.2941701"><ele>397.0</ele><time>2026-05-02T16:33:10.884Z</time></trkpt><trkpt lat="40.4184445" lon="15.2943603"><ele>397.75</ele><time>2026-05-02T16:33:11.883Z</time></trkpt><trkpt lat="40.4184917" lon="15.2945558"><ele>398.5</ele><time>2026-05-02T16:33:12.884Z</time></trkpt><trkpt lat="40.4185299" lon="15.2947435"><ele>399.25</ele><time>2026-05-02T16:33:13.884Z</time></trkpt><trkpt lat="40.418541" lon="15.2949206"><ele>400.0</ele><time>2026-05-02T16:33:14.884Z</time></trkpt><trkpt lat="40.418529" lon="15.2950665"><ele>400.0</ele><time>2026-05-02T16:33:15.884Z</time></trkpt><trkpt lat="40.4185304" lon="15.2952048"><ele>400.0</ele><time>2026-05-02T16:33:16.884Z</time></trkpt><trkpt lat="40.4185635" lon="15.2953223"><ele>400.0</ele><time>2026-05-02T16:33:17.883Z</time></trkpt><trkpt lat="40.4186239" lon="15.2954153"><ele>400.0</ele><time>2026-05-02T16:33:18.884Z</time></trkpt><trkpt lat="40.4187102" lon="15.2954902"><ele>400.0</ele><time>2026-05-02T16:33:19.884Z</time></trkpt><trkpt lat="40.4188343" lon="15.2955578"><ele>403.0</ele><time>2026-05-02T16:33:20.883Z</time></trkpt><trkpt lat="40.4189899" lon="15.2956284"><ele>406.0</ele><time>2026-05-02T16:33:21.884Z</time></trkpt><trkpt lat="40.4191576" lon="15.2957334"><ele>409.0</ele><time>2026-05-02T16:33:22.884Z</time></trkpt><trkpt lat="40.4193092" lon="15.2958715"><ele>409.0</ele><time>2026-05-02T16:33:23.884Z</time></trkpt><trkpt lat="40.4194348" lon="15.2960231"><ele>409.0</ele><time>2026-05-02T16:33:24.884Z</time></trkpt><trkpt lat="40.4195238" lon="15.2961759"><ele>409.0</ele><time>2026-05-02T16:33:25.884Z</time></trkpt><trkpt lat="40.4196211" lon="15.2963432"><ele>412.33333333333337</ele><time>2026-05-02T16:33:26.884Z</time></trkpt><trkpt lat="40.4197205" lon="15.296523"><ele>415.66666666666663</ele><time>2026-05-02T16:33:27.884Z</time></trkpt><trkpt lat="40.4198052" lon="15.2966978"><ele>419.0</ele><time>2026-05-02T16:33:28.884Z</time></trkpt><trkpt lat="40.4198661" lon="15.2968592"><ele>419.0</ele><time>2026-05-02T16:33:29.883Z</time></trkpt><trkpt lat="40.4198976" lon="15.2970312"><ele>419.0</ele><time>2026-05-02T16:33:30.884Z</time></trkpt><trkpt lat="40.4199144" lon="15.2972314"><ele>419.0</ele><time>2026-05-02T16:33:31.884Z</time></trkpt><trkpt lat="40.4199142" lon="15.2974321"><ele>419.0</ele><time>2026-05-02T16:33:32.884Z</time></trkpt><trkpt lat="40.4199118" lon="15.2976135"><ele>418.75</ele><time>2026-05-02T16:33:33.884Z</time></trkpt><trkpt lat="40.4198811" lon="15.2977737"><ele>418.5</ele><time>2026-05-02T16:33:34.884Z</time></trkpt><trkpt lat="40.4198362" lon="15.2979242"><ele>418.25</ele><time>2026-05-02T16:33:35.884Z</time></trkpt><trkpt lat="40.419759" lon="15.2980623"><ele>418.0</ele><time>2026-05-02T16:33:36.883Z</time></trkpt><trkpt lat="40.4196547" lon="15.2981742"><ele>416.75</ele><time>2026-05-02T16:33:37.884Z</time></trkpt><trkpt lat="40.4195448" lon="15.2982977"><ele>415.5</ele><time>2026-05-02T16:33:38.884Z</time></trkpt><trkpt lat="40.419432" lon="15.2984298"><ele>414.25</ele><time>2026-05-02T16:33:39.883Z</time></trkpt><trkpt lat="40.4193058" lon="15.2985205"><ele>413.0</ele><time>2026-05-02T16:33:40.884Z</time></trkpt><trkpt lat="40.4191844" lon="15.2985696"><ele>413.0</ele><time>2026-05-02T16:33:41.884Z</time></trkpt><trkpt lat="40.4190771" lon="15.2986101"><ele>413.0</ele><time>2026-05-02T16:33:42.883Z</time></trkpt><trkpt lat="40.4189939" lon="15.2986743"><ele>413.0</ele><time>2026-05-02T16:33:43.884Z</time></trkpt><trkpt lat="40.4189271" lon="15.2987725"><ele>413.0</ele><time>2026-05-02T16:33:44.884Z</time></trkpt><trkpt lat="40.4188801" lon="15.2988961"><ele>413.0</ele><time>2026-05-02T16:33:45.883Z</time></trkpt><trkpt lat="40.4188534" lon="15.2990383"><ele>411.75</ele><time>2026-05-02T16:33:46.884Z</time></trkpt><trkpt lat="40.4188225" lon="15.2992079"><ele>410.5</ele><time>2026-05-02T16:33:47.884Z</time></trkpt><trkpt lat="40.4187707" lon="15.2993861"><ele>409.25</ele><time>2026-05-02T16:33:48.884Z</time></trkpt><trkpt lat="40.4187141" lon="15.2995615"><ele>408.0</ele><time>2026-05-02T16:33:49.884Z</time></trkpt><trkpt lat="40.4186704" lon="15.2997266"><ele>409.25</ele><time>2026-05-02T16:33:50.884Z</time></trkpt><trkpt lat="40.4186526" lon="15.2998928"><ele>410.5</ele><time>2026-05-02T16:33:51.883Z</time></trkpt><trkpt lat="40.4186704" lon="15.3000613"><ele>411.75</ele><time>2026-05-02T16:33:52.883Z</time></trkpt><trkpt lat="40.4187073" lon="15.3002351"><ele>413.0</ele><time>2026-05-02T16:33:53.884Z</time></trkpt><trkpt lat="40.4187632" lon="15.3004108"><ele>414.25</ele><time>2026-05-02T16:33:54.884Z</time></trkpt><trkpt lat="40.4188064" lon="15.3005901"><ele>415.5</ele><time>2026-05-02T16:33:55.884Z</time></trkpt><trkpt lat="40.4188225" lon="15.300772"><ele>416.75</ele><time>2026-05-02T16:33:56.884Z</time></trkpt><trkpt lat="40.4188057" lon="15.3009562"><ele>418.0</ele><time>2026-05-02T16:33:57.884Z</time></trkpt><trkpt lat="40.4187531" lon="15.3011649"><ele>418.0</ele><time>2026-05-02T16:33:58.883Z</time></trkpt><trkpt lat="40.418689" lon="15.3013892"><ele>418.0</ele><time>2026-05-02T16:33:59.883Z</time></trkpt><trkpt lat="40.4186168" lon="15.3015772"><ele>418.0</ele><time>2026-05-02T16:34:00.883Z</time></trkpt><trkpt lat="40.4185319" lon="15.3017101"><ele>422.75</ele><time>2026-05-02T16:34:01.884Z</time></trkpt><trkpt lat="40.4184231" lon="15.3017779"><ele>427.5</ele><time>2026-05-02T16:34:02.884Z</time></trkpt><trkpt lat="40.4182845" lon="15.3017924"><ele>432.25</ele><time>2026-05-02T16:34:03.884Z</time></trkpt><trkpt lat="40.4181334" lon="15.3017489"><ele>437.0</ele><time>2026-05-02T16:34:04.884Z</time></trkpt><trkpt lat="40.4180027" lon="15.3017086"><ele>435.3333333333333</ele><time>2026-05-02T16:34:05.884Z</time></trkpt><trkpt lat="40.4179212" lon="15.3017343"><ele>433.66666666666663</ele><time>2026-05-02T16:34:06.884Z</time></trkpt><trkpt lat="40.4178647" lon="15.3017957"><ele>432.0</ele><time>2026-05-02T16:34:07.884Z</time></trkpt><trkpt lat="40.4178282" lon="15.3018875"><ele>430.33333333333337</ele><time>2026-05-02T16:34:08.883Z</time></trkpt><trkpt lat="40.4178129" lon="15.3020002"><ele>428.6666666666667</ele><time>2026-05-02T16:34:09.883Z</time></trkpt><trkpt lat="40.4178153" lon="15.3021297"><ele>427.0</ele><time>2026-05-02T16:34:10.884Z</time></trkpt><trkpt lat="40.4178334" lon="15.3022703"><ele>427.0</ele><time>2026-05-02T16:34:11.884Z</time></trkpt><trkpt lat="40.4178374" lon="15.3024059"><ele>427.00000000000006</ele><time>2026-05-02T16:34:12.884Z</time></trkpt><trkpt lat="40.4178054" lon="15.3025268"><ele>427.00000000000006</ele><time>2026-05-02T16:34:13.884Z</time></trkpt><trkpt lat="40.4177517" lon="15.3026311"><ele>427.0</ele><time>2026-05-02T16:34:14.884Z</time></trkpt><trkpt lat="40.4177034" lon="15.3027317"><ele>427.0</ele><time>2026-05-02T16:34:15.884Z</time></trkpt><trkpt lat="40.4176813" lon="15.3028341"><ele>427.0</ele><time>2026-05-02T16:34:16.884Z</time></trkpt><trkpt lat="40.4176811" lon="15.3029464"><ele>427.00000000000006</ele><time>2026-05-02T16:34:17.884Z</time></trkpt><trkpt lat="40.4177037" lon="15.3030747"><ele>427.00000000000006</ele><time>2026-05-02T16:34:18.884Z</time></trkpt><trkpt lat="40.4177406" lon="15.3032231"><ele>427.0</ele><time>2026-05-02T16:34:19.884Z</time></trkpt><trkpt lat="40.4177861" lon="15.3033767"><ele>427.0</ele><time>2026-05-02T16:34:20.884Z</time></trkpt><trkpt lat="40.4178235" lon="15.3035229"><ele>428.50000000000006</ele><time>2026-05-02T16:34:21.884Z</time></trkpt><trkpt lat="40.4178171" lon="15.3036483"><ele>430.0</ele><time>2026-05-02T16:34:22.884Z</time></trkpt><trkpt lat="40.4177825" lon="15.3037377"><ele>431.5</ele><time>2026-05-02T16:34:23.884Z</time></trkpt><trkpt lat="40.4177222" lon="15.3037946"><ele>433.0</ele><time>2026-05-02T16:34:24.884Z</time></trkpt><trkpt lat="40.41763" lon="15.3038286"><ele>434.50000000000006</ele><time>2026-05-02T16:34:25.884Z</time></trkpt><trkpt lat="40.4175277" lon="15.3038555"><ele>436.0</ele><time>2026-05-02T16:34:26.884Z</time></trkpt><trkpt lat="40.4174369" lon="15.3038953"><ele>435.8</ele><time>2026-05-02T16:34:27.884Z</time></trkpt><trkpt lat="40.4173675" lon="15.3039752"><ele>435.6</ele><time>2026-05-02T16:34:28.884Z</time></trkpt><trkpt lat="40.4173087" lon="15.3040883"><ele>435.4</ele><time>2026-05-02T16:34:29.884Z</time></trkpt><trkpt lat="40.4172553" lon="15.3042184"><ele>435.2</ele><time>2026-05-02T16:34:30.883Z</time></trkpt><trkpt lat="40.4171892" lon="15.304325"><ele>435.0</ele><time>2026-05-02T16:34:31.884Z</time></trkpt><trkpt lat="40.4171096" lon="15.3044189"><ele>435.0</ele><time>2026-05-02T16:34:32.884Z</time></trkpt><trkpt lat="40.4170352" lon="15.3045204"><ele>435.0</ele><time>2026-05-02T16:34:33.883Z</time></trkpt><trkpt lat="40.4169837" lon="15.3046322"><ele>435.0</ele><time>2026-05-02T16:34:34.884Z</time></trkpt><trkpt lat="40.4169797" lon="15.3047585"><ele>435.0</ele><time>2026-05-02T16:34:35.883Z</time></trkpt><trkpt lat="40.4170119" lon="15.3048752"><ele>435.0</ele><time>2026-05-02T16:34:36.884Z</time></trkpt><trkpt lat="40.4170693" lon="15.3049803"><ele>439.0</ele><time>2026-05-02T16:34:37.883Z</time></trkpt><trkpt lat="40.4171626" lon="15.3050792"><ele>443.0</ele><time>2026-05-02T16:34:38.884Z</time></trkpt><trkpt lat="40.4172902" lon="15.3051945"><ele>447.0</ele><time>2026-05-02T16:34:39.883Z</time></trkpt><trkpt lat="40.4174261" lon="15.3053218"><ele>451.0</ele><time>2026-05-02T16:34:40.884Z</time></trkpt><trkpt lat="40.4175321" lon="15.3054453"><ele>451.00000000000006</ele><time>2026-05-02T16:34:41.884Z</time></trkpt><trkpt lat="40.4175933" lon="15.3055452"><ele>451.0</ele><time>2026-05-02T16:34:42.884Z</time></trkpt><trkpt lat="40.4176175" lon="15.3056376"><ele>451.0</ele><time>2026-05-02T16:34:43.883Z</time></trkpt><trkpt lat="40.4176121" lon="15.3057343"><ele>451.0</ele><time>2026-05-02T16:34:44.884Z</time></trkpt><trkpt lat="40.4175798" lon="15.3058348"><ele>451.00000000000006</ele><time>2026-05-02T16:34:45.884Z</time></trkpt><trkpt lat="40.4175158" lon="15.30593"><ele>451.0</ele><time>2026-05-02T16:34:46.883Z</time></trkpt><trkpt lat="40.417449" lon="15.3060276"><ele>450.8</ele><time>2026-05-02T16:34:47.884Z</time></trkpt><trkpt lat="40.4174075" lon="15.3061402"><ele>450.6</ele><time>2026-05-02T16:34:48.884Z</time></trkpt><trkpt lat="40.4173981" lon="15.3062692"><ele>450.4</ele><time>2026-05-02T16:34:49.884Z</time></trkpt><trkpt lat="40.4174253" lon="15.3063899"><ele>450.2</ele><time>2026-05-02T16:34:50.884Z</time></trkpt><trkpt lat="40.4174865" lon="15.3065056"><ele>450.0</ele><time>2026-05-02T16:34:51.884Z</time></trkpt><trkpt lat="40.4175646" lon="15.3066068"><ele>450.4</ele><time>2026-05-02T16:34:52.884Z</time></trkpt><trkpt lat="40.4176463" lon="15.3067049"><ele>450.8</ele><time>2026-05-02T16:34:53.884Z</time></trkpt><trkpt lat="40.4177286" lon="15.3068029"><ele>451.20000000000005</ele><time>2026-05-02T16:34:54.884Z</time></trkpt><trkpt lat="40.4177923" lon="15.3069041"><ele>451.6</ele><time>2026-05-02T16:34:55.883Z</time></trkpt><trkpt lat="40.4178295" lon="15.3070169"><ele>452.0</ele><time>2026-05-02T16:34:56.884Z</time></trkpt><trkpt lat="40.4178209" lon="15.3071424"><ele>451.8</ele><time>2026-05-02T16:34:57.884Z</time></trkpt><trkpt lat="40.4178045" lon="15.3072745"><ele>451.6</ele><time>2026-05-02T16:34:58.883Z</time></trkpt><trkpt lat="40.4178038" lon="15.3074049"><ele>451.40000000000003</ele><time>2026-05-02T16:34:59.884Z</time></trkpt><trkpt lat="40.4178453" lon="15.3075339"><ele>451.20000000000005</ele><time>2026-05-02T16:35:00.884Z</time></trkpt><trkpt lat="40.4179085" lon="15.3076615"><ele>451.0</ele><time>2026-05-02T16:35:01.883Z</time></trkpt><trkpt lat="40.417984" lon="15.3077926"><ele>453.25</ele><time>2026-05-02T16:35:02.883Z</time></trkpt><trkpt lat="40.4180613" lon="15.3079219"><ele>455.5</ele><time>2026-05-02T16:35:03.884Z</time></trkpt><trkpt lat="40.418141" lon="15.3080359"><ele>457.75</ele><time>2026-05-02T16:35:04.884Z</time></trkpt><trkpt lat="40.418239" lon="15.3081298"><ele>460.0</ele><time>2026-05-02T16:35:05.884Z</time></trkpt><trkpt lat="40.4183568" lon="15.3082006"><ele>460.0</ele><time>2026-05-02T16:35:06.884Z</time></trkpt><trkpt lat="40.4184762" lon="15.3082637"><ele>460.0</ele><time>2026-05-02T16:35:07.883Z</time></trkpt><trkpt lat="40.4185827" lon="15.3083454"><ele>460.0</ele><time>2026-05-02T16:35:08.884Z</time></trkpt><trkpt lat="40.418677" lon="15.3084476"><ele>460.0</ele><time>2026-05-02T16:35:09.884Z</time></trkpt><trkpt lat="40.4187604" lon="15.3085531"><ele>464.5</ele><time>2026-05-02T16:35:10.884Z</time></trkpt><trkpt lat="40.4188557" lon="15.3086427"><ele>469.0</ele><time>2026-05-02T16:35:11.884Z</time></trkpt><trkpt lat="40.4189629" lon="15.3087068"><ele>473.5</ele><time>2026-05-02T16:35:12.883Z</time></trkpt><trkpt lat="40.4190773" lon="15.3087472"><ele>478.0</ele><time>2026-05-02T16:35:13.884Z</time></trkpt><trkpt lat="40.4191893" lon="15.3087762"><ele>478.0</ele><time>2026-05-02T16:35:14.883Z</time></trkpt><trkpt lat="40.4192899" lon="15.3088244"><ele>478.0</ele><time>2026-05-02T16:35:15.883Z</time></trkpt><trkpt lat="40.419375" lon="15.3089126"><ele>478.0</ele><time>2026-05-02T16:35:16.883Z</time></trkpt><trkpt lat="40.4194297" lon="15.3090431"><ele>478.0</ele><time>2026-05-02T16:35:17.884Z</time></trkpt><trkpt lat="40.4194594" lon="15.3092007"><ele>480.75</ele><time>2026-05-02T16:35:18.884Z</time></trkpt><trkpt lat="40.4195023" lon="15.3093525"><ele>483.5</ele><time>2026-05-02T16:35:19.884Z</time></trkpt><trkpt lat="40.4195867" lon="15.3094646"><ele>486.25</ele><time>2026-05-02T16:35:20.884Z</time></trkpt><trkpt lat="40.4197002" lon="15.3095672"><ele>489.0</ele><time>2026-05-02T16:35:21.884Z</time></trkpt><trkpt lat="40.4198181" lon="15.3096814"><ele>485.66666666666663</ele><time>2026-05-02T16:35:22.884Z</time></trkpt><trkpt lat="40.4199328" lon="15.3098594"><ele>482.3333333333333</ele><time>2026-05-02T16:35:23.884Z</time></trkpt><trkpt lat="40.4200441" lon="15.3100816"><ele>479.0</ele><time>2026-05-02T16:35:24.884Z</time></trkpt><trkpt lat="40.4201217" lon="15.3102901"><ele>479.0</ele><time>2026-05-02T16:35:25.884Z</time></trkpt><trkpt lat="40.4201582" lon="15.3104765"><ele>479.0</ele><time>2026-05-02T16:35:26.884Z</time></trkpt><trkpt lat="40.4201478" lon="15.3106308"><ele>479.0</ele><time>2026-05-02T16:35:27.884Z</time></trkpt><trkpt lat="40.4201048" lon="15.3107643"><ele>479.0</ele><time>2026-05-02T16:35:28.884Z</time></trkpt><trkpt lat="40.4200284" lon="15.3108864"><ele>478.75</ele><time>2026-05-02T16:35:29.884Z</time></trkpt><trkpt lat="40.419931" lon="15.311007"><ele>478.5</ele><time>2026-05-02T16:35:30.883Z</time></trkpt><trkpt lat="40.4198398" lon="15.3111254"><ele>478.25</ele><time>2026-05-02T16:35:31.884Z</time></trkpt><trkpt lat="40.4197592" lon="15.3112373"><ele>478.0</ele><time>2026-05-02T16:35:32.884Z</time></trkpt><trkpt lat="40.4196863" lon="15.3113634"><ele>476.25</ele><time>2026-05-02T16:35:33.883Z</time></trkpt><trkpt lat="40.4196342" lon="15.3114997"><ele>474.5</ele><time>2026-05-02T16:35:34.884Z</time></trkpt><trkpt lat="40.4196037" lon="15.3116571"><ele>472.75</ele><time>2026-05-02T16:35:35.884Z</time></trkpt><trkpt lat="40.4195741" lon="15.3118128"><ele>471.0</ele><time>2026-05-02T16:35:36.884Z</time></trkpt><trkpt lat="40.4195249" lon="15.3119766"><ele>471.0</ele><time>2026-05-02T16:35:37.884Z</time></trkpt><trkpt lat="40.4194579" lon="15.3121338"><ele>471.0</ele><time>2026-05-02T16:35:38.884Z</time></trkpt><trkpt lat="40.4194006" lon="15.3122934"><ele>471.0</ele><time>2026-05-02T16:35:39.884Z</time></trkpt><trkpt lat="40.4193637" lon="15.312478"><ele>471.0</ele><time>2026-05-02T16:35:40.884Z</time></trkpt><trkpt lat="40.4193461" lon="15.3126879"><ele>471.75</ele><time>2026-05-02T16:35:41.884Z</time></trkpt><trkpt lat="40.4193335" lon="15.3128976"><ele>472.5</ele><time>2026-05-02T16:35:42.884Z</time></trkpt><trkpt lat="40.4193079" lon="15.3130894"><ele>473.25</ele><time>2026-05-02T16:35:43.884Z</time></trkpt><trkpt lat="40.4192801" lon="15.3132609"><ele>474.0</ele><time>2026-05-02T16:35:44.883Z</time></trkpt><trkpt lat="40.4192826" lon="15.3134145"><ele>474.0</ele><time>2026-05-02T16:35:45.884Z</time></trkpt><trkpt lat="40.4193222" lon="15.3135236"><ele>474.0</ele><time>2026-05-02T16:35:46.884Z</time></trkpt><trkpt lat="40.4193777" lon="15.3135926"><ele>474.0</ele><time>2026-05-02T16:35:47.884Z</time></trkpt><trkpt lat="40.4194436" lon="15.3136382"><ele>474.0</ele><time>2026-05-02T16:35:48.883Z</time></trkpt><trkpt lat="40.4195209" lon="15.3136456"><ele>474.0</ele><time>2026-05-02T16:35:49.883Z</time></trkpt><trkpt lat="40.4196229" lon="15.3136339"><ele>474.0</ele><time>2026-05-02T16:35:50.883Z</time></trkpt><trkpt lat="40.4197593" lon="15.3136165"><ele>480.0</ele><time>2026-05-02T16:35:51.883Z</time></trkpt><trkpt lat="40.4199107" lon="15.3136012"><ele>486.0</ele><time>2026-05-02T16:35:52.883Z</time></trkpt><trkpt lat="40.420069" lon="15.3135974"><ele>492.0</ele><time>2026-05-02T16:35:53.884Z</time></trkpt><trkpt lat="40.4202132" lon="15.3136058"><ele>492.0</ele><time>2026-05-02T16:35:54.884Z</time></trkpt><trkpt lat="40.4203411" lon="15.3136484"><ele>492.0</ele><time>2026-05-02T16:35:55.884Z</time></trkpt><trkpt lat="40.4204636" lon="15.3137143"><ele>492.0</ele><time>2026-05-02T16:35:56.884Z</time></trkpt><trkpt lat="40.4205726" lon="15.3138132"><ele>492.0</ele><time>2026-05-02T16:35:57.883Z</time></trkpt><trkpt lat="40.4206538" lon="15.3139491"><ele>494.33333333333337</ele><time>2026-05-02T16:35:58.884Z</time></trkpt><trkpt lat="40.42071" lon="15.314121"><ele>496.6666666666667</ele><time>2026-05-02T16:35:59.883Z</time></trkpt><trkpt lat="40.4207389" lon="15.3143455"><ele>499.0</ele><time>2026-05-02T16:36:00.884Z</time></trkpt><trkpt lat="40.4207474" lon="15.3146238"><ele>499.6666666666667</ele><time>2026-05-02T16:36:01.884Z</time></trkpt><trkpt lat="40.4207569" lon="15.3149314"><ele>500.33333333333337</ele><time>2026-05-02T16:36:02.883Z</time></trkpt><trkpt lat="40.4207827" lon="15.3151906"><ele>501.0</ele><time>2026-05-02T16:36:03.884Z</time></trkpt><trkpt lat="40.4208185" lon="15.3154061"><ele>501.0</ele><time>2026-05-02T16:36:04.884Z</time></trkpt><trkpt lat="40.420871" lon="15.3155692"><ele>501.0</ele><time>2026-05-02T16:36:05.883Z</time></trkpt><trkpt lat="40.4209411" lon="15.3156861"><ele>501.0</ele><time>2026-05-02T16:36:06.884Z</time></trkpt><trkpt lat="40.4210219" lon="15.3157617"><ele>501.0</ele><time>2026-05-02T16:36:07.884Z</time></trkpt><trkpt lat="40.421098" lon="15.315826"><ele>501.0</ele><time>2026-05-02T16:36:08.884Z</time></trkpt><trkpt lat="40.4211491" lon="15.3159086"><ele>500.6</ele><time>2026-05-02T16:36:09.883Z</time></trkpt><trkpt lat="40.4211608" lon="15.3160132"><ele>500.20000000000005</ele><time>2026-05-02T16:36:10.884Z</time></trkpt><trkpt lat="40.4211505" lon="15.3161261"><ele>499.79999999999995</ele><time>2026-05-02T16:36:11.884Z</time></trkpt><trkpt lat="40.4211029" lon="15.3162414"><ele>499.4</ele><time>2026-05-02T16:36:12.884Z</time></trkpt><trkpt lat="40.4210475" lon="15.3163695"><ele>499.0</ele><time>2026-05-02T16:36:13.884Z</time></trkpt><trkpt lat="40.4209954" lon="15.3164975"><ele>499.0</ele><time>2026-05-02T16:36:14.884Z</time></trkpt><trkpt lat="40.4209612" lon="15.3166303"><ele>499.0</ele><time>2026-05-02T16:36:15.884Z</time></trkpt><trkpt lat="40.4209342" lon="15.316762"><ele>499.0</ele><time>2026-05-02T16:36:16.884Z</time></trkpt><trkpt lat="40.4209284" lon="15.3168998"><ele>499.0</ele><time>2026-05-02T16:36:17.884Z</time></trkpt><trkpt lat="40.4209475" lon="15.3170396"><ele>499.0</ele><time>2026-05-02T16:36:18.884Z</time></trkpt><trkpt lat="40.4209756" lon="15.3171781"><ele>499.0</ele><time>2026-05-02T16:36:19.883Z</time></trkpt><trkpt lat="40.4210138" lon="15.3173151"><ele>499.0</ele><time>2026-05-02T16:36:20.884Z</time></trkpt><trkpt lat="40.4210667" lon="15.3174436"><ele>499.0</ele><time>2026-05-02T16:36:21.884Z</time></trkpt><trkpt lat="40.4211265" lon="15.3175748"><ele>499.0</ele><time>2026-05-02T16:36:22.884Z</time></trkpt><trkpt lat="40.4212009" lon="15.3177013"><ele>499.0</ele><time>2026-05-02T16:36:23.883Z</time></trkpt><trkpt lat="40.4212727" lon="15.3178327"><ele>499.0</ele><time>2026-05-02T16:36:24.884Z</time></trkpt><trkpt lat="40.4213462" lon="15.3179695"><ele>499.0</ele><time>2026-05-02T16:36:25.884Z</time></trkpt><trkpt lat="40.421412" lon="15.3181166"><ele>499.0</ele><time>2026-05-02T16:36:26.884Z</time></trkpt><trkpt lat="40.4214724" lon="15.318281"><ele>504.0</ele><time>2026-05-02T16:36:27.883Z</time></trkpt><trkpt lat="40.4215186" lon="15.3184385"><ele>509.0</ele><time>2026-05-02T16:36:28.884Z</time></trkpt><trkpt lat="40.4215588" lon="15.3185862"><ele>514.0</ele><time>2026-05-02T16:36:29.884Z</time></trkpt><trkpt lat="40.4215843" lon="15.3187252"><ele>519.0</ele><time>2026-05-02T16:36:30.884Z</time></trkpt><trkpt lat="40.4216027" lon="15.3188498"><ele>517.6</ele><time>2026-05-02T16:36:31.884Z</time></trkpt><trkpt lat="40.4216164" lon="15.3189661"><ele>516.2</ele><time>2026-05-02T16:36:32.883Z</time></trkpt><trkpt lat="40.4216399" lon="15.3190935"><ele>514.8000000000001</ele><time>2026-05-02T16:36:33.884Z</time></trkpt><trkpt lat="40.421673" lon="15.3192217"><ele>513.4</ele><time>2026-05-02T16:36:34.883Z</time></trkpt><trkpt lat="40.4217091" lon="15.3193512"><ele>512.0</ele><time>2026-05-02T16:36:35.884Z</time></trkpt><trkpt lat="40.4217438" lon="15.3194801"><ele>512.0</ele><time>2026-05-02T16:36:36.883Z</time></trkpt><trkpt lat="40.4217508" lon="15.3196153"><ele>512.0</ele><time>2026-05-02T16:36:37.884Z</time></trkpt><trkpt lat="40.4217468" lon="15.3197543"><ele>512.0</ele><time>2026-05-02T16:36:38.883Z</time></trkpt><trkpt lat="40.4217408" lon="15.3199056"><ele>512.0</ele><time>2026-05-02T16:36:39.884Z</time></trkpt><trkpt lat="40.4217332" lon="15.3200597"><ele>512.0</ele><time>2026-05-02T16:36:40.884Z</time></trkpt><trkpt lat="40.4217111" lon="15.3202049"><ele>512.25</ele><time>2026-05-02T16:36:41.884Z</time></trkpt><trkpt lat="40.4216839" lon="15.320355"><ele>512.5</ele><time>2026-05-02T16:36:42.884Z</time></trkpt><trkpt lat="40.4216742" lon="15.3205095"><ele>512.75</ele><time>2026-05-02T16:36:43.884Z</time></trkpt><trkpt lat="40.421678" lon="15.3206646"><ele>513.0</ele><time>2026-05-02T16:36:44.884Z</time></trkpt><trkpt lat="40.4217025" lon="15.3208182"><ele>514.25</ele><time>2026-05-02T16:36:45.883Z</time></trkpt><trkpt lat="40.4217406" lon="15.3209766"><ele>515.5</ele><time>2026-05-02T16:36:46.883Z</time></trkpt><trkpt lat="40.4217797" lon="15.3211452"><ele>516.75</ele><time>2026-05-02T16:36:47.884Z</time></trkpt><trkpt lat="40.4218125" lon="15.3213191"><ele>518.0</ele><time>2026-05-02T16:36:48.884Z</time></trkpt><trkpt lat="40.4218441" lon="15.3215034"><ele>519.0</ele><time>2026-05-02T16:36:49.884Z</time></trkpt><trkpt lat="40.421865" lon="15.3216943"><ele>520.0</ele><time>2026-05-02T16:36:50.884Z</time></trkpt><trkpt lat="40.4218629" lon="15.3218945"><ele>521.0</ele><time>2026-05-02T16:36:51.884Z</time></trkpt><trkpt lat="40.4218548" lon="15.3220783"><ele>522.0</ele><time>2026-05-02T16:36:52.883Z</time></trkpt><trkpt lat="40.4218584" lon="15.3222575"><ele>523.0</ele><time>2026-05-02T16:36:53.884Z</time></trkpt><trkpt lat="40.4218855" lon="15.3224325"><ele>524.0</ele><time>2026-05-02T16:36:54.884Z</time></trkpt><trkpt lat="40.4219337" lon="15.3226001"><ele>525.0</ele><time>2026-05-02T16:36:55.884Z</time></trkpt><trkpt lat="40.4219916" lon="15.3227522"><ele>526.0</ele><time>2026-05-02T16:36:56.884Z</time></trkpt><trkpt lat="40.4220183" lon="15.3228949"><ele>526.0</ele><time>2026-05-02T16:36:57.884Z</time></trkpt><trkpt lat="40.422024" lon="15.3230506"><ele>526.0</ele><time>2026-05-02T16:36:58.883Z</time></trkpt><trkpt lat="40.422011" lon="15.3231951"><ele>526.0</ele><time>2026-05-02T16:36:59.884Z</time></trkpt><trkpt lat="40.4220023" lon="15.3233527"><ele>526.0</ele><time>2026-05-02T16:37:00.884Z</time></trkpt><trkpt lat="40.4220231" lon="15.3235051"><ele>526.6</ele><time>2026-05-02T16:37:01.884Z</time></trkpt><trkpt lat="40.4220615" lon="15.3236458"><ele>527.2</ele><time>2026-05-02T16:37:02.884Z</time></trkpt><trkpt lat="40.4221057" lon="15.3237672"><ele>527.8</ele><time>2026-05-02T16:37:03.884Z</time></trkpt><trkpt lat="40.4221364" lon="15.323874"><ele>528.4</ele><time>2026-05-02T16:37:04.884Z</time></trkpt><trkpt lat="40.4221395" lon="15.3239871"><ele>529.0</ele><time>2026-05-02T16:37:05.884Z</time></trkpt><trkpt lat="40.4221174" lon="15.3241086"><ele>530.0</ele><time>2026-05-02T16:37:06.883Z</time></trkpt><trkpt lat="40.4220788" lon="15.3242158"><ele>531.0</ele><time>2026-05-02T16:37:07.883Z</time></trkpt><trkpt lat="40.4220346" lon="15.3243295"><ele>532.0</ele><time>2026-05-02T16:37:08.884Z</time></trkpt><trkpt lat="40.4220089" lon="15.3244638"><ele>533.0</ele><time>2026-05-02T16:37:09.883Z</time></trkpt><trkpt lat="40.422003" lon="15.324622"><ele>534.0</ele><time>2026-05-02T16:37:10.884Z</time></trkpt><trkpt lat="40.4220068" lon="15.3247821"><ele>534.0</ele><time>2026-05-02T16:37:11.884Z</time></trkpt><trkpt lat="40.4220123" lon="15.3249579"><ele>534.0</ele><time>2026-05-02T16:37:12.884Z</time></trkpt><trkpt lat="40.4220213" lon="15.3251435"><ele>534.0</ele><time>2026-05-02T16:37:13.884Z</time></trkpt><trkpt lat="40.4220252" lon="15.3253303"><ele>534.0</ele><time>2026-05-02T16:37:14.884Z</time></trkpt><trkpt lat="40.4220194" lon="15.3255072"><ele>534.25</ele><time>2026-05-02T16:37:15.884Z</time></trkpt><trkpt lat="40.422002" lon="15.325671"><ele>534.5</ele><time>2026-05-02T16:37:16.884Z</time></trkpt><trkpt lat="40.4219659" lon="15.3258146"><ele>534.75</ele><time>2026-05-02T16:37:17.883Z</time></trkpt><trkpt lat="40.4219004" lon="15.3259383"><ele>535.0</ele><time>2026-05-02T16:37:18.883Z</time></trkpt><trkpt lat="40.4218234" lon="15.3260335"><ele>535.0</ele><time>2026-05-02T16:37:19.884Z</time></trkpt><trkpt lat="40.4217385" lon="15.3261196"><ele>535.0</ele><time>2026-05-02T16:37:20.883Z</time></trkpt><trkpt lat="40.4216789" lon="15.3262258"><ele>535.0</ele><time>2026-05-02T16:37:21.884Z</time></trkpt><trkpt lat="40.4216412" lon="15.3263572"><ele>535.0</ele><time>2026-05-02T16:37:22.884Z</time></trkpt><trkpt lat="40.4216296" lon="15.3265051"><ele>535.0</ele><time>2026-05-02T16:37:23.884Z</time></trkpt><trkpt lat="40.4216265" lon="15.3266628"><ele>534.5</ele><time>2026-05-02T16:37:24.884Z</time></trkpt><trkpt lat="40.4216203" lon="15.3268325"><ele>534.0</ele><time>2026-05-02T16:37:25.884Z</time></trkpt><trkpt lat="40.4216024" lon="15.3270112"><ele>533.5</ele><time>2026-05-02T16:37:26.884Z</time></trkpt><trkpt lat="40.4215719" lon="15.3271936"><ele>533.0</ele><time>2026-05-02T16:37:27.884Z</time></trkpt><trkpt lat="40.4215326" lon="15.3273653"><ele>533.0</ele><time>2026-05-02T16:37:28.884Z</time></trkpt><trkpt lat="40.4214842" lon="15.3275216"><ele>533.0</ele><time>2026-05-02T16:37:29.884Z</time></trkpt><trkpt lat="40.4214284" lon="15.3276593"><ele>533.0</ele><time>2026-05-02T16:37:30.884Z</time></trkpt><trkpt lat="40.4213914" lon="15.3277778"><ele>533.0</ele><time>2026-05-02T16:37:31.884Z</time></trkpt><trkpt lat="40.4213832" lon="15.3278954"><ele>533.0</ele><time>2026-05-02T16:37:32.884Z</time></trkpt><trkpt lat="40.4214095" lon="15.3279982"><ele>534.25</ele><time>2026-05-02T16:37:33.884Z</time></trkpt><trkpt lat="40.4214689" lon="15.3281102"><ele>535.5</ele><time>2026-05-02T16:37:34.884Z</time></trkpt><trkpt lat="40.421543" lon="15.3282308"><ele>536.75</ele><time>2026-05-02T16:37:35.883Z</time></trkpt><trkpt lat="40.4215982" lon="15.3283713"><ele>538.0</ele><time>2026-05-02T16:37:36.884Z</time></trkpt><trkpt lat="40.4216297" lon="15.3285257"><ele>538.0</ele><time>2026-05-02T16:37:37.883Z</time></trkpt><trkpt lat="40.4216527" lon="15.328676"><ele>538.0</ele><time>2026-05-02T16:37:38.883Z</time></trkpt><trkpt lat="40.4216922" lon="15.3288099"><ele>538.0</ele><time>2026-05-02T16:37:39.884Z</time></trkpt><trkpt lat="40.4217567" lon="15.3289205"><ele>538.0</ele><time>2026-05-02T16:37:40.884Z</time></trkpt><trkpt lat="40.4218504" lon="15.3290063"><ele>538.0</ele><time>2026-05-02T16:37:41.884Z</time></trkpt><trkpt lat="40.4219539" lon="15.3290731"><ele>539.6</ele><time>2026-05-02T16:37:42.884Z</time></trkpt><trkpt lat="40.4220542" lon="15.3291368"><ele>541.1999999999999</ele><time>2026-05-02T16:37:43.883Z</time></trkpt><trkpt lat="40.4221487" lon="15.3291928"><ele>542.8</ele><time>2026-05-02T16:37:44.884Z</time></trkpt><trkpt lat="40.4222173" lon="15.329266"><ele>544.4</ele><time>2026-05-02T16:37:45.883Z</time></trkpt><trkpt lat="40.4222453" lon="15.3293648"><ele>546.0</ele><time>2026-05-02T16:37:46.884Z</time></trkpt><trkpt lat="40.4222348" lon="15.3294669"><ele>546.0</ele><time>2026-05-02T16:37:47.884Z</time></trkpt><trkpt lat="40.4221859" lon="15.329562"><ele>546.0</ele><time>2026-05-02T16:37:48.884Z</time></trkpt><trkpt lat="40.4221042" lon="15.3296687"><ele>546.0</ele><time>2026-05-02T16:37:49.884Z</time></trkpt><trkpt lat="40.422016" lon="15.3298044"><ele>546.0</ele><time>2026-05-02T16:37:50.884Z</time></trkpt><trkpt lat="40.4219392" lon="15.329979"><ele>548.0</ele><time>2026-05-02T16:37:51.883Z</time></trkpt><trkpt lat="40.4218991" lon="15.3301599"><ele>550.0</ele><time>2026-05-02T16:37:52.884Z</time></trkpt><trkpt lat="40.4218618" lon="15.3303195"><ele>552.0</ele><time>2026-05-02T16:37:53.883Z</time></trkpt><trkpt lat="40.4218249" lon="15.330466"><ele>554.0</ele><time>2026-05-02T16:37:54.884Z</time></trkpt><trkpt lat="40.4217948" lon="15.3306043"><ele>555.0</ele><time>2026-05-02T16:37:55.884Z</time></trkpt><trkpt lat="40.421788" lon="15.3307473"><ele>556.0</ele><time>2026-05-02T16:37:56.884Z</time></trkpt><trkpt lat="40.4218154" lon="15.3308936"><ele>557.0</ele><time>2026-05-02T16:37:57.883Z</time></trkpt><trkpt lat="40.42186" lon="15.3310468"><ele>558.0</ele><time>2026-05-02T16:37:58.884Z</time></trkpt><trkpt lat="40.4219049" lon="15.3311972"><ele>558.0</ele><time>2026-05-02T16:37:59.884Z</time></trkpt><trkpt lat="40.4219069" lon="15.331345"><ele>558.0</ele><time>2026-05-02T16:38:00.884Z</time></trkpt><trkpt lat="40.4218655" lon="15.3314779"><ele>558.0</ele><time>2026-05-02T16:38:01.884Z</time></trkpt><trkpt lat="40.4218158" lon="15.3316046"><ele>558.0</ele><time>2026-05-02T16:38:02.884Z</time></trkpt><trkpt lat="40.4217806" lon="15.3317504"><ele>558.0</ele><time>2026-05-02T16:38:03.883Z</time></trkpt><trkpt lat="40.4217797" lon="15.3319114"><ele>558.25</ele><time>2026-05-02T16:38:04.883Z</time></trkpt><trkpt lat="40.4218041" lon="15.3320781"><ele>558.5</ele><time>2026-05-02T16:38:05.884Z</time></trkpt><trkpt lat="40.421845" lon="15.3322602"><ele>558.75</ele><time>2026-05-02T16:38:06.883Z</time></trkpt><trkpt lat="40.4218821" lon="15.3324584"><ele>559.0</ele><time>2026-05-02T16:38:07.884Z</time></trkpt><trkpt lat="40.4219169" lon="15.33266"><ele>559.25</ele><time>2026-05-02T16:38:08.884Z</time></trkpt><trkpt lat="40.4219529" lon="15.3328503"><ele>559.5</ele><time>2026-05-02T16:38:09.883Z</time></trkpt><trkpt lat="40.4219971" lon="15.3330362"><ele>559.75</ele><time>2026-05-02T16:38:10.884Z</time></trkpt><trkpt lat="40.422054" lon="15.3332106"><ele>560.0</ele><time>2026-05-02T16:38:11.884Z</time></trkpt><trkpt lat="40.4221196" lon="15.3333859"><ele>558.0</ele><time>2026-05-02T16:38:12.884Z</time></trkpt><trkpt lat="40.4221864" lon="15.333541"><ele>556.0</ele><time>2026-05-02T16:38:13.884Z</time></trkpt><trkpt lat="40.4222549" lon="15.3336764"><ele>554.0</ele><time>2026-05-02T16:38:14.883Z</time></trkpt><trkpt lat="40.4223416" lon="15.3337821"><ele>552.0</ele><time>2026-05-02T16:38:15.884Z</time></trkpt><trkpt lat="40.42244" lon="15.3338311"><ele>552.0</ele><time>2026-05-02T16:38:16.883Z</time></trkpt><trkpt lat="40.4225375" lon="15.3338226"><ele>552.0</ele><time>2026-05-02T16:38:17.884Z</time></trkpt><trkpt lat="40.4226374" lon="15.3337794"><ele>552.0</ele><time>2026-05-02T16:38:18.883Z</time></trkpt><trkpt lat="40.4227445" lon="15.3337517"><ele>552.0</ele><time>2026-05-02T16:38:19.884Z</time></trkpt><trkpt lat="40.4228592" lon="15.3337611"><ele>552.0</ele><time>2026-05-02T16:38:20.884Z</time></trkpt><trkpt lat="40.4229778" lon="15.3337822"><ele>552.75</ele><time>2026-05-02T16:38:21.884Z</time></trkpt><trkpt lat="40.423095" lon="15.3337736"><ele>553.5</ele><time>2026-05-02T16:38:22.884Z</time></trkpt><trkpt lat="40.4232084" lon="15.3337285"><ele>554.25</ele><time>2026-05-02T16:38:23.883Z</time></trkpt><trkpt lat="40.4233155" lon="15.33365"><ele>555.0</ele><time>2026-05-02T16:38:24.884Z</time></trkpt><trkpt lat="40.423419" lon="15.3335788"><ele>555.0</ele><time>2026-05-02T16:38:25.884Z</time></trkpt><trkpt lat="40.4235187" lon="15.3335515"><ele>555.0</ele><time>2026-05-02T16:38:26.884Z</time></trkpt><trkpt lat="40.4236145" lon="15.3335638"><ele>555.0</ele><time>2026-05-02T16:38:27.884Z</time></trkpt><trkpt lat="40.423688" lon="15.3336242"><ele>555.0</ele><time>2026-05-02T16:38:28.883Z</time></trkpt><trkpt lat="40.423743" lon="15.3337208"><ele>555.0</ele><time>2026-05-02T16:38:29.884Z</time></trkpt><trkpt lat="40.423785" lon="15.3338642"><ele>554.5</ele><time>2026-05-02T16:38:30.884Z</time></trkpt><trkpt lat="40.4238283" lon="15.3340287"><ele>554.0</ele><time>2026-05-02T16:38:31.884Z</time></trkpt><trkpt lat="40.4238891" lon="15.3341935"><ele>553.5</ele><time>2026-05-02T16:38:32.883Z</time></trkpt><trkpt lat="40.4239792" lon="15.3343404"><ele>553.0</ele><time>2026-05-02T16:38:33.883Z</time></trkpt><trkpt lat="40.4240822" lon="15.3344663"><ele>553.0</ele><time>2026-05-02T16:38:34.884Z</time></trkpt><trkpt lat="40.4241756" lon="15.3345872"><ele>553.0</ele><time>2026-05-02T16:38:35.884Z</time></trkpt><trkpt lat="40.4242363" lon="15.3347161"><ele>553.0</ele><time>2026-05-02T16:38:36.884Z</time></trkpt><trkpt lat="40.4242351" lon="15.3348391"><ele>553.0</ele><time>2026-05-02T16:38:37.883Z</time></trkpt><trkpt lat="40.4241897" lon="15.3349469"><ele>553.0</ele><time>2026-05-02T16:38:38.883Z</time></trkpt><trkpt lat="40.4241172" lon="15.3350359"><ele>555.0</ele><time>2026-05-02T16:38:39.884Z</time></trkpt><trkpt lat="40.4240096" lon="15.3351204"><ele>557.0</ele><time>2026-05-02T16:38:40.884Z</time></trkpt><trkpt lat="40.4238841" lon="15.3352127"><ele>559.0</ele><time>2026-05-02T16:38:41.883Z</time></trkpt><trkpt lat="40.4237613" lon="15.3353063"><ele>561.0</ele><time>2026-05-02T16:38:42.884Z</time></trkpt><trkpt lat="40.423633" lon="15.3354102"><ele>561.75</ele><time>2026-05-02T16:38:43.883Z</time></trkpt><trkpt lat="40.4235134" lon="15.3355088"><ele>562.5</ele><time>2026-05-02T16:38:44.884Z</time></trkpt><trkpt lat="40.4233917" lon="15.3355929"><ele>563.25</ele><time>2026-05-02T16:38:45.884Z</time></trkpt><trkpt lat="40.4232653" lon="15.3356256"><ele>564.0</ele><time>2026-05-02T16:38:46.884Z</time></trkpt><trkpt lat="40.4231409" lon="15.3356011"><ele>566.0</ele><time>2026-05-02T16:38:47.883Z</time></trkpt><trkpt lat="40.4230286" lon="15.3355424"><ele>568.0</ele><time>2026-05-02T16:38:48.884Z</time></trkpt><trkpt lat="40.4229108" lon="15.3354734"><ele>570.0</ele><time>2026-05-02T16:38:49.883Z</time></trkpt><trkpt lat="40.4227879" lon="15.3354051"><ele>572.0</ele><time>2026-05-02T16:38:50.884Z</time></trkpt><trkpt lat="40.4226706" lon="15.3353419"><ele>572.5</ele><time>2026-05-02T16:38:51.884Z</time></trkpt><trkpt lat="40.422559" lon="15.3352889"><ele>573.0</ele><time>2026-05-02T16:38:52.884Z</time></trkpt><trkpt lat="40.422434" lon="15.3352612"><ele>573.5</ele><time>2026-05-02T16:38:53.883Z</time></trkpt><trkpt lat="40.4223129" lon="15.3352613"><ele>574.0</ele><time>2026-05-02T16:38:54.883Z</time></trkpt><trkpt lat="40.4221888" lon="15.3353032"><ele>574.0</ele><time>2026-05-02T16:38:55.884Z</time></trkpt><trkpt lat="40.4220598" lon="15.3353737"><ele>574.0</ele><time>2026-05-02T16:38:56.883Z</time></trkpt><trkpt lat="40.4219476" lon="15.3354709"><ele>574.0</ele><time>2026-05-02T16:38:57.884Z</time></trkpt><trkpt lat="40.4218289" lon="15.3355803"><ele>574.0</ele><time>2026-05-02T16:38:58.884Z</time></trkpt><trkpt lat="40.4217332" lon="15.3356809"><ele>574.0</ele><time>2026-05-02T16:38:59.884Z</time></trkpt><trkpt lat="40.4216398" lon="15.335802"><ele>574.0</ele><time>2026-05-02T16:39:00.884Z</time></trkpt><trkpt lat="40.4215812" lon="15.3359427"><ele>574.0</ele><time>2026-05-02T16:39:01.883Z</time></trkpt><trkpt lat="40.4215349" lon="15.3361018"><ele>574.0</ele><time>2026-05-02T16:39:02.884Z</time></trkpt><trkpt lat="40.4214857" lon="15.336261"><ele>572.5</ele><time>2026-05-02T16:39:03.883Z</time></trkpt><trkpt lat="40.4214379" lon="15.3364167"><ele>571.0</ele><time>2026-05-02T16:39:04.883Z</time></trkpt><trkpt lat="40.4213942" lon="15.3365805"><ele>569.5</ele><time>2026-05-02T16:39:05.884Z</time></trkpt><trkpt lat="40.421363" lon="15.3367562"><ele>568.0</ele><time>2026-05-02T16:39:06.883Z</time></trkpt><trkpt lat="40.4213299" lon="15.3369277"><ele>571.0</ele><time>2026-05-02T16:39:07.884Z</time></trkpt><trkpt lat="40.4212783" lon="15.3370773"><ele>574.0</ele><time>2026-05-02T16:39:08.884Z</time></trkpt><trkpt lat="40.4212043" lon="15.337197"><ele>577.0</ele><time>2026-05-02T16:39:09.883Z</time></trkpt><trkpt lat="40.4211044" lon="15.3373014"><ele>580.0</ele><time>2026-05-02T16:39:10.883Z</time></trkpt><trkpt lat="40.4209989" lon="15.3374102"><ele>580.0</ele><time>2026-05-02T16:39:11.883Z</time></trkpt><trkpt lat="40.4209344" lon="15.3375337"><ele>580.0</ele><time>2026-05-02T16:39:12.884Z</time></trkpt><trkpt lat="40.4209148" lon="15.3376612"><ele>580.0</ele><time>2026-05-02T16:39:13.884Z</time></trkpt><trkpt lat="40.4209202" lon="15.3377995"><ele>580.0</ele><time>2026-05-02T16:39:14.884Z</time></trkpt><trkpt lat="40.4209282" lon="15.3379428"><ele>580.0</ele><time>2026-05-02T16:39:15.883Z</time></trkpt><trkpt lat="40.4209227" lon="15.3380958"><ele>579.5</ele><time>2026-05-02T16:39:16.884Z</time></trkpt><trkpt lat="40.4208862" lon="15.3382545"><ele>579.0</ele><time>2026-05-02T16:39:17.884Z</time></trkpt><trkpt lat="40.4208343" lon="15.3384322"><ele>578.5</ele><time>2026-05-02T16:39:18.884Z</time></trkpt><trkpt lat="40.4207725" lon="15.338608"><ele>578.0</ele><time>2026-05-02T16:39:19.884Z</time></trkpt><trkpt lat="40.4207103" lon="15.3387783"><ele>577.3333333333333</ele><time>2026-05-02T16:39:20.883Z</time></trkpt><trkpt lat="40.4206455" lon="15.3389547"><ele>576.6666666666666</ele><time>2026-05-02T16:39:21.884Z</time></trkpt><trkpt lat="40.4205824" lon="15.3391357"><ele>576.0</ele><time>2026-05-02T16:39:22.884Z</time></trkpt><trkpt lat="40.4205172" lon="15.3393131"><ele>579.0</ele><time>2026-05-02T16:39:23.883Z</time></trkpt><trkpt lat="40.4204501" lon="15.3394975"><ele>582.0</ele><time>2026-05-02T16:39:24.884Z</time></trkpt><trkpt lat="40.4203776" lon="15.3396881"><ele>585.0</ele><time>2026-05-02T16:39:25.884Z</time></trkpt><trkpt lat="40.4202995" lon="15.339883"><ele>585.0</ele><time>2026-05-02T16:39:26.884Z</time></trkpt><trkpt lat="40.420214" lon="15.3400782"><ele>585.0</ele><time>2026-05-02T16:39:27.884Z</time></trkpt><trkpt lat="40.4201267" lon="15.3402628"><ele>585.0</ele><time>2026-05-02T16:39:28.884Z</time></trkpt><trkpt lat="40.4200423" lon="15.3404274"><ele>584.75</ele><time>2026-05-02T16:39:29.884Z</time></trkpt><trkpt lat="40.4199665" lon="15.3405881"><ele>584.5</ele><time>2026-05-02T16:39:30.884Z</time></trkpt><trkpt lat="40.4198977" lon="15.3407502"><ele>584.25</ele><time>2026-05-02T16:39:31.884Z</time></trkpt><trkpt lat="40.4198524" lon="15.34091"><ele>584.0</ele><time>2026-05-02T16:39:32.884Z</time></trkpt><trkpt lat="40.4198541" lon="15.3410625"><ele>584.0</ele><time>2026-05-02T16:39:33.883Z</time></trkpt><trkpt lat="40.4198889" lon="15.3412034"><ele>584.0</ele><time>2026-05-02T16:39:34.883Z</time></trkpt><trkpt lat="40.419946" lon="15.3413294"><ele>584.0</ele><time>2026-05-02T16:39:35.883Z</time></trkpt><trkpt lat="40.4200092" lon="15.3414471"><ele>584.0</ele><time>2026-05-02T16:39:36.884Z</time></trkpt><trkpt lat="40.4200805" lon="15.3415712"><ele>585.0</ele><time>2026-05-02T16:39:37.884Z</time></trkpt><trkpt lat="40.4201526" lon="15.3416986"><ele>586.0</ele><time>2026-05-02T16:39:38.884Z</time></trkpt><trkpt lat="40.4202239" lon="15.3418362"><ele>587.0</ele><time>2026-05-02T16:39:39.883Z</time></trkpt><trkpt lat="40.4202877" lon="15.3419822"><ele>588.0</ele><time>2026-05-02T16:39:40.884Z</time></trkpt><trkpt lat="40.4203319" lon="15.3421464"><ele>589.75</ele><time>2026-05-02T16:39:41.884Z</time></trkpt><trkpt lat="40.4203625" lon="15.3423168"><ele>591.5</ele><time>2026-05-02T16:39:42.883Z</time></trkpt><trkpt lat="40.4203788" lon="15.3424886"><ele>593.25</ele><time>2026-05-02T16:39:43.884Z</time></trkpt><trkpt lat="40.4204104" lon="15.3426477"><ele>595.0</ele><time>2026-05-02T16:39:44.884Z</time></trkpt><trkpt lat="40.4204696" lon="15.3427824"><ele>594.5</ele><time>2026-05-02T16:39:45.884Z</time></trkpt><trkpt lat="40.4205558" lon="15.3429029"><ele>594.0</ele><time>2026-05-02T16:39:46.884Z</time></trkpt><trkpt lat="40.4206564" lon="15.3430203"><ele>593.5</ele><time>2026-05-02T16:39:47.884Z</time></trkpt><trkpt lat="40.4207597" lon="15.3431296"><ele>593.0</ele><time>2026-05-02T16:39:48.884Z</time></trkpt><trkpt lat="40.4208648" lon="15.3432483"><ele>593.0</ele><time>2026-05-02T16:39:49.884Z</time></trkpt><trkpt lat="40.4209686" lon="15.3433712"><ele>593.0</ele><time>2026-05-02T16:39:50.884Z</time></trkpt><trkpt lat="40.4210748" lon="15.3434868"><ele>593.0</ele><time>2026-05-02T16:39:51.884Z</time></trkpt><trkpt lat="40.4211819" lon="15.3435926"><ele>593.0</ele><time>2026-05-02T16:39:52.883Z</time></trkpt><trkpt lat="40.4212915" lon="15.3436926"><ele>592.75</ele><time>2026-05-02T16:39:53.884Z</time></trkpt><trkpt lat="40.4213871" lon="15.3437888"><ele>592.5</ele><time>2026-05-02T16:39:54.884Z</time></trkpt><trkpt lat="40.4214655" lon="15.3439155"><ele>592.25</ele><time>2026-05-02T16:39:55.884Z</time></trkpt><trkpt lat="40.4215184" lon="15.3440655"><ele>592.0</ele><time>2026-05-02T16:39:56.884Z</time></trkpt><trkpt lat="40.421559" lon="15.3442415"><ele>592.0</ele><time>2026-05-02T16:39:57.884Z</time></trkpt><trkpt lat="40.4215994" lon="15.3444395"><ele>592.0</ele><time>2026-05-02T16:39:58.884Z</time></trkpt><trkpt lat="40.4216275" lon="15.3446428"><ele>592.0</ele><time>2026-05-02T16:39:59.883Z</time></trkpt><trkpt lat="40.4216522" lon="15.3448307"><ele>593.6666666666667</ele><time>2026-05-02T16:40:00.883Z</time></trkpt><trkpt lat="40.4216601" lon="15.3450323"><ele>595.3333333333334</ele><time>2026-05-02T16:40:01.884Z</time></trkpt><trkpt lat="40.4216571" lon="15.3452483"><ele>597.0</ele><time>2026-05-02T16:40:02.884Z</time></trkpt><trkpt lat="40.4216324" lon="15.3454679"><ele>597.3333333333334</ele><time>2026-05-02T16:40:03.884Z</time></trkpt><trkpt lat="40.4215999" lon="15.3456874"><ele>597.6666666666667</ele><time>2026-05-02T16:40:04.884Z</time></trkpt><trkpt lat="40.4215803" lon="15.3459135"><ele>598.0</ele><time>2026-05-02T16:40:05.884Z</time></trkpt><trkpt lat="40.4215716" lon="15.3461382"><ele>598.0</ele><time>2026-05-02T16:40:06.884Z</time></trkpt><trkpt lat="40.4215759" lon="15.3463551"><ele>598.0</ele><time>2026-05-02T16:40:07.884Z</time></trkpt><trkpt lat="40.4215973" lon="15.3465616"><ele>598.0</ele><time>2026-05-02T16:40:08.884Z</time></trkpt><trkpt lat="40.4216344" lon="15.3467424"><ele>598.0</ele><time>2026-05-02T16:40:09.884Z</time></trkpt><trkpt lat="40.4216419" lon="15.3469137"><ele>598.0</ele><time>2026-05-02T16:40:10.884Z</time></trkpt><trkpt lat="40.4216154" lon="15.3470643"><ele>598.0</ele><time>2026-05-02T16:40:11.884Z</time></trkpt><trkpt lat="40.4215518" lon="15.3472014"><ele>598.0</ele><time>2026-05-02T16:40:12.884Z</time></trkpt><trkpt lat="40.4214669" lon="15.3473155"><ele>598.0</ele><time>2026-05-02T16:40:13.883Z</time></trkpt><trkpt lat="40.421356" lon="15.3474179"><ele>598.0</ele><time>2026-05-02T16:40:14.884Z</time></trkpt><trkpt lat="40.4212414" lon="15.3475165"><ele>598.0</ele><time>2026-05-02T16:40:15.884Z</time></trkpt><trkpt lat="40.4211386" lon="15.3476272"><ele>598.0</ele><time>2026-05-02T16:40:16.884Z</time></trkpt><trkpt lat="40.4210478" lon="15.3477394"><ele>599.8</ele><time>2026-05-02T16:40:17.884Z</time></trkpt><trkpt lat="40.4209796" lon="15.3478566"><ele>601.5999999999999</ele><time>2026-05-02T16:40:18.884Z</time></trkpt><trkpt lat="40.4209538" lon="15.3479708"><ele>603.4000000000001</ele><time>2026-05-02T16:40:19.884Z</time></trkpt><trkpt lat="40.4209595" lon="15.3480876"><ele>605.2</ele><time>2026-05-02T16:40:20.883Z</time></trkpt><trkpt lat="40.4209971" lon="15.3481853"><ele>607.0</ele><time>2026-05-02T16:40:21.884Z</time></trkpt><trkpt lat="40.4210567" lon="15.3482615"><ele>607.0</ele><time>2026-05-02T16:40:22.884Z</time></trkpt><trkpt lat="40.4211355" lon="15.3483119"><ele>607.0</ele><time>2026-05-02T16:40:23.884Z</time></trkpt><trkpt lat="40.421232" lon="15.3483418"><ele>607.0</ele><time>2026-05-02T16:40:24.884Z</time></trkpt><trkpt lat="40.42134" lon="15.3483709"><ele>607.0</ele><time>2026-05-02T16:40:25.884Z</time></trkpt><trkpt lat="40.4214497" lon="15.3484023"><ele>607.0</ele><time>2026-05-02T16:40:26.884Z</time></trkpt><trkpt lat="40.421562" lon="15.3484339"><ele>606.0</ele><time>2026-05-02T16:40:27.884Z</time></trkpt><trkpt lat="40.4216734" lon="15.3484733"><ele>605.0</ele><time>2026-05-02T16:40:28.884Z</time></trkpt><trkpt lat="40.4217837" lon="15.3485147"><ele>604.0</ele><time>2026-05-02T16:40:29.883Z</time></trkpt><trkpt lat="40.4218813" lon="15.3485452"><ele>603.0</ele><time>2026-05-02T16:40:30.884Z</time></trkpt><trkpt lat="40.4219648" lon="15.3485698"><ele>602.0</ele><time>2026-05-02T16:40:31.884Z</time></trkpt><trkpt lat="40.4220363" lon="15.3485945"><ele>602.5</ele><time>2026-05-02T16:40:32.884Z</time></trkpt><trkpt lat="40.4221556" lon="15.3486219"><ele>603.0</ele><time>2026-05-02T16:40:34.884Z</time></trkpt><trkpt lat="40.4222375" lon="15.3486307"><ele>603.5</ele><time>2026-05-02T16:40:36.884Z</time></trkpt><trkpt lat="40.4223254" lon="15.34863"><ele>604.0</ele><time>2026-05-02T16:40:39.884Z</time></trkpt><trkpt lat="40.4223968" lon="15.348614"><ele>604.5</ele><time>2026-05-02T16:40:42.884Z</time></trkpt><trkpt lat="40.4224752" lon="15.3485735"><ele>605.0</ele><time>2026-05-02T16:40:45.885Z</time></trkpt><trkpt lat="40.4225396" lon="15.3485125"><ele>605.0</ele><time>2026-05-02T16:40:48.885Z</time></trkpt><trkpt lat="40.4225944" lon="15.348463"><ele>605.0</ele><time>2026-05-02T16:40:50.885Z</time></trkpt><trkpt lat="40.4226418" lon="15.3483918"><ele>605.0</ele><time>2026-05-02T16:40:52.885Z</time></trkpt><trkpt lat="40.4226918" lon="15.3482615"><ele>605.0</ele><time>2026-05-02T16:40:54.885Z</time></trkpt><trkpt lat="40.4227109" lon="15.3481764"><ele>605.0</ele><time>2026-05-02T16:40:55.885Z</time></trkpt><trkpt lat="40.4227302" lon="15.3480858"><ele>605.0</ele><time>2026-05-02T16:40:56.884Z</time></trkpt><trkpt lat="40.422747" lon="15.3479856"><ele>605.0</ele><time>2026-05-02T16:40:57.884Z</time></trkpt><trkpt lat="40.4227678" lon="15.3478763"><ele>605.0</ele><time>2026-05-02T16:40:58.885Z</time></trkpt><trkpt lat="40.4227996" lon="15.3477808"><ele>605.0</ele><time>2026-05-02T16:40:59.885Z</time></trkpt><trkpt lat="40.4228524" lon="15.347702"><ele>605.0</ele><time>2026-05-02T16:41:00.885Z</time></trkpt><trkpt lat="40.4229218" lon="15.3476545"><ele>605.0</ele><time>2026-05-02T16:41:01.885Z</time></trkpt><trkpt lat="40.4230091" lon="15.3476511"><ele>605.0</ele><time>2026-05-02T16:41:02.885Z</time></trkpt><trkpt lat="40.4231131" lon="15.3476905"><ele>605.0</ele><time>2026-05-02T16:41:03.885Z</time></trkpt><trkpt lat="40.423236" lon="15.3477476"><ele>605.0</ele><time>2026-05-02T16:41:04.884Z</time></trkpt><trkpt lat="40.4233631" lon="15.3477996"><ele>605.0</ele><time>2026-05-02T16:41:05.885Z</time></trkpt><trkpt lat="40.4234875" lon="15.3478571"><ele>605.0</ele><time>2026-05-02T16:41:06.885Z</time></trkpt><trkpt lat="40.4236073" lon="15.3479346"><ele>605.0</ele><time>2026-05-02T16:41:07.885Z</time></trkpt><trkpt lat="40.4237244" lon="15.3480167"><ele>605.0</ele><time>2026-05-02T16:41:08.885Z</time></trkpt><trkpt lat="40.4238286" lon="15.3481276"><ele>605.0</ele><time>2026-05-02T16:41:09.885Z</time></trkpt><trkpt lat="40.4239089" lon="15.3482792"><ele>605.0</ele><time>2026-05-02T16:41:10.885Z</time></trkpt><trkpt lat="40.4239709" lon="15.3484395"><ele>606.0</ele><time>2026-05-02T16:41:11.885Z</time></trkpt><trkpt lat="40.4240207" lon="15.3486056"><ele>607.0</ele><time>2026-05-02T16:41:12.884Z</time></trkpt><trkpt lat="40.4240665" lon="15.348762"><ele>608.0</ele><time>2026-05-02T16:41:13.884Z</time></trkpt><trkpt lat="40.424094" lon="15.3489107"><ele>609.0</ele><time>2026-05-02T16:41:14.884Z</time></trkpt><trkpt lat="40.4240963" lon="15.3490633"><ele>609.0</ele><time>2026-05-02T16:41:15.885Z</time></trkpt><trkpt lat="40.4240536" lon="15.349226"><ele>609.0</ele><time>2026-05-02T16:41:16.885Z</time></trkpt><trkpt lat="40.4239861" lon="15.3493838"><ele>609.0</ele><time>2026-05-02T16:41:17.885Z</time></trkpt><trkpt lat="40.4238997" lon="15.3495405"><ele>609.0</ele><time>2026-05-02T16:41:18.885Z</time></trkpt><trkpt lat="40.4238124" lon="15.3496963"><ele>610.25</ele><time>2026-05-02T16:41:19.884Z</time></trkpt><trkpt lat="40.4237362" lon="15.3498514"><ele>611.5</ele><time>2026-05-02T16:41:20.885Z</time></trkpt><trkpt lat="40.4236858" lon="15.349998"><ele>612.75</ele><time>2026-05-02T16:41:21.885Z</time></trkpt><trkpt lat="40.4236714" lon="15.3501404"><ele>614.0</ele><time>2026-05-02T16:41:22.885Z</time></trkpt><trkpt lat="40.4236907" lon="15.350283"><ele>614.0</ele><time>2026-05-02T16:41:23.885Z</time></trkpt><trkpt lat="40.4237318" lon="15.3504251"><ele>614.0</ele><time>2026-05-02T16:41:24.884Z</time></trkpt><trkpt lat="40.4237851" lon="15.3505686"><ele>614.0</ele><time>2026-05-02T16:41:25.885Z</time></trkpt><trkpt lat="40.423841" lon="15.3507179"><ele>614.0</ele><time>2026-05-02T16:41:26.885Z</time></trkpt><trkpt lat="40.4238995" lon="15.3508741"><ele>613.5</ele><time>2026-05-02T16:41:27.884Z</time></trkpt><trkpt lat="40.4239567" lon="15.3510433"><ele>613.0</ele><time>2026-05-02T16:41:28.885Z</time></trkpt><trkpt lat="40.42401" lon="15.3512098"><ele>612.5</ele><time>2026-05-02T16:41:29.885Z</time></trkpt><trkpt lat="40.4240529" lon="15.3513686"><ele>612.0</ele><time>2026-05-02T16:41:30.885Z</time></trkpt><trkpt lat="40.4240748" lon="15.3515311"><ele>612.0</ele><time>2026-05-02T16:41:31.885Z</time></trkpt><trkpt lat="40.4240771" lon="15.3517029"><ele>612.0</ele><time>2026-05-02T16:41:32.885Z</time></trkpt><trkpt lat="40.4240454" lon="15.3518753"><ele>612.0</ele><time>2026-05-02T16:41:33.885Z</time></trkpt><trkpt lat="40.4240083" lon="15.3520619"><ele>612.0</ele><time>2026-05-02T16:41:34.884Z</time></trkpt><trkpt lat="40.4239902" lon="15.3522478"><ele>613.0</ele><time>2026-05-02T16:41:35.885Z</time></trkpt><trkpt lat="40.4239864" lon="15.3524365"><ele>614.0</ele><time>2026-05-02T16:41:36.885Z</time></trkpt><trkpt lat="40.4239993" lon="15.3526136"><ele>615.0</ele><time>2026-05-02T16:41:37.885Z</time></trkpt><trkpt lat="40.4240119" lon="15.352786"><ele>616.0</ele><time>2026-05-02T16:41:38.885Z</time></trkpt><trkpt lat="40.4240061" lon="15.3529633"><ele>616.5</ele><time>2026-05-02T16:41:39.885Z</time></trkpt><trkpt lat="40.4239936" lon="15.3531299"><ele>617.0</ele><time>2026-05-02T16:41:40.885Z</time></trkpt><trkpt lat="40.4239955" lon="15.3533104"><ele>617.5</ele><time>2026-05-02T16:41:41.885Z</time></trkpt><trkpt lat="40.4240088" lon="15.3534834"><ele>618.0</ele><time>2026-05-02T16:41:42.885Z</time></trkpt><trkpt lat="40.4240333" lon="15.3536617"><ele>618.0</ele><time>2026-05-02T16:41:43.885Z</time></trkpt><trkpt lat="40.4240659" lon="15.3538451"><ele>618.0</ele><time>2026-05-02T16:41:44.884Z</time></trkpt><trkpt lat="40.4240874" lon="15.3540406"><ele>618.0</ele><time>2026-05-02T16:41:45.885Z</time></trkpt><trkpt lat="40.4241109" lon="15.3542503"><ele>619.0</ele><time>2026-05-02T16:41:46.885Z</time></trkpt><trkpt lat="40.4241277" lon="15.3544598"><ele>620.0</ele><time>2026-05-02T16:41:47.884Z</time></trkpt><trkpt lat="40.4241426" lon="15.3546735"><ele>621.0</ele><time>2026-05-02T16:41:48.885Z</time></trkpt><trkpt lat="40.4241651" lon="15.3548732"><ele>621.25</ele><time>2026-05-02T16:41:49.885Z</time></trkpt><trkpt lat="40.4241718" lon="15.3550625"><ele>621.5</ele><time>2026-05-02T16:41:50.885Z</time></trkpt><trkpt lat="40.424148" lon="15.3552439"><ele>621.75</ele><time>2026-05-02T16:41:51.885Z</time></trkpt><trkpt lat="40.4240786" lon="15.3554346"><ele>622.0</ele><time>2026-05-02T16:41:52.885Z</time></trkpt><trkpt lat="40.4240233" lon="15.3556109"><ele>622.0</ele><time>2026-05-02T16:41:53.885Z</time></trkpt><trkpt lat="40.4239606" lon="15.3558006"><ele>622.0</ele><time>2026-05-02T16:41:54.884Z</time></trkpt><trkpt lat="40.4238958" lon="15.3559784"><ele>622.0</ele><time>2026-05-02T16:41:55.885Z</time></trkpt><trkpt lat="40.4238345" lon="15.3561401"><ele>622.0</ele><time>2026-05-02T16:41:56.885Z</time></trkpt><trkpt lat="40.4237611" lon="15.3562785"><ele>624.75</ele><time>2026-05-02T16:41:57.885Z</time></trkpt><trkpt lat="40.4236766" lon="15.3563897"><ele>627.5</ele><time>2026-05-02T16:41:58.885Z</time></trkpt><trkpt lat="40.4235743" lon="15.3564889"><ele>630.25</ele><time>2026-05-02T16:41:59.885Z</time></trkpt><trkpt lat="40.423476" lon="15.3565991"><ele>633.0</ele><time>2026-05-02T16:42:00.884Z</time></trkpt><trkpt lat="40.4233928" lon="15.3567299"><ele>633.0</ele><time>2026-05-02T16:42:01.885Z</time></trkpt><trkpt lat="40.4233413" lon="15.3568779"><ele>633.0</ele><time>2026-05-02T16:42:02.884Z</time></trkpt><trkpt lat="40.4233179" lon="15.3570463"><ele>633.0</ele><time>2026-05-02T16:42:03.884Z</time></trkpt><trkpt lat="40.4233168" lon="15.3572278"><ele>633.0</ele><time>2026-05-02T16:42:04.885Z</time></trkpt><trkpt lat="40.4233191" lon="15.3574177"><ele>632.3333333333334</ele><time>2026-05-02T16:42:05.885Z</time></trkpt><trkpt lat="40.423318" lon="15.3576166"><ele>631.6666666666667</ele><time>2026-05-02T16:42:06.885Z</time></trkpt><trkpt lat="40.4233267" lon="15.3578238"><ele>631.0</ele><time>2026-05-02T16:42:07.885Z</time></trkpt><trkpt lat="40.423336" lon="15.3580357"><ele>631.0</ele><time>2026-05-02T16:42:08.885Z</time></trkpt><trkpt lat="40.4233512" lon="15.3582418"><ele>631.0</ele><time>2026-05-02T16:42:09.884Z</time></trkpt><trkpt lat="40.4233617" lon="15.3584528"><ele>631.0</ele><time>2026-05-02T16:42:10.885Z</time></trkpt><trkpt lat="40.4233616" lon="15.3586708"><ele>630.6666666666667</ele><time>2026-05-02T16:42:11.885Z</time></trkpt><trkpt lat="40.4233537" lon="15.3588912"><ele>630.3333333333334</ele><time>2026-05-02T16:42:12.885Z</time></trkpt><trkpt lat="40.4233393" lon="15.3591074"><ele>630.0</ele><time>2026-05-02T16:42:13.885Z</time></trkpt><trkpt lat="40.4233161" lon="15.3593189"><ele>630.0</ele><time>2026-05-02T16:42:14.884Z</time></trkpt><trkpt lat="40.4232818" lon="15.3595183"><ele>630.0</ele><time>2026-05-02T16:42:15.884Z</time></trkpt><trkpt lat="40.4232272" lon="15.359709"><ele>630.0</ele><time>2026-05-02T16:42:16.884Z</time></trkpt><trkpt lat="40.4231602" lon="15.3598865"><ele>628.0</ele><time>2026-05-02T16:42:17.885Z</time></trkpt><trkpt lat="40.4230811" lon="15.3600594"><ele>626.0</ele><time>2026-05-02T16:42:18.885Z</time></trkpt><trkpt lat="40.4230048" lon="15.3602337"><ele>624.0</ele><time>2026-05-02T16:42:19.885Z</time></trkpt><trkpt lat="40.4229526" lon="15.3604151"><ele>630.75</ele><time>2026-05-02T16:42:20.885Z</time></trkpt><trkpt lat="40.422922" lon="15.360597"><ele>637.5</ele><time>2026-05-02T16:42:21.885Z</time></trkpt><trkpt lat="40.4228891" lon="15.3607627"><ele>644.25</ele><time>2026-05-02T16:42:22.885Z</time></trkpt><trkpt lat="40.4228303" lon="15.3609083"><ele>651.0</ele><time>2026-05-02T16:42:23.885Z</time></trkpt><trkpt lat="40.4227212" lon="15.3610327"><ele>651.0</ele><time>2026-05-02T16:42:24.885Z</time></trkpt><trkpt lat="40.4226114" lon="15.3611426"><ele>651.0</ele><time>2026-05-02T16:42:25.884Z</time></trkpt><trkpt lat="40.4225056" lon="15.361257"><ele>651.0</ele><time>2026-05-02T16:42:26.885Z</time></trkpt><trkpt lat="40.4224051" lon="15.3613834"><ele>651.0</ele><time>2026-05-02T16:42:27.885Z</time></trkpt><trkpt lat="40.4223244" lon="15.3615198"><ele>651.75</ele><time>2026-05-02T16:42:28.884Z</time></trkpt><trkpt lat="40.4222766" lon="15.3616873"><ele>652.5</ele><time>2026-05-02T16:42:29.885Z</time></trkpt><trkpt lat="40.4222283" lon="15.3618569"><ele>653.25</ele><time>2026-05-02T16:42:30.885Z</time></trkpt><trkpt lat="40.4221839" lon="15.3620341"><ele>654.0</ele><time>2026-05-02T16:42:31.885Z</time></trkpt><trkpt lat="40.422143" lon="15.362221"><ele>654.0</ele><time>2026-05-02T16:42:32.885Z</time></trkpt><trkpt lat="40.4220873" lon="15.3624081"><ele>654.0</ele><time>2026-05-02T16:42:33.885Z</time></trkpt><trkpt lat="40.4220313" lon="15.3626066"><ele>654.0</ele><time>2026-05-02T16:42:34.884Z</time></trkpt><trkpt lat="40.4219632" lon="15.3628027"><ele>654.0</ele><time>2026-05-02T16:42:35.885Z</time></trkpt><trkpt lat="40.4218859" lon="15.3630124"><ele>654.0</ele><time>2026-05-02T16:42:36.884Z</time></trkpt><trkpt lat="40.4217857" lon="15.3632094"><ele>654.0</ele><time>2026-05-02T16:42:37.885Z</time></trkpt><trkpt lat="40.4217116" lon="15.3634117"><ele>651.0</ele><time>2026-05-02T16:42:38.885Z</time></trkpt><trkpt lat="40.4216577" lon="15.363611"><ele>648.0</ele><time>2026-05-02T16:42:39.885Z</time></trkpt><trkpt lat="40.4216345" lon="15.3638159"><ele>645.0</ele><time>2026-05-02T16:42:40.885Z</time></trkpt><trkpt lat="40.4216231" lon="15.3640164"><ele>644.3333333333334</ele><time>2026-05-02T16:42:41.885Z</time></trkpt><trkpt lat="40.421603" lon="15.3642154"><ele>643.6666666666667</ele><time>2026-05-02T16:42:42.884Z</time></trkpt><trkpt lat="40.4215834" lon="15.3644243"><ele>643.0</ele><time>2026-05-02T16:42:43.885Z</time></trkpt><trkpt lat="40.421576" lon="15.364635"><ele>644.0</ele><time>2026-05-02T16:42:44.885Z</time></trkpt><trkpt lat="40.4215855" lon="15.3648428"><ele>645.0</ele><time>2026-05-02T16:42:45.884Z</time></trkpt><trkpt lat="40.4216134" lon="15.3650529"><ele>646.0</ele><time>2026-05-02T16:42:46.885Z</time></trkpt><trkpt lat="40.4216351" lon="15.3652645"><ele>646.0</ele><time>2026-05-02T16:42:47.885Z</time></trkpt><trkpt lat="40.4216437" lon="15.3654747"><ele>646.0</ele><time>2026-05-02T16:42:48.885Z</time></trkpt><trkpt lat="40.4216485" lon="15.3656847"><ele>646.0</ele><time>2026-05-02T16:42:49.884Z</time></trkpt><trkpt lat="40.4216502" lon="15.3658904"><ele>646.3333333333334</ele><time>2026-05-02T16:42:50.885Z</time></trkpt><trkpt lat="40.4216533" lon="15.3661025"><ele>646.6666666666666</ele><time>2026-05-02T16:42:51.885Z</time></trkpt><trkpt lat="40.4216613" lon="15.3663197"><ele>647.0</ele><time>2026-05-02T16:42:52.885Z</time></trkpt><trkpt lat="40.421663" lon="15.3665377"><ele>647.6666666666666</ele><time>2026-05-02T16:42:53.885Z</time></trkpt><trkpt lat="40.4216688" lon="15.3667475"><ele>648.3333333333334</ele><time>2026-05-02T16:42:54.884Z</time></trkpt><trkpt lat="40.4216898" lon="15.366948"><ele>649.0</ele><time>2026-05-02T16:42:55.885Z</time></trkpt><trkpt lat="40.4217376" lon="15.3671424"><ele>650.5</ele><time>2026-05-02T16:42:56.885Z</time></trkpt><trkpt lat="40.4218044" lon="15.3673184"><ele>652.0</ele><time>2026-05-02T16:42:57.885Z</time></trkpt><trkpt lat="40.4218724" lon="15.3674635"><ele>653.5</ele><time>2026-05-02T16:42:58.885Z</time></trkpt><trkpt lat="40.4219407" lon="15.3675875"><ele>655.0</ele><time>2026-05-02T16:42:59.885Z</time></trkpt><trkpt lat="40.4220225" lon="15.3676869"><ele>655.0</ele><time>2026-05-02T16:43:00.884Z</time></trkpt><trkpt lat="40.4221226" lon="15.3677517"><ele>655.0</ele><time>2026-05-02T16:43:01.885Z</time></trkpt><trkpt lat="40.4222261" lon="15.3677855"><ele>655.0</ele><time>2026-05-02T16:43:02.885Z</time></trkpt><trkpt lat="40.422334" lon="15.3677977"><ele>655.0</ele><time>2026-05-02T16:43:03.884Z</time></trkpt><trkpt lat="40.4224273" lon="15.3678166"><ele>655.0</ele><time>2026-05-02T16:43:04.885Z</time></trkpt><trkpt lat="40.4225093" lon="15.3678573"><ele>654.1666666666667</ele><time>2026-05-02T16:43:05.885Z</time></trkpt><trkpt lat="40.4225632" lon="15.3679244"><ele>653.3333333333334</ele><time>2026-05-02T16:43:06.885Z</time></trkpt><trkpt lat="40.4225896" lon="15.3680153"><ele>652.5</ele><time>2026-05-02T16:43:07.885Z</time></trkpt><trkpt lat="40.4225915" lon="15.3681212"><ele>651.6666666666666</ele><time>2026-05-02T16:43:08.885Z</time></trkpt><trkpt lat="40.4225637" lon="15.3682453"><ele>650.8333333333333</ele><time>2026-05-02T16:43:09.884Z</time></trkpt><trkpt lat="40.4224967" lon="15.3683686"><ele>650.0</ele><time>2026-05-02T16:43:10.885Z</time></trkpt><trkpt lat="40.422417" lon="15.3684842"><ele>650.0</ele><time>2026-05-02T16:43:11.885Z</time></trkpt><trkpt lat="40.4223544" lon="15.3685976"><ele>650.0</ele><time>2026-05-02T16:43:12.885Z</time></trkpt><trkpt lat="40.4223162" lon="15.3687111"><ele>650.0</ele><time>2026-05-02T16:43:13.884Z</time></trkpt><trkpt lat="40.422301" lon="15.3688236"><ele>650.0</ele><time>2026-05-02T16:43:14.885Z</time></trkpt><trkpt lat="40.4223077" lon="15.3689306"><ele>650.0</ele><time>2026-05-02T16:43:15.885Z</time></trkpt><trkpt lat="40.4223473" lon="15.3690345"><ele>651.0</ele><time>2026-05-02T16:43:16.885Z</time></trkpt><trkpt lat="40.4224123" lon="15.3691203"><ele>652.0</ele><time>2026-05-02T16:43:17.885Z</time></trkpt><trkpt lat="40.4225006" lon="15.3691742"><ele>653.0</ele><time>2026-05-02T16:43:18.885Z</time></trkpt><trkpt lat="40.4225984" lon="15.3692016"><ele>654.0</ele><time>2026-05-02T16:43:19.885Z</time></trkpt><trkpt lat="40.4227038" lon="15.3691849"><ele>655.0</ele><time>2026-05-02T16:43:20.885Z</time></trkpt><trkpt lat="40.4228191" lon="15.3691385"><ele>655.0</ele><time>2026-05-02T16:43:21.885Z</time></trkpt><trkpt lat="40.4229463" lon="15.3690769"><ele>655.0</ele><time>2026-05-02T16:43:22.885Z</time></trkpt><trkpt lat="40.4230654" lon="15.3690437"><ele>655.0</ele><time>2026-05-02T16:43:23.885Z</time></trkpt><trkpt lat="40.4231808" lon="15.3690514"><ele>655.0</ele><time>2026-05-02T16:43:24.885Z</time></trkpt><trkpt lat="40.4232822" lon="15.3691011"><ele>654.6</ele><time>2026-05-02T16:43:25.884Z</time></trkpt><trkpt lat="40.4233663" lon="15.3691736"><ele>654.2</ele><time>2026-05-02T16:43:26.884Z</time></trkpt><trkpt lat="40.4234333" lon="15.3692806"><ele>653.8</ele><time>2026-05-02T16:43:27.885Z</time></trkpt><trkpt lat="40.4234821" lon="15.3694137"><ele>653.4</ele><time>2026-05-02T16:43:28.885Z</time></trkpt><trkpt lat="40.4235141" lon="15.3695622"><ele>653.0</ele><time>2026-05-02T16:43:29.885Z</time></trkpt><trkpt lat="40.42354" lon="15.3697387"><ele>655.3333333333333</ele><time>2026-05-02T16:43:30.884Z</time></trkpt><trkpt lat="40.4235777" lon="15.3699353"><ele>657.6666666666666</ele><time>2026-05-02T16:43:31.885Z</time></trkpt><trkpt lat="40.4236136" lon="15.3701373"><ele>660.0</ele><time>2026-05-02T16:43:32.884Z</time></trkpt><trkpt lat="40.4236523" lon="15.3703532"><ele>662.0</ele><time>2026-05-02T16:43:33.885Z</time></trkpt><trkpt lat="40.423695" lon="15.370566"><ele>664.0</ele><time>2026-05-02T16:43:34.884Z</time></trkpt><trkpt lat="40.4237368" lon="15.3707705"><ele>666.0</ele><time>2026-05-02T16:43:35.884Z</time></trkpt><trkpt lat="40.4237722" lon="15.3709643"><ele>666.0</ele><time>2026-05-02T16:43:36.884Z</time></trkpt><trkpt lat="40.4238023" lon="15.3711448"><ele>666.0</ele><time>2026-05-02T16:43:37.885Z</time></trkpt><trkpt lat="40.4238362" lon="15.3712975"><ele>666.0</ele><time>2026-05-02T16:43:38.885Z</time></trkpt><trkpt lat="40.4238719" lon="15.371435"><ele>666.0</ele><time>2026-05-02T16:43:39.885Z</time></trkpt><trkpt lat="40.4239185" lon="15.3715375"><ele>665.0</ele><time>2026-05-02T16:43:40.884Z</time></trkpt><trkpt lat="40.423984" lon="15.3715995"><ele>664.0</ele><time>2026-05-02T16:43:41.885Z</time></trkpt><trkpt lat="40.4240577" lon="15.3716283"><ele>663.0</ele><time>2026-05-02T16:43:42.885Z</time></trkpt><trkpt lat="40.4241491" lon="15.3716219"><ele>662.0</ele><time>2026-05-02T16:43:43.884Z</time></trkpt><trkpt lat="40.4242531" lon="15.3715853"><ele>661.0</ele><time>2026-05-02T16:43:44.884Z</time></trkpt><trkpt lat="40.4243661" lon="15.3715615"><ele>661.0</ele><time>2026-05-02T16:43:45.885Z</time></trkpt><trkpt lat="40.4244899" lon="15.3715558"><ele>661.0</ele><time>2026-05-02T16:43:46.884Z</time></trkpt><trkpt lat="40.4246252" lon="15.3715682"><ele>661.0</ele><time>2026-05-02T16:43:47.885Z</time></trkpt><trkpt lat="40.4247483" lon="15.3715899"><ele>661.0</ele><time>2026-05-02T16:43:48.885Z</time></trkpt><trkpt lat="40.4248701" lon="15.3716305"><ele>660.8</ele><time>2026-05-02T16:43:49.884Z</time></trkpt><trkpt lat="40.4249632" lon="15.3716872"><ele>660.5999999999999</ele><time>2026-05-02T16:43:50.884Z</time></trkpt><trkpt lat="40.4250228" lon="15.3717783"><ele>660.4</ele><time>2026-05-02T16:43:51.885Z</time></trkpt><trkpt lat="40.4250567" lon="15.3718872"><ele>660.2</ele><time>2026-05-02T16:43:52.885Z</time></trkpt><trkpt lat="40.4250555" lon="15.3719994"><ele>660.0</ele><time>2026-05-02T16:43:53.885Z</time></trkpt><trkpt lat="40.4250233" lon="15.372121"><ele>661.4</ele><time>2026-05-02T16:43:54.884Z</time></trkpt><trkpt lat="40.4249865" lon="15.3722349"><ele>662.8</ele><time>2026-05-02T16:43:55.885Z</time></trkpt><trkpt lat="40.4249748" lon="15.3723331"><ele>664.2</ele><time>2026-05-02T16:43:56.885Z</time></trkpt><trkpt lat="40.4249849" lon="15.3724195"><ele>665.6</ele><time>2026-05-02T16:43:57.885Z</time></trkpt><trkpt lat="40.4250604" lon="15.3725419"><ele>667.0</ele><time>2026-05-02T16:43:59.884Z</time></trkpt><trkpt lat="40.425189" lon="15.3725455"><ele>667.0</ele><time>2026-05-02T16:44:01.885Z</time></trkpt><trkpt lat="40.4252737" lon="15.3725051"><ele>667.0</ele><time>2026-05-02T16:44:02.885Z</time></trkpt><trkpt lat="40.4253881" lon="15.3724551"><ele>667.0</ele><time>2026-05-02T16:44:03.885Z</time></trkpt><trkpt lat="40.4255262" lon="15.3724248"><ele>667.0</ele><time>2026-05-02T16:44:04.885Z</time></trkpt><trkpt lat="40.4256723" lon="15.3724082"><ele>666.25</ele><time>2026-05-02T16:44:05.885Z</time></trkpt><trkpt lat="40.4258191" lon="15.3724064"><ele>665.5</ele><time>2026-05-02T16:44:06.885Z</time></trkpt><trkpt lat="40.4259633" lon="15.3724117"><ele>664.75</ele><time>2026-05-02T16:44:07.885Z</time></trkpt><trkpt lat="40.4260911" lon="15.3724453"><ele>664.0</ele><time>2026-05-02T16:44:08.885Z</time></trkpt><trkpt lat="40.4261921" lon="15.3725101"><ele>664.0</ele><time>2026-05-02T16:44:09.885Z</time></trkpt><trkpt lat="40.4262716" lon="15.3726143"><ele>664.0</ele><time>2026-05-02T16:44:10.885Z</time></trkpt><trkpt lat="40.4263189" lon="15.3727387"><ele>664.0</ele><time>2026-05-02T16:44:11.885Z</time></trkpt><trkpt lat="40.4263536" lon="15.3728729"><ele>664.0</ele><time>2026-05-02T16:44:12.885Z</time></trkpt><trkpt lat="40.4264019" lon="15.3729879"><ele>664.0</ele><time>2026-05-02T16:44:13.885Z</time></trkpt><trkpt lat="40.4264729" lon="15.3730713"><ele>663.2</ele><time>2026-05-02T16:44:14.885Z</time></trkpt><trkpt lat="40.4265566" lon="15.373107"><ele>662.4000000000001</ele><time>2026-05-02T16:44:15.884Z</time></trkpt><trkpt lat="40.4266445" lon="15.3731092"><ele>661.6</ele><time>2026-05-02T16:44:16.885Z</time></trkpt><trkpt lat="40.4267331" lon="15.3730776"><ele>660.8</ele><time>2026-05-02T16:44:17.884Z</time></trkpt><trkpt lat="40.4268256" lon="15.3730329"><ele>660.0</ele><time>2026-05-02T16:44:18.885Z</time></trkpt><trkpt lat="40.4269219" lon="15.3729771"><ele>660.0</ele><time>2026-05-02T16:44:19.885Z</time></trkpt><trkpt lat="40.427024" lon="15.3729297"><ele>660.0</ele><time>2026-05-02T16:44:20.885Z</time></trkpt><trkpt lat="40.4271311" lon="15.3728929"><ele>660.0</ele><time>2026-05-02T16:44:21.884Z</time></trkpt><trkpt lat="40.4272484" lon="15.3728665"><ele>660.0</ele><time>2026-05-02T16:44:22.885Z</time></trkpt><trkpt lat="40.4273858" lon="15.3728915"><ele>659.5</ele><time>2026-05-02T16:44:23.885Z</time></trkpt><trkpt lat="40.4275097" lon="15.3729593"><ele>659.0</ele><time>2026-05-02T16:44:24.885Z</time></trkpt><trkpt lat="40.4276193" lon="15.3730668"><ele>658.5</ele><time>2026-05-02T16:44:25.885Z</time></trkpt><trkpt lat="40.427708" lon="15.3731972"><ele>658.0</ele><time>2026-05-02T16:44:26.885Z</time></trkpt><trkpt lat="40.4277918" lon="15.3733191"><ele>659.4</ele><time>2026-05-02T16:44:27.885Z</time></trkpt><trkpt lat="40.4278651" lon="15.3734261"><ele>660.8</ele><time>2026-05-02T16:44:28.884Z</time></trkpt><trkpt lat="40.4279437" lon="15.3735091"><ele>662.2</ele><time>2026-05-02T16:44:29.885Z</time></trkpt><trkpt lat="40.4280362" lon="15.3735586"><ele>663.6</ele><time>2026-05-02T16:44:30.885Z</time></trkpt><trkpt lat="40.4281393" lon="15.3735724"><ele>665.0</ele><time>2026-05-02T16:44:31.885Z</time></trkpt><trkpt lat="40.4282421" lon="15.3735586"><ele>665.0</ele><time>2026-05-02T16:44:32.885Z</time></trkpt><trkpt lat="40.4283613" lon="15.3735587"><ele>665.0</ele><time>2026-05-02T16:44:33.885Z</time></trkpt><trkpt lat="40.4284798" lon="15.373598"><ele>665.0</ele><time>2026-05-02T16:44:34.884Z</time></trkpt><trkpt lat="40.4285796" lon="15.3736733"><ele>665.0</ele><time>2026-05-02T16:44:35.885Z</time></trkpt><trkpt lat="40.4286594" lon="15.3737882"><ele>665.75</ele><time>2026-05-02T16:44:36.884Z</time></trkpt><trkpt lat="40.4287167" lon="15.3739243"><ele>666.5</ele><time>2026-05-02T16:44:37.885Z</time></trkpt><trkpt lat="40.4287771" lon="15.3740754"><ele>667.25</ele><time>2026-05-02T16:44:38.885Z</time></trkpt><trkpt lat="40.4288663" lon="15.3742259"><ele>668.0</ele><time>2026-05-02T16:44:39.885Z</time></trkpt><trkpt lat="40.4289759" lon="15.3743681"><ele>668.0</ele><time>2026-05-02T16:44:40.885Z</time></trkpt><trkpt lat="40.4290841" lon="15.3745017"><ele>668.0</ele><time>2026-05-02T16:44:41.884Z</time></trkpt><trkpt lat="40.4291797" lon="15.3746332"><ele>668.0</ele><time>2026-05-02T16:44:42.885Z</time></trkpt><trkpt lat="40.4292627" lon="15.3747409"><ele>668.0</ele><time>2026-05-02T16:44:43.885Z</time></trkpt><trkpt lat="40.4293442" lon="15.3747966"><ele>668.2</ele><time>2026-05-02T16:44:44.884Z</time></trkpt><trkpt lat="40.4294374" lon="15.3748068"><ele>668.4</ele><time>2026-05-02T16:44:45.884Z</time></trkpt><trkpt lat="40.4295359" lon="15.374781"><ele>668.6</ele><time>2026-05-02T16:44:46.885Z</time></trkpt><trkpt lat="40.4296449" lon="15.3747188"><ele>668.8000000000001</ele><time>2026-05-02T16:44:47.885Z</time></trkpt><trkpt lat="40.4297522" lon="15.3746376"><ele>669.0</ele><time>2026-05-02T16:44:48.884Z</time></trkpt><trkpt lat="40.4298468" lon="15.3745609"><ele>669.0</ele><time>2026-05-02T16:44:49.884Z</time></trkpt><trkpt lat="40.429931" lon="15.3744923"><ele>669.0</ele><time>2026-05-02T16:44:50.884Z</time></trkpt><trkpt lat="40.4300171" lon="15.3744408"><ele>669.0</ele><time>2026-05-02T16:44:51.885Z</time></trkpt><trkpt lat="40.4300981" lon="15.374424"><ele>669.0</ele><time>2026-05-02T16:44:52.885Z</time></trkpt><trkpt lat="40.4301718" lon="15.3744405"><ele>669.0</ele><time>2026-05-02T16:44:53.884Z</time></trkpt><trkpt lat="40.4302348" lon="15.37449"><ele>669.0</ele><time>2026-05-02T16:44:54.885Z</time></trkpt><trkpt lat="40.4302726" lon="15.37457"><ele>669.0</ele><time>2026-05-02T16:44:55.885Z</time></trkpt><trkpt lat="40.4302796" lon="15.3746714"><ele>669.0</ele><time>2026-05-02T16:44:56.884Z</time></trkpt><trkpt lat="40.4302658" lon="15.3748007"><ele>669.0</ele><time>2026-05-02T16:44:57.885Z</time></trkpt><trkpt lat="40.4302489" lon="15.3749539"><ele>669.0</ele><time>2026-05-02T16:44:58.885Z</time></trkpt><trkpt lat="40.4302529" lon="15.3751218"><ele>669.0</ele><time>2026-05-02T16:44:59.885Z</time></trkpt><trkpt lat="40.4302686" lon="15.3752838"><ele>670.8000000000001</ele><time>2026-05-02T16:45:00.884Z</time></trkpt><trkpt lat="40.4302974" lon="15.3754447"><ele>672.6</ele><time>2026-05-02T16:45:01.885Z</time></trkpt><trkpt lat="40.4303322" lon="15.3755925"><ele>674.4</ele><time>2026-05-02T16:45:02.885Z</time></trkpt><trkpt lat="40.430369" lon="15.3757307"><ele>676.2</ele><time>2026-05-02T16:45:03.884Z</time></trkpt><trkpt lat="40.4304135" lon="15.3758353"><ele>678.0</ele><time>2026-05-02T16:45:04.885Z</time></trkpt><trkpt lat="40.4304612" lon="15.3759109"><ele>678.3333333333334</ele><time>2026-05-02T16:45:05.885Z</time></trkpt><trkpt lat="40.4305311" lon="15.3759535"><ele>678.6666666666666</ele><time>2026-05-02T16:45:06.885Z</time></trkpt><trkpt lat="40.4306151" lon="15.3759661"><ele>679.0</ele><time>2026-05-02T16:45:07.885Z</time></trkpt><trkpt lat="40.4307059" lon="15.3759527"><ele>679.3333333333333</ele><time>2026-05-02T16:45:08.885Z</time></trkpt><trkpt lat="40.4307959" lon="15.3759308"><ele>679.6666666666666</ele><time>2026-05-02T16:45:09.885Z</time></trkpt><trkpt lat="40.4308719" lon="15.3759197"><ele>680.0</ele><time>2026-05-02T16:45:10.885Z</time></trkpt><trkpt lat="40.4309375" lon="15.3759147"><ele>680.0</ele><time>2026-05-02T16:45:11.884Z</time></trkpt><trkpt lat="40.4310394" lon="15.3759053"><ele>680.0</ele><time>2026-05-02T16:45:13.885Z</time></trkpt><trkpt lat="40.4311127" lon="15.3759216"><ele>680.0</ele><time>2026-05-02T16:45:17.885Z</time></trkpt><trkpt lat="40.4310871" lon="15.3760266"><ele>680.0</ele><time>2026-05-02T16:45:20.885Z</time></trkpt><trkpt lat="40.4309835" lon="15.3761269"><ele>680.0</ele><time>2026-05-02T16:45:22.885Z</time></trkpt><trkpt lat="40.4309022" lon="15.3761682"><ele>680.0</ele><time>2026-05-02T16:45:23.885Z</time></trkpt><trkpt lat="40.4308135" lon="15.3761957"><ele>680.0</ele><time>2026-05-02T16:45:24.885Z</time></trkpt><trkpt lat="40.4307223" lon="15.3762104"><ele>680.0</ele><time>2026-05-02T16:45:25.884Z</time></trkpt><trkpt lat="40.430633" lon="15.3762149"><ele>680.0</ele><time>2026-05-02T16:45:26.885Z</time></trkpt><trkpt lat="40.4305478" lon="15.3762186"><ele>680.0</ele><time>2026-05-02T16:45:27.884Z</time></trkpt><trkpt lat="40.4304688" lon="15.3762096"><ele>680.0</ele><time>2026-05-02T16:45:28.884Z</time></trkpt><trkpt lat="40.4304039" lon="15.3761882"><ele>681.0</ele><time>2026-05-02T16:45:29.885Z</time></trkpt><trkpt lat="40.430338" lon="15.37614"><ele>682.0</ele><time>2026-05-02T16:45:30.885Z</time></trkpt><trkpt lat="40.4302806" lon="15.376068"><ele>683.0</ele><time>2026-05-02T16:45:31.885Z</time></trkpt><trkpt lat="40.4302298" lon="15.3759813"><ele>684.0</ele><time>2026-05-02T16:45:32.885Z</time></trkpt><trkpt lat="40.4301925" lon="15.3758763"><ele>685.0</ele><time>2026-05-02T16:45:33.885Z</time></trkpt><trkpt lat="40.4301558" lon="15.3757747"><ele>686.0</ele><time>2026-05-02T16:45:34.884Z</time></trkpt><trkpt lat="40.4301154" lon="15.3756765"><ele>686.0</ele><time>2026-05-02T16:45:35.885Z</time></trkpt><trkpt lat="40.4300707" lon="15.37559"><ele>686.0</ele><time>2026-05-02T16:45:36.884Z</time></trkpt><trkpt lat="40.4300236" lon="15.3754993"><ele>686.0</ele><time>2026-05-02T16:45:37.884Z</time></trkpt><trkpt lat="40.4299648" lon="15.3754144"><ele>686.0</ele><time>2026-05-02T16:45:38.885Z</time></trkpt><trkpt lat="40.4298963" lon="15.3753494"><ele>686.0</ele><time>2026-05-02T16:45:39.885Z</time></trkpt><trkpt lat="40.4298139" lon="15.3753025"><ele>686.0</ele><time>2026-05-02T16:45:40.884Z</time></trkpt><trkpt lat="40.429716" lon="15.375265"><ele>685.8</ele><time>2026-05-02T16:45:41.884Z</time></trkpt><trkpt lat="40.4296045" lon="15.3752432"><ele>685.5999999999999</ele><time>2026-05-02T16:45:42.885Z</time></trkpt><trkpt lat="40.4295071" lon="15.375229"><ele>685.4</ele><time>2026-05-02T16:45:43.884Z</time></trkpt><trkpt lat="40.4294087" lon="15.3752133"><ele>685.2</ele><time>2026-05-02T16:45:44.884Z</time></trkpt><trkpt lat="40.4293094" lon="15.3752022"><ele>685.0</ele><time>2026-05-02T16:45:45.885Z</time></trkpt><trkpt lat="40.4292001" lon="15.375189"><ele>685.0</ele><time>2026-05-02T16:45:46.884Z</time></trkpt><trkpt lat="40.4290814" lon="15.3751617"><ele>685.0</ele><time>2026-05-02T16:45:47.885Z</time></trkpt><trkpt lat="40.4289532" lon="15.3751138"><ele>685.0</ele><time>2026-05-02T16:45:48.885Z</time></trkpt><trkpt lat="40.4288174" lon="15.3750578"><ele>685.0</ele><time>2026-05-02T16:45:49.885Z</time></trkpt><trkpt lat="40.4286866" lon="15.3750167"><ele>687.5</ele><time>2026-05-02T16:45:50.885Z</time></trkpt><trkpt lat="40.4285548" lon="15.3749969"><ele>690.0</ele><time>2026-05-02T16:45:51.885Z</time></trkpt><trkpt lat="40.4284206" lon="15.3749916"><ele>692.5</ele><time>2026-05-02T16:45:52.885Z</time></trkpt><trkpt lat="40.4283044" lon="15.3750154"><ele>695.0</ele><time>2026-05-02T16:45:53.885Z</time></trkpt><trkpt lat="40.4282074" lon="15.3750759"><ele>695.0</ele><time>2026-05-02T16:45:54.885Z</time></trkpt><trkpt lat="40.4281296" lon="15.3751714"><ele>695.0</ele><time>2026-05-02T16:45:55.884Z</time></trkpt><trkpt lat="40.4280607" lon="15.3752988"><ele>695.0</ele><time>2026-05-02T16:45:56.885Z</time></trkpt><trkpt lat="40.4279998" lon="15.3754447"><ele>695.0</ele><time>2026-05-02T16:45:57.885Z</time></trkpt><trkpt lat="40.4279383" lon="15.3755899"><ele>696.5</ele><time>2026-05-02T16:45:58.884Z</time></trkpt><trkpt lat="40.4278751" lon="15.3757465"><ele>698.0</ele><time>2026-05-02T16:45:59.885Z</time></trkpt><trkpt lat="40.4278111" lon="15.37591"><ele>699.5</ele><time>2026-05-02T16:46:00.885Z</time></trkpt><trkpt lat="40.4277486" lon="15.3760554"><ele>701.0</ele><time>2026-05-02T16:46:01.885Z</time></trkpt><trkpt lat="40.4276778" lon="15.376186"><ele>701.0</ele><time>2026-05-02T16:46:02.885Z</time></trkpt><trkpt lat="40.4275955" lon="15.376287"><ele>701.0</ele><time>2026-05-02T16:46:03.885Z</time></trkpt><trkpt lat="40.4274994" lon="15.3763428"><ele>701.0</ele><time>2026-05-02T16:46:04.885Z</time></trkpt><trkpt lat="40.427393" lon="15.3763347"><ele>701.0</ele><time>2026-05-02T16:46:05.885Z</time></trkpt><trkpt lat="40.4272901" lon="15.3762729"><ele>701.0</ele><time>2026-05-02T16:46:06.885Z</time></trkpt><trkpt lat="40.4271943" lon="15.3761823"><ele>701.5</ele><time>2026-05-02T16:46:07.885Z</time></trkpt><trkpt lat="40.4270948" lon="15.3760888"><ele>702.0</ele><time>2026-05-02T16:46:08.885Z</time></trkpt><trkpt lat="40.426991" lon="15.3759855"><ele>702.5</ele><time>2026-05-02T16:46:09.885Z</time></trkpt><trkpt lat="40.4268844" lon="15.3758726"><ele>703.0</ele><time>2026-05-02T16:46:10.885Z</time></trkpt><trkpt lat="40.4267759" lon="15.3757503"><ele>703.0</ele><time>2026-05-02T16:46:11.884Z</time></trkpt><trkpt lat="40.4266711" lon="15.3756427"><ele>703.0</ele><time>2026-05-02T16:46:12.885Z</time></trkpt><trkpt lat="40.4265684" lon="15.3755649"><ele>703.0</ele><time>2026-05-02T16:46:13.885Z</time></trkpt><trkpt lat="40.4264588" lon="15.3755013"><ele>703.0</ele><time>2026-05-02T16:46:14.885Z</time></trkpt><trkpt lat="40.4263346" lon="15.3754708"><ele>700.25</ele><time>2026-05-02T16:46:15.884Z</time></trkpt><trkpt lat="40.426194" lon="15.3754818"><ele>697.5</ele><time>2026-05-02T16:46:16.885Z</time></trkpt><trkpt lat="40.426051" lon="15.375499"><ele>694.75</ele><time>2026-05-02T16:46:17.885Z</time></trkpt><trkpt lat="40.4259196" lon="15.3755097"><ele>692.0</ele><time>2026-05-02T16:46:18.885Z</time></trkpt><trkpt lat="40.4257911" lon="15.3755146"><ele>695.5</ele><time>2026-05-02T16:46:19.885Z</time></trkpt><trkpt lat="40.425677" lon="15.3755298"><ele>699.0</ele><time>2026-05-02T16:46:20.885Z</time></trkpt><trkpt lat="40.4255696" lon="15.3755639"><ele>702.5</ele><time>2026-05-02T16:46:21.884Z</time></trkpt><trkpt lat="40.4254637" lon="15.375626"><ele>706.0</ele><time>2026-05-02T16:46:22.885Z</time></trkpt><trkpt lat="40.4253697" lon="15.3757115"><ele>706.25</ele><time>2026-05-02T16:46:23.885Z</time></trkpt><trkpt lat="40.4252806" lon="15.37582"><ele>706.5</ele><time>2026-05-02T16:46:24.885Z</time></trkpt><trkpt lat="40.4251925" lon="15.3759367"><ele>706.75</ele><time>2026-05-02T16:46:25.884Z</time></trkpt><trkpt lat="40.4251105" lon="15.3760605"><ele>707.0</ele><time>2026-05-02T16:46:26.885Z</time></trkpt><trkpt lat="40.4250173" lon="15.3761762"><ele>707.0</ele><time>2026-05-02T16:46:27.884Z</time></trkpt><trkpt lat="40.4249222" lon="15.3762811"><ele>707.0</ele><time>2026-05-02T16:46:28.885Z</time></trkpt><trkpt lat="40.4248116" lon="15.3763447"><ele>707.0</ele><time>2026-05-02T16:46:29.884Z</time></trkpt><trkpt lat="40.4247011" lon="15.3763685"><ele>707.0</ele><time>2026-05-02T16:46:30.884Z</time></trkpt><trkpt lat="40.4245846" lon="15.3763614"><ele>709.5</ele><time>2026-05-02T16:46:31.885Z</time></trkpt><trkpt lat="40.4244511" lon="15.3763626"><ele>712.0</ele><time>2026-05-02T16:46:32.885Z</time></trkpt><trkpt lat="40.4243146" lon="15.3763904"><ele>714.5</ele><time>2026-05-02T16:46:33.885Z</time></trkpt><trkpt lat="40.4241743" lon="15.3764359"><ele>717.0</ele><time>2026-05-02T16:46:34.885Z</time></trkpt><trkpt lat="40.4240308" lon="15.3764933"><ele>717.0</ele><time>2026-05-02T16:46:35.885Z</time></trkpt><trkpt lat="40.4238806" lon="15.3765459"><ele>717.0</ele><time>2026-05-02T16:46:36.885Z</time></trkpt><trkpt lat="40.4237205" lon="15.3765895"><ele>717.0</ele><time>2026-05-02T16:46:37.885Z</time></trkpt><trkpt lat="40.4235364" lon="15.3766136"><ele>717.3333333333334</ele><time>2026-05-02T16:46:38.884Z</time></trkpt><trkpt lat="40.423319" lon="15.3766317"><ele>717.6666666666667</ele><time>2026-05-02T16:46:39.885Z</time></trkpt><trkpt lat="40.4231076" lon="15.3766381"><ele>718.0</ele><time>2026-05-02T16:46:40.885Z</time></trkpt><trkpt lat="40.4229206" lon="15.3766383"><ele>720.0</ele><time>2026-05-02T16:46:41.885Z</time></trkpt><trkpt lat="40.4227569" lon="15.3766508"><ele>722.0</ele><time>2026-05-02T16:46:42.885Z</time></trkpt><trkpt lat="40.4226143" lon="15.3766641"><ele>724.0</ele><time>2026-05-02T16:46:43.885Z</time></trkpt><trkpt lat="40.4224844" lon="15.3766518"><ele>726.0</ele><time>2026-05-02T16:46:44.884Z</time></trkpt><trkpt lat="40.4223727" lon="15.3766082"><ele>726.0</ele><time>2026-05-02T16:46:45.885Z</time></trkpt><trkpt lat="40.4222851" lon="15.3765152"><ele>726.0</ele><time>2026-05-02T16:46:46.885Z</time></trkpt><trkpt lat="40.4222224" lon="15.3763906"><ele>726.0</ele><time>2026-05-02T16:46:47.885Z</time></trkpt><trkpt lat="40.4221807" lon="15.3762443"><ele>726.0</ele><time>2026-05-02T16:46:48.885Z</time></trkpt><trkpt lat="40.4221525" lon="15.3760817"><ele>728.75</ele><time>2026-05-02T16:46:49.885Z</time></trkpt><trkpt lat="40.422121" lon="15.3759214"><ele>731.5</ele><time>2026-05-02T16:46:50.885Z</time></trkpt><trkpt lat="40.4220706" lon="15.3757769"><ele>734.25</ele><time>2026-05-02T16:46:51.885Z</time></trkpt><trkpt lat="40.422003" lon="15.3756633"><ele>737.0</ele><time>2026-05-02T16:46:52.884Z</time></trkpt><trkpt lat="40.4219184" lon="15.3755639"><ele>734.0</ele><time>2026-05-02T16:46:53.885Z</time></trkpt><trkpt lat="40.4218213" lon="15.375489"><ele>731.0</ele><time>2026-05-02T16:46:54.885Z</time></trkpt><trkpt lat="40.4217088" lon="15.3754399"><ele>728.0</ele><time>2026-05-02T16:46:55.885Z</time></trkpt><trkpt lat="40.421581" lon="15.3754076"><ele>725.0</ele><time>2026-05-02T16:46:56.885Z</time></trkpt><trkpt lat="40.4214498" lon="15.3753808"><ele>725.0</ele><time>2026-05-02T16:46:57.885Z</time></trkpt><trkpt lat="40.4213171" lon="15.3753562"><ele>725.0</ele><time>2026-05-02T16:46:58.884Z</time></trkpt><trkpt lat="40.4211851" lon="15.3753317"><ele>725.0</ele><time>2026-05-02T16:46:59.885Z</time></trkpt><trkpt lat="40.421047" lon="15.3753203"><ele>725.0</ele><time>2026-05-02T16:47:00.885Z</time></trkpt><trkpt lat="40.4208978" lon="15.3753073"><ele>726.75</ele><time>2026-05-02T16:47:01.885Z</time></trkpt><trkpt lat="40.420744" lon="15.3753118"><ele>728.5</ele><time>2026-05-02T16:47:02.885Z</time></trkpt><trkpt lat="40.420599" lon="15.3753198"><ele>730.25</ele><time>2026-05-02T16:47:03.885Z</time></trkpt><trkpt lat="40.420462" lon="15.3753003"><ele>732.0</ele><time>2026-05-02T16:47:04.885Z</time></trkpt><trkpt lat="40.4203426" lon="15.3752163"><ele>733.5</ele><time>2026-05-02T16:47:05.885Z</time></trkpt><trkpt lat="40.4202398" lon="15.3750985"><ele>735.0</ele><time>2026-05-02T16:47:06.885Z</time></trkpt><trkpt lat="40.4201494" lon="15.3749925"><ele>736.5</ele><time>2026-05-02T16:47:07.884Z</time></trkpt><trkpt lat="40.4200529" lon="15.3749344"><ele>738.0</ele><time>2026-05-02T16:47:08.885Z</time></trkpt><trkpt lat="40.4199443" lon="15.3749153"><ele>738.0</ele><time>2026-05-02T16:47:09.885Z</time></trkpt><trkpt lat="40.4198419" lon="15.3749187"><ele>738.0</ele><time>2026-05-02T16:47:10.885Z</time></trkpt><trkpt lat="40.4197413" lon="15.3749247"><ele>738.0</ele><time>2026-05-02T16:47:11.884Z</time></trkpt><trkpt lat="40.4196401" lon="15.374938"><ele>738.0</ele><time>2026-05-02T16:47:12.885Z</time></trkpt><trkpt lat="40.4195459" lon="15.374946"><ele>738.0</ele><time>2026-05-02T16:47:13.885Z</time></trkpt><trkpt lat="40.4194464" lon="15.3749572"><ele>739.0</ele><time>2026-05-02T16:47:14.885Z</time></trkpt><trkpt lat="40.419357" lon="15.374969"><ele>740.0</ele><time>2026-05-02T16:47:15.884Z</time></trkpt><trkpt lat="40.4192672" lon="15.374979"><ele>741.0</ele><time>2026-05-02T16:47:16.885Z</time></trkpt><trkpt lat="40.4191846" lon="15.3749932"><ele>742.0</ele><time>2026-05-02T16:47:17.885Z</time></trkpt><trkpt lat="40.419108" lon="15.3750096"><ele>743.0</ele><time>2026-05-02T16:47:18.885Z</time></trkpt><trkpt lat="40.4190393" lon="15.3750375"><ele>744.0</ele><time>2026-05-02T16:47:19.885Z</time></trkpt><trkpt lat="40.4189822" lon="15.3750724"><ele>744.0</ele><time>2026-05-02T16:47:20.885Z</time></trkpt><trkpt lat="40.418912" lon="15.3751433"><ele>744.0</ele><time>2026-05-02T16:47:22.885Z</time></trkpt><trkpt lat="40.4188531" lon="15.3752253"><ele>744.0</ele><time>2026-05-02T16:47:25.885Z</time></trkpt><trkpt lat="40.4188218" lon="15.3753292"><ele>744.0</ele><time>2026-05-02T16:47:28.885Z</time></trkpt><trkpt lat="40.4188196" lon="15.3754261"><ele>744.0</ele><time>2026-05-02T16:47:31.885Z</time></trkpt><trkpt lat="40.4188321" lon="15.3755154"><ele>744.0</ele><time>2026-05-02T16:47:34.885Z</time></trkpt><trkpt lat="40.4188786" lon="15.3756026"><ele>744.5</ele><time>2026-05-02T16:47:38.884Z</time></trkpt><trkpt lat="40.4189567" lon="15.3757196"><ele>745.0</ele><time>2026-05-02T16:48:08.884Z</time></trkpt><trkpt lat="40.4190434" lon="15.3758118"><ele>745.5</ele><time>2026-05-02T16:48:10.885Z</time></trkpt><trkpt lat="40.4191276" lon="15.3758903"><ele>746.0</ele><time>2026-05-02T16:48:11.885Z</time></trkpt><trkpt lat="40.4192504" lon="15.3759984"><ele>746.0</ele><time>2026-05-02T16:48:12.884Z</time></trkpt><trkpt lat="40.4194245" lon="15.3761217"><ele>746.0</ele><time>2026-05-02T16:48:13.885Z</time></trkpt><trkpt lat="40.4196014" lon="15.376257"><ele>746.0</ele><time>2026-05-02T16:48:14.885Z</time></trkpt><trkpt lat="40.4197698" lon="15.3763827"><ele>748.6666666666666</ele><time>2026-05-02T16:48:15.884Z</time></trkpt><trkpt lat="40.4199226" lon="15.3765036"><ele>751.3333333333334</ele><time>2026-05-02T16:48:16.885Z</time></trkpt><trkpt lat="40.420066" lon="15.3766366"><ele>754.0</ele><time>2026-05-02T16:48:17.885Z</time></trkpt><trkpt lat="40.4202154" lon="15.3767824"><ele>754.0</ele><time>2026-05-02T16:48:18.884Z</time></trkpt><trkpt lat="40.4203634" lon="15.3769512"><ele>754.0</ele><time>2026-05-02T16:48:19.885Z</time></trkpt><trkpt lat="40.4204985" lon="15.3771116"><ele>754.0</ele><time>2026-05-02T16:48:20.885Z</time></trkpt><trkpt lat="40.4206185" lon="15.3772636"><ele>756.3333333333334</ele><time>2026-05-02T16:48:21.884Z</time></trkpt><trkpt lat="40.4207378" lon="15.377421"><ele>758.6666666666666</ele><time>2026-05-02T16:48:22.885Z</time></trkpt><trkpt lat="40.4208588" lon="15.3775661"><ele>761.0</ele><time>2026-05-02T16:48:23.885Z</time></trkpt><trkpt lat="40.4209574" lon="15.377694"><ele>761.0</ele><time>2026-05-02T16:48:24.885Z</time></trkpt><trkpt lat="40.4210406" lon="15.3778075"><ele>761.0</ele><time>2026-05-02T16:48:25.884Z</time></trkpt><trkpt lat="40.4211047" lon="15.3779278"><ele>761.0</ele><time>2026-05-02T16:48:26.884Z</time></trkpt><trkpt lat="40.4211496" lon="15.3780958"><ele>761.0</ele><time>2026-05-02T16:48:27.885Z</time></trkpt><trkpt lat="40.421168" lon="15.378289"><ele>763.3333333333333</ele><time>2026-05-02T16:48:28.884Z</time></trkpt><trkpt lat="40.4211558" lon="15.3784845"><ele>765.6666666666666</ele><time>2026-05-02T16:48:29.885Z</time></trkpt><trkpt lat="40.4211374" lon="15.3786856"><ele>768.0</ele><time>2026-05-02T16:48:30.884Z</time></trkpt><trkpt lat="40.4211155" lon="15.3788804"><ele>768.75</ele><time>2026-05-02T16:48:31.885Z</time></trkpt><trkpt lat="40.4211115" lon="15.3790626"><ele>769.5</ele><time>2026-05-02T16:48:32.885Z</time></trkpt><trkpt lat="40.4211141" lon="15.3792466"><ele>770.25</ele><time>2026-05-02T16:48:33.885Z</time></trkpt><trkpt lat="40.4211351" lon="15.3794285"><ele>771.0</ele><time>2026-05-02T16:48:34.884Z</time></trkpt><trkpt lat="40.4211956" lon="15.3796042"><ele>772.3333333333333</ele><time>2026-05-02T16:48:35.885Z</time></trkpt><trkpt lat="40.4212732" lon="15.3797923"><ele>773.6666666666666</ele><time>2026-05-02T16:48:36.885Z</time></trkpt><trkpt lat="40.4213614" lon="15.3799766"><ele>775.0</ele><time>2026-05-02T16:48:37.885Z</time></trkpt><trkpt lat="40.4214413" lon="15.380118"><ele>775.5</ele><time>2026-05-02T16:48:38.885Z</time></trkpt><trkpt lat="40.4215316" lon="15.3802351"><ele>776.0</ele><time>2026-05-02T16:48:39.885Z</time></trkpt><trkpt lat="40.4216539" lon="15.380316"><ele>776.5</ele><time>2026-05-02T16:48:40.884Z</time></trkpt><trkpt lat="40.4217904" lon="15.3803656"><ele>777.0</ele><time>2026-05-02T16:48:41.885Z</time></trkpt><trkpt lat="40.4219276" lon="15.3803973"><ele>777.0</ele><time>2026-05-02T16:48:42.885Z</time></trkpt><trkpt lat="40.4220543" lon="15.3804245"><ele>777.0</ele><time>2026-05-02T16:48:43.885Z</time></trkpt><trkpt lat="40.4221769" lon="15.3804491"><ele>777.0</ele><time>2026-05-02T16:48:44.885Z</time></trkpt><trkpt lat="40.4222915" lon="15.3804843"><ele>777.0</ele><time>2026-05-02T16:48:45.885Z</time></trkpt><trkpt lat="40.4224047" lon="15.3805094"><ele>779.0</ele><time>2026-05-02T16:48:46.884Z</time></trkpt><trkpt lat="40.4225106" lon="15.3805609"><ele>781.0</ele><time>2026-05-02T16:48:47.885Z</time></trkpt><trkpt lat="40.4226038" lon="15.3806449"><ele>783.0</ele><time>2026-05-02T16:48:48.885Z</time></trkpt><trkpt lat="40.4226643" lon="15.380783"><ele>785.0</ele><time>2026-05-02T16:48:49.884Z</time></trkpt><trkpt lat="40.4227001" lon="15.3809497"><ele>785.0</ele><time>2026-05-02T16:48:50.884Z</time></trkpt><trkpt lat="40.4226996" lon="15.3811437"><ele>785.0</ele><time>2026-05-02T16:48:51.884Z</time></trkpt><trkpt lat="40.4226613" lon="15.3813422"><ele>785.0</ele><time>2026-05-02T16:48:52.885Z</time></trkpt><trkpt lat="40.4226242" lon="15.3815411"><ele>787.25</ele><time>2026-05-02T16:48:53.885Z</time></trkpt><trkpt lat="40.4225973" lon="15.3817336"><ele>789.5</ele><time>2026-05-02T16:48:54.884Z</time></trkpt><trkpt lat="40.4225915" lon="15.3819094"><ele>791.75</ele><time>2026-05-02T16:48:55.885Z</time></trkpt><trkpt lat="40.4226206" lon="15.3820897"><ele>794.0</ele><time>2026-05-02T16:48:56.885Z</time></trkpt><trkpt lat="40.4226701" lon="15.3822706"><ele>793.3333333333334</ele><time>2026-05-02T16:48:57.885Z</time></trkpt><trkpt lat="40.4227656" lon="15.3824262"><ele>792.6666666666667</ele><time>2026-05-02T16:48:58.885Z</time></trkpt><trkpt lat="40.4228952" lon="15.382557"><ele>792.0</ele><time>2026-05-02T16:48:59.884Z</time></trkpt><trkpt lat="40.4230431" lon="15.38268"><ele>792.0</ele><time>2026-05-02T16:49:00.885Z</time></trkpt><trkpt lat="40.4231838" lon="15.3828131"><ele>792.0</ele><time>2026-05-02T16:49:01.885Z</time></trkpt><trkpt lat="40.4233062" lon="15.3829472"><ele>792.0</ele><time>2026-05-02T16:49:02.884Z</time></trkpt><trkpt lat="40.4234009" lon="15.3831027"><ele>795.25</ele><time>2026-05-02T16:49:03.884Z</time></trkpt><trkpt lat="40.4234736" lon="15.3832696"><ele>798.5</ele><time>2026-05-02T16:49:04.884Z</time></trkpt><trkpt lat="40.4235259" lon="15.3834411"><ele>801.75</ele><time>2026-05-02T16:49:05.884Z</time></trkpt><trkpt lat="40.423548" lon="15.3836222"><ele>805.0</ele><time>2026-05-02T16:49:06.885Z</time></trkpt><trkpt lat="40.4235416" lon="15.3837932"><ele>807.0</ele><time>2026-05-02T16:49:07.885Z</time></trkpt><trkpt lat="40.4235073" lon="15.3839464"><ele>809.0</ele><time>2026-05-02T16:49:08.885Z</time></trkpt><trkpt lat="40.4234462" lon="15.3840764"><ele>811.0</ele><time>2026-05-02T16:49:09.885Z</time></trkpt><trkpt lat="40.4233608" lon="15.3841905"><ele>813.0</ele><time>2026-05-02T16:49:10.885Z</time></trkpt><trkpt lat="40.423276" lon="15.3843023"><ele>813.0</ele><time>2026-05-02T16:49:11.885Z</time></trkpt><trkpt lat="40.4231831" lon="15.384426"><ele>813.0</ele><time>2026-05-02T16:49:12.885Z</time></trkpt><trkpt lat="40.4230894" lon="15.3845584"><ele>813.0</ele><time>2026-05-02T16:49:13.885Z</time></trkpt><trkpt lat="40.4229968" lon="15.3846925"><ele>813.0</ele><time>2026-05-02T16:49:14.885Z</time></trkpt><trkpt lat="40.4229241" lon="15.3848219"><ele>810.0</ele><time>2026-05-02T16:49:15.885Z</time></trkpt><trkpt lat="40.4228554" lon="15.3849651"><ele>807.0</ele><time>2026-05-02T16:49:16.885Z</time></trkpt><trkpt lat="40.4227998" lon="15.3851144"><ele>804.0</ele><time>2026-05-02T16:49:17.885Z</time></trkpt><trkpt lat="40.4227607" lon="15.3852805"><ele>801.0</ele><time>2026-05-02T16:49:18.885Z</time></trkpt><trkpt lat="40.4227244" lon="15.3854544"><ele>801.25</ele><time>2026-05-02T16:49:19.885Z</time></trkpt><trkpt lat="40.4226864" lon="15.3856419"><ele>801.5</ele><time>2026-05-02T16:49:20.885Z</time></trkpt><trkpt lat="40.4226395" lon="15.3858253"><ele>801.75</ele><time>2026-05-02T16:49:21.885Z</time></trkpt><trkpt lat="40.4225983" lon="15.386009"><ele>802.0</ele><time>2026-05-02T16:49:22.885Z</time></trkpt><trkpt lat="40.4225588" lon="15.3861916"><ele>801.25</ele><time>2026-05-02T16:49:23.885Z</time></trkpt><trkpt lat="40.4225233" lon="15.3863609"><ele>800.5</ele><time>2026-05-02T16:49:24.885Z</time></trkpt><trkpt lat="40.4224895" lon="15.3865213"><ele>799.75</ele><time>2026-05-02T16:49:25.885Z</time></trkpt><trkpt lat="40.4224612" lon="15.3866791"><ele>799.0</ele><time>2026-05-02T16:49:26.885Z</time></trkpt><trkpt lat="40.4224513" lon="15.3868336"><ele>799.0</ele><time>2026-05-02T16:49:27.885Z</time></trkpt><trkpt lat="40.4224601" lon="15.3869904"><ele>799.0</ele><time>2026-05-02T16:49:28.885Z</time></trkpt><trkpt lat="40.4225109" lon="15.3871492"><ele>799.0</ele><time>2026-05-02T16:49:29.885Z</time></trkpt><trkpt lat="40.4225941" lon="15.3873161"><ele>799.0</ele><time>2026-05-02T16:49:30.884Z</time></trkpt><trkpt lat="40.4226944" lon="15.3874953"><ele>800.6666666666666</ele><time>2026-05-02T16:49:31.884Z</time></trkpt><trkpt lat="40.4227861" lon="15.3876645"><ele>802.3333333333333</ele><time>2026-05-02T16:49:32.884Z</time></trkpt><trkpt lat="40.4228882" lon="15.3878265"><ele>804.0</ele><time>2026-05-02T16:49:33.885Z</time></trkpt><trkpt lat="40.4229895" lon="15.3879867"><ele>801.6666666666667</ele><time>2026-05-02T16:49:34.885Z</time></trkpt><trkpt lat="40.4231006" lon="15.3881536"><ele>799.3333333333334</ele><time>2026-05-02T16:49:35.885Z</time></trkpt><trkpt lat="40.4232217" lon="15.3883127"><ele>797.0</ele><time>2026-05-02T16:49:36.885Z</time></trkpt><trkpt lat="40.4233435" lon="15.3884613"><ele>797.0</ele><time>2026-05-02T16:49:37.885Z</time></trkpt><trkpt lat="40.4234632" lon="15.3886004"><ele>797.0</ele><time>2026-05-02T16:49:38.885Z</time></trkpt><trkpt lat="40.4235816" lon="15.3887423"><ele>797.0</ele><time>2026-05-02T16:49:39.884Z</time></trkpt><trkpt lat="40.4236844" lon="15.3889007"><ele>795.3333333333334</ele><time>2026-05-02T16:49:40.885Z</time></trkpt><trkpt lat="40.4237672" lon="15.3890914"><ele>793.6666666666667</ele><time>2026-05-02T16:49:41.885Z</time></trkpt><trkpt lat="40.4238331" lon="15.3893259"><ele>792.0</ele><time>2026-05-02T16:49:42.885Z</time></trkpt><trkpt lat="40.4238851" lon="15.389587"><ele>797.0</ele><time>2026-05-02T16:49:43.884Z</time></trkpt><trkpt lat="40.4239363" lon="15.3898601"><ele>802.0</ele><time>2026-05-02T16:49:44.885Z</time></trkpt><trkpt lat="40.4239934" lon="15.3901375"><ele>807.0</ele><time>2026-05-02T16:49:45.885Z</time></trkpt><trkpt lat="40.4240473" lon="15.3904097"><ele>807.0</ele><time>2026-05-02T16:49:46.885Z</time></trkpt><trkpt lat="40.4241027" lon="15.3906595"><ele>807.0</ele><time>2026-05-02T16:49:47.884Z</time></trkpt><trkpt lat="40.4241496" lon="15.3908954"><ele>807.0</ele><time>2026-05-02T16:49:48.885Z</time></trkpt><trkpt lat="40.4241822" lon="15.3911008"><ele>807.0</ele><time>2026-05-02T16:49:49.884Z</time></trkpt><trkpt lat="40.4241916" lon="15.3913089"><ele>807.0</ele><time>2026-05-02T16:49:50.884Z</time></trkpt><trkpt lat="40.4241817" lon="15.3915228"><ele>807.0</ele><time>2026-05-02T16:49:51.885Z</time></trkpt><trkpt lat="40.4241511" lon="15.3917726"><ele>807.6666666666667</ele><time>2026-05-02T16:49:52.885Z</time></trkpt><trkpt lat="40.4240968" lon="15.3920113"><ele>808.3333333333334</ele><time>2026-05-02T16:49:53.884Z</time></trkpt><trkpt lat="40.4240273" lon="15.3922058"><ele>809.0</ele><time>2026-05-02T16:49:54.885Z</time></trkpt><trkpt lat="40.4239421" lon="15.3923838"><ele>811.6666666666667</ele><time>2026-05-02T16:49:55.885Z</time></trkpt><trkpt lat="40.4238207" lon="15.3925354"><ele>814.3333333333333</ele><time>2026-05-02T16:49:56.884Z</time></trkpt><trkpt lat="40.4237133" lon="15.3927011"><ele>817.0</ele><time>2026-05-02T16:49:57.885Z</time></trkpt><trkpt lat="40.4236402" lon="15.3928714"><ele>814.0</ele><time>2026-05-02T16:49:58.884Z</time></trkpt><trkpt lat="40.4235893" lon="15.3930417"><ele>811.0</ele><time>2026-05-02T16:49:59.885Z</time></trkpt><trkpt lat="40.4235644" lon="15.3932208"><ele>808.0</ele><time>2026-05-02T16:50:00.885Z</time></trkpt><trkpt lat="40.4235767" lon="15.3934061"><ele>805.0</ele><time>2026-05-02T16:50:01.885Z</time></trkpt><trkpt lat="40.4236335" lon="15.3935732"><ele>805.0</ele><time>2026-05-02T16:50:02.885Z</time></trkpt><trkpt lat="40.4237354" lon="15.3937269"><ele>805.0</ele><time>2026-05-02T16:50:03.885Z</time></trkpt><trkpt lat="40.4238784" lon="15.3938935"><ele>805.0</ele><time>2026-05-02T16:50:04.885Z</time></trkpt><trkpt lat="40.4240267" lon="15.3940868"><ele>807.6666666666666</ele><time>2026-05-02T16:50:05.885Z</time></trkpt><trkpt lat="40.4241555" lon="15.394303"><ele>810.3333333333333</ele><time>2026-05-02T16:50:06.885Z</time></trkpt><trkpt lat="40.4242276" lon="15.3945327"><ele>813.0</ele><time>2026-05-02T16:50:07.885Z</time></trkpt><trkpt lat="40.4242755" lon="15.3947168"><ele>813.0</ele><time>2026-05-02T16:50:08.885Z</time></trkpt><trkpt lat="40.4243218" lon="15.3948555"><ele>813.0</ele><time>2026-05-02T16:50:09.885Z</time></trkpt><trkpt lat="40.4243956" lon="15.3949635"><ele>813.0</ele><time>2026-05-02T16:50:10.885Z</time></trkpt><trkpt lat="40.4244974" lon="15.3950484"><ele>813.0</ele><time>2026-05-02T16:50:11.885Z</time></trkpt><trkpt lat="40.424605" lon="15.395099"><ele>816.5</ele><time>2026-05-02T16:50:12.885Z</time></trkpt><trkpt lat="40.4247231" lon="15.3951418"><ele>820.0</ele><time>2026-05-02T16:50:13.885Z</time></trkpt><trkpt lat="40.4248416" lon="15.3951969"><ele>823.5</ele><time>2026-05-02T16:50:14.885Z</time></trkpt><trkpt lat="40.424952" lon="15.3952543"><ele>827.0</ele><time>2026-05-02T16:50:15.885Z</time></trkpt><trkpt lat="40.425057" lon="15.3953284"><ele>827.0</ele><time>2026-05-02T16:50:16.885Z</time></trkpt><trkpt lat="40.4251578" lon="15.3954409"><ele>827.0</ele><time>2026-05-02T16:50:17.884Z</time></trkpt><trkpt lat="40.4252535" lon="15.3956091"><ele>827.0</ele><time>2026-05-02T16:50:18.885Z</time></trkpt><trkpt lat="40.42534" lon="15.3958093"><ele>828.3333333333334</ele><time>2026-05-02T16:50:19.885Z</time></trkpt><trkpt lat="40.4254295" lon="15.396022"><ele>829.6666666666667</ele><time>2026-05-02T16:50:20.885Z</time></trkpt><trkpt lat="40.4255239" lon="15.3962576"><ele>831.0</ele><time>2026-05-02T16:50:21.885Z</time></trkpt><trkpt lat="40.4256175" lon="15.3964721"><ele>831.0</ele><time>2026-05-02T16:50:22.885Z</time></trkpt><trkpt lat="40.4256976" lon="15.396672"><ele>831.0</ele><time>2026-05-02T16:50:23.885Z</time></trkpt><trkpt lat="40.425761" lon="15.3968692"><ele>831.0</ele><time>2026-05-02T16:50:24.884Z</time></trkpt><trkpt lat="40.425789" lon="15.3970527"><ele>830.5</ele><time>2026-05-02T16:50:25.885Z</time></trkpt><trkpt lat="40.4258025" lon="15.3972296"><ele>830.0</ele><time>2026-05-02T16:50:26.884Z</time></trkpt><trkpt lat="40.425803" lon="15.3973972"><ele>829.5</ele><time>2026-05-02T16:50:27.885Z</time></trkpt><trkpt lat="40.425805" lon="15.3975529"><ele>829.0</ele><time>2026-05-02T16:50:28.884Z</time></trkpt><trkpt lat="40.4258324" lon="15.397668"><ele>829.0</ele><time>2026-05-02T16:50:29.885Z</time></trkpt><trkpt lat="40.4258966" lon="15.3977542"><ele>829.0</ele><time>2026-05-02T16:50:30.885Z</time></trkpt><trkpt lat="40.426004" lon="15.3978082"><ele>829.0</ele><time>2026-05-02T16:50:31.885Z</time></trkpt><trkpt lat="40.4261297" lon="15.397843"><ele>829.0</ele><time>2026-05-02T16:50:32.885Z</time></trkpt><trkpt lat="40.4262673" lon="15.3978773"><ele>831.0</ele><time>2026-05-02T16:50:33.885Z</time></trkpt><trkpt lat="40.4264095" lon="15.3979156"><ele>833.0</ele><time>2026-05-02T16:50:34.885Z</time></trkpt><trkpt lat="40.4265323" lon="15.3979642"><ele>835.0</ele><time>2026-05-02T16:50:35.885Z</time></trkpt><trkpt lat="40.4266415" lon="15.3980242"><ele>837.0</ele><time>2026-05-02T16:50:36.884Z</time></trkpt><trkpt lat="40.426723" lon="15.3981208"><ele>837.0</ele><time>2026-05-02T16:50:37.885Z</time></trkpt><trkpt lat="40.4267773" lon="15.3982445"><ele>837.0</ele><time>2026-05-02T16:50:38.885Z</time></trkpt><trkpt lat="40.4268068" lon="15.3983974"><ele>837.0</ele><time>2026-05-02T16:50:39.885Z</time></trkpt><trkpt lat="40.4268376" lon="15.398577"><ele>837.0</ele><time>2026-05-02T16:50:40.884Z</time></trkpt><trkpt lat="40.4268473" lon="15.3987687"><ele>838.25</ele><time>2026-05-02T16:50:41.884Z</time></trkpt><trkpt lat="40.4268437" lon="15.3989487"><ele>839.5</ele><time>2026-05-02T16:50:42.885Z</time></trkpt><trkpt lat="40.4267909" lon="15.3991117"><ele>840.75</ele><time>2026-05-02T16:50:43.885Z</time></trkpt><trkpt lat="40.426705" lon="15.3992783"><ele>842.0</ele><time>2026-05-02T16:50:44.885Z</time></trkpt><trkpt lat="40.4266029" lon="15.3994743"><ele>847.0</ele><time>2026-05-02T16:50:45.884Z</time></trkpt><trkpt lat="40.4264999" lon="15.3996834"><ele>852.0</ele><time>2026-05-02T16:50:46.885Z</time></trkpt><trkpt lat="40.4264054" lon="15.3998655"><ele>857.0</ele><time>2026-05-02T16:50:47.885Z</time></trkpt><trkpt lat="40.4263339" lon="15.4000387"><ele>850.5</ele><time>2026-05-02T16:50:48.885Z</time></trkpt><trkpt lat="40.4262757" lon="15.4001979"><ele>844.0</ele><time>2026-05-02T16:50:49.885Z</time></trkpt><trkpt lat="40.4262383" lon="15.4003833"><ele>837.5</ele><time>2026-05-02T16:50:50.885Z</time></trkpt><trkpt lat="40.4262245" lon="15.400586"><ele>831.0</ele><time>2026-05-02T16:50:51.885Z</time></trkpt><trkpt lat="40.4262259" lon="15.400805"><ele>831.0</ele><time>2026-05-02T16:50:52.885Z</time></trkpt><trkpt lat="40.4262532" lon="15.4010293"><ele>831.0</ele><time>2026-05-02T16:50:53.885Z</time></trkpt><trkpt lat="40.4263043" lon="15.4012511"><ele>831.0</ele><time>2026-05-02T16:50:54.885Z</time></trkpt><trkpt lat="40.4263745" lon="15.4014805"><ele>840.6666666666667</ele><time>2026-05-02T16:50:55.885Z</time></trkpt><trkpt lat="40.4264542" lon="15.4017066"><ele>850.3333333333334</ele><time>2026-05-02T16:50:56.885Z</time></trkpt><trkpt lat="40.4265241" lon="15.4019166"><ele>860.0</ele><time>2026-05-02T16:50:57.884Z</time></trkpt><trkpt lat="40.4265875" lon="15.4021165"><ele>858.75</ele><time>2026-05-02T16:50:58.885Z</time></trkpt><trkpt lat="40.4266408" lon="15.4022978"><ele>857.5</ele><time>2026-05-02T16:50:59.885Z</time></trkpt><trkpt lat="40.4266675" lon="15.4024762"><ele>856.25</ele><time>2026-05-02T16:51:00.884Z</time></trkpt><trkpt lat="40.4266592" lon="15.4026514"><ele>855.0</ele><time>2026-05-02T16:51:01.885Z</time></trkpt><trkpt lat="40.4266084" lon="15.402827"><ele>855.0</ele><time>2026-05-02T16:51:02.885Z</time></trkpt><trkpt lat="40.4265469" lon="15.4029865"><ele>855.0</ele><time>2026-05-02T16:51:03.885Z</time></trkpt><trkpt lat="40.4265017" lon="15.4031419"><ele>855.0</ele><time>2026-05-02T16:51:04.885Z</time></trkpt><trkpt lat="40.4264895" lon="15.4033106"><ele>855.0</ele><time>2026-05-02T16:51:05.885Z</time></trkpt><trkpt lat="40.4265005" lon="15.403496"><ele>855.75</ele><time>2026-05-02T16:51:06.884Z</time></trkpt><trkpt lat="40.4265257" lon="15.4036891"><ele>856.5</ele><time>2026-05-02T16:51:07.884Z</time></trkpt><trkpt lat="40.4265421" lon="15.4038795"><ele>857.25</ele><time>2026-05-02T16:51:08.885Z</time></trkpt><trkpt lat="40.4265468" lon="15.4040567"><ele>858.0</ele><time>2026-05-02T16:51:09.885Z</time></trkpt><trkpt lat="40.4265555" lon="15.4042066"><ele>858.4</ele><time>2026-05-02T16:51:10.885Z</time></trkpt><trkpt lat="40.4265859" lon="15.4043432"><ele>858.8</ele><time>2026-05-02T16:51:11.885Z</time></trkpt><trkpt lat="40.4266503" lon="15.4044658"><ele>859.2</ele><time>2026-05-02T16:51:12.885Z</time></trkpt><trkpt lat="40.4267476" lon="15.404552"><ele>859.6</ele><time>2026-05-02T16:51:13.884Z</time></trkpt><trkpt lat="40.4268404" lon="15.4046057"><ele>860.0</ele><time>2026-05-02T16:51:14.885Z</time></trkpt><trkpt lat="40.4269271" lon="15.4046661"><ele>860.0000000000001</ele><time>2026-05-02T16:51:15.884Z</time></trkpt><trkpt lat="40.4270015" lon="15.404733"><ele>860.0</ele><time>2026-05-02T16:51:16.885Z</time></trkpt><trkpt lat="40.4270549" lon="15.404808"><ele>860.0</ele><time>2026-05-02T16:51:17.885Z</time></trkpt><trkpt lat="40.4270813" lon="15.4048921"><ele>860.0</ele><time>2026-05-02T16:51:18.885Z</time></trkpt><trkpt lat="40.4270689" lon="15.4049826"><ele>860.0000000000001</ele><time>2026-05-02T16:51:19.884Z</time></trkpt><trkpt lat="40.4270313" lon="15.4050891"><ele>860.0</ele><time>2026-05-02T16:51:20.885Z</time></trkpt><trkpt lat="40.4269745" lon="15.4052146"><ele>860.0</ele><time>2026-05-02T16:51:21.885Z</time></trkpt><trkpt lat="40.4269009" lon="15.4053547"><ele>860.0</ele><time>2026-05-02T16:51:22.885Z</time></trkpt><trkpt lat="40.4268188" lon="15.4054998"><ele>860.0</ele><time>2026-05-02T16:51:23.884Z</time></trkpt><trkpt lat="40.4267304" lon="15.4056646"><ele>860.0</ele><time>2026-05-02T16:51:24.885Z</time></trkpt><trkpt lat="40.4266253" lon="15.4058716"><ele>863.3333333333334</ele><time>2026-05-02T16:51:25.885Z</time></trkpt><trkpt lat="40.4265107" lon="15.4060944"><ele>866.6666666666667</ele><time>2026-05-02T16:51:26.884Z</time></trkpt><trkpt lat="40.4264098" lon="15.4063113"><ele>870.0</ele><time>2026-05-02T16:51:27.885Z</time></trkpt><trkpt lat="40.4263561" lon="15.406502"><ele>869.5</ele><time>2026-05-02T16:51:28.884Z</time></trkpt><trkpt lat="40.4263182" lon="15.4066716"><ele>869.0</ele><time>2026-05-02T16:51:29.885Z</time></trkpt><trkpt lat="40.4262547" lon="15.4067993"><ele>868.5</ele><time>2026-05-02T16:51:30.885Z</time></trkpt><trkpt lat="40.4261616" lon="15.4068795"><ele>868.0</ele><time>2026-05-02T16:51:31.885Z</time></trkpt><trkpt lat="40.4260633" lon="15.4069317"><ele>867.9999999999999</ele><time>2026-05-02T16:51:32.877Z</time></trkpt><trkpt lat="40.4259863" lon="15.4069971"><ele>868.0</ele><time>2026-05-02T16:51:33.885Z</time></trkpt><trkpt lat="40.4259407" lon="15.4070759"><ele>868.0</ele><time>2026-05-02T16:51:34.885Z</time></trkpt><trkpt lat="40.4259218" lon="15.4071732"><ele>868.0</ele><time>2026-05-02T16:51:35.885Z</time></trkpt><trkpt lat="40.4259406" lon="15.4072794"><ele>867.9999999999999</ele><time>2026-05-02T16:51:36.885Z</time></trkpt><trkpt lat="40.4259967" lon="15.4074058"><ele>868.0</ele><time>2026-05-02T16:51:37.885Z</time></trkpt><trkpt lat="40.4260814" lon="15.4075442"><ele>869.5</ele><time>2026-05-02T16:51:38.884Z</time></trkpt><trkpt lat="40.4261759" lon="15.4076807"><ele>871.0</ele><time>2026-05-02T16:51:39.885Z</time></trkpt><trkpt lat="40.4262607" lon="15.4078183"><ele>872.5</ele><time>2026-05-02T16:51:40.885Z</time></trkpt><trkpt lat="40.4263043" lon="15.4079664"><ele>874.0</ele><time>2026-05-02T16:51:41.885Z</time></trkpt><trkpt lat="40.4262991" lon="15.4081293"><ele>874.75</ele><time>2026-05-02T16:51:42.885Z</time></trkpt><trkpt lat="40.4262662" lon="15.4083126"><ele>875.5</ele><time>2026-05-02T16:51:43.885Z</time></trkpt><trkpt lat="40.426214" lon="15.4084976"><ele>876.25</ele><time>2026-05-02T16:51:44.885Z</time></trkpt><trkpt lat="40.4261534" lon="15.4086778"><ele>877.0</ele><time>2026-05-02T16:51:45.885Z</time></trkpt><trkpt lat="40.4260931" lon="15.4088666"><ele>882.0</ele><time>2026-05-02T16:51:46.885Z</time></trkpt><trkpt lat="40.4260251" lon="15.4090637"><ele>887.0</ele><time>2026-05-02T16:51:47.885Z</time></trkpt><trkpt lat="40.4259332" lon="15.4092685"><ele>892.0</ele><time>2026-05-02T16:51:48.884Z</time></trkpt><trkpt lat="40.4258229" lon="15.4094533"><ele>892.0</ele><time>2026-05-02T16:51:49.884Z</time></trkpt><trkpt lat="40.4257137" lon="15.4096374"><ele>892.0</ele><time>2026-05-02T16:51:50.885Z</time></trkpt><trkpt lat="40.4256183" lon="15.4098168"><ele>892.0</ele><time>2026-05-02T16:51:51.885Z</time></trkpt><trkpt lat="40.4255538" lon="15.4100015"><ele>899.3333333333333</ele><time>2026-05-02T16:51:52.885Z</time></trkpt><trkpt lat="40.4255249" lon="15.4102003"><ele>906.6666666666667</ele><time>2026-05-02T16:51:53.885Z</time></trkpt><trkpt lat="40.4254939" lon="15.4104007"><ele>914.0</ele><time>2026-05-02T16:51:54.885Z</time></trkpt><trkpt lat="40.4254896" lon="15.4106209"><ele>916.6666666666667</ele><time>2026-05-02T16:51:55.884Z</time></trkpt><trkpt lat="40.4254866" lon="15.4108514"><ele>919.3333333333333</ele><time>2026-05-02T16:51:56.885Z</time></trkpt><trkpt lat="40.425491" lon="15.4110623"><ele>922.0</ele><time>2026-05-02T16:51:57.884Z</time></trkpt><trkpt lat="40.4255079" lon="15.411256"><ele>922.25</ele><time>2026-05-02T16:51:58.884Z</time></trkpt><trkpt lat="40.4255343" lon="15.4114471"><ele>922.5</ele><time>2026-05-02T16:51:59.885Z</time></trkpt><trkpt lat="40.4255567" lon="15.4116332"><ele>922.75</ele><time>2026-05-02T16:52:00.884Z</time></trkpt><trkpt lat="40.4255586" lon="15.4118178"><ele>923.0</ele><time>2026-05-02T16:52:01.885Z</time></trkpt><trkpt lat="40.4255287" lon="15.4120049"><ele>924.75</ele><time>2026-05-02T16:52:02.886Z</time></trkpt><trkpt lat="40.4254794" lon="15.4121827"><ele>926.5</ele><time>2026-05-02T16:52:03.886Z</time></trkpt><trkpt lat="40.4254157" lon="15.4123466"><ele>928.25</ele><time>2026-05-02T16:52:04.886Z</time></trkpt><trkpt lat="40.4253309" lon="15.4124759"><ele>930.0</ele><time>2026-05-02T16:52:05.886Z</time></trkpt><trkpt lat="40.4252153" lon="15.4125786"><ele>921.3333333333333</ele><time>2026-05-02T16:52:06.886Z</time></trkpt><trkpt lat="40.4250785" lon="15.4126775"><ele>912.6666666666666</ele><time>2026-05-02T16:52:07.885Z</time></trkpt><trkpt lat="40.4249314" lon="15.4127694"><ele>904.0</ele><time>2026-05-02T16:52:08.886Z</time></trkpt><trkpt lat="40.4247906" lon="15.4128565"><ele>904.0</ele><time>2026-05-02T16:52:09.886Z</time></trkpt><trkpt lat="40.4246612" lon="15.4129115"><ele>904.0</ele><time>2026-05-02T16:52:10.886Z</time></trkpt><trkpt lat="40.4245319" lon="15.4129162"><ele>904.0</ele><time>2026-05-02T16:52:11.886Z</time></trkpt><trkpt lat="40.4243989" lon="15.4128777"><ele>904.0</ele><time>2026-05-02T16:52:12.886Z</time></trkpt><trkpt lat="40.4242826" lon="15.4128005"><ele>904.0</ele><time>2026-05-02T16:52:13.886Z</time></trkpt><trkpt lat="40.4241699" lon="15.4127228"><ele>904.0</ele><time>2026-05-02T16:52:14.886Z</time></trkpt><trkpt lat="40.4240439" lon="15.4126847"><ele>904.0</ele><time>2026-05-02T16:52:15.886Z</time></trkpt><trkpt lat="40.4239277" lon="15.4126656"><ele>904.0</ele><time>2026-05-02T16:52:16.886Z</time></trkpt><trkpt lat="40.4238177" lon="15.4126666"><ele>906.25</ele><time>2026-05-02T16:52:17.886Z</time></trkpt><trkpt lat="40.4237022" lon="15.4126629"><ele>908.5</ele><time>2026-05-02T16:52:18.886Z</time></trkpt><trkpt lat="40.4235689" lon="15.4126255"><ele>910.75</ele><time>2026-05-02T16:52:19.886Z</time></trkpt><trkpt lat="40.4234248" lon="15.4125571"><ele>913.0</ele><time>2026-05-02T16:52:20.886Z</time></trkpt><trkpt lat="40.4232801" lon="15.4124875"><ele>913.0</ele><time>2026-05-02T16:52:21.886Z</time></trkpt><trkpt lat="40.4231517" lon="15.4124265"><ele>913.0</ele><time>2026-05-02T16:52:22.886Z</time></trkpt><trkpt lat="40.4230349" lon="15.4123934"><ele>913.0</ele><time>2026-05-02T16:52:23.886Z</time></trkpt><trkpt lat="40.4229113" lon="15.4123957"><ele>913.0</ele><time>2026-05-02T16:52:24.886Z</time></trkpt><trkpt lat="40.4227788" lon="15.4124115"><ele>913.0</ele><time>2026-05-02T16:52:25.885Z</time></trkpt><trkpt lat="40.4226409" lon="15.4124347"><ele>913.0</ele><time>2026-05-02T16:52:26.886Z</time></trkpt><trkpt lat="40.422515" lon="15.4124808"><ele>913.0</ele><time>2026-05-02T16:52:27.886Z</time></trkpt><trkpt lat="40.4224033" lon="15.4125661"><ele>913.0</ele><time>2026-05-02T16:52:28.885Z</time></trkpt><trkpt lat="40.4223101" lon="15.4126926"><ele>913.0</ele><time>2026-05-02T16:52:29.886Z</time></trkpt><trkpt lat="40.4222251" lon="15.4128543"><ele>913.0</ele><time>2026-05-02T16:52:30.886Z</time></trkpt><trkpt lat="40.4221292" lon="15.4130188"><ele>913.0</ele><time>2026-05-02T16:52:31.886Z</time></trkpt><trkpt lat="40.4220064" lon="15.4131541"><ele>920.0</ele><time>2026-05-02T16:52:32.886Z</time></trkpt><trkpt lat="40.4218686" lon="15.4132801"><ele>927.0</ele><time>2026-05-02T16:52:33.886Z</time></trkpt><trkpt lat="40.4217226" lon="15.4133896"><ele>934.0</ele><time>2026-05-02T16:52:34.885Z</time></trkpt><trkpt lat="40.4215753" lon="15.4134928"><ele>934.0</ele><time>2026-05-02T16:52:35.885Z</time></trkpt><trkpt lat="40.4214366" lon="15.413594"><ele>934.0</ele><time>2026-05-02T16:52:36.886Z</time></trkpt><trkpt lat="40.42131" lon="15.4137022"><ele>934.0</ele><time>2026-05-02T16:52:37.886Z</time></trkpt><trkpt lat="40.4211959" lon="15.4137878"><ele>934.0</ele><time>2026-05-02T16:52:38.886Z</time></trkpt><trkpt lat="40.4210952" lon="15.4138845"><ele>934.75</ele><time>2026-05-02T16:52:39.886Z</time></trkpt><trkpt lat="40.4210182" lon="15.4139977"><ele>935.5</ele><time>2026-05-02T16:52:40.886Z</time></trkpt><trkpt lat="40.4209597" lon="15.4141252"><ele>936.25</ele><time>2026-05-02T16:52:41.885Z</time></trkpt><trkpt lat="40.4209242" lon="15.4142738"><ele>937.0</ele><time>2026-05-02T16:52:42.886Z</time></trkpt><trkpt lat="40.4208839" lon="15.4144255"><ele>937.0</ele><time>2026-05-02T16:52:43.886Z</time></trkpt><trkpt lat="40.4208328" lon="15.414584"><ele>937.0</ele><time>2026-05-02T16:52:44.885Z</time></trkpt><trkpt lat="40.4207702" lon="15.414722"><ele>937.0</ele><time>2026-05-02T16:52:45.886Z</time></trkpt><trkpt lat="40.42068" lon="15.414836"><ele>937.0</ele><time>2026-05-02T16:52:46.886Z</time></trkpt><trkpt lat="40.4205614" lon="15.4149386"><ele>936.5</ele><time>2026-05-02T16:52:47.886Z</time></trkpt><trkpt lat="40.4204405" lon="15.4150343"><ele>936.0</ele><time>2026-05-02T16:52:48.886Z</time></trkpt><trkpt lat="40.4203307" lon="15.4151362"><ele>935.5</ele><time>2026-05-02T16:52:49.886Z</time></trkpt><trkpt lat="40.4202374" lon="15.415255"><ele>935.0</ele><time>2026-05-02T16:52:50.886Z</time></trkpt><trkpt lat="40.4201633" lon="15.4153737"><ele>938.4</ele><time>2026-05-02T16:52:51.886Z</time></trkpt><trkpt lat="40.420096" lon="15.4154925"><ele>941.8</ele><time>2026-05-02T16:52:52.886Z</time></trkpt><trkpt lat="40.4200284" lon="15.4155998"><ele>945.2</ele><time>2026-05-02T16:52:53.886Z</time></trkpt><trkpt lat="40.4199369" lon="15.4156646"><ele>948.6</ele><time>2026-05-02T16:52:54.886Z</time></trkpt><trkpt lat="40.4198425" lon="15.4157055"><ele>952.0</ele><time>2026-05-02T16:52:55.886Z</time></trkpt><trkpt lat="40.4197804" lon="15.4157793"><ele>952.0</ele><time>2026-05-02T16:52:56.886Z</time></trkpt><trkpt lat="40.4197419" lon="15.4158684"><ele>952.0</ele><time>2026-05-02T16:52:57.885Z</time></trkpt><trkpt lat="40.4197235" lon="15.415987"><ele>952.0</ele><time>2026-05-02T16:52:58.886Z</time></trkpt><trkpt lat="40.4197212" lon="15.4161275"><ele>952.0</ele><time>2026-05-02T16:52:59.885Z</time></trkpt><trkpt lat="40.4197108" lon="15.4162945"><ele>952.0</ele><time>2026-05-02T16:53:00.886Z</time></trkpt><trkpt lat="40.4196916" lon="15.4164703"><ele>952.75</ele><time>2026-05-02T16:53:01.886Z</time></trkpt><trkpt lat="40.4196568" lon="15.4166452"><ele>953.5</ele><time>2026-05-02T16:53:02.885Z</time></trkpt><trkpt lat="40.4196152" lon="15.416834"><ele>954.25</ele><time>2026-05-02T16:53:03.886Z</time></trkpt><trkpt lat="40.4195688" lon="15.4170203"><ele>955.0</ele><time>2026-05-02T16:53:04.886Z</time></trkpt><trkpt lat="40.4195236" lon="15.4172042"><ele>955.75</ele><time>2026-05-02T16:53:05.886Z</time></trkpt><trkpt lat="40.4194751" lon="15.4173932"><ele>956.5</ele><time>2026-05-02T16:53:06.886Z</time></trkpt><trkpt lat="40.4194393" lon="15.4175681"><ele>957.25</ele><time>2026-05-02T16:53:07.886Z</time></trkpt><trkpt lat="40.4194244" lon="15.4177534"><ele>958.0</ele><time>2026-05-02T16:53:08.886Z</time></trkpt><trkpt lat="40.4194161" lon="15.4178982"><ele>956.75</ele><time>2026-05-02T16:53:09.885Z</time></trkpt><trkpt lat="40.4194354" lon="15.4180341"><ele>955.5</ele><time>2026-05-02T16:53:10.886Z</time></trkpt><trkpt lat="40.4194842" lon="15.4181675"><ele>954.25</ele><time>2026-05-02T16:53:11.885Z</time></trkpt><trkpt lat="40.4195567" lon="15.4182804"><ele>953.0</ele><time>2026-05-02T16:53:12.886Z</time></trkpt><trkpt lat="40.4196542" lon="15.4183783"><ele>954.25</ele><time>2026-05-02T16:53:13.885Z</time></trkpt><trkpt lat="40.4197458" lon="15.418467"><ele>955.5</ele><time>2026-05-02T16:53:14.886Z</time></trkpt><trkpt lat="40.4198351" lon="15.4185638"><ele>956.75</ele><time>2026-05-02T16:53:15.886Z</time></trkpt><trkpt lat="40.4199024" lon="15.4186944"><ele>958.0</ele><time>2026-05-02T16:53:16.886Z</time></trkpt><trkpt lat="40.4199397" lon="15.418854"><ele>958.0</ele><time>2026-05-02T16:53:17.885Z</time></trkpt><trkpt lat="40.4199493" lon="15.4190424"><ele>958.0</ele><time>2026-05-02T16:53:18.886Z</time></trkpt><trkpt lat="40.4199419" lon="15.4192473"><ele>958.0</ele><time>2026-05-02T16:53:19.886Z</time></trkpt><trkpt lat="40.4199311" lon="15.4194514"><ele>955.5</ele><time>2026-05-02T16:53:20.886Z</time></trkpt><trkpt lat="40.4199395" lon="15.4196528"><ele>953.0</ele><time>2026-05-02T16:53:21.886Z</time></trkpt><trkpt lat="40.419967" lon="15.4198362"><ele>950.5</ele><time>2026-05-02T16:53:22.886Z</time></trkpt><trkpt lat="40.4200033" lon="15.4199965"><ele>948.0</ele><time>2026-05-02T16:53:23.886Z</time></trkpt><trkpt lat="40.4200462" lon="15.4201641"><ele>948.0</ele><time>2026-05-02T16:53:24.886Z</time></trkpt><trkpt lat="40.4201164" lon="15.4203111"><ele>948.0</ele><time>2026-05-02T16:53:25.886Z</time></trkpt><trkpt lat="40.4202145" lon="15.420429"><ele>948.0</ele><time>2026-05-02T16:53:26.886Z</time></trkpt><trkpt lat="40.4203339" lon="15.4205296"><ele>948.0</ele><time>2026-05-02T16:53:27.886Z</time></trkpt><trkpt lat="40.4204558" lon="15.4206308"><ele>948.0</ele><time>2026-05-02T16:53:28.886Z</time></trkpt><trkpt lat="40.4205773" lon="15.42073"><ele>948.0</ele><time>2026-05-02T16:53:29.886Z</time></trkpt><trkpt lat="40.4206785" lon="15.4208451"><ele>948.0</ele><time>2026-05-02T16:53:30.886Z</time></trkpt><trkpt lat="40.4207419" lon="15.4209947"><ele>948.0</ele><time>2026-05-02T16:53:31.886Z</time></trkpt><trkpt lat="40.4207798" lon="15.4211675"><ele>945.25</ele><time>2026-05-02T16:53:32.886Z</time></trkpt><trkpt lat="40.420812" lon="15.4213557"><ele>942.5</ele><time>2026-05-02T16:53:33.886Z</time></trkpt><trkpt lat="40.4208456" lon="15.4215465"><ele>939.75</ele><time>2026-05-02T16:53:34.886Z</time></trkpt><trkpt lat="40.4208662" lon="15.4217244"><ele>937.0</ele><time>2026-05-02T16:53:35.886Z</time></trkpt><trkpt lat="40.4208653" lon="15.4219016"><ele>937.0</ele><time>2026-05-02T16:53:36.885Z</time></trkpt><trkpt lat="40.4208731" lon="15.4220669"><ele>937.0</ele><time>2026-05-02T16:53:37.886Z</time></trkpt><trkpt lat="40.4209142" lon="15.4222094"><ele>937.0</ele><time>2026-05-02T16:53:38.886Z</time></trkpt><trkpt lat="40.4209851" lon="15.4223328"><ele>937.0</ele><time>2026-05-02T16:53:39.886Z</time></trkpt><trkpt lat="40.421075" lon="15.4224466"><ele>936.75</ele><time>2026-05-02T16:53:40.886Z</time></trkpt><trkpt lat="40.421176" lon="15.4225603"><ele>936.5</ele><time>2026-05-02T16:53:41.886Z</time></trkpt><trkpt lat="40.4212825" lon="15.4226781"><ele>936.25</ele><time>2026-05-02T16:53:42.886Z</time></trkpt><trkpt lat="40.4213952" lon="15.4227897"><ele>936.0</ele><time>2026-05-02T16:53:43.885Z</time></trkpt><trkpt lat="40.421491" lon="15.4229099"><ele>933.75</ele><time>2026-05-02T16:53:44.886Z</time></trkpt><trkpt lat="40.4215737" lon="15.4230369"><ele>931.5</ele><time>2026-05-02T16:53:45.885Z</time></trkpt><trkpt lat="40.42162" lon="15.4231801"><ele>929.25</ele><time>2026-05-02T16:53:46.885Z</time></trkpt><trkpt lat="40.421623" lon="15.4233285"><ele>927.0</ele><time>2026-05-02T16:53:47.886Z</time></trkpt><trkpt lat="40.4216045" lon="15.4234961"><ele>927.0</ele><time>2026-05-02T16:53:48.886Z</time></trkpt><trkpt lat="40.4215959" lon="15.4236645"><ele>927.0</ele><time>2026-05-02T16:53:49.885Z</time></trkpt><trkpt lat="40.4216005" lon="15.423852"><ele>927.0</ele><time>2026-05-02T16:53:50.885Z</time></trkpt><trkpt lat="40.4216208" lon="15.4240452"><ele>927.0</ele><time>2026-05-02T16:53:51.886Z</time></trkpt><trkpt lat="40.4216535" lon="15.4242268"><ele>925.75</ele><time>2026-05-02T16:53:52.886Z</time></trkpt><trkpt lat="40.4216844" lon="15.4244038"><ele>924.5</ele><time>2026-05-02T16:53:53.886Z</time></trkpt><trkpt lat="40.421678" lon="15.4245791"><ele>923.25</ele><time>2026-05-02T16:53:54.886Z</time></trkpt><trkpt lat="40.4216545" lon="15.4247367"><ele>922.0</ele><time>2026-05-02T16:53:55.885Z</time></trkpt><trkpt lat="40.421643" lon="15.4248762"><ele>921.8</ele><time>2026-05-02T16:53:56.886Z</time></trkpt><trkpt lat="40.4216607" lon="15.4250017"><ele>921.6</ele><time>2026-05-02T16:53:57.886Z</time></trkpt><trkpt lat="40.4217044" lon="15.4251119"><ele>921.3999999999999</ele><time>2026-05-02T16:53:58.886Z</time></trkpt><trkpt lat="40.4217727" lon="15.4251948"><ele>921.1999999999999</ele><time>2026-05-02T16:53:59.886Z</time></trkpt><trkpt lat="40.4218503" lon="15.4252487"><ele>921.0</ele><time>2026-05-02T16:54:00.886Z</time></trkpt><trkpt lat="40.4219396" lon="15.4252732"><ele>921.0</ele><time>2026-05-02T16:54:01.886Z</time></trkpt><trkpt lat="40.4220532" lon="15.425264"><ele>921.0</ele><time>2026-05-02T16:54:02.886Z</time></trkpt><trkpt lat="40.4222059" lon="15.425252"><ele>921.0</ele><time>2026-05-02T16:54:03.885Z</time></trkpt><trkpt lat="40.4223753" lon="15.4252763"><ele>921.0</ele><time>2026-05-02T16:54:04.886Z</time></trkpt><trkpt lat="40.4225687" lon="15.4253218"><ele>921.0</ele><time>2026-05-02T16:54:05.885Z</time></trkpt><trkpt lat="40.4227462" lon="15.4253778"><ele>921.0</ele><time>2026-05-02T16:54:06.885Z</time></trkpt><trkpt lat="40.4229021" lon="15.4254221"><ele>921.0</ele><time>2026-05-02T16:54:07.886Z</time></trkpt><trkpt lat="40.4230383" lon="15.4254477"><ele>921.0</ele><time>2026-05-02T16:54:08.886Z</time></trkpt><trkpt lat="40.4231747" lon="15.4254365"><ele>921.0</ele><time>2026-05-02T16:54:09.886Z</time></trkpt><trkpt lat="40.4233012" lon="15.4254"><ele>921.0</ele><time>2026-05-02T16:54:10.885Z</time></trkpt><trkpt lat="40.4234124" lon="15.4253557"><ele>921.0</ele><time>2026-05-02T16:54:11.886Z</time></trkpt><trkpt lat="40.4235172" lon="15.4253444"><ele>921.0</ele><time>2026-05-02T16:54:12.885Z</time></trkpt><trkpt lat="40.4236176" lon="15.4253752"><ele>921.0</ele><time>2026-05-02T16:54:13.886Z</time></trkpt><trkpt lat="40.4237188" lon="15.4254594"><ele>921.0</ele><time>2026-05-02T16:54:14.886Z</time></trkpt><trkpt lat="40.4238128" lon="15.4255834"><ele>921.0</ele><time>2026-05-02T16:54:15.885Z</time></trkpt><trkpt lat="40.4239068" lon="15.4257195"><ele>918.3333333333333</ele><time>2026-05-02T16:54:16.885Z</time></trkpt><trkpt lat="40.4240166" lon="15.425855"><ele>915.6666666666666</ele><time>2026-05-02T16:54:17.886Z</time></trkpt><trkpt lat="40.4241455" lon="15.4259865"><ele>913.0</ele><time>2026-05-02T16:54:18.886Z</time></trkpt><trkpt lat="40.4242861" lon="15.426093"><ele>913.0</ele><time>2026-05-02T16:54:19.886Z</time></trkpt><trkpt lat="40.4244206" lon="15.4261941"><ele>913.0</ele><time>2026-05-02T16:54:20.885Z</time></trkpt><trkpt lat="40.4245472" lon="15.4262974"><ele>913.0</ele><time>2026-05-02T16:54:21.886Z</time></trkpt><trkpt lat="40.4246696" lon="15.4263727"><ele>913.0</ele><time>2026-05-02T16:54:22.886Z</time></trkpt><trkpt lat="40.4247939" lon="15.4264097"><ele>907.25</ele><time>2026-05-02T16:54:23.886Z</time></trkpt><trkpt lat="40.4249231" lon="15.4264212"><ele>901.5</ele><time>2026-05-02T16:54:24.886Z</time></trkpt><trkpt lat="40.4250502" lon="15.4264328"><ele>895.75</ele><time>2026-05-02T16:54:25.886Z</time></trkpt><trkpt lat="40.4251808" lon="15.4264197"><ele>890.0</ele><time>2026-05-02T16:54:26.886Z</time></trkpt><trkpt lat="40.4253053" lon="15.426398"><ele>890.0</ele><time>2026-05-02T16:54:27.886Z</time></trkpt><trkpt lat="40.4254153" lon="15.426348"><ele>890.0</ele><time>2026-05-02T16:54:28.886Z</time></trkpt><trkpt lat="40.4255101" lon="15.4262844"><ele>890.0</ele><time>2026-05-02T16:54:29.886Z</time></trkpt><trkpt lat="40.4256083" lon="15.4262493"><ele>890.0</ele><time>2026-05-02T16:54:30.886Z</time></trkpt><trkpt lat="40.42571" lon="15.4262508"><ele>890.0</ele><time>2026-05-02T16:54:31.886Z</time></trkpt><trkpt lat="40.4258004" lon="15.4263126"><ele>893.0</ele><time>2026-05-02T16:54:32.886Z</time></trkpt><trkpt lat="40.425881" lon="15.4264166"><ele>896.0</ele><time>2026-05-02T16:54:33.886Z</time></trkpt><trkpt lat="40.4259176" lon="15.4265697"><ele>899.0</ele><time>2026-05-02T16:54:34.886Z</time></trkpt><trkpt lat="40.4259148" lon="15.4267831"><ele>902.0</ele><time>2026-05-02T16:54:35.885Z</time></trkpt><trkpt lat="40.4258982" lon="15.4270321"><ele>902.0</ele><time>2026-05-02T16:54:36.886Z</time></trkpt><trkpt lat="40.4258601" lon="15.4272646"><ele>902.0</ele><time>2026-05-02T16:54:37.886Z</time></trkpt><trkpt lat="40.425812" lon="15.4274796"><ele>902.0</ele><time>2026-05-02T16:54:38.886Z</time></trkpt><trkpt lat="40.4257443" lon="15.4276833"><ele>902.0</ele><time>2026-05-02T16:54:39.886Z</time></trkpt><trkpt lat="40.4256566" lon="15.4278761"><ele>902.0</ele><time>2026-05-02T16:54:40.886Z</time></trkpt><trkpt lat="40.4255609" lon="15.428056"><ele>902.0</ele><time>2026-05-02T16:54:41.886Z</time></trkpt><trkpt lat="40.4254475" lon="15.4282066"><ele>890.3333333333334</ele><time>2026-05-02T16:54:42.885Z</time></trkpt><trkpt lat="40.4253416" lon="15.4283541"><ele>878.6666666666667</ele><time>2026-05-02T16:54:43.886Z</time></trkpt><trkpt lat="40.4252536" lon="15.4285229"><ele>867.0</ele><time>2026-05-02T16:54:44.886Z</time></trkpt><trkpt lat="40.4251723" lon="15.4287404"><ele>871.0</ele><time>2026-05-02T16:54:45.886Z</time></trkpt><trkpt lat="40.4250926" lon="15.4289912"><ele>875.0</ele><time>2026-05-02T16:54:46.886Z</time></trkpt><trkpt lat="40.4250185" lon="15.4292428"><ele>879.0</ele><time>2026-05-02T16:54:47.886Z</time></trkpt><trkpt lat="40.4249631" lon="15.4294931"><ele>880.6666666666667</ele><time>2026-05-02T16:54:48.886Z</time></trkpt><trkpt lat="40.4249138" lon="15.4297598"><ele>882.3333333333334</ele><time>2026-05-02T16:54:49.886Z</time></trkpt><trkpt lat="40.4248787" lon="15.4300228"><ele>884.0</ele><time>2026-05-02T16:54:50.886Z</time></trkpt><trkpt lat="40.4248433" lon="15.4302892"><ele>885.6666666666667</ele><time>2026-05-02T16:54:51.886Z</time></trkpt><trkpt lat="40.4248102" lon="15.430561"><ele>887.3333333333333</ele><time>2026-05-02T16:54:52.886Z</time></trkpt><trkpt lat="40.4247754" lon="15.4308258"><ele>889.0</ele><time>2026-05-02T16:54:53.886Z</time></trkpt><trkpt lat="40.4247405" lon="15.4310922"><ele>889.6666666666666</ele><time>2026-05-02T16:54:54.886Z</time></trkpt><trkpt lat="40.4247013" lon="15.4313588"><ele>890.3333333333333</ele><time>2026-05-02T16:54:55.886Z</time></trkpt><trkpt lat="40.4246713" lon="15.4316223"><ele>891.0</ele><time>2026-05-02T16:54:56.886Z</time></trkpt><trkpt lat="40.4246509" lon="15.4318896"><ele>876.3333333333333</ele><time>2026-05-02T16:54:57.886Z</time></trkpt><trkpt lat="40.4246451" lon="15.4321656"><ele>861.6666666666666</ele><time>2026-05-02T16:54:58.886Z</time></trkpt><trkpt lat="40.424643" lon="15.4324456"><ele>847.0</ele><time>2026-05-02T16:54:59.886Z</time></trkpt><trkpt lat="40.4246413" lon="15.4327374"><ele>847.0</ele><time>2026-05-02T16:55:00.886Z</time></trkpt><trkpt lat="40.4246404" lon="15.4330367"><ele>847.0</ele><time>2026-05-02T16:55:01.886Z</time></trkpt><trkpt lat="40.4246269" lon="15.433349"><ele>847.0</ele><time>2026-05-02T16:55:02.886Z</time></trkpt><trkpt lat="40.4246071" lon="15.433678"><ele>847.0</ele><time>2026-05-02T16:55:03.886Z</time></trkpt><trkpt lat="40.4245814" lon="15.4340121"><ele>846.5</ele><time>2026-05-02T16:55:04.886Z</time></trkpt><trkpt lat="40.424555" lon="15.4343258"><ele>846.0</ele><time>2026-05-02T16:55:05.885Z</time></trkpt><trkpt lat="40.4245461" lon="15.4346069"><ele>845.3333333333333</ele><time>2026-05-02T16:55:06.885Z</time></trkpt><trkpt lat="40.4245365" lon="15.43486"><ele>844.6666666666666</ele><time>2026-05-02T16:55:07.886Z</time></trkpt><trkpt lat="40.4245191" lon="15.4350901"><ele>844.0</ele><time>2026-05-02T16:55:08.886Z</time></trkpt><trkpt lat="40.4244808" lon="15.4353163"><ele>845.0</ele><time>2026-05-02T16:55:09.886Z</time></trkpt><trkpt lat="40.4244324" lon="15.4355179"><ele>846.0</ele><time>2026-05-02T16:55:10.886Z</time></trkpt><trkpt lat="40.4243679" lon="15.4357212"><ele>847.0</ele><time>2026-05-02T16:55:11.885Z</time></trkpt><trkpt lat="40.4242972" lon="15.435916"><ele>847.0</ele><time>2026-05-02T16:55:12.886Z</time></trkpt><trkpt lat="40.4242209" lon="15.4360986"><ele>847.0</ele><time>2026-05-02T16:55:13.886Z</time></trkpt><trkpt lat="40.4241488" lon="15.4362648"><ele>847.0</ele><time>2026-05-02T16:55:14.886Z</time></trkpt><trkpt lat="40.4240988" lon="15.4364414"><ele>847.0</ele><time>2026-05-02T16:55:15.886Z</time></trkpt><trkpt lat="40.4240747" lon="15.4366151"><ele>849.75</ele><time>2026-05-02T16:55:16.885Z</time></trkpt><trkpt lat="40.4240662" lon="15.436798"><ele>852.5</ele><time>2026-05-02T16:55:17.885Z</time></trkpt><trkpt lat="40.4240601" lon="15.4369822"><ele>855.25</ele><time>2026-05-02T16:55:18.886Z</time></trkpt><trkpt lat="40.424035" lon="15.437177"><ele>858.0</ele><time>2026-05-02T16:55:19.886Z</time></trkpt><trkpt lat="40.4239873" lon="15.437378"><ele>860.6666666666667</ele><time>2026-05-02T16:55:20.886Z</time></trkpt><trkpt lat="40.4239219" lon="15.4375842"><ele>863.3333333333334</ele><time>2026-05-02T16:55:21.886Z</time></trkpt><trkpt lat="40.4238563" lon="15.437805"><ele>866.0</ele><time>2026-05-02T16:55:22.885Z</time></trkpt><trkpt lat="40.4238086" lon="15.4380618"><ele>853.3333333333334</ele><time>2026-05-02T16:55:23.885Z</time></trkpt><trkpt lat="40.4237631" lon="15.4383305"><ele>840.6666666666667</ele><time>2026-05-02T16:55:24.886Z</time></trkpt><trkpt lat="40.4237264" lon="15.4385943"><ele>828.0</ele><time>2026-05-02T16:55:25.886Z</time></trkpt><trkpt lat="40.4236816" lon="15.4388256"><ele>828.0</ele><time>2026-05-02T16:55:26.885Z</time></trkpt><trkpt lat="40.4236327" lon="15.4390424"><ele>828.0</ele><time>2026-05-02T16:55:27.886Z</time></trkpt><trkpt lat="40.4235666" lon="15.4392674"><ele>828.0</ele><time>2026-05-02T16:55:28.886Z</time></trkpt><trkpt lat="40.4235034" lon="15.4394977"><ele>829.6666666666667</ele><time>2026-05-02T16:55:29.886Z</time></trkpt><trkpt lat="40.4234455" lon="15.4397464"><ele>831.3333333333334</ele><time>2026-05-02T16:55:30.886Z</time></trkpt><trkpt lat="40.4234007" lon="15.4400185"><ele>833.0</ele><time>2026-05-02T16:55:31.885Z</time></trkpt><trkpt lat="40.4233565" lon="15.4402979"><ele>833.6666666666667</ele><time>2026-05-02T16:55:32.885Z</time></trkpt><trkpt lat="40.4233216" lon="15.4405577"><ele>834.3333333333333</ele><time>2026-05-02T16:55:33.886Z</time></trkpt><trkpt lat="40.4232992" lon="15.4408084"><ele>835.0</ele><time>2026-05-02T16:55:34.886Z</time></trkpt><trkpt lat="40.4232926" lon="15.4410644"><ele>835.6666666666666</ele><time>2026-05-02T16:55:35.886Z</time></trkpt><trkpt lat="40.4232988" lon="15.4413305"><ele>836.3333333333333</ele><time>2026-05-02T16:55:36.886Z</time></trkpt><trkpt lat="40.4233074" lon="15.4415876"><ele>837.0</ele><time>2026-05-02T16:55:37.885Z</time></trkpt><trkpt lat="40.4233224" lon="15.4418314"><ele>837.0</ele><time>2026-05-02T16:55:38.886Z</time></trkpt><trkpt lat="40.4233459" lon="15.4420633"><ele>837.0</ele><time>2026-05-02T16:55:39.885Z</time></trkpt><trkpt lat="40.4233782" lon="15.4422913"><ele>837.0</ele><time>2026-05-02T16:55:40.886Z</time></trkpt><trkpt lat="40.4234236" lon="15.4425253"><ele>832.3333333333333</ele><time>2026-05-02T16:55:41.885Z</time></trkpt><trkpt lat="40.4234786" lon="15.4427583"><ele>827.6666666666666</ele><time>2026-05-02T16:55:42.886Z</time></trkpt><trkpt lat="40.423545" lon="15.4429901"><ele>823.0</ele><time>2026-05-02T16:55:43.886Z</time></trkpt><trkpt lat="40.4236243" lon="15.4432078"><ele>818.0</ele><time>2026-05-02T16:55:44.885Z</time></trkpt><trkpt lat="40.4237098" lon="15.4434054"><ele>813.0</ele><time>2026-05-02T16:55:45.886Z</time></trkpt><trkpt lat="40.4237957" lon="15.4435917"><ele>808.0</ele><time>2026-05-02T16:55:46.886Z</time></trkpt><trkpt lat="40.4238593" lon="15.4437598"><ele>815.25</ele><time>2026-05-02T16:55:47.886Z</time></trkpt><trkpt lat="40.423919" lon="15.4439164"><ele>822.5</ele><time>2026-05-02T16:55:48.886Z</time></trkpt><trkpt lat="40.4239599" lon="15.4440868"><ele>829.75</ele><time>2026-05-02T16:55:49.886Z</time></trkpt><trkpt lat="40.4239847" lon="15.4442913"><ele>837.0</ele><time>2026-05-02T16:55:50.886Z</time></trkpt><trkpt lat="40.4240033" lon="15.4445417"><ele>833.0</ele><time>2026-05-02T16:55:51.886Z</time></trkpt><trkpt lat="40.4240255" lon="15.4448335"><ele>829.0</ele><time>2026-05-02T16:55:52.886Z</time></trkpt><trkpt lat="40.4240562" lon="15.4451348"><ele>829.0</ele><time>2026-05-02T16:55:53.886Z</time></trkpt><trkpt lat="40.4240838" lon="15.4454151"><ele>829.0</ele><time>2026-05-02T16:55:54.886Z</time></trkpt><trkpt lat="40.4240952" lon="15.4456928"><ele>829.0</ele><time>2026-05-02T16:55:55.885Z</time></trkpt><trkpt lat="40.4240824" lon="15.4459706"><ele>827.3333333333333</ele><time>2026-05-02T16:55:56.886Z</time></trkpt><trkpt lat="40.4240509" lon="15.4462107"><ele>825.6666666666667</ele><time>2026-05-02T16:55:57.885Z</time></trkpt><trkpt lat="40.4240195" lon="15.4464313"><ele>824.0</ele><time>2026-05-02T16:55:58.885Z</time></trkpt><trkpt lat="40.4239846" lon="15.4466346"><ele>824.0</ele><time>2026-05-02T16:55:59.886Z</time></trkpt><trkpt lat="40.4239303" lon="15.4468271"><ele>824.0</ele><time>2026-05-02T16:56:00.886Z</time></trkpt><trkpt lat="40.4238594" lon="15.4470133"><ele>824.0</ele><time>2026-05-02T16:56:01.885Z</time></trkpt><trkpt lat="40.4237764" lon="15.4471982"><ele>815.0</ele><time>2026-05-02T16:56:02.885Z</time></trkpt><trkpt lat="40.4236922" lon="15.4473559"><ele>806.0</ele><time>2026-05-02T16:56:03.885Z</time></trkpt><trkpt lat="40.4236208" lon="15.4475017"><ele>797.0</ele><time>2026-05-02T16:56:04.885Z</time></trkpt><trkpt lat="40.4235651" lon="15.4476261"><ele>788.0</ele><time>2026-05-02T16:56:05.886Z</time></trkpt><trkpt lat="40.4235362" lon="15.4477393"><ele>788.0</ele><time>2026-05-02T16:56:06.886Z</time></trkpt><trkpt lat="40.4235479" lon="15.4478529"><ele>788.0</ele><time>2026-05-02T16:56:07.886Z</time></trkpt><trkpt lat="40.4235848" lon="15.4479473"><ele>788.0</ele><time>2026-05-02T16:56:08.886Z</time></trkpt><trkpt lat="40.4236733" lon="15.4480374"><ele>788.0</ele><time>2026-05-02T16:56:09.885Z</time></trkpt><trkpt lat="40.4237693" lon="15.4481527"><ele>788.0</ele><time>2026-05-02T16:56:10.886Z</time></trkpt><trkpt lat="40.4238485" lon="15.4482965"><ele>791.0</ele><time>2026-05-02T16:56:11.886Z</time></trkpt><trkpt lat="40.4239122" lon="15.4484552"><ele>794.0</ele><time>2026-05-02T16:56:12.885Z</time></trkpt><trkpt lat="40.4239688" lon="15.4486084"><ele>797.0</ele><time>2026-05-02T16:56:13.885Z</time></trkpt><trkpt lat="40.4240087" lon="15.4487788"><ele>800.0</ele><time>2026-05-02T16:56:14.886Z</time></trkpt><trkpt lat="40.4240231" lon="15.4489591"><ele>800.0</ele><time>2026-05-02T16:56:15.886Z</time></trkpt><trkpt lat="40.4240276" lon="15.4491404"><ele>800.0</ele><time>2026-05-02T16:56:16.886Z</time></trkpt><trkpt lat="40.4240434" lon="15.4493102"><ele>800.0</ele><time>2026-05-02T16:56:17.886Z</time></trkpt><trkpt lat="40.4240795" lon="15.4494575"><ele>800.0</ele><time>2026-05-02T16:56:18.886Z</time></trkpt><trkpt lat="40.4241371" lon="15.4496112"><ele>793.25</ele><time>2026-05-02T16:56:19.886Z</time></trkpt><trkpt lat="40.4242149" lon="15.4497451"><ele>786.5</ele><time>2026-05-02T16:56:20.886Z</time></trkpt><trkpt lat="40.4243119" lon="15.449866"><ele>779.75</ele><time>2026-05-02T16:56:21.886Z</time></trkpt><trkpt lat="40.4244172" lon="15.4499701"><ele>773.0</ele><time>2026-05-02T16:56:22.886Z</time></trkpt><trkpt lat="40.4245155" lon="15.4501055"><ele>773.0</ele><time>2026-05-02T16:56:23.886Z</time></trkpt><trkpt lat="40.4245995" lon="15.4502523"><ele>773.0</ele><time>2026-05-02T16:56:24.885Z</time></trkpt><trkpt lat="40.4246824" lon="15.450387"><ele>773.0</ele><time>2026-05-02T16:56:25.886Z</time></trkpt><trkpt lat="40.4247816" lon="15.4505021"><ele>773.0</ele><time>2026-05-02T16:56:26.886Z</time></trkpt><trkpt lat="40.4248844" lon="15.4506083"><ele>774.0</ele><time>2026-05-02T16:56:27.886Z</time></trkpt><trkpt lat="40.4249826" lon="15.4507251"><ele>775.0</ele><time>2026-05-02T16:56:28.886Z</time></trkpt><trkpt lat="40.4250776" lon="15.450839"><ele>776.0</ele><time>2026-05-02T16:56:29.886Z</time></trkpt><trkpt lat="40.4251803" lon="15.4509305"><ele>777.0</ele><time>2026-05-02T16:56:30.885Z</time></trkpt><trkpt lat="40.4252767" lon="15.4510131"><ele>777.0</ele><time>2026-05-02T16:56:31.886Z</time></trkpt><trkpt lat="40.4253707" lon="15.4511042"><ele>777.0</ele><time>2026-05-02T16:56:32.885Z</time></trkpt><trkpt lat="40.4254451" lon="15.4512143"><ele>777.0</ele><time>2026-05-02T16:56:33.886Z</time></trkpt><trkpt lat="40.4255184" lon="15.4513266"><ele>777.0</ele><time>2026-05-02T16:56:34.886Z</time></trkpt><trkpt lat="40.4255986" lon="15.451401"><ele>777.0</ele><time>2026-05-02T16:56:35.886Z</time></trkpt><trkpt lat="40.4257035" lon="15.4514445"><ele>774.75</ele><time>2026-05-02T16:56:36.886Z</time></trkpt><trkpt lat="40.4258304" lon="15.4514667"><ele>772.5</ele><time>2026-05-02T16:56:37.885Z</time></trkpt><trkpt lat="40.4259692" lon="15.4514961"><ele>770.25</ele><time>2026-05-02T16:56:38.885Z</time></trkpt><trkpt lat="40.4261024" lon="15.451557"><ele>768.0</ele><time>2026-05-02T16:56:39.886Z</time></trkpt><trkpt lat="40.4262339" lon="15.45163"><ele>770.5</ele><time>2026-05-02T16:56:40.886Z</time></trkpt><trkpt lat="40.4263654" lon="15.451701"><ele>773.0</ele><time>2026-05-02T16:56:41.885Z</time></trkpt><trkpt lat="40.4264999" lon="15.4517599"><ele>775.5</ele><time>2026-05-02T16:56:42.885Z</time></trkpt><trkpt lat="40.426638" lon="15.4517965"><ele>778.0</ele><time>2026-05-02T16:56:43.886Z</time></trkpt><trkpt lat="40.426776" lon="15.451808"><ele>778.0</ele><time>2026-05-02T16:56:44.886Z</time></trkpt><trkpt lat="40.4269068" lon="15.4517998"><ele>778.0</ele><time>2026-05-02T16:56:45.885Z</time></trkpt><trkpt lat="40.4270243" lon="15.4517818"><ele>778.0</ele><time>2026-05-02T16:56:46.886Z</time></trkpt><trkpt lat="40.4271233" lon="15.4517376"><ele>778.0</ele><time>2026-05-02T16:56:47.886Z</time></trkpt><trkpt lat="40.4272028" lon="15.4516582"><ele>773.5</ele><time>2026-05-02T16:56:48.886Z</time></trkpt><trkpt lat="40.427253" lon="15.4515406"><ele>769.0</ele><time>2026-05-02T16:56:49.886Z</time></trkpt><trkpt lat="40.4272824" lon="15.4513983"><ele>764.5</ele><time>2026-05-02T16:56:50.886Z</time></trkpt><trkpt lat="40.4273129" lon="15.4512261"><ele>760.0</ele><time>2026-05-02T16:56:51.886Z</time></trkpt><trkpt lat="40.4273516" lon="15.4510534"><ele>760.0</ele><time>2026-05-02T16:56:52.886Z</time></trkpt><trkpt lat="40.427406" lon="15.4508853"><ele>760.0</ele><time>2026-05-02T16:56:53.886Z</time></trkpt><trkpt lat="40.4274586" lon="15.4507159"><ele>760.0</ele><time>2026-05-02T16:56:54.885Z</time></trkpt><trkpt lat="40.4275139" lon="15.4505631"><ele>760.0</ele><time>2026-05-02T16:56:55.886Z</time></trkpt><trkpt lat="40.4275763" lon="15.4504401"><ele>768.25</ele><time>2026-05-02T16:56:56.886Z</time></trkpt><trkpt lat="40.4276463" lon="15.4503154"><ele>776.5</ele><time>2026-05-02T16:56:57.886Z</time></trkpt><trkpt lat="40.4277233" lon="15.4502339"><ele>784.75</ele><time>2026-05-02T16:56:58.886Z</time></trkpt><trkpt lat="40.427829" lon="15.450192"><ele>793.0</ele><time>2026-05-02T16:56:59.885Z</time></trkpt><trkpt lat="40.4279814" lon="15.4502153"><ele>793.0</ele><time>2026-05-02T16:57:00.886Z</time></trkpt><trkpt lat="40.4281492" lon="15.450227"><ele>793.0</ele><time>2026-05-02T16:57:01.886Z</time></trkpt><trkpt lat="40.4283108" lon="15.4502413"><ele>793.0</ele><time>2026-05-02T16:57:02.886Z</time></trkpt><trkpt lat="40.4284402" lon="15.450257"><ele>793.0</ele><time>2026-05-02T16:57:03.886Z</time></trkpt><trkpt lat="40.4285444" lon="15.4502966"><ele>793.0</ele><time>2026-05-02T16:57:04.886Z</time></trkpt><trkpt lat="40.4286482" lon="15.4503853"><ele>793.0</ele><time>2026-05-02T16:57:05.886Z</time></trkpt><trkpt lat="40.4287449" lon="15.4505049"><ele>793.0</ele><time>2026-05-02T16:57:06.886Z</time></trkpt><trkpt lat="40.4288373" lon="15.4506393"><ele>783.8</ele><time>2026-05-02T16:57:07.886Z</time></trkpt><trkpt lat="40.428914" lon="15.4507502"><ele>774.5999999999999</ele><time>2026-05-02T16:57:08.885Z</time></trkpt><trkpt lat="40.4289724" lon="15.4508368"><ele>765.4000000000001</ele><time>2026-05-02T16:57:09.886Z</time></trkpt><trkpt lat="40.4290268" lon="15.4508892"><ele>756.2</ele><time>2026-05-02T16:57:10.886Z</time></trkpt><trkpt lat="40.4291448" lon="15.4508924"><ele>747.0</ele><time>2026-05-02T16:57:12.886Z</time></trkpt><trkpt lat="40.4292275" lon="15.4508444"><ele>747.0</ele><time>2026-05-02T16:57:13.886Z</time></trkpt><trkpt lat="40.4293426" lon="15.4507606"><ele>747.0</ele><time>2026-05-02T16:57:14.886Z</time></trkpt><trkpt lat="40.4294922" lon="15.4506788"><ele>747.0</ele><time>2026-05-02T16:57:15.886Z</time></trkpt><trkpt lat="40.4296758" lon="15.4506015"><ele>747.0</ele><time>2026-05-02T16:57:16.886Z</time></trkpt><trkpt lat="40.429843" lon="15.4505381"><ele>747.0</ele><time>2026-05-02T16:57:17.886Z</time></trkpt><trkpt lat="40.4299971" lon="15.450477"><ele>747.0</ele><time>2026-05-02T16:57:18.886Z</time></trkpt><trkpt lat="40.4301336" lon="15.4504191"><ele>748.6</ele><time>2026-05-02T16:57:19.886Z</time></trkpt><trkpt lat="40.4302584" lon="15.450382"><ele>750.2</ele><time>2026-05-02T16:57:20.886Z</time></trkpt><trkpt lat="40.4303638" lon="15.450364"><ele>751.8</ele><time>2026-05-02T16:57:21.885Z</time></trkpt><trkpt lat="40.4304471" lon="15.4503856"><ele>753.4</ele><time>2026-05-02T16:57:22.885Z</time></trkpt><trkpt lat="40.4305132" lon="15.4504212"><ele>755.0</ele><time>2026-05-02T16:57:23.885Z</time></trkpt><trkpt lat="40.4305631" lon="15.4504783"><ele>755.0</ele><time>2026-05-02T16:57:24.885Z</time></trkpt><trkpt lat="40.4305885" lon="15.4505603"><ele>755.0</ele><time>2026-05-02T16:57:25.886Z</time></trkpt><trkpt lat="40.4305879" lon="15.4506733"><ele>755.0</ele><time>2026-05-02T16:57:26.886Z</time></trkpt><trkpt lat="40.4305696" lon="15.4508246"><ele>755.0</ele><time>2026-05-02T16:57:27.886Z</time></trkpt><trkpt lat="40.4305643" lon="15.4509828"><ele>755.0</ele><time>2026-05-02T16:57:28.886Z</time></trkpt><trkpt lat="40.4305724" lon="15.4511175"><ele>755.0</ele><time>2026-05-02T16:57:29.885Z</time></trkpt><trkpt lat="40.430604" lon="15.4512069"><ele>755.0</ele><time>2026-05-02T16:57:30.886Z</time></trkpt><trkpt lat="40.4306535" lon="15.4512734"><ele>755.0</ele><time>2026-05-02T16:57:31.885Z</time></trkpt><trkpt lat="40.4307356" lon="15.4513217"><ele>755.0</ele><time>2026-05-02T16:57:32.886Z</time></trkpt><trkpt lat="40.4308432" lon="15.4513641"><ele>755.0</ele><time>2026-05-02T16:57:33.886Z</time></trkpt><trkpt lat="40.4309583" lon="15.4514346"><ele>749.5</ele><time>2026-05-02T16:57:34.886Z</time></trkpt><trkpt lat="40.4310558" lon="15.4515231"><ele>744.0</ele><time>2026-05-02T16:57:35.886Z</time></trkpt><trkpt lat="40.4311347" lon="15.4516434"><ele>738.5</ele><time>2026-05-02T16:57:36.886Z</time></trkpt><trkpt lat="40.4311849" lon="15.4517898"><ele>733.0</ele><time>2026-05-02T16:57:37.885Z</time></trkpt><trkpt lat="40.4312101" lon="15.4519345"><ele>733.0</ele><time>2026-05-02T16:57:38.886Z</time></trkpt><trkpt lat="40.4312445" lon="15.4520457"><ele>733.0</ele><time>2026-05-02T16:57:39.885Z</time></trkpt><trkpt lat="40.431301" lon="15.4521069"><ele>733.0</ele><time>2026-05-02T16:57:40.885Z</time></trkpt><trkpt lat="40.4313701" lon="15.4521206"><ele>733.0</ele><time>2026-05-02T16:57:41.886Z</time></trkpt><trkpt lat="40.4314504" lon="15.4520806"><ele>733.0</ele><time>2026-05-02T16:57:42.886Z</time></trkpt><trkpt lat="40.4315567" lon="15.4519904"><ele>733.0</ele><time>2026-05-02T16:57:43.886Z</time></trkpt><trkpt lat="40.4316866" lon="15.4518802"><ele>735.0</ele><time>2026-05-02T16:57:44.886Z</time></trkpt><trkpt lat="40.431828" lon="15.4517644"><ele>737.0</ele><time>2026-05-02T16:57:45.886Z</time></trkpt><trkpt lat="40.4319762" lon="15.4516517"><ele>739.0</ele><time>2026-05-02T16:57:46.885Z</time></trkpt><trkpt lat="40.4321061" lon="15.4515525"><ele>737.0</ele><time>2026-05-02T16:57:47.886Z</time></trkpt><trkpt lat="40.4322326" lon="15.4514665"><ele>735.0</ele><time>2026-05-02T16:57:48.886Z</time></trkpt><trkpt lat="40.4323583" lon="15.4513902"><ele>733.0</ele><time>2026-05-02T16:57:49.886Z</time></trkpt><trkpt lat="40.4324769" lon="15.4513359"><ele>731.0</ele><time>2026-05-02T16:57:50.886Z</time></trkpt><trkpt lat="40.4325778" lon="15.4513097"><ele>731.0</ele><time>2026-05-02T16:57:51.885Z</time></trkpt><trkpt lat="40.4326706" lon="15.4513083"><ele>731.0</ele><time>2026-05-02T16:57:52.886Z</time></trkpt><trkpt lat="40.4327532" lon="15.4513527"><ele>731.0</ele><time>2026-05-02T16:57:53.885Z</time></trkpt><trkpt lat="40.4328396" lon="15.4514502"><ele>731.0</ele><time>2026-05-02T16:57:54.885Z</time></trkpt><trkpt lat="40.432899" lon="15.4515962"><ele>731.0</ele><time>2026-05-02T16:57:55.886Z</time></trkpt><trkpt lat="40.4329493" lon="15.4517988"><ele>737.6666666666666</ele><time>2026-05-02T16:57:56.886Z</time></trkpt><trkpt lat="40.4329971" lon="15.4520431"><ele>744.3333333333334</ele><time>2026-05-02T16:57:57.885Z</time></trkpt><trkpt lat="40.4330467" lon="15.4523011"><ele>751.0</ele><time>2026-05-02T16:57:58.886Z</time></trkpt><trkpt lat="40.4331061" lon="15.452526"><ele>751.0</ele><time>2026-05-02T16:57:59.886Z</time></trkpt><trkpt lat="40.4331602" lon="15.4527527"><ele>751.0</ele><time>2026-05-02T16:58:00.886Z</time></trkpt><trkpt lat="40.4331988" lon="15.4529787"><ele>751.0</ele><time>2026-05-02T16:58:01.886Z</time></trkpt><trkpt lat="40.4332341" lon="15.4531914"><ele>747.0</ele><time>2026-05-02T16:58:02.886Z</time></trkpt><trkpt lat="40.4332577" lon="15.4533808"><ele>743.0</ele><time>2026-05-02T16:58:03.886Z</time></trkpt><trkpt lat="40.4332627" lon="15.4535605"><ele>739.0</ele><time>2026-05-02T16:58:04.886Z</time></trkpt><trkpt lat="40.4332647" lon="15.453719"><ele>735.0</ele><time>2026-05-02T16:58:05.886Z</time></trkpt><trkpt lat="40.4332715" lon="15.4538609"><ele>729.8</ele><time>2026-05-02T16:58:06.886Z</time></trkpt><trkpt lat="40.4332906" lon="15.4539861"><ele>724.6</ele><time>2026-05-02T16:58:07.885Z</time></trkpt><trkpt lat="40.4333226" lon="15.4540966"><ele>719.4000000000001</ele><time>2026-05-02T16:58:08.886Z</time></trkpt><trkpt lat="40.433362" lon="15.4541984"><ele>714.2</ele><time>2026-05-02T16:58:09.885Z</time></trkpt><trkpt lat="40.4334105" lon="15.4543132"><ele>709.0</ele><time>2026-05-02T16:58:10.886Z</time></trkpt><trkpt lat="40.4334769" lon="15.4544464"><ele>709.0</ele><time>2026-05-02T16:58:11.886Z</time></trkpt><trkpt lat="40.4335675" lon="15.4545801"><ele>709.0</ele><time>2026-05-02T16:58:12.886Z</time></trkpt><trkpt lat="40.4336789" lon="15.4547102"><ele>709.0</ele><time>2026-05-02T16:58:13.886Z</time></trkpt><trkpt lat="40.4337988" lon="15.4548365"><ele>709.0</ele><time>2026-05-02T16:58:14.885Z</time></trkpt><trkpt lat="40.4339215" lon="15.4549581"><ele>711.0</ele><time>2026-05-02T16:58:15.886Z</time></trkpt><trkpt lat="40.434041" lon="15.4550661"><ele>713.0</ele><time>2026-05-02T16:58:16.885Z</time></trkpt><trkpt lat="40.4341386" lon="15.4551544"><ele>715.0</ele><time>2026-05-02T16:58:17.885Z</time></trkpt><trkpt lat="40.434229" lon="15.4552135"><ele>717.0</ele><time>2026-05-02T16:58:18.885Z</time></trkpt><trkpt lat="40.4343281" lon="15.4552294"><ele>717.0</ele><time>2026-05-02T16:58:19.886Z</time></trkpt><trkpt lat="40.4344211" lon="15.4552332"><ele>717.0</ele><time>2026-05-02T16:58:20.886Z</time></trkpt><trkpt lat="40.4345006" lon="15.4552505"><ele>717.0</ele><time>2026-05-02T16:58:21.886Z</time></trkpt><trkpt lat="40.4345773" lon="15.455278"><ele>717.0</ele><time>2026-05-02T16:58:22.886Z</time></trkpt><trkpt lat="40.4346316" lon="15.4553278"><ele>717.0</ele><time>2026-05-02T16:58:23.886Z</time></trkpt><trkpt lat="40.4346143" lon="15.4554442"><ele>717.0</ele><time>2026-05-02T16:58:25.886Z</time></trkpt><trkpt lat="40.4345504" lon="15.4554748"><ele>717.0</ele><time>2026-05-02T16:58:26.886Z</time></trkpt><trkpt lat="40.4344371" lon="15.4554675"><ele>717.0</ele><time>2026-05-02T16:58:27.886Z</time></trkpt><trkpt lat="40.4342872" lon="15.4554236"><ele>717.0</ele><time>2026-05-02T16:58:28.886Z</time></trkpt><trkpt lat="40.4341342" lon="15.455318"><ele>717.0</ele><time>2026-05-02T16:58:29.886Z</time></trkpt><trkpt lat="40.433971" lon="15.4551879"><ele>717.0</ele><time>2026-05-02T16:58:30.886Z</time></trkpt><trkpt lat="40.4338076" lon="15.4550724"><ele>717.0</ele><time>2026-05-02T16:58:31.885Z</time></trkpt><trkpt lat="40.4336677" lon="15.4549605"><ele>717.0</ele><time>2026-05-02T16:58:32.886Z</time></trkpt><trkpt lat="40.433558" lon="15.4548491"><ele>715.0</ele><time>2026-05-02T16:58:33.886Z</time></trkpt><trkpt lat="40.4334583" lon="15.4547243"><ele>713.0</ele><time>2026-05-02T16:58:34.886Z</time></trkpt><trkpt lat="40.4333654" lon="15.454577"><ele>711.0</ele><time>2026-05-02T16:58:35.885Z</time></trkpt><trkpt lat="40.4332896" lon="15.4544175"><ele>709.0</ele><time>2026-05-02T16:58:36.885Z</time></trkpt><trkpt lat="40.4332079" lon="15.4542467"><ele>709.0</ele><time>2026-05-02T16:58:37.886Z</time></trkpt><trkpt lat="40.433139" lon="15.4540585"><ele>709.0</ele><time>2026-05-02T16:58:38.886Z</time></trkpt><trkpt lat="40.4330788" lon="15.4538799"><ele>709.0</ele><time>2026-05-02T16:58:39.885Z</time></trkpt><trkpt lat="40.4330045" lon="15.4537352"><ele>709.0</ele><time>2026-05-02T16:58:40.885Z</time></trkpt><trkpt lat="40.4329239" lon="15.4536177"><ele>706.4000000000001</ele><time>2026-05-02T16:58:41.886Z</time></trkpt><trkpt lat="40.4328308" lon="15.4535197"><ele>703.8</ele><time>2026-05-02T16:58:42.886Z</time></trkpt><trkpt lat="40.4327261" lon="15.4534547"><ele>701.2</ele><time>2026-05-02T16:58:43.886Z</time></trkpt><trkpt lat="40.432638" lon="15.4534163"><ele>698.5999999999999</ele><time>2026-05-02T16:58:44.886Z</time></trkpt><trkpt lat="40.4325419" lon="15.4534173"><ele>696.0</ele><time>2026-05-02T16:58:45.885Z</time></trkpt><trkpt lat="40.4324604" lon="15.4534576"><ele>696.0</ele><time>2026-05-02T16:58:46.886Z</time></trkpt><trkpt lat="40.4323993" lon="15.4535347"><ele>696.0</ele><time>2026-05-02T16:58:47.886Z</time></trkpt><trkpt lat="40.4323654" lon="15.4536309"><ele>696.0</ele><time>2026-05-02T16:58:48.885Z</time></trkpt><trkpt lat="40.4323821" lon="15.4537418"><ele>696.0</ele><time>2026-05-02T16:58:49.886Z</time></trkpt><trkpt lat="40.4324339" lon="15.4538285"><ele>696.0</ele><time>2026-05-02T16:58:50.886Z</time></trkpt><trkpt lat="40.4324989" lon="15.4538789"><ele>696.0</ele><time>2026-05-02T16:58:51.886Z</time></trkpt><trkpt lat="40.4325847" lon="15.4538988"><ele>692.75</ele><time>2026-05-02T16:58:52.885Z</time></trkpt><trkpt lat="40.4326812" lon="15.4539056"><ele>689.5</ele><time>2026-05-02T16:58:53.886Z</time></trkpt><trkpt lat="40.4327823" lon="15.4539182"><ele>686.25</ele><time>2026-05-02T16:58:54.885Z</time></trkpt><trkpt lat="40.4329" lon="15.453963"><ele>683.0</ele><time>2026-05-02T16:58:55.885Z</time></trkpt><trkpt lat="40.4330156" lon="15.4540684"><ele>691.6666666666666</ele><time>2026-05-02T16:58:56.886Z</time></trkpt><trkpt lat="40.4331172" lon="15.4542253"><ele>700.3333333333334</ele><time>2026-05-02T16:58:57.886Z</time></trkpt><trkpt lat="40.4331802" lon="15.4544125"><ele>709.0</ele><time>2026-05-02T16:58:58.886Z</time></trkpt><trkpt lat="40.4332168" lon="15.454602"><ele>704.0</ele><time>2026-05-02T16:58:59.886Z</time></trkpt><trkpt lat="40.4332456" lon="15.4547924"><ele>699.0</ele><time>2026-05-02T16:59:00.885Z</time></trkpt><trkpt lat="40.4332548" lon="15.4549787"><ele>694.0</ele><time>2026-05-02T16:59:01.886Z</time></trkpt><trkpt lat="40.4332523" lon="15.4551516"><ele>689.0</ele><time>2026-05-02T16:59:02.885Z</time></trkpt><trkpt lat="40.4332739" lon="15.455306"><ele>689.0</ele><time>2026-05-02T16:59:03.886Z</time></trkpt><trkpt lat="40.4333252" lon="15.4554366"><ele>689.0</ele><time>2026-05-02T16:59:04.885Z</time></trkpt><trkpt lat="40.4334099" lon="15.4555603"><ele>689.0</ele><time>2026-05-02T16:59:05.886Z</time></trkpt><trkpt lat="40.4335022" lon="15.4556888"><ele>689.0</ele><time>2026-05-02T16:59:06.886Z</time></trkpt><trkpt lat="40.4335937" lon="15.4558357"><ele>687.3333333333333</ele><time>2026-05-02T16:59:07.886Z</time></trkpt><trkpt lat="40.433671" lon="15.4560301"><ele>685.6666666666666</ele><time>2026-05-02T16:59:08.886Z</time></trkpt><trkpt lat="40.4337442" lon="15.4562195"><ele>684.0</ele><time>2026-05-02T16:59:09.885Z</time></trkpt><trkpt lat="40.4338189" lon="15.4563996"><ele>684.0</ele><time>2026-05-02T16:59:10.885Z</time></trkpt><trkpt lat="40.4338795" lon="15.4565732"><ele>684.0</ele><time>2026-05-02T16:59:11.886Z</time></trkpt><trkpt lat="40.4339423" lon="15.4567281"><ele>684.0</ele><time>2026-05-02T16:59:12.886Z</time></trkpt><trkpt lat="40.4339965" lon="15.4568846"><ele>684.0</ele><time>2026-05-02T16:59:13.886Z</time></trkpt><trkpt lat="40.4340582" lon="15.4570446"><ele>680.75</ele><time>2026-05-02T16:59:14.886Z</time></trkpt><trkpt lat="40.4341154" lon="15.4572116"><ele>677.5</ele><time>2026-05-02T16:59:15.886Z</time></trkpt><trkpt lat="40.4341784" lon="15.4573833"><ele>674.25</ele><time>2026-05-02T16:59:16.886Z</time></trkpt><trkpt lat="40.434253" lon="15.457539"><ele>671.0</ele><time>2026-05-02T16:59:17.885Z</time></trkpt><trkpt lat="40.4343364" lon="15.4576895"><ele>671.0</ele><time>2026-05-02T16:59:18.885Z</time></trkpt><trkpt lat="40.4344122" lon="15.4578512"><ele>671.0</ele><time>2026-05-02T16:59:19.886Z</time></trkpt><trkpt lat="40.4344618" lon="15.4580254"><ele>671.0</ele><time>2026-05-02T16:59:20.886Z</time></trkpt><trkpt lat="40.4344891" lon="15.4582143"><ele>671.0</ele><time>2026-05-02T16:59:21.886Z</time></trkpt><trkpt lat="40.4345003" lon="15.4583937"><ele>668.25</ele><time>2026-05-02T16:59:22.886Z</time></trkpt><trkpt lat="40.4344987" lon="15.4585671"><ele>665.5</ele><time>2026-05-02T16:59:23.885Z</time></trkpt><trkpt lat="40.4345051" lon="15.458725"><ele>662.75</ele><time>2026-05-02T16:59:24.886Z</time></trkpt><trkpt lat="40.4345004" lon="15.4588818"><ele>660.0</ele><time>2026-05-02T16:59:25.886Z</time></trkpt><trkpt lat="40.4344789" lon="15.4590369"><ele>660.0</ele><time>2026-05-02T16:59:26.885Z</time></trkpt><trkpt lat="40.4344073" lon="15.4591748"><ele>660.0</ele><time>2026-05-02T16:59:27.886Z</time></trkpt><trkpt lat="40.4343586" lon="15.4593177"><ele>660.0</ele><time>2026-05-02T16:59:28.886Z</time></trkpt><trkpt lat="40.4343359" lon="15.4594794"><ele>660.0</ele><time>2026-05-02T16:59:29.886Z</time></trkpt><trkpt lat="40.4343471" lon="15.4596616"><ele>659.75</ele><time>2026-05-02T16:59:30.886Z</time></trkpt><trkpt lat="40.4343654" lon="15.4598363"><ele>659.5</ele><time>2026-05-02T16:59:31.886Z</time></trkpt><trkpt lat="40.4343932" lon="15.4600082"><ele>659.25</ele><time>2026-05-02T16:59:32.885Z</time></trkpt><trkpt lat="40.4344069" lon="15.4602042"><ele>659.0</ele><time>2026-05-02T16:59:33.886Z</time></trkpt><trkpt lat="40.4344263" lon="15.4604098"><ele>656.0</ele><time>2026-05-02T16:59:34.885Z</time></trkpt><trkpt lat="40.4344478" lon="15.4606248"><ele>653.0</ele><time>2026-05-02T16:59:35.885Z</time></trkpt><trkpt lat="40.4344705" lon="15.4608322"><ele>650.0</ele><time>2026-05-02T16:59:36.885Z</time></trkpt><trkpt lat="40.4344977" lon="15.4610261"><ele>650.0</ele><time>2026-05-02T16:59:37.886Z</time></trkpt><trkpt lat="40.434513" lon="15.4611989"><ele>650.0</ele><time>2026-05-02T16:59:38.885Z</time></trkpt><trkpt lat="40.4345241" lon="15.4613576"><ele>650.0</ele><time>2026-05-02T16:59:39.885Z</time></trkpt><trkpt lat="40.4345289" lon="15.4615027"><ele>650.0</ele><time>2026-05-02T16:59:40.886Z</time></trkpt><trkpt lat="40.4345276" lon="15.4616335"><ele>649.4</ele><time>2026-05-02T16:59:41.886Z</time></trkpt><trkpt lat="40.4345179" lon="15.4617624"><ele>648.8</ele><time>2026-05-02T16:59:42.886Z</time></trkpt><trkpt lat="40.4345014" lon="15.4618762"><ele>648.2</ele><time>2026-05-02T16:59:43.886Z</time></trkpt><trkpt lat="40.4344766" lon="15.4619928"><ele>647.6</ele><time>2026-05-02T16:59:44.886Z</time></trkpt><trkpt lat="40.4344434" lon="15.4621158"><ele>647.0</ele><time>2026-05-02T16:59:45.886Z</time></trkpt><trkpt lat="40.4343988" lon="15.4622442"><ele>648.2</ele><time>2026-05-02T16:59:46.886Z</time></trkpt><trkpt lat="40.4343495" lon="15.4623797"><ele>649.4000000000001</ele><time>2026-05-02T16:59:47.886Z</time></trkpt><trkpt lat="40.4343019" lon="15.4625169"><ele>650.5999999999999</ele><time>2026-05-02T16:59:48.886Z</time></trkpt><trkpt lat="40.434269" lon="15.4626567"><ele>651.8</ele><time>2026-05-02T16:59:49.886Z</time></trkpt><trkpt lat="40.4342628" lon="15.4627933"><ele>653.0</ele><time>2026-05-02T16:59:50.885Z</time></trkpt><trkpt lat="40.4342736" lon="15.4629326"><ele>652.8</ele><time>2026-05-02T16:59:51.886Z</time></trkpt><trkpt lat="40.434294" lon="15.4630745"><ele>652.5999999999999</ele><time>2026-05-02T16:59:52.886Z</time></trkpt><trkpt lat="40.4343092" lon="15.4632131"><ele>652.4000000000001</ele><time>2026-05-02T16:59:53.885Z</time></trkpt><trkpt lat="40.4343222" lon="15.4633408"><ele>652.2</ele><time>2026-05-02T16:59:54.886Z</time></trkpt><trkpt lat="40.4343188" lon="15.4634682"><ele>652.0</ele><time>2026-05-02T16:59:55.886Z</time></trkpt><trkpt lat="40.4342988" lon="15.4635953"><ele>652.0</ele><time>2026-05-02T16:59:56.885Z</time></trkpt><trkpt lat="40.4342592" lon="15.4637089"><ele>652.0</ele><time>2026-05-02T16:59:57.886Z</time></trkpt><trkpt lat="40.4342032" lon="15.4638093"><ele>652.0</ele><time>2026-05-02T16:59:58.886Z</time></trkpt><trkpt lat="40.4342062" lon="15.4639732"><ele>652.0</ele><time>2026-05-02T16:59:59.886Z</time></trkpt><trkpt lat="40.4341825" lon="15.4640611"><ele>652.0</ele><time>2026-05-02T17:00:00.886Z</time></trkpt><trkpt lat="40.4341588" lon="15.4641559"><ele>651.8333333333334</ele><time>2026-05-02T17:00:02.886Z</time></trkpt><trkpt lat="40.4342384" lon="15.4641403"><ele>651.6666666666667</ele><time>2026-05-02T17:00:17.887Z</time></trkpt><trkpt lat="40.4342822" lon="15.4642513"><ele>651.5</ele><time>2026-05-02T17:00:19.887Z</time></trkpt><trkpt lat="40.4343243" lon="15.4643198"><ele>651.3333333333334</ele><time>2026-05-02T17:00:20.887Z</time></trkpt><trkpt lat="40.4343764" lon="15.4644003"><ele>651.1666666666666</ele><time>2026-05-02T17:00:21.887Z</time></trkpt><trkpt lat="40.4344349" lon="15.4645026"><ele>651.0</ele><time>2026-05-02T17:00:22.887Z</time></trkpt><trkpt lat="40.4344913" lon="15.4646165"><ele>651.5999999999999</ele><time>2026-05-02T17:00:23.887Z</time></trkpt><trkpt lat="40.4345422" lon="15.4647237"><ele>652.2</ele><time>2026-05-02T17:00:24.887Z</time></trkpt><trkpt lat="40.4345884" lon="15.4648346"><ele>652.8</ele><time>2026-05-02T17:00:25.887Z</time></trkpt><trkpt lat="40.4346272" lon="15.4649076"><ele>653.4000000000001</ele><time>2026-05-02T17:00:26.887Z</time></trkpt><trkpt lat="40.4346883" lon="15.4650352"><ele>654.0</ele><time>2026-05-02T17:00:28.887Z</time></trkpt><trkpt lat="40.4347425" lon="15.4651832"><ele>654.0</ele><time>2026-05-02T17:00:30.886Z</time></trkpt><trkpt lat="40.4347783" lon="15.4652743"><ele>654.0</ele><time>2026-05-02T17:00:31.887Z</time></trkpt><trkpt lat="40.434818" lon="15.4653781"><ele>654.0</ele><time>2026-05-02T17:00:32.886Z</time></trkpt><trkpt lat="40.434845" lon="15.4654766"><ele>654.0</ele><time>2026-05-02T17:00:33.887Z</time></trkpt><trkpt lat="40.4348623" lon="15.4655644"><ele>654.0</ele><time>2026-05-02T17:00:34.887Z</time></trkpt><trkpt lat="40.4348862" lon="15.4656507"><ele>654.0</ele><time>2026-05-02T17:00:35.886Z</time></trkpt><trkpt lat="40.4349067" lon="15.4657358"><ele>652.5</ele><time>2026-05-02T17:00:36.887Z</time></trkpt><trkpt lat="40.4349259" lon="15.4658198"><ele>651.0</ele><time>2026-05-02T17:00:37.887Z</time></trkpt><trkpt lat="40.4349243" lon="15.4659093"><ele>649.5</ele><time>2026-05-02T17:00:38.887Z</time></trkpt><trkpt lat="40.434906" lon="15.4659953"><ele>648.0</ele><time>2026-05-02T17:00:39.886Z</time></trkpt><trkpt lat="40.4348846" lon="15.4660962"><ele>646.5</ele><time>2026-05-02T17:00:40.887Z</time></trkpt><trkpt lat="40.4348661" lon="15.4662188"><ele>645.0</ele><time>2026-05-02T17:00:41.887Z</time></trkpt><trkpt lat="40.434868" lon="15.4663595"><ele>644.25</ele><time>2026-05-02T17:00:42.886Z</time></trkpt><trkpt lat="40.4348888" lon="15.4665143"><ele>643.5</ele><time>2026-05-02T17:00:43.887Z</time></trkpt><trkpt lat="40.4349304" lon="15.4666755"><ele>642.75</ele><time>2026-05-02T17:00:44.887Z</time></trkpt><trkpt lat="40.4349562" lon="15.4668445"><ele>642.0</ele><time>2026-05-02T17:00:45.887Z</time></trkpt><trkpt lat="40.4349914" lon="15.467008"><ele>640.0</ele><time>2026-05-02T17:00:46.886Z</time></trkpt><trkpt lat="40.4350298" lon="15.4671726"><ele>638.0</ele><time>2026-05-02T17:00:47.887Z</time></trkpt><trkpt lat="40.435062" lon="15.4673497"><ele>636.0</ele><time>2026-05-02T17:00:48.887Z</time></trkpt><trkpt lat="40.4350948" lon="15.4675414"><ele>634.0</ele><time>2026-05-02T17:00:49.886Z</time></trkpt><trkpt lat="40.4351311" lon="15.4677299"><ele>634.0</ele><time>2026-05-02T17:00:50.887Z</time></trkpt><trkpt lat="40.4351608" lon="15.4679085"><ele>634.0</ele><time>2026-05-02T17:00:51.886Z</time></trkpt><trkpt lat="40.4351932" lon="15.4680625"><ele>634.0</ele><time>2026-05-02T17:00:52.887Z</time></trkpt><trkpt lat="40.4352264" lon="15.4682071"><ele>634.0</ele><time>2026-05-02T17:00:53.887Z</time></trkpt><trkpt lat="40.4352781" lon="15.4683398"><ele>634.5</ele><time>2026-05-02T17:00:54.887Z</time></trkpt><trkpt lat="40.4353465" lon="15.4684663"><ele>635.0</ele><time>2026-05-02T17:00:55.887Z</time></trkpt><trkpt lat="40.4354426" lon="15.4685748"><ele>635.5</ele><time>2026-05-02T17:00:56.887Z</time></trkpt><trkpt lat="40.4355487" lon="15.4686815"><ele>636.0</ele><time>2026-05-02T17:00:57.887Z</time></trkpt><trkpt lat="40.4356607" lon="15.4687848"><ele>633.0</ele><time>2026-05-02T17:00:58.887Z</time></trkpt><trkpt lat="40.4357834" lon="15.4688871"><ele>630.0</ele><time>2026-05-02T17:00:59.886Z</time></trkpt><trkpt lat="40.4359116" lon="15.4690029"><ele>627.0</ele><time>2026-05-02T17:01:00.887Z</time></trkpt><trkpt lat="40.4360379" lon="15.4691188"><ele>627.0</ele><time>2026-05-02T17:01:01.887Z</time></trkpt><trkpt lat="40.4361648" lon="15.4692384"><ele>627.0</ele><time>2026-05-02T17:01:02.887Z</time></trkpt><trkpt lat="40.4362916" lon="15.4693675"><ele>627.0</ele><time>2026-05-02T17:01:03.887Z</time></trkpt><trkpt lat="40.4364034" lon="15.469515"><ele>626.6666666666666</ele><time>2026-05-02T17:01:04.887Z</time></trkpt><trkpt lat="40.4365007" lon="15.469677"><ele>626.3333333333333</ele><time>2026-05-02T17:01:05.887Z</time></trkpt><trkpt lat="40.4365946" lon="15.4698485"><ele>626.0</ele><time>2026-05-02T17:01:06.887Z</time></trkpt><trkpt lat="40.4366893" lon="15.4700303"><ele>626.0</ele><time>2026-05-02T17:01:07.886Z</time></trkpt><trkpt lat="40.4367884" lon="15.470228"><ele>626.0</ele><time>2026-05-02T17:01:08.887Z</time></trkpt><trkpt lat="40.436888" lon="15.4704335"><ele>626.0</ele><time>2026-05-02T17:01:09.887Z</time></trkpt><trkpt lat="40.4369931" lon="15.4706458"><ele>626.6666666666666</ele><time>2026-05-02T17:01:10.887Z</time></trkpt><trkpt lat="40.4370877" lon="15.4708719"><ele>627.3333333333334</ele><time>2026-05-02T17:01:11.887Z</time></trkpt><trkpt lat="40.4371771" lon="15.471096"><ele>628.0</ele><time>2026-05-02T17:01:12.887Z</time></trkpt><trkpt lat="40.4372607" lon="15.471301"><ele>625.0</ele><time>2026-05-02T17:01:13.887Z</time></trkpt><trkpt lat="40.4373486" lon="15.4714855"><ele>622.0</ele><time>2026-05-02T17:01:14.886Z</time></trkpt><trkpt lat="40.4374316" lon="15.4716538"><ele>619.0</ele><time>2026-05-02T17:01:15.886Z</time></trkpt><trkpt lat="40.437513" lon="15.4718145"><ele>619.0</ele><time>2026-05-02T17:01:16.887Z</time></trkpt><trkpt lat="40.4376044" lon="15.4719749"><ele>619.0</ele><time>2026-05-02T17:01:17.887Z</time></trkpt><trkpt lat="40.4377013" lon="15.4721228"><ele>619.0</ele><time>2026-05-02T17:01:18.887Z</time></trkpt><trkpt lat="40.4377948" lon="15.4722682"><ele>619.0</ele><time>2026-05-02T17:01:19.887Z</time></trkpt><trkpt lat="40.4378561" lon="15.4724304"><ele>618.5</ele><time>2026-05-02T17:01:20.886Z</time></trkpt><trkpt lat="40.4378769" lon="15.4725918"><ele>618.0</ele><time>2026-05-02T17:01:21.887Z</time></trkpt><trkpt lat="40.4378577" lon="15.4727667"><ele>617.5</ele><time>2026-05-02T17:01:22.887Z</time></trkpt><trkpt lat="40.4378054" lon="15.4729471"><ele>617.0</ele><time>2026-05-02T17:01:23.887Z</time></trkpt><trkpt lat="40.4377481" lon="15.4731229"><ele>617.0</ele><time>2026-05-02T17:01:24.887Z</time></trkpt><trkpt lat="40.437676" lon="15.473271"><ele>617.0</ele><time>2026-05-02T17:01:25.887Z</time></trkpt><trkpt lat="40.4375908" lon="15.473404"><ele>617.0</ele><time>2026-05-02T17:01:26.887Z</time></trkpt><trkpt lat="40.4374996" lon="15.4734952"><ele>617.0</ele><time>2026-05-02T17:01:27.887Z</time></trkpt><trkpt lat="40.4374038" lon="15.4735417"><ele>617.0</ele><time>2026-05-02T17:01:28.887Z</time></trkpt><trkpt lat="40.4372935" lon="15.4735514"><ele>617.0</ele><time>2026-05-02T17:01:29.887Z</time></trkpt><trkpt lat="40.4371774" lon="15.4735278"><ele>617.0</ele><time>2026-05-02T17:01:30.887Z</time></trkpt><trkpt lat="40.4370528" lon="15.4735115"><ele>617.0</ele><time>2026-05-02T17:01:31.887Z</time></trkpt><trkpt lat="40.4369274" lon="15.4734991"><ele>615.75</ele><time>2026-05-02T17:01:32.887Z</time></trkpt><trkpt lat="40.4368052" lon="15.4734952"><ele>614.5</ele><time>2026-05-02T17:01:33.887Z</time></trkpt><trkpt lat="40.4366872" lon="15.4734936"><ele>613.25</ele><time>2026-05-02T17:01:34.887Z</time></trkpt><trkpt lat="40.4365749" lon="15.4735097"><ele>612.0</ele><time>2026-05-02T17:01:35.887Z</time></trkpt><trkpt lat="40.4364606" lon="15.4735547"><ele>612.0</ele><time>2026-05-02T17:01:36.886Z</time></trkpt><trkpt lat="40.4363485" lon="15.4736129"><ele>612.0</ele><time>2026-05-02T17:01:37.886Z</time></trkpt><trkpt lat="40.4362434" lon="15.4737091"><ele>612.0</ele><time>2026-05-02T17:01:38.886Z</time></trkpt><trkpt lat="40.4361356" lon="15.4738078"><ele>612.0</ele><time>2026-05-02T17:01:39.886Z</time></trkpt><trkpt lat="40.4360226" lon="15.4739213"><ele>612.75</ele><time>2026-05-02T17:01:40.887Z</time></trkpt><trkpt lat="40.4359149" lon="15.4740451"><ele>613.5</ele><time>2026-05-02T17:01:41.887Z</time></trkpt><trkpt lat="40.43581" lon="15.4741677"><ele>614.25</ele><time>2026-05-02T17:01:42.886Z</time></trkpt><trkpt lat="40.435702" lon="15.4742891"><ele>615.0</ele><time>2026-05-02T17:01:43.886Z</time></trkpt><trkpt lat="40.4355813" lon="15.4743765"><ele>613.5</ele><time>2026-05-02T17:01:44.886Z</time></trkpt><trkpt lat="40.4354552" lon="15.4744227"><ele>612.0</ele><time>2026-05-02T17:01:45.887Z</time></trkpt><trkpt lat="40.4353213" lon="15.4744363"><ele>610.5</ele><time>2026-05-02T17:01:46.887Z</time></trkpt><trkpt lat="40.4352085" lon="15.474444"><ele>609.0</ele><time>2026-05-02T17:01:47.887Z</time></trkpt><trkpt lat="40.435103" lon="15.4744694"><ele>609.0</ele><time>2026-05-02T17:01:48.887Z</time></trkpt><trkpt lat="40.4350076" lon="15.4745211"><ele>609.0</ele><time>2026-05-02T17:01:49.887Z</time></trkpt><trkpt lat="40.4349327" lon="15.4746054"><ele>609.0</ele><time>2026-05-02T17:01:50.887Z</time></trkpt><trkpt lat="40.4348812" lon="15.4747136"><ele>609.0</ele><time>2026-05-02T17:01:51.887Z</time></trkpt><trkpt lat="40.4348485" lon="15.4748513"><ele>609.0</ele><time>2026-05-02T17:01:52.887Z</time></trkpt><trkpt lat="40.4348401" lon="15.4750177"><ele>609.75</ele><time>2026-05-02T17:01:53.887Z</time></trkpt><trkpt lat="40.4348333" lon="15.4751966"><ele>610.5</ele><time>2026-05-02T17:01:54.887Z</time></trkpt><trkpt lat="40.434817" lon="15.4753898"><ele>611.25</ele><time>2026-05-02T17:01:55.886Z</time></trkpt><trkpt lat="40.4347942" lon="15.4755902"><ele>612.0</ele><time>2026-05-02T17:01:56.887Z</time></trkpt><trkpt lat="40.4347635" lon="15.475783"><ele>613.6666666666666</ele><time>2026-05-02T17:01:57.887Z</time></trkpt><trkpt lat="40.4347182" lon="15.4759771"><ele>615.3333333333333</ele><time>2026-05-02T17:01:58.887Z</time></trkpt><trkpt lat="40.4346542" lon="15.4761673"><ele>617.0</ele><time>2026-05-02T17:01:59.887Z</time></trkpt><trkpt lat="40.43458" lon="15.4763472"><ele>614.5</ele><time>2026-05-02T17:02:00.887Z</time></trkpt><trkpt lat="40.43449" lon="15.4765065"><ele>612.0</ele><time>2026-05-02T17:02:01.887Z</time></trkpt><trkpt lat="40.4343865" lon="15.4766384"><ele>609.5</ele><time>2026-05-02T17:02:02.887Z</time></trkpt><trkpt lat="40.4342795" lon="15.4767568"><ele>607.0</ele><time>2026-05-02T17:02:03.887Z</time></trkpt><trkpt lat="40.4341755" lon="15.4768745"><ele>607.0</ele><time>2026-05-02T17:02:04.886Z</time></trkpt><trkpt lat="40.434066" lon="15.4769906"><ele>607.0</ele><time>2026-05-02T17:02:05.886Z</time></trkpt><trkpt lat="40.4339585" lon="15.4770992"><ele>607.0</ele><time>2026-05-02T17:02:06.887Z</time></trkpt><trkpt lat="40.4338661" lon="15.4772126"><ele>607.0</ele><time>2026-05-02T17:02:07.886Z</time></trkpt><trkpt lat="40.4338009" lon="15.4773226"><ele>607.2</ele><time>2026-05-02T17:02:08.886Z</time></trkpt><trkpt lat="40.4337718" lon="15.4774518"><ele>607.4000000000001</ele><time>2026-05-02T17:02:09.887Z</time></trkpt><trkpt lat="40.4337692" lon="15.4775929"><ele>607.5999999999999</ele><time>2026-05-02T17:02:10.887Z</time></trkpt><trkpt lat="40.4337945" lon="15.4777217"><ele>607.8</ele><time>2026-05-02T17:02:11.887Z</time></trkpt><trkpt lat="40.4338392" lon="15.4778678"><ele>608.0</ele><time>2026-05-02T17:02:12.886Z</time></trkpt><trkpt lat="40.4338973" lon="15.4780279"><ele>608.0</ele><time>2026-05-02T17:02:13.886Z</time></trkpt><trkpt lat="40.4339612" lon="15.4781973"><ele>608.0</ele><time>2026-05-02T17:02:14.886Z</time></trkpt><trkpt lat="40.434031" lon="15.4783835"><ele>608.0</ele><time>2026-05-02T17:02:15.887Z</time></trkpt><trkpt lat="40.434099" lon="15.4785754"><ele>605.6666666666666</ele><time>2026-05-02T17:02:16.887Z</time></trkpt><trkpt lat="40.4341639" lon="15.4787724"><ele>603.3333333333334</ele><time>2026-05-02T17:02:17.887Z</time></trkpt><trkpt lat="40.4342226" lon="15.478974"><ele>601.0</ele><time>2026-05-02T17:02:18.886Z</time></trkpt><trkpt lat="40.4342665" lon="15.4791674"><ele>601.0</ele><time>2026-05-02T17:02:19.887Z</time></trkpt><trkpt lat="40.4342977" lon="15.479353"><ele>601.0</ele><time>2026-05-02T17:02:20.887Z</time></trkpt><trkpt lat="40.4343088" lon="15.479537"><ele>601.0</ele><time>2026-05-02T17:02:21.887Z</time></trkpt><trkpt lat="40.4343003" lon="15.4797022"><ele>601.0</ele><time>2026-05-02T17:02:22.887Z</time></trkpt><trkpt lat="40.4342688" lon="15.4798642"><ele>600.75</ele><time>2026-05-02T17:02:23.887Z</time></trkpt><trkpt lat="40.4342271" lon="15.4800165"><ele>600.5</ele><time>2026-05-02T17:02:24.887Z</time></trkpt><trkpt lat="40.4341828" lon="15.4801657"><ele>600.25</ele><time>2026-05-02T17:02:25.887Z</time></trkpt><trkpt lat="40.4341372" lon="15.4803076"><ele>600.0</ele><time>2026-05-02T17:02:26.887Z</time></trkpt><trkpt lat="40.4341023" lon="15.4804396"><ele>600.0</ele><time>2026-05-02T17:02:27.887Z</time></trkpt><trkpt lat="40.4340794" lon="15.4805812"><ele>600.0</ele><time>2026-05-02T17:02:28.887Z</time></trkpt><trkpt lat="40.4340818" lon="15.4807295"><ele>600.0</ele><time>2026-05-02T17:02:29.887Z</time></trkpt><trkpt lat="40.434101" lon="15.4808839"><ele>600.0</ele><time>2026-05-02T17:02:30.886Z</time></trkpt><trkpt lat="40.4341312" lon="15.4810426"><ele>600.0</ele><time>2026-05-02T17:02:31.887Z</time></trkpt><trkpt lat="40.4341676" lon="15.4812048"><ele>600.0</ele><time>2026-05-02T17:02:32.886Z</time></trkpt><trkpt lat="40.4341973" lon="15.4813696"><ele>600.0</ele><time>2026-05-02T17:02:33.886Z</time></trkpt><trkpt lat="40.4342203" lon="15.481535"><ele>600.0</ele><time>2026-05-02T17:02:34.887Z</time></trkpt><trkpt lat="40.4342229" lon="15.4817035"><ele>599.6</ele><time>2026-05-02T17:02:35.887Z</time></trkpt><trkpt lat="40.4341974" lon="15.4818519"><ele>599.2</ele><time>2026-05-02T17:02:36.886Z</time></trkpt><trkpt lat="40.4341541" lon="15.4819803"><ele>598.8</ele><time>2026-05-02T17:02:37.887Z</time></trkpt><trkpt lat="40.4341104" lon="15.4820906"><ele>598.4</ele><time>2026-05-02T17:02:38.886Z</time></trkpt><trkpt lat="40.4340869" lon="15.4822071"><ele>598.0</ele><time>2026-05-02T17:02:39.887Z</time></trkpt><trkpt lat="40.4340833" lon="15.4823281"><ele>597.4</ele><time>2026-05-02T17:02:40.887Z</time></trkpt><trkpt lat="40.4341046" lon="15.4824505"><ele>596.8</ele><time>2026-05-02T17:02:41.886Z</time></trkpt><trkpt lat="40.4341462" lon="15.4825693"><ele>596.2</ele><time>2026-05-02T17:02:42.887Z</time></trkpt><trkpt lat="40.4342044" lon="15.4826918"><ele>595.6</ele><time>2026-05-02T17:02:43.886Z</time></trkpt><trkpt lat="40.4342747" lon="15.4828021"><ele>595.0</ele><time>2026-05-02T17:02:44.887Z</time></trkpt><trkpt lat="40.4343562" lon="15.4828842"><ele>595.0</ele><time>2026-05-02T17:02:45.887Z</time></trkpt><trkpt lat="40.4344482" lon="15.4829288"><ele>595.0</ele><time>2026-05-02T17:02:46.886Z</time></trkpt><trkpt lat="40.4345445" lon="15.4829371"><ele>595.0</ele><time>2026-05-02T17:02:47.887Z</time></trkpt><trkpt lat="40.4346599" lon="15.4829319"><ele>595.0</ele><time>2026-05-02T17:02:48.887Z</time></trkpt><trkpt lat="40.434793" lon="15.4829238"><ele>595.0</ele><time>2026-05-02T17:02:49.887Z</time></trkpt><trkpt lat="40.4349356" lon="15.4829238"><ele>597.3333333333334</ele><time>2026-05-02T17:02:50.886Z</time></trkpt><trkpt lat="40.4350902" lon="15.4829301"><ele>599.6666666666666</ele><time>2026-05-02T17:02:51.887Z</time></trkpt><trkpt lat="40.4352646" lon="15.4829526"><ele>602.0</ele><time>2026-05-02T17:02:52.887Z</time></trkpt><trkpt lat="40.4354574" lon="15.482983"><ele>596.6666666666666</ele><time>2026-05-02T17:02:53.887Z</time></trkpt><trkpt lat="40.4356553" lon="15.4830197"><ele>591.3333333333334</ele><time>2026-05-02T17:02:54.887Z</time></trkpt><trkpt lat="40.4358546" lon="15.4830713"><ele>586.0</ele><time>2026-05-02T17:02:55.887Z</time></trkpt><trkpt lat="40.4360444" lon="15.4831392"><ele>586.0</ele><time>2026-05-02T17:02:56.887Z</time></trkpt><trkpt lat="40.4362215" lon="15.4832049"><ele>586.0</ele><time>2026-05-02T17:02:57.887Z</time></trkpt><trkpt lat="40.4363737" lon="15.4832646"><ele>586.0</ele><time>2026-05-02T17:02:58.887Z</time></trkpt><trkpt lat="40.4365148" lon="15.4833139"><ele>584.75</ele><time>2026-05-02T17:02:59.886Z</time></trkpt><trkpt lat="40.4366383" lon="15.4833568"><ele>583.5</ele><time>2026-05-02T17:03:00.886Z</time></trkpt><trkpt lat="40.4367636" lon="15.483374"><ele>582.25</ele><time>2026-05-02T17:03:01.887Z</time></trkpt><trkpt lat="40.4368821" lon="15.4833565"><ele>581.0</ele><time>2026-05-02T17:03:02.886Z</time></trkpt><trkpt lat="40.4369957" lon="15.4832959"><ele>581.0</ele><time>2026-05-02T17:03:03.887Z</time></trkpt><trkpt lat="40.4371013" lon="15.4832235"><ele>581.0</ele><time>2026-05-02T17:03:04.887Z</time></trkpt><trkpt lat="40.4372191" lon="15.4831625"><ele>581.0</ele><time>2026-05-02T17:03:05.887Z</time></trkpt><trkpt lat="40.4373345" lon="15.4831466"><ele>581.0</ele><time>2026-05-02T17:03:06.887Z</time></trkpt><trkpt lat="40.4374487" lon="15.4831659"><ele>580.0</ele><time>2026-05-02T17:03:07.887Z</time></trkpt><trkpt lat="40.4375662" lon="15.483224"><ele>579.0</ele><time>2026-05-02T17:03:08.886Z</time></trkpt><trkpt lat="40.437671" lon="15.4833254"><ele>578.0</ele><time>2026-05-02T17:03:09.887Z</time></trkpt><trkpt lat="40.437766" lon="15.4834521"><ele>577.0</ele><time>2026-05-02T17:03:10.887Z</time></trkpt><trkpt lat="40.4378295" lon="15.4835883"><ele>577.0</ele><time>2026-05-02T17:03:11.886Z</time></trkpt><trkpt lat="40.4378827" lon="15.4837248"><ele>577.0</ele><time>2026-05-02T17:03:12.887Z</time></trkpt><trkpt lat="40.4379407" lon="15.4838484"><ele>577.0</ele><time>2026-05-02T17:03:13.886Z</time></trkpt><trkpt lat="40.438029" lon="15.4839488"><ele>577.0</ele><time>2026-05-02T17:03:14.887Z</time></trkpt><trkpt lat="40.4381337" lon="15.4840183"><ele>576.2</ele><time>2026-05-02T17:03:15.887Z</time></trkpt><trkpt lat="40.4382395" lon="15.4840648"><ele>575.4000000000001</ele><time>2026-05-02T17:03:16.887Z</time></trkpt><trkpt lat="40.4383559" lon="15.4840913"><ele>574.5999999999999</ele><time>2026-05-02T17:03:17.887Z</time></trkpt><trkpt lat="40.4384586" lon="15.4841312"><ele>573.8</ele><time>2026-05-02T17:03:18.887Z</time></trkpt><trkpt lat="40.4385355" lon="15.4841917"><ele>573.0</ele><time>2026-05-02T17:03:19.887Z</time></trkpt><trkpt lat="40.4385896" lon="15.484282"><ele>573.0</ele><time>2026-05-02T17:03:20.887Z</time></trkpt><trkpt lat="40.4386252" lon="15.4843924"><ele>573.0</ele><time>2026-05-02T17:03:21.887Z</time></trkpt><trkpt lat="40.4386343" lon="15.4845219"><ele>573.0</ele><time>2026-05-02T17:03:22.887Z</time></trkpt><trkpt lat="40.4386213" lon="15.4846542"><ele>573.0</ele><time>2026-05-02T17:03:23.887Z</time></trkpt><trkpt lat="40.4385861" lon="15.4848057"><ele>573.0</ele><time>2026-05-02T17:03:24.887Z</time></trkpt><trkpt lat="40.4385496" lon="15.484951"><ele>570.75</ele><time>2026-05-02T17:03:25.887Z</time></trkpt><trkpt lat="40.4385344" lon="15.4851031"><ele>568.5</ele><time>2026-05-02T17:03:26.887Z</time></trkpt><trkpt lat="40.4385536" lon="15.4852511"><ele>566.25</ele><time>2026-05-02T17:03:27.887Z</time></trkpt><trkpt lat="40.4386017" lon="15.4853849"><ele>564.0</ele><time>2026-05-02T17:03:28.887Z</time></trkpt><trkpt lat="40.4386733" lon="15.4855088"><ele>563.5</ele><time>2026-05-02T17:03:29.887Z</time></trkpt><trkpt lat="40.4387621" lon="15.4856256"><ele>563.0</ele><time>2026-05-02T17:03:30.887Z</time></trkpt><trkpt lat="40.4388571" lon="15.4857446"><ele>562.5</ele><time>2026-05-02T17:03:31.886Z</time></trkpt><trkpt lat="40.438946" lon="15.4858761"><ele>562.0</ele><time>2026-05-02T17:03:32.887Z</time></trkpt><trkpt lat="40.4390177" lon="15.4860221"><ele>562.25</ele><time>2026-05-02T17:03:33.887Z</time></trkpt><trkpt lat="40.4390626" lon="15.4861819"><ele>562.5</ele><time>2026-05-02T17:03:34.887Z</time></trkpt><trkpt lat="40.4390877" lon="15.4863433"><ele>562.75</ele><time>2026-05-02T17:03:35.887Z</time></trkpt><trkpt lat="40.4390934" lon="15.4865028"><ele>563.0</ele><time>2026-05-02T17:03:36.887Z</time></trkpt><trkpt lat="40.4390832" lon="15.4866669"><ele>563.0</ele><time>2026-05-02T17:03:37.887Z</time></trkpt><trkpt lat="40.4390619" lon="15.4868261"><ele>563.0</ele><time>2026-05-02T17:03:38.887Z</time></trkpt><trkpt lat="40.4390286" lon="15.4869718"><ele>563.0</ele><time>2026-05-02T17:03:39.887Z</time></trkpt><trkpt lat="40.4389971" lon="15.4871108"><ele>563.0</ele><time>2026-05-02T17:03:40.886Z</time></trkpt><trkpt lat="40.4389757" lon="15.4872557"><ele>562.4</ele><time>2026-05-02T17:03:41.886Z</time></trkpt><trkpt lat="40.4389691" lon="15.4874031"><ele>561.8</ele><time>2026-05-02T17:03:42.887Z</time></trkpt><trkpt lat="40.4389879" lon="15.4875363"><ele>561.2</ele><time>2026-05-02T17:03:43.886Z</time></trkpt><trkpt lat="40.4390282" lon="15.4876433"><ele>560.6</ele><time>2026-05-02T17:03:44.887Z</time></trkpt><trkpt lat="40.4391024" lon="15.4877308"><ele>560.0</ele><time>2026-05-02T17:03:45.887Z</time></trkpt><trkpt lat="40.4392032" lon="15.4877879"><ele>560.0</ele><time>2026-05-02T17:03:46.887Z</time></trkpt><trkpt lat="40.4393107" lon="15.4878196"><ele>560.0</ele><time>2026-05-02T17:03:47.887Z</time></trkpt><trkpt lat="40.4394144" lon="15.4878264"><ele>560.0</ele><time>2026-05-02T17:03:48.887Z</time></trkpt><trkpt lat="40.439512" lon="15.4877925"><ele>560.0</ele><time>2026-05-02T17:03:49.887Z</time></trkpt><trkpt lat="40.4395974" lon="15.487724"><ele>560.0</ele><time>2026-05-02T17:03:50.887Z</time></trkpt><trkpt lat="40.4396601" lon="15.4876299"><ele>559.75</ele><time>2026-05-02T17:03:51.886Z</time></trkpt><trkpt lat="40.4397001" lon="15.4875047"><ele>559.5</ele><time>2026-05-02T17:03:52.887Z</time></trkpt><trkpt lat="40.4397256" lon="15.4873592"><ele>559.25</ele><time>2026-05-02T17:03:53.887Z</time></trkpt><trkpt lat="40.4397501" lon="15.4872012"><ele>559.0</ele><time>2026-05-02T17:03:54.887Z</time></trkpt><trkpt lat="40.439801" lon="15.4870381"><ele>559.0</ele><time>2026-05-02T17:03:55.886Z</time></trkpt><trkpt lat="40.4398807" lon="15.4868997"><ele>559.0</ele><time>2026-05-02T17:03:56.887Z</time></trkpt><trkpt lat="40.4399838" lon="15.4867737"><ele>559.0</ele><time>2026-05-02T17:03:57.887Z</time></trkpt><trkpt lat="40.4400934" lon="15.486664"><ele>559.0</ele><time>2026-05-02T17:03:58.887Z</time></trkpt><trkpt lat="40.4402062" lon="15.4865922"><ele>559.0</ele><time>2026-05-02T17:03:59.887Z</time></trkpt><trkpt lat="40.4403232" lon="15.486546"><ele>559.0</ele><time>2026-05-02T17:04:00.887Z</time></trkpt><trkpt lat="40.4404413" lon="15.4865191"><ele>559.0</ele><time>2026-05-02T17:04:01.887Z</time></trkpt><trkpt lat="40.4405576" lon="15.4865198"><ele>559.0</ele><time>2026-05-02T17:04:02.887Z</time></trkpt><trkpt lat="40.4406665" lon="15.486551"><ele>558.0</ele><time>2026-05-02T17:04:03.886Z</time></trkpt><trkpt lat="40.440767" lon="15.4866015"><ele>557.0</ele><time>2026-05-02T17:04:04.887Z</time></trkpt><trkpt lat="40.4408553" lon="15.4866563"><ele>556.0</ele><time>2026-05-02T17:04:05.887Z</time></trkpt><trkpt lat="40.44092" lon="15.4867109"><ele>555.0</ele><time>2026-05-02T17:04:06.887Z</time></trkpt><trkpt lat="40.4409738" lon="15.4867674"><ele>554.0</ele><time>2026-05-02T17:04:07.887Z</time></trkpt><trkpt lat="40.4410131" lon="15.486833"><ele>553.0</ele><time>2026-05-02T17:04:08.886Z</time></trkpt><trkpt lat="40.4410352" lon="15.4869203"><ele>553.0</ele><time>2026-05-02T17:04:09.886Z</time></trkpt><trkpt lat="40.4410438" lon="15.4870385"><ele>553.0</ele><time>2026-05-02T17:04:10.887Z</time></trkpt><trkpt lat="40.441051" lon="15.4871746"><ele>553.0</ele><time>2026-05-02T17:04:11.887Z</time></trkpt><trkpt lat="40.4410838" lon="15.487309"><ele>553.0</ele><time>2026-05-02T17:04:12.887Z</time></trkpt><trkpt lat="40.4411372" lon="15.4874348"><ele>553.0</ele><time>2026-05-02T17:04:13.887Z</time></trkpt><trkpt lat="40.4412011" lon="15.4875682"><ele>554.25</ele><time>2026-05-02T17:04:14.887Z</time></trkpt><trkpt lat="40.4412717" lon="15.48772"><ele>555.5</ele><time>2026-05-02T17:04:15.886Z</time></trkpt><trkpt lat="40.4413469" lon="15.4878776"><ele>556.75</ele><time>2026-05-02T17:04:16.886Z</time></trkpt><trkpt lat="40.4414241" lon="15.488037"><ele>558.0</ele><time>2026-05-02T17:04:17.887Z</time></trkpt><trkpt lat="40.4414746" lon="15.4882017"><ele>558.0</ele><time>2026-05-02T17:04:18.887Z</time></trkpt><trkpt lat="40.4414881" lon="15.488356"><ele>558.0</ele><time>2026-05-02T17:04:19.887Z</time></trkpt><trkpt lat="40.4414559" lon="15.4885134"><ele>558.0</ele><time>2026-05-02T17:04:20.887Z</time></trkpt><trkpt lat="40.4413906" lon="15.4886793"><ele>558.0</ele><time>2026-05-02T17:04:21.887Z</time></trkpt><trkpt lat="40.4413194" lon="15.4888538"><ele>554.25</ele><time>2026-05-02T17:04:22.887Z</time></trkpt><trkpt lat="40.4412444" lon="15.4890265"><ele>550.5</ele><time>2026-05-02T17:04:23.887Z</time></trkpt><trkpt lat="40.4411755" lon="15.4891841"><ele>546.75</ele><time>2026-05-02T17:04:24.886Z</time></trkpt><trkpt lat="40.4411019" lon="15.48933"><ele>543.0</ele><time>2026-05-02T17:04:25.887Z</time></trkpt><trkpt lat="40.4410298" lon="15.4894652"><ele>543.0</ele><time>2026-05-02T17:04:26.887Z</time></trkpt><trkpt lat="40.4409386" lon="15.4895761"><ele>543.0</ele><time>2026-05-02T17:04:27.887Z</time></trkpt><trkpt lat="40.440822" lon="15.4896517"><ele>543.0</ele><time>2026-05-02T17:04:28.886Z</time></trkpt><trkpt lat="40.4406939" lon="15.4896984"><ele>543.0</ele><time>2026-05-02T17:04:29.887Z</time></trkpt><trkpt lat="40.4405622" lon="15.4897443"><ele>541.0</ele><time>2026-05-02T17:04:30.887Z</time></trkpt><trkpt lat="40.4404396" lon="15.4897873"><ele>539.0</ele><time>2026-05-02T17:04:31.887Z</time></trkpt><trkpt lat="40.4403253" lon="15.4898346"><ele>537.0</ele><time>2026-05-02T17:04:32.886Z</time></trkpt><trkpt lat="40.4402225" lon="15.4898748"><ele>535.0</ele><time>2026-05-02T17:04:33.887Z</time></trkpt><trkpt lat="40.4401274" lon="15.489932"><ele>535.0</ele><time>2026-05-02T17:04:34.887Z</time></trkpt><trkpt lat="40.4400477" lon="15.4900237"><ele>535.0</ele><time>2026-05-02T17:04:35.887Z</time></trkpt><trkpt lat="40.4399794" lon="15.4901462"><ele>535.0</ele><time>2026-05-02T17:04:36.887Z</time></trkpt><trkpt lat="40.4399353" lon="15.4902924"><ele>535.0</ele><time>2026-05-02T17:04:37.886Z</time></trkpt><trkpt lat="40.4399132" lon="15.4904552"><ele>536.75</ele><time>2026-05-02T17:04:38.887Z</time></trkpt><trkpt lat="40.4399048" lon="15.4906363"><ele>538.5</ele><time>2026-05-02T17:04:39.887Z</time></trkpt><trkpt lat="40.4399038" lon="15.4908254"><ele>540.25</ele><time>2026-05-02T17:04:40.887Z</time></trkpt><trkpt lat="40.4399072" lon="15.4910223"><ele>542.0</ele><time>2026-05-02T17:04:41.887Z</time></trkpt><trkpt lat="40.4399192" lon="15.4912226"><ele>541.75</ele><time>2026-05-02T17:04:42.887Z</time></trkpt><trkpt lat="40.4399318" lon="15.4914241"><ele>541.5</ele><time>2026-05-02T17:04:43.887Z</time></trkpt><trkpt lat="40.4399435" lon="15.4916095"><ele>541.25</ele><time>2026-05-02T17:04:44.887Z</time></trkpt><trkpt lat="40.4399515" lon="15.4917902"><ele>541.0</ele><time>2026-05-02T17:04:45.886Z</time></trkpt><trkpt lat="40.4399365" lon="15.4919491"><ele>541.25</ele><time>2026-05-02T17:04:46.886Z</time></trkpt><trkpt lat="40.439908" lon="15.4920947"><ele>541.5</ele><time>2026-05-02T17:04:47.886Z</time></trkpt><trkpt lat="40.4398635" lon="15.4922408"><ele>541.75</ele><time>2026-05-02T17:04:48.887Z</time></trkpt><trkpt lat="40.4398253" lon="15.4924039"><ele>542.0</ele><time>2026-05-02T17:04:49.886Z</time></trkpt><trkpt lat="40.439812" lon="15.492577"><ele>542.0</ele><time>2026-05-02T17:04:50.886Z</time></trkpt><trkpt lat="40.4398339" lon="15.4927514"><ele>542.0</ele><time>2026-05-02T17:04:51.887Z</time></trkpt><trkpt lat="40.4398718" lon="15.4929144"><ele>542.0</ele><time>2026-05-02T17:04:52.887Z</time></trkpt><trkpt lat="40.4399074" lon="15.4930693"><ele>542.0</ele><time>2026-05-02T17:04:53.886Z</time></trkpt><trkpt lat="40.4399302" lon="15.4932202"><ele>541.8000000000001</ele><time>2026-05-02T17:04:54.887Z</time></trkpt><trkpt lat="40.4399228" lon="15.4933643"><ele>541.6</ele><time>2026-05-02T17:04:55.887Z</time></trkpt><trkpt lat="40.4398733" lon="15.4934808"><ele>541.4000000000001</ele><time>2026-05-02T17:04:56.887Z</time></trkpt><trkpt lat="40.4397909" lon="15.4935759"><ele>541.2</ele><time>2026-05-02T17:04:57.887Z</time></trkpt><trkpt lat="40.4396811" lon="15.4936354"><ele>541.0</ele><time>2026-05-02T17:04:58.887Z</time></trkpt><trkpt lat="40.4395589" lon="15.4936753"><ele>539.5</ele><time>2026-05-02T17:04:59.887Z</time></trkpt><trkpt lat="40.4394364" lon="15.4937146"><ele>538.0</ele><time>2026-05-02T17:05:00.887Z</time></trkpt><trkpt lat="40.4393107" lon="15.4937573"><ele>536.5</ele><time>2026-05-02T17:05:01.886Z</time></trkpt><trkpt lat="40.4391808" lon="15.4937988"><ele>535.0</ele><time>2026-05-02T17:05:02.887Z</time></trkpt><trkpt lat="40.439057" lon="15.4938375"><ele>535.0</ele><time>2026-05-02T17:05:03.886Z</time></trkpt><trkpt lat="40.4389385" lon="15.4938845"><ele>535.0</ele><time>2026-05-02T17:05:04.886Z</time></trkpt><trkpt lat="40.4388281" lon="15.4939527"><ele>535.0</ele><time>2026-05-02T17:05:05.886Z</time></trkpt><trkpt lat="40.4387358" lon="15.4940576"><ele>535.0</ele><time>2026-05-02T17:05:06.887Z</time></trkpt><trkpt lat="40.4386463" lon="15.4941965"><ele>534.5</ele><time>2026-05-02T17:05:07.886Z</time></trkpt><trkpt lat="40.4385585" lon="15.4943409"><ele>534.0</ele><time>2026-05-02T17:05:08.887Z</time></trkpt><trkpt lat="40.4384671" lon="15.4944765"><ele>533.5</ele><time>2026-05-02T17:05:09.886Z</time></trkpt><trkpt lat="40.4383695" lon="15.4945971"><ele>533.0</ele><time>2026-05-02T17:05:10.887Z</time></trkpt><trkpt lat="40.4382474" lon="15.4946968"><ele>533.0</ele><time>2026-05-02T17:05:11.886Z</time></trkpt><trkpt lat="40.4381123" lon="15.4947661"><ele>533.0</ele><time>2026-05-02T17:05:12.887Z</time></trkpt><trkpt lat="40.4379779" lon="15.4948033"><ele>533.0</ele><time>2026-05-02T17:05:13.887Z</time></trkpt><trkpt lat="40.4378446" lon="15.4948181"><ele>533.0</ele><time>2026-05-02T17:05:14.886Z</time></trkpt><trkpt lat="40.4377186" lon="15.4947925"><ele>531.6</ele><time>2026-05-02T17:05:15.887Z</time></trkpt><trkpt lat="40.4376154" lon="15.4947245"><ele>530.1999999999999</ele><time>2026-05-02T17:05:16.887Z</time></trkpt><trkpt lat="40.4375266" lon="15.4946295"><ele>528.8</ele><time>2026-05-02T17:05:17.887Z</time></trkpt><trkpt lat="40.4374489" lon="15.4945426"><ele>527.4</ele><time>2026-05-02T17:05:18.887Z</time></trkpt><trkpt lat="40.4373609" lon="15.4944736"><ele>526.0</ele><time>2026-05-02T17:05:19.887Z</time></trkpt><trkpt lat="40.4372624" lon="15.4944217"><ele>524.0</ele><time>2026-05-02T17:05:20.887Z</time></trkpt><trkpt lat="40.4371525" lon="15.4943994"><ele>522.0</ele><time>2026-05-02T17:05:21.887Z</time></trkpt><trkpt lat="40.437036" lon="15.4944164"><ele>520.0</ele><time>2026-05-02T17:05:22.887Z</time></trkpt><trkpt lat="40.4369184" lon="15.4944602"><ele>518.0</ele><time>2026-05-02T17:05:23.887Z</time></trkpt><trkpt lat="40.4368002" lon="15.4944998"><ele>518.5</ele><time>2026-05-02T17:05:24.887Z</time></trkpt><trkpt lat="40.4366752" lon="15.4945504"><ele>519.0</ele><time>2026-05-02T17:05:25.887Z</time></trkpt><trkpt lat="40.4365498" lon="15.4946247"><ele>519.5</ele><time>2026-05-02T17:05:26.886Z</time></trkpt><trkpt lat="40.4364311" lon="15.4947313"><ele>520.0</ele><time>2026-05-02T17:05:27.886Z</time></trkpt><trkpt lat="40.4363152" lon="15.4948541"><ele>518.25</ele><time>2026-05-02T17:05:28.887Z</time></trkpt><trkpt lat="40.4362023" lon="15.4949674"><ele>516.5</ele><time>2026-05-02T17:05:29.887Z</time></trkpt><trkpt lat="40.4360867" lon="15.4950879"><ele>514.75</ele><time>2026-05-02T17:05:30.887Z</time></trkpt><trkpt lat="40.4359715" lon="15.4952012"><ele>513.0</ele><time>2026-05-02T17:05:31.887Z</time></trkpt><trkpt lat="40.4358611" lon="15.4953098"><ele>513.25</ele><time>2026-05-02T17:05:32.887Z</time></trkpt><trkpt lat="40.4357549" lon="15.4954248"><ele>513.5</ele><time>2026-05-02T17:05:33.886Z</time></trkpt><trkpt lat="40.4356579" lon="15.4955397"><ele>513.75</ele><time>2026-05-02T17:05:34.887Z</time></trkpt><trkpt lat="40.4355712" lon="15.4956659"><ele>514.0</ele><time>2026-05-02T17:05:35.887Z</time></trkpt><trkpt lat="40.435499" lon="15.4957994"><ele>511.5</ele><time>2026-05-02T17:05:36.887Z</time></trkpt><trkpt lat="40.4354461" lon="15.4959337"><ele>509.0</ele><time>2026-05-02T17:05:37.886Z</time></trkpt><trkpt lat="40.4354157" lon="15.4960714"><ele>506.5</ele><time>2026-05-02T17:05:38.887Z</time></trkpt><trkpt lat="40.4354023" lon="15.4962198"><ele>504.0</ele><time>2026-05-02T17:05:39.886Z</time></trkpt><trkpt lat="40.4354076" lon="15.4963678"><ele>503.75</ele><time>2026-05-02T17:05:40.887Z</time></trkpt><trkpt lat="40.4354176" lon="15.4965257"><ele>503.5</ele><time>2026-05-02T17:05:41.887Z</time></trkpt><trkpt lat="40.4354388" lon="15.4966862"><ele>503.25</ele><time>2026-05-02T17:05:42.886Z</time></trkpt><trkpt lat="40.4354616" lon="15.4968368"><ele>503.0</ele><time>2026-05-02T17:05:43.887Z</time></trkpt><trkpt lat="40.4354874" lon="15.4969738"><ele>504.0</ele><time>2026-05-02T17:05:44.887Z</time></trkpt><trkpt lat="40.4355192" lon="15.4971055"><ele>505.0</ele><time>2026-05-02T17:05:45.887Z</time></trkpt><trkpt lat="40.4355693" lon="15.4972637"><ele>506.0</ele><time>2026-05-02T17:05:46.887Z</time></trkpt><trkpt lat="40.4356092" lon="15.4974762"><ele>507.0</ele><time>2026-05-02T17:05:47.887Z</time></trkpt><trkpt lat="40.4356508" lon="15.4977228"><ele>504.33333333333337</ele><time>2026-05-02T17:05:48.887Z</time></trkpt><trkpt lat="40.4357113" lon="15.4979561"><ele>501.6666666666667</ele><time>2026-05-02T17:05:49.887Z</time></trkpt><trkpt lat="40.4357909" lon="15.498157"><ele>499.0</ele><time>2026-05-02T17:05:50.887Z</time></trkpt><trkpt lat="40.4359021" lon="15.498325"><ele>499.0</ele><time>2026-05-02T17:05:51.886Z</time></trkpt><trkpt lat="40.4360214" lon="15.4984687"><ele>499.0</ele><time>2026-05-02T17:05:52.887Z</time></trkpt><trkpt lat="40.4361459" lon="15.4986073"><ele>499.0</ele><time>2026-05-02T17:05:53.887Z</time></trkpt><trkpt lat="40.4362741" lon="15.4987378"><ele>497.0</ele><time>2026-05-02T17:05:54.886Z</time></trkpt><trkpt lat="40.4363997" lon="15.4988749"><ele>495.0</ele><time>2026-05-02T17:05:55.887Z</time></trkpt><trkpt lat="40.4365251" lon="15.4990148"><ele>493.0</ele><time>2026-05-02T17:05:56.887Z</time></trkpt><trkpt lat="40.4366421" lon="15.4991558"><ele>493.0</ele><time>2026-05-02T17:05:57.886Z</time></trkpt><trkpt lat="40.4367558" lon="15.4992922"><ele>493.0</ele><time>2026-05-02T17:05:58.887Z</time></trkpt><trkpt lat="40.4368628" lon="15.4994202"><ele>493.0</ele><time>2026-05-02T17:05:59.887Z</time></trkpt><trkpt lat="40.4369641" lon="15.4995484"><ele>493.0</ele><time>2026-05-02T17:06:00.887Z</time></trkpt><trkpt lat="40.4370562" lon="15.4996965"><ele>492.25</ele><time>2026-05-02T17:06:01.887Z</time></trkpt><trkpt lat="40.4371429" lon="15.499844"><ele>491.5</ele><time>2026-05-02T17:06:02.886Z</time></trkpt><trkpt lat="40.4372225" lon="15.4999922"><ele>490.75</ele><time>2026-05-02T17:06:03.886Z</time></trkpt><trkpt lat="40.4372955" lon="15.5001386"><ele>490.0</ele><time>2026-05-02T17:06:04.887Z</time></trkpt><trkpt lat="40.4373642" lon="15.5002775"><ele>490.0</ele><time>2026-05-02T17:06:05.887Z</time></trkpt><trkpt lat="40.4374332" lon="15.5004152"><ele>490.0</ele><time>2026-05-02T17:06:06.887Z</time></trkpt><trkpt lat="40.4375003" lon="15.5005498"><ele>490.0</ele><time>2026-05-02T17:06:07.887Z</time></trkpt><trkpt lat="40.4375653" lon="15.5006815"><ele>490.0</ele><time>2026-05-02T17:06:08.887Z</time></trkpt><trkpt lat="40.4376277" lon="15.5008139"><ele>488.5</ele><time>2026-05-02T17:06:09.887Z</time></trkpt><trkpt lat="40.4376963" lon="15.5009524"><ele>487.0</ele><time>2026-05-02T17:06:10.887Z</time></trkpt><trkpt lat="40.4377618" lon="15.5010852"><ele>485.5</ele><time>2026-05-02T17:06:11.886Z</time></trkpt><trkpt lat="40.4378308" lon="15.5012086"><ele>484.0</ele><time>2026-05-02T17:06:12.887Z</time></trkpt><trkpt lat="40.4378971" lon="15.5013181"><ele>483.79999999999995</ele><time>2026-05-02T17:06:13.886Z</time></trkpt><trkpt lat="40.4379563" lon="15.5014272"><ele>483.59999999999997</ele><time>2026-05-02T17:06:14.887Z</time></trkpt><trkpt lat="40.4380122" lon="15.5015338"><ele>483.4</ele><time>2026-05-02T17:06:15.886Z</time></trkpt><trkpt lat="40.4380699" lon="15.5016435"><ele>483.2</ele><time>2026-05-02T17:06:16.887Z</time></trkpt><trkpt lat="40.4381236" lon="15.5017627"><ele>483.0</ele><time>2026-05-02T17:06:17.887Z</time></trkpt><trkpt lat="40.438171" lon="15.5018862"><ele>483.0</ele><time>2026-05-02T17:06:18.886Z</time></trkpt><trkpt lat="40.4382154" lon="15.5020145"><ele>482.99999999999994</ele><time>2026-05-02T17:06:19.887Z</time></trkpt><trkpt lat="40.4382512" lon="15.502145"><ele>482.99999999999994</ele><time>2026-05-02T17:06:20.886Z</time></trkpt><trkpt lat="40.4382842" lon="15.5022807"><ele>483.0</ele><time>2026-05-02T17:06:21.887Z</time></trkpt><trkpt lat="40.4383159" lon="15.5024204"><ele>483.0</ele><time>2026-05-02T17:06:22.886Z</time></trkpt><trkpt lat="40.4383451" lon="15.5025572"><ele>481.59999999999997</ele><time>2026-05-02T17:06:23.886Z</time></trkpt><trkpt lat="40.4383647" lon="15.5027014"><ele>480.19999999999993</ele><time>2026-05-02T17:06:24.887Z</time></trkpt><trkpt lat="40.4383692" lon="15.5028421"><ele>478.8</ele><time>2026-05-02T17:06:25.886Z</time></trkpt><trkpt lat="40.4383482" lon="15.5029748"><ele>477.4</ele><time>2026-05-02T17:06:26.887Z</time></trkpt><trkpt lat="40.4383094" lon="15.5030961"><ele>476.0</ele><time>2026-05-02T17:06:27.887Z</time></trkpt><trkpt lat="40.4382714" lon="15.503215"><ele>476.0</ele><time>2026-05-02T17:06:28.886Z</time></trkpt><trkpt lat="40.4382527" lon="15.5033427"><ele>476.0</ele><time>2026-05-02T17:06:29.887Z</time></trkpt><trkpt lat="40.4382675" lon="15.5034596"><ele>476.0</ele><time>2026-05-02T17:06:30.887Z</time></trkpt><trkpt lat="40.4383037" lon="15.5035652"><ele>476.0</ele><time>2026-05-02T17:06:31.886Z</time></trkpt><trkpt lat="40.4383504" lon="15.503663"><ele>476.0</ele><time>2026-05-02T17:06:32.887Z</time></trkpt><trkpt lat="40.4384126" lon="15.5037557"><ele>474.20000000000005</ele><time>2026-05-02T17:06:33.887Z</time></trkpt><trkpt lat="40.4384901" lon="15.5038307"><ele>472.40000000000003</ele><time>2026-05-02T17:06:34.887Z</time></trkpt><trkpt lat="40.4385786" lon="15.5038815"><ele>470.6</ele><time>2026-05-02T17:06:35.886Z</time></trkpt><trkpt lat="40.4386662" lon="15.5039062"><ele>468.8</ele><time>2026-05-02T17:06:36.887Z</time></trkpt><trkpt lat="40.4387547" lon="15.5039122"><ele>467.0</ele><time>2026-05-02T17:06:37.887Z</time></trkpt><trkpt lat="40.4388447" lon="15.5038917"><ele>466.66666666666663</ele><time>2026-05-02T17:06:38.886Z</time></trkpt><trkpt lat="40.4389222" lon="15.503855"><ele>466.3333333333333</ele><time>2026-05-02T17:06:39.886Z</time></trkpt><trkpt lat="40.4389883" lon="15.5037982"><ele>466.0</ele><time>2026-05-02T17:06:40.887Z</time></trkpt><trkpt lat="40.4390465" lon="15.5037268"><ele>465.66666666666663</ele><time>2026-05-02T17:06:41.887Z</time></trkpt><trkpt lat="40.4390999" lon="15.5036364"><ele>465.3333333333333</ele><time>2026-05-02T17:06:42.886Z</time></trkpt><trkpt lat="40.4391431" lon="15.5035454"><ele>465.0</ele><time>2026-05-02T17:06:43.887Z</time></trkpt><trkpt lat="40.4391822" lon="15.5034592"><ele>467.0</ele><time>2026-05-02T17:06:44.887Z</time></trkpt><trkpt lat="40.4392215" lon="15.5033784"><ele>469.0</ele><time>2026-05-02T17:06:45.886Z</time></trkpt><trkpt lat="40.4392643" lon="15.503293"><ele>471.0</ele><time>2026-05-02T17:06:46.887Z</time></trkpt><trkpt lat="40.4393143" lon="15.5032144"><ele>473.0</ele><time>2026-05-02T17:06:47.887Z</time></trkpt><trkpt lat="40.4393691" lon="15.5031684"><ele>475.0</ele><time>2026-05-02T17:06:48.886Z</time></trkpt><trkpt lat="40.4394433" lon="15.5031628"><ele>477.0</ele><time>2026-05-02T17:06:49.887Z</time></trkpt><trkpt lat="40.4395306" lon="15.5032023"><ele>477.0</ele><time>2026-05-02T17:06:50.887Z</time></trkpt><trkpt lat="40.4396274" lon="15.5032806"><ele>477.0</ele><time>2026-05-02T17:06:51.886Z</time></trkpt><trkpt lat="40.4397158" lon="15.5033944"><ele>477.0</ele><time>2026-05-02T17:06:52.887Z</time></trkpt><trkpt lat="40.4397996" lon="15.5035153"><ele>477.0</ele><time>2026-05-02T17:06:53.887Z</time></trkpt><trkpt lat="40.4398736" lon="15.5036735"><ele>474.5</ele><time>2026-05-02T17:06:54.887Z</time></trkpt><trkpt lat="40.4399445" lon="15.5038273"><ele>472.0</ele><time>2026-05-02T17:06:55.887Z</time></trkpt><trkpt lat="40.4400011" lon="15.5039702"><ele>469.5</ele><time>2026-05-02T17:06:56.887Z</time></trkpt><trkpt lat="40.4400508" lon="15.5040911"><ele>467.0</ele><time>2026-05-02T17:06:57.886Z</time></trkpt><trkpt lat="40.4400868" lon="15.5042056"><ele>466.99999999999994</ele><time>2026-05-02T17:06:58.887Z</time></trkpt><trkpt lat="40.4401315" lon="15.5043156"><ele>467.0</ele><time>2026-05-02T17:06:59.886Z</time></trkpt><trkpt lat="40.4401768" lon="15.5044194"><ele>467.0</ele><time>2026-05-02T17:07:00.887Z</time></trkpt><trkpt lat="40.4402236" lon="15.5045224"><ele>467.0</ele><time>2026-05-02T17:07:01.887Z</time></trkpt><trkpt lat="40.4402664" lon="15.5046268"><ele>466.99999999999994</ele><time>2026-05-02T17:07:02.887Z</time></trkpt><trkpt lat="40.4403149" lon="15.5047136"><ele>467.0</ele><time>2026-05-02T17:07:03.887Z</time></trkpt><trkpt lat="40.4403656" lon="15.5047945"><ele>466.8</ele><time>2026-05-02T17:07:04.887Z</time></trkpt><trkpt lat="40.4404261" lon="15.504863"><ele>466.6</ele><time>2026-05-02T17:07:05.887Z</time></trkpt><trkpt lat="40.4405001" lon="15.5049236"><ele>466.40000000000003</ele><time>2026-05-02T17:07:06.887Z</time></trkpt><trkpt lat="40.4405917" lon="15.5049821"><ele>466.20000000000005</ele><time>2026-05-02T17:07:07.887Z</time></trkpt><trkpt lat="40.4406915" lon="15.5050482"><ele>466.0</ele><time>2026-05-02T17:07:08.887Z</time></trkpt><trkpt lat="40.4408007" lon="15.5051248"><ele>466.0</ele><time>2026-05-02T17:07:09.887Z</time></trkpt><trkpt lat="40.4409077" lon="15.5051934"><ele>466.0</ele><time>2026-05-02T17:07:10.887Z</time></trkpt><trkpt lat="40.4410129" lon="15.5052571"><ele>466.0</ele><time>2026-05-02T17:07:11.887Z</time></trkpt><trkpt lat="40.4411209" lon="15.5053145"><ele>466.0</ele><time>2026-05-02T17:07:12.886Z</time></trkpt><trkpt lat="40.4412265" lon="15.5053648"><ele>466.6</ele><time>2026-05-02T17:07:13.886Z</time></trkpt><trkpt lat="40.4413262" lon="15.5054012"><ele>467.20000000000005</ele><time>2026-05-02T17:07:14.887Z</time></trkpt><trkpt lat="40.4414277" lon="15.5054232"><ele>467.79999999999995</ele><time>2026-05-02T17:07:15.886Z</time></trkpt><trkpt lat="40.4415257" lon="15.5054322"><ele>468.4</ele><time>2026-05-02T17:07:16.887Z</time></trkpt><trkpt lat="40.4416126" lon="15.5054363"><ele>469.0</ele><time>2026-05-02T17:07:17.886Z</time></trkpt><trkpt lat="40.4417003" lon="15.5054377"><ele>466.1666666666667</ele><time>2026-05-02T17:07:18.887Z</time></trkpt><trkpt lat="40.4417826" lon="15.5054303"><ele>463.33333333333337</ele><time>2026-05-02T17:07:19.887Z</time></trkpt><trkpt lat="40.441858" lon="15.5054306"><ele>460.5</ele><time>2026-05-02T17:07:20.887Z</time></trkpt><trkpt lat="40.4419324" lon="15.5054368"><ele>457.66666666666663</ele><time>2026-05-02T17:07:21.887Z</time></trkpt><trkpt lat="40.442002" lon="15.5054395"><ele>454.8333333333333</ele><time>2026-05-02T17:07:22.887Z</time></trkpt><trkpt lat="40.4420687" lon="15.5054422"><ele>452.0</ele><time>2026-05-02T17:07:23.886Z</time></trkpt><trkpt lat="40.4421764" lon="15.5054357"><ele>451.66666666666663</ele><time>2026-05-02T17:07:25.887Z</time></trkpt><trkpt lat="40.4422394" lon="15.5054315"><ele>451.3333333333333</ele><time>2026-05-02T17:07:27.887Z</time></trkpt><trkpt lat="40.4423103" lon="15.5054362"><ele>451.0</ele><time>2026-05-02T17:07:30.887Z</time></trkpt><trkpt lat="40.4424155" lon="15.5054366"><ele>450.66666666666663</ele><time>2026-05-02T17:07:56.886Z</time></trkpt><trkpt lat="40.4424898" lon="15.5054404"><ele>450.3333333333333</ele><time>2026-05-02T17:07:57.886Z</time></trkpt><trkpt lat="40.4425865" lon="15.5054401"><ele>450.0</ele><time>2026-05-02T17:07:58.886Z</time></trkpt><trkpt lat="40.4426892" lon="15.5054261"><ele>450.25</ele><time>2026-05-02T17:07:59.887Z</time></trkpt><trkpt lat="40.4427969" lon="15.5053902"><ele>450.5</ele><time>2026-05-02T17:08:00.887Z</time></trkpt><trkpt lat="40.4429181" lon="15.5053244"><ele>450.75</ele><time>2026-05-02T17:08:01.887Z</time></trkpt><trkpt lat="40.4430288" lon="15.5052532"><ele>451.0</ele><time>2026-05-02T17:08:02.887Z</time></trkpt><trkpt lat="40.4431319" lon="15.5051763"><ele>451.00000000000006</ele><time>2026-05-02T17:08:03.887Z</time></trkpt><trkpt lat="40.4432197" lon="15.5051128"><ele>451.0</ele><time>2026-05-02T17:08:04.886Z</time></trkpt><trkpt lat="40.4433039" lon="15.5050503"><ele>451.0</ele><time>2026-05-02T17:08:05.887Z</time></trkpt><trkpt lat="40.4433894" lon="15.5049912"><ele>451.0</ele><time>2026-05-02T17:08:06.887Z</time></trkpt><trkpt lat="40.4434693" lon="15.504946"><ele>451.00000000000006</ele><time>2026-05-02T17:08:07.887Z</time></trkpt><trkpt lat="40.4435299" lon="15.5049222"><ele>451.0</ele><time>2026-05-02T17:08:08.887Z</time></trkpt><trkpt lat="40.4436171" lon="15.5049123"><ele>451.0</ele><time>2026-05-02T17:08:10.887Z</time></trkpt><trkpt lat="40.4437037" lon="15.5049655"><ele>451.0</ele><time>2026-05-02T17:08:12.887Z</time></trkpt><trkpt lat="40.4437756" lon="15.5050195"><ele>451.0</ele><time>2026-05-02T17:08:13.887Z</time></trkpt><trkpt lat="40.4438676" lon="15.5050963"><ele>451.0</ele><time>2026-05-02T17:08:14.886Z</time></trkpt><trkpt lat="40.4439732" lon="15.5052166"><ele>451.0</ele><time>2026-05-02T17:08:15.886Z</time></trkpt><trkpt lat="40.4440822" lon="15.5053814"><ele>449.0</ele><time>2026-05-02T17:08:16.886Z</time></trkpt><trkpt lat="40.4441808" lon="15.5055593"><ele>447.0</ele><time>2026-05-02T17:08:17.887Z</time></trkpt><trkpt lat="40.4442716" lon="15.5057451"><ele>445.0</ele><time>2026-05-02T17:08:18.887Z</time></trkpt><trkpt lat="40.4443588" lon="15.5059394"><ele>445.0</ele><time>2026-05-02T17:08:19.887Z</time></trkpt><trkpt lat="40.4444576" lon="15.5061485"><ele>445.0</ele><time>2026-05-02T17:08:20.887Z</time></trkpt><trkpt lat="40.4445794" lon="15.5063925"><ele>445.0</ele><time>2026-05-02T17:08:21.886Z</time></trkpt><trkpt lat="40.4447347" lon="15.5066892"><ele>445.0</ele><time>2026-05-02T17:08:22.887Z</time></trkpt><trkpt lat="40.4449139" lon="15.5070137"><ele>445.0</ele><time>2026-05-02T17:08:23.887Z</time></trkpt><trkpt lat="40.4450808" lon="15.5073595"><ele>445.0</ele><time>2026-05-02T17:08:24.886Z</time></trkpt><trkpt lat="40.4452493" lon="15.5077137"><ele>445.0</ele><time>2026-05-02T17:08:25.886Z</time></trkpt><trkpt lat="40.4453967" lon="15.5080175"><ele>445.0</ele><time>2026-05-02T17:08:26.887Z</time></trkpt><trkpt lat="40.445547" lon="15.5083091"><ele>445.0</ele><time>2026-05-02T17:08:27.886Z</time></trkpt><trkpt lat="40.4456964" lon="15.5085936"><ele>445.0</ele><time>2026-05-02T17:08:28.886Z</time></trkpt><trkpt lat="40.4458344" lon="15.508862"><ele>445.0</ele><time>2026-05-02T17:08:29.887Z</time></trkpt><trkpt lat="40.4459716" lon="15.5091325"><ele>445.0</ele><time>2026-05-02T17:08:30.888Z</time></trkpt><trkpt lat="40.4461074" lon="15.5094007"><ele>445.0</ele><time>2026-05-02T17:08:31.887Z</time></trkpt><trkpt lat="40.446233" lon="15.5096499"><ele>445.0</ele><time>2026-05-02T17:08:32.888Z</time></trkpt><trkpt lat="40.4463571" lon="15.5098867"><ele>445.0</ele><time>2026-05-02T17:08:33.888Z</time></trkpt><trkpt lat="40.446479" lon="15.5101288"><ele>445.0</ele><time>2026-05-02T17:08:34.888Z</time></trkpt><trkpt lat="40.4466001" lon="15.5103749"><ele>445.33333333333337</ele><time>2026-05-02T17:08:35.887Z</time></trkpt><trkpt lat="40.4467188" lon="15.5106215"><ele>445.66666666666663</ele><time>2026-05-02T17:08:36.888Z</time></trkpt><trkpt lat="40.4468435" lon="15.5108667"><ele>446.0</ele><time>2026-05-02T17:08:37.888Z</time></trkpt><trkpt lat="40.4469641" lon="15.5111058"><ele>445.3333333333333</ele><time>2026-05-02T17:08:38.888Z</time></trkpt><trkpt lat="40.4470851" lon="15.5113476"><ele>444.66666666666663</ele><time>2026-05-02T17:08:39.888Z</time></trkpt><trkpt lat="40.4472072" lon="15.5115887"><ele>444.0</ele><time>2026-05-02T17:08:40.888Z</time></trkpt><trkpt lat="40.4473288" lon="15.51183"><ele>443.66666666666663</ele><time>2026-05-02T17:08:41.888Z</time></trkpt><trkpt lat="40.4474502" lon="15.5120712"><ele>443.3333333333333</ele><time>2026-05-02T17:08:42.888Z</time></trkpt><trkpt lat="40.4475688" lon="15.5123138"><ele>443.0</ele><time>2026-05-02T17:08:43.888Z</time></trkpt><trkpt lat="40.4476872" lon="15.51255"><ele>443.0</ele><time>2026-05-02T17:08:44.888Z</time></trkpt><trkpt lat="40.4478128" lon="15.5127927"><ele>443.0</ele><time>2026-05-02T17:08:45.888Z</time></trkpt><trkpt lat="40.4479444" lon="15.5130418"><ele>443.0</ele><time>2026-05-02T17:08:46.887Z</time></trkpt><trkpt lat="40.4480739" lon="15.5133028"><ele>443.0</ele><time>2026-05-02T17:08:47.888Z</time></trkpt><trkpt lat="40.4481934" lon="15.5135506"><ele>443.3333333333333</ele><time>2026-05-02T17:08:48.887Z</time></trkpt><trkpt lat="40.4483092" lon="15.5137824"><ele>443.66666666666663</ele><time>2026-05-02T17:08:49.887Z</time></trkpt><trkpt lat="40.4484211" lon="15.5140045"><ele>444.0</ele><time>2026-05-02T17:08:50.888Z</time></trkpt><trkpt lat="40.4485308" lon="15.5142266"><ele>444.0</ele><time>2026-05-02T17:08:51.888Z</time></trkpt><trkpt lat="40.4486477" lon="15.514454"><ele>444.0</ele><time>2026-05-02T17:08:52.887Z</time></trkpt><trkpt lat="40.4487632" lon="15.5146754"><ele>444.0</ele><time>2026-05-02T17:08:53.887Z</time></trkpt><trkpt lat="40.448878" lon="15.5148924"><ele>444.33333333333337</ele><time>2026-05-02T17:08:54.888Z</time></trkpt><trkpt lat="40.4489915" lon="15.5151102"><ele>444.6666666666667</ele><time>2026-05-02T17:08:55.888Z</time></trkpt><trkpt lat="40.4491047" lon="15.5153199"><ele>445.0</ele><time>2026-05-02T17:08:56.888Z</time></trkpt><trkpt lat="40.4492118" lon="15.5155229"><ele>445.0</ele><time>2026-05-02T17:08:57.888Z</time></trkpt><trkpt lat="40.4493078" lon="15.5157202"><ele>445.0</ele><time>2026-05-02T17:08:58.888Z</time></trkpt><trkpt lat="40.449398" lon="15.5159071"><ele>445.0</ele><time>2026-05-02T17:08:59.888Z</time></trkpt><trkpt lat="40.4494844" lon="15.5160838"><ele>445.0</ele><time>2026-05-02T17:09:00.888Z</time></trkpt><trkpt lat="40.4495733" lon="15.5162567"><ele>445.0</ele><time>2026-05-02T17:09:01.887Z</time></trkpt><trkpt lat="40.4496632" lon="15.5164259"><ele>445.0</ele><time>2026-05-02T17:09:02.888Z</time></trkpt><trkpt lat="40.4497488" lon="15.5165955"><ele>444.6666666666667</ele><time>2026-05-02T17:09:03.888Z</time></trkpt><trkpt lat="40.4498378" lon="15.5167633"><ele>444.33333333333337</ele><time>2026-05-02T17:09:04.887Z</time></trkpt><trkpt lat="40.4499265" lon="15.5169335"><ele>444.0</ele><time>2026-05-02T17:09:05.888Z</time></trkpt><trkpt lat="40.4500212" lon="15.5171053"><ele>444.0</ele><time>2026-05-02T17:09:06.887Z</time></trkpt><trkpt lat="40.4501103" lon="15.5172831"><ele>444.0</ele><time>2026-05-02T17:09:07.888Z</time></trkpt><trkpt lat="40.4501953" lon="15.5174596"><ele>444.0</ele><time>2026-05-02T17:09:08.887Z</time></trkpt><trkpt lat="40.4502786" lon="15.5176345"><ele>444.0</ele><time>2026-05-02T17:09:09.888Z</time></trkpt><trkpt lat="40.4503624" lon="15.5178064"><ele>444.0</ele><time>2026-05-02T17:09:10.888Z</time></trkpt><trkpt lat="40.4504429" lon="15.5179751"><ele>444.0</ele><time>2026-05-02T17:09:11.888Z</time></trkpt><trkpt lat="40.4505227" lon="15.5181443"><ele>443.66666666666663</ele><time>2026-05-02T17:09:12.888Z</time></trkpt><trkpt lat="40.4506011" lon="15.5183154"><ele>443.3333333333333</ele><time>2026-05-02T17:09:13.888Z</time></trkpt><trkpt lat="40.4506836" lon="15.5184841"><ele>443.0</ele><time>2026-05-02T17:09:14.888Z</time></trkpt><trkpt lat="40.4507655" lon="15.5186483"><ele>443.0</ele><time>2026-05-02T17:09:15.887Z</time></trkpt><trkpt lat="40.4508514" lon="15.5188104"><ele>443.0</ele><time>2026-05-02T17:09:16.888Z</time></trkpt><trkpt lat="40.4509346" lon="15.5189684"><ele>443.0</ele><time>2026-05-02T17:09:17.888Z</time></trkpt><trkpt lat="40.4510164" lon="15.5191179"><ele>443.0</ele><time>2026-05-02T17:09:18.888Z</time></trkpt><trkpt lat="40.4510965" lon="15.5192731"><ele>443.0</ele><time>2026-05-02T17:09:19.888Z</time></trkpt><trkpt lat="40.4511741" lon="15.5194267"><ele>443.0</ele><time>2026-05-02T17:09:20.888Z</time></trkpt><trkpt lat="40.4512507" lon="15.5195861"><ele>443.0</ele><time>2026-05-02T17:09:21.887Z</time></trkpt><trkpt lat="40.4513286" lon="15.5197459"><ele>443.0</ele><time>2026-05-02T17:09:22.888Z</time></trkpt><trkpt lat="40.4514083" lon="15.519903"><ele>443.25</ele><time>2026-05-02T17:09:23.888Z</time></trkpt><trkpt lat="40.4514899" lon="15.5200602"><ele>443.5</ele><time>2026-05-02T17:09:24.888Z</time></trkpt><trkpt lat="40.4515731" lon="15.5202185"><ele>443.75</ele><time>2026-05-02T17:09:25.888Z</time></trkpt><trkpt lat="40.4516537" lon="15.520373"><ele>444.0</ele><time>2026-05-02T17:09:26.888Z</time></trkpt><trkpt lat="40.4517353" lon="15.5205335"><ele>444.25</ele><time>2026-05-02T17:09:27.887Z</time></trkpt><trkpt lat="40.4518211" lon="15.5206964"><ele>444.5</ele><time>2026-05-02T17:09:28.888Z</time></trkpt><trkpt lat="40.451902" lon="15.5208568"><ele>444.75</ele><time>2026-05-02T17:09:29.888Z</time></trkpt><trkpt lat="40.4519806" lon="15.5210123"><ele>445.0</ele><time>2026-05-02T17:09:30.887Z</time></trkpt><trkpt lat="40.4520589" lon="15.5211801"><ele>444.33333333333337</ele><time>2026-05-02T17:09:31.888Z</time></trkpt><trkpt lat="40.4521417" lon="15.5213401"><ele>443.66666666666663</ele><time>2026-05-02T17:09:32.888Z</time></trkpt><trkpt lat="40.4522249" lon="15.5215044"><ele>443.0</ele><time>2026-05-02T17:09:33.887Z</time></trkpt><trkpt lat="40.4523098" lon="15.521671"><ele>443.0</ele><time>2026-05-02T17:09:34.888Z</time></trkpt><trkpt lat="40.4523935" lon="15.5218394"><ele>443.0</ele><time>2026-05-02T17:09:35.888Z</time></trkpt><trkpt lat="40.4524785" lon="15.5220096"><ele>443.0</ele><time>2026-05-02T17:09:36.888Z</time></trkpt><trkpt lat="40.4525636" lon="15.5221798"><ele>443.0</ele><time>2026-05-02T17:09:37.888Z</time></trkpt><trkpt lat="40.4526486" lon="15.5223513"><ele>443.0</ele><time>2026-05-02T17:09:38.888Z</time></trkpt><trkpt lat="40.4527351" lon="15.5225242"><ele>443.0</ele><time>2026-05-02T17:09:39.888Z</time></trkpt><trkpt lat="40.4528217" lon="15.5226947"><ele>443.0</ele><time>2026-05-02T17:09:40.888Z</time></trkpt><trkpt lat="40.4529084" lon="15.5228649"><ele>443.0</ele><time>2026-05-02T17:09:41.888Z</time></trkpt><trkpt lat="40.4529953" lon="15.5230339"><ele>443.0</ele><time>2026-05-02T17:09:42.888Z</time></trkpt><trkpt lat="40.4530836" lon="15.5232098"><ele>443.66666666666663</ele><time>2026-05-02T17:09:43.887Z</time></trkpt><trkpt lat="40.4531749" lon="15.5233867"><ele>444.33333333333337</ele><time>2026-05-02T17:09:44.888Z</time></trkpt><trkpt lat="40.4532696" lon="15.5235695"><ele>445.0</ele><time>2026-05-02T17:09:45.888Z</time></trkpt><trkpt lat="40.4533631" lon="15.5237557"><ele>445.0</ele><time>2026-05-02T17:09:46.888Z</time></trkpt><trkpt lat="40.4534579" lon="15.523938"><ele>445.0</ele><time>2026-05-02T17:09:47.888Z</time></trkpt><trkpt lat="40.4535487" lon="15.5241156"><ele>445.0</ele><time>2026-05-02T17:09:48.888Z</time></trkpt><trkpt lat="40.4536416" lon="15.5242937"><ele>445.0</ele><time>2026-05-02T17:09:49.888Z</time></trkpt><trkpt lat="40.453732" lon="15.5244719"><ele>445.0</ele><time>2026-05-02T17:09:50.887Z</time></trkpt><trkpt lat="40.4538274" lon="15.524647"><ele>445.0</ele><time>2026-05-02T17:09:51.888Z</time></trkpt><trkpt lat="40.453917" lon="15.5248236"><ele>444.0</ele><time>2026-05-02T17:09:52.888Z</time></trkpt><trkpt lat="40.4540022" lon="15.5250031"><ele>443.0</ele><time>2026-05-02T17:09:53.887Z</time></trkpt><trkpt lat="40.454092" lon="15.5251816"><ele>442.0</ele><time>2026-05-02T17:09:54.888Z</time></trkpt><trkpt lat="40.4541834" lon="15.5253616"><ele>442.0</ele><time>2026-05-02T17:09:55.888Z</time></trkpt><trkpt lat="40.4542755" lon="15.5255385"><ele>442.0</ele><time>2026-05-02T17:09:56.888Z</time></trkpt><trkpt lat="40.4543684" lon="15.5257186"><ele>442.0</ele><time>2026-05-02T17:09:57.887Z</time></trkpt><trkpt lat="40.4544589" lon="15.5259002"><ele>442.0</ele><time>2026-05-02T17:09:58.888Z</time></trkpt><trkpt lat="40.4545562" lon="15.5260877"><ele>442.0</ele><time>2026-05-02T17:09:59.888Z</time></trkpt><trkpt lat="40.4546458" lon="15.5262744"><ele>442.0</ele><time>2026-05-02T17:10:00.888Z</time></trkpt><trkpt lat="40.4547353" lon="15.5264461"><ele>442.33333333333337</ele><time>2026-05-02T17:10:01.887Z</time></trkpt><trkpt lat="40.4548262" lon="15.5266183"><ele>442.66666666666663</ele><time>2026-05-02T17:10:02.888Z</time></trkpt><trkpt lat="40.4549075" lon="15.5267835"><ele>443.0</ele><time>2026-05-02T17:10:03.887Z</time></trkpt><trkpt lat="40.4549831" lon="15.5269506"><ele>443.0</ele><time>2026-05-02T17:10:04.887Z</time></trkpt><trkpt lat="40.4550592" lon="15.5271113"><ele>443.0</ele><time>2026-05-02T17:10:05.888Z</time></trkpt><trkpt lat="40.4551402" lon="15.5272701"><ele>443.0</ele><time>2026-05-02T17:10:06.888Z</time></trkpt><trkpt lat="40.4552248" lon="15.5274295"><ele>443.0</ele><time>2026-05-02T17:10:07.888Z</time></trkpt><trkpt lat="40.4553111" lon="15.527585"><ele>443.0</ele><time>2026-05-02T17:10:08.888Z</time></trkpt><trkpt lat="40.4553954" lon="15.5277351"><ele>443.0</ele><time>2026-05-02T17:10:09.887Z</time></trkpt><trkpt lat="40.4554816" lon="15.5278792"><ele>443.0</ele><time>2026-05-02T17:10:10.888Z</time></trkpt><trkpt lat="40.4555624" lon="15.5280267"><ele>443.0</ele><time>2026-05-02T17:10:11.888Z</time></trkpt><trkpt lat="40.4556388" lon="15.5281808"><ele>443.25</ele><time>2026-05-02T17:10:12.888Z</time></trkpt><trkpt lat="40.4557106" lon="15.5283347"><ele>443.5</ele><time>2026-05-02T17:10:13.888Z</time></trkpt><trkpt lat="40.4557742" lon="15.5284886"><ele>443.75</ele><time>2026-05-02T17:10:14.888Z</time></trkpt><trkpt lat="40.4558372" lon="15.5286542"><ele>444.0</ele><time>2026-05-02T17:10:15.888Z</time></trkpt><trkpt lat="40.4559018" lon="15.5288231"><ele>443.5</ele><time>2026-05-02T17:10:16.888Z</time></trkpt><trkpt lat="40.4559655" lon="15.5289921"><ele>443.0</ele><time>2026-05-02T17:10:17.888Z</time></trkpt><trkpt lat="40.4560336" lon="15.5291687"><ele>442.5</ele><time>2026-05-02T17:10:18.888Z</time></trkpt><trkpt lat="40.456096" lon="15.5293419"><ele>442.0</ele><time>2026-05-02T17:10:19.888Z</time></trkpt><trkpt lat="40.4561501" lon="15.5295037"><ele>442.75</ele><time>2026-05-02T17:10:20.888Z</time></trkpt><trkpt lat="40.4562044" lon="15.5296487"><ele>443.5</ele><time>2026-05-02T17:10:21.887Z</time></trkpt><trkpt lat="40.4562496" lon="15.5297979"><ele>444.25</ele><time>2026-05-02T17:10:22.888Z</time></trkpt><trkpt lat="40.4562848" lon="15.5299507"><ele>445.0</ele><time>2026-05-02T17:10:23.887Z</time></trkpt><trkpt lat="40.4562967" lon="15.5301108"><ele>445.0</ele><time>2026-05-02T17:10:24.888Z</time></trkpt><trkpt lat="40.4562809" lon="15.5302687"><ele>445.0</ele><time>2026-05-02T17:10:25.888Z</time></trkpt><trkpt lat="40.4562398" lon="15.5304363"><ele>445.0</ele><time>2026-05-02T17:10:26.888Z</time></trkpt><trkpt lat="40.4561752" lon="15.5306004"><ele>445.0</ele><time>2026-05-02T17:10:27.888Z</time></trkpt><trkpt lat="40.4560879" lon="15.5307581"><ele>445.0</ele><time>2026-05-02T17:10:28.887Z</time></trkpt><trkpt lat="40.4559901" lon="15.5309225"><ele>445.0</ele><time>2026-05-02T17:10:29.888Z</time></trkpt><trkpt lat="40.455894" lon="15.5310956"><ele>445.0</ele><time>2026-05-02T17:10:30.887Z</time></trkpt><trkpt lat="40.4558119" lon="15.5312633"><ele>445.0</ele><time>2026-05-02T17:10:31.887Z</time></trkpt><trkpt lat="40.4557313" lon="15.5314311"><ele>445.0</ele><time>2026-05-02T17:10:32.887Z</time></trkpt><trkpt lat="40.4556516" lon="15.5315915"><ele>445.0</ele><time>2026-05-02T17:10:33.888Z</time></trkpt><trkpt lat="40.4555739" lon="15.5317479"><ele>445.0</ele><time>2026-05-02T17:10:34.887Z</time></trkpt><trkpt lat="40.4555019" lon="15.5318963"><ele>444.75</ele><time>2026-05-02T17:10:35.887Z</time></trkpt><trkpt lat="40.4554306" lon="15.5320422"><ele>444.5</ele><time>2026-05-02T17:10:36.887Z</time></trkpt><trkpt lat="40.4553588" lon="15.5321923"><ele>444.25</ele><time>2026-05-02T17:10:37.888Z</time></trkpt><trkpt lat="40.4552843" lon="15.5323368"><ele>444.0</ele><time>2026-05-02T17:10:38.888Z</time></trkpt><trkpt lat="40.4552169" lon="15.5324817"><ele>443.75</ele><time>2026-05-02T17:10:39.888Z</time></trkpt><trkpt lat="40.4551513" lon="15.5326234"><ele>443.5</ele><time>2026-05-02T17:10:40.888Z</time></trkpt><trkpt lat="40.4550847" lon="15.5327667"><ele>443.25</ele><time>2026-05-02T17:10:41.888Z</time></trkpt><trkpt lat="40.4550127" lon="15.5329054"><ele>443.0</ele><time>2026-05-02T17:10:42.887Z</time></trkpt><trkpt lat="40.4549511" lon="15.5330318"><ele>443.75</ele><time>2026-05-02T17:10:43.887Z</time></trkpt><trkpt lat="40.4548941" lon="15.5331561"><ele>444.5</ele><time>2026-05-02T17:10:44.887Z</time></trkpt><trkpt lat="40.4548304" lon="15.533278"><ele>445.25</ele><time>2026-05-02T17:10:45.888Z</time></trkpt><trkpt lat="40.4547654" lon="15.5334073"><ele>446.0</ele><time>2026-05-02T17:10:46.888Z</time></trkpt><trkpt lat="40.4546973" lon="15.5335434"><ele>446.0</ele><time>2026-05-02T17:10:47.887Z</time></trkpt><trkpt lat="40.4546284" lon="15.533691"><ele>446.0</ele><time>2026-05-02T17:10:48.888Z</time></trkpt><trkpt lat="40.4545527" lon="15.5338412"><ele>446.0</ele><time>2026-05-02T17:10:49.888Z</time></trkpt><trkpt lat="40.4544745" lon="15.5339866"><ele>446.0</ele><time>2026-05-02T17:10:50.888Z</time></trkpt><trkpt lat="40.4544094" lon="15.5341207"><ele>446.0</ele><time>2026-05-02T17:10:51.888Z</time></trkpt><trkpt lat="40.4543597" lon="15.5342504"><ele>446.0</ele><time>2026-05-02T17:10:52.887Z</time></trkpt><trkpt lat="40.4543366" lon="15.5343931"><ele>446.0</ele><time>2026-05-02T17:10:53.887Z</time></trkpt><trkpt lat="40.454337" lon="15.5345446"><ele>446.0</ele><time>2026-05-02T17:10:54.887Z</time></trkpt><trkpt lat="40.4543539" lon="15.5346955"><ele>446.0</ele><time>2026-05-02T17:10:55.888Z</time></trkpt><trkpt lat="40.4543798" lon="15.5348433"><ele>446.0</ele><time>2026-05-02T17:10:56.887Z</time></trkpt><trkpt lat="40.4544035" lon="15.5349854"><ele>446.0</ele><time>2026-05-02T17:10:57.888Z</time></trkpt><trkpt lat="40.4544139" lon="15.535137"><ele>446.0</ele><time>2026-05-02T17:10:58.888Z</time></trkpt><trkpt lat="40.4544251" lon="15.5352866"><ele>446.5</ele><time>2026-05-02T17:10:59.888Z</time></trkpt><trkpt lat="40.4544402" lon="15.5354442"><ele>447.0</ele><time>2026-05-02T17:11:00.887Z</time></trkpt><trkpt lat="40.4544557" lon="15.5356116"><ele>447.5</ele><time>2026-05-02T17:11:01.887Z</time></trkpt><trkpt lat="40.4544831" lon="15.5357806"><ele>448.0</ele><time>2026-05-02T17:11:02.888Z</time></trkpt><trkpt lat="40.4545154" lon="15.5359497"><ele>448.0</ele><time>2026-05-02T17:11:03.888Z</time></trkpt><trkpt lat="40.454558" lon="15.536111"><ele>448.0</ele><time>2026-05-02T17:11:04.888Z</time></trkpt><trkpt lat="40.4546061" lon="15.5362718"><ele>448.0</ele><time>2026-05-02T17:11:05.887Z</time></trkpt><trkpt lat="40.4546455" lon="15.5364262"><ele>448.0</ele><time>2026-05-02T17:11:06.888Z</time></trkpt><trkpt lat="40.4546821" lon="15.5365708"><ele>448.79999999999995</ele><time>2026-05-02T17:11:07.888Z</time></trkpt><trkpt lat="40.4547129" lon="15.5367061"><ele>449.59999999999997</ele><time>2026-05-02T17:11:08.888Z</time></trkpt><trkpt lat="40.4547158" lon="15.5368287"><ele>450.40000000000003</ele><time>2026-05-02T17:11:09.888Z</time></trkpt><trkpt lat="40.4546842" lon="15.5369417"><ele>451.20000000000005</ele><time>2026-05-02T17:11:10.888Z</time></trkpt><trkpt lat="40.4546435" lon="15.5370386"><ele>452.0</ele><time>2026-05-02T17:11:11.888Z</time></trkpt><trkpt lat="40.4546293" lon="15.5371418"><ele>452.3333333333333</ele><time>2026-05-02T17:11:12.887Z</time></trkpt><trkpt lat="40.4546288" lon="15.5372448"><ele>452.66666666666663</ele><time>2026-05-02T17:11:13.888Z</time></trkpt><trkpt lat="40.4546521" lon="15.5373368"><ele>453.0</ele><time>2026-05-02T17:11:14.888Z</time></trkpt><trkpt lat="40.4546994" lon="15.5374159"><ele>453.33333333333337</ele><time>2026-05-02T17:11:15.888Z</time></trkpt><trkpt lat="40.4547559" lon="15.537485"><ele>453.6666666666667</ele><time>2026-05-02T17:11:16.888Z</time></trkpt><trkpt lat="40.4548229" lon="15.5375386"><ele>454.0</ele><time>2026-05-02T17:11:17.888Z</time></trkpt><trkpt lat="40.4548983" lon="15.5375724"><ele>454.00000000000006</ele><time>2026-05-02T17:11:18.888Z</time></trkpt><trkpt lat="40.4549705" lon="15.5376185"><ele>454.0</ele><time>2026-05-02T17:11:19.887Z</time></trkpt><trkpt lat="40.4550434" lon="15.5376872"><ele>454.0</ele><time>2026-05-02T17:11:20.888Z</time></trkpt><trkpt lat="40.4551054" lon="15.5377732"><ele>454.0</ele><time>2026-05-02T17:11:21.887Z</time></trkpt><trkpt lat="40.4551514" lon="15.5378764"><ele>454.00000000000006</ele><time>2026-05-02T17:11:22.888Z</time></trkpt><trkpt lat="40.4551941" lon="15.5379799"><ele>454.0</ele><time>2026-05-02T17:11:23.888Z</time></trkpt><trkpt lat="40.4552449" lon="15.5380927"><ele>454.0</ele><time>2026-05-02T17:11:24.887Z</time></trkpt><trkpt lat="40.4553012" lon="15.5382115"><ele>454.0</ele><time>2026-05-02T17:11:25.888Z</time></trkpt><trkpt lat="40.4553576" lon="15.5383379"><ele>454.0</ele><time>2026-05-02T17:11:26.887Z</time></trkpt><trkpt lat="40.4554288" lon="15.5384648"><ele>454.0</ele><time>2026-05-02T17:11:27.888Z</time></trkpt><trkpt lat="40.4554931" lon="15.5385946"><ele>454.75</ele><time>2026-05-02T17:11:28.888Z</time></trkpt><trkpt lat="40.4555554" lon="15.5387242"><ele>455.5</ele><time>2026-05-02T17:11:29.888Z</time></trkpt><trkpt lat="40.4556248" lon="15.5388531"><ele>456.25</ele><time>2026-05-02T17:11:30.888Z</time></trkpt><trkpt lat="40.4556849" lon="15.5389818"><ele>457.0</ele><time>2026-05-02T17:11:31.888Z</time></trkpt><trkpt lat="40.455753" lon="15.5391011"><ele>457.0</ele><time>2026-05-02T17:11:32.888Z</time></trkpt><trkpt lat="40.4558184" lon="15.5392264"><ele>457.0</ele><time>2026-05-02T17:11:33.888Z</time></trkpt><trkpt lat="40.4558764" lon="15.5393556"><ele>457.0</ele><time>2026-05-02T17:11:34.888Z</time></trkpt><trkpt lat="40.4559404" lon="15.5394813"><ele>457.0</ele><time>2026-05-02T17:11:35.887Z</time></trkpt><trkpt lat="40.4560014" lon="15.5396135"><ele>457.25</ele><time>2026-05-02T17:11:36.888Z</time></trkpt><trkpt lat="40.4560642" lon="15.539747"><ele>457.5</ele><time>2026-05-02T17:11:37.888Z</time></trkpt><trkpt lat="40.4561341" lon="15.5398749"><ele>457.75</ele><time>2026-05-02T17:11:38.888Z</time></trkpt><trkpt lat="40.4562024" lon="15.540002"><ele>458.0</ele><time>2026-05-02T17:11:39.888Z</time></trkpt><trkpt lat="40.4562689" lon="15.5401194"><ele>458.4</ele><time>2026-05-02T17:11:40.888Z</time></trkpt><trkpt lat="40.4563307" lon="15.5402248"><ele>458.79999999999995</ele><time>2026-05-02T17:11:41.887Z</time></trkpt><trkpt lat="40.4563833" lon="15.5403288"><ele>459.2</ele><time>2026-05-02T17:11:42.888Z</time></trkpt><trkpt lat="40.4564278" lon="15.5404315"><ele>459.6</ele><time>2026-05-02T17:11:43.888Z</time></trkpt><trkpt lat="40.4564667" lon="15.5405389"><ele>460.0</ele><time>2026-05-02T17:11:44.887Z</time></trkpt><trkpt lat="40.4565134" lon="15.5406375"><ele>460.33333333333337</ele><time>2026-05-02T17:11:45.888Z</time></trkpt><trkpt lat="40.4565613" lon="15.5407374"><ele>460.6666666666667</ele><time>2026-05-02T17:11:46.887Z</time></trkpt><trkpt lat="40.4566066" lon="15.540842"><ele>461.0</ele><time>2026-05-02T17:11:47.888Z</time></trkpt><trkpt lat="40.4566446" lon="15.5409497"><ele>461.33333333333337</ele><time>2026-05-02T17:11:48.888Z</time></trkpt><trkpt lat="40.4566854" lon="15.541053"><ele>461.6666666666667</ele><time>2026-05-02T17:11:49.887Z</time></trkpt><trkpt lat="40.4567296" lon="15.5411518"><ele>462.0</ele><time>2026-05-02T17:11:50.887Z</time></trkpt><trkpt lat="40.4567737" lon="15.5412566"><ele>462.5</ele><time>2026-05-02T17:11:51.887Z</time></trkpt><trkpt lat="40.456813" lon="15.5413604"><ele>463.0</ele><time>2026-05-02T17:11:52.887Z</time></trkpt><trkpt lat="40.4568475" lon="15.5414579"><ele>463.5</ele><time>2026-05-02T17:11:53.887Z</time></trkpt><trkpt lat="40.456878" lon="15.5415522"><ele>464.0</ele><time>2026-05-02T17:11:54.888Z</time></trkpt><trkpt lat="40.4569003" lon="15.5416408"><ele>464.5</ele><time>2026-05-02T17:11:55.888Z</time></trkpt><trkpt lat="40.4569086" lon="15.5417302"><ele>465.0</ele><time>2026-05-02T17:11:56.888Z</time></trkpt><trkpt lat="40.4568713" lon="15.5418696"><ele>465.0</ele><time>2026-05-02T17:11:58.888Z</time></trkpt><trkpt lat="40.4567769" lon="15.5419785"><ele>465.0</ele><time>2026-05-02T17:12:00.887Z</time></trkpt><trkpt lat="40.4567161" lon="15.5420101"><ele>465.0</ele><time>2026-05-02T17:12:01.888Z</time></trkpt><trkpt lat="40.4566316" lon="15.5420328"><ele>465.0</ele><time>2026-05-02T17:12:02.888Z</time></trkpt><trkpt lat="40.4565374" lon="15.5420503"><ele>465.0</ele><time>2026-05-02T17:12:03.888Z</time></trkpt><trkpt lat="40.4564408" lon="15.542065"><ele>465.0</ele><time>2026-05-02T17:12:04.887Z</time></trkpt><trkpt lat="40.4563349" lon="15.5420731"><ele>465.0</ele><time>2026-05-02T17:12:05.888Z</time></trkpt><trkpt lat="40.4562205" lon="15.5420927"><ele>465.0</ele><time>2026-05-02T17:12:06.887Z</time></trkpt><trkpt lat="40.4561095" lon="15.5421118"><ele>465.0</ele><time>2026-05-02T17:12:07.887Z</time></trkpt><trkpt lat="40.4560023" lon="15.5421362"><ele>465.0</ele><time>2026-05-02T17:12:08.887Z</time></trkpt><trkpt lat="40.4558879" lon="15.542157"><ele>465.0</ele><time>2026-05-02T17:12:09.887Z</time></trkpt><trkpt lat="40.4557713" lon="15.54218"><ele>465.0</ele><time>2026-05-02T17:12:10.887Z</time></trkpt><trkpt lat="40.4556563" lon="15.5422046"><ele>465.0</ele><time>2026-05-02T17:12:11.888Z</time></trkpt><trkpt lat="40.4555427" lon="15.5422183"><ele>465.0</ele><time>2026-05-02T17:12:12.888Z</time></trkpt><trkpt lat="40.4554287" lon="15.5422356"><ele>464.75</ele><time>2026-05-02T17:12:13.888Z</time></trkpt><trkpt lat="40.4553048" lon="15.5422585"><ele>464.5</ele><time>2026-05-02T17:12:14.887Z</time></trkpt><trkpt lat="40.4551793" lon="15.5422833"><ele>464.25</ele><time>2026-05-02T17:12:15.887Z</time></trkpt><trkpt lat="40.4550548" lon="15.5423113"><ele>464.0</ele><time>2026-05-02T17:12:16.888Z</time></trkpt><trkpt lat="40.454928" lon="15.542336"><ele>464.0</ele><time>2026-05-02T17:12:17.888Z</time></trkpt><trkpt lat="40.4548027" lon="15.5423637"><ele>464.0</ele><time>2026-05-02T17:12:18.887Z</time></trkpt><trkpt lat="40.4546798" lon="15.5423839"><ele>464.0</ele><time>2026-05-02T17:12:19.888Z</time></trkpt><trkpt lat="40.4545581" lon="15.5424076"><ele>464.0</ele><time>2026-05-02T17:12:20.888Z</time></trkpt><trkpt lat="40.4544455" lon="15.5424331"><ele>462.75</ele><time>2026-05-02T17:12:21.887Z</time></trkpt><trkpt lat="40.4543341" lon="15.5424545"><ele>461.5</ele><time>2026-05-02T17:12:22.888Z</time></trkpt><trkpt lat="40.4542146" lon="15.5424785"><ele>460.25</ele><time>2026-05-02T17:12:23.888Z</time></trkpt><trkpt lat="40.4540899" lon="15.5425049"><ele>459.0</ele><time>2026-05-02T17:12:24.888Z</time></trkpt><trkpt lat="40.4539593" lon="15.5425283"><ele>459.0</ele><time>2026-05-02T17:12:25.887Z</time></trkpt><trkpt lat="40.4538233" lon="15.5425493"><ele>459.0</ele><time>2026-05-02T17:12:26.888Z</time></trkpt><trkpt lat="40.4536945" lon="15.5425673"><ele>459.0</ele><time>2026-05-02T17:12:27.887Z</time></trkpt><trkpt lat="40.4535613" lon="15.542597"><ele>459.0</ele><time>2026-05-02T17:12:28.888Z</time></trkpt><trkpt lat="40.4534276" lon="15.5426216"><ele>458.75</ele><time>2026-05-02T17:12:29.888Z</time></trkpt><trkpt lat="40.4532959" lon="15.5426472"><ele>458.5</ele><time>2026-05-02T17:12:30.887Z</time></trkpt><trkpt lat="40.4531667" lon="15.5426729"><ele>458.25</ele><time>2026-05-02T17:12:31.888Z</time></trkpt><trkpt lat="40.4530413" lon="15.5426929"><ele>458.0</ele><time>2026-05-02T17:12:32.888Z</time></trkpt><trkpt lat="40.4529102" lon="15.542719"><ele>457.0</ele><time>2026-05-02T17:12:33.888Z</time></trkpt><trkpt lat="40.4527772" lon="15.5427541"><ele>456.0</ele><time>2026-05-02T17:12:34.888Z</time></trkpt><trkpt lat="40.4526408" lon="15.5428009"><ele>455.0</ele><time>2026-05-02T17:12:35.888Z</time></trkpt><trkpt lat="40.4525088" lon="15.5428428"><ele>454.0</ele><time>2026-05-02T17:12:36.887Z</time></trkpt><trkpt lat="40.4523785" lon="15.5428954"><ele>454.5</ele><time>2026-05-02T17:12:37.888Z</time></trkpt><trkpt lat="40.4522454" lon="15.5429455"><ele>455.0</ele><time>2026-05-02T17:12:38.888Z</time></trkpt><trkpt lat="40.4521032" lon="15.5429999"><ele>455.5</ele><time>2026-05-02T17:12:39.888Z</time></trkpt><trkpt lat="40.4519529" lon="15.5430521"><ele>456.0</ele><time>2026-05-02T17:12:40.887Z</time></trkpt><trkpt lat="40.4517952" lon="15.5431054"><ele>456.0</ele><time>2026-05-02T17:12:41.888Z</time></trkpt><trkpt lat="40.4516311" lon="15.5431686"><ele>456.0</ele><time>2026-05-02T17:12:42.888Z</time></trkpt><trkpt lat="40.4514567" lon="15.5432302"><ele>456.0</ele><time>2026-05-02T17:12:43.888Z</time></trkpt><trkpt lat="40.4512879" lon="15.5432894"><ele>454.66666666666663</ele><time>2026-05-02T17:12:44.887Z</time></trkpt><trkpt lat="40.4511313" lon="15.5433484"><ele>453.3333333333333</ele><time>2026-05-02T17:12:45.888Z</time></trkpt><trkpt lat="40.4509885" lon="15.5434145"><ele>452.0</ele><time>2026-05-02T17:12:46.887Z</time></trkpt><trkpt lat="40.4508517" lon="15.5434917"><ele>452.0</ele><time>2026-05-02T17:12:47.888Z</time></trkpt><trkpt lat="40.4507202" lon="15.5435685"><ele>452.0</ele><time>2026-05-02T17:12:48.888Z</time></trkpt><trkpt lat="40.4506016" lon="15.5436354"><ele>452.0</ele><time>2026-05-02T17:12:49.888Z</time></trkpt><trkpt lat="40.450484" lon="15.5437149"><ele>452.0</ele><time>2026-05-02T17:12:50.888Z</time></trkpt><trkpt lat="40.4503703" lon="15.5438075"><ele>452.75</ele><time>2026-05-02T17:12:51.887Z</time></trkpt><trkpt lat="40.4502505" lon="15.543905"><ele>453.5</ele><time>2026-05-02T17:12:52.888Z</time></trkpt><trkpt lat="40.4501268" lon="15.5440054"><ele>454.25</ele><time>2026-05-02T17:12:53.888Z</time></trkpt><trkpt lat="40.4500125" lon="15.544097"><ele>455.0</ele><time>2026-05-02T17:12:54.888Z</time></trkpt><trkpt lat="40.4499059" lon="15.5441875"><ele>455.0</ele><time>2026-05-02T17:12:55.888Z</time></trkpt><trkpt lat="40.4498089" lon="15.5442747"><ele>455.0</ele><time>2026-05-02T17:12:56.888Z</time></trkpt><trkpt lat="40.4497284" lon="15.5443469"><ele>455.0</ele><time>2026-05-02T17:12:57.888Z</time></trkpt><trkpt lat="40.4496621" lon="15.5444018"><ele>455.0</ele><time>2026-05-02T17:12:58.888Z</time></trkpt><trkpt lat="40.4495763" lon="15.5444865"><ele>455.0</ele><time>2026-05-02T17:13:00.887Z</time></trkpt><trkpt lat="40.4495077" lon="15.5445379"><ele>454.2</ele><time>2026-05-02T17:13:02.888Z</time></trkpt><trkpt lat="40.4494156" lon="15.5445098"><ele>453.4</ele><time>2026-05-02T17:13:05.888Z</time></trkpt><trkpt lat="40.4493494" lon="15.5444081"><ele>452.6</ele><time>2026-05-02T17:13:07.887Z</time></trkpt><trkpt lat="40.4492997" lon="15.5442872"><ele>451.8</ele><time>2026-05-02T17:13:09.887Z</time></trkpt><trkpt lat="40.4492383" lon="15.5441836"><ele>451.0</ele><time>2026-05-02T17:13:11.888Z</time></trkpt><trkpt lat="40.4491927" lon="15.5440994"><ele>451.0</ele><time>2026-05-02T17:13:13.888Z</time></trkpt><trkpt lat="40.4491334" lon="15.5440468"><ele>451.0</ele><time>2026-05-02T17:13:15.888Z</time></trkpt><trkpt lat="40.449074" lon="15.5440109"><ele>451.0</ele><time>2026-05-02T17:13:17.888Z</time></trkpt><trkpt lat="40.4490104" lon="15.5439795"><ele>451.0</ele><time>2026-05-02T17:13:20.888Z</time></trkpt><trkpt lat="40.4489333" lon="15.5439834"><ele>451.0</ele><time>2026-05-02T17:13:25.887Z</time></trkpt><trkpt lat="40.4489709" lon="15.5440572"><ele>451.0</ele><time>2026-05-02T17:13:31.888Z</time></trkpt><trkpt lat="40.449045" lon="15.5440792"><ele>451.0</ele><time>2026-05-02T17:15:46.887Z</time></trkpt><trkpt lat="40.4491034" lon="15.5441117"><ele>451.0</ele><time>2026-05-02T17:15:47.888Z</time></trkpt><trkpt lat="40.4491635" lon="15.5441769"><ele>451.0</ele><time>2026-05-02T17:15:48.887Z</time></trkpt><trkpt lat="40.4492362" lon="15.5442909"><ele>451.0</ele><time>2026-05-02T17:15:49.888Z</time></trkpt><trkpt lat="40.4493019" lon="15.5444248"><ele>451.0</ele><time>2026-05-02T17:15:50.888Z</time></trkpt><trkpt lat="40.4493435" lon="15.5445376"><ele>451.0</ele><time>2026-05-02T17:15:51.888Z</time></trkpt><trkpt lat="40.4493738" lon="15.5446214"><ele>451.75</ele><time>2026-05-02T17:15:52.888Z</time></trkpt><trkpt lat="40.4493717" lon="15.5447179"><ele>452.5</ele><time>2026-05-02T17:15:54.887Z</time></trkpt><trkpt lat="40.4492544" lon="15.5448714"><ele>453.25</ele><time>2026-05-02T17:15:56.887Z</time></trkpt><trkpt lat="40.4491317" lon="15.5449986"><ele>454.0</ele><time>2026-05-02T17:15:57.887Z</time></trkpt><trkpt lat="40.4489421" lon="15.545145"><ele>455.0</ele><time>2026-05-02T17:15:58.888Z</time></trkpt><trkpt lat="40.4487103" lon="15.5453243"><ele>456.0</ele><time>2026-05-02T17:15:59.888Z</time></trkpt><trkpt lat="40.4484943" lon="15.5455038"><ele>456.0</ele><time>2026-05-02T17:16:00.888Z</time></trkpt><trkpt lat="40.4482946" lon="15.5456439"><ele>456.0</ele><time>2026-05-02T17:16:01.888Z</time></trkpt><trkpt lat="40.4481232" lon="15.5457612"><ele>456.0</ele><time>2026-05-02T17:16:02.888Z</time></trkpt><trkpt lat="40.4479734" lon="15.5458644"><ele>454.33333333333337</ele><time>2026-05-02T17:16:03.888Z</time></trkpt><trkpt lat="40.4478228" lon="15.5459594"><ele>452.6666666666667</ele><time>2026-05-02T17:16:04.888Z</time></trkpt><trkpt lat="40.4476447" lon="15.5460662"><ele>451.0</ele><time>2026-05-02T17:16:05.888Z</time></trkpt><trkpt lat="40.4474351" lon="15.5461842"><ele>453.0</ele><time>2026-05-02T17:16:06.888Z</time></trkpt><trkpt lat="40.4472069" lon="15.5463187"><ele>455.0</ele><time>2026-05-02T17:16:07.888Z</time></trkpt><trkpt lat="40.4469732" lon="15.5464727"><ele>455.0</ele><time>2026-05-02T17:16:08.888Z</time></trkpt><trkpt lat="40.4467547" lon="15.5466096"><ele>455.0</ele><time>2026-05-02T17:16:09.888Z</time></trkpt><trkpt lat="40.4465661" lon="15.5467346"><ele>455.0</ele><time>2026-05-02T17:16:10.887Z</time></trkpt><trkpt lat="40.4463799" lon="15.5468352"><ele>455.0</ele><time>2026-05-02T17:16:11.888Z</time></trkpt><trkpt lat="40.4461757" lon="15.5469527"><ele>455.0</ele><time>2026-05-02T17:16:12.888Z</time></trkpt><trkpt lat="40.4459628" lon="15.5470701"><ele>456.66666666666663</ele><time>2026-05-02T17:16:13.888Z</time></trkpt><trkpt lat="40.4457641" lon="15.5471927"><ele>458.33333333333337</ele><time>2026-05-02T17:16:14.888Z</time></trkpt><trkpt lat="40.4455804" lon="15.5473057"><ele>460.0</ele><time>2026-05-02T17:16:15.888Z</time></trkpt><trkpt lat="40.4453815" lon="15.5474204"><ele>460.0</ele><time>2026-05-02T17:16:16.887Z</time></trkpt><trkpt lat="40.4451883" lon="15.5475519"><ele>460.0</ele><time>2026-05-02T17:16:17.887Z</time></trkpt><trkpt lat="40.4449885" lon="15.5476785"><ele>460.0</ele><time>2026-05-02T17:16:18.887Z</time></trkpt><trkpt lat="40.4447921" lon="15.5477977"><ele>460.0</ele><time>2026-05-02T17:16:19.888Z</time></trkpt><trkpt lat="40.4445999" lon="15.5479183"><ele>460.0</ele><time>2026-05-02T17:16:20.888Z</time></trkpt><trkpt lat="40.4444085" lon="15.5480502"><ele>460.0</ele><time>2026-05-02T17:16:21.888Z</time></trkpt><trkpt lat="40.4442199" lon="15.5481854"><ele>460.0</ele><time>2026-05-02T17:16:22.888Z</time></trkpt><trkpt lat="40.4440404" lon="15.5483146"><ele>460.0</ele><time>2026-05-02T17:16:23.888Z</time></trkpt><trkpt lat="40.4438702" lon="15.5484351"><ele>460.0</ele><time>2026-05-02T17:16:24.887Z</time></trkpt><trkpt lat="40.4437047" lon="15.5485503"><ele>459.6666666666667</ele><time>2026-05-02T17:16:25.888Z</time></trkpt><trkpt lat="40.4435362" lon="15.5486759"><ele>459.33333333333337</ele><time>2026-05-02T17:16:26.888Z</time></trkpt><trkpt lat="40.443378" lon="15.548791"><ele>459.0</ele><time>2026-05-02T17:16:27.888Z</time></trkpt><trkpt lat="40.4432227" lon="15.5488996"><ele>459.66666666666663</ele><time>2026-05-02T17:16:28.887Z</time></trkpt><trkpt lat="40.4430664" lon="15.549015"><ele>460.3333333333333</ele><time>2026-05-02T17:16:29.888Z</time></trkpt><trkpt lat="40.442911" lon="15.5491274"><ele>461.0</ele><time>2026-05-02T17:16:30.887Z</time></trkpt><trkpt lat="40.442755" lon="15.5492318"><ele>461.0</ele><time>2026-05-02T17:16:31.888Z</time></trkpt><trkpt lat="40.442598" lon="15.5493362"><ele>461.0</ele><time>2026-05-02T17:16:32.887Z</time></trkpt><trkpt lat="40.4424357" lon="15.5494523"><ele>461.0</ele><time>2026-05-02T17:16:33.888Z</time></trkpt><trkpt lat="40.4422769" lon="15.5495604"><ele>461.66666666666663</ele><time>2026-05-02T17:16:34.887Z</time></trkpt><trkpt lat="40.4421184" lon="15.5496729"><ele>462.33333333333337</ele><time>2026-05-02T17:16:35.887Z</time></trkpt><trkpt lat="40.4419614" lon="15.5497828"><ele>463.0</ele><time>2026-05-02T17:16:36.888Z</time></trkpt><trkpt lat="40.4418004" lon="15.5498983"><ele>463.0</ele><time>2026-05-02T17:16:37.888Z</time></trkpt><trkpt lat="40.4416359" lon="15.5500283"><ele>463.0</ele><time>2026-05-02T17:16:38.888Z</time></trkpt><trkpt lat="40.4414719" lon="15.5501411"><ele>463.0</ele><time>2026-05-02T17:16:39.887Z</time></trkpt><trkpt lat="40.441313" lon="15.550247"><ele>463.0</ele><time>2026-05-02T17:16:40.888Z</time></trkpt><trkpt lat="40.4411573" lon="15.5503592"><ele>463.0</ele><time>2026-05-02T17:16:41.888Z</time></trkpt><trkpt lat="40.4409969" lon="15.5504765"><ele>463.0</ele><time>2026-05-02T17:16:42.888Z</time></trkpt><trkpt lat="40.440841" lon="15.550584"><ele>463.0</ele><time>2026-05-02T17:16:43.888Z</time></trkpt><trkpt lat="40.4406816" lon="15.5506909"><ele>463.0</ele><time>2026-05-02T17:16:44.888Z</time></trkpt><trkpt lat="40.4405173" lon="15.5508033"><ele>463.0</ele><time>2026-05-02T17:16:45.888Z</time></trkpt><trkpt lat="40.4403529" lon="15.5509049"><ele>463.0</ele><time>2026-05-02T17:16:46.887Z</time></trkpt><trkpt lat="40.4402089" lon="15.5510036"><ele>463.0</ele><time>2026-05-02T17:16:47.888Z</time></trkpt><trkpt lat="40.4400658" lon="15.5510997"><ele>463.0</ele><time>2026-05-02T17:16:48.887Z</time></trkpt><trkpt lat="40.4399189" lon="15.5511822"><ele>463.0</ele><time>2026-05-02T17:16:49.888Z</time></trkpt><trkpt lat="40.4397472" lon="15.5512528"><ele>463.0</ele><time>2026-05-02T17:16:50.887Z</time></trkpt><trkpt lat="40.4395654" lon="15.5513174"><ele>463.0</ele><time>2026-05-02T17:16:51.888Z</time></trkpt><trkpt lat="40.4393742" lon="15.5513898"><ele>463.0</ele><time>2026-05-02T17:16:52.888Z</time></trkpt><trkpt lat="40.439189" lon="15.5514626"><ele>463.0</ele><time>2026-05-02T17:16:53.888Z</time></trkpt><trkpt lat="40.4390076" lon="15.5515339"><ele>463.0</ele><time>2026-05-02T17:16:54.888Z</time></trkpt><trkpt lat="40.4388251" lon="15.551613"><ele>461.33333333333337</ele><time>2026-05-02T17:16:55.887Z</time></trkpt><trkpt lat="40.4386493" lon="15.5516794"><ele>459.66666666666663</ele><time>2026-05-02T17:16:56.888Z</time></trkpt><trkpt lat="40.4384748" lon="15.5517451"><ele>458.0</ele><time>2026-05-02T17:16:57.888Z</time></trkpt><trkpt lat="40.4383048" lon="15.5518106"><ele>458.0</ele><time>2026-05-02T17:16:58.888Z</time></trkpt><trkpt lat="40.4381368" lon="15.5518782"><ele>458.0</ele><time>2026-05-02T17:16:59.888Z</time></trkpt><trkpt lat="40.4379746" lon="15.5519455"><ele>458.0</ele><time>2026-05-02T17:17:00.888Z</time></trkpt><trkpt lat="40.4378191" lon="15.5520128"><ele>457.0</ele><time>2026-05-02T17:17:01.888Z</time></trkpt><trkpt lat="40.4376539" lon="15.5520769"><ele>456.0</ele><time>2026-05-02T17:17:02.888Z</time></trkpt><trkpt lat="40.4374973" lon="15.5521361"><ele>455.0</ele><time>2026-05-02T17:17:03.888Z</time></trkpt><trkpt lat="40.4373384" lon="15.5521937"><ele>455.0</ele><time>2026-05-02T17:17:04.888Z</time></trkpt><trkpt lat="40.4371861" lon="15.5522552"><ele>455.0</ele><time>2026-05-02T17:17:05.888Z</time></trkpt><trkpt lat="40.437032" lon="15.5523096"><ele>455.0</ele><time>2026-05-02T17:17:06.888Z</time></trkpt><trkpt lat="40.4368849" lon="15.5523713"><ele>454.5</ele><time>2026-05-02T17:17:07.888Z</time></trkpt><trkpt lat="40.4367436" lon="15.5524197"><ele>454.0</ele><time>2026-05-02T17:17:08.888Z</time></trkpt><trkpt lat="40.436615" lon="15.5524722"><ele>453.5</ele><time>2026-05-02T17:17:09.888Z</time></trkpt><trkpt lat="40.4364966" lon="15.552527"><ele>453.0</ele><time>2026-05-02T17:17:10.887Z</time></trkpt><trkpt lat="40.436376" lon="15.5525752"><ele>452.5</ele><time>2026-05-02T17:17:11.888Z</time></trkpt><trkpt lat="40.4362563" lon="15.5526239"><ele>452.0</ele><time>2026-05-02T17:17:12.888Z</time></trkpt><trkpt lat="40.4361238" lon="15.5526794"><ele>451.5</ele><time>2026-05-02T17:17:13.887Z</time></trkpt><trkpt lat="40.43598" lon="15.5527415"><ele>451.0</ele><time>2026-05-02T17:17:14.888Z</time></trkpt><trkpt lat="40.4358318" lon="15.5528007"><ele>451.0</ele><time>2026-05-02T17:17:15.888Z</time></trkpt><trkpt lat="40.435688" lon="15.5528557"><ele>451.0</ele><time>2026-05-02T17:17:16.887Z</time></trkpt><trkpt lat="40.4355544" lon="15.5529148"><ele>451.0</ele><time>2026-05-02T17:17:17.888Z</time></trkpt><trkpt lat="40.4354094" lon="15.5529721"><ele>451.0</ele><time>2026-05-02T17:17:18.888Z</time></trkpt><trkpt lat="40.4352625" lon="15.5530313"><ele>451.33333333333337</ele><time>2026-05-02T17:17:19.888Z</time></trkpt><trkpt lat="40.4351092" lon="15.5530874"><ele>451.66666666666663</ele><time>2026-05-02T17:17:20.888Z</time></trkpt><trkpt lat="40.4349553" lon="15.5531441"><ele>452.0</ele><time>2026-05-02T17:17:21.888Z</time></trkpt><trkpt lat="40.4347968" lon="15.5532159"><ele>452.0</ele><time>2026-05-02T17:17:22.887Z</time></trkpt><trkpt lat="40.4346357" lon="15.5532825"><ele>452.0</ele><time>2026-05-02T17:17:23.888Z</time></trkpt><trkpt lat="40.4344772" lon="15.5533442"><ele>452.0</ele><time>2026-05-02T17:17:24.887Z</time></trkpt><trkpt lat="40.4343207" lon="15.5533967"><ele>452.0</ele><time>2026-05-02T17:17:25.888Z</time></trkpt><trkpt lat="40.4341673" lon="15.5534471"><ele>452.0</ele><time>2026-05-02T17:17:26.888Z</time></trkpt><trkpt lat="40.4340164" lon="15.5534759"><ele>452.0</ele><time>2026-05-02T17:17:27.888Z</time></trkpt><trkpt lat="40.4338614" lon="15.55348"><ele>452.0</ele><time>2026-05-02T17:17:28.888Z</time></trkpt><trkpt lat="40.4337077" lon="15.5534679"><ele>452.0</ele><time>2026-05-02T17:17:29.888Z</time></trkpt><trkpt lat="40.4335485" lon="15.5534568"><ele>452.0</ele><time>2026-05-02T17:17:30.888Z</time></trkpt><trkpt lat="40.4333904" lon="15.5534418"><ele>452.0</ele><time>2026-05-02T17:17:31.888Z</time></trkpt><trkpt lat="40.4332289" lon="15.553431"><ele>452.0</ele><time>2026-05-02T17:17:32.887Z</time></trkpt><trkpt lat="40.4330681" lon="15.553418"><ele>452.0</ele><time>2026-05-02T17:17:33.889Z</time></trkpt><trkpt lat="40.4329095" lon="15.5534047"><ele>452.5</ele><time>2026-05-02T17:17:34.889Z</time></trkpt><trkpt lat="40.4327652" lon="15.5533934"><ele>453.0</ele><time>2026-05-02T17:17:35.889Z</time></trkpt><trkpt lat="40.4326446" lon="15.5533849"><ele>453.5</ele><time>2026-05-02T17:17:36.889Z</time></trkpt><trkpt lat="40.432536" lon="15.5533696"><ele>454.0</ele><time>2026-05-02T17:17:37.888Z</time></trkpt><trkpt lat="40.4324317" lon="15.5533561"><ele>454.0</ele><time>2026-05-02T17:17:38.889Z</time></trkpt><trkpt lat="40.4323224" lon="15.5533427"><ele>454.0</ele><time>2026-05-02T17:17:39.889Z</time></trkpt><trkpt lat="40.4322082" lon="15.5533386"><ele>454.0</ele><time>2026-05-02T17:17:40.889Z</time></trkpt><trkpt lat="40.4320951" lon="15.553337"><ele>454.0</ele><time>2026-05-02T17:17:41.889Z</time></trkpt><trkpt lat="40.4319727" lon="15.5533335"><ele>454.25</ele><time>2026-05-02T17:17:42.888Z</time></trkpt><trkpt lat="40.4318338" lon="15.5533254"><ele>454.5</ele><time>2026-05-02T17:17:43.889Z</time></trkpt><trkpt lat="40.4316893" lon="15.5533128"><ele>454.75</ele><time>2026-05-02T17:17:44.889Z</time></trkpt><trkpt lat="40.4315378" lon="15.5532862"><ele>455.0</ele><time>2026-05-02T17:17:45.889Z</time></trkpt><trkpt lat="40.431373" lon="15.5532649"><ele>454.3333333333333</ele><time>2026-05-02T17:17:46.889Z</time></trkpt><trkpt lat="40.4311976" lon="15.5532513"><ele>453.66666666666663</ele><time>2026-05-02T17:17:47.889Z</time></trkpt><trkpt lat="40.4310218" lon="15.5532315"><ele>453.0</ele><time>2026-05-02T17:17:48.889Z</time></trkpt><trkpt lat="40.4308534" lon="15.55322"><ele>453.0</ele><time>2026-05-02T17:17:49.889Z</time></trkpt><trkpt lat="40.4306916" lon="15.5532112"><ele>453.0</ele><time>2026-05-02T17:17:50.889Z</time></trkpt><trkpt lat="40.430529" lon="15.5531896"><ele>453.0</ele><time>2026-05-02T17:17:51.889Z</time></trkpt><trkpt lat="40.4303697" lon="15.5531778"><ele>452.66666666666663</ele><time>2026-05-02T17:17:52.889Z</time></trkpt><trkpt lat="40.4302168" lon="15.5531568"><ele>452.3333333333333</ele><time>2026-05-02T17:17:53.889Z</time></trkpt><trkpt lat="40.430061" lon="15.5531451"><ele>452.0</ele><time>2026-05-02T17:17:54.889Z</time></trkpt><trkpt lat="40.4298932" lon="15.5531391"><ele>452.0</ele><time>2026-05-02T17:17:55.889Z</time></trkpt><trkpt lat="40.4297261" lon="15.5531277"><ele>452.0</ele><time>2026-05-02T17:17:56.889Z</time></trkpt><trkpt lat="40.4295602" lon="15.5531138"><ele>452.0</ele><time>2026-05-02T17:17:57.889Z</time></trkpt><trkpt lat="40.4293878" lon="15.5530947"><ele>452.0</ele><time>2026-05-02T17:17:58.889Z</time></trkpt><trkpt lat="40.4292155" lon="15.5530819"><ele>452.0</ele><time>2026-05-02T17:17:59.888Z</time></trkpt><trkpt lat="40.429038" lon="15.5530757"><ele>452.0</ele><time>2026-05-02T17:18:00.888Z</time></trkpt><trkpt lat="40.4288681" lon="15.5530606"><ele>451.66666666666663</ele><time>2026-05-02T17:18:01.889Z</time></trkpt><trkpt lat="40.4287043" lon="15.5530414"><ele>451.33333333333337</ele><time>2026-05-02T17:18:02.889Z</time></trkpt><trkpt lat="40.4285439" lon="15.553023"><ele>451.0</ele><time>2026-05-02T17:18:03.888Z</time></trkpt><trkpt lat="40.4283782" lon="15.5530117"><ele>451.0</ele><time>2026-05-02T17:18:04.889Z</time></trkpt><trkpt lat="40.4282283" lon="15.5530015"><ele>451.0</ele><time>2026-05-02T17:18:05.889Z</time></trkpt><trkpt lat="40.428084" lon="15.552986"><ele>451.0</ele><time>2026-05-02T17:18:06.888Z</time></trkpt><trkpt lat="40.4279459" lon="15.5529752"><ele>451.0</ele><time>2026-05-02T17:18:07.889Z</time></trkpt><trkpt lat="40.4278066" lon="15.5529674"><ele>451.0</ele><time>2026-05-02T17:18:08.889Z</time></trkpt><trkpt lat="40.4276694" lon="15.5529611"><ele>451.0</ele><time>2026-05-02T17:18:09.888Z</time></trkpt><trkpt lat="40.4275227" lon="15.5529507"><ele>451.0</ele><time>2026-05-02T17:18:10.888Z</time></trkpt><trkpt lat="40.427379" lon="15.5529387"><ele>451.0</ele><time>2026-05-02T17:18:11.889Z</time></trkpt><trkpt lat="40.4272398" lon="15.5529365"><ele>451.25</ele><time>2026-05-02T17:18:12.889Z</time></trkpt><trkpt lat="40.427096" lon="15.5529325"><ele>451.5</ele><time>2026-05-02T17:18:13.889Z</time></trkpt><trkpt lat="40.4269582" lon="15.5529356"><ele>451.75</ele><time>2026-05-02T17:18:14.889Z</time></trkpt><trkpt lat="40.4268166" lon="15.5529545"><ele>452.0</ele><time>2026-05-02T17:18:15.889Z</time></trkpt><trkpt lat="40.4266695" lon="15.5529865"><ele>452.0</ele><time>2026-05-02T17:18:16.889Z</time></trkpt><trkpt lat="40.4265228" lon="15.5530226"><ele>452.0</ele><time>2026-05-02T17:18:17.889Z</time></trkpt><trkpt lat="40.4263775" lon="15.5530631"><ele>452.0</ele><time>2026-05-02T17:18:18.889Z</time></trkpt><trkpt lat="40.4262335" lon="15.5531094"><ele>452.0</ele><time>2026-05-02T17:18:19.888Z</time></trkpt><trkpt lat="40.4260917" lon="15.5531523"><ele>452.0</ele><time>2026-05-02T17:18:20.889Z</time></trkpt><trkpt lat="40.425953" lon="15.5531913"><ele>452.0</ele><time>2026-05-02T17:18:21.889Z</time></trkpt><trkpt lat="40.4258196" lon="15.5532398"><ele>452.0</ele><time>2026-05-02T17:18:22.888Z</time></trkpt><trkpt lat="40.4256804" lon="15.553285"><ele>452.0</ele><time>2026-05-02T17:18:23.888Z</time></trkpt><trkpt lat="40.4255391" lon="15.5533327"><ele>452.0</ele><time>2026-05-02T17:18:24.889Z</time></trkpt><trkpt lat="40.4253974" lon="15.5533839"><ele>452.0</ele><time>2026-05-02T17:18:25.889Z</time></trkpt><trkpt lat="40.4252568" lon="15.5534328"><ele>452.0</ele><time>2026-05-02T17:18:26.888Z</time></trkpt><trkpt lat="40.4251094" lon="15.5534784"><ele>452.0</ele><time>2026-05-02T17:18:27.889Z</time></trkpt><trkpt lat="40.4249722" lon="15.5535194"><ele>452.0</ele><time>2026-05-02T17:18:28.889Z</time></trkpt><trkpt lat="40.4248284" lon="15.5535666"><ele>452.0</ele><time>2026-05-02T17:18:29.889Z</time></trkpt><trkpt lat="40.4246823" lon="15.5536125"><ele>452.0</ele><time>2026-05-02T17:18:30.888Z</time></trkpt><trkpt lat="40.4245465" lon="15.5536554"><ele>452.0</ele><time>2026-05-02T17:18:31.889Z</time></trkpt><trkpt lat="40.4244223" lon="15.5537011"><ele>453.0</ele><time>2026-05-02T17:18:32.888Z</time></trkpt><trkpt lat="40.4243099" lon="15.553736"><ele>454.0</ele><time>2026-05-02T17:18:33.889Z</time></trkpt><trkpt lat="40.4242036" lon="15.5537794"><ele>455.0</ele><time>2026-05-02T17:18:34.889Z</time></trkpt><trkpt lat="40.4240923" lon="15.5538168"><ele>456.0</ele><time>2026-05-02T17:18:35.889Z</time></trkpt><trkpt lat="40.4239775" lon="15.553855"><ele>456.0</ele><time>2026-05-02T17:18:36.889Z</time></trkpt><trkpt lat="40.4238782" lon="15.5538876"><ele>456.0</ele><time>2026-05-02T17:18:37.889Z</time></trkpt><trkpt lat="40.4237856" lon="15.5539236"><ele>456.0</ele><time>2026-05-02T17:18:38.889Z</time></trkpt><trkpt lat="40.4237037" lon="15.5539514"><ele>456.0</ele><time>2026-05-02T17:18:39.888Z</time></trkpt><trkpt lat="40.4236393" lon="15.5539598"><ele>456.0</ele><time>2026-05-02T17:18:40.889Z</time></trkpt><trkpt lat="40.4235448" lon="15.5538937"><ele>455.6666666666667</ele><time>2026-05-02T17:18:42.889Z</time></trkpt><trkpt lat="40.4235029" lon="15.5537536"><ele>455.33333333333337</ele><time>2026-05-02T17:18:44.889Z</time></trkpt><trkpt lat="40.4234954" lon="15.5536564"><ele>455.0</ele><time>2026-05-02T17:18:54.889Z</time></trkpt><trkpt lat="40.4234628" lon="15.5535797"><ele>454.6666666666667</ele><time>2026-05-02T17:18:55.889Z</time></trkpt><trkpt lat="40.4234257" lon="15.5534798"><ele>454.33333333333337</ele><time>2026-05-02T17:18:56.889Z</time></trkpt><trkpt lat="40.423392" lon="15.5533683"><ele>454.0</ele><time>2026-05-02T17:18:57.889Z</time></trkpt><trkpt lat="40.4233717" lon="15.5532601"><ele>453.6666666666667</ele><time>2026-05-02T17:18:58.889Z</time></trkpt><trkpt lat="40.4233496" lon="15.5531631"><ele>453.33333333333337</ele><time>2026-05-02T17:18:59.889Z</time></trkpt><trkpt lat="40.4233299" lon="15.5530717"><ele>453.0</ele><time>2026-05-02T17:19:00.888Z</time></trkpt><trkpt lat="40.4233114" lon="15.5529801"><ele>452.66666666666663</ele><time>2026-05-02T17:19:01.889Z</time></trkpt><trkpt lat="40.4232918" lon="15.5528862"><ele>452.3333333333333</ele><time>2026-05-02T17:19:02.889Z</time></trkpt><trkpt lat="40.4232957" lon="15.5527361"><ele>452.0</ele><time>2026-05-02T17:19:04.889Z</time></trkpt><trkpt lat="40.4232766" lon="15.552646"><ele>452.0</ele><time>2026-05-02T17:19:06.889Z</time></trkpt><trkpt lat="40.423212" lon="15.5526584"><ele>452.00000000000006</ele><time>2026-05-02T17:19:08.889Z</time></trkpt><trkpt lat="40.4231832" lon="15.5527742"><ele>452.00000000000006</ele><time>2026-05-02T17:19:10.889Z</time></trkpt><trkpt lat="40.4231965" lon="15.5528724"><ele>452.0</ele><time>2026-05-02T17:19:11.888Z</time></trkpt><trkpt lat="40.4232271" lon="15.5530155"><ele>452.0</ele><time>2026-05-02T17:19:12.889Z</time></trkpt><trkpt lat="40.4232844" lon="15.553208"><ele>452.0</ele><time>2026-05-02T17:19:13.889Z</time></trkpt><trkpt lat="40.4233496" lon="15.553409"><ele>452.0</ele><time>2026-05-02T17:19:14.888Z</time></trkpt><trkpt lat="40.4234096" lon="15.5535712"><ele>452.0</ele><time>2026-05-02T17:19:15.888Z</time></trkpt><trkpt lat="40.4234568" lon="15.5536949"><ele>452.0</ele><time>2026-05-02T17:19:16.888Z</time></trkpt><trkpt lat="40.4234999" lon="15.5537938"><ele>452.40000000000003</ele><time>2026-05-02T17:19:17.889Z</time></trkpt><trkpt lat="40.4235383" lon="15.5538808"><ele>452.80000000000007</ele><time>2026-05-02T17:19:18.889Z</time></trkpt><trkpt lat="40.4236095" lon="15.5539816"><ele>453.2</ele><time>2026-05-02T17:19:20.889Z</time></trkpt><trkpt lat="40.4236978" lon="15.5539984"><ele>453.6</ele><time>2026-05-02T17:19:23.889Z</time></trkpt><trkpt lat="40.4237799" lon="15.5539891"><ele>454.0</ele><time>2026-05-02T17:19:24.889Z</time></trkpt><trkpt lat="40.4239105" lon="15.5539558"><ele>454.6666666666667</ele><time>2026-05-02T17:19:25.888Z</time></trkpt><trkpt lat="40.4241049" lon="15.553887"><ele>455.33333333333337</ele><time>2026-05-02T17:19:26.889Z</time></trkpt><trkpt lat="40.4243311" lon="15.5537935"><ele>456.0</ele><time>2026-05-02T17:19:27.889Z</time></trkpt><trkpt lat="40.4245467" lon="15.5537127"><ele>454.66666666666663</ele><time>2026-05-02T17:19:28.889Z</time></trkpt><trkpt lat="40.4247372" lon="15.5536468"><ele>453.3333333333333</ele><time>2026-05-02T17:19:29.889Z</time></trkpt><trkpt lat="40.4249173" lon="15.5535872"><ele>452.0</ele><time>2026-05-02T17:19:30.888Z</time></trkpt><trkpt lat="40.4250929" lon="15.5535266"><ele>452.0</ele><time>2026-05-02T17:19:31.889Z</time></trkpt><trkpt lat="40.4252558" lon="15.5534787"><ele>452.0</ele><time>2026-05-02T17:19:32.889Z</time></trkpt><trkpt lat="40.4254121" lon="15.5534316"><ele>452.0</ele><time>2026-05-02T17:19:33.889Z</time></trkpt><trkpt lat="40.4255604" lon="15.5533846"><ele>452.0</ele><time>2026-05-02T17:19:34.889Z</time></trkpt><trkpt lat="40.4257068" lon="15.5533347"><ele>452.0</ele><time>2026-05-02T17:19:35.889Z</time></trkpt><trkpt lat="40.4258489" lon="15.5532904"><ele>452.0</ele><time>2026-05-02T17:19:36.889Z</time></trkpt><trkpt lat="40.4259885" lon="15.5532511"><ele>452.0</ele><time>2026-05-02T17:19:37.889Z</time></trkpt><trkpt lat="40.4261257" lon="15.5532097"><ele>452.0</ele><time>2026-05-02T17:19:38.888Z</time></trkpt><trkpt lat="40.4262682" lon="15.5531633"><ele>452.0</ele><time>2026-05-02T17:19:39.889Z</time></trkpt><trkpt lat="40.4264119" lon="15.5531221"><ele>452.0</ele><time>2026-05-02T17:19:40.889Z</time></trkpt><trkpt lat="40.4265566" lon="15.5530798"><ele>452.0</ele><time>2026-05-02T17:19:41.889Z</time></trkpt><trkpt lat="40.426709" lon="15.5530479"><ele>452.0</ele><time>2026-05-02T17:19:42.888Z</time></trkpt><trkpt lat="40.4268659" lon="15.5530227"><ele>452.0</ele><time>2026-05-02T17:19:43.889Z</time></trkpt><trkpt lat="40.427029" lon="15.5530058"><ele>452.0</ele><time>2026-05-02T17:19:44.888Z</time></trkpt><trkpt lat="40.4271995" lon="15.5530013"><ele>451.66666666666663</ele><time>2026-05-02T17:19:45.889Z</time></trkpt><trkpt lat="40.4273762" lon="15.5529968"><ele>451.33333333333337</ele><time>2026-05-02T17:19:46.889Z</time></trkpt><trkpt lat="40.4275469" lon="15.5530009"><ele>451.0</ele><time>2026-05-02T17:19:47.888Z</time></trkpt><trkpt lat="40.427706" lon="15.5530148"><ele>451.0</ele><time>2026-05-02T17:19:48.889Z</time></trkpt><trkpt lat="40.4278684" lon="15.5530288"><ele>451.0</ele><time>2026-05-02T17:19:49.888Z</time></trkpt><trkpt lat="40.4280418" lon="15.5530415"><ele>451.0</ele><time>2026-05-02T17:19:50.889Z</time></trkpt><trkpt lat="40.4282114" lon="15.5530575"><ele>451.0</ele><time>2026-05-02T17:19:51.889Z</time></trkpt><trkpt lat="40.4283651" lon="15.5530824"><ele>451.0</ele><time>2026-05-02T17:19:52.889Z</time></trkpt><trkpt lat="40.428525" lon="15.5530968"><ele>451.0</ele><time>2026-05-02T17:19:53.889Z</time></trkpt><trkpt lat="40.4286797" lon="15.5531055"><ele>451.25</ele><time>2026-05-02T17:19:54.889Z</time></trkpt><trkpt lat="40.428828" lon="15.5531146"><ele>451.5</ele><time>2026-05-02T17:19:55.888Z</time></trkpt><trkpt lat="40.4289634" lon="15.5531272"><ele>451.75</ele><time>2026-05-02T17:19:56.889Z</time></trkpt><trkpt lat="40.4290817" lon="15.5531347"><ele>452.0</ele><time>2026-05-02T17:19:57.888Z</time></trkpt><trkpt lat="40.4291941" lon="15.5531312"><ele>452.0</ele><time>2026-05-02T17:19:58.889Z</time></trkpt><trkpt lat="40.4293206" lon="15.5531423"><ele>452.0</ele><time>2026-05-02T17:19:59.889Z</time></trkpt><trkpt lat="40.4294644" lon="15.5531699"><ele>452.0</ele><time>2026-05-02T17:20:00.889Z</time></trkpt><trkpt lat="40.4296198" lon="15.5531962"><ele>452.0</ele><time>2026-05-02T17:20:01.889Z</time></trkpt><trkpt lat="40.4297971" lon="15.5532065"><ele>452.0</ele><time>2026-05-02T17:20:02.889Z</time></trkpt><trkpt lat="40.4299802" lon="15.5532141"><ele>452.0</ele><time>2026-05-02T17:20:03.889Z</time></trkpt><trkpt lat="40.4301626" lon="15.5532273"><ele>452.0</ele><time>2026-05-02T17:20:04.889Z</time></trkpt><trkpt lat="40.430368" lon="15.5532401"><ele>452.5</ele><time>2026-05-02T17:20:05.889Z</time></trkpt><trkpt lat="40.4305926" lon="15.5532564"><ele>453.0</ele><time>2026-05-02T17:20:06.889Z</time></trkpt><trkpt lat="40.4308202" lon="15.5532717"><ele>453.0</ele><time>2026-05-02T17:20:07.889Z</time></trkpt><trkpt lat="40.4310557" lon="15.5532888"><ele>453.0</ele><time>2026-05-02T17:20:08.889Z</time></trkpt><trkpt lat="40.4312841" lon="15.5533049"><ele>453.66666666666663</ele><time>2026-05-02T17:20:09.889Z</time></trkpt><trkpt lat="40.4314924" lon="15.5533227"><ele>454.3333333333333</ele><time>2026-05-02T17:20:10.889Z</time></trkpt><trkpt lat="40.4317023" lon="15.553341"><ele>455.0</ele><time>2026-05-02T17:20:11.889Z</time></trkpt><trkpt lat="40.4319136" lon="15.5533643"><ele>455.0</ele><time>2026-05-02T17:20:12.889Z</time></trkpt><trkpt lat="40.4321224" lon="15.5533826"><ele>455.0</ele><time>2026-05-02T17:20:13.889Z</time></trkpt><trkpt lat="40.432336" lon="15.5534031"><ele>455.0</ele><time>2026-05-02T17:20:14.889Z</time></trkpt><trkpt lat="40.4325462" lon="15.5534203"><ele>454.66666666666663</ele><time>2026-05-02T17:20:15.889Z</time></trkpt><trkpt lat="40.4327522" lon="15.5534399"><ele>454.33333333333337</ele><time>2026-05-02T17:20:16.889Z</time></trkpt><trkpt lat="40.432957" lon="15.5534576"><ele>454.0</ele><time>2026-05-02T17:20:17.889Z</time></trkpt><trkpt lat="40.4331603" lon="15.5534731"><ele>453.33333333333337</ele><time>2026-05-02T17:20:18.889Z</time></trkpt><trkpt lat="40.4333608" lon="15.5534867"><ele>452.66666666666663</ele><time>2026-05-02T17:20:19.889Z</time></trkpt><trkpt lat="40.4335652" lon="15.5535015"><ele>452.0</ele><time>2026-05-02T17:20:20.889Z</time></trkpt><trkpt lat="40.433763" lon="15.553522"><ele>452.0</ele><time>2026-05-02T17:20:21.889Z</time></trkpt><trkpt lat="40.433962" lon="15.5535295"><ele>452.0</ele><time>2026-05-02T17:20:22.889Z</time></trkpt><trkpt lat="40.4341662" lon="15.5535031"><ele>452.0</ele><time>2026-05-02T17:20:23.888Z</time></trkpt><trkpt lat="40.4343595" lon="15.5534518"><ele>452.0</ele><time>2026-05-02T17:20:24.889Z</time></trkpt><trkpt lat="40.4345397" lon="15.553376"><ele>452.0</ele><time>2026-05-02T17:20:25.889Z</time></trkpt><trkpt lat="40.4347189" lon="15.5532997"><ele>452.0</ele><time>2026-05-02T17:20:26.889Z</time></trkpt><trkpt lat="40.434897" lon="15.5532275"><ele>452.0</ele><time>2026-05-02T17:20:27.889Z</time></trkpt><trkpt lat="40.4350553" lon="15.5531613"><ele>452.0</ele><time>2026-05-02T17:20:28.889Z</time></trkpt><trkpt lat="40.4351994" lon="15.5531002"><ele>452.0</ele><time>2026-05-02T17:20:29.889Z</time></trkpt><trkpt lat="40.4353233" lon="15.5530481"><ele>452.0</ele><time>2026-05-02T17:20:30.888Z</time></trkpt><trkpt lat="40.4354522" lon="15.5529987"><ele>452.0</ele><time>2026-05-02T17:20:31.888Z</time></trkpt><trkpt lat="40.4355702" lon="15.552951"><ele>452.0</ele><time>2026-05-02T17:20:32.889Z</time></trkpt><trkpt lat="40.4356734" lon="15.5529182"><ele>452.0</ele><time>2026-05-02T17:20:33.888Z</time></trkpt><trkpt lat="40.4357795" lon="15.5528817"><ele>452.0</ele><time>2026-05-02T17:20:34.889Z</time></trkpt><trkpt lat="40.4359104" lon="15.5528141"><ele>451.66666666666663</ele><time>2026-05-02T17:20:35.889Z</time></trkpt><trkpt lat="40.4360749" lon="15.5527311"><ele>451.33333333333337</ele><time>2026-05-02T17:20:36.889Z</time></trkpt><trkpt lat="40.4362692" lon="15.5526604"><ele>451.0</ele><time>2026-05-02T17:20:37.889Z</time></trkpt><trkpt lat="40.4364824" lon="15.5525873"><ele>452.0</ele><time>2026-05-02T17:20:38.889Z</time></trkpt><trkpt lat="40.4367172" lon="15.5524999"><ele>453.0</ele><time>2026-05-02T17:20:39.889Z</time></trkpt><trkpt lat="40.4369676" lon="15.5523993"><ele>454.0</ele><time>2026-05-02T17:20:40.889Z</time></trkpt><trkpt lat="40.4372303" lon="15.5522981"><ele>455.0</ele><time>2026-05-02T17:20:41.889Z</time></trkpt><trkpt lat="40.4374866" lon="15.552187"><ele>455.0</ele><time>2026-05-02T17:20:42.889Z</time></trkpt><trkpt lat="40.4377152" lon="15.552092"><ele>455.0</ele><time>2026-05-02T17:20:43.889Z</time></trkpt><trkpt lat="40.4379263" lon="15.5520055"><ele>456.0</ele><time>2026-05-02T17:20:44.889Z</time></trkpt><trkpt lat="40.4381211" lon="15.5519312"><ele>457.0</ele><time>2026-05-02T17:20:45.889Z</time></trkpt><trkpt lat="40.4383103" lon="15.5518542"><ele>458.0</ele><time>2026-05-02T17:20:46.889Z</time></trkpt><trkpt lat="40.4385111" lon="15.5517636"><ele>458.0</ele><time>2026-05-02T17:20:47.889Z</time></trkpt><trkpt lat="40.4387252" lon="15.5516709"><ele>458.0</ele><time>2026-05-02T17:20:48.888Z</time></trkpt><trkpt lat="40.438961" lon="15.5515742"><ele>460.5</ele><time>2026-05-02T17:20:49.889Z</time></trkpt><trkpt lat="40.4392088" lon="15.551488"><ele>463.0</ele><time>2026-05-02T17:20:50.889Z</time></trkpt><trkpt lat="40.4394363" lon="15.5514177"><ele>463.0</ele><time>2026-05-02T17:20:51.889Z</time></trkpt><trkpt lat="40.4396478" lon="15.5513366"><ele>463.0</ele><time>2026-05-02T17:20:52.889Z</time></trkpt><trkpt lat="40.4398366" lon="15.5512638"><ele>463.0</ele><time>2026-05-02T17:20:53.889Z</time></trkpt><trkpt lat="40.4400145" lon="15.5511878"><ele>463.0</ele><time>2026-05-02T17:20:54.888Z</time></trkpt><trkpt lat="40.4401831" lon="15.5511062"><ele>463.0</ele><time>2026-05-02T17:20:55.889Z</time></trkpt><trkpt lat="40.4403431" lon="15.5510119"><ele>463.0</ele><time>2026-05-02T17:20:56.889Z</time></trkpt><trkpt lat="40.4404897" lon="15.5509147"><ele>464.33333333333337</ele><time>2026-05-02T17:20:57.889Z</time></trkpt><trkpt lat="40.4406365" lon="15.5508161"><ele>465.66666666666663</ele><time>2026-05-02T17:20:58.889Z</time></trkpt><trkpt lat="40.4407848" lon="15.5507056"><ele>467.0</ele><time>2026-05-02T17:20:59.888Z</time></trkpt><trkpt lat="40.440926" lon="15.5505977"><ele>467.0</ele><time>2026-05-02T17:21:00.888Z</time></trkpt><trkpt lat="40.4410633" lon="15.5504927"><ele>467.0</ele><time>2026-05-02T17:21:01.889Z</time></trkpt><trkpt lat="40.4411862" lon="15.5504096"><ele>467.0</ele><time>2026-05-02T17:21:02.889Z</time></trkpt><trkpt lat="40.441312" lon="15.5503209"><ele>467.0</ele><time>2026-05-02T17:21:03.889Z</time></trkpt><trkpt lat="40.441432" lon="15.5502374"><ele>466.0</ele><time>2026-05-02T17:21:04.889Z</time></trkpt><trkpt lat="40.4415476" lon="15.5501612"><ele>465.0</ele><time>2026-05-02T17:21:05.889Z</time></trkpt><trkpt lat="40.4416565" lon="15.5500777"><ele>464.0</ele><time>2026-05-02T17:21:06.889Z</time></trkpt><trkpt lat="40.4417669" lon="15.5499919"><ele>463.0</ele><time>2026-05-02T17:21:07.889Z</time></trkpt><trkpt lat="40.4418906" lon="15.5499004"><ele>463.0</ele><time>2026-05-02T17:21:08.889Z</time></trkpt><trkpt lat="40.4420254" lon="15.549816"><ele>463.0</ele><time>2026-05-02T17:21:09.889Z</time></trkpt><trkpt lat="40.4421566" lon="15.5497271"><ele>463.0</ele><time>2026-05-02T17:21:10.889Z</time></trkpt><trkpt lat="40.4422667" lon="15.5496434"><ele>463.0</ele><time>2026-05-02T17:21:11.889Z</time></trkpt><trkpt lat="40.4423629" lon="15.5495736"><ele>462.5</ele><time>2026-05-02T17:21:12.889Z</time></trkpt><trkpt lat="40.4424511" lon="15.5495191"><ele>462.0</ele><time>2026-05-02T17:21:13.889Z</time></trkpt><trkpt lat="40.442546" lon="15.549449"><ele>461.5</ele><time>2026-05-02T17:21:14.888Z</time></trkpt><trkpt lat="40.4426524" lon="15.5493713"><ele>461.0</ele><time>2026-05-02T17:21:15.889Z</time></trkpt><trkpt lat="40.4427734" lon="15.5492805"><ele>461.0</ele><time>2026-05-02T17:21:16.889Z</time></trkpt><trkpt lat="40.4428903" lon="15.5491969"><ele>461.0</ele><time>2026-05-02T17:21:17.889Z</time></trkpt><trkpt lat="40.4430009" lon="15.5491269"><ele>461.0</ele><time>2026-05-02T17:21:18.889Z</time></trkpt><trkpt lat="40.4431115" lon="15.5490585"><ele>461.0</ele><time>2026-05-02T17:21:19.889Z</time></trkpt><trkpt lat="40.44323" lon="15.5489821"><ele>461.25</ele><time>2026-05-02T17:21:20.888Z</time></trkpt><trkpt lat="40.4433556" lon="15.5488973"><ele>461.5</ele><time>2026-05-02T17:21:21.888Z</time></trkpt><trkpt lat="40.443477" lon="15.5488048"><ele>461.75</ele><time>2026-05-02T17:21:22.889Z</time></trkpt><trkpt lat="40.4436005" lon="15.5487076"><ele>462.0</ele><time>2026-05-02T17:21:23.888Z</time></trkpt><trkpt lat="40.4437259" lon="15.5486046"><ele>461.33333333333337</ele><time>2026-05-02T17:21:24.888Z</time></trkpt><trkpt lat="40.4438677" lon="15.5485002"><ele>460.6666666666667</ele><time>2026-05-02T17:21:25.888Z</time></trkpt><trkpt lat="40.4440161" lon="15.5484026"><ele>460.0</ele><time>2026-05-02T17:21:26.889Z</time></trkpt><trkpt lat="40.4441694" lon="15.5482968"><ele>460.0</ele><time>2026-05-02T17:21:27.889Z</time></trkpt><trkpt lat="40.4443147" lon="15.5482057"><ele>460.0</ele><time>2026-05-02T17:21:28.888Z</time></trkpt><trkpt lat="40.4444444" lon="15.5481186"><ele>460.0</ele><time>2026-05-02T17:21:29.889Z</time></trkpt><trkpt lat="40.4445695" lon="15.5480308"><ele>460.0</ele><time>2026-05-02T17:21:30.889Z</time></trkpt><trkpt lat="40.4447007" lon="15.5479384"><ele>460.0</ele><time>2026-05-02T17:21:31.889Z</time></trkpt><trkpt lat="40.4448394" lon="15.5478492"><ele>460.0</ele><time>2026-05-02T17:21:32.889Z</time></trkpt><trkpt lat="40.444978" lon="15.5477594"><ele>460.0</ele><time>2026-05-02T17:21:33.889Z</time></trkpt><trkpt lat="40.4451186" lon="15.5476718"><ele>460.0</ele><time>2026-05-02T17:21:34.889Z</time></trkpt><trkpt lat="40.4452665" lon="15.5475803"><ele>460.0</ele><time>2026-05-02T17:21:35.888Z</time></trkpt><trkpt lat="40.4454174" lon="15.5474901"><ele>460.0</ele><time>2026-05-02T17:21:36.889Z</time></trkpt><trkpt lat="40.4455725" lon="15.547399"><ele>460.0</ele><time>2026-05-02T17:21:37.889Z</time></trkpt><trkpt lat="40.4457204" lon="15.5473032"><ele>460.0</ele><time>2026-05-02T17:21:38.888Z</time></trkpt><trkpt lat="40.4458643" lon="15.547203"><ele>460.0</ele><time>2026-05-02T17:21:39.888Z</time></trkpt><trkpt lat="40.4459947" lon="15.547143"><ele>460.0</ele><time>2026-05-02T17:21:40.889Z</time></trkpt><trkpt lat="40.4461404" lon="15.5470549"><ele>460.0</ele><time>2026-05-02T17:21:41.888Z</time></trkpt><trkpt lat="40.4462882" lon="15.5469515"><ele>460.0</ele><time>2026-05-02T17:21:42.888Z</time></trkpt><trkpt lat="40.4464602" lon="15.5468314"><ele>458.33333333333337</ele><time>2026-05-02T17:21:43.889Z</time></trkpt><trkpt lat="40.4466563" lon="15.5467078"><ele>456.66666666666663</ele><time>2026-05-02T17:21:44.889Z</time></trkpt><trkpt lat="40.4468651" lon="15.5465962"><ele>455.0</ele><time>2026-05-02T17:21:45.889Z</time></trkpt><trkpt lat="40.4470754" lon="15.5464754"><ele>453.0</ele><time>2026-05-02T17:21:46.888Z</time></trkpt><trkpt lat="40.4472922" lon="15.5463425"><ele>451.0</ele><time>2026-05-02T17:21:47.889Z</time></trkpt><trkpt lat="40.4475184" lon="15.5462006"><ele>451.0</ele><time>2026-05-02T17:21:48.889Z</time></trkpt><trkpt lat="40.4477308" lon="15.5460682"><ele>451.0</ele><time>2026-05-02T17:21:49.888Z</time></trkpt><trkpt lat="40.4479474" lon="15.5459318"><ele>452.6666666666667</ele><time>2026-05-02T17:21:50.889Z</time></trkpt><trkpt lat="40.4481515" lon="15.5458045"><ele>454.33333333333337</ele><time>2026-05-02T17:21:51.889Z</time></trkpt><trkpt lat="40.4483355" lon="15.5456763"><ele>456.0</ele><time>2026-05-02T17:21:52.889Z</time></trkpt><trkpt lat="40.4485053" lon="15.5455502"><ele>456.0</ele><time>2026-05-02T17:21:53.889Z</time></trkpt><trkpt lat="40.4486653" lon="15.545419"><ele>456.0</ele><time>2026-05-02T17:21:54.889Z</time></trkpt><trkpt lat="40.4488279" lon="15.5452853"><ele>456.0</ele><time>2026-05-02T17:21:55.889Z</time></trkpt><trkpt lat="40.4489813" lon="15.5451446"><ele>455.33333333333337</ele><time>2026-05-02T17:21:56.888Z</time></trkpt><trkpt lat="40.4491319" lon="15.544998"><ele>454.6666666666667</ele><time>2026-05-02T17:21:57.889Z</time></trkpt><trkpt lat="40.4492805" lon="15.544852"><ele>454.0</ele><time>2026-05-02T17:21:58.889Z</time></trkpt><trkpt lat="40.449433" lon="15.5447056"><ele>454.0</ele><time>2026-05-02T17:21:59.888Z</time></trkpt><trkpt lat="40.4495886" lon="15.5445565"><ele>454.0</ele><time>2026-05-02T17:22:00.889Z</time></trkpt><trkpt lat="40.4497586" lon="15.5444039"><ele>454.0</ele><time>2026-05-02T17:22:01.888Z</time></trkpt><trkpt lat="40.4499272" lon="15.5442577"><ele>454.33333333333337</ele><time>2026-05-02T17:22:02.889Z</time></trkpt><trkpt lat="40.450092" lon="15.5441157"><ele>454.66666666666663</ele><time>2026-05-02T17:22:03.888Z</time></trkpt><trkpt lat="40.4502657" lon="15.5439717"><ele>455.0</ele><time>2026-05-02T17:22:04.889Z</time></trkpt><trkpt lat="40.4504402" lon="15.5438365"><ele>454.0</ele><time>2026-05-02T17:22:05.889Z</time></trkpt><trkpt lat="40.4506137" lon="15.543712"><ele>453.0</ele><time>2026-05-02T17:22:06.889Z</time></trkpt><trkpt lat="40.4507917" lon="15.5436045"><ele>452.0</ele><time>2026-05-02T17:22:07.889Z</time></trkpt><trkpt lat="40.450984" lon="15.5435077"><ele>452.0</ele><time>2026-05-02T17:22:08.889Z</time></trkpt><trkpt lat="40.4511857" lon="15.543416"><ele>452.0</ele><time>2026-05-02T17:22:09.889Z</time></trkpt><trkpt lat="40.4514016" lon="15.5433265"><ele>452.0</ele><time>2026-05-02T17:22:10.888Z</time></trkpt><trkpt lat="40.4516101" lon="15.5432452"><ele>453.3333333333333</ele><time>2026-05-02T17:22:11.889Z</time></trkpt><trkpt lat="40.4518098" lon="15.5431729"><ele>454.66666666666663</ele><time>2026-05-02T17:22:12.889Z</time></trkpt><trkpt lat="40.4520103" lon="15.5431015"><ele>456.0</ele><time>2026-05-02T17:22:13.889Z</time></trkpt><trkpt lat="40.4522095" lon="15.5430254"><ele>455.33333333333337</ele><time>2026-05-02T17:22:14.889Z</time></trkpt><trkpt lat="40.4524117" lon="15.5429652"><ele>454.6666666666667</ele><time>2026-05-02T17:22:15.889Z</time></trkpt><trkpt lat="40.4526077" lon="15.5429073"><ele>454.0</ele><time>2026-05-02T17:22:16.889Z</time></trkpt><trkpt lat="40.4528059" lon="15.5428547"><ele>455.33333333333337</ele><time>2026-05-02T17:22:17.889Z</time></trkpt><trkpt lat="40.4530075" lon="15.5428049"><ele>456.66666666666663</ele><time>2026-05-02T17:22:18.888Z</time></trkpt><trkpt lat="40.4532117" lon="15.5427652"><ele>458.0</ele><time>2026-05-02T17:22:19.889Z</time></trkpt><trkpt lat="40.4534225" lon="15.5427266"><ele>458.0</ele><time>2026-05-02T17:22:20.888Z</time></trkpt><trkpt lat="40.453633" lon="15.5426847"><ele>458.0</ele><time>2026-05-02T17:22:21.888Z</time></trkpt><trkpt lat="40.4538507" lon="15.5426429"><ele>458.0</ele><time>2026-05-02T17:22:22.888Z</time></trkpt><trkpt lat="40.45407" lon="15.5425957"><ele>458.3333333333333</ele><time>2026-05-02T17:22:23.889Z</time></trkpt><trkpt lat="40.4542836" lon="15.5425628"><ele>458.66666666666663</ele><time>2026-05-02T17:22:24.888Z</time></trkpt><trkpt lat="40.4545015" lon="15.5425169"><ele>459.0</ele><time>2026-05-02T17:22:25.889Z</time></trkpt><trkpt lat="40.4547211" lon="15.5424633"><ele>460.66666666666663</ele><time>2026-05-02T17:22:26.889Z</time></trkpt><trkpt lat="40.4549381" lon="15.5424127"><ele>462.3333333333333</ele><time>2026-05-02T17:22:27.889Z</time></trkpt><trkpt lat="40.4551503" lon="15.5423796"><ele>464.0</ele><time>2026-05-02T17:22:28.889Z</time></trkpt><trkpt lat="40.4553512" lon="15.5423464"><ele>464.3333333333333</ele><time>2026-05-02T17:22:29.889Z</time></trkpt><trkpt lat="40.4555588" lon="15.5423134"><ele>464.66666666666663</ele><time>2026-05-02T17:22:30.889Z</time></trkpt><trkpt lat="40.4557554" lon="15.5422787"><ele>465.0</ele><time>2026-05-02T17:22:31.889Z</time></trkpt><trkpt lat="40.4559321" lon="15.5422484"><ele>465.0</ele><time>2026-05-02T17:22:32.888Z</time></trkpt><trkpt lat="40.4561025" lon="15.542216"><ele>465.0</ele><time>2026-05-02T17:22:33.889Z</time></trkpt><trkpt lat="40.4562523" lon="15.5421846"><ele>465.0</ele><time>2026-05-02T17:22:34.889Z</time></trkpt><trkpt lat="40.4564018" lon="15.5421584"><ele>465.6</ele><time>2026-05-02T17:22:35.889Z</time></trkpt><trkpt lat="40.4565289" lon="15.5421327"><ele>466.2</ele><time>2026-05-02T17:22:36.889Z</time></trkpt><trkpt lat="40.4566416" lon="15.5421152"><ele>466.79999999999995</ele><time>2026-05-02T17:22:37.888Z</time></trkpt><trkpt lat="40.4567337" lon="15.5421156"><ele>467.4</ele><time>2026-05-02T17:22:38.889Z</time></trkpt><trkpt lat="40.4568056" lon="15.5421277"><ele>468.0</ele><time>2026-05-02T17:22:39.889Z</time></trkpt><trkpt lat="40.4568686" lon="15.5421625"><ele>468.0</ele><time>2026-05-02T17:22:40.889Z</time></trkpt><trkpt lat="40.4569354" lon="15.5421991"><ele>468.0</ele><time>2026-05-02T17:22:41.888Z</time></trkpt><trkpt lat="40.4570025" lon="15.5422204"><ele>468.0</ele><time>2026-05-02T17:22:42.889Z</time></trkpt><trkpt lat="40.4570744" lon="15.5422183"><ele>468.0</ele><time>2026-05-02T17:22:43.889Z</time></trkpt><trkpt lat="40.4571701" lon="15.5421234"><ele>468.0</ele><time>2026-05-02T17:22:45.889Z</time></trkpt><trkpt lat="40.4572168" lon="15.542065"><ele>468.0</ele><time>2026-05-02T17:22:46.889Z</time></trkpt><trkpt lat="40.4572785" lon="15.5420086"><ele>467.6666666666667</ele><time>2026-05-02T17:22:47.889Z</time></trkpt><trkpt lat="40.4573517" lon="15.5419701"><ele>467.33333333333337</ele><time>2026-05-02T17:22:48.889Z</time></trkpt><trkpt lat="40.4574354" lon="15.5419455"><ele>467.0</ele><time>2026-05-02T17:22:49.889Z</time></trkpt><trkpt lat="40.45752" lon="15.5419279"><ele>466.6666666666667</ele><time>2026-05-02T17:22:50.889Z</time></trkpt><trkpt lat="40.4576065" lon="15.5419131"><ele>466.33333333333337</ele><time>2026-05-02T17:22:51.889Z</time></trkpt><trkpt lat="40.4576938" lon="15.5418921"><ele>466.0</ele><time>2026-05-02T17:22:52.889Z</time></trkpt><trkpt lat="40.4577811" lon="15.541882"><ele>466.00000000000006</ele><time>2026-05-02T17:22:53.889Z</time></trkpt><trkpt lat="40.4578732" lon="15.5418653"><ele>466.0</ele><time>2026-05-02T17:22:54.889Z</time></trkpt><trkpt lat="40.4579694" lon="15.5418413"><ele>466.0</ele><time>2026-05-02T17:22:55.889Z</time></trkpt><trkpt lat="40.4580483" lon="15.5418261"><ele>466.0</ele><time>2026-05-02T17:22:56.889Z</time></trkpt><trkpt lat="40.4581251" lon="15.5418103"><ele>466.00000000000006</ele><time>2026-05-02T17:22:57.889Z</time></trkpt><trkpt lat="40.4582029" lon="15.541798"><ele>466.0</ele><time>2026-05-02T17:22:58.889Z</time></trkpt><trkpt lat="40.4582784" lon="15.5417828"><ele>466.00000000000006</ele><time>2026-05-02T17:22:59.888Z</time></trkpt><trkpt lat="40.4583521" lon="15.5417715"><ele>466.0</ele><time>2026-05-02T17:23:00.889Z</time></trkpt><trkpt lat="40.4584454" lon="15.5417665"><ele>466.0</ele><time>2026-05-02T17:23:02.889Z</time></trkpt><trkpt lat="40.4585594" lon="15.5417419"><ele>466.0</ele><time>2026-05-02T17:23:04.889Z</time></trkpt><trkpt lat="40.4586374" lon="15.5417233"><ele>466.00000000000006</ele><time>2026-05-02T17:23:05.889Z</time></trkpt><trkpt lat="40.4587183" lon="15.5417064"><ele>466.0</ele><time>2026-05-02T17:23:06.889Z</time></trkpt><trkpt lat="40.4588091" lon="15.5416883"><ele>466.00000000000006</ele><time>2026-05-02T17:23:07.889Z</time></trkpt><trkpt lat="40.4588942" lon="15.5416741"><ele>466.0</ele><time>2026-05-02T17:23:08.889Z</time></trkpt><trkpt lat="40.4589648" lon="15.5416599"><ele>466.0</ele><time>2026-05-02T17:23:09.889Z</time></trkpt><trkpt lat="40.4590446" lon="15.5416441"><ele>466.0</ele><time>2026-05-02T17:23:11.889Z</time></trkpt><trkpt lat="40.4591393" lon="15.5416391"><ele>466.00000000000006</ele><time>2026-05-02T17:23:14.889Z</time></trkpt><trkpt lat="40.4591998" lon="15.5416099"><ele>466.0</ele><time>2026-05-02T17:23:16.888Z</time></trkpt><trkpt lat="40.459154" lon="15.5415442"><ele>466.00000000000006</ele><time>2026-05-02T17:23:19.888Z</time></trkpt><trkpt lat="40.4590583" lon="15.5416008"><ele>466.0</ele><time>2026-05-02T17:23:21.889Z</time></trkpt><trkpt lat="40.4590111" lon="15.5416604"><ele>466.0</ele><time>2026-05-02T17:23:22.888Z</time></trkpt><trkpt lat="40.4589692" lon="15.5417422"><ele>466.0</ele><time>2026-05-02T17:23:23.889Z</time></trkpt><trkpt lat="40.4589339" lon="15.5418377"><ele>466.00000000000006</ele><time>2026-05-02T17:23:24.889Z</time></trkpt><trkpt lat="40.4589005" lon="15.5419644"><ele>466.0</ele><time>2026-05-02T17:23:25.889Z</time></trkpt><trkpt lat="40.4588665" lon="15.5421112"><ele>467.0</ele><time>2026-05-02T17:23:26.889Z</time></trkpt><trkpt lat="40.458818" lon="15.5422561"><ele>468.0</ele><time>2026-05-02T17:23:27.889Z</time></trkpt><trkpt lat="40.4587625" lon="15.5423954"><ele>469.0</ele><time>2026-05-02T17:23:28.889Z</time></trkpt><trkpt lat="40.4587068" lon="15.542529"><ele>470.0</ele><time>2026-05-02T17:23:29.888Z</time></trkpt><trkpt lat="40.4586534" lon="15.5426625"><ele>470.0</ele><time>2026-05-02T17:23:30.888Z</time></trkpt><trkpt lat="40.4586169" lon="15.5427989"><ele>470.0</ele><time>2026-05-02T17:23:31.888Z</time></trkpt><trkpt lat="40.4585965" lon="15.542928"><ele>470.0</ele><time>2026-05-02T17:23:32.889Z</time></trkpt><trkpt lat="40.45858" lon="15.5430659"><ele>470.0</ele><time>2026-05-02T17:23:33.889Z</time></trkpt><trkpt lat="40.4585794" lon="15.5431926"><ele>470.0</ele><time>2026-05-02T17:23:34.889Z</time></trkpt><trkpt lat="40.4585746" lon="15.5433153"><ele>471.16666666666663</ele><time>2026-05-02T17:23:35.889Z</time></trkpt><trkpt lat="40.4585777" lon="15.5434103"><ele>472.3333333333333</ele><time>2026-05-02T17:23:36.889Z</time></trkpt><trkpt lat="40.4585306" lon="15.5435065"><ele>473.5</ele><time>2026-05-02T17:23:37.889Z</time></trkpt><trkpt lat="40.4584827" lon="15.5435961"><ele>474.66666666666663</ele><time>2026-05-02T17:23:38.889Z</time></trkpt><trkpt lat="40.4584269" lon="15.543683"><ele>475.8333333333333</ele><time>2026-05-02T17:23:39.889Z</time></trkpt><trkpt lat="40.4583631" lon="15.5437729"><ele>477.0</ele><time>2026-05-02T17:23:40.888Z</time></trkpt><trkpt lat="40.4583025" lon="15.5438609"><ele>478.6</ele><time>2026-05-02T17:23:41.889Z</time></trkpt><trkpt lat="40.4582505" lon="15.5439657"><ele>480.20000000000005</ele><time>2026-05-02T17:23:42.889Z</time></trkpt><trkpt lat="40.4582151" lon="15.5440812"><ele>481.8</ele><time>2026-05-02T17:23:43.889Z</time></trkpt><trkpt lat="40.4581886" lon="15.5442097"><ele>483.4</ele><time>2026-05-02T17:23:44.889Z</time></trkpt><trkpt lat="40.4581672" lon="15.5443349"><ele>485.0</ele><time>2026-05-02T17:23:45.889Z</time></trkpt><trkpt lat="40.4581563" lon="15.5444495"><ele>485.00000000000006</ele><time>2026-05-02T17:23:46.889Z</time></trkpt><trkpt lat="40.4581481" lon="15.5445381"><ele>485.0</ele><time>2026-05-02T17:23:47.889Z</time></trkpt><trkpt lat="40.4581683" lon="15.5446237"><ele>485.00000000000006</ele><time>2026-05-02T17:23:50.888Z</time></trkpt><trkpt lat="40.4582297" lon="15.544604"><ele>485.00000000000006</ele><time>2026-05-02T17:23:53.889Z</time></trkpt><trkpt lat="40.4582178" lon="15.5445034"><ele>485.0</ele><time>2026-05-02T17:23:56.889Z</time></trkpt><trkpt lat="40.4582082" lon="15.544373"><ele>485.00000000000006</ele><time>2026-05-02T17:23:58.889Z</time></trkpt><trkpt lat="40.458222" lon="15.5442815"><ele>485.00000000000006</ele><time>2026-05-02T17:23:59.888Z</time></trkpt><trkpt lat="40.4582461" lon="15.5441821"><ele>485.0</ele><time>2026-05-02T17:24:00.889Z</time></trkpt><trkpt lat="40.458271" lon="15.5440729"><ele>485.0</ele><time>2026-05-02T17:24:01.889Z</time></trkpt><trkpt lat="40.4582971" lon="15.5439655"><ele>485.0</ele><time>2026-05-02T17:24:02.889Z</time></trkpt><trkpt lat="40.4583315" lon="15.5438638"><ele>485.0</ele><time>2026-05-02T17:24:03.889Z</time></trkpt><trkpt lat="40.4583825" lon="15.5437571"><ele>485.0</ele><time>2026-05-02T17:24:04.889Z</time></trkpt><trkpt lat="40.4584557" lon="15.5436516"><ele>483.4</ele><time>2026-05-02T17:24:05.888Z</time></trkpt><trkpt lat="40.4585267" lon="15.543552"><ele>481.8</ele><time>2026-05-02T17:24:06.889Z</time></trkpt><trkpt lat="40.4585796" lon="15.5434696"><ele>480.20000000000005</ele><time>2026-05-02T17:24:07.888Z</time></trkpt><trkpt lat="40.4586589" lon="15.5433391"><ele>478.6</ele><time>2026-05-02T17:24:09.889Z</time></trkpt><trkpt lat="40.4587051" lon="15.5432112"><ele>477.0</ele><time>2026-05-02T17:24:11.889Z</time></trkpt><trkpt lat="40.4587099" lon="15.5431155"><ele>477.0</ele><time>2026-05-02T17:24:12.888Z</time></trkpt><trkpt lat="40.4587182" lon="15.5430014"><ele>477.00000000000006</ele><time>2026-05-02T17:24:13.889Z</time></trkpt><trkpt lat="40.4587365" lon="15.5428983"><ele>477.00000000000006</ele><time>2026-05-02T17:24:14.889Z</time></trkpt><trkpt lat="40.4587763" lon="15.542755"><ele>477.0</ele><time>2026-05-02T17:24:15.889Z</time></trkpt><trkpt lat="40.4588188" lon="15.5425634"><ele>477.0</ele><time>2026-05-02T17:24:16.889Z</time></trkpt><trkpt lat="40.4588719" lon="15.5423418"><ele>476.0</ele><time>2026-05-02T17:24:17.889Z</time></trkpt><trkpt lat="40.4589159" lon="15.5421204"><ele>475.0</ele><time>2026-05-02T17:24:18.889Z</time></trkpt><trkpt lat="40.4589465" lon="15.5419405"><ele>474.0</ele><time>2026-05-02T17:24:19.889Z</time></trkpt><trkpt lat="40.4589795" lon="15.5418071"><ele>473.0</ele><time>2026-05-02T17:24:20.888Z</time></trkpt><trkpt lat="40.458976" lon="15.5416895"><ele>471.25</ele><time>2026-05-02T17:24:22.888Z</time></trkpt><trkpt lat="40.4588836" lon="15.5416305"><ele>469.5</ele><time>2026-05-02T17:24:24.889Z</time></trkpt><trkpt lat="40.4587945" lon="15.5416206"><ele>467.75</ele><time>2026-05-02T17:24:25.889Z</time></trkpt><trkpt lat="40.4586741" lon="15.5416374"><ele>466.0</ele><time>2026-05-02T17:24:26.888Z</time></trkpt><trkpt lat="40.4585132" lon="15.5416648"><ele>466.0</ele><time>2026-05-02T17:24:27.889Z</time></trkpt><trkpt lat="40.4583322" lon="15.541702"><ele>466.0</ele><time>2026-05-02T17:24:28.889Z</time></trkpt><trkpt lat="40.4581501" lon="15.5417413"><ele>466.0</ele><time>2026-05-02T17:24:29.889Z</time></trkpt><trkpt lat="40.4579729" lon="15.5417677"><ele>466.0</ele><time>2026-05-02T17:24:30.889Z</time></trkpt><trkpt lat="40.4578007" lon="15.5417928"><ele>466.0</ele><time>2026-05-02T17:24:31.889Z</time></trkpt><trkpt lat="40.4576445" lon="15.5418266"><ele>466.0</ele><time>2026-05-02T17:24:32.889Z</time></trkpt><trkpt lat="40.4575052" lon="15.5418623"><ele>466.0</ele><time>2026-05-02T17:24:33.889Z</time></trkpt><trkpt lat="40.4573906" lon="15.5418899"><ele>466.0</ele><time>2026-05-02T17:24:34.889Z</time></trkpt><trkpt lat="40.4572995" lon="15.5419051"><ele>466.0</ele><time>2026-05-02T17:24:35.889Z</time></trkpt><trkpt lat="40.4572292" lon="15.5419098"><ele>466.0</ele><time>2026-05-02T17:24:36.888Z</time></trkpt><trkpt lat="40.4571474" lon="15.5418855"><ele>466.0</ele><time>2026-05-02T17:24:38.889Z</time></trkpt><trkpt lat="40.4570642" lon="15.5418302"><ele>465.83333333333337</ele><time>2026-05-02T17:24:40.888Z</time></trkpt><trkpt lat="40.4569702" lon="15.5418011"><ele>465.6666666666667</ele><time>2026-05-02T17:24:42.889Z</time></trkpt><trkpt lat="40.4568732" lon="15.5418679"><ele>465.5</ele><time>2026-05-02T17:24:44.889Z</time></trkpt><trkpt lat="40.4568384" lon="15.5419379"><ele>465.33333333333337</ele><time>2026-05-02T17:24:45.889Z</time></trkpt><trkpt lat="40.4568249" lon="15.5420264"><ele>465.1666666666667</ele><time>2026-05-02T17:24:46.889Z</time></trkpt><trkpt lat="40.4568413" lon="15.5421185"><ele>465.0</ele><time>2026-05-02T17:24:47.888Z</time></trkpt><trkpt lat="40.4569057" lon="15.5422018"><ele>465.6</ele><time>2026-05-02T17:24:48.889Z</time></trkpt><trkpt lat="40.45699" lon="15.5422657"><ele>466.2</ele><time>2026-05-02T17:24:49.889Z</time></trkpt><trkpt lat="40.4570774" lon="15.5423377"><ele>466.79999999999995</ele><time>2026-05-02T17:24:50.889Z</time></trkpt><trkpt lat="40.4571534" lon="15.5424452"><ele>467.4</ele><time>2026-05-02T17:24:51.889Z</time></trkpt><trkpt lat="40.457225" lon="15.5425882"><ele>468.0</ele><time>2026-05-02T17:24:52.889Z</time></trkpt><trkpt lat="40.4572997" lon="15.5427365"><ele>468.0</ele><time>2026-05-02T17:24:53.889Z</time></trkpt><trkpt lat="40.4573623" lon="15.542865"><ele>467.99999999999994</ele><time>2026-05-02T17:24:54.888Z</time></trkpt><trkpt lat="40.4574007" lon="15.5429718"><ele>467.99999999999994</ele><time>2026-05-02T17:24:55.889Z</time></trkpt><trkpt lat="40.4574406" lon="15.5430784"><ele>468.0</ele><time>2026-05-02T17:24:56.889Z</time></trkpt><trkpt lat="40.4574669" lon="15.5431818"><ele>468.0</ele><time>2026-05-02T17:24:57.889Z</time></trkpt><trkpt lat="40.457475" lon="15.5432971"><ele>469.75</ele><time>2026-05-02T17:24:58.889Z</time></trkpt><trkpt lat="40.4574587" lon="15.5434126"><ele>471.5</ele><time>2026-05-02T17:24:59.888Z</time></trkpt><trkpt lat="40.4573963" lon="15.5435599"><ele>473.25</ele><time>2026-05-02T17:25:00.889Z</time></trkpt><trkpt lat="40.4572916" lon="15.543706"><ele>475.0</ele><time>2026-05-02T17:25:01.889Z</time></trkpt><trkpt lat="40.457166" lon="15.5438171"><ele>477.6666666666667</ele><time>2026-05-02T17:25:02.888Z</time></trkpt><trkpt lat="40.4570189" lon="15.5438916"><ele>480.33333333333337</ele><time>2026-05-02T17:25:03.889Z</time></trkpt><trkpt lat="40.4568573" lon="15.5439447"><ele>483.0</ele><time>2026-05-02T17:25:04.888Z</time></trkpt><trkpt lat="40.456675" lon="15.5439937"><ele>483.0</ele><time>2026-05-02T17:25:05.889Z</time></trkpt><trkpt lat="40.4564777" lon="15.5440376"><ele>483.0</ele><time>2026-05-02T17:25:06.888Z</time></trkpt><trkpt lat="40.4562668" lon="15.5440702"><ele>483.0</ele><time>2026-05-02T17:25:07.889Z</time></trkpt><trkpt lat="40.4560699" lon="15.544112"><ele>485.0</ele><time>2026-05-02T17:25:08.889Z</time></trkpt><trkpt lat="40.4558709" lon="15.5441462"><ele>487.0</ele><time>2026-05-02T17:25:09.888Z</time></trkpt><trkpt lat="40.4556681" lon="15.5441663"><ele>489.0</ele><time>2026-05-02T17:25:10.889Z</time></trkpt><trkpt lat="40.4554721" lon="15.5441772"><ele>488.33333333333337</ele><time>2026-05-02T17:25:11.889Z</time></trkpt><trkpt lat="40.4552825" lon="15.5441662"><ele>487.6666666666667</ele><time>2026-05-02T17:25:12.888Z</time></trkpt><trkpt lat="40.4550835" lon="15.5441603"><ele>487.0</ele><time>2026-05-02T17:25:13.889Z</time></trkpt><trkpt lat="40.4548743" lon="15.5441551"><ele>487.0</ele><time>2026-05-02T17:25:14.889Z</time></trkpt><trkpt lat="40.4546683" lon="15.5441543"><ele>487.0</ele><time>2026-05-02T17:25:15.889Z</time></trkpt><trkpt lat="40.4544704" lon="15.5441634"><ele>487.0</ele><time>2026-05-02T17:25:16.888Z</time></trkpt><trkpt lat="40.4542691" lon="15.5441973"><ele>489.0</ele><time>2026-05-02T17:25:17.889Z</time></trkpt><trkpt lat="40.4540601" lon="15.54425"><ele>491.0</ele><time>2026-05-02T17:25:18.889Z</time></trkpt><trkpt lat="40.4538508" lon="15.5443237"><ele>493.0</ele><time>2026-05-02T17:25:19.888Z</time></trkpt><trkpt lat="40.4536386" lon="15.5444224"><ele>493.0</ele><time>2026-05-02T17:25:20.889Z</time></trkpt><trkpt lat="40.4534309" lon="15.5445412"><ele>493.0</ele><time>2026-05-02T17:25:21.889Z</time></trkpt><trkpt lat="40.4532278" lon="15.5446794"><ele>503.0</ele><time>2026-05-02T17:25:22.889Z</time></trkpt><trkpt lat="40.4530199" lon="15.5448211"><ele>513.0</ele><time>2026-05-02T17:25:23.889Z</time></trkpt><trkpt lat="40.4528344" lon="15.5449887"><ele>513.0</ele><time>2026-05-02T17:25:24.889Z</time></trkpt><trkpt lat="40.452671" lon="15.5451388"><ele>513.0</ele><time>2026-05-02T17:25:25.888Z</time></trkpt><trkpt lat="40.4525302" lon="15.5452719"><ele>513.0</ele><time>2026-05-02T17:25:26.889Z</time></trkpt><trkpt lat="40.452426" lon="15.5454031"><ele>514.75</ele><time>2026-05-02T17:25:27.889Z</time></trkpt><trkpt lat="40.4523277" lon="15.5455235"><ele>516.5</ele><time>2026-05-02T17:25:28.889Z</time></trkpt><trkpt lat="40.4522275" lon="15.5456169"><ele>518.25</ele><time>2026-05-02T17:25:29.888Z</time></trkpt><trkpt lat="40.452122" lon="15.5457096"><ele>520.0</ele><time>2026-05-02T17:25:30.889Z</time></trkpt><trkpt lat="40.4520173" lon="15.5458114"><ele>518.25</ele><time>2026-05-02T17:25:31.888Z</time></trkpt><trkpt lat="40.4519173" lon="15.545927"><ele>516.5</ele><time>2026-05-02T17:25:32.889Z</time></trkpt><trkpt lat="40.4518112" lon="15.5460481"><ele>514.75</ele><time>2026-05-02T17:25:33.889Z</time></trkpt><trkpt lat="40.4517199" lon="15.5461598"><ele>513.0</ele><time>2026-05-02T17:25:34.888Z</time></trkpt><trkpt lat="40.4516506" lon="15.5462825"><ele>513.0</ele><time>2026-05-02T17:25:35.889Z</time></trkpt><trkpt lat="40.4516023" lon="15.5464247"><ele>513.0</ele><time>2026-05-02T17:25:36.889Z</time></trkpt><trkpt lat="40.4515777" lon="15.5465678"><ele>513.0</ele><time>2026-05-02T17:25:37.889Z</time></trkpt><trkpt lat="40.451585" lon="15.5467361"><ele>513.0</ele><time>2026-05-02T17:25:38.889Z</time></trkpt><trkpt lat="40.4516134" lon="15.5469052"><ele>515.75</ele><time>2026-05-02T17:25:39.889Z</time></trkpt><trkpt lat="40.4516417" lon="15.5470558"><ele>518.5</ele><time>2026-05-02T17:25:40.888Z</time></trkpt><trkpt lat="40.4516569" lon="15.5471941"><ele>521.25</ele><time>2026-05-02T17:25:41.889Z</time></trkpt><trkpt lat="40.4516206" lon="15.5473153"><ele>524.0</ele><time>2026-05-02T17:25:42.888Z</time></trkpt><trkpt lat="40.4515387" lon="15.5474456"><ele>524.0</ele><time>2026-05-02T17:25:43.888Z</time></trkpt><trkpt lat="40.4514298" lon="15.54759"><ele>524.0</ele><time>2026-05-02T17:25:44.888Z</time></trkpt><trkpt lat="40.451344" lon="15.5477339"><ele>524.0</ele><time>2026-05-02T17:25:45.888Z</time></trkpt><trkpt lat="40.4512766" lon="15.5478585"><ele>524.0</ele><time>2026-05-02T17:25:46.888Z</time></trkpt><trkpt lat="40.4512513" lon="15.5479965"><ele>526.25</ele><time>2026-05-02T17:25:47.889Z</time></trkpt><trkpt lat="40.4512632" lon="15.5481616"><ele>528.5</ele><time>2026-05-02T17:25:48.889Z</time></trkpt><trkpt lat="40.451309" lon="15.5482991"><ele>530.75</ele><time>2026-05-02T17:25:49.889Z</time></trkpt><trkpt lat="40.4513916" lon="15.5483861"><ele>533.0</ele><time>2026-05-02T17:25:50.888Z</time></trkpt><trkpt lat="40.4514911" lon="15.5484239"><ele>533.0</ele><time>2026-05-02T17:25:51.888Z</time></trkpt><trkpt lat="40.4515971" lon="15.5484156"><ele>533.0</ele><time>2026-05-02T17:25:52.889Z</time></trkpt><trkpt lat="40.4516973" lon="15.5483492"><ele>533.0</ele><time>2026-05-02T17:25:53.889Z</time></trkpt><trkpt lat="40.4517888" lon="15.5482051"><ele>533.0</ele><time>2026-05-02T17:25:54.888Z</time></trkpt><trkpt lat="40.4518742" lon="15.547984"><ele>528.5</ele><time>2026-05-02T17:25:55.889Z</time></trkpt><trkpt lat="40.4519529" lon="15.5476938"><ele>524.0</ele><time>2026-05-02T17:25:56.889Z</time></trkpt><trkpt lat="40.4520512" lon="15.5473544"><ele>529.0</ele><time>2026-05-02T17:25:57.889Z</time></trkpt><trkpt lat="40.4521584" lon="15.547047"><ele>534.0</ele><time>2026-05-02T17:25:58.889Z</time></trkpt><trkpt lat="40.4522564" lon="15.5468113"><ele>534.0</ele><time>2026-05-02T17:25:59.889Z</time></trkpt><trkpt lat="40.4523558" lon="15.5466439"><ele>534.0</ele><time>2026-05-02T17:26:00.888Z</time></trkpt><trkpt lat="40.4525007" lon="15.5465054"><ele>534.0</ele><time>2026-05-02T17:26:01.889Z</time></trkpt><trkpt lat="40.4526889" lon="15.5463692"><ele>534.0</ele><time>2026-05-02T17:26:02.889Z</time></trkpt><trkpt lat="40.4528921" lon="15.5462295"><ele>534.0</ele><time>2026-05-02T17:26:03.888Z</time></trkpt><trkpt lat="40.4531097" lon="15.5460596"><ele>535.3333333333334</ele><time>2026-05-02T17:26:04.888Z</time></trkpt><trkpt lat="40.4533144" lon="15.5458936"><ele>536.6666666666667</ele><time>2026-05-02T17:26:05.889Z</time></trkpt><trkpt lat="40.4534872" lon="15.5457612"><ele>538.0</ele><time>2026-05-02T17:26:06.888Z</time></trkpt><trkpt lat="40.4536504" lon="15.5456535"><ele>541.3333333333334</ele><time>2026-05-02T17:26:07.889Z</time></trkpt><trkpt lat="40.4538092" lon="15.5455812"><ele>544.6666666666666</ele><time>2026-05-02T17:26:08.889Z</time></trkpt><trkpt lat="40.4539995" lon="15.5455541"><ele>548.0</ele><time>2026-05-02T17:26:09.889Z</time></trkpt><trkpt lat="40.4542221" lon="15.5455313"><ele>548.0</ele><time>2026-05-02T17:26:10.889Z</time></trkpt><trkpt lat="40.4544334" lon="15.5454818"><ele>548.0</ele><time>2026-05-02T17:26:11.889Z</time></trkpt><trkpt lat="40.4545959" lon="15.5454146"><ele>548.0</ele><time>2026-05-02T17:26:12.889Z</time></trkpt><trkpt lat="40.4547355" lon="15.5453675"><ele>549.0</ele><time>2026-05-02T17:26:13.889Z</time></trkpt><trkpt lat="40.4548428" lon="15.5453652"><ele>550.0</ele><time>2026-05-02T17:26:14.888Z</time></trkpt><trkpt lat="40.454909" lon="15.5454213"><ele>551.0</ele><time>2026-05-02T17:26:15.888Z</time></trkpt><trkpt lat="40.4549503" lon="15.5454985"><ele>552.0</ele><time>2026-05-02T17:26:16.889Z</time></trkpt><trkpt lat="40.4549274" lon="15.5456416"><ele>553.0</ele><time>2026-05-02T17:26:18.889Z</time></trkpt><trkpt lat="40.4548539" lon="15.5457032"><ele>553.0</ele><time>2026-05-02T17:26:19.889Z</time></trkpt><trkpt lat="40.4547323" lon="15.5457609"><ele>553.0</ele><time>2026-05-02T17:26:20.889Z</time></trkpt><trkpt lat="40.4545427" lon="15.5458227"><ele>553.0</ele><time>2026-05-02T17:26:21.889Z</time></trkpt><trkpt lat="40.4542513" lon="15.5459054"><ele>550.5</ele><time>2026-05-02T17:26:22.889Z</time></trkpt><trkpt lat="40.4539867" lon="15.5460086"><ele>548.0</ele><time>2026-05-02T17:26:23.888Z</time></trkpt><trkpt lat="40.4537792" lon="15.5461509"><ele>549.6666666666666</ele><time>2026-05-02T17:26:24.888Z</time></trkpt><trkpt lat="40.4536062" lon="15.5463497"><ele>551.3333333333334</ele><time>2026-05-02T17:26:25.889Z</time></trkpt><trkpt lat="40.453468" lon="15.5465655"><ele>553.0</ele><time>2026-05-02T17:26:26.889Z</time></trkpt><trkpt lat="40.4533686" lon="15.5467788"><ele>553.0</ele><time>2026-05-02T17:26:27.889Z</time></trkpt><trkpt lat="40.4532884" lon="15.5470139"><ele>553.0</ele><time>2026-05-02T17:26:28.889Z</time></trkpt><trkpt lat="40.4532297" lon="15.5472893"><ele>553.0</ele><time>2026-05-02T17:26:29.889Z</time></trkpt><trkpt lat="40.4531644" lon="15.5475445"><ele>552.0</ele><time>2026-05-02T17:26:30.889Z</time></trkpt><trkpt lat="40.4530679" lon="15.5478051"><ele>551.0</ele><time>2026-05-02T17:26:31.889Z</time></trkpt><trkpt lat="40.452949" lon="15.5480641"><ele>551.0</ele><time>2026-05-02T17:26:32.889Z</time></trkpt><trkpt lat="40.4528289" lon="15.5482719"><ele>551.0</ele><time>2026-05-02T17:26:33.889Z</time></trkpt><trkpt lat="40.4527331" lon="15.5484538"><ele>551.0</ele><time>2026-05-02T17:26:34.888Z</time></trkpt><trkpt lat="40.4526577" lon="15.548621"><ele>556.0</ele><time>2026-05-02T17:26:35.889Z</time></trkpt><trkpt lat="40.4526008" lon="15.5488232"><ele>561.0</ele><time>2026-05-02T17:26:36.889Z</time></trkpt><trkpt lat="40.4525717" lon="15.5490581"><ele>566.0</ele><time>2026-05-02T17:26:37.888Z</time></trkpt><trkpt lat="40.4525406" lon="15.5492773"><ele>566.0</ele><time>2026-05-02T17:26:38.888Z</time></trkpt><trkpt lat="40.4524775" lon="15.5494641"><ele>566.0</ele><time>2026-05-02T17:26:39.889Z</time></trkpt><trkpt lat="40.4523897" lon="15.5496165"><ele>566.0</ele><time>2026-05-02T17:26:40.888Z</time></trkpt><trkpt lat="40.4522594" lon="15.5497352"><ele>566.3333333333333</ele><time>2026-05-02T17:26:41.889Z</time></trkpt><trkpt lat="40.4520963" lon="15.5498085"><ele>566.6666666666666</ele><time>2026-05-02T17:26:42.889Z</time></trkpt><trkpt lat="40.4519303" lon="15.5498869"><ele>567.0</ele><time>2026-05-02T17:26:43.889Z</time></trkpt><trkpt lat="40.4517787" lon="15.5500258"><ele>567.0</ele><time>2026-05-02T17:26:44.889Z</time></trkpt><trkpt lat="40.45166" lon="15.5502264"><ele>567.0</ele><time>2026-05-02T17:26:45.889Z</time></trkpt><trkpt lat="40.4515666" lon="15.550443"><ele>567.0</ele><time>2026-05-02T17:26:46.889Z</time></trkpt><trkpt lat="40.4514831" lon="15.5506223"><ele>568.0</ele><time>2026-05-02T17:26:47.889Z</time></trkpt><trkpt lat="40.4513587" lon="15.5507608"><ele>569.0</ele><time>2026-05-02T17:26:48.888Z</time></trkpt><trkpt lat="40.4512022" lon="15.5508766"><ele>570.0</ele><time>2026-05-02T17:26:49.888Z</time></trkpt><trkpt lat="40.4510386" lon="15.5509892"><ele>570.0</ele><time>2026-05-02T17:26:50.889Z</time></trkpt><trkpt lat="40.4509021" lon="15.5511041"><ele>570.0</ele><time>2026-05-02T17:26:51.888Z</time></trkpt><trkpt lat="40.4508058" lon="15.5512216"><ele>570.0</ele><time>2026-05-02T17:26:52.889Z</time></trkpt><trkpt lat="40.4507552" lon="15.551362"><ele>570.0</ele><time>2026-05-02T17:26:53.889Z</time></trkpt><trkpt lat="40.4507579" lon="15.5515134"><ele>571.5</ele><time>2026-05-02T17:26:54.888Z</time></trkpt><trkpt lat="40.4507933" lon="15.5516547"><ele>573.0</ele><time>2026-05-02T17:26:55.888Z</time></trkpt><trkpt lat="40.4508655" lon="15.5517758"><ele>574.5</ele><time>2026-05-02T17:26:56.888Z</time></trkpt><trkpt lat="40.4509665" lon="15.5518745"><ele>576.0</ele><time>2026-05-02T17:26:57.889Z</time></trkpt><trkpt lat="40.4510877" lon="15.5519182"><ele>576.0</ele><time>2026-05-02T17:26:58.889Z</time></trkpt><trkpt lat="40.4512252" lon="15.5519019"><ele>576.0</ele><time>2026-05-02T17:26:59.889Z</time></trkpt><trkpt lat="40.4513723" lon="15.5518223"><ele>576.0</ele><time>2026-05-02T17:27:00.889Z</time></trkpt><trkpt lat="40.4515334" lon="15.5516903"><ele>578.6666666666666</ele><time>2026-05-02T17:27:01.889Z</time></trkpt><trkpt lat="40.4517145" lon="15.5515458"><ele>581.3333333333333</ele><time>2026-05-02T17:27:02.889Z</time></trkpt><trkpt lat="40.4518975" lon="15.5513979"><ele>584.0</ele><time>2026-05-02T17:27:03.889Z</time></trkpt><trkpt lat="40.4520859" lon="15.5512509"><ele>585.6666666666666</ele><time>2026-05-02T17:27:04.889Z</time></trkpt><trkpt lat="40.4522358" lon="15.5511"><ele>587.3333333333334</ele><time>2026-05-02T17:27:05.888Z</time></trkpt><trkpt lat="40.452368" lon="15.550948"><ele>589.0</ele><time>2026-05-02T17:27:06.889Z</time></trkpt><trkpt lat="40.4524864" lon="15.550817"><ele>589.0</ele><time>2026-05-02T17:27:07.889Z</time></trkpt><trkpt lat="40.4526329" lon="15.5507165"><ele>589.0</ele><time>2026-05-02T17:27:08.889Z</time></trkpt><trkpt lat="40.4528067" lon="15.5506178"><ele>589.0</ele><time>2026-05-02T17:27:09.889Z</time></trkpt><trkpt lat="40.4529828" lon="15.55052"><ele>591.3333333333334</ele><time>2026-05-02T17:27:10.888Z</time></trkpt><trkpt lat="40.4531393" lon="15.5503827"><ele>593.6666666666666</ele><time>2026-05-02T17:27:11.889Z</time></trkpt><trkpt lat="40.4532863" lon="15.550186"><ele>596.0</ele><time>2026-05-02T17:27:12.889Z</time></trkpt><trkpt lat="40.4534319" lon="15.5499393"><ele>596.0</ele><time>2026-05-02T17:27:13.888Z</time></trkpt><trkpt lat="40.4535458" lon="15.5496931"><ele>596.0</ele><time>2026-05-02T17:27:14.889Z</time></trkpt><trkpt lat="40.4536307" lon="15.5494773"><ele>596.0</ele><time>2026-05-02T17:27:15.889Z</time></trkpt><trkpt lat="40.4537155" lon="15.5493093"><ele>599.3333333333333</ele><time>2026-05-02T17:27:16.889Z</time></trkpt><trkpt lat="40.4538251" lon="15.5491712"><ele>602.6666666666666</ele><time>2026-05-02T17:27:17.889Z</time></trkpt><trkpt lat="40.4539601" lon="15.5490458"><ele>606.0</ele><time>2026-05-02T17:27:18.889Z</time></trkpt><trkpt lat="40.4541166" lon="15.5489532"><ele>606.0</ele><time>2026-05-02T17:27:19.888Z</time></trkpt><trkpt lat="40.4542709" lon="15.5488999"><ele>606.0</ele><time>2026-05-02T17:27:20.889Z</time></trkpt><trkpt lat="40.4544357" lon="15.5488629"><ele>606.0</ele><time>2026-05-02T17:27:21.888Z</time></trkpt><trkpt lat="40.4546074" lon="15.5488373"><ele>610.3333333333334</ele><time>2026-05-02T17:27:22.889Z</time></trkpt><trkpt lat="40.4547792" lon="15.5488163"><ele>614.6666666666667</ele><time>2026-05-02T17:27:23.889Z</time></trkpt><trkpt lat="40.4549357" lon="15.5487943"><ele>619.0</ele><time>2026-05-02T17:27:24.888Z</time></trkpt><trkpt lat="40.45508" lon="15.5487489"><ele>618.0</ele><time>2026-05-02T17:27:25.889Z</time></trkpt><trkpt lat="40.4551997" lon="15.548663"><ele>617.0</ele><time>2026-05-02T17:27:26.889Z</time></trkpt><trkpt lat="40.4553047" lon="15.5485422"><ele>616.0</ele><time>2026-05-02T17:27:27.888Z</time></trkpt><trkpt lat="40.4554047" lon="15.5484044"><ele>615.0</ele><time>2026-05-02T17:27:28.889Z</time></trkpt><trkpt lat="40.4554655" lon="15.5482947"><ele>615.0</ele><time>2026-05-02T17:27:29.889Z</time></trkpt><trkpt lat="40.4555284" lon="15.5482672"><ele>615.0</ele><time>2026-05-02T17:27:30.889Z</time></trkpt><trkpt lat="40.4556224" lon="15.5483445"><ele>615.0</ele><time>2026-05-02T17:27:32.888Z</time></trkpt><trkpt lat="40.4556158" lon="15.5485144"><ele>615.0</ele><time>2026-05-02T17:27:34.889Z</time></trkpt><trkpt lat="40.4555379" lon="15.5486212"><ele>615.0</ele><time>2026-05-02T17:27:35.889Z</time></trkpt><trkpt lat="40.4554035" lon="15.548765"><ele>617.0</ele><time>2026-05-02T17:27:36.889Z</time></trkpt><trkpt lat="40.4552095" lon="15.5489907"><ele>619.0</ele><time>2026-05-02T17:27:37.889Z</time></trkpt><trkpt lat="40.4550199" lon="15.5492418"><ele>619.0</ele><time>2026-05-02T17:27:38.889Z</time></trkpt><trkpt lat="40.4548504" lon="15.5494843"><ele>619.0</ele><time>2026-05-02T17:27:39.888Z</time></trkpt><trkpt lat="40.4547056" lon="15.5497194"><ele>620.0</ele><time>2026-05-02T17:27:40.889Z</time></trkpt><trkpt lat="40.4545868" lon="15.5499295"><ele>621.0</ele><time>2026-05-02T17:27:41.888Z</time></trkpt><trkpt lat="40.454494" lon="15.5501743"><ele>622.0</ele><time>2026-05-02T17:27:42.889Z</time></trkpt><trkpt lat="40.454423" lon="15.5503821"><ele>622.0</ele><time>2026-05-02T17:27:43.889Z</time></trkpt><trkpt lat="40.4543561" lon="15.5505843"><ele>622.0</ele><time>2026-05-02T17:27:44.889Z</time></trkpt><trkpt lat="40.4542966" lon="15.5507885"><ele>622.0</ele><time>2026-05-02T17:27:45.888Z</time></trkpt><trkpt lat="40.4542432" lon="15.5509949"><ele>622.0</ele><time>2026-05-02T17:27:46.889Z</time></trkpt><trkpt lat="40.454216" lon="15.5511975"><ele>622.0</ele><time>2026-05-02T17:27:47.888Z</time></trkpt><trkpt lat="40.4541954" lon="15.551393"><ele>622.0</ele><time>2026-05-02T17:27:48.888Z</time></trkpt><trkpt lat="40.4541774" lon="15.5515633"><ele>622.0</ele><time>2026-05-02T17:27:49.889Z</time></trkpt><trkpt lat="40.4541745" lon="15.5516966"><ele>622.5</ele><time>2026-05-02T17:27:50.889Z</time></trkpt><trkpt lat="40.4542003" lon="15.5518078"><ele>623.0</ele><time>2026-05-02T17:27:51.889Z</time></trkpt><trkpt lat="40.4542502" lon="15.5519017"><ele>623.5</ele><time>2026-05-02T17:27:52.888Z</time></trkpt><trkpt lat="40.454318" lon="15.5519748"><ele>624.0</ele><time>2026-05-02T17:27:53.889Z</time></trkpt><trkpt lat="40.4543897" lon="15.5520338"><ele>624.5</ele><time>2026-05-02T17:27:54.888Z</time></trkpt><trkpt lat="40.4544369" lon="15.5520926"><ele>625.0</ele><time>2026-05-02T17:27:55.889Z</time></trkpt><trkpt lat="40.4545071" lon="15.5521369"><ele>625.0</ele><time>2026-05-02T17:27:57.889Z</time></trkpt><trkpt lat="40.4545123" lon="15.5522282"><ele>625.0</ele><time>2026-05-02T17:28:00.889Z</time></trkpt><trkpt lat="40.4544843" lon="15.5520757"><ele>625.0</ele><time>2026-05-02T17:28:06.889Z</time></trkpt><trkpt lat="40.4544396" lon="15.5519708"><ele>625.0</ele><time>2026-05-02T17:28:08.888Z</time></trkpt><trkpt lat="40.4543889" lon="15.551852"><ele>625.0</ele><time>2026-05-02T17:28:10.889Z</time></trkpt><trkpt lat="40.4543722" lon="15.55171"><ele>625.0</ele><time>2026-05-02T17:28:12.888Z</time></trkpt><trkpt lat="40.4543935" lon="15.5515463"><ele>625.0</ele><time>2026-05-02T17:28:14.889Z</time></trkpt><trkpt lat="40.4544227" lon="15.551425"><ele>625.0</ele><time>2026-05-02T17:28:15.888Z</time></trkpt><trkpt lat="40.454447" lon="15.5512689"><ele>625.0</ele><time>2026-05-02T17:28:16.889Z</time></trkpt><trkpt lat="40.4544762" lon="15.5511013"><ele>624.25</ele><time>2026-05-02T17:28:17.888Z</time></trkpt><trkpt lat="40.4545119" lon="15.5509322"><ele>623.5</ele><time>2026-05-02T17:28:18.889Z</time></trkpt><trkpt lat="40.4545626" lon="15.55078"><ele>622.75</ele><time>2026-05-02T17:28:19.889Z</time></trkpt><trkpt lat="40.4546252" lon="15.5506201"><ele>622.0</ele><time>2026-05-02T17:28:20.888Z</time></trkpt><trkpt lat="40.454709" lon="15.5504803"><ele>624.0</ele><time>2026-05-02T17:28:21.889Z</time></trkpt><trkpt lat="40.4547705" lon="15.5503668"><ele>626.0</ele><time>2026-05-02T17:28:22.889Z</time></trkpt><trkpt lat="40.4548256" lon="15.5502785"><ele>628.0</ele><time>2026-05-02T17:28:23.888Z</time></trkpt><trkpt lat="40.4548732" lon="15.5502164"><ele>630.0</ele><time>2026-05-02T17:28:24.889Z</time></trkpt><trkpt lat="40.4549386" lon="15.5501457"><ele>632.0</ele><time>2026-05-02T17:28:26.889Z</time></trkpt><trkpt lat="40.4549929" lon="15.5500702"><ele>634.0</ele><time>2026-05-02T17:28:28.889Z</time></trkpt><trkpt lat="40.4549254" lon="15.5501844"><ele>634.0</ele><time>2026-05-02T17:28:34.889Z</time></trkpt><trkpt lat="40.454866" lon="15.5502485"><ele>634.0</ele><time>2026-05-02T17:28:35.889Z</time></trkpt><trkpt lat="40.4547913" lon="15.5503399"><ele>634.0</ele><time>2026-05-02T17:28:36.889Z</time></trkpt><trkpt lat="40.4547131" lon="15.5504483"><ele>634.0</ele><time>2026-05-02T17:28:37.889Z</time></trkpt><trkpt lat="40.4546725" lon="15.550573"><ele>634.0</ele><time>2026-05-02T17:28:38.889Z</time></trkpt><trkpt lat="40.4546458" lon="15.5506805"><ele>635.0</ele><time>2026-05-02T17:28:39.888Z</time></trkpt><trkpt lat="40.454629" lon="15.5507819"><ele>636.0</ele><time>2026-05-02T17:28:41.889Z</time></trkpt><trkpt lat="40.4546567" lon="15.5508672"><ele>637.0</ele><time>2026-05-02T17:28:51.889Z</time></trkpt><trkpt lat="40.4546786" lon="15.5509779"><ele>638.0</ele><time>2026-05-02T17:28:53.888Z</time></trkpt><trkpt lat="40.4546714" lon="15.5511121"><ele>639.0</ele><time>2026-05-02T17:28:56.889Z</time></trkpt><trkpt lat="40.4546432" lon="15.5512369"><ele>640.0</ele><time>2026-05-02T17:28:58.888Z</time></trkpt><trkpt lat="40.4546147" lon="15.5513909"><ele>638.0</ele><time>2026-05-02T17:29:00.888Z</time></trkpt><trkpt lat="40.4545991" lon="15.5514789"><ele>636.0</ele><time>2026-05-02T17:29:01.889Z</time></trkpt><trkpt lat="40.4545868" lon="15.5515704"><ele>634.0</ele><time>2026-05-02T17:29:02.889Z</time></trkpt><trkpt lat="40.4545584" lon="15.5516567"><ele>632.0</ele><time>2026-05-02T17:29:03.889Z</time></trkpt><trkpt lat="40.4545327" lon="15.5517337"><ele>630.0</ele><time>2026-05-02T17:29:04.889Z</time></trkpt><trkpt lat="40.4545148" lon="15.5518141"><ele>628.0</ele><time>2026-05-02T17:29:05.889Z</time></trkpt><trkpt lat="40.4544878" lon="15.5519392"><ele>626.0</ele><time>2026-05-02T17:29:07.889Z</time></trkpt><trkpt lat="40.4544939" lon="15.5520477"><ele>626.0</ele><time>2026-05-02T17:29:10.889Z</time></trkpt><trkpt lat="40.4544895" lon="15.5521399"><ele>626.0</ele><time>2026-05-02T17:29:12.888Z</time></trkpt><trkpt lat="40.454481" lon="15.5522406"><ele>626.0</ele><time>2026-05-02T17:29:15.889Z</time></trkpt><trkpt lat="40.4544289" lon="15.5523499"><ele>626.0</ele><time>2026-05-02T17:29:17.889Z</time></trkpt><trkpt lat="40.4543858" lon="15.5524223"><ele>626.0</ele><time>2026-05-02T17:29:18.888Z</time></trkpt><trkpt lat="40.4543468" lon="15.5525029"><ele>626.0</ele><time>2026-05-02T17:29:19.889Z</time></trkpt><trkpt lat="40.4542732" lon="15.5525922"><ele>626.0</ele><time>2026-05-02T17:29:20.889Z</time></trkpt><trkpt lat="40.4542148" lon="15.5526809"><ele>626.0</ele><time>2026-05-02T17:29:21.889Z</time></trkpt><trkpt lat="40.4541593" lon="15.5527693"><ele>626.0</ele><time>2026-05-02T17:29:22.889Z</time></trkpt><trkpt lat="40.4541056" lon="15.5528591"><ele>626.0</ele><time>2026-05-02T17:29:23.889Z</time></trkpt><trkpt lat="40.4540565" lon="15.5529349"><ele>626.0</ele><time>2026-05-02T17:29:24.889Z</time></trkpt><trkpt lat="40.453984" lon="15.5530272"><ele>626.0</ele><time>2026-05-02T17:29:26.888Z</time></trkpt><trkpt lat="40.4539499" lon="15.5531386"><ele>626.2</ele><time>2026-05-02T17:29:58.889Z</time></trkpt><trkpt lat="40.4539132" lon="15.5532191"><ele>626.4000000000001</ele><time>2026-05-02T17:29:59.889Z</time></trkpt><trkpt lat="40.4538692" lon="15.5533141"><ele>626.6</ele><time>2026-05-02T17:30:00.889Z</time></trkpt><trkpt lat="40.4538024" lon="15.5534633"><ele>626.8000000000001</ele><time>2026-05-02T17:30:01.888Z</time></trkpt><trkpt lat="40.4537677" lon="15.5535933"><ele>627.0</ele><time>2026-05-02T17:30:02.889Z</time></trkpt><trkpt lat="40.4537671" lon="15.553741"><ele>626.5</ele><time>2026-05-02T17:30:03.889Z</time></trkpt><trkpt lat="40.4537909" lon="15.5539087"><ele>626.0</ele><time>2026-05-02T17:30:04.889Z</time></trkpt><trkpt lat="40.4538098" lon="15.5540821"><ele>625.5</ele><time>2026-05-02T17:30:05.889Z</time></trkpt><trkpt lat="40.4538259" lon="15.5542512"><ele>625.0</ele><time>2026-05-02T17:30:06.889Z</time></trkpt><trkpt lat="40.453844" lon="15.5543895"><ele>625.0</ele><time>2026-05-02T17:30:07.889Z</time></trkpt><trkpt lat="40.4538547" lon="15.554505"><ele>625.0</ele><time>2026-05-02T17:30:08.888Z</time></trkpt><trkpt lat="40.453872" lon="15.5546093"><ele>625.0</ele><time>2026-05-02T17:30:09.889Z</time></trkpt><trkpt lat="40.4539271" lon="15.55472"><ele>625.0</ele><time>2026-05-02T17:30:10.889Z</time></trkpt><trkpt lat="40.453962" lon="15.5548089"><ele>625.0</ele><time>2026-05-02T17:30:11.889Z</time></trkpt><trkpt lat="40.4539867" lon="15.5548935"><ele>625.0</ele><time>2026-05-02T17:30:12.889Z</time></trkpt><trkpt lat="40.4540114" lon="15.5549718"><ele>625.3333333333334</ele><time>2026-05-02T17:30:13.889Z</time></trkpt><trkpt lat="40.4540327" lon="15.5550995"><ele>625.6666666666667</ele><time>2026-05-02T17:30:15.889Z</time></trkpt><trkpt lat="40.4540394" lon="15.5552147"><ele>626.0</ele><time>2026-05-02T17:30:17.889Z</time></trkpt><trkpt lat="40.454067" lon="15.5552891"><ele>626.3333333333334</ele><time>2026-05-02T17:30:20.889Z</time></trkpt><trkpt lat="40.4540708" lon="15.5551606"><ele>626.6666666666666</ele><time>2026-05-02T17:30:24.888Z</time></trkpt><trkpt lat="40.4540604" lon="15.5550609"><ele>627.0</ele><time>2026-05-02T17:30:25.889Z</time></trkpt><trkpt lat="40.4540496" lon="15.5549247"><ele>627.0</ele><time>2026-05-02T17:30:26.889Z</time></trkpt><trkpt lat="40.4540383" lon="15.5547814"><ele>627.0</ele><time>2026-05-02T17:30:27.889Z</time></trkpt><trkpt lat="40.4540474" lon="15.5546452"><ele>627.0</ele><time>2026-05-02T17:30:28.889Z</time></trkpt><trkpt lat="40.4540618" lon="15.554517"><ele>627.0</ele><time>2026-05-02T17:30:29.889Z</time></trkpt><trkpt lat="40.4540909" lon="15.5543842"><ele>627.0</ele><time>2026-05-02T17:30:30.889Z</time></trkpt><trkpt lat="40.4541262" lon="15.554251"><ele>627.0</ele><time>2026-05-02T17:30:31.888Z</time></trkpt><trkpt lat="40.4541614" lon="15.5541089"><ele>627.0</ele><time>2026-05-02T17:30:32.889Z</time></trkpt><trkpt lat="40.4541933" lon="15.5539745"><ele>627.0</ele><time>2026-05-02T17:30:33.889Z</time></trkpt><trkpt lat="40.4542135" lon="15.5538493"><ele>627.0</ele><time>2026-05-02T17:30:34.888Z</time></trkpt><trkpt lat="40.4542389" lon="15.5537365"><ele>627.0</ele><time>2026-05-02T17:30:35.888Z</time></trkpt><trkpt lat="40.4542624" lon="15.5536342"><ele>627.0</ele><time>2026-05-02T17:30:36.889Z</time></trkpt><trkpt lat="40.4542851" lon="15.5535488"><ele>627.0</ele><time>2026-05-02T17:30:37.889Z</time></trkpt><trkpt lat="40.4543109" lon="15.5534682"><ele>627.0</ele><time>2026-05-02T17:30:38.888Z</time></trkpt><trkpt lat="40.4543293" lon="15.5533848"><ele>627.0</ele><time>2026-05-02T17:30:39.889Z</time></trkpt><trkpt lat="40.4543583" lon="15.5532951"><ele>627.0</ele><time>2026-05-02T17:30:40.888Z</time></trkpt><trkpt lat="40.4543699" lon="15.5531882"><ele>627.0</ele><time>2026-05-02T17:30:41.889Z</time></trkpt><trkpt lat="40.454393" lon="15.5530776"><ele>627.0</ele><time>2026-05-02T17:30:42.889Z</time></trkpt><trkpt lat="40.454414" lon="15.5529673"><ele>626.8333333333334</ele><time>2026-05-02T17:30:43.889Z</time></trkpt><trkpt lat="40.4544379" lon="15.5528571"><ele>626.6666666666666</ele><time>2026-05-02T17:30:44.889Z</time></trkpt><trkpt lat="40.4544599" lon="15.552753"><ele>626.5</ele><time>2026-05-02T17:30:45.888Z</time></trkpt><trkpt lat="40.4544819" lon="15.5526592"><ele>626.3333333333333</ele><time>2026-05-02T17:30:46.889Z</time></trkpt><trkpt lat="40.454508" lon="15.5525715"><ele>626.1666666666666</ele><time>2026-05-02T17:30:47.889Z</time></trkpt><trkpt lat="40.4545463" lon="15.5524262"><ele>626.0</ele><time>2026-05-02T17:30:49.889Z</time></trkpt><trkpt lat="40.4545716" lon="15.5522638"><ele>626.0</ele><time>2026-05-02T17:30:51.889Z</time></trkpt><trkpt lat="40.4545904" lon="15.5521386"><ele>626.0</ele><time>2026-05-02T17:30:53.889Z</time></trkpt><trkpt lat="40.4545691" lon="15.5520225"><ele>626.0</ele><time>2026-05-02T17:30:55.888Z</time></trkpt><trkpt lat="40.4545246" lon="15.5519538"><ele>626.0</ele><time>2026-05-02T17:30:56.888Z</time></trkpt><trkpt lat="40.4544842" lon="15.5518805"><ele>626.0</ele><time>2026-05-02T17:30:57.888Z</time></trkpt><trkpt lat="40.4544552" lon="15.5517993"><ele>626.0</ele><time>2026-05-02T17:30:58.888Z</time></trkpt><trkpt lat="40.4544247" lon="15.5517111"><ele>625.8</ele><time>2026-05-02T17:30:59.889Z</time></trkpt><trkpt lat="40.4544123" lon="15.5516098"><ele>625.6</ele><time>2026-05-02T17:31:00.889Z</time></trkpt><trkpt lat="40.4544181" lon="15.5514979"><ele>625.4</ele><time>2026-05-02T17:31:01.889Z</time></trkpt><trkpt lat="40.4544493" lon="15.5513621"><ele>625.2</ele><time>2026-05-02T17:31:02.888Z</time></trkpt><trkpt lat="40.4544858" lon="15.5511846"><ele>625.0</ele><time>2026-05-02T17:31:03.888Z</time></trkpt><trkpt lat="40.4545132" lon="15.5509904"><ele>624.25</ele><time>2026-05-02T17:31:04.888Z</time></trkpt><trkpt lat="40.4545425" lon="15.5508226"><ele>623.5</ele><time>2026-05-02T17:31:05.889Z</time></trkpt><trkpt lat="40.4545913" lon="15.5506827"><ele>622.75</ele><time>2026-05-02T17:31:06.889Z</time></trkpt><trkpt lat="40.4546641" lon="15.550558"><ele>622.0</ele><time>2026-05-02T17:31:07.889Z</time></trkpt><trkpt lat="40.4547348" lon="15.5504229"><ele>624.4</ele><time>2026-05-02T17:31:08.889Z</time></trkpt><trkpt lat="40.4548035" lon="15.5503055"><ele>626.8000000000001</ele><time>2026-05-02T17:31:09.889Z</time></trkpt><trkpt lat="40.4548757" lon="15.5502158"><ele>629.2</ele><time>2026-05-02T17:31:10.889Z</time></trkpt><trkpt lat="40.4549492" lon="15.5501385"><ele>631.6</ele><time>2026-05-02T17:31:11.889Z</time></trkpt><trkpt lat="40.4550285" lon="15.5500483"><ele>634.0</ele><time>2026-05-02T17:31:12.889Z</time></trkpt><trkpt lat="40.4551233" lon="15.5499297"><ele>634.0</ele><time>2026-05-02T17:31:13.889Z</time></trkpt><trkpt lat="40.4552152" lon="15.549802"><ele>634.0</ele><time>2026-05-02T17:31:14.888Z</time></trkpt><trkpt lat="40.4552939" lon="15.549677"><ele>634.0</ele><time>2026-05-02T17:31:15.889Z</time></trkpt><trkpt lat="40.4553684" lon="15.5495572"><ele>634.0</ele><time>2026-05-02T17:31:16.889Z</time></trkpt><trkpt lat="40.4554395" lon="15.5494406"><ele>633.8333333333334</ele><time>2026-05-02T17:31:17.889Z</time></trkpt><trkpt lat="40.4555122" lon="15.5493433"><ele>633.6666666666667</ele><time>2026-05-02T17:31:18.889Z</time></trkpt><trkpt lat="40.4555771" lon="15.5492516"><ele>633.5</ele><time>2026-05-02T17:31:19.889Z</time></trkpt><trkpt lat="40.455634" lon="15.5491764"><ele>633.3333333333334</ele><time>2026-05-02T17:31:20.889Z</time></trkpt><trkpt lat="40.4556832" lon="15.5491116"><ele>633.1666666666666</ele><time>2026-05-02T17:31:21.889Z</time></trkpt><trkpt lat="40.455738" lon="15.5490586"><ele>633.0</ele><time>2026-05-02T17:31:22.889Z</time></trkpt><trkpt lat="40.4557995" lon="15.5490033"><ele>633.0</ele><time>2026-05-02T17:31:23.889Z</time></trkpt><trkpt lat="40.4558691" lon="15.5489434"><ele>633.0</ele><time>2026-05-02T17:31:24.888Z</time></trkpt><trkpt lat="40.4559454" lon="15.5488803"><ele>633.0</ele><time>2026-05-02T17:31:25.889Z</time></trkpt><trkpt lat="40.4560393" lon="15.5488079"><ele>633.0</ele><time>2026-05-02T17:31:26.889Z</time></trkpt><trkpt lat="40.4561341" lon="15.5487489"><ele>633.0</ele><time>2026-05-02T17:31:27.889Z</time></trkpt><trkpt lat="40.4562372" lon="15.5487171"><ele>627.4</ele><time>2026-05-02T17:31:28.889Z</time></trkpt><trkpt lat="40.4563145" lon="15.548682"><ele>621.8</ele><time>2026-05-02T17:31:29.889Z</time></trkpt><trkpt lat="40.4564258" lon="15.5486497"><ele>616.2</ele><time>2026-05-02T17:31:31.889Z</time></trkpt><trkpt lat="40.4564948" lon="15.5487351"><ele>610.6</ele><time>2026-05-02T17:31:33.888Z</time></trkpt><trkpt lat="40.4564943" lon="15.5488221"><ele>605.0</ele><time>2026-05-02T17:31:34.89Z</time></trkpt><trkpt lat="40.4564721" lon="15.5489483"><ele>605.0</ele><time>2026-05-02T17:31:35.89Z</time></trkpt><trkpt lat="40.4564483" lon="15.5490972"><ele>605.0</ele><time>2026-05-02T17:31:36.89Z</time></trkpt><trkpt lat="40.4564155" lon="15.5492566"><ele>605.0</ele><time>2026-05-02T17:31:37.89Z</time></trkpt><trkpt lat="40.4563751" lon="15.5494105"><ele>605.0</ele><time>2026-05-02T17:31:38.89Z</time></trkpt><trkpt lat="40.4563329" lon="15.5495624"><ele>603.25</ele><time>2026-05-02T17:31:39.89Z</time></trkpt><trkpt lat="40.4562919" lon="15.5497249"><ele>601.5</ele><time>2026-05-02T17:31:40.889Z</time></trkpt><trkpt lat="40.4562507" lon="15.5498906"><ele>599.75</ele><time>2026-05-02T17:31:41.889Z</time></trkpt><trkpt lat="40.4561993" lon="15.5500602"><ele>598.0</ele><time>2026-05-02T17:31:42.89Z</time></trkpt><trkpt lat="40.4561572" lon="15.550229"><ele>607.25</ele><time>2026-05-02T17:31:43.89Z</time></trkpt><trkpt lat="40.4561186" lon="15.5503857"><ele>616.5</ele><time>2026-05-02T17:31:44.889Z</time></trkpt><trkpt lat="40.4560775" lon="15.550538"><ele>625.75</ele><time>2026-05-02T17:31:45.89Z</time></trkpt><trkpt lat="40.4560299" lon="15.5506896"><ele>635.0</ele><time>2026-05-02T17:31:46.89Z</time></trkpt><trkpt lat="40.4559856" lon="15.5508481"><ele>635.0</ele><time>2026-05-02T17:31:47.89Z</time></trkpt><trkpt lat="40.4559376" lon="15.5509963"><ele>635.0</ele><time>2026-05-02T17:31:48.89Z</time></trkpt><trkpt lat="40.4558844" lon="15.5511308"><ele>635.0</ele><time>2026-05-02T17:31:49.89Z</time></trkpt><trkpt lat="40.455834" lon="15.5512496"><ele>635.0</ele><time>2026-05-02T17:31:50.89Z</time></trkpt><trkpt lat="40.4557877" lon="15.5513534"><ele>635.0</ele><time>2026-05-02T17:31:51.89Z</time></trkpt><trkpt lat="40.4557344" lon="15.5514553"><ele>636.0</ele><time>2026-05-02T17:31:52.89Z</time></trkpt><trkpt lat="40.455685" lon="15.5515528"><ele>637.0</ele><time>2026-05-02T17:31:53.89Z</time></trkpt><trkpt lat="40.4556313" lon="15.5516672"><ele>638.0</ele><time>2026-05-02T17:31:54.89Z</time></trkpt><trkpt lat="40.4555701" lon="15.5517768"><ele>639.0</ele><time>2026-05-02T17:31:55.889Z</time></trkpt><trkpt lat="40.4555053" lon="15.5518742"><ele>640.0</ele><time>2026-05-02T17:31:56.889Z</time></trkpt><trkpt lat="40.4554501" lon="15.5519584"><ele>640.0</ele><time>2026-05-02T17:31:57.889Z</time></trkpt><trkpt lat="40.455391" lon="15.5520374"><ele>640.0</ele><time>2026-05-02T17:31:58.89Z</time></trkpt><trkpt lat="40.4553252" lon="15.5521167"><ele>640.0</ele><time>2026-05-02T17:31:59.89Z</time></trkpt><trkpt lat="40.4552536" lon="15.5521785"><ele>640.0</ele><time>2026-05-02T17:32:00.89Z</time></trkpt><trkpt lat="40.4551873" lon="15.5522205"><ele>640.0</ele><time>2026-05-02T17:32:01.889Z</time></trkpt><trkpt lat="40.4551246" lon="15.5522507"><ele>640.0</ele><time>2026-05-02T17:32:02.89Z</time></trkpt><trkpt lat="40.4550622" lon="15.5522666"><ele>637.6666666666667</ele><time>2026-05-02T17:32:03.89Z</time></trkpt><trkpt lat="40.4549594" lon="15.5522789"><ele>635.3333333333334</ele><time>2026-05-02T17:32:05.89Z</time></trkpt><trkpt lat="40.4548707" lon="15.5522564"><ele>633.0</ele><time>2026-05-02T17:32:07.89Z</time></trkpt><trkpt lat="40.454791" lon="15.5522079"><ele>630.6666666666666</ele><time>2026-05-02T17:32:09.89Z</time></trkpt><trkpt lat="40.4547135" lon="15.5521684"><ele>628.3333333333333</ele><time>2026-05-02T17:32:11.889Z</time></trkpt><trkpt lat="40.4546373" lon="15.5521845"><ele>626.0</ele><time>2026-05-02T17:32:13.89Z</time></trkpt><trkpt lat="40.4545311" lon="15.5522565"><ele>626.0</ele><time>2026-05-02T17:32:15.889Z</time></trkpt><trkpt lat="40.4544638" lon="15.5523195"><ele>626.0</ele><time>2026-05-02T17:32:16.89Z</time></trkpt><trkpt lat="40.454394" lon="15.5524029"><ele>626.0</ele><time>2026-05-02T17:32:17.89Z</time></trkpt><trkpt lat="40.4543267" lon="15.5525085"><ele>626.0</ele><time>2026-05-02T17:32:18.89Z</time></trkpt><trkpt lat="40.4542598" lon="15.5526291"><ele>626.0</ele><time>2026-05-02T17:32:19.89Z</time></trkpt><trkpt lat="40.4541855" lon="15.5527448"><ele>626.0</ele><time>2026-05-02T17:32:20.89Z</time></trkpt><trkpt lat="40.4541103" lon="15.5528536"><ele>626.0</ele><time>2026-05-02T17:32:21.89Z</time></trkpt><trkpt lat="40.4540299" lon="15.5529696"><ele>626.0</ele><time>2026-05-02T17:32:22.89Z</time></trkpt><trkpt lat="40.4539581" lon="15.5531077"><ele>626.0</ele><time>2026-05-02T17:32:23.89Z</time></trkpt><trkpt lat="40.453902" lon="15.5532392"><ele>626.2</ele><time>2026-05-02T17:32:24.89Z</time></trkpt><trkpt lat="40.4538681" lon="15.5533693"><ele>626.4000000000001</ele><time>2026-05-02T17:32:25.89Z</time></trkpt><trkpt lat="40.4538299" lon="15.5534833"><ele>626.6</ele><time>2026-05-02T17:32:26.89Z</time></trkpt><trkpt lat="40.4538005" lon="15.5535872"><ele>626.8000000000001</ele><time>2026-05-02T17:32:27.89Z</time></trkpt><trkpt lat="40.4537857" lon="15.5537086"><ele>627.0</ele><time>2026-05-02T17:32:28.89Z</time></trkpt><trkpt lat="40.4537858" lon="15.5538366"><ele>626.6</ele><time>2026-05-02T17:32:29.89Z</time></trkpt><trkpt lat="40.4538203" lon="15.5539825"><ele>626.2</ele><time>2026-05-02T17:32:30.889Z</time></trkpt><trkpt lat="40.4538536" lon="15.5541242"><ele>625.8</ele><time>2026-05-02T17:32:31.889Z</time></trkpt><trkpt lat="40.4538719" lon="15.5542655"><ele>625.4</ele><time>2026-05-02T17:32:32.889Z</time></trkpt><trkpt lat="40.4538847" lon="15.5543963"><ele>625.0</ele><time>2026-05-02T17:32:33.89Z</time></trkpt><trkpt lat="40.4538973" lon="15.5545111"><ele>625.3333333333334</ele><time>2026-05-02T17:32:34.889Z</time></trkpt><trkpt lat="40.4539133" lon="15.5546162"><ele>625.6666666666667</ele><time>2026-05-02T17:32:35.89Z</time></trkpt><trkpt lat="40.4539232" lon="15.5547217"><ele>626.0</ele><time>2026-05-02T17:32:36.889Z</time></trkpt><trkpt lat="40.4539197" lon="15.5548228"><ele>626.3333333333334</ele><time>2026-05-02T17:32:37.889Z</time></trkpt><trkpt lat="40.4539126" lon="15.5549346"><ele>626.6666666666666</ele><time>2026-05-02T17:32:38.89Z</time></trkpt><trkpt lat="40.453906" lon="15.5550473"><ele>627.0</ele><time>2026-05-02T17:32:39.889Z</time></trkpt><trkpt lat="40.4538978" lon="15.5551703"><ele>627.0</ele><time>2026-05-02T17:32:40.89Z</time></trkpt><trkpt lat="40.4538899" lon="15.5552952"><ele>627.0</ele><time>2026-05-02T17:32:41.89Z</time></trkpt><trkpt lat="40.4538734" lon="15.5554263"><ele>627.0</ele><time>2026-05-02T17:32:42.889Z</time></trkpt><trkpt lat="40.4538645" lon="15.5555551"><ele>627.0</ele><time>2026-05-02T17:32:43.89Z</time></trkpt><trkpt lat="40.4538676" lon="15.5556834"><ele>627.0</ele><time>2026-05-02T17:32:44.89Z</time></trkpt><trkpt lat="40.4538504" lon="15.5558115"><ele>627.0</ele><time>2026-05-02T17:32:45.89Z</time></trkpt><trkpt lat="40.453824" lon="15.5559559"><ele>627.0</ele><time>2026-05-02T17:32:46.89Z</time></trkpt><trkpt lat="40.4537845" lon="15.5561093"><ele>627.0</ele><time>2026-05-02T17:32:47.89Z</time></trkpt><trkpt lat="40.4537473" lon="15.556257"><ele>627.0</ele><time>2026-05-02T17:32:48.89Z</time></trkpt><trkpt lat="40.4537186" lon="15.5563888"><ele>628.0</ele><time>2026-05-02T17:32:49.89Z</time></trkpt><trkpt lat="40.4536933" lon="15.5565019"><ele>629.0</ele><time>2026-05-02T17:32:50.89Z</time></trkpt><trkpt lat="40.4536775" lon="15.5566209"><ele>630.0</ele><time>2026-05-02T17:32:51.89Z</time></trkpt><trkpt lat="40.4536629" lon="15.5567318"><ele>631.0</ele><time>2026-05-02T17:32:52.89Z</time></trkpt><trkpt lat="40.4536535" lon="15.5568373"><ele>632.0</ele><time>2026-05-02T17:32:53.89Z</time></trkpt><trkpt lat="40.4536336" lon="15.5569471"><ele>633.0</ele><time>2026-05-02T17:32:54.889Z</time></trkpt><trkpt lat="40.4536107" lon="15.5570597"><ele>633.8333333333334</ele><time>2026-05-02T17:32:55.89Z</time></trkpt><trkpt lat="40.4535971" lon="15.557176"><ele>634.6666666666666</ele><time>2026-05-02T17:32:56.89Z</time></trkpt><trkpt lat="40.4535817" lon="15.5572847"><ele>635.5</ele><time>2026-05-02T17:32:57.89Z</time></trkpt><trkpt lat="40.4535649" lon="15.5573964"><ele>636.3333333333333</ele><time>2026-05-02T17:32:58.89Z</time></trkpt><trkpt lat="40.4535439" lon="15.5575169"><ele>637.1666666666666</ele><time>2026-05-02T17:32:59.89Z</time></trkpt><trkpt lat="40.4535268" lon="15.5576385"><ele>638.0</ele><time>2026-05-02T17:33:00.89Z</time></trkpt><trkpt lat="40.4535061" lon="15.5577417"><ele>638.0</ele><time>2026-05-02T17:33:01.89Z</time></trkpt><trkpt lat="40.4534936" lon="15.5578245"><ele>638.0</ele><time>2026-05-02T17:33:02.89Z</time></trkpt><trkpt lat="40.4534523" lon="15.5579943"><ele>638.0</ele><time>2026-05-02T17:33:04.89Z</time></trkpt><trkpt lat="40.4534241" lon="15.5581002"><ele>638.0</ele><time>2026-05-02T17:33:05.89Z</time></trkpt><trkpt lat="40.453397" lon="15.5582125"><ele>638.0</ele><time>2026-05-02T17:33:06.89Z</time></trkpt><trkpt lat="40.4533672" lon="15.5583095"><ele>638.1666666666666</ele><time>2026-05-02T17:33:07.89Z</time></trkpt><trkpt lat="40.4533488" lon="15.558403"><ele>638.3333333333333</ele><time>2026-05-02T17:33:08.89Z</time></trkpt><trkpt lat="40.4533524" lon="15.5585033"><ele>638.5</ele><time>2026-05-02T17:33:09.89Z</time></trkpt><trkpt lat="40.4533726" lon="15.558614"><ele>638.6666666666666</ele><time>2026-05-02T17:33:10.89Z</time></trkpt><trkpt lat="40.4534163" lon="15.5587262"><ele>638.8333333333334</ele><time>2026-05-02T17:33:11.89Z</time></trkpt><trkpt lat="40.4534699" lon="15.5588279"><ele>639.0</ele><time>2026-05-02T17:33:12.89Z</time></trkpt><trkpt lat="40.4535231" lon="15.5589229"><ele>639.0</ele><time>2026-05-02T17:33:13.89Z</time></trkpt><trkpt lat="40.4535715" lon="15.5590013"><ele>639.0</ele><time>2026-05-02T17:33:14.89Z</time></trkpt><trkpt lat="40.4536378" lon="15.5590922"><ele>639.0</ele><time>2026-05-02T17:33:16.89Z</time></trkpt><trkpt lat="40.4537033" lon="15.5591175"><ele>639.0</ele><time>2026-05-02T17:33:19.889Z</time></trkpt><trkpt lat="40.4537836" lon="15.5590476"><ele>639.0</ele><time>2026-05-02T17:33:21.89Z</time></trkpt><trkpt lat="40.4539076" lon="15.5589963"><ele>640.2</ele><time>2026-05-02T17:33:23.89Z</time></trkpt><trkpt lat="40.4539858" lon="15.5589969"><ele>641.4</ele><time>2026-05-02T17:33:24.889Z</time></trkpt><trkpt lat="40.4540784" lon="15.5590023"><ele>642.6</ele><time>2026-05-02T17:33:25.89Z</time></trkpt><trkpt lat="40.4541809" lon="15.5589807"><ele>643.8</ele><time>2026-05-02T17:33:26.89Z</time></trkpt><trkpt lat="40.4542795" lon="15.55891"><ele>645.0</ele><time>2026-05-02T17:33:27.89Z</time></trkpt><trkpt lat="40.4543515" lon="15.5588321"><ele>645.0</ele><time>2026-05-02T17:33:28.889Z</time></trkpt><trkpt lat="40.4544068" lon="15.5587781"><ele>645.0</ele><time>2026-05-02T17:33:29.89Z</time></trkpt><trkpt lat="40.4544663" lon="15.5587259"><ele>645.0</ele><time>2026-05-02T17:33:30.89Z</time></trkpt><trkpt lat="40.4545261" lon="15.5586782"><ele>645.0</ele><time>2026-05-02T17:33:31.89Z</time></trkpt><trkpt lat="40.4545892" lon="15.5586417"><ele>645.0</ele><time>2026-05-02T17:33:32.89Z</time></trkpt><trkpt lat="40.4546651" lon="15.5585944"><ele>645.0</ele><time>2026-05-02T17:33:33.889Z</time></trkpt><trkpt lat="40.4547428" lon="15.5585354"><ele>644.8333333333334</ele><time>2026-05-02T17:33:34.89Z</time></trkpt><trkpt lat="40.4548203" lon="15.5584775"><ele>644.6666666666666</ele><time>2026-05-02T17:33:35.89Z</time></trkpt><trkpt lat="40.4548998" lon="15.5584239"><ele>644.5</ele><time>2026-05-02T17:33:36.89Z</time></trkpt><trkpt lat="40.4549734" lon="15.5583813"><ele>644.3333333333333</ele><time>2026-05-02T17:33:37.889Z</time></trkpt><trkpt lat="40.455058" lon="15.5583186"><ele>644.1666666666666</ele><time>2026-05-02T17:33:39.889Z</time></trkpt><trkpt lat="40.4550568" lon="15.5582176"><ele>644.0</ele><time>2026-05-02T17:33:43.89Z</time></trkpt><trkpt lat="40.4549311" lon="15.5581245"><ele>644.0</ele><time>2026-05-02T17:33:45.89Z</time></trkpt><trkpt lat="40.4548317" lon="15.5580505"><ele>644.0</ele><time>2026-05-02T17:33:46.889Z</time></trkpt><trkpt lat="40.4547329" lon="15.5579577"><ele>644.0</ele><time>2026-05-02T17:33:47.89Z</time></trkpt><trkpt lat="40.454644" lon="15.5578626"><ele>644.0</ele><time>2026-05-02T17:33:48.89Z</time></trkpt><trkpt lat="40.4545604" lon="15.5577666"><ele>643.0</ele><time>2026-05-02T17:33:49.89Z</time></trkpt><trkpt lat="40.454498" lon="15.557649"><ele>642.0</ele><time>2026-05-02T17:33:50.89Z</time></trkpt><trkpt lat="40.4544414" lon="15.5575218"><ele>641.0</ele><time>2026-05-02T17:33:51.889Z</time></trkpt><trkpt lat="40.454399" lon="15.5573918"><ele>640.0</ele><time>2026-05-02T17:33:52.889Z</time></trkpt><trkpt lat="40.4543613" lon="15.5572668"><ele>639.0</ele><time>2026-05-02T17:33:53.89Z</time></trkpt><trkpt lat="40.4543272" lon="15.5571455"><ele>638.1666666666666</ele><time>2026-05-02T17:33:54.89Z</time></trkpt><trkpt lat="40.4542988" lon="15.5570303"><ele>637.3333333333334</ele><time>2026-05-02T17:33:55.89Z</time></trkpt><trkpt lat="40.4542741" lon="15.5569306"><ele>636.5</ele><time>2026-05-02T17:33:56.89Z</time></trkpt><trkpt lat="40.4542515" lon="15.5568477"><ele>635.6666666666667</ele><time>2026-05-02T17:33:57.889Z</time></trkpt><trkpt lat="40.454241" lon="15.5567372"><ele>634.8333333333334</ele><time>2026-05-02T17:33:59.89Z</time></trkpt><trkpt lat="40.454291" lon="15.5566623"><ele>634.0</ele><time>2026-05-02T17:34:01.89Z</time></trkpt><trkpt lat="40.4544048" lon="15.5566341"><ele>634.0</ele><time>2026-05-02T17:34:03.89Z</time></trkpt><trkpt lat="40.4545189" lon="15.5566326"><ele>634.0</ele><time>2026-05-02T17:34:05.89Z</time></trkpt><trkpt lat="40.4545951" lon="15.5566282"><ele>634.0</ele><time>2026-05-02T17:34:08.889Z</time></trkpt><trkpt lat="40.4546509" lon="15.5567007"><ele>634.0</ele><time>2026-05-02T17:34:10.889Z</time></trkpt><trkpt lat="40.4547376" lon="15.5568285"><ele>634.0</ele><time>2026-05-02T17:34:12.89Z</time></trkpt><trkpt lat="40.4548055" lon="15.556913"><ele>633.3333333333334</ele><time>2026-05-02T17:34:13.89Z</time></trkpt><trkpt lat="40.4548827" lon="15.5569842"><ele>632.6666666666667</ele><time>2026-05-02T17:34:14.89Z</time></trkpt><trkpt lat="40.4549554" lon="15.5570521"><ele>632.0</ele><time>2026-05-02T17:34:15.89Z</time></trkpt><trkpt lat="40.4550276" lon="15.5571228"><ele>631.3333333333334</ele><time>2026-05-02T17:34:16.89Z</time></trkpt><trkpt lat="40.4550975" lon="15.5571919"><ele>630.6666666666666</ele><time>2026-05-02T17:34:17.89Z</time></trkpt><trkpt lat="40.4551673" lon="15.5572541"><ele>630.0</ele><time>2026-05-02T17:34:18.89Z</time></trkpt><trkpt lat="40.4552193" lon="15.557309"><ele>631.3333333333334</ele><time>2026-05-02T17:34:19.89Z</time></trkpt><trkpt lat="40.4552763" lon="15.5573627"><ele>632.6666666666666</ele><time>2026-05-02T17:34:20.889Z</time></trkpt><trkpt lat="40.4553272" lon="15.5574194"><ele>634.0</ele><time>2026-05-02T17:34:21.89Z</time></trkpt><trkpt lat="40.4553778" lon="15.5574706"><ele>635.3333333333333</ele><time>2026-05-02T17:34:22.89Z</time></trkpt><trkpt lat="40.4554738" lon="15.5575807"><ele>636.6666666666666</ele><time>2026-05-02T17:34:24.89Z</time></trkpt><trkpt lat="40.4555591" lon="15.5576924"><ele>638.0</ele><time>2026-05-02T17:34:26.89Z</time></trkpt><trkpt lat="40.4556185" lon="15.5577936"><ele>638.0</ele><time>2026-05-02T17:34:28.89Z</time></trkpt><trkpt lat="40.4555711" lon="15.5576401"><ele>638.0</ele><time>2026-05-02T17:34:33.89Z</time></trkpt><trkpt lat="40.4555031" lon="15.5575558"><ele>638.0</ele><time>2026-05-02T17:34:34.889Z</time></trkpt><trkpt lat="40.4554373" lon="15.5574872"><ele>638.0</ele><time>2026-05-02T17:34:35.889Z</time></trkpt><trkpt lat="40.4553853" lon="15.5574331"><ele>638.0</ele><time>2026-05-02T17:34:36.889Z</time></trkpt><trkpt lat="40.4553341" lon="15.5573771"><ele>638.0</ele><time>2026-05-02T17:34:37.89Z</time></trkpt><trkpt lat="40.4552742" lon="15.5573078"><ele>638.0</ele><time>2026-05-02T17:34:38.89Z</time></trkpt><trkpt lat="40.4551985" lon="15.557233"><ele>638.0</ele><time>2026-05-02T17:34:39.89Z</time></trkpt><trkpt lat="40.4551159" lon="15.5571583"><ele>638.0</ele><time>2026-05-02T17:34:40.89Z</time></trkpt><trkpt lat="40.4550322" lon="15.5570769"><ele>638.0</ele><time>2026-05-02T17:34:41.89Z</time></trkpt><trkpt lat="40.4549503" lon="15.556993"><ele>638.0</ele><time>2026-05-02T17:34:42.889Z</time></trkpt><trkpt lat="40.4548729" lon="15.5569079"><ele>637.1999999999999</ele><time>2026-05-02T17:34:43.889Z</time></trkpt><trkpt lat="40.4548006" lon="15.5568239"><ele>636.4</ele><time>2026-05-02T17:34:44.89Z</time></trkpt><trkpt lat="40.4547313" lon="15.5567445"><ele>635.5999999999999</ele><time>2026-05-02T17:34:45.89Z</time></trkpt><trkpt lat="40.4546628" lon="15.5566782"><ele>634.8</ele><time>2026-05-02T17:34:46.89Z</time></trkpt><trkpt lat="40.454617" lon="15.5566143"><ele>634.0</ele><time>2026-05-02T17:34:47.89Z</time></trkpt><trkpt lat="40.4545618" lon="15.5564809"><ele>634.0</ele><time>2026-05-02T17:34:49.89Z</time></trkpt><trkpt lat="40.4545321" lon="15.556401"><ele>634.0</ele><time>2026-05-02T17:34:50.89Z</time></trkpt><trkpt lat="40.4545054" lon="15.5563038"><ele>634.0</ele><time>2026-05-02T17:34:51.89Z</time></trkpt><trkpt lat="40.4544747" lon="15.5562055"><ele>634.0</ele><time>2026-05-02T17:34:52.89Z</time></trkpt><trkpt lat="40.4544504" lon="15.5561033"><ele>634.0</ele><time>2026-05-02T17:34:53.89Z</time></trkpt><trkpt lat="40.4544225" lon="15.555996"><ele>634.0</ele><time>2026-05-02T17:34:54.889Z</time></trkpt><trkpt lat="40.4543948" lon="15.5558838"><ele>633.4</ele><time>2026-05-02T17:34:55.89Z</time></trkpt><trkpt lat="40.45437" lon="15.5557738"><ele>632.8</ele><time>2026-05-02T17:34:56.89Z</time></trkpt><trkpt lat="40.4543471" lon="15.5556749"><ele>632.2</ele><time>2026-05-02T17:34:57.89Z</time></trkpt><trkpt lat="40.4543238" lon="15.5555814"><ele>631.6</ele><time>2026-05-02T17:34:58.889Z</time></trkpt><trkpt lat="40.4542942" lon="15.5554176"><ele>631.0</ele><time>2026-05-02T17:35:00.89Z</time></trkpt><trkpt lat="40.4542752" lon="15.5553137"><ele>630.3333333333334</ele><time>2026-05-02T17:35:01.89Z</time></trkpt><trkpt lat="40.4542474" lon="15.5552154"><ele>629.6666666666667</ele><time>2026-05-02T17:35:02.89Z</time></trkpt><trkpt lat="40.4542002" lon="15.5551008"><ele>629.0</ele><time>2026-05-02T17:35:04.89Z</time></trkpt><trkpt lat="40.4541679" lon="15.5549891"><ele>628.3333333333334</ele><time>2026-05-02T17:35:21.889Z</time></trkpt><trkpt lat="40.4541519" lon="15.5549016"><ele>627.6666666666666</ele><time>2026-05-02T17:35:22.89Z</time></trkpt><trkpt lat="40.4541282" lon="15.5548197"><ele>627.0</ele><time>2026-05-02T17:35:23.89Z</time></trkpt><trkpt lat="40.454069" lon="15.554782"><ele>627.0</ele><time>2026-05-02T17:35:25.89Z</time></trkpt><trkpt lat="40.4540223" lon="15.5548871"><ele>627.0</ele><time>2026-05-02T17:35:27.889Z</time></trkpt><trkpt lat="40.4540204" lon="15.5549939"><ele>627.0</ele><time>2026-05-02T17:35:28.89Z</time></trkpt><trkpt lat="40.45403" lon="15.5551502"><ele>627.0</ele><time>2026-05-02T17:35:29.89Z</time></trkpt><trkpt lat="40.4540484" lon="15.5553238"><ele>627.0</ele><time>2026-05-02T17:35:30.89Z</time></trkpt><trkpt lat="40.4540677" lon="15.555478"><ele>627.6666666666666</ele><time>2026-05-02T17:35:31.889Z</time></trkpt><trkpt lat="40.4540833" lon="15.5556025"><ele>628.3333333333334</ele><time>2026-05-02T17:35:32.89Z</time></trkpt><trkpt lat="40.4540963" lon="15.5556964"><ele>629.0</ele><time>2026-05-02T17:35:33.89Z</time></trkpt><trkpt lat="40.454107" lon="15.5558295"><ele>629.6666666666667</ele><time>2026-05-02T17:35:35.889Z</time></trkpt><trkpt lat="40.4540573" lon="15.5559084"><ele>630.3333333333334</ele><time>2026-05-02T17:35:38.89Z</time></trkpt><trkpt lat="40.4539913" lon="15.5559112"><ele>631.0</ele><time>2026-05-02T17:35:40.89Z</time></trkpt><trkpt lat="40.453964" lon="15.5559871"><ele>631.0</ele><time>2026-05-02T17:39:30.889Z</time></trkpt><trkpt lat="40.4540359" lon="15.5559596"><ele>631.0</ele><time>2026-05-02T17:39:33.889Z</time></trkpt><trkpt lat="40.4540861" lon="15.5558636"><ele>631.0</ele><time>2026-05-02T17:39:36.89Z</time></trkpt><trkpt lat="40.4540982" lon="15.5557582"><ele>631.0</ele><time>2026-05-02T17:39:38.89Z</time></trkpt><trkpt lat="40.4541069" lon="15.5556316"><ele>631.0</ele><time>2026-05-02T17:39:40.89Z</time></trkpt><trkpt lat="40.4541141" lon="15.5554922"><ele>631.0</ele><time>2026-05-02T17:39:42.89Z</time></trkpt><trkpt lat="40.4541088" lon="15.5553601"><ele>630.3333333333334</ele><time>2026-05-02T17:39:44.89Z</time></trkpt><trkpt lat="40.4540884" lon="15.5552473"><ele>629.6666666666667</ele><time>2026-05-02T17:39:46.89Z</time></trkpt><trkpt lat="40.4540749" lon="15.5551449"><ele>629.0</ele><time>2026-05-02T17:39:48.89Z</time></trkpt><trkpt lat="40.4540651" lon="15.5550357"><ele>628.3333333333334</ele><time>2026-05-02T17:39:50.89Z</time></trkpt><trkpt lat="40.4540675" lon="15.5549354"><ele>627.6666666666666</ele><time>2026-05-02T17:39:53.89Z</time></trkpt><trkpt lat="40.4540537" lon="15.554838"><ele>627.0</ele><time>2026-05-02T17:41:13.89Z</time></trkpt><trkpt lat="40.4540521" lon="15.5547134"><ele>627.0</ele><time>2026-05-02T17:41:15.89Z</time></trkpt><trkpt lat="40.4540556" lon="15.5545885"><ele>627.0</ele><time>2026-05-02T17:41:17.89Z</time></trkpt><trkpt lat="40.4540729" lon="15.5544777"><ele>627.0</ele><time>2026-05-02T17:41:19.889Z</time></trkpt><trkpt lat="40.4541107" lon="15.5543635"><ele>627.0</ele><time>2026-05-02T17:41:21.89Z</time></trkpt><trkpt lat="40.454136" lon="15.554251"><ele>627.0</ele><time>2026-05-02T17:41:23.89Z</time></trkpt><trkpt lat="40.4541637" lon="15.5541287"><ele>627.0</ele><time>2026-05-02T17:41:25.89Z</time></trkpt><trkpt lat="40.4541926" lon="15.5540252"><ele>627.0</ele><time>2026-05-02T17:41:27.89Z</time></trkpt><trkpt lat="40.4542258" lon="15.5538727"><ele>627.0</ele><time>2026-05-02T17:41:29.89Z</time></trkpt><trkpt lat="40.4542677" lon="15.5537141"><ele>627.0</ele><time>2026-05-02T17:41:31.89Z</time></trkpt><trkpt lat="40.4542883" lon="15.5536181"><ele>627.0</ele><time>2026-05-02T17:41:32.89Z</time></trkpt><trkpt lat="40.4543083" lon="15.5535211"><ele>627.0</ele><time>2026-05-02T17:41:33.89Z</time></trkpt><trkpt lat="40.4543274" lon="15.5534248"><ele>627.0</ele><time>2026-05-02T17:41:34.89Z</time></trkpt><trkpt lat="40.4543438" lon="15.5533192"><ele>627.0</ele><time>2026-05-02T17:41:35.889Z</time></trkpt><trkpt lat="40.4543567" lon="15.5532159"><ele>627.0</ele><time>2026-05-02T17:41:36.89Z</time></trkpt><trkpt lat="40.4543699" lon="15.5531177"><ele>627.0</ele><time>2026-05-02T17:41:37.89Z</time></trkpt><trkpt lat="40.4543859" lon="15.5530169"><ele>627.0</ele><time>2026-05-02T17:41:38.89Z</time></trkpt><trkpt lat="40.4544108" lon="15.5529178"><ele>626.8571428571429</ele><time>2026-05-02T17:41:39.89Z</time></trkpt><trkpt lat="40.4544356" lon="15.5528221"><ele>626.7142857142857</ele><time>2026-05-02T17:41:40.89Z</time></trkpt><trkpt lat="40.4544516" lon="15.5527396"><ele>626.5714285714286</ele><time>2026-05-02T17:41:41.89Z</time></trkpt><trkpt lat="40.4544645" lon="15.5526451"><ele>626.4285714285714</ele><time>2026-05-02T17:41:42.89Z</time></trkpt><trkpt lat="40.4544842" lon="15.55255"><ele>626.2857142857143</ele><time>2026-05-02T17:41:43.89Z</time></trkpt><trkpt lat="40.4545071" lon="15.5524593"><ele>626.1428571428571</ele><time>2026-05-02T17:41:44.89Z</time></trkpt><trkpt lat="40.454533" lon="15.5523697"><ele>626.0</ele><time>2026-05-02T17:41:45.89Z</time></trkpt><trkpt lat="40.4545614" lon="15.5522813"><ele>626.0</ele><time>2026-05-02T17:41:46.89Z</time></trkpt><trkpt lat="40.4545842" lon="15.5521986"><ele>626.0</ele><time>2026-05-02T17:41:47.89Z</time></trkpt><trkpt lat="40.4545641" lon="15.5520309"><ele>626.0</ele><time>2026-05-02T17:41:49.889Z</time></trkpt><trkpt lat="40.4544872" lon="15.5519641"><ele>626.0</ele><time>2026-05-02T17:41:50.89Z</time></trkpt><trkpt lat="40.4544215" lon="15.5519008"><ele>626.0</ele><time>2026-05-02T17:41:51.89Z</time></trkpt><trkpt lat="40.4543556" lon="15.5518395"><ele>625.8571428571429</ele><time>2026-05-02T17:41:52.89Z</time></trkpt><trkpt lat="40.4543062" lon="15.551774"><ele>625.7142857142858</ele><time>2026-05-02T17:41:53.889Z</time></trkpt><trkpt lat="40.4542745" lon="15.5517004"><ele>625.5714285714287</ele><time>2026-05-02T17:41:54.89Z</time></trkpt><trkpt lat="40.4542444" lon="15.5516138"><ele>625.4285714285714</ele><time>2026-05-02T17:41:55.89Z</time></trkpt><trkpt lat="40.4542234" lon="15.5515126"><ele>625.2857142857143</ele><time>2026-05-02T17:41:56.889Z</time></trkpt><trkpt lat="40.4542214" lon="15.5514173"><ele>625.1428571428572</ele><time>2026-05-02T17:41:57.89Z</time></trkpt><trkpt lat="40.454238" lon="15.5513163"><ele>625.0</ele><time>2026-05-02T17:41:58.89Z</time></trkpt><trkpt lat="40.4542578" lon="15.5511985"><ele>624.5</ele><time>2026-05-02T17:41:59.89Z</time></trkpt><trkpt lat="40.4542708" lon="15.5510849"><ele>624.0</ele><time>2026-05-02T17:42:00.89Z</time></trkpt><trkpt lat="40.4542872" lon="15.5509722"><ele>623.5</ele><time>2026-05-02T17:42:01.89Z</time></trkpt><trkpt lat="40.45431" lon="15.5508557"><ele>623.0</ele><time>2026-05-02T17:42:02.889Z</time></trkpt><trkpt lat="40.4543358" lon="15.5507479"><ele>622.5</ele><time>2026-05-02T17:42:03.89Z</time></trkpt><trkpt lat="40.454356" lon="15.5506409"><ele>622.0</ele><time>2026-05-02T17:42:04.89Z</time></trkpt><trkpt lat="40.4543793" lon="15.5505394"><ele>622.0</ele><time>2026-05-02T17:42:05.89Z</time></trkpt><trkpt lat="40.4544069" lon="15.5504401"><ele>622.0</ele><time>2026-05-02T17:42:06.889Z</time></trkpt><trkpt lat="40.4544378" lon="15.5503483"><ele>622.0</ele><time>2026-05-02T17:42:07.889Z</time></trkpt><trkpt lat="40.4544637" lon="15.5502638"><ele>622.0</ele><time>2026-05-02T17:42:08.89Z</time></trkpt><trkpt lat="40.4544931" lon="15.5501842"><ele>622.0</ele><time>2026-05-02T17:42:09.89Z</time></trkpt><trkpt lat="40.4545214" lon="15.5501016"><ele>622.0</ele><time>2026-05-02T17:42:10.89Z</time></trkpt><trkpt lat="40.4545557" lon="15.5500054"><ele>622.0</ele><time>2026-05-02T17:42:11.89Z</time></trkpt><trkpt lat="40.4545955" lon="15.5499123"><ele>621.5</ele><time>2026-05-02T17:42:12.89Z</time></trkpt><trkpt lat="40.4546375" lon="15.5498327"><ele>621.0</ele><time>2026-05-02T17:42:13.889Z</time></trkpt><trkpt lat="40.4546824" lon="15.5497531"><ele>620.5</ele><time>2026-05-02T17:42:14.89Z</time></trkpt><trkpt lat="40.454729" lon="15.5496765"><ele>620.0</ele><time>2026-05-02T17:42:15.889Z</time></trkpt><trkpt lat="40.454782" lon="15.5495925"><ele>619.5</ele><time>2026-05-02T17:42:16.89Z</time></trkpt><trkpt lat="40.454849" lon="15.549488"><ele>619.0</ele><time>2026-05-02T17:42:17.89Z</time></trkpt><trkpt lat="40.4549254" lon="15.5493767"><ele>619.0</ele><time>2026-05-02T17:42:18.889Z</time></trkpt><trkpt lat="40.455002" lon="15.5492613"><ele>619.0</ele><time>2026-05-02T17:42:19.89Z</time></trkpt><trkpt lat="40.4550777" lon="15.5491252"><ele>619.0</ele><time>2026-05-02T17:42:20.89Z</time></trkpt><trkpt lat="40.4552168" lon="15.5489044"><ele>619.0</ele><time>2026-05-02T17:42:22.89Z</time></trkpt><trkpt lat="40.4552983" lon="15.5488111"><ele>619.0</ele><time>2026-05-02T17:42:23.889Z</time></trkpt><trkpt lat="40.4553903" lon="15.5487116"><ele>619.0</ele><time>2026-05-02T17:42:24.889Z</time></trkpt><trkpt lat="40.4554805" lon="15.5486317"><ele>619.0</ele><time>2026-05-02T17:42:25.89Z</time></trkpt><trkpt lat="40.4555587" lon="15.5485583"><ele>619.0</ele><time>2026-05-02T17:42:26.889Z</time></trkpt><trkpt lat="40.4556133" lon="15.5484657"><ele>618.3333333333334</ele><time>2026-05-02T17:42:27.889Z</time></trkpt><trkpt lat="40.4556237" lon="15.5483646"><ele>617.6666666666667</ele><time>2026-05-02T17:42:28.889Z</time></trkpt><trkpt lat="40.4555968" lon="15.5482775"><ele>617.0</ele><time>2026-05-02T17:42:29.889Z</time></trkpt><trkpt lat="40.4555394" lon="15.548216"><ele>616.3333333333334</ele><time>2026-05-02T17:42:30.89Z</time></trkpt><trkpt lat="40.4554749" lon="15.548194"><ele>615.6666666666666</ele><time>2026-05-02T17:42:31.89Z</time></trkpt><trkpt lat="40.4553844" lon="15.5482251"><ele>615.0</ele><time>2026-05-02T17:42:32.89Z</time></trkpt><trkpt lat="40.455297" lon="15.5483176"><ele>616.0</ele><time>2026-05-02T17:42:33.89Z</time></trkpt><trkpt lat="40.455214" lon="15.5484558"><ele>617.0</ele><time>2026-05-02T17:42:34.889Z</time></trkpt><trkpt lat="40.4551267" lon="15.5485938"><ele>618.0</ele><time>2026-05-02T17:42:35.89Z</time></trkpt><trkpt lat="40.455019" lon="15.5487057"><ele>619.0</ele><time>2026-05-02T17:42:36.889Z</time></trkpt><trkpt lat="40.4548935" lon="15.5487632"><ele>619.0</ele><time>2026-05-02T17:42:37.89Z</time></trkpt><trkpt lat="40.4547504" lon="15.548786"><ele>619.0</ele><time>2026-05-02T17:42:38.89Z</time></trkpt><trkpt lat="40.4545992" lon="15.5488088"><ele>619.0</ele><time>2026-05-02T17:42:39.89Z</time></trkpt><trkpt lat="40.4544441" lon="15.5488353"><ele>614.6666666666667</ele><time>2026-05-02T17:42:40.89Z</time></trkpt><trkpt lat="40.4542724" lon="15.5488602"><ele>610.3333333333334</ele><time>2026-05-02T17:42:41.889Z</time></trkpt><trkpt lat="40.454102" lon="15.5489132"><ele>606.0</ele><time>2026-05-02T17:42:42.889Z</time></trkpt><trkpt lat="40.4539427" lon="15.5489945"><ele>606.0</ele><time>2026-05-02T17:42:43.89Z</time></trkpt><trkpt lat="40.453804" lon="15.5491064"><ele>606.0</ele><time>2026-05-02T17:42:44.889Z</time></trkpt><trkpt lat="40.453688" lon="15.5492522"><ele>606.0</ele><time>2026-05-02T17:42:45.89Z</time></trkpt><trkpt lat="40.4535938" lon="15.5494258"><ele>602.6666666666666</ele><time>2026-05-02T17:42:46.89Z</time></trkpt><trkpt lat="40.4535142" lon="15.5496369"><ele>599.3333333333333</ele><time>2026-05-02T17:42:47.89Z</time></trkpt><trkpt lat="40.4534424" lon="15.5498222"><ele>596.0</ele><time>2026-05-02T17:42:48.89Z</time></trkpt><trkpt lat="40.4533638" lon="15.549993"><ele>596.0</ele><time>2026-05-02T17:42:49.89Z</time></trkpt><trkpt lat="40.45328" lon="15.5501491"><ele>596.0</ele><time>2026-05-02T17:42:50.889Z</time></trkpt><trkpt lat="40.4531892" lon="15.5503033"><ele>596.0</ele><time>2026-05-02T17:42:51.89Z</time></trkpt><trkpt lat="40.453079" lon="15.5504335"><ele>596.0</ele><time>2026-05-02T17:42:52.89Z</time></trkpt><trkpt lat="40.4529543" lon="15.5505601"><ele>593.6666666666666</ele><time>2026-05-02T17:42:53.89Z</time></trkpt><trkpt lat="40.4527995" lon="15.5506531"><ele>591.3333333333334</ele><time>2026-05-02T17:42:54.89Z</time></trkpt><trkpt lat="40.4526343" lon="15.5507257"><ele>589.0</ele><time>2026-05-02T17:42:55.889Z</time></trkpt><trkpt lat="40.4524782" lon="15.5508083"><ele>589.0</ele><time>2026-05-02T17:42:56.89Z</time></trkpt><trkpt lat="40.4523353" lon="15.5509354"><ele>589.0</ele><time>2026-05-02T17:42:57.89Z</time></trkpt><trkpt lat="40.4522006" lon="15.5510842"><ele>589.0</ele><time>2026-05-02T17:42:58.89Z</time></trkpt><trkpt lat="40.4520585" lon="15.5512442"><ele>587.3333333333334</ele><time>2026-05-02T17:42:59.89Z</time></trkpt><trkpt lat="40.4519039" lon="15.5513833"><ele>585.6666666666666</ele><time>2026-05-02T17:43:00.89Z</time></trkpt><trkpt lat="40.4517328" lon="15.5515108"><ele>584.0</ele><time>2026-05-02T17:43:01.89Z</time></trkpt><trkpt lat="40.4515729" lon="15.5516286"><ele>584.0</ele><time>2026-05-02T17:43:02.89Z</time></trkpt><trkpt lat="40.4514292" lon="15.5517338"><ele>584.0</ele><time>2026-05-02T17:43:03.89Z</time></trkpt><trkpt lat="40.4513023" lon="15.551825"><ele>584.0</ele><time>2026-05-02T17:43:04.89Z</time></trkpt><trkpt lat="40.4511899" lon="15.5518794"><ele>584.0</ele><time>2026-05-02T17:43:05.89Z</time></trkpt><trkpt lat="40.4510764" lon="15.5518975"><ele>582.4</ele><time>2026-05-02T17:43:06.889Z</time></trkpt><trkpt lat="40.4509748" lon="15.5518514"><ele>580.8</ele><time>2026-05-02T17:43:07.89Z</time></trkpt><trkpt lat="40.4508891" lon="15.5517654"><ele>579.2</ele><time>2026-05-02T17:43:08.89Z</time></trkpt><trkpt lat="40.450822" lon="15.551649"><ele>577.6</ele><time>2026-05-02T17:43:09.89Z</time></trkpt><trkpt lat="40.4507814" lon="15.5515113"><ele>576.0</ele><time>2026-05-02T17:43:10.89Z</time></trkpt><trkpt lat="40.4507787" lon="15.5513684"><ele>576.0</ele><time>2026-05-02T17:43:11.89Z</time></trkpt><trkpt lat="40.4508221" lon="15.5512396"><ele>576.0</ele><time>2026-05-02T17:43:12.89Z</time></trkpt><trkpt lat="40.4509005" lon="15.5511323"><ele>576.0</ele><time>2026-05-02T17:43:13.89Z</time></trkpt><trkpt lat="40.4510073" lon="15.5510363"><ele>576.0</ele><time>2026-05-02T17:43:14.89Z</time></trkpt><trkpt lat="40.4511471" lon="15.5509341"><ele>577.0</ele><time>2026-05-02T17:43:15.889Z</time></trkpt><trkpt lat="40.4512868" lon="15.5508294"><ele>578.0</ele><time>2026-05-02T17:43:16.89Z</time></trkpt><trkpt lat="40.451417" lon="15.5507339"><ele>579.0</ele><time>2026-05-02T17:43:17.89Z</time></trkpt><trkpt lat="40.4515258" lon="15.550606"><ele>579.0</ele><time>2026-05-02T17:43:18.89Z</time></trkpt><trkpt lat="40.4516201" lon="15.5504274"><ele>579.0</ele><time>2026-05-02T17:43:19.89Z</time></trkpt><trkpt lat="40.4516948" lon="15.5502424"><ele>579.0</ele><time>2026-05-02T17:43:20.89Z</time></trkpt><trkpt lat="40.4517651" lon="15.5500876"><ele>579.0</ele><time>2026-05-02T17:43:21.89Z</time></trkpt><trkpt lat="40.4518529" lon="15.5499548"><ele>579.0</ele><time>2026-05-02T17:43:22.89Z</time></trkpt><trkpt lat="40.4519605" lon="15.5498509"><ele>579.0</ele><time>2026-05-02T17:43:23.89Z</time></trkpt><trkpt lat="40.4520909" lon="15.5497782"><ele>579.0</ele><time>2026-05-02T17:43:24.89Z</time></trkpt><trkpt lat="40.4522352" lon="15.5497065"><ele>579.0</ele><time>2026-05-02T17:43:25.89Z</time></trkpt><trkpt lat="40.4523657" lon="15.5496147"><ele>579.0</ele><time>2026-05-02T17:43:26.889Z</time></trkpt><trkpt lat="40.4524833" lon="15.5495128"><ele>579.0</ele><time>2026-05-02T17:43:27.89Z</time></trkpt><trkpt lat="40.4525719" lon="15.5493635"><ele>579.0</ele><time>2026-05-02T17:43:28.89Z</time></trkpt><trkpt lat="40.4526188" lon="15.5491641"><ele>574.6666666666666</ele><time>2026-05-02T17:43:29.889Z</time></trkpt><trkpt lat="40.4526358" lon="15.5489488"><ele>570.3333333333333</ele><time>2026-05-02T17:43:30.89Z</time></trkpt><trkpt lat="40.4526477" lon="15.5487482"><ele>566.0</ele><time>2026-05-02T17:43:31.89Z</time></trkpt><trkpt lat="40.4526902" lon="15.5485708"><ele>561.0</ele><time>2026-05-02T17:43:32.89Z</time></trkpt><trkpt lat="40.4527704" lon="15.5484037"><ele>556.0</ele><time>2026-05-02T17:43:33.89Z</time></trkpt><trkpt lat="40.4528848" lon="15.5482149"><ele>551.0</ele><time>2026-05-02T17:43:34.89Z</time></trkpt><trkpt lat="40.4529896" lon="15.5480234"><ele>555.6666666666666</ele><time>2026-05-02T17:43:35.89Z</time></trkpt><trkpt lat="40.4530863" lon="15.547825"><ele>560.3333333333334</ele><time>2026-05-02T17:43:36.889Z</time></trkpt><trkpt lat="40.4531602" lon="15.5476417"><ele>565.0</ele><time>2026-05-02T17:43:37.89Z</time></trkpt><trkpt lat="40.4532148" lon="15.5474596"><ele>565.0</ele><time>2026-05-02T17:43:38.89Z</time></trkpt><trkpt lat="40.4532559" lon="15.547287"><ele>565.0</ele><time>2026-05-02T17:43:39.889Z</time></trkpt><trkpt lat="40.4532838" lon="15.5471185"><ele>565.0</ele><time>2026-05-02T17:43:40.89Z</time></trkpt><trkpt lat="40.4533124" lon="15.5469781"><ele>565.0</ele><time>2026-05-02T17:43:41.89Z</time></trkpt><trkpt lat="40.4533526" lon="15.5468371"><ele>562.6</ele><time>2026-05-02T17:43:42.89Z</time></trkpt><trkpt lat="40.453401" lon="15.5467124"><ele>560.2</ele><time>2026-05-02T17:43:43.89Z</time></trkpt><trkpt lat="40.4534549" lon="15.5465963"><ele>557.8</ele><time>2026-05-02T17:43:44.89Z</time></trkpt><trkpt lat="40.4535163" lon="15.5464871"><ele>555.4</ele><time>2026-05-02T17:43:45.89Z</time></trkpt><trkpt lat="40.4535818" lon="15.5463857"><ele>553.0</ele><time>2026-05-02T17:43:46.89Z</time></trkpt><trkpt lat="40.4536505" lon="15.5462858"><ele>551.75</ele><time>2026-05-02T17:43:47.889Z</time></trkpt><trkpt lat="40.453732" lon="15.546183"><ele>550.5</ele><time>2026-05-02T17:43:48.89Z</time></trkpt><trkpt lat="40.4538249" lon="15.5460782"><ele>549.25</ele><time>2026-05-02T17:43:49.89Z</time></trkpt><trkpt lat="40.4539433" lon="15.5459765"><ele>548.0</ele><time>2026-05-02T17:43:50.89Z</time></trkpt><trkpt lat="40.4540758" lon="15.5458908"><ele>548.0</ele><time>2026-05-02T17:43:51.89Z</time></trkpt><trkpt lat="40.4542097" lon="15.5458198"><ele>548.0</ele><time>2026-05-02T17:43:52.89Z</time></trkpt><trkpt lat="40.4543529" lon="15.5457762"><ele>548.0</ele><time>2026-05-02T17:43:53.89Z</time></trkpt><trkpt lat="40.4544911" lon="15.5457499"><ele>548.0</ele><time>2026-05-02T17:43:54.889Z</time></trkpt><trkpt lat="40.4546128" lon="15.5457243"><ele>549.0</ele><time>2026-05-02T17:43:55.89Z</time></trkpt><trkpt lat="40.454727" lon="15.5456996"><ele>550.0</ele><time>2026-05-02T17:43:56.89Z</time></trkpt><trkpt lat="40.4548344" lon="15.545682"><ele>551.0</ele><time>2026-05-02T17:43:57.889Z</time></trkpt><trkpt lat="40.4549144" lon="15.5456487"><ele>552.0</ele><time>2026-05-02T17:43:58.89Z</time></trkpt><trkpt lat="40.4549689" lon="15.545586"><ele>553.0</ele><time>2026-05-02T17:43:59.89Z</time></trkpt><trkpt lat="40.4549855" lon="15.5454955"><ele>553.0</ele><time>2026-05-02T17:44:00.89Z</time></trkpt><trkpt lat="40.4549647" lon="15.5454023"><ele>553.0</ele><time>2026-05-02T17:44:01.89Z</time></trkpt><trkpt lat="40.4549118" lon="15.5453313"><ele>553.0</ele><time>2026-05-02T17:44:02.89Z</time></trkpt><trkpt lat="40.4548321" lon="15.5453009"><ele>553.0</ele><time>2026-05-02T17:44:03.89Z</time></trkpt><trkpt lat="40.4547465" lon="15.54532"><ele>553.0</ele><time>2026-05-02T17:44:04.889Z</time></trkpt><trkpt lat="40.4546598" lon="15.5453735"><ele>553.0</ele><time>2026-05-02T17:44:05.89Z</time></trkpt><trkpt lat="40.4545635" lon="15.5454244"><ele>552.0</ele><time>2026-05-02T17:44:06.89Z</time></trkpt><trkpt lat="40.4544585" lon="15.5454574"><ele>551.0</ele><time>2026-05-02T17:44:07.89Z</time></trkpt><trkpt lat="40.4543548" lon="15.5454884"><ele>550.0</ele><time>2026-05-02T17:44:08.89Z</time></trkpt><trkpt lat="40.4542457" lon="15.5455083"><ele>549.0</ele><time>2026-05-02T17:44:09.89Z</time></trkpt><trkpt lat="40.4541314" lon="15.5455321"><ele>548.0</ele><time>2026-05-02T17:44:10.89Z</time></trkpt><trkpt lat="40.4540219" lon="15.5455468"><ele>548.0</ele><time>2026-05-02T17:44:11.89Z</time></trkpt><trkpt lat="40.4539242" lon="15.5455574"><ele>548.0</ele><time>2026-05-02T17:44:12.889Z</time></trkpt><trkpt lat="40.4538276" lon="15.5455698"><ele>548.0</ele><time>2026-05-02T17:44:13.89Z</time></trkpt><trkpt lat="40.4537257" lon="15.5456034"><ele>548.0</ele><time>2026-05-02T17:44:14.89Z</time></trkpt><trkpt lat="40.4536246" lon="15.545659"><ele>548.0</ele><time>2026-05-02T17:44:15.889Z</time></trkpt><trkpt lat="40.4535042" lon="15.5457318"><ele>545.5</ele><time>2026-05-02T17:44:16.89Z</time></trkpt><trkpt lat="40.4533922" lon="15.545821"><ele>543.0</ele><time>2026-05-02T17:44:17.89Z</time></trkpt><trkpt lat="40.4532676" lon="15.5459193"><ele>540.5</ele><time>2026-05-02T17:44:18.89Z</time></trkpt><trkpt lat="40.4531289" lon="15.5460227"><ele>538.0</ele><time>2026-05-02T17:44:19.89Z</time></trkpt><trkpt lat="40.4529827" lon="15.54613"><ele>536.6666666666667</ele><time>2026-05-02T17:44:20.89Z</time></trkpt><trkpt lat="40.4528198" lon="15.546251"><ele>535.3333333333334</ele><time>2026-05-02T17:44:21.89Z</time></trkpt><trkpt lat="40.4526474" lon="15.5463802"><ele>534.0</ele><time>2026-05-02T17:44:22.889Z</time></trkpt><trkpt lat="40.4524942" lon="15.5464958"><ele>534.0</ele><time>2026-05-02T17:44:23.89Z</time></trkpt><trkpt lat="40.4523554" lon="15.5466187"><ele>534.0</ele><time>2026-05-02T17:44:24.889Z</time></trkpt><trkpt lat="40.4522337" lon="15.5467614"><ele>534.0</ele><time>2026-05-02T17:44:25.89Z</time></trkpt><trkpt lat="40.4521482" lon="15.5469326"><ele>531.5</ele><time>2026-05-02T17:44:26.89Z</time></trkpt><trkpt lat="40.4520838" lon="15.5471094"><ele>529.0</ele><time>2026-05-02T17:44:27.89Z</time></trkpt><trkpt lat="40.4520251" lon="15.5472695"><ele>526.5</ele><time>2026-05-02T17:44:28.89Z</time></trkpt><trkpt lat="40.4519728" lon="15.5474221"><ele>524.0</ele><time>2026-05-02T17:44:29.89Z</time></trkpt><trkpt lat="40.4519218" lon="15.5475744"><ele>524.0</ele><time>2026-05-02T17:44:30.89Z</time></trkpt><trkpt lat="40.4518701" lon="15.5477428"><ele>524.0</ele><time>2026-05-02T17:44:31.89Z</time></trkpt><trkpt lat="40.4518107" lon="15.5479263"><ele>524.0</ele><time>2026-05-02T17:44:32.89Z</time></trkpt><trkpt lat="40.4517579" lon="15.5480867"><ele>524.0</ele><time>2026-05-02T17:44:33.89Z</time></trkpt><trkpt lat="40.4517019" lon="15.5482128"><ele>525.5</ele><time>2026-05-02T17:44:34.89Z</time></trkpt><trkpt lat="40.4516273" lon="15.5482941"><ele>527.0</ele><time>2026-05-02T17:44:35.89Z</time></trkpt><trkpt lat="40.4515502" lon="15.5483257"><ele>528.5</ele><time>2026-05-02T17:44:36.889Z</time></trkpt><trkpt lat="40.4514789" lon="15.5483151"><ele>530.0</ele><time>2026-05-02T17:44:37.89Z</time></trkpt><trkpt lat="40.4514074" lon="15.5482675"><ele>531.5</ele><time>2026-05-02T17:44:38.89Z</time></trkpt><trkpt lat="40.4513434" lon="15.5481919"><ele>533.0</ele><time>2026-05-02T17:44:39.89Z</time></trkpt><trkpt lat="40.4513157" lon="15.5480777"><ele>533.0</ele><time>2026-05-02T17:44:40.89Z</time></trkpt><trkpt lat="40.4513157" lon="15.5479681"><ele>533.0</ele><time>2026-05-02T17:44:41.89Z</time></trkpt><trkpt lat="40.4513514" lon="15.5478584"><ele>533.0</ele><time>2026-05-02T17:44:42.89Z</time></trkpt><trkpt lat="40.4514305" lon="15.5477547"><ele>533.0</ele><time>2026-05-02T17:44:43.89Z</time></trkpt><trkpt lat="40.451531" lon="15.5476469"><ele>533.0</ele><time>2026-05-02T17:44:44.89Z</time></trkpt><trkpt lat="40.4516315" lon="15.547511"><ele>530.0</ele><time>2026-05-02T17:44:45.89Z</time></trkpt><trkpt lat="40.4517293" lon="15.5473486"><ele>527.0</ele><time>2026-05-02T17:44:46.889Z</time></trkpt><trkpt lat="40.4518046" lon="15.5471358"><ele>524.0</ele><time>2026-05-02T17:44:47.89Z</time></trkpt><trkpt lat="40.4518606" lon="15.5469003"><ele>520.3333333333333</ele><time>2026-05-02T17:44:48.89Z</time></trkpt><trkpt lat="40.4519015" lon="15.5466864"><ele>516.6666666666666</ele><time>2026-05-02T17:44:49.889Z</time></trkpt><trkpt lat="40.4519507" lon="15.5465007"><ele>513.0</ele><time>2026-05-02T17:44:50.89Z</time></trkpt><trkpt lat="40.4520091" lon="15.5463253"><ele>515.3333333333334</ele><time>2026-05-02T17:44:51.889Z</time></trkpt><trkpt lat="40.4520768" lon="15.5461345"><ele>517.6666666666667</ele><time>2026-05-02T17:44:52.89Z</time></trkpt><trkpt lat="40.4521634" lon="15.545958"><ele>520.0</ele><time>2026-05-02T17:44:53.89Z</time></trkpt><trkpt lat="40.452271" lon="15.5457742"><ele>520.0</ele><time>2026-05-02T17:44:54.89Z</time></trkpt><trkpt lat="40.4524" lon="15.5455882"><ele>520.0</ele><time>2026-05-02T17:44:55.89Z</time></trkpt><trkpt lat="40.4525423" lon="15.5453988"><ele>520.0</ele><time>2026-05-02T17:44:56.89Z</time></trkpt><trkpt lat="40.4526875" lon="15.5452163"><ele>519.0</ele><time>2026-05-02T17:44:57.89Z</time></trkpt><trkpt lat="40.4528443" lon="15.5450424"><ele>518.0</ele><time>2026-05-02T17:44:58.89Z</time></trkpt><trkpt lat="40.453007" lon="15.5448849"><ele>517.0</ele><time>2026-05-02T17:44:59.889Z</time></trkpt><trkpt lat="40.4531934" lon="15.5447313"><ele>517.0</ele><time>2026-05-02T17:45:00.89Z</time></trkpt><trkpt lat="40.4533882" lon="15.544588"><ele>517.0</ele><time>2026-05-02T17:45:01.89Z</time></trkpt><trkpt lat="40.4535801" lon="15.5444696"><ele>517.0</ele><time>2026-05-02T17:45:02.89Z</time></trkpt><trkpt lat="40.4537638" lon="15.5443911"><ele>509.0</ele><time>2026-05-02T17:45:03.889Z</time></trkpt><trkpt lat="40.4539435" lon="15.5443452"><ele>501.0</ele><time>2026-05-02T17:45:04.89Z</time></trkpt><trkpt lat="40.4541159" lon="15.5443283"><ele>493.0</ele><time>2026-05-02T17:45:05.889Z</time></trkpt><trkpt lat="40.4542915" lon="15.5443232"><ele>493.0</ele><time>2026-05-02T17:45:06.89Z</time></trkpt><trkpt lat="40.4544744" lon="15.54431"><ele>493.0</ele><time>2026-05-02T17:45:07.89Z</time></trkpt><trkpt lat="40.4546521" lon="15.544306"><ele>493.0</ele><time>2026-05-02T17:45:08.889Z</time></trkpt><trkpt lat="40.4548553" lon="15.5443248"><ele>490.0</ele><time>2026-05-02T17:45:09.89Z</time></trkpt><trkpt lat="40.4550882" lon="15.5443597"><ele>487.0</ele><time>2026-05-02T17:45:10.89Z</time></trkpt><trkpt lat="40.4553375" lon="15.5444044"><ele>488.0</ele><time>2026-05-02T17:45:11.89Z</time></trkpt><trkpt lat="40.4555941" lon="15.5444535"><ele>489.0</ele><time>2026-05-02T17:45:12.889Z</time></trkpt><trkpt lat="40.4558201" lon="15.5445107"><ele>494.66666666666663</ele><time>2026-05-02T17:45:13.89Z</time></trkpt><trkpt lat="40.4560241" lon="15.54458"><ele>500.3333333333333</ele><time>2026-05-02T17:45:14.89Z</time></trkpt><trkpt lat="40.4562263" lon="15.544661"><ele>506.0</ele><time>2026-05-02T17:45:15.89Z</time></trkpt><trkpt lat="40.456444" lon="15.5447506"><ele>506.0</ele><time>2026-05-02T17:45:16.89Z</time></trkpt><trkpt lat="40.4566542" lon="15.5448288"><ele>506.0</ele><time>2026-05-02T17:45:17.89Z</time></trkpt><trkpt lat="40.4568599" lon="15.5449038"><ele>506.0</ele><time>2026-05-02T17:45:18.89Z</time></trkpt><trkpt lat="40.457055" lon="15.5449683"><ele>499.3333333333333</ele><time>2026-05-02T17:45:19.89Z</time></trkpt><trkpt lat="40.4572062" lon="15.5450391"><ele>492.66666666666663</ele><time>2026-05-02T17:45:20.889Z</time></trkpt><trkpt lat="40.4573524" lon="15.5450874"><ele>486.0</ele><time>2026-05-02T17:45:21.89Z</time></trkpt><trkpt lat="40.4574991" lon="15.5451128"><ele>486.0</ele><time>2026-05-02T17:45:22.89Z</time></trkpt><trkpt lat="40.4576331" lon="15.5450992"><ele>486.0</ele><time>2026-05-02T17:45:23.889Z</time></trkpt><trkpt lat="40.4577522" lon="15.5450219"><ele>486.0</ele><time>2026-05-02T17:45:24.89Z</time></trkpt><trkpt lat="40.4578547" lon="15.5449159"><ele>486.0</ele><time>2026-05-02T17:45:25.89Z</time></trkpt><trkpt lat="40.4579388" lon="15.5447711"><ele>485.75</ele><time>2026-05-02T17:45:26.89Z</time></trkpt><trkpt lat="40.4579989" lon="15.5446053"><ele>485.5</ele><time>2026-05-02T17:45:27.89Z</time></trkpt><trkpt lat="40.4580329" lon="15.5444218"><ele>485.25</ele><time>2026-05-02T17:45:28.89Z</time></trkpt><trkpt lat="40.4580235" lon="15.544251"><ele>485.0</ele><time>2026-05-02T17:45:29.89Z</time></trkpt><trkpt lat="40.457975" lon="15.5440732"><ele>483.0</ele><time>2026-05-02T17:45:30.889Z</time></trkpt><trkpt lat="40.4578991" lon="15.5438969"><ele>481.0</ele><time>2026-05-02T17:45:31.89Z</time></trkpt><trkpt lat="40.4578214" lon="15.5437275"><ele>479.0</ele><time>2026-05-02T17:45:32.89Z</time></trkpt><trkpt lat="40.4577253" lon="15.5435342"><ele>477.66666666666663</ele><time>2026-05-02T17:45:33.889Z</time></trkpt><trkpt lat="40.4576235" lon="15.5433274"><ele>476.33333333333337</ele><time>2026-05-02T17:45:34.89Z</time></trkpt><trkpt lat="40.4575234" lon="15.5431209"><ele>475.0</ele><time>2026-05-02T17:45:35.89Z</time></trkpt><trkpt lat="40.4574207" lon="15.5429272"><ele>473.25</ele><time>2026-05-02T17:45:36.89Z</time></trkpt><trkpt lat="40.457337" lon="15.5427487"><ele>471.5</ele><time>2026-05-02T17:45:37.89Z</time></trkpt><trkpt lat="40.4572695" lon="15.5425861"><ele>469.75</ele><time>2026-05-02T17:45:38.889Z</time></trkpt><trkpt lat="40.4572072" lon="15.5424372"><ele>468.0</ele><time>2026-05-02T17:45:39.889Z</time></trkpt><trkpt lat="40.4571562" lon="15.5423099"><ele>468.0</ele><time>2026-05-02T17:45:40.89Z</time></trkpt><trkpt lat="40.4571214" lon="15.5421991"><ele>468.0</ele><time>2026-05-02T17:45:41.89Z</time></trkpt><trkpt lat="40.4571186" lon="15.5420918"><ele>468.0</ele><time>2026-05-02T17:45:42.89Z</time></trkpt><trkpt lat="40.4571184" lon="15.5419751"><ele>468.0</ele><time>2026-05-02T17:45:43.89Z</time></trkpt><trkpt lat="40.4571055" lon="15.5418793"><ele>468.0</ele><time>2026-05-02T17:45:44.89Z</time></trkpt><trkpt lat="40.45707" lon="15.5418038"><ele>468.0</ele><time>2026-05-02T17:45:45.889Z</time></trkpt><trkpt lat="40.45701" lon="15.5417647"><ele>468.0</ele><time>2026-05-02T17:45:46.889Z</time></trkpt><trkpt lat="40.4569318" lon="15.5417682"><ele>467.99999999999994</ele><time>2026-05-02T17:45:47.889Z</time></trkpt><trkpt lat="40.4568489" lon="15.5418175"><ele>467.99999999999994</ele><time>2026-05-02T17:45:48.889Z</time></trkpt><trkpt lat="40.4567691" lon="15.5419113"><ele>468.0</ele><time>2026-05-02T17:45:49.89Z</time></trkpt><trkpt lat="40.4566704" lon="15.5420115"><ele>468.0</ele><time>2026-05-02T17:45:50.89Z</time></trkpt><trkpt lat="40.4565393" lon="15.5420818"><ele>468.0</ele><time>2026-05-02T17:45:51.89Z</time></trkpt><trkpt lat="40.4563583" lon="15.542128"><ele>468.0</ele><time>2026-05-02T17:45:52.889Z</time></trkpt><trkpt lat="40.456129" lon="15.5421553"><ele>468.0</ele><time>2026-05-02T17:45:53.89Z</time></trkpt><trkpt lat="40.4558919" lon="15.5421893"><ele>466.5</ele><time>2026-05-02T17:45:54.89Z</time></trkpt><trkpt lat="40.4556471" lon="15.5422424"><ele>465.0</ele><time>2026-05-02T17:45:55.89Z</time></trkpt><trkpt lat="40.4554262" lon="15.5422932"><ele>464.66666666666663</ele><time>2026-05-02T17:45:56.89Z</time></trkpt><trkpt lat="40.455211" lon="15.5423283"><ele>464.3333333333333</ele><time>2026-05-02T17:45:57.889Z</time></trkpt><trkpt lat="40.4550049" lon="15.5423646"><ele>464.0</ele><time>2026-05-02T17:45:58.89Z</time></trkpt><trkpt lat="40.4547929" lon="15.5424089"><ele>461.5</ele><time>2026-05-02T17:45:59.89Z</time></trkpt><trkpt lat="40.4545595" lon="15.5424639"><ele>459.0</ele><time>2026-05-02T17:46:00.889Z</time></trkpt><trkpt lat="40.4543408" lon="15.5424989"><ele>459.0</ele><time>2026-05-02T17:46:01.89Z</time></trkpt><trkpt lat="40.4541384" lon="15.542527"><ele>459.0</ele><time>2026-05-02T17:46:02.89Z</time></trkpt><trkpt lat="40.4539441" lon="15.5425522"><ele>459.0</ele><time>2026-05-02T17:46:03.889Z</time></trkpt><trkpt lat="40.4537547" lon="15.5425903"><ele>458.66666666666663</ele><time>2026-05-02T17:46:04.889Z</time></trkpt><trkpt lat="40.4535692" lon="15.5426243"><ele>458.3333333333333</ele><time>2026-05-02T17:46:05.89Z</time></trkpt><trkpt lat="40.4533853" lon="15.5426631"><ele>458.0</ele><time>2026-05-02T17:46:06.89Z</time></trkpt><trkpt lat="40.4532145" lon="15.5426996"><ele>458.0</ele><time>2026-05-02T17:46:07.889Z</time></trkpt><trkpt lat="40.4530512" lon="15.542736"><ele>458.0</ele><time>2026-05-02T17:46:08.889Z</time></trkpt><trkpt lat="40.4528971" lon="15.5427744"><ele>458.0</ele><time>2026-05-02T17:46:09.89Z</time></trkpt><trkpt lat="40.4527497" lon="15.542814"><ele>456.66666666666663</ele><time>2026-05-02T17:46:10.89Z</time></trkpt><trkpt lat="40.4525941" lon="15.542857"><ele>455.33333333333337</ele><time>2026-05-02T17:46:11.89Z</time></trkpt><trkpt lat="40.4524161" lon="15.5429148"><ele>454.0</ele><time>2026-05-02T17:46:12.89Z</time></trkpt><trkpt lat="40.4522276" lon="15.5429764"><ele>455.0</ele><time>2026-05-02T17:46:13.89Z</time></trkpt><trkpt lat="40.45201" lon="15.5430517"><ele>456.0</ele><time>2026-05-02T17:46:14.89Z</time></trkpt><trkpt lat="40.4517636" lon="15.5431507"><ele>456.0</ele><time>2026-05-02T17:46:15.89Z</time></trkpt><trkpt lat="40.4515187" lon="15.5432615"><ele>456.0</ele><time>2026-05-02T17:46:16.89Z</time></trkpt><trkpt lat="40.4512868" lon="15.5433592"><ele>454.66666666666663</ele><time>2026-05-02T17:46:17.89Z</time></trkpt><trkpt lat="40.4510815" lon="15.5434361"><ele>453.3333333333333</ele><time>2026-05-02T17:46:18.889Z</time></trkpt><trkpt lat="40.4509071" lon="15.5435203"><ele>452.0</ele><time>2026-05-02T17:46:19.89Z</time></trkpt><trkpt lat="40.4507592" lon="15.5435876"><ele>452.0</ele><time>2026-05-02T17:46:20.89Z</time></trkpt><trkpt lat="40.4506459" lon="15.5436535"><ele>452.00000000000006</ele><time>2026-05-02T17:46:21.889Z</time></trkpt><trkpt lat="40.4505631" lon="15.5436892"><ele>452.00000000000006</ele><time>2026-05-02T17:46:22.889Z</time></trkpt><trkpt lat="40.4504798" lon="15.543658"><ele>452.0</ele><time>2026-05-02T17:46:24.89Z</time></trkpt><trkpt lat="40.4504343" lon="15.543502"><ele>452.0</ele><time>2026-05-02T17:46:26.889Z</time></trkpt><trkpt lat="40.4504032" lon="15.5433519"><ele>451.66666666666663</ele><time>2026-05-02T17:46:27.89Z</time></trkpt><trkpt lat="40.450354" lon="15.5431698"><ele>451.33333333333337</ele><time>2026-05-02T17:46:28.89Z</time></trkpt><trkpt lat="40.4502973" lon="15.5429757"><ele>451.0</ele><time>2026-05-02T17:46:29.89Z</time></trkpt><trkpt lat="40.4502446" lon="15.5427985"><ele>450.6</ele><time>2026-05-02T17:46:30.89Z</time></trkpt><trkpt lat="40.4502047" lon="15.5426649"><ele>450.20000000000005</ele><time>2026-05-02T17:46:31.889Z</time></trkpt><trkpt lat="40.4501652" lon="15.5425423"><ele>449.79999999999995</ele><time>2026-05-02T17:46:32.89Z</time></trkpt><trkpt lat="40.4501279" lon="15.5424224"><ele>449.4</ele><time>2026-05-02T17:46:33.889Z</time></trkpt><trkpt lat="40.4500926" lon="15.5423137"><ele>449.0</ele><time>2026-05-02T17:46:34.89Z</time></trkpt><trkpt lat="40.4500567" lon="15.5422062"><ele>449.0</ele><time>2026-05-02T17:46:35.89Z</time></trkpt><trkpt lat="40.4500206" lon="15.5420876"><ele>449.0</ele><time>2026-05-02T17:46:36.89Z</time></trkpt><trkpt lat="40.4499918" lon="15.5419677"><ele>449.0</ele><time>2026-05-02T17:46:37.89Z</time></trkpt><trkpt lat="40.4499617" lon="15.5418558"><ele>449.0</ele><time>2026-05-02T17:46:38.89Z</time></trkpt><trkpt lat="40.4499402" lon="15.5417714"><ele>449.0</ele><time>2026-05-02T17:46:39.89Z</time></trkpt><trkpt lat="40.4499497" lon="15.5416398"><ele>448.4</ele><time>2026-05-02T17:46:41.89Z</time></trkpt><trkpt lat="40.4500246" lon="15.5415423"><ele>447.79999999999995</ele><time>2026-05-02T17:46:43.889Z</time></trkpt><trkpt lat="40.4500932" lon="15.5414905"><ele>447.20000000000005</ele><time>2026-05-02T17:46:44.89Z</time></trkpt><trkpt lat="40.4501873" lon="15.5414217"><ele>446.6</ele><time>2026-05-02T17:46:45.89Z</time></trkpt><trkpt lat="40.4502994" lon="15.5413401"><ele>446.0</ele><time>2026-05-02T17:46:46.889Z</time></trkpt><trkpt lat="40.4504222" lon="15.5412474"><ele>446.0</ele><time>2026-05-02T17:46:47.89Z</time></trkpt><trkpt lat="40.4505413" lon="15.5411612"><ele>446.0</ele><time>2026-05-02T17:46:48.89Z</time></trkpt><trkpt lat="40.450651" lon="15.541074"><ele>446.0</ele><time>2026-05-02T17:46:49.89Z</time></trkpt><trkpt lat="40.4507508" lon="15.5409942"><ele>446.0</ele><time>2026-05-02T17:46:50.89Z</time></trkpt><trkpt lat="40.4508494" lon="15.5409137"><ele>446.0</ele><time>2026-05-02T17:46:51.89Z</time></trkpt><trkpt lat="40.4509542" lon="15.5408235"><ele>446.0</ele><time>2026-05-02T17:46:52.89Z</time></trkpt><trkpt lat="40.4510597" lon="15.5407282"><ele>446.0</ele><time>2026-05-02T17:46:53.889Z</time></trkpt><trkpt lat="40.4511622" lon="15.5406359"><ele>446.0</ele><time>2026-05-02T17:46:54.89Z</time></trkpt><trkpt lat="40.4512729" lon="15.5405374"><ele>446.6</ele><time>2026-05-02T17:46:55.89Z</time></trkpt><trkpt lat="40.4513692" lon="15.5404429"><ele>447.20000000000005</ele><time>2026-05-02T17:46:56.89Z</time></trkpt><trkpt lat="40.4514528" lon="15.540361"><ele>447.79999999999995</ele><time>2026-05-02T17:46:57.89Z</time></trkpt><trkpt lat="40.4515283" lon="15.5402964"><ele>448.4</ele><time>2026-05-02T17:46:58.89Z</time></trkpt><trkpt lat="40.451598" lon="15.5402146"><ele>449.0</ele><time>2026-05-02T17:46:59.89Z</time></trkpt><trkpt lat="40.4516462" lon="15.5401284"><ele>448.99999999999994</ele><time>2026-05-02T17:47:00.89Z</time></trkpt><trkpt lat="40.4516935" lon="15.5400281"><ele>449.0</ele><time>2026-05-02T17:47:01.89Z</time></trkpt><trkpt lat="40.4517387" lon="15.5399497"><ele>449.0</ele><time>2026-05-02T17:47:02.89Z</time></trkpt><trkpt lat="40.4517838" lon="15.5398904"><ele>449.0</ele><time>2026-05-02T17:47:03.89Z</time></trkpt><trkpt lat="40.4518454" lon="15.5398559"><ele>448.99999999999994</ele><time>2026-05-02T17:47:04.89Z</time></trkpt><trkpt lat="40.4519283" lon="15.5398274"><ele>449.0</ele><time>2026-05-02T17:47:05.89Z</time></trkpt><trkpt lat="40.4520349" lon="15.5398027"><ele>448.99999999999994</ele><time>2026-05-02T17:47:06.89Z</time></trkpt><trkpt lat="40.4521305" lon="15.5397846"><ele>449.0</ele><time>2026-05-02T17:47:07.89Z</time></trkpt><trkpt lat="40.4522106" lon="15.5397547"><ele>449.0</ele><time>2026-05-02T17:47:08.89Z</time></trkpt><trkpt lat="40.452267" lon="15.5397009"><ele>449.0</ele><time>2026-05-02T17:47:09.89Z</time></trkpt><trkpt lat="40.4523043" lon="15.5396297"><ele>448.99999999999994</ele><time>2026-05-02T17:47:10.89Z</time></trkpt><trkpt lat="40.4523486" lon="15.5395184"><ele>449.0</ele><time>2026-05-02T17:47:11.89Z</time></trkpt><trkpt lat="40.4524098" lon="15.5393845"><ele>448.79999999999995</ele><time>2026-05-02T17:47:12.89Z</time></trkpt><trkpt lat="40.4524815" lon="15.5392804"><ele>448.59999999999997</ele><time>2026-05-02T17:47:13.89Z</time></trkpt><trkpt lat="40.4525447" lon="15.5392093"><ele>448.4</ele><time>2026-05-02T17:47:14.89Z</time></trkpt><trkpt lat="40.4526112" lon="15.5391656"><ele>448.2</ele><time>2026-05-02T17:47:15.89Z</time></trkpt><trkpt lat="40.4527412" lon="15.5391628"><ele>448.0</ele><time>2026-05-02T17:47:17.89Z</time></trkpt><trkpt lat="40.4527993" lon="15.5391124"><ele>448.0</ele><time>2026-05-02T17:47:18.89Z</time></trkpt><trkpt lat="40.4528556" lon="15.5390223"><ele>448.0</ele><time>2026-05-02T17:47:19.89Z</time></trkpt><trkpt lat="40.4529087" lon="15.5388668"><ele>448.0</ele><time>2026-05-02T17:47:20.89Z</time></trkpt><trkpt lat="40.4529729" lon="15.538715"><ele>448.0</ele><time>2026-05-02T17:47:21.889Z</time></trkpt><trkpt lat="40.4530473" lon="15.5385786"><ele>448.5</ele><time>2026-05-02T17:47:22.89Z</time></trkpt><trkpt lat="40.4531237" lon="15.5384991"><ele>449.0</ele><time>2026-05-02T17:47:23.89Z</time></trkpt><trkpt lat="40.4532236" lon="15.5384711"><ele>449.5</ele><time>2026-05-02T17:47:24.89Z</time></trkpt><trkpt lat="40.4533406" lon="15.5384806"><ele>450.0</ele><time>2026-05-02T17:47:25.89Z</time></trkpt><trkpt lat="40.4534915" lon="15.5385075"><ele>450.0</ele><time>2026-05-02T17:47:26.889Z</time></trkpt><trkpt lat="40.4536562" lon="15.5385292"><ele>450.0</ele><time>2026-05-02T17:47:27.89Z</time></trkpt><trkpt lat="40.4537997" lon="15.5385157"><ele>450.0</ele><time>2026-05-02T17:47:28.889Z</time></trkpt><trkpt lat="40.4539394" lon="15.538451"><ele>450.75</ele><time>2026-05-02T17:47:29.889Z</time></trkpt><trkpt lat="40.4540664" lon="15.5383673"><ele>451.5</ele><time>2026-05-02T17:47:30.89Z</time></trkpt><trkpt lat="40.4541822" lon="15.5382771"><ele>452.25</ele><time>2026-05-02T17:47:31.89Z</time></trkpt><trkpt lat="40.4543008" lon="15.5382077"><ele>453.0</ele><time>2026-05-02T17:47:32.89Z</time></trkpt><trkpt lat="40.4544386" lon="15.5381468"><ele>453.0</ele><time>2026-05-02T17:47:33.89Z</time></trkpt><trkpt lat="40.4545628" lon="15.5381075"><ele>452.99999999999994</ele><time>2026-05-02T17:47:34.89Z</time></trkpt><trkpt lat="40.4546576" lon="15.5380825"><ele>452.99999999999994</ele><time>2026-05-02T17:47:35.889Z</time></trkpt><trkpt lat="40.4547358" lon="15.5380767"><ele>453.0</ele><time>2026-05-02T17:47:36.89Z</time></trkpt><trkpt lat="40.454832" lon="15.5380493"><ele>453.0</ele><time>2026-05-02T17:47:38.89Z</time></trkpt><trkpt lat="40.4549534" lon="15.5379853"><ele>453.3333333333333</ele><time>2026-05-02T17:47:40.889Z</time></trkpt><trkpt lat="40.4550115" lon="15.5379446"><ele>453.66666666666663</ele><time>2026-05-02T17:47:41.889Z</time></trkpt><trkpt lat="40.455085" lon="15.5379061"><ele>454.0</ele><time>2026-05-02T17:47:43.889Z</time></trkpt><trkpt lat="40.4551456" lon="15.5379322"><ele>454.3333333333333</ele><time>2026-05-02T17:47:45.89Z</time></trkpt><trkpt lat="40.4551963" lon="15.5380581"><ele>454.66666666666663</ele><time>2026-05-02T17:47:47.89Z</time></trkpt><trkpt lat="40.4552345" lon="15.5381475"><ele>455.0</ele><time>2026-05-02T17:47:48.89Z</time></trkpt><trkpt lat="40.4552851" lon="15.5382552"><ele>455.0</ele><time>2026-05-02T17:47:49.89Z</time></trkpt><trkpt lat="40.4553448" lon="15.5383831"><ele>455.0</ele><time>2026-05-02T17:47:50.89Z</time></trkpt><trkpt lat="40.455416" lon="15.5385229"><ele>455.0</ele><time>2026-05-02T17:47:51.889Z</time></trkpt><trkpt lat="40.4554927" lon="15.5386813"><ele>455.0</ele><time>2026-05-02T17:47:52.89Z</time></trkpt><trkpt lat="40.4555824" lon="15.5388678"><ele>455.66666666666663</ele><time>2026-05-02T17:47:53.89Z</time></trkpt><trkpt lat="40.4556747" lon="15.5390491"><ele>456.33333333333337</ele><time>2026-05-02T17:47:54.89Z</time></trkpt><trkpt lat="40.4557742" lon="15.5392254"><ele>457.0</ele><time>2026-05-02T17:47:55.89Z</time></trkpt><trkpt lat="40.4558565" lon="15.5393851"><ele>457.0</ele><time>2026-05-02T17:47:56.89Z</time></trkpt><trkpt lat="40.4559401" lon="15.5395363"><ele>457.0</ele><time>2026-05-02T17:47:57.89Z</time></trkpt><trkpt lat="40.4560271" lon="15.5396854"><ele>457.0</ele><time>2026-05-02T17:47:58.889Z</time></trkpt><trkpt lat="40.4561109" lon="15.539835"><ele>457.0</ele><time>2026-05-02T17:47:59.89Z</time></trkpt><trkpt lat="40.4561762" lon="15.5399839"><ele>457.25</ele><time>2026-05-02T17:48:00.89Z</time></trkpt><trkpt lat="40.4562503" lon="15.5401339"><ele>457.5</ele><time>2026-05-02T17:48:01.89Z</time></trkpt><trkpt lat="40.4563206" lon="15.5402803"><ele>457.75</ele><time>2026-05-02T17:48:02.89Z</time></trkpt><trkpt lat="40.4563869" lon="15.5404167"><ele>458.0</ele><time>2026-05-02T17:48:03.889Z</time></trkpt><trkpt lat="40.4564513" lon="15.5405418"><ele>459.0</ele><time>2026-05-02T17:48:04.89Z</time></trkpt><trkpt lat="40.4565104" lon="15.5406722"><ele>460.0</ele><time>2026-05-02T17:48:05.889Z</time></trkpt><trkpt lat="40.4565645" lon="15.5408133"><ele>461.0</ele><time>2026-05-02T17:48:06.89Z</time></trkpt><trkpt lat="40.4566093" lon="15.5409546"><ele>462.0</ele><time>2026-05-02T17:48:07.89Z</time></trkpt><trkpt lat="40.4566574" lon="15.5410775"><ele>462.0</ele><time>2026-05-02T17:48:08.89Z</time></trkpt><trkpt lat="40.4566993" lon="15.5411921"><ele>462.00000000000006</ele><time>2026-05-02T17:48:09.89Z</time></trkpt><trkpt lat="40.4567416" lon="15.5412958"><ele>462.00000000000006</ele><time>2026-05-02T17:48:10.89Z</time></trkpt><trkpt lat="40.4567803" lon="15.5414022"><ele>462.0</ele><time>2026-05-02T17:48:11.89Z</time></trkpt><trkpt lat="40.4568205" lon="15.5415196"><ele>462.0</ele><time>2026-05-02T17:48:12.89Z</time></trkpt><trkpt lat="40.4568571" lon="15.5416382"><ele>462.5</ele><time>2026-05-02T17:48:13.889Z</time></trkpt><trkpt lat="40.4568823" lon="15.5417465"><ele>463.0</ele><time>2026-05-02T17:48:14.889Z</time></trkpt><trkpt lat="40.4568686" lon="15.5418445"><ele>463.5</ele><time>2026-05-02T17:48:15.89Z</time></trkpt><trkpt lat="40.4568245" lon="15.5419352"><ele>464.0</ele><time>2026-05-02T17:48:16.89Z</time></trkpt><trkpt lat="40.4567553" lon="15.5420085"><ele>464.5</ele><time>2026-05-02T17:48:17.89Z</time></trkpt><trkpt lat="40.4566592" lon="15.5420527"><ele>465.0</ele><time>2026-05-02T17:48:18.889Z</time></trkpt><trkpt lat="40.4565309" lon="15.5420695"><ele>465.0</ele><time>2026-05-02T17:48:19.889Z</time></trkpt><trkpt lat="40.4563863" lon="15.542087"><ele>465.0</ele><time>2026-05-02T17:48:20.89Z</time></trkpt><trkpt lat="40.4562301" lon="15.5421221"><ele>465.0</ele><time>2026-05-02T17:48:21.889Z</time></trkpt><trkpt lat="40.4560738" lon="15.5421575"><ele>465.0</ele><time>2026-05-02T17:48:22.89Z</time></trkpt><trkpt lat="40.4559093" lon="15.5421823"><ele>465.0</ele><time>2026-05-02T17:48:23.89Z</time></trkpt><trkpt lat="40.455731" lon="15.5422221"><ele>465.0</ele><time>2026-05-02T17:48:24.89Z</time></trkpt><trkpt lat="40.4555515" lon="15.5422557"><ele>464.66666666666663</ele><time>2026-05-02T17:48:25.89Z</time></trkpt><trkpt lat="40.4553795" lon="15.5422889"><ele>464.3333333333333</ele><time>2026-05-02T17:48:26.891Z</time></trkpt><trkpt lat="40.4552146" lon="15.5423185"><ele>464.0</ele><time>2026-05-02T17:48:27.891Z</time></trkpt><trkpt lat="40.4550608" lon="15.5423559"><ele>464.0</ele><time>2026-05-02T17:48:28.891Z</time></trkpt><trkpt lat="40.4549066" lon="15.5423701"><ele>464.0</ele><time>2026-05-02T17:48:29.89Z</time></trkpt><trkpt lat="40.4547445" lon="15.5423988"><ele>464.0</ele><time>2026-05-02T17:48:30.891Z</time></trkpt><trkpt lat="40.4545813" lon="15.5424383"><ele>462.75</ele><time>2026-05-02T17:48:31.891Z</time></trkpt><trkpt lat="40.4544306" lon="15.5424729"><ele>461.5</ele><time>2026-05-02T17:48:32.891Z</time></trkpt><trkpt lat="40.454287" lon="15.5424965"><ele>460.25</ele><time>2026-05-02T17:48:33.891Z</time></trkpt><trkpt lat="40.4541371" lon="15.5425248"><ele>459.0</ele><time>2026-05-02T17:48:34.891Z</time></trkpt><trkpt lat="40.4539947" lon="15.5425522"><ele>459.0</ele><time>2026-05-02T17:48:35.891Z</time></trkpt><trkpt lat="40.4538602" lon="15.5425831"><ele>459.0</ele><time>2026-05-02T17:48:36.891Z</time></trkpt><trkpt lat="40.4537356" lon="15.5426033"><ele>459.0</ele><time>2026-05-02T17:48:37.891Z</time></trkpt><trkpt lat="40.4535971" lon="15.5426219"><ele>459.0</ele><time>2026-05-02T17:48:38.891Z</time></trkpt><trkpt lat="40.4534676" lon="15.5426387"><ele>458.75</ele><time>2026-05-02T17:48:39.89Z</time></trkpt><trkpt lat="40.4533475" lon="15.5426579"><ele>458.5</ele><time>2026-05-02T17:48:40.891Z</time></trkpt><trkpt lat="40.4532282" lon="15.542679"><ele>458.25</ele><time>2026-05-02T17:48:41.891Z</time></trkpt><trkpt lat="40.453115" lon="15.5427046"><ele>458.0</ele><time>2026-05-02T17:48:42.891Z</time></trkpt><trkpt lat="40.4530066" lon="15.542731"><ele>457.2</ele><time>2026-05-02T17:48:43.891Z</time></trkpt><trkpt lat="40.4528998" lon="15.5427566"><ele>456.4</ele><time>2026-05-02T17:48:44.891Z</time></trkpt><trkpt lat="40.4527942" lon="15.5427747"><ele>455.59999999999997</ele><time>2026-05-02T17:48:45.89Z</time></trkpt><trkpt lat="40.452688" lon="15.5427961"><ele>454.79999999999995</ele><time>2026-05-02T17:48:46.891Z</time></trkpt><trkpt lat="40.4525863" lon="15.542824"><ele>454.0</ele><time>2026-05-02T17:48:47.891Z</time></trkpt><trkpt lat="40.452484" lon="15.5428598"><ele>454.4</ele><time>2026-05-02T17:48:48.89Z</time></trkpt><trkpt lat="40.4523912" lon="15.5429021"><ele>454.79999999999995</ele><time>2026-05-02T17:48:49.891Z</time></trkpt><trkpt lat="40.4522921" lon="15.5429416"><ele>455.20000000000005</ele><time>2026-05-02T17:48:50.891Z</time></trkpt><trkpt lat="40.4521845" lon="15.5429841"><ele>455.6</ele><time>2026-05-02T17:48:51.891Z</time></trkpt><trkpt lat="40.4520603" lon="15.5430318"><ele>456.0</ele><time>2026-05-02T17:48:52.891Z</time></trkpt><trkpt lat="40.4519183" lon="15.5430812"><ele>456.0</ele><time>2026-05-02T17:48:53.891Z</time></trkpt><trkpt lat="40.4517752" lon="15.5431448"><ele>456.0</ele><time>2026-05-02T17:48:54.891Z</time></trkpt><trkpt lat="40.4516418" lon="15.5431927"><ele>456.0</ele><time>2026-05-02T17:48:55.891Z</time></trkpt><trkpt lat="40.4515106" lon="15.5432412"><ele>456.0</ele><time>2026-05-02T17:48:56.891Z</time></trkpt><trkpt lat="40.4513968" lon="15.5432877"><ele>455.0</ele><time>2026-05-02T17:48:57.891Z</time></trkpt><trkpt lat="40.4512783" lon="15.5433369"><ele>454.0</ele><time>2026-05-02T17:48:58.891Z</time></trkpt><trkpt lat="40.4511691" lon="15.5433767"><ele>453.0</ele><time>2026-05-02T17:48:59.891Z</time></trkpt><trkpt lat="40.4510629" lon="15.5434279"><ele>452.0</ele><time>2026-05-02T17:49:00.891Z</time></trkpt><trkpt lat="40.4509655" lon="15.5434777"><ele>451.99999999999994</ele><time>2026-05-02T17:49:01.89Z</time></trkpt><trkpt lat="40.4508713" lon="15.5435313"><ele>452.0</ele><time>2026-05-02T17:49:02.89Z</time></trkpt><trkpt lat="40.4507786" lon="15.5435789"><ele>452.0</ele><time>2026-05-02T17:49:03.891Z</time></trkpt><trkpt lat="40.4506962" lon="15.5436179"><ele>452.0</ele><time>2026-05-02T17:49:04.891Z</time></trkpt><trkpt lat="40.4506224" lon="15.5436543"><ele>451.99999999999994</ele><time>2026-05-02T17:49:05.891Z</time></trkpt><trkpt lat="40.4505548" lon="15.5436783"><ele>452.0</ele><time>2026-05-02T17:49:06.891Z</time></trkpt><trkpt lat="40.4504703" lon="15.543678"><ele>451.8333333333333</ele><time>2026-05-02T17:49:08.89Z</time></trkpt><trkpt lat="40.4504164" lon="15.5435474"><ele>451.66666666666663</ele><time>2026-05-02T17:49:10.891Z</time></trkpt><trkpt lat="40.450411" lon="15.5434601"><ele>451.5</ele><time>2026-05-02T17:49:11.891Z</time></trkpt><trkpt lat="40.4503962" lon="15.5433282"><ele>451.33333333333337</ele><time>2026-05-02T17:49:13.891Z</time></trkpt><trkpt lat="40.4503782" lon="15.5432448"><ele>451.1666666666667</ele><time>2026-05-02T17:49:15.891Z</time></trkpt><trkpt lat="40.4503422" lon="15.5431336"><ele>451.0</ele><time>2026-05-02T17:49:19.891Z</time></trkpt><trkpt lat="40.4503112" lon="15.5430018"><ele>451.00000000000006</ele><time>2026-05-02T17:49:21.89Z</time></trkpt><trkpt lat="40.4502728" lon="15.5428817"><ele>451.0</ele><time>2026-05-02T17:49:23.89Z</time></trkpt><trkpt lat="40.4502457" lon="15.5427938"><ele>451.0</ele><time>2026-05-02T17:49:26.891Z</time></trkpt><trkpt lat="40.4502149" lon="15.5428746"><ele>451.0</ele><time>2026-05-02T17:49:30.891Z</time></trkpt><trkpt lat="40.4502691" lon="15.5429644"><ele>451.00000000000006</ele><time>2026-05-02T17:49:32.891Z</time></trkpt><trkpt lat="40.4503156" lon="15.5430731"><ele>451.0</ele><time>2026-05-02T17:49:34.89Z</time></trkpt><trkpt lat="40.4503723" lon="15.5432244"><ele>451.00000000000006</ele><time>2026-05-02T17:49:36.891Z</time></trkpt><trkpt lat="40.4503999" lon="15.543323"><ele>451.0</ele><time>2026-05-02T17:49:37.89Z</time></trkpt><trkpt lat="40.4504295" lon="15.5434236"><ele>451.0</ele><time>2026-05-02T17:49:38.891Z</time></trkpt><trkpt lat="40.4504544" lon="15.5435185"><ele>451.0</ele><time>2026-05-02T17:49:39.89Z</time></trkpt><trkpt lat="40.4504639" lon="15.5436504"><ele>451.00000000000006</ele><time>2026-05-02T17:49:41.891Z</time></trkpt><trkpt lat="40.4504351" lon="15.5437433"><ele>451.0</ele><time>2026-05-02T17:49:44.891Z</time></trkpt><trkpt lat="40.4503456" lon="15.5438336"><ele>452.0</ele><time>2026-05-02T17:49:46.891Z</time></trkpt><trkpt lat="40.4502545" lon="15.5439071"><ele>453.0</ele><time>2026-05-02T17:49:47.89Z</time></trkpt><trkpt lat="40.4501443" lon="15.543993"><ele>454.0</ele><time>2026-05-02T17:49:48.891Z</time></trkpt><trkpt lat="40.4500268" lon="15.544095"><ele>455.0</ele><time>2026-05-02T17:49:49.89Z</time></trkpt><trkpt lat="40.4499121" lon="15.5441979"><ele>455.0</ele><time>2026-05-02T17:49:50.891Z</time></trkpt><trkpt lat="40.4498058" lon="15.5442888"><ele>455.0</ele><time>2026-05-02T17:49:51.89Z</time></trkpt><trkpt lat="40.4497055" lon="15.5443761"><ele>455.0</ele><time>2026-05-02T17:49:52.89Z</time></trkpt><trkpt lat="40.4496175" lon="15.544455"><ele>455.0</ele><time>2026-05-02T17:49:53.891Z</time></trkpt><trkpt lat="40.4495422" lon="15.5445295"><ele>455.0</ele><time>2026-05-02T17:49:54.891Z</time></trkpt><trkpt lat="40.4494826" lon="15.5445839"><ele>454.8</ele><time>2026-05-02T17:49:55.89Z</time></trkpt><trkpt lat="40.4493873" lon="15.5446115"><ele>454.6</ele><time>2026-05-02T17:49:57.89Z</time></trkpt><trkpt lat="40.4493072" lon="15.5444912"><ele>454.4</ele><time>2026-05-02T17:49:59.891Z</time></trkpt><trkpt lat="40.4492505" lon="15.5443643"><ele>454.2</ele><time>2026-05-02T17:50:00.891Z</time></trkpt><trkpt lat="40.4491998" lon="15.5442367"><ele>454.0</ele><time>2026-05-02T17:50:01.89Z</time></trkpt><trkpt lat="40.4491661" lon="15.5441357"><ele>453.50000000000006</ele><time>2026-05-02T17:50:02.89Z</time></trkpt><trkpt lat="40.4491184" lon="15.5440632"><ele>453.0</ele><time>2026-05-02T17:50:03.891Z</time></trkpt><trkpt lat="40.4490255" lon="15.5439851"><ele>452.5</ele><time>2026-05-02T17:50:05.891Z</time></trkpt><trkpt lat="40.4489547" lon="15.54397"><ele>452.0</ele><time>2026-05-02T17:50:07.891Z</time></trkpt><trkpt lat="40.4489171" lon="15.5440404"><ele>451.50000000000006</ele><time>2026-05-02T17:50:10.891Z</time></trkpt><trkpt lat="40.4489825" lon="15.5440204"><ele>451.0</ele><time>2026-05-02T17:50:15.891Z</time></trkpt><trkpt lat="40.4489219" lon="15.543996"><ele>451.0</ele><time>2026-05-02T17:51:33.891Z</time></trkpt><trkpt lat="40.4488239" lon="15.5439627"><ele>451.0</ele><time>2026-05-02T17:52:33.891Z</time></trkpt><trkpt lat="40.4487442" lon="15.5438638"><ele>451.0</ele><time>2026-05-02T17:52:53.626Z</time></trkpt><trkpt lat="40.451005" lon="15.543375"><ele>451.1666666666667</ele><time>2026-05-02T18:00:19.884Z</time></trkpt><trkpt lat="40.4509259" lon="15.5433994"><ele>451.33333333333337</ele><time>2026-05-02T18:00:30.883Z</time></trkpt><trkpt lat="40.4508838" lon="15.5433198"><ele>451.5</ele><time>2026-05-02T18:00:55.883Z</time></trkpt><trkpt lat="40.4509523" lon="15.5432856"><ele>451.66666666666663</ele><time>2026-05-02T18:01:02.883Z</time></trkpt><trkpt lat="40.4510323" lon="15.5432894"><ele>451.8333333333333</ele><time>2026-05-02T18:01:06.884Z</time></trkpt><trkpt lat="40.4511275" lon="15.5432587"><ele>452.0</ele><time>2026-05-02T18:01:14.884Z</time></trkpt><trkpt lat="40.45119" lon="15.5432371"><ele>451.99999999999994</ele><time>2026-05-02T18:01:16.884Z</time></trkpt><trkpt lat="40.4512744" lon="15.5431766"><ele>452.0</ele><time>2026-05-02T18:01:19.884Z</time></trkpt><trkpt lat="40.4513585" lon="15.5431442"><ele>452.0</ele><time>2026-05-02T18:01:23.883Z</time></trkpt><trkpt lat="40.4514261" lon="15.5431077"><ele>452.0</ele><time>2026-05-02T18:01:26.884Z</time></trkpt><trkpt lat="40.4514933" lon="15.5430798"><ele>451.99999999999994</ele><time>2026-05-02T18:01:30.884Z</time></trkpt><trkpt lat="40.4515571" lon="15.5430756"><ele>452.0</ele><time>2026-05-02T18:01:39.884Z</time></trkpt><trkpt lat="40.451631" lon="15.5430702"><ele>452.0</ele><time>2026-05-02T18:01:43.883Z</time></trkpt><trkpt lat="40.451711" lon="15.543062"><ele>452.0</ele><time>2026-05-02T18:01:46.884Z</time></trkpt><trkpt lat="40.4508454" lon="15.5432877"><ele>451.5</ele><time>2026-05-02T18:01:49.884Z</time></trkpt><trkpt lat="40.4504225" lon="15.5434091"><ele>451.0</ele><time>2026-05-02T18:01:50.884Z</time></trkpt><trkpt lat="40.4502363" lon="15.5434629"><ele>451.0</ele><time>2026-05-02T18:01:51.884Z</time></trkpt><trkpt lat="40.4501591" lon="15.5434848"><ele>451.0</ele><time>2026-05-02T18:01:52.884Z</time></trkpt><trkpt lat="40.4514254" lon="15.5431506"><ele>451.5</ele><time>2026-05-02T18:01:54.883Z</time></trkpt><trkpt lat="40.4517728" lon="15.5430637"><ele>452.0</ele><time>2026-05-02T18:01:56.884Z</time></trkpt><trkpt lat="40.4508088" lon="15.5433115"><ele>451.0</ele><time>2026-05-02T18:02:00.884Z</time></trkpt><trkpt lat="40.4503344" lon="15.5434354"><ele>451.0</ele><time>2026-05-02T18:02:01.884Z</time></trkpt><trkpt lat="40.45013" lon="15.5434905"><ele>451.0</ele><time>2026-05-02T18:02:02.884Z</time></trkpt><trkpt lat="40.4500435" lon="15.5435143"><ele>451.0</ele><time>2026-05-02T18:02:03.884Z</time></trkpt><trkpt lat="40.449977" lon="15.5435327"><ele>451.0</ele><time>2026-05-02T18:02:05.884Z</time></trkpt><trkpt lat="40.4499176" lon="15.5434905"><ele>451.0</ele><time>2026-05-02T18:02:08.884Z</time></trkpt><trkpt lat="40.4499825" lon="15.5434667"><ele>456.0</ele><time>2026-05-02T18:02:33.883Z</time></trkpt><trkpt lat="40.4515686" lon="15.5430796"><ele>456.0</ele><time>2026-05-02T18:02:46.883Z</time></trkpt><trkpt lat="40.4517513" lon="15.5430329"><ele>456.0</ele><time>2026-05-02T18:02:47.883Z</time></trkpt><trkpt lat="40.4518153" lon="15.5430269"><ele>456.0</ele><time>2026-05-02T18:02:48.883Z</time></trkpt><trkpt lat="40.4507706" lon="15.5432882"><ele>451.0</ele><time>2026-05-02T18:02:52.884Z</time></trkpt><trkpt lat="40.4502442" lon="15.5434342"><ele>451.0</ele><time>2026-05-02T18:02:53.884Z</time></trkpt><trkpt lat="40.4499966" lon="15.5435066"><ele>451.0</ele><time>2026-05-02T18:02:54.884Z</time></trkpt><trkpt lat="40.4498828" lon="15.5435407"><ele>451.0</ele><time>2026-05-02T18:02:55.884Z</time></trkpt><trkpt lat="40.4498127" lon="15.5435594"><ele>451.0</ele><time>2026-05-02T18:02:57.884Z</time></trkpt><trkpt lat="40.4498795" lon="15.5435431"><ele>456.0</ele><time>2026-05-02T18:03:03.883Z</time></trkpt><trkpt lat="40.45209" lon="15.5429467"><ele>453.5</ele><time>2026-05-02T18:03:05.884Z</time></trkpt><trkpt lat="40.4521591" lon="15.5429476"><ele>451.0</ele><time>2026-05-02T18:03:09.884Z</time></trkpt><trkpt lat="40.4498415" lon="15.5435634"><ele>465.0</ele><time>2026-05-02T18:03:12.884Z</time></trkpt><trkpt lat="40.452195" lon="15.5429567"><ele>451.0</ele><time>2026-05-02T18:03:15.884Z</time></trkpt><trkpt lat="40.4498826" lon="15.543474"><ele>465.0</ele><time>2026-05-02T18:03:17.884Z</time></trkpt><trkpt lat="40.4521433" lon="15.5429533"><ele>465.0</ele><time>2026-05-02T18:03:23.884Z</time></trkpt><trkpt lat="40.452219" lon="15.5429372"><ele>465.0</ele><time>2026-05-02T18:03:28.884Z</time></trkpt><trkpt lat="40.4510579" lon="15.5432126"><ele>458.5</ele><time>2026-05-02T18:03:30.884Z</time></trkpt><trkpt lat="40.4506321" lon="15.5433122"><ele>452.0</ele><time>2026-05-02T18:03:31.884Z</time></trkpt><trkpt lat="40.4504023" lon="15.5433708"><ele>451.5</ele><time>2026-05-02T18:03:32.884Z</time></trkpt><trkpt lat="40.4502823" lon="15.543401"><ele>451.0</ele><time>2026-05-02T18:03:33.883Z</time></trkpt><trkpt lat="40.4517113" lon="15.5430936"><ele>453.5</ele><time>2026-05-02T18:03:36.884Z</time></trkpt><trkpt lat="40.4520873" lon="15.5430133"><ele>456.0</ele><time>2026-05-02T18:03:37.884Z</time></trkpt><trkpt lat="40.4522004" lon="15.5429877"><ele>456.0</ele><time>2026-05-02T18:03:38.884Z</time></trkpt><trkpt lat="40.4521563" lon="15.5431129"><ele>456.0</ele><time>2026-05-02T18:04:16.883Z</time></trkpt><trkpt lat="40.4520972" lon="15.5431758"><ele>456.0</ele><time>2026-05-02T18:04:21.884Z</time></trkpt><trkpt lat="40.452033" lon="15.5432212"><ele>456.0</ele><time>2026-05-02T18:04:36.884Z</time></trkpt><trkpt lat="40.4520976" lon="15.5431108"><ele>456.0</ele><time>2026-05-02T18:04:52.884Z</time></trkpt><trkpt lat="40.4520415" lon="15.5430692"><ele>456.0</ele><time>2026-05-02T18:05:10.883Z</time></trkpt><trkpt lat="40.4520874" lon="15.5430098"><ele>452.0</ele><time>2026-05-02T18:05:46.883Z</time></trkpt><trkpt lat="40.4511486" lon="15.5432723"><ele>452.0</ele><time>2026-05-02T18:06:07.884Z</time></trkpt><trkpt lat="40.4506131" lon="15.5433754"><ele>451.5</ele><time>2026-05-02T18:06:08.884Z</time></trkpt><trkpt lat="40.4502424" lon="15.5434432"><ele>451.0</ele><time>2026-05-02T18:06:10.883Z</time></trkpt><trkpt lat="40.4501423" lon="15.5434616"><ele>451.0</ele><time>2026-05-02T18:06:12.884Z</time></trkpt><trkpt lat="40.450075" lon="15.5434739"><ele>451.0</ele><time>2026-05-02T18:06:14.883Z</time></trkpt><trkpt lat="40.4500275" lon="15.5435302"><ele>451.0</ele><time>2026-05-02T18:06:26.884Z</time></trkpt><trkpt lat="40.4499552" lon="15.5435441"><ele>451.0</ele><time>2026-05-02T18:06:30.884Z</time></trkpt><trkpt lat="40.4518956" lon="15.543227"><ele>452.25</ele><time>2026-05-02T18:06:47.884Z</time></trkpt><trkpt lat="40.4521044" lon="15.5431896"><ele>453.5</ele><time>2026-05-02T18:06:48.884Z</time></trkpt><trkpt lat="40.452218" lon="15.5432103"><ele>454.75</ele><time>2026-05-02T18:06:54.884Z</time></trkpt><trkpt lat="40.4522884" lon="15.5432143"><ele>456.0</ele><time>2026-05-02T18:07:02.884Z</time></trkpt><trkpt lat="40.4522206" lon="15.5432841"><ele>456.0</ele><time>2026-05-02T18:07:37.884Z</time></trkpt><trkpt lat="40.4521518" lon="15.5432591"><ele>456.0</ele><time>2026-05-02T18:07:42.884Z</time></trkpt><trkpt lat="40.4520874" lon="15.543253"><ele>456.0</ele><time>2026-05-02T18:07:50.884Z</time></trkpt><trkpt lat="40.4520083" lon="15.5431547"><ele>456.0</ele><time>2026-05-02T18:08:13.884Z</time></trkpt><trkpt lat="40.4510176" lon="15.5433346"><ele>452.0</ele><time>2026-05-02T18:08:17.884Z</time></trkpt><trkpt lat="40.4505403" lon="15.5434227"><ele>451.66666666666663</ele><time>2026-05-02T18:08:18.884Z</time></trkpt><trkpt lat="40.4503377" lon="15.5434615"><ele>451.33333333333337</ele><time>2026-05-02T18:08:19.884Z</time></trkpt><trkpt lat="40.4502532" lon="15.5434781"><ele>451.0</ele><time>2026-05-02T18:08:20.884Z</time></trkpt><trkpt lat="40.451609" lon="15.5432401"><ele>451.33333333333337</ele><time>2026-05-02T18:08:23.883Z</time></trkpt><trkpt lat="40.4519018" lon="15.5431883"><ele>451.66666666666663</ele><time>2026-05-02T18:08:24.884Z</time></trkpt><trkpt lat="40.451973" lon="15.5431748"><ele>452.0</ele><time>2026-05-02T18:08:25.883Z</time></trkpt><trkpt lat="40.4510237" lon="15.5433563"><ele>452.0</ele><time>2026-05-02T18:08:28.883Z</time></trkpt><trkpt lat="40.4505413" lon="15.5434569"><ele>451.75</ele><time>2026-05-02T18:08:29.884Z</time></trkpt><trkpt lat="40.4503083" lon="15.5435149"><ele>451.5</ele><time>2026-05-02T18:08:30.883Z</time></trkpt><trkpt lat="40.4502185" lon="15.5435452"><ele>451.25</ele><time>2026-05-02T18:08:31.884Z</time></trkpt><trkpt lat="40.4501414" lon="15.5435587"><ele>451.0</ele><time>2026-05-02T18:08:33.884Z</time></trkpt><trkpt lat="40.4514481" lon="15.5433016"><ele>451.33333333333337</ele><time>2026-05-02T18:08:35.884Z</time></trkpt><trkpt lat="40.4517187" lon="15.5432334"><ele>451.66666666666663</ele><time>2026-05-02T18:08:36.884Z</time></trkpt><trkpt lat="40.4517791" lon="15.5432072"><ele>452.0</ele><time>2026-05-02T18:08:37.884Z</time></trkpt><trkpt lat="40.4509211" lon="15.5434027"><ele>452.0</ele><time>2026-05-02T18:08:41.884Z</time></trkpt><trkpt lat="40.4504674" lon="15.543493"><ele>451.75</ele><time>2026-05-02T18:08:42.883Z</time></trkpt><trkpt lat="40.4502559" lon="15.5435268"><ele>451.5</ele><time>2026-05-02T18:08:43.884Z</time></trkpt><trkpt lat="40.4501573" lon="15.5435416"><ele>451.25</ele><time>2026-05-02T18:08:44.884Z</time></trkpt><trkpt lat="40.4500762" lon="15.5435598"><ele>451.0</ele><time>2026-05-02T18:08:46.884Z</time></trkpt><trkpt lat="40.4499183" lon="15.543588"><ele>451.0</ele><time>2026-05-02T18:08:48.884Z</time></trkpt><trkpt lat="40.4498407" lon="15.5436029"><ele>451.0</ele><time>2026-05-02T18:08:50.884Z</time></trkpt><trkpt lat="40.4499537" lon="15.543607"><ele>451.0</ele><time>2026-05-02T18:08:54.884Z</time></trkpt><trkpt lat="40.4500176" lon="15.5436063"><ele>451.0</ele><time>2026-05-02T18:08:55.883Z</time></trkpt><trkpt lat="40.4513693" lon="15.543393"><ele>452.6666666666667</ele><time>2026-05-02T18:09:01.884Z</time></trkpt><trkpt lat="40.4516784" lon="15.5433427"><ele>454.33333333333337</ele><time>2026-05-02T18:09:02.884Z</time></trkpt><trkpt lat="40.4517657" lon="15.5433279"><ele>456.0</ele><time>2026-05-02T18:09:03.884Z</time></trkpt><trkpt lat="40.4517479" lon="15.5432268"><ele>456.0</ele><time>2026-05-02T18:09:25.884Z</time></trkpt><trkpt lat="40.4517767" lon="15.5431431"><ele>456.0</ele><time>2026-05-02T18:09:30.884Z</time></trkpt><trkpt lat="40.4518613" lon="15.5431295"><ele>456.0</ele><time>2026-05-02T18:09:38.883Z</time></trkpt><trkpt lat="40.4519187" lon="15.5431664"><ele>456.0</ele><time>2026-05-02T18:09:41.884Z</time></trkpt><trkpt lat="40.4519782" lon="15.5432005"><ele>456.0</ele><time>2026-05-02T18:09:47.884Z</time></trkpt><trkpt lat="40.4510408" lon="15.5433809"><ele>452.0</ele><time>2026-05-02T18:09:55.883Z</time></trkpt><trkpt lat="40.4505531" lon="15.5434761"><ele>451.66666666666663</ele><time>2026-05-02T18:09:56.883Z</time></trkpt><trkpt lat="40.4503351" lon="15.5435208"><ele>451.33333333333337</ele><time>2026-05-02T18:09:57.884Z</time></trkpt><trkpt lat="40.4502421" lon="15.5435402"><ele>451.0</ele><time>2026-05-02T18:09:58.884Z</time></trkpt><trkpt lat="40.4516533" lon="15.543283"><ele>452.6666666666667</ele><time>2026-05-02T18:09:59.884Z</time></trkpt><trkpt lat="40.4519557" lon="15.5432318"><ele>454.33333333333337</ele><time>2026-05-02T18:10:00.884Z</time></trkpt><trkpt lat="40.4520444" lon="15.5432181"><ele>456.0</ele><time>2026-05-02T18:10:01.884Z</time></trkpt><trkpt lat="40.4521123" lon="15.5432176"><ele>456.0</ele><time>2026-05-02T18:10:03.883Z</time></trkpt><trkpt lat="40.4517479" lon="15.5432268"><ele>456.0</ele><time>2026-05-02T18:09:25.884Z</time></trkpt><trkpt lat="40.4517767" lon="15.5431431"><ele>456.0</ele><time>2026-05-02T18:09:30.884Z</time></trkpt><trkpt lat="40.4518613" lon="15.5431295"><ele>456.0</ele><time>2026-05-02T18:09:38.883Z</time></trkpt><trkpt lat="40.4519187" lon="15.5431664"><ele>456.0</ele><time>2026-05-02T18:09:41.884Z</time></trkpt><trkpt lat="40.4519782" lon="15.5432005"><ele>456.0</ele><time>2026-05-02T18:09:47.884Z</time></trkpt><trkpt lat="40.4510408" lon="15.5433809"><ele>452.0</ele><time>2026-05-02T18:09:55.883Z</time></trkpt><trkpt lat="40.4505531" lon="15.5434761"><ele>451.66666666666663</ele><time>2026-05-02T18:09:56.883Z</time></trkpt><trkpt lat="40.4503351" lon="15.5435208"><ele>451.33333333333337</ele><time>2026-05-02T18:09:57.884Z</time></trkpt><trkpt lat="40.4502421" lon="15.5435402"><ele>451.0</ele><time>2026-05-02T18:09:58.884Z</time></trkpt><trkpt lat="40.4516533" lon="15.543283"><ele>452.6666666666667</ele><time>2026-05-02T18:09:59.884Z</time></trkpt><trkpt lat="40.4519557" lon="15.5432318"><ele>454.33333333333337</ele><time>2026-05-02T18:10:00.884Z</time></trkpt><trkpt lat="40.4520444" lon="15.5432181"><ele>456.0</ele><time>2026-05-02T18:10:01.884Z</time></trkpt><trkpt lat="40.4521123" lon="15.5432176"><ele>452.0</ele><time>2026-05-02T18:10:03.883Z</time></trkpt><trkpt lat="40.4510649" lon="15.5434174"><ele>452.0</ele><time>2026-05-02T18:10:12.883Z</time></trkpt><trkpt lat="40.4505457" lon="15.5435119"><ele>451.75</ele><time>2026-05-02T18:10:13.884Z</time></trkpt><trkpt lat="40.4503184" lon="15.5435552"><ele>451.5</ele><time>2026-05-02T18:10:14.884Z</time></trkpt><trkpt lat="40.4502092" lon="15.5435762"><ele>451.25</ele><time>2026-05-02T18:10:15.884Z</time></trkpt><trkpt lat="40.4501431" lon="15.5436005"><ele>451.0</ele><time>2026-05-02T18:10:17.883Z</time></trkpt><trkpt lat="40.4518651" lon="15.5433416"><ele>452.25</ele><time>2026-05-02T18:10:19.884Z</time></trkpt><trkpt lat="40.4520709" lon="15.5433144"><ele>453.5</ele><time>2026-05-02T18:10:20.884Z</time></trkpt><trkpt lat="40.4521536" lon="15.5433033"><ele>454.75</ele><time>2026-05-02T18:10:23.883Z</time></trkpt><trkpt lat="40.4520874" lon="15.5432713"><ele>456.0</ele><time>2026-05-02T18:10:27.884Z</time></trkpt><trkpt lat="40.4519963" lon="15.5432264"><ele>452.0</ele><time>2026-05-02T18:10:31.884Z</time></trkpt><trkpt lat="40.4510687" lon="15.5433939"><ele>452.0</ele><time>2026-05-02T18:10:38.884Z</time></trkpt><trkpt lat="40.4505677" lon="15.5434885"><ele>451.75</ele><time>2026-05-02T18:10:39.883Z</time></trkpt><trkpt lat="40.4503289" lon="15.5435319"><ele>451.5</ele><time>2026-05-02T18:10:40.883Z</time></trkpt><trkpt lat="40.4502193" lon="15.5435515"><ele>451.25</ele><time>2026-05-02T18:10:41.884Z</time></trkpt><trkpt lat="40.4501467" lon="15.5435643"><ele>451.0</ele><time>2026-05-02T18:10:43.884Z</time></trkpt><trkpt lat="40.4515096" lon="15.5432982"><ele>451.5</ele><time>2026-05-02T18:10:44.884Z</time></trkpt><trkpt lat="40.4518032" lon="15.5432467"><ele>452.0</ele><time>2026-05-02T18:10:45.884Z</time></trkpt><trkpt lat="40.4506864" lon="15.543478"><ele>451.5</ele><time>2026-05-02T18:10:52.883Z</time></trkpt><trkpt lat="40.4503294" lon="15.5435271"><ele>451.0</ele><time>2026-05-02T18:10:53.883Z</time></trkpt><trkpt lat="40.4501782" lon="15.5435475"><ele>451.0</ele><time>2026-05-02T18:10:54.884Z</time></trkpt><trkpt lat="40.4501004" lon="15.5435582"><ele>451.0</ele><time>2026-05-02T18:10:55.884Z</time></trkpt><trkpt lat="40.4515951" lon="15.5433262"><ele>451.33333333333337</ele><time>2026-05-02T18:10:57.884Z</time></trkpt><trkpt lat="40.4517606" lon="15.5433006"><ele>451.66666666666663</ele><time>2026-05-02T18:10:58.884Z</time></trkpt><trkpt lat="40.4518243" lon="15.5432908"><ele>452.0</ele><time>2026-05-02T18:11:00.883Z</time></trkpt><trkpt lat="40.450839" lon="15.5434478"><ele>451.0</ele><time>2026-05-02T18:11:04.884Z</time></trkpt><trkpt lat="40.4503182" lon="15.5435298"><ele>451.0</ele><time>2026-05-02T18:11:05.884Z</time></trkpt><trkpt lat="40.4500786" lon="15.5435674"><ele>451.0</ele><time>2026-05-02T18:11:06.884Z</time></trkpt><trkpt lat="40.449971" lon="15.5435842"><ele>451.0</ele><time>2026-05-02T18:11:07.884Z</time></trkpt><trkpt lat="40.4500421" lon="15.5435888"><ele>451.0</ele><time>2026-05-02T18:11:15.884Z</time></trkpt><trkpt lat="40.4499561" lon="15.5435657"><ele>449.0</ele><time>2026-05-02T18:11:23.883Z</time></trkpt><trkpt lat="40.4494177" lon="15.5436472"><ele>449.0</ele><time>2026-05-02T18:11:25.884Z</time></trkpt><trkpt lat="40.4491085" lon="15.543703"><ele>449.0</ele><time>2026-05-02T18:11:26.884Z</time></trkpt><trkpt lat="40.4495663" lon="15.5436143"><ele>449.0</ele><time>2026-05-02T18:11:27.884Z</time></trkpt><trkpt lat="40.4498377" lon="15.5435571"><ele>449.0</ele><time>2026-05-02T18:11:28.816Z</time></trkpt><trkpt lat="40.4492849" lon="15.54366"><ele>448.5</ele><time>2026-05-02T18:11:29.885Z</time></trkpt><trkpt lat="40.4489187" lon="15.5437423"><ele>448.0</ele><time>2026-05-02T18:11:35.338Z</time></trkpt><trkpt lat="40.4487559" lon="15.5437424"><ele>451.0</ele><time>2026-05-02T18:11:59.93Z</time></trkpt><trkpt lat="40.4497536" lon="15.543591"><ele>452.0</ele><time>2026-05-02T18:12:32.884Z</time></trkpt><trkpt lat="40.4507658" lon="15.5434415"><ele>452.0</ele><time>2026-05-02T18:12:40.884Z</time></trkpt><trkpt lat="40.4510743" lon="15.5433891"><ele>452.0</ele><time>2026-05-02T18:12:41.884Z</time></trkpt><trkpt lat="40.4511514" lon="15.5433612"><ele>452.0</ele><time>2026-05-02T18:12:42.884Z</time></trkpt><trkpt lat="40.4512206" lon="15.5433137"><ele>452.0</ele><time>2026-05-02T18:12:44.884Z</time></trkpt><trkpt lat="40.4505314" lon="15.5434386"><ele>451.5</ele><time>2026-05-02T18:12:46.883Z</time></trkpt><trkpt lat="40.4501294" lon="15.5435289"><ele>451.0</ele><time>2026-05-02T18:12:47.884Z</time></trkpt><trkpt lat="40.4499264" lon="15.5435718"><ele>451.0</ele><time>2026-05-02T18:12:48.883Z</time></trkpt><trkpt lat="40.4498336" lon="15.543591"><ele>451.0</ele><time>2026-05-02T18:12:49.884Z</time></trkpt><trkpt lat="40.449767" lon="15.5436045"><ele>451.0</ele><time>2026-05-02T18:12:51.884Z</time></trkpt><trkpt lat="40.4497033" lon="15.5436602"><ele>451.0</ele><time>2026-05-02T18:12:56.884Z</time></trkpt><trkpt lat="40.4507491" lon="15.5434617"><ele>451.0</ele><time>2026-05-02T18:13:12.884Z</time></trkpt><trkpt lat="40.451015" lon="15.5434151"><ele>451.0</ele><time>2026-05-02T18:13:13.884Z</time></trkpt><trkpt lat="40.4510958" lon="15.5434002"><ele>451.0</ele><time>2026-05-02T18:13:14.884Z</time></trkpt><trkpt lat="40.4503378" lon="15.5435107"><ele>451.0</ele><time>2026-05-02T18:13:19.884Z</time></trkpt><trkpt lat="40.4500558" lon="15.5435528"><ele>451.0</ele><time>2026-05-02T18:13:20.884Z</time></trkpt><trkpt lat="40.4499086" lon="15.5435749"><ele>451.0</ele><time>2026-05-02T18:13:21.883Z</time></trkpt><trkpt lat="40.4498432" lon="15.5435849"><ele>451.0</ele><time>2026-05-02T18:13:22.883Z</time></trkpt><trkpt lat="40.4497685" lon="15.5436124"><ele>451.0</ele><time>2026-05-02T18:13:25.883Z</time></trkpt><trkpt lat="40.4508425" lon="15.5435693"><ele>451.0</ele><time>2026-05-02T18:13:38.884Z</time></trkpt><trkpt lat="40.4509608" lon="15.5435607"><ele>451.0</ele><time>2026-05-02T18:13:39.884Z</time></trkpt><trkpt lat="40.4503765" lon="15.5436389"><ele>451.0</ele><time>2026-05-02T18:13:45.884Z</time></trkpt><trkpt lat="40.4499941" lon="15.5437007"><ele>451.0</ele><time>2026-05-02T18:13:46.883Z</time></trkpt><trkpt lat="40.4498056" lon="15.543728"><ele>451.5</ele><time>2026-05-02T18:13:47.884Z</time></trkpt><trkpt lat="40.4497204" lon="15.5437395"><ele>452.0</ele><time>2026-05-02T18:13:48.884Z</time></trkpt><trkpt lat="40.4506134" lon="15.5436869"><ele>452.0</ele><time>2026-05-02T18:13:55.883Z</time></trkpt><trkpt lat="40.4508966" lon="15.5435931"><ele>452.0</ele><time>2026-05-02T18:13:56.883Z</time></trkpt><trkpt lat="40.4509878" lon="15.5435562"><ele>452.0</ele><time>2026-05-02T18:13:57.884Z</time></trkpt><trkpt lat="40.4510429" lon="15.5435104"><ele>451.99999999999994</ele><time>2026-05-02T18:14:02.884Z</time></trkpt><trkpt lat="40.4511486" lon="15.5434598"><ele>452.0</ele><time>2026-05-02T18:14:17.883Z</time></trkpt><trkpt lat="40.4511207" lon="15.5435513"><ele>452.0</ele><time>2026-05-02T18:14:57.884Z</time></trkpt><trkpt lat="40.4510742" lon="15.5436209"><ele>452.0</ele><time>2026-05-02T18:15:11.884Z</time></trkpt><trkpt lat="40.4510149" lon="15.5436815"><ele>451.99999999999994</ele><time>2026-05-02T18:15:20.884Z</time></trkpt><trkpt lat="40.4509637" lon="15.5437646"><ele>452.0</ele><time>2026-05-02T18:15:35.884Z</time></trkpt><trkpt lat="40.4508875" lon="15.5438104"><ele>452.0</ele><time>2026-05-02T18:16:29.884Z</time></trkpt><trkpt lat="40.450912" lon="15.5437224"><ele>452.00000000000006</ele><time>2026-05-02T18:17:12.884Z</time></trkpt><trkpt lat="40.4509628" lon="15.5436706"><ele>452.00000000000006</ele><time>2026-05-02T18:17:15.884Z</time></trkpt><trkpt lat="40.4510308" lon="15.5436265"><ele>452.0</ele><time>2026-05-02T18:17:19.884Z</time></trkpt><trkpt lat="40.4511542" lon="15.5436686"><ele>452.0</ele><time>2026-05-02T18:17:34.884Z</time></trkpt><trkpt lat="40.4512815" lon="15.5436586"><ele>452.66666666666663</ele><time>2026-05-02T18:17:46.883Z</time></trkpt><trkpt lat="40.4513495" lon="15.5436149"><ele>453.3333333333333</ele><time>2026-05-02T18:17:51.884Z</time></trkpt><trkpt lat="40.4514294" lon="15.543618"><ele>454.0</ele><time>2026-05-02T18:17:57.884Z</time></trkpt><trkpt lat="40.4514955" lon="15.5436605"><ele>454.66666666666663</ele><time>2026-05-02T18:18:01.884Z</time></trkpt><trkpt lat="40.4515778" lon="15.5436788"><ele>455.3333333333333</ele><time>2026-05-02T18:18:05.884Z</time></trkpt><trkpt lat="40.4516611" lon="15.5436944"><ele>456.0</ele><time>2026-05-02T18:18:08.884Z</time></trkpt><trkpt lat="40.4517346" lon="15.5436577"><ele>456.0</ele><time>2026-05-02T18:18:15.883Z</time></trkpt><trkpt lat="40.4517976" lon="15.5436221"><ele>456.0</ele><time>2026-05-02T18:18:17.883Z</time></trkpt><trkpt lat="40.4518681" lon="15.5436389"><ele>456.0</ele><time>2026-05-02T18:18:24.884Z</time></trkpt><trkpt lat="40.4519272" lon="15.5436891"><ele>456.0</ele><time>2026-05-02T18:18:29.883Z</time></trkpt><trkpt lat="40.4519919" lon="15.5436913"><ele>456.0</ele><time>2026-05-02T18:18:35.884Z</time></trkpt><trkpt lat="40.4511257" lon="15.5437285"><ele>455.0</ele><time>2026-05-02T18:18:47.884Z</time></trkpt><trkpt lat="40.4503761" lon="15.5437578"><ele>455.0</ele><time>2026-05-02T18:18:49.884Z</time></trkpt><trkpt lat="40.4502552" lon="15.5437623"><ele>455.0</ele><time>2026-05-02T18:18:50.884Z</time></trkpt><trkpt lat="40.4501643" lon="15.5437656"><ele>455.0</ele><time>2026-05-02T18:18:52.883Z</time></trkpt><trkpt lat="40.4514736" lon="15.5437117"><ele>456.0</ele><time>2026-05-02T18:18:53.545Z</time></trkpt><trkpt lat="40.4519364" lon="15.5436926"><ele>463.66666666666663</ele><time>2026-05-02T18:18:54.884Z</time></trkpt><trkpt lat="40.4520999" lon="15.5437314"><ele>471.3333333333333</ele><time>2026-05-02T18:18:58.884Z</time></trkpt><trkpt lat="40.4522457" lon="15.5437703"><ele>479.0</ele><time>2026-05-02T18:19:01.884Z</time></trkpt><trkpt lat="40.4513238" lon="15.5438188"><ele>462.0</ele><time>2026-05-02T18:19:13.883Z</time></trkpt><trkpt lat="40.4507976" lon="15.5438231"><ele>462.0</ele><time>2026-05-02T18:19:14.884Z</time></trkpt><trkpt lat="40.4505369" lon="15.5438281"><ele>462.0</ele><time>2026-05-02T18:19:15.884Z</time></trkpt><trkpt lat="40.4518729" lon="15.5438384"><ele>462.0</ele><time>2026-05-02T18:19:16.884Z</time></trkpt><trkpt lat="40.4521862" lon="15.5438408"><ele>462.0</ele><time>2026-05-02T18:19:17.884Z</time></trkpt><trkpt lat="40.4512547" lon="15.5438361"><ele>462.0</ele><time>2026-05-02T18:19:18.883Z</time></trkpt><trkpt lat="40.4507294" lon="15.5438336"><ele>462.0</ele><time>2026-05-02T18:19:19.883Z</time></trkpt><trkpt lat="40.4504669" lon="15.5438323"><ele>462.0</ele><time>2026-05-02T18:19:20.884Z</time></trkpt><trkpt lat="40.4503441" lon="15.5438318"><ele>462.0</ele><time>2026-05-02T18:19:21.884Z</time></trkpt><trkpt lat="40.4502767" lon="15.5438315"><ele>479.0</ele><time>2026-05-02T18:19:22.884Z</time></trkpt><trkpt lat="40.4517656" lon="15.543839"><ele>488.5</ele><time>2026-05-02T18:19:24.884Z</time></trkpt><trkpt lat="40.4521846" lon="15.5438678"><ele>498.0</ele><time>2026-05-02T18:19:25.884Z</time></trkpt><trkpt lat="40.4523217" lon="15.5438885"><ele>455.0</ele><time>2026-05-02T18:19:26.883Z</time></trkpt><trkpt lat="40.4501385" lon="15.5438667"><ele>455.0</ele><time>2026-05-02T18:19:37.884Z</time></trkpt><trkpt lat="40.4502196" lon="15.5438174"><ele>455.0</ele><time>2026-05-02T18:19:56.884Z</time></trkpt><trkpt lat="40.4502841" lon="15.5438062"><ele>455.0</ele><time>2026-05-02T18:19:58.884Z</time></trkpt><trkpt lat="40.4501897" lon="15.5438157"><ele>455.0</ele><time>2026-05-02T18:20:03.883Z</time></trkpt><trkpt lat="40.4501157" lon="15.5438261"><ele>455.0</ele><time>2026-05-02T18:20:05.883Z</time></trkpt><trkpt lat="40.4525092" lon="15.5438761"><ele>479.0</ele><time>2026-05-02T18:20:16.884Z</time></trkpt><trkpt lat="40.4514739" lon="15.5438601"><ele>462.0</ele><time>2026-05-02T18:20:22.884Z</time></trkpt><trkpt lat="40.4508892" lon="15.5438425"><ele>462.0</ele><time>2026-05-02T18:20:23.884Z</time></trkpt><trkpt lat="40.4506003" lon="15.5438433"><ele>462.0</ele><time>2026-05-02T18:20:24.883Z</time></trkpt><trkpt lat="40.4504744" lon="15.5438536"><ele>462.0</ele><time>2026-05-02T18:20:25.884Z</time></trkpt><trkpt lat="40.4504088" lon="15.5438611"><ele>458.5</ele><time>2026-05-02T18:20:26.884Z</time></trkpt><trkpt lat="40.4503443" lon="15.5438517"><ele>455.0</ele><time>2026-05-02T18:20:30.883Z</time></trkpt><trkpt lat="40.452589" lon="15.5439415"><ele>467.0</ele><time>2026-05-02T18:20:35.883Z</time></trkpt><trkpt lat="40.452592" lon="15.5440244"><ele>479.0</ele><time>2026-05-02T18:20:38.883Z</time></trkpt><trkpt lat="40.4515897" lon="15.5439548"><ele>462.0</ele><time>2026-05-02T18:20:42.883Z</time></trkpt><trkpt lat="40.4509828" lon="15.5439174"><ele>462.0</ele><time>2026-05-02T18:20:43.883Z</time></trkpt><trkpt lat="40.450644" lon="15.5439075"><ele>462.0</ele><time>2026-05-02T18:20:44.884Z</time></trkpt><trkpt lat="40.4504666" lon="15.5439084"><ele>458.5</ele><time>2026-05-02T18:20:45.884Z</time></trkpt><trkpt lat="40.4503673" lon="15.5439029"><ele>455.0</ele><time>2026-05-02T18:20:46.883Z</time></trkpt><trkpt lat="40.4518319" lon="15.5440318"><ele>498.0</ele><time>2026-05-02T18:20:48.707Z</time></trkpt><trkpt lat="40.4523911" lon="15.5440798"><ele>498.0</ele><time>2026-05-02T18:20:49.884Z</time></trkpt><trkpt lat="40.4523235" lon="15.5440034"><ele>498.0</ele><time>2026-05-02T18:20:53.884Z</time></trkpt><trkpt lat="40.4513179" lon="15.5439226"><ele>462.0</ele><time>2026-05-02T18:20:55.884Z</time></trkpt><trkpt lat="40.4507602" lon="15.5438817"><ele>462.0</ele><time>2026-05-02T18:20:56.883Z</time></trkpt><trkpt lat="40.4504714" lon="15.5438564"><ele>462.0</ele><time>2026-05-02T18:20:57.884Z</time></trkpt><trkpt lat="40.4503304" lon="15.5438414"><ele>462.0</ele><time>2026-05-02T18:20:58.883Z</time></trkpt><trkpt lat="40.4502512" lon="15.5438352"><ele>479.0</ele><time>2026-05-02T18:20:59.884Z</time></trkpt><trkpt lat="40.4515566" lon="15.5438645"><ele>462.0</ele><time>2026-05-02T18:21:00.884Z</time></trkpt><trkpt lat="40.450716" lon="15.543858"><ele>458.5</ele><time>2026-05-02T18:21:01.884Z</time></trkpt><trkpt lat="40.450291" lon="15.5438533"><ele>455.0</ele><time>2026-05-02T18:21:02.884Z</time></trkpt><trkpt lat="40.4501028" lon="15.5438485"><ele>455.0</ele><time>2026-05-02T18:21:03.883Z</time></trkpt><trkpt lat="40.4500165" lon="15.5438421"><ele>455.0</ele><time>2026-05-02T18:21:04.883Z</time></trkpt><trkpt lat="40.4499315" lon="15.5438285"><ele>455.0</ele><time>2026-05-02T18:21:06.884Z</time></trkpt><trkpt lat="40.4511559" lon="15.5438121"><ele>467.0</ele><time>2026-05-02T18:21:08.884Z</time></trkpt><trkpt lat="40.4515231" lon="15.543811"><ele>479.0</ele><time>2026-05-02T18:21:10.884Z</time></trkpt><trkpt lat="40.4515993" lon="15.5439009"><ele>479.0</ele><time>2026-05-02T18:21:48.884Z</time></trkpt><trkpt lat="40.451524" lon="15.5439948"><ele>479.0</ele><time>2026-05-02T18:21:52.883Z</time></trkpt><trkpt lat="40.451311" lon="15.5440925"><ele>479.0</ele><time>2026-05-02T18:21:53.884Z</time></trkpt><trkpt lat="40.4511497" lon="15.5441699"><ele>475.6</ele><time>2026-05-02T18:21:54.884Z</time></trkpt><trkpt lat="40.4510392" lon="15.5442164"><ele>472.2</ele><time>2026-05-02T18:21:55.884Z</time></trkpt><trkpt lat="40.4509525" lon="15.5442452"><ele>468.80000000000007</ele><time>2026-05-02T18:21:56.883Z</time></trkpt><trkpt lat="40.4508728" lon="15.5442655"><ele>465.40000000000003</ele><time>2026-05-02T18:21:57.884Z</time></trkpt><trkpt lat="40.4507654" lon="15.5442639"><ele>462.0</ele><time>2026-05-02T18:21:59.883Z</time></trkpt><trkpt lat="40.450732" lon="15.544174"><ele>462.0</ele><time>2026-05-02T18:22:09.883Z</time></trkpt><trkpt lat="40.450597" lon="15.5441455"><ele>462.0</ele><time>2026-05-02T18:22:14.884Z</time></trkpt><trkpt lat="40.4505095" lon="15.544174"><ele>462.0</ele><time>2026-05-02T18:22:16.884Z</time></trkpt><trkpt lat="40.4504273" lon="15.5441714"><ele>462.0</ele><time>2026-05-02T18:22:24.884Z</time></trkpt><trkpt lat="40.4502443" lon="15.5441708"><ele>460.25</ele><time>2026-05-02T18:22:32.884Z</time></trkpt><trkpt lat="40.4501215" lon="15.5441513"><ele>458.5</ele><time>2026-05-02T18:22:46.884Z</time></trkpt><trkpt lat="40.4500919" lon="15.544067"><ele>456.75</ele><time>2026-05-02T18:22:52.884Z</time></trkpt><trkpt lat="40.4501152" lon="15.5439709"><ele>455.0</ele><time>2026-05-02T18:22:55.884Z</time></trkpt><trkpt lat="40.4503456" lon="15.5439402"><ele>456.75</ele><time>2026-05-02T18:23:01.883Z</time></trkpt><trkpt lat="40.4506183" lon="15.543946"><ele>458.5</ele><time>2026-05-02T18:23:02.884Z</time></trkpt><trkpt lat="40.4505963" lon="15.5440273"><ele>460.25</ele><time>2026-05-02T18:23:21.883Z</time></trkpt><trkpt lat="40.4506389" lon="15.5439262"><ele>462.0</ele><time>2026-05-02T18:23:35.883Z</time></trkpt><trkpt lat="40.4506567" lon="15.5440156"><ele>462.0</ele><time>2026-05-02T18:23:56.884Z</time></trkpt><trkpt lat="40.4506254" lon="15.5439353"><ele>462.0</ele><time>2026-05-02T18:24:11.884Z</time></trkpt><trkpt lat="40.4506718" lon="15.5438444"><ele>462.0</ele><time>2026-05-02T18:24:30.883Z</time></trkpt><trkpt lat="40.4507611" lon="15.5437408"><ele>462.0</ele><time>2026-05-02T18:24:35.884Z</time></trkpt><trkpt lat="40.4508204" lon="15.5436536"><ele>462.0</ele><time>2026-05-02T18:24:37.883Z</time></trkpt><trkpt lat="40.4508934" lon="15.5435996"><ele>462.0</ele><time>2026-05-02T18:24:40.883Z</time></trkpt><trkpt lat="40.4509142" lon="15.5435174"><ele>462.0</ele><time>2026-05-02T18:24:56.884Z</time></trkpt><trkpt lat="40.4508765" lon="15.5435892"><ele>462.00000000000006</ele><time>2026-05-02T18:25:19.884Z</time></trkpt><trkpt lat="40.450822" lon="15.5436775"><ele>462.00000000000006</ele><time>2026-05-02T18:25:27.884Z</time></trkpt><trkpt lat="40.4507404" lon="15.5437823"><ele>462.0</ele><time>2026-05-02T18:25:44.884Z</time></trkpt><trkpt lat="40.4508224" lon="15.5437188"><ele>462.0</ele><time>2026-05-02T18:26:04.884Z</time></trkpt><trkpt lat="40.4508052" lon="15.5438338"><ele>462.0</ele><time>2026-05-02T18:28:19.884Z</time></trkpt><trkpt lat="40.4508682" lon="15.5438664"><ele>462.0</ele><time>2026-05-02T18:28:44.884Z</time></trkpt><trkpt lat="40.4509211" lon="15.5439315"><ele>462.0</ele><time>2026-05-02T18:29:03.884Z</time></trkpt><trkpt lat="40.4509838" lon="15.5438584"><ele>462.0</ele><time>2026-05-02T18:29:10.883Z</time></trkpt><trkpt lat="40.4501523" lon="15.5438512"><ele>451.0</ele><time>2026-05-02T18:29:13.884Z</time></trkpt><trkpt lat="40.4495392" lon="15.5438495"><ele>451.0</ele><time>2026-05-02T18:29:14.884Z</time></trkpt><trkpt lat="40.449201" lon="15.5438475"><ele>451.0</ele><time>2026-05-02T18:29:15.883Z</time></trkpt><trkpt lat="40.4507697" lon="15.5438329"><ele>451.0</ele><time>2026-05-02T18:29:16.883Z</time></trkpt><trkpt lat="40.4509723" lon="15.543829"><ele>451.0</ele><time>2026-05-02T18:29:17.884Z</time></trkpt><trkpt lat="40.4510345" lon="15.5437755"><ele>451.0</ele><time>2026-05-02T18:29:20.884Z</time></trkpt><trkpt lat="40.4510019" lon="15.5436992"><ele>451.0</ele><time>2026-05-02T18:29:24.883Z</time></trkpt><trkpt lat="40.4503216" lon="15.5437123"><ele>452.0</ele><time>2026-05-02T18:29:27.884Z</time></trkpt><trkpt lat="40.4508855" lon="15.5436671"><ele>452.0</ele><time>2026-05-02T18:29:28.884Z</time></trkpt><trkpt lat="40.4509805" lon="15.5436557"><ele>452.0</ele><time>2026-05-02T18:29:29.884Z</time></trkpt><trkpt lat="40.4503382" lon="15.5437011"><ele>451.0</ele><time>2026-05-02T18:29:33.883Z</time></trkpt><trkpt lat="40.4494518" lon="15.543771"><ele>451.0</ele><time>2026-05-02T18:29:35.884Z</time></trkpt><trkpt lat="40.4491361" lon="15.5437914"><ele>451.0</ele><time>2026-05-02T18:29:36.884Z</time></trkpt><trkpt lat="40.4494863" lon="15.5437571"><ele>452.0</ele><time>2026-05-02T18:29:37.884Z</time></trkpt><trkpt lat="40.4507218" lon="15.5436334"><ele>452.0</ele><time>2026-05-02T18:29:38.883Z</time></trkpt><trkpt lat="40.450995" lon="15.5436011"><ele>452.0</ele><time>2026-05-02T18:29:39.884Z</time></trkpt><trkpt lat="40.450328" lon="15.5436561"><ele>451.0</ele><time>2026-05-02T18:29:40.883Z</time></trkpt><trkpt lat="40.4497488" lon="15.5437021"><ele>451.0</ele><time>2026-05-02T18:29:41.884Z</time></trkpt><trkpt lat="40.4493571" lon="15.543733"><ele>451.0</ele><time>2026-05-02T18:29:42.884Z</time></trkpt><trkpt lat="40.4507747" lon="15.5435828"><ele>451.33333333333337</ele><time>2026-05-02T18:29:43.884Z</time></trkpt><trkpt lat="40.451025" lon="15.5435494"><ele>451.66666666666663</ele><time>2026-05-02T18:29:44.884Z</time></trkpt><trkpt lat="40.4511116" lon="15.5435174"><ele>452.0</ele><time>2026-05-02T18:29:45.883Z</time></trkpt><trkpt lat="40.4487785" lon="15.5437594"><ele>452.0</ele><time>2026-05-02T18:29:48.884Z</time></trkpt><trkpt lat="40.451155" lon="15.5434333"><ele>452.0</ele><time>2026-05-02T18:29:51.884Z</time></trkpt><trkpt lat="40.4510823" lon="15.5435444"><ele>452.0</ele><time>2026-05-02T18:30:02.884Z</time></trkpt><trkpt lat="40.4487695" lon="15.5437623"><ele>452.0</ele><time>2026-05-02T18:30:06.884Z</time></trkpt><trkpt lat="40.4511033" lon="15.5434683"><ele>451.0</ele><time>2026-05-02T18:30:08.884Z</time></trkpt><trkpt lat="40.449994" lon="15.5436328"><ele>448.0</ele><time>2026-05-02T18:30:14.651Z</time></trkpt><trkpt lat="40.448736" lon="15.5437725"><ele>448.5</ele><time>2026-05-02T18:30:28.115Z</time></trkpt><trkpt lat="40.4490062" lon="15.5436264"><ele>449.0</ele><time>2026-05-02T18:31:17.888Z</time></trkpt><trkpt lat="40.4493638" lon="15.5433073"><ele>449.0</ele><time>2026-05-02T18:31:20.888Z</time></trkpt><trkpt lat="40.4492326" lon="15.5433356"><ele>449.0</ele><time>2026-05-02T18:31:28.888Z</time></trkpt><trkpt lat="40.4490866" lon="15.5434569"><ele>449.0</ele><time>2026-05-02T18:31:29.888Z</time></trkpt><trkpt lat="40.4489756" lon="15.5435493"><ele>449.0</ele><time>2026-05-02T18:31:30.887Z</time></trkpt><trkpt lat="40.4493416" lon="15.5432859"><ele>449.0</ele><time>2026-05-02T18:31:31.888Z</time></trkpt><trkpt lat="40.4492242" lon="15.5433823"><ele>449.0</ele><time>2026-05-02T18:31:35.887Z</time></trkpt><trkpt lat="40.4490609" lon="15.5435111"><ele>449.0</ele><time>2026-05-02T18:31:36.888Z</time></trkpt><trkpt lat="40.4489477" lon="15.5436081"><ele>449.0</ele><time>2026-05-02T18:31:37.888Z</time></trkpt><trkpt lat="40.4493645" lon="15.5432837"><ele>448.99999999999994</ele><time>2026-05-02T18:31:38.888Z</time></trkpt><trkpt lat="40.4494372" lon="15.5432176"><ele>449.0</ele><time>2026-05-02T18:31:55.888Z</time></trkpt><trkpt lat="40.4495264" lon="15.5431648"><ele>449.0</ele><time>2026-05-02T18:31:59.888Z</time></trkpt><trkpt lat="40.4495774" lon="15.543082"><ele>449.0</ele><time>2026-05-02T18:32:04.887Z</time></trkpt><trkpt lat="40.4494705" lon="15.5431243"><ele>448.99999999999994</ele><time>2026-05-02T18:32:18.887Z</time></trkpt><trkpt lat="40.4494182" lon="15.5431777"><ele>449.0</ele><time>2026-05-02T18:32:19.887Z</time></trkpt><trkpt lat="40.4493318" lon="15.5432573"><ele>449.0</ele><time>2026-05-02T18:32:21.887Z</time></trkpt><trkpt lat="40.4492556" lon="15.5433215"><ele>449.0</ele><time>2026-05-02T18:32:23.888Z</time></trkpt><trkpt lat="40.4491898" lon="15.5433823"><ele>449.0</ele><time>2026-05-02T18:32:25.887Z</time></trkpt><trkpt lat="40.4490863" lon="15.5435021"><ele>449.0</ele><time>2026-05-02T18:32:32.888Z</time></trkpt><trkpt lat="40.4490182" lon="15.5435952"><ele>449.0</ele><time>2026-05-02T18:32:34.887Z</time></trkpt><trkpt lat="40.448941" lon="15.5437484"><ele>448.85714285714283</ele><time>2026-05-02T18:32:39.888Z</time></trkpt><trkpt lat="40.4488956" lon="15.5438359"><ele>448.71428571428567</ele><time>2026-05-02T18:32:41.888Z</time></trkpt><trkpt lat="40.4488505" lon="15.5438984"><ele>448.57142857142856</ele><time>2026-05-02T18:32:51.888Z</time></trkpt><trkpt lat="40.4489234" lon="15.5438728"><ele>448.42857142857144</ele><time>2026-05-02T18:33:05.888Z</time></trkpt><trkpt lat="40.4488568" lon="15.543898"><ele>448.2857142857143</ele><time>2026-05-02T18:33:22.887Z</time></trkpt><trkpt lat="40.4488011" lon="15.5439565"><ele>448.1428571428571</ele><time>2026-05-02T18:33:31.888Z</time></trkpt><trkpt lat="40.4487337" lon="15.543971"><ele>448.0</ele><time>2026-05-02T18:33:37.888Z</time></trkpt><trkpt lat="40.4486678" lon="15.5440247"><ele>448.00000000000006</ele><time>2026-05-02T18:34:08.887Z</time></trkpt><trkpt lat="40.4485878" lon="15.5440474"><ele>448.0</ele><time>2026-05-02T18:34:18.888Z</time></trkpt><trkpt lat="40.4486139" lon="15.5439379"><ele>448.0</ele><time>2026-05-02T18:34:25.887Z</time></trkpt><trkpt lat="40.448502" lon="15.5440616"><ele>448.0</ele><time>2026-05-02T18:34:29.887Z</time></trkpt><trkpt lat="40.4485328" lon="15.5439874"><ele>448.00000000000006</ele><time>2026-05-02T18:34:36.888Z</time></trkpt><trkpt lat="40.4485388" lon="15.5440767"><ele>448.0</ele><time>2026-05-02T18:34:45.887Z</time></trkpt><trkpt lat="40.448692" lon="15.544032"><ele>448.00000000000006</ele><time>2026-05-02T18:34:47.888Z</time></trkpt><trkpt lat="40.4487529" lon="15.5440047"><ele>448.0</ele><time>2026-05-02T18:34:48.888Z</time></trkpt><trkpt lat="40.4488127" lon="15.5439693"><ele>448.0</ele><time>2026-05-02T18:34:50.888Z</time></trkpt><trkpt lat="40.4488951" lon="15.5439712"><ele>448.0</ele><time>2026-05-02T18:35:01.888Z</time></trkpt><trkpt lat="40.4489738" lon="15.5438619"><ele>448.00000000000006</ele><time>2026-05-02T18:35:21.887Z</time></trkpt><trkpt lat="40.4489221" lon="15.5437712"><ele>448.0</ele><time>2026-05-02T18:35:57.888Z</time></trkpt><trkpt lat="40.4488206" lon="15.5437932"><ele>448.00000000000006</ele><time>2026-05-02T18:36:35.888Z</time></trkpt><trkpt lat="40.448733" lon="15.5438182"><ele>448.0</ele><time>2026-05-02T18:36:44.887Z</time></trkpt><trkpt lat="40.448645" lon="15.5437952"><ele>448.0</ele><time>2026-05-02T18:36:49.887Z</time></trkpt><trkpt lat="40.4485777" lon="15.5438246"><ele>448.0</ele><time>2026-05-02T18:36:51.888Z</time></trkpt><trkpt lat="40.4484861" lon="15.5439111"><ele>448.00000000000006</ele><time>2026-05-02T18:36:55.888Z</time></trkpt><trkpt lat="40.4484181" lon="15.5439612"><ele>448.0</ele><time>2026-05-02T18:36:58.887Z</time></trkpt><trkpt lat="40.4483479" lon="15.5439687"><ele>448.0</ele><time>2026-05-02T18:37:08.887Z</time></trkpt><trkpt lat="40.4484136" lon="15.5438981"><ele>447.99999999999994</ele><time>2026-05-02T18:37:11.888Z</time></trkpt><trkpt lat="40.4485088" lon="15.5438634"><ele>447.99999999999994</ele><time>2026-05-02T18:38:29.888Z</time></trkpt><trkpt lat="40.4485764" lon="15.5439348"><ele>448.0</ele><time>2026-05-02T18:39:33.887Z</time></trkpt><trkpt lat="40.448714" lon="15.5439618"><ele>448.0</ele><time>2026-05-02T18:39:41.887Z</time></trkpt><trkpt lat="40.4486198" lon="15.5438429"><ele>448.0</ele><time>2026-05-02T18:43:04.887Z</time></trkpt><trkpt lat="40.4487139" lon="15.5438134"><ele>447.99999999999994</ele><time>2026-05-02T18:44:08.888Z</time></trkpt><trkpt lat="40.4486685" lon="15.5437183"><ele>447.99999999999994</ele><time>2026-05-02T18:46:03.888Z</time></trkpt><trkpt lat="40.448735" lon="15.5437318"><ele>448.0</ele><time>2026-05-02T18:46:39.889Z</time></trkpt><trkpt lat="40.4486609" lon="15.5437538"><ele>448.0</ele><time>2026-05-02T18:47:12.888Z</time></trkpt><trkpt lat="40.448788" lon="15.5437712"><ele>448.00000000000006</ele><time>2026-05-02T18:47:21.889Z</time></trkpt><trkpt lat="40.4487264" lon="15.5437008"><ele>448.0</ele><time>2026-05-02T18:48:19.889Z</time></trkpt><trkpt lat="40.4488012" lon="15.5436537"><ele>448.0</ele><time>2026-05-02T18:48:34.888Z</time></trkpt><trkpt lat="40.4486952" lon="15.5437"><ele>448.0</ele><time>2026-05-02T18:51:06.889Z</time></trkpt><trkpt lat="40.4486216" lon="15.5437912"><ele>448.00000000000006</ele><time>2026-05-02T18:52:16.889Z</time></trkpt><trkpt lat="40.4486878" lon="15.5437675"><ele>448.0</ele><time>2026-05-02T18:53:18.888Z</time></trkpt><trkpt lat="40.4487664" lon="15.5436815"><ele>448.0</ele><time>2026-05-02T19:01:07.888Z</time></trkpt><trkpt lat="40.4488557" lon="15.5436741"><ele>447.99999999999994</ele><time>2026-05-02T19:01:31.888Z</time></trkpt><trkpt lat="40.4488333" lon="15.5437831"><ele>447.99999999999994</ele><time>2026-05-02T19:01:52.889Z</time></trkpt><trkpt lat="40.4487385" lon="15.5438185"><ele>448.0</ele><time>2026-05-02T19:02:03.889Z</time></trkpt><trkpt lat="40.4486531" lon="15.5438393"><ele>448.0</ele><time>2026-05-02T19:02:29.888Z</time></trkpt><trkpt lat="40.4485905" lon="15.5437515"><ele>448.0</ele><time>2026-05-02T19:02:54.89Z</time></trkpt><trkpt lat="40.4485007" lon="15.5438"><ele>447.99999999999994</ele><time>2026-05-02T19:03:16.89Z</time></trkpt><trkpt lat="40.4484423" lon="15.5438554"><ele>447.99999999999994</ele><time>2026-05-02T19:04:27.89Z</time></trkpt><trkpt lat="40.4484744" lon="15.5437665"><ele>448.0</ele><time>2026-05-02T19:06:06.89Z</time></trkpt><trkpt lat="40.4485724" lon="15.5437337"><ele>448.0</ele><time>2026-05-02T19:06:15.89Z</time></trkpt><trkpt lat="40.4486852" lon="15.5437811"><ele>448.0</ele><time>2026-05-02T19:07:48.89Z</time></trkpt><trkpt lat="40.4487703" lon="15.543831"><ele>447.99999999999994</ele><time>2026-05-02T19:08:27.889Z</time></trkpt><trkpt lat="40.4486684" lon="15.5438464"><ele>447.99999999999994</ele><time>2026-05-02T19:09:55.89Z</time></trkpt><trkpt lat="40.4485595" lon="15.5438707"><ele>448.0</ele><time>2026-05-02T19:10:01.89Z</time></trkpt><trkpt lat="40.4484605" lon="15.5438895"><ele>448.0</ele><time>2026-05-02T19:10:17.89Z</time></trkpt><trkpt lat="40.4485735" lon="15.5439064"><ele>448.00000000000006</ele><time>2026-05-02T19:11:15.89Z</time></trkpt><trkpt lat="40.4486239" lon="15.5438258"><ele>448.0</ele><time>2026-05-02T19:12:47.89Z</time></trkpt><trkpt lat="40.4486741" lon="15.5437683"><ele>448.0</ele><time>2026-05-02T19:14:44.89Z</time></trkpt><trkpt lat="40.4486155" lon="15.5437107"><ele>448.0</ele><time>2026-05-02T19:15:18.889Z</time></trkpt><trkpt lat="40.4485565" lon="15.5437397"><ele>448.00000000000006</ele><time>2026-05-02T19:15:21.89Z</time></trkpt><trkpt lat="40.4484709" lon="15.5438475"><ele>448.0</ele><time>2026-05-02T19:15:43.889Z</time></trkpt><trkpt lat="40.4485795" lon="15.5438351"><ele>448.00000000000006</ele><time>2026-05-02T19:19:55.891Z</time></trkpt><trkpt lat="40.4485406" lon="15.5437683"><ele>448.0</ele><time>2026-05-02T19:23:40.89Z</time></trkpt><trkpt lat="40.4484543" lon="15.5437921"><ele>448.0</ele><time>2026-05-02T19:24:19.891Z</time></trkpt><trkpt lat="40.4485126" lon="15.5438319"><ele>448.0</ele><time>2026-05-02T19:25:37.891Z</time></trkpt><trkpt lat="40.4486129" lon="15.5437778"><ele>448.00000000000006</ele><time>2026-05-02T19:27:55.891Z</time></trkpt><trkpt lat="40.448572" lon="15.5438529"><ele>448.0</ele><time>2026-05-02T19:32:19.89Z</time></trkpt><trkpt lat="40.4486321" lon="15.5438914"><ele>448.0</ele><time>2026-05-02T19:33:52.891Z</time></trkpt><trkpt lat="40.448781" lon="15.5438006"><ele>447.99999999999994</ele><time>2026-05-02T19:36:04.892Z</time></trkpt><trkpt lat="40.4487024" lon="15.543806"><ele>447.99999999999994</ele><time>2026-05-02T19:36:18.892Z</time></trkpt><trkpt lat="40.4485815" lon="15.5438714"><ele>448.0</ele><time>2026-05-02T19:37:19.891Z</time></trkpt><trkpt lat="40.4485189" lon="15.5438427"><ele>448.0</ele><time>2026-05-02T19:38:13.891Z</time></trkpt><trkpt lat="40.4486476" lon="15.5438318"><ele>448.0</ele><time>2026-05-02T19:39:23.892Z</time></trkpt><trkpt lat="40.4487527" lon="15.5437548"><ele>447.99999999999994</ele><time>2026-05-02T19:39:50.892Z</time></trkpt><trkpt lat="40.4487021" lon="15.5438277"><ele>447.99999999999994</ele><time>2026-05-02T19:40:32.891Z</time></trkpt><trkpt lat="40.448558" lon="15.5438772"><ele>448.0</ele><time>2026-05-02T19:41:10.892Z</time></trkpt><trkpt lat="40.4485158" lon="15.543943"><ele>448.0</ele><time>2026-05-02T19:41:15.892Z</time></trkpt><trkpt lat="40.4484401" lon="15.5438806"><ele>448.0</ele><time>2026-05-02T19:42:09.892Z</time></trkpt><trkpt lat="40.4485943" lon="15.5438253"><ele>447.99999999999994</ele><time>2026-05-02T19:45:04.892Z</time></trkpt><trkpt lat="40.4486612" lon="15.5438173"><ele>447.99999999999994</ele><time>2026-05-02T19:45:16.892Z</time></trkpt><trkpt lat="40.4485784" lon="15.543815"><ele>448.0</ele><time>2026-05-02T19:45:47.892Z</time></trkpt><trkpt lat="40.4486219" lon="15.5438887"><ele>448.0</ele><time>2026-05-02T19:48:24.893Z</time></trkpt><trkpt lat="40.4485334" lon="15.5438811"><ele>448.00000000000006</ele><time>2026-05-02T19:48:51.893Z</time></trkpt><trkpt lat="40.4485967" lon="15.5438688"><ele>448.0</ele><time>2026-05-02T19:49:04.893Z</time></trkpt><trkpt lat="40.4486268" lon="15.5437749"><ele>448.0</ele><time>2026-05-02T19:49:33.893Z</time></trkpt><trkpt lat="40.4485426" lon="15.5438215"><ele>448.0</ele><time>2026-05-02T19:49:36.893Z</time></trkpt><trkpt lat="40.4484857" lon="15.5438632"><ele>448.00000000000006</ele><time>2026-05-02T19:49:39.893Z</time></trkpt><trkpt lat="40.448412" lon="15.5439203"><ele>448.0</ele><time>2026-05-02T19:49:50.892Z</time></trkpt><trkpt lat="40.4484823" lon="15.5438745"><ele>448.00000000000006</ele><time>2026-05-02T19:50:29.893Z</time></trkpt><trkpt lat="40.4485517" lon="15.5438699"><ele>448.0</ele><time>2026-05-02T19:50:31.892Z</time></trkpt><trkpt lat="40.4486149" lon="15.5438702"><ele>448.0</ele><time>2026-05-02T19:50:34.893Z</time></trkpt><trkpt lat="40.4486894" lon="15.5438576"><ele>448.0</ele><time>2026-05-02T19:50:38.893Z</time></trkpt><trkpt lat="40.4487746" lon="15.5438301"><ele>448.00000000000006</ele><time>2026-05-02T19:50:54.893Z</time></trkpt><trkpt lat="40.4486371" lon="15.5438185"><ele>448.0</ele><time>2026-05-02T19:51:25.893Z</time></trkpt><trkpt lat="40.4485325" lon="15.5437776"><ele>448.00000000000006</ele><time>2026-05-02T19:51:37.893Z</time></trkpt><trkpt lat="40.4485639" lon="15.5437049"><ele>448.0</ele><time>2026-05-02T19:52:25.892Z</time></trkpt><trkpt lat="40.4484995" lon="15.5436975"><ele>448.0</ele><time>2026-05-02T19:52:54.893Z</time></trkpt><trkpt lat="40.4483751" lon="15.5437178"><ele>448.0</ele><time>2026-05-02T19:53:02.893Z</time></trkpt><trkpt lat="40.4483037" lon="15.5437116"><ele>448.00000000000006</ele><time>2026-05-02T19:53:04.893Z</time></trkpt><trkpt lat="40.4483933" lon="15.54365"><ele>448.0</ele><time>2026-05-02T19:53:22.893Z</time></trkpt><trkpt lat="40.4484843" lon="15.5436657"><ele>448.00000000000006</ele><time>2026-05-02T19:53:39.892Z</time></trkpt><trkpt lat="40.4485617" lon="15.5436773"><ele>448.0</ele><time>2026-05-02T19:53:54.893Z</time></trkpt><trkpt lat="40.4484724" lon="15.5436712"><ele>448.0</ele><time>2026-05-02T19:54:11.892Z</time></trkpt><trkpt lat="40.4483971" lon="15.5436845"><ele>448.0</ele><time>2026-05-02T19:54:12.892Z</time></trkpt><trkpt lat="40.4483333" lon="15.5437066"><ele>448.00000000000006</ele><time>2026-05-02T19:54:16.893Z</time></trkpt><trkpt lat="40.4484407" lon="15.5437453"><ele>448.0</ele><time>2026-05-02T19:54:25.892Z</time></trkpt><trkpt lat="40.4485073" lon="15.5437309"><ele>448.0</ele><time>2026-05-02T19:54:28.893Z</time></trkpt><trkpt lat="40.448447" lon="15.5437865"><ele>447.99999999999994</ele><time>2026-05-02T19:55:48.893Z</time></trkpt><trkpt lat="40.4484043" lon="15.5438875"><ele>447.99999999999994</ele><time>2026-05-02T20:01:48.893Z</time></trkpt><trkpt lat="40.4485246" lon="15.5438321"><ele>448.0</ele><time>2026-05-02T20:04:39.894Z</time></trkpt><trkpt lat="40.4486173" lon="15.5437632"><ele>448.0</ele><time>2026-05-02T20:05:02.894Z</time></trkpt><trkpt lat="40.4485438" lon="15.5437828"><ele>448.0</ele><time>2026-05-02T20:07:57.893Z</time></trkpt><trkpt lat="40.4486445" lon="15.5437387"><ele>447.99999999999994</ele><time>2026-05-02T20:08:23.894Z</time></trkpt><trkpt lat="40.4486088" lon="15.5436363"><ele>447.99999999999994</ele><time>2026-05-02T20:09:26.894Z</time></trkpt><trkpt lat="40.4485485" lon="15.5435876"><ele>448.0</ele><time>2026-05-02T20:09:32.893Z</time></trkpt><trkpt lat="40.4484729" lon="15.5435642"><ele>448.0</ele><time>2026-05-02T20:09:39.894Z</time></trkpt><trkpt lat="40.4485412" lon="15.543686"><ele>448.0</ele><time>2026-05-02T20:09:57.893Z</time></trkpt><trkpt lat="40.4486318" lon="15.5437405"><ele>447.99999999999994</ele><time>2026-05-02T20:09:59.894Z</time></trkpt><trkpt lat="40.4487394" lon="15.5437975"><ele>447.99999999999994</ele><time>2026-05-02T20:10:01.894Z</time></trkpt><trkpt lat="40.4486828" lon="15.5438725"><ele>448.0</ele><time>2026-05-02T20:10:52.894Z</time></trkpt><trkpt lat="40.4485941" lon="15.5438812"><ele>448.0</ele><time>2026-05-02T20:11:58.894Z</time></trkpt><trkpt lat="40.4486583" lon="15.5438709"><ele>448.0</ele><time>2026-05-02T20:13:40.894Z</time></trkpt><trkpt lat="40.4487196" lon="15.543841"><ele>447.99999999999994</ele><time>2026-05-02T20:14:55.894Z</time></trkpt><trkpt lat="40.4487153" lon="15.5436815"><ele>447.99999999999994</ele><time>2026-05-02T20:15:50.895Z</time></trkpt><trkpt lat="40.4487278" lon="15.5435641"><ele>448.0</ele><time>2026-05-02T20:16:22.894Z</time></trkpt><trkpt lat="40.4486785" lon="15.5437051"><ele>448.0</ele><time>2026-05-02T20:17:18.895Z</time></trkpt><trkpt lat="40.4486591" lon="15.5437858"><ele>448.00000000000006</ele><time>2026-05-02T20:18:17.894Z</time></trkpt><trkpt lat="40.4487214" lon="15.5437365"><ele>448.0</ele><time>2026-05-02T20:18:44.895Z</time></trkpt><trkpt lat="40.4487932" lon="15.5436371"><ele>448.0</ele><time>2026-05-02T20:18:57.895Z</time></trkpt><trkpt lat="40.4487464" lon="15.5437098"><ele>448.0</ele><time>2026-05-02T20:20:16.895Z</time></trkpt><trkpt lat="40.448672" lon="15.5437533"><ele>448.00000000000006</ele><time>2026-05-02T20:20:46.895Z</time></trkpt><trkpt lat="40.4486921" lon="15.5438516"><ele>448.0</ele><time>2026-05-02T20:21:50.895Z</time></trkpt><trkpt lat="40.4486347" lon="15.5437807"><ele>448.0</ele><time>2026-05-02T20:22:14.895Z</time></trkpt><trkpt lat="40.448703" lon="15.5437648"><ele>447.99999999999994</ele><time>2026-05-02T20:22:30.894Z</time></trkpt><trkpt lat="40.4487748" lon="15.5438044"><ele>447.99999999999994</ele><time>2026-05-02T20:22:32.895Z</time></trkpt><trkpt lat="40.4486679" lon="15.543756"><ele>448.0</ele><time>2026-05-02T20:25:12.895Z</time></trkpt><trkpt lat="40.4487428" lon="15.5436539"><ele>448.0</ele><time>2026-05-02T20:28:03.895Z</time></trkpt><trkpt lat="40.4488236" lon="15.5436978"><ele>448.0</ele><time>2026-05-02T20:31:05.896Z</time></trkpt><trkpt lat="40.448888" lon="15.5436608"><ele>447.99999999999994</ele><time>2026-05-02T20:32:03.896Z</time></trkpt><trkpt lat="40.4488099" lon="15.5437284"><ele>447.99999999999994</ele><time>2026-05-02T20:32:55.896Z</time></trkpt><trkpt lat="40.4487074" lon="15.5437982"><ele>448.0</ele><time>2026-05-02T20:33:17.896Z</time></trkpt><trkpt lat="40.4487422" lon="15.5436774"><ele>448.0</ele><time>2026-05-02T20:33:40.896Z</time></trkpt><trkpt lat="40.4486911" lon="15.5437443"><ele>448.00000000000006</ele><time>2026-05-02T20:33:58.896Z</time></trkpt><trkpt lat="40.4485966" lon="15.5437769"><ele>448.0</ele><time>2026-05-02T20:34:16.896Z</time></trkpt><trkpt lat="40.4486493" lon="15.5436798"><ele>448.0</ele><time>2026-05-02T20:38:04.896Z</time></trkpt><trkpt lat="40.4485973" lon="15.5437326"><ele>448.0</ele><time>2026-05-02T20:39:47.895Z</time></trkpt><trkpt lat="40.4486363" lon="15.5436653"><ele>448.00000000000006</ele><time>2026-05-02T20:40:02.896Z</time></trkpt><trkpt lat="40.448643" lon="15.5437656"><ele>448.0</ele><time>2026-05-02T20:40:34.895Z</time></trkpt><trkpt lat="40.4486986" lon="15.5438211"><ele>448.00000000000006</ele><time>2026-05-02T20:51:10.896Z</time></trkpt><trkpt lat="40.4486186" lon="15.5438609"><ele>448.0</ele><time>2026-05-02T20:51:41.896Z</time></trkpt><trkpt lat="40.448543" lon="15.543853"><ele>448.0</ele><time>2026-05-02T20:51:57.896Z</time></trkpt><trkpt lat="40.4486411" lon="15.543773"><ele>448.0</ele><time>2026-05-02T20:54:21.896Z</time></trkpt><trkpt lat="40.4487061" lon="15.5437017"><ele>448.00000000000006</ele><time>2026-05-02T20:56:52.897Z</time></trkpt><trkpt lat="40.4486527" lon="15.5437705"><ele>448.0</ele><time>2026-05-02T20:59:45.897Z</time></trkpt><trkpt lat="40.4485811" lon="15.5438433"><ele>448.0</ele><time>2026-05-02T21:03:34.898Z</time></trkpt><trkpt lat="40.4485154" lon="15.5438945"><ele>447.99999999999994</ele><time>2026-05-02T21:03:49.897Z</time></trkpt><trkpt lat="40.4484542" lon="15.5439314"><ele>447.99999999999994</ele><time>2026-05-02T21:03:52.898Z</time></trkpt><trkpt lat="40.4485143" lon="15.5438651"><ele>448.0</ele><time>2026-05-02T21:04:05.898Z</time></trkpt><trkpt lat="40.4485933" lon="15.5437716"><ele>448.0</ele><time>2026-05-02T21:04:34.898Z</time></trkpt><trkpt lat="40.4486931" lon="15.5436791"><ele>448.00000000000006</ele><time>2026-05-02T21:06:33.897Z</time></trkpt><trkpt lat="40.4486109" lon="15.5437534"><ele>448.0</ele><time>2026-05-02T21:07:22.897Z</time></trkpt><trkpt lat="40.4485188" lon="15.5437447"><ele>448.0</ele><time>2026-05-02T21:12:00.898Z</time></trkpt><trkpt lat="40.4485452" lon="15.543824"><ele>448.0</ele><time>2026-05-02T21:15:12.899Z</time></trkpt><trkpt lat="40.4486102" lon="15.5437732"><ele>448.00000000000006</ele><time>2026-05-02T21:15:25.899Z</time></trkpt><trkpt lat="40.4485451" lon="15.5437549"><ele>448.0</ele><time>2026-05-02T21:19:56.899Z</time></trkpt><trkpt lat="40.4486195" lon="15.5437412"><ele>448.00000000000006</ele><time>2026-05-02T21:22:33.899Z</time></trkpt><trkpt lat="40.4485734" lon="15.5438227"><ele>448.0</ele><time>2026-05-02T21:23:12.899Z</time></trkpt><trkpt lat="40.448643" lon="15.5438068"><ele>448.0</ele><time>2026-05-02T21:27:44.9Z</time></trkpt><trkpt lat="40.4485673" lon="15.5438532"><ele>448.0</ele><time>2026-05-02T21:28:26.9Z</time></trkpt><trkpt lat="40.4486379" lon="15.5437844"><ele>448.00000000000006</ele><time>2026-05-02T21:38:34.9Z</time></trkpt><trkpt lat="40.4487096" lon="15.5437905"><ele>448.0</ele><time>2026-05-02T21:39:08.9Z</time></trkpt><trkpt lat="40.4486507" lon="15.5438243"><ele>448.00000000000006</ele><time>2026-05-02T21:40:51.901Z</time></trkpt><trkpt lat="40.4485705" lon="15.5437837"><ele>448.0</ele><time>2026-05-02T21:47:23.901Z</time></trkpt><trkpt lat="40.4486264" lon="15.5437283"><ele>448.0</ele><time>2026-05-02T21:50:23.9Z</time></trkpt><trkpt lat="40.4485517" lon="15.5437687"><ele>448.0</ele><time>2026-05-02T21:53:56.901Z</time></trkpt><trkpt lat="40.4486453" lon="15.5437875"><ele>448.00000000000006</ele><time>2026-05-02T21:56:57.902Z</time></trkpt><trkpt lat="40.4487158" lon="15.5438255"><ele>448.0</ele><time>2026-05-02T21:57:14.902Z</time></trkpt><trkpt lat="40.4487655" lon="15.5437456"><ele>448.0</ele><time>2026-05-02T21:57:32.901Z</time></trkpt><trkpt lat="40.4488241" lon="15.5436998"><ele>447.99999999999994</ele><time>2026-05-02T21:57:35.902Z</time></trkpt><trkpt lat="40.4487821" lon="15.5437822"><ele>447.99999999999994</ele><time>2026-05-02T21:58:14.901Z</time></trkpt><trkpt lat="40.4486826" lon="15.5437856"><ele>448.0</ele><time>2026-05-02T21:58:34.901Z</time></trkpt><trkpt lat="40.4485604" lon="15.5437662"><ele>448.0</ele><time>2026-05-02T21:59:08.902Z</time></trkpt><trkpt lat="40.4484586" lon="15.5438157"><ele>448.0</ele><time>2026-05-02T21:59:38.902Z</time></trkpt><trkpt lat="40.4485443" lon="15.5439229"><ele>447.99999999999994</ele><time>2026-05-02T22:00:38.902Z</time></trkpt><trkpt lat="40.44862" lon="15.5438728"><ele>447.99999999999994</ele><time>2026-05-02T22:01:02.901Z</time></trkpt><trkpt lat="40.4486932" lon="15.5438232"><ele>448.0</ele><time>2026-05-02T22:03:04.901Z</time></trkpt><trkpt lat="40.4487605" lon="15.5438063"><ele>448.0</ele><time>2026-05-02T22:03:08.902Z</time></trkpt><trkpt lat="40.4486607" lon="15.5438308"><ele>448.00000000000006</ele><time>2026-05-02T22:03:59.901Z</time></trkpt><trkpt lat="40.4487277" lon="15.5438552"><ele>448.0</ele><time>2026-05-02T22:04:23.901Z</time></trkpt><trkpt lat="40.4486317" lon="15.5438492"><ele>448.0</ele><time>2026-05-02T22:06:57.902Z</time></trkpt><trkpt lat="40.4486963" lon="15.5438363"><ele>448.0</ele><time>2026-05-02T22:07:08.902Z</time></trkpt><trkpt lat="40.4485908" lon="15.5438405"><ele>448.00000000000006</ele><time>2026-05-02T22:15:19.903Z</time></trkpt><trkpt lat="40.4486722" lon="15.5438169"><ele>448.0</ele><time>2026-05-02T22:16:44.903Z</time></trkpt><trkpt lat="40.4487562" lon="15.5438122"><ele>448.00000000000006</ele><time>2026-05-02T22:16:52.903Z</time></trkpt><trkpt lat="40.4488398" lon="15.5438011"><ele>448.0</ele><time>2026-05-02T22:17:58.903Z</time></trkpt><trkpt lat="40.4487584" lon="15.5438182"><ele>448.0</ele><time>2026-05-02T22:18:26.903Z</time></trkpt><trkpt lat="40.4486768" lon="15.5438295"><ele>448.0</ele><time>2026-05-02T22:18:29.903Z</time></trkpt><trkpt lat="40.4486564" lon="15.5439127"><ele>448.00000000000006</ele><time>2026-05-02T22:20:10.903Z</time></trkpt><trkpt lat="40.4485869" lon="15.5438957"><ele>448.0</ele><time>2026-05-02T22:20:52.903Z</time></trkpt><trkpt lat="40.4485239" lon="15.5439256"><ele>448.0</ele><time>2026-05-02T22:23:30.904Z</time></trkpt><trkpt lat="40.4485885" lon="15.5439326"><ele>447.99999999999994</ele><time>2026-05-02T22:23:43.904Z</time></trkpt><trkpt lat="40.4486695" lon="15.5439163"><ele>447.99999999999994</ele><time>2026-05-02T22:23:55.904Z</time></trkpt><trkpt lat="40.4487924" lon="15.5438785"><ele>448.0</ele><time>2026-05-02T22:24:05.904Z</time></trkpt><trkpt lat="40.4487155" lon="15.5438697"><ele>448.0</ele><time>2026-05-02T22:24:29.904Z</time></trkpt><trkpt lat="40.4486026" lon="15.5438767"><ele>448.00000000000006</ele><time>2026-05-02T22:25:27.904Z</time></trkpt><trkpt lat="40.4485069" lon="15.5439019"><ele>448.0</ele><time>2026-05-02T22:25:47.904Z</time></trkpt><trkpt lat="40.4485734" lon="15.5438741"><ele>448.0</ele><time>2026-05-02T22:31:30.904Z</time></trkpt><trkpt lat="40.4486456" lon="15.5438488"><ele>448.0</ele><time>2026-05-02T22:31:38.904Z</time></trkpt><trkpt lat="40.4487238" lon="15.5438526"><ele>448.00000000000006</ele><time>2026-05-02T22:33:04.903Z</time></trkpt><trkpt lat="40.4486459" lon="15.5438123"><ele>448.0</ele><time>2026-05-02T22:34:49.903Z</time></trkpt><trkpt lat="40.4485818" lon="15.5438182"><ele>448.00000000000006</ele><time>2026-05-02T22:36:29.905Z</time></trkpt><trkpt lat="40.4484566" lon="15.5437732"><ele>448.0</ele><time>2026-05-02T22:36:44.905Z</time></trkpt><trkpt lat="40.4485232" lon="15.5438202"><ele>448.0</ele><time>2026-05-02T22:38:35.904Z</time></trkpt><trkpt lat="40.4485771" lon="15.543874"><ele>448.0</ele><time>2026-05-02T22:38:40.905Z</time></trkpt><trkpt lat="40.4486578" lon="15.5439004"><ele>448.00000000000006</ele><time>2026-05-02T22:38:56.905Z</time></trkpt><trkpt lat="40.4486123" lon="15.5438273"><ele>448.0</ele><time>2026-05-02T22:39:31.905Z</time></trkpt><trkpt lat="40.4485052" lon="15.5438495"><ele>448.0</ele><time>2026-05-02T22:39:52.905Z</time></trkpt><trkpt lat="40.4485798" lon="15.5438622"><ele>448.0</ele><time>2026-05-02T22:40:10.905Z</time></trkpt><trkpt lat="40.4486241" lon="15.5438021"><ele>448.0</ele><time>2026-05-02T22:41:09.905Z</time></trkpt><trkpt lat="40.4486506" lon="15.5437257"><ele>448.0</ele><time>2026-05-02T22:41:47.904Z</time></trkpt><trkpt lat="40.4486142" lon="15.5436551"><ele>448.0</ele><time>2026-05-02T22:41:56.905Z</time></trkpt><trkpt lat="40.4486195" lon="15.5435551"><ele>448.0</ele><time>2026-05-02T22:42:06.905Z</time></trkpt><trkpt lat="40.4485188" lon="15.5435664"><ele>448.0</ele><time>2026-05-02T22:42:25.905Z</time></trkpt><trkpt lat="40.4484622" lon="15.543694"><ele>448.0</ele><time>2026-05-02T22:43:06.905Z</time></trkpt><trkpt lat="40.4484106" lon="15.5437482"><ele>447.99999999999994</ele><time>2026-05-02T22:43:09.904Z</time></trkpt><trkpt lat="40.4483395" lon="15.5437555"><ele>447.99999999999994</ele><time>2026-05-02T22:43:22.905Z</time></trkpt><trkpt lat="40.4482648" lon="15.5437493"><ele>448.0</ele><time>2026-05-02T22:43:28.905Z</time></trkpt><trkpt lat="40.4484379" lon="15.5437441"><ele>448.0</ele><time>2026-05-02T22:43:30.905Z</time></trkpt><trkpt lat="40.4483149" lon="15.5437066"><ele>448.00000000000006</ele><time>2026-05-02T22:43:31.905Z</time></trkpt><trkpt lat="40.4482124" lon="15.5436876"><ele>448.0</ele><time>2026-05-02T22:43:47.905Z</time></trkpt><trkpt lat="40.4482491" lon="15.5436165"><ele>448.0</ele><time>2026-05-02T22:45:49.905Z</time></trkpt><trkpt lat="40.4483078" lon="15.5435173"><ele>448.0</ele><time>2026-05-02T22:46:12.904Z</time></trkpt><trkpt lat="40.4483762" lon="15.5434949"><ele>448.00000000000006</ele><time>2026-05-02T22:46:17.905Z</time></trkpt><trkpt lat="40.4484412" lon="15.543493"><ele>448.0</ele><time>2026-05-02T22:46:26.905Z</time></trkpt><trkpt lat="40.4484049" lon="15.5433693"><ele>448.0</ele><time>2026-05-02T22:46:40.905Z</time></trkpt><trkpt lat="40.4485156" lon="15.5435016"><ele>448.0</ele><time>2026-05-02T22:46:48.905Z</time></trkpt><trkpt lat="40.4486192" lon="15.5436288"><ele>448.0</ele><time>2026-05-02T22:46:49.905Z</time></trkpt><trkpt lat="40.4486794" lon="15.5437015"><ele>448.0</ele><time>2026-05-02T22:46:50.905Z</time></trkpt><trkpt lat="40.4486125" lon="15.5436115"><ele>448.0</ele><time>2026-05-02T22:46:51.904Z</time></trkpt><trkpt lat="40.4485641" lon="15.543537"><ele>448.0</ele><time>2026-05-02T22:46:53.905Z</time></trkpt><trkpt lat="40.4485654" lon="15.5432884"><ele>448.0</ele><time>2026-05-02T22:47:39.905Z</time></trkpt><trkpt lat="40.4486346" lon="15.5433914"><ele>448.0</ele><time>2026-05-02T22:47:43.904Z</time></trkpt><trkpt lat="40.4487022" lon="15.5434528"><ele>448.00000000000006</ele><time>2026-05-02T22:47:45.904Z</time></trkpt><trkpt lat="40.4487523" lon="15.5433925"><ele>448.0</ele><time>2026-05-02T22:47:51.905Z</time></trkpt><trkpt lat="40.4488261" lon="15.5434137"><ele>448.0</ele><time>2026-05-02T22:47:59.904Z</time></trkpt><trkpt lat="40.4488475" lon="15.5434968"><ele>448.0</ele><time>2026-05-02T22:48:05.905Z</time></trkpt><trkpt lat="40.4488958" lon="15.5436326"><ele>448.00000000000006</ele><time>2026-05-02T22:48:08.905Z</time></trkpt><trkpt lat="40.4489578" lon="15.5437154"><ele>448.0</ele><time>2026-05-02T22:48:11.904Z</time></trkpt><trkpt lat="40.449016" lon="15.5437488"><ele>448.2</ele><time>2026-05-02T22:48:17.905Z</time></trkpt><trkpt lat="40.4490026" lon="15.543658"><ele>448.4</ele><time>2026-05-02T22:48:23.905Z</time></trkpt><trkpt lat="40.4488943" lon="15.5437113"><ele>448.59999999999997</ele><time>2026-05-02T22:48:28.905Z</time></trkpt><trkpt lat="40.4489999" lon="15.5437256"><ele>448.79999999999995</ele><time>2026-05-02T22:48:34.904Z</time></trkpt><trkpt lat="40.4490209" lon="15.5438178"><ele>449.0</ele><time>2026-05-02T22:48:42.904Z</time></trkpt><trkpt lat="40.4490126" lon="15.5439342"><ele>449.2857142857143</ele><time>2026-05-02T22:49:04.905Z</time></trkpt><trkpt lat="40.4489677" lon="15.5439941"><ele>449.57142857142856</ele><time>2026-05-02T22:49:17.905Z</time></trkpt><trkpt lat="40.4489234" lon="15.543909"><ele>449.85714285714283</ele><time>2026-05-02T22:49:37.905Z</time></trkpt><trkpt lat="40.4489679" lon="15.5438478"><ele>450.1428571428571</ele><time>2026-05-02T22:49:56.906Z</time></trkpt><trkpt lat="40.4490013" lon="15.5437759"><ele>450.42857142857144</ele><time>2026-05-02T22:50:00.906Z</time></trkpt><trkpt lat="40.4489276" lon="15.5437449"><ele>450.71428571428567</ele><time>2026-05-02T22:50:17.906Z</time></trkpt><trkpt lat="40.4488415" lon="15.5437712"><ele>451.0</ele><time>2026-05-02T22:50:19.887Z</time></trkpt><trkpt lat="40.4488269" lon="15.5438527"><ele>451.0</ele><time>2026-05-02T22:51:04.887Z</time></trkpt><trkpt lat="40.4489523" lon="15.5439914"><ele>451.0</ele><time>2026-05-02T22:51:06.887Z</time></trkpt><trkpt lat="40.448893" lon="15.5440279"><ele>451.0</ele><time>2026-05-02T22:51:10.887Z</time></trkpt><trkpt lat="40.4487555" lon="15.5440773"><ele>451.0</ele><time>2026-05-02T22:51:19.887Z</time></trkpt><trkpt lat="40.4486934" lon="15.5441448"><ele>450.4</ele><time>2026-05-02T22:51:27.887Z</time></trkpt><trkpt lat="40.4485262" lon="15.5440261"><ele>449.8</ele><time>2026-05-02T22:51:34.887Z</time></trkpt><trkpt lat="40.448486" lon="15.5439536"><ele>449.19999999999993</ele><time>2026-05-02T22:51:36.887Z</time></trkpt><trkpt lat="40.4484227" lon="15.5439239"><ele>448.59999999999997</ele><time>2026-05-02T22:51:47.887Z</time></trkpt><trkpt lat="40.4483487" lon="15.5439242"><ele>448.0</ele><time>2026-05-02T22:51:49.887Z</time></trkpt><trkpt lat="40.4482847" lon="15.543959"><ele>448.00000000000006</ele><time>2026-05-02T22:51:52.887Z</time></trkpt><trkpt lat="40.4483444" lon="15.543986"><ele>448.0</ele><time>2026-05-02T22:52:11.887Z</time></trkpt><trkpt lat="40.4484105" lon="15.543991"><ele>448.0</ele><time>2026-05-02T22:52:15.887Z</time></trkpt><trkpt lat="40.4483229" lon="15.5440107"><ele>448.0</ele><time>2026-05-02T22:52:29.886Z</time></trkpt><trkpt lat="40.4482475" lon="15.544048"><ele>448.00000000000006</ele><time>2026-05-02T22:52:35.887Z</time></trkpt><trkpt lat="40.4483142" lon="15.5440265"><ele>448.0</ele><time>2026-05-02T22:52:46.887Z</time></trkpt><trkpt lat="40.4484197" lon="15.5439182"><ele>448.0</ele><time>2026-05-02T22:52:54.887Z</time></trkpt><trkpt lat="40.4484887" lon="15.5438582"><ele>447.99999999999994</ele><time>2026-05-02T22:53:04.887Z</time></trkpt><trkpt lat="40.44843" lon="15.5438978"><ele>447.99999999999994</ele><time>2026-05-02T22:53:10.887Z</time></trkpt><trkpt lat="40.4485479" lon="15.5438386"><ele>448.0</ele><time>2026-05-02T22:53:37.887Z</time></trkpt><trkpt lat="40.4486646" lon="15.5438059"><ele>448.0</ele><time>2026-05-02T22:54:19.887Z</time></trkpt><trkpt lat="40.4487374" lon="15.5438123"><ele>448.00000000000006</ele><time>2026-05-02T22:54:25.887Z</time></trkpt><trkpt lat="40.4486398" lon="15.5438224"><ele>448.0</ele><time>2026-05-02T22:54:46.887Z</time></trkpt><trkpt lat="40.4487516" lon="15.5438278"><ele>448.0</ele><time>2026-05-02T22:55:51.886Z</time></trkpt><trkpt lat="40.4487143" lon="15.543746"><ele>448.0</ele><time>2026-05-02T22:56:43.887Z</time></trkpt><trkpt lat="40.4487058" lon="15.5436482"><ele>448.00000000000006</ele><time>2026-05-02T22:56:52.886Z</time></trkpt><trkpt lat="40.4487213" lon="15.543559"><ele>448.0</ele><time>2026-05-02T22:57:03.887Z</time></trkpt><trkpt lat="40.4487136" lon="15.5436453"><ele>448.0</ele><time>2026-05-02T22:57:22.887Z</time></trkpt><trkpt lat="40.448664" lon="15.5435098"><ele>447.99999999999994</ele><time>2026-05-02T22:57:27.887Z</time></trkpt><trkpt lat="40.448594" lon="15.5434743"><ele>447.99999999999994</ele><time>2026-05-02T22:57:30.887Z</time></trkpt><trkpt lat="40.4485314" lon="15.5434555"><ele>448.0</ele><time>2026-05-02T22:57:32.887Z</time></trkpt><trkpt lat="40.4486109" lon="15.5436006"><ele>448.0</ele><time>2026-05-02T22:57:34.887Z</time></trkpt><trkpt lat="40.4486479" lon="15.5436697"><ele>448.0</ele><time>2026-05-02T22:57:36.887Z</time></trkpt><trkpt lat="40.4485713" lon="15.5435694"><ele>447.99999999999994</ele><time>2026-05-02T22:57:40.886Z</time></trkpt><trkpt lat="40.4486483" lon="15.5436338"><ele>447.99999999999994</ele><time>2026-05-02T22:57:48.887Z</time></trkpt><trkpt lat="40.448526" lon="15.5435895"><ele>448.0</ele><time>2026-05-02T22:57:59.895Z</time></trkpt><trkpt lat="40.4484662" lon="15.5435423"><ele>448.0</ele><time>2026-05-02T22:58:00.887Z</time></trkpt><trkpt lat="40.4485194" lon="15.5435873"><ele>448.0</ele><time>2026-05-02T22:58:06.887Z</time></trkpt><trkpt lat="40.4486098" lon="15.5436561"><ele>447.99999999999994</ele><time>2026-05-02T22:58:08.887Z</time></trkpt><trkpt lat="40.4485287" lon="15.5438183"><ele>447.99999999999994</ele><time>2026-05-02T22:58:30.887Z</time></trkpt><trkpt lat="40.4485255" lon="15.5439331"><ele>448.0</ele><time>2026-05-02T22:58:40.887Z</time></trkpt><trkpt lat="40.4485939" lon="15.543865"><ele>448.0</ele><time>2026-05-02T22:58:52.886Z</time></trkpt><trkpt lat="40.4485247" lon="15.5438598"><ele>448.00000000000006</ele><time>2026-05-02T22:58:59.887Z</time></trkpt><trkpt lat="40.4485952" lon="15.5438467"><ele>448.0</ele><time>2026-05-02T22:59:06.887Z</time></trkpt><trkpt lat="40.4485848" lon="15.5437608"><ele>448.0</ele><time>2026-05-02T22:59:12.887Z</time></trkpt><trkpt lat="40.4484928" lon="15.5437291"><ele>448.0</ele><time>2026-05-02T22:59:14.886Z</time></trkpt><trkpt lat="40.4485871" lon="15.5437201"><ele>448.00000000000006</ele><time>2026-05-02T22:59:30.887Z</time></trkpt><trkpt lat="40.4486396" lon="15.5438112"><ele>448.0</ele><time>2026-05-02T23:00:06.887Z</time></trkpt><trkpt lat="40.4485673" lon="15.5437991"><ele>448.0</ele><time>2026-05-02T23:00:12.887Z</time></trkpt><trkpt lat="40.4486392" lon="15.5438245"><ele>448.0</ele><time>2026-05-02T23:00:49.886Z</time></trkpt><trkpt lat="40.4485885" lon="15.5438892"><ele>448.0</ele><time>2026-05-02T23:01:31.887Z</time></trkpt><trkpt lat="40.4486399" lon="15.5438414"><ele>448.0</ele><time>2026-05-02T23:02:48.887Z</time></trkpt><trkpt lat="40.4487052" lon="15.5438209"><ele>448.0</ele><time>2026-05-02T23:03:04.887Z</time></trkpt><trkpt lat="40.4486506" lon="15.543867"><ele>448.0</ele><time>2026-05-02T23:04:00.888Z</time></trkpt><trkpt lat="40.4485724" lon="15.5437858"><ele>448.0</ele><time>2026-05-02T23:07:28.888Z</time></trkpt><trkpt lat="40.4485096" lon="15.5437933"><ele>448.00000000000006</ele><time>2026-05-02T23:07:33.887Z</time></trkpt><trkpt lat="40.4484445" lon="15.5438219"><ele>448.0</ele><time>2026-05-02T23:08:28.887Z</time></trkpt><trkpt lat="40.4485139" lon="15.5437959"><ele>448.0</ele><time>2026-05-02T23:09:42.888Z</time></trkpt><trkpt lat="40.4486137" lon="15.5437881"><ele>448.0</ele><time>2026-05-02T23:11:17.888Z</time></trkpt><trkpt lat="40.4487185" lon="15.5437571"><ele>448.00000000000006</ele><time>2026-05-02T23:13:16.888Z</time></trkpt><trkpt lat="40.4486518" lon="15.543764"><ele>448.0</ele><time>2026-05-02T23:13:30.888Z</time></trkpt><trkpt lat="40.4485865" lon="15.5437651"><ele>448.00000000000006</ele><time>2026-05-02T23:13:38.887Z</time></trkpt><trkpt lat="40.4486405" lon="15.5438266"><ele>448.0</ele><time>2026-05-02T23:14:08.887Z</time></trkpt><trkpt lat="40.4487322" lon="15.543869"><ele>448.0</ele><time>2026-05-02T23:15:28.888Z</time></trkpt><trkpt lat="40.448672" lon="15.5438173"><ele>448.0</ele><time>2026-05-02T23:15:58.887Z</time></trkpt><trkpt lat="40.4486065" lon="15.5437663"><ele>448.00000000000006</ele><time>2026-05-02T23:16:01.888Z</time></trkpt><trkpt lat="40.4485185" lon="15.5437329"><ele>448.0</ele><time>2026-05-02T23:16:32.888Z</time></trkpt><trkpt lat="40.4485705" lon="15.5437959"><ele>448.0</ele><time>2026-05-02T23:16:35.888Z</time></trkpt><trkpt lat="40.4486381" lon="15.5438188"><ele>448.0</ele><time>2026-05-02T23:16:37.888Z</time></trkpt><trkpt lat="40.4487035" lon="15.5438596"><ele>448.0</ele><time>2026-05-02T23:18:19.889Z</time></trkpt><trkpt lat="40.448738" lon="15.5437848"><ele>448.0</ele><time>2026-05-02T23:18:37.888Z</time></trkpt><trkpt lat="40.4486921" lon="15.543848"><ele>448.0</ele><time>2026-05-02T23:19:24.889Z</time></trkpt><trkpt lat="40.4486117" lon="15.5438735"><ele>448.0</ele><time>2026-05-02T23:19:30.889Z</time></trkpt><trkpt lat="40.4485358" lon="15.5439063"><ele>448.0</ele><time>2026-05-02T23:19:37.889Z</time></trkpt><trkpt lat="40.4486276" lon="15.543921"><ele>448.00000000000006</ele><time>2026-05-02T23:20:03.889Z</time></trkpt><trkpt lat="40.4485463" lon="15.5439246"><ele>448.0</ele><time>2026-05-02T23:22:56.888Z</time></trkpt><trkpt lat="40.4486125" lon="15.5438978"><ele>448.0</ele><time>2026-05-02T23:24:58.889Z</time></trkpt><trkpt lat="40.4486739" lon="15.5438776"><ele>448.0</ele><time>2026-05-02T23:25:08.889Z</time></trkpt><trkpt lat="40.4485788" lon="15.5438425"><ele>448.00000000000006</ele><time>2026-05-02T23:26:48.889Z</time></trkpt><trkpt lat="40.4485302" lon="15.5439072"><ele>448.0</ele><time>2026-05-02T23:27:02.889Z</time></trkpt><trkpt lat="40.4486203" lon="15.5439553"><ele>448.00000000000006</ele><time>2026-05-02T23:27:12.889Z</time></trkpt><trkpt lat="40.4487001" lon="15.5439495"><ele>448.0</ele><time>2026-05-02T23:28:10.889Z</time></trkpt><trkpt lat="40.4487852" lon="15.5439116"><ele>448.0</ele><time>2026-05-02T23:28:26.888Z</time></trkpt><trkpt lat="40.448683" lon="15.5438877"><ele>448.0</ele><time>2026-05-02T23:28:36.889Z</time></trkpt><trkpt lat="40.4486196" lon="15.5438887"><ele>448.00000000000006</ele><time>2026-05-02T23:28:40.889Z</time></trkpt><trkpt lat="40.4485659" lon="15.5438094"><ele>448.0</ele><time>2026-05-02T23:29:04.888Z</time></trkpt><trkpt lat="40.4485559" lon="15.5439042"><ele>448.00000000000006</ele><time>2026-05-02T23:31:28.889Z</time></trkpt><trkpt lat="40.4484947" lon="15.5438471"><ele>448.0</ele><time>2026-05-02T23:31:48.889Z</time></trkpt><trkpt lat="40.448448" lon="15.5439058"><ele>448.0</ele><time>2026-05-02T23:31:55.888Z</time></trkpt><trkpt lat="40.4485338" lon="15.5437983"><ele>448.0</ele><time>2026-05-02T23:32:15.888Z</time></trkpt><trkpt lat="40.448605" lon="15.5436945"><ele>448.00000000000006</ele><time>2026-05-02T23:32:17.889Z</time></trkpt><trkpt lat="40.4485794" lon="15.5437744"><ele>448.0</ele><time>2026-05-02T23:32:48.89Z</time></trkpt><trkpt lat="40.4485531" lon="15.5438927"><ele>448.0</ele><time>2026-05-02T23:35:19.89Z</time></trkpt><trkpt lat="40.448543" lon="15.5437783"><ele>447.99999999999994</ele><time>2026-05-02T23:36:26.89Z</time></trkpt><trkpt lat="40.4484974" lon="15.5438771"><ele>447.99999999999994</ele><time>2026-05-02T23:36:57.89Z</time></trkpt><trkpt lat="40.4486229" lon="15.5438182"><ele>448.0</ele><time>2026-05-02T23:38:20.889Z</time></trkpt><trkpt lat="40.4486806" lon="15.5437565"><ele>448.0</ele><time>2026-05-02T23:39:44.889Z</time></trkpt><trkpt lat="40.4485325" lon="15.5437887"><ele>448.0</ele><time>2026-05-02T23:40:02.889Z</time></trkpt><trkpt lat="40.4486317" lon="15.5438597"><ele>447.99999999999994</ele><time>2026-05-02T23:40:21.89Z</time></trkpt><trkpt lat="40.4485997" lon="15.5437586"><ele>447.99999999999994</ele><time>2026-05-02T23:41:11.89Z</time></trkpt><trkpt lat="40.4485082" lon="15.5437722"><ele>448.0</ele><time>2026-05-02T23:41:57.89Z</time></trkpt><trkpt lat="40.4484124" lon="15.5438633"><ele>448.0</ele><time>2026-05-02T23:42:12.89Z</time></trkpt><trkpt lat="40.4483423" lon="15.5439059"><ele>448.0</ele><time>2026-05-02T23:42:16.89Z</time></trkpt><trkpt lat="40.4484005" lon="15.5439455"><ele>448.0</ele><time>2026-05-02T23:43:54.889Z</time></trkpt><trkpt lat="40.4484275" lon="15.544034"><ele>448.0</ele><time>2026-05-02T23:43:59.89Z</time></trkpt><trkpt lat="40.4484687" lon="15.544112"><ele>448.0</ele><time>2026-05-02T23:44:03.89Z</time></trkpt><trkpt lat="40.448522" lon="15.5440386"><ele>448.0</ele><time>2026-05-02T23:44:15.89Z</time></trkpt><trkpt lat="40.4485337" lon="15.5439522"><ele>448.0</ele><time>2026-05-02T23:44:17.89Z</time></trkpt><trkpt lat="40.4485343" lon="15.5438597"><ele>448.0</ele><time>2026-05-02T23:44:19.89Z</time></trkpt><trkpt lat="40.4485296" lon="15.5437745"><ele>448.00000000000006</ele><time>2026-05-02T23:44:22.89Z</time></trkpt><trkpt lat="40.4484397" lon="15.5438082"><ele>448.0</ele><time>2026-05-02T23:44:54.89Z</time></trkpt><trkpt lat="40.4484399" lon="15.5439043"><ele>448.0</ele><time>2026-05-02T23:45:00.889Z</time></trkpt><trkpt lat="40.4484206" lon="15.5439952"><ele>448.0</ele><time>2026-05-02T23:45:10.89Z</time></trkpt><trkpt lat="40.4484802" lon="15.5439117"><ele>448.00000000000006</ele><time>2026-05-02T23:46:06.89Z</time></trkpt><trkpt lat="40.4484258" lon="15.5439542"><ele>448.0</ele><time>2026-05-02T23:46:55.891Z</time></trkpt><trkpt lat="40.4484883" lon="15.5439275"><ele>448.00000000000006</ele><time>2026-05-02T23:47:16.891Z</time></trkpt><trkpt lat="40.4484277" lon="15.5439652"><ele>448.0</ele><time>2026-05-02T23:48:17.891Z</time></trkpt><trkpt lat="40.4483993" lon="15.5440625"><ele>448.0</ele><time>2026-05-02T23:48:36.891Z</time></trkpt><trkpt lat="40.4484764" lon="15.5440172"><ele>448.0</ele><time>2026-05-02T23:48:58.891Z</time></trkpt><trkpt lat="40.4485609" lon="15.5440346"><ele>448.00000000000006</ele><time>2026-05-02T23:49:22.891Z</time></trkpt><trkpt lat="40.4484815" lon="15.5439623"><ele>448.0</ele><time>2026-05-02T23:49:46.891Z</time></trkpt><trkpt lat="40.4483467" lon="15.5439429"><ele>448.0</ele><time>2026-05-02T23:50:05.891Z</time></trkpt><trkpt lat="40.4482899" lon="15.5438927"><ele>448.0</ele><time>2026-05-02T23:50:33.891Z</time></trkpt><trkpt lat="40.4482015" lon="15.5439016"><ele>448.0</ele><time>2026-05-02T23:50:44.891Z</time></trkpt><trkpt lat="40.4483427" lon="15.5438646"><ele>448.0</ele><time>2026-05-02T23:50:49.891Z</time></trkpt><trkpt lat="40.4485625" lon="15.5438182"><ele>448.0</ele><time>2026-05-02T23:50:52.887Z</time></trkpt><trkpt lat="40.4482281" lon="15.5439575"><ele>448.0</ele><time>2026-05-02T23:50:53.887Z</time></trkpt><trkpt lat="40.4483834" lon="15.5438922"><ele>448.0</ele><time>2026-05-02T23:50:54.887Z</time></trkpt><trkpt lat="40.448522" lon="15.5438386"><ele>448.0</ele><time>2026-05-02T23:50:55.887Z</time></trkpt><trkpt lat="40.4486073" lon="15.5438018"><ele>448.0</ele><time>2026-05-02T23:50:56.886Z</time></trkpt><trkpt lat="40.4486891" lon="15.5437684"><ele>448.0</ele><time>2026-05-02T23:50:58.887Z</time></trkpt><trkpt lat="40.4483117" lon="15.5439084"><ele>448.0</ele><time>2026-05-02T23:51:02.887Z</time></trkpt><trkpt lat="40.4482425" lon="15.5439201"><ele>447.99999999999994</ele><time>2026-05-02T23:51:33.887Z</time></trkpt><trkpt lat="40.4483414" lon="15.5438267"><ele>447.99999999999994</ele><time>2026-05-02T23:51:57.887Z</time></trkpt><trkpt lat="40.4484681" lon="15.5439241"><ele>448.0</ele><time>2026-05-02T23:52:23.887Z</time></trkpt><trkpt lat="40.4485296" lon="15.5439528"><ele>448.0</ele><time>2026-05-02T23:52:29.887Z</time></trkpt><trkpt lat="40.4484696" lon="15.5439161"><ele>448.0</ele><time>2026-05-02T23:53:00.887Z</time></trkpt><trkpt lat="40.4485497" lon="15.5438734"><ele>447.99999999999994</ele><time>2026-05-02T23:53:15.887Z</time></trkpt><trkpt lat="40.4485037" lon="15.5437954"><ele>447.99999999999994</ele><time>2026-05-02T23:54:05.887Z</time></trkpt><trkpt lat="40.4485625" lon="15.5438264"><ele>448.0</ele><time>2026-05-02T23:55:16.886Z</time></trkpt><trkpt lat="40.4486827" lon="15.543839"><ele>448.0</ele><time>2026-05-02T23:56:28.887Z</time></trkpt><trkpt lat="40.4485506" lon="15.5438797"><ele>448.0</ele><time>2026-05-02T23:57:59.887Z</time></trkpt><trkpt lat="40.4484881" lon="15.5438903"><ele>447.99999999999994</ele><time>2026-05-02T23:58:08.887Z</time></trkpt><trkpt lat="40.4485513" lon="15.5439739"><ele>447.99999999999994</ele><time>2026-05-02T23:59:01.887Z</time></trkpt><trkpt lat="40.448685" lon="15.544026"><ele>448.0</ele><time>2026-05-02T23:59:27.887Z</time></trkpt><trkpt lat="40.4487422" lon="15.5439823"><ele>448.0</ele><time>2026-05-02T23:59:38.887Z</time></trkpt><trkpt lat="40.448835" lon="15.543882"><ele>448.00000000000006</ele><time>2026-05-02T23:59:46.887Z</time></trkpt><trkpt lat="40.4488928" lon="15.5439229"><ele>448.0</ele><time>2026-05-03T00:00:24.887Z</time></trkpt><trkpt lat="40.4488185" lon="15.5439437"><ele>448.0</ele><time>2026-05-03T00:00:36.886Z</time></trkpt><trkpt lat="40.4487827" lon="15.5438639"><ele>448.0</ele><time>2026-05-03T00:00:41.886Z</time></trkpt><trkpt lat="40.448746" lon="15.5437744"><ele>448.00000000000006</ele><time>2026-05-03T00:01:30.887Z</time></trkpt><trkpt lat="40.4488135" lon="15.5436411"><ele>448.0</ele><time>2026-05-03T00:01:40.888Z</time></trkpt><trkpt lat="40.4487253" lon="15.5436725"><ele>448.00000000000006</ele><time>2026-05-03T00:01:52.888Z</time></trkpt><trkpt lat="40.4486523" lon="15.5436886"><ele>448.0</ele><time>2026-05-03T00:01:59.888Z</time></trkpt><trkpt lat="40.4485689" lon="15.5437357"><ele>448.0</ele><time>2026-05-03T00:02:03.887Z</time></trkpt><trkpt lat="40.4486249" lon="15.5437756"><ele>448.0</ele><time>2026-05-03T00:02:14.888Z</time></trkpt><trkpt lat="40.4486951" lon="15.5437835"><ele>448.00000000000006</ele><time>2026-05-03T00:02:19.888Z</time></trkpt><trkpt lat="40.4486215" lon="15.5438251"><ele>448.0</ele><time>2026-05-03T00:02:37.887Z</time></trkpt><trkpt lat="40.4485079" lon="15.5438516"><ele>448.00000000000006</ele><time>2026-05-03T00:02:46.888Z</time></trkpt><trkpt lat="40.4485962" lon="15.5438504"><ele>448.0</ele><time>2026-05-03T00:02:59.888Z</time></trkpt><trkpt lat="40.448665" lon="15.54384"><ele>448.0</ele><time>2026-05-03T00:03:44.888Z</time></trkpt><trkpt lat="40.4487297" lon="15.5437688"><ele>448.0</ele><time>2026-05-03T00:03:45.888Z</time></trkpt><trkpt lat="40.4486873" lon="15.5437073"><ele>448.00000000000006</ele><time>2026-05-03T00:04:08.887Z</time></trkpt><trkpt lat="40.4487611" lon="15.543657"><ele>448.0</ele><time>2026-05-03T00:05:24.888Z</time></trkpt><trkpt lat="40.448687" lon="15.5437054"><ele>448.0</ele><time>2026-05-03T00:05:39.887Z</time></trkpt><trkpt lat="40.4487247" lon="15.5437756"><ele>448.0</ele><time>2026-05-03T00:05:53.887Z</time></trkpt><trkpt lat="40.448658" lon="15.5437953"><ele>448.0</ele><time>2026-05-03T00:06:08.888Z</time></trkpt><trkpt lat="40.4485969" lon="15.5438858"><ele>448.0</ele><time>2026-05-03T00:08:48.888Z</time></trkpt><trkpt lat="40.4486312" lon="15.5439651"><ele>448.0</ele><time>2026-05-03T00:09:21.887Z</time></trkpt><trkpt lat="40.4486474" lon="15.5438783"><ele>448.0</ele><time>2026-05-03T00:09:35.888Z</time></trkpt><trkpt lat="40.4485674" lon="15.5438702"><ele>448.0</ele><time>2026-05-03T00:09:49.888Z</time></trkpt><trkpt lat="40.448633" lon="15.5438262"><ele>448.00000000000006</ele><time>2026-05-03T00:10:05.888Z</time></trkpt><trkpt lat="40.4486973" lon="15.5437734"><ele>448.0</ele><time>2026-05-03T00:10:07.888Z</time></trkpt><trkpt lat="40.448753" lon="15.5437193"><ele>448.0</ele><time>2026-05-03T00:10:10.887Z</time></trkpt><trkpt lat="40.4488352" lon="15.5436836"><ele>448.0</ele><time>2026-05-03T00:10:15.887Z</time></trkpt><trkpt lat="40.4487782" lon="15.5437263"><ele>448.00000000000006</ele><time>2026-05-03T00:11:01.888Z</time></trkpt><trkpt lat="40.4487077" lon="15.5438112"><ele>448.0</ele><time>2026-05-03T00:12:02.888Z</time></trkpt><trkpt lat="40.4486248" lon="15.5437971"><ele>448.0</ele><time>2026-05-03T00:13:17.887Z</time></trkpt><trkpt lat="40.4486839" lon="15.543716"><ele>447.99999999999994</ele><time>2026-05-03T00:14:36.888Z</time></trkpt><trkpt lat="40.4485933" lon="15.5436837"><ele>447.99999999999994</ele><time>2026-05-03T00:16:16.888Z</time></trkpt><trkpt lat="40.4485498" lon="15.5438214"><ele>448.0</ele><time>2026-05-03T00:16:29.889Z</time></trkpt><trkpt lat="40.4486274" lon="15.5438832"><ele>448.0</ele><time>2026-05-03T00:16:49.889Z</time></trkpt><trkpt lat="40.4487379" lon="15.5438523"><ele>448.00000000000006</ele><time>2026-05-03T00:17:01.889Z</time></trkpt><trkpt lat="40.4486813" lon="15.5438911"><ele>448.0</ele><time>2026-05-03T00:17:16.889Z</time></trkpt><trkpt lat="40.4485795" lon="15.5438576"><ele>448.0</ele><time>2026-05-03T00:18:01.889Z</time></trkpt><trkpt lat="40.4486673" lon="15.5438247"><ele>448.0</ele><time>2026-05-03T00:18:22.888Z</time></trkpt><trkpt lat="40.4487659" lon="15.5438056"><ele>448.00000000000006</ele><time>2026-05-03T00:19:18.889Z</time></trkpt><trkpt lat="40.4486992" lon="15.5437997"><ele>448.0</ele><time>2026-05-03T00:19:48.889Z</time></trkpt><trkpt lat="40.4488364" lon="15.5437646"><ele>448.00000000000006</ele><time>2026-05-03T00:20:23.888Z</time></trkpt><trkpt lat="40.4488946" lon="15.5437295"><ele>448.0</ele><time>2026-05-03T00:20:28.889Z</time></trkpt><trkpt lat="40.4489516" lon="15.5437683"><ele>448.0</ele><time>2026-05-03T00:20:37.889Z</time></trkpt><trkpt lat="40.4488242" lon="15.5437786"><ele>448.0</ele><time>2026-05-03T00:20:56.889Z</time></trkpt><trkpt lat="40.4487477" lon="15.5437945"><ele>448.00000000000006</ele><time>2026-05-03T00:20:58.889Z</time></trkpt><trkpt lat="40.4486681" lon="15.5438126"><ele>448.0</ele><time>2026-05-03T00:21:00.889Z</time></trkpt><trkpt lat="40.4486074" lon="15.5438454"><ele>448.00000000000006</ele><time>2026-05-03T00:21:03.888Z</time></trkpt><trkpt lat="40.4486977" lon="15.5438091"><ele>448.0</ele><time>2026-05-03T00:21:32.889Z</time></trkpt><trkpt lat="40.4486353" lon="15.5438261"><ele>448.0</ele><time>2026-05-03T00:22:53.889Z</time></trkpt><trkpt lat="40.4485552" lon="15.5438277"><ele>448.0</ele><time>2026-05-03T00:23:29.888Z</time></trkpt><trkpt lat="40.448458" lon="15.5437903"><ele>448.00000000000006</ele><time>2026-05-03T00:24:16.889Z</time></trkpt><trkpt lat="40.4485635" lon="15.5438237"><ele>448.0</ele><time>2026-05-03T00:24:40.889Z</time></trkpt><trkpt lat="40.4486606" lon="15.543838"><ele>448.00000000000006</ele><time>2026-05-03T00:24:42.888Z</time></trkpt><trkpt lat="40.4487396" lon="15.5438198"><ele>448.0</ele><time>2026-05-03T00:24:44.888Z</time></trkpt><trkpt lat="40.4488075" lon="15.5438028"><ele>448.0</ele><time>2026-05-03T00:24:46.889Z</time></trkpt><trkpt lat="40.4488687" lon="15.5438346"><ele>448.0</ele><time>2026-05-03T00:24:51.889Z</time></trkpt><trkpt lat="40.4487932" lon="15.5438115"><ele>448.00000000000006</ele><time>2026-05-03T00:25:12.889Z</time></trkpt><trkpt lat="40.4486677" lon="15.5438333"><ele>448.0</ele><time>2026-05-03T00:25:26.889Z</time></trkpt><trkpt lat="40.4486048" lon="15.5438502"><ele>448.00000000000006</ele><time>2026-05-03T00:25:29.889Z</time></trkpt><trkpt lat="40.4486681" lon="15.5438617"><ele>448.0</ele><time>2026-05-03T00:25:58.889Z</time></trkpt><trkpt lat="40.4487196" lon="15.5439124"><ele>448.0</ele><time>2026-05-03T00:26:31.889Z</time></trkpt><trkpt lat="40.4488239" lon="15.543894"><ele>448.0</ele><time>2026-05-03T00:26:36.888Z</time></trkpt><trkpt lat="40.44889" lon="15.5438875"><ele>448.00000000000006</ele><time>2026-05-03T00:26:40.888Z</time></trkpt><trkpt lat="40.4487841" lon="15.5439167"><ele>448.0</ele><time>2026-05-03T00:27:10.889Z</time></trkpt><trkpt lat="40.4486817" lon="15.5439234"><ele>448.0</ele><time>2026-05-03T00:27:43.889Z</time></trkpt><trkpt lat="40.4486124" lon="15.5439483"><ele>447.99999999999994</ele><time>2026-05-03T00:27:46.889Z</time></trkpt><trkpt lat="40.4486866" lon="15.543936"><ele>447.99999999999994</ele><time>2026-05-03T00:27:50.889Z</time></trkpt><trkpt lat="40.4487972" lon="15.5439215"><ele>448.0</ele><time>2026-05-03T00:27:54.889Z</time></trkpt><trkpt lat="40.4488704" lon="15.5438933"><ele>448.0</ele><time>2026-05-03T00:27:55.889Z</time></trkpt><trkpt lat="40.4487509" lon="15.5438746"><ele>448.00000000000006</ele><time>2026-05-03T00:28:17.888Z</time></trkpt><trkpt lat="40.4486776" lon="15.5439259"><ele>448.0</ele><time>2026-05-03T00:30:14.889Z</time></trkpt><trkpt lat="40.4486035" lon="15.543993"><ele>448.0</ele><time>2026-05-03T00:30:45.89Z</time></trkpt><trkpt lat="40.4486491" lon="15.5438903"><ele>448.0</ele><time>2026-05-03T00:30:57.89Z</time></trkpt><trkpt lat="40.4487073" lon="15.5438296"><ele>448.00000000000006</ele><time>2026-05-03T00:30:59.89Z</time></trkpt><trkpt lat="40.448783" lon="15.5438082"><ele>448.0</ele><time>2026-05-03T00:31:01.889Z</time></trkpt><trkpt lat="40.4488486" lon="15.5438008"><ele>448.00000000000006</ele><time>2026-05-03T00:31:07.889Z</time></trkpt><trkpt lat="40.448908" lon="15.5437662"><ele>448.0</ele><time>2026-05-03T00:31:16.89Z</time></trkpt><trkpt lat="40.4487993" lon="15.5437534"><ele>448.0</ele><time>2026-05-03T00:31:39.89Z</time></trkpt><trkpt lat="40.4487366" lon="15.5437741"><ele>448.0</ele><time>2026-05-03T00:31:43.89Z</time></trkpt><trkpt lat="40.4487275" lon="15.543861"><ele>448.00000000000006</ele><time>2026-05-03T00:32:37.89Z</time></trkpt><trkpt lat="40.4486614" lon="15.5438047"><ele>448.0</ele><time>2026-05-03T00:32:55.89Z</time></trkpt><trkpt lat="40.4486322" lon="15.5437063"><ele>448.00000000000006</ele><time>2026-05-03T00:32:59.89Z</time></trkpt><trkpt lat="40.4485761" lon="15.5437736"><ele>448.0</ele><time>2026-05-03T00:34:03.89Z</time></trkpt><trkpt lat="40.4485118" lon="15.543786"><ele>448.0</ele><time>2026-05-03T00:34:12.89Z</time></trkpt><trkpt lat="40.4484488" lon="15.5438469"><ele>448.0</ele><time>2026-05-03T00:34:19.89Z</time></trkpt><trkpt lat="40.4484656" lon="15.5439538"><ele>448.00000000000006</ele><time>2026-05-03T00:34:23.889Z</time></trkpt><trkpt lat="40.4484578" lon="15.5440579"><ele>448.0</ele><time>2026-05-03T00:34:27.89Z</time></trkpt><trkpt lat="40.4485129" lon="15.5439683"><ele>448.00000000000006</ele><time>2026-05-03T00:35:52.89Z</time></trkpt><trkpt lat="40.4486251" lon="15.5438962"><ele>448.0</ele><time>2026-05-03T00:36:07.889Z</time></trkpt><trkpt lat="40.4486499" lon="15.5438178"><ele>448.0</ele><time>2026-05-03T00:36:54.889Z</time></trkpt><trkpt lat="40.4487219" lon="15.5438269"><ele>448.0</ele><time>2026-05-03T00:37:10.89Z</time></trkpt><trkpt lat="40.4488031" lon="15.5438161"><ele>448.00000000000006</ele><time>2026-05-03T00:37:22.889Z</time></trkpt><trkpt lat="40.4487966" lon="15.5437288"><ele>448.0</ele><time>2026-05-03T00:37:46.89Z</time></trkpt><trkpt lat="40.4487106" lon="15.5437247"><ele>448.00000000000006</ele><time>2026-05-03T00:37:59.89Z</time></trkpt><trkpt lat="40.4486451" lon="15.5437368"><ele>448.0</ele><time>2026-05-03T00:38:04.889Z</time></trkpt><trkpt lat="40.4485394" lon="15.5437667"><ele>448.0</ele><time>2026-05-03T00:38:08.89Z</time></trkpt><trkpt lat="40.4484704" lon="15.5437894"><ele>448.0</ele><time>2026-05-03T00:38:10.89Z</time></trkpt><trkpt lat="40.4484019" lon="15.5437983"><ele>448.00000000000006</ele><time>2026-05-03T00:38:14.889Z</time></trkpt><trkpt lat="40.4483253" lon="15.5438067"><ele>448.0</ele><time>2026-05-03T00:38:19.89Z</time></trkpt><trkpt lat="40.4482575" lon="15.5437992"><ele>448.0</ele><time>2026-05-03T00:38:23.889Z</time></trkpt><trkpt lat="40.448185" lon="15.543791"><ele>447.99999999999994</ele><time>2026-05-03T00:38:26.889Z</time></trkpt><trkpt lat="40.4483188" lon="15.5438129"><ele>447.99999999999994</ele><time>2026-05-03T00:38:47.89Z</time></trkpt><trkpt lat="40.4483848" lon="15.5438377"><ele>448.0</ele><time>2026-05-03T00:38:51.89Z</time></trkpt><trkpt lat="40.4485321" lon="15.5438256"><ele>448.0</ele><time>2026-05-03T00:39:45.89Z</time></trkpt><trkpt lat="40.4485985" lon="15.5438055"><ele>448.00000000000006</ele><time>2026-05-03T00:40:37.89Z</time></trkpt><trkpt lat="40.4485032" lon="15.5438028"><ele>448.0</ele><time>2026-05-03T00:40:55.89Z</time></trkpt><trkpt lat="40.4484312" lon="15.543808"><ele>448.0</ele><time>2026-05-03T00:41:01.889Z</time></trkpt><trkpt lat="40.4483637" lon="15.5437959"><ele>448.0</ele><time>2026-05-03T00:41:06.89Z</time></trkpt><trkpt lat="40.4484366" lon="15.5438566"><ele>448.00000000000006</ele><time>2026-05-03T00:41:22.89Z</time></trkpt><trkpt lat="40.4485022" lon="15.5438449"><ele>448.0</ele><time>2026-05-03T00:41:24.89Z</time></trkpt><trkpt lat="40.4486085" lon="15.5438223"><ele>448.00000000000006</ele><time>2026-05-03T00:42:13.89Z</time></trkpt><trkpt lat="40.4486829" lon="15.5438219"><ele>448.0</ele><time>2026-05-03T00:42:15.89Z</time></trkpt><trkpt lat="40.4487492" lon="15.5437829"><ele>448.0</ele><time>2026-05-03T00:42:23.89Z</time></trkpt><trkpt lat="40.4488182" lon="15.5437882"><ele>448.0</ele><time>2026-05-03T00:42:27.89Z</time></trkpt><trkpt lat="40.4487373" lon="15.5438197"><ele>448.00000000000006</ele><time>2026-05-03T00:43:01.89Z</time></trkpt><trkpt lat="40.4488402" lon="15.5437687"><ele>448.0</ele><time>2026-05-03T00:43:15.889Z</time></trkpt><trkpt lat="40.4489325" lon="15.5437211"><ele>448.1666666666667</ele><time>2026-05-03T00:43:16.89Z</time></trkpt><trkpt lat="40.4490007" lon="15.5436935"><ele>448.33333333333337</ele><time>2026-05-03T00:43:18.89Z</time></trkpt><trkpt lat="40.4490756" lon="15.5436692"><ele>448.5</ele><time>2026-05-03T00:43:20.889Z</time></trkpt><trkpt lat="40.4491519" lon="15.5436272"><ele>448.66666666666663</ele><time>2026-05-03T00:43:23.889Z</time></trkpt><trkpt lat="40.4492013" lon="15.5435734"><ele>448.8333333333333</ele><time>2026-05-03T00:43:28.89Z</time></trkpt><trkpt lat="40.4491345" lon="15.5435925"><ele>449.0</ele><time>2026-05-03T00:43:41.89Z</time></trkpt><trkpt lat="40.4490547" lon="15.543675"><ele>449.0</ele><time>2026-05-03T00:43:46.89Z</time></trkpt><trkpt lat="40.448974" lon="15.5437004"><ele>448.99999999999994</ele><time>2026-05-03T00:43:58.89Z</time></trkpt><trkpt lat="40.4488946" lon="15.5436847"><ele>449.0</ele><time>2026-05-03T00:44:00.89Z</time></trkpt><trkpt lat="40.4488233" lon="15.5436965"><ele>449.0</ele><time>2026-05-03T00:44:08.89Z</time></trkpt><trkpt lat="40.4487621" lon="15.5437178"><ele>448.99999999999994</ele><time>2026-05-03T00:44:13.89Z</time></trkpt><trkpt lat="40.448697" lon="15.5437414"><ele>449.0</ele><time>2026-05-03T00:44:24.89Z</time></trkpt><trkpt lat="40.4486225" lon="15.5437744"><ele>449.0</ele><time>2026-05-03T00:44:33.89Z</time></trkpt><trkpt lat="40.4485421" lon="15.5437897"><ele>448.79999999999995</ele><time>2026-05-03T00:44:35.889Z</time></trkpt><trkpt lat="40.4484821" lon="15.5438267"><ele>448.59999999999997</ele><time>2026-05-03T00:44:42.89Z</time></trkpt><trkpt lat="40.4486255" lon="15.5438031"><ele>448.4</ele><time>2026-05-03T00:44:50.889Z</time></trkpt><trkpt lat="40.4485511" lon="15.5438238"><ele>448.2</ele><time>2026-05-03T00:45:02.89Z</time></trkpt><trkpt lat="40.4484779" lon="15.5438366"><ele>448.0</ele><time>2026-05-03T00:45:05.89Z</time></trkpt><trkpt lat="40.4486852" lon="15.543797"><ele>448.0</ele><time>2026-05-03T00:45:16.891Z</time></trkpt><trkpt lat="40.4485949" lon="15.5438529"><ele>447.99999999999994</ele><time>2026-05-03T00:46:07.891Z</time></trkpt><trkpt lat="40.4485179" lon="15.543867"><ele>447.99999999999994</ele><time>2026-05-03T00:46:10.891Z</time></trkpt><trkpt lat="40.4484529" lon="15.543877"><ele>448.0</ele><time>2026-05-03T00:47:25.891Z</time></trkpt><trkpt lat="40.4485119" lon="15.5439072"><ele>448.0</ele><time>2026-05-03T00:48:01.891Z</time></trkpt><trkpt lat="40.448371" lon="15.5440253"><ele>448.00000000000006</ele><time>2026-05-03T00:48:04.891Z</time></trkpt><trkpt lat="40.4484556" lon="15.5439538"><ele>448.0</ele><time>2026-05-03T00:48:31.891Z</time></trkpt><trkpt lat="40.4485146" lon="15.5439043"><ele>448.0</ele><time>2026-05-03T00:48:32.891Z</time></trkpt><trkpt lat="40.4485754" lon="15.5438593"><ele>448.0</ele><time>2026-05-03T00:49:08.891Z</time></trkpt><trkpt lat="40.4486376" lon="15.5438269"><ele>448.00000000000006</ele><time>2026-05-03T00:49:16.891Z</time></trkpt><trkpt lat="40.448706" lon="15.5437919"><ele>448.0</ele><time>2026-05-03T00:49:27.891Z</time></trkpt><trkpt lat="40.4487765" lon="15.5437865"><ele>448.0</ele><time>2026-05-03T00:49:39.891Z</time></trkpt><trkpt lat="40.4487116" lon="15.5438426"><ele>447.99999999999994</ele><time>2026-05-03T00:50:12.889Z</time></trkpt><trkpt lat="40.4485717" lon="15.5438728"><ele>447.99999999999994</ele><time>2026-05-03T00:50:17.889Z</time></trkpt><trkpt lat="40.4484942" lon="15.5438962"><ele>448.0</ele><time>2026-05-03T00:50:37.888Z</time></trkpt><trkpt lat="40.4485574" lon="15.54387"><ele>448.0</ele><time>2026-05-03T00:51:01.889Z</time></trkpt><trkpt lat="40.448663" lon="15.5438403"><ele>448.0</ele><time>2026-05-03T00:51:40.888Z</time></trkpt><trkpt lat="40.4487753" lon="15.5437656"><ele>447.99999999999994</ele><time>2026-05-03T00:52:07.889Z</time></trkpt><trkpt lat="40.4488621" lon="15.5437252"><ele>447.99999999999994</ele><time>2026-05-03T00:52:11.889Z</time></trkpt><trkpt lat="40.4487891" lon="15.5437725"><ele>448.0</ele><time>2026-05-03T00:52:38.889Z</time></trkpt><trkpt lat="40.4486949" lon="15.5438053"><ele>448.0</ele><time>2026-05-03T00:52:40.888Z</time></trkpt><trkpt lat="40.4485765" lon="15.5438495"><ele>448.0</ele><time>2026-05-03T00:53:10.889Z</time></trkpt><trkpt lat="40.4486611" lon="15.5438547"><ele>447.99999999999994</ele><time>2026-05-03T00:54:42.889Z</time></trkpt><trkpt lat="40.4485916" lon="15.5438662"><ele>447.99999999999994</ele><time>2026-05-03T00:55:00.889Z</time></trkpt><trkpt lat="40.4486601" lon="15.543797"><ele>448.0</ele><time>2026-05-03T00:55:08.889Z</time></trkpt><trkpt lat="40.448476" lon="15.5438593"><ele>448.0</ele><time>2026-05-03T00:55:17.886Z</time></trkpt><trkpt lat="40.4485626" lon="15.5438188"><ele>448.0</ele><time>2026-05-03T00:55:19.886Z</time></trkpt><trkpt lat="40.4486474" lon="15.5437866"><ele>448.0</ele><time>2026-05-03T00:55:20.885Z</time></trkpt><trkpt lat="40.4485808" lon="15.5438112"><ele>448.0</ele><time>2026-05-03T00:55:25.885Z</time></trkpt><trkpt lat="40.4483589" lon="15.5439058"><ele>448.0</ele><time>2026-05-03T00:55:28.886Z</time></trkpt><trkpt lat="40.4484714" lon="15.5438495"><ele>448.0</ele><time>2026-05-03T00:55:31.886Z</time></trkpt><trkpt lat="40.4485266" lon="15.5438073"><ele>448.0</ele><time>2026-05-03T00:55:34.886Z</time></trkpt><trkpt lat="40.4482383" lon="15.5438287"><ele>448.0</ele><time>2026-05-03T00:55:45.886Z</time></trkpt><trkpt lat="40.4481532" lon="15.5438261"><ele>448.0</ele><time>2026-05-03T00:55:46.886Z</time></trkpt><trkpt lat="40.448296" lon="15.5438147"><ele>448.00000000000006</ele><time>2026-05-03T00:55:48.885Z</time></trkpt><trkpt lat="40.4483898" lon="15.5438136"><ele>448.0</ele><time>2026-05-03T00:55:49.885Z</time></trkpt><trkpt lat="40.448477" lon="15.5438072"><ele>448.0</ele><time>2026-05-03T00:56:01.886Z</time></trkpt><trkpt lat="40.4485727" lon="15.543783"><ele>448.0</ele><time>2026-05-03T00:56:02.885Z</time></trkpt><trkpt lat="40.4486391" lon="15.5437664"><ele>448.00000000000006</ele><time>2026-05-03T00:56:03.885Z</time></trkpt><trkpt lat="40.4487062" lon="15.54375"><ele>448.0</ele><time>2026-05-03T00:56:05.885Z</time></trkpt><trkpt lat="40.4485911" lon="15.5437696"><ele>448.00000000000006</ele><time>2026-05-03T00:56:06.886Z</time></trkpt><trkpt lat="40.4486814" lon="15.5437867"><ele>448.0</ele><time>2026-05-03T00:56:14.886Z</time></trkpt><trkpt lat="40.4486155" lon="15.543812"><ele>448.0</ele><time>2026-05-03T00:56:32.886Z</time></trkpt><trkpt lat="40.4487063" lon="15.5437473"><ele>448.0</ele><time>2026-05-03T00:56:46.151Z</time></trkpt><trkpt lat="40.4487782" lon="15.5437985"><ele>448.00000000000006</ele><time>2026-05-03T00:57:06.887Z</time></trkpt><trkpt lat="40.4488686" lon="15.5438222"><ele>448.0</ele><time>2026-05-03T00:57:39.887Z</time></trkpt><trkpt lat="40.4489505" lon="15.5438239"><ele>448.00000000000006</ele><time>2026-05-03T00:58:19.886Z</time></trkpt><trkpt lat="40.4488911" lon="15.5437839"><ele>448.0</ele><time>2026-05-03T00:58:49.886Z</time></trkpt><trkpt lat="40.448812" lon="15.5438238"><ele>448.0</ele><time>2026-05-03T00:58:54.886Z</time></trkpt><trkpt lat="40.4487317" lon="15.543863"><ele>448.0</ele><time>2026-05-03T00:58:58.887Z</time></trkpt><trkpt lat="40.4486701" lon="15.5438849"><ele>448.00000000000006</ele><time>2026-05-03T00:59:03.887Z</time></trkpt><trkpt lat="40.4485949" lon="15.5439004"><ele>448.0</ele><time>2026-05-03T00:59:07.887Z</time></trkpt><trkpt lat="40.4486747" lon="15.5438442"><ele>448.00000000000006</ele><time>2026-05-03T00:59:36.886Z</time></trkpt><trkpt lat="40.4487687" lon="15.5437815"><ele>448.0</ele><time>2026-05-03T00:59:50.887Z</time></trkpt><trkpt lat="40.4488712" lon="15.5437426"><ele>448.0</ele><time>2026-05-03T01:00:10.888Z</time></trkpt><trkpt lat="40.4489317" lon="15.5437086"><ele>448.0</ele><time>2026-05-03T01:00:13.888Z</time></trkpt><trkpt lat="40.4489968" lon="15.5436819"><ele>448.00000000000006</ele><time>2026-05-03T01:00:25.887Z</time></trkpt><trkpt lat="40.4490575" lon="15.5436363"><ele>448.0</ele><time>2026-05-03T01:00:27.887Z</time></trkpt><trkpt lat="40.448955" lon="15.5437166"><ele>448.00000000000006</ele><time>2026-05-03T01:00:38.888Z</time></trkpt><trkpt lat="40.4488741" lon="15.5437205"><ele>448.0</ele><time>2026-05-03T01:00:42.887Z</time></trkpt><trkpt lat="40.4488201" lon="15.5437894"><ele>448.0</ele><time>2026-05-03T01:01:31.887Z</time></trkpt><trkpt lat="40.4487327" lon="15.5438432"><ele>448.0</ele><time>2026-05-03T01:01:43.888Z</time></trkpt><trkpt lat="40.448815" lon="15.5438007"><ele>448.00000000000006</ele><time>2026-05-03T01:01:48.888Z</time></trkpt><trkpt lat="40.4489018" lon="15.543733"><ele>448.0</ele><time>2026-05-03T01:01:59.887Z</time></trkpt><trkpt lat="40.4489617" lon="15.5436852"><ele>448.2</ele><time>2026-05-03T01:02:19.888Z</time></trkpt><trkpt lat="40.4490265" lon="15.5436486"><ele>448.4</ele><time>2026-05-03T01:02:29.888Z</time></trkpt><trkpt lat="40.4491077" lon="15.543639"><ele>448.59999999999997</ele><time>2026-05-03T01:02:45.888Z</time></trkpt><trkpt lat="40.4491712" lon="15.5435969"><ele>448.79999999999995</ele><time>2026-05-03T01:02:49.888Z</time></trkpt><trkpt lat="40.4490698" lon="15.5435701"><ele>449.0</ele><time>2026-05-03T01:03:05.888Z</time></trkpt><trkpt lat="40.4489541" lon="15.5436471"><ele>448.99999999999994</ele><time>2026-05-03T01:03:07.888Z</time></trkpt><trkpt lat="40.4488788" lon="15.5436599"><ele>449.0</ele><time>2026-05-03T01:03:14.887Z</time></trkpt><trkpt lat="40.4487777" lon="15.54374"><ele>449.0</ele><time>2026-05-03T01:03:19.888Z</time></trkpt><trkpt lat="40.4487222" lon="15.5437896"><ele>449.0</ele><time>2026-05-03T01:03:20.887Z</time></trkpt><trkpt lat="40.4486635" lon="15.5438413"><ele>448.99999999999994</ele><time>2026-05-03T01:03:22.888Z</time></trkpt><trkpt lat="40.4487196" lon="15.5437868"><ele>449.0</ele><time>2026-05-03T01:03:28.888Z</time></trkpt><trkpt lat="40.4487916" lon="15.5437327"><ele>448.99999999999994</ele><time>2026-05-03T01:03:54.887Z</time></trkpt><trkpt lat="40.448868" lon="15.5436458"><ele>449.0</ele><time>2026-05-03T01:04:35.888Z</time></trkpt><trkpt lat="40.4488063" lon="15.543676"><ele>449.0</ele><time>2026-05-03T01:05:26.888Z</time></trkpt><trkpt lat="40.4488277" lon="15.5435507"><ele>449.0</ele><time>2026-05-03T01:05:46.888Z</time></trkpt><trkpt lat="40.4487858" lon="15.5436338"><ele>448.99999999999994</ele><time>2026-05-03T01:05:55.888Z</time></trkpt><trkpt lat="40.4487186" lon="15.5436907"><ele>449.0</ele><time>2026-05-03T01:05:56.888Z</time></trkpt><trkpt lat="40.4486755" lon="15.5437558"><ele>449.0</ele><time>2026-05-03T01:05:59.888Z</time></trkpt><trkpt lat="40.4487869" lon="15.5437117"><ele>449.0</ele><time>2026-05-03T01:06:17.888Z</time></trkpt><trkpt lat="40.4488747" lon="15.5437111"><ele>449.0</ele><time>2026-05-03T01:06:39.887Z</time></trkpt><trkpt lat="40.4487952" lon="15.5437759"><ele>449.0</ele><time>2026-05-03T01:07:07.888Z</time></trkpt><trkpt lat="40.4487284" lon="15.5437886"><ele>449.0</ele><time>2026-05-03T01:07:45.887Z</time></trkpt><trkpt lat="40.4488317" lon="15.5438383"><ele>448.99999999999994</ele><time>2026-05-03T01:08:39.888Z</time></trkpt><trkpt lat="40.4487885" lon="15.543778"><ele>449.0</ele><time>2026-05-03T01:08:42.887Z</time></trkpt><trkpt lat="40.4488705" lon="15.5437909"><ele>449.0</ele><time>2026-05-03T01:08:48.887Z</time></trkpt><trkpt lat="40.4488158" lon="15.5437412"><ele>449.0</ele><time>2026-05-03T01:08:55.888Z</time></trkpt><trkpt lat="40.448918" lon="15.5437057"><ele>448.99999999999994</ele><time>2026-05-03T01:08:58.888Z</time></trkpt><trkpt lat="40.4489955" lon="15.5437011"><ele>449.0</ele><time>2026-05-03T01:09:08.888Z</time></trkpt><trkpt lat="40.4489164" lon="15.543731"><ele>448.8333333333333</ele><time>2026-05-03T01:09:19.887Z</time></trkpt><trkpt lat="40.4488438" lon="15.543782"><ele>448.66666666666663</ele><time>2026-05-03T01:10:17.887Z</time></trkpt><trkpt lat="40.4489172" lon="15.543747"><ele>448.5</ele><time>2026-05-03T01:10:25.888Z</time></trkpt><trkpt lat="40.4488752" lon="15.5438298"><ele>448.33333333333337</ele><time>2026-05-03T01:10:49.888Z</time></trkpt><trkpt lat="40.4487667" lon="15.5438436"><ele>448.1666666666667</ele><time>2026-05-03T01:11:08.887Z</time></trkpt><trkpt lat="40.4487029" lon="15.5438139"><ele>448.0</ele><time>2026-05-03T01:11:11.888Z</time></trkpt><trkpt lat="40.4486105" lon="15.5438199"><ele>448.00000000000006</ele><time>2026-05-03T01:11:23.887Z</time></trkpt><trkpt lat="40.4485481" lon="15.5438402"><ele>448.0</ele><time>2026-05-03T01:11:26.888Z</time></trkpt><trkpt lat="40.4486073" lon="15.5438069"><ele>448.0</ele><time>2026-05-03T01:11:29.888Z</time></trkpt><trkpt lat="40.4486889" lon="15.543818"><ele>448.0</ele><time>2026-05-03T01:11:37.888Z</time></trkpt><trkpt lat="40.4487894" lon="15.5437995"><ele>448.00000000000006</ele><time>2026-05-03T01:12:18.888Z</time></trkpt><trkpt lat="40.4486972" lon="15.5438648"><ele>448.0</ele><time>2026-05-03T01:12:34.888Z</time></trkpt><trkpt lat="40.4486158" lon="15.5438761"><ele>448.00000000000006</ele><time>2026-05-03T01:12:39.888Z</time></trkpt><trkpt lat="40.4484987" lon="15.5439509"><ele>448.0</ele><time>2026-05-03T01:12:46.888Z</time></trkpt><trkpt lat="40.448456" lon="15.5440176"><ele>448.0</ele><time>2026-05-03T01:12:49.888Z</time></trkpt><trkpt lat="40.4483968" lon="15.544083"><ele>448.0</ele><time>2026-05-03T01:12:58.888Z</time></trkpt><trkpt lat="40.4484432" lon="15.5440248"><ele>448.00000000000006</ele><time>2026-05-03T01:13:08.888Z</time></trkpt><trkpt lat="40.4485087" lon="15.5439549"><ele>448.0</ele><time>2026-05-03T01:13:11.887Z</time></trkpt><trkpt lat="40.4486036" lon="15.5438736"><ele>448.0</ele><time>2026-05-03T01:13:31.888Z</time></trkpt><trkpt lat="40.4486583" lon="15.5438148"><ele>447.99999999999994</ele><time>2026-05-03T01:13:59.888Z</time></trkpt><trkpt lat="40.4487257" lon="15.543769"><ele>447.99999999999994</ele><time>2026-05-03T01:14:02.888Z</time></trkpt><trkpt lat="40.4486279" lon="15.5438469"><ele>448.0</ele><time>2026-05-03T01:14:37.888Z</time></trkpt><trkpt lat="40.4485603" lon="15.5438699"><ele>448.0</ele><time>2026-05-03T01:14:39.888Z</time></trkpt><trkpt lat="40.448297" lon="15.5439279"><ele>448.0</ele><time>2026-05-03T01:14:40.888Z</time></trkpt><trkpt lat="40.4481553" lon="15.5439503"><ele>447.99999999999994</ele><time>2026-05-03T01:14:42.889Z</time></trkpt><trkpt lat="40.4480672" lon="15.5439329"><ele>447.99999999999994</ele><time>2026-05-03T01:14:45.889Z</time></trkpt><trkpt lat="40.4479898" lon="15.543944"><ele>448.0</ele><time>2026-05-03T01:14:53.889Z</time></trkpt><trkpt lat="40.4479065" lon="15.5439256"><ele>448.0</ele><time>2026-05-03T01:15:05.889Z</time></trkpt><trkpt lat="40.4478375" lon="15.5439439"><ele>448.0</ele><time>2026-05-03T01:15:08.889Z</time></trkpt><trkpt lat="40.4477703" lon="15.5439182"><ele>448.0</ele><time>2026-05-03T01:15:14.888Z</time></trkpt><trkpt lat="40.4481137" lon="15.5438528"><ele>448.0</ele><time>2026-05-03T01:15:16.889Z</time></trkpt><trkpt lat="40.4483686" lon="15.5438093"><ele>448.0</ele><time>2026-05-03T01:15:17.888Z</time></trkpt><trkpt lat="40.4485185" lon="15.5437806"><ele>448.0</ele><time>2026-05-03T01:15:18.889Z</time></trkpt><trkpt lat="40.4486031" lon="15.5437634"><ele>448.0</ele><time>2026-05-03T01:15:19.889Z</time></trkpt><trkpt lat="40.4486976" lon="15.5437747"><ele>448.0</ele><time>2026-05-03T01:15:21.889Z</time></trkpt><trkpt lat="40.4480459" lon="15.5436702"><ele>448.0</ele><time>2026-05-03T01:16:11.887Z</time></trkpt><trkpt lat="40.448114" lon="15.5436934"><ele>447.99999999999994</ele><time>2026-05-03T01:17:14.887Z</time></trkpt><trkpt lat="40.4482456" lon="15.5436656"><ele>447.99999999999994</ele><time>2026-05-03T01:17:46.887Z</time></trkpt><trkpt lat="40.4483174" lon="15.5436805"><ele>448.0</ele><time>2026-05-03T01:17:49.887Z</time></trkpt><trkpt lat="40.4484357" lon="15.5436564"><ele>448.0</ele><time>2026-05-03T01:17:56.887Z</time></trkpt><trkpt lat="40.4484937" lon="15.5436212"><ele>448.0</ele><time>2026-05-03T01:18:03.887Z</time></trkpt><trkpt lat="40.4485833" lon="15.5436661"><ele>447.99999999999994</ele><time>2026-05-03T01:18:09.886Z</time></trkpt><trkpt lat="40.4486449" lon="15.5436996"><ele>447.99999999999994</ele><time>2026-05-03T01:18:10.887Z</time></trkpt><trkpt lat="40.4487049" lon="15.5437344"><ele>448.0</ele><time>2026-05-03T01:18:12.887Z</time></trkpt><trkpt lat="40.4485019" lon="15.5436506"><ele>448.0</ele><time>2026-05-03T01:18:14.887Z</time></trkpt><trkpt lat="40.4484279" lon="15.543746"><ele>448.00000000000006</ele><time>2026-05-03T01:18:31.887Z</time></trkpt><trkpt lat="40.4485271" lon="15.543837"><ele>448.0</ele><time>2026-05-03T01:19:15.887Z</time></trkpt><trkpt lat="40.4485618" lon="15.5439068"><ele>448.0</ele><time>2026-05-03T01:19:19.887Z</time></trkpt><trkpt lat="40.4484955" lon="15.5439817"><ele>448.0</ele><time>2026-05-03T01:19:27.887Z</time></trkpt><trkpt lat="40.4485621" lon="15.5439573"><ele>448.00000000000006</ele><time>2026-05-03T01:19:48.887Z</time></trkpt><trkpt lat="40.4485038" lon="15.5439905"><ele>448.0</ele><time>2026-05-03T01:19:55.887Z</time></trkpt><trkpt lat="40.4485355" lon="15.5438906"><ele>448.00000000000006</ele><time>2026-05-03T01:20:35.887Z</time></trkpt><trkpt lat="40.4484717" lon="15.543831"><ele>448.0</ele><time>2026-05-03T01:21:27.887Z</time></trkpt><trkpt lat="40.4483892" lon="15.5438525"><ele>448.0</ele><time>2026-05-03T01:21:45.887Z</time></trkpt><trkpt lat="40.4482817" lon="15.5438751"><ele>448.0</ele><time>2026-05-03T01:21:56.887Z</time></trkpt><trkpt lat="40.4482083" lon="15.5438921"><ele>448.00000000000006</ele><time>2026-05-03T01:21:58.887Z</time></trkpt><trkpt lat="40.4481208" lon="15.5439097"><ele>448.0</ele><time>2026-05-03T01:22:06.887Z</time></trkpt><trkpt lat="40.4482355" lon="15.5439529"><ele>448.0</ele><time>2026-05-03T01:23:41.887Z</time></trkpt><trkpt lat="40.4483296" lon="15.5439537"><ele>447.99999999999994</ele><time>2026-05-03T01:23:45.886Z</time></trkpt><trkpt lat="40.4484571" lon="15.5439201"><ele>447.99999999999994</ele><time>2026-05-03T01:23:59.887Z</time></trkpt><trkpt lat="40.4485308" lon="15.5439278"><ele>448.0</ele><time>2026-05-03T01:24:25.887Z</time></trkpt><trkpt lat="40.4486348" lon="15.5439177"><ele>448.0</ele><time>2026-05-03T01:24:50.886Z</time></trkpt><trkpt lat="40.4487279" lon="15.5438114"><ele>448.00000000000006</ele><time>2026-05-03T01:25:06.887Z</time></trkpt><trkpt lat="40.4487485" lon="15.5437243"><ele>448.0</ele><time>2026-05-03T01:25:42.887Z</time></trkpt><trkpt lat="40.4487889" lon="15.5436397"><ele>448.0</ele><time>2026-05-03T01:25:58.887Z</time></trkpt><trkpt lat="40.4488567" lon="15.543584"><ele>448.0</ele><time>2026-05-03T01:26:00.887Z</time></trkpt><trkpt lat="40.4488009" lon="15.5436743"><ele>448.00000000000006</ele><time>2026-05-03T01:26:24.886Z</time></trkpt><trkpt lat="40.4487486" lon="15.5436276"><ele>448.0</ele><time>2026-05-03T01:27:07.887Z</time></trkpt><trkpt lat="40.4486584" lon="15.5437216"><ele>448.00000000000006</ele><time>2026-05-03T01:27:37.887Z</time></trkpt><trkpt lat="40.4486009" lon="15.543761"><ele>448.0</ele><time>2026-05-03T01:27:41.887Z</time></trkpt><trkpt lat="40.4486564" lon="15.5437105"><ele>448.0</ele><time>2026-05-03T01:28:10.887Z</time></trkpt><trkpt lat="40.4487259" lon="15.5436773"><ele>448.0</ele><time>2026-05-03T01:29:12.886Z</time></trkpt><trkpt lat="40.4487859" lon="15.5436414"><ele>448.00000000000006</ele><time>2026-05-03T01:29:20.886Z</time></trkpt><trkpt lat="40.4488843" lon="15.543577"><ele>448.0</ele><time>2026-05-03T01:29:28.888Z</time></trkpt><trkpt lat="40.4488081" lon="15.5436561"><ele>448.0</ele><time>2026-05-03T01:29:48.888Z</time></trkpt><trkpt lat="40.4488722" lon="15.5436903"><ele>448.0</ele><time>2026-05-03T01:29:52.888Z</time></trkpt><trkpt lat="40.4487985" lon="15.543749"><ele>448.0</ele><time>2026-05-03T01:29:58.887Z</time></trkpt><trkpt lat="40.4488785" lon="15.5437155"><ele>448.0</ele><time>2026-05-03T01:30:20.887Z</time></trkpt><trkpt lat="40.4488119" lon="15.5437361"><ele>448.0</ele><time>2026-05-03T01:30:24.888Z</time></trkpt><trkpt lat="40.4487925" lon="15.5438163"><ele>448.0</ele><time>2026-05-03T01:30:36.888Z</time></trkpt><trkpt lat="40.4487277" lon="15.5438039"><ele>448.0</ele><time>2026-05-03T01:30:44.888Z</time></trkpt><trkpt lat="40.4485868" lon="15.5437785"><ele>448.0</ele><time>2026-05-03T01:31:38.887Z</time></trkpt><trkpt lat="40.4487139" lon="15.54362"><ele>448.0</ele><time>2026-05-03T01:31:39.888Z</time></trkpt><trkpt lat="40.4487706" lon="15.5438068"><ele>448.0</ele><time>2026-05-03T01:31:57.033Z</time></trkpt><trkpt lat="40.4486849" lon="15.5437218"><ele>448.0</ele><time>2026-05-03T01:32:25.884Z</time></trkpt><trkpt lat="40.448753" lon="15.5437313"><ele>448.0</ele><time>2026-05-03T01:32:39.884Z</time></trkpt><trkpt lat="40.4487842" lon="15.5438349"><ele>448.0</ele><time>2026-05-03T01:32:49.225Z</time></trkpt><trkpt lat="40.4466183" lon="15.545385"><ele>448.1666666666667</ele><time>2026-05-03T01:36:13.886Z</time></trkpt><trkpt lat="40.4466823" lon="15.5453241"><ele>448.33333333333337</ele><time>2026-05-03T01:36:20.886Z</time></trkpt><trkpt lat="40.4467537" lon="15.5452654"><ele>448.5</ele><time>2026-05-03T01:36:24.886Z</time></trkpt><trkpt lat="40.4468156" lon="15.5452197"><ele>448.66666666666663</ele><time>2026-05-03T01:36:27.886Z</time></trkpt><trkpt lat="40.4468741" lon="15.5451781"><ele>448.8333333333333</ele><time>2026-05-03T01:36:29.885Z</time></trkpt><trkpt lat="40.4469426" lon="15.5451264"><ele>449.0</ele><time>2026-05-03T01:37:42.885Z</time></trkpt><trkpt lat="40.4470093" lon="15.5450442"><ele>448.99999999999994</ele><time>2026-05-03T01:37:47.886Z</time></trkpt><trkpt lat="40.4470704" lon="15.5449743"><ele>449.0</ele><time>2026-05-03T01:37:51.886Z</time></trkpt><trkpt lat="40.4471334" lon="15.5449309"><ele>449.0</ele><time>2026-05-03T01:37:55.886Z</time></trkpt><trkpt lat="40.4471822" lon="15.5448684"><ele>449.0</ele><time>2026-05-03T01:38:05.886Z</time></trkpt><trkpt lat="40.4472359" lon="15.5448194"><ele>448.99999999999994</ele><time>2026-05-03T01:38:19.886Z</time></trkpt><trkpt lat="40.4473576" lon="15.5447372"><ele>449.0</ele><time>2026-05-03T01:38:51.886Z</time></trkpt><trkpt lat="40.4474346" lon="15.544672"><ele>448.99999999999994</ele><time>2026-05-03T01:39:06.886Z</time></trkpt><trkpt lat="40.4473653" lon="15.5447009"><ele>449.0</ele><time>2026-05-03T01:39:35.886Z</time></trkpt><trkpt lat="40.4474646" lon="15.5446053"><ele>449.0</ele><time>2026-05-03T01:39:48.886Z</time></trkpt><trkpt lat="40.44753" lon="15.5445553"><ele>449.0</ele><time>2026-05-03T01:39:51.886Z</time></trkpt><trkpt lat="40.4475788" lon="15.5445029"><ele>448.99999999999994</ele><time>2026-05-03T01:39:56.886Z</time></trkpt><trkpt lat="40.4476582" lon="15.5444536"><ele>449.0</ele><time>2026-05-03T01:40:07.886Z</time></trkpt><trkpt lat="40.4477467" lon="15.5444004"><ele>449.0</ele><time>2026-05-03T01:40:10.886Z</time></trkpt><trkpt lat="40.4478296" lon="15.5443713"><ele>449.0</ele><time>2026-05-03T01:40:13.886Z</time></trkpt><trkpt lat="40.447833" lon="15.5442831"><ele>449.0</ele><time>2026-05-03T01:40:48.886Z</time></trkpt><trkpt lat="40.447897" lon="15.5442492"><ele>449.0</ele><time>2026-05-03T01:40:58.885Z</time></trkpt><trkpt lat="40.4480117" lon="15.5441209"><ele>449.0</ele><time>2026-05-03T01:41:04.886Z</time></trkpt><trkpt lat="40.4481371" lon="15.544024"><ele>449.0</ele><time>2026-05-03T01:41:35.886Z</time></trkpt><trkpt lat="40.4482071" lon="15.5440661"><ele>449.0</ele><time>2026-05-03T01:42:38.885Z</time></trkpt><trkpt lat="40.4481138" lon="15.5441055"><ele>449.0</ele><time>2026-05-03T01:43:05.886Z</time></trkpt><trkpt lat="40.4480982" lon="15.5441956"><ele>449.0</ele><time>2026-05-03T01:43:29.886Z</time></trkpt><trkpt lat="40.4480171" lon="15.5442705"><ele>449.0</ele><time>2026-05-03T01:43:58.886Z</time></trkpt><trkpt lat="40.447919" lon="15.54436"><ele>449.0</ele><time>2026-05-03T01:44:12.887Z</time></trkpt><trkpt lat="40.4478492" lon="15.5444314"><ele>449.0</ele><time>2026-05-03T01:45:03.886Z</time></trkpt><trkpt lat="40.4477868" lon="15.5444048"><ele>449.0</ele><time>2026-05-03T01:45:31.886Z</time></trkpt><trkpt lat="40.4477101" lon="15.5443899"><ele>449.0</ele><time>2026-05-03T01:45:55.886Z</time></trkpt><trkpt lat="40.4477947" lon="15.5443524"><ele>449.0</ele><time>2026-05-03T01:46:25.887Z</time></trkpt><trkpt lat="40.4480417" lon="15.544198"><ele>448.66666666666663</ele><time>2026-05-03T01:46:44.886Z</time></trkpt><trkpt lat="40.4482461" lon="15.5440786"><ele>448.33333333333337</ele><time>2026-05-03T01:46:45.887Z</time></trkpt><trkpt lat="40.4483897" lon="15.5439916"><ele>448.0</ele><time>2026-05-03T01:46:46.887Z</time></trkpt><trkpt lat="40.4484823" lon="15.5439322"><ele>448.0</ele><time>2026-05-03T01:46:47.887Z</time></trkpt><trkpt lat="40.4485444" lon="15.5438922"><ele>448.0</ele><time>2026-05-03T01:46:48.887Z</time></trkpt><trkpt lat="40.4486147" lon="15.5438393"><ele>448.0</ele><time>2026-05-03T01:46:50.886Z</time></trkpt><trkpt lat="40.4480612" lon="15.5441517"><ele>448.0</ele><time>2026-05-03T01:46:58.886Z</time></trkpt><trkpt lat="40.4479482" lon="15.5442022"><ele>448.0</ele><time>2026-05-03T01:46:59.887Z</time></trkpt><trkpt lat="40.448171" lon="15.5440585"><ele>448.0</ele><time>2026-05-03T01:47:18.886Z</time></trkpt><trkpt lat="40.4482986" lon="15.543987"><ele>448.0</ele><time>2026-05-03T01:47:19.887Z</time></trkpt><trkpt lat="40.4480338" lon="15.5441105"><ele>448.0</ele><time>2026-05-03T01:47:20.887Z</time></trkpt><trkpt lat="40.448241" lon="15.5439961"><ele>448.0</ele><time>2026-05-03T01:47:22.887Z</time></trkpt><trkpt lat="40.4483595" lon="15.5439307"><ele>448.0</ele><time>2026-05-03T01:47:23.886Z</time></trkpt><trkpt lat="40.4484282" lon="15.5439423"><ele>448.0</ele><time>2026-05-03T01:47:25.886Z</time></trkpt><trkpt lat="40.4480815" lon="15.5440924"><ele>448.0</ele><time>2026-05-03T01:47:26.886Z</time></trkpt><trkpt lat="40.4480122" lon="15.5441234"><ele>448.0</ele><time>2026-05-03T01:47:27.887Z</time></trkpt><trkpt lat="40.44807" lon="15.5440437"><ele>448.0</ele><time>2026-05-03T01:47:34.886Z</time></trkpt><trkpt lat="40.4481487" lon="15.543976"><ele>448.0</ele><time>2026-05-03T01:48:18.887Z</time></trkpt><trkpt lat="40.4481644" lon="15.5438951"><ele>448.0</ele><time>2026-05-03T01:48:28.887Z</time></trkpt><trkpt lat="40.448209" lon="15.5438331"><ele>448.0</ele><time>2026-05-03T01:48:33.887Z</time></trkpt><trkpt lat="40.44827" lon="15.543789"><ele>448.0</ele><time>2026-05-03T01:49:02.887Z</time></trkpt><trkpt lat="40.4484129" lon="15.5437783"><ele>448.0</ele><time>2026-05-03T01:49:03.886Z</time></trkpt><trkpt lat="40.4485181" lon="15.5437698"><ele>448.0</ele><time>2026-05-03T01:49:04.887Z</time></trkpt><trkpt lat="40.4482903" lon="15.5437667"><ele>448.0</ele><time>2026-05-03T01:49:05.887Z</time></trkpt><trkpt lat="40.4484009" lon="15.5437632"><ele>448.0</ele><time>2026-05-03T01:49:16.887Z</time></trkpt><trkpt lat="40.4485203" lon="15.543763"><ele>448.0</ele><time>2026-05-03T01:49:17.887Z</time></trkpt><trkpt lat="40.4486494" lon="15.5437633"><ele>448.0</ele><time>2026-05-03T01:49:19.886Z</time></trkpt><trkpt lat="40.4487128" lon="15.5437656"><ele>448.0</ele><time>2026-05-03T01:49:22.887Z</time></trkpt><trkpt lat="40.4483324" lon="15.5437955"><ele>448.00000000000006</ele><time>2026-05-03T01:49:33.886Z</time></trkpt><trkpt lat="40.4482572" lon="15.5438215"><ele>448.0</ele><time>2026-05-03T01:49:36.887Z</time></trkpt><trkpt lat="40.4483507" lon="15.5438037"><ele>448.0</ele><time>2026-05-03T01:49:38.886Z</time></trkpt><trkpt lat="40.4484446" lon="15.5437899"><ele>448.0</ele><time>2026-05-03T01:49:39.887Z</time></trkpt><trkpt lat="40.4485144" lon="15.543784"><ele>448.00000000000006</ele><time>2026-05-03T01:49:40.887Z</time></trkpt><trkpt lat="40.4486004" lon="15.5437756"><ele>448.0</ele><time>2026-05-03T01:49:42.887Z</time></trkpt><trkpt lat="40.4487222" lon="15.5437763"><ele>448.0</ele><time>2026-05-03T01:50:00.887Z</time></trkpt><trkpt lat="40.4484388" lon="15.5440024"><ele>448.0</ele><time>2026-05-03T01:51:09.886Z</time></trkpt><trkpt lat="40.4482185" lon="15.5440211"><ele>448.0</ele><time>2026-05-03T01:51:22.886Z</time></trkpt><trkpt lat="40.4481441" lon="15.5440543"><ele>447.99999999999994</ele><time>2026-05-03T01:51:24.886Z</time></trkpt><trkpt lat="40.4481993" lon="15.54398"><ele>447.99999999999994</ele><time>2026-05-03T01:51:25.886Z</time></trkpt><trkpt lat="40.4484103" lon="15.5438915"><ele>448.0</ele><time>2026-05-03T01:51:26.886Z</time></trkpt><trkpt lat="40.4484757" lon="15.5438626"><ele>448.0</ele><time>2026-05-03T01:51:27.886Z</time></trkpt><trkpt lat="40.4485406" lon="15.543821"><ele>448.0</ele><time>2026-05-03T01:51:31.886Z</time></trkpt><trkpt lat="40.4483812" lon="15.5438313"><ele>447.99999999999994</ele><time>2026-05-03T01:51:33.886Z</time></trkpt><trkpt lat="40.44832" lon="15.5438595"><ele>447.99999999999994</ele><time>2026-05-03T01:51:35.886Z</time></trkpt><trkpt lat="40.4483724" lon="15.5437941"><ele>448.0</ele><time>2026-05-03T01:52:06.885Z</time></trkpt><trkpt lat="40.4484898" lon="15.5436773"><ele>448.0</ele><time>2026-05-03T01:52:20.885Z</time></trkpt><trkpt lat="40.4485794" lon="15.5435372"><ele>448.0</ele><time>2026-05-03T01:52:52.885Z</time></trkpt><trkpt lat="40.4486422" lon="15.543399"><ele>447.99999999999994</ele><time>2026-05-03T01:53:14.886Z</time></trkpt><trkpt lat="40.448619" lon="15.5434981"><ele>447.99999999999994</ele><time>2026-05-03T01:53:36.886Z</time></trkpt><trkpt lat="40.4485399" lon="15.5436204"><ele>448.0</ele><time>2026-05-03T01:53:42.886Z</time></trkpt><trkpt lat="40.448485" lon="15.543665"><ele>448.0</ele><time>2026-05-03T01:53:47.886Z</time></trkpt><trkpt lat="40.4485451" lon="15.5435977"><ele>448.00000000000006</ele><time>2026-05-03T01:53:56.885Z</time></trkpt><trkpt lat="40.4486401" lon="15.5435358"><ele>448.0</ele><time>2026-05-03T01:54:11.886Z</time></trkpt><trkpt lat="40.4486817" lon="15.5434398"><ele>448.0</ele><time>2026-05-03T01:54:16.885Z</time></trkpt><trkpt lat="40.4487214" lon="15.5435126"><ele>448.0</ele><time>2026-05-03T01:54:35.886Z</time></trkpt><trkpt lat="40.4486286" lon="15.5435339"><ele>448.00000000000006</ele><time>2026-05-03T01:55:22.886Z</time></trkpt><trkpt lat="40.448649" lon="15.5434365"><ele>448.0</ele><time>2026-05-03T01:55:29.886Z</time></trkpt><trkpt lat="40.4487242" lon="15.5435268"><ele>448.0</ele><time>2026-05-03T01:55:49.885Z</time></trkpt><trkpt lat="40.4486058" lon="15.5435083"><ele>447.99999999999994</ele><time>2026-05-03T01:55:57.886Z</time></trkpt><trkpt lat="40.4485349" lon="15.5434509"><ele>447.99999999999994</ele><time>2026-05-03T01:56:00.886Z</time></trkpt><trkpt lat="40.4485258" lon="15.5433214"><ele>448.0</ele><time>2026-05-03T01:56:12.886Z</time></trkpt><trkpt lat="40.4485024" lon="15.5432419"><ele>448.0</ele><time>2026-05-03T01:56:15.886Z</time></trkpt><trkpt lat="40.4485682" lon="15.5434225"><ele>448.0</ele><time>2026-05-03T01:56:27.886Z</time></trkpt><trkpt lat="40.4486038" lon="15.5434991"><ele>447.99999999999994</ele><time>2026-05-03T01:56:28.886Z</time></trkpt><trkpt lat="40.4485266" lon="15.5433519"><ele>447.99999999999994</ele><time>2026-05-03T01:56:34.886Z</time></trkpt><trkpt lat="40.4484921" lon="15.5432819"><ele>448.0</ele><time>2026-05-03T01:56:37.885Z</time></trkpt><trkpt lat="40.4485781" lon="15.5432517"><ele>448.0</ele><time>2026-05-03T01:56:44.886Z</time></trkpt><trkpt lat="40.4486721" lon="15.5435254"><ele>448.00000000000006</ele><time>2026-05-03T01:56:48.885Z</time></trkpt><trkpt lat="40.4487159" lon="15.5436168"><ele>448.0</ele><time>2026-05-03T01:56:53.886Z</time></trkpt><trkpt lat="40.4487357" lon="15.5435087"><ele>448.0</ele><time>2026-05-03T01:57:00.885Z</time></trkpt><trkpt lat="40.4488181" lon="15.54355"><ele>448.0</ele><time>2026-05-03T01:57:02.886Z</time></trkpt><trkpt lat="40.4488298" lon="15.5436315"><ele>448.00000000000006</ele><time>2026-05-03T01:57:07.886Z</time></trkpt><trkpt lat="40.4487752" lon="15.5437015"><ele>448.0</ele><time>2026-05-03T01:57:12.886Z</time></trkpt><trkpt lat="40.4487195" lon="15.5437775"><ele>448.00000000000006</ele><time>2026-05-03T01:57:44.886Z</time></trkpt><trkpt lat="40.4486373" lon="15.5437684"><ele>448.0</ele><time>2026-05-03T01:58:52.886Z</time></trkpt><trkpt lat="40.4485812" lon="15.5438162"><ele>448.0</ele><time>2026-05-03T01:59:00.887Z</time></trkpt><trkpt lat="40.4486125" lon="15.5437038"><ele>448.0</ele><time>2026-05-03T01:59:11.886Z</time></trkpt><trkpt lat="40.4486464" lon="15.5436195"><ele>448.00000000000006</ele><time>2026-05-03T01:59:17.887Z</time></trkpt><trkpt lat="40.4485918" lon="15.5435691"><ele>448.0</ele><time>2026-05-03T01:59:35.887Z</time></trkpt><trkpt lat="40.4485519" lon="15.5436614"><ele>448.0</ele><time>2026-05-03T02:00:07.886Z</time></trkpt><trkpt lat="40.4486208" lon="15.5436981"><ele>447.99999999999994</ele><time>2026-05-03T02:00:29.886Z</time></trkpt><trkpt lat="40.4486818" lon="15.5435976"><ele>447.99999999999994</ele><time>2026-05-03T02:01:07.887Z</time></trkpt><trkpt lat="40.4485658" lon="15.5436996"><ele>448.0</ele><time>2026-05-03T02:01:34.887Z</time></trkpt><trkpt lat="40.4486653" lon="15.5435973"><ele>448.0</ele><time>2026-05-03T02:01:46.887Z</time></trkpt><trkpt lat="40.4487503" lon="15.5435236"><ele>448.00000000000006</ele><time>2026-05-03T02:01:48.886Z</time></trkpt><trkpt lat="40.4487366" lon="15.5436152"><ele>448.0</ele><time>2026-05-03T02:02:13.886Z</time></trkpt><trkpt lat="40.4486449" lon="15.543698"><ele>448.0</ele><time>2026-05-03T02:02:31.886Z</time></trkpt><trkpt lat="40.448576" lon="15.543769"><ele>448.0</ele><time>2026-05-03T02:03:47.886Z</time></trkpt><trkpt lat="40.4485243" lon="15.5438605"><ele>448.00000000000006</ele><time>2026-05-03T02:05:09.886Z</time></trkpt><trkpt lat="40.4485281" lon="15.5437745"><ele>448.0</ele><time>2026-05-03T02:05:59.887Z</time></trkpt><trkpt lat="40.4484902" lon="15.5438497"><ele>448.00000000000006</ele><time>2026-05-03T02:07:10.887Z</time></trkpt><trkpt lat="40.4484879" lon="15.5439637"><ele>448.0</ele><time>2026-05-03T02:07:18.887Z</time></trkpt><trkpt lat="40.4484809" lon="15.5440523"><ele>448.0</ele><time>2026-05-03T02:07:40.887Z</time></trkpt><trkpt lat="40.4485176" lon="15.5439847"><ele>448.0</ele><time>2026-05-03T02:07:54.887Z</time></trkpt><trkpt lat="40.4484617" lon="15.5438539"><ele>448.00000000000006</ele><time>2026-05-03T02:09:00.886Z</time></trkpt><trkpt lat="40.4483581" lon="15.543827"><ele>448.0</ele><time>2026-05-03T02:09:48.887Z</time></trkpt><trkpt lat="40.448277" lon="15.5438105"><ele>448.0</ele><time>2026-05-03T02:10:19.886Z</time></trkpt><trkpt lat="40.4484188" lon="15.5437927"><ele>447.99999999999994</ele><time>2026-05-03T02:12:00.887Z</time></trkpt><trkpt lat="40.4485005" lon="15.5437449"><ele>447.99999999999994</ele><time>2026-05-03T02:12:06.887Z</time></trkpt><trkpt lat="40.4485681" lon="15.543725"><ele>448.0</ele><time>2026-05-03T02:12:57.887Z</time></trkpt><trkpt lat="40.4486571" lon="15.5437279"><ele>448.0</ele><time>2026-05-03T02:13:16.886Z</time></trkpt><trkpt lat="40.4485765" lon="15.5437284"><ele>448.0</ele><time>2026-05-03T02:13:37.888Z</time></trkpt><trkpt lat="40.4484853" lon="15.5437058"><ele>447.99999999999994</ele><time>2026-05-03T02:13:45.888Z</time></trkpt><trkpt lat="40.4483991" lon="15.5437141"><ele>447.99999999999994</ele><time>2026-05-03T02:13:58.888Z</time></trkpt><trkpt lat="40.4483297" lon="15.5436535"><ele>448.0</ele><time>2026-05-03T02:14:03.888Z</time></trkpt><trkpt lat="40.4484309" lon="15.5436243"><ele>448.0</ele><time>2026-05-03T02:14:28.887Z</time></trkpt><trkpt lat="40.4483435" lon="15.5436217"><ele>448.0</ele><time>2026-05-03T02:14:45.888Z</time></trkpt><trkpt lat="40.4482798" lon="15.5436148"><ele>447.99999999999994</ele><time>2026-05-03T02:14:52.888Z</time></trkpt><trkpt lat="40.4483504" lon="15.543663"><ele>447.99999999999994</ele><time>2026-05-03T02:15:49.888Z</time></trkpt><trkpt lat="40.4484676" lon="15.5436807"><ele>448.0</ele><time>2026-05-03T02:16:10.888Z</time></trkpt><trkpt lat="40.4486087" lon="15.5436903"><ele>448.0</ele><time>2026-05-03T02:16:30.888Z</time></trkpt><trkpt lat="40.4486809" lon="15.5436862"><ele>448.00000000000006</ele><time>2026-05-03T02:16:48.888Z</time></trkpt><trkpt lat="40.4487363" lon="15.5437535"><ele>448.0</ele><time>2026-05-03T02:16:51.888Z</time></trkpt><trkpt lat="40.4486887" lon="15.543686"><ele>448.0</ele><time>2026-05-03T02:16:55.888Z</time></trkpt><trkpt lat="40.4487551" lon="15.5436667"><ele>448.0</ele><time>2026-05-03T02:16:57.887Z</time></trkpt><trkpt lat="40.4486893" lon="15.5436807"><ele>448.00000000000006</ele><time>2026-05-03T02:19:33.888Z</time></trkpt><trkpt lat="40.4486198" lon="15.5436925"><ele>448.0</ele><time>2026-05-03T02:19:37.887Z</time></trkpt><trkpt lat="40.4485211" lon="15.5437514"><ele>448.00000000000006</ele><time>2026-05-03T02:19:56.888Z</time></trkpt><trkpt lat="40.4484588" lon="15.5437969"><ele>448.0</ele><time>2026-05-03T02:20:36.888Z</time></trkpt><trkpt lat="40.4485289" lon="15.5438141"><ele>448.0</ele><time>2026-05-03T02:21:26.888Z</time></trkpt><trkpt lat="40.4485366" lon="15.5437138"><ele>448.0</ele><time>2026-05-03T02:21:56.888Z</time></trkpt><trkpt lat="40.4486002" lon="15.5437627"><ele>448.00000000000006</ele><time>2026-05-03T02:22:25.888Z</time></trkpt><trkpt lat="40.448681" lon="15.5437184"><ele>448.0</ele><time>2026-05-03T02:22:50.888Z</time></trkpt><trkpt lat="40.4487709" lon="15.5436358"><ele>448.0</ele><time>2026-05-03T02:23:07.888Z</time></trkpt><trkpt lat="40.4488896" lon="15.5436091"><ele>447.99999999999994</ele><time>2026-05-03T02:23:31.888Z</time></trkpt><trkpt lat="40.4487975" lon="15.5436138"><ele>447.99999999999994</ele><time>2026-05-03T02:23:37.888Z</time></trkpt><trkpt lat="40.4487085" lon="15.5436504"><ele>448.0</ele><time>2026-05-03T02:23:45.887Z</time></trkpt><trkpt lat="40.4486406" lon="15.5437404"><ele>448.0</ele><time>2026-05-03T02:25:04.888Z</time></trkpt><trkpt lat="40.4485877" lon="15.5437874"><ele>448.0</ele><time>2026-05-03T02:25:09.888Z</time></trkpt><trkpt lat="40.4486974" lon="15.54383"><ele>447.99999999999994</ele><time>2026-05-03T02:25:23.888Z</time></trkpt><trkpt lat="40.4487595" lon="15.5437987"><ele>447.99999999999994</ele><time>2026-05-03T02:25:36.888Z</time></trkpt><trkpt lat="40.4486352" lon="15.5437418"><ele>448.0</ele><time>2026-05-03T02:25:47.888Z</time></trkpt><trkpt lat="40.4485989" lon="15.5438329"><ele>448.0</ele><time>2026-05-03T02:26:04.887Z</time></trkpt><trkpt lat="40.4487166" lon="15.5438592"><ele>448.00000000000006</ele><time>2026-05-03T02:26:16.887Z</time></trkpt><trkpt lat="40.4486493" lon="15.5438205"><ele>448.0</ele><time>2026-05-03T02:26:19.888Z</time></trkpt><trkpt lat="40.4487355" lon="15.5438535"><ele>448.0</ele><time>2026-05-03T02:26:22.888Z</time></trkpt><trkpt lat="40.4486648" lon="15.5438663"><ele>448.0</ele><time>2026-05-03T02:26:25.888Z</time></trkpt><trkpt lat="40.4487338" lon="15.5438503"><ele>448.00000000000006</ele><time>2026-05-03T02:27:41.887Z</time></trkpt><trkpt lat="40.4486431" lon="15.5438288"><ele>448.0</ele><time>2026-05-03T02:28:32.888Z</time></trkpt><trkpt lat="40.4485435" lon="15.5438549"><ele>448.00000000000006</ele><time>2026-05-03T02:28:41.889Z</time></trkpt><trkpt lat="40.448643" lon="15.5437349"><ele>448.0</ele><time>2026-05-03T02:29:13.889Z</time></trkpt><trkpt lat="40.448668" lon="15.5436548"><ele>448.0</ele><time>2026-05-03T02:29:17.889Z</time></trkpt><trkpt lat="40.448662" lon="15.5435694"><ele>448.0</ele><time>2026-05-03T02:29:29.889Z</time></trkpt><trkpt lat="40.4487563" lon="15.5435798"><ele>448.00000000000006</ele><time>2026-05-03T02:29:42.889Z</time></trkpt><trkpt lat="40.4488275" lon="15.5436289"><ele>448.0</ele><time>2026-05-03T02:29:49.889Z</time></trkpt><trkpt lat="40.4488952" lon="15.5436367"><ele>448.1428571428571</ele><time>2026-05-03T02:30:02.889Z</time></trkpt><trkpt lat="40.4489566" lon="15.543613"><ele>448.2857142857143</ele><time>2026-05-03T02:30:06.889Z</time></trkpt><trkpt lat="40.4490264" lon="15.5436177"><ele>448.42857142857144</ele><time>2026-05-03T02:30:11.889Z</time></trkpt><trkpt lat="40.449117" lon="15.5436123"><ele>448.57142857142856</ele><time>2026-05-03T02:30:17.889Z</time></trkpt><trkpt lat="40.4491734" lon="15.5435731"><ele>448.71428571428567</ele><time>2026-05-03T02:30:21.888Z</time></trkpt><trkpt lat="40.4492358" lon="15.5435361"><ele>448.85714285714283</ele><time>2026-05-03T02:30:25.888Z</time></trkpt><trkpt lat="40.4493032" lon="15.5435115"><ele>449.0</ele><time>2026-05-03T02:30:39.888Z</time></trkpt><trkpt lat="40.4493746" lon="15.5435111"><ele>448.99999999999994</ele><time>2026-05-03T02:30:45.888Z</time></trkpt><trkpt lat="40.4492845" lon="15.5435668"><ele>449.0</ele><time>2026-05-03T02:31:15.889Z</time></trkpt><trkpt lat="40.4492114" lon="15.5435946"><ele>449.0</ele><time>2026-05-03T02:31:19.889Z</time></trkpt><trkpt lat="40.4491465" lon="15.5436177"><ele>449.0</ele><time>2026-05-03T02:31:27.889Z</time></trkpt><trkpt lat="40.4490671" lon="15.5436448"><ele>448.99999999999994</ele><time>2026-05-03T02:31:34.888Z</time></trkpt><trkpt lat="40.4489581" lon="15.5437029"><ele>449.0</ele><time>2026-05-03T02:31:40.889Z</time></trkpt><trkpt lat="40.4488996" lon="15.5437383"><ele>448.79999999999995</ele><time>2026-05-03T02:31:41.889Z</time></trkpt><trkpt lat="40.4487579" lon="15.5437922"><ele>448.59999999999997</ele><time>2026-05-03T02:31:53.889Z</time></trkpt><trkpt lat="40.4486539" lon="15.543822"><ele>448.4</ele><time>2026-05-03T02:32:11.888Z</time></trkpt><trkpt lat="40.4485684" lon="15.5438309"><ele>448.2</ele><time>2026-05-03T02:33:16.889Z</time></trkpt><trkpt lat="40.4485022" lon="15.5438147"><ele>448.0</ele><time>2026-05-03T02:33:40.889Z</time></trkpt><trkpt lat="40.4485668" lon="15.543806"><ele>448.0</ele><time>2026-05-03T02:34:05.889Z</time></trkpt><trkpt lat="40.4486194" lon="15.543747"><ele>447.99999999999994</ele><time>2026-05-03T02:34:11.889Z</time></trkpt><trkpt lat="40.4485347" lon="15.5438359"><ele>447.99999999999994</ele><time>2026-05-03T02:34:57.888Z</time></trkpt><trkpt lat="40.4484793" lon="15.5438935"><ele>448.0</ele><time>2026-05-03T02:35:07.889Z</time></trkpt><trkpt lat="40.4485361" lon="15.5437995"><ele>448.0</ele><time>2026-05-03T02:35:28.889Z</time></trkpt><trkpt lat="40.4486838" lon="15.5437319"><ele>448.00000000000006</ele><time>2026-05-03T02:35:39.889Z</time></trkpt><trkpt lat="40.4487766" lon="15.5436856"><ele>448.0</ele><time>2026-05-03T02:35:41.889Z</time></trkpt><trkpt lat="40.448845" lon="15.5436484"><ele>448.0</ele><time>2026-05-03T02:35:44.889Z</time></trkpt><trkpt lat="40.4487484" lon="15.5436968"><ele>448.0</ele><time>2026-05-03T02:36:01.888Z</time></trkpt><trkpt lat="40.4486799" lon="15.5437333"><ele>448.00000000000006</ele><time>2026-05-03T02:36:04.889Z</time></trkpt><trkpt lat="40.448588" lon="15.5437559"><ele>448.0</ele><time>2026-05-03T02:36:46.889Z</time></trkpt><trkpt lat="40.4486514" lon="15.5437316"><ele>448.0</ele><time>2026-05-03T02:36:54.889Z</time></trkpt><trkpt lat="40.4487842" lon="15.543734"><ele>447.99999999999994</ele><time>2026-05-03T02:37:09.889Z</time></trkpt><trkpt lat="40.4487138" lon="15.5438713"><ele>447.99999999999994</ele><time>2026-05-03T02:38:45.889Z</time></trkpt><trkpt lat="40.4486157" lon="15.5439343"><ele>448.0</ele><time>2026-05-03T02:39:11.889Z</time></trkpt><trkpt lat="40.4485475" lon="15.5439359"><ele>448.0</ele><time>2026-05-03T02:39:20.889Z</time></trkpt><trkpt lat="40.4485919" lon="15.5438386"><ele>448.00000000000006</ele><time>2026-05-03T02:39:37.889Z</time></trkpt><trkpt lat="40.4486384" lon="15.543776"><ele>448.0</ele><time>2026-05-03T02:39:39.889Z</time></trkpt><trkpt lat="40.4486991" lon="15.543745"><ele>448.0</ele><time>2026-05-03T02:39:42.889Z</time></trkpt><trkpt lat="40.448763" lon="15.5437261"><ele>448.0</ele><time>2026-05-03T02:39:48.888Z</time></trkpt><trkpt lat="40.4488303" lon="15.5437189"><ele>448.00000000000006</ele><time>2026-05-03T02:39:53.889Z</time></trkpt><trkpt lat="40.4487871" lon="15.5438109"><ele>448.0</ele><time>2026-05-03T02:40:00.889Z</time></trkpt><trkpt lat="40.448963" lon="15.5437385"><ele>448.50000000000006</ele><time>2026-05-03T02:40:18.888Z</time></trkpt><trkpt lat="40.4489056" lon="15.5437962"><ele>449.0</ele><time>2026-05-03T02:40:34.888Z</time></trkpt><trkpt lat="40.449023" lon="15.5437516"><ele>449.5</ele><time>2026-05-03T02:40:39.889Z</time></trkpt><trkpt lat="40.448953" lon="15.5437485"><ele>450.0</ele><time>2026-05-03T02:40:46.889Z</time></trkpt><trkpt lat="40.4490571" lon="15.5437387"><ele>450.50000000000006</ele><time>2026-05-03T02:40:52.889Z</time></trkpt><trkpt lat="40.4489782" lon="15.5437334"><ele>451.0</ele><time>2026-05-03T02:41:01.889Z</time></trkpt><trkpt lat="40.4488256" lon="15.5438315"><ele>450.50000000000006</ele><time>2026-05-03T02:41:11.889Z</time></trkpt><trkpt lat="40.4487713" lon="15.5438909"><ele>450.0</ele><time>2026-05-03T02:41:14.889Z</time></trkpt><trkpt lat="40.4486526" lon="15.5439264"><ele>449.5</ele><time>2026-05-03T02:41:47.889Z</time></trkpt><trkpt lat="40.4485969" lon="15.5439742"><ele>449.0</ele><time>2026-05-03T02:41:55.888Z</time></trkpt><trkpt lat="40.44859" lon="15.5438786"><ele>448.50000000000006</ele><time>2026-05-03T02:46:02.89Z</time></trkpt><trkpt lat="40.4485495" lon="15.5439428"><ele>448.0</ele><time>2026-05-03T02:53:13.89Z</time></trkpt><trkpt lat="40.4486075" lon="15.5438625"><ele>448.0</ele><time>2026-05-03T02:53:42.889Z</time></trkpt><trkpt lat="40.4487141" lon="15.5437526"><ele>447.99999999999994</ele><time>2026-05-03T02:54:02.889Z</time></trkpt><trkpt lat="40.4487981" lon="15.543703"><ele>447.99999999999994</ele><time>2026-05-03T02:54:06.89Z</time></trkpt><trkpt lat="40.4488941" lon="15.5435856"><ele>448.0</ele><time>2026-05-03T02:54:25.89Z</time></trkpt><trkpt lat="40.4488317" lon="15.5436618"><ele>448.0</ele><time>2026-05-03T02:54:36.89Z</time></trkpt><trkpt lat="40.4487571" lon="15.5436964"><ele>448.00000000000006</ele><time>2026-05-03T02:55:00.889Z</time></trkpt><trkpt lat="40.4487033" lon="15.5437633"><ele>448.0</ele><time>2026-05-03T02:55:05.89Z</time></trkpt><trkpt lat="40.4487692" lon="15.5437231"><ele>448.0</ele><time>2026-05-03T02:57:26.89Z</time></trkpt><trkpt lat="40.4488291" lon="15.5436885"><ele>448.0</ele><time>2026-05-03T02:57:32.889Z</time></trkpt><trkpt lat="40.4489186" lon="15.5436109"><ele>448.00000000000006</ele><time>2026-05-03T02:57:56.889Z</time></trkpt><trkpt lat="40.4489856" lon="15.5435472"><ele>448.0</ele><time>2026-05-03T02:57:59.89Z</time></trkpt><trkpt lat="40.4491046" lon="15.5434945"><ele>448.0</ele><time>2026-05-03T02:58:04.889Z</time></trkpt><trkpt lat="40.4490222" lon="15.543499"><ele>447.99999999999994</ele><time>2026-05-03T02:58:24.891Z</time></trkpt><trkpt lat="40.4489239" lon="15.5435247"><ele>447.99999999999994</ele><time>2026-05-03T02:58:43.891Z</time></trkpt><trkpt lat="40.4488192" lon="15.5436207"><ele>448.0</ele><time>2026-05-03T02:59:55.891Z</time></trkpt><trkpt lat="40.4487544" lon="15.5437213"><ele>448.0</ele><time>2026-05-03T03:00:08.891Z</time></trkpt><trkpt lat="40.4488368" lon="15.5436723"><ele>448.0</ele><time>2026-05-03T03:01:08.891Z</time></trkpt><trkpt lat="40.448769" lon="15.5437154"><ele>447.99999999999994</ele><time>2026-05-03T03:01:26.89Z</time></trkpt><trkpt lat="40.4486896" lon="15.5437571"><ele>447.99999999999994</ele><time>2026-05-03T03:01:28.891Z</time></trkpt><trkpt lat="40.4486192" lon="15.5437862"><ele>448.0</ele><time>2026-05-03T03:01:32.89Z</time></trkpt><trkpt lat="40.4487157" lon="15.5437434"><ele>448.0</ele><time>2026-05-03T03:04:55.89Z</time></trkpt><trkpt lat="40.4485958" lon="15.5437936"><ele>448.0</ele><time>2026-05-03T03:05:30.89Z</time></trkpt><trkpt lat="40.4484812" lon="15.5438517"><ele>447.99999999999994</ele><time>2026-05-03T03:10:40.891Z</time></trkpt><trkpt lat="40.4485474" lon="15.5438274"><ele>447.99999999999994</ele><time>2026-05-03T03:10:50.891Z</time></trkpt><trkpt lat="40.4484764" lon="15.5438978"><ele>448.0</ele><time>2026-05-03T03:14:15.891Z</time></trkpt><trkpt lat="40.4485513" lon="15.5438345"><ele>448.0</ele><time>2026-05-03T03:15:22.892Z</time></trkpt><trkpt lat="40.4486365" lon="15.5437461"><ele>448.00000000000006</ele><time>2026-05-03T03:16:15.892Z</time></trkpt><trkpt lat="40.4487275" lon="15.5437308"><ele>448.0</ele><time>2026-05-03T03:16:31.892Z</time></trkpt><trkpt lat="40.4486414" lon="15.5437991"><ele>448.0</ele><time>2026-05-03T03:17:26.891Z</time></trkpt><trkpt lat="40.4486884" lon="15.5437421"><ele>448.0</ele><time>2026-05-03T03:17:46.892Z</time></trkpt><trkpt lat="40.4486304" lon="15.5437748"><ele>448.00000000000006</ele><time>2026-05-03T03:17:59.892Z</time></trkpt><trkpt lat="40.4485716" lon="15.5438238"><ele>448.0</ele><time>2026-05-03T03:18:01.892Z</time></trkpt><trkpt lat="40.4485241" lon="15.5437331"><ele>448.0</ele><time>2026-05-03T03:18:28.892Z</time></trkpt><trkpt lat="40.4486199" lon="15.5436488"><ele>447.99999999999994</ele><time>2026-05-03T03:18:48.892Z</time></trkpt><trkpt lat="40.448678" lon="15.5437363"><ele>447.99999999999994</ele><time>2026-05-03T03:19:24.892Z</time></trkpt><trkpt lat="40.4485959" lon="15.5438118"><ele>448.0</ele><time>2026-05-03T03:19:32.891Z</time></trkpt><trkpt lat="40.448547" lon="15.5437484"><ele>448.0</ele><time>2026-05-03T03:19:55.892Z</time></trkpt><trkpt lat="40.4484939" lon="15.5436475"><ele>448.00000000000006</ele><time>2026-05-03T03:21:09.892Z</time></trkpt><trkpt lat="40.4484701" lon="15.5435649"><ele>448.0</ele><time>2026-05-03T03:21:12.892Z</time></trkpt><trkpt lat="40.4485514" lon="15.5436545"><ele>448.0</ele><time>2026-05-03T03:21:17.891Z</time></trkpt><trkpt lat="40.4486235" lon="15.5437007"><ele>448.0</ele><time>2026-05-03T03:21:22.892Z</time></trkpt><trkpt lat="40.4486874" lon="15.5437582"><ele>448.00000000000006</ele><time>2026-05-03T03:21:27.892Z</time></trkpt><trkpt lat="40.4486087" lon="15.5437525"><ele>448.0</ele><time>2026-05-03T03:21:30.892Z</time></trkpt><trkpt lat="40.4487046" lon="15.5439447"><ele>448.00000000000006</ele><time>2026-05-03T03:21:34.891Z</time></trkpt><trkpt lat="40.4487819" lon="15.5440402"><ele>448.0</ele><time>2026-05-03T03:21:35.892Z</time></trkpt><trkpt lat="40.4487117" lon="15.5440163"><ele>448.0</ele><time>2026-05-03T03:21:47.892Z</time></trkpt><trkpt lat="40.4486532" lon="15.5439427"><ele>448.0</ele><time>2026-05-03T03:21:51.891Z</time></trkpt><trkpt lat="40.4485816" lon="15.5439071"><ele>448.00000000000006</ele><time>2026-05-03T03:21:58.892Z</time></trkpt><trkpt lat="40.448517" lon="15.5439031"><ele>448.0</ele><time>2026-05-03T03:22:02.892Z</time></trkpt><trkpt lat="40.448441" lon="15.5439173"><ele>448.00000000000006</ele><time>2026-05-03T03:22:33.892Z</time></trkpt><trkpt lat="40.4483808" lon="15.5439417"><ele>448.0</ele><time>2026-05-03T03:22:36.891Z</time></trkpt><trkpt lat="40.4484552" lon="15.5438801"><ele>448.0</ele><time>2026-05-03T03:22:46.892Z</time></trkpt><trkpt lat="40.4485316" lon="15.5438351"><ele>448.0</ele><time>2026-05-03T03:24:07.891Z</time></trkpt><trkpt lat="40.4486382" lon="15.5437703"><ele>448.00000000000006</ele><time>2026-05-03T03:24:46.892Z</time></trkpt><trkpt lat="40.4486275" lon="15.5436851"><ele>448.0</ele><time>2026-05-03T03:26:37.892Z</time></trkpt><trkpt lat="40.4487161" lon="15.5436626"><ele>448.0</ele><time>2026-05-03T03:26:52.892Z</time></trkpt><trkpt lat="40.4486608" lon="15.5437352"><ele>447.99999999999994</ele><time>2026-05-03T03:27:05.892Z</time></trkpt><trkpt lat="40.4487545" lon="15.5437543"><ele>447.99999999999994</ele><time>2026-05-03T03:27:45.893Z</time></trkpt><trkpt lat="40.4488499" lon="15.5436596"><ele>448.0</ele><time>2026-05-03T03:28:48.892Z</time></trkpt><trkpt lat="40.4487786" lon="15.5437109"><ele>448.0</ele><time>2026-05-03T03:29:20.893Z</time></trkpt><trkpt lat="40.4486963" lon="15.5437617"><ele>448.0</ele><time>2026-05-03T03:30:26.893Z</time></trkpt><trkpt lat="40.4486305" lon="15.5437952"><ele>448.0</ele><time>2026-05-03T03:31:14.893Z</time></trkpt><trkpt lat="40.4485946" lon="15.5438691"><ele>448.0</ele><time>2026-05-03T03:31:35.892Z</time></trkpt><trkpt lat="40.4485241" lon="15.5438662"><ele>448.0</ele><time>2026-05-03T03:32:04.893Z</time></trkpt><trkpt lat="40.4485822" lon="15.5438234"><ele>448.0</ele><time>2026-05-03T03:32:07.893Z</time></trkpt><trkpt lat="40.4486648" lon="15.5437987"><ele>448.0</ele><time>2026-05-03T03:33:27.893Z</time></trkpt><trkpt lat="40.4486042" lon="15.5438545"><ele>448.0</ele><time>2026-05-03T03:33:45.893Z</time></trkpt><trkpt lat="40.4484739" lon="15.5439132"><ele>448.00000000000006</ele><time>2026-05-03T03:34:01.893Z</time></trkpt><trkpt lat="40.4484601" lon="15.5437987"><ele>448.0</ele><time>2026-05-03T03:34:21.893Z</time></trkpt><trkpt lat="40.4485658" lon="15.5437408"><ele>448.0</ele><time>2026-05-03T03:34:28.893Z</time></trkpt><trkpt lat="40.4485165" lon="15.543832"><ele>448.0</ele><time>2026-05-03T03:35:43.892Z</time></trkpt><trkpt lat="40.44848" lon="15.5439116"><ele>448.00000000000006</ele><time>2026-05-03T03:35:49.893Z</time></trkpt><trkpt lat="40.4485454" lon="15.5438652"><ele>448.0</ele><time>2026-05-03T03:36:00.893Z</time></trkpt><trkpt lat="40.4486015" lon="15.5438127"><ele>448.00000000000006</ele><time>2026-05-03T03:36:02.893Z</time></trkpt><trkpt lat="40.4485534" lon="15.5438752"><ele>448.0</ele><time>2026-05-03T03:36:24.893Z</time></trkpt><trkpt lat="40.4484625" lon="15.543915"><ele>448.0</ele><time>2026-05-03T03:36:49.893Z</time></trkpt><trkpt lat="40.4484166" lon="15.5439764"><ele>448.0</ele><time>2026-05-03T03:36:52.893Z</time></trkpt><trkpt lat="40.4483292" lon="15.5440772"><ele>448.00000000000006</ele><time>2026-05-03T03:37:14.893Z</time></trkpt><trkpt lat="40.4482529" lon="15.5441414"><ele>448.0</ele><time>2026-05-03T03:37:15.893Z</time></trkpt><trkpt lat="40.4481848" lon="15.5441908"><ele>448.00000000000006</ele><time>2026-05-03T03:37:18.893Z</time></trkpt><trkpt lat="40.4482371" lon="15.5440978"><ele>448.0</ele><time>2026-05-03T03:37:32.893Z</time></trkpt><trkpt lat="40.4482936" lon="15.5440366"><ele>448.0</ele><time>2026-05-03T03:37:34.892Z</time></trkpt><trkpt lat="40.448366" lon="15.543947"><ele>448.0</ele><time>2026-05-03T03:37:57.893Z</time></trkpt><trkpt lat="40.4484359" lon="15.5438875"><ele>448.00000000000006</ele><time>2026-05-03T03:37:59.893Z</time></trkpt><trkpt lat="40.4485178" lon="15.5438271"><ele>448.0</ele><time>2026-05-03T03:38:02.892Z</time></trkpt><trkpt lat="40.4485878" lon="15.5437846"><ele>448.00000000000006</ele><time>2026-05-03T03:38:04.893Z</time></trkpt><trkpt lat="40.448655" lon="15.5437584"><ele>448.0</ele><time>2026-05-03T03:38:07.892Z</time></trkpt><trkpt lat="40.4487015" lon="15.5436961"><ele>448.0</ele><time>2026-05-03T03:38:14.893Z</time></trkpt><trkpt lat="40.4487246" lon="15.5437795"><ele>448.0</ele><time>2026-05-03T03:39:10.893Z</time></trkpt><trkpt lat="40.4485973" lon="15.5438448"><ele>448.00000000000006</ele><time>2026-05-03T03:39:59.893Z</time></trkpt><trkpt lat="40.4485479" lon="15.5439047"><ele>448.0</ele><time>2026-05-03T03:40:32.892Z</time></trkpt><trkpt lat="40.4485209" lon="15.5439896"><ele>448.00000000000006</ele><time>2026-05-03T03:40:40.892Z</time></trkpt><trkpt lat="40.4484273" lon="15.5440177"><ele>448.0</ele><time>2026-05-03T03:40:48.893Z</time></trkpt><trkpt lat="40.4483514" lon="15.5440373"><ele>448.0</ele><time>2026-05-03T03:40:57.892Z</time></trkpt><trkpt lat="40.4482988" lon="15.5441022"><ele>448.0</ele><time>2026-05-03T03:41:03.893Z</time></trkpt><trkpt lat="40.4484066" lon="15.5440289"><ele>448.00000000000006</ele><time>2026-05-03T03:41:11.893Z</time></trkpt><trkpt lat="40.4483415" lon="15.5440829"><ele>448.0</ele><time>2026-05-03T03:41:12.893Z</time></trkpt><trkpt lat="40.4484443" lon="15.5440556"><ele>448.0</ele><time>2026-05-03T03:41:55.892Z</time></trkpt><trkpt lat="40.4484121" lon="15.5439758"><ele>447.99999999999994</ele><time>2026-05-03T03:42:03.893Z</time></trkpt><trkpt lat="40.4485019" lon="15.5438453"><ele>447.99999999999994</ele><time>2026-05-03T03:42:20.893Z</time></trkpt><trkpt lat="40.4484006" lon="15.5438298"><ele>448.0</ele><time>2026-05-03T03:42:21.893Z</time></trkpt><trkpt lat="40.4485055" lon="15.5438325"><ele>448.0</ele><time>2026-05-03T03:42:22.892Z</time></trkpt><trkpt lat="40.4484451" lon="15.5437592"><ele>448.00000000000006</ele><time>2026-05-03T03:42:28.893Z</time></trkpt><trkpt lat="40.4485278" lon="15.5437672"><ele>448.0</ele><time>2026-05-03T03:42:34.894Z</time></trkpt><trkpt lat="40.4484467" lon="15.5437741"><ele>448.0</ele><time>2026-05-03T03:42:41.894Z</time></trkpt><trkpt lat="40.4483599" lon="15.5437121"><ele>448.0</ele><time>2026-05-03T03:43:00.894Z</time></trkpt><trkpt lat="40.4482903" lon="15.5437507"><ele>448.00000000000006</ele><time>2026-05-03T03:43:03.894Z</time></trkpt><trkpt lat="40.4482308" lon="15.543801"><ele>448.0</ele><time>2026-05-03T03:43:07.893Z</time></trkpt><trkpt lat="40.4481526" lon="15.5439185"><ele>448.00000000000006</ele><time>2026-05-03T03:43:15.894Z</time></trkpt><trkpt lat="40.4480875" lon="15.5439703"><ele>448.0</ele><time>2026-05-03T03:43:16.894Z</time></trkpt><trkpt lat="40.4480128" lon="15.5439935"><ele>448.0</ele><time>2026-05-03T03:43:18.894Z</time></trkpt><trkpt lat="40.4479614" lon="15.5440566"><ele>448.0</ele><time>2026-05-03T03:43:24.893Z</time></trkpt><trkpt lat="40.448032" lon="15.5440468"><ele>448.00000000000006</ele><time>2026-05-03T03:43:27.894Z</time></trkpt><trkpt lat="40.4481401" lon="15.5439694"><ele>448.0</ele><time>2026-05-03T03:43:36.894Z</time></trkpt><trkpt lat="40.4482234" lon="15.5439079"><ele>448.0</ele><time>2026-05-03T03:43:41.894Z</time></trkpt><trkpt lat="40.4482922" lon="15.5438917"><ele>447.99999999999994</ele><time>2026-05-03T03:43:46.894Z</time></trkpt><trkpt lat="40.4484182" lon="15.5439098"><ele>447.99999999999994</ele><time>2026-05-03T03:44:04.893Z</time></trkpt><trkpt lat="40.4485091" lon="15.5438232"><ele>448.0</ele><time>2026-05-03T03:44:13.893Z</time></trkpt><trkpt lat="40.4485962" lon="15.5437983"><ele>448.0</ele><time>2026-05-03T03:44:20.894Z</time></trkpt><trkpt lat="40.4486608" lon="15.5437855"><ele>448.00000000000006</ele><time>2026-05-03T03:44:23.894Z</time></trkpt><trkpt lat="40.4485731" lon="15.543847"><ele>448.0</ele><time>2026-05-03T03:45:15.894Z</time></trkpt><trkpt lat="40.4486327" lon="15.5438098"><ele>448.0</ele><time>2026-05-03T03:46:33.894Z</time></trkpt><trkpt lat="40.4485858" lon="15.5438793"><ele>448.0</ele><time>2026-05-03T03:48:27.893Z</time></trkpt><trkpt lat="40.4484757" lon="15.5438984"><ele>448.00000000000006</ele><time>2026-05-03T03:49:01.894Z</time></trkpt><trkpt lat="40.4484027" lon="15.5438852"><ele>448.0</ele><time>2026-05-03T03:49:49.894Z</time></trkpt><trkpt lat="40.4485023" lon="15.5438486"><ele>448.0</ele><time>2026-05-03T03:50:09.894Z</time></trkpt><trkpt lat="40.448568" lon="15.5438447"><ele>448.0</ele><time>2026-05-03T03:50:12.893Z</time></trkpt><trkpt lat="40.4486387" lon="15.5438337"><ele>448.0</ele><time>2026-05-03T03:50:17.894Z</time></trkpt><trkpt lat="40.4486936" lon="15.5437823"><ele>448.0</ele><time>2026-05-03T03:50:32.894Z</time></trkpt><trkpt lat="40.4487623" lon="15.5438267"><ele>448.0</ele><time>2026-05-03T03:50:54.894Z</time></trkpt><trkpt lat="40.4488393" lon="15.5438429"><ele>448.0</ele><time>2026-05-03T03:50:56.894Z</time></trkpt><trkpt lat="40.4489186" lon="15.5438508"><ele>448.0</ele><time>2026-05-03T03:51:00.894Z</time></trkpt><trkpt lat="40.4487954" lon="15.5438551"><ele>448.0</ele><time>2026-05-03T03:51:15.894Z</time></trkpt><trkpt lat="40.4486905" lon="15.5438032"><ele>447.99999999999994</ele><time>2026-05-03T03:51:20.894Z</time></trkpt><trkpt lat="40.4485738" lon="15.5438355"><ele>447.99999999999994</ele><time>2026-05-03T03:51:46.894Z</time></trkpt><trkpt lat="40.44863" lon="15.5437771"><ele>448.0</ele><time>2026-05-03T03:52:02.894Z</time></trkpt><trkpt lat="40.448617" lon="15.5438581"><ele>448.0</ele><time>2026-05-03T03:52:53.894Z</time></trkpt><trkpt lat="40.4485459" lon="15.5437931"><ele>448.00000000000006</ele><time>2026-05-03T03:54:17.893Z</time></trkpt><trkpt lat="40.4484661" lon="15.5437991"><ele>448.0</ele><time>2026-05-03T03:54:26.894Z</time></trkpt><trkpt lat="40.4483907" lon="15.5438477"><ele>448.0</ele><time>2026-05-03T03:54:41.893Z</time></trkpt><trkpt lat="40.448331" lon="15.5438996"><ele>448.0</ele><time>2026-05-03T03:55:08.894Z</time></trkpt><trkpt lat="40.448262" lon="15.5439464"><ele>448.00000000000006</ele><time>2026-05-03T03:55:13.893Z</time></trkpt><trkpt lat="40.4483282" lon="15.5439603"><ele>448.0</ele><time>2026-05-03T03:55:34.894Z</time></trkpt><trkpt lat="40.4483974" lon="15.5439149"><ele>448.0</ele><time>2026-05-03T03:55:42.894Z</time></trkpt><trkpt lat="40.4485316" lon="15.5438393"><ele>447.99999999999994</ele><time>2026-05-03T03:55:50.894Z</time></trkpt><trkpt lat="40.4485962" lon="15.5438116"><ele>447.99999999999994</ele><time>2026-05-03T03:55:52.893Z</time></trkpt><trkpt lat="40.4486949" lon="15.543752"><ele>448.0</ele><time>2026-05-03T03:55:58.893Z</time></trkpt><trkpt lat="40.4487534" lon="15.5437078"><ele>448.0</ele><time>2026-05-03T03:57:21.895Z</time></trkpt><trkpt lat="40.4486972" lon="15.5436653"><ele>448.00000000000006</ele><time>2026-05-03T03:57:46.895Z</time></trkpt><trkpt lat="40.4486482" lon="15.5437316"><ele>448.0</ele><time>2026-05-03T03:58:25.895Z</time></trkpt><trkpt lat="40.4486349" lon="15.5438256"><ele>448.0</ele><time>2026-05-03T03:59:04.895Z</time></trkpt><trkpt lat="40.4487286" lon="15.5438848"><ele>448.0</ele><time>2026-05-03T03:59:22.895Z</time></trkpt><trkpt lat="40.4486393" lon="15.5439242"><ele>448.00000000000006</ele><time>2026-05-03T03:59:48.895Z</time></trkpt><trkpt lat="40.4485423" lon="15.5439713"><ele>448.0</ele><time>2026-05-03T04:00:16.895Z</time></trkpt><trkpt lat="40.4484613" lon="15.5440354"><ele>448.00000000000006</ele><time>2026-05-03T04:00:28.895Z</time></trkpt><trkpt lat="40.4484087" lon="15.5441116"><ele>448.0</ele><time>2026-05-03T04:00:32.895Z</time></trkpt><trkpt lat="40.4483924" lon="15.5440138"><ele>448.0</ele><time>2026-05-03T04:01:10.895Z</time></trkpt><trkpt lat="40.4484087" lon="15.5439309"><ele>448.0</ele><time>2026-05-03T04:01:16.894Z</time></trkpt><trkpt lat="40.4485083" lon="15.5438445"><ele>448.00000000000006</ele><time>2026-05-03T04:01:21.895Z</time></trkpt><trkpt lat="40.4485651" lon="15.5437883"><ele>448.0</ele><time>2026-05-03T04:01:25.895Z</time></trkpt><trkpt lat="40.4485082" lon="15.5438482"><ele>448.0</ele><time>2026-05-03T04:01:42.894Z</time></trkpt><trkpt lat="40.4484382" lon="15.5438972"><ele>447.99999999999994</ele><time>2026-05-03T04:01:49.895Z</time></trkpt><trkpt lat="40.4484515" lon="15.5438161"><ele>447.99999999999994</ele><time>2026-05-03T04:02:15.895Z</time></trkpt><trkpt lat="40.4485659" lon="15.54376"><ele>448.0</ele><time>2026-05-03T04:02:29.895Z</time></trkpt><trkpt lat="40.4486655" lon="15.5438008"><ele>448.0</ele><time>2026-05-03T04:02:30.894Z</time></trkpt><trkpt lat="40.4487419" lon="15.5438359"><ele>448.0</ele><time>2026-05-03T04:02:32.894Z</time></trkpt><trkpt lat="40.4485791" lon="15.5437146"><ele>447.99999999999994</ele><time>2026-05-03T04:02:36.895Z</time></trkpt><trkpt lat="40.4486734" lon="15.5437436"><ele>447.99999999999994</ele><time>2026-05-03T04:02:41.895Z</time></trkpt><trkpt lat="40.4487466" lon="15.5437478"><ele>448.0</ele><time>2026-05-03T04:02:45.895Z</time></trkpt><trkpt lat="40.4486751" lon="15.5437214"><ele>448.0</ele><time>2026-05-03T04:02:51.895Z</time></trkpt><trkpt lat="40.448578" lon="15.543687"><ele>448.00000000000006</ele><time>2026-05-03T04:02:52.895Z</time></trkpt><trkpt lat="40.4484993" lon="15.5437597"><ele>448.0</ele><time>2026-05-03T04:02:54.895Z</time></trkpt><trkpt lat="40.4484369" lon="15.5437843"><ele>448.0</ele><time>2026-05-03T04:02:58.894Z</time></trkpt><trkpt lat="40.4484048" lon="15.5437131"><ele>448.0</ele><time>2026-05-03T04:03:02.895Z</time></trkpt><trkpt lat="40.4484853" lon="15.5437138"><ele>448.00000000000006</ele><time>2026-05-03T04:03:03.895Z</time></trkpt><trkpt lat="40.4483991" lon="15.5437646"><ele>448.0</ele><time>2026-05-03T04:03:06.895Z</time></trkpt><trkpt lat="40.4485297" lon="15.543818"><ele>448.0</ele><time>2026-05-03T04:03:38.895Z</time></trkpt><trkpt lat="40.4482972" lon="15.5438959"><ele>448.0</ele><time>2026-05-03T04:03:39.895Z</time></trkpt><trkpt lat="40.448241" lon="15.5439415"><ele>448.0</ele><time>2026-05-03T04:03:41.895Z</time></trkpt><trkpt lat="40.4482" lon="15.5440218"><ele>448.0</ele><time>2026-05-03T04:03:46.895Z</time></trkpt><trkpt lat="40.4484022" lon="15.5439457"><ele>448.0</ele><time>2026-05-03T04:03:48.894Z</time></trkpt><trkpt lat="40.4485553" lon="15.5438842"><ele>448.0</ele><time>2026-05-03T04:03:49.895Z</time></trkpt><trkpt lat="40.4486412" lon="15.5438513"><ele>448.0</ele><time>2026-05-03T04:03:50.895Z</time></trkpt><trkpt lat="40.448709" lon="15.5438258"><ele>448.0</ele><time>2026-05-03T04:03:52.894Z</time></trkpt><trkpt lat="40.4482724" lon="15.5440142"><ele>448.0</ele><time>2026-05-03T04:03:53.894Z</time></trkpt><trkpt lat="40.4483466" lon="15.5439786"><ele>447.99999999999994</ele><time>2026-05-03T04:04:09.895Z</time></trkpt><trkpt lat="40.4484152" lon="15.5439808"><ele>447.99999999999994</ele><time>2026-05-03T04:04:29.895Z</time></trkpt><trkpt lat="40.4483316" lon="15.5440097"><ele>448.0</ele><time>2026-05-03T04:04:52.895Z</time></trkpt><trkpt lat="40.4482536" lon="15.5440564"><ele>448.0</ele><time>2026-05-03T04:05:14.895Z</time></trkpt><trkpt lat="40.4484013" lon="15.5439736"><ele>448.0</ele><time>2026-05-03T04:05:17.894Z</time></trkpt><trkpt lat="40.4482246" lon="15.5440829"><ele>448.0</ele><time>2026-05-03T04:05:18.895Z</time></trkpt><trkpt lat="40.4483831" lon="15.5439933"><ele>448.0</ele><time>2026-05-03T04:05:29.895Z</time></trkpt><trkpt lat="40.4484574" lon="15.543943"><ele>448.0</ele><time>2026-05-03T04:05:30.895Z</time></trkpt><trkpt lat="40.4482449" lon="15.5440782"><ele>448.0</ele><time>2026-05-03T04:05:31.894Z</time></trkpt><trkpt lat="40.4482803" lon="15.544007"><ele>448.0</ele><time>2026-05-03T04:07:21.895Z</time></trkpt><trkpt lat="40.4482192" lon="15.5439794"><ele>448.0</ele><time>2026-05-03T04:07:31.895Z</time></trkpt><trkpt lat="40.4482811" lon="15.5438956"><ele>448.0</ele><time>2026-05-03T04:07:33.895Z</time></trkpt><trkpt lat="40.448363" lon="15.5438224"><ele>447.99999999999994</ele><time>2026-05-03T04:07:35.895Z</time></trkpt><trkpt lat="40.4484349" lon="15.5437825"><ele>447.99999999999994</ele><time>2026-05-03T04:07:37.895Z</time></trkpt><trkpt lat="40.4485148" lon="15.5437519"><ele>448.0</ele><time>2026-05-03T04:07:50.895Z</time></trkpt><trkpt lat="40.4485834" lon="15.5438033"><ele>448.0</ele><time>2026-05-03T04:08:28.895Z</time></trkpt><trkpt lat="40.4486819" lon="15.543738"><ele>448.0</ele><time>2026-05-03T04:08:39.895Z</time></trkpt><trkpt lat="40.4487481" lon="15.5436666"><ele>447.99999999999994</ele><time>2026-05-03T04:08:46.895Z</time></trkpt><trkpt lat="40.4488111" lon="15.5436092"><ele>447.99999999999994</ele><time>2026-05-03T04:08:49.895Z</time></trkpt><trkpt lat="40.4488673" lon="15.543557"><ele>448.0</ele><time>2026-05-03T04:08:52.895Z</time></trkpt><trkpt lat="40.4487544" lon="15.543662"><ele>448.0</ele><time>2026-05-03T04:09:25.895Z</time></trkpt><trkpt lat="40.4486733" lon="15.5437091"><ele>448.00000000000006</ele><time>2026-05-03T04:10:20.895Z</time></trkpt><trkpt lat="40.4487052" lon="15.5437813"><ele>448.0</ele><time>2026-05-03T04:10:47.895Z</time></trkpt><trkpt lat="40.4486341" lon="15.543777"><ele>448.0</ele><time>2026-05-03T04:12:01.896Z</time></trkpt><trkpt lat="40.4485508" lon="15.5437867"><ele>448.0</ele><time>2026-05-03T04:12:42.896Z</time></trkpt><trkpt lat="40.4484484" lon="15.5438355"><ele>448.00000000000006</ele><time>2026-05-03T04:12:50.896Z</time></trkpt><trkpt lat="40.4483557" lon="15.5439089"><ele>448.0</ele><time>2026-05-03T04:14:20.896Z</time></trkpt><trkpt lat="40.4484415" lon="15.5439001"><ele>448.0</ele><time>2026-05-03T04:14:54.896Z</time></trkpt><trkpt lat="40.4484014" lon="15.5439784"><ele>447.99999999999994</ele><time>2026-05-03T04:17:08.895Z</time></trkpt><trkpt lat="40.4483605" lon="15.544067"><ele>447.99999999999994</ele><time>2026-05-03T04:19:10.896Z</time></trkpt><trkpt lat="40.4483119" lon="15.5441334"><ele>448.0</ele><time>2026-05-03T04:19:19.896Z</time></trkpt><trkpt lat="40.44841" lon="15.5440572"><ele>448.0</ele><time>2026-05-03T04:19:31.896Z</time></trkpt><trkpt lat="40.448256" lon="15.5441822"><ele>448.0</ele><time>2026-05-03T04:19:34.895Z</time></trkpt><trkpt lat="40.4482993" lon="15.5440958"><ele>447.99999999999994</ele><time>2026-05-03T04:19:40.896Z</time></trkpt><trkpt lat="40.4483413" lon="15.5440162"><ele>447.99999999999994</ele><time>2026-05-03T04:19:43.896Z</time></trkpt><trkpt lat="40.4483742" lon="15.5439175"><ele>448.0</ele><time>2026-05-03T04:21:53.895Z</time></trkpt><trkpt lat="40.4485327" lon="15.5438074"><ele>448.0</ele><time>2026-05-03T04:22:46.895Z</time></trkpt><trkpt lat="40.4486344" lon="15.5437496"><ele>448.00000000000006</ele><time>2026-05-03T04:22:47.896Z</time></trkpt><trkpt lat="40.448567" lon="15.5437825"><ele>448.0</ele><time>2026-05-03T04:23:03.896Z</time></trkpt><trkpt lat="40.4486794" lon="15.5437579"><ele>448.0</ele><time>2026-05-03T04:24:18.896Z</time></trkpt><trkpt lat="40.4487684" lon="15.5437571"><ele>448.0</ele><time>2026-05-03T04:24:35.896Z</time></trkpt><trkpt lat="40.4488288" lon="15.5437291"><ele>448.00000000000006</ele><time>2026-05-03T04:24:38.896Z</time></trkpt><trkpt lat="40.448767" lon="15.5437506"><ele>448.0</ele><time>2026-05-03T04:24:49.896Z</time></trkpt><trkpt lat="40.4486588" lon="15.5437268"><ele>448.00000000000006</ele><time>2026-05-03T04:25:03.896Z</time></trkpt><trkpt lat="40.4485959" lon="15.5437219"><ele>448.0</ele><time>2026-05-03T04:25:08.896Z</time></trkpt><trkpt lat="40.4486747" lon="15.5437451"><ele>448.0</ele><time>2026-05-03T04:25:16.896Z</time></trkpt><trkpt lat="40.4486409" lon="15.5438354"><ele>448.0</ele><time>2026-05-03T04:25:34.895Z</time></trkpt><trkpt lat="40.4485779" lon="15.5438247"><ele>448.00000000000006</ele><time>2026-05-03T04:25:39.895Z</time></trkpt><trkpt lat="40.4484874" lon="15.5438653"><ele>448.0</ele><time>2026-05-03T04:27:32.896Z</time></trkpt><trkpt lat="40.448414" lon="15.5439281"><ele>448.0</ele><time>2026-05-03T04:27:46.897Z</time></trkpt><trkpt lat="40.4484805" lon="15.5438756"><ele>448.0</ele><time>2026-05-03T04:28:01.896Z</time></trkpt><trkpt lat="40.4484228" lon="15.5439251"><ele>448.0</ele><time>2026-05-03T04:28:24.896Z</time></trkpt><trkpt lat="40.4483587" lon="15.5439602"><ele>448.0</ele><time>2026-05-03T04:28:56.896Z</time></trkpt><trkpt lat="40.4484112" lon="15.5439056"><ele>448.0</ele><time>2026-05-03T04:29:16.896Z</time></trkpt><trkpt lat="40.4483369" lon="15.543946"><ele>448.0</ele><time>2026-05-03T04:29:40.897Z</time></trkpt><trkpt lat="40.4482869" lon="15.5440069"><ele>448.0</ele><time>2026-05-03T04:29:45.897Z</time></trkpt><trkpt lat="40.4482265" lon="15.5440683"><ele>448.0</ele><time>2026-05-03T04:29:51.897Z</time></trkpt><trkpt lat="40.4482922" lon="15.5440353"><ele>447.99999999999994</ele><time>2026-05-03T04:30:40.897Z</time></trkpt><trkpt lat="40.4482291" lon="15.5440528"><ele>447.99999999999994</ele><time>2026-05-03T04:31:27.897Z</time></trkpt><trkpt lat="40.4483091" lon="15.543979"><ele>448.0</ele><time>2026-05-03T04:31:54.897Z</time></trkpt><trkpt lat="40.448385" lon="15.5439054"><ele>448.0</ele><time>2026-05-03T04:32:31.896Z</time></trkpt><trkpt lat="40.4485048" lon="15.5438436"><ele>448.00000000000006</ele><time>2026-05-03T04:32:50.896Z</time></trkpt><trkpt lat="40.4484118" lon="15.5438893"><ele>448.0</ele><time>2026-05-03T04:33:26.897Z</time></trkpt><trkpt lat="40.4484875" lon="15.5438549"><ele>448.0</ele><time>2026-05-03T04:33:53.896Z</time></trkpt><trkpt lat="40.4485692" lon="15.5438172"><ele>448.0</ele><time>2026-05-03T04:34:18.897Z</time></trkpt><trkpt lat="40.4486183" lon="15.5437393"><ele>448.00000000000006</ele><time>2026-05-03T04:34:39.896Z</time></trkpt><trkpt lat="40.4485302" lon="15.5437875"><ele>448.0</ele><time>2026-05-03T04:37:27.897Z</time></trkpt><trkpt lat="40.4486198" lon="15.5437744"><ele>448.00000000000006</ele><time>2026-05-03T04:38:30.897Z</time></trkpt><trkpt lat="40.4486918" lon="15.5438344"><ele>448.0</ele><time>2026-05-03T04:38:34.897Z</time></trkpt><trkpt lat="40.4487574" lon="15.5438498"><ele>448.0</ele><time>2026-05-03T04:38:45.897Z</time></trkpt><trkpt lat="40.4487764" lon="15.5437572"><ele>448.0</ele><time>2026-05-03T04:38:54.897Z</time></trkpt><trkpt lat="40.4487609" lon="15.5436592"><ele>448.00000000000006</ele><time>2026-05-03T04:39:08.897Z</time></trkpt><trkpt lat="40.4486992" lon="15.5436971"><ele>448.0</ele><time>2026-05-03T04:39:19.897Z</time></trkpt><trkpt lat="40.4485911" lon="15.5438026"><ele>448.00000000000006</ele><time>2026-05-03T04:39:39.896Z</time></trkpt><trkpt lat="40.4486674" lon="15.5437313"><ele>448.0</ele><time>2026-05-03T04:43:12.898Z</time></trkpt><trkpt lat="40.4487025" lon="15.5438358"><ele>448.0</ele><time>2026-05-03T04:44:47.897Z</time></trkpt><trkpt lat="40.448782" lon="15.5438424"><ele>448.0</ele><time>2026-05-03T04:44:51.898Z</time></trkpt><trkpt lat="40.4487379" lon="15.543778"><ele>448.00000000000006</ele><time>2026-05-03T04:45:28.898Z</time></trkpt><trkpt lat="40.4486568" lon="15.543797"><ele>448.0</ele><time>2026-05-03T04:45:31.897Z</time></trkpt><trkpt lat="40.4485686" lon="15.5438522"><ele>448.00000000000006</ele><time>2026-05-03T04:45:53.898Z</time></trkpt><trkpt lat="40.4486236" lon="15.5437912"><ele>448.0</ele><time>2026-05-03T04:46:51.897Z</time></trkpt><trkpt lat="40.4485613" lon="15.543717"><ele>448.0</ele><time>2026-05-03T04:47:48.897Z</time></trkpt><trkpt lat="40.4484895" lon="15.5436663"><ele>448.0</ele><time>2026-05-03T04:47:51.897Z</time></trkpt><trkpt lat="40.4483845" lon="15.5437318"><ele>448.00000000000006</ele><time>2026-05-03T04:48:41.897Z</time></trkpt><trkpt lat="40.4484554" lon="15.5437321"><ele>448.0</ele><time>2026-05-03T04:49:01.898Z</time></trkpt><trkpt lat="40.4485462" lon="15.5437166"><ele>448.00000000000006</ele><time>2026-05-03T04:49:19.898Z</time></trkpt><trkpt lat="40.4486387" lon="15.5437446"><ele>448.0</ele><time>2026-05-03T04:51:23.898Z</time></trkpt><trkpt lat="40.4486943" lon="15.5437881"><ele>448.0</ele><time>2026-05-03T04:51:28.898Z</time></trkpt><trkpt lat="40.4486111" lon="15.5437646"><ele>448.0</ele><time>2026-05-03T04:52:17.898Z</time></trkpt><trkpt lat="40.4486857" lon="15.5437132"><ele>448.00000000000006</ele><time>2026-05-03T04:55:11.898Z</time></trkpt><trkpt lat="40.4486128" lon="15.5437188"><ele>448.0</ele><time>2026-05-03T04:55:41.897Z</time></trkpt><trkpt lat="40.4486304" lon="15.5438172"><ele>448.00000000000006</ele><time>2026-05-03T04:56:08.897Z</time></trkpt><trkpt lat="40.4487134" lon="15.5437492"><ele>448.0</ele><time>2026-05-03T04:56:19.899Z</time></trkpt><trkpt lat="40.4486502" lon="15.5437466"><ele>448.0</ele><time>2026-05-03T04:56:31.899Z</time></trkpt><trkpt lat="40.4485714" lon="15.5437756"><ele>448.0</ele><time>2026-05-03T04:56:51.899Z</time></trkpt><trkpt lat="40.448636" lon="15.5437725"><ele>448.00000000000006</ele><time>2026-05-03T04:57:02.899Z</time></trkpt><trkpt lat="40.4486437" lon="15.543896"><ele>448.0</ele><time>2026-05-03T04:57:31.899Z</time></trkpt><trkpt lat="40.4487131" lon="15.5438326"><ele>448.00000000000006</ele><time>2026-05-03T04:58:23.899Z</time></trkpt><trkpt lat="40.4487709" lon="15.5437975"><ele>448.0</ele><time>2026-05-03T04:58:30.899Z</time></trkpt><trkpt lat="40.4486908" lon="15.5438142"><ele>448.0</ele><time>2026-05-03T04:58:53.898Z</time></trkpt><trkpt lat="40.4487491" lon="15.5438576"><ele>448.0</ele><time>2026-05-03T04:59:29.899Z</time></trkpt><trkpt lat="40.4486684" lon="15.5438702"><ele>448.00000000000006</ele><time>2026-05-03T05:00:33.898Z</time></trkpt><trkpt lat="40.4485659" lon="15.543873"><ele>448.0</ele><time>2026-05-03T05:01:31.899Z</time></trkpt><trkpt lat="40.4485808" lon="15.5437751"><ele>448.0</ele><time>2026-05-03T05:02:05.899Z</time></trkpt><trkpt lat="40.4486883" lon="15.5438044"><ele>447.99999999999994</ele><time>2026-05-03T05:02:16.899Z</time></trkpt><trkpt lat="40.4486668" lon="15.5438872"><ele>447.99999999999994</ele><time>2026-05-03T05:03:00.899Z</time></trkpt><trkpt lat="40.4486171" lon="15.5438265"><ele>448.0</ele><time>2026-05-03T05:03:20.899Z</time></trkpt><trkpt lat="40.4486962" lon="15.5437792"><ele>448.0</ele><time>2026-05-03T05:06:02.899Z</time></trkpt><trkpt lat="40.4485756" lon="15.5437944"><ele>448.0</ele><time>2026-05-03T05:15:49.899Z</time></trkpt><trkpt lat="40.4485892" lon="15.5439137"><ele>447.99999999999994</ele><time>2026-05-03T05:16:27.9Z</time></trkpt><trkpt lat="40.4486875" lon="15.5437912"><ele>447.99999999999994</ele><time>2026-05-03T05:19:02.9Z</time></trkpt><trkpt lat="40.448616" lon="15.5438025"><ele>448.0</ele><time>2026-05-03T05:21:12.9Z</time></trkpt><trkpt lat="40.4486801" lon="15.5437385"><ele>448.0</ele><time>2026-05-03T05:22:36.9Z</time></trkpt><trkpt lat="40.4487722" lon="15.543675"><ele>448.00000000000006</ele><time>2026-05-03T05:25:02.9Z</time></trkpt><trkpt lat="40.4488355" lon="15.5436661"><ele>448.0</ele><time>2026-05-03T05:25:06.9Z</time></trkpt><trkpt lat="40.4488572" lon="15.5437524"><ele>448.0</ele><time>2026-05-03T05:25:45.901Z</time></trkpt><trkpt lat="40.4489194" lon="15.5437807"><ele>448.0</ele><time>2026-05-03T05:25:59.901Z</time></trkpt><trkpt lat="40.4488518" lon="15.5437865"><ele>448.00000000000006</ele><time>2026-05-03T05:26:32.901Z</time></trkpt><trkpt lat="40.4486828" lon="15.5438729"><ele>448.0</ele><time>2026-05-03T05:26:41.901Z</time></trkpt><trkpt lat="40.4486836" lon="15.5437856"><ele>448.00000000000006</ele><time>2026-05-03T05:30:27.901Z</time></trkpt><trkpt lat="40.4487456" lon="15.5437091"><ele>448.0</ele><time>2026-05-03T05:33:58.901Z</time></trkpt><trkpt lat="40.4487032" lon="15.5437845"><ele>448.0</ele><time>2026-05-03T05:34:15.901Z</time></trkpt><trkpt lat="40.4486637" lon="15.5438494"><ele>448.0</ele><time>2026-05-03T05:34:21.9Z</time></trkpt><trkpt lat="40.4487213" lon="15.5437573"><ele>448.00000000000006</ele><time>2026-05-03T05:34:55.901Z</time></trkpt><trkpt lat="40.4487887" lon="15.5436664"><ele>448.0</ele><time>2026-05-03T05:35:08.9Z</time></trkpt><trkpt lat="40.4487334" lon="15.5437253"><ele>448.00000000000006</ele><time>2026-05-03T05:35:49.901Z</time></trkpt><trkpt lat="40.4486544" lon="15.5438547"><ele>448.0</ele><time>2026-05-03T05:37:10.901Z</time></trkpt><trkpt lat="40.4485835" lon="15.5439443"><ele>448.0</ele><time>2026-05-03T05:39:25.901Z</time></trkpt><trkpt lat="40.4486545" lon="15.5438965"><ele>448.0</ele><time>2026-05-03T05:39:43.901Z</time></trkpt><trkpt lat="40.4487048" lon="15.5438165"><ele>448.00000000000006</ele><time>2026-05-03T05:40:36.902Z</time></trkpt><trkpt lat="40.4486438" lon="15.5438416"><ele>448.0</ele><time>2026-05-03T05:41:03.902Z</time></trkpt><trkpt lat="40.4487164" lon="15.5438475"><ele>448.0</ele><time>2026-05-03T05:41:41.902Z</time></trkpt><trkpt lat="40.4486355" lon="15.5439871"><ele>448.0</ele><time>2026-05-03T05:45:14.901Z</time></trkpt><trkpt lat="40.4487005" lon="15.5438715"><ele>448.0</ele><time>2026-05-03T05:45:29.902Z</time></trkpt><trkpt lat="40.4487457" lon="15.5437327"><ele>448.0</ele><time>2026-05-03T05:45:48.902Z</time></trkpt><trkpt lat="40.4486485" lon="15.5437811"><ele>448.00000000000006</ele><time>2026-05-03T05:46:07.901Z</time></trkpt><trkpt lat="40.4486058" lon="15.5438428"><ele>448.0</ele><time>2026-05-03T05:48:05.902Z</time></trkpt><trkpt lat="40.4485411" lon="15.5437957"><ele>448.0</ele><time>2026-05-03T05:48:35.902Z</time></trkpt><trkpt lat="40.4484602" lon="15.5438633"><ele>448.0</ele><time>2026-05-03T05:49:06.902Z</time></trkpt><trkpt lat="40.4485505" lon="15.5437987"><ele>448.00000000000006</ele><time>2026-05-03T05:49:25.901Z</time></trkpt><trkpt lat="40.4485892" lon="15.543706"><ele>448.0</ele><time>2026-05-03T05:49:29.902Z</time></trkpt><trkpt lat="40.448606" lon="15.5436149"><ele>448.0</ele><time>2026-05-03T05:49:35.902Z</time></trkpt><trkpt lat="40.4486738" lon="15.5436547"><ele>448.0</ele><time>2026-05-03T05:50:02.901Z</time></trkpt><trkpt lat="40.4487289" lon="15.5437165"><ele>448.0</ele><time>2026-05-03T05:50:12.902Z</time></trkpt><trkpt lat="40.4487244" lon="15.5438104"><ele>448.0</ele><time>2026-05-03T05:51:35.902Z</time></trkpt><trkpt lat="40.4487043" lon="15.5439228"><ele>448.0</ele><time>2026-05-03T05:52:06.902Z</time></trkpt><trkpt lat="40.448742" lon="15.5438486"><ele>448.0</ele><time>2026-05-03T05:53:01.902Z</time></trkpt><trkpt lat="40.448796" lon="15.5437928"><ele>448.0</ele><time>2026-05-03T05:53:06.902Z</time></trkpt><trkpt lat="40.4487984" lon="15.5436909"><ele>448.00000000000006</ele><time>2026-05-03T05:54:15.902Z</time></trkpt><trkpt lat="40.4487393" lon="15.5437624"><ele>448.0</ele><time>2026-05-03T05:54:52.903Z</time></trkpt><trkpt lat="40.4486349" lon="15.5438667"><ele>448.0</ele><time>2026-05-03T05:55:31.902Z</time></trkpt><trkpt lat="40.448677" lon="15.5439344"><ele>448.0</ele><time>2026-05-03T05:56:41.903Z</time></trkpt><trkpt lat="40.4486098" lon="15.5439391"><ele>448.00000000000006</ele><time>2026-05-03T05:57:06.903Z</time></trkpt><trkpt lat="40.4486327" lon="15.5438493"><ele>448.0</ele><time>2026-05-03T05:57:32.902Z</time></trkpt><trkpt lat="40.4486884" lon="15.5437846"><ele>448.00000000000006</ele><time>2026-05-03T05:57:35.903Z</time></trkpt><trkpt lat="40.4487526" lon="15.5437646"><ele>448.0</ele><time>2026-05-03T05:58:01.902Z</time></trkpt><trkpt lat="40.4487956" lon="15.5436745"><ele>448.0</ele><time>2026-05-03T05:58:28.903Z</time></trkpt><trkpt lat="40.4487075" lon="15.5436713"><ele>448.0</ele><time>2026-05-03T05:59:59.903Z</time></trkpt><trkpt lat="40.4486003" lon="15.5437426"><ele>448.00000000000006</ele><time>2026-05-03T06:00:13.902Z</time></trkpt><trkpt lat="40.4485409" lon="15.5437942"><ele>448.0</ele><time>2026-05-03T06:00:36.902Z</time></trkpt><trkpt lat="40.4486383" lon="15.5437196"><ele>448.0</ele><time>2026-05-03T06:01:07.903Z</time></trkpt><trkpt lat="40.448729" lon="15.5437383"><ele>448.0</ele><time>2026-05-03T06:01:38.902Z</time></trkpt><trkpt lat="40.4486666" lon="15.5437121"><ele>448.0</ele><time>2026-05-03T06:04:25.903Z</time></trkpt><trkpt lat="40.4486102" lon="15.5437625"><ele>448.0</ele><time>2026-05-03T06:06:07.902Z</time></trkpt><trkpt lat="40.4486833" lon="15.5437393"><ele>448.0</ele><time>2026-05-03T06:06:32.903Z</time></trkpt><trkpt lat="40.448622" lon="15.5437827"><ele>448.0</ele><time>2026-05-03T06:07:13.902Z</time></trkpt><trkpt lat="40.4485578" lon="15.5437863"><ele>448.0</ele><time>2026-05-03T06:08:24.903Z</time></trkpt><trkpt lat="40.4484759" lon="15.5438304"><ele>448.00000000000006</ele><time>2026-05-03T06:11:24.903Z</time></trkpt><trkpt lat="40.4485756" lon="15.5438533"><ele>448.0</ele><time>2026-05-03T06:12:43.903Z</time></trkpt><trkpt lat="40.4485209" lon="15.5439074"><ele>448.0</ele><time>2026-05-03T06:13:01.904Z</time></trkpt><trkpt lat="40.4486182" lon="15.5438273"><ele>448.0</ele><time>2026-05-03T06:13:53.904Z</time></trkpt><trkpt lat="40.4486763" lon="15.5437868"><ele>448.00000000000006</ele><time>2026-05-03T06:14:01.904Z</time></trkpt><trkpt lat="40.4486057" lon="15.5438348"><ele>448.0</ele><time>2026-05-03T06:14:22.904Z</time></trkpt><trkpt lat="40.4485267" lon="15.543899"><ele>448.0</ele><time>2026-05-03T06:15:01.903Z</time></trkpt><trkpt lat="40.4485931" lon="15.5438803"><ele>448.0</ele><time>2026-05-03T06:15:29.904Z</time></trkpt><trkpt lat="40.4486704" lon="15.5438337"><ele>448.0</ele><time>2026-05-03T06:15:33.904Z</time></trkpt><trkpt lat="40.4487156" lon="15.5437711"><ele>448.0</ele><time>2026-05-03T06:16:00.904Z</time></trkpt><trkpt lat="40.4487333" lon="15.54369"><ele>448.0</ele><time>2026-05-03T06:18:23.904Z</time></trkpt><trkpt lat="40.4486735" lon="15.5437281"><ele>448.0</ele><time>2026-05-03T06:18:35.904Z</time></trkpt><trkpt lat="40.4485928" lon="15.543802"><ele>448.0</ele><time>2026-05-03T06:18:45.904Z</time></trkpt><trkpt lat="40.4486426" lon="15.5437486"><ele>448.00000000000006</ele><time>2026-05-03T06:19:25.903Z</time></trkpt><trkpt lat="40.4485816" lon="15.5438066"><ele>448.0</ele><time>2026-05-03T06:19:56.904Z</time></trkpt><trkpt lat="40.4486467" lon="15.5437338"><ele>448.0</ele><time>2026-05-03T06:20:09.903Z</time></trkpt><trkpt lat="40.4487195" lon="15.543749"><ele>448.0</ele><time>2026-05-03T06:22:43.904Z</time></trkpt><trkpt lat="40.4487977" lon="15.5436747"><ele>448.00000000000006</ele><time>2026-05-03T06:23:09.905Z</time></trkpt><trkpt lat="40.4487353" lon="15.5436993"><ele>448.0</ele><time>2026-05-03T06:23:19.905Z</time></trkpt><trkpt lat="40.4486747" lon="15.5437499"><ele>448.0</ele><time>2026-05-03T06:23:34.904Z</time></trkpt><trkpt lat="40.448738" lon="15.5437233"><ele>447.99999999999994</ele><time>2026-05-03T06:24:15.905Z</time></trkpt><trkpt lat="40.4486726" lon="15.5437551"><ele>447.99999999999994</ele><time>2026-05-03T06:25:30.905Z</time></trkpt><trkpt lat="40.4487869" lon="15.5437323"><ele>448.0</ele><time>2026-05-03T06:25:50.904Z</time></trkpt><trkpt lat="40.4486566" lon="15.5438154"><ele>448.0</ele><time>2026-05-03T06:26:35.905Z</time></trkpt><trkpt lat="40.4487211" lon="15.5438276"><ele>448.00000000000006</ele><time>2026-05-03T06:27:50.905Z</time></trkpt><trkpt lat="40.4487886" lon="15.5437455"><ele>448.0</ele><time>2026-05-03T06:28:09.905Z</time></trkpt><trkpt lat="40.4488257" lon="15.5436681"><ele>448.0</ele><time>2026-05-03T06:28:12.905Z</time></trkpt><trkpt lat="40.4488715" lon="15.543611"><ele>448.0</ele><time>2026-05-03T06:28:16.904Z</time></trkpt><trkpt lat="40.4489225" lon="15.543535"><ele>448.00000000000006</ele><time>2026-05-03T06:28:37.905Z</time></trkpt><trkpt lat="40.4488723" lon="15.5435873"><ele>448.0</ele><time>2026-05-03T06:29:48.905Z</time></trkpt><trkpt lat="40.4487915" lon="15.543685"><ele>448.00000000000006</ele><time>2026-05-03T06:30:12.905Z</time></trkpt><trkpt lat="40.4487101" lon="15.5436027"><ele>448.0</ele><time>2026-05-03T06:31:06.905Z</time></trkpt><trkpt lat="40.4486733" lon="15.5436859"><ele>448.0</ele><time>2026-05-03T06:31:40.905Z</time></trkpt><trkpt lat="40.4486151" lon="15.5436054"><ele>448.0</ele><time>2026-05-03T06:32:31.904Z</time></trkpt><trkpt lat="40.4485817" lon="15.5437176"><ele>448.00000000000006</ele><time>2026-05-03T06:33:01.905Z</time></trkpt><trkpt lat="40.4486235" lon="15.5437912"><ele>448.0</ele><time>2026-05-03T06:33:24.904Z</time></trkpt><trkpt lat="40.4486906" lon="15.5437792"><ele>448.0</ele><time>2026-05-03T06:33:28.905Z</time></trkpt><trkpt lat="40.4486585" lon="15.543696"><ele>448.0</ele><time>2026-05-03T06:34:55.905Z</time></trkpt><trkpt lat="40.4486776" lon="15.5437901"><ele>448.0</ele><time>2026-05-03T06:35:19.904Z</time></trkpt><trkpt lat="40.4486896" lon="15.5437059"><ele>448.0</ele><time>2026-05-03T06:36:07.905Z</time></trkpt><trkpt lat="40.4487644" lon="15.5437605"><ele>448.0</ele><time>2026-05-03T06:37:26.905Z</time></trkpt><trkpt lat="40.4488391" lon="15.5437157"><ele>448.0</ele><time>2026-05-03T06:37:55.905Z</time></trkpt><trkpt lat="40.448872" lon="15.5436324"><ele>448.0</ele><time>2026-05-03T06:38:47.906Z</time></trkpt><trkpt lat="40.4488397" lon="15.5437065"><ele>448.00000000000006</ele><time>2026-05-03T06:39:41.905Z</time></trkpt><trkpt lat="40.4487655" lon="15.5436991"><ele>448.0</ele><time>2026-05-03T06:39:55.905Z</time></trkpt><trkpt lat="40.4486789" lon="15.5436858"><ele>448.0</ele><time>2026-05-03T06:40:01.906Z</time></trkpt><trkpt lat="40.4486413" lon="15.5438151"><ele>448.0</ele><time>2026-05-03T06:41:00.906Z</time></trkpt><trkpt lat="40.4485969" lon="15.5438765"><ele>448.00000000000006</ele><time>2026-05-03T06:41:04.906Z</time></trkpt><trkpt lat="40.4486539" lon="15.5438349"><ele>448.0</ele><time>2026-05-03T06:42:06.906Z</time></trkpt><trkpt lat="40.4487298" lon="15.5437852"><ele>448.00000000000006</ele><time>2026-05-03T06:42:37.906Z</time></trkpt><trkpt lat="40.4487378" lon="15.5436793"><ele>448.0</ele><time>2026-05-03T06:43:32.906Z</time></trkpt><trkpt lat="40.4486932" lon="15.543744"><ele>448.0</ele><time>2026-05-03T06:43:43.906Z</time></trkpt><trkpt lat="40.4486388" lon="15.5438003"><ele>448.0</ele><time>2026-05-03T06:44:26.905Z</time></trkpt><trkpt lat="40.4485583" lon="15.5438373"><ele>448.00000000000006</ele><time>2026-05-03T06:44:30.906Z</time></trkpt><trkpt lat="40.4484781" lon="15.5438555"><ele>448.0</ele><time>2026-05-03T06:45:27.906Z</time></trkpt><trkpt lat="40.4486099" lon="15.5438434"><ele>448.00000000000006</ele><time>2026-05-03T06:46:17.905Z</time></trkpt><trkpt lat="40.4485233" lon="15.543941"><ele>448.0</ele><time>2026-05-03T06:46:20.905Z</time></trkpt><trkpt lat="40.4485693" lon="15.5438507"><ele>448.0</ele><time>2026-05-03T06:46:32.906Z</time></trkpt><trkpt lat="40.4486374" lon="15.5437813"><ele>448.0</ele><time>2026-05-03T06:46:34.906Z</time></trkpt><trkpt lat="40.4487268" lon="15.5437577"><ele>448.00000000000006</ele><time>2026-05-03T06:46:35.906Z</time></trkpt><trkpt lat="40.4487896" lon="15.5437267"><ele>448.0</ele><time>2026-05-03T06:46:37.906Z</time></trkpt><trkpt lat="40.4488256" lon="15.5436571"><ele>448.00000000000006</ele><time>2026-05-03T06:46:41.906Z</time></trkpt><trkpt lat="40.4488859" lon="15.5436157"><ele>448.0</ele><time>2026-05-03T06:46:44.906Z</time></trkpt><trkpt lat="40.4488433" lon="15.5436783"><ele>448.0</ele><time>2026-05-03T06:46:56.654Z</time></trkpt><trkpt lat="40.4487527" lon="15.5437652"><ele>448.0</ele><time>2026-05-03T06:47:03.308Z</time></trkpt><trkpt lat="40.4486975" lon="15.543826"><ele>448.00000000000006</ele><time>2026-05-03T06:47:33.884Z</time></trkpt><trkpt lat="40.4487991" lon="15.5438829"><ele>448.0</ele><time>2026-05-03T06:48:32.886Z</time></trkpt><trkpt lat="40.4487424" lon="15.5438347"><ele>448.59999999999997</ele><time>2026-05-03T06:48:48.884Z</time></trkpt><trkpt lat="40.4488717" lon="15.5439181"><ele>449.19999999999993</ele><time>2026-05-03T06:49:20.884Z</time></trkpt><trkpt lat="40.448985" lon="15.5439433"><ele>449.8</ele><time>2026-05-03T06:56:16.886Z</time></trkpt><trkpt lat="40.4490083" lon="15.5440267"><ele>450.4</ele><time>2026-05-03T06:56:19.885Z</time></trkpt><trkpt lat="40.449085" lon="15.54407"><ele>451.0</ele><time>2026-05-03T07:01:01.885Z</time></trkpt><trkpt lat="40.4491367" lon="15.5441433"><ele>451.00000000000006</ele><time>2026-05-03T07:01:03.885Z</time></trkpt><trkpt lat="40.4491833" lon="15.5442383"><ele>451.0</ele><time>2026-05-03T07:01:05.885Z</time></trkpt><trkpt lat="40.4492233" lon="15.5443217"><ele>451.0</ele><time>2026-05-03T07:01:07.884Z</time></trkpt><trkpt lat="40.4492717" lon="15.5443917"><ele>451.0</ele><time>2026-05-03T07:01:09.884Z</time></trkpt><trkpt lat="40.44932" lon="15.544465"><ele>451.00000000000006</ele><time>2026-05-03T07:01:11.884Z</time></trkpt><trkpt lat="40.4493617" lon="15.54455"><ele>451.0</ele><time>2026-05-03T07:01:13.884Z</time></trkpt><trkpt lat="40.4493867" lon="15.5446417"><ele>451.6</ele><time>2026-05-03T07:01:16.885Z</time></trkpt><trkpt lat="40.4493383" lon="15.5447333"><ele>452.20000000000005</ele><time>2026-05-03T07:01:18.885Z</time></trkpt><trkpt lat="40.4492767" lon="15.54479"><ele>452.79999999999995</ele><time>2026-05-03T07:01:19.885Z</time></trkpt><trkpt lat="40.4491933" lon="15.544855"><ele>453.4</ele><time>2026-05-03T07:01:20.885Z</time></trkpt><trkpt lat="40.4491017" lon="15.5449417"><ele>454.0</ele><time>2026-05-03T07:01:21.884Z</time></trkpt><trkpt lat="40.4490067" lon="15.5450367"><ele>454.0</ele><time>2026-05-03T07:01:22.885Z</time></trkpt><trkpt lat="40.4489067" lon="15.54513"><ele>454.0</ele><time>2026-05-03T07:01:23.885Z</time></trkpt><trkpt lat="40.448815" lon="15.5452233"><ele>454.0</ele><time>2026-05-03T07:01:24.885Z</time></trkpt><trkpt lat="40.4487183" lon="15.5453117"><ele>454.0</ele><time>2026-05-03T07:01:25.885Z</time></trkpt><trkpt lat="40.44861" lon="15.5454233"><ele>454.6666666666667</ele><time>2026-05-03T07:01:26.885Z</time></trkpt><trkpt lat="40.4484933" lon="15.5455333"><ele>455.33333333333337</ele><time>2026-05-03T07:01:27.885Z</time></trkpt><trkpt lat="40.4483533" lon="15.5456283"><ele>456.0</ele><time>2026-05-03T07:01:28.885Z</time></trkpt><trkpt lat="40.4481917" lon="15.5457283"><ele>456.0</ele><time>2026-05-03T07:01:29.885Z</time></trkpt><trkpt lat="40.4480183" lon="15.54584"><ele>456.0</ele><time>2026-05-03T07:01:30.885Z</time></trkpt><trkpt lat="40.447835" lon="15.5459433"><ele>456.0</ele><time>2026-05-03T07:01:31.885Z</time></trkpt><trkpt lat="40.4476533" lon="15.5460483"><ele>454.33333333333337</ele><time>2026-05-03T07:01:32.884Z</time></trkpt><trkpt lat="40.4474783" lon="15.5461617"><ele>452.6666666666667</ele><time>2026-05-03T07:01:33.885Z</time></trkpt><trkpt lat="40.4473217" lon="15.5462667"><ele>451.0</ele><time>2026-05-03T07:01:34.884Z</time></trkpt><trkpt lat="40.44717" lon="15.5463567"><ele>452.0</ele><time>2026-05-03T07:01:35.884Z</time></trkpt><trkpt lat="40.4470333" lon="15.5464283"><ele>453.0</ele><time>2026-05-03T07:01:36.884Z</time></trkpt><trkpt lat="40.44691" lon="15.5465133"><ele>454.0</ele><time>2026-05-03T07:01:37.884Z</time></trkpt><trkpt lat="40.4467867" lon="15.5465933"><ele>455.0</ele><time>2026-05-03T07:01:38.885Z</time></trkpt><trkpt lat="40.446665" lon="15.5466717"><ele>455.0</ele><time>2026-05-03T07:01:39.885Z</time></trkpt><trkpt lat="40.446535" lon="15.5467517"><ele>455.0</ele><time>2026-05-03T07:01:40.885Z</time></trkpt><trkpt lat="40.4464017" lon="15.54682"><ele>455.0</ele><time>2026-05-03T07:01:41.885Z</time></trkpt><trkpt lat="40.44626" lon="15.5468917"><ele>455.0</ele><time>2026-05-03T07:01:42.885Z</time></trkpt><trkpt lat="40.4461183" lon="15.5469783"><ele>456.66666666666663</ele><time>2026-05-03T07:01:43.885Z</time></trkpt><trkpt lat="40.4459633" lon="15.5470583"><ele>458.33333333333337</ele><time>2026-05-03T07:01:44.885Z</time></trkpt><trkpt lat="40.4458167" lon="15.5471467"><ele>460.0</ele><time>2026-05-03T07:01:45.885Z</time></trkpt><trkpt lat="40.4456867" lon="15.5472483"><ele>460.0</ele><time>2026-05-03T07:01:46.885Z</time></trkpt><trkpt lat="40.4455383" lon="15.5473333"><ele>460.0</ele><time>2026-05-03T07:01:47.885Z</time></trkpt><trkpt lat="40.4453983" lon="15.5474317"><ele>460.0</ele><time>2026-05-03T07:01:48.885Z</time></trkpt><trkpt lat="40.4452617" lon="15.547525"><ele>460.0</ele><time>2026-05-03T07:01:49.885Z</time></trkpt><trkpt lat="40.4451233" lon="15.5476083"><ele>460.0</ele><time>2026-05-03T07:01:50.885Z</time></trkpt><trkpt lat="40.4450033" lon="15.54768"><ele>460.0</ele><time>2026-05-03T07:01:51.885Z</time></trkpt><trkpt lat="40.44489" lon="15.5477517"><ele>460.0</ele><time>2026-05-03T07:01:52.885Z</time></trkpt><trkpt lat="40.4447767" lon="15.5478283"><ele>460.0</ele><time>2026-05-03T07:01:53.885Z</time></trkpt><trkpt lat="40.444665" lon="15.5478983"><ele>460.0</ele><time>2026-05-03T07:01:54.885Z</time></trkpt><trkpt lat="40.444555" lon="15.5479683"><ele>460.0</ele><time>2026-05-03T07:01:55.884Z</time></trkpt><trkpt lat="40.4444283" lon="15.5480467"><ele>460.0</ele><time>2026-05-03T07:01:56.885Z</time></trkpt><trkpt lat="40.4443033" lon="15.5481317"><ele>460.0</ele><time>2026-05-03T07:01:57.884Z</time></trkpt><trkpt lat="40.444165" lon="15.5482283"><ele>460.0</ele><time>2026-05-03T07:01:58.885Z</time></trkpt><trkpt lat="40.4440233" lon="15.548335"><ele>460.0</ele><time>2026-05-03T07:01:59.884Z</time></trkpt><trkpt lat="40.4438867" lon="15.5484317"><ele>459.6666666666667</ele><time>2026-05-03T07:02:00.885Z</time></trkpt><trkpt lat="40.4437417" lon="15.54853"><ele>459.33333333333337</ele><time>2026-05-03T07:02:01.885Z</time></trkpt><trkpt lat="40.4436017" lon="15.5486317"><ele>459.0</ele><time>2026-05-03T07:02:02.885Z</time></trkpt><trkpt lat="40.443455" lon="15.5487417"><ele>460.0</ele><time>2026-05-03T07:02:03.884Z</time></trkpt><trkpt lat="40.4433167" lon="15.5488483"><ele>461.0</ele><time>2026-05-03T07:02:04.885Z</time></trkpt><trkpt lat="40.4431833" lon="15.5489433"><ele>462.0</ele><time>2026-05-03T07:02:05.885Z</time></trkpt><trkpt lat="40.4430383" lon="15.54904"><ele>461.75</ele><time>2026-05-03T07:02:06.885Z</time></trkpt><trkpt lat="40.4428983" lon="15.5491217"><ele>461.5</ele><time>2026-05-03T07:02:07.885Z</time></trkpt><trkpt lat="40.4427717" lon="15.5492067"><ele>461.25</ele><time>2026-05-03T07:02:08.884Z</time></trkpt><trkpt lat="40.4426517" lon="15.5492933"><ele>461.0</ele><time>2026-05-03T07:02:09.885Z</time></trkpt><trkpt lat="40.44253" lon="15.549375"><ele>461.0</ele><time>2026-05-03T07:02:10.885Z</time></trkpt><trkpt lat="40.442405" lon="15.5494667"><ele>461.0</ele><time>2026-05-03T07:02:11.885Z</time></trkpt><trkpt lat="40.44228" lon="15.5495633"><ele>461.0</ele><time>2026-05-03T07:02:12.885Z</time></trkpt><trkpt lat="40.44215" lon="15.549645"><ele>461.0</ele><time>2026-05-03T07:02:13.885Z</time></trkpt><trkpt lat="40.4420183" lon="15.5497317"><ele>461.5</ele><time>2026-05-03T07:02:14.885Z</time></trkpt><trkpt lat="40.441885" lon="15.5498267"><ele>462.0</ele><time>2026-05-03T07:02:15.885Z</time></trkpt><trkpt lat="40.4417633" lon="15.5499183"><ele>462.5</ele><time>2026-05-03T07:02:16.885Z</time></trkpt><trkpt lat="40.441645" lon="15.5500033"><ele>463.0</ele><time>2026-05-03T07:02:17.885Z</time></trkpt><trkpt lat="40.4415233" lon="15.55009"><ele>463.0</ele><time>2026-05-03T07:02:18.885Z</time></trkpt><trkpt lat="40.4414017" lon="15.5501717"><ele>463.0</ele><time>2026-05-03T07:02:19.884Z</time></trkpt><trkpt lat="40.4412833" lon="15.5502617"><ele>463.0</ele><time>2026-05-03T07:02:20.885Z</time></trkpt><trkpt lat="40.44117" lon="15.5503483"><ele>463.0</ele><time>2026-05-03T07:02:21.885Z</time></trkpt><trkpt lat="40.4410483" lon="15.55043"><ele>464.0</ele><time>2026-05-03T07:02:22.885Z</time></trkpt><trkpt lat="40.4409367" lon="15.5504983"><ele>465.0</ele><time>2026-05-03T07:02:23.885Z</time></trkpt><trkpt lat="40.440835" lon="15.55057"><ele>466.0</ele><time>2026-05-03T07:02:24.885Z</time></trkpt><trkpt lat="40.4407333" lon="15.5506467"><ele>467.0</ele><time>2026-05-03T07:02:25.885Z</time></trkpt><trkpt lat="40.4406317" lon="15.550715"><ele>467.0</ele><time>2026-05-03T07:02:26.885Z</time></trkpt><trkpt lat="40.4405217" lon="15.5507883"><ele>467.0</ele><time>2026-05-03T07:02:27.885Z</time></trkpt><trkpt lat="40.440405" lon="15.55087"><ele>467.0</ele><time>2026-05-03T07:02:28.885Z</time></trkpt><trkpt lat="40.4402867" lon="15.5509467"><ele>467.0</ele><time>2026-05-03T07:02:29.885Z</time></trkpt><trkpt lat="40.440165" lon="15.551015"><ele>466.25</ele><time>2026-05-03T07:02:30.885Z</time></trkpt><trkpt lat="40.4400383" lon="15.5510883"><ele>465.5</ele><time>2026-05-03T07:02:31.885Z</time></trkpt><trkpt lat="40.4399117" lon="15.5511483"><ele>464.75</ele><time>2026-05-03T07:02:32.885Z</time></trkpt><trkpt lat="40.4397767" lon="15.5512033"><ele>464.0</ele><time>2026-05-03T07:02:33.884Z</time></trkpt><trkpt lat="40.439635" lon="15.5512533"><ele>463.75</ele><time>2026-05-03T07:02:34.885Z</time></trkpt><trkpt lat="40.4395033" lon="15.5512983"><ele>463.5</ele><time>2026-05-03T07:02:35.884Z</time></trkpt><trkpt lat="40.439375" lon="15.5513367"><ele>463.25</ele><time>2026-05-03T07:02:36.885Z</time></trkpt><trkpt lat="40.4392417" lon="15.5513967"><ele>463.0</ele><time>2026-05-03T07:02:37.885Z</time></trkpt><trkpt lat="40.4390967" lon="15.5514467"><ele>463.0</ele><time>2026-05-03T07:02:38.885Z</time></trkpt><trkpt lat="40.4389533" lon="15.5515067"><ele>463.0</ele><time>2026-05-03T07:02:39.885Z</time></trkpt><trkpt lat="40.4388017" lon="15.5515683"><ele>463.0</ele><time>2026-05-03T07:02:40.885Z</time></trkpt><trkpt lat="40.4386467" lon="15.5516467"><ele>461.33333333333337</ele><time>2026-05-03T07:02:41.885Z</time></trkpt><trkpt lat="40.4384967" lon="15.5516967"><ele>459.66666666666663</ele><time>2026-05-03T07:02:42.884Z</time></trkpt><trkpt lat="40.4383433" lon="15.551765"><ele>458.0</ele><time>2026-05-03T07:02:43.885Z</time></trkpt><trkpt lat="40.43819" lon="15.5518317"><ele>458.0</ele><time>2026-05-03T07:02:44.885Z</time></trkpt><trkpt lat="40.4380417" lon="15.551885"><ele>458.0</ele><time>2026-05-03T07:02:45.885Z</time></trkpt><trkpt lat="40.4378983" lon="15.5519367"><ele>458.0</ele><time>2026-05-03T07:02:46.884Z</time></trkpt><trkpt lat="40.437755" lon="15.5519883"><ele>457.25</ele><time>2026-05-03T07:02:47.885Z</time></trkpt><trkpt lat="40.4376133" lon="15.552045"><ele>456.5</ele><time>2026-05-03T07:02:48.885Z</time></trkpt><trkpt lat="40.437475" lon="15.55211"><ele>455.75</ele><time>2026-05-03T07:02:49.885Z</time></trkpt><trkpt lat="40.437335" lon="15.552165"><ele>455.0</ele><time>2026-05-03T07:02:50.885Z</time></trkpt><trkpt lat="40.437195" lon="15.5522233"><ele>454.3333333333333</ele><time>2026-05-03T07:02:51.884Z</time></trkpt><trkpt lat="40.437045" lon="15.5522933"><ele>453.66666666666663</ele><time>2026-05-03T07:02:52.884Z</time></trkpt><trkpt lat="40.436905" lon="15.5523517"><ele>453.0</ele><time>2026-05-03T07:02:53.885Z</time></trkpt><trkpt lat="40.436765" lon="15.5524067"><ele>453.0</ele><time>2026-05-03T07:02:54.885Z</time></trkpt><trkpt lat="40.4366083" lon="15.55247"><ele>453.0</ele><time>2026-05-03T07:02:55.885Z</time></trkpt><trkpt lat="40.4364583" lon="15.5525267"><ele>453.0</ele><time>2026-05-03T07:02:56.884Z</time></trkpt><trkpt lat="40.4363033" lon="15.55259"><ele>452.33333333333337</ele><time>2026-05-03T07:02:57.884Z</time></trkpt><trkpt lat="40.4361467" lon="15.552645"><ele>451.6666666666667</ele><time>2026-05-03T07:02:58.885Z</time></trkpt><trkpt lat="40.4359933" lon="15.5527017"><ele>451.0</ele><time>2026-05-03T07:02:59.885Z</time></trkpt><trkpt lat="40.4358417" lon="15.5527617"><ele>451.0</ele><time>2026-05-03T07:03:00.885Z</time></trkpt><trkpt lat="40.435695" lon="15.5528217"><ele>451.0</ele><time>2026-05-03T07:03:01.884Z</time></trkpt><trkpt lat="40.4355467" lon="15.5528817"><ele>451.0</ele><time>2026-05-03T07:03:02.885Z</time></trkpt><trkpt lat="40.4354033" lon="15.5529483"><ele>451.33333333333337</ele><time>2026-05-03T07:03:03.885Z</time></trkpt><trkpt lat="40.4352533" lon="15.5530033"><ele>451.66666666666663</ele><time>2026-05-03T07:03:04.884Z</time></trkpt><trkpt lat="40.4351067" lon="15.55306"><ele>452.0</ele><time>2026-05-03T07:03:05.885Z</time></trkpt><trkpt lat="40.43495" lon="15.553115"><ele>452.0</ele><time>2026-05-03T07:03:06.885Z</time></trkpt><trkpt lat="40.4348017" lon="15.553175"><ele>452.0</ele><time>2026-05-03T07:03:07.884Z</time></trkpt><trkpt lat="40.4346517" lon="15.5532267"><ele>452.0</ele><time>2026-05-03T07:03:08.885Z</time></trkpt><trkpt lat="40.4345083" lon="15.5532817"><ele>452.0</ele><time>2026-05-03T07:03:09.885Z</time></trkpt><trkpt lat="40.4343583" lon="15.5533433"><ele>452.0</ele><time>2026-05-03T07:03:10.885Z</time></trkpt><trkpt lat="40.4342083" lon="15.5533967"><ele>452.0</ele><time>2026-05-03T07:03:11.885Z</time></trkpt><trkpt lat="40.4340517" lon="15.5534367"><ele>452.0</ele><time>2026-05-03T07:03:12.885Z</time></trkpt><trkpt lat="40.43389" lon="15.5534483"><ele>452.0</ele><time>2026-05-03T07:03:13.884Z</time></trkpt><trkpt lat="40.4337233" lon="15.553445"><ele>452.0</ele><time>2026-05-03T07:03:14.884Z</time></trkpt><trkpt lat="40.433565" lon="15.5534233"><ele>452.0</ele><time>2026-05-03T07:03:15.885Z</time></trkpt><trkpt lat="40.433405" lon="15.5534"><ele>452.0</ele><time>2026-05-03T07:03:16.885Z</time></trkpt><trkpt lat="40.433245" lon="15.5533983"><ele>452.0</ele><time>2026-05-03T07:03:17.884Z</time></trkpt><trkpt lat="40.43308" lon="15.55339"><ele>452.66666666666663</ele><time>2026-05-03T07:03:18.884Z</time></trkpt><trkpt lat="40.4329217" lon="15.55339"><ele>453.33333333333337</ele><time>2026-05-03T07:03:19.885Z</time></trkpt><trkpt lat="40.4327767" lon="15.5533817"><ele>454.0</ele><time>2026-05-03T07:03:20.885Z</time></trkpt><trkpt lat="40.4326283" lon="15.5533683"><ele>454.0</ele><time>2026-05-03T07:03:21.885Z</time></trkpt><trkpt lat="40.4324867" lon="15.5533583"><ele>454.0</ele><time>2026-05-03T07:03:22.885Z</time></trkpt><trkpt lat="40.4323417" lon="15.5533517"><ele>454.0</ele><time>2026-05-03T07:03:23.885Z</time></trkpt><trkpt lat="40.4321983" lon="15.5533417"><ele>454.0</ele><time>2026-05-03T07:03:24.884Z</time></trkpt><trkpt lat="40.4320567" lon="15.5533233"><ele>454.25</ele><time>2026-05-03T07:03:25.885Z</time></trkpt><trkpt lat="40.4319183" lon="15.5533083"><ele>454.5</ele><time>2026-05-03T07:03:26.885Z</time></trkpt><trkpt lat="40.4317817" lon="15.5532967"><ele>454.75</ele><time>2026-05-03T07:03:27.885Z</time></trkpt><trkpt lat="40.4316417" lon="15.5532783"><ele>455.0</ele><time>2026-05-03T07:03:28.885Z</time></trkpt><trkpt lat="40.4314967" lon="15.5532667"><ele>455.0</ele><time>2026-05-03T07:03:29.885Z</time></trkpt><trkpt lat="40.4313417" lon="15.553255"><ele>455.0</ele><time>2026-05-03T07:03:30.885Z</time></trkpt><trkpt lat="40.43119" lon="15.5532417"><ele>455.0</ele><time>2026-05-03T07:03:31.885Z</time></trkpt><trkpt lat="40.4310367" lon="15.5532167"><ele>454.3333333333333</ele><time>2026-05-03T07:03:32.885Z</time></trkpt><trkpt lat="40.43087" lon="15.553215"><ele>453.66666666666663</ele><time>2026-05-03T07:03:33.884Z</time></trkpt><trkpt lat="40.4307017" lon="15.5532017"><ele>453.0</ele><time>2026-05-03T07:03:34.884Z</time></trkpt><trkpt lat="40.4305383" lon="15.5531817"><ele>452.66666666666663</ele><time>2026-05-03T07:03:35.885Z</time></trkpt><trkpt lat="40.43037" lon="15.553175"><ele>452.3333333333333</ele><time>2026-05-03T07:03:36.885Z</time></trkpt><trkpt lat="40.43021" lon="15.553175"><ele>452.0</ele><time>2026-05-03T07:03:37.885Z</time></trkpt><trkpt lat="40.4300533" lon="15.553165"><ele>452.0</ele><time>2026-05-03T07:03:38.885Z</time></trkpt><trkpt lat="40.4299033" lon="15.553135"><ele>452.0</ele><time>2026-05-03T07:03:39.884Z</time></trkpt><trkpt lat="40.429755" lon="15.553125"><ele>452.0</ele><time>2026-05-03T07:03:40.885Z</time></trkpt><trkpt lat="40.4296017" lon="15.55311"><ele>452.0</ele><time>2026-05-03T07:03:41.885Z</time></trkpt><trkpt lat="40.4294383" lon="15.5530933"><ele>452.0</ele><time>2026-05-03T07:03:42.885Z</time></trkpt><trkpt lat="40.4292767" lon="15.55308"><ele>452.0</ele><time>2026-05-03T07:03:43.885Z</time></trkpt><trkpt lat="40.4291267" lon="15.5530717"><ele>452.0</ele><time>2026-05-03T07:03:44.885Z</time></trkpt><trkpt lat="40.4289717" lon="15.5530667"><ele>452.0</ele><time>2026-05-03T07:03:45.885Z</time></trkpt><trkpt lat="40.42882" lon="15.5530467"><ele>452.0</ele><time>2026-05-03T07:03:46.885Z</time></trkpt><trkpt lat="40.4286733" lon="15.5530267"><ele>451.66666666666663</ele><time>2026-05-03T07:03:47.885Z</time></trkpt><trkpt lat="40.4285233" lon="15.553005"><ele>451.33333333333337</ele><time>2026-05-03T07:03:48.885Z</time></trkpt><trkpt lat="40.4283667" lon="15.552995"><ele>451.0</ele><time>2026-05-03T07:03:49.885Z</time></trkpt><trkpt lat="40.4282133" lon="15.5529867"><ele>451.0</ele><time>2026-05-03T07:03:50.885Z</time></trkpt><trkpt lat="40.4280533" lon="15.5529733"><ele>451.0</ele><time>2026-05-03T07:03:51.885Z</time></trkpt><trkpt lat="40.4278883" lon="15.552965"><ele>451.0</ele><time>2026-05-03T07:03:52.885Z</time></trkpt><trkpt lat="40.4277233" lon="15.5529533"><ele>451.0</ele><time>2026-05-03T07:03:53.884Z</time></trkpt><trkpt lat="40.4275517" lon="15.5529367"><ele>451.0</ele><time>2026-05-03T07:03:54.884Z</time></trkpt><trkpt lat="40.427385" lon="15.5529317"><ele>451.0</ele><time>2026-05-03T07:03:55.885Z</time></trkpt><trkpt lat="40.4272133" lon="15.5529267"><ele>451.33333333333337</ele><time>2026-05-03T07:03:56.885Z</time></trkpt><trkpt lat="40.427025" lon="15.552945"><ele>451.66666666666663</ele><time>2026-05-03T07:03:57.884Z</time></trkpt><trkpt lat="40.42684" lon="15.5529583"><ele>452.0</ele><time>2026-05-03T07:03:58.885Z</time></trkpt><trkpt lat="40.4266517" lon="15.5529833"><ele>452.0</ele><time>2026-05-03T07:03:59.885Z</time></trkpt><trkpt lat="40.4264717" lon="15.5530217"><ele>452.0</ele><time>2026-05-03T07:04:00.885Z</time></trkpt><trkpt lat="40.4263033" lon="15.5530667"><ele>452.0</ele><time>2026-05-03T07:04:01.884Z</time></trkpt><trkpt lat="40.4261383" lon="15.55312"><ele>452.0</ele><time>2026-05-03T07:04:02.885Z</time></trkpt><trkpt lat="40.42598" lon="15.5531733"><ele>452.0</ele><time>2026-05-03T07:04:03.885Z</time></trkpt><trkpt lat="40.42582" lon="15.553225"><ele>452.0</ele><time>2026-05-03T07:04:04.884Z</time></trkpt><trkpt lat="40.4256583" lon="15.5532767"><ele>452.0</ele><time>2026-05-03T07:04:05.885Z</time></trkpt><trkpt lat="40.4255" lon="15.5533267"><ele>452.0</ele><time>2026-05-03T07:04:06.885Z</time></trkpt><trkpt lat="40.4253417" lon="15.5533783"><ele>452.0</ele><time>2026-05-03T07:04:07.885Z</time></trkpt><trkpt lat="40.425185" lon="15.5534317"><ele>452.0</ele><time>2026-05-03T07:04:08.885Z</time></trkpt><trkpt lat="40.4250267" lon="15.5534817"><ele>452.0</ele><time>2026-05-03T07:04:09.885Z</time></trkpt><trkpt lat="40.424865" lon="15.55353"><ele>452.0</ele><time>2026-05-03T07:04:10.885Z</time></trkpt><trkpt lat="40.4247083" lon="15.5535783"><ele>451.66666666666663</ele><time>2026-05-03T07:04:11.885Z</time></trkpt><trkpt lat="40.424555" lon="15.5536233"><ele>451.33333333333337</ele><time>2026-05-03T07:04:12.885Z</time></trkpt><trkpt lat="40.4244017" lon="15.5536683"><ele>451.0</ele><time>2026-05-03T07:04:13.884Z</time></trkpt><trkpt lat="40.424245" lon="15.55371"><ele>452.0</ele><time>2026-05-03T07:04:14.885Z</time></trkpt><trkpt lat="40.4240983" lon="15.5537667"><ele>453.0</ele><time>2026-05-03T07:04:15.884Z</time></trkpt><trkpt lat="40.4239517" lon="15.5538117"><ele>454.0</ele><time>2026-05-03T07:04:16.884Z</time></trkpt><trkpt lat="40.4238094" lon="15.5538675"><ele>454.0</ele><time>2026-05-03T07:04:17.885Z</time></trkpt><trkpt lat="40.4236702" lon="15.5539307"><ele>454.0</ele><time>2026-05-03T07:04:18.885Z</time></trkpt><trkpt lat="40.4235317" lon="15.5539948"><ele>454.0</ele><time>2026-05-03T07:04:19.884Z</time></trkpt><trkpt lat="40.4233904" lon="15.5540561"><ele>454.0</ele><time>2026-05-03T07:04:20.885Z</time></trkpt><trkpt lat="40.4232489" lon="15.5541208"><ele>454.0</ele><time>2026-05-03T07:04:21.885Z</time></trkpt><trkpt lat="40.4231046" lon="15.5541919"><ele>454.0</ele><time>2026-05-03T07:04:22.885Z</time></trkpt><trkpt lat="40.4229626" lon="15.5542703"><ele>454.0</ele><time>2026-05-03T07:04:23.885Z</time></trkpt><trkpt lat="40.4228138" lon="15.5543462"><ele>453.6666666666667</ele><time>2026-05-03T07:04:24.885Z</time></trkpt><trkpt lat="40.4226591" lon="15.5544193"><ele>453.33333333333337</ele><time>2026-05-03T07:04:25.885Z</time></trkpt><trkpt lat="40.4225074" lon="15.5544964"><ele>453.0</ele><time>2026-05-03T07:04:26.885Z</time></trkpt><trkpt lat="40.4223563" lon="15.5545701"><ele>453.66666666666663</ele><time>2026-05-03T07:04:27.885Z</time></trkpt><trkpt lat="40.4222006" lon="15.5546489"><ele>454.3333333333333</ele><time>2026-05-03T07:04:28.885Z</time></trkpt><trkpt lat="40.4220464" lon="15.5547309"><ele>455.0</ele><time>2026-05-03T07:04:29.885Z</time></trkpt><trkpt lat="40.4218928" lon="15.5548136"><ele>455.0</ele><time>2026-05-03T07:04:30.884Z</time></trkpt><trkpt lat="40.4217367" lon="15.5548939"><ele>455.0</ele><time>2026-05-03T07:04:31.885Z</time></trkpt><trkpt lat="40.4215799" lon="15.5549762"><ele>455.0</ele><time>2026-05-03T07:04:32.884Z</time></trkpt><trkpt lat="40.4214193" lon="15.5550651"><ele>454.66666666666663</ele><time>2026-05-03T07:04:33.884Z</time></trkpt><trkpt lat="40.4212592" lon="15.5551522"><ele>454.33333333333337</ele><time>2026-05-03T07:04:34.884Z</time></trkpt><trkpt lat="40.4210992" lon="15.5552401"><ele>454.0</ele><time>2026-05-03T07:04:35.885Z</time></trkpt><trkpt lat="40.4209406" lon="15.5553318"><ele>455.33333333333337</ele><time>2026-05-03T07:04:36.885Z</time></trkpt><trkpt lat="40.4207881" lon="15.5554259"><ele>456.66666666666663</ele><time>2026-05-03T07:04:37.885Z</time></trkpt><trkpt lat="40.4206363" lon="15.5555223"><ele>458.0</ele><time>2026-05-03T07:04:38.885Z</time></trkpt><trkpt lat="40.4204842" lon="15.5556249"><ele>457.75</ele><time>2026-05-03T07:04:39.885Z</time></trkpt><trkpt lat="40.4203502" lon="15.5557271"><ele>457.5</ele><time>2026-05-03T07:04:40.885Z</time></trkpt><trkpt lat="40.4202242" lon="15.5558201"><ele>457.25</ele><time>2026-05-03T07:04:41.884Z</time></trkpt><trkpt lat="40.4201124" lon="15.5559106"><ele>457.0</ele><time>2026-05-03T07:04:42.885Z</time></trkpt><trkpt lat="40.4200016" lon="15.5560017"><ele>457.0</ele><time>2026-05-03T07:04:43.885Z</time></trkpt><trkpt lat="40.4199005" lon="15.5560868"><ele>457.00000000000006</ele><time>2026-05-03T07:04:44.885Z</time></trkpt><trkpt lat="40.4198045" lon="15.5561609"><ele>457.00000000000006</ele><time>2026-05-03T07:04:45.884Z</time></trkpt><trkpt lat="40.4197204" lon="15.5562391"><ele>457.0</ele><time>2026-05-03T07:04:46.884Z</time></trkpt><trkpt lat="40.4196421" lon="15.556309"><ele>457.0</ele><time>2026-05-03T07:04:47.885Z</time></trkpt><trkpt lat="40.4195707" lon="15.5563762"><ele>456.6666666666667</ele><time>2026-05-03T07:04:48.884Z</time></trkpt><trkpt lat="40.419502" lon="15.5564354"><ele>456.33333333333337</ele><time>2026-05-03T07:04:49.885Z</time></trkpt><trkpt lat="40.4194291" lon="15.5564756"><ele>456.0</ele><time>2026-05-03T07:04:50.885Z</time></trkpt><trkpt lat="40.4193554" lon="15.5565128"><ele>455.66666666666663</ele><time>2026-05-03T07:04:51.885Z</time></trkpt><trkpt lat="40.4192909" lon="15.5565581"><ele>455.3333333333333</ele><time>2026-05-03T07:04:52.885Z</time></trkpt><trkpt lat="40.4192297" lon="15.5566679"><ele>455.0</ele><time>2026-05-03T07:04:54.885Z</time></trkpt><trkpt lat="40.4192369" lon="15.5567985"><ele>454.99999999999994</ele><time>2026-05-03T07:04:56.885Z</time></trkpt><trkpt lat="40.4193102" lon="15.5569114"><ele>455.0</ele><time>2026-05-03T07:04:58.885Z</time></trkpt><trkpt lat="40.4193656" lon="15.5569556"><ele>455.0</ele><time>2026-05-03T07:04:59.884Z</time></trkpt><trkpt lat="40.4194217" lon="15.5570077"><ele>455.0</ele><time>2026-05-03T07:05:00.884Z</time></trkpt><trkpt lat="40.4194745" lon="15.5570758"><ele>454.99999999999994</ele><time>2026-05-03T07:05:01.885Z</time></trkpt><trkpt lat="40.4195235" lon="15.5571657"><ele>455.0</ele><time>2026-05-03T07:05:02.885Z</time></trkpt><trkpt lat="40.4195568" lon="15.5572782"><ele>455.49999999999994</ele><time>2026-05-03T07:05:03.885Z</time></trkpt><trkpt lat="40.4195764" lon="15.5573971"><ele>456.0</ele><time>2026-05-03T07:05:04.884Z</time></trkpt><trkpt lat="40.4195897" lon="15.5575096"><ele>456.5</ele><time>2026-05-03T07:05:05.884Z</time></trkpt><trkpt lat="40.419596" lon="15.5576233"><ele>457.0</ele><time>2026-05-03T07:05:06.884Z</time></trkpt><trkpt lat="40.4195967" lon="15.5577375"><ele>457.49999999999994</ele><time>2026-05-03T07:05:07.884Z</time></trkpt><trkpt lat="40.4196009" lon="15.5578546"><ele>458.0</ele><time>2026-05-03T07:05:08.885Z</time></trkpt><trkpt lat="40.4196043" lon="15.5579729"><ele>458.59999999999997</ele><time>2026-05-03T07:05:09.885Z</time></trkpt><trkpt lat="40.4196033" lon="15.5581012"><ele>459.19999999999993</ele><time>2026-05-03T07:05:10.884Z</time></trkpt><trkpt lat="40.419598" lon="15.5582347"><ele>459.8</ele><time>2026-05-03T07:05:11.885Z</time></trkpt><trkpt lat="40.4195813" lon="15.5583692"><ele>460.4</ele><time>2026-05-03T07:05:12.885Z</time></trkpt><trkpt lat="40.4195628" lon="15.5584994"><ele>461.0</ele><time>2026-05-03T07:05:13.885Z</time></trkpt><trkpt lat="40.4195406" lon="15.5586252"><ele>461.4</ele><time>2026-05-03T07:05:14.884Z</time></trkpt><trkpt lat="40.4195077" lon="15.558746"><ele>461.8</ele><time>2026-05-03T07:05:15.885Z</time></trkpt><trkpt lat="40.4194702" lon="15.5588707"><ele>462.19999999999993</ele><time>2026-05-03T07:05:16.885Z</time></trkpt><trkpt lat="40.4194288" lon="15.5589928"><ele>462.59999999999997</ele><time>2026-05-03T07:05:17.884Z</time></trkpt><trkpt lat="40.4193768" lon="15.559124"><ele>463.0</ele><time>2026-05-03T07:05:18.885Z</time></trkpt><trkpt lat="40.4193173" lon="15.5592551"><ele>463.0</ele><time>2026-05-03T07:05:19.885Z</time></trkpt><trkpt lat="40.4192485" lon="15.5593748"><ele>463.0</ele><time>2026-05-03T07:05:20.885Z</time></trkpt><trkpt lat="40.4191701" lon="15.5594858"><ele>463.0</ele><time>2026-05-03T07:05:21.884Z</time></trkpt><trkpt lat="40.4190856" lon="15.5595854"><ele>463.0</ele><time>2026-05-03T07:05:22.885Z</time></trkpt><trkpt lat="40.4189976" lon="15.5596719"><ele>463.25</ele><time>2026-05-03T07:05:23.885Z</time></trkpt><trkpt lat="40.4188967" lon="15.5597467"><ele>463.5</ele><time>2026-05-03T07:05:24.885Z</time></trkpt><trkpt lat="40.4187917" lon="15.5598233"><ele>463.75</ele><time>2026-05-03T07:05:25.885Z</time></trkpt><trkpt lat="40.41867" lon="15.5598933"><ele>464.0</ele><time>2026-05-03T07:05:26.885Z</time></trkpt><trkpt lat="40.4185383" lon="15.55996"><ele>464.0</ele><time>2026-05-03T07:05:27.885Z</time></trkpt><trkpt lat="40.4183967" lon="15.56002"><ele>464.0</ele><time>2026-05-03T07:05:28.885Z</time></trkpt><trkpt lat="40.4182367" lon="15.5600833"><ele>464.0</ele><time>2026-05-03T07:05:29.885Z</time></trkpt><trkpt lat="40.4180717" lon="15.56014"><ele>462.3333333333333</ele><time>2026-05-03T07:05:30.884Z</time></trkpt><trkpt lat="40.4178867" lon="15.5602067"><ele>460.66666666666663</ele><time>2026-05-03T07:05:31.885Z</time></trkpt><trkpt lat="40.4176933" lon="15.5602733"><ele>459.0</ele><time>2026-05-03T07:05:32.885Z</time></trkpt><trkpt lat="40.4174917" lon="15.5603483"><ele>458.66666666666663</ele><time>2026-05-03T07:05:33.885Z</time></trkpt><trkpt lat="40.4172833" lon="15.5604183"><ele>458.3333333333333</ele><time>2026-05-03T07:05:34.885Z</time></trkpt><trkpt lat="40.4170783" lon="15.5604867"><ele>458.0</ele><time>2026-05-03T07:05:35.885Z</time></trkpt><trkpt lat="40.416865" lon="15.5605667"><ele>458.0</ele><time>2026-05-03T07:05:36.885Z</time></trkpt><trkpt lat="40.41664" lon="15.5606433"><ele>458.0</ele><time>2026-05-03T07:05:37.885Z</time></trkpt><trkpt lat="40.416405" lon="15.5607167"><ele>457.0</ele><time>2026-05-03T07:05:38.884Z</time></trkpt><trkpt lat="40.4161667" lon="15.5607983"><ele>456.0</ele><time>2026-05-03T07:05:39.885Z</time></trkpt><trkpt lat="40.4159267" lon="15.56088"><ele>456.0</ele><time>2026-05-03T07:05:40.885Z</time></trkpt><trkpt lat="40.4156833" lon="15.5609617"><ele>456.0</ele><time>2026-05-03T07:05:41.885Z</time></trkpt><trkpt lat="40.4154383" lon="15.5610583"><ele>456.5</ele><time>2026-05-03T07:05:42.884Z</time></trkpt><trkpt lat="40.4151917" lon="15.5611417"><ele>457.0</ele><time>2026-05-03T07:05:43.885Z</time></trkpt><trkpt lat="40.4149417" lon="15.5612417"><ele>457.0</ele><time>2026-05-03T07:05:44.885Z</time></trkpt><trkpt lat="40.414695" lon="15.56133"><ele>457.0</ele><time>2026-05-03T07:05:45.885Z</time></trkpt><trkpt lat="40.4144583" lon="15.5614217"><ele>456.0</ele><time>2026-05-03T07:05:46.885Z</time></trkpt><trkpt lat="40.414225" lon="15.5615317"><ele>455.0</ele><time>2026-05-03T07:05:47.885Z</time></trkpt><trkpt lat="40.413985" lon="15.5616433"><ele>454.5</ele><time>2026-05-03T07:05:48.884Z</time></trkpt><trkpt lat="40.4137533" lon="15.5617533"><ele>454.0</ele><time>2026-05-03T07:05:49.885Z</time></trkpt><trkpt lat="40.4135183" lon="15.56188"><ele>454.0</ele><time>2026-05-03T07:05:50.885Z</time></trkpt><trkpt lat="40.413285" lon="15.5620167"><ele>454.0</ele><time>2026-05-03T07:05:51.885Z</time></trkpt><trkpt lat="40.41306" lon="15.56216"><ele>454.5</ele><time>2026-05-03T07:05:52.884Z</time></trkpt><trkpt lat="40.4128417" lon="15.562295"><ele>455.0</ele><time>2026-05-03T07:05:53.884Z</time></trkpt><trkpt lat="40.4126233" lon="15.5624317"><ele>455.0</ele><time>2026-05-03T07:05:54.885Z</time></trkpt><trkpt lat="40.4124" lon="15.5625767"><ele>455.0</ele><time>2026-05-03T07:05:55.884Z</time></trkpt><trkpt lat="40.4121867" lon="15.5627283"><ele>453.5</ele><time>2026-05-03T07:05:56.884Z</time></trkpt><trkpt lat="40.4119667" lon="15.562885"><ele>452.0</ele><time>2026-05-03T07:05:57.885Z</time></trkpt><trkpt lat="40.411745" lon="15.5630483"><ele>452.0</ele><time>2026-05-03T07:05:58.885Z</time></trkpt><trkpt lat="40.41153" lon="15.5632183"><ele>452.0</ele><time>2026-05-03T07:05:59.884Z</time></trkpt><trkpt lat="40.4113217" lon="15.56341"><ele>452.0</ele><time>2026-05-03T07:06:00.885Z</time></trkpt><trkpt lat="40.4111183" lon="15.5636117"><ele>452.0</ele><time>2026-05-03T07:06:01.885Z</time></trkpt><trkpt lat="40.4109233" lon="15.5638083"><ele>452.0</ele><time>2026-05-03T07:06:02.885Z</time></trkpt><trkpt lat="40.4107267" lon="15.5640067"><ele>452.0</ele><time>2026-05-03T07:06:03.885Z</time></trkpt><trkpt lat="40.4105433" lon="15.56421"><ele>451.0</ele><time>2026-05-03T07:06:04.885Z</time></trkpt><trkpt lat="40.41037" lon="15.5644367"><ele>450.0</ele><time>2026-05-03T07:06:05.885Z</time></trkpt><trkpt lat="40.4101883" lon="15.5646667"><ele>450.0</ele><time>2026-05-03T07:06:06.884Z</time></trkpt><trkpt lat="40.4100183" lon="15.5648983"><ele>450.0</ele><time>2026-05-03T07:06:07.884Z</time></trkpt><trkpt lat="40.4098567" lon="15.5651317"><ele>450.5</ele><time>2026-05-03T07:06:08.885Z</time></trkpt><trkpt lat="40.409695" lon="15.5653833"><ele>451.0</ele><time>2026-05-03T07:06:09.885Z</time></trkpt><trkpt lat="40.4095317" lon="15.5656483"><ele>450.0</ele><time>2026-05-03T07:06:10.884Z</time></trkpt><trkpt lat="40.4093783" lon="15.5659183"><ele>449.0</ele><time>2026-05-03T07:06:11.885Z</time></trkpt><trkpt lat="40.40923" lon="15.5661967"><ele>449.0</ele><time>2026-05-03T07:06:12.885Z</time></trkpt><trkpt lat="40.4090867" lon="15.566485"><ele>449.0</ele><time>2026-05-03T07:06:13.885Z</time></trkpt><trkpt lat="40.40895" lon="15.566765"><ele>448.0</ele><time>2026-05-03T07:06:14.885Z</time></trkpt><trkpt lat="40.4088067" lon="15.5670517"><ele>447.0</ele><time>2026-05-03T07:06:15.885Z</time></trkpt><trkpt lat="40.4086667" lon="15.56733"><ele>447.0</ele><time>2026-05-03T07:06:16.885Z</time></trkpt><trkpt lat="40.4085283" lon="15.5676067"><ele>447.0</ele><time>2026-05-03T07:06:17.885Z</time></trkpt><trkpt lat="40.4083883" lon="15.5678867"><ele>447.0</ele><time>2026-05-03T07:06:18.884Z</time></trkpt><trkpt lat="40.4082467" lon="15.5681717"><ele>447.0</ele><time>2026-05-03T07:06:19.884Z</time></trkpt><trkpt lat="40.4080967" lon="15.5684517"><ele>447.0</ele><time>2026-05-03T07:06:20.885Z</time></trkpt><trkpt lat="40.4079567" lon="15.5687417"><ele>447.0</ele><time>2026-05-03T07:06:21.885Z</time></trkpt><trkpt lat="40.4078117" lon="15.5690233"><ele>447.0</ele><time>2026-05-03T07:06:22.885Z</time></trkpt><trkpt lat="40.407665" lon="15.5693083"><ele>447.0</ele><time>2026-05-03T07:06:23.884Z</time></trkpt><trkpt lat="40.4075067" lon="15.5695967"><ele>447.0</ele><time>2026-05-03T07:06:24.885Z</time></trkpt><trkpt lat="40.407355" lon="15.5698767"><ele>447.0</ele><time>2026-05-03T07:06:25.885Z</time></trkpt><trkpt lat="40.4072133" lon="15.5701567"><ele>447.0</ele><time>2026-05-03T07:06:26.884Z</time></trkpt><trkpt lat="40.4070583" lon="15.570435"><ele>447.0</ele><time>2026-05-03T07:06:27.885Z</time></trkpt><trkpt lat="40.4069033" lon="15.5707133"><ele>447.0</ele><time>2026-05-03T07:06:28.885Z</time></trkpt><trkpt lat="40.40675" lon="15.5709967"><ele>447.0</ele><time>2026-05-03T07:06:29.885Z</time></trkpt><trkpt lat="40.4065867" lon="15.5712717"><ele>447.0</ele><time>2026-05-03T07:06:30.884Z</time></trkpt><trkpt lat="40.4064133" lon="15.57154"><ele>447.0</ele><time>2026-05-03T07:06:31.885Z</time></trkpt><trkpt lat="40.40624" lon="15.5718133"><ele>447.0</ele><time>2026-05-03T07:06:32.885Z</time></trkpt><trkpt lat="40.4060633" lon="15.5720733"><ele>447.0</ele><time>2026-05-03T07:06:33.885Z</time></trkpt><trkpt lat="40.4058917" lon="15.5723283"><ele>447.0</ele><time>2026-05-03T07:06:34.885Z</time></trkpt><trkpt lat="40.405725" lon="15.572575"><ele>447.0</ele><time>2026-05-03T07:06:35.885Z</time></trkpt><trkpt lat="40.4055583" lon="15.5728233"><ele>447.5</ele><time>2026-05-03T07:06:36.884Z</time></trkpt><trkpt lat="40.40539" lon="15.5730583"><ele>448.0</ele><time>2026-05-03T07:06:37.885Z</time></trkpt><trkpt lat="40.40522" lon="15.57329"><ele>448.0</ele><time>2026-05-03T07:06:38.885Z</time></trkpt><trkpt lat="40.40505" lon="15.573525"><ele>448.0</ele><time>2026-05-03T07:06:39.885Z</time></trkpt><trkpt lat="40.4048783" lon="15.5737633"><ele>448.0</ele><time>2026-05-03T07:06:40.885Z</time></trkpt><trkpt lat="40.4047067" lon="15.574015"><ele>448.0</ele><time>2026-05-03T07:06:41.885Z</time></trkpt><trkpt lat="40.4045317" lon="15.57427"><ele>448.0</ele><time>2026-05-03T07:06:42.885Z</time></trkpt><trkpt lat="40.40436" lon="15.5745083"><ele>448.0</ele><time>2026-05-03T07:06:43.885Z</time></trkpt><trkpt lat="40.4041833" lon="15.5747467"><ele>447.5</ele><time>2026-05-03T07:06:44.885Z</time></trkpt><trkpt lat="40.40401" lon="15.574985"><ele>447.0</ele><time>2026-05-03T07:06:45.884Z</time></trkpt><trkpt lat="40.4038367" lon="15.5752217"><ele>447.5</ele><time>2026-05-03T07:06:46.885Z</time></trkpt><trkpt lat="40.4036633" lon="15.5754583"><ele>448.0</ele><time>2026-05-03T07:06:47.885Z</time></trkpt><trkpt lat="40.4034933" lon="15.5756967"><ele>448.0</ele><time>2026-05-03T07:06:48.885Z</time></trkpt><trkpt lat="40.4033217" lon="15.5759267"><ele>448.0</ele><time>2026-05-03T07:06:49.884Z</time></trkpt><trkpt lat="40.4031483" lon="15.576165"><ele>448.0</ele><time>2026-05-03T07:06:50.885Z</time></trkpt><trkpt lat="40.4029717" lon="15.5763983"><ele>448.0</ele><time>2026-05-03T07:06:51.885Z</time></trkpt><trkpt lat="40.4027917" lon="15.5766233"><ele>448.0</ele><time>2026-05-03T07:06:52.885Z</time></trkpt><trkpt lat="40.4026167" lon="15.5768417"><ele>448.0</ele><time>2026-05-03T07:06:53.885Z</time></trkpt><trkpt lat="40.402435" lon="15.5770567"><ele>448.0</ele><time>2026-05-03T07:06:54.885Z</time></trkpt><trkpt lat="40.40225" lon="15.5772667"><ele>448.0</ele><time>2026-05-03T07:06:55.884Z</time></trkpt><trkpt lat="40.402065" lon="15.5774717"><ele>448.0</ele><time>2026-05-03T07:06:56.884Z</time></trkpt><trkpt lat="40.4018817" lon="15.577675"><ele>448.0</ele><time>2026-05-03T07:06:57.885Z</time></trkpt><trkpt lat="40.40169" lon="15.577875"><ele>448.0</ele><time>2026-05-03T07:06:58.885Z</time></trkpt><trkpt lat="40.4015" lon="15.57807"><ele>448.0</ele><time>2026-05-03T07:06:59.884Z</time></trkpt><trkpt lat="40.4013117" lon="15.5782617"><ele>448.5</ele><time>2026-05-03T07:07:00.885Z</time></trkpt><trkpt lat="40.4011167" lon="15.57844"><ele>449.0</ele><time>2026-05-03T07:07:01.885Z</time></trkpt><trkpt lat="40.400915" lon="15.5786133"><ele>447.5</ele><time>2026-05-03T07:07:02.885Z</time></trkpt><trkpt lat="40.4007117" lon="15.5787783"><ele>446.0</ele><time>2026-05-03T07:07:03.884Z</time></trkpt><trkpt lat="40.40051" lon="15.5789533"><ele>447.5</ele><time>2026-05-03T07:07:04.885Z</time></trkpt><trkpt lat="40.4003117" lon="15.579105"><ele>449.0</ele><time>2026-05-03T07:07:05.885Z</time></trkpt><trkpt lat="40.400104" lon="15.5792692"><ele>449.0</ele><time>2026-05-03T07:07:06.884Z</time></trkpt><trkpt lat="40.399893" lon="15.5794368"><ele>449.0</ele><time>2026-05-03T07:07:07.885Z</time></trkpt><trkpt lat="40.3996777" lon="15.5795995"><ele>449.5</ele><time>2026-05-03T07:07:08.885Z</time></trkpt><trkpt lat="40.3994658" lon="15.5797616"><ele>450.0</ele><time>2026-05-03T07:07:09.885Z</time></trkpt><trkpt lat="40.3992517" lon="15.5799188"><ele>450.0</ele><time>2026-05-03T07:07:10.884Z</time></trkpt><trkpt lat="40.3990385" lon="15.5800814"><ele>450.0</ele><time>2026-05-03T07:07:11.885Z</time></trkpt><trkpt lat="40.3988239" lon="15.5802456"><ele>451.0</ele><time>2026-05-03T07:07:12.885Z</time></trkpt><trkpt lat="40.3986077" lon="15.5804116"><ele>452.0</ele><time>2026-05-03T07:07:13.885Z</time></trkpt><trkpt lat="40.3983905" lon="15.5805642"><ele>452.0</ele><time>2026-05-03T07:07:14.884Z</time></trkpt><trkpt lat="40.3981822" lon="15.5807176"><ele>452.0</ele><time>2026-05-03T07:07:15.885Z</time></trkpt><trkpt lat="40.3979758" lon="15.580874"><ele>452.5</ele><time>2026-05-03T07:07:16.885Z</time></trkpt><trkpt lat="40.3977744" lon="15.5810346"><ele>453.0</ele><time>2026-05-03T07:07:17.885Z</time></trkpt><trkpt lat="40.3975726" lon="15.5811926"><ele>453.0</ele><time>2026-05-03T07:07:18.885Z</time></trkpt><trkpt lat="40.3973704" lon="15.5813461"><ele>453.0</ele><time>2026-05-03T07:07:19.885Z</time></trkpt><trkpt lat="40.3971625" lon="15.5815008"><ele>452.0</ele><time>2026-05-03T07:07:20.885Z</time></trkpt><trkpt lat="40.3969551" lon="15.5816627"><ele>451.0</ele><time>2026-05-03T07:07:21.885Z</time></trkpt><trkpt lat="40.3967471" lon="15.5818154"><ele>451.0</ele><time>2026-05-03T07:07:22.885Z</time></trkpt><trkpt lat="40.3965387" lon="15.5819688"><ele>451.0</ele><time>2026-05-03T07:07:23.885Z</time></trkpt><trkpt lat="40.3963296" lon="15.5821289"><ele>450.0</ele><time>2026-05-03T07:07:24.885Z</time></trkpt><trkpt lat="40.3961218" lon="15.5822821"><ele>449.0</ele><time>2026-05-03T07:07:25.885Z</time></trkpt><trkpt lat="40.3959138" lon="15.5824294"><ele>449.0</ele><time>2026-05-03T07:07:26.885Z</time></trkpt><trkpt lat="40.395709" lon="15.5825832"><ele>449.0</ele><time>2026-05-03T07:07:27.885Z</time></trkpt><trkpt lat="40.3955005" lon="15.5827401"><ele>448.5</ele><time>2026-05-03T07:07:28.885Z</time></trkpt><trkpt lat="40.3952933" lon="15.5828934"><ele>448.0</ele><time>2026-05-03T07:07:29.885Z</time></trkpt><trkpt lat="40.395085" lon="15.5830482"><ele>448.0</ele><time>2026-05-03T07:07:30.884Z</time></trkpt><trkpt lat="40.3948792" lon="15.583204"><ele>448.0</ele><time>2026-05-03T07:07:31.885Z</time></trkpt><trkpt lat="40.3946714" lon="15.5833597"><ele>448.0</ele><time>2026-05-03T07:07:32.885Z</time></trkpt><trkpt lat="40.3944593" lon="15.5835227"><ele>448.0</ele><time>2026-05-03T07:07:33.884Z</time></trkpt><trkpt lat="40.3942466" lon="15.5836833"><ele>448.0</ele><time>2026-05-03T07:07:34.885Z</time></trkpt><trkpt lat="40.3940269" lon="15.5838511"><ele>448.0</ele><time>2026-05-03T07:07:35.884Z</time></trkpt><trkpt lat="40.3938047" lon="15.5840224"><ele>448.5</ele><time>2026-05-03T07:07:36.884Z</time></trkpt><trkpt lat="40.3935796" lon="15.5841971"><ele>449.0</ele><time>2026-05-03T07:07:37.885Z</time></trkpt><trkpt lat="40.3933534" lon="15.5843674"><ele>449.0</ele><time>2026-05-03T07:07:38.885Z</time></trkpt><trkpt lat="40.3931264" lon="15.5845369"><ele>449.0</ele><time>2026-05-03T07:07:39.885Z</time></trkpt><trkpt lat="40.3929007" lon="15.5847039"><ele>448.0</ele><time>2026-05-03T07:07:40.885Z</time></trkpt><trkpt lat="40.3926744" lon="15.5848709"><ele>447.0</ele><time>2026-05-03T07:07:41.884Z</time></trkpt><trkpt lat="40.3924527" lon="15.5850381"><ele>447.0</ele><time>2026-05-03T07:07:42.885Z</time></trkpt><trkpt lat="40.3922356" lon="15.5852006"><ele>447.0</ele><time>2026-05-03T07:07:43.885Z</time></trkpt><trkpt lat="40.3920239" lon="15.5853611"><ele>448.0</ele><time>2026-05-03T07:07:44.885Z</time></trkpt><trkpt lat="40.3918131" lon="15.585522"><ele>449.0</ele><time>2026-05-03T07:07:45.884Z</time></trkpt><trkpt lat="40.3916032" lon="15.5856897"><ele>449.0</ele><time>2026-05-03T07:07:46.885Z</time></trkpt><trkpt lat="40.3913935" lon="15.585854"><ele>449.0</ele><time>2026-05-03T07:07:47.885Z</time></trkpt><trkpt lat="40.3911848" lon="15.586019"><ele>450.0</ele><time>2026-05-03T07:07:48.885Z</time></trkpt><trkpt lat="40.3909752" lon="15.5861829"><ele>451.0</ele><time>2026-05-03T07:07:49.884Z</time></trkpt><trkpt lat="40.3907639" lon="15.5863514"><ele>451.0</ele><time>2026-05-03T07:07:50.885Z</time></trkpt><trkpt lat="40.3905562" lon="15.5865232"><ele>451.0</ele><time>2026-05-03T07:07:51.885Z</time></trkpt><trkpt lat="40.3903472" lon="15.5866914"><ele>450.0</ele><time>2026-05-03T07:07:52.884Z</time></trkpt><trkpt lat="40.3901414" lon="15.5868625"><ele>449.0</ele><time>2026-05-03T07:07:53.884Z</time></trkpt><trkpt lat="40.389931" lon="15.5870359"><ele>449.0</ele><time>2026-05-03T07:07:54.885Z</time></trkpt><trkpt lat="40.3897183" lon="15.587208"><ele>449.0</ele><time>2026-05-03T07:07:55.884Z</time></trkpt><trkpt lat="40.3895062" lon="15.5873803"><ele>449.0</ele><time>2026-05-03T07:07:56.885Z</time></trkpt><trkpt lat="40.3892944" lon="15.5875567"><ele>449.0</ele><time>2026-05-03T07:07:57.885Z</time></trkpt><trkpt lat="40.3890851" lon="15.5877289"><ele>449.0</ele><time>2026-05-03T07:07:58.885Z</time></trkpt><trkpt lat="40.3888739" lon="15.5879033"><ele>449.0</ele><time>2026-05-03T07:07:59.885Z</time></trkpt><trkpt lat="40.3886598" lon="15.5880807"><ele>450.0</ele><time>2026-05-03T07:08:00.884Z</time></trkpt><trkpt lat="40.3884496" lon="15.588255"><ele>451.0</ele><time>2026-05-03T07:08:01.885Z</time></trkpt><trkpt lat="40.3882343" lon="15.5884315"><ele>451.0</ele><time>2026-05-03T07:08:02.885Z</time></trkpt><trkpt lat="40.3880191" lon="15.5886042"><ele>451.0</ele><time>2026-05-03T07:08:03.885Z</time></trkpt><trkpt lat="40.3878052" lon="15.5887811"><ele>450.0</ele><time>2026-05-03T07:08:04.885Z</time></trkpt><trkpt lat="40.3875918" lon="15.588954"><ele>449.0</ele><time>2026-05-03T07:08:05.885Z</time></trkpt><trkpt lat="40.387376" lon="15.5891297"><ele>449.0</ele><time>2026-05-03T07:08:06.885Z</time></trkpt><trkpt lat="40.3871622" lon="15.5893011"><ele>449.0</ele><time>2026-05-03T07:08:07.884Z</time></trkpt><trkpt lat="40.3869513" lon="15.589469"><ele>450.0</ele><time>2026-05-03T07:08:08.885Z</time></trkpt><trkpt lat="40.3867388" lon="15.5896382"><ele>451.0</ele><time>2026-05-03T07:08:09.885Z</time></trkpt><trkpt lat="40.3865283" lon="15.5898054"><ele>450.0</ele><time>2026-05-03T07:08:10.885Z</time></trkpt><trkpt lat="40.3863158" lon="15.5899718"><ele>449.0</ele><time>2026-05-03T07:08:11.885Z</time></trkpt><trkpt lat="40.3861075" lon="15.590133"><ele>449.0</ele><time>2026-05-03T07:08:12.885Z</time></trkpt><trkpt lat="40.3858967" lon="15.5902983"><ele>449.0</ele><time>2026-05-03T07:08:13.885Z</time></trkpt><trkpt lat="40.3856867" lon="15.590465"><ele>450.5</ele><time>2026-05-03T07:08:14.885Z</time></trkpt><trkpt lat="40.3854817" lon="15.5906317"><ele>452.0</ele><time>2026-05-03T07:08:15.885Z</time></trkpt><trkpt lat="40.3852683" lon="15.5908067"><ele>452.0</ele><time>2026-05-03T07:08:16.885Z</time></trkpt><trkpt lat="40.3850517" lon="15.59099"><ele>452.0</ele><time>2026-05-03T07:08:17.885Z</time></trkpt><trkpt lat="40.3848333" lon="15.5911683"><ele>451.5</ele><time>2026-05-03T07:08:18.885Z</time></trkpt><trkpt lat="40.3846183" lon="15.5913483"><ele>451.0</ele><time>2026-05-03T07:08:19.885Z</time></trkpt><trkpt lat="40.3843983" lon="15.5915233"><ele>451.0</ele><time>2026-05-03T07:08:20.885Z</time></trkpt><trkpt lat="40.3841767" lon="15.5917"><ele>451.0</ele><time>2026-05-03T07:08:21.884Z</time></trkpt><trkpt lat="40.38396" lon="15.591875"><ele>451.0</ele><time>2026-05-03T07:08:22.884Z</time></trkpt><trkpt lat="40.3837433" lon="15.59204"><ele>451.0</ele><time>2026-05-03T07:08:23.885Z</time></trkpt><trkpt lat="40.3835317" lon="15.5922117"><ele>451.0</ele><time>2026-05-03T07:08:24.885Z</time></trkpt><trkpt lat="40.383315" lon="15.59239"><ele>451.0</ele><time>2026-05-03T07:08:25.885Z</time></trkpt><trkpt lat="40.3831017" lon="15.5925683"><ele>451.0</ele><time>2026-05-03T07:08:26.884Z</time></trkpt><trkpt lat="40.382885" lon="15.5927433"><ele>451.0</ele><time>2026-05-03T07:08:27.885Z</time></trkpt><trkpt lat="40.3826667" lon="15.5929183"><ele>451.0</ele><time>2026-05-03T07:08:28.885Z</time></trkpt><trkpt lat="40.3824483" lon="15.5930967"><ele>451.0</ele><time>2026-05-03T07:08:29.885Z</time></trkpt><trkpt lat="40.3822317" lon="15.59326"><ele>451.5</ele><time>2026-05-03T07:08:30.885Z</time></trkpt><trkpt lat="40.3820083" lon="15.5934367"><ele>452.0</ele><time>2026-05-03T07:08:31.884Z</time></trkpt><trkpt lat="40.381785" lon="15.593595"><ele>452.5</ele><time>2026-05-03T07:08:32.885Z</time></trkpt><trkpt lat="40.3815567" lon="15.5937617"><ele>453.0</ele><time>2026-05-03T07:08:33.885Z</time></trkpt><trkpt lat="40.381335" lon="15.5939267"><ele>452.0</ele><time>2026-05-03T07:08:34.885Z</time></trkpt><trkpt lat="40.3811083" lon="15.5940883"><ele>451.0</ele><time>2026-05-03T07:08:35.885Z</time></trkpt><trkpt lat="40.3808817" lon="15.5942533"><ele>451.0</ele><time>2026-05-03T07:08:36.885Z</time></trkpt><trkpt lat="40.3806533" lon="15.5944217"><ele>451.0</ele><time>2026-05-03T07:08:37.885Z</time></trkpt><trkpt lat="40.380425" lon="15.59459"><ele>451.5</ele><time>2026-05-03T07:08:38.885Z</time></trkpt><trkpt lat="40.38019" lon="15.594755"><ele>452.0</ele><time>2026-05-03T07:08:39.884Z</time></trkpt><trkpt lat="40.3799483" lon="15.5949317"><ele>452.0</ele><time>2026-05-03T07:08:40.885Z</time></trkpt><trkpt lat="40.3797067" lon="15.5951083"><ele>452.0</ele><time>2026-05-03T07:08:41.885Z</time></trkpt><trkpt lat="40.37947" lon="15.59528"><ele>452.5</ele><time>2026-05-03T07:08:42.884Z</time></trkpt><trkpt lat="40.3792283" lon="15.5954583"><ele>453.0</ele><time>2026-05-03T07:08:43.885Z</time></trkpt><trkpt lat="40.379" lon="15.5956267"><ele>451.5</ele><time>2026-05-03T07:08:44.885Z</time></trkpt><trkpt lat="40.378765" lon="15.595805"><ele>450.0</ele><time>2026-05-03T07:08:45.885Z</time></trkpt><trkpt lat="40.3785267" lon="15.5959783"><ele>450.0</ele><time>2026-05-03T07:08:46.884Z</time></trkpt><trkpt lat="40.3782867" lon="15.5961467"><ele>450.0</ele><time>2026-05-03T07:08:47.885Z</time></trkpt><trkpt lat="40.37805" lon="15.5963183"><ele>451.0</ele><time>2026-05-03T07:08:48.885Z</time></trkpt><trkpt lat="40.377805" lon="15.5965017"><ele>452.0</ele><time>2026-05-03T07:08:49.884Z</time></trkpt><trkpt lat="40.377565" lon="15.5966817"><ele>452.0</ele><time>2026-05-03T07:08:50.884Z</time></trkpt><trkpt lat="40.37733" lon="15.59686"><ele>452.0</ele><time>2026-05-03T07:08:51.885Z</time></trkpt><trkpt lat="40.37709" lon="15.597035"><ele>452.0</ele><time>2026-05-03T07:08:52.885Z</time></trkpt><trkpt lat="40.3768483" lon="15.59722"><ele>452.0</ele><time>2026-05-03T07:08:53.885Z</time></trkpt><trkpt lat="40.3766083" lon="15.5974"><ele>452.0</ele><time>2026-05-03T07:08:54.885Z</time></trkpt><trkpt lat="40.3763717" lon="15.597575"><ele>452.0</ele><time>2026-05-03T07:08:55.885Z</time></trkpt><trkpt lat="40.37613" lon="15.5977483"><ele>451.5</ele><time>2026-05-03T07:08:56.885Z</time></trkpt><trkpt lat="40.37589" lon="15.5979217"><ele>451.0</ele><time>2026-05-03T07:08:57.885Z</time></trkpt><trkpt lat="40.375645" lon="15.5980983"><ele>451.5</ele><time>2026-05-03T07:08:58.884Z</time></trkpt><trkpt lat="40.3754067" lon="15.5982633"><ele>452.0</ele><time>2026-05-03T07:08:59.885Z</time></trkpt><trkpt lat="40.3751567" lon="15.5984283"><ele>452.0</ele><time>2026-05-03T07:09:00.885Z</time></trkpt><trkpt lat="40.374905" lon="15.5985967"><ele>452.0</ele><time>2026-05-03T07:09:01.885Z</time></trkpt><trkpt lat="40.37465" lon="15.5987533"><ele>451.5</ele><time>2026-05-03T07:09:02.885Z</time></trkpt><trkpt lat="40.3743833" lon="15.59892"><ele>451.0</ele><time>2026-05-03T07:09:03.884Z</time></trkpt><trkpt lat="40.3741333" lon="15.599075"><ele>451.0</ele><time>2026-05-03T07:09:04.885Z</time></trkpt><trkpt lat="40.373875" lon="15.59922"><ele>451.0</ele><time>2026-05-03T07:09:05.885Z</time></trkpt><trkpt lat="40.3736183" lon="15.59936"><ele>451.5</ele><time>2026-05-03T07:09:06.884Z</time></trkpt><trkpt lat="40.37336" lon="15.5995"><ele>452.0</ele><time>2026-05-03T07:09:07.885Z</time></trkpt><trkpt lat="40.3731083" lon="15.5996167"><ele>452.0</ele><time>2026-05-03T07:09:08.884Z</time></trkpt><trkpt lat="40.3728617" lon="15.59973"><ele>452.0</ele><time>2026-05-03T07:09:09.885Z</time></trkpt><trkpt lat="40.3726117" lon="15.5998433"><ele>452.0</ele><time>2026-05-03T07:09:10.884Z</time></trkpt><trkpt lat="40.3723617" lon="15.599955"><ele>452.0</ele><time>2026-05-03T07:09:11.885Z</time></trkpt><trkpt lat="40.372105" lon="15.6000617"><ele>453.0</ele><time>2026-05-03T07:09:12.884Z</time></trkpt><trkpt lat="40.3718567" lon="15.60017"><ele>454.0</ele><time>2026-05-03T07:09:13.885Z</time></trkpt><trkpt lat="40.3716067" lon="15.6002817"><ele>454.0</ele><time>2026-05-03T07:09:14.885Z</time></trkpt><trkpt lat="40.3713633" lon="15.6003933"><ele>454.0</ele><time>2026-05-03T07:09:15.885Z</time></trkpt><trkpt lat="40.3711133" lon="15.6005117"><ele>454.5</ele><time>2026-05-03T07:09:16.885Z</time></trkpt><trkpt lat="40.3708633" lon="15.6006283"><ele>455.0</ele><time>2026-05-03T07:09:17.885Z</time></trkpt><trkpt lat="40.3706083" lon="15.60074"><ele>454.5</ele><time>2026-05-03T07:09:18.885Z</time></trkpt><trkpt lat="40.3703567" lon="15.6008567"><ele>454.0</ele><time>2026-05-03T07:09:19.885Z</time></trkpt><trkpt lat="40.3701083" lon="15.600985"><ele>454.0</ele><time>2026-05-03T07:09:20.885Z</time></trkpt><trkpt lat="40.36986" lon="15.60111"><ele>454.0</ele><time>2026-05-03T07:09:21.885Z</time></trkpt><trkpt lat="40.3696112" lon="15.6012394"><ele>455.0</ele><time>2026-05-03T07:09:22.884Z</time></trkpt><trkpt lat="40.3693687" lon="15.6013776"><ele>456.0</ele><time>2026-05-03T07:09:23.884Z</time></trkpt><trkpt lat="40.3691286" lon="15.6015233"><ele>456.0</ele><time>2026-05-03T07:09:24.884Z</time></trkpt><trkpt lat="40.36889" lon="15.6016687"><ele>456.0</ele><time>2026-05-03T07:09:25.885Z</time></trkpt><trkpt lat="40.3686601" lon="15.6018123"><ele>455.5</ele><time>2026-05-03T07:09:26.885Z</time></trkpt><trkpt lat="40.368429" lon="15.6019553"><ele>455.0</ele><time>2026-05-03T07:09:27.884Z</time></trkpt><trkpt lat="40.3682024" lon="15.6021052"><ele>455.5</ele><time>2026-05-03T07:09:28.885Z</time></trkpt><trkpt lat="40.3679817" lon="15.6022575"><ele>456.0</ele><time>2026-05-03T07:09:29.885Z</time></trkpt><trkpt lat="40.367762" lon="15.6024144"><ele>456.0</ele><time>2026-05-03T07:09:30.885Z</time></trkpt><trkpt lat="40.3675438" lon="15.6025738"><ele>456.0</ele><time>2026-05-03T07:09:31.885Z</time></trkpt><trkpt lat="40.3673249" lon="15.6027346"><ele>456.0</ele><time>2026-05-03T07:09:32.885Z</time></trkpt><trkpt lat="40.3671091" lon="15.6029057"><ele>456.0</ele><time>2026-05-03T07:09:33.884Z</time></trkpt><trkpt lat="40.3668944" lon="15.6030856"><ele>456.0</ele><time>2026-05-03T07:09:34.884Z</time></trkpt><trkpt lat="40.3666845" lon="15.603272"><ele>456.0</ele><time>2026-05-03T07:09:35.885Z</time></trkpt><trkpt lat="40.3664752" lon="15.6034556"><ele>456.5</ele><time>2026-05-03T07:09:36.885Z</time></trkpt><trkpt lat="40.3662701" lon="15.603639"><ele>457.0</ele><time>2026-05-03T07:09:37.885Z</time></trkpt><trkpt lat="40.3660692" lon="15.603826"><ele>457.0</ele><time>2026-05-03T07:09:38.884Z</time></trkpt><trkpt lat="40.3658671" lon="15.6040213"><ele>457.0</ele><time>2026-05-03T07:09:39.884Z</time></trkpt><trkpt lat="40.3656632" lon="15.6042179"><ele>457.5</ele><time>2026-05-03T07:09:40.884Z</time></trkpt><trkpt lat="40.365459" lon="15.6044205"><ele>458.0</ele><time>2026-05-03T07:09:41.885Z</time></trkpt><trkpt lat="40.3652531" lon="15.6046297"><ele>457.0</ele><time>2026-05-03T07:09:42.885Z</time></trkpt><trkpt lat="40.3650531" lon="15.6048383"><ele>456.0</ele><time>2026-05-03T07:09:43.885Z</time></trkpt><trkpt lat="40.3648601" lon="15.6050481"><ele>456.0</ele><time>2026-05-03T07:09:44.885Z</time></trkpt><trkpt lat="40.3646676" lon="15.6052593"><ele>456.0</ele><time>2026-05-03T07:09:45.885Z</time></trkpt><trkpt lat="40.3644757" lon="15.6054698"><ele>456.0</ele><time>2026-05-03T07:09:46.885Z</time></trkpt><trkpt lat="40.3642805" lon="15.6056834"><ele>456.0</ele><time>2026-05-03T07:09:47.885Z</time></trkpt><trkpt lat="40.364083" lon="15.6058944"><ele>456.0</ele><time>2026-05-03T07:09:48.885Z</time></trkpt><trkpt lat="40.3638853" lon="15.6061016"><ele>456.0</ele><time>2026-05-03T07:09:49.885Z</time></trkpt><trkpt lat="40.3636913" lon="15.6063095"><ele>456.5</ele><time>2026-05-03T07:09:50.885Z</time></trkpt><trkpt lat="40.3635001" lon="15.6065155"><ele>457.0</ele><time>2026-05-03T07:09:51.885Z</time></trkpt><trkpt lat="40.3633063" lon="15.6067195"><ele>457.0</ele><time>2026-05-03T07:09:52.884Z</time></trkpt><trkpt lat="40.3631088" lon="15.6069242"><ele>457.0</ele><time>2026-05-03T07:09:53.885Z</time></trkpt><trkpt lat="40.3629078" lon="15.6071358"><ele>457.0</ele><time>2026-05-03T07:09:54.886Z</time></trkpt><trkpt lat="40.3627055" lon="15.6073451"><ele>457.0</ele><time>2026-05-03T07:09:55.885Z</time></trkpt><trkpt lat="40.3625011" lon="15.6075537"><ele>457.0</ele><time>2026-05-03T07:09:56.886Z</time></trkpt><trkpt lat="40.3622985" lon="15.6077684"><ele>457.0</ele><time>2026-05-03T07:09:57.886Z</time></trkpt><trkpt lat="40.3620941" lon="15.6079738"><ele>456.5</ele><time>2026-05-03T07:09:58.885Z</time></trkpt><trkpt lat="40.3618902" lon="15.6081787"><ele>456.0</ele><time>2026-05-03T07:09:59.885Z</time></trkpt><trkpt lat="40.3616887" lon="15.6083793"><ele>456.0</ele><time>2026-05-03T07:10:00.885Z</time></trkpt><trkpt lat="40.3614882" lon="15.6085767"><ele>456.0</ele><time>2026-05-03T07:10:01.886Z</time></trkpt><trkpt lat="40.3612831" lon="15.6087769"><ele>456.0</ele><time>2026-05-03T07:10:02.885Z</time></trkpt><trkpt lat="40.3610742" lon="15.6089768"><ele>456.0</ele><time>2026-05-03T07:10:03.885Z</time></trkpt><trkpt lat="40.3608701" lon="15.6091732"><ele>456.0</ele><time>2026-05-03T07:10:04.886Z</time></trkpt><trkpt lat="40.3606676" lon="15.6093644"><ele>456.0</ele><time>2026-05-03T07:10:05.886Z</time></trkpt><trkpt lat="40.3604591" lon="15.6095524"><ele>456.5</ele><time>2026-05-03T07:10:06.886Z</time></trkpt><trkpt lat="40.3602488" lon="15.6097298"><ele>457.0</ele><time>2026-05-03T07:10:07.886Z</time></trkpt><trkpt lat="40.3600357" lon="15.6098992"><ele>457.0</ele><time>2026-05-03T07:10:08.885Z</time></trkpt><trkpt lat="40.3598206" lon="15.610069"><ele>457.0</ele><time>2026-05-03T07:10:09.886Z</time></trkpt><trkpt lat="40.3596014" lon="15.6102427"><ele>457.0</ele><time>2026-05-03T07:10:10.885Z</time></trkpt><trkpt lat="40.359379" lon="15.6104123"><ele>457.0</ele><time>2026-05-03T07:10:11.886Z</time></trkpt><trkpt lat="40.3591595" lon="15.6105761"><ele>457.0</ele><time>2026-05-03T07:10:12.886Z</time></trkpt><trkpt lat="40.3589447" lon="15.6107293"><ele>457.0</ele><time>2026-05-03T07:10:13.886Z</time></trkpt><trkpt lat="40.3587328" lon="15.6108886"><ele>457.0</ele><time>2026-05-03T07:10:14.885Z</time></trkpt><trkpt lat="40.3585203" lon="15.6110524"><ele>457.0</ele><time>2026-05-03T07:10:15.886Z</time></trkpt><trkpt lat="40.3583061" lon="15.6112185"><ele>457.0</ele><time>2026-05-03T07:10:16.886Z</time></trkpt><trkpt lat="40.3580915" lon="15.6113825"><ele>457.0</ele><time>2026-05-03T07:10:17.886Z</time></trkpt><trkpt lat="40.357879" lon="15.6115472"><ele>456.5</ele><time>2026-05-03T07:10:18.886Z</time></trkpt><trkpt lat="40.3576671" lon="15.6117134"><ele>456.0</ele><time>2026-05-03T07:10:19.886Z</time></trkpt><trkpt lat="40.3574565" lon="15.6118804"><ele>457.0</ele><time>2026-05-03T07:10:20.886Z</time></trkpt><trkpt lat="40.3572426" lon="15.612049"><ele>458.0</ele><time>2026-05-03T07:10:21.886Z</time></trkpt><trkpt lat="40.3570286" lon="15.6122159"><ele>458.0</ele><time>2026-05-03T07:10:22.886Z</time></trkpt><trkpt lat="40.3568137" lon="15.612379"><ele>458.0</ele><time>2026-05-03T07:10:23.886Z</time></trkpt><trkpt lat="40.3566002" lon="15.6125492"><ele>458.0</ele><time>2026-05-03T07:10:24.886Z</time></trkpt><trkpt lat="40.3563896" lon="15.6127149"><ele>458.0</ele><time>2026-05-03T07:10:25.886Z</time></trkpt><trkpt lat="40.3561738" lon="15.6128731"><ele>458.0</ele><time>2026-05-03T07:10:26.886Z</time></trkpt><trkpt lat="40.3559639" lon="15.6130329"><ele>458.0</ele><time>2026-05-03T07:10:27.886Z</time></trkpt><trkpt lat="40.3557552" lon="15.6131891"><ele>458.0</ele><time>2026-05-03T07:10:28.886Z</time></trkpt><trkpt lat="40.3555468" lon="15.6133414"><ele>458.0</ele><time>2026-05-03T07:10:29.886Z</time></trkpt><trkpt lat="40.3553422" lon="15.6134987"><ele>458.5</ele><time>2026-05-03T07:10:30.886Z</time></trkpt><trkpt lat="40.35513" lon="15.6136566"><ele>459.0</ele><time>2026-05-03T07:10:31.886Z</time></trkpt><trkpt lat="40.354919" lon="15.6138154"><ele>459.0</ele><time>2026-05-03T07:10:32.886Z</time></trkpt><trkpt lat="40.3547073" lon="15.613975"><ele>459.0</ele><time>2026-05-03T07:10:33.886Z</time></trkpt><trkpt lat="40.3544967" lon="15.6141378"><ele>458.5</ele><time>2026-05-03T07:10:34.885Z</time></trkpt><trkpt lat="40.3542904" lon="15.6143006"><ele>458.0</ele><time>2026-05-03T07:10:35.886Z</time></trkpt><trkpt lat="40.3540825" lon="15.6144588"><ele>458.0</ele><time>2026-05-03T07:10:36.886Z</time></trkpt><trkpt lat="40.3538743" lon="15.6146165"><ele>458.0</ele><time>2026-05-03T07:10:37.886Z</time></trkpt><trkpt lat="40.3536599" lon="15.6147755"><ele>458.0</ele><time>2026-05-03T07:10:38.886Z</time></trkpt><trkpt lat="40.3534424" lon="15.6149369"><ele>458.0</ele><time>2026-05-03T07:10:39.886Z</time></trkpt><trkpt lat="40.3532276" lon="15.6151"><ele>458.0</ele><time>2026-05-03T07:10:40.886Z</time></trkpt><trkpt lat="40.3530112" lon="15.6152671"><ele>458.0</ele><time>2026-05-03T07:10:41.885Z</time></trkpt><trkpt lat="40.3527933" lon="15.615434"><ele>459.5</ele><time>2026-05-03T07:10:42.886Z</time></trkpt><trkpt lat="40.352575" lon="15.6155959"><ele>461.0</ele><time>2026-05-03T07:10:43.885Z</time></trkpt><trkpt lat="40.352354" lon="15.6157639"><ele>460.0</ele><time>2026-05-03T07:10:44.885Z</time></trkpt><trkpt lat="40.3521332" lon="15.6159266"><ele>459.0</ele><time>2026-05-03T07:10:45.886Z</time></trkpt><trkpt lat="40.3519112" lon="15.6160935"><ele>460.0</ele><time>2026-05-03T07:10:46.886Z</time></trkpt><trkpt lat="40.3516887" lon="15.6162612"><ele>461.0</ele><time>2026-05-03T07:10:47.885Z</time></trkpt><trkpt lat="40.3514643" lon="15.6164275"><ele>460.5</ele><time>2026-05-03T07:10:48.886Z</time></trkpt><trkpt lat="40.3512407" lon="15.6166019"><ele>460.0</ele><time>2026-05-03T07:10:49.885Z</time></trkpt><trkpt lat="40.3510213" lon="15.6167761"><ele>460.0</ele><time>2026-05-03T07:10:50.886Z</time></trkpt><trkpt lat="40.350804" lon="15.616945"><ele>460.0</ele><time>2026-05-03T07:10:51.886Z</time></trkpt><trkpt lat="40.3505835" lon="15.6171159"><ele>461.5</ele><time>2026-05-03T07:10:52.886Z</time></trkpt><trkpt lat="40.3503609" lon="15.6172803"><ele>463.0</ele><time>2026-05-03T07:10:53.886Z</time></trkpt><trkpt lat="40.3501365" lon="15.6174499"><ele>463.0</ele><time>2026-05-03T07:10:54.885Z</time></trkpt><trkpt lat="40.3499188" lon="15.6176163"><ele>463.0</ele><time>2026-05-03T07:10:55.886Z</time></trkpt><trkpt lat="40.3497018" lon="15.6177805"><ele>462.5</ele><time>2026-05-03T07:10:56.885Z</time></trkpt><trkpt lat="40.3494805" lon="15.6179499"><ele>462.0</ele><time>2026-05-03T07:10:57.886Z</time></trkpt><trkpt lat="40.3492567" lon="15.6181196"><ele>462.0</ele><time>2026-05-03T07:10:58.885Z</time></trkpt><trkpt lat="40.3490347" lon="15.618288"><ele>462.0</ele><time>2026-05-03T07:10:59.886Z</time></trkpt><trkpt lat="40.3488133" lon="15.618455"><ele>462.0</ele><time>2026-05-03T07:11:00.886Z</time></trkpt><trkpt lat="40.3485968" lon="15.6186215"><ele>462.0</ele><time>2026-05-03T07:11:01.885Z</time></trkpt><trkpt lat="40.3483814" lon="15.6187893"><ele>462.0</ele><time>2026-05-03T07:11:02.886Z</time></trkpt><trkpt lat="40.348165" lon="15.6189483"><ele>462.0</ele><time>2026-05-03T07:11:03.885Z</time></trkpt><trkpt lat="40.3479417" lon="15.61912"><ele>463.0</ele><time>2026-05-03T07:11:04.886Z</time></trkpt><trkpt lat="40.3477217" lon="15.6192883"><ele>464.0</ele><time>2026-05-03T07:11:05.886Z</time></trkpt><trkpt lat="40.3475033" lon="15.6194517"><ele>464.0</ele><time>2026-05-03T07:11:06.886Z</time></trkpt><trkpt lat="40.3472817" lon="15.6196183"><ele>464.0</ele><time>2026-05-03T07:11:07.885Z</time></trkpt><trkpt lat="40.3470633" lon="15.6197767"><ele>464.0</ele><time>2026-05-03T07:11:08.886Z</time></trkpt><trkpt lat="40.3468467" lon="15.61994"><ele>464.0</ele><time>2026-05-03T07:11:09.886Z</time></trkpt><trkpt lat="40.3466317" lon="15.620105"><ele>464.0</ele><time>2026-05-03T07:11:10.885Z</time></trkpt><trkpt lat="40.3464183" lon="15.6202567"><ele>464.0</ele><time>2026-05-03T07:11:11.886Z</time></trkpt><trkpt lat="40.3462033" lon="15.62042"><ele>465.5</ele><time>2026-05-03T07:11:12.886Z</time></trkpt><trkpt lat="40.3459783" lon="15.6205867"><ele>467.0</ele><time>2026-05-03T07:11:13.886Z</time></trkpt><trkpt lat="40.3457517" lon="15.6207583"><ele>467.5</ele><time>2026-05-03T07:11:14.885Z</time></trkpt><trkpt lat="40.345525" lon="15.620925"><ele>468.0</ele><time>2026-05-03T07:11:15.885Z</time></trkpt><trkpt lat="40.3453017" lon="15.62109"><ele>468.5</ele><time>2026-05-03T07:11:16.885Z</time></trkpt><trkpt lat="40.3450767" lon="15.62126"><ele>469.0</ele><time>2026-05-03T07:11:17.885Z</time></trkpt><trkpt lat="40.3448533" lon="15.6214117"><ele>468.5</ele><time>2026-05-03T07:11:18.886Z</time></trkpt><trkpt lat="40.3446267" lon="15.6215567"><ele>468.0</ele><time>2026-05-03T07:11:19.886Z</time></trkpt><trkpt lat="40.3443983" lon="15.6217033"><ele>468.0</ele><time>2026-05-03T07:11:20.886Z</time></trkpt><trkpt lat="40.3441617" lon="15.6218467"><ele>468.0</ele><time>2026-05-03T07:11:21.885Z</time></trkpt><trkpt lat="40.34393" lon="15.62198"><ele>469.0</ele><time>2026-05-03T07:11:22.886Z</time></trkpt><trkpt lat="40.3437033" lon="15.6221117"><ele>470.0</ele><time>2026-05-03T07:11:23.885Z</time></trkpt><trkpt lat="40.3434767" lon="15.622245"><ele>470.0</ele><time>2026-05-03T07:11:24.885Z</time></trkpt><trkpt lat="40.3432517" lon="15.62236"><ele>470.0</ele><time>2026-05-03T07:11:25.886Z</time></trkpt><trkpt lat="40.3430267" lon="15.6224833"><ele>470.0</ele><time>2026-05-03T07:11:26.885Z</time></trkpt><trkpt lat="40.3428067" lon="15.6226033"><ele>470.0</ele><time>2026-05-03T07:11:27.886Z</time></trkpt><trkpt lat="40.3425917" lon="15.6227183"><ele>470.5</ele><time>2026-05-03T07:11:28.885Z</time></trkpt><trkpt lat="40.3423667" lon="15.622845"><ele>471.0</ele><time>2026-05-03T07:11:29.886Z</time></trkpt><trkpt lat="40.3421417" lon="15.62297"><ele>472.0</ele><time>2026-05-03T07:11:30.886Z</time></trkpt><trkpt lat="40.3419167" lon="15.6231033"><ele>473.0</ele><time>2026-05-03T07:11:31.886Z</time></trkpt><trkpt lat="40.3417033" lon="15.6232267"><ele>473.0</ele><time>2026-05-03T07:11:32.886Z</time></trkpt><trkpt lat="40.3414933" lon="15.6233483"><ele>473.0</ele><time>2026-05-03T07:11:33.885Z</time></trkpt><trkpt lat="40.3412867" lon="15.623475"><ele>473.0</ele><time>2026-05-03T07:11:34.886Z</time></trkpt><trkpt lat="40.3410867" lon="15.6236067"><ele>473.0</ele><time>2026-05-03T07:11:35.886Z</time></trkpt><trkpt lat="40.340885" lon="15.6237433"><ele>473.5</ele><time>2026-05-03T07:11:36.886Z</time></trkpt><trkpt lat="40.3406883" lon="15.6238833"><ele>474.0</ele><time>2026-05-03T07:11:37.886Z</time></trkpt><trkpt lat="40.3404867" lon="15.62402"><ele>475.0</ele><time>2026-05-03T07:11:38.886Z</time></trkpt><trkpt lat="40.3402833" lon="15.6241483"><ele>476.0</ele><time>2026-05-03T07:11:39.886Z</time></trkpt><trkpt lat="40.3400717" lon="15.6242883"><ele>476.0</ele><time>2026-05-03T07:11:40.885Z</time></trkpt><trkpt lat="40.3398583" lon="15.6244367"><ele>476.0</ele><time>2026-05-03T07:11:41.886Z</time></trkpt><trkpt lat="40.33964" lon="15.6245833"><ele>476.0</ele><time>2026-05-03T07:11:42.886Z</time></trkpt><trkpt lat="40.339415" lon="15.62473"><ele>476.0</ele><time>2026-05-03T07:11:43.886Z</time></trkpt><trkpt lat="40.3391933" lon="15.6248833"><ele>476.0</ele><time>2026-05-03T07:11:44.886Z</time></trkpt><trkpt lat="40.3389683" lon="15.6250283"><ele>476.0</ele><time>2026-05-03T07:11:45.886Z</time></trkpt><trkpt lat="40.3387417" lon="15.6251833"><ele>477.0</ele><time>2026-05-03T07:11:46.886Z</time></trkpt><trkpt lat="40.3385067" lon="15.6253533"><ele>478.0</ele><time>2026-05-03T07:11:47.886Z</time></trkpt><trkpt lat="40.3382717" lon="15.6255217"><ele>478.5</ele><time>2026-05-03T07:11:48.886Z</time></trkpt><trkpt lat="40.33804" lon="15.62568"><ele>479.0</ele><time>2026-05-03T07:11:49.886Z</time></trkpt><trkpt lat="40.3378183" lon="15.6258367"><ele>479.0</ele><time>2026-05-03T07:11:50.885Z</time></trkpt><trkpt lat="40.3376" lon="15.625995"><ele>479.0</ele><time>2026-05-03T07:11:51.885Z</time></trkpt><trkpt lat="40.3373817" lon="15.626155"><ele>478.5</ele><time>2026-05-03T07:11:52.886Z</time></trkpt><trkpt lat="40.3371683" lon="15.6263267"><ele>478.0</ele><time>2026-05-03T07:11:53.885Z</time></trkpt><trkpt lat="40.336955" lon="15.6264967"><ele>478.0</ele><time>2026-05-03T07:11:54.886Z</time></trkpt><trkpt lat="40.3367433" lon="15.6266733"><ele>478.0</ele><time>2026-05-03T07:11:55.886Z</time></trkpt><trkpt lat="40.33653" lon="15.6268583"><ele>479.5</ele><time>2026-05-03T07:11:56.885Z</time></trkpt><trkpt lat="40.3363183" lon="15.6270433"><ele>481.0</ele><time>2026-05-03T07:11:57.886Z</time></trkpt><trkpt lat="40.33611" lon="15.62724"><ele>481.0</ele><time>2026-05-03T07:11:58.886Z</time></trkpt><trkpt lat="40.3359117" lon="15.6274367"><ele>481.0</ele><time>2026-05-03T07:11:59.885Z</time></trkpt><trkpt lat="40.3357083" lon="15.627635"><ele>481.0</ele><time>2026-05-03T07:12:00.886Z</time></trkpt><trkpt lat="40.3355033" lon="15.6278417"><ele>481.0</ele><time>2026-05-03T07:12:01.886Z</time></trkpt><trkpt lat="40.335295" lon="15.6280517"><ele>481.0</ele><time>2026-05-03T07:12:02.886Z</time></trkpt><trkpt lat="40.3350833" lon="15.6282633"><ele>481.0</ele><time>2026-05-03T07:12:03.886Z</time></trkpt><trkpt lat="40.3348683" lon="15.62847"><ele>480.5</ele><time>2026-05-03T07:12:04.886Z</time></trkpt><trkpt lat="40.33466" lon="15.6286783"><ele>480.0</ele><time>2026-05-03T07:12:05.886Z</time></trkpt><trkpt lat="40.3344483" lon="15.6288883"><ele>480.0</ele><time>2026-05-03T07:12:06.885Z</time></trkpt><trkpt lat="40.334245" lon="15.6291"><ele>480.0</ele><time>2026-05-03T07:12:07.886Z</time></trkpt><trkpt lat="40.3340483" lon="15.629305"><ele>481.0</ele><time>2026-05-03T07:12:08.885Z</time></trkpt><trkpt lat="40.3338533" lon="15.6295033"><ele>482.0</ele><time>2026-05-03T07:12:09.886Z</time></trkpt><trkpt lat="40.3336533" lon="15.629715"><ele>482.0</ele><time>2026-05-03T07:12:10.885Z</time></trkpt><trkpt lat="40.3334583" lon="15.6299167"><ele>482.0</ele><time>2026-05-03T07:12:11.886Z</time></trkpt><trkpt lat="40.3332567" lon="15.6301183"><ele>483.0</ele><time>2026-05-03T07:12:12.886Z</time></trkpt><trkpt lat="40.3330533" lon="15.6303217"><ele>484.0</ele><time>2026-05-03T07:12:13.885Z</time></trkpt><trkpt lat="40.3328433" lon="15.6305267"><ele>484.0</ele><time>2026-05-03T07:12:14.886Z</time></trkpt><trkpt lat="40.3326217" lon="15.6307467"><ele>484.0</ele><time>2026-05-03T07:12:15.885Z</time></trkpt><trkpt lat="40.3324033" lon="15.630965"><ele>483.5</ele><time>2026-05-03T07:12:16.886Z</time></trkpt><trkpt lat="40.3321733" lon="15.63118"><ele>483.0</ele><time>2026-05-03T07:12:17.886Z</time></trkpt><trkpt lat="40.331945" lon="15.6313867"><ele>483.0</ele><time>2026-05-03T07:12:18.885Z</time></trkpt><trkpt lat="40.3317217" lon="15.63159"><ele>483.0</ele><time>2026-05-03T07:12:19.885Z</time></trkpt><trkpt lat="40.331495" lon="15.631785"><ele>482.5</ele><time>2026-05-03T07:12:20.886Z</time></trkpt><trkpt lat="40.3312717" lon="15.6319667"><ele>482.0</ele><time>2026-05-03T07:12:21.886Z</time></trkpt><trkpt lat="40.331055" lon="15.6321417"><ele>483.0</ele><time>2026-05-03T07:12:22.886Z</time></trkpt><trkpt lat="40.3308333" lon="15.632315"><ele>484.0</ele><time>2026-05-03T07:12:23.886Z</time></trkpt><trkpt lat="40.3306033" lon="15.6324867"><ele>484.0</ele><time>2026-05-03T07:12:24.886Z</time></trkpt><trkpt lat="40.3303867" lon="15.6326417"><ele>484.0</ele><time>2026-05-03T07:12:25.885Z</time></trkpt><trkpt lat="40.3301617" lon="15.63279"><ele>484.5</ele><time>2026-05-03T07:12:26.886Z</time></trkpt><trkpt lat="40.3299367" lon="15.6329533"><ele>485.0</ele><time>2026-05-03T07:12:27.886Z</time></trkpt><trkpt lat="40.3297017" lon="15.633105"><ele>485.0</ele><time>2026-05-03T07:12:28.886Z</time></trkpt><trkpt lat="40.32946" lon="15.6332567"><ele>485.0</ele><time>2026-05-03T07:12:29.886Z</time></trkpt><trkpt lat="40.3292233" lon="15.633405"><ele>485.0</ele><time>2026-05-03T07:12:30.886Z</time></trkpt><trkpt lat="40.3289883" lon="15.6335583"><ele>485.0</ele><time>2026-05-03T07:12:31.886Z</time></trkpt><trkpt lat="40.3287467" lon="15.6337117"><ele>485.0</ele><time>2026-05-03T07:12:32.886Z</time></trkpt><trkpt lat="40.328515" lon="15.6338567"><ele>485.0</ele><time>2026-05-03T07:12:33.886Z</time></trkpt><trkpt lat="40.328285" lon="15.634"><ele>484.5</ele><time>2026-05-03T07:12:34.886Z</time></trkpt><trkpt lat="40.32805" lon="15.6341433"><ele>484.0</ele><time>2026-05-03T07:12:35.885Z</time></trkpt><trkpt lat="40.32782" lon="15.6342917"><ele>484.0</ele><time>2026-05-03T07:12:36.886Z</time></trkpt><trkpt lat="40.32759" lon="15.6344383"><ele>484.0</ele><time>2026-05-03T07:12:37.886Z</time></trkpt><trkpt lat="40.3273683" lon="15.6345817"><ele>484.0</ele><time>2026-05-03T07:12:38.886Z</time></trkpt><trkpt lat="40.32715" lon="15.634725"><ele>484.0</ele><time>2026-05-03T07:12:39.886Z</time></trkpt><trkpt lat="40.3269167" lon="15.63487"><ele>484.0</ele><time>2026-05-03T07:12:40.886Z</time></trkpt><trkpt lat="40.32669" lon="15.6350133"><ele>484.0</ele><time>2026-05-03T07:12:41.886Z</time></trkpt><trkpt lat="40.3264517" lon="15.63517"><ele>484.5</ele><time>2026-05-03T07:12:42.886Z</time></trkpt><trkpt lat="40.3262217" lon="15.63531"><ele>485.0</ele><time>2026-05-03T07:12:43.886Z</time></trkpt><trkpt lat="40.3259983" lon="15.6354533"><ele>485.0</ele><time>2026-05-03T07:12:44.886Z</time></trkpt><trkpt lat="40.32577" lon="15.6356083"><ele>485.0</ele><time>2026-05-03T07:12:45.886Z</time></trkpt><trkpt lat="40.3255467" lon="15.6357467"><ele>486.0</ele><time>2026-05-03T07:12:46.885Z</time></trkpt><trkpt lat="40.3253217" lon="15.6358983"><ele>487.0</ele><time>2026-05-03T07:12:47.885Z</time></trkpt><trkpt lat="40.3250933" lon="15.63605"><ele>487.0</ele><time>2026-05-03T07:12:48.885Z</time></trkpt><trkpt lat="40.3248617" lon="15.63619"><ele>487.0</ele><time>2026-05-03T07:12:49.886Z</time></trkpt><trkpt lat="40.324625" lon="15.6363417"><ele>487.0</ele><time>2026-05-03T07:12:50.885Z</time></trkpt><trkpt lat="40.3243983" lon="15.63648"><ele>487.0</ele><time>2026-05-03T07:12:51.886Z</time></trkpt><trkpt lat="40.3241767" lon="15.6366167"><ele>487.0</ele><time>2026-05-03T07:12:52.886Z</time></trkpt><trkpt lat="40.3239533" lon="15.6367483"><ele>487.0</ele><time>2026-05-03T07:12:53.886Z</time></trkpt><trkpt lat="40.3237267" lon="15.6368733"><ele>486.0</ele><time>2026-05-03T07:12:54.886Z</time></trkpt><trkpt lat="40.3234917" lon="15.637005"><ele>485.0</ele><time>2026-05-03T07:12:55.886Z</time></trkpt><trkpt lat="40.3232533" lon="15.6371233"><ele>484.5</ele><time>2026-05-03T07:12:56.886Z</time></trkpt><trkpt lat="40.3230167" lon="15.6372417"><ele>484.0</ele><time>2026-05-03T07:12:57.886Z</time></trkpt><trkpt lat="40.3227733" lon="15.6373433"><ele>484.0</ele><time>2026-05-03T07:12:58.886Z</time></trkpt><trkpt lat="40.3225367" lon="15.6374617"><ele>484.0</ele><time>2026-05-03T07:12:59.885Z</time></trkpt><trkpt lat="40.3222933" lon="15.6375717"><ele>484.5</ele><time>2026-05-03T07:13:00.885Z</time></trkpt><trkpt lat="40.322055" lon="15.6376867"><ele>485.0</ele><time>2026-05-03T07:13:01.886Z</time></trkpt><trkpt lat="40.3218117" lon="15.6378017"><ele>485.5</ele><time>2026-05-03T07:13:02.886Z</time></trkpt><trkpt lat="40.321565" lon="15.63792"><ele>486.0</ele><time>2026-05-03T07:13:03.885Z</time></trkpt><trkpt lat="40.3213083" lon="15.6380333"><ele>486.0</ele><time>2026-05-03T07:13:04.886Z</time></trkpt><trkpt lat="40.3210533" lon="15.6381383"><ele>486.0</ele><time>2026-05-03T07:13:05.886Z</time></trkpt><trkpt lat="40.3207917" lon="15.6382567"><ele>485.0</ele><time>2026-05-03T07:13:06.885Z</time></trkpt><trkpt lat="40.32053" lon="15.6383667"><ele>484.0</ele><time>2026-05-03T07:13:07.886Z</time></trkpt><trkpt lat="40.32027" lon="15.6384767"><ele>484.0</ele><time>2026-05-03T07:13:08.886Z</time></trkpt><trkpt lat="40.3200117" lon="15.6385917"><ele>484.0</ele><time>2026-05-03T07:13:09.886Z</time></trkpt><trkpt lat="40.3197617" lon="15.638705"><ele>484.5</ele><time>2026-05-03T07:13:10.885Z</time></trkpt><trkpt lat="40.3195133" lon="15.638815"><ele>485.0</ele><time>2026-05-03T07:13:11.886Z</time></trkpt><trkpt lat="40.31927" lon="15.6389217"><ele>485.0</ele><time>2026-05-03T07:13:12.886Z</time></trkpt><trkpt lat="40.3190183" lon="15.639035"><ele>485.0</ele><time>2026-05-03T07:13:13.886Z</time></trkpt><trkpt lat="40.3187667" lon="15.6391383"><ele>485.0</ele><time>2026-05-03T07:13:14.886Z</time></trkpt><trkpt lat="40.31852" lon="15.6392333"><ele>485.0</ele><time>2026-05-03T07:13:15.886Z</time></trkpt><trkpt lat="40.3182733" lon="15.6393467"><ele>484.5</ele><time>2026-05-03T07:13:16.886Z</time></trkpt><trkpt lat="40.3180267" lon="15.6394583"><ele>484.0</ele><time>2026-05-03T07:13:17.885Z</time></trkpt><trkpt lat="40.3177783" lon="15.6395617"><ele>484.0</ele><time>2026-05-03T07:13:18.886Z</time></trkpt><trkpt lat="40.3175367" lon="15.6396717"><ele>484.0</ele><time>2026-05-03T07:13:19.886Z</time></trkpt><trkpt lat="40.3172983" lon="15.6397833"><ele>483.0</ele><time>2026-05-03T07:13:20.886Z</time></trkpt><trkpt lat="40.3170617" lon="15.6398883"><ele>482.0</ele><time>2026-05-03T07:13:21.886Z</time></trkpt><trkpt lat="40.31681" lon="15.639995"><ele>482.0</ele><time>2026-05-03T07:13:22.886Z</time></trkpt><trkpt lat="40.3165667" lon="15.6401"><ele>482.0</ele><time>2026-05-03T07:13:23.885Z</time></trkpt><trkpt lat="40.3163167" lon="15.6401933"><ele>483.0</ele><time>2026-05-03T07:13:24.886Z</time></trkpt><trkpt lat="40.3160667" lon="15.6403"><ele>484.0</ele><time>2026-05-03T07:13:25.886Z</time></trkpt><trkpt lat="40.3158183" lon="15.6404033"><ele>484.0</ele><time>2026-05-03T07:13:26.886Z</time></trkpt><trkpt lat="40.3155733" lon="15.6405183"><ele>484.0</ele><time>2026-05-03T07:13:27.885Z</time></trkpt><trkpt lat="40.3153283" lon="15.6406267"><ele>482.5</ele><time>2026-05-03T07:13:28.886Z</time></trkpt><trkpt lat="40.315085" lon="15.640745"><ele>481.0</ele><time>2026-05-03T07:13:29.885Z</time></trkpt><trkpt lat="40.3148367" lon="15.640865"><ele>481.0</ele><time>2026-05-03T07:13:30.885Z</time></trkpt><trkpt lat="40.314585" lon="15.64097"><ele>481.0</ele><time>2026-05-03T07:13:31.886Z</time></trkpt><trkpt lat="40.3143233" lon="15.6410967"><ele>481.0</ele><time>2026-05-03T07:13:32.886Z</time></trkpt><trkpt lat="40.3140567" lon="15.6411967"><ele>481.0</ele><time>2026-05-03T07:13:33.885Z</time></trkpt><trkpt lat="40.3138" lon="15.6412967"><ele>481.0</ele><time>2026-05-03T07:13:34.886Z</time></trkpt><trkpt lat="40.313545" lon="15.6414067"><ele>481.0</ele><time>2026-05-03T07:13:35.885Z</time></trkpt><trkpt lat="40.3132883" lon="15.6415083"><ele>480.5</ele><time>2026-05-03T07:13:36.885Z</time></trkpt><trkpt lat="40.31304" lon="15.64163"><ele>480.0</ele><time>2026-05-03T07:13:37.885Z</time></trkpt><trkpt lat="40.3127983" lon="15.6417383"><ele>480.0</ele><time>2026-05-03T07:13:38.886Z</time></trkpt><trkpt lat="40.3125667" lon="15.6418417"><ele>480.0</ele><time>2026-05-03T07:13:39.886Z</time></trkpt><trkpt lat="40.31233" lon="15.6419417"><ele>480.0</ele><time>2026-05-03T07:13:40.886Z</time></trkpt><trkpt lat="40.3121" lon="15.6420417"><ele>480.0</ele><time>2026-05-03T07:13:41.886Z</time></trkpt><trkpt lat="40.3118717" lon="15.64214"><ele>480.0</ele><time>2026-05-03T07:13:42.886Z</time></trkpt><trkpt lat="40.3116517" lon="15.6422433"><ele>480.0</ele><time>2026-05-03T07:13:43.885Z</time></trkpt><trkpt lat="40.3114417" lon="15.6423433"><ele>480.33333333333337</ele><time>2026-05-03T07:13:44.886Z</time></trkpt><trkpt lat="40.311235" lon="15.6424333"><ele>480.6666666666667</ele><time>2026-05-03T07:13:45.885Z</time></trkpt><trkpt lat="40.31104" lon="15.6425217"><ele>481.0</ele><time>2026-05-03T07:13:46.886Z</time></trkpt><trkpt lat="40.3108467" lon="15.6426067"><ele>481.0</ele><time>2026-05-03T07:13:47.886Z</time></trkpt><trkpt lat="40.3106517" lon="15.6426833"><ele>481.0</ele><time>2026-05-03T07:13:48.886Z</time></trkpt><trkpt lat="40.31046" lon="15.6427667"><ele>481.0</ele><time>2026-05-03T07:13:49.886Z</time></trkpt><trkpt lat="40.3102683" lon="15.64286"><ele>480.6666666666667</ele><time>2026-05-03T07:13:50.886Z</time></trkpt><trkpt lat="40.310085" lon="15.6429433"><ele>480.33333333333337</ele><time>2026-05-03T07:13:51.886Z</time></trkpt><trkpt lat="40.3098967" lon="15.6430283"><ele>480.0</ele><time>2026-05-03T07:13:52.886Z</time></trkpt><trkpt lat="40.309705" lon="15.6431067"><ele>479.0</ele><time>2026-05-03T07:13:53.886Z</time></trkpt><trkpt lat="40.3095117" lon="15.6431883"><ele>478.0</ele><time>2026-05-03T07:13:54.886Z</time></trkpt><trkpt lat="40.3093267" lon="15.6432633"><ele>477.0</ele><time>2026-05-03T07:13:55.886Z</time></trkpt><trkpt lat="40.3091333" lon="15.643345"><ele>477.0</ele><time>2026-05-03T07:13:56.886Z</time></trkpt><trkpt lat="40.3089483" lon="15.6434317"><ele>477.0</ele><time>2026-05-03T07:13:57.886Z</time></trkpt><trkpt lat="40.3087733" lon="15.6435067"><ele>477.0</ele><time>2026-05-03T07:13:58.886Z</time></trkpt><trkpt lat="40.30859" lon="15.64358"><ele>477.33333333333337</ele><time>2026-05-03T07:13:59.886Z</time></trkpt><trkpt lat="40.3084033" lon="15.643655"><ele>477.6666666666667</ele><time>2026-05-03T07:14:00.886Z</time></trkpt><trkpt lat="40.308215" lon="15.643735"><ele>478.0</ele><time>2026-05-03T07:14:01.886Z</time></trkpt><trkpt lat="40.3080183" lon="15.6438117"><ele>476.6666666666667</ele><time>2026-05-03T07:14:02.886Z</time></trkpt><trkpt lat="40.307825" lon="15.64389"><ele>475.33333333333337</ele><time>2026-05-03T07:14:03.886Z</time></trkpt><trkpt lat="40.3076383" lon="15.643975"><ele>474.0</ele><time>2026-05-03T07:14:04.886Z</time></trkpt><trkpt lat="40.307455" lon="15.6440533"><ele>474.0</ele><time>2026-05-03T07:14:05.886Z</time></trkpt><trkpt lat="40.3072567" lon="15.6441317"><ele>474.0</ele><time>2026-05-03T07:14:06.886Z</time></trkpt><trkpt lat="40.3070683" lon="15.6442167"><ele>474.0</ele><time>2026-05-03T07:14:07.885Z</time></trkpt><trkpt lat="40.3068667" lon="15.6443"><ele>473.66666666666663</ele><time>2026-05-03T07:14:08.886Z</time></trkpt><trkpt lat="40.3066667" lon="15.6443733"><ele>473.3333333333333</ele><time>2026-05-03T07:14:09.886Z</time></trkpt><trkpt lat="40.3064667" lon="15.6444567"><ele>473.0</ele><time>2026-05-03T07:14:10.885Z</time></trkpt><trkpt lat="40.3062667" lon="15.6445383"><ele>472.3333333333333</ele><time>2026-05-03T07:14:11.886Z</time></trkpt><trkpt lat="40.3060717" lon="15.6446133"><ele>471.66666666666663</ele><time>2026-05-03T07:14:12.886Z</time></trkpt><trkpt lat="40.305875" lon="15.6446917"><ele>471.0</ele><time>2026-05-03T07:14:13.886Z</time></trkpt><trkpt lat="40.3056833" lon="15.6447633"><ele>472.33333333333337</ele><time>2026-05-03T07:14:14.885Z</time></trkpt><trkpt lat="40.30549" lon="15.6448433"><ele>473.6666666666667</ele><time>2026-05-03T07:14:15.885Z</time></trkpt><trkpt lat="40.3053033" lon="15.6448983"><ele>475.0</ele><time>2026-05-03T07:14:16.885Z</time></trkpt><trkpt lat="40.3051183" lon="15.6449667"><ele>475.0</ele><time>2026-05-03T07:14:17.885Z</time></trkpt><trkpt lat="40.3049267" lon="15.6450317"><ele>475.0</ele><time>2026-05-03T07:14:18.885Z</time></trkpt><trkpt lat="40.3047383" lon="15.6451067"><ele>475.0</ele><time>2026-05-03T07:14:19.885Z</time></trkpt><trkpt lat="40.304555" lon="15.6451767"><ele>474.6666666666667</ele><time>2026-05-03T07:14:20.886Z</time></trkpt><trkpt lat="40.3043783" lon="15.64524"><ele>474.33333333333337</ele><time>2026-05-03T07:14:21.886Z</time></trkpt><trkpt lat="40.3042067" lon="15.6452983"><ele>474.0</ele><time>2026-05-03T07:14:22.886Z</time></trkpt><trkpt lat="40.3040267" lon="15.64536"><ele>473.66666666666663</ele><time>2026-05-03T07:14:23.885Z</time></trkpt><trkpt lat="40.3038483" lon="15.645425"><ele>473.3333333333333</ele><time>2026-05-03T07:14:24.886Z</time></trkpt><trkpt lat="40.30367" lon="15.6454967"><ele>473.0</ele><time>2026-05-03T07:14:25.886Z</time></trkpt><trkpt lat="40.3034933" lon="15.64557"><ele>473.0</ele><time>2026-05-03T07:14:26.886Z</time></trkpt><trkpt lat="40.3033233" lon="15.6456283"><ele>473.0</ele><time>2026-05-03T07:14:27.886Z</time></trkpt><trkpt lat="40.303145" lon="15.6456983"><ele>473.0</ele><time>2026-05-03T07:14:28.885Z</time></trkpt><trkpt lat="40.3029717" lon="15.645765"><ele>474.0</ele><time>2026-05-03T07:14:29.885Z</time></trkpt><trkpt lat="40.3027917" lon="15.64583"><ele>475.0</ele><time>2026-05-03T07:14:30.885Z</time></trkpt><trkpt lat="40.3026133" lon="15.645895"><ele>476.0</ele><time>2026-05-03T07:14:31.886Z</time></trkpt><trkpt lat="40.3024417" lon="15.6459583"><ele>476.0</ele><time>2026-05-03T07:14:32.885Z</time></trkpt><trkpt lat="40.3022733" lon="15.64602"><ele>476.0</ele><time>2026-05-03T07:14:33.886Z</time></trkpt><trkpt lat="40.3020933" lon="15.6460833"><ele>476.0</ele><time>2026-05-03T07:14:34.886Z</time></trkpt><trkpt lat="40.3019133" lon="15.6461483"><ele>476.66666666666663</ele><time>2026-05-03T07:14:35.886Z</time></trkpt><trkpt lat="40.3017433" lon="15.6462083"><ele>477.33333333333337</ele><time>2026-05-03T07:14:36.886Z</time></trkpt><trkpt lat="40.3015917" lon="15.6462633"><ele>478.0</ele><time>2026-05-03T07:14:37.885Z</time></trkpt><trkpt lat="40.301445" lon="15.64632"><ele>478.0</ele><time>2026-05-03T07:14:38.886Z</time></trkpt><trkpt lat="40.3013133" lon="15.646365"><ele>478.0</ele><time>2026-05-03T07:14:39.885Z</time></trkpt><trkpt lat="40.3011883" lon="15.6464117"><ele>478.0</ele><time>2026-05-03T07:14:40.885Z</time></trkpt><trkpt lat="40.30107" lon="15.646455"><ele>478.0</ele><time>2026-05-03T07:14:41.886Z</time></trkpt><trkpt lat="40.30096" lon="15.64649"><ele>478.0</ele><time>2026-05-03T07:14:42.885Z</time></trkpt><trkpt lat="40.30085" lon="15.6465267"><ele>477.99999999999994</ele><time>2026-05-03T07:14:43.886Z</time></trkpt><trkpt lat="40.30074" lon="15.6465583"><ele>477.99999999999994</ele><time>2026-05-03T07:14:44.886Z</time></trkpt><trkpt lat="40.30064" lon="15.646585"><ele>478.0</ele><time>2026-05-03T07:14:45.886Z</time></trkpt><trkpt lat="40.3005483" lon="15.6466033"><ele>478.0</ele><time>2026-05-03T07:14:46.885Z</time></trkpt><trkpt lat="40.3004683" lon="15.6466383"><ele>477.79999999999995</ele><time>2026-05-03T07:14:47.886Z</time></trkpt><trkpt lat="40.3003817" lon="15.64667"><ele>477.59999999999997</ele><time>2026-05-03T07:14:48.886Z</time></trkpt><trkpt lat="40.3002967" lon="15.6467"><ele>477.40000000000003</ele><time>2026-05-03T07:14:49.886Z</time></trkpt><trkpt lat="40.3002133" lon="15.6467333"><ele>477.20000000000005</ele><time>2026-05-03T07:14:50.886Z</time></trkpt><trkpt lat="40.300125" lon="15.6467667"><ele>477.0</ele><time>2026-05-03T07:14:51.886Z</time></trkpt><trkpt lat="40.3000283" lon="15.6467933"><ele>477.0</ele><time>2026-05-03T07:14:52.886Z</time></trkpt><trkpt lat="40.2999333" lon="15.6468217"><ele>477.00000000000006</ele><time>2026-05-03T07:14:53.886Z</time></trkpt><trkpt lat="40.2998367" lon="15.6468367"><ele>477.00000000000006</ele><time>2026-05-03T07:14:54.886Z</time></trkpt><trkpt lat="40.2997467" lon="15.6468367"><ele>477.0</ele><time>2026-05-03T07:14:55.886Z</time></trkpt><trkpt lat="40.2996533" lon="15.6468333"><ele>477.0</ele><time>2026-05-03T07:14:56.886Z</time></trkpt><trkpt lat="40.29956" lon="15.64682"><ele>476.8</ele><time>2026-05-03T07:14:57.886Z</time></trkpt><trkpt lat="40.299455" lon="15.6467883"><ele>476.6</ele><time>2026-05-03T07:14:58.885Z</time></trkpt><trkpt lat="40.29935" lon="15.6467367"><ele>476.40000000000003</ele><time>2026-05-03T07:14:59.886Z</time></trkpt><trkpt lat="40.2992583" lon="15.64666"><ele>476.20000000000005</ele><time>2026-05-03T07:15:00.886Z</time></trkpt><trkpt lat="40.299185" lon="15.64656"><ele>476.0</ele><time>2026-05-03T07:15:01.886Z</time></trkpt><trkpt lat="40.2991433" lon="15.6464333"><ele>476.0</ele><time>2026-05-03T07:15:02.886Z</time></trkpt><trkpt lat="40.299125" lon="15.6462917"><ele>476.0</ele><time>2026-05-03T07:15:03.886Z</time></trkpt><trkpt lat="40.2991383" lon="15.6461433"><ele>476.0</ele><time>2026-05-03T07:15:04.886Z</time></trkpt><trkpt lat="40.2991733" lon="15.646015"><ele>476.0</ele><time>2026-05-03T07:15:05.885Z</time></trkpt><trkpt lat="40.2992233" lon="15.6458983"><ele>476.0</ele><time>2026-05-03T07:15:06.886Z</time></trkpt><trkpt lat="40.2992933" lon="15.6458033"><ele>475.8</ele><time>2026-05-03T07:15:07.886Z</time></trkpt><trkpt lat="40.2993633" lon="15.6457233"><ele>475.6</ele><time>2026-05-03T07:15:08.886Z</time></trkpt><trkpt lat="40.2994183" lon="15.64563"><ele>475.4</ele><time>2026-05-03T07:15:09.885Z</time></trkpt><trkpt lat="40.2994583" lon="15.6455217"><ele>475.2</ele><time>2026-05-03T07:15:10.886Z</time></trkpt><trkpt lat="40.2994817" lon="15.6454"><ele>475.0</ele><time>2026-05-03T07:15:11.886Z</time></trkpt><trkpt lat="40.2994933" lon="15.645275"><ele>475.0</ele><time>2026-05-03T07:15:12.886Z</time></trkpt><trkpt lat="40.2994967" lon="15.6451517"><ele>475.0</ele><time>2026-05-03T07:15:13.886Z</time></trkpt><trkpt lat="40.2994967" lon="15.645025"><ele>475.0</ele><time>2026-05-03T07:15:14.886Z</time></trkpt><trkpt lat="40.2995033" lon="15.6448967"><ele>475.0</ele><time>2026-05-03T07:15:15.885Z</time></trkpt><trkpt lat="40.2995167" lon="15.6447817"><ele>475.0</ele><time>2026-05-03T07:15:16.885Z</time></trkpt><trkpt lat="40.29954" lon="15.64468"><ele>475.00000000000006</ele><time>2026-05-03T07:15:17.886Z</time></trkpt><trkpt lat="40.29958" lon="15.6445967"><ele>475.0</ele><time>2026-05-03T07:15:18.886Z</time></trkpt><trkpt lat="40.2996367" lon="15.6445217"><ele>475.0</ele><time>2026-05-03T07:15:19.886Z</time></trkpt><trkpt lat="40.2997017" lon="15.644445"><ele>475.0</ele><time>2026-05-03T07:15:20.886Z</time></trkpt><trkpt lat="40.2997767" lon="15.644365"><ele>475.00000000000006</ele><time>2026-05-03T07:15:21.886Z</time></trkpt><trkpt lat="40.299845" lon="15.64428"><ele>475.0</ele><time>2026-05-03T07:15:22.885Z</time></trkpt><trkpt lat="40.2999217" lon="15.6441817"><ele>475.0</ele><time>2026-05-03T07:15:23.886Z</time></trkpt><trkpt lat="40.3" lon="15.6440783"><ele>475.0</ele><time>2026-05-03T07:15:24.886Z</time></trkpt><trkpt lat="40.3000817" lon="15.6439683"><ele>475.0</ele><time>2026-05-03T07:15:25.885Z</time></trkpt><trkpt lat="40.3001633" lon="15.6438483"><ele>475.0</ele><time>2026-05-03T07:15:26.886Z</time></trkpt><trkpt lat="40.30025" lon="15.6437267"><ele>475.0</ele><time>2026-05-03T07:15:27.886Z</time></trkpt><trkpt lat="40.300335" lon="15.6436017"><ele>475.0</ele><time>2026-05-03T07:15:28.886Z</time></trkpt><trkpt lat="40.3004317" lon="15.6434783"><ele>475.0</ele><time>2026-05-03T07:15:29.886Z</time></trkpt><trkpt lat="40.3005367" lon="15.64335"><ele>475.0</ele><time>2026-05-03T07:15:30.886Z</time></trkpt><trkpt lat="40.3006433" lon="15.6432083"><ele>475.0</ele><time>2026-05-03T07:15:31.885Z</time></trkpt><trkpt lat="40.30076" lon="15.643075"><ele>475.0</ele><time>2026-05-03T07:15:32.886Z</time></trkpt><trkpt lat="40.3008783" lon="15.64293"><ele>475.0</ele><time>2026-05-03T07:15:33.886Z</time></trkpt><trkpt lat="40.3009933" lon="15.6427817"><ele>474.6666666666667</ele><time>2026-05-03T07:15:34.886Z</time></trkpt><trkpt lat="40.301115" lon="15.6426383"><ele>474.33333333333337</ele><time>2026-05-03T07:15:35.885Z</time></trkpt><trkpt lat="40.3012383" lon="15.6424967"><ele>474.0</ele><time>2026-05-03T07:15:36.885Z</time></trkpt><trkpt lat="40.301375" lon="15.6423533"><ele>474.0</ele><time>2026-05-03T07:15:37.886Z</time></trkpt><trkpt lat="40.3015067" lon="15.6422017"><ele>474.0</ele><time>2026-05-03T07:15:38.886Z</time></trkpt><trkpt lat="40.301635" lon="15.6420583"><ele>474.0</ele><time>2026-05-03T07:15:39.886Z</time></trkpt><trkpt lat="40.30176" lon="15.6419117"><ele>473.66666666666663</ele><time>2026-05-03T07:15:40.885Z</time></trkpt><trkpt lat="40.3018817" lon="15.64177"><ele>473.3333333333333</ele><time>2026-05-03T07:15:41.885Z</time></trkpt><trkpt lat="40.3020017" lon="15.6416333"><ele>473.0</ele><time>2026-05-03T07:15:42.886Z</time></trkpt><trkpt lat="40.3021217" lon="15.6414967"><ele>473.0</ele><time>2026-05-03T07:15:43.886Z</time></trkpt><trkpt lat="40.3022383" lon="15.64136"><ele>473.0</ele><time>2026-05-03T07:15:44.886Z</time></trkpt><trkpt lat="40.3023567" lon="15.6412217"><ele>473.0</ele><time>2026-05-03T07:15:45.886Z</time></trkpt><trkpt lat="40.30247" lon="15.6410817"><ele>473.3333333333333</ele><time>2026-05-03T07:15:46.886Z</time></trkpt><trkpt lat="40.30259" lon="15.6409333"><ele>473.66666666666663</ele><time>2026-05-03T07:15:47.886Z</time></trkpt><trkpt lat="40.3027183" lon="15.6407883"><ele>474.0</ele><time>2026-05-03T07:15:48.886Z</time></trkpt><trkpt lat="40.3028533" lon="15.6406467"><ele>474.0</ele><time>2026-05-03T07:15:49.886Z</time></trkpt><trkpt lat="40.3029783" lon="15.6404983"><ele>474.0</ele><time>2026-05-03T07:15:50.886Z</time></trkpt><trkpt lat="40.30311" lon="15.6403417"><ele>474.0</ele><time>2026-05-03T07:15:51.886Z</time></trkpt><trkpt lat="40.3032433" lon="15.640185"><ele>473.66666666666663</ele><time>2026-05-03T07:15:52.885Z</time></trkpt><trkpt lat="40.3033717" lon="15.6400333"><ele>473.3333333333333</ele><time>2026-05-03T07:15:53.886Z</time></trkpt><trkpt lat="40.3035033" lon="15.639875"><ele>473.0</ele><time>2026-05-03T07:15:54.886Z</time></trkpt><trkpt lat="40.3036283" lon="15.6397217"><ele>473.0</ele><time>2026-05-03T07:15:55.886Z</time></trkpt><trkpt lat="40.3037567" lon="15.639575"><ele>473.0</ele><time>2026-05-03T07:15:56.886Z</time></trkpt><trkpt lat="40.3038833" lon="15.6394283"><ele>473.0</ele><time>2026-05-03T07:15:57.885Z</time></trkpt><trkpt lat="40.304015" lon="15.6392833"><ele>472.66666666666663</ele><time>2026-05-03T07:15:58.886Z</time></trkpt><trkpt lat="40.304155" lon="15.6391417"><ele>472.33333333333337</ele><time>2026-05-03T07:15:59.886Z</time></trkpt><trkpt lat="40.3043017" lon="15.6390033"><ele>472.0</ele><time>2026-05-03T07:16:00.886Z</time></trkpt><trkpt lat="40.3044583" lon="15.638885"><ele>472.0</ele><time>2026-05-03T07:16:01.886Z</time></trkpt><trkpt lat="40.30462" lon="15.6387767"><ele>472.0</ele><time>2026-05-03T07:16:02.886Z</time></trkpt><trkpt lat="40.3047867" lon="15.6386767"><ele>472.0</ele><time>2026-05-03T07:16:03.886Z</time></trkpt><trkpt lat="40.3049617" lon="15.6386083"><ele>471.33333333333337</ele><time>2026-05-03T07:16:04.886Z</time></trkpt><trkpt lat="40.3051367" lon="15.6385483"><ele>470.66666666666663</ele><time>2026-05-03T07:16:05.886Z</time></trkpt><trkpt lat="40.3053133" lon="15.6385167"><ele>470.0</ele><time>2026-05-03T07:16:06.886Z</time></trkpt><trkpt lat="40.3054983" lon="15.6384933"><ele>470.66666666666663</ele><time>2026-05-03T07:16:07.886Z</time></trkpt><trkpt lat="40.3056817" lon="15.638485"><ele>471.33333333333337</ele><time>2026-05-03T07:16:08.886Z</time></trkpt><trkpt lat="40.30587" lon="15.6384817"><ele>472.0</ele><time>2026-05-03T07:16:09.886Z</time></trkpt><trkpt lat="40.3060567" lon="15.6384833"><ele>472.0</ele><time>2026-05-03T07:16:10.886Z</time></trkpt><trkpt lat="40.3062467" lon="15.6384933"><ele>472.0</ele><time>2026-05-03T07:16:11.886Z</time></trkpt><trkpt lat="40.3064217" lon="15.6385067"><ele>472.0</ele><time>2026-05-03T07:16:12.886Z</time></trkpt><trkpt lat="40.3065917" lon="15.638525"><ele>471.33333333333337</ele><time>2026-05-03T07:16:13.885Z</time></trkpt><trkpt lat="40.30676" lon="15.6385267"><ele>470.66666666666663</ele><time>2026-05-03T07:16:14.886Z</time></trkpt><trkpt lat="40.30692" lon="15.63854"><ele>470.0</ele><time>2026-05-03T07:16:15.886Z</time></trkpt><trkpt lat="40.30708" lon="15.638545"><ele>470.0</ele><time>2026-05-03T07:16:16.886Z</time></trkpt><trkpt lat="40.3072267" lon="15.6385633"><ele>470.0</ele><time>2026-05-03T07:16:17.886Z</time></trkpt><trkpt lat="40.3073683" lon="15.6385717"><ele>470.0</ele><time>2026-05-03T07:16:18.885Z</time></trkpt><trkpt lat="40.3075117" lon="15.638575"><ele>470.0</ele><time>2026-05-03T07:16:19.885Z</time></trkpt><trkpt lat="40.3076533" lon="15.63858"><ele>470.25</ele><time>2026-05-03T07:16:20.885Z</time></trkpt><trkpt lat="40.3077967" lon="15.6385883"><ele>470.5</ele><time>2026-05-03T07:16:21.886Z</time></trkpt><trkpt lat="40.3079467" lon="15.6386"><ele>470.75</ele><time>2026-05-03T07:16:22.886Z</time></trkpt><trkpt lat="40.3080883" lon="15.6386117"><ele>471.0</ele><time>2026-05-03T07:16:23.885Z</time></trkpt><trkpt lat="40.308235" lon="15.6386217"><ele>471.0</ele><time>2026-05-03T07:16:24.886Z</time></trkpt><trkpt lat="40.3083917" lon="15.63862"><ele>471.0</ele><time>2026-05-03T07:16:25.886Z</time></trkpt><trkpt lat="40.308545" lon="15.638615"><ele>471.0</ele><time>2026-05-03T07:16:26.886Z</time></trkpt><trkpt lat="40.3087" lon="15.63859"><ele>471.0</ele><time>2026-05-03T07:16:27.885Z</time></trkpt><trkpt lat="40.308855" lon="15.63856"><ele>471.0</ele><time>2026-05-03T07:16:28.885Z</time></trkpt><trkpt lat="40.3090117" lon="15.63852"><ele>471.0</ele><time>2026-05-03T07:16:29.886Z</time></trkpt><trkpt lat="40.3091767" lon="15.6384717"><ele>471.33333333333337</ele><time>2026-05-03T07:16:30.886Z</time></trkpt><trkpt lat="40.30933" lon="15.6384"><ele>471.6666666666667</ele><time>2026-05-03T07:16:31.886Z</time></trkpt><trkpt lat="40.3094983" lon="15.6383217"><ele>472.0</ele><time>2026-05-03T07:16:32.886Z</time></trkpt><trkpt lat="40.3096567" lon="15.6382333"><ele>473.0</ele><time>2026-05-03T07:16:33.886Z</time></trkpt><trkpt lat="40.3098133" lon="15.6381383"><ele>474.0</ele><time>2026-05-03T07:16:34.886Z</time></trkpt><trkpt lat="40.3099733" lon="15.6380383"><ele>475.0</ele><time>2026-05-03T07:16:35.886Z</time></trkpt><trkpt lat="40.3101417" lon="15.63793"><ele>475.0</ele><time>2026-05-03T07:16:36.886Z</time></trkpt><trkpt lat="40.3103083" lon="15.6378167"><ele>475.0</ele><time>2026-05-03T07:16:37.886Z</time></trkpt><trkpt lat="40.3104733" lon="15.637705"><ele>475.0</ele><time>2026-05-03T07:16:38.885Z</time></trkpt><trkpt lat="40.3106283" lon="15.637605"><ele>474.75</ele><time>2026-05-03T07:16:39.885Z</time></trkpt><trkpt lat="40.3107733" lon="15.63752"><ele>474.5</ele><time>2026-05-03T07:16:40.885Z</time></trkpt><trkpt lat="40.3109067" lon="15.63744"><ele>474.25</ele><time>2026-05-03T07:16:41.886Z</time></trkpt><trkpt lat="40.311035" lon="15.637355"><ele>474.0</ele><time>2026-05-03T07:16:42.885Z</time></trkpt><trkpt lat="40.3111617" lon="15.6372783"><ele>474.0</ele><time>2026-05-03T07:16:43.886Z</time></trkpt><trkpt lat="40.3112917" lon="15.6371867"><ele>474.0</ele><time>2026-05-03T07:16:44.885Z</time></trkpt><trkpt lat="40.311415" lon="15.637105"><ele>474.0</ele><time>2026-05-03T07:16:45.886Z</time></trkpt><trkpt lat="40.3115383" lon="15.6370283"><ele>474.0</ele><time>2026-05-03T07:16:46.885Z</time></trkpt><trkpt lat="40.3116633" lon="15.63695"><ele>473.5</ele><time>2026-05-03T07:16:47.886Z</time></trkpt><trkpt lat="40.3117867" lon="15.6368767"><ele>473.0</ele><time>2026-05-03T07:16:48.885Z</time></trkpt><trkpt lat="40.31191" lon="15.6367967"><ele>472.5</ele><time>2026-05-03T07:16:49.886Z</time></trkpt><trkpt lat="40.3120317" lon="15.6367167"><ele>472.0</ele><time>2026-05-03T07:16:50.886Z</time></trkpt><trkpt lat="40.3121533" lon="15.6366383"><ele>472.5</ele><time>2026-05-03T07:16:51.886Z</time></trkpt><trkpt lat="40.3122733" lon="15.63656"><ele>473.0</ele><time>2026-05-03T07:16:52.885Z</time></trkpt><trkpt lat="40.312395" lon="15.6364783"><ele>473.5</ele><time>2026-05-03T07:16:53.885Z</time></trkpt><trkpt lat="40.3125183" lon="15.6363817"><ele>474.0</ele><time>2026-05-03T07:16:54.886Z</time></trkpt><trkpt lat="40.3126517" lon="15.6362767"><ele>474.0</ele><time>2026-05-03T07:16:55.886Z</time></trkpt><trkpt lat="40.3127933" lon="15.6361667"><ele>474.0</ele><time>2026-05-03T07:16:56.885Z</time></trkpt><trkpt lat="40.3129267" lon="15.636035"><ele>474.0</ele><time>2026-05-03T07:16:57.885Z</time></trkpt><trkpt lat="40.3130717" lon="15.6358983"><ele>473.66666666666663</ele><time>2026-05-03T07:16:58.886Z</time></trkpt><trkpt lat="40.3132117" lon="15.6357717"><ele>473.3333333333333</ele><time>2026-05-03T07:16:59.886Z</time></trkpt><trkpt lat="40.313355" lon="15.6356367"><ele>473.0</ele><time>2026-05-03T07:17:00.886Z</time></trkpt><trkpt lat="40.3134967" lon="15.6355"><ele>473.0</ele><time>2026-05-03T07:17:01.886Z</time></trkpt><trkpt lat="40.3136367" lon="15.6353583"><ele>473.0</ele><time>2026-05-03T07:17:02.886Z</time></trkpt><trkpt lat="40.3137667" lon="15.6352267"><ele>473.0</ele><time>2026-05-03T07:17:03.886Z</time></trkpt><trkpt lat="40.3139017" lon="15.6350967"><ele>473.3333333333333</ele><time>2026-05-03T07:17:04.886Z</time></trkpt><trkpt lat="40.314035" lon="15.6349617"><ele>473.66666666666663</ele><time>2026-05-03T07:17:05.886Z</time></trkpt><trkpt lat="40.3141683" lon="15.6348317"><ele>474.0</ele><time>2026-05-03T07:17:06.886Z</time></trkpt><trkpt lat="40.3143033" lon="15.6347017"><ele>474.0</ele><time>2026-05-03T07:17:07.886Z</time></trkpt><trkpt lat="40.314435" lon="15.6345683"><ele>474.0</ele><time>2026-05-03T07:17:08.886Z</time></trkpt><trkpt lat="40.3145633" lon="15.6344333"><ele>474.0</ele><time>2026-05-03T07:17:09.886Z</time></trkpt><trkpt lat="40.3147033" lon="15.6342933"><ele>473.0</ele><time>2026-05-03T07:17:10.886Z</time></trkpt><trkpt lat="40.31485" lon="15.63415"><ele>472.0</ele><time>2026-05-03T07:17:11.886Z</time></trkpt><trkpt lat="40.3150033" lon="15.6340033"><ele>471.0</ele><time>2026-05-03T07:17:12.886Z</time></trkpt><trkpt lat="40.3151417" lon="15.6338617"><ele>471.0</ele><time>2026-05-03T07:17:13.886Z</time></trkpt><trkpt lat="40.3152867" lon="15.6337217"><ele>471.0</ele><time>2026-05-03T07:17:14.885Z</time></trkpt><trkpt lat="40.3154383" lon="15.6335617"><ele>471.0</ele><time>2026-05-03T07:17:15.886Z</time></trkpt><trkpt lat="40.3155933" lon="15.6334133"><ele>471.33333333333337</ele><time>2026-05-03T07:17:16.886Z</time></trkpt><trkpt lat="40.3157467" lon="15.6332683"><ele>471.6666666666667</ele><time>2026-05-03T07:17:17.886Z</time></trkpt><trkpt lat="40.3158933" lon="15.6331167"><ele>472.0</ele><time>2026-05-03T07:17:18.886Z</time></trkpt><trkpt lat="40.3160467" lon="15.632965"><ele>472.0</ele><time>2026-05-03T07:17:19.886Z</time></trkpt><trkpt lat="40.3161967" lon="15.6328133"><ele>472.0</ele><time>2026-05-03T07:17:20.885Z</time></trkpt><trkpt lat="40.3163383" lon="15.6326733"><ele>472.0</ele><time>2026-05-03T07:17:21.886Z</time></trkpt><trkpt lat="40.3164717" lon="15.6325367"><ele>471.33333333333337</ele><time>2026-05-03T07:17:22.886Z</time></trkpt><trkpt lat="40.31661" lon="15.6323917"><ele>470.66666666666663</ele><time>2026-05-03T07:17:23.886Z</time></trkpt><trkpt lat="40.3167283" lon="15.6322617"><ele>470.0</ele><time>2026-05-03T07:17:24.886Z</time></trkpt><trkpt lat="40.3168467" lon="15.6321367"><ele>470.0</ele><time>2026-05-03T07:17:25.886Z</time></trkpt><trkpt lat="40.3169533" lon="15.6320167"><ele>470.0</ele><time>2026-05-03T07:17:26.886Z</time></trkpt><trkpt lat="40.3170717" lon="15.63189"><ele>470.0</ele><time>2026-05-03T07:17:27.886Z</time></trkpt><trkpt lat="40.3171883" lon="15.6317617"><ele>470.0</ele><time>2026-05-03T07:17:28.885Z</time></trkpt><trkpt lat="40.3173067" lon="15.6316333"><ele>470.3333333333333</ele><time>2026-05-03T07:17:29.885Z</time></trkpt><trkpt lat="40.3174467" lon="15.63151"><ele>470.66666666666663</ele><time>2026-05-03T07:17:30.885Z</time></trkpt><trkpt lat="40.3175917" lon="15.6313917"><ele>471.0</ele><time>2026-05-03T07:17:31.886Z</time></trkpt><trkpt lat="40.3177383" lon="15.631275"><ele>471.0</ele><time>2026-05-03T07:17:32.886Z</time></trkpt><trkpt lat="40.3178783" lon="15.6311667"><ele>471.0</ele><time>2026-05-03T07:17:33.885Z</time></trkpt><trkpt lat="40.3180217" lon="15.6310633"><ele>471.0</ele><time>2026-05-03T07:17:34.886Z</time></trkpt><trkpt lat="40.31816" lon="15.630955"><ele>470.66666666666663</ele><time>2026-05-03T07:17:35.886Z</time></trkpt><trkpt lat="40.3183017" lon="15.63085"><ele>470.3333333333333</ele><time>2026-05-03T07:17:36.886Z</time></trkpt><trkpt lat="40.3184483" lon="15.63074"><ele>470.0</ele><time>2026-05-03T07:17:37.885Z</time></trkpt><trkpt lat="40.3185983" lon="15.6306267"><ele>470.0</ele><time>2026-05-03T07:17:38.886Z</time></trkpt><trkpt lat="40.3187483" lon="15.6305183"><ele>470.0</ele><time>2026-05-03T07:17:39.886Z</time></trkpt><trkpt lat="40.3188967" lon="15.630395"><ele>470.0</ele><time>2026-05-03T07:17:40.885Z</time></trkpt><trkpt lat="40.319045" lon="15.6302783"><ele>470.3333333333333</ele><time>2026-05-03T07:17:41.886Z</time></trkpt><trkpt lat="40.3191933" lon="15.6301633"><ele>470.66666666666663</ele><time>2026-05-03T07:17:42.886Z</time></trkpt><trkpt lat="40.3193483" lon="15.6300467"><ele>471.0</ele><time>2026-05-03T07:17:43.886Z</time></trkpt><trkpt lat="40.3194917" lon="15.629935"><ele>471.0</ele><time>2026-05-03T07:17:44.885Z</time></trkpt><trkpt lat="40.319625" lon="15.62983"><ele>471.0</ele><time>2026-05-03T07:17:45.886Z</time></trkpt><trkpt lat="40.3197667" lon="15.6297167"><ele>471.0</ele><time>2026-05-03T07:17:46.885Z</time></trkpt><trkpt lat="40.3199183" lon="15.6296033"><ele>471.0</ele><time>2026-05-03T07:17:47.885Z</time></trkpt><trkpt lat="40.3200683" lon="15.62949"><ele>471.0</ele><time>2026-05-03T07:17:48.886Z</time></trkpt><trkpt lat="40.320215" lon="15.6293817"><ele>471.0</ele><time>2026-05-03T07:17:49.886Z</time></trkpt><trkpt lat="40.320365" lon="15.6292783"><ele>471.0</ele><time>2026-05-03T07:17:50.886Z</time></trkpt><trkpt lat="40.3205032" lon="15.6291713"><ele>471.0</ele><time>2026-05-03T07:17:51.885Z</time></trkpt><trkpt lat="40.3206481" lon="15.6290697"><ele>471.0</ele><time>2026-05-03T07:17:52.886Z</time></trkpt><trkpt lat="40.3207979" lon="15.6289707"><ele>471.66666666666663</ele><time>2026-05-03T07:17:53.885Z</time></trkpt><trkpt lat="40.3209485" lon="15.6288777"><ele>472.3333333333333</ele><time>2026-05-03T07:17:54.886Z</time></trkpt><trkpt lat="40.3210874" lon="15.6288058"><ele>473.0</ele><time>2026-05-03T07:17:55.886Z</time></trkpt><trkpt lat="40.3212228" lon="15.6287445"><ele>473.0</ele><time>2026-05-03T07:17:56.886Z</time></trkpt><trkpt lat="40.3213474" lon="15.6286909"><ele>473.0</ele><time>2026-05-03T07:17:57.886Z</time></trkpt><trkpt lat="40.3214649" lon="15.6286471"><ele>473.0</ele><time>2026-05-03T07:17:58.886Z</time></trkpt><trkpt lat="40.3215795" lon="15.6286086"><ele>473.0</ele><time>2026-05-03T07:17:59.885Z</time></trkpt><trkpt lat="40.3216994" lon="15.6285697"><ele>473.0</ele><time>2026-05-03T07:18:00.885Z</time></trkpt><trkpt lat="40.3218287" lon="15.6285296"><ele>473.0</ele><time>2026-05-03T07:18:01.886Z</time></trkpt><trkpt lat="40.3219655" lon="15.6284814"><ele>473.0</ele><time>2026-05-03T07:18:02.886Z</time></trkpt><trkpt lat="40.322108" lon="15.6284291"><ele>473.0</ele><time>2026-05-03T07:18:03.886Z</time></trkpt><trkpt lat="40.3222497" lon="15.6283746"><ele>472.66666666666663</ele><time>2026-05-03T07:18:04.885Z</time></trkpt><trkpt lat="40.3223949" lon="15.6283261"><ele>472.33333333333337</ele><time>2026-05-03T07:18:05.886Z</time></trkpt><trkpt lat="40.3225387" lon="15.628274"><ele>472.0</ele><time>2026-05-03T07:18:06.886Z</time></trkpt><trkpt lat="40.3226891" lon="15.6282183"><ele>472.0</ele><time>2026-05-03T07:18:07.886Z</time></trkpt><trkpt lat="40.3228448" lon="15.6281617"><ele>472.0</ele><time>2026-05-03T07:18:08.886Z</time></trkpt><trkpt lat="40.3229983" lon="15.6281125"><ele>472.0</ele><time>2026-05-03T07:18:09.885Z</time></trkpt><trkpt lat="40.3231467" lon="15.6280544"><ele>472.5</ele><time>2026-05-03T07:18:10.886Z</time></trkpt><trkpt lat="40.3232912" lon="15.6280048"><ele>473.0</ele><time>2026-05-03T07:18:11.886Z</time></trkpt><trkpt lat="40.3234344" lon="15.6279505"><ele>473.5</ele><time>2026-05-03T07:18:12.885Z</time></trkpt><trkpt lat="40.3235747" lon="15.6278978"><ele>474.0</ele><time>2026-05-03T07:18:13.886Z</time></trkpt><trkpt lat="40.3237196" lon="15.627848"><ele>473.5</ele><time>2026-05-03T07:18:14.886Z</time></trkpt><trkpt lat="40.3238636" lon="15.6278015"><ele>473.0</ele><time>2026-05-03T07:18:15.885Z</time></trkpt><trkpt lat="40.3240069" lon="15.6277624"><ele>472.5</ele><time>2026-05-03T07:18:16.885Z</time></trkpt><trkpt lat="40.3241557" lon="15.6277298"><ele>472.0</ele><time>2026-05-03T07:18:17.886Z</time></trkpt><trkpt lat="40.324313" lon="15.6277151"><ele>472.0</ele><time>2026-05-03T07:18:18.886Z</time></trkpt><trkpt lat="40.324478" lon="15.627708"><ele>472.0</ele><time>2026-05-03T07:18:19.886Z</time></trkpt><trkpt lat="40.3246415" lon="15.6277035"><ele>472.0</ele><time>2026-05-03T07:18:20.886Z</time></trkpt><trkpt lat="40.3248023" lon="15.6276977"><ele>472.6666666666667</ele><time>2026-05-03T07:18:21.886Z</time></trkpt><trkpt lat="40.3249646" lon="15.6276992"><ele>473.33333333333337</ele><time>2026-05-03T07:18:22.886Z</time></trkpt><trkpt lat="40.3251218" lon="15.627694"><ele>474.0</ele><time>2026-05-03T07:18:23.886Z</time></trkpt><trkpt lat="40.3252802" lon="15.6276749"><ele>474.0</ele><time>2026-05-03T07:18:24.885Z</time></trkpt><trkpt lat="40.3254463" lon="15.62765"><ele>474.0</ele><time>2026-05-03T07:18:25.886Z</time></trkpt><trkpt lat="40.3256098" lon="15.6276098"><ele>474.0</ele><time>2026-05-03T07:18:26.886Z</time></trkpt><trkpt lat="40.3257773" lon="15.6275468"><ele>474.33333333333337</ele><time>2026-05-03T07:18:27.886Z</time></trkpt><trkpt lat="40.3259498" lon="15.6274697"><ele>474.6666666666667</ele><time>2026-05-03T07:18:28.886Z</time></trkpt><trkpt lat="40.3261304" lon="15.6273757"><ele>475.0</ele><time>2026-05-03T07:18:29.886Z</time></trkpt><trkpt lat="40.3263162" lon="15.6272721"><ele>475.33333333333337</ele><time>2026-05-03T07:18:30.885Z</time></trkpt><trkpt lat="40.3265054" lon="15.6271575"><ele>475.66666666666663</ele><time>2026-05-03T07:18:31.886Z</time></trkpt><trkpt lat="40.3266996" lon="15.6270496"><ele>476.0</ele><time>2026-05-03T07:18:32.886Z</time></trkpt><trkpt lat="40.326901" lon="15.6269445"><ele>475.0</ele><time>2026-05-03T07:18:33.886Z</time></trkpt><trkpt lat="40.327102" lon="15.626837"><ele>474.0</ele><time>2026-05-03T07:18:34.885Z</time></trkpt><trkpt lat="40.3272986" lon="15.6267346"><ele>473.0</ele><time>2026-05-03T07:18:35.885Z</time></trkpt><trkpt lat="40.3274969" lon="15.626632"><ele>473.0</ele><time>2026-05-03T07:18:36.886Z</time></trkpt><trkpt lat="40.3276868" lon="15.6265315"><ele>473.0</ele><time>2026-05-03T07:18:37.886Z</time></trkpt><trkpt lat="40.3278673" lon="15.6264397"><ele>473.0</ele><time>2026-05-03T07:18:38.886Z</time></trkpt><trkpt lat="40.3280442" lon="15.6263471"><ele>473.3333333333333</ele><time>2026-05-03T07:18:39.885Z</time></trkpt><trkpt lat="40.3282118" lon="15.6262586"><ele>473.66666666666663</ele><time>2026-05-03T07:18:40.886Z</time></trkpt><trkpt lat="40.3283769" lon="15.6261708"><ele>474.0</ele><time>2026-05-03T07:18:41.886Z</time></trkpt><trkpt lat="40.3285411" lon="15.6260838"><ele>474.0</ele><time>2026-05-03T07:18:42.886Z</time></trkpt><trkpt lat="40.3287088" lon="15.6259915"><ele>474.0</ele><time>2026-05-03T07:18:43.886Z</time></trkpt><trkpt lat="40.3288714" lon="15.6259019"><ele>474.0</ele><time>2026-05-03T07:18:44.885Z</time></trkpt><trkpt lat="40.3290285" lon="15.6258211"><ele>474.0</ele><time>2026-05-03T07:18:45.886Z</time></trkpt><trkpt lat="40.3291841" lon="15.6257384"><ele>474.0</ele><time>2026-05-03T07:18:46.885Z</time></trkpt><trkpt lat="40.3293316" lon="15.6256572"><ele>474.0</ele><time>2026-05-03T07:18:47.886Z</time></trkpt><trkpt lat="40.3294746" lon="15.6255789"><ele>474.0</ele><time>2026-05-03T07:18:48.885Z</time></trkpt><trkpt lat="40.3296178" lon="15.6255025"><ele>474.0</ele><time>2026-05-03T07:18:49.886Z</time></trkpt><trkpt lat="40.3297488" lon="15.6254328"><ele>474.0</ele><time>2026-05-03T07:18:50.886Z</time></trkpt><trkpt lat="40.3298747" lon="15.6253719"><ele>474.0</ele><time>2026-05-03T07:18:51.886Z</time></trkpt><trkpt lat="40.3299922" lon="15.6253153"><ele>474.25</ele><time>2026-05-03T07:18:52.886Z</time></trkpt><trkpt lat="40.3301052" lon="15.625259"><ele>474.5</ele><time>2026-05-03T07:18:53.885Z</time></trkpt><trkpt lat="40.3302165" lon="15.6252108"><ele>474.75</ele><time>2026-05-03T07:18:54.885Z</time></trkpt><trkpt lat="40.3303321" lon="15.6251636"><ele>475.0</ele><time>2026-05-03T07:18:55.886Z</time></trkpt><trkpt lat="40.3304566" lon="15.6251256"><ele>475.0</ele><time>2026-05-03T07:18:56.886Z</time></trkpt><trkpt lat="40.3305855" lon="15.6250878"><ele>475.0</ele><time>2026-05-03T07:18:57.886Z</time></trkpt><trkpt lat="40.3307217" lon="15.625055"><ele>475.0</ele><time>2026-05-03T07:18:58.886Z</time></trkpt><trkpt lat="40.3308617" lon="15.6250267"><ele>475.0</ele><time>2026-05-03T07:18:59.886Z</time></trkpt><trkpt lat="40.3310133" lon="15.6249967"><ele>475.0</ele><time>2026-05-03T07:19:00.886Z</time></trkpt><trkpt lat="40.331165" lon="15.6249667"><ele>475.0</ele><time>2026-05-03T07:19:01.885Z</time></trkpt><trkpt lat="40.331315" lon="15.6249467"><ele>475.0</ele><time>2026-05-03T07:19:02.886Z</time></trkpt><trkpt lat="40.3314717" lon="15.6249267"><ele>475.0</ele><time>2026-05-03T07:19:03.886Z</time></trkpt><trkpt lat="40.3316133" lon="15.6249217"><ele>475.0</ele><time>2026-05-03T07:19:04.886Z</time></trkpt><trkpt lat="40.331765" lon="15.62492"><ele>475.0</ele><time>2026-05-03T07:19:05.886Z</time></trkpt><trkpt lat="40.3319117" lon="15.6249233"><ele>475.0</ele><time>2026-05-03T07:19:06.886Z</time></trkpt><trkpt lat="40.3320667" lon="15.6249183"><ele>475.0</ele><time>2026-05-03T07:19:07.885Z</time></trkpt><trkpt lat="40.3322067" lon="15.6249333"><ele>475.0</ele><time>2026-05-03T07:19:08.886Z</time></trkpt><trkpt lat="40.3323317" lon="15.6249417"><ele>475.0</ele><time>2026-05-03T07:19:09.885Z</time></trkpt><trkpt lat="40.3324533" lon="15.6249517"><ele>475.0</ele><time>2026-05-03T07:19:10.885Z</time></trkpt><trkpt lat="40.332565" lon="15.62496"><ele>475.25</ele><time>2026-05-03T07:19:11.886Z</time></trkpt><trkpt lat="40.33268" lon="15.6249617"><ele>475.5</ele><time>2026-05-03T07:19:12.886Z</time></trkpt><trkpt lat="40.3328017" lon="15.6249717"><ele>475.75</ele><time>2026-05-03T07:19:13.886Z</time></trkpt><trkpt lat="40.332915" lon="15.62499"><ele>476.0</ele><time>2026-05-03T07:19:14.886Z</time></trkpt><trkpt lat="40.33304" lon="15.6249967"><ele>475.75</ele><time>2026-05-03T07:19:15.885Z</time></trkpt><trkpt lat="40.3331583" lon="15.6250033"><ele>475.5</ele><time>2026-05-03T07:19:16.885Z</time></trkpt><trkpt lat="40.3332833" lon="15.6250067"><ele>475.25</ele><time>2026-05-03T07:19:17.885Z</time></trkpt><trkpt lat="40.33341" lon="15.6250183"><ele>475.0</ele><time>2026-05-03T07:19:18.886Z</time></trkpt><trkpt lat="40.3335283" lon="15.62503"><ele>475.0</ele><time>2026-05-03T07:19:19.885Z</time></trkpt><trkpt lat="40.3336417" lon="15.625035"><ele>475.0</ele><time>2026-05-03T07:19:20.886Z</time></trkpt><trkpt lat="40.333755" lon="15.625035"><ele>475.0</ele><time>2026-05-03T07:19:21.886Z</time></trkpt><trkpt lat="40.3338717" lon="15.6250367"><ele>475.0</ele><time>2026-05-03T07:19:22.886Z</time></trkpt><trkpt lat="40.3339733" lon="15.6250517"><ele>475.0</ele><time>2026-05-03T07:19:23.885Z</time></trkpt><trkpt lat="40.33407" lon="15.6250583"><ele>475.2</ele><time>2026-05-03T07:19:24.886Z</time></trkpt><trkpt lat="40.3341633" lon="15.6250717"><ele>475.4</ele><time>2026-05-03T07:19:25.886Z</time></trkpt><trkpt lat="40.3342733" lon="15.6250767"><ele>475.6</ele><time>2026-05-03T07:19:26.886Z</time></trkpt><trkpt lat="40.3343833" lon="15.6250767"><ele>475.8</ele><time>2026-05-03T07:19:27.886Z</time></trkpt><trkpt lat="40.334505" lon="15.6250867"><ele>476.0</ele><time>2026-05-03T07:19:28.885Z</time></trkpt><trkpt lat="40.33462" lon="15.62509"><ele>475.6</ele><time>2026-05-03T07:19:29.885Z</time></trkpt><trkpt lat="40.3347333" lon="15.625105"><ele>475.20000000000005</ele><time>2026-05-03T07:19:30.886Z</time></trkpt><trkpt lat="40.334845" lon="15.6251133"><ele>474.79999999999995</ele><time>2026-05-03T07:19:31.886Z</time></trkpt><trkpt lat="40.3349467" lon="15.625125"><ele>474.4</ele><time>2026-05-03T07:19:32.886Z</time></trkpt><trkpt lat="40.3350383" lon="15.6251317"><ele>474.0</ele><time>2026-05-03T07:19:33.886Z</time></trkpt><trkpt lat="40.33514" lon="15.6251433"><ele>474.0</ele><time>2026-05-03T07:19:34.886Z</time></trkpt><trkpt lat="40.3352367" lon="15.6251533"><ele>474.0</ele><time>2026-05-03T07:19:35.886Z</time></trkpt><trkpt lat="40.3353317" lon="15.625155"><ele>474.0</ele><time>2026-05-03T07:19:36.885Z</time></trkpt><trkpt lat="40.335415" lon="15.6251567"><ele>474.0</ele><time>2026-05-03T07:19:37.886Z</time></trkpt><trkpt lat="40.3354883" lon="15.6251633"><ele>474.0</ele><time>2026-05-03T07:19:38.886Z</time></trkpt><trkpt lat="40.3355567" lon="15.625165"><ele>474.0</ele><time>2026-05-03T07:19:39.886Z</time></trkpt><trkpt lat="40.3356167" lon="15.6252483"><ele>474.5</ele><time>2026-05-03T07:19:41.886Z</time></trkpt><trkpt lat="40.3356467" lon="15.6254117"><ele>475.0</ele><time>2026-05-03T07:19:43.886Z</time></trkpt><trkpt lat="40.335675" lon="15.6254983"><ele>475.5</ele><time>2026-05-03T07:19:44.886Z</time></trkpt><trkpt lat="40.3357083" lon="15.6255883"><ele>476.0</ele><time>2026-05-03T07:19:45.886Z</time></trkpt><trkpt lat="40.3357433" lon="15.6256833"><ele>476.5</ele><time>2026-05-03T07:19:46.886Z</time></trkpt><trkpt lat="40.3357833" lon="15.6257783"><ele>477.0</ele><time>2026-05-03T07:19:47.885Z</time></trkpt><trkpt lat="40.3358233" lon="15.625885"><ele>477.0</ele><time>2026-05-03T07:19:48.886Z</time></trkpt><trkpt lat="40.3358683" lon="15.6259933"><ele>477.00000000000006</ele><time>2026-05-03T07:19:49.886Z</time></trkpt><trkpt lat="40.3359167" lon="15.6261117"><ele>477.00000000000006</ele><time>2026-05-03T07:19:50.885Z</time></trkpt><trkpt lat="40.3359633" lon="15.62624"><ele>477.0</ele><time>2026-05-03T07:19:51.886Z</time></trkpt><trkpt lat="40.3360117" lon="15.62638"><ele>477.0</ele><time>2026-05-03T07:19:52.886Z</time></trkpt><trkpt lat="40.3360617" lon="15.6265317"><ele>477.25</ele><time>2026-05-03T07:19:53.886Z</time></trkpt><trkpt lat="40.3361217" lon="15.6266783"><ele>477.5</ele><time>2026-05-03T07:19:54.885Z</time></trkpt><trkpt lat="40.33618" lon="15.62683"><ele>477.75</ele><time>2026-05-03T07:19:55.886Z</time></trkpt><trkpt lat="40.3362333" lon="15.6269817"><ele>478.0</ele><time>2026-05-03T07:19:56.886Z</time></trkpt><trkpt lat="40.33628" lon="15.62712"><ele>478.2</ele><time>2026-05-03T07:19:57.886Z</time></trkpt><trkpt lat="40.3363267" lon="15.627265"><ele>478.4</ele><time>2026-05-03T07:19:58.885Z</time></trkpt><trkpt lat="40.336355" lon="15.627405"><ele>478.59999999999997</ele><time>2026-05-03T07:19:59.886Z</time></trkpt><trkpt lat="40.3364117" lon="15.627525"><ele>478.79999999999995</ele><time>2026-05-03T07:20:00.886Z</time></trkpt><trkpt lat="40.3364517" lon="15.6276583"><ele>479.0</ele><time>2026-05-03T07:20:01.886Z</time></trkpt><trkpt lat="40.336495" lon="15.627785"><ele>479.4</ele><time>2026-05-03T07:20:02.886Z</time></trkpt><trkpt lat="40.336535" lon="15.627905"><ele>479.79999999999995</ele><time>2026-05-03T07:20:03.886Z</time></trkpt><trkpt lat="40.3365733" lon="15.6280117"><ele>480.20000000000005</ele><time>2026-05-03T07:20:04.885Z</time></trkpt><trkpt lat="40.3366217" lon="15.62811"><ele>480.6</ele><time>2026-05-03T07:20:05.886Z</time></trkpt><trkpt lat="40.33666" lon="15.6282083"><ele>481.0</ele><time>2026-05-03T07:20:06.885Z</time></trkpt><trkpt lat="40.3366967" lon="15.6283183"><ele>481.00000000000006</ele><time>2026-05-03T07:20:07.885Z</time></trkpt><trkpt lat="40.33674" lon="15.6284217"><ele>481.0</ele><time>2026-05-03T07:20:08.885Z</time></trkpt><trkpt lat="40.3367783" lon="15.6285283"><ele>481.0</ele><time>2026-05-03T07:20:09.886Z</time></trkpt><trkpt lat="40.3368133" lon="15.628625"><ele>481.0</ele><time>2026-05-03T07:20:10.886Z</time></trkpt><trkpt lat="40.33685" lon="15.62872"><ele>481.00000000000006</ele><time>2026-05-03T07:20:11.885Z</time></trkpt><trkpt lat="40.336885" lon="15.62881"><ele>481.0</ele><time>2026-05-03T07:20:12.886Z</time></trkpt><trkpt lat="40.336915" lon="15.6288867"><ele>481.00000000000006</ele><time>2026-05-03T07:20:13.885Z</time></trkpt><trkpt lat="40.3369683" lon="15.62903"><ele>481.0</ele><time>2026-05-03T07:20:15.886Z</time></trkpt><trkpt lat="40.3369917" lon="15.62911"><ele>481.0</ele><time>2026-05-03T07:20:16.886Z</time></trkpt><trkpt lat="40.337025" lon="15.6291933"><ele>481.0</ele><time>2026-05-03T07:20:17.886Z</time></trkpt><trkpt lat="40.3370567" lon="15.6292833"><ele>481.00000000000006</ele><time>2026-05-03T07:20:18.885Z</time></trkpt><trkpt lat="40.3370933" lon="15.6293767"><ele>481.0</ele><time>2026-05-03T07:20:19.886Z</time></trkpt><trkpt lat="40.3371317" lon="15.6294833"><ele>481.0</ele><time>2026-05-03T07:20:20.886Z</time></trkpt><trkpt lat="40.3371733" lon="15.6295917"><ele>481.0</ele><time>2026-05-03T07:20:21.885Z</time></trkpt><trkpt lat="40.3372167" lon="15.629715"><ele>481.0</ele><time>2026-05-03T07:20:22.886Z</time></trkpt><trkpt lat="40.3372567" lon="15.6298567"><ele>481.0</ele><time>2026-05-03T07:20:23.885Z</time></trkpt><trkpt lat="40.337295" lon="15.6300117"><ele>481.0</ele><time>2026-05-03T07:20:24.886Z</time></trkpt><trkpt lat="40.337325" lon="15.6301683"><ele>481.0</ele><time>2026-05-03T07:20:25.885Z</time></trkpt><trkpt lat="40.3373567" lon="15.6303383"><ele>481.0</ele><time>2026-05-03T07:20:26.886Z</time></trkpt><trkpt lat="40.3374" lon="15.6305117"><ele>481.0</ele><time>2026-05-03T07:20:27.886Z</time></trkpt><trkpt lat="40.3374433" lon="15.630685"><ele>481.0</ele><time>2026-05-03T07:20:28.886Z</time></trkpt><trkpt lat="40.337485" lon="15.630865"><ele>481.0</ele><time>2026-05-03T07:20:29.886Z</time></trkpt><trkpt lat="40.33753" lon="15.6310467"><ele>481.0</ele><time>2026-05-03T07:20:30.886Z</time></trkpt><trkpt lat="40.33757" lon="15.6312333"><ele>481.0</ele><time>2026-05-03T07:20:31.886Z</time></trkpt><trkpt lat="40.3376117" lon="15.6314183"><ele>481.0</ele><time>2026-05-03T07:20:32.885Z</time></trkpt><trkpt lat="40.33765" lon="15.6316083"><ele>481.0</ele><time>2026-05-03T07:20:33.885Z</time></trkpt><trkpt lat="40.337705" lon="15.6317917"><ele>481.0</ele><time>2026-05-03T07:20:34.885Z</time></trkpt><trkpt lat="40.337745" lon="15.63199"><ele>481.0</ele><time>2026-05-03T07:20:35.886Z</time></trkpt><trkpt lat="40.3377833" lon="15.6321833"><ele>481.0</ele><time>2026-05-03T07:20:36.886Z</time></trkpt><trkpt lat="40.3378167" lon="15.6323917"><ele>481.0</ele><time>2026-05-03T07:20:37.886Z</time></trkpt><trkpt lat="40.3378567" lon="15.6325967"><ele>481.0</ele><time>2026-05-03T07:20:38.886Z</time></trkpt><trkpt lat="40.337905" lon="15.6327933"><ele>481.75</ele><time>2026-05-03T07:20:39.886Z</time></trkpt><trkpt lat="40.3379483" lon="15.632985"><ele>482.5</ele><time>2026-05-03T07:20:40.885Z</time></trkpt><trkpt lat="40.3379933" lon="15.6331633"><ele>483.25</ele><time>2026-05-03T07:20:41.886Z</time></trkpt><trkpt lat="40.33803" lon="15.6333383"><ele>484.0</ele><time>2026-05-03T07:20:42.886Z</time></trkpt><trkpt lat="40.3380733" lon="15.63351"><ele>484.75</ele><time>2026-05-03T07:20:43.886Z</time></trkpt><trkpt lat="40.33811" lon="15.6336867"><ele>485.5</ele><time>2026-05-03T07:20:44.886Z</time></trkpt><trkpt lat="40.3381517" lon="15.6338633"><ele>486.25</ele><time>2026-05-03T07:20:45.885Z</time></trkpt><trkpt lat="40.3381933" lon="15.6340367"><ele>487.0</ele><time>2026-05-03T07:20:46.886Z</time></trkpt><trkpt lat="40.3382367" lon="15.63421"><ele>487.0</ele><time>2026-05-03T07:20:47.886Z</time></trkpt><trkpt lat="40.338285" lon="15.6343833"><ele>487.0</ele><time>2026-05-03T07:20:48.886Z</time></trkpt><trkpt lat="40.338315" lon="15.6345483"><ele>487.0</ele><time>2026-05-03T07:20:49.886Z</time></trkpt><trkpt lat="40.3383583" lon="15.6347233"><ele>487.0</ele><time>2026-05-03T07:20:50.885Z</time></trkpt><trkpt lat="40.3383983" lon="15.6348983"><ele>487.25</ele><time>2026-05-03T07:20:51.886Z</time></trkpt><trkpt lat="40.3384233" lon="15.635075"><ele>487.5</ele><time>2026-05-03T07:20:52.886Z</time></trkpt><trkpt lat="40.338435" lon="15.6352467"><ele>487.75</ele><time>2026-05-03T07:20:53.886Z</time></trkpt><trkpt lat="40.3384417" lon="15.635415"><ele>488.0</ele><time>2026-05-03T07:20:54.885Z</time></trkpt><trkpt lat="40.3384383" lon="15.6355867"><ele>488.0</ele><time>2026-05-03T07:20:55.885Z</time></trkpt><trkpt lat="40.338435" lon="15.6357667"><ele>488.0</ele><time>2026-05-03T07:20:56.886Z</time></trkpt><trkpt lat="40.33842" lon="15.6359483"><ele>488.0</ele><time>2026-05-03T07:20:57.886Z</time></trkpt><trkpt lat="40.3384" lon="15.6361433"><ele>488.0</ele><time>2026-05-03T07:20:58.885Z</time></trkpt><trkpt lat="40.3383717" lon="15.636345"><ele>489.0</ele><time>2026-05-03T07:20:59.886Z</time></trkpt><trkpt lat="40.338345" lon="15.63655"><ele>490.0</ele><time>2026-05-03T07:21:00.886Z</time></trkpt><trkpt lat="40.338325" lon="15.6367533"><ele>491.0</ele><time>2026-05-03T07:21:01.886Z</time></trkpt><trkpt lat="40.338305" lon="15.6369683"><ele>491.3333333333333</ele><time>2026-05-03T07:21:02.886Z</time></trkpt><trkpt lat="40.3382833" lon="15.6371717"><ele>491.66666666666663</ele><time>2026-05-03T07:21:03.885Z</time></trkpt><trkpt lat="40.3382567" lon="15.63738"><ele>492.0</ele><time>2026-05-03T07:21:04.885Z</time></trkpt><trkpt lat="40.338225" lon="15.6375817"><ele>492.0</ele><time>2026-05-03T07:21:05.885Z</time></trkpt><trkpt lat="40.338185" lon="15.6377833"><ele>492.0</ele><time>2026-05-03T07:21:06.886Z</time></trkpt><trkpt lat="40.33814" lon="15.6379883"><ele>492.0</ele><time>2026-05-03T07:21:07.886Z</time></trkpt><trkpt lat="40.3380967" lon="15.6382"><ele>492.66666666666663</ele><time>2026-05-03T07:21:08.886Z</time></trkpt><trkpt lat="40.3380433" lon="15.6384033"><ele>493.3333333333333</ele><time>2026-05-03T07:21:09.886Z</time></trkpt><trkpt lat="40.3379933" lon="15.6386033"><ele>494.0</ele><time>2026-05-03T07:21:10.886Z</time></trkpt><trkpt lat="40.337935" lon="15.6387983"><ele>494.66666666666663</ele><time>2026-05-03T07:21:11.886Z</time></trkpt><trkpt lat="40.3378767" lon="15.6389883"><ele>495.33333333333337</ele><time>2026-05-03T07:21:12.886Z</time></trkpt><trkpt lat="40.33782" lon="15.6391767"><ele>496.0</ele><time>2026-05-03T07:21:13.886Z</time></trkpt><trkpt lat="40.3377583" lon="15.6393633"><ele>496.33333333333337</ele><time>2026-05-03T07:21:14.885Z</time></trkpt><trkpt lat="40.3377067" lon="15.6395483"><ele>496.66666666666663</ele><time>2026-05-03T07:21:15.885Z</time></trkpt><trkpt lat="40.337645" lon="15.6397333"><ele>497.0</ele><time>2026-05-03T07:21:16.886Z</time></trkpt><trkpt lat="40.33758" lon="15.639915"><ele>497.0</ele><time>2026-05-03T07:21:17.885Z</time></trkpt><trkpt lat="40.3375133" lon="15.6401"><ele>497.0</ele><time>2026-05-03T07:21:18.886Z</time></trkpt><trkpt lat="40.3374517" lon="15.640295"><ele>497.0</ele><time>2026-05-03T07:21:19.885Z</time></trkpt><trkpt lat="40.3373833" lon="15.640495"><ele>496.3333333333333</ele><time>2026-05-03T07:21:20.885Z</time></trkpt><trkpt lat="40.3373267" lon="15.640695"><ele>495.66666666666663</ele><time>2026-05-03T07:21:21.886Z</time></trkpt><trkpt lat="40.3372917" lon="15.6408933"><ele>495.0</ele><time>2026-05-03T07:21:22.885Z</time></trkpt><trkpt lat="40.3372617" lon="15.64112"><ele>496.0</ele><time>2026-05-03T07:21:23.886Z</time></trkpt><trkpt lat="40.33726" lon="15.6413417"><ele>497.0</ele><time>2026-05-03T07:21:24.886Z</time></trkpt><trkpt lat="40.337275" lon="15.64155"><ele>498.0</ele><time>2026-05-03T07:21:25.886Z</time></trkpt><trkpt lat="40.3372967" lon="15.6417583"><ele>498.66666666666663</ele><time>2026-05-03T07:21:26.886Z</time></trkpt><trkpt lat="40.337335" lon="15.6419767"><ele>499.3333333333333</ele><time>2026-05-03T07:21:27.885Z</time></trkpt><trkpt lat="40.33738" lon="15.6421867"><ele>500.0</ele><time>2026-05-03T07:21:28.885Z</time></trkpt><trkpt lat="40.3374283" lon="15.642405"><ele>500.0</ele><time>2026-05-03T07:21:29.886Z</time></trkpt><trkpt lat="40.3374733" lon="15.6426217"><ele>500.0</ele><time>2026-05-03T07:21:30.886Z</time></trkpt><trkpt lat="40.337515" lon="15.64282"><ele>500.0</ele><time>2026-05-03T07:21:31.886Z</time></trkpt><trkpt lat="40.3375517" lon="15.6430033"><ele>500.25</ele><time>2026-05-03T07:21:32.886Z</time></trkpt><trkpt lat="40.3375833" lon="15.6431783"><ele>500.5</ele><time>2026-05-03T07:21:33.886Z</time></trkpt><trkpt lat="40.3376183" lon="15.6433433"><ele>500.75</ele><time>2026-05-03T07:21:34.886Z</time></trkpt><trkpt lat="40.3376517" lon="15.64352"><ele>501.0</ele><time>2026-05-03T07:21:35.886Z</time></trkpt><trkpt lat="40.33768" lon="15.6437017"><ele>502.0</ele><time>2026-05-03T07:21:36.886Z</time></trkpt><trkpt lat="40.3377083" lon="15.64388"><ele>503.0</ele><time>2026-05-03T07:21:37.886Z</time></trkpt><trkpt lat="40.3377333" lon="15.64407"><ele>504.0</ele><time>2026-05-03T07:21:38.886Z</time></trkpt><trkpt lat="40.3377583" lon="15.64426"><ele>505.0</ele><time>2026-05-03T07:21:39.886Z</time></trkpt><trkpt lat="40.3377867" lon="15.6444333"><ele>505.5</ele><time>2026-05-03T07:21:40.886Z</time></trkpt><trkpt lat="40.3378133" lon="15.6446"><ele>506.0</ele><time>2026-05-03T07:21:41.886Z</time></trkpt><trkpt lat="40.33784" lon="15.6447567"><ele>506.5</ele><time>2026-05-03T07:21:42.885Z</time></trkpt><trkpt lat="40.3378633" lon="15.6449017"><ele>507.0</ele><time>2026-05-03T07:21:43.886Z</time></trkpt><trkpt lat="40.3378883" lon="15.6450417"><ele>507.0</ele><time>2026-05-03T07:21:44.886Z</time></trkpt><trkpt lat="40.3379133" lon="15.6451817"><ele>507.00000000000006</ele><time>2026-05-03T07:21:45.886Z</time></trkpt><trkpt lat="40.3379467" lon="15.6453183"><ele>507.00000000000006</ele><time>2026-05-03T07:21:46.885Z</time></trkpt><trkpt lat="40.337975" lon="15.645445"><ele>507.0</ele><time>2026-05-03T07:21:47.885Z</time></trkpt><trkpt lat="40.338015" lon="15.6455667"><ele>507.0</ele><time>2026-05-03T07:21:48.886Z</time></trkpt><trkpt lat="40.3380617" lon="15.6456833"><ele>507.20000000000005</ele><time>2026-05-03T07:21:49.886Z</time></trkpt><trkpt lat="40.3381067" lon="15.6458017"><ele>507.40000000000003</ele><time>2026-05-03T07:21:50.886Z</time></trkpt><trkpt lat="40.33815" lon="15.6459317"><ele>507.59999999999997</ele><time>2026-05-03T07:21:51.886Z</time></trkpt><trkpt lat="40.3382" lon="15.6460567"><ele>507.79999999999995</ele><time>2026-05-03T07:21:52.885Z</time></trkpt><trkpt lat="40.3382617" lon="15.64619"><ele>508.0</ele><time>2026-05-03T07:21:53.885Z</time></trkpt><trkpt lat="40.3383233" lon="15.6463217"><ele>508.75</ele><time>2026-05-03T07:21:54.886Z</time></trkpt><trkpt lat="40.3383917" lon="15.6464667"><ele>509.5</ele><time>2026-05-03T07:21:55.885Z</time></trkpt><trkpt lat="40.3384617" lon="15.64662"><ele>510.25</ele><time>2026-05-03T07:21:56.886Z</time></trkpt><trkpt lat="40.3385283" lon="15.6467883"><ele>511.0</ele><time>2026-05-03T07:21:57.886Z</time></trkpt><trkpt lat="40.3386033" lon="15.64696"><ele>512.3333333333334</ele><time>2026-05-03T07:21:58.886Z</time></trkpt><trkpt lat="40.3386833" lon="15.6471383"><ele>513.6666666666666</ele><time>2026-05-03T07:21:59.886Z</time></trkpt><trkpt lat="40.3387617" lon="15.64733"><ele>515.0</ele><time>2026-05-03T07:22:00.886Z</time></trkpt><trkpt lat="40.3388333" lon="15.647525"><ele>514.6666666666666</ele><time>2026-05-03T07:22:01.886Z</time></trkpt><trkpt lat="40.3389133" lon="15.6477233"><ele>514.3333333333334</ele><time>2026-05-03T07:22:02.886Z</time></trkpt><trkpt lat="40.3389883" lon="15.64791"><ele>514.0</ele><time>2026-05-03T07:22:03.886Z</time></trkpt><trkpt lat="40.3390683" lon="15.64809"><ele>515.0</ele><time>2026-05-03T07:22:04.886Z</time></trkpt><trkpt lat="40.339145" lon="15.6482717"><ele>516.0</ele><time>2026-05-03T07:22:05.886Z</time></trkpt><trkpt lat="40.339225" lon="15.6484433"><ele>517.0</ele><time>2026-05-03T07:22:06.886Z</time></trkpt><trkpt lat="40.339295" lon="15.6486067"><ele>517.5</ele><time>2026-05-03T07:22:07.886Z</time></trkpt><trkpt lat="40.339375" lon="15.6487683"><ele>518.0</ele><time>2026-05-03T07:22:08.886Z</time></trkpt><trkpt lat="40.3394467" lon="15.6489317"><ele>518.5</ele><time>2026-05-03T07:22:09.886Z</time></trkpt><trkpt lat="40.3395183" lon="15.6490933"><ele>519.0</ele><time>2026-05-03T07:22:10.886Z</time></trkpt><trkpt lat="40.339585" lon="15.6492617"><ele>519.0</ele><time>2026-05-03T07:22:11.886Z</time></trkpt><trkpt lat="40.339645" lon="15.649425"><ele>519.0</ele><time>2026-05-03T07:22:12.885Z</time></trkpt><trkpt lat="40.3397133" lon="15.649595"><ele>519.0</ele><time>2026-05-03T07:22:13.886Z</time></trkpt><trkpt lat="40.33979" lon="15.6497717"><ele>519.0</ele><time>2026-05-03T07:22:14.885Z</time></trkpt><trkpt lat="40.3398717" lon="15.6499467"><ele>519.3333333333334</ele><time>2026-05-03T07:22:15.886Z</time></trkpt><trkpt lat="40.3399467" lon="15.650115"><ele>519.6666666666667</ele><time>2026-05-03T07:22:16.886Z</time></trkpt><trkpt lat="40.3400167" lon="15.650295"><ele>520.0</ele><time>2026-05-03T07:22:17.886Z</time></trkpt><trkpt lat="40.34009" lon="15.650465"><ele>521.5</ele><time>2026-05-03T07:22:18.886Z</time></trkpt><trkpt lat="40.3401683" lon="15.6506267"><ele>523.0</ele><time>2026-05-03T07:22:19.886Z</time></trkpt><trkpt lat="40.3402417" lon="15.6507867"><ele>524.5</ele><time>2026-05-03T07:22:20.886Z</time></trkpt><trkpt lat="40.34031" lon="15.6509383"><ele>526.0</ele><time>2026-05-03T07:22:21.886Z</time></trkpt><trkpt lat="40.3403733" lon="15.6510883"><ele>527.0</ele><time>2026-05-03T07:22:22.885Z</time></trkpt><trkpt lat="40.3404183" lon="15.65125"><ele>528.0</ele><time>2026-05-03T07:22:23.886Z</time></trkpt><trkpt lat="40.34045" lon="15.6514167"><ele>529.0</ele><time>2026-05-03T07:22:24.886Z</time></trkpt><trkpt lat="40.3404567" lon="15.6516"><ele>530.0</ele><time>2026-05-03T07:22:25.886Z</time></trkpt><trkpt lat="40.3404483" lon="15.6517533"><ele>530.0</ele><time>2026-05-03T07:22:26.886Z</time></trkpt><trkpt lat="40.3404233" lon="15.651905"><ele>530.0</ele><time>2026-05-03T07:22:27.886Z</time></trkpt><trkpt lat="40.3403767" lon="15.6520617"><ele>530.0</ele><time>2026-05-03T07:22:28.885Z</time></trkpt><trkpt lat="40.3403133" lon="15.65221"><ele>530.0</ele><time>2026-05-03T07:22:29.886Z</time></trkpt><trkpt lat="40.340245" lon="15.6523383"><ele>531.2</ele><time>2026-05-03T07:22:30.886Z</time></trkpt><trkpt lat="40.3401583" lon="15.65246"><ele>532.4</ele><time>2026-05-03T07:22:31.886Z</time></trkpt><trkpt lat="40.340075" lon="15.6525683"><ele>533.6</ele><time>2026-05-03T07:22:32.885Z</time></trkpt><trkpt lat="40.3399967" lon="15.6526533"><ele>534.8</ele><time>2026-05-03T07:22:33.886Z</time></trkpt><trkpt lat="40.339925" lon="15.6527317"><ele>536.0</ele><time>2026-05-03T07:22:34.886Z</time></trkpt><trkpt lat="40.3398567" lon="15.6527917"><ele>537.2</ele><time>2026-05-03T07:22:35.886Z</time></trkpt><trkpt lat="40.3398033" lon="15.65285"><ele>538.4000000000001</ele><time>2026-05-03T07:22:36.886Z</time></trkpt><trkpt lat="40.339715" lon="15.6529333"><ele>539.6</ele><time>2026-05-03T07:22:38.886Z</time></trkpt><trkpt lat="40.339625" lon="15.6530117"><ele>540.8000000000001</ele><time>2026-05-03T07:22:40.885Z</time></trkpt><trkpt lat="40.339535" lon="15.6530733"><ele>542.0</ele><time>2026-05-03T07:22:42.886Z</time></trkpt><trkpt lat="40.3394717" lon="15.6531483"><ele>542.0</ele><time>2026-05-03T07:22:44.885Z</time></trkpt><trkpt lat="40.3394167" lon="15.6532267"><ele>542.0</ele><time>2026-05-03T07:22:46.886Z</time></trkpt><trkpt lat="40.339355" lon="15.6532767"><ele>542.0</ele><time>2026-05-03T07:22:48.885Z</time></trkpt><trkpt lat="40.3393" lon="15.65335"><ele>542.0</ele><time>2026-05-03T07:22:50.886Z</time></trkpt><trkpt lat="40.3392283" lon="15.6534217"><ele>542.0</ele><time>2026-05-03T07:22:52.886Z</time></trkpt><trkpt lat="40.3391467" lon="15.65352"><ele>542.0</ele><time>2026-05-03T07:22:54.886Z</time></trkpt><trkpt lat="40.33905" lon="15.65362"><ele>542.8333333333333</ele><time>2026-05-03T07:22:56.885Z</time></trkpt><trkpt lat="40.338995" lon="15.6536767"><ele>543.6666666666666</ele><time>2026-05-03T07:22:57.886Z</time></trkpt><trkpt lat="40.3389367" lon="15.6537417"><ele>544.5</ele><time>2026-05-03T07:22:58.886Z</time></trkpt><trkpt lat="40.3388683" lon="15.6538"><ele>545.3333333333334</ele><time>2026-05-03T07:22:59.886Z</time></trkpt><trkpt lat="40.3388017" lon="15.6538583"><ele>546.1666666666667</ele><time>2026-05-03T07:23:00.885Z</time></trkpt><trkpt lat="40.3387467" lon="15.6539233"><ele>547.0</ele><time>2026-05-03T07:23:01.886Z</time></trkpt><trkpt lat="40.3386883" lon="15.6539817"><ele>547.0</ele><time>2026-05-03T07:23:02.886Z</time></trkpt><trkpt lat="40.3386333" lon="15.6540433"><ele>547.0</ele><time>2026-05-03T07:23:03.886Z</time></trkpt><trkpt lat="40.33858" lon="15.6540967"><ele>547.0</ele><time>2026-05-03T07:23:04.886Z</time></trkpt><trkpt lat="40.3385267" lon="15.6541567"><ele>547.0</ele><time>2026-05-03T07:23:05.886Z</time></trkpt><trkpt lat="40.33847" lon="15.6542183"><ele>547.0</ele><time>2026-05-03T07:23:06.885Z</time></trkpt><trkpt lat="40.338415" lon="15.65426"><ele>547.0</ele><time>2026-05-03T07:23:07.885Z</time></trkpt><trkpt lat="40.338365" lon="15.654315"><ele>547.0</ele><time>2026-05-03T07:23:08.886Z</time></trkpt><trkpt lat="40.33831" lon="15.65436"><ele>547.0</ele><time>2026-05-03T07:23:09.885Z</time></trkpt><trkpt lat="40.3382167" lon="15.6544633"><ele>547.0</ele><time>2026-05-03T07:23:11.886Z</time></trkpt><trkpt lat="40.3381367" lon="15.6545567"><ele>547.0</ele><time>2026-05-03T07:23:13.886Z</time></trkpt><trkpt lat="40.3380733" lon="15.65464"><ele>547.0</ele><time>2026-05-03T07:23:15.885Z</time></trkpt><trkpt lat="40.3380433" lon="15.654715"><ele>547.0</ele><time>2026-05-03T07:23:17.886Z</time></trkpt><trkpt lat="40.3379667" lon="15.654735"><ele>547.0</ele><time>2026-05-03T07:23:21.886Z</time></trkpt><trkpt lat="40.3379033" lon="15.65464"><ele>547.0</ele><time>2026-05-03T07:23:23.886Z</time></trkpt><trkpt lat="40.3377983" lon="15.6545417"><ele>547.0</ele><time>2026-05-03T07:23:25.885Z</time></trkpt><trkpt lat="40.3377383" lon="15.6544833"><ele>547.0</ele><time>2026-05-03T07:23:26.886Z</time></trkpt><trkpt lat="40.3376617" lon="15.6544317"><ele>547.0</ele><time>2026-05-03T07:23:27.886Z</time></trkpt><trkpt lat="40.3375667" lon="15.65436"><ele>546.0</ele><time>2026-05-03T07:23:28.885Z</time></trkpt><trkpt lat="40.3374667" lon="15.6542933"><ele>545.0</ele><time>2026-05-03T07:23:29.886Z</time></trkpt><trkpt lat="40.3373683" lon="15.6542217"><ele>544.0</ele><time>2026-05-03T07:23:30.885Z</time></trkpt><trkpt lat="40.33728" lon="15.65415"><ele>543.0</ele><time>2026-05-03T07:23:31.886Z</time></trkpt><trkpt lat="40.33719" lon="15.6540817"><ele>542.0</ele><time>2026-05-03T07:23:32.886Z</time></trkpt><trkpt lat="40.3370983" lon="15.6540217"><ele>541.6</ele><time>2026-05-03T07:23:33.886Z</time></trkpt><trkpt lat="40.3370067" lon="15.6539617"><ele>541.2</ele><time>2026-05-03T07:23:34.886Z</time></trkpt><trkpt lat="40.3369167" lon="15.6539"><ele>540.8</ele><time>2026-05-03T07:23:35.886Z</time></trkpt><trkpt lat="40.3368233" lon="15.6538367"><ele>540.4</ele><time>2026-05-03T07:23:36.885Z</time></trkpt><trkpt lat="40.3367483" lon="15.6537733"><ele>540.0</ele><time>2026-05-03T07:23:37.885Z</time></trkpt><trkpt lat="40.336675" lon="15.6537167"><ele>540.0</ele><time>2026-05-03T07:23:38.886Z</time></trkpt><trkpt lat="40.336605" lon="15.65366"><ele>540.0</ele><time>2026-05-03T07:23:39.886Z</time></trkpt><trkpt lat="40.3365383" lon="15.653595"><ele>540.0</ele><time>2026-05-03T07:23:40.886Z</time></trkpt><trkpt lat="40.3364667" lon="15.6535233"><ele>540.0</ele><time>2026-05-03T07:23:41.885Z</time></trkpt><trkpt lat="40.3363917" lon="15.6534617"><ele>540.0</ele><time>2026-05-03T07:23:42.886Z</time></trkpt><trkpt lat="40.3363167" lon="15.6534067"><ele>540.0</ele><time>2026-05-03T07:23:43.886Z</time></trkpt><trkpt lat="40.3362467" lon="15.6533517"><ele>539.7142857142857</ele><time>2026-05-03T07:23:44.885Z</time></trkpt><trkpt lat="40.3361817" lon="15.6532983"><ele>539.4285714285713</ele><time>2026-05-03T07:23:45.886Z</time></trkpt><trkpt lat="40.3361183" lon="15.6532433"><ele>539.1428571428571</ele><time>2026-05-03T07:23:46.886Z</time></trkpt><trkpt lat="40.3360567" lon="15.6531933"><ele>538.8571428571429</ele><time>2026-05-03T07:23:47.886Z</time></trkpt><trkpt lat="40.3359967" lon="15.65314"><ele>538.5714285714287</ele><time>2026-05-03T07:23:48.886Z</time></trkpt><trkpt lat="40.3359417" lon="15.6530883"><ele>538.2857142857143</ele><time>2026-05-03T07:23:49.886Z</time></trkpt><trkpt lat="40.3358917" lon="15.6530283"><ele>538.0</ele><time>2026-05-03T07:23:50.886Z</time></trkpt><trkpt lat="40.335845" lon="15.652955"><ele>538.0</ele><time>2026-05-03T07:23:51.886Z</time></trkpt><trkpt lat="40.3357917" lon="15.6528783"><ele>538.0</ele><time>2026-05-03T07:23:52.886Z</time></trkpt><trkpt lat="40.33574" lon="15.6528"><ele>538.0</ele><time>2026-05-03T07:23:53.886Z</time></trkpt><trkpt lat="40.335685" lon="15.6527367"><ele>538.0</ele><time>2026-05-03T07:23:54.886Z</time></trkpt><trkpt lat="40.3356283" lon="15.652695"><ele>538.0</ele><time>2026-05-03T07:23:55.886Z</time></trkpt><trkpt lat="40.3355183" lon="15.652645"><ele>538.0</ele><time>2026-05-03T07:23:57.886Z</time></trkpt><trkpt lat="40.33541" lon="15.6526217"><ele>537.0</ele><time>2026-05-03T07:23:59.886Z</time></trkpt><trkpt lat="40.3353133" lon="15.652565"><ele>536.0</ele><time>2026-05-03T07:24:01.885Z</time></trkpt><trkpt lat="40.3352317" lon="15.65252"><ele>535.0</ele><time>2026-05-03T07:24:03.886Z</time></trkpt><trkpt lat="40.3351683" lon="15.6525083"><ele>534.0</ele><time>2026-05-03T07:24:05.886Z</time></trkpt><trkpt lat="40.3351017" lon="15.65248"><ele>533.0</ele><time>2026-05-03T07:24:08.885Z</time></trkpt><trkpt lat="40.335045" lon="15.6524383"><ele>532.0</ele><time>2026-05-03T07:24:12.886Z</time></trkpt><trkpt lat="40.33498" lon="15.6523783"><ele>532.0</ele><time>2026-05-03T07:24:17.885Z</time></trkpt><trkpt lat="40.3349483" lon="15.652295"><ele>532.0</ele><time>2026-05-03T07:24:21.886Z</time></trkpt><trkpt lat="40.3349017" lon="15.6522117"><ele>532.0</ele><time>2026-05-03T07:24:25.886Z</time></trkpt><trkpt lat="40.3348567" lon="15.65214"><ele>532.0</ele><time>2026-05-03T07:24:28.885Z</time></trkpt><trkpt lat="40.3348633" lon="15.65223"><ele>532.0</ele><time>2026-05-03T07:25:20.886Z</time></trkpt><trkpt lat="40.33492" lon="15.6523117"><ele>532.0</ele><time>2026-05-03T07:28:21.887Z</time></trkpt><trkpt lat="40.3349617" lon="15.65238"><ele>532.0</ele><time>2026-05-03T07:28:23.886Z</time></trkpt><trkpt lat="40.33502" lon="15.65245"><ele>532.0</ele><time>2026-05-03T07:28:25.887Z</time></trkpt><trkpt lat="40.3351" lon="15.652515"><ele>532.0</ele><time>2026-05-03T07:28:27.887Z</time></trkpt><trkpt lat="40.3352" lon="15.6525533"><ele>532.0</ele><time>2026-05-03T07:28:29.887Z</time></trkpt><trkpt lat="40.3353117" lon="15.652565"><ele>532.0</ele><time>2026-05-03T07:28:31.887Z</time></trkpt><trkpt lat="40.335415" lon="15.65261"><ele>532.0</ele><time>2026-05-03T07:28:33.887Z</time></trkpt><trkpt lat="40.3354883" lon="15.65267"><ele>532.0</ele><time>2026-05-03T07:28:35.887Z</time></trkpt><trkpt lat="40.335545" lon="15.6527333"><ele>532.0</ele><time>2026-05-03T07:28:37.887Z</time></trkpt><trkpt lat="40.3355983" lon="15.65284"><ele>532.0</ele><time>2026-05-03T07:28:40.886Z</time></trkpt><trkpt lat="40.33563" lon="15.6529133"><ele>532.0</ele><time>2026-05-03T07:28:42.887Z</time></trkpt><trkpt lat="40.335665" lon="15.6530117"><ele>532.0</ele><time>2026-05-03T07:29:05.886Z</time></trkpt><trkpt lat="40.3357217" lon="15.6531433"><ele>532.0</ele><time>2026-05-03T07:29:14.886Z</time></trkpt><trkpt lat="40.33578" lon="15.6532317"><ele>532.0</ele><time>2026-05-03T07:29:17.887Z</time></trkpt><trkpt lat="40.3357883" lon="15.6531467"><ele>532.0</ele><time>2026-05-03T07:29:22.886Z</time></trkpt><trkpt lat="40.3357267" lon="15.653065"><ele>532.0</ele><time>2026-05-03T07:30:02.887Z</time></trkpt><trkpt lat="40.335685" lon="15.6529917"><ele>532.0</ele><time>2026-05-03T07:30:04.886Z</time></trkpt><trkpt lat="40.33564" lon="15.6529033"><ele>532.0</ele><time>2026-05-03T07:30:06.887Z</time></trkpt><trkpt lat="40.3356083" lon="15.652805"><ele>532.0</ele><time>2026-05-03T07:30:09.887Z</time></trkpt><trkpt lat="40.335565" lon="15.652705"><ele>532.0</ele><time>2026-05-03T07:30:12.886Z</time></trkpt><trkpt lat="40.3354967" lon="15.6526417"><ele>532.0</ele><time>2026-05-03T07:30:15.887Z</time></trkpt><trkpt lat="40.3355417" lon="15.6527033"><ele>532.0</ele><time>2026-05-03T07:40:30.888Z</time></trkpt><trkpt lat="40.3356267" lon="15.6525767"><ele>532.0</ele><time>2026-05-03T07:40:45.887Z</time></trkpt><trkpt lat="40.3356333" lon="15.652395"><ele>532.0</ele><time>2026-05-03T07:41:00.887Z</time></trkpt><trkpt lat="40.3355967" lon="15.6522583"><ele>532.0</ele><time>2026-05-03T07:41:21.887Z</time></trkpt><trkpt lat="40.3356238" lon="15.6521465"><ele>532.0</ele><time>2026-05-03T07:41:44.888Z</time></trkpt><trkpt lat="40.335722" lon="15.6521041"><ele>532.0</ele><time>2026-05-03T07:42:29.888Z</time></trkpt><trkpt lat="40.3358297" lon="15.6521147"><ele>532.0</ele><time>2026-05-03T07:42:55.888Z</time></trkpt><trkpt lat="40.3359392" lon="15.6520895"><ele>532.0</ele><time>2026-05-03T07:45:59.889Z</time></trkpt><trkpt lat="40.3360258" lon="15.6519873"><ele>532.0</ele><time>2026-05-03T07:46:24.889Z</time></trkpt><trkpt lat="40.3361244" lon="15.6519062"><ele>532.0</ele><time>2026-05-03T07:47:40.889Z</time></trkpt><trkpt lat="40.3361537" lon="15.652009"><ele>532.0</ele><time>2026-05-03T07:50:09.889Z</time></trkpt><trkpt lat="40.3362463" lon="15.6520041"><ele>532.0</ele><time>2026-05-03T07:53:55.89Z</time></trkpt><trkpt lat="40.336285" lon="15.6518833"><ele>532.0</ele><time>2026-05-03T07:59:41.891Z</time></trkpt><trkpt lat="40.336295" lon="15.6517383"><ele>531.5</ele><time>2026-05-03T08:00:46.89Z</time></trkpt><trkpt lat="40.3362383" lon="15.6516283"><ele>531.0</ele><time>2026-05-03T08:02:22.89Z</time></trkpt><trkpt lat="40.336305" lon="15.6517933"><ele>530.5</ele><time>2026-05-03T08:02:34.891Z</time></trkpt><trkpt lat="40.3364167" lon="15.6517733"><ele>530.0</ele><time>2026-05-03T08:02:52.891Z</time></trkpt><trkpt lat="40.3364933" lon="15.6518967"><ele>530.8</ele><time>2026-05-03T08:03:08.89Z</time></trkpt><trkpt lat="40.3365768" lon="15.6518791"><ele>531.6</ele><time>2026-05-03T08:04:19.891Z</time></trkpt><trkpt lat="40.336655" lon="15.6518483"><ele>532.4</ele><time>2026-05-03T08:06:44.892Z</time></trkpt><trkpt lat="40.3365856" lon="15.6518124"><ele>533.2</ele><time>2026-05-03T08:07:22.892Z</time></trkpt><trkpt lat="40.3367015" lon="15.651866"><ele>534.0</ele><time>2026-05-03T08:08:26.892Z</time></trkpt><trkpt lat="40.336766" lon="15.6519634"><ele>534.0</ele><time>2026-05-03T08:10:45.892Z</time></trkpt><trkpt lat="40.3367109" lon="15.6518778"><ele>534.0</ele><time>2026-05-03T08:11:53.893Z</time></trkpt><trkpt lat="40.3367552" lon="15.6519825"><ele>534.0</ele><time>2026-05-03T08:15:37.893Z</time></trkpt><trkpt lat="40.3366922" lon="15.6519823"><ele>534.0</ele><time>2026-05-03T08:16:16.893Z</time></trkpt><trkpt lat="40.3366356" lon="15.6520597"><ele>534.0</ele><time>2026-05-03T08:16:18.893Z</time></trkpt><trkpt lat="40.3366259" lon="15.6521433"><ele>534.0</ele><time>2026-05-03T08:16:30.893Z</time></trkpt><trkpt lat="40.3367479" lon="15.6521457"><ele>534.0000000000001</ele><time>2026-05-03T08:16:42.893Z</time></trkpt><trkpt lat="40.3367832" lon="15.6522194"><ele>534.0</ele><time>2026-05-03T08:16:47.893Z</time></trkpt><trkpt lat="40.3368034" lon="15.6523031"><ele>534.0</ele><time>2026-05-03T08:16:51.892Z</time></trkpt><trkpt lat="40.3368476" lon="15.6523832"><ele>534.0</ele><time>2026-05-03T08:16:53.893Z</time></trkpt><trkpt lat="40.3368948" lon="15.652441"><ele>534.0</ele><time>2026-05-03T08:16:56.893Z</time></trkpt><trkpt lat="40.3369707" lon="15.6524078"><ele>534.0000000000001</ele><time>2026-05-03T08:17:00.892Z</time></trkpt><trkpt lat="40.3370202" lon="15.6524642"><ele>534.0</ele><time>2026-05-03T08:17:04.893Z</time></trkpt><trkpt lat="40.3369263" lon="15.6522955"><ele>534.0</ele><time>2026-05-03T08:17:12.892Z</time></trkpt><trkpt lat="40.3368855" lon="15.652215"><ele>534.0</ele><time>2026-05-03T08:17:14.893Z</time></trkpt><trkpt lat="40.3368918" lon="15.6521328"><ele>534.0</ele><time>2026-05-03T08:17:26.893Z</time></trkpt><trkpt lat="40.3370831" lon="15.6521711"><ele>534.0</ele><time>2026-05-03T08:17:49.893Z</time></trkpt><trkpt lat="40.3371564" lon="15.6522347"><ele>534.0</ele><time>2026-05-03T08:17:54.885Z</time></trkpt><trkpt lat="40.3370792" lon="15.6519175"><ele>534.0</ele><time>2026-05-03T08:18:07.886Z</time></trkpt><trkpt lat="40.3369422" lon="15.651908"><ele>534.0</ele><time>2026-05-03T08:18:11.886Z</time></trkpt><trkpt lat="40.3369257" lon="15.6520045"><ele>534.0</ele><time>2026-05-03T08:18:15.885Z</time></trkpt><trkpt lat="40.3369778" lon="15.6520631"><ele>534.0</ele><time>2026-05-03T08:18:25.886Z</time></trkpt><trkpt lat="40.3368736" lon="15.6520862"><ele>534.0</ele><time>2026-05-03T08:18:34.886Z</time></trkpt><trkpt lat="40.3367853" lon="15.6520432"><ele>534.0</ele><time>2026-05-03T08:20:27.887Z</time></trkpt><trkpt lat="40.3367351" lon="15.6521099"><ele>534.0</ele><time>2026-05-03T08:21:18.887Z</time></trkpt><trkpt lat="40.336788" lon="15.6522028"><ele>534.0</ele><time>2026-05-03T08:22:05.886Z</time></trkpt><trkpt lat="40.3368083" lon="15.6521044"><ele>534.0</ele><time>2026-05-03T08:23:05.887Z</time></trkpt><trkpt lat="40.3368431" lon="15.6521879"><ele>534.0</ele><time>2026-05-03T08:25:31.886Z</time></trkpt><trkpt lat="40.336717" lon="15.6522245"><ele>534.0</ele><time>2026-05-03T08:31:08.886Z</time></trkpt><trkpt lat="40.3367876" lon="15.6521816"><ele>534.0</ele><time>2026-05-03T08:31:10.886Z</time></trkpt><trkpt lat="40.3369082" lon="15.6521629"><ele>534.0</ele><time>2026-05-03T08:31:12.886Z</time></trkpt><trkpt lat="40.336978" lon="15.6521062"><ele>534.0</ele><time>2026-05-03T08:31:14.885Z</time></trkpt><trkpt lat="40.3369796" lon="15.6520169"><ele>534.0</ele><time>2026-05-03T08:31:19.886Z</time></trkpt><trkpt lat="40.3370205" lon="15.6519137"><ele>534.0</ele><time>2026-05-03T08:31:31.886Z</time></trkpt><trkpt lat="40.3369732" lon="15.6520687"><ele>534.0000000000001</ele><time>2026-05-03T08:32:20.886Z</time></trkpt><trkpt lat="40.3369136" lon="15.652126"><ele>534.0</ele><time>2026-05-03T08:32:22.886Z</time></trkpt><trkpt lat="40.3368486" lon="15.6521534"><ele>534.0</ele><time>2026-05-03T08:32:24.886Z</time></trkpt><trkpt lat="40.3368244" lon="15.6520626"><ele>534.0</ele><time>2026-05-03T08:32:49.885Z</time></trkpt><trkpt lat="40.3368967" lon="15.6520153"><ele>534.0</ele><time>2026-05-03T08:35:52.886Z</time></trkpt><trkpt lat="40.336944" lon="15.6520879"><ele>534.0000000000001</ele><time>2026-05-03T08:35:54.885Z</time></trkpt><trkpt lat="40.3369109" lon="15.6520027"><ele>534.0</ele><time>2026-05-03T08:35:55.886Z</time></trkpt><trkpt lat="40.3369493" lon="15.6519013"><ele>534.5</ele><time>2026-05-03T08:45:36.887Z</time></trkpt><trkpt lat="40.3370672" lon="15.6518347"><ele>535.0</ele><time>2026-05-03T08:45:45.887Z</time></trkpt><trkpt lat="40.3371298" lon="15.651817"><ele>535.5</ele><time>2026-05-03T08:45:47.887Z</time></trkpt><trkpt lat="40.3370732" lon="15.6517587"><ele>536.0</ele><time>2026-05-03T08:46:09.887Z</time></trkpt><trkpt lat="40.3370033" lon="15.6517297"><ele>536.5</ele><time>2026-05-03T08:46:13.887Z</time></trkpt><trkpt lat="40.3369611" lon="15.6516629"><ele>537.0</ele><time>2026-05-03T08:46:32.887Z</time></trkpt><trkpt lat="40.3370457" lon="15.6516646"><ele>537.0</ele><time>2026-05-03T08:46:46.887Z</time></trkpt><trkpt lat="40.3371227" lon="15.6517054"><ele>537.0</ele><time>2026-05-03T08:46:49.887Z</time></trkpt><trkpt lat="40.3372126" lon="15.651719"><ele>537.0</ele><time>2026-05-03T08:47:09.887Z</time></trkpt><trkpt lat="40.3372586" lon="15.6517771"><ele>537.0</ele><time>2026-05-03T08:47:12.887Z</time></trkpt><trkpt lat="40.3373122" lon="15.6518252"><ele>537.0</ele><time>2026-05-03T08:47:16.887Z</time></trkpt><trkpt lat="40.3371374" lon="15.6518289"><ele>537.0</ele><time>2026-05-03T08:47:26.887Z</time></trkpt><trkpt lat="40.3370694" lon="15.6518187"><ele>537.0</ele><time>2026-05-03T08:47:27.887Z</time></trkpt><trkpt lat="40.3369129" lon="15.6517828"><ele>537.0</ele><time>2026-05-03T08:47:29.887Z</time></trkpt><trkpt lat="40.3368488" lon="15.6517397"><ele>537.0</ele><time>2026-05-03T08:47:52.884Z</time></trkpt><trkpt lat="40.336786" lon="15.6517287"><ele>537.0</ele><time>2026-05-03T08:47:54.885Z</time></trkpt><trkpt lat="40.3367117" lon="15.6517242"><ele>537.0</ele><time>2026-05-03T08:47:56.885Z</time></trkpt><trkpt lat="40.3366452" lon="15.6517198"><ele>537.0</ele><time>2026-05-03T08:47:59.624Z</time></trkpt><trkpt lat="40.3366224" lon="15.6516421"><ele>537.0</ele><time>2026-05-03T08:48:28.884Z</time></trkpt><trkpt lat="40.3365602" lon="15.6516279"><ele>537.0</ele><time>2026-05-03T08:48:33.884Z</time></trkpt><trkpt lat="40.3364971" lon="15.6516647"><ele>537.0</ele><time>2026-05-03T08:48:38.883Z</time></trkpt><trkpt lat="40.3364331" lon="15.6516469"><ele>537.0</ele><time>2026-05-03T08:48:42.883Z</time></trkpt><trkpt lat="40.3363815" lon="15.6515983"><ele>537.0</ele><time>2026-05-03T08:48:51.069Z</time></trkpt><trkpt lat="40.3371249" lon="15.6517262"><ele>537.0</ele><time>2026-05-03T08:51:17.885Z</time></trkpt><trkpt lat="40.3370412" lon="15.6517491"><ele>537.0</ele><time>2026-05-03T08:51:22.884Z</time></trkpt><trkpt lat="40.337164" lon="15.6517765"><ele>537.0</ele><time>2026-05-03T08:51:27.885Z</time></trkpt><trkpt lat="40.3372311" lon="15.651796"><ele>537.0</ele><time>2026-05-03T08:51:40.885Z</time></trkpt><trkpt lat="40.3371608" lon="15.6517689"><ele>537.0</ele><time>2026-05-03T08:51:47.885Z</time></trkpt><trkpt lat="40.3370879" lon="15.651729"><ele>537.0</ele><time>2026-05-03T08:51:49.884Z</time></trkpt><trkpt lat="40.3371348" lon="15.6516428"><ele>537.0</ele><time>2026-05-03T08:52:21.884Z</time></trkpt><trkpt lat="40.3370176" lon="15.6515508"><ele>537.0</ele><time>2026-05-03T08:52:37.139Z</time></trkpt><trkpt lat="40.3369276" lon="15.6515118"><ele>537.0</ele><time>2026-05-03T08:52:43.618Z</time></trkpt><trkpt lat="40.3372003" lon="15.6514925"><ele>537.0</ele><time>2026-05-03T08:54:13.886Z</time></trkpt><trkpt lat="40.3372617" lon="15.6515181"><ele>537.0</ele><time>2026-05-03T08:54:17.885Z</time></trkpt><trkpt lat="40.3371853" lon="15.6515852"><ele>537.0</ele><time>2026-05-03T08:54:19.886Z</time></trkpt><trkpt lat="40.3370257" lon="15.6510823"><ele>537.0</ele><time>2026-05-03T08:55:27.886Z</time></trkpt><trkpt lat="40.3370945" lon="15.6510745"><ele>537.0</ele><time>2026-05-03T08:55:32.886Z</time></trkpt><trkpt lat="40.3370499" lon="15.6509914"><ele>537.0</ele><time>2026-05-03T08:55:55.885Z</time></trkpt><trkpt lat="40.3369707" lon="15.6509452"><ele>537.0</ele><time>2026-05-03T08:59:50.887Z</time></trkpt><trkpt lat="40.336931" lon="15.651025"><ele>537.0</ele><time>2026-05-03T09:00:24.887Z</time></trkpt><trkpt lat="40.3368925" lon="15.6510951"><ele>537.0</ele><time>2026-05-03T09:00:31.887Z</time></trkpt><trkpt lat="40.3370339" lon="15.6515916"><ele>537.0</ele><time>2026-05-03T09:01:40.885Z</time></trkpt><trkpt lat="40.3370605" lon="15.6516863"><ele>537.0</ele><time>2026-05-03T09:01:44.885Z</time></trkpt><trkpt lat="40.337068" lon="15.651785"><ele>537.0</ele><time>2026-05-03T09:01:47.885Z</time></trkpt><trkpt lat="40.3370894" lon="15.651906"><ele>537.0</ele><time>2026-05-03T09:01:57.885Z</time></trkpt><trkpt lat="40.3371211" lon="15.651806"><ele>537.0</ele><time>2026-05-03T09:02:04.884Z</time></trkpt><trkpt lat="40.3371328" lon="15.6517146"><ele>537.0</ele><time>2026-05-03T09:02:06.885Z</time></trkpt><trkpt lat="40.3370546" lon="15.6516508"><ele>537.0</ele><time>2026-05-03T09:02:14.885Z</time></trkpt><trkpt lat="40.3369919" lon="15.6516199"><ele>537.0</ele><time>2026-05-03T09:02:19.885Z</time></trkpt><trkpt lat="40.3370884" lon="15.6520011"><ele>537.0</ele><time>2026-05-03T09:03:55.886Z</time></trkpt><trkpt lat="40.3370865" lon="15.6517758"><ele>536.9999999999999</ele><time>2026-05-03T09:03:56.885Z</time></trkpt><trkpt lat="40.3370847" lon="15.6516751"><ele>537.0</ele><time>2026-05-03T09:03:57.886Z</time></trkpt><trkpt lat="40.3370713" lon="15.6515834"><ele>537.0</ele><time>2026-05-03T09:03:58.886Z</time></trkpt><trkpt lat="40.3370849" lon="15.6516804"><ele>537.0</ele><time>2026-05-03T09:04:03.885Z</time></trkpt><trkpt lat="40.3371389" lon="15.6515796"><ele>537.0</ele><time>2026-05-03T09:04:13.885Z</time></trkpt><trkpt lat="40.3371696" lon="15.6515054"><ele>536.9999999999999</ele><time>2026-05-03T09:04:17.886Z</time></trkpt><trkpt lat="40.3371948" lon="15.6515847"><ele>537.0</ele><time>2026-05-03T09:04:37.886Z</time></trkpt><trkpt lat="40.337217" lon="15.6517264"><ele>537.0</ele><time>2026-05-03T09:06:28.886Z</time></trkpt><trkpt lat="40.3372276" lon="15.6518476"><ele>537.0</ele><time>2026-05-03T09:08:52.887Z</time></trkpt><trkpt lat="40.3371865" lon="15.6517561"><ele>537.0</ele><time>2026-05-03T09:11:24.887Z</time></trkpt><trkpt lat="40.3372497" lon="15.6517183"><ele>537.0</ele><time>2026-05-03T09:13:56.888Z</time></trkpt><trkpt lat="40.3372555" lon="15.6515949"><ele>537.0</ele><time>2026-05-03T09:14:08.888Z</time></trkpt><trkpt lat="40.3372964" lon="15.6515254"><ele>537.0</ele><time>2026-05-03T09:17:41.888Z</time></trkpt><trkpt lat="40.3373267" lon="15.6516235"><ele>536.8571428571428</ele><time>2026-05-03T09:19:35.888Z</time></trkpt><trkpt lat="40.3373688" lon="15.6515577"><ele>536.7142857142857</ele><time>2026-05-03T09:21:46.889Z</time></trkpt><trkpt lat="40.337325" lon="15.6516353"><ele>536.5714285714286</ele><time>2026-05-03T09:22:58.889Z</time></trkpt><trkpt lat="40.3373456" lon="15.6517145"><ele>536.4285714285713</ele><time>2026-05-03T09:23:02.889Z</time></trkpt><trkpt lat="40.337365" lon="15.6518066"><ele>536.2857142857142</ele><time>2026-05-03T09:23:05.888Z</time></trkpt><trkpt lat="40.3373424" lon="15.6518966"><ele>536.1428571428571</ele><time>2026-05-03T09:23:09.889Z</time></trkpt><trkpt lat="40.3372739" lon="15.6519803"><ele>536.0</ele><time>2026-05-03T09:23:13.889Z</time></trkpt><trkpt lat="40.3372135" lon="15.6520082"><ele>537.0</ele><time>2026-05-03T09:23:17.888Z</time></trkpt><trkpt lat="40.3367319" lon="15.6515576"><ele>537.0</ele><time>2026-05-03T09:23:59.702Z</time></trkpt><trkpt lat="40.3366856" lon="15.6514189"><ele>537.0</ele><time>2026-05-03T09:24:06.117Z</time></trkpt><trkpt lat="40.3367361" lon="15.6516554"><ele>537.0</ele><time>2026-05-03T09:24:11.887Z</time></trkpt><trkpt lat="40.3366814" lon="15.6517094"><ele>537.0</ele><time>2026-05-03T09:24:26.886Z</time></trkpt><trkpt lat="40.3365948" lon="15.651772"><ele>536.9999999999999</ele><time>2026-05-03T09:24:27.887Z</time></trkpt><trkpt lat="40.3365169" lon="15.6518126"><ele>537.0</ele><time>2026-05-03T09:24:29.887Z</time></trkpt><trkpt lat="40.3364478" lon="15.6518534"><ele>537.0</ele><time>2026-05-03T09:24:36.859Z</time></trkpt><trkpt lat="40.3363782" lon="15.6518396"><ele>537.0</ele><time>2026-05-03T09:24:43.885Z</time></trkpt><trkpt lat="40.336329" lon="15.6517692"><ele>537.0</ele><time>2026-05-03T09:25:43.885Z</time></trkpt><trkpt lat="40.3362669" lon="15.6517301"><ele>536.9999999999999</ele><time>2026-05-03T09:26:36.885Z</time></trkpt><trkpt lat="40.3362047" lon="15.6517577"><ele>537.0</ele><time>2026-05-03T09:26:40.885Z</time></trkpt><trkpt lat="40.3362118" lon="15.6516597"><ele>535.8333333333334</ele><time>2026-05-03T09:29:58.886Z</time></trkpt><trkpt lat="40.3361452" lon="15.6517378"><ele>534.6666666666666</ele><time>2026-05-03T09:30:14.886Z</time></trkpt><trkpt lat="40.3360795" lon="15.6517282"><ele>533.5</ele><time>2026-05-03T09:30:18.886Z</time></trkpt><trkpt lat="40.3359972" lon="15.6517243"><ele>532.3333333333333</ele><time>2026-05-03T09:30:21.886Z</time></trkpt><trkpt lat="40.3360654" lon="15.6517062"><ele>531.1666666666666</ele><time>2026-05-03T09:30:50.886Z</time></trkpt><trkpt lat="40.3360128" lon="15.6518474"><ele>530.0</ele><time>2026-05-03T09:33:08.885Z</time></trkpt><trkpt lat="40.335926" lon="15.6519206"><ele>530.5</ele><time>2026-05-03T09:33:19.886Z</time></trkpt><trkpt lat="40.3358638" lon="15.6519708"><ele>531.0</ele><time>2026-05-03T09:33:27.886Z</time></trkpt><trkpt lat="40.3356905" lon="15.6520622"><ele>531.5</ele><time>2026-05-03T09:33:56.886Z</time></trkpt><trkpt lat="40.3355777" lon="15.6520899"><ele>532.0</ele><time>2026-05-03T09:34:11.885Z</time></trkpt><trkpt lat="40.3355095" lon="15.6521845"><ele>532.0</ele><time>2026-05-03T09:34:25.885Z</time></trkpt><trkpt lat="40.3355328" lon="15.6523332"><ele>532.0</ele><time>2026-05-03T09:34:39.885Z</time></trkpt><trkpt lat="40.3355914" lon="15.6524623"><ele>532.0</ele><time>2026-05-03T09:34:56.886Z</time></trkpt><trkpt lat="40.3355835" lon="15.6525884"><ele>532.0</ele><time>2026-05-03T09:35:44.886Z</time></trkpt><trkpt lat="40.3355081" lon="15.6526693"><ele>532.0</ele><time>2026-05-03T09:35:51.886Z</time></trkpt><trkpt lat="40.3355717" lon="15.6527267"><ele>532.0</ele><time>2026-05-03T09:53:17.885Z</time></trkpt><trkpt lat="40.3356467" lon="15.6527417"><ele>532.0</ele><time>2026-05-03T09:53:22.886Z</time></trkpt><trkpt lat="40.3357133" lon="15.6527967"><ele>532.0</ele><time>2026-05-03T09:53:26.886Z</time></trkpt><trkpt lat="40.335755" lon="15.6528617"><ele>532.0</ele><time>2026-05-03T09:53:28.886Z</time></trkpt><trkpt lat="40.335795" lon="15.65295"><ele>532.0</ele><time>2026-05-03T09:53:31.886Z</time></trkpt><trkpt lat="40.3358767" lon="15.6530617"><ele>532.0</ele><time>2026-05-03T09:56:26.886Z</time></trkpt><trkpt lat="40.3359417" lon="15.6531117"><ele>533.0</ele><time>2026-05-03T09:56:29.886Z</time></trkpt><trkpt lat="40.336035" lon="15.65319"><ele>534.0</ele><time>2026-05-03T09:57:05.885Z</time></trkpt><trkpt lat="40.3360967" lon="15.653235"><ele>535.0</ele><time>2026-05-03T09:57:06.885Z</time></trkpt><trkpt lat="40.3361583" lon="15.6533"><ele>536.0</ele><time>2026-05-03T09:57:07.886Z</time></trkpt><trkpt lat="40.3362233" lon="15.6533633"><ele>537.0</ele><time>2026-05-03T09:57:08.885Z</time></trkpt><trkpt lat="40.3362867" lon="15.6534233"><ele>538.0</ele><time>2026-05-03T09:57:09.886Z</time></trkpt><trkpt lat="40.33635" lon="15.6534833"><ele>538.3333333333334</ele><time>2026-05-03T09:57:10.886Z</time></trkpt><trkpt lat="40.33642" lon="15.65354"><ele>538.6666666666667</ele><time>2026-05-03T09:57:11.885Z</time></trkpt><trkpt lat="40.33649" lon="15.6536017"><ele>539.0</ele><time>2026-05-03T09:57:12.886Z</time></trkpt><trkpt lat="40.33656" lon="15.6536617"><ele>539.3333333333334</ele><time>2026-05-03T09:57:13.886Z</time></trkpt><trkpt lat="40.3366317" lon="15.6537283"><ele>539.6666666666666</ele><time>2026-05-03T09:57:14.886Z</time></trkpt><trkpt lat="40.33671" lon="15.6537933"><ele>540.0</ele><time>2026-05-03T09:57:15.886Z</time></trkpt><trkpt lat="40.33679" lon="15.6538617"><ele>540.0</ele><time>2026-05-03T09:57:16.886Z</time></trkpt><trkpt lat="40.336875" lon="15.653925"><ele>540.0</ele><time>2026-05-03T09:57:17.886Z</time></trkpt><trkpt lat="40.3369583" lon="15.6539933"><ele>540.0</ele><time>2026-05-03T09:57:18.886Z</time></trkpt><trkpt lat="40.337055" lon="15.6540533"><ele>540.0</ele><time>2026-05-03T09:57:19.885Z</time></trkpt><trkpt lat="40.3371517" lon="15.654115"><ele>540.0</ele><time>2026-05-03T09:57:20.886Z</time></trkpt><trkpt lat="40.337245" lon="15.65418"><ele>540.4</ele><time>2026-05-03T09:57:21.885Z</time></trkpt><trkpt lat="40.3373333" lon="15.65424"><ele>540.8</ele><time>2026-05-03T09:57:22.886Z</time></trkpt><trkpt lat="40.3374117" lon="15.6543"><ele>541.2</ele><time>2026-05-03T09:57:23.885Z</time></trkpt><trkpt lat="40.337485" lon="15.6543567"><ele>541.6</ele><time>2026-05-03T09:57:24.885Z</time></trkpt><trkpt lat="40.33754" lon="15.6544117"><ele>542.0</ele><time>2026-05-03T09:57:25.885Z</time></trkpt><trkpt lat="40.3376467" lon="15.654505"><ele>542.8333333333333</ele><time>2026-05-03T09:57:27.886Z</time></trkpt><trkpt lat="40.3377133" lon="15.6545483"><ele>543.6666666666666</ele><time>2026-05-03T09:57:28.886Z</time></trkpt><trkpt lat="40.3377783" lon="15.6545983"><ele>544.5</ele><time>2026-05-03T09:57:29.885Z</time></trkpt><trkpt lat="40.33784" lon="15.6546517"><ele>545.3333333333334</ele><time>2026-05-03T09:57:30.886Z</time></trkpt><trkpt lat="40.33792" lon="15.6547283"><ele>546.1666666666667</ele><time>2026-05-03T09:57:32.886Z</time></trkpt><trkpt lat="40.3379617" lon="15.6547917"><ele>547.0</ele><time>2026-05-03T09:57:34.886Z</time></trkpt><trkpt lat="40.33803" lon="15.6548217"><ele>547.0</ele><time>2026-05-03T09:57:52.886Z</time></trkpt><trkpt lat="40.3380767" lon="15.6547617"><ele>547.0</ele><time>2026-05-03T09:57:54.886Z</time></trkpt><trkpt lat="40.3381433" lon="15.6546267"><ele>547.0</ele><time>2026-05-03T09:57:56.886Z</time></trkpt><trkpt lat="40.338185" lon="15.654555"><ele>547.0</ele><time>2026-05-03T09:57:57.885Z</time></trkpt><trkpt lat="40.3382433" lon="15.6544567"><ele>547.0</ele><time>2026-05-03T09:57:58.886Z</time></trkpt><trkpt lat="40.3383333" lon="15.6543383"><ele>547.0</ele><time>2026-05-03T09:57:59.886Z</time></trkpt><trkpt lat="40.3384583" lon="15.6541917"><ele>547.0</ele><time>2026-05-03T09:58:00.885Z</time></trkpt><trkpt lat="40.3386283" lon="15.6540083"><ele>547.0</ele><time>2026-05-03T09:58:01.886Z</time></trkpt><trkpt lat="40.3388217" lon="15.6538317"><ele>548.25</ele><time>2026-05-03T09:58:02.886Z</time></trkpt><trkpt lat="40.3389883" lon="15.6537017"><ele>549.5</ele><time>2026-05-03T09:58:03.886Z</time></trkpt><trkpt lat="40.3391083" lon="15.65361"><ele>550.75</ele><time>2026-05-03T09:58:04.886Z</time></trkpt><trkpt lat="40.3392017" lon="15.6535183"><ele>552.0</ele><time>2026-05-03T09:58:05.886Z</time></trkpt><trkpt lat="40.3392633" lon="15.6534567"><ele>550.3333333333334</ele><time>2026-05-03T09:58:06.885Z</time></trkpt><trkpt lat="40.3393133" lon="15.6533983"><ele>548.6666666666666</ele><time>2026-05-03T09:58:07.885Z</time></trkpt><trkpt lat="40.339365" lon="15.6533367"><ele>547.0</ele><time>2026-05-03T09:58:08.886Z</time></trkpt><trkpt lat="40.3394233" lon="15.6532667"><ele>545.3333333333333</ele><time>2026-05-03T09:58:09.886Z</time></trkpt><trkpt lat="40.339475" lon="15.6532083"><ele>543.6666666666666</ele><time>2026-05-03T09:58:10.886Z</time></trkpt><trkpt lat="40.3395783" lon="15.6531017"><ele>542.0</ele><time>2026-05-03T09:58:12.886Z</time></trkpt><trkpt lat="40.339635" lon="15.65305"><ele>542.0</ele><time>2026-05-03T09:58:13.886Z</time></trkpt><trkpt lat="40.3397017" lon="15.652985"><ele>542.0</ele><time>2026-05-03T09:58:14.886Z</time></trkpt><trkpt lat="40.3397667" lon="15.6529067"><ele>542.0</ele><time>2026-05-03T09:58:15.886Z</time></trkpt><trkpt lat="40.3398283" lon="15.6528367"><ele>542.0</ele><time>2026-05-03T09:58:16.885Z</time></trkpt><trkpt lat="40.3398967" lon="15.6527733"><ele>542.0</ele><time>2026-05-03T09:58:17.885Z</time></trkpt><trkpt lat="40.33996" lon="15.6527"><ele>542.0</ele><time>2026-05-03T09:58:18.885Z</time></trkpt><trkpt lat="40.3400517" lon="15.6526333"><ele>540.8000000000001</ele><time>2026-05-03T09:58:19.886Z</time></trkpt><trkpt lat="40.3401367" lon="15.65255"><ele>539.6</ele><time>2026-05-03T09:58:20.885Z</time></trkpt><trkpt lat="40.3402117" lon="15.6524617"><ele>538.4000000000001</ele><time>2026-05-03T09:58:21.886Z</time></trkpt><trkpt lat="40.3402817" lon="15.65236"><ele>537.2</ele><time>2026-05-03T09:58:22.886Z</time></trkpt><trkpt lat="40.34036" lon="15.65224"><ele>536.0</ele><time>2026-05-03T09:58:23.886Z</time></trkpt><trkpt lat="40.3404183" lon="15.6520933"><ele>534.5</ele><time>2026-05-03T09:58:24.886Z</time></trkpt><trkpt lat="40.3404533" lon="15.6519267"><ele>533.0</ele><time>2026-05-03T09:58:25.886Z</time></trkpt><trkpt lat="40.34048" lon="15.651765"><ele>531.5</ele><time>2026-05-03T09:58:26.886Z</time></trkpt><trkpt lat="40.3404917" lon="15.6516067"><ele>530.0</ele><time>2026-05-03T09:58:27.886Z</time></trkpt><trkpt lat="40.3404883" lon="15.6514483"><ele>530.0</ele><time>2026-05-03T09:58:28.886Z</time></trkpt><trkpt lat="40.3404683" lon="15.6512883"><ele>530.0</ele><time>2026-05-03T09:58:29.886Z</time></trkpt><trkpt lat="40.34043" lon="15.6511267"><ele>530.0</ele><time>2026-05-03T09:58:30.886Z</time></trkpt><trkpt lat="40.3403633" lon="15.65096"><ele>530.0</ele><time>2026-05-03T09:58:31.886Z</time></trkpt><trkpt lat="40.3402917" lon="15.6508083"><ele>529.0</ele><time>2026-05-03T09:58:32.886Z</time></trkpt><trkpt lat="40.340225" lon="15.6506583"><ele>528.0</ele><time>2026-05-03T09:58:33.886Z</time></trkpt><trkpt lat="40.3401683" lon="15.6505183"><ele>527.0</ele><time>2026-05-03T09:58:34.885Z</time></trkpt><trkpt lat="40.3401117" lon="15.6503917"><ele>526.0</ele><time>2026-05-03T09:58:35.885Z</time></trkpt><trkpt lat="40.3400533" lon="15.650265"><ele>524.8</ele><time>2026-05-03T09:58:36.885Z</time></trkpt><trkpt lat="40.3399967" lon="15.6501417"><ele>523.6</ele><time>2026-05-03T09:58:37.886Z</time></trkpt><trkpt lat="40.339945" lon="15.6500233"><ele>522.4</ele><time>2026-05-03T09:58:38.886Z</time></trkpt><trkpt lat="40.3398983" lon="15.6499067"><ele>521.2</ele><time>2026-05-03T09:58:39.886Z</time></trkpt><trkpt lat="40.3398517" lon="15.64979"><ele>520.0</ele><time>2026-05-03T09:58:40.886Z</time></trkpt><trkpt lat="40.3398067" lon="15.6496617"><ele>520.0</ele><time>2026-05-03T09:58:41.886Z</time></trkpt><trkpt lat="40.3397567" lon="15.6495333"><ele>520.0</ele><time>2026-05-03T09:58:42.886Z</time></trkpt><trkpt lat="40.339695" lon="15.6494033"><ele>520.0</ele><time>2026-05-03T09:58:43.886Z</time></trkpt><trkpt lat="40.3396317" lon="15.64927"><ele>520.0</ele><time>2026-05-03T09:58:44.886Z</time></trkpt><trkpt lat="40.339575" lon="15.649135"><ele>519.75</ele><time>2026-05-03T09:58:45.886Z</time></trkpt><trkpt lat="40.3395167" lon="15.649"><ele>519.5</ele><time>2026-05-03T09:58:46.886Z</time></trkpt><trkpt lat="40.339455" lon="15.6488633"><ele>519.25</ele><time>2026-05-03T09:58:47.886Z</time></trkpt><trkpt lat="40.3393967" lon="15.6487267"><ele>519.0</ele><time>2026-05-03T09:58:48.886Z</time></trkpt><trkpt lat="40.3393367" lon="15.64859"><ele>518.5</ele><time>2026-05-03T09:58:49.885Z</time></trkpt><trkpt lat="40.3392783" lon="15.6484467"><ele>518.0</ele><time>2026-05-03T09:58:50.886Z</time></trkpt><trkpt lat="40.3392133" lon="15.6483067"><ele>517.5</ele><time>2026-05-03T09:58:51.886Z</time></trkpt><trkpt lat="40.3391517" lon="15.6481583"><ele>517.0</ele><time>2026-05-03T09:58:52.886Z</time></trkpt><trkpt lat="40.339085" lon="15.64801"><ele>517.0</ele><time>2026-05-03T09:58:53.885Z</time></trkpt><trkpt lat="40.3390217" lon="15.6478683"><ele>517.0</ele><time>2026-05-03T09:58:54.885Z</time></trkpt><trkpt lat="40.3389717" lon="15.647725"><ele>517.0</ele><time>2026-05-03T09:58:55.886Z</time></trkpt><trkpt lat="40.33891" lon="15.6475867"><ele>517.0</ele><time>2026-05-03T09:58:56.886Z</time></trkpt><trkpt lat="40.3388433" lon="15.6474433"><ele>516.5</ele><time>2026-05-03T09:58:57.886Z</time></trkpt><trkpt lat="40.33878" lon="15.6472883"><ele>516.0</ele><time>2026-05-03T09:58:58.886Z</time></trkpt><trkpt lat="40.3387233" lon="15.6471467"><ele>515.5</ele><time>2026-05-03T09:58:59.886Z</time></trkpt><trkpt lat="40.3386683" lon="15.647015"><ele>515.0</ele><time>2026-05-03T09:59:00.885Z</time></trkpt><trkpt lat="40.3386167" lon="15.6468817"><ele>514.0</ele><time>2026-05-03T09:59:01.886Z</time></trkpt><trkpt lat="40.338555" lon="15.6467417"><ele>513.0</ele><time>2026-05-03T09:59:02.886Z</time></trkpt><trkpt lat="40.3385" lon="15.6466067"><ele>512.0</ele><time>2026-05-03T09:59:03.885Z</time></trkpt><trkpt lat="40.33844" lon="15.6464717"><ele>511.0</ele><time>2026-05-03T09:59:04.885Z</time></trkpt><trkpt lat="40.3383883" lon="15.6463333"><ele>511.0</ele><time>2026-05-03T09:59:05.886Z</time></trkpt><trkpt lat="40.3383283" lon="15.6461917"><ele>511.0</ele><time>2026-05-03T09:59:06.886Z</time></trkpt><trkpt lat="40.3382717" lon="15.6460567"><ele>511.0</ele><time>2026-05-03T09:59:07.886Z</time></trkpt><trkpt lat="40.33822" lon="15.6459267"><ele>511.0</ele><time>2026-05-03T09:59:08.886Z</time></trkpt><trkpt lat="40.3381717" lon="15.6458"><ele>510.6</ele><time>2026-05-03T09:59:09.885Z</time></trkpt><trkpt lat="40.33812" lon="15.6456667"><ele>510.20000000000005</ele><time>2026-05-03T09:59:10.886Z</time></trkpt><trkpt lat="40.3380717" lon="15.6455217"><ele>509.79999999999995</ele><time>2026-05-03T09:59:11.885Z</time></trkpt><trkpt lat="40.3380283" lon="15.6453983"><ele>509.4</ele><time>2026-05-03T09:59:12.886Z</time></trkpt><trkpt lat="40.3380067" lon="15.6453117"><ele>509.0</ele><time>2026-05-03T09:59:13.885Z</time></trkpt><trkpt lat="40.3379767" lon="15.6452183"><ele>508.6</ele><time>2026-05-03T09:59:15.886Z</time></trkpt><trkpt lat="40.3379483" lon="15.64509"><ele>508.2</ele><time>2026-05-03T09:59:17.886Z</time></trkpt><trkpt lat="40.3379283" lon="15.6449817"><ele>507.80000000000007</ele><time>2026-05-03T09:59:18.886Z</time></trkpt><trkpt lat="40.3379067" lon="15.6448417"><ele>507.40000000000003</ele><time>2026-05-03T09:59:19.886Z</time></trkpt><trkpt lat="40.337875" lon="15.6446783"><ele>507.0</ele><time>2026-05-03T09:59:20.886Z</time></trkpt><trkpt lat="40.3378483" lon="15.64449"><ele>506.33333333333337</ele><time>2026-05-03T09:59:21.886Z</time></trkpt><trkpt lat="40.337815" lon="15.6442867"><ele>505.6666666666667</ele><time>2026-05-03T09:59:22.886Z</time></trkpt><trkpt lat="40.337785" lon="15.6440883"><ele>505.0</ele><time>2026-05-03T09:59:23.886Z</time></trkpt><trkpt lat="40.3377567" lon="15.6438883"><ele>505.0</ele><time>2026-05-03T09:59:24.886Z</time></trkpt><trkpt lat="40.33773" lon="15.6436867"><ele>505.0</ele><time>2026-05-03T09:59:25.886Z</time></trkpt><trkpt lat="40.3376967" lon="15.64349"><ele>505.0</ele><time>2026-05-03T09:59:26.886Z</time></trkpt><trkpt lat="40.3376583" lon="15.64329"><ele>504.0</ele><time>2026-05-03T09:59:27.886Z</time></trkpt><trkpt lat="40.3376217" lon="15.6430967"><ele>503.0</ele><time>2026-05-03T09:59:28.886Z</time></trkpt><trkpt lat="40.33758" lon="15.6429117"><ele>502.0</ele><time>2026-05-03T09:59:29.885Z</time></trkpt><trkpt lat="40.33754" lon="15.642735"><ele>501.0</ele><time>2026-05-03T09:59:30.886Z</time></trkpt><trkpt lat="40.3375033" lon="15.6425567"><ele>500.75</ele><time>2026-05-03T09:59:31.886Z</time></trkpt><trkpt lat="40.3374633" lon="15.64239"><ele>500.5</ele><time>2026-05-03T09:59:32.886Z</time></trkpt><trkpt lat="40.3374283" lon="15.6422167"><ele>500.25</ele><time>2026-05-03T09:59:33.886Z</time></trkpt><trkpt lat="40.3373933" lon="15.642045"><ele>500.0</ele><time>2026-05-03T09:59:34.886Z</time></trkpt><trkpt lat="40.3373667" lon="15.6418883"><ele>499.5</ele><time>2026-05-03T09:59:35.885Z</time></trkpt><trkpt lat="40.3373483" lon="15.641735"><ele>499.0</ele><time>2026-05-03T09:59:36.886Z</time></trkpt><trkpt lat="40.3373233" lon="15.641585"><ele>498.5</ele><time>2026-05-03T09:59:37.886Z</time></trkpt><trkpt lat="40.3373067" lon="15.6414317"><ele>498.0</ele><time>2026-05-03T09:59:38.885Z</time></trkpt><trkpt lat="40.3373033" lon="15.6412683"><ele>497.25</ele><time>2026-05-03T09:59:39.886Z</time></trkpt><trkpt lat="40.3373167" lon="15.6410933"><ele>496.5</ele><time>2026-05-03T09:59:40.886Z</time></trkpt><trkpt lat="40.3373383" lon="15.64091"><ele>495.75</ele><time>2026-05-03T09:59:41.886Z</time></trkpt><trkpt lat="40.3373717" lon="15.640735"><ele>495.0</ele><time>2026-05-03T09:59:42.886Z</time></trkpt><trkpt lat="40.3374167" lon="15.6405667"><ele>495.0</ele><time>2026-05-03T09:59:43.886Z</time></trkpt><trkpt lat="40.3374633" lon="15.64041"><ele>495.0</ele><time>2026-05-03T09:59:44.885Z</time></trkpt><trkpt lat="40.3375133" lon="15.6402617"><ele>495.0</ele><time>2026-05-03T09:59:45.886Z</time></trkpt><trkpt lat="40.337565" lon="15.6401067"><ele>495.0</ele><time>2026-05-03T09:59:46.886Z</time></trkpt><trkpt lat="40.3376183" lon="15.6399483"><ele>495.25</ele><time>2026-05-03T09:59:47.886Z</time></trkpt><trkpt lat="40.33767" lon="15.6397867"><ele>495.5</ele><time>2026-05-03T09:59:48.886Z</time></trkpt><trkpt lat="40.3377217" lon="15.63963"><ele>495.75</ele><time>2026-05-03T09:59:49.885Z</time></trkpt><trkpt lat="40.3377867" lon="15.639475"><ele>496.0</ele><time>2026-05-03T09:59:50.886Z</time></trkpt><trkpt lat="40.337835" lon="15.63932"><ele>496.0</ele><time>2026-05-03T09:59:51.886Z</time></trkpt><trkpt lat="40.3378817" lon="15.63916"><ele>496.0</ele><time>2026-05-03T09:59:52.886Z</time></trkpt><trkpt lat="40.337925" lon="15.6390033"><ele>496.0</ele><time>2026-05-03T09:59:53.886Z</time></trkpt><trkpt lat="40.33797" lon="15.6388417"><ele>496.0</ele><time>2026-05-03T09:59:54.886Z</time></trkpt><trkpt lat="40.33802" lon="15.6386833"><ele>495.0</ele><time>2026-05-03T09:59:55.885Z</time></trkpt><trkpt lat="40.33806" lon="15.6385167"><ele>494.0</ele><time>2026-05-03T09:59:56.886Z</time></trkpt><trkpt lat="40.3380983" lon="15.638345"><ele>493.0</ele><time>2026-05-03T09:59:57.886Z</time></trkpt><trkpt lat="40.3381383" lon="15.6381767"><ele>492.0</ele><time>2026-05-03T09:59:58.886Z</time></trkpt><trkpt lat="40.3381717" lon="15.6380133"><ele>492.0</ele><time>2026-05-03T09:59:59.886Z</time></trkpt><trkpt lat="40.33821" lon="15.637855"><ele>492.0</ele><time>2026-05-03T10:00:00.886Z</time></trkpt><trkpt lat="40.338245" lon="15.6376933"><ele>492.0</ele><time>2026-05-03T10:00:01.885Z</time></trkpt><trkpt lat="40.3382667" lon="15.6375317"><ele>492.0</ele><time>2026-05-03T10:00:02.886Z</time></trkpt><trkpt lat="40.3382933" lon="15.6373683"><ele>492.0</ele><time>2026-05-03T10:00:03.886Z</time></trkpt><trkpt lat="40.33832" lon="15.6372"><ele>492.0</ele><time>2026-05-03T10:00:04.886Z</time></trkpt><trkpt lat="40.3383383" lon="15.637035"><ele>492.0</ele><time>2026-05-03T10:00:05.885Z</time></trkpt><trkpt lat="40.3383533" lon="15.6368717"><ele>492.0</ele><time>2026-05-03T10:00:06.886Z</time></trkpt><trkpt lat="40.3383683" lon="15.6367083"><ele>491.75</ele><time>2026-05-03T10:00:07.886Z</time></trkpt><trkpt lat="40.3383817" lon="15.6365417"><ele>491.5</ele><time>2026-05-03T10:00:08.886Z</time></trkpt><trkpt lat="40.3384" lon="15.6363767"><ele>491.25</ele><time>2026-05-03T10:00:09.886Z</time></trkpt><trkpt lat="40.3384167" lon="15.63621"><ele>491.0</ele><time>2026-05-03T10:00:10.886Z</time></trkpt><trkpt lat="40.3384367" lon="15.6360333"><ele>490.25</ele><time>2026-05-03T10:00:11.886Z</time></trkpt><trkpt lat="40.33845" lon="15.6358617"><ele>489.5</ele><time>2026-05-03T10:00:12.886Z</time></trkpt><trkpt lat="40.3384683" lon="15.6356817"><ele>488.75</ele><time>2026-05-03T10:00:13.886Z</time></trkpt><trkpt lat="40.3384783" lon="15.6355083"><ele>488.0</ele><time>2026-05-03T10:00:14.886Z</time></trkpt><trkpt lat="40.3384833" lon="15.6353333"><ele>488.0</ele><time>2026-05-03T10:00:15.886Z</time></trkpt><trkpt lat="40.33847" lon="15.6351533"><ele>488.0</ele><time>2026-05-03T10:00:16.886Z</time></trkpt><trkpt lat="40.3384467" lon="15.6349717"><ele>488.0</ele><time>2026-05-03T10:00:17.885Z</time></trkpt><trkpt lat="40.3384133" lon="15.634795"><ele>488.0</ele><time>2026-05-03T10:00:18.886Z</time></trkpt><trkpt lat="40.3383767" lon="15.6346167"><ele>487.75</ele><time>2026-05-03T10:00:19.886Z</time></trkpt><trkpt lat="40.3383367" lon="15.63444"><ele>487.5</ele><time>2026-05-03T10:00:20.886Z</time></trkpt><trkpt lat="40.3383" lon="15.6342667"><ele>487.25</ele><time>2026-05-03T10:00:21.886Z</time></trkpt><trkpt lat="40.338255" lon="15.6340933"><ele>487.0</ele><time>2026-05-03T10:00:22.886Z</time></trkpt><trkpt lat="40.3382117" lon="15.6339267"><ele>487.0</ele><time>2026-05-03T10:00:23.885Z</time></trkpt><trkpt lat="40.3381733" lon="15.6337517"><ele>487.0</ele><time>2026-05-03T10:00:24.886Z</time></trkpt><trkpt lat="40.3381333" lon="15.6335833"><ele>487.0</ele><time>2026-05-03T10:00:25.886Z</time></trkpt><trkpt lat="40.3380933" lon="15.6334083"><ele>487.0</ele><time>2026-05-03T10:00:26.886Z</time></trkpt><trkpt lat="40.3380517" lon="15.63324"><ele>486.25</ele><time>2026-05-03T10:00:27.886Z</time></trkpt><trkpt lat="40.3380133" lon="15.6330767"><ele>485.5</ele><time>2026-05-03T10:00:28.886Z</time></trkpt><trkpt lat="40.33797" lon="15.6329183"><ele>484.75</ele><time>2026-05-03T10:00:29.885Z</time></trkpt><trkpt lat="40.3379333" lon="15.632755"><ele>484.0</ele><time>2026-05-03T10:00:30.885Z</time></trkpt><trkpt lat="40.3378933" lon="15.6325883"><ele>483.25</ele><time>2026-05-03T10:00:31.885Z</time></trkpt><trkpt lat="40.3378533" lon="15.6324183"><ele>482.5</ele><time>2026-05-03T10:00:32.886Z</time></trkpt><trkpt lat="40.3378083" lon="15.6322433"><ele>481.75</ele><time>2026-05-03T10:00:33.885Z</time></trkpt><trkpt lat="40.3377683" lon="15.632065"><ele>481.0</ele><time>2026-05-03T10:00:34.886Z</time></trkpt><trkpt lat="40.3377283" lon="15.6318833"><ele>481.0</ele><time>2026-05-03T10:00:35.886Z</time></trkpt><trkpt lat="40.3376917" lon="15.63171"><ele>481.0</ele><time>2026-05-03T10:00:36.886Z</time></trkpt><trkpt lat="40.33765" lon="15.6315383"><ele>481.0</ele><time>2026-05-03T10:00:37.886Z</time></trkpt><trkpt lat="40.33761" lon="15.63136"><ele>481.0</ele><time>2026-05-03T10:00:38.885Z</time></trkpt><trkpt lat="40.3375683" lon="15.631185"><ele>481.0</ele><time>2026-05-03T10:00:39.885Z</time></trkpt><trkpt lat="40.33753" lon="15.631015"><ele>481.0</ele><time>2026-05-03T10:00:40.886Z</time></trkpt><trkpt lat="40.33749" lon="15.630845"><ele>481.0</ele><time>2026-05-03T10:00:41.886Z</time></trkpt><trkpt lat="40.337455" lon="15.6306783"><ele>481.0</ele><time>2026-05-03T10:00:42.886Z</time></trkpt><trkpt lat="40.3374183" lon="15.6305217"><ele>481.0</ele><time>2026-05-03T10:00:43.885Z</time></trkpt><trkpt lat="40.3373783" lon="15.6303683"><ele>481.0</ele><time>2026-05-03T10:00:44.886Z</time></trkpt><trkpt lat="40.3373467" lon="15.630215"><ele>481.0</ele><time>2026-05-03T10:00:45.886Z</time></trkpt><trkpt lat="40.3373167" lon="15.63006"><ele>481.0</ele><time>2026-05-03T10:00:46.885Z</time></trkpt><trkpt lat="40.33728" lon="15.6299"><ele>481.0</ele><time>2026-05-03T10:00:47.886Z</time></trkpt><trkpt lat="40.3372417" lon="15.6297417"><ele>481.0</ele><time>2026-05-03T10:00:48.886Z</time></trkpt><trkpt lat="40.3372" lon="15.62959"><ele>481.0</ele><time>2026-05-03T10:00:49.886Z</time></trkpt><trkpt lat="40.33715" lon="15.6294417"><ele>481.0</ele><time>2026-05-03T10:00:50.885Z</time></trkpt><trkpt lat="40.3371017" lon="15.6293017"><ele>481.0</ele><time>2026-05-03T10:00:51.886Z</time></trkpt><trkpt lat="40.3370483" lon="15.6291583"><ele>481.0</ele><time>2026-05-03T10:00:52.885Z</time></trkpt><trkpt lat="40.3369883" lon="15.6290133"><ele>481.0</ele><time>2026-05-03T10:00:53.886Z</time></trkpt><trkpt lat="40.3369383" lon="15.62887"><ele>481.0</ele><time>2026-05-03T10:00:54.886Z</time></trkpt><trkpt lat="40.3368933" lon="15.6287417"><ele>481.00000000000006</ele><time>2026-05-03T10:00:55.886Z</time></trkpt><trkpt lat="40.3368583" lon="15.62864"><ele>481.0</ele><time>2026-05-03T10:00:56.886Z</time></trkpt><trkpt lat="40.3368183" lon="15.6285433"><ele>481.0</ele><time>2026-05-03T10:00:57.885Z</time></trkpt><trkpt lat="40.336785" lon="15.6284533"><ele>481.0</ele><time>2026-05-03T10:00:58.886Z</time></trkpt><trkpt lat="40.3367617" lon="15.6283617"><ele>481.00000000000006</ele><time>2026-05-03T10:00:59.886Z</time></trkpt><trkpt lat="40.3367283" lon="15.6282567"><ele>481.0</ele><time>2026-05-03T10:01:00.886Z</time></trkpt><trkpt lat="40.3366767" lon="15.62812"><ele>481.0</ele><time>2026-05-03T10:01:01.886Z</time></trkpt><trkpt lat="40.33661" lon="15.627945"><ele>481.0</ele><time>2026-05-03T10:01:02.886Z</time></trkpt><trkpt lat="40.3365333" lon="15.6277583"><ele>481.0</ele><time>2026-05-03T10:01:03.886Z</time></trkpt><trkpt lat="40.33647" lon="15.627585"><ele>481.0</ele><time>2026-05-03T10:01:04.885Z</time></trkpt><trkpt lat="40.3364017" lon="15.6273917"><ele>481.0</ele><time>2026-05-03T10:01:05.886Z</time></trkpt><trkpt lat="40.336325" lon="15.6271683"><ele>481.0</ele><time>2026-05-03T10:01:06.886Z</time></trkpt><trkpt lat="40.3362433" lon="15.6269067"><ele>480.0</ele><time>2026-05-03T10:01:07.886Z</time></trkpt><trkpt lat="40.336155" lon="15.6266733"><ele>479.0</ele><time>2026-05-03T10:01:08.886Z</time></trkpt><trkpt lat="40.3360833" lon="15.626475"><ele>478.0</ele><time>2026-05-03T10:01:09.885Z</time></trkpt><trkpt lat="40.33601" lon="15.6262867"><ele>477.79999999999995</ele><time>2026-05-03T10:01:10.886Z</time></trkpt><trkpt lat="40.3359383" lon="15.6261183"><ele>477.59999999999997</ele><time>2026-05-03T10:01:11.886Z</time></trkpt><trkpt lat="40.3358867" lon="15.6259833"><ele>477.40000000000003</ele><time>2026-05-03T10:01:12.885Z</time></trkpt><trkpt lat="40.3358467" lon="15.6258717"><ele>477.20000000000005</ele><time>2026-05-03T10:01:13.886Z</time></trkpt><trkpt lat="40.3358117" lon="15.6257717"><ele>477.0</ele><time>2026-05-03T10:01:14.886Z</time></trkpt><trkpt lat="40.3357717" lon="15.6256767"><ele>477.0</ele><time>2026-05-03T10:01:15.886Z</time></trkpt><trkpt lat="40.3357517" lon="15.6255883"><ele>477.0</ele><time>2026-05-03T10:01:16.885Z</time></trkpt><trkpt lat="40.33573" lon="15.6255067"><ele>477.0</ele><time>2026-05-03T10:01:17.885Z</time></trkpt><trkpt lat="40.335695" lon="15.6254067"><ele>477.0</ele><time>2026-05-03T10:01:19.886Z</time></trkpt><trkpt lat="40.3356567" lon="15.6253017"><ele>477.0</ele><time>2026-05-03T10:01:22.886Z</time></trkpt><trkpt lat="40.33564" lon="15.6252017"><ele>477.0</ele><time>2026-05-03T10:01:26.886Z</time></trkpt><trkpt lat="40.3355867" lon="15.62514"><ele>476.5</ele><time>2026-05-03T10:01:28.886Z</time></trkpt><trkpt lat="40.3355183" lon="15.62512"><ele>476.0</ele><time>2026-05-03T10:01:29.886Z</time></trkpt><trkpt lat="40.3354367" lon="15.6251133"><ele>475.5</ele><time>2026-05-03T10:01:30.885Z</time></trkpt><trkpt lat="40.3353467" lon="15.62511"><ele>475.0</ele><time>2026-05-03T10:01:31.886Z</time></trkpt><trkpt lat="40.3352517" lon="15.6251017"><ele>474.5</ele><time>2026-05-03T10:01:32.885Z</time></trkpt><trkpt lat="40.3351433" lon="15.6251"><ele>474.0</ele><time>2026-05-03T10:01:33.886Z</time></trkpt><trkpt lat="40.33503" lon="15.6250933"><ele>474.0</ele><time>2026-05-03T10:01:34.886Z</time></trkpt><trkpt lat="40.3349017" lon="15.6250833"><ele>474.0</ele><time>2026-05-03T10:01:35.885Z</time></trkpt><trkpt lat="40.3347667" lon="15.6250733"><ele>474.0</ele><time>2026-05-03T10:01:36.886Z</time></trkpt><trkpt lat="40.3346283" lon="15.6250733"><ele>474.0</ele><time>2026-05-03T10:01:37.885Z</time></trkpt><trkpt lat="40.3344917" lon="15.625055"><ele>474.5</ele><time>2026-05-03T10:01:38.886Z</time></trkpt><trkpt lat="40.3343533" lon="15.6250517"><ele>475.0</ele><time>2026-05-03T10:01:39.886Z</time></trkpt><trkpt lat="40.3342267" lon="15.6250467"><ele>475.5</ele><time>2026-05-03T10:01:40.886Z</time></trkpt><trkpt lat="40.334095" lon="15.62504"><ele>476.0</ele><time>2026-05-03T10:01:41.886Z</time></trkpt><trkpt lat="40.3339683" lon="15.625035"><ele>475.75</ele><time>2026-05-03T10:01:42.886Z</time></trkpt><trkpt lat="40.3338467" lon="15.6250367"><ele>475.5</ele><time>2026-05-03T10:01:43.886Z</time></trkpt><trkpt lat="40.33373" lon="15.625025"><ele>475.25</ele><time>2026-05-03T10:01:44.886Z</time></trkpt><trkpt lat="40.3336183" lon="15.6250117"><ele>475.0</ele><time>2026-05-03T10:01:45.886Z</time></trkpt><trkpt lat="40.3335133" lon="15.625"><ele>475.0</ele><time>2026-05-03T10:01:46.886Z</time></trkpt><trkpt lat="40.33341" lon="15.625"><ele>475.0</ele><time>2026-05-03T10:01:47.885Z</time></trkpt><trkpt lat="40.33331" lon="15.625"><ele>475.0</ele><time>2026-05-03T10:01:48.885Z</time></trkpt><trkpt lat="40.33322" lon="15.6249933"><ele>475.0</ele><time>2026-05-03T10:01:49.885Z</time></trkpt><trkpt lat="40.33313" lon="15.624975"><ele>475.0</ele><time>2026-05-03T10:01:50.886Z</time></trkpt><trkpt lat="40.3330367" lon="15.624975"><ele>475.1666666666667</ele><time>2026-05-03T10:01:51.886Z</time></trkpt><trkpt lat="40.3329583" lon="15.6249667"><ele>475.33333333333337</ele><time>2026-05-03T10:01:52.886Z</time></trkpt><trkpt lat="40.3328417" lon="15.6249467"><ele>475.5</ele><time>2026-05-03T10:01:54.886Z</time></trkpt><trkpt lat="40.33276" lon="15.6249217"><ele>475.66666666666663</ele><time>2026-05-03T10:01:56.886Z</time></trkpt><trkpt lat="40.3326633" lon="15.6249117"><ele>475.8333333333333</ele><time>2026-05-03T10:01:58.886Z</time></trkpt><trkpt lat="40.332595" lon="15.6249033"><ele>476.0</ele><time>2026-05-03T10:01:59.886Z</time></trkpt><trkpt lat="40.332525" lon="15.624895"><ele>475.99999999999994</ele><time>2026-05-03T10:02:00.886Z</time></trkpt><trkpt lat="40.3324267" lon="15.6248667"><ele>476.0</ele><time>2026-05-03T10:02:02.886Z</time></trkpt><trkpt lat="40.3324483" lon="15.62477"><ele>476.0</ele><time>2026-05-03T10:02:05.886Z</time></trkpt><trkpt lat="40.3325233" lon="15.6247517"><ele>476.0</ele><time>2026-05-03T10:02:07.886Z</time></trkpt><trkpt lat="40.3325867" lon="15.624755"><ele>475.99999999999994</ele><time>2026-05-03T10:02:10.886Z</time></trkpt><trkpt lat="40.3326617" lon="15.6248033"><ele>476.0</ele><time>2026-05-03T10:02:16.886Z</time></trkpt><trkpt lat="40.3327433" lon="15.6248233"><ele>476.0</ele><time>2026-05-03T10:02:19.886Z</time></trkpt><trkpt lat="40.33273" lon="15.6247367"><ele>476.0</ele><time>2026-05-03T10:02:23.886Z</time></trkpt><trkpt lat="40.332655" lon="15.624715"><ele>476.0</ele><time>2026-05-03T10:02:55.885Z</time></trkpt><trkpt lat="40.33255" lon="15.62476"><ele>476.0</ele><time>2026-05-03T10:02:57.886Z</time></trkpt><trkpt lat="40.332465" lon="15.6248283"><ele>476.0</ele><time>2026-05-03T10:02:59.886Z</time></trkpt><trkpt lat="40.3323733" lon="15.62489"><ele>476.0</ele><time>2026-05-03T10:03:15.885Z</time></trkpt><trkpt lat="40.3322983" lon="15.624895"><ele>476.0</ele><time>2026-05-03T10:03:16.885Z</time></trkpt><trkpt lat="40.3321867" lon="15.6248883"><ele>476.0</ele><time>2026-05-03T10:03:17.885Z</time></trkpt><trkpt lat="40.3320483" lon="15.6248783"><ele>476.0</ele><time>2026-05-03T10:03:18.885Z</time></trkpt><trkpt lat="40.331915" lon="15.6248683"><ele>475.8</ele><time>2026-05-03T10:03:19.885Z</time></trkpt><trkpt lat="40.3317933" lon="15.6248633"><ele>475.6</ele><time>2026-05-03T10:03:20.885Z</time></trkpt><trkpt lat="40.3316833" lon="15.6248667"><ele>475.4</ele><time>2026-05-03T10:03:21.885Z</time></trkpt><trkpt lat="40.3315833" lon="15.6248633"><ele>475.2</ele><time>2026-05-03T10:03:22.885Z</time></trkpt><trkpt lat="40.3314883" lon="15.6248683"><ele>475.0</ele><time>2026-05-03T10:03:23.885Z</time></trkpt><trkpt lat="40.3313917" lon="15.62488"><ele>475.0</ele><time>2026-05-03T10:03:24.884Z</time></trkpt><trkpt lat="40.33129" lon="15.6249017"><ele>475.0</ele><time>2026-05-03T10:03:25.885Z</time></trkpt><trkpt lat="40.3311783" lon="15.62492"><ele>475.0</ele><time>2026-05-03T10:03:26.885Z</time></trkpt><trkpt lat="40.3310633" lon="15.6249383"><ele>475.0</ele><time>2026-05-03T10:03:27.885Z</time></trkpt><trkpt lat="40.3309483" lon="15.6249517"><ele>475.0</ele><time>2026-05-03T10:03:28.885Z</time></trkpt><trkpt lat="40.33083" lon="15.624975"><ele>475.0</ele><time>2026-05-03T10:03:29.885Z</time></trkpt><trkpt lat="40.3307233" lon="15.6250017"><ele>475.0</ele><time>2026-05-03T10:03:30.885Z</time></trkpt><trkpt lat="40.3306133" lon="15.625035"><ele>475.0</ele><time>2026-05-03T10:03:31.884Z</time></trkpt><trkpt lat="40.33049" lon="15.625065"><ele>475.0</ele><time>2026-05-03T10:03:32.885Z</time></trkpt><trkpt lat="40.3303683" lon="15.6251067"><ele>475.0</ele><time>2026-05-03T10:03:33.883Z</time></trkpt><trkpt lat="40.33024" lon="15.6251533"><ele>475.0</ele><time>2026-05-03T10:03:34.885Z</time></trkpt><trkpt lat="40.3301083" lon="15.625215"><ele>475.0</ele><time>2026-05-03T10:03:35.885Z</time></trkpt><trkpt lat="40.3299833" lon="15.6252783"><ele>475.0</ele><time>2026-05-03T10:03:36.885Z</time></trkpt><trkpt lat="40.3298517" lon="15.6253433"><ele>475.0</ele><time>2026-05-03T10:03:37.884Z</time></trkpt><trkpt lat="40.3297383" lon="15.6254033"><ele>475.0</ele><time>2026-05-03T10:03:38.884Z</time></trkpt><trkpt lat="40.3296317" lon="15.625465"><ele>475.0</ele><time>2026-05-03T10:03:39.884Z</time></trkpt><trkpt lat="40.32953" lon="15.6255217"><ele>475.0</ele><time>2026-05-03T10:03:40.885Z</time></trkpt><trkpt lat="40.3294483" lon="15.6255767"><ele>475.0</ele><time>2026-05-03T10:03:41.885Z</time></trkpt><trkpt lat="40.32939" lon="15.625635"><ele>474.8</ele><time>2026-05-03T10:03:42.885Z</time></trkpt><trkpt lat="40.3293217" lon="15.625755"><ele>474.6</ele><time>2026-05-03T10:03:44.885Z</time></trkpt><trkpt lat="40.32931" lon="15.6258883"><ele>474.4</ele><time>2026-05-03T10:03:46.885Z</time></trkpt><trkpt lat="40.32921" lon="15.6259283"><ele>474.2</ele><time>2026-05-03T10:07:24.884Z</time></trkpt><trkpt lat="40.329235" lon="15.62584"><ele>474.0</ele><time>2026-05-03T10:07:27.885Z</time></trkpt><trkpt lat="40.329315" lon="15.6257317"><ele>474.0</ele><time>2026-05-03T10:07:29.885Z</time></trkpt><trkpt lat="40.3293733" lon="15.6256717"><ele>474.0</ele><time>2026-05-03T10:07:30.885Z</time></trkpt><trkpt lat="40.32946" lon="15.625605"><ele>474.0</ele><time>2026-05-03T10:07:31.885Z</time></trkpt><trkpt lat="40.329575" lon="15.6255283"><ele>474.0</ele><time>2026-05-03T10:07:32.885Z</time></trkpt><trkpt lat="40.3297283" lon="15.6254517"><ele>474.33333333333337</ele><time>2026-05-03T10:07:33.885Z</time></trkpt><trkpt lat="40.3299033" lon="15.625375"><ele>474.6666666666667</ele><time>2026-05-03T10:07:34.884Z</time></trkpt><trkpt lat="40.330075" lon="15.625285"><ele>475.0</ele><time>2026-05-03T10:07:35.884Z</time></trkpt><trkpt lat="40.3302517" lon="15.62521"><ele>475.0</ele><time>2026-05-03T10:07:36.884Z</time></trkpt><trkpt lat="40.33044" lon="15.625145"><ele>475.0</ele><time>2026-05-03T10:07:37.885Z</time></trkpt><trkpt lat="40.3306483" lon="15.6250833"><ele>475.0</ele><time>2026-05-03T10:07:38.885Z</time></trkpt><trkpt lat="40.33086" lon="15.62504"><ele>475.0</ele><time>2026-05-03T10:07:39.884Z</time></trkpt><trkpt lat="40.3310583" lon="15.6249883"><ele>475.0</ele><time>2026-05-03T10:07:40.885Z</time></trkpt><trkpt lat="40.3312433" lon="15.6249583"><ele>475.0</ele><time>2026-05-03T10:07:41.885Z</time></trkpt><trkpt lat="40.33142" lon="15.6249283"><ele>475.0</ele><time>2026-05-03T10:07:42.885Z</time></trkpt><trkpt lat="40.3316" lon="15.6249117"><ele>475.0</ele><time>2026-05-03T10:07:43.885Z</time></trkpt><trkpt lat="40.33178" lon="15.6249017"><ele>475.0</ele><time>2026-05-03T10:07:44.885Z</time></trkpt><trkpt lat="40.3319417" lon="15.624905"><ele>475.0</ele><time>2026-05-03T10:07:45.885Z</time></trkpt><trkpt lat="40.3320867" lon="15.62491"><ele>475.0</ele><time>2026-05-03T10:07:46.885Z</time></trkpt><trkpt lat="40.33221" lon="15.6249167"><ele>475.0</ele><time>2026-05-03T10:07:47.885Z</time></trkpt><trkpt lat="40.3323033" lon="15.62492"><ele>475.0</ele><time>2026-05-03T10:07:48.885Z</time></trkpt><trkpt lat="40.33238" lon="15.624905"><ele>475.0</ele><time>2026-05-03T10:07:49.884Z</time></trkpt><trkpt lat="40.332445" lon="15.6248733"><ele>475.1666666666667</ele><time>2026-05-03T10:07:50.885Z</time></trkpt><trkpt lat="40.3325017" lon="15.6248317"><ele>475.33333333333337</ele><time>2026-05-03T10:07:51.885Z</time></trkpt><trkpt lat="40.3325967" lon="15.624795"><ele>475.5</ele><time>2026-05-03T10:07:53.884Z</time></trkpt><trkpt lat="40.3326783" lon="15.6247867"><ele>475.66666666666663</ele><time>2026-05-03T10:07:55.885Z</time></trkpt><trkpt lat="40.332615" lon="15.6247283"><ele>475.8333333333333</ele><time>2026-05-03T10:08:13.884Z</time></trkpt><trkpt lat="40.3325067" lon="15.6247483"><ele>476.0</ele><time>2026-05-03T10:08:26.885Z</time></trkpt><trkpt lat="40.3324483" lon="15.6247933"><ele>476.0</ele><time>2026-05-03T10:08:28.885Z</time></trkpt><trkpt lat="40.3323983" lon="15.62486"><ele>476.0</ele><time>2026-05-03T10:08:53.885Z</time></trkpt><trkpt lat="40.3323083" lon="15.6249"><ele>476.0</ele><time>2026-05-03T10:08:56.885Z</time></trkpt><trkpt lat="40.3321833" lon="15.6248967"><ele>476.0</ele><time>2026-05-03T10:08:58.885Z</time></trkpt><trkpt lat="40.3321033" lon="15.6248883"><ele>476.0</ele><time>2026-05-03T10:08:59.885Z</time></trkpt><trkpt lat="40.3320183" lon="15.624885"><ele>475.8</ele><time>2026-05-03T10:09:00.885Z</time></trkpt><trkpt lat="40.3319217" lon="15.6248867"><ele>475.6</ele><time>2026-05-03T10:09:01.885Z</time></trkpt><trkpt lat="40.3318267" lon="15.6248717"><ele>475.4</ele><time>2026-05-03T10:09:02.884Z</time></trkpt><trkpt lat="40.33173" lon="15.6248583"><ele>475.2</ele><time>2026-05-03T10:09:03.885Z</time></trkpt><trkpt lat="40.3316233" lon="15.6248683"><ele>475.0</ele><time>2026-05-03T10:09:04.885Z</time></trkpt><trkpt lat="40.3315133" lon="15.6248933"><ele>475.0</ele><time>2026-05-03T10:09:05.885Z</time></trkpt><trkpt lat="40.3313917" lon="15.62491"><ele>475.0</ele><time>2026-05-03T10:09:06.885Z</time></trkpt><trkpt lat="40.3312617" lon="15.6249267"><ele>475.0</ele><time>2026-05-03T10:09:07.885Z</time></trkpt><trkpt lat="40.33113" lon="15.6249517"><ele>475.0</ele><time>2026-05-03T10:09:08.885Z</time></trkpt><trkpt lat="40.331005" lon="15.624965"><ele>475.0</ele><time>2026-05-03T10:09:09.884Z</time></trkpt><trkpt lat="40.33088" lon="15.6249883"><ele>475.0</ele><time>2026-05-03T10:09:10.885Z</time></trkpt><trkpt lat="40.3307517" lon="15.62502"><ele>475.0</ele><time>2026-05-03T10:09:11.885Z</time></trkpt><trkpt lat="40.3306233" lon="15.6250583"><ele>475.0</ele><time>2026-05-03T10:09:12.885Z</time></trkpt><trkpt lat="40.3304917" lon="15.6250883"><ele>475.0</ele><time>2026-05-03T10:09:13.885Z</time></trkpt><trkpt lat="40.3303583" lon="15.6251283"><ele>475.0</ele><time>2026-05-03T10:09:14.885Z</time></trkpt><trkpt lat="40.3302267" lon="15.625175"><ele>475.0</ele><time>2026-05-03T10:09:15.885Z</time></trkpt><trkpt lat="40.3300983" lon="15.62524"><ele>475.0</ele><time>2026-05-03T10:09:16.885Z</time></trkpt><trkpt lat="40.32997" lon="15.625305"><ele>475.0</ele><time>2026-05-03T10:09:17.884Z</time></trkpt><trkpt lat="40.3298417" lon="15.6253733"><ele>475.0</ele><time>2026-05-03T10:09:18.885Z</time></trkpt><trkpt lat="40.3297183" lon="15.6254433"><ele>475.0</ele><time>2026-05-03T10:09:19.885Z</time></trkpt><trkpt lat="40.3296" lon="15.6255067"><ele>475.0</ele><time>2026-05-03T10:09:20.885Z</time></trkpt><trkpt lat="40.3294783" lon="15.6255633"><ele>474.75</ele><time>2026-05-03T10:09:21.885Z</time></trkpt><trkpt lat="40.3293617" lon="15.62563"><ele>474.5</ele><time>2026-05-03T10:09:22.885Z</time></trkpt><trkpt lat="40.32925" lon="15.6256883"><ele>474.25</ele><time>2026-05-03T10:09:23.885Z</time></trkpt><trkpt lat="40.3291367" lon="15.6257433"><ele>474.0</ele><time>2026-05-03T10:09:24.885Z</time></trkpt><trkpt lat="40.329025" lon="15.6258033"><ele>474.0</ele><time>2026-05-03T10:09:25.884Z</time></trkpt><trkpt lat="40.3289083" lon="15.6258633"><ele>474.0</ele><time>2026-05-03T10:09:26.885Z</time></trkpt><trkpt lat="40.328805" lon="15.62592"><ele>474.0</ele><time>2026-05-03T10:09:27.884Z</time></trkpt><trkpt lat="40.3287017" lon="15.6259733"><ele>474.0</ele><time>2026-05-03T10:09:28.885Z</time></trkpt><trkpt lat="40.328595" lon="15.626025"><ele>474.0</ele><time>2026-05-03T10:09:29.885Z</time></trkpt><trkpt lat="40.32849" lon="15.6260883"><ele>474.0</ele><time>2026-05-03T10:09:30.885Z</time></trkpt><trkpt lat="40.3283833" lon="15.626145"><ele>474.0</ele><time>2026-05-03T10:09:31.885Z</time></trkpt><trkpt lat="40.3282683" lon="15.6262067"><ele>474.0</ele><time>2026-05-03T10:09:32.885Z</time></trkpt><trkpt lat="40.3281367" lon="15.6262783"><ele>473.66666666666663</ele><time>2026-05-03T10:09:33.885Z</time></trkpt><trkpt lat="40.328" lon="15.6263483"><ele>473.3333333333333</ele><time>2026-05-03T10:09:34.885Z</time></trkpt><trkpt lat="40.3278633" lon="15.6264217"><ele>473.0</ele><time>2026-05-03T10:09:35.884Z</time></trkpt><trkpt lat="40.3277217" lon="15.626505"><ele>473.0</ele><time>2026-05-03T10:09:36.885Z</time></trkpt><trkpt lat="40.3275783" lon="15.626585"><ele>473.0</ele><time>2026-05-03T10:09:37.885Z</time></trkpt><trkpt lat="40.3274333" lon="15.62666"><ele>473.0</ele><time>2026-05-03T10:09:38.885Z</time></trkpt><trkpt lat="40.3272933" lon="15.6267317"><ele>472.75</ele><time>2026-05-03T10:09:39.885Z</time></trkpt><trkpt lat="40.3271633" lon="15.626805"><ele>472.5</ele><time>2026-05-03T10:09:40.885Z</time></trkpt><trkpt lat="40.32704" lon="15.62687"><ele>472.25</ele><time>2026-05-03T10:09:41.885Z</time></trkpt><trkpt lat="40.3269183" lon="15.6269317"><ele>472.0</ele><time>2026-05-03T10:09:42.885Z</time></trkpt><trkpt lat="40.3268033" lon="15.62699"><ele>472.75</ele><time>2026-05-03T10:09:43.885Z</time></trkpt><trkpt lat="40.3266883" lon="15.6270517"><ele>473.5</ele><time>2026-05-03T10:09:44.884Z</time></trkpt><trkpt lat="40.3265733" lon="15.627105"><ele>474.25</ele><time>2026-05-03T10:09:45.885Z</time></trkpt><trkpt lat="40.32645" lon="15.6271633"><ele>475.0</ele><time>2026-05-03T10:09:46.885Z</time></trkpt><trkpt lat="40.3263183" lon="15.6272383"><ele>475.0</ele><time>2026-05-03T10:09:47.884Z</time></trkpt><trkpt lat="40.3261733" lon="15.627305"><ele>475.0</ele><time>2026-05-03T10:09:48.885Z</time></trkpt><trkpt lat="40.32602" lon="15.6273817"><ele>475.0</ele><time>2026-05-03T10:09:49.885Z</time></trkpt><trkpt lat="40.3258667" lon="15.62746"><ele>475.0</ele><time>2026-05-03T10:09:50.885Z</time></trkpt><trkpt lat="40.32572" lon="15.6275217"><ele>475.0</ele><time>2026-05-03T10:09:51.885Z</time></trkpt><trkpt lat="40.325565" lon="15.62757"><ele>475.0</ele><time>2026-05-03T10:09:52.885Z</time></trkpt><trkpt lat="40.3254133" lon="15.627615"><ele>474.6666666666667</ele><time>2026-05-03T10:09:53.885Z</time></trkpt><trkpt lat="40.3252617" lon="15.62765"><ele>474.33333333333337</ele><time>2026-05-03T10:09:54.885Z</time></trkpt><trkpt lat="40.32511" lon="15.6276667"><ele>474.0</ele><time>2026-05-03T10:09:55.884Z</time></trkpt><trkpt lat="40.324955" lon="15.627675"><ele>474.0</ele><time>2026-05-03T10:09:56.885Z</time></trkpt><trkpt lat="40.3248017" lon="15.62768"><ele>474.0</ele><time>2026-05-03T10:09:57.885Z</time></trkpt><trkpt lat="40.3246433" lon="15.6276883"><ele>474.0</ele><time>2026-05-03T10:09:58.884Z</time></trkpt><trkpt lat="40.3244833" lon="15.627685"><ele>473.33333333333337</ele><time>2026-05-03T10:09:59.885Z</time></trkpt><trkpt lat="40.3243117" lon="15.627695"><ele>472.6666666666667</ele><time>2026-05-03T10:10:00.885Z</time></trkpt><trkpt lat="40.3241367" lon="15.6277167"><ele>472.0</ele><time>2026-05-03T10:10:01.885Z</time></trkpt><trkpt lat="40.323955" lon="15.6277633"><ele>472.6666666666667</ele><time>2026-05-03T10:10:02.885Z</time></trkpt><trkpt lat="40.3237817" lon="15.627815"><ele>473.33333333333337</ele><time>2026-05-03T10:10:03.885Z</time></trkpt><trkpt lat="40.3236133" lon="15.627875"><ele>474.0</ele><time>2026-05-03T10:10:04.885Z</time></trkpt><trkpt lat="40.3234483" lon="15.627935"><ele>474.0</ele><time>2026-05-03T10:10:05.885Z</time></trkpt><trkpt lat="40.3232783" lon="15.6279917"><ele>474.0</ele><time>2026-05-03T10:10:06.884Z</time></trkpt><trkpt lat="40.3231133" lon="15.6280617"><ele>474.0</ele><time>2026-05-03T10:10:07.885Z</time></trkpt><trkpt lat="40.322945" lon="15.6281267"><ele>473.33333333333337</ele><time>2026-05-03T10:10:08.885Z</time></trkpt><trkpt lat="40.322775" lon="15.6281867"><ele>472.6666666666667</ele><time>2026-05-03T10:10:09.885Z</time></trkpt><trkpt lat="40.3226133" lon="15.628245"><ele>472.0</ele><time>2026-05-03T10:10:10.885Z</time></trkpt><trkpt lat="40.3224467" lon="15.6282967"><ele>472.0</ele><time>2026-05-03T10:10:11.884Z</time></trkpt><trkpt lat="40.3222817" lon="15.6283567"><ele>472.0</ele><time>2026-05-03T10:10:12.885Z</time></trkpt><trkpt lat="40.3221233" lon="15.628415"><ele>472.0</ele><time>2026-05-03T10:10:13.885Z</time></trkpt><trkpt lat="40.3219667" lon="15.6284733"><ele>472.33333333333337</ele><time>2026-05-03T10:10:14.885Z</time></trkpt><trkpt lat="40.321805" lon="15.6285267"><ele>472.66666666666663</ele><time>2026-05-03T10:10:15.885Z</time></trkpt><trkpt lat="40.3216467" lon="15.6285867"><ele>473.0</ele><time>2026-05-03T10:10:16.885Z</time></trkpt><trkpt lat="40.3215" lon="15.6286417"><ele>473.0</ele><time>2026-05-03T10:10:17.885Z</time></trkpt><trkpt lat="40.3213583" lon="15.628695"><ele>473.0</ele><time>2026-05-03T10:10:18.884Z</time></trkpt><trkpt lat="40.32121" lon="15.62875"><ele>473.0</ele><time>2026-05-03T10:10:19.885Z</time></trkpt><trkpt lat="40.3210633" lon="15.6288133"><ele>473.0</ele><time>2026-05-03T10:10:20.884Z</time></trkpt><trkpt lat="40.32092" lon="15.6288833"><ele>473.0</ele><time>2026-05-03T10:10:21.885Z</time></trkpt><trkpt lat="40.320775" lon="15.6289633"><ele>473.0</ele><time>2026-05-03T10:10:22.885Z</time></trkpt><trkpt lat="40.3206417" lon="15.6290483"><ele>472.3333333333333</ele><time>2026-05-03T10:10:23.885Z</time></trkpt><trkpt lat="40.3205067" lon="15.6291433"><ele>471.66666666666663</ele><time>2026-05-03T10:10:24.885Z</time></trkpt><trkpt lat="40.320365" lon="15.6292467"><ele>471.0</ele><time>2026-05-03T10:10:25.885Z</time></trkpt><trkpt lat="40.3202283" lon="15.6293517"><ele>471.0</ele><time>2026-05-03T10:10:26.885Z</time></trkpt><trkpt lat="40.320085" lon="15.6294583"><ele>471.0</ele><time>2026-05-03T10:10:27.884Z</time></trkpt><trkpt lat="40.31995" lon="15.6295617"><ele>471.0</ele><time>2026-05-03T10:10:28.885Z</time></trkpt><trkpt lat="40.3198067" lon="15.6296717"><ele>471.0</ele><time>2026-05-03T10:10:29.885Z</time></trkpt><trkpt lat="40.31967" lon="15.629775"><ele>471.0</ele><time>2026-05-03T10:10:30.885Z</time></trkpt><trkpt lat="40.3195283" lon="15.629875"><ele>471.0</ele><time>2026-05-03T10:10:31.885Z</time></trkpt><trkpt lat="40.3193833" lon="15.62998"><ele>471.0</ele><time>2026-05-03T10:10:32.885Z</time></trkpt><trkpt lat="40.3192517" lon="15.6300983"><ele>471.0</ele><time>2026-05-03T10:10:33.885Z</time></trkpt><trkpt lat="40.3191117" lon="15.6301983"><ele>471.0</ele><time>2026-05-03T10:10:34.884Z</time></trkpt><trkpt lat="40.3189783" lon="15.630305"><ele>470.66666666666663</ele><time>2026-05-03T10:10:35.885Z</time></trkpt><trkpt lat="40.318835" lon="15.6304117"><ele>470.3333333333333</ele><time>2026-05-03T10:10:36.885Z</time></trkpt><trkpt lat="40.3186983" lon="15.6305217"><ele>470.0</ele><time>2026-05-03T10:10:37.885Z</time></trkpt><trkpt lat="40.3185567" lon="15.6306267"><ele>470.0</ele><time>2026-05-03T10:10:38.885Z</time></trkpt><trkpt lat="40.3184133" lon="15.6307333"><ele>470.0</ele><time>2026-05-03T10:10:39.885Z</time></trkpt><trkpt lat="40.31827" lon="15.63084"><ele>470.0</ele><time>2026-05-03T10:10:40.885Z</time></trkpt><trkpt lat="40.318135" lon="15.6309467"><ele>470.3333333333333</ele><time>2026-05-03T10:10:41.885Z</time></trkpt><trkpt lat="40.31799" lon="15.63105"><ele>470.66666666666663</ele><time>2026-05-03T10:10:42.885Z</time></trkpt><trkpt lat="40.3178533" lon="15.6311567"><ele>471.0</ele><time>2026-05-03T10:10:43.885Z</time></trkpt><trkpt lat="40.3177167" lon="15.6312633"><ele>471.0</ele><time>2026-05-03T10:10:44.884Z</time></trkpt><trkpt lat="40.31758" lon="15.63138"><ele>471.0</ele><time>2026-05-03T10:10:45.885Z</time></trkpt><trkpt lat="40.317445" lon="15.6314933"><ele>471.0</ele><time>2026-05-03T10:10:46.885Z</time></trkpt><trkpt lat="40.3173133" lon="15.63161"><ele>471.0</ele><time>2026-05-03T10:10:47.885Z</time></trkpt><trkpt lat="40.3171833" lon="15.6317383"><ele>471.0</ele><time>2026-05-03T10:10:48.885Z</time></trkpt><trkpt lat="40.3170567" lon="15.6318717"><ele>471.0</ele><time>2026-05-03T10:10:49.884Z</time></trkpt><trkpt lat="40.3169367" lon="15.632005"><ele>470.66666666666663</ele><time>2026-05-03T10:10:50.884Z</time></trkpt><trkpt lat="40.31681" lon="15.6321433"><ele>470.3333333333333</ele><time>2026-05-03T10:10:51.885Z</time></trkpt><trkpt lat="40.3166783" lon="15.6322917"><ele>470.0</ele><time>2026-05-03T10:10:52.885Z</time></trkpt><trkpt lat="40.3165433" lon="15.6324367"><ele>470.0</ele><time>2026-05-03T10:10:53.885Z</time></trkpt><trkpt lat="40.3164" lon="15.6325867"><ele>470.0</ele><time>2026-05-03T10:10:54.885Z</time></trkpt><trkpt lat="40.3162467" lon="15.6327417"><ele>470.0</ele><time>2026-05-03T10:10:55.885Z</time></trkpt><trkpt lat="40.3160967" lon="15.6329"><ele>470.66666666666663</ele><time>2026-05-03T10:10:56.885Z</time></trkpt><trkpt lat="40.3159467" lon="15.63305"><ele>471.33333333333337</ele><time>2026-05-03T10:10:57.885Z</time></trkpt><trkpt lat="40.3158" lon="15.6331983"><ele>472.0</ele><time>2026-05-03T10:10:58.885Z</time></trkpt><trkpt lat="40.3156617" lon="15.6333367"><ele>472.0</ele><time>2026-05-03T10:10:59.885Z</time></trkpt><trkpt lat="40.31552" lon="15.6334683"><ele>472.0</ele><time>2026-05-03T10:11:00.885Z</time></trkpt><trkpt lat="40.3153817" lon="15.63361"><ele>472.0</ele><time>2026-05-03T10:11:01.885Z</time></trkpt><trkpt lat="40.3152383" lon="15.6337317"><ele>471.6666666666667</ele><time>2026-05-03T10:11:02.885Z</time></trkpt><trkpt lat="40.315105" lon="15.63386"><ele>471.33333333333337</ele><time>2026-05-03T10:11:03.885Z</time></trkpt><trkpt lat="40.314975" lon="15.6339917"><ele>471.0</ele><time>2026-05-03T10:11:04.885Z</time></trkpt><trkpt lat="40.314845" lon="15.6341217"><ele>471.33333333333337</ele><time>2026-05-03T10:11:05.885Z</time></trkpt><trkpt lat="40.3147167" lon="15.6342433"><ele>471.6666666666667</ele><time>2026-05-03T10:11:06.885Z</time></trkpt><trkpt lat="40.3145883" lon="15.634365"><ele>472.0</ele><time>2026-05-03T10:11:07.884Z</time></trkpt><trkpt lat="40.3144717" lon="15.634485"><ele>472.5</ele><time>2026-05-03T10:11:08.884Z</time></trkpt><trkpt lat="40.314365" lon="15.6345967"><ele>473.0</ele><time>2026-05-03T10:11:09.885Z</time></trkpt><trkpt lat="40.3142517" lon="15.63471"><ele>473.5</ele><time>2026-05-03T10:11:10.885Z</time></trkpt><trkpt lat="40.3141383" lon="15.6348183"><ele>474.0</ele><time>2026-05-03T10:11:11.885Z</time></trkpt><trkpt lat="40.3140233" lon="15.6349317"><ele>474.0</ele><time>2026-05-03T10:11:12.884Z</time></trkpt><trkpt lat="40.313925" lon="15.63503"><ele>474.0</ele><time>2026-05-03T10:11:13.884Z</time></trkpt><trkpt lat="40.31383" lon="15.6351217"><ele>474.0</ele><time>2026-05-03T10:11:14.885Z</time></trkpt><trkpt lat="40.3137383" lon="15.6352167"><ele>474.0</ele><time>2026-05-03T10:11:15.885Z</time></trkpt><trkpt lat="40.313655" lon="15.6353"><ele>473.8333333333333</ele><time>2026-05-03T10:11:16.885Z</time></trkpt><trkpt lat="40.3135783" lon="15.635375"><ele>473.66666666666663</ele><time>2026-05-03T10:11:17.884Z</time></trkpt><trkpt lat="40.31351" lon="15.6354433"><ele>473.5</ele><time>2026-05-03T10:11:18.885Z</time></trkpt><trkpt lat="40.31345" lon="15.6355117"><ele>473.3333333333333</ele><time>2026-05-03T10:11:19.884Z</time></trkpt><trkpt lat="40.313395" lon="15.63557"><ele>473.16666666666663</ele><time>2026-05-03T10:11:20.884Z</time></trkpt><trkpt lat="40.31334" lon="15.63562"><ele>473.0</ele><time>2026-05-03T10:11:21.884Z</time></trkpt><trkpt lat="40.31329" lon="15.6356717"><ele>472.99999999999994</ele><time>2026-05-03T10:11:22.885Z</time></trkpt><trkpt lat="40.313235" lon="15.635715"><ele>473.0</ele><time>2026-05-03T10:11:23.885Z</time></trkpt><trkpt lat="40.313125" lon="15.6358017"><ele>473.0</ele><time>2026-05-03T10:11:25.885Z</time></trkpt><trkpt lat="40.3130717" lon="15.63586"><ele>473.0</ele><time>2026-05-03T10:11:26.885Z</time></trkpt><trkpt lat="40.3130033" lon="15.6359283"><ele>472.99999999999994</ele><time>2026-05-03T10:11:27.884Z</time></trkpt><trkpt lat="40.312935" lon="15.6359917"><ele>473.0</ele><time>2026-05-03T10:11:28.885Z</time></trkpt><trkpt lat="40.3128683" lon="15.6360483"><ele>473.16666666666663</ele><time>2026-05-03T10:11:29.885Z</time></trkpt><trkpt lat="40.3128067" lon="15.63611"><ele>473.3333333333333</ele><time>2026-05-03T10:11:30.885Z</time></trkpt><trkpt lat="40.3127333" lon="15.636165"><ele>473.5</ele><time>2026-05-03T10:11:31.885Z</time></trkpt><trkpt lat="40.3126617" lon="15.636225"><ele>473.66666666666663</ele><time>2026-05-03T10:11:32.885Z</time></trkpt><trkpt lat="40.312585" lon="15.63629"><ele>473.8333333333333</ele><time>2026-05-03T10:11:33.885Z</time></trkpt><trkpt lat="40.3124917" lon="15.63636"><ele>474.0</ele><time>2026-05-03T10:11:34.884Z</time></trkpt><trkpt lat="40.31239" lon="15.6364333"><ele>474.0</ele><time>2026-05-03T10:11:35.885Z</time></trkpt><trkpt lat="40.3122883" lon="15.6365033"><ele>474.0</ele><time>2026-05-03T10:11:36.885Z</time></trkpt><trkpt lat="40.3121867" lon="15.6365733"><ele>474.0</ele><time>2026-05-03T10:11:37.885Z</time></trkpt><trkpt lat="40.3120783" lon="15.6366433"><ele>474.0</ele><time>2026-05-03T10:11:38.884Z</time></trkpt><trkpt lat="40.311965" lon="15.636715"><ele>474.0</ele><time>2026-05-03T10:11:39.885Z</time></trkpt><trkpt lat="40.31185" lon="15.63679"><ele>474.0</ele><time>2026-05-03T10:11:40.884Z</time></trkpt><trkpt lat="40.311735" lon="15.63687"><ele>474.0</ele><time>2026-05-03T10:11:41.885Z</time></trkpt><trkpt lat="40.311615" lon="15.63695"><ele>474.0</ele><time>2026-05-03T10:11:42.885Z</time></trkpt><trkpt lat="40.3114867" lon="15.6370317"><ele>474.0</ele><time>2026-05-03T10:11:43.884Z</time></trkpt><trkpt lat="40.3113567" lon="15.63712"><ele>474.0</ele><time>2026-05-03T10:11:44.885Z</time></trkpt><trkpt lat="40.31123" lon="15.6372033"><ele>474.0</ele><time>2026-05-03T10:11:45.885Z</time></trkpt><trkpt lat="40.3111" lon="15.63729"><ele>474.0</ele><time>2026-05-03T10:11:46.885Z</time></trkpt><trkpt lat="40.3109633" lon="15.6373783"><ele>474.0</ele><time>2026-05-03T10:11:47.885Z</time></trkpt><trkpt lat="40.3108233" lon="15.6374633"><ele>474.0</ele><time>2026-05-03T10:11:48.885Z</time></trkpt><trkpt lat="40.31069" lon="15.63754"><ele>474.0</ele><time>2026-05-03T10:11:49.885Z</time></trkpt><trkpt lat="40.3105583" lon="15.63762"><ele>474.0</ele><time>2026-05-03T10:11:50.884Z</time></trkpt><trkpt lat="40.310425" lon="15.6376983"><ele>474.33333333333337</ele><time>2026-05-03T10:11:51.885Z</time></trkpt><trkpt lat="40.3102867" lon="15.6377833"><ele>474.6666666666667</ele><time>2026-05-03T10:11:52.885Z</time></trkpt><trkpt lat="40.31015" lon="15.6378717"><ele>475.0</ele><time>2026-05-03T10:11:53.885Z</time></trkpt><trkpt lat="40.3100067" lon="15.6379617"><ele>475.0</ele><time>2026-05-03T10:11:54.885Z</time></trkpt><trkpt lat="40.309855" lon="15.6380583"><ele>475.0</ele><time>2026-05-03T10:11:55.885Z</time></trkpt><trkpt lat="40.3096917" lon="15.6381583"><ele>475.0</ele><time>2026-05-03T10:11:56.884Z</time></trkpt><trkpt lat="40.3095267" lon="15.6382483"><ele>474.0</ele><time>2026-05-03T10:11:57.885Z</time></trkpt><trkpt lat="40.3093617" lon="15.63833"><ele>473.0</ele><time>2026-05-03T10:11:58.885Z</time></trkpt><trkpt lat="40.3092067" lon="15.6383983"><ele>472.0</ele><time>2026-05-03T10:11:59.884Z</time></trkpt><trkpt lat="40.3090567" lon="15.6384633"><ele>471.75</ele><time>2026-05-03T10:12:00.885Z</time></trkpt><trkpt lat="40.3089083" lon="15.6385133"><ele>471.5</ele><time>2026-05-03T10:12:01.884Z</time></trkpt><trkpt lat="40.308775" lon="15.638545"><ele>471.25</ele><time>2026-05-03T10:12:02.885Z</time></trkpt><trkpt lat="40.3086567" lon="15.638565"><ele>471.0</ele><time>2026-05-03T10:12:03.885Z</time></trkpt><trkpt lat="40.3085517" lon="15.6385767"><ele>471.0</ele><time>2026-05-03T10:12:04.885Z</time></trkpt><trkpt lat="40.30846" lon="15.6385883"><ele>471.0</ele><time>2026-05-03T10:12:05.885Z</time></trkpt><trkpt lat="40.3083817" lon="15.6385883"><ele>471.0</ele><time>2026-05-03T10:12:06.884Z</time></trkpt><trkpt lat="40.30831" lon="15.6385933"><ele>471.0</ele><time>2026-05-03T10:12:07.885Z</time></trkpt><trkpt lat="40.30824" lon="15.6385933"><ele>471.0</ele><time>2026-05-03T10:12:08.885Z</time></trkpt><trkpt lat="40.30817" lon="15.6385933"><ele>471.0</ele><time>2026-05-03T10:12:09.884Z</time></trkpt><trkpt lat="40.3081017" lon="15.63859"><ele>470.5</ele><time>2026-05-03T10:12:10.885Z</time></trkpt><trkpt lat="40.3080333" lon="15.6385883"><ele>470.0</ele><time>2026-05-03T10:12:11.885Z</time></trkpt><trkpt lat="40.3079667" lon="15.638585"><ele>469.5</ele><time>2026-05-03T10:12:12.885Z</time></trkpt><trkpt lat="40.30784" lon="15.6385817"><ele>469.0</ele><time>2026-05-03T10:12:14.885Z</time></trkpt><trkpt lat="40.30776" lon="15.6385883"><ele>468.5</ele><time>2026-05-03T10:12:15.885Z</time></trkpt><trkpt lat="40.3076683" lon="15.6385917"><ele>468.0</ele><time>2026-05-03T10:12:16.885Z</time></trkpt><trkpt lat="40.307555" lon="15.63859"><ele>468.0</ele><time>2026-05-03T10:12:17.885Z</time></trkpt><trkpt lat="40.307425" lon="15.6385717"><ele>468.0</ele><time>2026-05-03T10:12:18.884Z</time></trkpt><trkpt lat="40.3072817" lon="15.63855"><ele>468.0</ele><time>2026-05-03T10:12:19.885Z</time></trkpt><trkpt lat="40.3071167" lon="15.6385283"><ele>468.0</ele><time>2026-05-03T10:12:20.884Z</time></trkpt><trkpt lat="40.306925" lon="15.6385067"><ele>468.66666666666663</ele><time>2026-05-03T10:12:21.885Z</time></trkpt><trkpt lat="40.3067217" lon="15.6384933"><ele>469.3333333333333</ele><time>2026-05-03T10:12:22.885Z</time></trkpt><trkpt lat="40.3065033" lon="15.6384817"><ele>470.0</ele><time>2026-05-03T10:12:23.885Z</time></trkpt><trkpt lat="40.3062833" lon="15.6384683"><ele>470.66666666666663</ele><time>2026-05-03T10:12:24.885Z</time></trkpt><trkpt lat="40.3060683" lon="15.6384517"><ele>471.33333333333337</ele><time>2026-05-03T10:12:25.884Z</time></trkpt><trkpt lat="40.3058633" lon="15.6384383"><ele>472.0</ele><time>2026-05-03T10:12:26.885Z</time></trkpt><trkpt lat="40.3056683" lon="15.6384383"><ele>471.33333333333337</ele><time>2026-05-03T10:12:27.884Z</time></trkpt><trkpt lat="40.30548" lon="15.6384467"><ele>470.66666666666663</ele><time>2026-05-03T10:12:28.885Z</time></trkpt><trkpt lat="40.305295" lon="15.6384717"><ele>470.0</ele><time>2026-05-03T10:12:29.885Z</time></trkpt><trkpt lat="40.3051167" lon="15.6385117"><ele>470.0</ele><time>2026-05-03T10:12:30.885Z</time></trkpt><trkpt lat="40.30494" lon="15.6385633"><ele>470.0</ele><time>2026-05-03T10:12:31.885Z</time></trkpt><trkpt lat="40.304765" lon="15.6386383"><ele>470.0</ele><time>2026-05-03T10:12:32.885Z</time></trkpt><trkpt lat="40.3045933" lon="15.6387333"><ele>470.66666666666663</ele><time>2026-05-03T10:12:33.885Z</time></trkpt><trkpt lat="40.3044267" lon="15.638845"><ele>471.33333333333337</ele><time>2026-05-03T10:12:34.885Z</time></trkpt><trkpt lat="40.30426" lon="15.6389883"><ele>472.0</ele><time>2026-05-03T10:12:35.885Z</time></trkpt><trkpt lat="40.3040883" lon="15.639155"><ele>472.0</ele><time>2026-05-03T10:12:36.885Z</time></trkpt><trkpt lat="40.3039167" lon="15.639345"><ele>472.0</ele><time>2026-05-03T10:12:37.885Z</time></trkpt><trkpt lat="40.30374" lon="15.6395433"><ele>472.5</ele><time>2026-05-03T10:12:38.885Z</time></trkpt><trkpt lat="40.3035633" lon="15.6397533"><ele>473.0</ele><time>2026-05-03T10:12:39.884Z</time></trkpt><trkpt lat="40.3033767" lon="15.6399667"><ele>473.0</ele><time>2026-05-03T10:12:40.885Z</time></trkpt><trkpt lat="40.3031917" lon="15.6401883"><ele>473.0</ele><time>2026-05-03T10:12:41.884Z</time></trkpt><trkpt lat="40.3030017" lon="15.64041"><ele>473.5</ele><time>2026-05-03T10:12:42.885Z</time></trkpt><trkpt lat="40.3028083" lon="15.64063"><ele>474.0</ele><time>2026-05-03T10:12:43.884Z</time></trkpt><trkpt lat="40.3026217" lon="15.6408383"><ele>474.0</ele><time>2026-05-03T10:12:44.884Z</time></trkpt><trkpt lat="40.30245" lon="15.6410417"><ele>474.0</ele><time>2026-05-03T10:12:45.885Z</time></trkpt><trkpt lat="40.3022867" lon="15.6412383"><ele>473.66666666666663</ele><time>2026-05-03T10:12:46.885Z</time></trkpt><trkpt lat="40.3021333" lon="15.6414267"><ele>473.3333333333333</ele><time>2026-05-03T10:12:47.885Z</time></trkpt><trkpt lat="40.3019733" lon="15.6416133"><ele>473.0</ele><time>2026-05-03T10:12:48.885Z</time></trkpt><trkpt lat="40.30182" lon="15.6417933"><ele>473.0</ele><time>2026-05-03T10:12:49.884Z</time></trkpt><trkpt lat="40.3016733" lon="15.641965"><ele>473.0</ele><time>2026-05-03T10:12:50.885Z</time></trkpt><trkpt lat="40.30153" lon="15.6421383"><ele>473.0</ele><time>2026-05-03T10:12:51.884Z</time></trkpt><trkpt lat="40.30139" lon="15.642305"><ele>473.3333333333333</ele><time>2026-05-03T10:12:52.885Z</time></trkpt><trkpt lat="40.3012533" lon="15.6424717"><ele>473.66666666666663</ele><time>2026-05-03T10:12:53.884Z</time></trkpt><trkpt lat="40.3011117" lon="15.6426317"><ele>474.0</ele><time>2026-05-03T10:12:54.885Z</time></trkpt><trkpt lat="40.300965" lon="15.6427933"><ele>474.33333333333337</ele><time>2026-05-03T10:12:55.885Z</time></trkpt><trkpt lat="40.3008233" lon="15.6429567"><ele>474.6666666666667</ele><time>2026-05-03T10:12:56.885Z</time></trkpt><trkpt lat="40.3006817" lon="15.64311"><ele>475.0</ele><time>2026-05-03T10:12:57.884Z</time></trkpt><trkpt lat="40.30055" lon="15.6432667"><ele>475.0</ele><time>2026-05-03T10:12:58.885Z</time></trkpt><trkpt lat="40.3004317" lon="15.6434083"><ele>475.0</ele><time>2026-05-03T10:12:59.885Z</time></trkpt><trkpt lat="40.3003233" lon="15.6435483"><ele>475.0</ele><time>2026-05-03T10:13:00.885Z</time></trkpt><trkpt lat="40.30022" lon="15.64368"><ele>475.0</ele><time>2026-05-03T10:13:01.885Z</time></trkpt><trkpt lat="40.3001217" lon="15.6438083"><ele>475.0</ele><time>2026-05-03T10:13:02.885Z</time></trkpt><trkpt lat="40.30003" lon="15.6439217"><ele>475.0</ele><time>2026-05-03T10:13:03.885Z</time></trkpt><trkpt lat="40.2999417" lon="15.6440283"><ele>475.0</ele><time>2026-05-03T10:13:04.885Z</time></trkpt><trkpt lat="40.2998517" lon="15.6441317"><ele>475.0</ele><time>2026-05-03T10:13:05.885Z</time></trkpt><trkpt lat="40.29977" lon="15.6442317"><ele>475.0</ele><time>2026-05-03T10:13:06.885Z</time></trkpt><trkpt lat="40.299695" lon="15.64432"><ele>475.0</ele><time>2026-05-03T10:13:07.885Z</time></trkpt><trkpt lat="40.299625" lon="15.6444"><ele>475.0</ele><time>2026-05-03T10:13:08.885Z</time></trkpt><trkpt lat="40.2995617" lon="15.644475"><ele>475.0</ele><time>2026-05-03T10:13:09.884Z</time></trkpt><trkpt lat="40.2995083" lon="15.6445367"><ele>475.00000000000006</ele><time>2026-05-03T10:13:10.884Z</time></trkpt><trkpt lat="40.299435" lon="15.644635"><ele>475.0</ele><time>2026-05-03T10:13:12.885Z</time></trkpt><trkpt lat="40.2993783" lon="15.6447233"><ele>475.0</ele><time>2026-05-03T10:13:14.885Z</time></trkpt><trkpt lat="40.2993233" lon="15.6448367"><ele>475.0</ele><time>2026-05-03T10:13:16.885Z</time></trkpt><trkpt lat="40.2993117" lon="15.64492"><ele>475.00000000000006</ele><time>2026-05-03T10:13:17.885Z</time></trkpt><trkpt lat="40.2993117" lon="15.64502"><ele>475.0</ele><time>2026-05-03T10:13:18.885Z</time></trkpt><trkpt lat="40.2993367" lon="15.645135"><ele>475.00000000000006</ele><time>2026-05-03T10:13:19.885Z</time></trkpt><trkpt lat="40.29936" lon="15.64525"><ele>475.0</ele><time>2026-05-03T10:13:20.885Z</time></trkpt><trkpt lat="40.2993833" lon="15.6453633"><ele>475.0</ele><time>2026-05-03T10:13:21.885Z</time></trkpt><trkpt lat="40.2993933" lon="15.64548"><ele>475.0</ele><time>2026-05-03T10:13:22.885Z</time></trkpt><trkpt lat="40.299385" lon="15.6455933"><ele>475.00000000000006</ele><time>2026-05-03T10:13:23.884Z</time></trkpt><trkpt lat="40.2993583" lon="15.64569"><ele>475.0</ele><time>2026-05-03T10:13:24.885Z</time></trkpt><trkpt lat="40.2993083" lon="15.6457867"><ele>475.0</ele><time>2026-05-03T10:13:25.884Z</time></trkpt><trkpt lat="40.2992433" lon="15.6458583"><ele>475.0</ele><time>2026-05-03T10:13:26.884Z</time></trkpt><trkpt lat="40.29916" lon="15.6459067"><ele>475.0</ele><time>2026-05-03T10:13:27.885Z</time></trkpt><trkpt lat="40.29907" lon="15.6459433"><ele>475.0</ele><time>2026-05-03T10:13:28.885Z</time></trkpt><trkpt lat="40.298985" lon="15.6459867"><ele>475.0</ele><time>2026-05-03T10:13:29.885Z</time></trkpt><trkpt lat="40.29889" lon="15.6460267"><ele>475.25</ele><time>2026-05-03T10:13:30.885Z</time></trkpt><trkpt lat="40.2987867" lon="15.6460817"><ele>475.5</ele><time>2026-05-03T10:13:31.885Z</time></trkpt><trkpt lat="40.29866" lon="15.6461517"><ele>475.75</ele><time>2026-05-03T10:13:32.884Z</time></trkpt><trkpt lat="40.298515" lon="15.6462267"><ele>476.0</ele><time>2026-05-03T10:13:33.884Z</time></trkpt><trkpt lat="40.2983483" lon="15.64634"><ele>476.3333333333333</ele><time>2026-05-03T10:13:34.884Z</time></trkpt><trkpt lat="40.2981917" lon="15.646485"><ele>476.66666666666663</ele><time>2026-05-03T10:13:35.885Z</time></trkpt><trkpt lat="40.2980317" lon="15.64667"><ele>477.0</ele><time>2026-05-03T10:13:36.885Z</time></trkpt><trkpt lat="40.2978917" lon="15.6468717"><ele>477.66666666666663</ele><time>2026-05-03T10:13:37.885Z</time></trkpt><trkpt lat="40.2977767" lon="15.6470783"><ele>478.3333333333333</ele><time>2026-05-03T10:13:38.884Z</time></trkpt><trkpt lat="40.2976533" lon="15.6472533"><ele>479.0</ele><time>2026-05-03T10:13:39.884Z</time></trkpt><trkpt lat="40.2975217" lon="15.6473867"><ele>479.0</ele><time>2026-05-03T10:13:40.885Z</time></trkpt><trkpt lat="40.29738" lon="15.647475"><ele>479.0</ele><time>2026-05-03T10:13:41.885Z</time></trkpt><trkpt lat="40.2972383" lon="15.647535"><ele>479.0</ele><time>2026-05-03T10:13:42.884Z</time></trkpt><trkpt lat="40.297085" lon="15.647575"><ele>479.0</ele><time>2026-05-03T10:13:43.884Z</time></trkpt><trkpt lat="40.2969183" lon="15.6476117"><ele>479.0</ele><time>2026-05-03T10:13:44.885Z</time></trkpt><trkpt lat="40.296735" lon="15.64766"><ele>479.0</ele><time>2026-05-03T10:13:45.885Z</time></trkpt><trkpt lat="40.2965483" lon="15.647705"><ele>479.0</ele><time>2026-05-03T10:13:46.885Z</time></trkpt><trkpt lat="40.2963517" lon="15.6477533"><ele>479.0</ele><time>2026-05-03T10:13:47.885Z</time></trkpt><trkpt lat="40.2961533" lon="15.6477967"><ele>479.0</ele><time>2026-05-03T10:13:48.884Z</time></trkpt><trkpt lat="40.2959367" lon="15.6478433"><ele>479.0</ele><time>2026-05-03T10:13:49.884Z</time></trkpt><trkpt lat="40.2957217" lon="15.6478933"><ele>479.0</ele><time>2026-05-03T10:13:50.885Z</time></trkpt><trkpt lat="40.2955017" lon="15.6479467"><ele>479.0</ele><time>2026-05-03T10:13:51.885Z</time></trkpt><trkpt lat="40.2952767" lon="15.6480017"><ele>480.0</ele><time>2026-05-03T10:13:52.884Z</time></trkpt><trkpt lat="40.2950517" lon="15.6480583"><ele>481.0</ele><time>2026-05-03T10:13:53.884Z</time></trkpt><trkpt lat="40.2948267" lon="15.64811"><ele>481.0</ele><time>2026-05-03T10:13:54.885Z</time></trkpt><trkpt lat="40.2946" lon="15.6481583"><ele>481.0</ele><time>2026-05-03T10:13:55.885Z</time></trkpt><trkpt lat="40.2943733" lon="15.6481983"><ele>481.0</ele><time>2026-05-03T10:13:56.885Z</time></trkpt><trkpt lat="40.2941467" lon="15.6482417"><ele>481.0</ele><time>2026-05-03T10:13:57.885Z</time></trkpt><trkpt lat="40.2939183" lon="15.6482917"><ele>480.6666666666667</ele><time>2026-05-03T10:13:58.885Z</time></trkpt><trkpt lat="40.2937017" lon="15.648335"><ele>480.33333333333337</ele><time>2026-05-03T10:13:59.885Z</time></trkpt><trkpt lat="40.29349" lon="15.6483767"><ele>480.0</ele><time>2026-05-03T10:14:00.885Z</time></trkpt><trkpt lat="40.2932967" lon="15.648415"><ele>480.0</ele><time>2026-05-03T10:14:01.884Z</time></trkpt><trkpt lat="40.293095" lon="15.6484483"><ele>480.0</ele><time>2026-05-03T10:14:02.885Z</time></trkpt><trkpt lat="40.292895" lon="15.64849"><ele>480.0</ele><time>2026-05-03T10:14:03.885Z</time></trkpt><trkpt lat="40.292685" lon="15.6485333"><ele>480.0</ele><time>2026-05-03T10:14:04.885Z</time></trkpt><trkpt lat="40.29248" lon="15.64857"><ele>480.0</ele><time>2026-05-03T10:14:05.884Z</time></trkpt><trkpt lat="40.29227" lon="15.6486167"><ele>480.0</ele><time>2026-05-03T10:14:06.885Z</time></trkpt><trkpt lat="40.2920533" lon="15.6486617"><ele>479.66666666666663</ele><time>2026-05-03T10:14:07.885Z</time></trkpt><trkpt lat="40.291835" lon="15.64871"><ele>479.3333333333333</ele><time>2026-05-03T10:14:08.884Z</time></trkpt><trkpt lat="40.2916233" lon="15.6487567"><ele>479.0</ele><time>2026-05-03T10:14:09.885Z</time></trkpt><trkpt lat="40.2914033" lon="15.6488083"><ele>478.5</ele><time>2026-05-03T10:14:10.885Z</time></trkpt><trkpt lat="40.2911783" lon="15.6488567"><ele>478.0</ele><time>2026-05-03T10:14:11.885Z</time></trkpt><trkpt lat="40.29095" lon="15.6488967"><ele>478.0</ele><time>2026-05-03T10:14:12.885Z</time></trkpt><trkpt lat="40.29071" lon="15.6489517"><ele>478.0</ele><time>2026-05-03T10:14:13.884Z</time></trkpt><trkpt lat="40.2904683" lon="15.649025"><ele>478.0</ele><time>2026-05-03T10:14:14.885Z</time></trkpt><trkpt lat="40.290215" lon="15.64909"><ele>478.0</ele><time>2026-05-03T10:14:15.884Z</time></trkpt><trkpt lat="40.2899617" lon="15.649165"><ele>478.0</ele><time>2026-05-03T10:14:16.885Z</time></trkpt><trkpt lat="40.28972" lon="15.6492417"><ele>478.0</ele><time>2026-05-03T10:14:17.885Z</time></trkpt><trkpt lat="40.289475" lon="15.6493183"><ele>478.0</ele><time>2026-05-03T10:14:18.885Z</time></trkpt><trkpt lat="40.2892267" lon="15.64941"><ele>478.0</ele><time>2026-05-03T10:14:19.884Z</time></trkpt><trkpt lat="40.288985" lon="15.6495"><ele>480.0</ele><time>2026-05-03T10:14:20.884Z</time></trkpt><trkpt lat="40.2887267" lon="15.6495917"><ele>482.0</ele><time>2026-05-03T10:14:21.884Z</time></trkpt><trkpt lat="40.288455" lon="15.6496983"><ele>482.0</ele><time>2026-05-03T10:14:22.885Z</time></trkpt><trkpt lat="40.2881717" lon="15.64981"><ele>482.0</ele><time>2026-05-03T10:14:23.884Z</time></trkpt><trkpt lat="40.2878733" lon="15.6499333"><ele>482.0</ele><time>2026-05-03T10:14:24.885Z</time></trkpt><trkpt lat="40.28756" lon="15.6500717"><ele>482.0</ele><time>2026-05-03T10:14:25.885Z</time></trkpt><trkpt lat="40.2872383" lon="15.65018"><ele>482.0</ele><time>2026-05-03T10:14:26.885Z</time></trkpt><trkpt lat="40.286905" lon="15.65029"><ele>482.0</ele><time>2026-05-03T10:14:27.885Z</time></trkpt><trkpt lat="40.28656" lon="15.6504167"><ele>481.5</ele><time>2026-05-03T10:14:28.885Z</time></trkpt><trkpt lat="40.2862133" lon="15.6505383"><ele>481.0</ele><time>2026-05-03T10:14:29.884Z</time></trkpt><trkpt lat="40.2858817" lon="15.65067"><ele>482.0</ele><time>2026-05-03T10:14:30.885Z</time></trkpt><trkpt lat="40.28557" lon="15.6507917"><ele>483.0</ele><time>2026-05-03T10:14:31.885Z</time></trkpt><trkpt lat="40.2852767" lon="15.65091"><ele>483.0</ele><time>2026-05-03T10:14:32.885Z</time></trkpt><trkpt lat="40.2849817" lon="15.6510233"><ele>483.0</ele><time>2026-05-03T10:14:33.885Z</time></trkpt><trkpt lat="40.284695" lon="15.65114"><ele>483.5</ele><time>2026-05-03T10:14:34.885Z</time></trkpt><trkpt lat="40.2844117" lon="15.65125"><ele>484.0</ele><time>2026-05-03T10:14:35.885Z</time></trkpt><trkpt lat="40.284135" lon="15.6513583"><ele>484.0</ele><time>2026-05-03T10:14:36.884Z</time></trkpt><trkpt lat="40.2838533" lon="15.6514617"><ele>484.0</ele><time>2026-05-03T10:14:37.885Z</time></trkpt><trkpt lat="40.283565" lon="15.6515767"><ele>484.0</ele><time>2026-05-03T10:14:38.885Z</time></trkpt><trkpt lat="40.2832867" lon="15.65169"><ele>484.0</ele><time>2026-05-03T10:14:39.885Z</time></trkpt><trkpt lat="40.2829983" lon="15.6518"><ele>484.5</ele><time>2026-05-03T10:14:40.885Z</time></trkpt><trkpt lat="40.2827083" lon="15.6519133"><ele>485.0</ele><time>2026-05-03T10:14:41.885Z</time></trkpt><trkpt lat="40.2824183" lon="15.6520217"><ele>486.5</ele><time>2026-05-03T10:14:42.884Z</time></trkpt><trkpt lat="40.2821333" lon="15.6521367"><ele>488.0</ele><time>2026-05-03T10:14:43.885Z</time></trkpt><trkpt lat="40.2818383" lon="15.65225"><ele>488.0</ele><time>2026-05-03T10:14:44.885Z</time></trkpt><trkpt lat="40.281545" lon="15.6523567"><ele>488.0</ele><time>2026-05-03T10:14:45.885Z</time></trkpt><trkpt lat="40.2812533" lon="15.6524683"><ele>487.0</ele><time>2026-05-03T10:14:46.885Z</time></trkpt><trkpt lat="40.2809667" lon="15.652585"><ele>486.0</ele><time>2026-05-03T10:14:47.885Z</time></trkpt><trkpt lat="40.2806783" lon="15.6526983"><ele>489.0</ele><time>2026-05-03T10:14:48.885Z</time></trkpt><trkpt lat="40.2803833" lon="15.6528083"><ele>492.0</ele><time>2026-05-03T10:14:49.884Z</time></trkpt><trkpt lat="40.2800933" lon="15.652925"><ele>492.0</ele><time>2026-05-03T10:14:50.885Z</time></trkpt><trkpt lat="40.2798033" lon="15.6530333"><ele>492.0</ele><time>2026-05-03T10:14:51.885Z</time></trkpt><trkpt lat="40.27951" lon="15.6531433"><ele>490.5</ele><time>2026-05-03T10:14:52.885Z</time></trkpt><trkpt lat="40.2792167" lon="15.6532583"><ele>489.0</ele><time>2026-05-03T10:14:53.885Z</time></trkpt><trkpt lat="40.278925" lon="15.653375"><ele>489.0</ele><time>2026-05-03T10:14:54.884Z</time></trkpt><trkpt lat="40.2786333" lon="15.6534867"><ele>489.0</ele><time>2026-05-03T10:14:55.884Z</time></trkpt><trkpt lat="40.2783417" lon="15.6536"><ele>491.5</ele><time>2026-05-03T10:14:56.885Z</time></trkpt><trkpt lat="40.27804" lon="15.6537133"><ele>494.0</ele><time>2026-05-03T10:14:57.885Z</time></trkpt><trkpt lat="40.2777467" lon="15.65383"><ele>494.0</ele><time>2026-05-03T10:14:58.884Z</time></trkpt><trkpt lat="40.277465" lon="15.6539467"><ele>494.0</ele><time>2026-05-03T10:14:59.884Z</time></trkpt><trkpt lat="40.27718" lon="15.6540467"><ele>491.5</ele><time>2026-05-03T10:15:00.885Z</time></trkpt><trkpt lat="40.2768983" lon="15.654155"><ele>489.0</ele><time>2026-05-03T10:15:01.885Z</time></trkpt><trkpt lat="40.2766267" lon="15.6542583"><ele>489.0</ele><time>2026-05-03T10:15:02.885Z</time></trkpt><trkpt lat="40.27636" lon="15.6543533"><ele>489.0</ele><time>2026-05-03T10:15:03.885Z</time></trkpt><trkpt lat="40.2760917" lon="15.6544583"><ele>490.0</ele><time>2026-05-03T10:15:04.885Z</time></trkpt><trkpt lat="40.275825" lon="15.6545633"><ele>491.0</ele><time>2026-05-03T10:15:05.885Z</time></trkpt><trkpt lat="40.27556" lon="15.6546683"><ele>491.0</ele><time>2026-05-03T10:15:06.885Z</time></trkpt><trkpt lat="40.2752933" lon="15.6547683"><ele>491.0</ele><time>2026-05-03T10:15:07.885Z</time></trkpt><trkpt lat="40.2750267" lon="15.654875"><ele>491.0</ele><time>2026-05-03T10:15:08.885Z</time></trkpt><trkpt lat="40.274765" lon="15.6549817"><ele>491.0</ele><time>2026-05-03T10:15:09.884Z</time></trkpt><trkpt lat="40.2744983" lon="15.6550867"><ele>491.0</ele><time>2026-05-03T10:15:10.884Z</time></trkpt><trkpt lat="40.27423" lon="15.65519"><ele>491.0</ele><time>2026-05-03T10:15:11.885Z</time></trkpt><trkpt lat="40.2739667" lon="15.655295"><ele>494.0</ele><time>2026-05-03T10:15:12.884Z</time></trkpt><trkpt lat="40.273715" lon="15.655395"><ele>497.0</ele><time>2026-05-03T10:15:13.884Z</time></trkpt><trkpt lat="40.2734583" lon="15.6554867"><ele>497.0</ele><time>2026-05-03T10:15:14.885Z</time></trkpt><trkpt lat="40.2732" lon="15.65558"><ele>497.0</ele><time>2026-05-03T10:15:15.884Z</time></trkpt><trkpt lat="40.2729467" lon="15.655675"><ele>495.5</ele><time>2026-05-03T10:15:16.885Z</time></trkpt><trkpt lat="40.2726833" lon="15.6557733"><ele>494.0</ele><time>2026-05-03T10:15:17.884Z</time></trkpt><trkpt lat="40.2724167" lon="15.655865"><ele>493.0</ele><time>2026-05-03T10:15:18.885Z</time></trkpt><trkpt lat="40.27215" lon="15.6559667"><ele>492.0</ele><time>2026-05-03T10:15:19.884Z</time></trkpt><trkpt lat="40.2718817" lon="15.6560583"><ele>493.0</ele><time>2026-05-03T10:15:20.884Z</time></trkpt><trkpt lat="40.2716167" lon="15.6561683"><ele>494.0</ele><time>2026-05-03T10:15:21.885Z</time></trkpt><trkpt lat="40.271355" lon="15.6562717"><ele>494.0</ele><time>2026-05-03T10:15:22.884Z</time></trkpt><trkpt lat="40.2710933" lon="15.6563733"><ele>494.0</ele><time>2026-05-03T10:15:23.885Z</time></trkpt><trkpt lat="40.2708317" lon="15.6564783"><ele>494.5</ele><time>2026-05-03T10:15:24.885Z</time></trkpt><trkpt lat="40.2705733" lon="15.65659"><ele>495.0</ele><time>2026-05-03T10:15:25.885Z</time></trkpt><trkpt lat="40.2703183" lon="15.6567067"><ele>495.0</ele><time>2026-05-03T10:15:26.885Z</time></trkpt><trkpt lat="40.2700683" lon="15.6568083"><ele>495.0</ele><time>2026-05-03T10:15:27.884Z</time></trkpt><trkpt lat="40.2698117" lon="15.6568983"><ele>496.0</ele><time>2026-05-03T10:15:28.884Z</time></trkpt><trkpt lat="40.2695517" lon="15.657"><ele>497.0</ele><time>2026-05-03T10:15:29.885Z</time></trkpt><trkpt lat="40.26929" lon="15.65711"><ele>497.0</ele><time>2026-05-03T10:15:30.885Z</time></trkpt><trkpt lat="40.269025" lon="15.657205"><ele>497.0</ele><time>2026-05-03T10:15:31.885Z</time></trkpt><trkpt lat="40.2687483" lon="15.6573017"><ele>495.0</ele><time>2026-05-03T10:15:32.885Z</time></trkpt><trkpt lat="40.268475" lon="15.6573983"><ele>493.0</ele><time>2026-05-03T10:15:33.885Z</time></trkpt><trkpt lat="40.2681883" lon="15.6574883"><ele>494.0</ele><time>2026-05-03T10:15:34.885Z</time></trkpt><trkpt lat="40.2678967" lon="15.6575667"><ele>495.0</ele><time>2026-05-03T10:15:35.885Z</time></trkpt><trkpt lat="40.2676" lon="15.6576417"><ele>495.0</ele><time>2026-05-03T10:15:36.884Z</time></trkpt><trkpt lat="40.2673033" lon="15.65771"><ele>495.0</ele><time>2026-05-03T10:15:37.885Z</time></trkpt><trkpt lat="40.2670083" lon="15.6577667"><ele>495.0</ele><time>2026-05-03T10:15:38.885Z</time></trkpt><trkpt lat="40.2667067" lon="15.6578267"><ele>495.0</ele><time>2026-05-03T10:15:39.885Z</time></trkpt><trkpt lat="40.2664167" lon="15.657875"><ele>496.0</ele><time>2026-05-03T10:15:40.885Z</time></trkpt><trkpt lat="40.266135" lon="15.6579233"><ele>497.0</ele><time>2026-05-03T10:15:41.885Z</time></trkpt><trkpt lat="40.26586" lon="15.6579767"><ele>497.5</ele><time>2026-05-03T10:15:42.884Z</time></trkpt><trkpt lat="40.265585" lon="15.6580417"><ele>498.0</ele><time>2026-05-03T10:15:43.885Z</time></trkpt><trkpt lat="40.2653117" lon="15.6581083"><ele>498.0</ele><time>2026-05-03T10:15:44.885Z</time></trkpt><trkpt lat="40.2650417" lon="15.658165"><ele>498.0</ele><time>2026-05-03T10:15:45.884Z</time></trkpt><trkpt lat="40.2647717" lon="15.658225"><ele>499.0</ele><time>2026-05-03T10:15:46.885Z</time></trkpt><trkpt lat="40.2644983" lon="15.6582683"><ele>500.0</ele><time>2026-05-03T10:15:47.885Z</time></trkpt><trkpt lat="40.2642283" lon="15.6583217"><ele>500.0</ele><time>2026-05-03T10:15:48.884Z</time></trkpt><trkpt lat="40.2639567" lon="15.65837"><ele>500.0</ele><time>2026-05-03T10:15:49.885Z</time></trkpt><trkpt lat="40.26368" lon="15.6584333"><ele>500.5</ele><time>2026-05-03T10:15:50.885Z</time></trkpt><trkpt lat="40.263405" lon="15.6584817"><ele>501.0</ele><time>2026-05-03T10:15:51.885Z</time></trkpt><trkpt lat="40.263125" lon="15.65854"><ele>501.0</ele><time>2026-05-03T10:15:52.885Z</time></trkpt><trkpt lat="40.2628517" lon="15.6585967"><ele>501.0</ele><time>2026-05-03T10:15:53.885Z</time></trkpt><trkpt lat="40.2625783" lon="15.6586567"><ele>501.5</ele><time>2026-05-03T10:15:54.885Z</time></trkpt><trkpt lat="40.2623067" lon="15.6587167"><ele>502.0</ele><time>2026-05-03T10:15:55.885Z</time></trkpt><trkpt lat="40.2620217" lon="15.658775"><ele>502.5</ele><time>2026-05-03T10:15:56.885Z</time></trkpt><trkpt lat="40.261735" lon="15.6588283"><ele>503.0</ele><time>2026-05-03T10:15:57.885Z</time></trkpt><trkpt lat="40.2614517" lon="15.6588783"><ele>503.5</ele><time>2026-05-03T10:15:58.885Z</time></trkpt><trkpt lat="40.2611633" lon="15.658935"><ele>504.0</ele><time>2026-05-03T10:15:59.885Z</time></trkpt><trkpt lat="40.2608717" lon="15.6589867"><ele>513.0</ele><time>2026-05-03T10:16:00.884Z</time></trkpt><trkpt lat="40.2605883" lon="15.6590417"><ele>522.0</ele><time>2026-05-03T10:16:01.885Z</time></trkpt><trkpt lat="40.2603033" lon="15.659105"><ele>522.0</ele><time>2026-05-03T10:16:02.884Z</time></trkpt><trkpt lat="40.2600167" lon="15.6591633"><ele>522.0</ele><time>2026-05-03T10:16:03.885Z</time></trkpt><trkpt lat="40.2597383" lon="15.6592117"><ele>530.5</ele><time>2026-05-03T10:16:04.885Z</time></trkpt><trkpt lat="40.25946" lon="15.6592683"><ele>539.0</ele><time>2026-05-03T10:16:05.885Z</time></trkpt><trkpt lat="40.2591783" lon="15.6593183"><ele>545.0</ele><time>2026-05-03T10:16:06.885Z</time></trkpt><trkpt lat="40.258895" lon="15.6593717"><ele>551.0</ele><time>2026-05-03T10:16:07.885Z</time></trkpt><trkpt lat="40.25861" lon="15.659425"><ele>549.0</ele><time>2026-05-03T10:16:08.885Z</time></trkpt><trkpt lat="40.258325" lon="15.65948"><ele>547.0</ele><time>2026-05-03T10:16:09.885Z</time></trkpt><trkpt lat="40.2517633" lon="15.6600783"><ele>552.0</ele><time>2026-05-03T10:16:31.884Z</time></trkpt><trkpt lat="40.2514583" lon="15.6600583"><ele>557.0</ele><time>2026-05-03T10:16:32.884Z</time></trkpt><trkpt lat="40.2511333" lon="15.6600467"><ele>557.0</ele><time>2026-05-03T10:16:33.884Z</time></trkpt><trkpt lat="40.2508183" lon="15.6600333"><ele>557.0</ele><time>2026-05-03T10:16:34.884Z</time></trkpt><trkpt lat="40.2505017" lon="15.660035"><ele>555.5</ele><time>2026-05-03T10:16:35.884Z</time></trkpt><trkpt lat="40.25019" lon="15.6600333"><ele>554.0</ele><time>2026-05-03T10:16:36.883Z</time></trkpt><trkpt lat="40.249885" lon="15.6600167"><ele>554.5</ele><time>2026-05-03T10:16:37.884Z</time></trkpt><trkpt lat="40.2495733" lon="15.6600133"><ele>555.0</ele><time>2026-05-03T10:16:38.884Z</time></trkpt><trkpt lat="40.24927" lon="15.66001"><ele>555.0</ele><time>2026-05-03T10:16:39.884Z</time></trkpt><trkpt lat="40.2489733" lon="15.6599917"><ele>555.0</ele><time>2026-05-03T10:16:40.884Z</time></trkpt><trkpt lat="40.2486783" lon="15.659965"><ele>556.0</ele><time>2026-05-03T10:16:41.884Z</time></trkpt><trkpt lat="40.248385" lon="15.6599483"><ele>557.0</ele><time>2026-05-03T10:16:42.884Z</time></trkpt><trkpt lat="40.2481" lon="15.6599367"><ele>559.0</ele><time>2026-05-03T10:16:43.883Z</time></trkpt><trkpt lat="40.2478033" lon="15.6599317"><ele>561.0</ele><time>2026-05-03T10:16:44.884Z</time></trkpt><trkpt lat="40.247505" lon="15.6599317"><ele>565.5</ele><time>2026-05-03T10:16:45.884Z</time></trkpt><trkpt lat="40.2472183" lon="15.6599067"><ele>570.0</ele><time>2026-05-03T10:16:46.884Z</time></trkpt><trkpt lat="40.24694" lon="15.659865"><ele>570.0</ele><time>2026-05-03T10:16:47.884Z</time></trkpt><trkpt lat="40.2466533" lon="15.6598417"><ele>570.0</ele><time>2026-05-03T10:16:48.883Z</time></trkpt><trkpt lat="40.2463617" lon="15.6598183"><ele>569.5</ele><time>2026-05-03T10:16:49.884Z</time></trkpt><trkpt lat="40.24607" lon="15.6598267"><ele>569.0</ele><time>2026-05-03T10:16:50.884Z</time></trkpt><trkpt lat="40.2457783" lon="15.6598183"><ele>570.0</ele><time>2026-05-03T10:16:51.883Z</time></trkpt><trkpt lat="40.24549" lon="15.6598033"><ele>571.0</ele><time>2026-05-03T10:16:52.883Z</time></trkpt><trkpt lat="40.2452033" lon="15.65978"><ele>571.0</ele><time>2026-05-03T10:16:53.883Z</time></trkpt><trkpt lat="40.244925" lon="15.6597767"><ele>571.0</ele><time>2026-05-03T10:16:54.884Z</time></trkpt><trkpt lat="40.2446483" lon="15.6597617"><ele>573.5</ele><time>2026-05-03T10:16:55.883Z</time></trkpt><trkpt lat="40.2443667" lon="15.65975"><ele>576.0</ele><time>2026-05-03T10:16:56.884Z</time></trkpt><trkpt lat="40.24409" lon="15.6597367"><ele>579.0</ele><time>2026-05-03T10:16:57.884Z</time></trkpt><trkpt lat="40.2438133" lon="15.6597333"><ele>582.0</ele><time>2026-05-03T10:16:58.883Z</time></trkpt><trkpt lat="40.2435383" lon="15.6597133"><ele>582.0</ele><time>2026-05-03T10:16:59.884Z</time></trkpt><trkpt lat="40.2432583" lon="15.65969"><ele>582.0</ele><time>2026-05-03T10:17:00.884Z</time></trkpt><trkpt lat="40.2429767" lon="15.6596683"><ele>580.5</ele><time>2026-05-03T10:17:01.883Z</time></trkpt><trkpt lat="40.2426917" lon="15.6596667"><ele>579.0</ele><time>2026-05-03T10:17:02.884Z</time></trkpt><trkpt lat="40.24241" lon="15.6596467"><ele>580.0</ele><time>2026-05-03T10:17:03.883Z</time></trkpt><trkpt lat="40.24213" lon="15.6596317"><ele>581.0</ele><time>2026-05-03T10:17:04.884Z</time></trkpt><trkpt lat="40.2418467" lon="15.659625"><ele>581.0</ele><time>2026-05-03T10:17:05.884Z</time></trkpt><trkpt lat="40.2415583" lon="15.6596133"><ele>581.0</ele><time>2026-05-03T10:17:06.884Z</time></trkpt><trkpt lat="40.2412667" lon="15.6595933"><ele>579.5</ele><time>2026-05-03T10:17:07.883Z</time></trkpt><trkpt lat="40.2409733" lon="15.6595767"><ele>578.0</ele><time>2026-05-03T10:17:08.884Z</time></trkpt><trkpt lat="40.2406667" lon="15.6595867"><ele>572.5</ele><time>2026-05-03T10:17:09.883Z</time></trkpt><trkpt lat="40.2403667" lon="15.6596033"><ele>567.0</ele><time>2026-05-03T10:17:10.884Z</time></trkpt><trkpt lat="40.2400617" lon="15.6596467"><ele>566.5</ele><time>2026-05-03T10:17:11.884Z</time></trkpt><trkpt lat="40.239765" lon="15.6597033"><ele>566.0</ele><time>2026-05-03T10:17:12.883Z</time></trkpt><trkpt lat="40.23947" lon="15.65976"><ele>566.0</ele><time>2026-05-03T10:17:13.884Z</time></trkpt><trkpt lat="40.239185" lon="15.6598333"><ele>566.0</ele><time>2026-05-03T10:17:14.884Z</time></trkpt><trkpt lat="40.2388933" lon="15.6599283"><ele>567.5</ele><time>2026-05-03T10:17:15.884Z</time></trkpt><trkpt lat="40.238605" lon="15.6600383"><ele>569.0</ele><time>2026-05-03T10:17:16.884Z</time></trkpt><trkpt lat="40.2383233" lon="15.66017"><ele>568.5</ele><time>2026-05-03T10:17:17.884Z</time></trkpt><trkpt lat="40.2380517" lon="15.6603267"><ele>568.0</ele><time>2026-05-03T10:17:18.884Z</time></trkpt><trkpt lat="40.237775" lon="15.660495"><ele>568.0</ele><time>2026-05-03T10:17:19.884Z</time></trkpt><trkpt lat="40.237505" lon="15.6606767"><ele>568.0</ele><time>2026-05-03T10:17:20.884Z</time></trkpt><trkpt lat="40.2372533" lon="15.6608817"><ele>568.0</ele><time>2026-05-03T10:17:21.884Z</time></trkpt><trkpt lat="40.237" lon="15.661105"><ele>568.0</ele><time>2026-05-03T10:17:22.884Z</time></trkpt><trkpt lat="40.23675" lon="15.6613467"><ele>568.0</ele><time>2026-05-03T10:17:23.884Z</time></trkpt><trkpt lat="40.2364917" lon="15.661595"><ele>568.0</ele><time>2026-05-03T10:17:24.884Z</time></trkpt><trkpt lat="40.236225" lon="15.6618367"><ele>570.5</ele><time>2026-05-03T10:17:25.884Z</time></trkpt><trkpt lat="40.235955" lon="15.66209"><ele>573.0</ele><time>2026-05-03T10:17:26.884Z</time></trkpt><trkpt lat="40.2356967" lon="15.6623483"><ele>574.0</ele><time>2026-05-03T10:17:27.884Z</time></trkpt><trkpt lat="40.2354433" lon="15.6626033"><ele>575.0</ele><time>2026-05-03T10:17:28.883Z</time></trkpt><trkpt lat="40.235185" lon="15.66285"><ele>567.0</ele><time>2026-05-03T10:17:29.883Z</time></trkpt><trkpt lat="40.2349183" lon="15.6630783"><ele>559.0</ele><time>2026-05-03T10:17:30.883Z</time></trkpt><trkpt lat="40.2346533" lon="15.6633217"><ele>559.0</ele><time>2026-05-03T10:17:31.884Z</time></trkpt><trkpt lat="40.2343967" lon="15.6635567"><ele>559.0</ele><time>2026-05-03T10:17:32.883Z</time></trkpt><trkpt lat="40.234155" lon="15.6638"><ele>569.5</ele><time>2026-05-03T10:17:33.883Z</time></trkpt><trkpt lat="40.2339033" lon="15.6640433"><ele>580.0</ele><time>2026-05-03T10:17:34.884Z</time></trkpt><trkpt lat="40.233665" lon="15.6643083"><ele>581.0</ele><time>2026-05-03T10:17:35.883Z</time></trkpt><trkpt lat="40.233425" lon="15.6645517"><ele>582.0</ele><time>2026-05-03T10:17:36.883Z</time></trkpt><trkpt lat="40.2331783" lon="15.66479"><ele>597.0</ele><time>2026-05-03T10:17:37.883Z</time></trkpt><trkpt lat="40.2329283" lon="15.6650167"><ele>612.0</ele><time>2026-05-03T10:17:38.883Z</time></trkpt><trkpt lat="40.23268" lon="15.6652533"><ele>611.5</ele><time>2026-05-03T10:17:39.884Z</time></trkpt><trkpt lat="40.2324267" lon="15.665495"><ele>611.0</ele><time>2026-05-03T10:17:40.884Z</time></trkpt><trkpt lat="40.2321733" lon="15.6657383"><ele>606.0</ele><time>2026-05-03T10:17:41.884Z</time></trkpt><trkpt lat="40.23192" lon="15.66598"><ele>601.0</ele><time>2026-05-03T10:17:42.883Z</time></trkpt><trkpt lat="40.231245" lon="15.6667717"><ele>580.0</ele><time>2026-05-03T10:17:45.884Z</time></trkpt><trkpt lat="40.231" lon="15.6669867"><ele>559.0</ele><time>2026-05-03T10:17:46.883Z</time></trkpt><trkpt lat="40.2307667" lon="15.6672167"><ele>556.0</ele><time>2026-05-03T10:17:47.884Z</time></trkpt><trkpt lat="40.2305333" lon="15.6674433"><ele>553.0</ele><time>2026-05-03T10:17:48.884Z</time></trkpt><trkpt lat="40.230295" lon="15.667675"><ele>555.5</ele><time>2026-05-03T10:17:49.884Z</time></trkpt><trkpt lat="40.2300433" lon="15.6678933"><ele>558.0</ele><time>2026-05-03T10:17:50.884Z</time></trkpt><trkpt lat="40.2298017" lon="15.66812"><ele>569.5</ele><time>2026-05-03T10:17:51.884Z</time></trkpt><trkpt lat="40.229565" lon="15.6683417"><ele>581.0</ele><time>2026-05-03T10:17:52.884Z</time></trkpt><trkpt lat="40.22933" lon="15.66857"><ele>581.5</ele><time>2026-05-03T10:17:53.883Z</time></trkpt><trkpt lat="40.2290917" lon="15.6687983"><ele>582.0</ele><time>2026-05-03T10:17:54.883Z</time></trkpt><trkpt lat="40.2288483" lon="15.66901"><ele>582.0</ele><time>2026-05-03T10:17:55.883Z</time></trkpt><trkpt lat="40.2286033" lon="15.6692133"><ele>582.0</ele><time>2026-05-03T10:17:56.884Z</time></trkpt><trkpt lat="40.22835" lon="15.6694083"><ele>587.0</ele><time>2026-05-03T10:17:57.884Z</time></trkpt><trkpt lat="40.2280933" lon="15.6696"><ele>592.0</ele><time>2026-05-03T10:17:58.883Z</time></trkpt><trkpt lat="40.2278333" lon="15.6697917"><ele>592.0</ele><time>2026-05-03T10:17:59.883Z</time></trkpt><trkpt lat="40.227565" lon="15.66997"><ele>592.0</ele><time>2026-05-03T10:18:00.884Z</time></trkpt><trkpt lat="40.227295" lon="15.6701567"><ele>597.0</ele><time>2026-05-03T10:18:01.884Z</time></trkpt><trkpt lat="40.2270317" lon="15.6703383"><ele>602.0</ele><time>2026-05-03T10:18:02.884Z</time></trkpt><trkpt lat="40.226765" lon="15.670515"><ele>602.0</ele><time>2026-05-03T10:18:03.884Z</time></trkpt><trkpt lat="40.226495" lon="15.6706883"><ele>602.0</ele><time>2026-05-03T10:18:04.884Z</time></trkpt><trkpt lat="40.22197" lon="15.671855"><ele>588.5</ele><time>2026-05-03T10:18:19.883Z</time></trkpt><trkpt lat="40.221675" lon="15.6718517"><ele>575.0</ele><time>2026-05-03T10:18:20.883Z</time></trkpt><trkpt lat="40.22136" lon="15.6718483"><ele>575.0</ele><time>2026-05-03T10:18:21.882Z</time></trkpt><trkpt lat="40.2210367" lon="15.6718467"><ele>575.0</ele><time>2026-05-03T10:18:22.882Z</time></trkpt><trkpt lat="40.2207133" lon="15.6718317"><ele>577.0</ele><time>2026-05-03T10:18:23.883Z</time></trkpt><trkpt lat="40.220405" lon="15.6718033"><ele>579.0</ele><time>2026-05-03T10:18:24.883Z</time></trkpt><trkpt lat="40.2201133" lon="15.6717783"><ele>579.0</ele><time>2026-05-03T10:18:25.883Z</time></trkpt><trkpt lat="40.219835" lon="15.6717533"><ele>579.0</ele><time>2026-05-03T10:18:26.883Z</time></trkpt><trkpt lat="40.2195617" lon="15.671725"><ele>580.0</ele><time>2026-05-03T10:18:27.883Z</time></trkpt><trkpt lat="40.219285" lon="15.6717017"><ele>581.0</ele><time>2026-05-03T10:18:28.883Z</time></trkpt><trkpt lat="40.21901" lon="15.6716767"><ele>585.0</ele><time>2026-05-03T10:18:29.882Z</time></trkpt><trkpt lat="40.2187317" lon="15.6716633"><ele>589.0</ele><time>2026-05-03T10:18:30.883Z</time></trkpt><trkpt lat="40.2184533" lon="15.6716583"><ele>589.0</ele><time>2026-05-03T10:18:31.882Z</time></trkpt><trkpt lat="40.2181783" lon="15.6716683"><ele>589.0</ele><time>2026-05-03T10:18:32.883Z</time></trkpt><trkpt lat="40.2179" lon="15.6716817"><ele>592.5</ele><time>2026-05-03T10:18:33.883Z</time></trkpt><trkpt lat="40.2176283" lon="15.6716967"><ele>596.0</ele><time>2026-05-03T10:18:34.882Z</time></trkpt><trkpt lat="40.2173583" lon="15.6717283"><ele>601.5</ele><time>2026-05-03T10:18:35.882Z</time></trkpt><trkpt lat="40.21709" lon="15.6717683"><ele>607.0</ele><time>2026-05-03T10:18:36.883Z</time></trkpt><trkpt lat="40.21682" lon="15.67181"><ele>607.0</ele><time>2026-05-03T10:18:37.883Z</time></trkpt><trkpt lat="40.2165433" lon="15.6718633"><ele>607.0</ele><time>2026-05-03T10:18:38.882Z</time></trkpt><trkpt lat="40.21627" lon="15.671925"><ele>601.5</ele><time>2026-05-03T10:18:39.883Z</time></trkpt><trkpt lat="40.2159917" lon="15.671995"><ele>596.0</ele><time>2026-05-03T10:18:40.882Z</time></trkpt><trkpt lat="40.215725" lon="15.67207"><ele>593.0</ele><time>2026-05-03T10:18:41.882Z</time></trkpt><trkpt lat="40.2154583" lon="15.6721567"><ele>590.0</ele><time>2026-05-03T10:18:42.883Z</time></trkpt><trkpt lat="40.2151783" lon="15.6722483"><ele>590.0</ele><time>2026-05-03T10:18:43.883Z</time></trkpt><trkpt lat="40.21491" lon="15.6723433"><ele>590.0</ele><time>2026-05-03T10:18:44.883Z</time></trkpt><trkpt lat="40.214645" lon="15.6724583"><ele>586.0</ele><time>2026-05-03T10:18:45.883Z</time></trkpt><trkpt lat="40.2143817" lon="15.672575"><ele>582.0</ele><time>2026-05-03T10:18:46.883Z</time></trkpt><trkpt lat="40.2141167" lon="15.6727133"><ele>598.0</ele><time>2026-05-03T10:18:47.882Z</time></trkpt><trkpt lat="40.213855" lon="15.67285"><ele>614.0</ele><time>2026-05-03T10:18:48.883Z</time></trkpt><trkpt lat="40.213595" lon="15.672995"><ele>614.0</ele><time>2026-05-03T10:18:49.883Z</time></trkpt><trkpt lat="40.21335" lon="15.67314"><ele>614.0</ele><time>2026-05-03T10:18:50.883Z</time></trkpt><trkpt lat="40.2131033" lon="15.673285"><ele>648.0</ele><time>2026-05-03T10:18:51.883Z</time></trkpt><trkpt lat="40.2128667" lon="15.67344"><ele>682.0</ele><time>2026-05-03T10:18:52.883Z</time></trkpt><trkpt lat="40.2126183" lon="15.67359"><ele>684.5</ele><time>2026-05-03T10:18:53.883Z</time></trkpt><trkpt lat="40.2123683" lon="15.6737383"><ele>687.0</ele><time>2026-05-03T10:18:54.883Z</time></trkpt><trkpt lat="40.2121183" lon="15.6738867"><ele>669.0</ele><time>2026-05-03T10:18:55.883Z</time></trkpt><trkpt lat="40.2004683" lon="15.686765"><ele>659.0</ele><time>2026-05-03T10:19:45.884Z</time></trkpt><trkpt lat="40.200225" lon="15.6870367"><ele>649.0</ele><time>2026-05-03T10:19:46.884Z</time></trkpt><trkpt lat="40.1999933" lon="15.6873217"><ele>651.0</ele><time>2026-05-03T10:19:47.884Z</time></trkpt><trkpt lat="40.1997717" lon="15.6875933"><ele>653.0</ele><time>2026-05-03T10:19:48.884Z</time></trkpt><trkpt lat="40.199545" lon="15.6878683"><ele>653.0</ele><time>2026-05-03T10:19:49.884Z</time></trkpt><trkpt lat="40.19932" lon="15.68815"><ele>653.0</ele><time>2026-05-03T10:19:50.884Z</time></trkpt><trkpt lat="40.1991133" lon="15.68844"><ele>656.0</ele><time>2026-05-03T10:19:51.884Z</time></trkpt><trkpt lat="40.1989217" lon="15.6887383"><ele>659.0</ele><time>2026-05-03T10:19:52.884Z</time></trkpt><trkpt lat="40.1987467" lon="15.6890367"><ele>659.0</ele><time>2026-05-03T10:19:53.884Z</time></trkpt><trkpt lat="40.198575" lon="15.6893567"><ele>659.0</ele><time>2026-05-03T10:19:54.884Z</time></trkpt><trkpt lat="40.1984067" lon="15.689665"><ele>656.5</ele><time>2026-05-03T10:19:55.884Z</time></trkpt><trkpt lat="40.19825" lon="15.6899767"><ele>654.0</ele><time>2026-05-03T10:19:56.883Z</time></trkpt><trkpt lat="40.198095" lon="15.6902933"><ele>651.0</ele><time>2026-05-03T10:19:57.884Z</time></trkpt><trkpt lat="40.19795" lon="15.6906317"><ele>648.0</ele><time>2026-05-03T10:19:58.884Z</time></trkpt><trkpt lat="40.1978267" lon="15.6909833"><ele>644.5</ele><time>2026-05-03T10:19:59.883Z</time></trkpt><trkpt lat="40.1977133" lon="15.6913467"><ele>641.0</ele><time>2026-05-03T10:20:00.883Z</time></trkpt><trkpt lat="40.197595" lon="15.6916917"><ele>640.5</ele><time>2026-05-03T10:20:01.884Z</time></trkpt><trkpt lat="40.197485" lon="15.6920367"><ele>640.0</ele><time>2026-05-03T10:20:02.884Z</time></trkpt><trkpt lat="40.1973817" lon="15.6923917"><ele>647.0</ele><time>2026-05-03T10:20:03.884Z</time></trkpt><trkpt lat="40.1972767" lon="15.692745"><ele>654.0</ele><time>2026-05-03T10:20:04.884Z</time></trkpt><trkpt lat="40.1971867" lon="15.6930967"><ele>654.0</ele><time>2026-05-03T10:20:05.884Z</time></trkpt><trkpt lat="40.197095" lon="15.6934417"><ele>654.0</ele><time>2026-05-03T10:20:06.884Z</time></trkpt><trkpt lat="40.1969917" lon="15.6937833"><ele>646.5</ele><time>2026-05-03T10:20:07.884Z</time></trkpt><trkpt lat="40.1968783" lon="15.6941167"><ele>639.0</ele><time>2026-05-03T10:20:08.883Z</time></trkpt><trkpt lat="40.1967633" lon="15.69446"><ele>633.5</ele><time>2026-05-03T10:20:09.884Z</time></trkpt><trkpt lat="40.1966483" lon="15.6948067"><ele>628.0</ele><time>2026-05-03T10:20:10.884Z</time></trkpt><trkpt lat="40.19653" lon="15.6951533"><ele>631.5</ele><time>2026-05-03T10:20:11.884Z</time></trkpt><trkpt lat="40.1964033" lon="15.6954983"><ele>635.0</ele><time>2026-05-03T10:20:12.884Z</time></trkpt><trkpt lat="40.1962767" lon="15.6958417"><ele>635.0</ele><time>2026-05-03T10:20:13.883Z</time></trkpt><trkpt lat="40.1961533" lon="15.6961833"><ele>635.0</ele><time>2026-05-03T10:20:14.884Z</time></trkpt><trkpt lat="40.1960333" lon="15.69652"><ele>635.0</ele><time>2026-05-03T10:20:15.884Z</time></trkpt><trkpt lat="40.1959167" lon="15.6968533"><ele>635.0</ele><time>2026-05-03T10:20:16.884Z</time></trkpt><trkpt lat="40.1958" lon="15.6971967"><ele>633.5</ele><time>2026-05-03T10:20:17.884Z</time></trkpt><trkpt lat="40.195685" lon="15.6975433"><ele>632.0</ele><time>2026-05-03T10:20:18.883Z</time></trkpt><trkpt lat="40.195565" lon="15.6978833"><ele>632.0</ele><time>2026-05-03T10:20:19.883Z</time></trkpt><trkpt lat="40.19545" lon="15.698225"><ele>632.0</ele><time>2026-05-03T10:20:20.884Z</time></trkpt><trkpt lat="40.1953283" lon="15.6985633"><ele>626.5</ele><time>2026-05-03T10:20:21.884Z</time></trkpt><trkpt lat="40.1952083" lon="15.6989017"><ele>621.0</ele><time>2026-05-03T10:20:22.884Z</time></trkpt><trkpt lat="40.1950867" lon="15.6992433"><ele>619.0</ele><time>2026-05-03T10:20:23.884Z</time></trkpt><trkpt lat="40.194965" lon="15.6995883"><ele>617.0</ele><time>2026-05-03T10:20:24.883Z</time></trkpt><trkpt lat="40.1948367" lon="15.69993"><ele>610.0</ele><time>2026-05-03T10:20:25.884Z</time></trkpt><trkpt lat="40.1947017" lon="15.7002717"><ele>603.0</ele><time>2026-05-03T10:20:26.883Z</time></trkpt><trkpt lat="40.1945617" lon="15.7006017"><ele>603.0</ele><time>2026-05-03T10:20:27.884Z</time></trkpt><trkpt lat="40.1944233" lon="15.7009333"><ele>603.0</ele><time>2026-05-03T10:20:28.883Z</time></trkpt><trkpt lat="40.19428" lon="15.701245"><ele>607.5</ele><time>2026-05-03T10:20:29.884Z</time></trkpt><trkpt lat="40.1941267" lon="15.7015483"><ele>612.0</ele><time>2026-05-03T10:20:30.884Z</time></trkpt><trkpt lat="40.193975" lon="15.7018433"><ele>621.5</ele><time>2026-05-03T10:20:31.884Z</time></trkpt><trkpt lat="40.193815" lon="15.7021317"><ele>631.0</ele><time>2026-05-03T10:20:32.884Z</time></trkpt><trkpt lat="40.1936433" lon="15.7024333"><ele>631.0</ele><time>2026-05-03T10:20:33.884Z</time></trkpt><trkpt lat="40.1934583" lon="15.7027233"><ele>631.0</ele><time>2026-05-03T10:20:34.883Z</time></trkpt><trkpt lat="40.1932683" lon="15.70301"><ele>636.5</ele><time>2026-05-03T10:20:35.883Z</time></trkpt><trkpt lat="40.19308" lon="15.703295"><ele>642.0</ele><time>2026-05-03T10:20:36.884Z</time></trkpt><trkpt lat="40.1928817" lon="15.7035683"><ele>643.5</ele><time>2026-05-03T10:20:37.883Z</time></trkpt><trkpt lat="40.19268" lon="15.7038283"><ele>645.0</ele><time>2026-05-03T10:20:38.883Z</time></trkpt><trkpt lat="40.1924767" lon="15.7040717"><ele>648.0</ele><time>2026-05-03T10:20:39.884Z</time></trkpt><trkpt lat="40.1922683" lon="15.7043067"><ele>651.0</ele><time>2026-05-03T10:20:40.884Z</time></trkpt><trkpt lat="40.192055" lon="15.7045383"><ele>653.0</ele><time>2026-05-03T10:20:41.883Z</time></trkpt><trkpt lat="40.191835" lon="15.70476"><ele>655.0</ele><time>2026-05-03T10:20:42.884Z</time></trkpt><trkpt lat="40.19161" lon="15.70498"><ele>660.5</ele><time>2026-05-03T10:20:43.884Z</time></trkpt><trkpt lat="40.1913733" lon="15.7051917"><ele>666.0</ele><time>2026-05-03T10:20:44.884Z</time></trkpt><trkpt lat="40.19114" lon="15.705395"><ele>670.0</ele><time>2026-05-03T10:20:45.883Z</time></trkpt><trkpt lat="40.190905" lon="15.7056033"><ele>674.0</ele><time>2026-05-03T10:20:46.883Z</time></trkpt><trkpt lat="40.19067" lon="15.70581"><ele>681.0</ele><time>2026-05-03T10:20:47.884Z</time></trkpt><trkpt lat="40.1904283" lon="15.706025"><ele>688.0</ele><time>2026-05-03T10:20:48.884Z</time></trkpt><trkpt lat="40.19019" lon="15.7062367"><ele>648.0</ele><time>2026-05-03T10:20:49.884Z</time></trkpt><trkpt lat="40.1867183" lon="15.70816"><ele>649.0</ele><time>2026-05-03T10:21:02.885Z</time></trkpt><trkpt lat="40.1864167" lon="15.7083983"><ele>650.0</ele><time>2026-05-03T10:21:03.886Z</time></trkpt><trkpt lat="40.1861467" lon="15.7085867"><ele>650.0</ele><time>2026-05-03T10:21:04.885Z</time></trkpt><trkpt lat="40.1858967" lon="15.7087833"><ele>650.0</ele><time>2026-05-03T10:21:05.885Z</time></trkpt><trkpt lat="40.1856533" lon="15.70899"><ele>651.5</ele><time>2026-05-03T10:21:06.886Z</time></trkpt><trkpt lat="40.1854083" lon="15.7091983"><ele>653.0</ele><time>2026-05-03T10:21:07.886Z</time></trkpt><trkpt lat="40.185165" lon="15.7094067"><ele>654.0</ele><time>2026-05-03T10:21:08.885Z</time></trkpt><trkpt lat="40.1849183" lon="15.709615"><ele>655.0</ele><time>2026-05-03T10:21:09.885Z</time></trkpt><trkpt lat="40.1846633" lon="15.70983"><ele>650.5</ele><time>2026-05-03T10:21:10.885Z</time></trkpt><trkpt lat="40.1844117" lon="15.7100417"><ele>646.0</ele><time>2026-05-03T10:21:11.886Z</time></trkpt><trkpt lat="40.1841583" lon="15.71024"><ele>646.5</ele><time>2026-05-03T10:21:12.886Z</time></trkpt><trkpt lat="40.1839117" lon="15.7104467"><ele>647.0</ele><time>2026-05-03T10:21:13.885Z</time></trkpt><trkpt lat="40.18366" lon="15.7106617"><ele>647.0</ele><time>2026-05-03T10:21:14.886Z</time></trkpt><trkpt lat="40.1834033" lon="15.7108717"><ele>647.0</ele><time>2026-05-03T10:21:15.886Z</time></trkpt><trkpt lat="40.18315" lon="15.7110817"><ele>645.5</ele><time>2026-05-03T10:21:16.885Z</time></trkpt><trkpt lat="40.1829033" lon="15.71129"><ele>644.0</ele><time>2026-05-03T10:21:17.885Z</time></trkpt><trkpt lat="40.1826433" lon="15.711495"><ele>644.0</ele><time>2026-05-03T10:21:18.886Z</time></trkpt><trkpt lat="40.1823817" lon="15.71171"><ele>644.0</ele><time>2026-05-03T10:21:19.886Z</time></trkpt><trkpt lat="40.182125" lon="15.7119233"><ele>644.5</ele><time>2026-05-03T10:21:20.886Z</time></trkpt><trkpt lat="40.18187" lon="15.7121383"><ele>645.0</ele><time>2026-05-03T10:21:21.886Z</time></trkpt><trkpt lat="40.181615" lon="15.7123433"><ele>642.0</ele><time>2026-05-03T10:21:22.886Z</time></trkpt><trkpt lat="40.1813683" lon="15.7125583"><ele>639.0</ele><time>2026-05-03T10:21:23.886Z</time></trkpt><trkpt lat="40.181115" lon="15.7127683"><ele>641.5</ele><time>2026-05-03T10:21:24.886Z</time></trkpt><trkpt lat="40.1808617" lon="15.71299"><ele>644.0</ele><time>2026-05-03T10:21:25.885Z</time></trkpt><trkpt lat="40.1806083" lon="15.7131983"><ele>644.0</ele><time>2026-05-03T10:21:26.886Z</time></trkpt><trkpt lat="40.1803483" lon="15.71341"><ele>644.0</ele><time>2026-05-03T10:21:27.886Z</time></trkpt><trkpt lat="40.1800967" lon="15.7136233"><ele>646.0</ele><time>2026-05-03T10:21:28.886Z</time></trkpt><trkpt lat="40.17985" lon="15.71383"><ele>648.0</ele><time>2026-05-03T10:21:29.886Z</time></trkpt><trkpt lat="40.1796067" lon="15.7140333"><ele>648.0</ele><time>2026-05-03T10:21:30.886Z</time></trkpt><trkpt lat="40.1793517" lon="15.7142433"><ele>648.0</ele><time>2026-05-03T10:21:31.886Z</time></trkpt><trkpt lat="40.179095" lon="15.7144433"><ele>643.5</ele><time>2026-05-03T10:21:32.886Z</time></trkpt><trkpt lat="40.1788467" lon="15.71465"><ele>639.0</ele><time>2026-05-03T10:21:33.886Z</time></trkpt><trkpt lat="40.1786117" lon="15.714865"><ele>639.0</ele><time>2026-05-03T10:21:34.886Z</time></trkpt><trkpt lat="40.17836" lon="15.7150683"><ele>639.0</ele><time>2026-05-03T10:21:35.886Z</time></trkpt><trkpt lat="40.178115" lon="15.715265"><ele>647.5</ele><time>2026-05-03T10:21:36.885Z</time></trkpt><trkpt lat="40.1778717" lon="15.715475"><ele>656.0</ele><time>2026-05-03T10:21:37.886Z</time></trkpt><trkpt lat="40.17763" lon="15.7156767"><ele>656.0</ele><time>2026-05-03T10:21:38.886Z</time></trkpt><trkpt lat="40.177385" lon="15.7158783"><ele>656.0</ele><time>2026-05-03T10:21:39.886Z</time></trkpt><trkpt lat="40.1771417" lon="15.716085"><ele>654.5</ele><time>2026-05-03T10:21:40.885Z</time></trkpt><trkpt lat="40.1768967" lon="15.7162867"><ele>653.0</ele><time>2026-05-03T10:21:41.886Z</time></trkpt><trkpt lat="40.1766533" lon="15.7165"><ele>651.0</ele><time>2026-05-03T10:21:42.886Z</time></trkpt><trkpt lat="40.176405" lon="15.71671"><ele>649.0</ele><time>2026-05-03T10:21:43.886Z</time></trkpt><trkpt lat="40.1761633" lon="15.716915"><ele>655.0</ele><time>2026-05-03T10:21:44.886Z</time></trkpt><trkpt lat="40.1759167" lon="15.71712"><ele>661.0</ele><time>2026-05-03T10:21:45.885Z</time></trkpt><trkpt lat="40.1756733" lon="15.7173183"><ele>661.0</ele><time>2026-05-03T10:21:46.886Z</time></trkpt><trkpt lat="40.175425" lon="15.7175117"><ele>661.0</ele><time>2026-05-03T10:21:47.886Z</time></trkpt><trkpt lat="40.1751817" lon="15.7177033"><ele>658.5</ele><time>2026-05-03T10:21:48.885Z</time></trkpt><trkpt lat="40.1749433" lon="15.717905"><ele>656.0</ele><time>2026-05-03T10:21:49.886Z</time></trkpt><trkpt lat="40.1747117" lon="15.71812"><ele>656.0</ele><time>2026-05-03T10:21:50.886Z</time></trkpt><trkpt lat="40.1744883" lon="15.71834"><ele>656.0</ele><time>2026-05-03T10:21:51.886Z</time></trkpt><trkpt lat="40.1742633" lon="15.7185583"><ele>660.0</ele><time>2026-05-03T10:21:52.886Z</time></trkpt><trkpt lat="40.17404" lon="15.7187867"><ele>664.0</ele><time>2026-05-03T10:21:53.885Z</time></trkpt><trkpt lat="40.1738267" lon="15.7190333"><ele>665.0</ele><time>2026-05-03T10:21:54.885Z</time></trkpt><trkpt lat="40.1736267" lon="15.719285"><ele>666.0</ele><time>2026-05-03T10:21:55.885Z</time></trkpt><trkpt lat="40.17343" lon="15.7195517"><ele>668.0</ele><time>2026-05-03T10:21:56.886Z</time></trkpt><trkpt lat="40.17323" lon="15.719835"><ele>670.0</ele><time>2026-05-03T10:21:57.885Z</time></trkpt><trkpt lat="40.17305" lon="15.7201383"><ele>671.5</ele><time>2026-05-03T10:21:58.886Z</time></trkpt><trkpt lat="40.1728717" lon="15.7204417"><ele>673.0</ele><time>2026-05-03T10:21:59.886Z</time></trkpt><trkpt lat="40.172695" lon="15.72075"><ele>673.0</ele><time>2026-05-03T10:22:00.886Z</time></trkpt><trkpt lat="40.17251" lon="15.7210567"><ele>673.0</ele><time>2026-05-03T10:22:01.886Z</time></trkpt><trkpt lat="40.1723267" lon="15.7213583"><ele>670.0</ele><time>2026-05-03T10:22:02.886Z</time></trkpt><trkpt lat="40.1721333" lon="15.721645"><ele>667.0</ele><time>2026-05-03T10:22:03.886Z</time></trkpt><trkpt lat="40.17195" lon="15.72193"><ele>667.0</ele><time>2026-05-03T10:22:04.886Z</time></trkpt><trkpt lat="40.1717883" lon="15.72221"><ele>667.0</ele><time>2026-05-03T10:22:05.886Z</time></trkpt><trkpt lat="40.171615" lon="15.7224983"><ele>675.5</ele><time>2026-05-03T10:22:06.886Z</time></trkpt><trkpt lat="40.171435" lon="15.72278"><ele>684.0</ele><time>2026-05-03T10:22:07.886Z</time></trkpt><trkpt lat="40.1712417" lon="15.7230733"><ele>684.0</ele><time>2026-05-03T10:22:08.886Z</time></trkpt><trkpt lat="40.1710533" lon="15.7233467"><ele>684.0</ele><time>2026-05-03T10:22:09.886Z</time></trkpt><trkpt lat="40.1708617" lon="15.72362"><ele>689.5</ele><time>2026-05-03T10:22:10.886Z</time></trkpt><trkpt lat="40.1706567" lon="15.7238817"><ele>695.0</ele><time>2026-05-03T10:22:11.885Z</time></trkpt><trkpt lat="40.1704333" lon="15.724125"><ele>695.0</ele><time>2026-05-03T10:22:12.886Z</time></trkpt><trkpt lat="40.1702017" lon="15.7243617"><ele>695.0</ele><time>2026-05-03T10:22:13.886Z</time></trkpt><trkpt lat="40.169965" lon="15.7245883"><ele>691.5</ele><time>2026-05-03T10:22:14.886Z</time></trkpt><trkpt lat="40.16972" lon="15.7248083"><ele>688.0</ele><time>2026-05-03T10:22:15.886Z</time></trkpt><trkpt lat="40.1694717" lon="15.7250183"><ele>688.0</ele><time>2026-05-03T10:22:16.885Z</time></trkpt><trkpt lat="40.1692167" lon="15.7252367"><ele>688.0</ele><time>2026-05-03T10:22:17.885Z</time></trkpt><trkpt lat="40.16897" lon="15.7254433"><ele>687.0</ele><time>2026-05-03T10:22:18.886Z</time></trkpt><trkpt lat="40.1687367" lon="15.72565"><ele>686.0</ele><time>2026-05-03T10:22:19.886Z</time></trkpt><trkpt lat="40.16851" lon="15.72585"><ele>686.0</ele><time>2026-05-03T10:22:20.886Z</time></trkpt><trkpt lat="40.16828" lon="15.7260533"><ele>686.0</ele><time>2026-05-03T10:22:21.885Z</time></trkpt><trkpt lat="40.168055" lon="15.7262467"><ele>689.0</ele><time>2026-05-03T10:22:22.885Z</time></trkpt><trkpt lat="40.1678333" lon="15.7264383"><ele>692.0</ele><time>2026-05-03T10:22:23.886Z</time></trkpt><trkpt lat="40.16762" lon="15.7266283"><ele>692.0</ele><time>2026-05-03T10:22:24.885Z</time></trkpt><trkpt lat="40.16741" lon="15.726815"><ele>692.0</ele><time>2026-05-03T10:22:25.886Z</time></trkpt><trkpt lat="40.1671967" lon="15.7270033"><ele>689.5</ele><time>2026-05-03T10:22:26.886Z</time></trkpt><trkpt lat="40.1669783" lon="15.7271883"><ele>687.0</ele><time>2026-05-03T10:22:27.886Z</time></trkpt><trkpt lat="40.16677" lon="15.7273817"><ele>687.0</ele><time>2026-05-03T10:22:28.886Z</time></trkpt><trkpt lat="40.1665667" lon="15.7275833"><ele>687.0</ele><time>2026-05-03T10:22:29.886Z</time></trkpt><trkpt lat="40.1663683" lon="15.7278067"><ele>690.5</ele><time>2026-05-03T10:22:30.886Z</time></trkpt><trkpt lat="40.1661767" lon="15.72804"><ele>694.0</ele><time>2026-05-03T10:22:31.886Z</time></trkpt><trkpt lat="40.1659733" lon="15.72829"><ele>694.0</ele><time>2026-05-03T10:22:32.886Z</time></trkpt><trkpt lat="40.1657767" lon="15.728555"><ele>694.0</ele><time>2026-05-03T10:22:33.886Z</time></trkpt><trkpt lat="40.1655733" lon="15.7288233"><ele>696.0</ele><time>2026-05-03T10:22:34.885Z</time></trkpt><trkpt lat="40.1653767" lon="15.7290933"><ele>698.0</ele><time>2026-05-03T10:22:35.886Z</time></trkpt><trkpt lat="40.1651567" lon="15.7293783"><ele>704.5</ele><time>2026-05-03T10:22:36.886Z</time></trkpt><trkpt lat="40.1649317" lon="15.7296617"><ele>711.0</ele><time>2026-05-03T10:22:37.885Z</time></trkpt><trkpt lat="40.1646967" lon="15.729955"><ele>738.0</ele><time>2026-05-03T10:22:38.886Z</time></trkpt><trkpt lat="40.164465" lon="15.7302567"><ele>765.0</ele><time>2026-05-03T10:22:39.886Z</time></trkpt><trkpt lat="40.1642417" lon="15.7305617"><ele>784.0</ele><time>2026-05-03T10:22:40.886Z</time></trkpt><trkpt lat="40.1640217" lon="15.7308717"><ele>803.0</ele><time>2026-05-03T10:22:41.886Z</time></trkpt><trkpt lat="40.1637983" lon="15.731175"><ele>814.0</ele><time>2026-05-03T10:22:42.885Z</time></trkpt><trkpt lat="40.163575" lon="15.7314817"><ele>825.0</ele><time>2026-05-03T10:22:43.886Z</time></trkpt><trkpt lat="40.1609567" lon="15.734745"><ele>766.0</ele><time>2026-05-03T10:22:55.883Z</time></trkpt><trkpt lat="40.1607483" lon="15.735005"><ele>707.0</ele><time>2026-05-03T10:22:56.884Z</time></trkpt><trkpt lat="40.1605367" lon="15.7352817"><ele>694.0</ele><time>2026-05-03T10:22:57.883Z</time></trkpt><trkpt lat="40.16033" lon="15.7355483"><ele>681.0</ele><time>2026-05-03T10:22:58.883Z</time></trkpt><trkpt lat="40.1601083" lon="15.7358133"><ele>681.0</ele><time>2026-05-03T10:22:59.884Z</time></trkpt><trkpt lat="40.159905" lon="15.7360767"><ele>681.0</ele><time>2026-05-03T10:23:00.884Z</time></trkpt><trkpt lat="40.1597033" lon="15.7363333"><ele>681.0</ele><time>2026-05-03T10:23:01.884Z</time></trkpt><trkpt lat="40.1595017" lon="15.7366"><ele>681.0</ele><time>2026-05-03T10:23:02.884Z</time></trkpt><trkpt lat="40.1593033" lon="15.7368517"><ele>682.5</ele><time>2026-05-03T10:23:03.883Z</time></trkpt><trkpt lat="40.1591033" lon="15.7371167"><ele>684.0</ele><time>2026-05-03T10:23:04.884Z</time></trkpt><trkpt lat="40.1589017" lon="15.7373767"><ele>686.0</ele><time>2026-05-03T10:23:05.884Z</time></trkpt><trkpt lat="40.1587" lon="15.73764"><ele>688.0</ele><time>2026-05-03T10:23:06.884Z</time></trkpt><trkpt lat="40.1585" lon="15.7378867"><ele>694.5</ele><time>2026-05-03T10:23:07.884Z</time></trkpt><trkpt lat="40.1583033" lon="15.7381417"><ele>701.0</ele><time>2026-05-03T10:23:08.884Z</time></trkpt><trkpt lat="40.1581067" lon="15.7384083"><ele>706.0</ele><time>2026-05-03T10:23:09.884Z</time></trkpt><trkpt lat="40.1579217" lon="15.7386767"><ele>711.0</ele><time>2026-05-03T10:23:10.884Z</time></trkpt><trkpt lat="40.1577483" lon="15.7389467"><ele>711.0</ele><time>2026-05-03T10:23:11.883Z</time></trkpt><trkpt lat="40.1575933" lon="15.739235"><ele>711.0</ele><time>2026-05-03T10:23:12.883Z</time></trkpt><trkpt lat="40.157445" lon="15.73952"><ele>708.0</ele><time>2026-05-03T10:23:13.884Z</time></trkpt><trkpt lat="40.157295" lon="15.7398167"><ele>705.0</ele><time>2026-05-03T10:23:14.884Z</time></trkpt><trkpt lat="40.157145" lon="15.74011"><ele>709.0</ele><time>2026-05-03T10:23:15.883Z</time></trkpt><trkpt lat="40.156995" lon="15.740405"><ele>713.0</ele><time>2026-05-03T10:23:16.884Z</time></trkpt><trkpt lat="40.1568533" lon="15.7406783"><ele>713.0</ele><time>2026-05-03T10:23:17.884Z</time></trkpt><trkpt lat="40.1567067" lon="15.7409617"><ele>713.0</ele><time>2026-05-03T10:23:18.884Z</time></trkpt><trkpt lat="40.1565533" lon="15.74125"><ele>712.5</ele><time>2026-05-03T10:23:19.884Z</time></trkpt><trkpt lat="40.1563983" lon="15.7415383"><ele>712.0</ele><time>2026-05-03T10:23:20.884Z</time></trkpt><trkpt lat="40.1562483" lon="15.7418317"><ele>715.5</ele><time>2026-05-03T10:23:21.884Z</time></trkpt><trkpt lat="40.156095" lon="15.7421317"><ele>719.0</ele><time>2026-05-03T10:23:22.883Z</time></trkpt><trkpt lat="40.1559383" lon="15.74243"><ele>721.5</ele><time>2026-05-03T10:23:23.884Z</time></trkpt><trkpt lat="40.1557817" lon="15.742725"><ele>724.0</ele><time>2026-05-03T10:23:24.883Z</time></trkpt><trkpt lat="40.15562" lon="15.743035"><ele>724.0</ele><time>2026-05-03T10:23:25.884Z</time></trkpt><trkpt lat="40.1554483" lon="15.74334"><ele>724.0</ele><time>2026-05-03T10:23:26.884Z</time></trkpt><trkpt lat="40.1552867" lon="15.7436533"><ele>728.0</ele><time>2026-05-03T10:23:27.884Z</time></trkpt><trkpt lat="40.1551267" lon="15.7439867"><ele>732.0</ele><time>2026-05-03T10:23:28.883Z</time></trkpt><trkpt lat="40.154965" lon="15.7443083"><ele>733.0</ele><time>2026-05-03T10:23:29.883Z</time></trkpt><trkpt lat="40.1548067" lon="15.744625"><ele>734.0</ele><time>2026-05-03T10:23:30.884Z</time></trkpt><trkpt lat="40.1546467" lon="15.7449417"><ele>738.0</ele><time>2026-05-03T10:23:31.883Z</time></trkpt><trkpt lat="40.1544883" lon="15.7452417"><ele>742.0</ele><time>2026-05-03T10:23:32.884Z</time></trkpt><trkpt lat="40.1543317" lon="15.7455233"><ele>742.0</ele><time>2026-05-03T10:23:33.884Z</time></trkpt><trkpt lat="40.1541783" lon="15.74582"><ele>742.0</ele><time>2026-05-03T10:23:34.884Z</time></trkpt><trkpt lat="40.1540183" lon="15.74612"><ele>743.5</ele><time>2026-05-03T10:23:35.884Z</time></trkpt><trkpt lat="40.153855" lon="15.74642"><ele>745.0</ele><time>2026-05-03T10:23:36.884Z</time></trkpt><trkpt lat="40.153695" lon="15.7467183"><ele>751.0</ele><time>2026-05-03T10:23:37.884Z</time></trkpt><trkpt lat="40.1535333" lon="15.74701"><ele>757.0</ele><time>2026-05-03T10:23:38.884Z</time></trkpt><trkpt lat="40.1533717" lon="15.7473017"><ele>756.0</ele><time>2026-05-03T10:23:39.884Z</time></trkpt><trkpt lat="40.1531883" lon="15.747585"><ele>755.0</ele><time>2026-05-03T10:23:40.884Z</time></trkpt><trkpt lat="40.153" lon="15.7478633"><ele>758.0</ele><time>2026-05-03T10:23:41.884Z</time></trkpt><trkpt lat="40.1528083" lon="15.7481217"><ele>761.0</ele><time>2026-05-03T10:23:42.884Z</time></trkpt><trkpt lat="40.1526167" lon="15.7483517"><ele>762.5</ele><time>2026-05-03T10:23:43.884Z</time></trkpt><trkpt lat="40.1524133" lon="15.7485683"><ele>764.0</ele><time>2026-05-03T10:23:44.884Z</time></trkpt><trkpt lat="40.1522033" lon="15.7487717"><ele>766.0</ele><time>2026-05-03T10:23:45.883Z</time></trkpt><trkpt lat="40.1519867" lon="15.748965"><ele>768.0</ele><time>2026-05-03T10:23:46.884Z</time></trkpt><trkpt lat="40.1517633" lon="15.7491517"><ele>770.0</ele><time>2026-05-03T10:23:47.883Z</time></trkpt><trkpt lat="40.15153" lon="15.7493267"><ele>772.0</ele><time>2026-05-03T10:23:48.883Z</time></trkpt><trkpt lat="40.1512933" lon="15.7495017"><ele>775.0</ele><time>2026-05-03T10:23:49.883Z</time></trkpt><trkpt lat="40.15105" lon="15.7496633"><ele>778.0</ele><time>2026-05-03T10:23:50.884Z</time></trkpt><trkpt lat="40.1508083" lon="15.7498283"><ele>780.0</ele><time>2026-05-03T10:23:51.883Z</time></trkpt><trkpt lat="40.1505533" lon="15.749985"><ele>782.0</ele><time>2026-05-03T10:23:52.884Z</time></trkpt><trkpt lat="40.1502883" lon="15.75015"><ele>784.5</ele><time>2026-05-03T10:23:53.884Z</time></trkpt><trkpt lat="40.15001" lon="15.7503267"><ele>787.0</ele><time>2026-05-03T10:23:54.884Z</time></trkpt><trkpt lat="40.1497183" lon="15.7504917"><ele>787.0</ele><time>2026-05-03T10:23:55.884Z</time></trkpt><trkpt lat="40.1494167" lon="15.75066"><ele>787.0</ele><time>2026-05-03T10:23:56.884Z</time></trkpt><trkpt lat="40.149115" lon="15.750835"><ele>785.0</ele><time>2026-05-03T10:23:57.884Z</time></trkpt><trkpt lat="40.1488233" lon="15.75101"><ele>783.0</ele><time>2026-05-03T10:23:58.884Z</time></trkpt><trkpt lat="40.148545" lon="15.7512033"><ele>788.0</ele><time>2026-05-03T10:23:59.884Z</time></trkpt><trkpt lat="40.1482633" lon="15.7513983"><ele>793.0</ele><time>2026-05-03T10:24:00.883Z</time></trkpt><trkpt lat="40.1479917" lon="15.7515933"><ele>798.0</ele><time>2026-05-03T10:24:01.884Z</time></trkpt><trkpt lat="40.14772" lon="15.7517833"><ele>803.0</ele><time>2026-05-03T10:24:02.884Z</time></trkpt><trkpt lat="40.1474433" lon="15.751985"><ele>816.0</ele><time>2026-05-03T10:24:03.884Z</time></trkpt><trkpt lat="40.1471683" lon="15.7522083"><ele>829.0</ele><time>2026-05-03T10:24:04.884Z</time></trkpt><trkpt lat="40.14689" lon="15.75242"><ele>829.0</ele><time>2026-05-03T10:24:05.883Z</time></trkpt><trkpt lat="40.1466133" lon="15.7526483"><ele>829.0</ele><time>2026-05-03T10:24:06.884Z</time></trkpt><trkpt lat="40.1463367" lon="15.7528667"><ele>792.0</ele><time>2026-05-03T10:24:07.884Z</time></trkpt><trkpt lat="40.139065" lon="15.7579683"><ele>789.0</ele><time>2026-05-03T10:24:33.884Z</time></trkpt><trkpt lat="40.13879" lon="15.7581533"><ele>786.0</ele><time>2026-05-03T10:24:34.884Z</time></trkpt><trkpt lat="40.1385183" lon="15.75835"><ele>786.0</ele><time>2026-05-03T10:24:35.885Z</time></trkpt><trkpt lat="40.1382517" lon="15.7585383"><ele>786.0</ele><time>2026-05-03T10:24:36.885Z</time></trkpt><trkpt lat="40.1379817" lon="15.75872"><ele>786.0</ele><time>2026-05-03T10:24:37.885Z</time></trkpt><trkpt lat="40.1377167" lon="15.7589033"><ele>786.0</ele><time>2026-05-03T10:24:38.885Z</time></trkpt><trkpt lat="40.1374533" lon="15.75909"><ele>784.5</ele><time>2026-05-03T10:24:39.884Z</time></trkpt><trkpt lat="40.1371917" lon="15.759265"><ele>783.0</ele><time>2026-05-03T10:24:40.885Z</time></trkpt><trkpt lat="40.1369217" lon="15.7594333"><ele>787.0</ele><time>2026-05-03T10:24:41.885Z</time></trkpt><trkpt lat="40.1366467" lon="15.759585"><ele>791.0</ele><time>2026-05-03T10:24:42.885Z</time></trkpt><trkpt lat="40.1363633" lon="15.75974"><ele>791.0</ele><time>2026-05-03T10:24:43.885Z</time></trkpt><trkpt lat="40.136075" lon="15.75989"><ele>791.0</ele><time>2026-05-03T10:24:44.885Z</time></trkpt><trkpt lat="40.135785" lon="15.76002"><ele>791.0</ele><time>2026-05-03T10:24:45.885Z</time></trkpt><trkpt lat="40.1354983" lon="15.760155"><ele>791.0</ele><time>2026-05-03T10:24:46.884Z</time></trkpt><trkpt lat="40.13521" lon="15.76029"><ele>791.5</ele><time>2026-05-03T10:24:47.885Z</time></trkpt><trkpt lat="40.1349317" lon="15.760425"><ele>792.0</ele><time>2026-05-03T10:24:48.885Z</time></trkpt><trkpt lat="40.1346467" lon="15.7605533"><ele>792.0</ele><time>2026-05-03T10:24:49.885Z</time></trkpt><trkpt lat="40.1343633" lon="15.7606783"><ele>792.0</ele><time>2026-05-03T10:24:50.885Z</time></trkpt><trkpt lat="40.1340783" lon="15.760815"><ele>791.0</ele><time>2026-05-03T10:24:51.884Z</time></trkpt><trkpt lat="40.1337933" lon="15.7609383"><ele>790.0</ele><time>2026-05-03T10:24:52.884Z</time></trkpt><trkpt lat="40.13352" lon="15.7610633"><ele>790.0</ele><time>2026-05-03T10:24:53.885Z</time></trkpt><trkpt lat="40.1332467" lon="15.7611883"><ele>790.0</ele><time>2026-05-03T10:24:54.884Z</time></trkpt><trkpt lat="40.1329833" lon="15.7613117"><ele>787.5</ele><time>2026-05-03T10:24:55.884Z</time></trkpt><trkpt lat="40.1327333" lon="15.7614383"><ele>785.0</ele><time>2026-05-03T10:24:56.885Z</time></trkpt><trkpt lat="40.1324867" lon="15.7615767"><ele>782.0</ele><time>2026-05-03T10:24:57.884Z</time></trkpt><trkpt lat="40.1322433" lon="15.76174"><ele>779.0</ele><time>2026-05-03T10:24:58.884Z</time></trkpt><trkpt lat="40.1320117" lon="15.7619283"><ele>779.0</ele><time>2026-05-03T10:24:59.885Z</time></trkpt><trkpt lat="40.13179" lon="15.7621433"><ele>779.0</ele><time>2026-05-03T10:25:00.885Z</time></trkpt><trkpt lat="40.131585" lon="15.7623783"><ele>773.5</ele><time>2026-05-03T10:25:01.884Z</time></trkpt><trkpt lat="40.1313833" lon="15.7626267"><ele>768.0</ele><time>2026-05-03T10:25:02.885Z</time></trkpt><trkpt lat="40.1311967" lon="15.7628983"><ele>768.0</ele><time>2026-05-03T10:25:03.885Z</time></trkpt><trkpt lat="40.1310217" lon="15.7631833"><ele>768.0</ele><time>2026-05-03T10:25:04.884Z</time></trkpt><trkpt lat="40.13087" lon="15.7634833"><ele>770.5</ele><time>2026-05-03T10:25:05.885Z</time></trkpt><trkpt lat="40.13074" lon="15.7638067"><ele>773.0</ele><time>2026-05-03T10:25:06.884Z</time></trkpt><trkpt lat="40.13062" lon="15.7641483"><ele>767.0</ele><time>2026-05-03T10:25:07.885Z</time></trkpt><trkpt lat="40.1305233" lon="15.76451"><ele>761.0</ele><time>2026-05-03T10:25:08.884Z</time></trkpt><trkpt lat="40.13044" lon="15.76489"><ele>767.5</ele><time>2026-05-03T10:25:09.885Z</time></trkpt><trkpt lat="40.1303567" lon="15.7652833"><ele>774.0</ele><time>2026-05-03T10:25:10.885Z</time></trkpt><trkpt lat="40.13028" lon="15.765685"><ele>780.5</ele><time>2026-05-03T10:25:11.885Z</time></trkpt><trkpt lat="40.1301983" lon="15.7660867"><ele>787.0</ele><time>2026-05-03T10:25:12.885Z</time></trkpt><trkpt lat="40.1301117" lon="15.766485"><ele>790.0</ele><time>2026-05-03T10:25:13.884Z</time></trkpt><trkpt lat="40.1300217" lon="15.7668933"><ele>793.0</ele><time>2026-05-03T10:25:14.885Z</time></trkpt><trkpt lat="40.1299317" lon="15.7672933"><ele>785.0</ele><time>2026-05-03T10:25:15.885Z</time></trkpt><trkpt lat="40.1298433" lon="15.7676817"><ele>777.0</ele><time>2026-05-03T10:25:16.885Z</time></trkpt><trkpt lat="40.1297517" lon="15.76806"><ele>777.0</ele><time>2026-05-03T10:25:17.885Z</time></trkpt><trkpt lat="40.1296583" lon="15.7684467"><ele>777.0</ele><time>2026-05-03T10:25:18.885Z</time></trkpt><trkpt lat="40.12957" lon="15.7688317"><ele>783.0</ele><time>2026-05-03T10:25:19.884Z</time></trkpt><trkpt lat="40.1294917" lon="15.7692067"><ele>789.0</ele><time>2026-05-03T10:25:20.885Z</time></trkpt><trkpt lat="40.1294217" lon="15.76958"><ele>796.5</ele><time>2026-05-03T10:25:21.884Z</time></trkpt><trkpt lat="40.12935" lon="15.7699517"><ele>804.0</ele><time>2026-05-03T10:25:22.884Z</time></trkpt><trkpt lat="40.1292733" lon="15.770325"><ele>808.0</ele><time>2026-05-03T10:25:23.885Z</time></trkpt><trkpt lat="40.1292033" lon="15.7706983"><ele>812.0</ele><time>2026-05-03T10:25:24.885Z</time></trkpt><trkpt lat="40.129135" lon="15.77106"><ele>812.5</ele><time>2026-05-03T10:25:25.885Z</time></trkpt><trkpt lat="40.1290783" lon="15.77142"><ele>813.0</ele><time>2026-05-03T10:25:26.884Z</time></trkpt><trkpt lat="40.1290183" lon="15.771775"><ele>808.0</ele><time>2026-05-03T10:25:27.884Z</time></trkpt><trkpt lat="40.1289517" lon="15.7721283"><ele>803.0</ele><time>2026-05-03T10:25:28.885Z</time></trkpt><trkpt lat="40.1288783" lon="15.772475"><ele>797.0</ele><time>2026-05-03T10:25:29.885Z</time></trkpt><trkpt lat="40.1288" lon="15.7728217"><ele>791.0</ele><time>2026-05-03T10:25:30.885Z</time></trkpt><trkpt lat="40.1286883" lon="15.773165"><ele>791.0</ele><time>2026-05-03T10:25:31.884Z</time></trkpt><trkpt lat="40.1285417" lon="15.7735"><ele>791.0</ele><time>2026-05-03T10:25:32.885Z</time></trkpt><trkpt lat="40.128385" lon="15.773825"><ele>779.5</ele><time>2026-05-03T10:25:33.884Z</time></trkpt><trkpt lat="40.1282133" lon="15.7741267"><ele>768.0</ele><time>2026-05-03T10:25:34.885Z</time></trkpt><trkpt lat="40.12804" lon="15.77441"><ele>768.0</ele><time>2026-05-03T10:25:35.885Z</time></trkpt><trkpt lat="40.1278533" lon="15.7747"><ele>768.0</ele><time>2026-05-03T10:25:36.885Z</time></trkpt><trkpt lat="40.1276583" lon="15.7749833"><ele>763.0</ele><time>2026-05-03T10:25:37.885Z</time></trkpt><trkpt lat="40.127465" lon="15.775275"><ele>758.0</ele><time>2026-05-03T10:25:38.885Z</time></trkpt><trkpt lat="40.127275" lon="15.7755817"><ele>779.5</ele><time>2026-05-03T10:25:39.885Z</time></trkpt><trkpt lat="40.1270767" lon="15.7758983"><ele>801.0</ele><time>2026-05-03T10:25:40.885Z</time></trkpt><trkpt lat="40.1268817" lon="15.7762033"><ele>809.5</ele><time>2026-05-03T10:25:41.885Z</time></trkpt><trkpt lat="40.1266883" lon="15.7765133"><ele>818.0</ele><time>2026-05-03T10:25:42.885Z</time></trkpt><trkpt lat="40.1264967" lon="15.7768217"><ele>817.0</ele><time>2026-05-03T10:25:43.885Z</time></trkpt><trkpt lat="40.1263067" lon="15.77715"><ele>816.0</ele><time>2026-05-03T10:25:44.885Z</time></trkpt><trkpt lat="40.1261117" lon="15.777475"><ele>813.0</ele><time>2026-05-03T10:25:45.885Z</time></trkpt><trkpt lat="40.1259167" lon="15.7778033"><ele>810.0</ele><time>2026-05-03T10:25:46.884Z</time></trkpt><trkpt lat="40.1257317" lon="15.77812"><ele>794.0</ele><time>2026-05-03T10:25:47.884Z</time></trkpt><trkpt lat="40.12556" lon="15.7784033"><ele>778.0</ele><time>2026-05-03T10:25:48.885Z</time></trkpt><trkpt lat="40.1253633" lon="15.7786817"><ele>778.0</ele><time>2026-05-03T10:25:49.884Z</time></trkpt><trkpt lat="40.125145" lon="15.778975"><ele>778.0</ele><time>2026-05-03T10:25:50.885Z</time></trkpt><trkpt lat="40.1249483" lon="15.7792683"><ele>774.0</ele><time>2026-05-03T10:25:51.885Z</time></trkpt><trkpt lat="40.1247583" lon="15.7795717"><ele>770.0</ele><time>2026-05-03T10:25:52.884Z</time></trkpt><trkpt lat="40.1245733" lon="15.77988"><ele>778.5</ele><time>2026-05-03T10:25:53.885Z</time></trkpt><trkpt lat="40.1243817" lon="15.7801933"><ele>787.0</ele><time>2026-05-03T10:25:54.885Z</time></trkpt><trkpt lat="40.12418" lon="15.7805"><ele>790.0</ele><time>2026-05-03T10:25:55.884Z</time></trkpt><trkpt lat="40.1239833" lon="15.7808117"><ele>793.0</ele><time>2026-05-03T10:25:56.884Z</time></trkpt><trkpt lat="40.1237883" lon="15.7811167"><ele>793.0</ele><time>2026-05-03T10:25:57.885Z</time></trkpt><trkpt lat="40.1235883" lon="15.7814017"><ele>793.0</ele><time>2026-05-03T10:25:58.885Z</time></trkpt><trkpt lat="40.12339" lon="15.7816867"><ele>797.0</ele><time>2026-05-03T10:25:59.885Z</time></trkpt><trkpt lat="40.12319" lon="15.781955"><ele>801.0</ele><time>2026-05-03T10:26:00.885Z</time></trkpt><trkpt lat="40.122985" lon="15.7822233"><ele>801.0</ele><time>2026-05-03T10:26:01.885Z</time></trkpt><trkpt lat="40.1227683" lon="15.7824767"><ele>801.0</ele><time>2026-05-03T10:26:02.885Z</time></trkpt><trkpt lat="40.1225433" lon="15.782715"><ele>800.5</ele><time>2026-05-03T10:26:03.885Z</time></trkpt><trkpt lat="40.1223" lon="15.782945"><ele>800.0</ele><time>2026-05-03T10:26:04.884Z</time></trkpt><trkpt lat="40.12205" lon="15.783155"><ele>800.0</ele><time>2026-05-03T10:26:05.884Z</time></trkpt><trkpt lat="40.1217917" lon="15.7833433"><ele>800.0</ele><time>2026-05-03T10:26:06.885Z</time></trkpt><trkpt lat="40.1215333" lon="15.7835167"><ele>806.0</ele><time>2026-05-03T10:26:07.884Z</time></trkpt><trkpt lat="40.1212767" lon="15.7836617"><ele>812.0</ele><time>2026-05-03T10:26:08.884Z</time></trkpt><trkpt lat="40.1210217" lon="15.7837883"><ele>812.0</ele><time>2026-05-03T10:26:09.885Z</time></trkpt><trkpt lat="40.1207567" lon="15.7838933"><ele>812.0</ele><time>2026-05-03T10:26:10.885Z</time></trkpt><trkpt lat="40.1204933" lon="15.783985"><ele>812.0</ele><time>2026-05-03T10:26:11.885Z</time></trkpt><trkpt lat="40.1202217" lon="15.7840633"><ele>812.0</ele><time>2026-05-03T10:26:12.885Z</time></trkpt><trkpt lat="40.1199417" lon="15.7841433"><ele>812.0</ele><time>2026-05-03T10:26:13.885Z</time></trkpt><trkpt lat="40.1196433" lon="15.7842117"><ele>812.0</ele><time>2026-05-03T10:26:14.885Z</time></trkpt><trkpt lat="40.1193417" lon="15.78428"><ele>817.0</ele><time>2026-05-03T10:26:15.885Z</time></trkpt><trkpt lat="40.1190467" lon="15.7843283"><ele>822.0</ele><time>2026-05-03T10:26:16.885Z</time></trkpt><trkpt lat="40.11876" lon="15.784385"><ele>823.5</ele><time>2026-05-03T10:26:17.885Z</time></trkpt><trkpt lat="40.118485" lon="15.7844417"><ele>825.0</ele><time>2026-05-03T10:26:18.885Z</time></trkpt><trkpt lat="40.1182067" lon="15.78449"><ele>825.0</ele><time>2026-05-03T10:26:19.885Z</time></trkpt><trkpt lat="40.1179483" lon="15.7845367"><ele>825.0</ele><time>2026-05-03T10:26:20.885Z</time></trkpt><trkpt lat="40.1177067" lon="15.78458"><ele>825.0</ele><time>2026-05-03T10:26:21.885Z</time></trkpt><trkpt lat="40.11746" lon="15.784625"><ele>825.0</ele><time>2026-05-03T10:26:22.885Z</time></trkpt><trkpt lat="40.117215" lon="15.7846767"><ele>828.5</ele><time>2026-05-03T10:26:23.885Z</time></trkpt><trkpt lat="40.116965" lon="15.784725"><ele>832.0</ele><time>2026-05-03T10:26:24.884Z</time></trkpt><trkpt lat="40.1167117" lon="15.7847933"><ele>831.0</ele><time>2026-05-03T10:26:25.885Z</time></trkpt><trkpt lat="40.1164533" lon="15.784875"><ele>830.0</ele><time>2026-05-03T10:26:26.885Z</time></trkpt><trkpt lat="40.1161867" lon="15.784955"><ele>830.0</ele><time>2026-05-03T10:26:27.884Z</time></trkpt><trkpt lat="40.1159183" lon="15.785055"><ele>830.0</ele><time>2026-05-03T10:26:28.885Z</time></trkpt><trkpt lat="40.1156467" lon="15.78518"><ele>829.5</ele><time>2026-05-03T10:26:29.885Z</time></trkpt><trkpt lat="40.1153733" lon="15.7853283"><ele>829.0</ele><time>2026-05-03T10:26:30.885Z</time></trkpt><trkpt lat="40.1150967" lon="15.785485"><ele>830.0</ele><time>2026-05-03T10:26:31.885Z</time></trkpt><trkpt lat="40.1148167" lon="15.7856567"><ele>831.0</ele><time>2026-05-03T10:26:32.885Z</time></trkpt><trkpt lat="40.11455" lon="15.785845"><ele>838.5</ele><time>2026-05-03T10:26:33.885Z</time></trkpt><trkpt lat="40.1142917" lon="15.7860417"><ele>846.0</ele><time>2026-05-03T10:26:34.885Z</time></trkpt><trkpt lat="40.114045" lon="15.7862433"><ele>846.0</ele><time>2026-05-03T10:26:35.885Z</time></trkpt><trkpt lat="40.1138067" lon="15.786465"><ele>846.0</ele><time>2026-05-03T10:26:36.885Z</time></trkpt><trkpt lat="40.11357" lon="15.7866967"><ele>850.5</ele><time>2026-05-03T10:26:37.885Z</time></trkpt><trkpt lat="40.11333" lon="15.7869367"><ele>855.0</ele><time>2026-05-03T10:26:38.884Z</time></trkpt><trkpt lat="40.1130867" lon="15.78718"><ele>855.0</ele><time>2026-05-03T10:26:39.885Z</time></trkpt><trkpt lat="40.1128417" lon="15.787425"><ele>855.0</ele><time>2026-05-03T10:26:40.885Z</time></trkpt><trkpt lat="40.1126" lon="15.7876783"><ele>855.5</ele><time>2026-05-03T10:26:41.885Z</time></trkpt><trkpt lat="40.1123567" lon="15.7879267"><ele>856.0</ele><time>2026-05-03T10:26:42.885Z</time></trkpt><trkpt lat="40.1103033" lon="15.791735"><ele>854.5</ele><time>2026-05-03T10:26:54.884Z</time></trkpt><trkpt lat="40.110115" lon="15.792015"><ele>853.0</ele><time>2026-05-03T10:26:55.883Z</time></trkpt><trkpt lat="40.1099067" lon="15.79229"><ele>853.0</ele><time>2026-05-03T10:26:56.884Z</time></trkpt><trkpt lat="40.1096867" lon="15.7925467"><ele>853.0</ele><time>2026-05-03T10:26:57.884Z</time></trkpt><trkpt lat="40.10947" lon="15.7927933"><ele>850.0</ele><time>2026-05-03T10:26:58.883Z</time></trkpt><trkpt lat="40.1092367" lon="15.7930233"><ele>847.0</ele><time>2026-05-03T10:26:59.883Z</time></trkpt><trkpt lat="40.1089833" lon="15.7932517"><ele>847.0</ele><time>2026-05-03T10:27:00.884Z</time></trkpt><trkpt lat="40.1087233" lon="15.79347"><ele>847.0</ele><time>2026-05-03T10:27:01.884Z</time></trkpt><trkpt lat="40.1084533" lon="15.79368"><ele>849.5</ele><time>2026-05-03T10:27:02.884Z</time></trkpt><trkpt lat="40.108185" lon="15.7938767"><ele>852.0</ele><time>2026-05-03T10:27:03.883Z</time></trkpt><trkpt lat="40.1079167" lon="15.7940483"><ele>852.0</ele><time>2026-05-03T10:27:04.884Z</time></trkpt><trkpt lat="40.1076467" lon="15.7941967"><ele>852.0</ele><time>2026-05-03T10:27:05.884Z</time></trkpt><trkpt lat="40.1073833" lon="15.7943433"><ele>860.5</ele><time>2026-05-03T10:27:06.884Z</time></trkpt><trkpt lat="40.1071117" lon="15.7944833"><ele>869.0</ele><time>2026-05-03T10:27:07.884Z</time></trkpt><trkpt lat="40.1068417" lon="15.7946183"><ele>870.0</ele><time>2026-05-03T10:27:08.883Z</time></trkpt><trkpt lat="40.1065667" lon="15.7947533"><ele>871.0</ele><time>2026-05-03T10:27:09.883Z</time></trkpt><trkpt lat="40.1062933" lon="15.7948767"><ele>871.0</ele><time>2026-05-03T10:27:10.884Z</time></trkpt><trkpt lat="40.1060317" lon="15.7950117"><ele>871.0</ele><time>2026-05-03T10:27:11.884Z</time></trkpt><trkpt lat="40.10577" lon="15.7951483"><ele>873.0</ele><time>2026-05-03T10:27:12.884Z</time></trkpt><trkpt lat="40.1055083" lon="15.79529"><ele>875.0</ele><time>2026-05-03T10:27:13.883Z</time></trkpt><trkpt lat="40.1052533" lon="15.7954333"><ele>875.0</ele><time>2026-05-03T10:27:14.884Z</time></trkpt><trkpt lat="40.1050033" lon="15.7955867"><ele>875.0</ele><time>2026-05-03T10:27:15.884Z</time></trkpt><trkpt lat="40.1047533" lon="15.7957533"><ele>873.5</ele><time>2026-05-03T10:27:16.884Z</time></trkpt><trkpt lat="40.1045033" lon="15.795925"><ele>872.0</ele><time>2026-05-03T10:27:17.884Z</time></trkpt><trkpt lat="40.1042617" lon="15.7961117"><ele>873.5</ele><time>2026-05-03T10:27:18.883Z</time></trkpt><trkpt lat="40.10402" lon="15.7963133"><ele>875.0</ele><time>2026-05-03T10:27:19.883Z</time></trkpt><trkpt lat="40.103775" lon="15.79653"><ele>875.0</ele><time>2026-05-03T10:27:20.884Z</time></trkpt><trkpt lat="40.1035283" lon="15.796755"><ele>875.0</ele><time>2026-05-03T10:27:21.884Z</time></trkpt><trkpt lat="40.1032867" lon="15.797005"><ele>877.0</ele><time>2026-05-03T10:27:22.884Z</time></trkpt><trkpt lat="40.1030467" lon="15.7972583"><ele>879.0</ele><time>2026-05-03T10:27:23.884Z</time></trkpt><trkpt lat="40.1028117" lon="15.7975317"><ele>885.5</ele><time>2026-05-03T10:27:24.884Z</time></trkpt><trkpt lat="40.1025783" lon="15.7978217"><ele>892.0</ele><time>2026-05-03T10:27:25.884Z</time></trkpt><trkpt lat="40.10235" lon="15.7981367"><ele>892.0</ele><time>2026-05-03T10:27:26.883Z</time></trkpt><trkpt lat="40.1021367" lon="15.798455"><ele>892.0</ele><time>2026-05-03T10:27:27.884Z</time></trkpt><trkpt lat="40.1019267" lon="15.79878"><ele>894.5</ele><time>2026-05-03T10:27:28.883Z</time></trkpt><trkpt lat="40.101735" lon="15.7991117"><ele>897.0</ele><time>2026-05-03T10:27:29.884Z</time></trkpt><trkpt lat="40.1015533" lon="15.7994317"><ele>897.0</ele><time>2026-05-03T10:27:30.884Z</time></trkpt><trkpt lat="40.1013817" lon="15.7997467"><ele>897.0</ele><time>2026-05-03T10:27:31.884Z</time></trkpt><trkpt lat="40.10122" lon="15.8000683"><ele>896.0</ele><time>2026-05-03T10:27:32.884Z</time></trkpt><trkpt lat="40.1010633" lon="15.8004"><ele>895.0</ele><time>2026-05-03T10:27:33.884Z</time></trkpt><trkpt lat="40.10092" lon="15.8007383"><ele>894.0</ele><time>2026-05-03T10:27:34.884Z</time></trkpt><trkpt lat="40.1007783" lon="15.801075"><ele>893.0</ele><time>2026-05-03T10:27:35.884Z</time></trkpt><trkpt lat="40.1006333" lon="15.8014167"><ele>888.5</ele><time>2026-05-03T10:27:36.884Z</time></trkpt><trkpt lat="40.1004883" lon="15.8017617"><ele>884.0</ele><time>2026-05-03T10:27:37.884Z</time></trkpt><trkpt lat="40.1003433" lon="15.8021117"><ele>884.0</ele><time>2026-05-03T10:27:38.884Z</time></trkpt><trkpt lat="40.1001933" lon="15.80245"><ele>884.0</ele><time>2026-05-03T10:27:39.884Z</time></trkpt><trkpt lat="40.1000467" lon="15.802805"><ele>886.5</ele><time>2026-05-03T10:27:40.884Z</time></trkpt><trkpt lat="40.0998967" lon="15.8031667"><ele>889.0</ele><time>2026-05-03T10:27:41.884Z</time></trkpt><trkpt lat="40.0997417" lon="15.8035233"><ele>903.0</ele><time>2026-05-03T10:27:42.883Z</time></trkpt><trkpt lat="40.09958" lon="15.8038733"><ele>917.0</ele><time>2026-05-03T10:27:43.884Z</time></trkpt><trkpt lat="40.0994233" lon="15.804225"><ele>932.5</ele><time>2026-05-03T10:27:44.884Z</time></trkpt><trkpt lat="40.0992667" lon="15.8045817"><ele>948.0</ele><time>2026-05-03T10:27:45.884Z</time></trkpt><trkpt lat="40.09911" lon="15.80494"><ele>864.0</ele><time>2026-05-03T10:27:46.883Z</time></trkpt><trkpt lat="40.0969367" lon="15.8101417"><ele>868.0</ele><time>2026-05-03T10:28:01.884Z</time></trkpt><trkpt lat="40.0967817" lon="15.8105067"><ele>872.0</ele><time>2026-05-03T10:28:02.884Z</time></trkpt><trkpt lat="40.0966233" lon="15.810865"><ele>871.0</ele><time>2026-05-03T10:28:03.885Z</time></trkpt><trkpt lat="40.096465" lon="15.8112217"><ele>870.0</ele><time>2026-05-03T10:28:04.885Z</time></trkpt><trkpt lat="40.09631" lon="15.811575"><ele>869.5</ele><time>2026-05-03T10:28:05.885Z</time></trkpt><trkpt lat="40.0961633" lon="15.811935"><ele>869.0</ele><time>2026-05-03T10:28:06.884Z</time></trkpt><trkpt lat="40.0960133" lon="15.8122967"><ele>869.0</ele><time>2026-05-03T10:28:07.885Z</time></trkpt><trkpt lat="40.09586" lon="15.812655"><ele>869.0</ele><time>2026-05-03T10:28:08.884Z</time></trkpt><trkpt lat="40.0957067" lon="15.8130167"><ele>868.0</ele><time>2026-05-03T10:28:09.885Z</time></trkpt><trkpt lat="40.09556" lon="15.813375"><ele>867.0</ele><time>2026-05-03T10:28:10.885Z</time></trkpt><trkpt lat="40.0954117" lon="15.81372"><ele>870.0</ele><time>2026-05-03T10:28:11.884Z</time></trkpt><trkpt lat="40.0952567" lon="15.81407"><ele>873.0</ele><time>2026-05-03T10:28:12.885Z</time></trkpt><trkpt lat="40.095105" lon="15.8144183"><ele>873.5</ele><time>2026-05-03T10:28:13.885Z</time></trkpt><trkpt lat="40.0949517" lon="15.8147783"><ele>874.0</ele><time>2026-05-03T10:28:14.885Z</time></trkpt><trkpt lat="40.09481" lon="15.815145"><ele>864.5</ele><time>2026-05-03T10:28:15.884Z</time></trkpt><trkpt lat="40.0946783" lon="15.8155133"><ele>855.0</ele><time>2026-05-03T10:28:16.885Z</time></trkpt><trkpt lat="40.0945633" lon="15.8158983"><ele>854.5</ele><time>2026-05-03T10:28:17.884Z</time></trkpt><trkpt lat="40.0944467" lon="15.81629"><ele>854.0</ele><time>2026-05-03T10:28:18.884Z</time></trkpt><trkpt lat="40.09434" lon="15.8166867"><ele>858.5</ele><time>2026-05-03T10:28:19.885Z</time></trkpt><trkpt lat="40.0942217" lon="15.81707"><ele>863.0</ele><time>2026-05-03T10:28:20.885Z</time></trkpt><trkpt lat="40.09411" lon="15.8174467"><ele>857.0</ele><time>2026-05-03T10:28:21.885Z</time></trkpt><trkpt lat="40.0940017" lon="15.8178267"><ele>851.0</ele><time>2026-05-03T10:28:22.885Z</time></trkpt><trkpt lat="40.0938883" lon="15.818195"><ele>855.5</ele><time>2026-05-03T10:28:23.884Z</time></trkpt><trkpt lat="40.09377" lon="15.8185533"><ele>860.0</ele><time>2026-05-03T10:28:24.885Z</time></trkpt><trkpt lat="40.0936567" lon="15.8189117"><ele>860.0</ele><time>2026-05-03T10:28:25.885Z</time></trkpt><trkpt lat="40.093545" lon="15.8192617"><ele>860.0</ele><time>2026-05-03T10:28:26.885Z</time></trkpt><trkpt lat="40.0934417" lon="15.8196267"><ele>858.5</ele><time>2026-05-03T10:28:27.885Z</time></trkpt><trkpt lat="40.0933333" lon="15.8199817"><ele>857.0</ele><time>2026-05-03T10:28:28.885Z</time></trkpt><trkpt lat="40.093235" lon="15.820335"><ele>857.0</ele><time>2026-05-03T10:28:29.885Z</time></trkpt><trkpt lat="40.0931317" lon="15.8206883"><ele>857.0</ele><time>2026-05-03T10:28:30.885Z</time></trkpt><trkpt lat="40.093035" lon="15.8210333"><ele>860.0</ele><time>2026-05-03T10:28:31.885Z</time></trkpt><trkpt lat="40.092945" lon="15.82138"><ele>863.0</ele><time>2026-05-03T10:28:32.885Z</time></trkpt><trkpt lat="40.09287" lon="15.8217417"><ele>873.5</ele><time>2026-05-03T10:28:33.885Z</time></trkpt><trkpt lat="40.0928117" lon="15.8221"><ele>884.0</ele><time>2026-05-03T10:28:34.885Z</time></trkpt><trkpt lat="40.0927633" lon="15.8224517"><ele>886.5</ele><time>2026-05-03T10:28:35.885Z</time></trkpt><trkpt lat="40.0927283" lon="15.8228217"><ele>889.0</ele><time>2026-05-03T10:28:36.885Z</time></trkpt><trkpt lat="40.0926817" lon="15.82317"><ele>885.5</ele><time>2026-05-03T10:28:37.885Z</time></trkpt><trkpt lat="40.0926367" lon="15.8235433"><ele>882.0</ele><time>2026-05-03T10:28:38.885Z</time></trkpt><trkpt lat="40.0927417" lon="15.82394"><ele>880.0</ele><time>2026-05-03T10:28:39.885Z</time></trkpt><trkpt lat="40.0928217" lon="15.824315"><ele>878.0</ele><time>2026-05-03T10:28:40.885Z</time></trkpt><trkpt lat="40.0929083" lon="15.8246783"><ele>878.0</ele><time>2026-05-03T10:28:41.884Z</time></trkpt><trkpt lat="40.0930117" lon="15.825065"><ele>878.0</ele><time>2026-05-03T10:28:42.884Z</time></trkpt><trkpt lat="40.0931133" lon="15.8254367"><ele>875.0</ele><time>2026-05-03T10:28:43.885Z</time></trkpt><trkpt lat="40.0932133" lon="15.82581"><ele>872.0</ele><time>2026-05-03T10:28:44.885Z</time></trkpt><trkpt lat="40.0933017" lon="15.8261867"><ele>879.5</ele><time>2026-05-03T10:28:45.885Z</time></trkpt><trkpt lat="40.0933983" lon="15.8265533"><ele>887.0</ele><time>2026-05-03T10:28:46.885Z</time></trkpt><trkpt lat="40.093485" lon="15.8269117"><ele>887.0</ele><time>2026-05-03T10:28:47.884Z</time></trkpt><trkpt lat="40.0935733" lon="15.827265"><ele>887.0</ele><time>2026-05-03T10:28:48.885Z</time></trkpt><trkpt lat="40.0936417" lon="15.8276083"><ele>886.5</ele><time>2026-05-03T10:28:49.885Z</time></trkpt><trkpt lat="40.093695" lon="15.8279583"><ele>886.0</ele><time>2026-05-03T10:28:50.885Z</time></trkpt><trkpt lat="40.093735" lon="15.828325"><ele>885.0</ele><time>2026-05-03T10:28:51.884Z</time></trkpt><trkpt lat="40.0937567" lon="15.8287067"><ele>884.0</ele><time>2026-05-03T10:28:52.884Z</time></trkpt><trkpt lat="40.09376" lon="15.8290983"><ele>887.0</ele><time>2026-05-03T10:28:53.885Z</time></trkpt><trkpt lat="40.0937433" lon="15.8294933"><ele>890.0</ele><time>2026-05-03T10:28:54.885Z</time></trkpt><trkpt lat="40.09371" lon="15.82988"><ele>894.0</ele><time>2026-05-03T10:28:55.884Z</time></trkpt><trkpt lat="40.0936683" lon="15.8302567"><ele>898.0</ele><time>2026-05-03T10:28:56.885Z</time></trkpt><trkpt lat="40.09361" lon="15.8306333"><ele>903.5</ele><time>2026-05-03T10:28:57.885Z</time></trkpt><trkpt lat="40.0935367" lon="15.831"><ele>909.0</ele><time>2026-05-03T10:28:58.885Z</time></trkpt><trkpt lat="40.09346" lon="15.8313717"><ele>909.0</ele><time>2026-05-03T10:28:59.884Z</time></trkpt><trkpt lat="40.09336" lon="15.8317233"><ele>909.0</ele><time>2026-05-03T10:29:00.885Z</time></trkpt><trkpt lat="40.0932367" lon="15.8320667"><ele>911.5</ele><time>2026-05-03T10:29:01.884Z</time></trkpt><trkpt lat="40.0930967" lon="15.832405"><ele>914.0</ele><time>2026-05-03T10:29:02.884Z</time></trkpt><trkpt lat="40.09295" lon="15.8327383"><ele>915.0</ele><time>2026-05-03T10:29:03.885Z</time></trkpt><trkpt lat="40.0927717" lon="15.8330633"><ele>916.0</ele><time>2026-05-03T10:29:04.885Z</time></trkpt><trkpt lat="40.0925817" lon="15.8333783"><ele>912.0</ele><time>2026-05-03T10:29:05.884Z</time></trkpt><trkpt lat="40.0923883" lon="15.833675"><ele>908.0</ele><time>2026-05-03T10:29:06.884Z</time></trkpt><trkpt lat="40.0921933" lon="15.8339583"><ele>908.0</ele><time>2026-05-03T10:29:07.885Z</time></trkpt><trkpt lat="40.0920017" lon="15.83423"><ele>908.0</ele><time>2026-05-03T10:29:08.884Z</time></trkpt><trkpt lat="40.09181" lon="15.83449"><ele>908.5</ele><time>2026-05-03T10:29:09.885Z</time></trkpt><trkpt lat="40.0916283" lon="15.834745"><ele>909.0</ele><time>2026-05-03T10:29:10.884Z</time></trkpt><trkpt lat="40.0914433" lon="15.8349967"><ele>908.0</ele><time>2026-05-03T10:29:11.885Z</time></trkpt><trkpt lat="40.0912633" lon="15.8352483"><ele>907.0</ele><time>2026-05-03T10:29:12.885Z</time></trkpt><trkpt lat="40.0910833" lon="15.8355067"><ele>907.0</ele><time>2026-05-03T10:29:13.885Z</time></trkpt><trkpt lat="40.090895" lon="15.835765"><ele>907.0</ele><time>2026-05-03T10:29:14.884Z</time></trkpt><trkpt lat="40.090705" lon="15.8360217"><ele>910.5</ele><time>2026-05-03T10:29:15.884Z</time></trkpt><trkpt lat="40.090515" lon="15.8362733"><ele>914.0</ele><time>2026-05-03T10:29:16.885Z</time></trkpt><trkpt lat="40.09032" lon="15.8365383"><ele>917.0</ele><time>2026-05-03T10:29:17.885Z</time></trkpt><trkpt lat="40.09012" lon="15.8368033"><ele>920.0</ele><time>2026-05-03T10:29:18.885Z</time></trkpt><trkpt lat="40.0899233" lon="15.8370683"><ele>925.0</ele><time>2026-05-03T10:29:19.885Z</time></trkpt><trkpt lat="40.0897233" lon="15.8373433"><ele>930.0</ele><time>2026-05-03T10:29:20.884Z</time></trkpt><trkpt lat="40.0895233" lon="15.837625"><ele>936.5</ele><time>2026-05-03T10:29:21.884Z</time></trkpt><trkpt lat="40.0893367" lon="15.8379167"><ele>943.0</ele><time>2026-05-03T10:29:22.885Z</time></trkpt><trkpt lat="40.08915" lon="15.83821"><ele>946.5</ele><time>2026-05-03T10:29:23.885Z</time></trkpt><trkpt lat="40.08896" lon="15.8385033"><ele>950.0</ele><time>2026-05-03T10:29:24.885Z</time></trkpt><trkpt lat="40.088765" lon="15.8388"><ele>950.0</ele><time>2026-05-03T10:29:25.885Z</time></trkpt><trkpt lat="40.088575" lon="15.83909"><ele>950.0</ele><time>2026-05-03T10:29:26.885Z</time></trkpt><trkpt lat="40.0883833" lon="15.8393833"><ele>945.5</ele><time>2026-05-03T10:29:27.885Z</time></trkpt><trkpt lat="40.0881933" lon="15.839675"><ele>941.0</ele><time>2026-05-03T10:29:28.885Z</time></trkpt><trkpt lat="40.0880133" lon="15.8399567"><ele>946.5</ele><time>2026-05-03T10:29:29.885Z</time></trkpt><trkpt lat="40.0878617" lon="15.8402917"><ele>952.0</ele><time>2026-05-03T10:29:30.885Z</time></trkpt><trkpt lat="40.0877417" lon="15.840665"><ele>955.0</ele><time>2026-05-03T10:29:31.885Z</time></trkpt><trkpt lat="40.0875917" lon="15.840995"><ele>958.0</ele><time>2026-05-03T10:29:32.885Z</time></trkpt><trkpt lat="40.0874517" lon="15.8413317"><ele>951.0</ele><time>2026-05-03T10:29:33.885Z</time></trkpt><trkpt lat="40.0873133" lon="15.8416667"><ele>944.0</ele><time>2026-05-03T10:29:34.885Z</time></trkpt><trkpt lat="40.0871783" lon="15.8420117"><ele>943.0</ele><time>2026-05-03T10:29:35.885Z</time></trkpt><trkpt lat="40.0870383" lon="15.842365"><ele>942.0</ele><time>2026-05-03T10:29:36.885Z</time></trkpt><trkpt lat="40.0868933" lon="15.8427183"><ele>946.0</ele><time>2026-05-03T10:29:37.884Z</time></trkpt><trkpt lat="40.0867467" lon="15.8430767"><ele>950.0</ele><time>2026-05-03T10:29:38.885Z</time></trkpt><trkpt lat="40.086605" lon="15.843435"><ele>952.0</ele><time>2026-05-03T10:29:39.885Z</time></trkpt><trkpt lat="40.0864533" lon="15.8438"><ele>954.0</ele><time>2026-05-03T10:29:40.885Z</time></trkpt><trkpt lat="40.0863067" lon="15.8441517"><ele>952.5</ele><time>2026-05-03T10:29:41.884Z</time></trkpt><trkpt lat="40.086155" lon="15.844515"><ele>951.0</ele><time>2026-05-03T10:29:42.885Z</time></trkpt><trkpt lat="40.0860117" lon="15.8448733"><ele>949.0</ele><time>2026-05-03T10:29:43.885Z</time></trkpt><trkpt lat="40.0858667" lon="15.84524"><ele>947.0</ele><time>2026-05-03T10:29:44.885Z</time></trkpt><trkpt lat="40.0857233" lon="15.845595"><ele>938.5</ele><time>2026-05-03T10:29:45.884Z</time></trkpt><trkpt lat="40.085575" lon="15.8459533"><ele>930.0</ele><time>2026-05-03T10:29:46.884Z</time></trkpt><trkpt lat="40.0854233" lon="15.8463083"><ele>928.5</ele><time>2026-05-03T10:29:47.885Z</time></trkpt><trkpt lat="40.08529" lon="15.8466633"><ele>927.0</ele><time>2026-05-03T10:29:48.885Z</time></trkpt><trkpt lat="40.08514" lon="15.847015"><ele>929.0</ele><time>2026-05-03T10:29:49.885Z</time></trkpt><trkpt lat="40.084985" lon="15.847365"><ele>931.0</ele><time>2026-05-03T10:29:50.885Z</time></trkpt><trkpt lat="40.084845" lon="15.8477117"><ele>931.0</ele><time>2026-05-03T10:29:51.885Z</time></trkpt><trkpt lat="40.0847033" lon="15.8480583"><ele>931.0</ele><time>2026-05-03T10:29:52.884Z</time></trkpt><trkpt lat="40.084555" lon="15.8484133"><ele>934.0</ele><time>2026-05-03T10:29:53.884Z</time></trkpt><trkpt lat="40.0844083" lon="15.8487783"><ele>937.0</ele><time>2026-05-03T10:29:54.884Z</time></trkpt><trkpt lat="40.0842633" lon="15.8491417"><ele>936.5</ele><time>2026-05-03T10:29:55.885Z</time></trkpt><trkpt lat="40.0841117" lon="15.8495117"><ele>936.0</ele><time>2026-05-03T10:29:56.885Z</time></trkpt><trkpt lat="40.0839467" lon="15.8498767"><ele>937.5</ele><time>2026-05-03T10:29:57.884Z</time></trkpt><trkpt lat="40.08377" lon="15.8502267"><ele>939.0</ele><time>2026-05-03T10:29:58.885Z</time></trkpt><trkpt lat="40.0835983" lon="15.8505883"><ele>939.0</ele><time>2026-05-03T10:29:59.885Z</time></trkpt><trkpt lat="40.0834133" lon="15.850935"><ele>939.0</ele><time>2026-05-03T10:30:00.885Z</time></trkpt><trkpt lat="40.0832283" lon="15.8512633"><ele>927.5</ele><time>2026-05-03T10:30:01.885Z</time></trkpt><trkpt lat="40.0830267" lon="15.8515933"><ele>916.0</ele><time>2026-05-03T10:30:02.884Z</time></trkpt><trkpt lat="40.0828217" lon="15.8519183"><ele>914.0</ele><time>2026-05-03T10:30:03.885Z</time></trkpt><trkpt lat="40.0826133" lon="15.8522517"><ele>912.0</ele><time>2026-05-03T10:30:04.884Z</time></trkpt><trkpt lat="40.0824" lon="15.8525783"><ele>911.0</ele><time>2026-05-03T10:30:05.885Z</time></trkpt><trkpt lat="40.08218" lon="15.8529017"><ele>910.0</ele><time>2026-05-03T10:30:06.884Z</time></trkpt><trkpt lat="40.0819583" lon="15.8532383"><ele>910.0</ele><time>2026-05-03T10:30:07.885Z</time></trkpt><trkpt lat="40.0817267" lon="15.8535683"><ele>910.0</ele><time>2026-05-03T10:30:08.885Z</time></trkpt><trkpt lat="40.0814767" lon="15.853885"><ele>904.0</ele><time>2026-05-03T10:30:09.885Z</time></trkpt><trkpt lat="40.081215" lon="15.8541783"><ele>898.0</ele><time>2026-05-03T10:30:10.885Z</time></trkpt><trkpt lat="40.0809517" lon="15.8544467"><ele>894.0</ele><time>2026-05-03T10:30:11.885Z</time></trkpt><trkpt lat="40.080665" lon="15.85469"><ele>890.0</ele><time>2026-05-03T10:30:12.884Z</time></trkpt><trkpt lat="40.0803717" lon="15.854905"><ele>890.0</ele><time>2026-05-03T10:30:13.885Z</time></trkpt><trkpt lat="40.0800833" lon="15.855095"><ele>890.0</ele><time>2026-05-03T10:30:14.885Z</time></trkpt><trkpt lat="40.07979" lon="15.8552633"><ele>895.5</ele><time>2026-05-03T10:30:15.885Z</time></trkpt><trkpt lat="40.079495" lon="15.8554117"><ele>901.0</ele><time>2026-05-03T10:30:16.885Z</time></trkpt><trkpt lat="40.079195" lon="15.8555467"><ele>900.5</ele><time>2026-05-03T10:30:17.885Z</time></trkpt><trkpt lat="40.07889" lon="15.8556833"><ele>900.0</ele><time>2026-05-03T10:30:18.884Z</time></trkpt><trkpt lat="40.0786" lon="15.85581"><ele>900.0</ele><time>2026-05-03T10:30:19.885Z</time></trkpt><trkpt lat="40.0783117" lon="15.8559333"><ele>900.0</ele><time>2026-05-03T10:30:20.885Z</time></trkpt><trkpt lat="40.0780183" lon="15.8560583"><ele>900.5</ele><time>2026-05-03T10:30:21.885Z</time></trkpt><trkpt lat="40.07773" lon="15.8561967"><ele>901.0</ele><time>2026-05-03T10:30:22.885Z</time></trkpt><trkpt lat="40.077455" lon="15.8563517"><ele>896.5</ele><time>2026-05-03T10:30:23.885Z</time></trkpt><trkpt lat="40.0771833" lon="15.8565167"><ele>892.0</ele><time>2026-05-03T10:30:24.885Z</time></trkpt><trkpt lat="40.0769233" lon="15.8567033"><ele>893.0</ele><time>2026-05-03T10:30:25.885Z</time></trkpt><trkpt lat="40.07667" lon="15.85691"><ele>894.0</ele><time>2026-05-03T10:30:26.885Z</time></trkpt><trkpt lat="40.0764183" lon="15.8571433"><ele>889.5</ele><time>2026-05-03T10:30:27.885Z</time></trkpt><trkpt lat="40.0761767" lon="15.857385"><ele>885.0</ele><time>2026-05-03T10:30:28.885Z</time></trkpt><trkpt lat="40.0759417" lon="15.8576483"><ele>877.0</ele><time>2026-05-03T10:30:29.885Z</time></trkpt><trkpt lat="40.0757183" lon="15.85793"><ele>869.0</ele><time>2026-05-03T10:30:30.884Z</time></trkpt><trkpt lat="40.0755117" lon="15.8582367"><ele>863.0</ele><time>2026-05-03T10:30:31.884Z</time></trkpt><trkpt lat="40.0753167" lon="15.8585517"><ele>857.0</ele><time>2026-05-03T10:30:32.885Z</time></trkpt><trkpt lat="40.0751267" lon="15.858885"><ele>857.0</ele><time>2026-05-03T10:30:33.885Z</time></trkpt><trkpt lat="40.0749433" lon="15.8592317"><ele>857.0</ele><time>2026-05-03T10:30:34.885Z</time></trkpt><trkpt lat="40.074775" lon="15.85959"><ele>852.0</ele><time>2026-05-03T10:30:35.885Z</time></trkpt><trkpt lat="40.074615" lon="15.859955"><ele>847.0</ele><time>2026-05-03T10:30:36.885Z</time></trkpt><trkpt lat="40.0744633" lon="15.8603167"><ele>847.0</ele><time>2026-05-03T10:30:37.885Z</time></trkpt><trkpt lat="40.074295" lon="15.8606867"><ele>847.0</ele><time>2026-05-03T10:30:38.884Z</time></trkpt><trkpt lat="40.07413" lon="15.8610467"><ele>849.0</ele><time>2026-05-03T10:30:39.884Z</time></trkpt><trkpt lat="40.073965" lon="15.8614017"><ele>851.0</ele><time>2026-05-03T10:30:40.885Z</time></trkpt><trkpt lat="40.07381" lon="15.8617483"><ele>854.0</ele><time>2026-05-03T10:30:41.884Z</time></trkpt><trkpt lat="40.0736483" lon="15.8620983"><ele>857.0</ele><time>2026-05-03T10:30:42.884Z</time></trkpt><trkpt lat="40.07348" lon="15.86245"><ele>859.0</ele><time>2026-05-03T10:30:43.884Z</time></trkpt><trkpt lat="40.0733233" lon="15.86281"><ele>861.0</ele><time>2026-05-03T10:30:44.885Z</time></trkpt><trkpt lat="40.0731667" lon="15.8631783"><ele>856.5</ele><time>2026-05-03T10:30:45.885Z</time></trkpt><trkpt lat="40.0730067" lon="15.86354"><ele>852.0</ele><time>2026-05-03T10:30:46.884Z</time></trkpt><trkpt lat="40.072835" lon="15.8639"><ele>852.0</ele><time>2026-05-03T10:30:47.885Z</time></trkpt><trkpt lat="40.0726617" lon="15.8642617"><ele>852.0</ele><time>2026-05-03T10:30:48.884Z</time></trkpt><trkpt lat="40.0724917" lon="15.8646167"><ele>854.0</ele><time>2026-05-03T10:30:49.884Z</time></trkpt><trkpt lat="40.0723217" lon="15.8649733"><ele>856.0</ele><time>2026-05-03T10:30:50.885Z</time></trkpt><trkpt lat="40.0721417" lon="15.8653333"><ele>859.5</ele><time>2026-05-03T10:30:51.885Z</time></trkpt><trkpt lat="40.07195" lon="15.865675"><ele>863.0</ele><time>2026-05-03T10:30:52.885Z</time></trkpt><trkpt lat="40.0717617" lon="15.8659983"><ele>860.0</ele><time>2026-05-03T10:30:53.885Z</time></trkpt><trkpt lat="40.07157" lon="15.8663017"><ele>857.0</ele><time>2026-05-03T10:30:54.885Z</time></trkpt><trkpt lat="40.0713633" lon="15.8666017"><ele>861.5</ele><time>2026-05-03T10:30:55.885Z</time></trkpt><trkpt lat="40.0711567" lon="15.8668783"><ele>866.0</ele><time>2026-05-03T10:30:56.885Z</time></trkpt><trkpt lat="40.0709383" lon="15.867145"><ele>867.5</ele><time>2026-05-03T10:30:57.884Z</time></trkpt><trkpt lat="40.07071" lon="15.867395"><ele>869.0</ele><time>2026-05-03T10:30:58.886Z</time></trkpt><trkpt lat="40.0704867" lon="15.86764"><ele>869.0</ele><time>2026-05-03T10:30:59.886Z</time></trkpt><trkpt lat="40.07025" lon="15.8678667"><ele>869.0</ele><time>2026-05-03T10:31:00.885Z</time></trkpt><trkpt lat="40.07002" lon="15.8681017"><ele>870.5</ele><time>2026-05-03T10:31:01.886Z</time></trkpt><trkpt lat="40.069785" lon="15.8683367"><ele>872.0</ele><time>2026-05-03T10:31:02.886Z</time></trkpt><trkpt lat="40.0695533" lon="15.8685867"><ele>878.0</ele><time>2026-05-03T10:31:03.886Z</time></trkpt><trkpt lat="40.06932" lon="15.8688267"><ele>884.0</ele><time>2026-05-03T10:31:04.886Z</time></trkpt><trkpt lat="40.0367467" lon="15.87309"><ele>797.0</ele><time>2026-05-03T10:32:53.883Z</time></trkpt><trkpt lat="40.036455" lon="15.8732283"><ele>710.0</ele><time>2026-05-03T10:32:54.883Z</time></trkpt><trkpt lat="40.0361833" lon="15.873365"><ele>716.5</ele><time>2026-05-03T10:32:55.883Z</time></trkpt><trkpt lat="40.0359133" lon="15.8734917"><ele>723.0</ele><time>2026-05-03T10:32:56.883Z</time></trkpt><trkpt lat="40.03564" lon="15.8736133"><ele>729.5</ele><time>2026-05-03T10:32:57.883Z</time></trkpt><trkpt lat="40.0353683" lon="15.8737317"><ele>736.0</ele><time>2026-05-03T10:32:58.883Z</time></trkpt><trkpt lat="40.0350917" lon="15.8738433"><ele>745.5</ele><time>2026-05-03T10:32:59.883Z</time></trkpt><trkpt lat="40.0348117" lon="15.873945"><ele>755.0</ele><time>2026-05-03T10:33:00.883Z</time></trkpt><trkpt lat="40.0345333" lon="15.8740383"><ele>755.0</ele><time>2026-05-03T10:33:01.883Z</time></trkpt><trkpt lat="40.0342533" lon="15.8741183"><ele>755.0</ele><time>2026-05-03T10:33:02.883Z</time></trkpt><trkpt lat="40.0339683" lon="15.8741833"><ele>761.0</ele><time>2026-05-03T10:33:03.883Z</time></trkpt><trkpt lat="40.033685" lon="15.874245"><ele>767.0</ele><time>2026-05-03T10:33:04.883Z</time></trkpt><trkpt lat="40.033395" lon="15.874295"><ele>781.5</ele><time>2026-05-03T10:33:05.883Z</time></trkpt><trkpt lat="40.03311" lon="15.8743317"><ele>796.0</ele><time>2026-05-03T10:33:06.883Z</time></trkpt><trkpt lat="40.03282" lon="15.8743617"><ele>796.0</ele><time>2026-05-03T10:33:07.883Z</time></trkpt><trkpt lat="40.03253" lon="15.8743883"><ele>796.0</ele><time>2026-05-03T10:33:08.882Z</time></trkpt><trkpt lat="40.032245" lon="15.8744017"><ele>790.0</ele><time>2026-05-03T10:33:09.883Z</time></trkpt><trkpt lat="40.0319567" lon="15.8744283"><ele>784.0</ele><time>2026-05-03T10:33:10.883Z</time></trkpt><trkpt lat="40.0316617" lon="15.8744433"><ele>778.5</ele><time>2026-05-03T10:33:11.883Z</time></trkpt><trkpt lat="40.0313733" lon="15.8744733"><ele>773.0</ele><time>2026-05-03T10:33:12.883Z</time></trkpt><trkpt lat="40.0310867" lon="15.8745167"><ele>777.0</ele><time>2026-05-03T10:33:13.883Z</time></trkpt><trkpt lat="40.0308017" lon="15.8745733"><ele>781.0</ele><time>2026-05-03T10:33:14.883Z</time></trkpt><trkpt lat="40.0305233" lon="15.874635"><ele>781.0</ele><time>2026-05-03T10:33:15.883Z</time></trkpt><trkpt lat="40.0302583" lon="15.8747083"><ele>781.0</ele><time>2026-05-03T10:33:16.883Z</time></trkpt><trkpt lat="40.029985" lon="15.874785"><ele>772.5</ele><time>2026-05-03T10:33:17.883Z</time></trkpt><trkpt lat="40.0297117" lon="15.8748567"><ele>764.0</ele><time>2026-05-03T10:33:18.883Z</time></trkpt><trkpt lat="40.0288117" lon="15.8752733"><ele>760.5</ele><time>2026-05-03T10:33:21.884Z</time></trkpt><trkpt lat="40.02844" lon="15.8755383"><ele>757.0</ele><time>2026-05-03T10:33:22.884Z</time></trkpt><trkpt lat="40.0281167" lon="15.8757467"><ele>757.0</ele><time>2026-05-03T10:33:23.884Z</time></trkpt><trkpt lat="40.0278317" lon="15.8759283"><ele>757.0</ele><time>2026-05-03T10:33:24.883Z</time></trkpt><trkpt lat="40.02757" lon="15.8760967"><ele>750.0</ele><time>2026-05-03T10:33:25.884Z</time></trkpt><trkpt lat="40.027305" lon="15.8762517"><ele>743.0</ele><time>2026-05-03T10:33:26.884Z</time></trkpt><trkpt lat="40.0270583" lon="15.8764117"><ele>743.0</ele><time>2026-05-03T10:33:27.884Z</time></trkpt><trkpt lat="40.026815" lon="15.87656"><ele>743.0</ele><time>2026-05-03T10:33:28.884Z</time></trkpt><trkpt lat="40.0265783" lon="15.8767067"><ele>742.5</ele><time>2026-05-03T10:33:29.884Z</time></trkpt><trkpt lat="40.0263517" lon="15.876855"><ele>742.0</ele><time>2026-05-03T10:33:30.884Z</time></trkpt><trkpt lat="40.0261183" lon="15.877"><ele>742.0</ele><time>2026-05-03T10:33:31.884Z</time></trkpt><trkpt lat="40.02588" lon="15.8771517"><ele>742.0</ele><time>2026-05-03T10:33:32.884Z</time></trkpt><trkpt lat="40.0256417" lon="15.8773033"><ele>743.0</ele><time>2026-05-03T10:33:33.884Z</time></trkpt><trkpt lat="40.0253933" lon="15.877455"><ele>744.0</ele><time>2026-05-03T10:33:34.884Z</time></trkpt><trkpt lat="40.02514" lon="15.8776133"><ele>747.0</ele><time>2026-05-03T10:33:35.884Z</time></trkpt><trkpt lat="40.0248783" lon="15.8777767"><ele>750.0</ele><time>2026-05-03T10:33:36.884Z</time></trkpt><trkpt lat="40.0246167" lon="15.8779283"><ele>750.0</ele><time>2026-05-03T10:33:37.884Z</time></trkpt><trkpt lat="40.0243533" lon="15.8780833"><ele>750.0</ele><time>2026-05-03T10:33:38.884Z</time></trkpt><trkpt lat="40.02408" lon="15.8782383"><ele>754.5</ele><time>2026-05-03T10:33:39.884Z</time></trkpt><trkpt lat="40.0238033" lon="15.8783933"><ele>759.0</ele><time>2026-05-03T10:33:40.884Z</time></trkpt><trkpt lat="40.0235333" lon="15.8785633"><ele>766.5</ele><time>2026-05-03T10:33:41.883Z</time></trkpt><trkpt lat="40.02326" lon="15.8787317"><ele>774.0</ele><time>2026-05-03T10:33:42.883Z</time></trkpt><trkpt lat="40.0229867" lon="15.8788983"><ele>774.0</ele><time>2026-05-03T10:33:43.884Z</time></trkpt><trkpt lat="40.02271" lon="15.87907"><ele>774.0</ele><time>2026-05-03T10:33:44.884Z</time></trkpt><trkpt lat="40.0213417" lon="15.8801367"><ele>756.5</ele><time>2026-05-03T10:33:49.884Z</time></trkpt><trkpt lat="40.0210967" lon="15.8804333"><ele>739.0</ele><time>2026-05-03T10:33:50.884Z</time></trkpt><trkpt lat="40.0209267" lon="15.8808517"><ele>737.0</ele><time>2026-05-03T10:33:51.883Z</time></trkpt><trkpt lat="40.02077" lon="15.881225"><ele>735.0</ele><time>2026-05-03T10:33:52.884Z</time></trkpt><trkpt lat="40.020615" lon="15.8815567"><ele>734.0</ele><time>2026-05-03T10:33:53.883Z</time></trkpt><trkpt lat="40.02046" lon="15.8819167"><ele>733.0</ele><time>2026-05-03T10:33:54.884Z</time></trkpt><trkpt lat="40.0203117" lon="15.8822783"><ele>734.0</ele><time>2026-05-03T10:33:55.884Z</time></trkpt><trkpt lat="40.0201667" lon="15.882655"><ele>735.0</ele><time>2026-05-03T10:33:56.884Z</time></trkpt><trkpt lat="40.0200217" lon="15.883025"><ele>733.5</ele><time>2026-05-03T10:33:57.884Z</time></trkpt><trkpt lat="40.0198783" lon="15.88339"><ele>732.0</ele><time>2026-05-03T10:33:58.884Z</time></trkpt><trkpt lat="40.0197183" lon="15.88375"><ele>732.0</ele><time>2026-05-03T10:33:59.884Z</time></trkpt><trkpt lat="40.0195667" lon="15.8841033"><ele>732.0</ele><time>2026-05-03T10:34:00.884Z</time></trkpt><trkpt lat="40.0194217" lon="15.8844583"><ele>733.0</ele><time>2026-05-03T10:34:01.884Z</time></trkpt><trkpt lat="40.0192683" lon="15.884815"><ele>734.0</ele><time>2026-05-03T10:34:02.884Z</time></trkpt><trkpt lat="40.01911" lon="15.8851617"><ele>731.0</ele><time>2026-05-03T10:34:03.883Z</time></trkpt><trkpt lat="40.0189517" lon="15.885505"><ele>728.0</ele><time>2026-05-03T10:34:04.884Z</time></trkpt><trkpt lat="40.0188067" lon="15.8858483"><ele>727.0</ele><time>2026-05-03T10:34:05.884Z</time></trkpt><trkpt lat="40.0186617" lon="15.88619"><ele>726.0</ele><time>2026-05-03T10:34:06.883Z</time></trkpt><trkpt lat="40.0185183" lon="15.8865367"><ele>726.0</ele><time>2026-05-03T10:34:07.884Z</time></trkpt><trkpt lat="40.0183833" lon="15.8868767"><ele>726.0</ele><time>2026-05-03T10:34:08.884Z</time></trkpt><trkpt lat="40.0182467" lon="15.88722"><ele>726.0</ele><time>2026-05-03T10:34:09.884Z</time></trkpt><trkpt lat="40.0181133" lon="15.887555"><ele>726.0</ele><time>2026-05-03T10:34:10.884Z</time></trkpt><trkpt lat="40.0179883" lon="15.88789"><ele>726.0</ele><time>2026-05-03T10:34:11.884Z</time></trkpt><trkpt lat="40.017875" lon="15.8882333"><ele>726.0</ele><time>2026-05-03T10:34:12.884Z</time></trkpt><trkpt lat="40.0177783" lon="15.8885817"><ele>725.0</ele><time>2026-05-03T10:34:13.884Z</time></trkpt><trkpt lat="40.017685" lon="15.888935"><ele>724.0</ele><time>2026-05-03T10:34:14.884Z</time></trkpt><trkpt lat="40.017585" lon="15.88929"><ele>724.0</ele><time>2026-05-03T10:34:15.883Z</time></trkpt><trkpt lat="40.0174867" lon="15.8896483"><ele>724.0</ele><time>2026-05-03T10:34:16.883Z</time></trkpt><trkpt lat="40.0173783" lon="15.8900117"><ele>724.5</ele><time>2026-05-03T10:34:17.884Z</time></trkpt><trkpt lat="40.0172667" lon="15.890395"><ele>725.0</ele><time>2026-05-03T10:34:18.884Z</time></trkpt><trkpt lat="40.017135" lon="15.8907933"><ele>725.5</ele><time>2026-05-03T10:34:19.884Z</time></trkpt><trkpt lat="40.0169917" lon="15.8911967"><ele>726.0</ele><time>2026-05-03T10:34:20.884Z</time></trkpt><trkpt lat="40.0168233" lon="15.8916067"><ele>727.0</ele><time>2026-05-03T10:34:21.884Z</time></trkpt><trkpt lat="40.016645" lon="15.892005"><ele>728.0</ele><time>2026-05-03T10:34:22.884Z</time></trkpt><trkpt lat="40.01647" lon="15.8923783"><ele>727.5</ele><time>2026-05-03T10:34:23.883Z</time></trkpt><trkpt lat="40.0162967" lon="15.8927267"><ele>727.0</ele><time>2026-05-03T10:34:24.884Z</time></trkpt><trkpt lat="40.016125" lon="15.89306"><ele>727.0</ele><time>2026-05-03T10:34:25.884Z</time></trkpt><trkpt lat="40.01596" lon="15.8933933"><ele>727.0</ele><time>2026-05-03T10:34:26.884Z</time></trkpt><trkpt lat="40.01579" lon="15.893725"><ele>728.5</ele><time>2026-05-03T10:34:27.884Z</time></trkpt><trkpt lat="40.015625" lon="15.8940417"><ele>730.0</ele><time>2026-05-03T10:34:28.884Z</time></trkpt><trkpt lat="40.01546" lon="15.894345"><ele>730.0</ele><time>2026-05-03T10:34:29.883Z</time></trkpt><trkpt lat="40.0152967" lon="15.89464"><ele>730.0</ele><time>2026-05-03T10:34:30.884Z</time></trkpt><trkpt lat="40.0151317" lon="15.8949383"><ele>726.5</ele><time>2026-05-03T10:34:31.883Z</time></trkpt><trkpt lat="40.0149717" lon="15.8952317"><ele>723.0</ele><time>2026-05-03T10:34:32.883Z</time></trkpt><trkpt lat="40.0148117" lon="15.89555"><ele>723.0</ele><time>2026-05-03T10:34:33.884Z</time></trkpt><trkpt lat="40.0146333" lon="15.895875"><ele>723.0</ele><time>2026-05-03T10:34:34.884Z</time></trkpt><trkpt lat="40.01446" lon="15.8962033"><ele>723.0</ele><time>2026-05-03T10:34:35.883Z</time></trkpt><trkpt lat="40.0142817" lon="15.8965317"><ele>723.0</ele><time>2026-05-03T10:34:36.883Z</time></trkpt><trkpt lat="40.01411" lon="15.8968567"><ele>723.0</ele><time>2026-05-03T10:34:37.883Z</time></trkpt><trkpt lat="40.013955" lon="15.8971833"><ele>723.0</ele><time>2026-05-03T10:34:38.883Z</time></trkpt><trkpt lat="40.0137883" lon="15.8975033"><ele>724.0</ele><time>2026-05-03T10:34:39.884Z</time></trkpt><trkpt lat="40.0136067" lon="15.8978133"><ele>725.0</ele><time>2026-05-03T10:34:40.884Z</time></trkpt><trkpt lat="40.0134267" lon="15.8981067"><ele>724.5</ele><time>2026-05-03T10:34:41.884Z</time></trkpt><trkpt lat="40.013245" lon="15.8984017"><ele>724.0</ele><time>2026-05-03T10:34:42.884Z</time></trkpt><trkpt lat="40.013055" lon="15.898695"><ele>724.0</ele><time>2026-05-03T10:34:43.883Z</time></trkpt><trkpt lat="40.0128567" lon="15.8989783"><ele>724.0</ele><time>2026-05-03T10:34:44.884Z</time></trkpt><trkpt lat="40.01266" lon="15.8992583"><ele>726.5</ele><time>2026-05-03T10:34:45.884Z</time></trkpt><trkpt lat="40.0124533" lon="15.89954"><ele>729.0</ele><time>2026-05-03T10:34:46.883Z</time></trkpt><trkpt lat="40.0122433" lon="15.899815"><ele>729.0</ele><time>2026-05-03T10:34:47.884Z</time></trkpt><trkpt lat="40.012025" lon="15.90008"><ele>729.0</ele><time>2026-05-03T10:34:48.884Z</time></trkpt><trkpt lat="40.0118067" lon="15.9003333"><ele>752.5</ele><time>2026-05-03T10:34:49.883Z</time></trkpt><trkpt lat="40.011585" lon="15.90058"><ele>776.0</ele><time>2026-05-03T10:34:50.883Z</time></trkpt><trkpt lat="40.01136" lon="15.9008333"><ele>775.0</ele><time>2026-05-03T10:34:51.883Z</time></trkpt><trkpt lat="40.0111333" lon="15.90109"><ele>774.0</ele><time>2026-05-03T10:34:52.883Z</time></trkpt><trkpt lat="40.0109083" lon="15.90135"><ele>725.0</ele><time>2026-05-03T10:34:53.883Z</time></trkpt><trkpt lat="40.00629" lon="15.908195"><ele>723.0</ele><time>2026-05-03T10:35:16.882Z</time></trkpt><trkpt lat="40.0061167" lon="15.9085083"><ele>721.0</ele><time>2026-05-03T10:35:17.882Z</time></trkpt><trkpt lat="40.0059433" lon="15.90881"><ele>722.0</ele><time>2026-05-03T10:35:18.882Z</time></trkpt><trkpt lat="40.0057567" lon="15.9091083"><ele>723.0</ele><time>2026-05-03T10:35:19.882Z</time></trkpt><trkpt lat="40.005565" lon="15.9093917"><ele>724.0</ele><time>2026-05-03T10:35:20.882Z</time></trkpt><trkpt lat="40.0053667" lon="15.90967"><ele>725.0</ele><time>2026-05-03T10:35:21.882Z</time></trkpt><trkpt lat="40.0051667" lon="15.9099433"><ele>727.0</ele><time>2026-05-03T10:35:22.883Z</time></trkpt><trkpt lat="40.0049617" lon="15.9102117"><ele>729.0</ele><time>2026-05-03T10:35:23.883Z</time></trkpt><trkpt lat="40.00476" lon="15.9104717"><ele>729.0</ele><time>2026-05-03T10:35:24.883Z</time></trkpt><trkpt lat="40.0045567" lon="15.9107383"><ele>729.0</ele><time>2026-05-03T10:35:25.883Z</time></trkpt><trkpt lat="40.00435" lon="15.910995"><ele>732.5</ele><time>2026-05-03T10:35:26.883Z</time></trkpt><trkpt lat="40.00414" lon="15.911255"><ele>736.0</ele><time>2026-05-03T10:35:27.883Z</time></trkpt><trkpt lat="40.00393" lon="15.9115117"><ele>735.0</ele><time>2026-05-03T10:35:28.883Z</time></trkpt><trkpt lat="40.00372" lon="15.9117717"><ele>734.0</ele><time>2026-05-03T10:35:29.883Z</time></trkpt><trkpt lat="40.003515" lon="15.912035"><ele>742.5</ele><time>2026-05-03T10:35:30.882Z</time></trkpt><trkpt lat="40.0033067" lon="15.91229"><ele>751.0</ele><time>2026-05-03T10:35:31.883Z</time></trkpt><trkpt lat="40.0031017" lon="15.9125417"><ele>744.5</ele><time>2026-05-03T10:35:32.883Z</time></trkpt><trkpt lat="40.00288" lon="15.9127983"><ele>738.0</ele><time>2026-05-03T10:35:33.883Z</time></trkpt><trkpt lat="40.0026733" lon="15.913055"><ele>744.5</ele><time>2026-05-03T10:35:34.883Z</time></trkpt><trkpt lat="40.002465" lon="15.91331"><ele>751.0</ele><time>2026-05-03T10:35:35.882Z</time></trkpt><trkpt lat="40.0022717" lon="15.9135633"><ele>751.0</ele><time>2026-05-03T10:35:36.883Z</time></trkpt><trkpt lat="40.0020817" lon="15.913825"><ele>751.0</ele><time>2026-05-03T10:35:37.882Z</time></trkpt><trkpt lat="40.0018917" lon="15.914085"><ele>755.0</ele><time>2026-05-03T10:35:38.883Z</time></trkpt><trkpt lat="40.001705" lon="15.9143383"><ele>759.0</ele><time>2026-05-03T10:35:39.883Z</time></trkpt><trkpt lat="40.0015267" lon="15.9146033"><ele>765.5</ele><time>2026-05-03T10:35:40.883Z</time></trkpt><trkpt lat="40.0013433" lon="15.9148767"><ele>772.0</ele><time>2026-05-03T10:35:41.883Z</time></trkpt><trkpt lat="40.0011583" lon="15.915155"><ele>782.0</ele><time>2026-05-03T10:35:42.882Z</time></trkpt><trkpt lat="40.00097" lon="15.9154367"><ele>792.0</ele><time>2026-05-03T10:35:43.883Z</time></trkpt><trkpt lat="40.00078" lon="15.9157233"><ele>813.0</ele><time>2026-05-03T10:35:44.883Z</time></trkpt><trkpt lat="40.0005917" lon="15.9160083"><ele>834.0</ele><time>2026-05-03T10:35:45.883Z</time></trkpt><trkpt lat="39.99207" lon="15.930085"><ele>772.0</ele><time>2026-05-03T10:36:29.884Z</time></trkpt><trkpt lat="39.9918567" lon="15.9304267"><ele>710.0</ele><time>2026-05-03T10:36:30.884Z</time></trkpt><trkpt lat="39.99165" lon="15.9307433"><ele>708.5</ele><time>2026-05-03T10:36:31.884Z</time></trkpt><trkpt lat="39.99145" lon="15.9310567"><ele>707.0</ele><time>2026-05-03T10:36:32.883Z</time></trkpt><trkpt lat="39.99124" lon="15.9313733"><ele>707.0</ele><time>2026-05-03T10:36:33.883Z</time></trkpt><trkpt lat="39.99102" lon="15.9316733"><ele>707.0</ele><time>2026-05-03T10:36:34.884Z</time></trkpt><trkpt lat="39.99079" lon="15.931945"><ele>696.5</ele><time>2026-05-03T10:36:35.883Z</time></trkpt><trkpt lat="39.9905517" lon="15.9321967"><ele>686.0</ele><time>2026-05-03T10:36:36.884Z</time></trkpt><trkpt lat="39.990305" lon="15.9324367"><ele>687.0</ele><time>2026-05-03T10:36:37.884Z</time></trkpt><trkpt lat="39.9900617" lon="15.93266"><ele>688.0</ele><time>2026-05-03T10:36:38.884Z</time></trkpt><trkpt lat="39.9898067" lon="15.932875"><ele>680.0</ele><time>2026-05-03T10:36:39.883Z</time></trkpt><trkpt lat="39.989545" lon="15.933075"><ele>672.0</ele><time>2026-05-03T10:36:40.884Z</time></trkpt><trkpt lat="39.9892683" lon="15.9332583"><ele>667.0</ele><time>2026-05-03T10:36:41.883Z</time></trkpt><trkpt lat="39.9889817" lon="15.9334367"><ele>662.0</ele><time>2026-05-03T10:36:42.884Z</time></trkpt><trkpt lat="39.9886917" lon="15.93359"><ele>662.0</ele><time>2026-05-03T10:36:43.884Z</time></trkpt><trkpt lat="39.9883917" lon="15.9337233"><ele>662.0</ele><time>2026-05-03T10:36:44.884Z</time></trkpt><trkpt lat="39.988085" lon="15.9338467"><ele>663.0</ele><time>2026-05-03T10:36:45.883Z</time></trkpt><trkpt lat="39.9877817" lon="15.9339467"><ele>664.0</ele><time>2026-05-03T10:36:46.884Z</time></trkpt><trkpt lat="39.9874733" lon="15.9340383"><ele>664.0</ele><time>2026-05-03T10:36:47.883Z</time></trkpt><trkpt lat="39.98716" lon="15.9341067"><ele>664.0</ele><time>2026-05-03T10:36:48.884Z</time></trkpt><trkpt lat="39.9868517" lon="15.9341667"><ele>662.0</ele><time>2026-05-03T10:36:49.884Z</time></trkpt><trkpt lat="39.9865417" lon="15.9342017"><ele>660.0</ele><time>2026-05-03T10:36:50.884Z</time></trkpt><trkpt lat="39.9862283" lon="15.9342367"><ele>653.0</ele><time>2026-05-03T10:36:51.884Z</time></trkpt><trkpt lat="39.985915" lon="15.9342733"><ele>646.0</ele><time>2026-05-03T10:36:52.884Z</time></trkpt><trkpt lat="39.98561" lon="15.9343017"><ele>646.0</ele><time>2026-05-03T10:36:53.884Z</time></trkpt><trkpt lat="39.9852983" lon="15.934335"><ele>646.0</ele><time>2026-05-03T10:36:54.884Z</time></trkpt><trkpt lat="39.9849833" lon="15.9343633"><ele>653.5</ele><time>2026-05-03T10:36:55.884Z</time></trkpt><trkpt lat="39.984665" lon="15.9344033"><ele>661.0</ele><time>2026-05-03T10:36:56.884Z</time></trkpt><trkpt lat="39.98434" lon="15.9344467"><ele>657.0</ele><time>2026-05-03T10:36:57.884Z</time></trkpt><trkpt lat="39.9840167" lon="15.9344783"><ele>653.0</ele><time>2026-05-03T10:36:58.884Z</time></trkpt><trkpt lat="39.9837067" lon="15.9345133"><ele>653.0</ele><time>2026-05-03T10:36:59.884Z</time></trkpt><trkpt lat="39.9833883" lon="15.9345617"><ele>653.0</ele><time>2026-05-03T10:37:00.884Z</time></trkpt><trkpt lat="39.9830767" lon="15.9346"><ele>643.0</ele><time>2026-05-03T10:37:01.883Z</time></trkpt><trkpt lat="39.9827683" lon="15.9346233"><ele>633.0</ele><time>2026-05-03T10:37:02.884Z</time></trkpt><trkpt lat="39.9824583" lon="15.9346417"><ele>633.0</ele><time>2026-05-03T10:37:03.884Z</time></trkpt><trkpt lat="39.9821467" lon="15.9346617"><ele>633.0</ele><time>2026-05-03T10:37:04.883Z</time></trkpt><trkpt lat="39.98184" lon="15.9346967"><ele>636.5</ele><time>2026-05-03T10:37:05.884Z</time></trkpt><trkpt lat="39.98153" lon="15.934735"><ele>640.0</ele><time>2026-05-03T10:37:06.883Z</time></trkpt><trkpt lat="39.98123" lon="15.9347767"><ele>640.0</ele><time>2026-05-03T10:37:07.884Z</time></trkpt><trkpt lat="39.9809317" lon="15.93482"><ele>640.0</ele><time>2026-05-03T10:37:08.884Z</time></trkpt><trkpt lat="39.9806433" lon="15.9348817"><ele>629.5</ele><time>2026-05-03T10:37:09.884Z</time></trkpt><trkpt lat="39.980355" lon="15.9349483"><ele>619.0</ele><time>2026-05-03T10:37:10.884Z</time></trkpt><trkpt lat="39.98007" lon="15.935015"><ele>604.0</ele><time>2026-05-03T10:37:11.884Z</time></trkpt><trkpt lat="39.9797783" lon="15.9350817"><ele>589.0</ele><time>2026-05-03T10:37:12.884Z</time></trkpt><trkpt lat="39.979485" lon="15.9351483"><ele>589.0</ele><time>2026-05-03T10:37:13.884Z</time></trkpt><trkpt lat="39.9791867" lon="15.9352183"><ele>589.0</ele><time>2026-05-03T10:37:14.884Z</time></trkpt><trkpt lat="39.97889" lon="15.93528"><ele>598.5</ele><time>2026-05-03T10:37:15.884Z</time></trkpt><trkpt lat="39.9785917" lon="15.9353433"><ele>608.0</ele><time>2026-05-03T10:37:16.884Z</time></trkpt><trkpt lat="39.9782883" lon="15.9354117"><ele>615.5</ele><time>2026-05-03T10:37:17.883Z</time></trkpt><trkpt lat="39.9779883" lon="15.9354767"><ele>623.0</ele><time>2026-05-03T10:37:18.884Z</time></trkpt><trkpt lat="39.9776967" lon="15.9355417"><ele>620.0</ele><time>2026-05-03T10:37:19.884Z</time></trkpt><trkpt lat="39.977405" lon="15.93561"><ele>617.0</ele><time>2026-05-03T10:37:20.883Z</time></trkpt><trkpt lat="39.977115" lon="15.9356783"><ele>617.0</ele><time>2026-05-03T10:37:21.883Z</time></trkpt><trkpt lat="39.976835" lon="15.9357433"><ele>617.0</ele><time>2026-05-03T10:37:22.883Z</time></trkpt><trkpt lat="39.9765567" lon="15.9358183"><ele>615.5</ele><time>2026-05-03T10:37:23.883Z</time></trkpt><trkpt lat="39.9762833" lon="15.9358833"><ele>614.0</ele><time>2026-05-03T10:37:24.884Z</time></trkpt><trkpt lat="39.9760033" lon="15.9359433"><ele>610.5</ele><time>2026-05-03T10:37:25.884Z</time></trkpt><trkpt lat="39.97572" lon="15.936"><ele>607.0</ele><time>2026-05-03T10:37:26.884Z</time></trkpt><trkpt lat="39.9754383" lon="15.93606"><ele>607.0</ele><time>2026-05-03T10:37:27.884Z</time></trkpt><trkpt lat="39.9751517" lon="15.9361267"><ele>607.0</ele><time>2026-05-03T10:37:28.883Z</time></trkpt><trkpt lat="39.9748733" lon="15.9361917"><ele>606.0</ele><time>2026-05-03T10:37:29.884Z</time></trkpt><trkpt lat="39.974605" lon="15.9362467"><ele>605.0</ele><time>2026-05-03T10:37:30.884Z</time></trkpt><trkpt lat="39.97433" lon="15.9362783"><ele>601.5</ele><time>2026-05-03T10:37:31.884Z</time></trkpt><trkpt lat="39.974055" lon="15.9362933"><ele>598.0</ele><time>2026-05-03T10:37:32.883Z</time></trkpt><trkpt lat="39.973775" lon="15.936275"><ele>598.0</ele><time>2026-05-03T10:37:33.884Z</time></trkpt><trkpt lat="39.9734883" lon="15.93622"><ele>598.0</ele><time>2026-05-03T10:37:34.884Z</time></trkpt><trkpt lat="39.9732" lon="15.9361333"><ele>596.0</ele><time>2026-05-03T10:37:35.884Z</time></trkpt><trkpt lat="39.97291" lon="15.936005"><ele>594.0</ele><time>2026-05-03T10:37:36.884Z</time></trkpt><trkpt lat="39.9726283" lon="15.9358583"><ele>594.0</ele><time>2026-05-03T10:37:37.884Z</time></trkpt><trkpt lat="39.9723633" lon="15.935685"><ele>594.0</ele><time>2026-05-03T10:37:38.884Z</time></trkpt><trkpt lat="39.972115" lon="15.9354783"><ele>594.0</ele><time>2026-05-03T10:37:39.884Z</time></trkpt><trkpt lat="39.97188" lon="15.9352483"><ele>594.0</ele><time>2026-05-03T10:37:40.884Z</time></trkpt><trkpt lat="39.9716567" lon="15.935005"><ele>591.0</ele><time>2026-05-03T10:37:41.884Z</time></trkpt><trkpt lat="39.9714467" lon="15.93474"><ele>588.0</ele><time>2026-05-03T10:37:42.884Z</time></trkpt><trkpt lat="39.9712417" lon="15.9344717"><ele>586.5</ele><time>2026-05-03T10:37:43.884Z</time></trkpt><trkpt lat="39.9710283" lon="15.9342"><ele>585.0</ele><time>2026-05-03T10:37:44.884Z</time></trkpt><trkpt lat="39.9708217" lon="15.93393"><ele>580.0</ele><time>2026-05-03T10:37:45.884Z</time></trkpt><trkpt lat="39.9706083" lon="15.933675"><ele>575.0</ele><time>2026-05-03T10:37:46.884Z</time></trkpt><trkpt lat="39.9703883" lon="15.9334317"><ele>575.0</ele><time>2026-05-03T10:37:47.884Z</time></trkpt><trkpt lat="39.9701617" lon="15.9332117"><ele>575.0</ele><time>2026-05-03T10:37:48.884Z</time></trkpt><trkpt lat="39.969915" lon="15.9330133"><ele>575.0</ele><time>2026-05-03T10:37:49.884Z</time></trkpt><trkpt lat="39.9696517" lon="15.9328433"><ele>575.0</ele><time>2026-05-03T10:37:50.884Z</time></trkpt><trkpt lat="39.969375" lon="15.9327017"><ele>574.0</ele><time>2026-05-03T10:37:51.884Z</time></trkpt><trkpt lat="39.9690933" lon="15.9325867"><ele>573.0</ele><time>2026-05-03T10:37:52.883Z</time></trkpt><trkpt lat="39.9688067" lon="15.932505"><ele>573.0</ele><time>2026-05-03T10:37:53.884Z</time></trkpt><trkpt lat="39.9685133" lon="15.93245"><ele>573.0</ele><time>2026-05-03T10:37:54.884Z</time></trkpt><trkpt lat="39.9682217" lon="15.9324217"><ele>570.0</ele><time>2026-05-03T10:37:55.884Z</time></trkpt><trkpt lat="39.9679133" lon="15.9324283"><ele>567.0</ele><time>2026-05-03T10:37:56.884Z</time></trkpt><trkpt lat="39.9676067" lon="15.932435"><ele>565.5</ele><time>2026-05-03T10:37:57.884Z</time></trkpt><trkpt lat="39.9673" lon="15.9324467"><ele>564.0</ele><time>2026-05-03T10:37:58.884Z</time></trkpt><trkpt lat="39.966995" lon="15.9324633"><ele>561.0</ele><time>2026-05-03T10:37:59.884Z</time></trkpt><trkpt lat="39.96669" lon="15.9324783"><ele>558.0</ele><time>2026-05-03T10:38:00.884Z</time></trkpt><trkpt lat="39.966385" lon="15.9324933"><ele>558.0</ele><time>2026-05-03T10:38:01.884Z</time></trkpt><trkpt lat="39.966085" lon="15.9325067"><ele>558.0</ele><time>2026-05-03T10:38:02.884Z</time></trkpt><trkpt lat="39.96578" lon="15.932515"><ele>558.0</ele><time>2026-05-03T10:38:03.883Z</time></trkpt><trkpt lat="39.965485" lon="15.9325333"><ele>558.0</ele><time>2026-05-03T10:38:04.884Z</time></trkpt><trkpt lat="39.9651833" lon="15.9325517"><ele>556.5</ele><time>2026-05-03T10:38:05.884Z</time></trkpt><trkpt lat="39.9648917" lon="15.9325583"><ele>555.0</ele><time>2026-05-03T10:38:06.883Z</time></trkpt><trkpt lat="39.9646" lon="15.932575"><ele>555.0</ele><time>2026-05-03T10:38:07.884Z</time></trkpt><trkpt lat="39.9643133" lon="15.9325967"><ele>555.0</ele><time>2026-05-03T10:38:08.883Z</time></trkpt><trkpt lat="39.9640267" lon="15.9326283"><ele>554.0</ele><time>2026-05-03T10:38:09.884Z</time></trkpt><trkpt lat="39.9637333" lon="15.932665"><ele>553.0</ele><time>2026-05-03T10:38:10.884Z</time></trkpt><trkpt lat="39.96344" lon="15.932725"><ele>549.5</ele><time>2026-05-03T10:38:11.884Z</time></trkpt><trkpt lat="39.9631417" lon="15.932775"><ele>546.0</ele><time>2026-05-03T10:38:12.883Z</time></trkpt><trkpt lat="39.9628467" lon="15.93283"><ele>546.0</ele><time>2026-05-03T10:38:13.884Z</time></trkpt><trkpt lat="39.9625483" lon="15.9328867"><ele>546.0</ele><time>2026-05-03T10:38:14.883Z</time></trkpt><trkpt lat="39.9622417" lon="15.9329383"><ele>541.0</ele><time>2026-05-03T10:38:15.884Z</time></trkpt><trkpt lat="39.961935" lon="15.9329833"><ele>536.0</ele><time>2026-05-03T10:38:16.883Z</time></trkpt><trkpt lat="39.9616233" lon="15.93304"><ele>533.0</ele><time>2026-05-03T10:38:17.884Z</time></trkpt><trkpt lat="39.9613133" lon="15.9331033"><ele>530.0</ele><time>2026-05-03T10:38:18.884Z</time></trkpt><trkpt lat="39.961005" lon="15.9331817"><ele>526.0</ele><time>2026-05-03T10:38:19.884Z</time></trkpt><trkpt lat="39.9607033" lon="15.933265"><ele>522.0</ele><time>2026-05-03T10:38:20.883Z</time></trkpt><trkpt lat="39.9604133" lon="15.9333583"><ele>515.0</ele><time>2026-05-03T10:38:21.884Z</time></trkpt><trkpt lat="39.9601317" lon="15.9334617"><ele>508.0</ele><time>2026-05-03T10:38:22.884Z</time></trkpt><trkpt lat="39.95986" lon="15.93358"><ele>497.5</ele><time>2026-05-03T10:38:23.884Z</time></trkpt><trkpt lat="39.9595817" lon="15.9337117"><ele>487.0</ele><time>2026-05-03T10:38:24.884Z</time></trkpt><trkpt lat="39.95931" lon="15.933845"><ele>475.5</ele><time>2026-05-03T10:38:25.883Z</time></trkpt><trkpt lat="39.95904" lon="15.933985"><ele>464.0</ele><time>2026-05-03T10:38:26.884Z</time></trkpt><trkpt lat="39.958775" lon="15.9341417"><ele>453.0</ele><time>2026-05-03T10:38:27.884Z</time></trkpt><trkpt lat="39.9584983" lon="15.9342967"><ele>442.0</ele><time>2026-05-03T10:38:28.884Z</time></trkpt><trkpt lat="39.9582283" lon="15.9344567"><ele>434.5</ele><time>2026-05-03T10:38:29.884Z</time></trkpt><trkpt lat="39.9579633" lon="15.9346217"><ele>427.0</ele><time>2026-05-03T10:38:30.884Z</time></trkpt><trkpt lat="39.9576883" lon="15.93478"><ele>423.0</ele><time>2026-05-03T10:38:31.884Z</time></trkpt><trkpt lat="39.957415" lon="15.93494"><ele>419.0</ele><time>2026-05-03T10:38:32.883Z</time></trkpt><trkpt lat="39.9571333" lon="15.9350967"><ele>415.5</ele><time>2026-05-03T10:38:33.884Z</time></trkpt><trkpt lat="39.9568567" lon="15.9352617"><ele>412.0</ele><time>2026-05-03T10:38:34.884Z</time></trkpt><trkpt lat="39.9565783" lon="15.9354283"><ele>432.0</ele><time>2026-05-03T10:38:35.884Z</time></trkpt><trkpt lat="39.9563033" lon="15.9355933"><ele>452.0</ele><time>2026-05-03T10:38:36.884Z</time></trkpt><trkpt lat="39.9560367" lon="15.935765"><ele>483.5</ele><time>2026-05-03T10:38:37.884Z</time></trkpt><trkpt lat="39.9557767" lon="15.93595"><ele>515.0</ele><time>2026-05-03T10:38:38.884Z</time></trkpt><trkpt lat="39.9555267" lon="15.936135"><ele>515.0</ele><time>2026-05-03T10:38:39.884Z</time></trkpt><trkpt lat="39.95528" lon="15.9363383"><ele>515.0</ele><time>2026-05-03T10:38:40.883Z</time></trkpt><trkpt lat="39.95503" lon="15.936555"><ele>521.0</ele><time>2026-05-03T10:38:41.884Z</time></trkpt><trkpt lat="39.9547767" lon="15.9367767"><ele>527.0</ele><time>2026-05-03T10:38:42.884Z</time></trkpt><trkpt lat="39.954535" lon="15.9370167"><ele>527.0</ele><time>2026-05-03T10:38:43.884Z</time></trkpt><trkpt lat="39.95429" lon="15.9372617"><ele>527.0</ele><time>2026-05-03T10:38:44.884Z</time></trkpt><trkpt lat="39.954035" lon="15.93751"><ele>539.0</ele><time>2026-05-03T10:38:45.884Z</time></trkpt><trkpt lat="39.953785" lon="15.9377617"><ele>551.0</ele><time>2026-05-03T10:38:46.884Z</time></trkpt><trkpt lat="39.9535217" lon="15.9380167"><ele>565.5</ele><time>2026-05-03T10:38:47.884Z</time></trkpt><trkpt lat="39.95326" lon="15.938265"><ele>580.0</ele><time>2026-05-03T10:38:48.884Z</time></trkpt><trkpt lat="39.9530033" lon="15.938505"><ele>487.0</ele><time>2026-05-03T10:38:49.884Z</time></trkpt><trkpt lat="39.9429583" lon="15.9591017"><ele>487.0</ele><time>2026-05-03T10:39:55.885Z</time></trkpt><trkpt lat="39.9426867" lon="15.959125"><ele>487.0</ele><time>2026-05-03T10:39:56.886Z</time></trkpt><trkpt lat="39.9424" lon="15.959125"><ele>469.0</ele><time>2026-05-03T10:39:57.886Z</time></trkpt><trkpt lat="39.9421083" lon="15.9590983"><ele>451.0</ele><time>2026-05-03T10:39:58.886Z</time></trkpt><trkpt lat="39.9418233" lon="15.959065"><ele>441.0</ele><time>2026-05-03T10:39:59.886Z</time></trkpt><trkpt lat="39.9415433" lon="15.9590267"><ele>431.0</ele><time>2026-05-03T10:40:00.886Z</time></trkpt><trkpt lat="39.941255" lon="15.958995"><ele>431.0</ele><time>2026-05-03T10:40:01.886Z</time></trkpt><trkpt lat="39.94097" lon="15.9589833"><ele>431.0</ele><time>2026-05-03T10:40:02.886Z</time></trkpt><trkpt lat="39.940685" lon="15.9589917"><ele>413.0</ele><time>2026-05-03T10:40:03.885Z</time></trkpt><trkpt lat="39.9404067" lon="15.9590267"><ele>395.0</ele><time>2026-05-03T10:40:04.886Z</time></trkpt><trkpt lat="39.940135" lon="15.9590917"><ele>372.5</ele><time>2026-05-03T10:40:05.886Z</time></trkpt><trkpt lat="39.9398783" lon="15.9591667"><ele>350.0</ele><time>2026-05-03T10:40:06.886Z</time></trkpt><trkpt lat="39.9396267" lon="15.959255"><ele>337.5</ele><time>2026-05-03T10:40:07.886Z</time></trkpt><trkpt lat="39.93937" lon="15.9593367"><ele>325.0</ele><time>2026-05-03T10:40:08.885Z</time></trkpt><trkpt lat="39.9391067" lon="15.95942"><ele>321.0</ele><time>2026-05-03T10:40:09.886Z</time></trkpt><trkpt lat="39.9388283" lon="15.959505"><ele>317.0</ele><time>2026-05-03T10:40:10.885Z</time></trkpt><trkpt lat="39.9385467" lon="15.9595933"><ele>331.0</ele><time>2026-05-03T10:40:11.885Z</time></trkpt><trkpt lat="39.9382533" lon="15.9596767"><ele>345.0</ele><time>2026-05-03T10:40:12.885Z</time></trkpt><trkpt lat="39.9379617" lon="15.9597667"><ele>345.0</ele><time>2026-05-03T10:40:13.886Z</time></trkpt><trkpt lat="39.9376717" lon="15.9598467"><ele>345.0</ele><time>2026-05-03T10:40:14.886Z</time></trkpt><trkpt lat="39.9373817" lon="15.9599267"><ele>354.0</ele><time>2026-05-03T10:40:15.885Z</time></trkpt><trkpt lat="39.9370883" lon="15.960015"><ele>363.0</ele><time>2026-05-03T10:40:16.885Z</time></trkpt><trkpt lat="39.9367983" lon="15.9601033"><ele>379.5</ele><time>2026-05-03T10:40:17.886Z</time></trkpt><trkpt lat="39.93651" lon="15.9601783"><ele>396.0</ele><time>2026-05-03T10:40:18.886Z</time></trkpt><trkpt lat="39.9362233" lon="15.9602683"><ele>396.0</ele><time>2026-05-03T10:40:19.886Z</time></trkpt><trkpt lat="39.9359417" lon="15.9603517"><ele>396.0</ele><time>2026-05-03T10:40:20.886Z</time></trkpt><trkpt lat="39.935655" lon="15.9604267"><ele>411.5</ele><time>2026-05-03T10:40:21.886Z</time></trkpt><trkpt lat="39.9353717" lon="15.9605233"><ele>427.0</ele><time>2026-05-03T10:40:22.885Z</time></trkpt><trkpt lat="39.9351" lon="15.9606233"><ele>441.5</ele><time>2026-05-03T10:40:23.886Z</time></trkpt><trkpt lat="39.9348283" lon="15.9607383"><ele>456.0</ele><time>2026-05-03T10:40:24.886Z</time></trkpt><trkpt lat="39.934555" lon="15.9608517"><ele>456.0</ele><time>2026-05-03T10:40:25.886Z</time></trkpt><trkpt lat="39.93429" lon="15.9609833"><ele>456.0</ele><time>2026-05-03T10:40:26.886Z</time></trkpt><trkpt lat="39.9340233" lon="15.961135"><ele>471.5</ele><time>2026-05-03T10:40:27.886Z</time></trkpt><trkpt lat="39.9337683" lon="15.9613033"><ele>487.0</ele><time>2026-05-03T10:40:28.885Z</time></trkpt><trkpt lat="39.933515" lon="15.9614917"><ele>487.5</ele><time>2026-05-03T10:40:29.885Z</time></trkpt><trkpt lat="39.9332783" lon="15.9616883"><ele>488.0</ele><time>2026-05-03T10:40:30.886Z</time></trkpt><trkpt lat="39.9330333" lon="15.9618883"><ele>488.0</ele><time>2026-05-03T10:40:31.886Z</time></trkpt><trkpt lat="39.9327917" lon="15.9620917"><ele>488.0</ele><time>2026-05-03T10:40:32.885Z</time></trkpt><trkpt lat="39.9325483" lon="15.96229"><ele>488.0</ele><time>2026-05-03T10:40:33.886Z</time></trkpt><trkpt lat="39.932305" lon="15.96249"><ele>488.0</ele><time>2026-05-03T10:40:34.885Z</time></trkpt><trkpt lat="39.9320683" lon="15.9626817"><ele>487.5</ele><time>2026-05-03T10:40:35.886Z</time></trkpt><trkpt lat="39.93183" lon="15.9628667"><ele>487.0</ele><time>2026-05-03T10:40:36.886Z</time></trkpt><trkpt lat="39.9315917" lon="15.9630483"><ele>487.0</ele><time>2026-05-03T10:40:37.885Z</time></trkpt><trkpt lat="39.9313583" lon="15.9632217"><ele>487.0</ele><time>2026-05-03T10:40:38.886Z</time></trkpt><trkpt lat="39.9311217" lon="15.96338"><ele>497.5</ele><time>2026-05-03T10:40:39.885Z</time></trkpt><trkpt lat="39.93088" lon="15.9635317"><ele>508.0</ele><time>2026-05-03T10:40:40.886Z</time></trkpt><trkpt lat="39.930645" lon="15.9636833"><ele>508.0</ele><time>2026-05-03T10:40:41.886Z</time></trkpt><trkpt lat="39.9304133" lon="15.9638283"><ele>508.0</ele><time>2026-05-03T10:40:42.886Z</time></trkpt><trkpt lat="39.9301817" lon="15.96396"><ele>511.5</ele><time>2026-05-03T10:40:43.885Z</time></trkpt><trkpt lat="39.9299433" lon="15.96409"><ele>515.0</ele><time>2026-05-03T10:40:44.885Z</time></trkpt><trkpt lat="39.9297083" lon="15.9642217"><ele>520.0</ele><time>2026-05-03T10:40:45.886Z</time></trkpt><trkpt lat="39.92947" lon="15.9643567"><ele>525.0</ele><time>2026-05-03T10:40:46.886Z</time></trkpt><trkpt lat="39.9292333" lon="15.96449"><ele>531.0</ele><time>2026-05-03T10:40:47.885Z</time></trkpt><trkpt lat="39.9289967" lon="15.9646233"><ele>537.0</ele><time>2026-05-03T10:40:48.886Z</time></trkpt><trkpt lat="39.92448" lon="15.9664617"><ele>536.5</ele><time>2026-05-03T10:41:03.884Z</time></trkpt><trkpt lat="39.924165" lon="15.9664317"><ele>536.0</ele><time>2026-05-03T10:41:04.884Z</time></trkpt><trkpt lat="39.923865" lon="15.9665433"><ele>536.0</ele><time>2026-05-03T10:41:05.884Z</time></trkpt><trkpt lat="39.9235583" lon="15.9666517"><ele>536.0</ele><time>2026-05-03T10:41:06.884Z</time></trkpt><trkpt lat="39.9232633" lon="15.9667667"><ele>543.0</ele><time>2026-05-03T10:41:07.883Z</time></trkpt><trkpt lat="39.922975" lon="15.9668783"><ele>550.0</ele><time>2026-05-03T10:41:08.884Z</time></trkpt><trkpt lat="39.9226967" lon="15.9669833"><ele>546.5</ele><time>2026-05-03T10:41:09.883Z</time></trkpt><trkpt lat="39.92242" lon="15.9670933"><ele>543.0</ele><time>2026-05-03T10:41:10.883Z</time></trkpt><trkpt lat="39.9221483" lon="15.9671967"><ele>543.0</ele><time>2026-05-03T10:41:11.884Z</time></trkpt><trkpt lat="39.9218783" lon="15.9672917"><ele>543.0</ele><time>2026-05-03T10:41:12.883Z</time></trkpt><trkpt lat="39.9216017" lon="15.967375"><ele>542.5</ele><time>2026-05-03T10:41:13.883Z</time></trkpt><trkpt lat="39.9213233" lon="15.9674383"><ele>542.0</ele><time>2026-05-03T10:41:14.883Z</time></trkpt><trkpt lat="39.92105" lon="15.9674783"><ele>543.5</ele><time>2026-05-03T10:41:15.883Z</time></trkpt><trkpt lat="39.9207733" lon="15.9675"><ele>545.0</ele><time>2026-05-03T10:41:16.884Z</time></trkpt><trkpt lat="39.9205" lon="15.9675117"><ele>545.0</ele><time>2026-05-03T10:41:17.883Z</time></trkpt><trkpt lat="39.9202283" lon="15.967515"><ele>545.0</ele><time>2026-05-03T10:41:18.884Z</time></trkpt><trkpt lat="39.91995" lon="15.9675083"><ele>547.5</ele><time>2026-05-03T10:41:19.884Z</time></trkpt><trkpt lat="39.9196683" lon="15.9674883"><ele>550.0</ele><time>2026-05-03T10:41:20.883Z</time></trkpt><trkpt lat="39.9194" lon="15.9674533"><ele>553.0</ele><time>2026-05-03T10:41:21.884Z</time></trkpt><trkpt lat="39.9191267" lon="15.9674067"><ele>556.0</ele><time>2026-05-03T10:41:22.884Z</time></trkpt><trkpt lat="39.918855" lon="15.9673467"><ele>556.0</ele><time>2026-05-03T10:41:23.884Z</time></trkpt><trkpt lat="39.918585" lon="15.9672733"><ele>556.0</ele><time>2026-05-03T10:41:24.884Z</time></trkpt><trkpt lat="39.9183117" lon="15.967175"><ele>560.5</ele><time>2026-05-03T10:41:25.884Z</time></trkpt><trkpt lat="39.9180467" lon="15.9670583"><ele>565.0</ele><time>2026-05-03T10:41:26.884Z</time></trkpt><trkpt lat="39.91778" lon="15.9669433"><ele>564.0</ele><time>2026-05-03T10:41:27.884Z</time></trkpt><trkpt lat="39.9175183" lon="15.966815"><ele>563.0</ele><time>2026-05-03T10:41:28.884Z</time></trkpt><trkpt lat="39.9172717" lon="15.9666683"><ele>563.0</ele><time>2026-05-03T10:41:29.883Z</time></trkpt><trkpt lat="39.917025" lon="15.966525"><ele>563.0</ele><time>2026-05-03T10:41:30.884Z</time></trkpt><trkpt lat="39.916785" lon="15.96637"><ele>568.0</ele><time>2026-05-03T10:41:31.884Z</time></trkpt><trkpt lat="39.9165417" lon="15.9662133"><ele>573.0</ele><time>2026-05-03T10:41:32.884Z</time></trkpt><trkpt lat="39.9162917" lon="15.96606"><ele>573.0</ele><time>2026-05-03T10:41:33.884Z</time></trkpt><trkpt lat="39.9160433" lon="15.9659"><ele>573.0</ele><time>2026-05-03T10:41:34.884Z</time></trkpt><trkpt lat="39.91579" lon="15.96574"><ele>571.5</ele><time>2026-05-03T10:41:35.884Z</time></trkpt><trkpt lat="39.9155333" lon="15.9655783"><ele>570.0</ele><time>2026-05-03T10:41:36.883Z</time></trkpt><trkpt lat="39.91527" lon="15.9654133"><ele>574.0</ele><time>2026-05-03T10:41:37.884Z</time></trkpt><trkpt lat="39.9150067" lon="15.965245"><ele>578.0</ele><time>2026-05-03T10:41:38.884Z</time></trkpt><trkpt lat="39.914745" lon="15.96508"><ele>577.0</ele><time>2026-05-03T10:41:39.883Z</time></trkpt><trkpt lat="39.914475" lon="15.9649083"><ele>576.0</ele><time>2026-05-03T10:41:40.884Z</time></trkpt><trkpt lat="39.9142083" lon="15.96474"><ele>576.0</ele><time>2026-05-03T10:41:41.884Z</time></trkpt><trkpt lat="39.9139417" lon="15.96457"><ele>576.0</ele><time>2026-05-03T10:41:42.884Z</time></trkpt><trkpt lat="39.9136733" lon="15.964405"><ele>580.5</ele><time>2026-05-03T10:41:43.884Z</time></trkpt><trkpt lat="39.9134" lon="15.9642283"><ele>585.0</ele><time>2026-05-03T10:41:44.884Z</time></trkpt><trkpt lat="39.91312" lon="15.9640567"><ele>586.0</ele><time>2026-05-03T10:41:45.884Z</time></trkpt><trkpt lat="39.91284" lon="15.9638817"><ele>587.0</ele><time>2026-05-03T10:41:46.884Z</time></trkpt><trkpt lat="39.91256" lon="15.9636967"><ele>586.5</ele><time>2026-05-03T10:41:47.884Z</time></trkpt><trkpt lat="39.9122817" lon="15.9635133"><ele>586.0</ele><time>2026-05-03T10:41:48.884Z</time></trkpt><trkpt lat="39.911995" lon="15.963335"><ele>590.5</ele><time>2026-05-03T10:41:49.883Z</time></trkpt><trkpt lat="39.91171" lon="15.9631583"><ele>595.0</ele><time>2026-05-03T10:41:50.884Z</time></trkpt><trkpt lat="39.9114283" lon="15.96299"><ele>595.0</ele><time>2026-05-03T10:41:51.884Z</time></trkpt><trkpt lat="39.9111517" lon="15.96283"><ele>595.0</ele><time>2026-05-03T10:41:52.884Z</time></trkpt><trkpt lat="39.9108683" lon="15.9626867"><ele>595.0</ele><time>2026-05-03T10:41:53.883Z</time></trkpt><trkpt lat="39.9105867" lon="15.962555"><ele>595.0</ele><time>2026-05-03T10:41:54.884Z</time></trkpt><trkpt lat="39.9103067" lon="15.96244"><ele>597.0</ele><time>2026-05-03T10:41:55.884Z</time></trkpt><trkpt lat="39.9100267" lon="15.962345"><ele>599.0</ele><time>2026-05-03T10:41:56.884Z</time></trkpt><trkpt lat="39.9097467" lon="15.96227"><ele>599.0</ele><time>2026-05-03T10:41:57.884Z</time></trkpt><trkpt lat="39.9094667" lon="15.96222"><ele>599.0</ele><time>2026-05-03T10:41:58.884Z</time></trkpt><trkpt lat="39.90919" lon="15.9621767"><ele>603.5</ele><time>2026-05-03T10:41:59.884Z</time></trkpt><trkpt lat="39.9089117" lon="15.9621533"><ele>608.0</ele><time>2026-05-03T10:42:00.884Z</time></trkpt><trkpt lat="39.908625" lon="15.9621467"><ele>612.0</ele><time>2026-05-03T10:42:01.884Z</time></trkpt><trkpt lat="39.908345" lon="15.9621533"><ele>616.0</ele><time>2026-05-03T10:42:02.883Z</time></trkpt><trkpt lat="39.9080533" lon="15.962185"><ele>616.0</ele><time>2026-05-03T10:42:03.884Z</time></trkpt><trkpt lat="39.9077683" lon="15.9622283"><ele>616.0</ele><time>2026-05-03T10:42:04.884Z</time></trkpt><trkpt lat="39.9074883" lon="15.9622867"><ele>614.5</ele><time>2026-05-03T10:42:05.884Z</time></trkpt><trkpt lat="39.9072183" lon="15.9623667"><ele>613.0</ele><time>2026-05-03T10:42:06.883Z</time></trkpt><trkpt lat="39.90695" lon="15.9624567"><ele>615.0</ele><time>2026-05-03T10:42:07.884Z</time></trkpt><trkpt lat="39.9066867" lon="15.96256"><ele>617.0</ele><time>2026-05-03T10:42:08.884Z</time></trkpt><trkpt lat="39.90643" lon="15.9626917"><ele>617.0</ele><time>2026-05-03T10:42:09.883Z</time></trkpt><trkpt lat="39.9061817" lon="15.962845"><ele>617.0</ele><time>2026-05-03T10:42:10.884Z</time></trkpt><trkpt lat="39.9059383" lon="15.9630233"><ele>617.5</ele><time>2026-05-03T10:42:11.883Z</time></trkpt><trkpt lat="39.9056817" lon="15.9632017"><ele>618.0</ele><time>2026-05-03T10:42:12.884Z</time></trkpt><trkpt lat="39.90543" lon="15.9634067"><ele>621.5</ele><time>2026-05-03T10:42:13.884Z</time></trkpt><trkpt lat="39.9051783" lon="15.9636283"><ele>625.0</ele><time>2026-05-03T10:42:14.883Z</time></trkpt><trkpt lat="39.90494" lon="15.963885"><ele>625.0</ele><time>2026-05-03T10:42:15.884Z</time></trkpt><trkpt lat="39.9047167" lon="15.964165"><ele>625.0</ele><time>2026-05-03T10:42:16.883Z</time></trkpt><trkpt lat="39.904515" lon="15.9644617"><ele>628.5</ele><time>2026-05-03T10:42:17.883Z</time></trkpt><trkpt lat="39.9043317" lon="15.964755"><ele>632.0</ele><time>2026-05-03T10:42:18.883Z</time></trkpt><trkpt lat="39.9041417" lon="15.9650567"><ele>644.5</ele><time>2026-05-03T10:42:19.884Z</time></trkpt><trkpt lat="39.9039567" lon="15.96536"><ele>657.0</ele><time>2026-05-03T10:42:20.884Z</time></trkpt><trkpt lat="39.90377" lon="15.965665"><ele>670.5</ele><time>2026-05-03T10:42:21.884Z</time></trkpt><trkpt lat="39.9035883" lon="15.9659733"><ele>684.0</ele><time>2026-05-03T10:42:22.884Z</time></trkpt><trkpt lat="39.9034033" lon="15.9662783"><ele>660.0</ele><time>2026-05-03T10:42:23.884Z</time></trkpt><trkpt lat="39.9002233" lon="15.9741683"><ele>659.5</ele><time>2026-05-03T10:42:45.885Z</time></trkpt><trkpt lat="39.9000883" lon="15.9745"><ele>659.0</ele><time>2026-05-03T10:42:46.884Z</time></trkpt><trkpt lat="39.8999517" lon="15.974835"><ele>659.0</ele><time>2026-05-03T10:42:47.885Z</time></trkpt><trkpt lat="39.8998083" lon="15.9751517"><ele>659.0</ele><time>2026-05-03T10:42:48.884Z</time></trkpt><trkpt lat="39.8996583" lon="15.9754617"><ele>659.0</ele><time>2026-05-03T10:42:49.884Z</time></trkpt><trkpt lat="39.899495" lon="15.9757583"><ele>659.0</ele><time>2026-05-03T10:42:50.885Z</time></trkpt><trkpt lat="39.8993217" lon="15.9760467"><ele>665.5</ele><time>2026-05-03T10:42:51.885Z</time></trkpt><trkpt lat="39.899145" lon="15.976335"><ele>672.0</ele><time>2026-05-03T10:42:52.885Z</time></trkpt><trkpt lat="39.8989567" lon="15.97661"><ele>668.0</ele><time>2026-05-03T10:42:53.884Z</time></trkpt><trkpt lat="39.8987617" lon="15.9768783"><ele>664.0</ele><time>2026-05-03T10:42:54.885Z</time></trkpt><trkpt lat="39.898555" lon="15.9771367"><ele>682.0</ele><time>2026-05-03T10:42:55.885Z</time></trkpt><trkpt lat="39.8983317" lon="15.9774"><ele>700.0</ele><time>2026-05-03T10:42:56.884Z</time></trkpt><trkpt lat="39.89811" lon="15.977655"><ele>700.0</ele><time>2026-05-03T10:42:57.885Z</time></trkpt><trkpt lat="39.8978933" lon="15.977915"><ele>700.0</ele><time>2026-05-03T10:42:58.884Z</time></trkpt><trkpt lat="39.897675" lon="15.9781767"><ele>695.5</ele><time>2026-05-03T10:42:59.885Z</time></trkpt><trkpt lat="39.8974583" lon="15.9784367"><ele>691.0</ele><time>2026-05-03T10:43:00.885Z</time></trkpt><trkpt lat="39.8796817" lon="15.9874717"><ele>719.0</ele><time>2026-05-03T10:44:08.883Z</time></trkpt><trkpt lat="39.87951" lon="15.9877867"><ele>747.0</ele><time>2026-05-03T10:44:09.883Z</time></trkpt><trkpt lat="39.879335" lon="15.988085"><ele>758.5</ele><time>2026-05-03T10:44:10.883Z</time></trkpt><trkpt lat="39.8791617" lon="15.988405"><ele>770.0</ele><time>2026-05-03T10:44:11.882Z</time></trkpt><trkpt lat="39.87899" lon="15.9887217"><ele>770.0</ele><time>2026-05-03T10:44:12.882Z</time></trkpt><trkpt lat="39.8788183" lon="15.9890267"><ele>770.0</ele><time>2026-05-03T10:44:13.883Z</time></trkpt><trkpt lat="39.87865" lon="15.9893417"><ele>770.5</ele><time>2026-05-03T10:44:14.882Z</time></trkpt><trkpt lat="39.8784733" lon="15.9896517"><ele>771.0</ele><time>2026-05-03T10:44:15.882Z</time></trkpt><trkpt lat="39.8782983" lon="15.9899617"><ele>776.0</ele><time>2026-05-03T10:44:16.882Z</time></trkpt><trkpt lat="39.878125" lon="15.99027"><ele>781.0</ele><time>2026-05-03T10:44:17.883Z</time></trkpt><trkpt lat="39.877955" lon="15.99058"><ele>778.5</ele><time>2026-05-03T10:44:18.883Z</time></trkpt><trkpt lat="39.8777883" lon="15.9909033"><ele>776.0</ele><time>2026-05-03T10:44:19.883Z</time></trkpt><trkpt lat="39.8776367" lon="15.9912317"><ele>776.0</ele><time>2026-05-03T10:44:20.883Z</time></trkpt><trkpt lat="39.8774933" lon="15.99157"><ele>776.0</ele><time>2026-05-03T10:44:21.883Z</time></trkpt><trkpt lat="39.877355" lon="15.9919067"><ele>776.0</ele><time>2026-05-03T10:44:22.883Z</time></trkpt><trkpt lat="39.8772417" lon="15.9922583"><ele>776.0</ele><time>2026-05-03T10:44:23.882Z</time></trkpt><trkpt lat="39.8771533" lon="15.992625"><ele>778.5</ele><time>2026-05-03T10:44:24.883Z</time></trkpt><trkpt lat="39.8770833" lon="15.993005"><ele>781.0</ele><time>2026-05-03T10:44:25.883Z</time></trkpt><trkpt lat="39.877035" lon="15.9933883"><ele>782.5</ele><time>2026-05-03T10:44:26.882Z</time></trkpt><trkpt lat="39.876995" lon="15.993775"><ele>784.0</ele><time>2026-05-03T10:44:27.883Z</time></trkpt><trkpt lat="39.8769717" lon="15.9941683"><ele>784.0</ele><time>2026-05-03T10:44:28.883Z</time></trkpt><trkpt lat="39.8769683" lon="15.9945533"><ele>784.0</ele><time>2026-05-03T10:44:29.883Z</time></trkpt><trkpt lat="39.8769783" lon="15.994945"><ele>783.0</ele><time>2026-05-03T10:44:30.883Z</time></trkpt><trkpt lat="39.8770033" lon="15.995335"><ele>782.0</ele><time>2026-05-03T10:44:31.883Z</time></trkpt><trkpt lat="39.877045" lon="15.9957283"><ele>780.0</ele><time>2026-05-03T10:44:32.883Z</time></trkpt><trkpt lat="39.8770933" lon="15.9961233"><ele>778.0</ele><time>2026-05-03T10:44:33.883Z</time></trkpt><trkpt lat="39.87715" lon="15.9965083"><ele>779.5</ele><time>2026-05-03T10:44:34.883Z</time></trkpt><trkpt lat="39.8772117" lon="15.99689"><ele>781.0</ele><time>2026-05-03T10:44:35.882Z</time></trkpt><trkpt lat="39.8772767" lon="15.9972667"><ele>783.0</ele><time>2026-05-03T10:44:36.882Z</time></trkpt><trkpt lat="39.8773383" lon="15.9976417"><ele>785.0</ele><time>2026-05-03T10:44:37.883Z</time></trkpt><trkpt lat="39.8774033" lon="15.9980267"><ele>783.5</ele><time>2026-05-03T10:44:38.882Z</time></trkpt><trkpt lat="39.87747" lon="15.9984"><ele>782.0</ele><time>2026-05-03T10:44:39.883Z</time></trkpt><trkpt lat="39.8775333" lon="15.9987833"><ele>781.5</ele><time>2026-05-03T10:44:40.883Z</time></trkpt><trkpt lat="39.8775983" lon="15.9991717"><ele>781.0</ele><time>2026-05-03T10:44:41.883Z</time></trkpt><trkpt lat="39.8776667" lon="15.9995583"><ele>788.5</ele><time>2026-05-03T10:44:42.883Z</time></trkpt><trkpt lat="39.8777367" lon="15.9999467"><ele>796.0</ele><time>2026-05-03T10:44:43.883Z</time></trkpt><trkpt lat="39.877805" lon="16.00033"><ele>796.0</ele><time>2026-05-03T10:44:44.882Z</time></trkpt><trkpt lat="39.8778683" lon="16.0007167"><ele>796.0</ele><time>2026-05-03T10:44:45.883Z</time></trkpt><trkpt lat="39.8779333" lon="16.001115"><ele>796.0</ele><time>2026-05-03T10:44:46.883Z</time></trkpt><trkpt lat="39.8779967" lon="16.00151"><ele>796.0</ele><time>2026-05-03T10:44:47.883Z</time></trkpt><trkpt lat="39.8780583" lon="16.00189"><ele>796.0</ele><time>2026-05-03T10:44:48.883Z</time></trkpt><trkpt lat="39.8781217" lon="16.00225"><ele>796.0</ele><time>2026-05-03T10:44:49.883Z</time></trkpt><trkpt lat="39.87819" lon="16.0025983"><ele>796.0</ele><time>2026-05-03T10:44:50.883Z</time></trkpt><trkpt lat="39.8782533" lon="16.002945"><ele>796.0</ele><time>2026-05-03T10:44:51.883Z</time></trkpt><trkpt lat="39.8783233" lon="16.003305"><ele>797.0</ele><time>2026-05-03T10:44:52.883Z</time></trkpt><trkpt lat="39.878385" lon="16.0036583"><ele>798.0</ele><time>2026-05-03T10:44:53.882Z</time></trkpt><trkpt lat="39.8784467" lon="16.0040217"><ele>808.5</ele><time>2026-05-03T10:44:54.883Z</time></trkpt><trkpt lat="39.8785133" lon="16.0043767"><ele>819.0</ele><time>2026-05-03T10:44:55.883Z</time></trkpt><trkpt lat="39.878575" lon="16.0047317"><ele>821.5</ele><time>2026-05-03T10:44:56.883Z</time></trkpt><trkpt lat="39.8786467" lon="16.0050983"><ele>824.0</ele><time>2026-05-03T10:44:57.882Z</time></trkpt><trkpt lat="39.878725" lon="16.0054583"><ele>824.0</ele><time>2026-05-03T10:44:58.883Z</time></trkpt><trkpt lat="39.8788033" lon="16.00582"><ele>824.0</ele><time>2026-05-03T10:44:59.883Z</time></trkpt><trkpt lat="39.8789" lon="16.006185"><ele>824.0</ele><time>2026-05-03T10:45:00.883Z</time></trkpt><trkpt lat="39.8789983" lon="16.0065383"><ele>824.0</ele><time>2026-05-03T10:45:01.882Z</time></trkpt><trkpt lat="39.8791133" lon="16.0068917"><ele>823.5</ele><time>2026-05-03T10:45:02.882Z</time></trkpt><trkpt lat="39.87925" lon="16.0072383"><ele>823.0</ele><time>2026-05-03T10:45:03.883Z</time></trkpt><trkpt lat="39.8794017" lon="16.0075783"><ele>829.5</ele><time>2026-05-03T10:45:04.883Z</time></trkpt><trkpt lat="39.87956" lon="16.0079217"><ele>836.0</ele><time>2026-05-03T10:45:05.883Z</time></trkpt><trkpt lat="39.8797383" lon="16.0082517"><ele>836.5</ele><time>2026-05-03T10:45:06.883Z</time></trkpt><trkpt lat="39.8799167" lon="16.008575"><ele>837.0</ele><time>2026-05-03T10:45:07.882Z</time></trkpt><trkpt lat="39.88011" lon="16.0088783"><ele>833.5</ele><time>2026-05-03T10:45:08.883Z</time></trkpt><trkpt lat="39.8803117" lon="16.0091683"><ele>830.0</ele><time>2026-05-03T10:45:09.883Z</time></trkpt><trkpt lat="39.88052" lon="16.0094483"><ele>830.0</ele><time>2026-05-03T10:45:10.883Z</time></trkpt><trkpt lat="39.88074" lon="16.0097133"><ele>830.0</ele><time>2026-05-03T10:45:11.883Z</time></trkpt><trkpt lat="39.8809717" lon="16.00997"><ele>831.5</ele><time>2026-05-03T10:45:12.882Z</time></trkpt><trkpt lat="39.8812033" lon="16.010215"><ele>833.0</ele><time>2026-05-03T10:45:13.883Z</time></trkpt><trkpt lat="39.8814267" lon="16.0104617"><ele>833.0</ele><time>2026-05-03T10:45:14.883Z</time></trkpt><trkpt lat="39.881655" lon="16.0107"><ele>833.0</ele><time>2026-05-03T10:45:15.882Z</time></trkpt><trkpt lat="39.8818767" lon="16.010935"><ele>836.0</ele><time>2026-05-03T10:45:16.883Z</time></trkpt><trkpt lat="39.8820967" lon="16.0111783"><ele>839.0</ele><time>2026-05-03T10:45:17.883Z</time></trkpt><trkpt lat="39.8823117" lon="16.01143"><ele>838.5</ele><time>2026-05-03T10:45:18.883Z</time></trkpt><trkpt lat="39.8825267" lon="16.011695"><ele>838.0</ele><time>2026-05-03T10:45:19.883Z</time></trkpt><trkpt lat="39.882735" lon="16.0119667"><ele>839.5</ele><time>2026-05-03T10:45:20.883Z</time></trkpt><trkpt lat="39.8829267" lon="16.0122483"><ele>841.0</ele><time>2026-05-03T10:45:21.882Z</time></trkpt><trkpt lat="39.8831117" lon="16.012545"><ele>841.0</ele><time>2026-05-03T10:45:22.883Z</time></trkpt><trkpt lat="39.8832867" lon="16.0128583"><ele>841.0</ele><time>2026-05-03T10:45:23.883Z</time></trkpt><trkpt lat="39.883445" lon="16.0131883"><ele>851.5</ele><time>2026-05-03T10:45:24.883Z</time></trkpt><trkpt lat="39.8835867" lon="16.013525"><ele>862.0</ele><time>2026-05-03T10:45:25.882Z</time></trkpt><trkpt lat="39.8837233" lon="16.013875"><ele>863.0</ele><time>2026-05-03T10:45:26.883Z</time></trkpt><trkpt lat="39.88384" lon="16.014225"><ele>864.0</ele><time>2026-05-03T10:45:27.883Z</time></trkpt><trkpt lat="39.883945" lon="16.0145817"><ele>864.0</ele><time>2026-05-03T10:45:28.883Z</time></trkpt><trkpt lat="39.884045" lon="16.0149467"><ele>864.0</ele><time>2026-05-03T10:45:29.882Z</time></trkpt><trkpt lat="39.88413" lon="16.0153133"><ele>862.0</ele><time>2026-05-03T10:45:30.883Z</time></trkpt><trkpt lat="39.884205" lon="16.01569"><ele>860.0</ele><time>2026-05-03T10:45:31.882Z</time></trkpt><trkpt lat="39.884275" lon="16.0160633"><ele>878.5</ele><time>2026-05-03T10:45:32.883Z</time></trkpt><trkpt lat="39.8843417" lon="16.0164317"><ele>897.0</ele><time>2026-05-03T10:45:33.882Z</time></trkpt><trkpt lat="39.8844067" lon="16.0168017"><ele>897.0</ele><time>2026-05-03T10:45:34.883Z</time></trkpt><trkpt lat="39.88447" lon="16.0171733"><ele>897.0</ele><time>2026-05-03T10:45:35.883Z</time></trkpt><trkpt lat="39.8845367" lon="16.0175417"><ele>892.5</ele><time>2026-05-03T10:45:36.884Z</time></trkpt><trkpt lat="39.8846017" lon="16.0179067"><ele>888.0</ele><time>2026-05-03T10:45:37.883Z</time></trkpt><trkpt lat="39.88466" lon="16.0182783"><ele>884.5</ele><time>2026-05-03T10:45:38.884Z</time></trkpt><trkpt lat="39.884725" lon="16.0186533"><ele>881.0</ele><time>2026-05-03T10:45:39.884Z</time></trkpt><trkpt lat="39.8847983" lon="16.01903"><ele>877.5</ele><time>2026-05-03T10:45:40.884Z</time></trkpt><trkpt lat="39.884865" lon="16.0194"><ele>874.0</ele><time>2026-05-03T10:45:41.884Z</time></trkpt><trkpt lat="39.8849333" lon="16.019765"><ele>869.5</ele><time>2026-05-03T10:45:42.884Z</time></trkpt><trkpt lat="39.885015" lon="16.0201267"><ele>865.0</ele><time>2026-05-03T10:45:43.884Z</time></trkpt><trkpt lat="39.8851067" lon="16.02049"><ele>872.0</ele><time>2026-05-03T10:45:44.884Z</time></trkpt><trkpt lat="39.8852117" lon="16.020855"><ele>879.0</ele><time>2026-05-03T10:45:45.884Z</time></trkpt><trkpt lat="39.8853233" lon="16.02122"><ele>879.0</ele><time>2026-05-03T10:45:46.884Z</time></trkpt><trkpt lat="39.8854367" lon="16.0215917"><ele>879.0</ele><time>2026-05-03T10:45:47.884Z</time></trkpt><trkpt lat="39.885545" lon="16.021965"><ele>878.0</ele><time>2026-05-03T10:45:48.884Z</time></trkpt><trkpt lat="39.88565" lon="16.022345"><ele>877.0</ele><time>2026-05-03T10:45:49.884Z</time></trkpt><trkpt lat="39.8857533" lon="16.0227217"><ele>880.0</ele><time>2026-05-03T10:45:50.883Z</time></trkpt><trkpt lat="39.885855" lon="16.0231017"><ele>883.0</ele><time>2026-05-03T10:45:51.884Z</time></trkpt><trkpt lat="39.8859583" lon="16.0234667"><ele>890.5</ele><time>2026-05-03T10:45:52.884Z</time></trkpt><trkpt lat="39.8860617" lon="16.023825"><ele>898.0</ele><time>2026-05-03T10:45:53.883Z</time></trkpt><trkpt lat="39.8861633" lon="16.0241783"><ele>898.0</ele><time>2026-05-03T10:45:54.884Z</time></trkpt><trkpt lat="39.886275" lon="16.0245233"><ele>898.0</ele><time>2026-05-03T10:45:55.884Z</time></trkpt><trkpt lat="39.88639" lon="16.0248683"><ele>898.0</ele><time>2026-05-03T10:45:56.884Z</time></trkpt><trkpt lat="39.8865217" lon="16.0252"><ele>898.0</ele><time>2026-05-03T10:45:57.884Z</time></trkpt><trkpt lat="39.8866633" lon="16.025525"><ele>902.5</ele><time>2026-05-03T10:45:58.884Z</time></trkpt><trkpt lat="39.88681" lon="16.0258567"><ele>907.0</ele><time>2026-05-03T10:45:59.884Z</time></trkpt><trkpt lat="39.8869617" lon="16.0261883"><ele>907.0</ele><time>2026-05-03T10:46:00.884Z</time></trkpt><trkpt lat="39.8871133" lon="16.026515"><ele>907.0</ele><time>2026-05-03T10:46:01.884Z</time></trkpt><trkpt lat="39.8872733" lon="16.026845"><ele>906.0</ele><time>2026-05-03T10:46:02.884Z</time></trkpt><trkpt lat="39.887425" lon="16.0271733"><ele>905.0</ele><time>2026-05-03T10:46:03.883Z</time></trkpt><trkpt lat="39.8875683" lon="16.0275067"><ele>908.0</ele><time>2026-05-03T10:46:04.884Z</time></trkpt><trkpt lat="39.887705" lon="16.0278367"><ele>911.0</ele><time>2026-05-03T10:46:05.884Z</time></trkpt><trkpt lat="39.8878317" lon="16.0281717"><ele>913.5</ele><time>2026-05-03T10:46:06.883Z</time></trkpt><trkpt lat="39.88795" lon="16.0285133"><ele>916.0</ele><time>2026-05-03T10:46:07.884Z</time></trkpt><trkpt lat="39.88805" lon="16.0288567"><ele>921.0</ele><time>2026-05-03T10:46:08.884Z</time></trkpt><trkpt lat="39.8881467" lon="16.0292183"><ele>926.0</ele><time>2026-05-03T10:46:09.883Z</time></trkpt><trkpt lat="39.888245" lon="16.0295817"><ele>926.0</ele><time>2026-05-03T10:46:10.884Z</time></trkpt><trkpt lat="39.8883283" lon="16.0299417"><ele>926.0</ele><time>2026-05-03T10:46:11.884Z</time></trkpt><trkpt lat="39.8883983" lon="16.0303067"><ele>932.0</ele><time>2026-05-03T10:46:12.884Z</time></trkpt><trkpt lat="39.88847" lon="16.0306883"><ele>938.0</ele><time>2026-05-03T10:46:13.884Z</time></trkpt><trkpt lat="39.88853" lon="16.031075"><ele>938.0</ele><time>2026-05-03T10:46:14.884Z</time></trkpt><trkpt lat="39.88858" lon="16.031465"><ele>938.0</ele><time>2026-05-03T10:46:15.884Z</time></trkpt><trkpt lat="39.888625" lon="16.031865"><ele>939.0</ele><time>2026-05-03T10:46:16.883Z</time></trkpt><trkpt lat="39.8886667" lon="16.0322767"><ele>940.0</ele><time>2026-05-03T10:46:17.884Z</time></trkpt><trkpt lat="39.8887083" lon="16.032695"><ele>942.5</ele><time>2026-05-03T10:46:18.884Z</time></trkpt><trkpt lat="39.8887517" lon="16.0331167"><ele>945.0</ele><time>2026-05-03T10:46:19.884Z</time></trkpt><trkpt lat="39.8888" lon="16.0335433"><ele>952.0</ele><time>2026-05-03T10:46:20.884Z</time></trkpt><trkpt lat="39.888845" lon="16.0339667"><ele>959.0</ele><time>2026-05-03T10:46:21.884Z</time></trkpt><trkpt lat="39.88916" lon="16.0391667"><ele>942.0</ele><time>2026-05-03T10:46:34.883Z</time></trkpt><trkpt lat="39.8891933" lon="16.0395633"><ele>925.0</ele><time>2026-05-03T10:46:35.884Z</time></trkpt><trkpt lat="39.8892183" lon="16.0399383"><ele>924.5</ele><time>2026-05-03T10:46:36.884Z</time></trkpt><trkpt lat="39.889245" lon="16.040315"><ele>924.0</ele><time>2026-05-03T10:46:37.884Z</time></trkpt><trkpt lat="39.889265" lon="16.0407067"><ele>937.5</ele><time>2026-05-03T10:46:38.884Z</time></trkpt><trkpt lat="39.8892767" lon="16.0411067"><ele>951.0</ele><time>2026-05-03T10:46:39.884Z</time></trkpt><trkpt lat="39.8892967" lon="16.041505"><ele>958.0</ele><time>2026-05-03T10:46:40.884Z</time></trkpt><trkpt lat="39.8893017" lon="16.0419033"><ele>965.0</ele><time>2026-05-03T10:46:41.884Z</time></trkpt><trkpt lat="39.8893017" lon="16.0423033"><ele>977.0</ele><time>2026-05-03T10:46:42.884Z</time></trkpt><trkpt lat="39.8893" lon="16.042705"><ele>989.0</ele><time>2026-05-03T10:46:43.884Z</time></trkpt><trkpt lat="39.8892983" lon="16.0431083"><ele>957.0</ele><time>2026-05-03T10:46:44.884Z</time></trkpt><trkpt lat="39.8853433" lon="16.0519217"><ele>957.0</ele><time>2026-05-03T10:47:12.882Z</time></trkpt><trkpt lat="39.885125" lon="16.0522567"><ele>957.0</ele><time>2026-05-03T10:47:13.883Z</time></trkpt><trkpt lat="39.8848417" lon="16.0525433"><ele>952.0</ele><time>2026-05-03T10:47:14.882Z</time></trkpt><trkpt lat="39.8845833" lon="16.052815"><ele>947.0</ele><time>2026-05-03T10:47:15.883Z</time></trkpt><trkpt lat="39.884345" lon="16.0530817"><ele>946.0</ele><time>2026-05-03T10:47:16.883Z</time></trkpt><trkpt lat="39.8841133" lon="16.0533483"><ele>945.0</ele><time>2026-05-03T10:47:17.882Z</time></trkpt><trkpt lat="39.883885" lon="16.0536083"><ele>945.0</ele><time>2026-05-03T10:47:18.883Z</time></trkpt><trkpt lat="39.8836533" lon="16.05387"><ele>945.0</ele><time>2026-05-03T10:47:19.883Z</time></trkpt><trkpt lat="39.883425" lon="16.0541333"><ele>946.0</ele><time>2026-05-03T10:47:20.883Z</time></trkpt><trkpt lat="39.8831917" lon="16.05439"><ele>947.0</ele><time>2026-05-03T10:47:21.883Z</time></trkpt><trkpt lat="39.8829633" lon="16.0546567"><ele>947.0</ele><time>2026-05-03T10:47:22.883Z</time></trkpt><trkpt lat="39.8827383" lon="16.0549133"><ele>947.0</ele><time>2026-05-03T10:47:23.883Z</time></trkpt><trkpt lat="39.8825217" lon="16.055165"><ele>948.5</ele><time>2026-05-03T10:47:24.883Z</time></trkpt><trkpt lat="39.882305" lon="16.0554133"><ele>950.0</ele><time>2026-05-03T10:47:25.883Z</time></trkpt><trkpt lat="39.88209" lon="16.0556667"><ele>951.0</ele><time>2026-05-03T10:47:26.882Z</time></trkpt><trkpt lat="39.881875" lon="16.055915"><ele>952.0</ele><time>2026-05-03T10:47:27.882Z</time></trkpt><trkpt lat="39.881665" lon="16.056165"><ele>953.0</ele><time>2026-05-03T10:47:28.883Z</time></trkpt><trkpt lat="39.8814467" lon="16.0564167"><ele>954.0</ele><time>2026-05-03T10:47:29.883Z</time></trkpt><trkpt lat="39.8812217" lon="16.056665"><ele>956.5</ele><time>2026-05-03T10:47:30.882Z</time></trkpt><trkpt lat="39.8809983" lon="16.0569117"><ele>959.0</ele><time>2026-05-03T10:47:31.883Z</time></trkpt><trkpt lat="39.88077" lon="16.0571633"><ele>960.0</ele><time>2026-05-03T10:47:32.883Z</time></trkpt><trkpt lat="39.88055" lon="16.0574133"><ele>961.0</ele><time>2026-05-03T10:47:33.882Z</time></trkpt><trkpt lat="39.8803333" lon="16.05767"><ele>962.5</ele><time>2026-05-03T10:47:34.883Z</time></trkpt><trkpt lat="39.8801183" lon="16.0579317"><ele>964.0</ele><time>2026-05-03T10:47:35.883Z</time></trkpt><trkpt lat="39.879905" lon="16.05819"><ele>965.5</ele><time>2026-05-03T10:47:36.882Z</time></trkpt><trkpt lat="39.879695" lon="16.0584583"><ele>967.0</ele><time>2026-05-03T10:47:37.883Z</time></trkpt><trkpt lat="39.8794833" lon="16.05875"><ele>967.0</ele><time>2026-05-03T10:47:38.883Z</time></trkpt><trkpt lat="39.87928" lon="16.0590517"><ele>967.0</ele><time>2026-05-03T10:47:39.882Z</time></trkpt><trkpt lat="39.8790767" lon="16.05936"><ele>969.0</ele><time>2026-05-03T10:47:40.882Z</time></trkpt><trkpt lat="39.8788833" lon="16.059675"><ele>971.0</ele><time>2026-05-03T10:47:41.883Z</time></trkpt><trkpt lat="39.8787083" lon="16.0599933"><ele>972.0</ele><time>2026-05-03T10:47:42.883Z</time></trkpt><trkpt lat="39.878545" lon="16.0603183"><ele>973.0</ele><time>2026-05-03T10:47:43.883Z</time></trkpt><trkpt lat="39.8783867" lon="16.0606517"><ele>975.0</ele><time>2026-05-03T10:47:44.883Z</time></trkpt><trkpt lat="39.878235" lon="16.0609933"><ele>977.0</ele><time>2026-05-03T10:47:45.883Z</time></trkpt><trkpt lat="39.8780967" lon="16.0613417"><ele>978.0</ele><time>2026-05-03T10:47:46.883Z</time></trkpt><trkpt lat="39.8779683" lon="16.0616983"><ele>979.0</ele><time>2026-05-03T10:47:47.883Z</time></trkpt><trkpt lat="39.8778467" lon="16.0620567"><ele>979.0</ele><time>2026-05-03T10:47:48.882Z</time></trkpt><trkpt lat="39.8777233" lon="16.0624233"><ele>979.0</ele><time>2026-05-03T10:47:49.882Z</time></trkpt><trkpt lat="39.877615" lon="16.062795"><ele>979.0</ele><time>2026-05-03T10:47:50.882Z</time></trkpt><trkpt lat="39.87751" lon="16.063165"><ele>979.0</ele><time>2026-05-03T10:47:51.882Z</time></trkpt><trkpt lat="39.8774067" lon="16.0635517"><ele>979.0</ele><time>2026-05-03T10:47:52.883Z</time></trkpt><trkpt lat="39.877305" lon="16.0639317"><ele>979.0</ele><time>2026-05-03T10:47:53.883Z</time></trkpt><trkpt lat="39.8772" lon="16.0643133"><ele>980.5</ele><time>2026-05-03T10:47:54.882Z</time></trkpt><trkpt lat="39.87709" lon="16.0647033"><ele>982.0</ele><time>2026-05-03T10:47:55.883Z</time></trkpt><trkpt lat="39.876975" lon="16.0650917"><ele>983.0</ele><time>2026-05-03T10:47:56.883Z</time></trkpt><trkpt lat="39.8768533" lon="16.06548"><ele>984.0</ele><time>2026-05-03T10:47:57.883Z</time></trkpt><trkpt lat="39.87672" lon="16.0658583"><ele>981.0</ele><time>2026-05-03T10:47:58.883Z</time></trkpt><trkpt lat="39.8765767" lon="16.0662317"><ele>978.0</ele><time>2026-05-03T10:47:59.883Z</time></trkpt><trkpt lat="39.87642" lon="16.0665883"><ele>979.0</ele><time>2026-05-03T10:48:00.883Z</time></trkpt><trkpt lat="39.876255" lon="16.066935"><ele>980.0</ele><time>2026-05-03T10:48:01.883Z</time></trkpt><trkpt lat="39.87608" lon="16.0672767"><ele>981.0</ele><time>2026-05-03T10:48:02.883Z</time></trkpt><trkpt lat="39.8758983" lon="16.0676083"><ele>982.0</ele><time>2026-05-03T10:48:03.883Z</time></trkpt><trkpt lat="39.8757083" lon="16.0679317"><ele>982.0</ele><time>2026-05-03T10:48:04.883Z</time></trkpt><trkpt lat="39.8755133" lon="16.06824"><ele>982.0</ele><time>2026-05-03T10:48:05.882Z</time></trkpt><trkpt lat="39.87531" lon="16.0685417"><ele>985.0</ele><time>2026-05-03T10:48:06.883Z</time></trkpt><trkpt lat="39.8751083" lon="16.06884"><ele>988.0</ele><time>2026-05-03T10:48:07.882Z</time></trkpt><trkpt lat="39.8749117" lon="16.06914"><ele>989.0</ele><time>2026-05-03T10:48:08.882Z</time></trkpt><trkpt lat="39.87471" lon="16.06944"><ele>990.0</ele><time>2026-05-03T10:48:09.883Z</time></trkpt><trkpt lat="39.8745083" lon="16.0697317"><ele>990.5</ele><time>2026-05-03T10:48:10.883Z</time></trkpt><trkpt lat="39.874305" lon="16.0700267"><ele>991.0</ele><time>2026-05-03T10:48:11.883Z</time></trkpt><trkpt lat="39.8741017" lon="16.070325"><ele>991.0</ele><time>2026-05-03T10:48:12.883Z</time></trkpt><trkpt lat="39.8738867" lon="16.0706383"><ele>991.0</ele><time>2026-05-03T10:48:13.882Z</time></trkpt><trkpt lat="39.873675" lon="16.0709467"><ele>991.0</ele><time>2026-05-03T10:48:14.883Z</time></trkpt><trkpt lat="39.8734533" lon="16.07126"><ele>991.0</ele><time>2026-05-03T10:48:15.883Z</time></trkpt><trkpt lat="39.87324" lon="16.071575"><ele>992.5</ele><time>2026-05-03T10:48:16.883Z</time></trkpt><trkpt lat="39.873025" lon="16.0718917"><ele>994.0</ele><time>2026-05-03T10:48:17.883Z</time></trkpt><trkpt lat="39.872805" lon="16.0722117"><ele>990.5</ele><time>2026-05-03T10:48:18.883Z</time></trkpt><trkpt lat="39.872585" lon="16.0725433"><ele>987.0</ele><time>2026-05-03T10:48:19.883Z</time></trkpt><trkpt lat="39.8723717" lon="16.0728967"><ele>987.0</ele><time>2026-05-03T10:48:20.883Z</time></trkpt><trkpt lat="39.87216" lon="16.0732533"><ele>987.0</ele><time>2026-05-03T10:48:21.883Z</time></trkpt><trkpt lat="39.8719517" lon="16.0736067"><ele>985.5</ele><time>2026-05-03T10:48:22.883Z</time></trkpt><trkpt lat="39.8717517" lon="16.0739517"><ele>984.0</ele><time>2026-05-03T10:48:23.882Z</time></trkpt><trkpt lat="39.87156" lon="16.0742883"><ele>984.0</ele><time>2026-05-03T10:48:24.883Z</time></trkpt><trkpt lat="39.871375" lon="16.0746217"><ele>984.0</ele><time>2026-05-03T10:48:25.883Z</time></trkpt><trkpt lat="39.8711833" lon="16.0749433"><ele>984.5</ele><time>2026-05-03T10:48:26.883Z</time></trkpt><trkpt lat="39.8709967" lon="16.075265"><ele>985.0</ele><time>2026-05-03T10:48:27.883Z</time></trkpt><trkpt lat="39.8708133" lon="16.0755817"><ele>983.0</ele><time>2026-05-03T10:48:28.883Z</time></trkpt><trkpt lat="39.8706183" lon="16.0758967"><ele>981.0</ele><time>2026-05-03T10:48:29.883Z</time></trkpt><trkpt lat="39.8704167" lon="16.0762133"><ele>981.0</ele><time>2026-05-03T10:48:30.883Z</time></trkpt><trkpt lat="39.870205" lon="16.0765217"><ele>981.0</ele><time>2026-05-03T10:48:31.883Z</time></trkpt><trkpt lat="39.8699783" lon="16.07683"><ele>980.0</ele><time>2026-05-03T10:48:32.883Z</time></trkpt><trkpt lat="39.86974" lon="16.0771217"><ele>979.0</ele><time>2026-05-03T10:48:33.883Z</time></trkpt><trkpt lat="39.869495" lon="16.0774067"><ele>978.0</ele><time>2026-05-03T10:48:34.883Z</time></trkpt><trkpt lat="39.8692367" lon="16.0776767"><ele>977.0</ele><time>2026-05-03T10:48:35.883Z</time></trkpt><trkpt lat="39.86897" lon="16.0779317"><ele>977.0</ele><time>2026-05-03T10:48:36.882Z</time></trkpt><trkpt lat="39.8687067" lon="16.0781683"><ele>977.0</ele><time>2026-05-03T10:48:37.883Z</time></trkpt><trkpt lat="39.8684467" lon="16.078395"><ele>978.5</ele><time>2026-05-03T10:48:38.883Z</time></trkpt><trkpt lat="39.868195" lon="16.078605"><ele>980.0</ele><time>2026-05-03T10:48:39.883Z</time></trkpt><trkpt lat="39.867945" lon="16.0788033"><ele>980.0</ele><time>2026-05-03T10:48:40.883Z</time></trkpt><trkpt lat="39.867695" lon="16.079"><ele>980.0</ele><time>2026-05-03T10:48:41.882Z</time></trkpt><trkpt lat="39.8674533" lon="16.079205"><ele>986.0</ele><time>2026-05-03T10:48:42.883Z</time></trkpt><trkpt lat="39.86721" lon="16.0794083"><ele>992.0</ele><time>2026-05-03T10:48:43.883Z</time></trkpt><trkpt lat="39.8669717" lon="16.0796183"><ele>990.0</ele><time>2026-05-03T10:48:44.882Z</time></trkpt><trkpt lat="39.8667333" lon="16.0798183"><ele>988.0</ele><time>2026-05-03T10:48:45.883Z</time></trkpt><trkpt lat="39.8664983" lon="16.080015"><ele>1000.5</ele><time>2026-05-03T10:48:46.883Z</time></trkpt><trkpt lat="39.8662633" lon="16.0802183"><ele>1013.0</ele><time>2026-05-03T10:48:47.883Z</time></trkpt><trkpt lat="39.86603" lon="16.08042"><ele>1030.0</ele><time>2026-05-03T10:48:48.882Z</time></trkpt><trkpt lat="39.8643483" lon="16.0830367"><ele>1018.0</ele><time>2026-05-03T10:48:57.883Z</time></trkpt><trkpt lat="39.864195" lon="16.0833533"><ele>1006.0</ele><time>2026-05-03T10:48:58.883Z</time></trkpt><trkpt lat="39.8640767" lon="16.0836933"><ele>1006.0</ele><time>2026-05-03T10:48:59.884Z</time></trkpt><trkpt lat="39.86398" lon="16.084015"><ele>1006.0</ele><time>2026-05-03T10:49:00.884Z</time></trkpt><trkpt lat="39.8638833" lon="16.08435"><ele>1006.0</ele><time>2026-05-03T10:49:01.883Z</time></trkpt><trkpt lat="39.8638" lon="16.0846967"><ele>1006.0</ele><time>2026-05-03T10:49:02.884Z</time></trkpt><trkpt lat="39.8637167" lon="16.085055"><ele>1005.5</ele><time>2026-05-03T10:49:03.883Z</time></trkpt><trkpt lat="39.8636417" lon="16.0854283"><ele>1005.0</ele><time>2026-05-03T10:49:04.883Z</time></trkpt><trkpt lat="39.863585" lon="16.0858083"><ele>1004.5</ele><time>2026-05-03T10:49:05.884Z</time></trkpt><trkpt lat="39.8635417" lon="16.0861933"><ele>1004.0</ele><time>2026-05-03T10:49:06.884Z</time></trkpt><trkpt lat="39.86352" lon="16.08657"><ele>1004.5</ele><time>2026-05-03T10:49:07.884Z</time></trkpt><trkpt lat="39.863495" lon="16.0869367"><ele>1005.0</ele><time>2026-05-03T10:49:08.884Z</time></trkpt><trkpt lat="39.863485" lon="16.0873083"><ele>1006.0</ele><time>2026-05-03T10:49:09.884Z</time></trkpt><trkpt lat="39.8634867" lon="16.0876817"><ele>1007.0</ele><time>2026-05-03T10:49:10.883Z</time></trkpt><trkpt lat="39.8635033" lon="16.088065"><ele>1007.5</ele><time>2026-05-03T10:49:11.884Z</time></trkpt><trkpt lat="39.8635317" lon="16.088445"><ele>1008.0</ele><time>2026-05-03T10:49:12.884Z</time></trkpt><trkpt lat="39.8635683" lon="16.088825"><ele>1009.0</ele><time>2026-05-03T10:49:13.884Z</time></trkpt><trkpt lat="39.8636183" lon="16.0891967"><ele>1010.0</ele><time>2026-05-03T10:49:14.884Z</time></trkpt><trkpt lat="39.8636817" lon="16.08957"><ele>1011.0</ele><time>2026-05-03T10:49:15.884Z</time></trkpt><trkpt lat="39.8637667" lon="16.089945"><ele>1012.0</ele><time>2026-05-03T10:49:16.884Z</time></trkpt><trkpt lat="39.8638517" lon="16.0903167"><ele>1012.0</ele><time>2026-05-03T10:49:17.884Z</time></trkpt><trkpt lat="39.8639417" lon="16.0906767"><ele>1012.0</ele><time>2026-05-03T10:49:18.884Z</time></trkpt><trkpt lat="39.8640483" lon="16.0910267"><ele>1013.5</ele><time>2026-05-03T10:49:19.884Z</time></trkpt><trkpt lat="39.8641667" lon="16.0913683"><ele>1015.0</ele><time>2026-05-03T10:49:20.884Z</time></trkpt><trkpt lat="39.864295" lon="16.0917117"><ele>1017.0</ele><time>2026-05-03T10:49:21.884Z</time></trkpt><trkpt lat="39.8644283" lon="16.0920483"><ele>1019.0</ele><time>2026-05-03T10:49:22.883Z</time></trkpt><trkpt lat="39.8645667" lon="16.0923833"><ele>1022.0</ele><time>2026-05-03T10:49:23.883Z</time></trkpt><trkpt lat="39.8646967" lon="16.092725"><ele>1025.0</ele><time>2026-05-03T10:49:24.884Z</time></trkpt><trkpt lat="39.8648283" lon="16.09307"><ele>1037.0</ele><time>2026-05-03T10:49:25.884Z</time></trkpt><trkpt lat="39.8649617" lon="16.0934067"><ele>1049.0</ele><time>2026-05-03T10:49:26.884Z</time></trkpt><trkpt lat="39.865095" lon="16.0937417"><ele>1022.0</ele><time>2026-05-03T10:49:27.884Z</time></trkpt><trkpt lat="39.8671217" lon="16.0990417"><ele>1008.5</ele><time>2026-05-03T10:49:41.885Z</time></trkpt><trkpt lat="39.8672183" lon="16.0994633"><ele>995.0</ele><time>2026-05-03T10:49:42.885Z</time></trkpt><trkpt lat="39.8673" lon="16.099875"><ele>997.5</ele><time>2026-05-03T10:49:43.885Z</time></trkpt><trkpt lat="39.8673633" lon="16.1002933"><ele>1000.0</ele><time>2026-05-03T10:49:44.885Z</time></trkpt><trkpt lat="39.86741" lon="16.1007"><ele>1004.0</ele><time>2026-05-03T10:49:45.885Z</time></trkpt><trkpt lat="39.867445" lon="16.10112"><ele>1008.0</ele><time>2026-05-03T10:49:46.885Z</time></trkpt><trkpt lat="39.867475" lon="16.101565"><ele>1007.0</ele><time>2026-05-03T10:49:47.885Z</time></trkpt><trkpt lat="39.8675033" lon="16.1020283"><ele>1006.0</ele><time>2026-05-03T10:49:48.885Z</time></trkpt><trkpt lat="39.8675233" lon="16.1025117"><ele>1002.0</ele><time>2026-05-03T10:49:49.885Z</time></trkpt><trkpt lat="39.8675483" lon="16.10301"><ele>998.0</ele><time>2026-05-03T10:49:50.885Z</time></trkpt><trkpt lat="39.8675683" lon="16.1035233"><ele>994.0</ele><time>2026-05-03T10:49:51.885Z</time></trkpt><trkpt lat="39.8675833" lon="16.10404"><ele>990.0</ele><time>2026-05-03T10:49:52.884Z</time></trkpt><trkpt lat="39.867615" lon="16.1045267"><ele>999.5</ele><time>2026-05-03T10:49:53.884Z</time></trkpt><trkpt lat="39.8676283" lon="16.1049783"><ele>1009.0</ele><time>2026-05-03T10:49:54.885Z</time></trkpt><trkpt lat="39.8676533" lon="16.1054"><ele>1006.5</ele><time>2026-05-03T10:49:55.884Z</time></trkpt><trkpt lat="39.8676883" lon="16.1058267"><ele>1004.0</ele><time>2026-05-03T10:49:56.884Z</time></trkpt><trkpt lat="39.8677167" lon="16.1062517"><ele>1009.0</ele><time>2026-05-03T10:49:57.885Z</time></trkpt><trkpt lat="39.8677517" lon="16.1066783"><ele>1014.0</ele><time>2026-05-03T10:49:58.885Z</time></trkpt><trkpt lat="39.8677917" lon="16.107105"><ele>1014.0</ele><time>2026-05-03T10:49:59.885Z</time></trkpt><trkpt lat="39.867825" lon="16.1075267"><ele>1014.0</ele><time>2026-05-03T10:50:00.884Z</time></trkpt><trkpt lat="39.867865" lon="16.1079467"><ele>1009.5</ele><time>2026-05-03T10:50:01.885Z</time></trkpt><trkpt lat="39.8679033" lon="16.1083683"><ele>1005.0</ele><time>2026-05-03T10:50:02.885Z</time></trkpt><trkpt lat="39.8679517" lon="16.1087983"><ele>995.5</ele><time>2026-05-03T10:50:03.884Z</time></trkpt><trkpt lat="39.8679983" lon="16.109225"><ele>986.0</ele><time>2026-05-03T10:50:04.885Z</time></trkpt><trkpt lat="39.8680467" lon="16.10965"><ele>986.5</ele><time>2026-05-03T10:50:05.885Z</time></trkpt><trkpt lat="39.868085" lon="16.1100683"><ele>987.0</ele><time>2026-05-03T10:50:06.885Z</time></trkpt><trkpt lat="39.8681333" lon="16.11049"><ele>986.5</ele><time>2026-05-03T10:50:07.884Z</time></trkpt><trkpt lat="39.868185" lon="16.110915"><ele>986.0</ele><time>2026-05-03T10:50:08.884Z</time></trkpt><trkpt lat="39.8682267" lon="16.1113367"><ele>986.0</ele><time>2026-05-03T10:50:09.885Z</time></trkpt><trkpt lat="39.868275" lon="16.1117633"><ele>986.0</ele><time>2026-05-03T10:50:10.885Z</time></trkpt><trkpt lat="39.8683217" lon="16.1121883"><ele>984.0</ele><time>2026-05-03T10:50:11.885Z</time></trkpt><trkpt lat="39.86837" lon="16.1126"><ele>982.0</ele><time>2026-05-03T10:50:12.885Z</time></trkpt><trkpt lat="39.8684333" lon="16.113015"><ele>978.0</ele><time>2026-05-03T10:50:13.885Z</time></trkpt><trkpt lat="39.868505" lon="16.113425"><ele>974.0</ele><time>2026-05-03T10:50:14.885Z</time></trkpt><trkpt lat="39.8685717" lon="16.1138317"><ele>970.0</ele><time>2026-05-03T10:50:15.885Z</time></trkpt><trkpt lat="39.8686483" lon="16.11424"><ele>966.0</ele><time>2026-05-03T10:50:16.884Z</time></trkpt><trkpt lat="39.8687267" lon="16.1146483"><ele>971.5</ele><time>2026-05-03T10:50:17.885Z</time></trkpt><trkpt lat="39.8688" lon="16.11505"><ele>977.0</ele><time>2026-05-03T10:50:18.885Z</time></trkpt><trkpt lat="39.8688767" lon="16.115445"><ele>978.5</ele><time>2026-05-03T10:50:19.885Z</time></trkpt><trkpt lat="39.8689567" lon="16.1158433"><ele>980.0</ele><time>2026-05-03T10:50:20.885Z</time></trkpt><trkpt lat="39.869035" lon="16.1162267"><ele>979.5</ele><time>2026-05-03T10:50:21.885Z</time></trkpt><trkpt lat="39.8691083" lon="16.1166083"><ele>979.0</ele><time>2026-05-03T10:50:22.884Z</time></trkpt><trkpt lat="39.8691767" lon="16.1169917"><ele>979.0</ele><time>2026-05-03T10:50:23.885Z</time></trkpt><trkpt lat="39.869255" lon="16.1173683"><ele>979.0</ele><time>2026-05-03T10:50:24.885Z</time></trkpt><trkpt lat="39.8693233" lon="16.11774"><ele>977.5</ele><time>2026-05-03T10:50:25.884Z</time></trkpt><trkpt lat="39.869405" lon="16.1181033"><ele>976.0</ele><time>2026-05-03T10:50:26.885Z</time></trkpt><trkpt lat="39.8695017" lon="16.1184667"><ele>964.5</ele><time>2026-05-03T10:50:27.885Z</time></trkpt><trkpt lat="39.8696083" lon="16.1188217"><ele>953.0</ele><time>2026-05-03T10:50:28.885Z</time></trkpt><trkpt lat="39.869725" lon="16.1191883"><ele>951.0</ele><time>2026-05-03T10:50:29.885Z</time></trkpt><trkpt lat="39.8698583" lon="16.11954"><ele>949.0</ele><time>2026-05-03T10:50:30.885Z</time></trkpt><trkpt lat="39.8699983" lon="16.1199067"><ele>972.5</ele><time>2026-05-03T10:50:31.885Z</time></trkpt><trkpt lat="39.8701433" lon="16.1202583"><ele>996.0</ele><time>2026-05-03T10:50:32.884Z</time></trkpt><trkpt lat="39.8702967" lon="16.12061"><ele>1004.5</ele><time>2026-05-03T10:50:33.884Z</time></trkpt><trkpt lat="39.870455" lon="16.1209617"><ele>1013.0</ele><time>2026-05-03T10:50:34.884Z</time></trkpt><trkpt lat="39.8706133" lon="16.121315"><ele>1019.0</ele><time>2026-05-03T10:50:35.885Z</time></trkpt><trkpt lat="39.87077" lon="16.1216683"><ele>1025.0</ele><time>2026-05-03T10:50:36.884Z</time></trkpt><trkpt lat="39.8709267" lon="16.12202"><ele>908.0</ele><time>2026-05-03T10:50:37.884Z</time></trkpt><trkpt lat="39.87772" lon="16.12769"><ele>908.0</ele><time>2026-05-03T10:51:03.884Z</time></trkpt><trkpt lat="39.877975" lon="16.127875"><ele>908.0</ele><time>2026-05-03T10:51:04.884Z</time></trkpt><trkpt lat="39.8782183" lon="16.1280567"><ele>891.0</ele><time>2026-05-03T10:51:05.884Z</time></trkpt><trkpt lat="39.8784633" lon="16.1282467"><ele>874.0</ele><time>2026-05-03T10:51:06.883Z</time></trkpt><trkpt lat="39.8786983" lon="16.1284417"><ele>874.0</ele><time>2026-05-03T10:51:07.884Z</time></trkpt><trkpt lat="39.87894" lon="16.1286333"><ele>874.0</ele><time>2026-05-03T10:51:08.884Z</time></trkpt><trkpt lat="39.8791667" lon="16.12883"><ele>871.5</ele><time>2026-05-03T10:51:09.883Z</time></trkpt><trkpt lat="39.879395" lon="16.1290167"><ele>869.0</ele><time>2026-05-03T10:51:10.884Z</time></trkpt><trkpt lat="39.879635" lon="16.129205"><ele>875.5</ele><time>2026-05-03T10:51:11.884Z</time></trkpt><trkpt lat="39.8798733" lon="16.1294083"><ele>882.0</ele><time>2026-05-03T10:51:12.884Z</time></trkpt><trkpt lat="39.8801067" lon="16.12962"><ele>905.5</ele><time>2026-05-03T10:51:13.884Z</time></trkpt><trkpt lat="39.8803417" lon="16.12983"><ele>929.0</ele><time>2026-05-03T10:51:14.883Z</time></trkpt><trkpt lat="39.880565" lon="16.13005"><ele>929.0</ele><time>2026-05-03T10:51:15.883Z</time></trkpt><trkpt lat="39.8807833" lon="16.1302833"><ele>929.0</ele><time>2026-05-03T10:51:16.884Z</time></trkpt><trkpt lat="39.88099" lon="16.1305317"><ele>937.5</ele><time>2026-05-03T10:51:17.884Z</time></trkpt><trkpt lat="39.881185" lon="16.1307933"><ele>946.0</ele><time>2026-05-03T10:51:18.884Z</time></trkpt><trkpt lat="39.8813883" lon="16.1310683"><ele>946.0</ele><time>2026-05-03T10:51:19.884Z</time></trkpt><trkpt lat="39.8815983" lon="16.1313517"><ele>946.0</ele><time>2026-05-03T10:51:20.884Z</time></trkpt><trkpt lat="39.881815" lon="16.1316367"><ele>943.0</ele><time>2026-05-03T10:51:21.884Z</time></trkpt><trkpt lat="39.8820283" lon="16.1319083"><ele>940.0</ele><time>2026-05-03T10:51:22.884Z</time></trkpt><trkpt lat="39.8822367" lon="16.132165"><ele>938.5</ele><time>2026-05-03T10:51:23.884Z</time></trkpt><trkpt lat="39.8824367" lon="16.1324167"><ele>937.0</ele><time>2026-05-03T10:51:24.884Z</time></trkpt><trkpt lat="39.8826317" lon="16.1326683"><ele>937.0</ele><time>2026-05-03T10:51:25.884Z</time></trkpt><trkpt lat="39.8828367" lon="16.1329167"><ele>937.0</ele><time>2026-05-03T10:51:26.884Z</time></trkpt><trkpt lat="39.8830317" lon="16.133165"><ele>936.0</ele><time>2026-05-03T10:51:27.884Z</time></trkpt><trkpt lat="39.8832367" lon="16.1334167"><ele>935.0</ele><time>2026-05-03T10:51:28.884Z</time></trkpt><trkpt lat="39.8834483" lon="16.1336817"><ele>935.0</ele><time>2026-05-03T10:51:29.883Z</time></trkpt><trkpt lat="39.88367" lon="16.1339583"><ele>935.0</ele><time>2026-05-03T10:51:30.883Z</time></trkpt><trkpt lat="39.883895" lon="16.1342367"><ele>936.5</ele><time>2026-05-03T10:51:31.884Z</time></trkpt><trkpt lat="39.88412" lon="16.13452"><ele>938.0</ele><time>2026-05-03T10:51:32.883Z</time></trkpt><trkpt lat="39.8843417" lon="16.1348017"><ele>964.0</ele><time>2026-05-03T10:51:33.884Z</time></trkpt><trkpt lat="39.884565" lon="16.1350867"><ele>990.0</ele><time>2026-05-03T10:51:34.884Z</time></trkpt><trkpt lat="39.8847883" lon="16.13537"><ele>869.0</ele><time>2026-05-03T10:51:35.884Z</time></trkpt><trkpt lat="39.88873" lon="16.141285"><ele>867.5</ele><time>2026-05-03T10:51:54.884Z</time></trkpt><trkpt lat="39.8888283" lon="16.1415917"><ele>866.0</ele><time>2026-05-03T10:51:55.884Z</time></trkpt><trkpt lat="39.88894" lon="16.1419433"><ele>866.0</ele><time>2026-05-03T10:51:56.883Z</time></trkpt><trkpt lat="39.8890383" lon="16.1423083"><ele>866.0</ele><time>2026-05-03T10:51:57.884Z</time></trkpt><trkpt lat="39.88913" lon="16.14269"><ele>871.0</ele><time>2026-05-03T10:51:58.884Z</time></trkpt><trkpt lat="39.889215" lon="16.1430817"><ele>876.0</ele><time>2026-05-03T10:51:59.884Z</time></trkpt><trkpt lat="39.889295" lon="16.143495"><ele>885.5</ele><time>2026-05-03T10:52:00.884Z</time></trkpt><trkpt lat="39.88938" lon="16.14392"><ele>895.0</ele><time>2026-05-03T10:52:01.883Z</time></trkpt><trkpt lat="39.88944" lon="16.1443383"><ele>895.5</ele><time>2026-05-03T10:52:02.884Z</time></trkpt><trkpt lat="39.8894867" lon="16.1447617"><ele>896.0</ele><time>2026-05-03T10:52:03.883Z</time></trkpt><trkpt lat="39.8895233" lon="16.145175"><ele>898.5</ele><time>2026-05-03T10:52:04.884Z</time></trkpt><trkpt lat="39.88955" lon="16.1455983"><ele>901.0</ele><time>2026-05-03T10:52:05.884Z</time></trkpt><trkpt lat="39.88956" lon="16.1460183"><ele>901.0</ele><time>2026-05-03T10:52:06.884Z</time></trkpt><trkpt lat="39.889565" lon="16.1464367"><ele>901.0</ele><time>2026-05-03T10:52:07.883Z</time></trkpt><trkpt lat="39.8895533" lon="16.14685"><ele>896.5</ele><time>2026-05-03T10:52:08.884Z</time></trkpt><trkpt lat="39.8895333" lon="16.1472583"><ele>892.0</ele><time>2026-05-03T10:52:09.883Z</time></trkpt><trkpt lat="39.889495" lon="16.1476717"><ele>892.0</ele><time>2026-05-03T10:52:10.884Z</time></trkpt><trkpt lat="39.8894467" lon="16.1480833"><ele>892.0</ele><time>2026-05-03T10:52:11.883Z</time></trkpt><trkpt lat="39.8893867" lon="16.1484917"><ele>895.5</ele><time>2026-05-03T10:52:12.884Z</time></trkpt><trkpt lat="39.889315" lon="16.1488917"><ele>899.0</ele><time>2026-05-03T10:52:13.884Z</time></trkpt><trkpt lat="39.8892367" lon="16.1492933"><ele>889.0</ele><time>2026-05-03T10:52:14.884Z</time></trkpt><trkpt lat="39.8891517" lon="16.1497017"><ele>879.0</ele><time>2026-05-03T10:52:15.883Z</time></trkpt><trkpt lat="39.8890533" lon="16.1500967"><ele>878.5</ele><time>2026-05-03T10:52:16.884Z</time></trkpt><trkpt lat="39.8889467" lon="16.15049"><ele>878.0</ele><time>2026-05-03T10:52:17.884Z</time></trkpt><trkpt lat="39.888835" lon="16.15088"><ele>888.0</ele><time>2026-05-03T10:52:18.884Z</time></trkpt><trkpt lat="39.88874" lon="16.1512733"><ele>898.0</ele><time>2026-05-03T10:52:19.883Z</time></trkpt><trkpt lat="39.888635" lon="16.1516633"><ele>904.0</ele><time>2026-05-03T10:52:20.884Z</time></trkpt><trkpt lat="39.8885317" lon="16.152055"><ele>910.0</ele><time>2026-05-03T10:52:21.884Z</time></trkpt><trkpt lat="39.8884033" lon="16.1524333"><ele>892.0</ele><time>2026-05-03T10:52:22.884Z</time></trkpt><trkpt lat="39.88826" lon="16.15283"><ele>874.0</ele><time>2026-05-03T10:52:23.884Z</time></trkpt><trkpt lat="39.8880767" lon="16.15319"><ele>874.5</ele><time>2026-05-03T10:52:24.884Z</time></trkpt><trkpt lat="39.8878983" lon="16.15355"><ele>875.0</ele><time>2026-05-03T10:52:25.884Z</time></trkpt><trkpt lat="39.8877117" lon="16.1538867"><ele>867.0</ele><time>2026-05-03T10:52:26.883Z</time></trkpt><trkpt lat="39.8875233" lon="16.1542117"><ele>859.0</ele><time>2026-05-03T10:52:27.884Z</time></trkpt><trkpt lat="39.8873367" lon="16.1545267"><ele>859.0</ele><time>2026-05-03T10:52:28.884Z</time></trkpt><trkpt lat="39.8871533" lon="16.1548367"><ele>859.0</ele><time>2026-05-03T10:52:29.883Z</time></trkpt><trkpt lat="39.8869717" lon="16.1551483"><ele>857.5</ele><time>2026-05-03T10:52:30.884Z</time></trkpt><trkpt lat="39.8867933" lon="16.1554583"><ele>856.0</ele><time>2026-05-03T10:52:31.884Z</time></trkpt><trkpt lat="39.88661" lon="16.1557583"><ele>856.0</ele><time>2026-05-03T10:52:32.884Z</time></trkpt><trkpt lat="39.8864317" lon="16.156065"><ele>856.0</ele><time>2026-05-03T10:52:33.884Z</time></trkpt><trkpt lat="39.8862517" lon="16.15637"><ele>856.5</ele><time>2026-05-03T10:52:34.884Z</time></trkpt><trkpt lat="39.886075" lon="16.15667"><ele>857.0</ele><time>2026-05-03T10:52:35.884Z</time></trkpt><trkpt lat="39.8858967" lon="16.1569667"><ele>856.5</ele><time>2026-05-03T10:52:36.884Z</time></trkpt><trkpt lat="39.8857167" lon="16.1572683"><ele>856.0</ele><time>2026-05-03T10:52:37.884Z</time></trkpt><trkpt lat="39.8855367" lon="16.1575583"><ele>856.0</ele><time>2026-05-03T10:52:38.884Z</time></trkpt><trkpt lat="39.8853533" lon="16.1578417"><ele>856.0</ele><time>2026-05-03T10:52:39.884Z</time></trkpt><trkpt lat="39.8851567" lon="16.1581083"><ele>852.0</ele><time>2026-05-03T10:52:40.884Z</time></trkpt><trkpt lat="39.8849533" lon="16.1583683"><ele>848.0</ele><time>2026-05-03T10:52:41.884Z</time></trkpt><trkpt lat="39.88474" lon="16.1586267"><ele>848.0</ele><time>2026-05-03T10:52:42.884Z</time></trkpt><trkpt lat="39.88452" lon="16.1588767"><ele>848.0</ele><time>2026-05-03T10:52:43.884Z</time></trkpt><trkpt lat="39.8842883" lon="16.1591167"><ele>846.5</ele><time>2026-05-03T10:52:44.884Z</time></trkpt><trkpt lat="39.8840567" lon="16.1593483"><ele>845.0</ele><time>2026-05-03T10:52:45.884Z</time></trkpt><trkpt lat="39.8835867" lon="16.159815"><ele>845.0</ele><time>2026-05-03T10:52:47.884Z</time></trkpt><trkpt lat="39.8833433" lon="16.16004"><ele>845.0</ele><time>2026-05-03T10:52:48.884Z</time></trkpt><trkpt lat="39.8831133" lon="16.1602833"><ele>845.0</ele><time>2026-05-03T10:52:49.884Z</time></trkpt><trkpt lat="39.8828767" lon="16.1605083"><ele>845.0</ele><time>2026-05-03T10:52:50.884Z</time></trkpt><trkpt lat="39.8826367" lon="16.16074"><ele>842.5</ele><time>2026-05-03T10:52:51.883Z</time></trkpt><trkpt lat="39.88238" lon="16.16097"><ele>840.0</ele><time>2026-05-03T10:52:52.884Z</time></trkpt><trkpt lat="39.88214" lon="16.1612033"><ele>840.0</ele><time>2026-05-03T10:52:53.884Z</time></trkpt><trkpt lat="39.8819" lon="16.1614183"><ele>840.0</ele><time>2026-05-03T10:52:54.884Z</time></trkpt><trkpt lat="39.8816667" lon="16.1616367"><ele>837.0</ele><time>2026-05-03T10:52:55.884Z</time></trkpt><trkpt lat="39.8814283" lon="16.16185"><ele>834.0</ele><time>2026-05-03T10:52:56.884Z</time></trkpt><trkpt lat="39.8811917" lon="16.1620633"><ele>834.0</ele><time>2026-05-03T10:52:57.884Z</time></trkpt><trkpt lat="39.8809583" lon="16.1622767"><ele>834.0</ele><time>2026-05-03T10:52:58.884Z</time></trkpt><trkpt lat="39.8807183" lon="16.1624967"><ele>830.0</ele><time>2026-05-03T10:52:59.883Z</time></trkpt><trkpt lat="39.8804733" lon="16.1627317"><ele>826.0</ele><time>2026-05-03T10:53:00.883Z</time></trkpt><trkpt lat="39.8802333" lon="16.1629517"><ele>826.0</ele><time>2026-05-03T10:53:01.884Z</time></trkpt><trkpt lat="39.879985" lon="16.1631833"><ele>826.0</ele><time>2026-05-03T10:53:02.884Z</time></trkpt><trkpt lat="39.8797317" lon="16.1634233"><ele>826.0</ele><time>2026-05-03T10:53:03.884Z</time></trkpt><trkpt lat="39.8794817" lon="16.1636567"><ele>826.0</ele><time>2026-05-03T10:53:04.884Z</time></trkpt><trkpt lat="39.87922" lon="16.163895"><ele>824.0</ele><time>2026-05-03T10:53:05.884Z</time></trkpt><trkpt lat="39.8789583" lon="16.16414"><ele>822.0</ele><time>2026-05-03T10:53:06.884Z</time></trkpt><trkpt lat="39.8787" lon="16.1643633"><ele>822.0</ele><time>2026-05-03T10:53:07.884Z</time></trkpt><trkpt lat="39.8784533" lon="16.1645917"><ele>822.0</ele><time>2026-05-03T10:53:08.884Z</time></trkpt><trkpt lat="39.8782167" lon="16.1648217"><ele>819.0</ele><time>2026-05-03T10:53:09.884Z</time></trkpt><trkpt lat="39.877975" lon="16.1650467"><ele>816.0</ele><time>2026-05-03T10:53:10.883Z</time></trkpt><trkpt lat="39.8777267" lon="16.1652683"><ele>812.5</ele><time>2026-05-03T10:53:11.884Z</time></trkpt><trkpt lat="39.8774883" lon="16.165485"><ele>809.0</ele><time>2026-05-03T10:53:12.883Z</time></trkpt><trkpt lat="39.8772467" lon="16.1656967"><ele>809.0</ele><time>2026-05-03T10:53:13.884Z</time></trkpt><trkpt lat="39.8770167" lon="16.1659133"><ele>809.0</ele><time>2026-05-03T10:53:14.884Z</time></trkpt><trkpt lat="39.8767733" lon="16.1661233"><ele>809.0</ele><time>2026-05-03T10:53:15.884Z</time></trkpt><trkpt lat="39.8765367" lon="16.16633"><ele>809.0</ele><time>2026-05-03T10:53:16.883Z</time></trkpt><trkpt lat="39.8763017" lon="16.1665567"><ele>809.0</ele><time>2026-05-03T10:53:17.884Z</time></trkpt><trkpt lat="39.8760583" lon="16.1667983"><ele>809.0</ele><time>2026-05-03T10:53:18.884Z</time></trkpt><trkpt lat="39.8758267" lon="16.1670467"><ele>807.5</ele><time>2026-05-03T10:53:19.884Z</time></trkpt><trkpt lat="39.8755933" lon="16.16729"><ele>806.0</ele><time>2026-05-03T10:53:20.884Z</time></trkpt><trkpt lat="39.875355" lon="16.1675367"><ele>806.0</ele><time>2026-05-03T10:53:21.884Z</time></trkpt><trkpt lat="39.87512" lon="16.1678"><ele>806.0</ele><time>2026-05-03T10:53:22.884Z</time></trkpt><trkpt lat="39.8748983" lon="16.1680633"><ele>803.5</ele><time>2026-05-03T10:53:23.884Z</time></trkpt><trkpt lat="39.8746817" lon="16.168345"><ele>801.0</ele><time>2026-05-03T10:53:24.884Z</time></trkpt><trkpt lat="39.8744733" lon="16.1686233"><ele>798.5</ele><time>2026-05-03T10:53:25.884Z</time></trkpt><trkpt lat="39.8742683" lon="16.1689067"><ele>796.0</ele><time>2026-05-03T10:53:26.884Z</time></trkpt><trkpt lat="39.874075" lon="16.169215"><ele>796.0</ele><time>2026-05-03T10:53:27.883Z</time></trkpt><trkpt lat="39.873875" lon="16.1695267"><ele>796.0</ele><time>2026-05-03T10:53:28.883Z</time></trkpt><trkpt lat="39.873675" lon="16.1698333"><ele>797.0</ele><time>2026-05-03T10:53:29.884Z</time></trkpt><trkpt lat="39.8734817" lon="16.1701367"><ele>798.0</ele><time>2026-05-03T10:53:30.884Z</time></trkpt><trkpt lat="39.8732933" lon="16.1704317"><ele>795.0</ele><time>2026-05-03T10:53:31.884Z</time></trkpt><trkpt lat="39.8731067" lon="16.1707233"><ele>792.0</ele><time>2026-05-03T10:53:32.884Z</time></trkpt><trkpt lat="39.872925" lon="16.171005"><ele>792.0</ele><time>2026-05-03T10:53:33.884Z</time></trkpt><trkpt lat="39.8727483" lon="16.1712867"><ele>792.0</ele><time>2026-05-03T10:53:34.884Z</time></trkpt><trkpt lat="39.87256" lon="16.1715667"><ele>789.0</ele><time>2026-05-03T10:53:35.884Z</time></trkpt><trkpt lat="39.8723733" lon="16.1718517"><ele>786.0</ele><time>2026-05-03T10:53:36.884Z</time></trkpt><trkpt lat="39.87219" lon="16.1721433"><ele>786.0</ele><time>2026-05-03T10:53:37.883Z</time></trkpt><trkpt lat="39.8720033" lon="16.1724367"><ele>786.0</ele><time>2026-05-03T10:53:38.884Z</time></trkpt><trkpt lat="39.8718117" lon="16.172725"><ele>786.0</ele><time>2026-05-03T10:53:39.883Z</time></trkpt><trkpt lat="39.8716183" lon="16.1730133"><ele>786.0</ele><time>2026-05-03T10:53:40.884Z</time></trkpt><trkpt lat="39.8714367" lon="16.17331"><ele>786.0</ele><time>2026-05-03T10:53:41.884Z</time></trkpt><trkpt lat="39.8712317" lon="16.173605"><ele>786.0</ele><time>2026-05-03T10:53:42.883Z</time></trkpt><trkpt lat="39.87104" lon="16.1739067"><ele>781.0</ele><time>2026-05-03T10:53:43.883Z</time></trkpt><trkpt lat="39.8708383" lon="16.1742067"><ele>776.0</ele><time>2026-05-03T10:53:44.884Z</time></trkpt><trkpt lat="39.87065" lon="16.174495"><ele>776.0</ele><time>2026-05-03T10:53:45.884Z</time></trkpt><trkpt lat="39.8704617" lon="16.1747867"><ele>776.0</ele><time>2026-05-03T10:53:46.884Z</time></trkpt><trkpt lat="39.87027" lon="16.175075"><ele>770.5</ele><time>2026-05-03T10:53:47.884Z</time></trkpt><trkpt lat="39.870075" lon="16.1753633"><ele>765.0</ele><time>2026-05-03T10:53:48.883Z</time></trkpt><trkpt lat="39.8698767" lon="16.17566"><ele>765.5</ele><time>2026-05-03T10:53:49.884Z</time></trkpt><trkpt lat="39.8696817" lon="16.1759583"><ele>766.0</ele><time>2026-05-03T10:53:50.884Z</time></trkpt><trkpt lat="39.8694817" lon="16.176265"><ele>767.5</ele><time>2026-05-03T10:53:51.883Z</time></trkpt><trkpt lat="39.8692833" lon="16.1765717"><ele>769.0</ele><time>2026-05-03T10:53:52.884Z</time></trkpt><trkpt lat="39.869085" lon="16.1768833"><ele>765.5</ele><time>2026-05-03T10:53:53.884Z</time></trkpt><trkpt lat="39.86889" lon="16.1771917"><ele>762.0</ele><time>2026-05-03T10:53:54.884Z</time></trkpt><trkpt lat="39.868695" lon="16.1774983"><ele>762.0</ele><time>2026-05-03T10:53:55.884Z</time></trkpt><trkpt lat="39.8685017" lon="16.1778033"><ele>762.0</ele><time>2026-05-03T10:53:56.884Z</time></trkpt><trkpt lat="39.8683133" lon="16.178105"><ele>763.0</ele><time>2026-05-03T10:53:57.884Z</time></trkpt><trkpt lat="39.8681217" lon="16.178405"><ele>764.0</ele><time>2026-05-03T10:53:58.884Z</time></trkpt><trkpt lat="39.8679317" lon="16.1787"><ele>764.0</ele><time>2026-05-03T10:53:59.884Z</time></trkpt><trkpt lat="39.8677383" lon="16.1789933"><ele>764.0</ele><time>2026-05-03T10:54:00.884Z</time></trkpt><trkpt lat="39.86755" lon="16.1792883"><ele>763.0</ele><time>2026-05-03T10:54:01.884Z</time></trkpt><trkpt lat="39.8673717" lon="16.1795683"><ele>762.0</ele><time>2026-05-03T10:54:02.884Z</time></trkpt><trkpt lat="39.8671933" lon="16.179845"><ele>764.0</ele><time>2026-05-03T10:54:03.883Z</time></trkpt><trkpt lat="39.8670217" lon="16.180105"><ele>766.0</ele><time>2026-05-03T10:54:04.883Z</time></trkpt><trkpt lat="39.8668567" lon="16.180365"><ele>762.5</ele><time>2026-05-03T10:54:05.884Z</time></trkpt><trkpt lat="39.8666817" lon="16.1806067"><ele>759.0</ele><time>2026-05-03T10:54:06.883Z</time></trkpt><trkpt lat="39.8665283" lon="16.18085"><ele>759.0</ele><time>2026-05-03T10:54:07.883Z</time></trkpt><trkpt lat="39.8663717" lon="16.1810917"><ele>759.0</ele><time>2026-05-03T10:54:08.884Z</time></trkpt><trkpt lat="39.86622" lon="16.1813333"><ele>761.5</ele><time>2026-05-03T10:54:09.884Z</time></trkpt><trkpt lat="39.86607" lon="16.1815583"><ele>764.0</ele><time>2026-05-03T10:54:10.884Z</time></trkpt><trkpt lat="39.8659167" lon="16.1817833"><ele>757.5</ele><time>2026-05-03T10:54:11.883Z</time></trkpt><trkpt lat="39.8657667" lon="16.1820217"><ele>751.0</ele><time>2026-05-03T10:54:12.884Z</time></trkpt><trkpt lat="39.86561" lon="16.18226"><ele>752.0</ele><time>2026-05-03T10:54:13.884Z</time></trkpt><trkpt lat="39.865445" lon="16.1824983"><ele>753.0</ele><time>2026-05-03T10:54:14.884Z</time></trkpt><trkpt lat="39.8653017" lon="16.1827317"><ele>753.0</ele><time>2026-05-03T10:54:15.884Z</time></trkpt><trkpt lat="39.865165" lon="16.1829533"><ele>753.0</ele><time>2026-05-03T10:54:16.884Z</time></trkpt><trkpt lat="39.8650133" lon="16.18318"><ele>753.0</ele><time>2026-05-03T10:54:17.884Z</time></trkpt><trkpt lat="39.8648817" lon="16.1833967"><ele>750.0</ele><time>2026-05-03T10:54:18.884Z</time></trkpt><trkpt lat="39.8647567" lon="16.1836217"><ele>747.0</ele><time>2026-05-03T10:54:19.883Z</time></trkpt><trkpt lat="39.8646333" lon="16.1838467"><ele>744.0</ele><time>2026-05-03T10:54:20.883Z</time></trkpt><trkpt lat="39.86452" lon="16.18408"><ele>743.3333333333334</ele><time>2026-05-03T10:54:21.884Z</time></trkpt><trkpt lat="39.86441" lon="16.1843183"><ele>742.6666666666667</ele><time>2026-05-03T10:54:22.883Z</time></trkpt><trkpt lat="39.864295" lon="16.1845667"><ele>742.0</ele><time>2026-05-03T10:54:23.884Z</time></trkpt><trkpt lat="39.8641683" lon="16.1848183"><ele>736.5</ele><time>2026-05-03T10:54:24.884Z</time></trkpt><trkpt lat="39.86403" lon="16.1850767"><ele>731.0</ele><time>2026-05-03T10:54:25.884Z</time></trkpt><trkpt lat="39.8638967" lon="16.1853417"><ele>731.0</ele><time>2026-05-03T10:54:26.884Z</time></trkpt><trkpt lat="39.8637683" lon="16.1856083"><ele>731.0</ele><time>2026-05-03T10:54:27.884Z</time></trkpt><trkpt lat="39.8636383" lon="16.18588"><ele>730.0</ele><time>2026-05-03T10:54:28.883Z</time></trkpt><trkpt lat="39.8635033" lon="16.186155"><ele>729.0</ele><time>2026-05-03T10:54:29.884Z</time></trkpt><trkpt lat="39.8633783" lon="16.18643"><ele>729.0</ele><time>2026-05-03T10:54:30.884Z</time></trkpt><trkpt lat="39.8632417" lon="16.1867083"><ele>729.0</ele><time>2026-05-03T10:54:31.883Z</time></trkpt><trkpt lat="39.8631083" lon="16.1869933"><ele>729.0</ele><time>2026-05-03T10:54:32.883Z</time></trkpt><trkpt lat="39.86297" lon="16.1872717"><ele>729.0</ele><time>2026-05-03T10:54:33.883Z</time></trkpt><trkpt lat="39.8628417" lon="16.1875517"><ele>724.5</ele><time>2026-05-03T10:54:34.884Z</time></trkpt><trkpt lat="39.8627067" lon="16.1878317"><ele>720.0</ele><time>2026-05-03T10:54:35.884Z</time></trkpt><trkpt lat="39.862555" lon="16.18813"><ele>723.0</ele><time>2026-05-03T10:54:36.883Z</time></trkpt><trkpt lat="39.8623883" lon="16.1884467"><ele>726.0</ele><time>2026-05-03T10:54:37.884Z</time></trkpt><trkpt lat="39.8622267" lon="16.1887617"><ele>727.0</ele><time>2026-05-03T10:54:38.884Z</time></trkpt><trkpt lat="39.8620767" lon="16.1890833"><ele>728.0</ele><time>2026-05-03T10:54:39.883Z</time></trkpt><trkpt lat="39.86193" lon="16.18941"><ele>723.5</ele><time>2026-05-03T10:54:40.884Z</time></trkpt><trkpt lat="39.861775" lon="16.18974"><ele>719.0</ele><time>2026-05-03T10:54:41.884Z</time></trkpt><trkpt lat="39.86162" lon="16.1900733"><ele>719.0</ele><time>2026-05-03T10:54:42.884Z</time></trkpt><trkpt lat="39.8614567" lon="16.1904033"><ele>719.0</ele><time>2026-05-03T10:54:43.884Z</time></trkpt><trkpt lat="39.8612917" lon="16.1907367"><ele>721.5</ele><time>2026-05-03T10:54:44.884Z</time></trkpt><trkpt lat="39.8611217" lon="16.1910583"><ele>724.0</ele><time>2026-05-03T10:54:45.884Z</time></trkpt><trkpt lat="39.8609483" lon="16.191385"><ele>720.5</ele><time>2026-05-03T10:54:46.883Z</time></trkpt><trkpt lat="39.8607733" lon="16.1917033"><ele>717.0</ele><time>2026-05-03T10:54:47.884Z</time></trkpt><trkpt lat="39.860585" lon="16.192015"><ele>717.0</ele><time>2026-05-03T10:54:48.884Z</time></trkpt><trkpt lat="39.860395" lon="16.1923217"><ele>717.0</ele><time>2026-05-03T10:54:49.884Z</time></trkpt><trkpt lat="39.8602017" lon="16.1926283"><ele>718.0</ele><time>2026-05-03T10:54:50.883Z</time></trkpt><trkpt lat="39.8600033" lon="16.1929333"><ele>719.0</ele><time>2026-05-03T10:54:51.883Z</time></trkpt><trkpt lat="39.859805" lon="16.19323"><ele>719.0</ele><time>2026-05-03T10:54:52.884Z</time></trkpt><trkpt lat="39.859615" lon="16.193525"><ele>719.0</ele><time>2026-05-03T10:54:53.884Z</time></trkpt><trkpt lat="39.8594233" lon="16.193815"><ele>717.0</ele><time>2026-05-03T10:54:54.884Z</time></trkpt><trkpt lat="39.8592267" lon="16.1941117"><ele>715.0</ele><time>2026-05-03T10:54:55.883Z</time></trkpt><trkpt lat="39.859035" lon="16.1944117"><ele>715.0</ele><time>2026-05-03T10:54:56.883Z</time></trkpt><trkpt lat="39.85883" lon="16.194705"><ele>715.0</ele><time>2026-05-03T10:54:57.884Z</time></trkpt><trkpt lat="39.8586233" lon="16.1950017"><ele>714.5</ele><time>2026-05-03T10:54:58.883Z</time></trkpt><trkpt lat="39.8584183" lon="16.195305"><ele>714.0</ele><time>2026-05-03T10:54:59.884Z</time></trkpt><trkpt lat="39.8582183" lon="16.1956083"><ele>715.5</ele><time>2026-05-03T10:55:00.884Z</time></trkpt><trkpt lat="39.85802" lon="16.1959133"><ele>717.0</ele><time>2026-05-03T10:55:01.884Z</time></trkpt><trkpt lat="39.8578083" lon="16.196215"><ele>713.0</ele><time>2026-05-03T10:55:02.883Z</time></trkpt><trkpt lat="39.8576" lon="16.1965167"><ele>709.0</ele><time>2026-05-03T10:55:03.884Z</time></trkpt><trkpt lat="39.85739" lon="16.1968167"><ele>709.0</ele><time>2026-05-03T10:55:04.883Z</time></trkpt><trkpt lat="39.8571783" lon="16.1971233"><ele>709.0</ele><time>2026-05-03T10:55:05.884Z</time></trkpt><trkpt lat="39.8569667" lon="16.1974317"><ele>707.0</ele><time>2026-05-03T10:55:06.884Z</time></trkpt><trkpt lat="39.8567533" lon="16.1977383"><ele>705.0</ele><time>2026-05-03T10:55:07.883Z</time></trkpt><trkpt lat="39.856545" lon="16.1980517"><ele>704.5</ele><time>2026-05-03T10:55:08.884Z</time></trkpt><trkpt lat="39.8563367" lon="16.198355"><ele>704.0</ele><time>2026-05-03T10:55:09.884Z</time></trkpt><trkpt lat="39.8561333" lon="16.1986733"><ele>700.5</ele><time>2026-05-03T10:55:10.884Z</time></trkpt><trkpt lat="39.8559233" lon="16.198975"><ele>697.0</ele><time>2026-05-03T10:55:11.884Z</time></trkpt><trkpt lat="39.8557083" lon="16.19927"><ele>697.0</ele><time>2026-05-03T10:55:12.884Z</time></trkpt><trkpt lat="39.8554983" lon="16.199565"><ele>697.0</ele><time>2026-05-03T10:55:13.884Z</time></trkpt><trkpt lat="39.8552817" lon="16.1998667"><ele>691.0</ele><time>2026-05-03T10:55:14.884Z</time></trkpt><trkpt lat="39.855065" lon="16.2001667"><ele>685.0</ele><time>2026-05-03T10:55:15.884Z</time></trkpt><trkpt lat="39.854855" lon="16.2004633"><ele>685.5</ele><time>2026-05-03T10:55:16.884Z</time></trkpt><trkpt lat="39.8546433" lon="16.200765"><ele>686.0</ele><time>2026-05-03T10:55:17.884Z</time></trkpt><trkpt lat="39.8544367" lon="16.2010733"><ele>683.5</ele><time>2026-05-03T10:55:18.884Z</time></trkpt><trkpt lat="39.85423" lon="16.20137"><ele>681.0</ele><time>2026-05-03T10:55:19.883Z</time></trkpt><trkpt lat="39.8540333" lon="16.2016717"><ele>681.0</ele><time>2026-05-03T10:55:20.884Z</time></trkpt><trkpt lat="39.8538417" lon="16.20196"><ele>681.0</ele><time>2026-05-03T10:55:21.884Z</time></trkpt><trkpt lat="39.8536517" lon="16.2022417"><ele>680.5</ele><time>2026-05-03T10:55:22.884Z</time></trkpt><trkpt lat="39.85346" lon="16.2025283"><ele>680.0</ele><time>2026-05-03T10:55:23.884Z</time></trkpt><trkpt lat="39.85327" lon="16.2028033"><ele>679.5</ele><time>2026-05-03T10:55:24.884Z</time></trkpt><trkpt lat="39.8530767" lon="16.203085"><ele>679.0</ele><time>2026-05-03T10:55:25.884Z</time></trkpt><trkpt lat="39.8528833" lon="16.2033683"><ele>679.0</ele><time>2026-05-03T10:55:26.884Z</time></trkpt><trkpt lat="39.8526967" lon="16.2036533"><ele>679.0</ele><time>2026-05-03T10:55:27.883Z</time></trkpt><trkpt lat="39.852515" lon="16.2039483"><ele>677.0</ele><time>2026-05-03T10:55:28.884Z</time></trkpt><trkpt lat="39.8523383" lon="16.2042533"><ele>675.0</ele><time>2026-05-03T10:55:29.884Z</time></trkpt><trkpt lat="39.8521733" lon="16.2045567"><ele>679.0</ele><time>2026-05-03T10:55:30.884Z</time></trkpt><trkpt lat="39.8520067" lon="16.20487"><ele>683.0</ele><time>2026-05-03T10:55:31.884Z</time></trkpt><trkpt lat="39.8518533" lon="16.2051833"><ele>670.0</ele><time>2026-05-03T10:55:32.884Z</time></trkpt><trkpt lat="39.8517017" lon="16.205515"><ele>657.0</ele><time>2026-05-03T10:55:33.883Z</time></trkpt><trkpt lat="39.8515533" lon="16.2058517"><ele>653.0</ele><time>2026-05-03T10:55:34.884Z</time></trkpt><trkpt lat="39.8514" lon="16.2061867"><ele>649.0</ele><time>2026-05-03T10:55:35.884Z</time></trkpt><trkpt lat="39.8512417" lon="16.2065367"><ele>646.5</ele><time>2026-05-03T10:55:36.883Z</time></trkpt><trkpt lat="39.8510833" lon="16.206875"><ele>644.0</ele><time>2026-05-03T10:55:37.884Z</time></trkpt><trkpt lat="39.85093" lon="16.2072217"><ele>646.5</ele><time>2026-05-03T10:55:38.884Z</time></trkpt><trkpt lat="39.8507733" lon="16.20756"><ele>649.0</ele><time>2026-05-03T10:55:39.883Z</time></trkpt><trkpt lat="39.8506183" lon="16.207895"><ele>656.0</ele><time>2026-05-03T10:55:40.883Z</time></trkpt><trkpt lat="39.850455" lon="16.2082283"><ele>663.0</ele><time>2026-05-03T10:55:41.884Z</time></trkpt><trkpt lat="39.8503017" lon="16.2085667"><ele>663.0</ele><time>2026-05-03T10:55:42.884Z</time></trkpt><trkpt lat="39.8501433" lon="16.2089017"><ele>663.0</ele><time>2026-05-03T10:55:43.884Z</time></trkpt><trkpt lat="39.8499933" lon="16.209235"><ele>663.0</ele><time>2026-05-03T10:55:44.883Z</time></trkpt><trkpt lat="39.8498533" lon="16.2095817"><ele>663.0</ele><time>2026-05-03T10:55:45.884Z</time></trkpt><trkpt lat="39.8497067" lon="16.2099217"><ele>668.5</ele><time>2026-05-03T10:55:46.884Z</time></trkpt><trkpt lat="39.84956" lon="16.2102583"><ele>674.0</ele><time>2026-05-03T10:55:47.884Z</time></trkpt><trkpt lat="39.8494167" lon="16.2105933"><ele>686.0</ele><time>2026-05-03T10:55:48.884Z</time></trkpt><trkpt lat="39.8492717" lon="16.21093"><ele>698.0</ele><time>2026-05-03T10:55:49.884Z</time></trkpt><trkpt lat="39.8491267" lon="16.211265"><ele>668.0</ele><time>2026-05-03T10:55:50.884Z</time></trkpt><trkpt lat="39.8486667" lon="16.21265"><ele>668.0</ele><time>2026-05-03T10:55:54.885Z</time></trkpt><trkpt lat="39.8487733" lon="16.2131333"><ele>668.0</ele><time>2026-05-03T10:55:55.885Z</time></trkpt><trkpt lat="39.8488017" lon="16.2135967"><ele>655.0</ele><time>2026-05-03T10:55:56.885Z</time></trkpt><trkpt lat="39.84878" lon="16.2139967"><ele>642.0</ele><time>2026-05-03T10:55:57.885Z</time></trkpt><trkpt lat="39.848735" lon="16.2143933"><ele>642.0</ele><time>2026-05-03T10:55:58.884Z</time></trkpt><trkpt lat="39.8487" lon="16.2148"><ele>642.0</ele><time>2026-05-03T10:55:59.884Z</time></trkpt><trkpt lat="39.84867" lon="16.2152033"><ele>642.0</ele><time>2026-05-03T10:56:00.884Z</time></trkpt><trkpt lat="39.8486233" lon="16.2156"><ele>642.0</ele><time>2026-05-03T10:56:01.885Z</time></trkpt><trkpt lat="39.84858" lon="16.2160033"><ele>642.0</ele><time>2026-05-03T10:56:02.884Z</time></trkpt><trkpt lat="39.8485283" lon="16.2164083"><ele>642.0</ele><time>2026-05-03T10:56:03.885Z</time></trkpt><trkpt lat="39.84847" lon="16.2168117"><ele>638.5</ele><time>2026-05-03T10:56:04.884Z</time></trkpt><trkpt lat="39.8484167" lon="16.2172017"><ele>635.0</ele><time>2026-05-03T10:56:05.885Z</time></trkpt><trkpt lat="39.8483633" lon="16.2175983"><ele>635.0</ele><time>2026-05-03T10:56:06.885Z</time></trkpt><trkpt lat="39.8483067" lon="16.2179917"><ele>635.0</ele><time>2026-05-03T10:56:07.885Z</time></trkpt><trkpt lat="39.8482533" lon="16.2183817"><ele>635.0</ele><time>2026-05-03T10:56:08.885Z</time></trkpt><trkpt lat="39.8481867" lon="16.2187617"><ele>635.0</ele><time>2026-05-03T10:56:09.885Z</time></trkpt><trkpt lat="39.8481433" lon="16.2191367"><ele>635.5</ele><time>2026-05-03T10:56:10.884Z</time></trkpt><trkpt lat="39.8480967" lon="16.219505"><ele>636.0</ele><time>2026-05-03T10:56:11.885Z</time></trkpt><trkpt lat="39.8480433" lon="16.2198633"><ele>636.0</ele><time>2026-05-03T10:56:12.885Z</time></trkpt><trkpt lat="39.8479967" lon="16.2202183"><ele>636.0</ele><time>2026-05-03T10:56:13.885Z</time></trkpt><trkpt lat="39.8479533" lon="16.2205717"><ele>635.5</ele><time>2026-05-03T10:56:14.885Z</time></trkpt><trkpt lat="39.8479133" lon="16.2209433"><ele>635.0</ele><time>2026-05-03T10:56:15.885Z</time></trkpt><trkpt lat="39.8478683" lon="16.2213133"><ele>634.5</ele><time>2026-05-03T10:56:16.885Z</time></trkpt><trkpt lat="39.84782" lon="16.2216833"><ele>634.0</ele><time>2026-05-03T10:56:17.885Z</time></trkpt><trkpt lat="39.8477817" lon="16.2220567"><ele>634.0</ele><time>2026-05-03T10:56:18.885Z</time></trkpt><trkpt lat="39.8477567" lon="16.222435"><ele>634.0</ele><time>2026-05-03T10:56:19.885Z</time></trkpt><trkpt lat="39.8477317" lon="16.2228167"><ele>633.0</ele><time>2026-05-03T10:56:20.885Z</time></trkpt><trkpt lat="39.8477117" lon="16.223205"><ele>632.0</ele><time>2026-05-03T10:56:21.885Z</time></trkpt><trkpt lat="39.8476933" lon="16.2235867"><ele>632.0</ele><time>2026-05-03T10:56:22.885Z</time></trkpt><trkpt lat="39.8476717" lon="16.2239617"><ele>632.0</ele><time>2026-05-03T10:56:23.885Z</time></trkpt><trkpt lat="39.8476583" lon="16.2243183"><ele>631.0</ele><time>2026-05-03T10:56:24.885Z</time></trkpt><trkpt lat="39.847635" lon="16.2246717"><ele>630.0</ele><time>2026-05-03T10:56:25.885Z</time></trkpt><trkpt lat="39.8476283" lon="16.22503"><ele>622.0</ele><time>2026-05-03T10:56:26.885Z</time></trkpt><trkpt lat="39.84761" lon="16.225395"><ele>614.0</ele><time>2026-05-03T10:56:27.885Z</time></trkpt><trkpt lat="39.8475817" lon="16.225755"><ele>613.5</ele><time>2026-05-03T10:56:28.885Z</time></trkpt><trkpt lat="39.84756" lon="16.2261217"><ele>613.0</ele><time>2026-05-03T10:56:29.885Z</time></trkpt><trkpt lat="39.8475467" lon="16.2264917"><ele>612.0</ele><time>2026-05-03T10:56:30.884Z</time></trkpt><trkpt lat="39.84753" lon="16.226875"><ele>611.0</ele><time>2026-05-03T10:56:31.884Z</time></trkpt><trkpt lat="39.8475167" lon="16.2272633"><ele>609.5</ele><time>2026-05-03T10:56:32.884Z</time></trkpt><trkpt lat="39.8475033" lon="16.2276583"><ele>608.0</ele><time>2026-05-03T10:56:33.884Z</time></trkpt><trkpt lat="39.8474867" lon="16.22805"><ele>606.5</ele><time>2026-05-03T10:56:34.884Z</time></trkpt><trkpt lat="39.8474667" lon="16.228445"><ele>605.0</ele><time>2026-05-03T10:56:35.884Z</time></trkpt><trkpt lat="39.84745" lon="16.22885"><ele>603.0</ele><time>2026-05-03T10:56:36.885Z</time></trkpt><trkpt lat="39.8474333" lon="16.229255"><ele>601.0</ele><time>2026-05-03T10:56:37.885Z</time></trkpt><trkpt lat="39.8474233" lon="16.2296583"><ele>599.5</ele><time>2026-05-03T10:56:38.885Z</time></trkpt><trkpt lat="39.8474067" lon="16.2300633"><ele>598.0</ele><time>2026-05-03T10:56:39.885Z</time></trkpt><trkpt lat="39.847385" lon="16.230465"><ele>596.5</ele><time>2026-05-03T10:56:40.885Z</time></trkpt><trkpt lat="39.84736" lon="16.2308633"><ele>595.0</ele><time>2026-05-03T10:56:41.885Z</time></trkpt><trkpt lat="39.8473267" lon="16.23126"><ele>593.0</ele><time>2026-05-03T10:56:42.884Z</time></trkpt><trkpt lat="39.8472883" lon="16.2316567"><ele>591.0</ele><time>2026-05-03T10:56:43.885Z</time></trkpt><trkpt lat="39.8472383" lon="16.2320517"><ele>590.5</ele><time>2026-05-03T10:56:44.885Z</time></trkpt><trkpt lat="39.84718" lon="16.2324367"><ele>590.0</ele><time>2026-05-03T10:56:45.884Z</time></trkpt><trkpt lat="39.84712" lon="16.23282"><ele>588.5</ele><time>2026-05-03T10:56:46.884Z</time></trkpt><trkpt lat="39.8470533" lon="16.2331917"><ele>587.0</ele><time>2026-05-03T10:56:47.885Z</time></trkpt><trkpt lat="39.8469767" lon="16.23356"><ele>587.0</ele><time>2026-05-03T10:56:48.885Z</time></trkpt><trkpt lat="39.84689" lon="16.2339233"><ele>587.0</ele><time>2026-05-03T10:56:49.884Z</time></trkpt><trkpt lat="39.8468" lon="16.234285"><ele>580.0</ele><time>2026-05-03T10:56:50.885Z</time></trkpt><trkpt lat="39.8467067" lon="16.2346433"><ele>573.0</ele><time>2026-05-03T10:56:51.884Z</time></trkpt><trkpt lat="39.8465967" lon="16.2349967"><ele>572.5</ele><time>2026-05-03T10:56:52.884Z</time></trkpt><trkpt lat="39.8464783" lon="16.2353433"><ele>572.0</ele><time>2026-05-03T10:56:53.885Z</time></trkpt><trkpt lat="39.84635" lon="16.2356917"><ele>572.0</ele><time>2026-05-03T10:56:54.885Z</time></trkpt><trkpt lat="39.8462267" lon="16.23604"><ele>572.0</ele><time>2026-05-03T10:56:55.885Z</time></trkpt><trkpt lat="39.8461017" lon="16.236375"><ele>575.0</ele><time>2026-05-03T10:56:56.885Z</time></trkpt><trkpt lat="39.8459567" lon="16.2367033"><ele>578.0</ele><time>2026-05-03T10:56:57.885Z</time></trkpt><trkpt lat="39.845815" lon="16.2370217"><ele>580.0</ele><time>2026-05-03T10:56:58.884Z</time></trkpt><trkpt lat="39.8456717" lon="16.2373417"><ele>582.0</ele><time>2026-05-03T10:56:59.885Z</time></trkpt><trkpt lat="39.8455283" lon="16.2376667"><ele>582.0</ele><time>2026-05-03T10:57:00.884Z</time></trkpt><trkpt lat="39.8453933" lon="16.2379967"><ele>582.0</ele><time>2026-05-03T10:57:01.885Z</time></trkpt><trkpt lat="39.8452583" lon="16.2383217"><ele>582.0</ele><time>2026-05-03T10:57:02.885Z</time></trkpt><trkpt lat="39.84513" lon="16.2386417"><ele>582.0</ele><time>2026-05-03T10:57:03.885Z</time></trkpt><trkpt lat="39.8450067" lon="16.238965"><ele>577.5</ele><time>2026-05-03T10:57:04.885Z</time></trkpt><trkpt lat="39.8448717" lon="16.2392817"><ele>573.0</ele><time>2026-05-03T10:57:05.885Z</time></trkpt><trkpt lat="39.8447333" lon="16.2395983"><ele>572.0</ele><time>2026-05-03T10:57:06.885Z</time></trkpt><trkpt lat="39.8445917" lon="16.239925"><ele>571.0</ele><time>2026-05-03T10:57:07.884Z</time></trkpt><trkpt lat="39.84445" lon="16.2402533"><ele>571.0</ele><time>2026-05-03T10:57:08.885Z</time></trkpt><trkpt lat="39.8443167" lon="16.2405633"><ele>571.0</ele><time>2026-05-03T10:57:09.885Z</time></trkpt><trkpt lat="39.8441767" lon="16.24088"><ele>566.0</ele><time>2026-05-03T10:57:10.885Z</time></trkpt><trkpt lat="39.8440383" lon="16.2411917"><ele>561.0</ele><time>2026-05-03T10:57:11.884Z</time></trkpt><trkpt lat="39.8438967" lon="16.2415133"><ele>560.5</ele><time>2026-05-03T10:57:12.885Z</time></trkpt><trkpt lat="39.843755" lon="16.2418283"><ele>560.0</ele><time>2026-05-03T10:57:13.884Z</time></trkpt><trkpt lat="39.8436067" lon="16.2421517"><ele>561.5</ele><time>2026-05-03T10:57:14.884Z</time></trkpt><trkpt lat="39.8434733" lon="16.2424767"><ele>563.0</ele><time>2026-05-03T10:57:15.885Z</time></trkpt><trkpt lat="39.84333" lon="16.24282"><ele>557.0</ele><time>2026-05-03T10:57:16.885Z</time></trkpt><trkpt lat="39.8431833" lon="16.2431617"><ele>551.0</ele><time>2026-05-03T10:57:17.885Z</time></trkpt><trkpt lat="39.8430317" lon="16.2435217"><ele>551.0</ele><time>2026-05-03T10:57:18.885Z</time></trkpt><trkpt lat="39.8428767" lon="16.2438817"><ele>551.0</ele><time>2026-05-03T10:57:19.884Z</time></trkpt><trkpt lat="39.8427317" lon="16.2442383"><ele>547.0</ele><time>2026-05-03T10:57:20.884Z</time></trkpt><trkpt lat="39.842585" lon="16.2445867"><ele>543.0</ele><time>2026-05-03T10:57:21.885Z</time></trkpt><trkpt lat="39.842435" lon="16.2449233"><ele>543.0</ele><time>2026-05-03T10:57:22.885Z</time></trkpt><trkpt lat="39.8422933" lon="16.2452683"><ele>543.0</ele><time>2026-05-03T10:57:23.885Z</time></trkpt><trkpt lat="39.84215" lon="16.2456033"><ele>544.0</ele><time>2026-05-03T10:57:24.885Z</time></trkpt><trkpt lat="39.84201" lon="16.2459217"><ele>545.0</ele><time>2026-05-03T10:57:25.884Z</time></trkpt><trkpt lat="39.8418633" lon="16.2462317"><ele>540.5</ele><time>2026-05-03T10:57:26.885Z</time></trkpt><trkpt lat="39.8417183" lon="16.24654"><ele>536.0</ele><time>2026-05-03T10:57:27.884Z</time></trkpt><trkpt lat="39.8415667" lon="16.24684"><ele>536.0</ele><time>2026-05-03T10:57:28.885Z</time></trkpt><trkpt lat="39.8414067" lon="16.2471433"><ele>536.0</ele><time>2026-05-03T10:57:29.885Z</time></trkpt><trkpt lat="39.8412433" lon="16.247445"><ele>535.5</ele><time>2026-05-03T10:57:30.885Z</time></trkpt><trkpt lat="39.8410783" lon="16.24774"><ele>535.0</ele><time>2026-05-03T10:57:31.885Z</time></trkpt><trkpt lat="39.840905" lon="16.2480433"><ele>530.5</ele><time>2026-05-03T10:57:32.885Z</time></trkpt><trkpt lat="39.8407383" lon="16.2483483"><ele>526.0</ele><time>2026-05-03T10:57:33.885Z</time></trkpt><trkpt lat="39.8405583" lon="16.2486433"><ele>526.0</ele><time>2026-05-03T10:57:34.885Z</time></trkpt><trkpt lat="39.8403933" lon="16.248935"><ele>526.0</ele><time>2026-05-03T10:57:35.885Z</time></trkpt><trkpt lat="39.8402367" lon="16.24921"><ele>522.5</ele><time>2026-05-03T10:57:36.885Z</time></trkpt><trkpt lat="39.84009" lon="16.2494717"><ele>519.0</ele><time>2026-05-03T10:57:37.884Z</time></trkpt><trkpt lat="39.839945" lon="16.2497333"><ele>521.0</ele><time>2026-05-03T10:57:38.885Z</time></trkpt><trkpt lat="39.8398067" lon="16.2499917"><ele>523.0</ele><time>2026-05-03T10:57:39.884Z</time></trkpt><trkpt lat="39.8396683" lon="16.2502317"><ele>523.0</ele><time>2026-05-03T10:57:40.885Z</time></trkpt><trkpt lat="39.8395333" lon="16.2504667"><ele>523.0</ele><time>2026-05-03T10:57:41.884Z</time></trkpt><trkpt lat="39.8393967" lon="16.2506967"><ele>523.0</ele><time>2026-05-03T10:57:42.885Z</time></trkpt><trkpt lat="39.8392567" lon="16.2509383"><ele>522.3333333333334</ele><time>2026-05-03T10:57:43.885Z</time></trkpt><trkpt lat="39.83913" lon="16.2511717"><ele>521.6666666666666</ele><time>2026-05-03T10:57:44.885Z</time></trkpt><trkpt lat="39.8389967" lon="16.251405"><ele>521.0</ele><time>2026-05-03T10:57:45.885Z</time></trkpt><trkpt lat="39.83886" lon="16.2516467"><ele>521.0</ele><time>2026-05-03T10:57:46.884Z</time></trkpt><trkpt lat="39.83872" lon="16.2518917"><ele>521.0</ele><time>2026-05-03T10:57:47.885Z</time></trkpt><trkpt lat="39.8385783" lon="16.25214"><ele>516.5</ele><time>2026-05-03T10:57:48.885Z</time></trkpt><trkpt lat="39.838425" lon="16.2523917"><ele>512.0</ele><time>2026-05-03T10:57:49.884Z</time></trkpt><trkpt lat="39.8382867" lon="16.25263"><ele>512.0</ele><time>2026-05-03T10:57:50.885Z</time></trkpt><trkpt lat="39.8381517" lon="16.2528617"><ele>512.0</ele><time>2026-05-03T10:57:51.885Z</time></trkpt><trkpt lat="39.8380167" lon="16.25307"><ele>512.0</ele><time>2026-05-03T10:57:52.885Z</time></trkpt><trkpt lat="39.83788" lon="16.2532783"><ele>511.66666666666663</ele><time>2026-05-03T10:57:53.885Z</time></trkpt><trkpt lat="39.8377383" lon="16.2534817"><ele>511.33333333333337</ele><time>2026-05-03T10:57:54.885Z</time></trkpt><trkpt lat="39.8375967" lon="16.253675"><ele>511.0</ele><time>2026-05-03T10:57:55.885Z</time></trkpt><trkpt lat="39.8374483" lon="16.2538567"><ele>508.0</ele><time>2026-05-03T10:57:56.885Z</time></trkpt><trkpt lat="39.8372883" lon="16.2540367"><ele>505.0</ele><time>2026-05-03T10:57:57.885Z</time></trkpt><trkpt lat="39.8371383" lon="16.2542067"><ele>502.0</ele><time>2026-05-03T10:57:58.885Z</time></trkpt><trkpt lat="39.8369933" lon="16.254365"><ele>502.0</ele><time>2026-05-03T10:57:59.885Z</time></trkpt><trkpt lat="39.8368533" lon="16.2545133"><ele>502.0</ele><time>2026-05-03T10:58:00.885Z</time></trkpt><trkpt lat="39.83672" lon="16.2546483"><ele>502.0</ele><time>2026-05-03T10:58:01.884Z</time></trkpt><trkpt lat="39.83659" lon="16.2547667"><ele>500.33333333333337</ele><time>2026-05-03T10:58:02.885Z</time></trkpt><trkpt lat="39.8364583" lon="16.2548617"><ele>498.66666666666663</ele><time>2026-05-03T10:58:03.884Z</time></trkpt><trkpt lat="39.8363217" lon="16.2549417"><ele>497.0</ele><time>2026-05-03T10:58:04.885Z</time></trkpt><trkpt lat="39.8361733" lon="16.2550117"><ele>497.0</ele><time>2026-05-03T10:58:05.884Z</time></trkpt><trkpt lat="39.836025" lon="16.2550583"><ele>497.0</ele><time>2026-05-03T10:58:06.885Z</time></trkpt><trkpt lat="39.83587" lon="16.2550967"><ele>497.0</ele><time>2026-05-03T10:58:07.885Z</time></trkpt><trkpt lat="39.8357117" lon="16.2551167"><ele>495.3333333333333</ele><time>2026-05-03T10:58:08.885Z</time></trkpt><trkpt lat="39.8355517" lon="16.2551133"><ele>493.66666666666663</ele><time>2026-05-03T10:58:09.885Z</time></trkpt><trkpt lat="39.8354033" lon="16.2550983"><ele>492.0</ele><time>2026-05-03T10:58:10.885Z</time></trkpt><trkpt lat="39.8352617" lon="16.2550483"><ele>490.0</ele><time>2026-05-03T10:58:11.885Z</time></trkpt><trkpt lat="39.8351017" lon="16.2550117"><ele>488.0</ele><time>2026-05-03T10:58:12.885Z</time></trkpt><trkpt lat="39.834965" lon="16.2549483"><ele>486.0</ele><time>2026-05-03T10:58:13.885Z</time></trkpt><trkpt lat="39.8348333" lon="16.2548733"><ele>486.0</ele><time>2026-05-03T10:58:14.884Z</time></trkpt><trkpt lat="39.8347267" lon="16.2547883"><ele>486.0</ele><time>2026-05-03T10:58:15.885Z</time></trkpt><trkpt lat="39.834625" lon="16.254695"><ele>486.0</ele><time>2026-05-03T10:58:16.885Z</time></trkpt><trkpt lat="39.834515" lon="16.2545933"><ele>486.0</ele><time>2026-05-03T10:58:17.885Z</time></trkpt><trkpt lat="39.8344033" lon="16.2544817"><ele>483.66666666666663</ele><time>2026-05-03T10:58:18.884Z</time></trkpt><trkpt lat="39.834285" lon="16.2543617"><ele>481.3333333333333</ele><time>2026-05-03T10:58:19.885Z</time></trkpt><trkpt lat="39.8341583" lon="16.254245"><ele>479.0</ele><time>2026-05-03T10:58:20.885Z</time></trkpt><trkpt lat="39.8340217" lon="16.2541283"><ele>479.0</ele><time>2026-05-03T10:58:21.885Z</time></trkpt><trkpt lat="39.833875" lon="16.2540217"><ele>479.0</ele><time>2026-05-03T10:58:22.885Z</time></trkpt><trkpt lat="39.83372" lon="16.2539233"><ele>479.0</ele><time>2026-05-03T10:58:23.885Z</time></trkpt><trkpt lat="39.83355" lon="16.253835"><ele>477.0</ele><time>2026-05-03T10:58:24.885Z</time></trkpt><trkpt lat="39.8333733" lon="16.25376"><ele>475.0</ele><time>2026-05-03T10:58:25.885Z</time></trkpt><trkpt lat="39.8331917" lon="16.253695"><ele>473.0</ele><time>2026-05-03T10:58:26.884Z</time></trkpt><trkpt lat="39.832995" lon="16.2536483"><ele>473.0</ele><time>2026-05-03T10:58:27.884Z</time></trkpt><trkpt lat="39.8328017" lon="16.2536233"><ele>473.0</ele><time>2026-05-03T10:58:28.885Z</time></trkpt><trkpt lat="39.8326167" lon="16.253615"><ele>473.0</ele><time>2026-05-03T10:58:29.884Z</time></trkpt><trkpt lat="39.8324417" lon="16.2536283"><ele>472.3333333333333</ele><time>2026-05-03T10:58:30.885Z</time></trkpt><trkpt lat="39.83227" lon="16.2536533"><ele>471.66666666666663</ele><time>2026-05-03T10:58:31.884Z</time></trkpt><trkpt lat="39.8321217" lon="16.2536767"><ele>471.0</ele><time>2026-05-03T10:58:32.885Z</time></trkpt><trkpt lat="39.83199" lon="16.2537083"><ele>471.0</ele><time>2026-05-03T10:58:33.884Z</time></trkpt><trkpt lat="39.831875" lon="16.2537467"><ele>471.0</ele><time>2026-05-03T10:58:34.885Z</time></trkpt><trkpt lat="39.8317667" lon="16.2537867"><ele>471.0</ele><time>2026-05-03T10:58:35.884Z</time></trkpt><trkpt lat="39.831675" lon="16.25382"><ele>471.0</ele><time>2026-05-03T10:58:36.885Z</time></trkpt><trkpt lat="39.8316017" lon="16.2538483"><ele>471.0</ele><time>2026-05-03T10:58:37.884Z</time></trkpt><trkpt lat="39.8315367" lon="16.2538733"><ele>471.0</ele><time>2026-05-03T10:58:38.885Z</time></trkpt><trkpt lat="39.8314383" lon="16.2539283"><ele>471.0</ele><time>2026-05-03T10:58:40.885Z</time></trkpt><trkpt lat="39.8313733" lon="16.2539883"><ele>471.0</ele><time>2026-05-03T10:58:42.885Z</time></trkpt><trkpt lat="39.831345" lon="16.2541167"><ele>471.0</ele><time>2026-05-03T10:58:49.885Z</time></trkpt><trkpt lat="39.8313683" lon="16.254215"><ele>471.0</ele><time>2026-05-03T10:58:50.885Z</time></trkpt><trkpt lat="39.83141" lon="16.25434"><ele>471.0</ele><time>2026-05-03T10:58:51.885Z</time></trkpt><trkpt lat="39.8314933" lon="16.254495"><ele>471.0</ele><time>2026-05-03T10:58:52.885Z</time></trkpt><trkpt lat="39.8316217" lon="16.2546783"><ele>471.0</ele><time>2026-05-03T10:58:53.884Z</time></trkpt><trkpt lat="39.8317533" lon="16.2548767"><ele>471.33333333333337</ele><time>2026-05-03T10:58:54.885Z</time></trkpt><trkpt lat="39.8318833" lon="16.2550833"><ele>471.6666666666667</ele><time>2026-05-03T10:58:55.884Z</time></trkpt><trkpt lat="39.8320067" lon="16.2552867"><ele>472.0</ele><time>2026-05-03T10:58:56.884Z</time></trkpt><trkpt lat="39.83211" lon="16.2554783"><ele>472.0</ele><time>2026-05-03T10:58:57.885Z</time></trkpt><trkpt lat="39.8321917" lon="16.25565"><ele>472.0</ele><time>2026-05-03T10:58:58.885Z</time></trkpt><trkpt lat="39.832255" lon="16.255805"><ele>472.0</ele><time>2026-05-03T10:58:59.885Z</time></trkpt><trkpt lat="39.8323083" lon="16.2559433"><ele>472.0</ele><time>2026-05-03T10:59:00.884Z</time></trkpt><trkpt lat="39.8323517" lon="16.2560817"><ele>472.0</ele><time>2026-05-03T10:59:01.885Z</time></trkpt><trkpt lat="39.8323917" lon="16.25622"><ele>472.0</ele><time>2026-05-03T10:59:02.885Z</time></trkpt><trkpt lat="39.8324267" lon="16.2563617"><ele>472.0</ele><time>2026-05-03T10:59:03.884Z</time></trkpt><trkpt lat="39.83244" lon="16.2565017"><ele>472.0</ele><time>2026-05-03T10:59:04.885Z</time></trkpt><trkpt lat="39.8324583" lon="16.2566567"><ele>471.75</ele><time>2026-05-03T10:59:05.884Z</time></trkpt><trkpt lat="39.8324633" lon="16.256815"><ele>471.5</ele><time>2026-05-03T10:59:06.885Z</time></trkpt><trkpt lat="39.83246" lon="16.256995"><ele>471.25</ele><time>2026-05-03T10:59:07.884Z</time></trkpt><trkpt lat="39.8324533" lon="16.2571983"><ele>471.0</ele><time>2026-05-03T10:59:08.884Z</time></trkpt><trkpt lat="39.8324417" lon="16.257405"><ele>471.66666666666663</ele><time>2026-05-03T10:59:09.885Z</time></trkpt><trkpt lat="39.83242" lon="16.2576267"><ele>472.3333333333333</ele><time>2026-05-03T10:59:10.885Z</time></trkpt><trkpt lat="39.8324033" lon="16.2578533"><ele>473.0</ele><time>2026-05-03T10:59:11.885Z</time></trkpt><trkpt lat="39.8323783" lon="16.258085"><ele>472.66666666666663</ele><time>2026-05-03T10:59:12.885Z</time></trkpt><trkpt lat="39.83236" lon="16.2583217"><ele>472.33333333333337</ele><time>2026-05-03T10:59:13.885Z</time></trkpt><trkpt lat="39.83234" lon="16.2585467"><ele>472.0</ele><time>2026-05-03T10:59:14.885Z</time></trkpt><trkpt lat="39.83232" lon="16.258755"><ele>472.0</ele><time>2026-05-03T10:59:15.885Z</time></trkpt><trkpt lat="39.8323017" lon="16.2589417"><ele>472.0</ele><time>2026-05-03T10:59:16.885Z</time></trkpt><trkpt lat="39.832285" lon="16.2591217"><ele>472.0</ele><time>2026-05-03T10:59:17.885Z</time></trkpt><trkpt lat="39.832265" lon="16.2593117"><ele>472.0</ele><time>2026-05-03T10:59:18.885Z</time></trkpt><trkpt lat="39.8322467" lon="16.259495"><ele>472.0</ele><time>2026-05-03T10:59:19.885Z</time></trkpt><trkpt lat="39.8322333" lon="16.2596833"><ele>472.0</ele><time>2026-05-03T10:59:20.884Z</time></trkpt><trkpt lat="39.8322183" lon="16.259865"><ele>472.0</ele><time>2026-05-03T10:59:21.885Z</time></trkpt><trkpt lat="39.83219" lon="16.2600567"><ele>472.0</ele><time>2026-05-03T10:59:22.885Z</time></trkpt><trkpt lat="39.8321667" lon="16.260245"><ele>472.0</ele><time>2026-05-03T10:59:23.885Z</time></trkpt><trkpt lat="39.8321417" lon="16.2604333"><ele>472.0</ele><time>2026-05-03T10:59:24.885Z</time></trkpt><trkpt lat="39.8321233" lon="16.2605883"><ele>472.0</ele><time>2026-05-03T10:59:25.885Z</time></trkpt><trkpt lat="39.8321067" lon="16.2607217"><ele>472.0</ele><time>2026-05-03T10:59:26.885Z</time></trkpt><trkpt lat="39.8320917" lon="16.26084"><ele>472.0</ele><time>2026-05-03T10:59:27.885Z</time></trkpt><trkpt lat="39.8320783" lon="16.260945"><ele>472.00000000000006</ele><time>2026-05-03T10:59:28.885Z</time></trkpt><trkpt lat="39.83206" lon="16.2610483"><ele>472.00000000000006</ele><time>2026-05-03T10:59:29.885Z</time></trkpt><trkpt lat="39.832055" lon="16.261165"><ele>472.0</ele><time>2026-05-03T10:59:30.885Z</time></trkpt><trkpt lat="39.8320567" lon="16.2612967"><ele>472.0</ele><time>2026-05-03T10:59:31.885Z</time></trkpt><trkpt lat="39.832065" lon="16.2614467"><ele>472.0</ele><time>2026-05-03T10:59:32.885Z</time></trkpt><trkpt lat="39.83207" lon="16.26161"><ele>472.0</ele><time>2026-05-03T10:59:33.884Z</time></trkpt><trkpt lat="39.8320867" lon="16.2617783"><ele>472.0</ele><time>2026-05-03T10:59:34.885Z</time></trkpt><trkpt lat="39.8321083" lon="16.2619533"><ele>472.0</ele><time>2026-05-03T10:59:35.885Z</time></trkpt><trkpt lat="39.8321317" lon="16.262125"><ele>470.6666666666667</ele><time>2026-05-03T10:59:36.885Z</time></trkpt><trkpt lat="39.83217" lon="16.2623033"><ele>469.33333333333337</ele><time>2026-05-03T10:59:37.885Z</time></trkpt><trkpt lat="39.8322283" lon="16.2624833"><ele>468.0</ele><time>2026-05-03T10:59:38.885Z</time></trkpt><trkpt lat="39.8323033" lon="16.26267"><ele>468.0</ele><time>2026-05-03T10:59:39.885Z</time></trkpt><trkpt lat="39.8323783" lon="16.2628633"><ele>468.0</ele><time>2026-05-03T10:59:40.885Z</time></trkpt><trkpt lat="39.8324567" lon="16.26306"><ele>468.0</ele><time>2026-05-03T10:59:41.885Z</time></trkpt><trkpt lat="39.832545" lon="16.2632567"><ele>468.0</ele><time>2026-05-03T10:59:42.885Z</time></trkpt><trkpt lat="39.832625" lon="16.263455"><ele>468.0</ele><time>2026-05-03T10:59:43.885Z</time></trkpt><trkpt lat="39.8327083" lon="16.2636517"><ele>468.0</ele><time>2026-05-03T10:59:44.885Z</time></trkpt><trkpt lat="39.8327983" lon="16.26384"><ele>466.66666666666663</ele><time>2026-05-03T10:59:45.884Z</time></trkpt><trkpt lat="39.8328817" lon="16.2640183"><ele>465.3333333333333</ele><time>2026-05-03T10:59:46.885Z</time></trkpt><trkpt lat="39.832955" lon="16.2641967"><ele>464.0</ele><time>2026-05-03T10:59:47.885Z</time></trkpt><trkpt lat="39.8330267" lon="16.2643767"><ele>464.0</ele><time>2026-05-03T10:59:48.884Z</time></trkpt><trkpt lat="39.8330983" lon="16.26456"><ele>464.0</ele><time>2026-05-03T10:59:49.885Z</time></trkpt><trkpt lat="39.8331717" lon="16.2647433"><ele>464.0</ele><time>2026-05-03T10:59:50.885Z</time></trkpt><trkpt lat="39.8332567" lon="16.2649283"><ele>464.0</ele><time>2026-05-03T10:59:51.885Z</time></trkpt><trkpt lat="39.833335" lon="16.265115"><ele>464.0</ele><time>2026-05-03T10:59:52.885Z</time></trkpt><trkpt lat="39.833415" lon="16.265305"><ele>464.0</ele><time>2026-05-03T10:59:53.885Z</time></trkpt><trkpt lat="39.8334917" lon="16.2655"><ele>462.3333333333333</ele><time>2026-05-03T10:59:54.885Z</time></trkpt><trkpt lat="39.83357" lon="16.26569"><ele>460.66666666666663</ele><time>2026-05-03T10:59:55.884Z</time></trkpt><trkpt lat="39.83365" lon="16.2658783"><ele>459.0</ele><time>2026-05-03T10:59:56.885Z</time></trkpt><trkpt lat="39.8337317" lon="16.266065"><ele>459.0</ele><time>2026-05-03T10:59:57.885Z</time></trkpt><trkpt lat="39.8338017" lon="16.266255"><ele>459.0</ele><time>2026-05-03T10:59:58.885Z</time></trkpt><trkpt lat="39.8338733" lon="16.2664383"><ele>459.0</ele><time>2026-05-03T10:59:59.884Z</time></trkpt><trkpt lat="39.833945" lon="16.266625"><ele>458.0</ele><time>2026-05-03T11:00:00.885Z</time></trkpt><trkpt lat="39.834" lon="16.2668133"><ele>457.0</ele><time>2026-05-03T11:00:01.885Z</time></trkpt><trkpt lat="39.8340483" lon="16.2670067"><ele>456.0</ele><time>2026-05-03T11:00:02.885Z</time></trkpt><trkpt lat="39.8340833" lon="16.2672133"><ele>454.33333333333337</ele><time>2026-05-03T11:00:03.885Z</time></trkpt><trkpt lat="39.8341067" lon="16.26744"><ele>452.6666666666667</ele><time>2026-05-03T11:00:04.885Z</time></trkpt><trkpt lat="39.8341017" lon="16.2676667"><ele>451.0</ele><time>2026-05-03T11:00:05.885Z</time></trkpt><trkpt lat="39.83409" lon="16.2679"><ele>449.0</ele><time>2026-05-03T11:00:06.884Z</time></trkpt><trkpt lat="39.8340667" lon="16.268125"><ele>447.0</ele><time>2026-05-03T11:00:07.884Z</time></trkpt><trkpt lat="39.8340183" lon="16.268355"><ele>445.0</ele><time>2026-05-03T11:00:08.884Z</time></trkpt><trkpt lat="39.8339567" lon="16.268585"><ele>445.0</ele><time>2026-05-03T11:00:09.884Z</time></trkpt><trkpt lat="39.8338767" lon="16.2688083"><ele>445.0</ele><time>2026-05-03T11:00:10.885Z</time></trkpt><trkpt lat="39.8337933" lon="16.26904"><ele>445.0</ele><time>2026-05-03T11:00:11.885Z</time></trkpt><trkpt lat="39.8337133" lon="16.2692633"><ele>446.0</ele><time>2026-05-03T11:00:12.885Z</time></trkpt><trkpt lat="39.8336317" lon="16.2694767"><ele>447.0</ele><time>2026-05-03T11:00:13.884Z</time></trkpt><trkpt lat="39.8335383" lon="16.2697083"><ele>448.0</ele><time>2026-05-03T11:00:14.885Z</time></trkpt><trkpt lat="39.8334667" lon="16.2699467"><ele>448.0</ele><time>2026-05-03T11:00:15.885Z</time></trkpt><trkpt lat="39.833385" lon="16.2701917"><ele>448.0</ele><time>2026-05-03T11:00:16.885Z</time></trkpt><trkpt lat="39.8332967" lon="16.2704317"><ele>448.0</ele><time>2026-05-03T11:00:17.884Z</time></trkpt><trkpt lat="39.8332117" lon="16.270665"><ele>450.0</ele><time>2026-05-03T11:00:18.884Z</time></trkpt><trkpt lat="39.8331283" lon="16.2708983"><ele>452.0</ele><time>2026-05-03T11:00:19.885Z</time></trkpt><trkpt lat="39.8330533" lon="16.27112"><ele>454.0</ele><time>2026-05-03T11:00:20.884Z</time></trkpt><trkpt lat="39.8329667" lon="16.2713367"><ele>455.0</ele><time>2026-05-03T11:00:21.885Z</time></trkpt><trkpt lat="39.8328833" lon="16.2715633"><ele>456.0</ele><time>2026-05-03T11:00:22.885Z</time></trkpt><trkpt lat="39.8328083" lon="16.27178"><ele>457.0</ele><time>2026-05-03T11:00:23.885Z</time></trkpt><trkpt lat="39.8327333" lon="16.2719917"><ele>457.0</ele><time>2026-05-03T11:00:24.885Z</time></trkpt><trkpt lat="39.8326633" lon="16.27221"><ele>457.0</ele><time>2026-05-03T11:00:25.885Z</time></trkpt><trkpt lat="39.8325833" lon="16.2724117"><ele>457.0</ele><time>2026-05-03T11:00:26.884Z</time></trkpt><trkpt lat="39.8324933" lon="16.27262"><ele>454.33333333333337</ele><time>2026-05-03T11:00:27.885Z</time></trkpt><trkpt lat="39.83242" lon="16.2728233"><ele>451.66666666666663</ele><time>2026-05-03T11:00:28.885Z</time></trkpt><trkpt lat="39.83235" lon="16.2730283"><ele>449.0</ele><time>2026-05-03T11:00:29.884Z</time></trkpt><trkpt lat="39.832275" lon="16.2732383"><ele>449.0</ele><time>2026-05-03T11:00:30.885Z</time></trkpt><trkpt lat="39.8321983" lon="16.2734533"><ele>449.0</ele><time>2026-05-03T11:00:31.885Z</time></trkpt><trkpt lat="39.8321183" lon="16.2736517"><ele>449.0</ele><time>2026-05-03T11:00:32.884Z</time></trkpt><trkpt lat="39.8320483" lon="16.273845"><ele>450.3333333333333</ele><time>2026-05-03T11:00:33.885Z</time></trkpt><trkpt lat="39.8319717" lon="16.2740617"><ele>451.66666666666663</ele><time>2026-05-03T11:00:34.885Z</time></trkpt><trkpt lat="39.8318883" lon="16.27427"><ele>453.0</ele><time>2026-05-03T11:00:35.885Z</time></trkpt><trkpt lat="39.8318083" lon="16.2744817"><ele>448.33333333333337</ele><time>2026-05-03T11:00:36.885Z</time></trkpt><trkpt lat="39.8317317" lon="16.27469"><ele>443.6666666666667</ele><time>2026-05-03T11:00:37.885Z</time></trkpt><trkpt lat="39.8316533" lon="16.27491"><ele>439.0</ele><time>2026-05-03T11:00:38.885Z</time></trkpt><trkpt lat="39.8315867" lon="16.2751383"><ele>439.0</ele><time>2026-05-03T11:00:39.885Z</time></trkpt><trkpt lat="39.8315117" lon="16.2753733"><ele>439.0</ele><time>2026-05-03T11:00:40.885Z</time></trkpt><trkpt lat="39.8314383" lon="16.275605"><ele>439.0</ele><time>2026-05-03T11:00:41.885Z</time></trkpt><trkpt lat="39.8313683" lon="16.2758017"><ele>441.6666666666667</ele><time>2026-05-03T11:00:42.884Z</time></trkpt><trkpt lat="39.831285" lon="16.276005"><ele>444.33333333333337</ele><time>2026-05-03T11:00:43.885Z</time></trkpt><trkpt lat="39.8311833" lon="16.276195"><ele>447.0</ele><time>2026-05-03T11:00:44.885Z</time></trkpt><trkpt lat="39.831075" lon="16.2763733"><ele>445.0</ele><time>2026-05-03T11:00:45.885Z</time></trkpt><trkpt lat="39.830955" lon="16.2765517"><ele>443.0</ele><time>2026-05-03T11:00:46.885Z</time></trkpt><trkpt lat="39.830825" lon="16.2767183"><ele>441.0</ele><time>2026-05-03T11:00:47.885Z</time></trkpt><trkpt lat="39.8306767" lon="16.27687"><ele>441.0</ele><time>2026-05-03T11:00:48.885Z</time></trkpt><trkpt lat="39.8305283" lon="16.2770233"><ele>441.0</ele><time>2026-05-03T11:00:49.885Z</time></trkpt><trkpt lat="39.8303817" lon="16.2771833"><ele>441.0</ele><time>2026-05-03T11:00:50.884Z</time></trkpt><trkpt lat="39.8302333" lon="16.2773417"><ele>441.66666666666663</ele><time>2026-05-03T11:00:51.885Z</time></trkpt><trkpt lat="39.8300883" lon="16.2775017"><ele>442.3333333333333</ele><time>2026-05-03T11:00:52.885Z</time></trkpt><trkpt lat="39.8299583" lon="16.27766"><ele>443.0</ele><time>2026-05-03T11:00:53.885Z</time></trkpt><trkpt lat="39.829825" lon="16.2778233"><ele>443.0</ele><time>2026-05-03T11:00:54.885Z</time></trkpt><trkpt lat="39.8296783" lon="16.277995"><ele>443.0</ele><time>2026-05-03T11:00:55.885Z</time></trkpt><trkpt lat="39.82953" lon="16.2781333"><ele>443.0</ele><time>2026-05-03T11:00:56.885Z</time></trkpt><trkpt lat="39.829385" lon="16.278295"><ele>441.66666666666663</ele><time>2026-05-03T11:00:57.885Z</time></trkpt><trkpt lat="39.829235" lon="16.27845"><ele>440.33333333333337</ele><time>2026-05-03T11:00:58.885Z</time></trkpt><trkpt lat="39.829085" lon="16.2785917"><ele>439.0</ele><time>2026-05-03T11:00:59.884Z</time></trkpt><trkpt lat="39.8289483" lon="16.2787333"><ele>439.0</ele><time>2026-05-03T11:01:00.884Z</time></trkpt><trkpt lat="39.8288033" lon="16.2788817"><ele>439.0</ele><time>2026-05-03T11:01:01.885Z</time></trkpt><trkpt lat="39.8286583" lon="16.279015"><ele>439.0</ele><time>2026-05-03T11:01:02.885Z</time></trkpt><trkpt lat="39.828505" lon="16.2791267"><ele>440.0</ele><time>2026-05-03T11:01:03.885Z</time></trkpt><trkpt lat="39.828345" lon="16.279225"><ele>441.0</ele><time>2026-05-03T11:01:04.885Z</time></trkpt><trkpt lat="39.828185" lon="16.279295"><ele>442.0</ele><time>2026-05-03T11:01:05.885Z</time></trkpt><trkpt lat="39.8280267" lon="16.2793717"><ele>442.0</ele><time>2026-05-03T11:01:06.884Z</time></trkpt><trkpt lat="39.8278917" lon="16.2794217"><ele>442.0</ele><time>2026-05-03T11:01:07.885Z</time></trkpt><trkpt lat="39.8277617" lon="16.2794683"><ele>442.0</ele><time>2026-05-03T11:01:08.885Z</time></trkpt><trkpt lat="39.827635" lon="16.2795133"><ele>442.0</ele><time>2026-05-03T11:01:09.885Z</time></trkpt><trkpt lat="39.82751" lon="16.2795983"><ele>442.0</ele><time>2026-05-03T11:01:10.885Z</time></trkpt><trkpt lat="39.8274017" lon="16.279705"><ele>442.0</ele><time>2026-05-03T11:01:11.885Z</time></trkpt><trkpt lat="39.8272983" lon="16.2798233"><ele>442.0</ele><time>2026-05-03T11:01:12.885Z</time></trkpt><trkpt lat="39.8272033" lon="16.2799567"><ele>442.0</ele><time>2026-05-03T11:01:13.884Z</time></trkpt><trkpt lat="39.8271183" lon="16.2800917"><ele>442.0</ele><time>2026-05-03T11:01:14.885Z</time></trkpt><trkpt lat="39.82705" lon="16.2802317"><ele>442.0</ele><time>2026-05-03T11:01:15.885Z</time></trkpt><trkpt lat="39.82699" lon="16.28038"><ele>442.0</ele><time>2026-05-03T11:01:16.885Z</time></trkpt><trkpt lat="39.8269283" lon="16.2805183"><ele>442.0</ele><time>2026-05-03T11:01:17.885Z</time></trkpt><trkpt lat="39.8268867" lon="16.2806517"><ele>443.0</ele><time>2026-05-03T11:01:18.885Z</time></trkpt><trkpt lat="39.8268467" lon="16.2807817"><ele>444.00000000000006</ele><time>2026-05-03T11:01:19.885Z</time></trkpt><trkpt lat="39.8268067" lon="16.28091"><ele>445.00000000000006</ele><time>2026-05-03T11:01:20.885Z</time></trkpt><trkpt lat="39.826755" lon="16.28104"><ele>446.0</ele><time>2026-05-03T11:01:21.885Z</time></trkpt><trkpt lat="39.8266967" lon="16.28117"><ele>447.0</ele><time>2026-05-03T11:01:22.885Z</time></trkpt><trkpt lat="39.8266167" lon="16.281305"><ele>444.33333333333337</ele><time>2026-05-03T11:01:23.885Z</time></trkpt><trkpt lat="39.826515" lon="16.281445"><ele>441.6666666666667</ele><time>2026-05-03T11:01:24.885Z</time></trkpt><trkpt lat="39.8264" lon="16.2815967"><ele>439.0</ele><time>2026-05-03T11:01:25.885Z</time></trkpt><trkpt lat="39.826275" lon="16.281775"><ele>439.0</ele><time>2026-05-03T11:01:26.885Z</time></trkpt><trkpt lat="39.8261267" lon="16.2819667"><ele>439.0</ele><time>2026-05-03T11:01:27.885Z</time></trkpt><trkpt lat="39.8259783" lon="16.282185"><ele>439.0</ele><time>2026-05-03T11:01:28.885Z</time></trkpt><trkpt lat="39.825835" lon="16.2824017"><ele>436.0</ele><time>2026-05-03T11:01:29.884Z</time></trkpt><trkpt lat="39.8256983" lon="16.2826017"><ele>433.0</ele><time>2026-05-03T11:01:30.884Z</time></trkpt><trkpt lat="39.8255567" lon="16.28278"><ele>430.0</ele><time>2026-05-03T11:01:31.885Z</time></trkpt><trkpt lat="39.8254183" lon="16.28295"><ele>427.33333333333337</ele><time>2026-05-03T11:01:32.884Z</time></trkpt><trkpt lat="39.82529" lon="16.2831317"><ele>424.66666666666663</ele><time>2026-05-03T11:01:33.884Z</time></trkpt><trkpt lat="39.82516" lon="16.28331"><ele>422.0</ele><time>2026-05-03T11:01:34.885Z</time></trkpt><trkpt lat="39.82504" lon="16.283505"><ele>422.0</ele><time>2026-05-03T11:01:35.885Z</time></trkpt><trkpt lat="39.8249133" lon="16.2837033"><ele>422.0</ele><time>2026-05-03T11:01:36.885Z</time></trkpt><trkpt lat="39.8247867" lon="16.2839083"><ele>422.0</ele><time>2026-05-03T11:01:37.885Z</time></trkpt><trkpt lat="39.82467" lon="16.2840883"><ele>424.66666666666663</ele><time>2026-05-03T11:01:38.884Z</time></trkpt><trkpt lat="39.8245617" lon="16.284255"><ele>427.33333333333337</ele><time>2026-05-03T11:01:39.884Z</time></trkpt><trkpt lat="39.8244517" lon="16.2844367"><ele>430.0</ele><time>2026-05-03T11:01:40.885Z</time></trkpt><trkpt lat="39.8243333" lon="16.2846083"><ele>426.0</ele><time>2026-05-03T11:01:41.885Z</time></trkpt><trkpt lat="39.824225" lon="16.28479"><ele>422.0</ele><time>2026-05-03T11:01:42.885Z</time></trkpt><trkpt lat="39.8241167" lon="16.2849817"><ele>418.0</ele><time>2026-05-03T11:01:43.885Z</time></trkpt><trkpt lat="39.8240033" lon="16.2851817"><ele>418.0</ele><time>2026-05-03T11:01:44.885Z</time></trkpt><trkpt lat="39.823905" lon="16.2853933"><ele>418.0</ele><time>2026-05-03T11:01:45.884Z</time></trkpt><trkpt lat="39.82381" lon="16.2856033"><ele>418.0</ele><time>2026-05-03T11:01:46.885Z</time></trkpt><trkpt lat="39.8237033" lon="16.2858217"><ele>419.0</ele><time>2026-05-03T11:01:47.885Z</time></trkpt><trkpt lat="39.8235967" lon="16.2860517"><ele>420.0</ele><time>2026-05-03T11:01:48.884Z</time></trkpt><trkpt lat="39.8235067" lon="16.2862833"><ele>421.0</ele><time>2026-05-03T11:01:49.885Z</time></trkpt><trkpt lat="39.8234133" lon="16.286505"><ele>416.33333333333337</ele><time>2026-05-03T11:01:50.884Z</time></trkpt><trkpt lat="39.8233183" lon="16.2867333"><ele>411.66666666666663</ele><time>2026-05-03T11:01:51.885Z</time></trkpt><trkpt lat="39.8232167" lon="16.286945"><ele>407.0</ele><time>2026-05-03T11:01:52.884Z</time></trkpt><trkpt lat="39.8231233" lon="16.2871533"><ele>408.0</ele><time>2026-05-03T11:01:53.885Z</time></trkpt><trkpt lat="39.8230333" lon="16.2873333"><ele>409.0</ele><time>2026-05-03T11:01:54.885Z</time></trkpt><trkpt lat="39.8229517" lon="16.2875183"><ele>410.0</ele><time>2026-05-03T11:01:55.885Z</time></trkpt><trkpt lat="39.8228833" lon="16.2876883"><ele>410.0</ele><time>2026-05-03T11:01:56.884Z</time></trkpt><trkpt lat="39.8228283" lon="16.2878633"><ele>410.0</ele><time>2026-05-03T11:01:57.884Z</time></trkpt><trkpt lat="39.82278" lon="16.2880367"><ele>410.0</ele><time>2026-05-03T11:01:58.885Z</time></trkpt><trkpt lat="39.8227567" lon="16.2882167"><ele>410.0</ele><time>2026-05-03T11:01:59.884Z</time></trkpt><trkpt lat="39.8227483" lon="16.2884133"><ele>411.3333333333333</ele><time>2026-05-03T11:02:00.885Z</time></trkpt><trkpt lat="39.822745" lon="16.2886117"><ele>412.66666666666663</ele><time>2026-05-03T11:02:01.885Z</time></trkpt><trkpt lat="39.822745" lon="16.28882"><ele>414.0</ele><time>2026-05-03T11:02:02.885Z</time></trkpt><trkpt lat="39.822745" lon="16.28902"><ele>414.66666666666663</ele><time>2026-05-03T11:02:03.885Z</time></trkpt><trkpt lat="39.8227483" lon="16.289225"><ele>415.3333333333333</ele><time>2026-05-03T11:02:04.885Z</time></trkpt><trkpt lat="39.8227517" lon="16.2894383"><ele>416.0</ele><time>2026-05-03T11:02:05.885Z</time></trkpt><trkpt lat="39.8227533" lon="16.2896583"><ele>417.3333333333333</ele><time>2026-05-03T11:02:06.885Z</time></trkpt><trkpt lat="39.8227483" lon="16.28988"><ele>418.66666666666663</ele><time>2026-05-03T11:02:07.884Z</time></trkpt><trkpt lat="39.822735" lon="16.29009"><ele>420.0</ele><time>2026-05-03T11:02:08.885Z</time></trkpt><trkpt lat="39.82271" lon="16.2902783"><ele>420.0</ele><time>2026-05-03T11:02:09.885Z</time></trkpt><trkpt lat="39.8226583" lon="16.290425"><ele>420.0</ele><time>2026-05-03T11:02:10.885Z</time></trkpt><trkpt lat="39.8225767" lon="16.2905483"><ele>420.0</ele><time>2026-05-03T11:02:11.885Z</time></trkpt><trkpt lat="39.822465" lon="16.29063"><ele>420.0</ele><time>2026-05-03T11:02:12.884Z</time></trkpt><trkpt lat="39.82235" lon="16.2906933"><ele>416.75</ele><time>2026-05-03T11:02:13.885Z</time></trkpt><trkpt lat="39.8222417" lon="16.29078"><ele>413.5</ele><time>2026-05-03T11:02:14.885Z</time></trkpt><trkpt lat="39.822165" lon="16.2909183"><ele>410.25</ele><time>2026-05-03T11:02:15.885Z</time></trkpt><trkpt lat="39.822115" lon="16.2910717"><ele>407.0</ele><time>2026-05-03T11:02:16.885Z</time></trkpt><trkpt lat="39.82211" lon="16.2912567"><ele>407.3333333333333</ele><time>2026-05-03T11:02:17.884Z</time></trkpt><trkpt lat="39.8221117" lon="16.2914517"><ele>407.66666666666663</ele><time>2026-05-03T11:02:18.884Z</time></trkpt><trkpt lat="39.8221267" lon="16.2916517"><ele>408.0</ele><time>2026-05-03T11:02:19.884Z</time></trkpt><trkpt lat="39.8221467" lon="16.2918667"><ele>408.0</ele><time>2026-05-03T11:02:20.885Z</time></trkpt><trkpt lat="39.82215" lon="16.292085"><ele>408.0</ele><time>2026-05-03T11:02:21.885Z</time></trkpt><trkpt lat="39.8221317" lon="16.2923033"><ele>408.0</ele><time>2026-05-03T11:02:22.885Z</time></trkpt><trkpt lat="39.8220817" lon="16.2925083"><ele>408.33333333333337</ele><time>2026-05-03T11:02:23.885Z</time></trkpt><trkpt lat="39.82201" lon="16.2927133"><ele>408.6666666666667</ele><time>2026-05-03T11:02:24.885Z</time></trkpt><trkpt lat="39.82193" lon="16.292915"><ele>409.0</ele><time>2026-05-03T11:02:25.885Z</time></trkpt><trkpt lat="39.8218517" lon="16.2931233"><ele>405.0</ele><time>2026-05-03T11:02:26.884Z</time></trkpt><trkpt lat="39.8217683" lon="16.29335"><ele>401.0</ele><time>2026-05-03T11:02:27.885Z</time></trkpt><trkpt lat="39.8216833" lon="16.2935617"><ele>397.0</ele><time>2026-05-03T11:02:28.885Z</time></trkpt><trkpt lat="39.8216017" lon="16.2937617"><ele>399.0</ele><time>2026-05-03T11:02:29.884Z</time></trkpt><trkpt lat="39.8215333" lon="16.2939617"><ele>401.0</ele><time>2026-05-03T11:02:30.884Z</time></trkpt><trkpt lat="39.821455" lon="16.2941267"><ele>403.0</ele><time>2026-05-03T11:02:31.885Z</time></trkpt><trkpt lat="39.8213917" lon="16.2942883"><ele>403.0</ele><time>2026-05-03T11:02:32.885Z</time></trkpt><trkpt lat="39.82134" lon="16.2944483"><ele>403.0</ele><time>2026-05-03T11:02:33.885Z</time></trkpt><trkpt lat="39.8213067" lon="16.29462"><ele>403.0</ele><time>2026-05-03T11:02:34.884Z</time></trkpt><trkpt lat="39.8212933" lon="16.2948117"><ele>403.0</ele><time>2026-05-03T11:02:35.885Z</time></trkpt><trkpt lat="39.821295" lon="16.2950033"><ele>404.25</ele><time>2026-05-03T11:02:36.885Z</time></trkpt><trkpt lat="39.8212983" lon="16.2951833"><ele>405.5</ele><time>2026-05-03T11:02:37.885Z</time></trkpt><trkpt lat="39.8212967" lon="16.2953633"><ele>406.75</ele><time>2026-05-03T11:02:38.885Z</time></trkpt><trkpt lat="39.8212883" lon="16.2955467"><ele>408.0</ele><time>2026-05-03T11:02:39.885Z</time></trkpt><trkpt lat="39.8212667" lon="16.2957167"><ele>408.75</ele><time>2026-05-03T11:02:40.884Z</time></trkpt><trkpt lat="39.82123" lon="16.2958883"><ele>409.5</ele><time>2026-05-03T11:02:41.885Z</time></trkpt><trkpt lat="39.8211817" lon="16.2960683"><ele>410.25</ele><time>2026-05-03T11:02:42.885Z</time></trkpt><trkpt lat="39.8211533" lon="16.296255"><ele>411.0</ele><time>2026-05-03T11:02:43.885Z</time></trkpt><trkpt lat="39.8211433" lon="16.2964533"><ele>411.66666666666663</ele><time>2026-05-03T11:02:44.885Z</time></trkpt><trkpt lat="39.821135" lon="16.2966533"><ele>412.3333333333333</ele><time>2026-05-03T11:02:45.884Z</time></trkpt><trkpt lat="39.8211383" lon="16.2968633"><ele>413.0</ele><time>2026-05-03T11:02:46.884Z</time></trkpt><trkpt lat="39.8211483" lon="16.2970817"><ele>413.3333333333333</ele><time>2026-05-03T11:02:47.885Z</time></trkpt><trkpt lat="39.821165" lon="16.297305"><ele>413.66666666666663</ele><time>2026-05-03T11:02:48.885Z</time></trkpt><trkpt lat="39.8211867" lon="16.29753"><ele>414.0</ele><time>2026-05-03T11:02:49.884Z</time></trkpt><trkpt lat="39.8212183" lon="16.2977533"><ele>414.0</ele><time>2026-05-03T11:02:50.885Z</time></trkpt><trkpt lat="39.8212517" lon="16.2979833"><ele>414.0</ele><time>2026-05-03T11:02:51.885Z</time></trkpt><trkpt lat="39.82128" lon="16.29822"><ele>414.0</ele><time>2026-05-03T11:02:52.885Z</time></trkpt><trkpt lat="39.8212983" lon="16.2984467"><ele>415.0</ele><time>2026-05-03T11:02:53.885Z</time></trkpt><trkpt lat="39.8212983" lon="16.2986667"><ele>416.0</ele><time>2026-05-03T11:02:54.884Z</time></trkpt><trkpt lat="39.8212883" lon="16.2988833"><ele>417.0</ele><time>2026-05-03T11:02:55.885Z</time></trkpt><trkpt lat="39.8212617" lon="16.2991083"><ele>418.0</ele><time>2026-05-03T11:02:56.884Z</time></trkpt><trkpt lat="39.8212133" lon="16.299325"><ele>419.0</ele><time>2026-05-03T11:02:57.884Z</time></trkpt><trkpt lat="39.8211633" lon="16.2995533"><ele>420.0</ele><time>2026-05-03T11:02:58.885Z</time></trkpt><trkpt lat="39.8211167" lon="16.29978"><ele>421.33333333333337</ele><time>2026-05-03T11:02:59.885Z</time></trkpt><trkpt lat="39.8210733" lon="16.3000117"><ele>422.6666666666667</ele><time>2026-05-03T11:03:00.884Z</time></trkpt><trkpt lat="39.8210333" lon="16.3002383"><ele>424.0</ele><time>2026-05-03T11:03:01.885Z</time></trkpt><trkpt lat="39.82099" lon="16.3004383"><ele>412.33333333333337</ele><time>2026-05-03T11:03:02.884Z</time></trkpt><trkpt lat="39.82096" lon="16.3006333"><ele>400.66666666666663</ele><time>2026-05-03T11:03:03.885Z</time></trkpt><trkpt lat="39.82096" lon="16.300835"><ele>389.0</ele><time>2026-05-03T11:03:04.885Z</time></trkpt><trkpt lat="39.8209783" lon="16.301045"><ele>393.0</ele><time>2026-05-03T11:03:05.884Z</time></trkpt><trkpt lat="39.8210333" lon="16.301225"><ele>397.0</ele><time>2026-05-03T11:03:06.885Z</time></trkpt><trkpt lat="39.8211283" lon="16.3013833"><ele>401.0</ele><time>2026-05-03T11:03:07.885Z</time></trkpt><trkpt lat="39.8212333" lon="16.3015117"><ele>405.0</ele><time>2026-05-03T11:03:08.885Z</time></trkpt><trkpt lat="39.8213283" lon="16.301625"><ele>405.0</ele><time>2026-05-03T11:03:09.885Z</time></trkpt><trkpt lat="39.8214217" lon="16.3017217"><ele>405.0</ele><time>2026-05-03T11:03:10.885Z</time></trkpt><trkpt lat="39.8215233" lon="16.3018067"><ele>405.0</ele><time>2026-05-03T11:03:11.884Z</time></trkpt><trkpt lat="39.8216" lon="16.3019183"><ele>405.0</ele><time>2026-05-03T11:03:12.884Z</time></trkpt><trkpt lat="39.8216533" lon="16.3020467"><ele>405.0</ele><time>2026-05-03T11:03:13.885Z</time></trkpt><trkpt lat="39.8216717" lon="16.30219"><ele>405.0</ele><time>2026-05-03T11:03:14.885Z</time></trkpt><trkpt lat="39.821675" lon="16.30233"><ele>405.0</ele><time>2026-05-03T11:03:15.885Z</time></trkpt><trkpt lat="39.8216633" lon="16.3024733"><ele>405.0</ele><time>2026-05-03T11:03:16.885Z</time></trkpt><trkpt lat="39.821645" lon="16.3026217"><ele>405.0</ele><time>2026-05-03T11:03:17.885Z</time></trkpt><trkpt lat="39.8216317" lon="16.3027717"><ele>404.75</ele><time>2026-05-03T11:03:18.885Z</time></trkpt><trkpt lat="39.8216283" lon="16.3029383"><ele>404.5</ele><time>2026-05-03T11:03:19.885Z</time></trkpt><trkpt lat="39.8216183" lon="16.30311"><ele>404.25</ele><time>2026-05-03T11:03:20.884Z</time></trkpt><trkpt lat="39.8215917" lon="16.3032833"><ele>404.0</ele><time>2026-05-03T11:03:21.885Z</time></trkpt><trkpt lat="39.8215433" lon="16.3034417"><ele>404.0</ele><time>2026-05-03T11:03:22.885Z</time></trkpt><trkpt lat="39.8214717" lon="16.3036"><ele>404.0</ele><time>2026-05-03T11:03:23.885Z</time></trkpt><trkpt lat="39.8213833" lon="16.3037483"><ele>404.0</ele><time>2026-05-03T11:03:24.885Z</time></trkpt><trkpt lat="39.821285" lon="16.3038867"><ele>404.0</ele><time>2026-05-03T11:03:25.885Z</time></trkpt><trkpt lat="39.8211817" lon="16.3040217"><ele>406.0</ele><time>2026-05-03T11:03:26.885Z</time></trkpt><trkpt lat="39.8210767" lon="16.3041567"><ele>408.0</ele><time>2026-05-03T11:03:27.884Z</time></trkpt><trkpt lat="39.8209783" lon="16.3042967"><ele>410.0</ele><time>2026-05-03T11:03:28.885Z</time></trkpt><trkpt lat="39.820875" lon="16.3044283"><ele>412.0</ele><time>2026-05-03T11:03:29.885Z</time></trkpt><trkpt lat="39.8207867" lon="16.3045467"><ele>408.6</ele><time>2026-05-03T11:03:30.885Z</time></trkpt><trkpt lat="39.82072" lon="16.3046617"><ele>405.20000000000005</ele><time>2026-05-03T11:03:31.885Z</time></trkpt><trkpt lat="39.8206833" lon="16.3047867"><ele>401.8</ele><time>2026-05-03T11:03:32.885Z</time></trkpt><trkpt lat="39.8206667" lon="16.3049267"><ele>398.4</ele><time>2026-05-03T11:03:33.884Z</time></trkpt><trkpt lat="39.8206683" lon="16.305065"><ele>395.0</ele><time>2026-05-03T11:03:34.884Z</time></trkpt><trkpt lat="39.8206883" lon="16.305205"><ele>395.0</ele><time>2026-05-03T11:03:35.885Z</time></trkpt><trkpt lat="39.820725" lon="16.3053433"><ele>395.0</ele><time>2026-05-03T11:03:36.885Z</time></trkpt><trkpt lat="39.82077" lon="16.3054783"><ele>395.0</ele><time>2026-05-03T11:03:37.885Z</time></trkpt><trkpt lat="39.8208117" lon="16.305615"><ele>395.0</ele><time>2026-05-03T11:03:38.885Z</time></trkpt><trkpt lat="39.8208467" lon="16.3057433"><ele>395.0</ele><time>2026-05-03T11:03:39.885Z</time></trkpt><trkpt lat="39.8208633" lon="16.305875"><ele>395.5</ele><time>2026-05-03T11:03:40.885Z</time></trkpt><trkpt lat="39.8208667" lon="16.30602"><ele>396.0</ele><time>2026-05-03T11:03:41.884Z</time></trkpt><trkpt lat="39.8208517" lon="16.30616"><ele>396.5</ele><time>2026-05-03T11:03:42.885Z</time></trkpt><trkpt lat="39.8208083" lon="16.3063033"><ele>397.0</ele><time>2026-05-03T11:03:43.884Z</time></trkpt><trkpt lat="39.820755" lon="16.3064383"><ele>398.8</ele><time>2026-05-03T11:03:44.885Z</time></trkpt><trkpt lat="39.820685" lon="16.3065517"><ele>400.6</ele><time>2026-05-03T11:03:45.884Z</time></trkpt><trkpt lat="39.8206067" lon="16.3066617"><ele>402.40000000000003</ele><time>2026-05-03T11:03:46.885Z</time></trkpt><trkpt lat="39.8205333" lon="16.3067617"><ele>404.20000000000005</ele><time>2026-05-03T11:03:47.885Z</time></trkpt><trkpt lat="39.8204567" lon="16.3068483"><ele>406.0</ele><time>2026-05-03T11:03:48.885Z</time></trkpt><trkpt lat="39.82037" lon="16.3069333"><ele>406.00000000000006</ele><time>2026-05-03T11:03:49.884Z</time></trkpt><trkpt lat="39.8202917" lon="16.3070017"><ele>406.0</ele><time>2026-05-03T11:03:50.885Z</time></trkpt><trkpt lat="39.8202133" lon="16.30706"><ele>406.0</ele><time>2026-05-03T11:03:51.885Z</time></trkpt><trkpt lat="39.8201383" lon="16.3071183"><ele>406.0</ele><time>2026-05-03T11:03:52.885Z</time></trkpt><trkpt lat="39.8200767" lon="16.3071683"><ele>406.00000000000006</ele><time>2026-05-03T11:03:53.884Z</time></trkpt><trkpt lat="39.8200217" lon="16.3072233"><ele>406.0</ele><time>2026-05-03T11:03:54.885Z</time></trkpt><trkpt lat="39.8199517" lon="16.3073517"><ele>403.4</ele><time>2026-05-03T11:03:56.885Z</time></trkpt><trkpt lat="39.8199333" lon="16.3074483"><ele>400.8</ele><time>2026-05-03T11:03:57.885Z</time></trkpt><trkpt lat="39.8199033" lon="16.307545"><ele>398.2</ele><time>2026-05-03T11:03:58.885Z</time></trkpt><trkpt lat="39.819855" lon="16.307655"><ele>395.59999999999997</ele><time>2026-05-03T11:03:59.884Z</time></trkpt><trkpt lat="39.8197767" lon="16.30777"><ele>393.0</ele><time>2026-05-03T11:04:00.885Z</time></trkpt><trkpt lat="39.8196867" lon="16.30788"><ele>393.0</ele><time>2026-05-03T11:04:01.884Z</time></trkpt><trkpt lat="39.81961" lon="16.3079833"><ele>393.0</ele><time>2026-05-03T11:04:02.885Z</time></trkpt><trkpt lat="39.8195483" lon="16.3080817"><ele>393.0</ele><time>2026-05-03T11:04:03.885Z</time></trkpt><trkpt lat="39.81949" lon="16.3081867"><ele>393.0</ele><time>2026-05-03T11:04:04.885Z</time></trkpt><trkpt lat="39.8194483" lon="16.3083267"><ele>393.0</ele><time>2026-05-03T11:04:05.885Z</time></trkpt><trkpt lat="39.8194267" lon="16.30848"><ele>395.75</ele><time>2026-05-03T11:04:06.885Z</time></trkpt><trkpt lat="39.819415" lon="16.3086483"><ele>398.5</ele><time>2026-05-03T11:04:07.884Z</time></trkpt><trkpt lat="39.819415" lon="16.3088167"><ele>401.25</ele><time>2026-05-03T11:04:08.885Z</time></trkpt><trkpt lat="39.8194133" lon="16.308995"><ele>404.0</ele><time>2026-05-03T11:04:09.885Z</time></trkpt><trkpt lat="39.81941" lon="16.3091617"><ele>405.0</ele><time>2026-05-03T11:04:10.885Z</time></trkpt><trkpt lat="39.8194033" lon="16.309305"><ele>406.0</ele><time>2026-05-03T11:04:11.885Z</time></trkpt><trkpt lat="39.8193967" lon="16.3094433"><ele>407.0</ele><time>2026-05-03T11:04:12.885Z</time></trkpt><trkpt lat="39.8194017" lon="16.30958"><ele>408.0</ele><time>2026-05-03T11:04:13.885Z</time></trkpt><trkpt lat="39.8194133" lon="16.3097167"><ele>409.0</ele><time>2026-05-03T11:04:14.885Z</time></trkpt><trkpt lat="39.8194367" lon="16.3098533"><ele>410.2</ele><time>2026-05-03T11:04:15.885Z</time></trkpt><trkpt lat="39.8194767" lon="16.3099783"><ele>411.4</ele><time>2026-05-03T11:04:16.884Z</time></trkpt><trkpt lat="39.8195433" lon="16.3100833"><ele>412.6</ele><time>2026-05-03T11:04:17.885Z</time></trkpt><trkpt lat="39.8196367" lon="16.3101717"><ele>413.8</ele><time>2026-05-03T11:04:18.885Z</time></trkpt><trkpt lat="39.8197417" lon="16.3102567"><ele>415.0</ele><time>2026-05-03T11:04:19.884Z</time></trkpt><trkpt lat="39.81985" lon="16.3103383"><ele>415.0</ele><time>2026-05-03T11:04:20.885Z</time></trkpt><trkpt lat="39.8199567" lon="16.3104417"><ele>415.0</ele><time>2026-05-03T11:04:21.885Z</time></trkpt><trkpt lat="39.820045" lon="16.3105717"><ele>415.0</ele><time>2026-05-03T11:04:22.884Z</time></trkpt><trkpt lat="39.8201133" lon="16.3107283"><ele>415.0</ele><time>2026-05-03T11:04:23.885Z</time></trkpt><trkpt lat="39.8201567" lon="16.3109033"><ele>417.0</ele><time>2026-05-03T11:04:24.885Z</time></trkpt><trkpt lat="39.8202033" lon="16.3110783"><ele>419.0</ele><time>2026-05-03T11:04:25.885Z</time></trkpt><trkpt lat="39.8202483" lon="16.31125"><ele>421.0</ele><time>2026-05-03T11:04:26.885Z</time></trkpt><trkpt lat="39.8202883" lon="16.3114283"><ele>423.0</ele><time>2026-05-03T11:04:27.885Z</time></trkpt><trkpt lat="39.8203383" lon="16.3116033"><ele>423.0</ele><time>2026-05-03T11:04:28.885Z</time></trkpt><trkpt lat="39.8203867" lon="16.3117583"><ele>423.0</ele><time>2026-05-03T11:04:29.885Z</time></trkpt><trkpt lat="39.8204467" lon="16.311905"><ele>423.0</ele><time>2026-05-03T11:04:30.885Z</time></trkpt><trkpt lat="39.820495" lon="16.31203"><ele>423.0</ele><time>2026-05-03T11:04:31.885Z</time></trkpt><trkpt lat="39.8205433" lon="16.3121367"><ele>423.0</ele><time>2026-05-03T11:04:32.885Z</time></trkpt><trkpt lat="39.8205933" lon="16.3122333"><ele>423.0</ele><time>2026-05-03T11:04:33.885Z</time></trkpt><trkpt lat="39.82065" lon="16.3123233"><ele>423.0</ele><time>2026-05-03T11:04:34.884Z</time></trkpt><trkpt lat="39.8207233" lon="16.3124"><ele>423.0</ele><time>2026-05-03T11:04:35.885Z</time></trkpt><trkpt lat="39.8207983" lon="16.3124617"><ele>423.0</ele><time>2026-05-03T11:04:36.885Z</time></trkpt><trkpt lat="39.8208817" lon="16.312505"><ele>424.2</ele><time>2026-05-03T11:04:37.885Z</time></trkpt><trkpt lat="39.8209683" lon="16.3125383"><ele>425.4</ele><time>2026-05-03T11:04:38.885Z</time></trkpt><trkpt lat="39.8210533" lon="16.3125933"><ele>426.59999999999997</ele><time>2026-05-03T11:04:39.885Z</time></trkpt><trkpt lat="39.821145" lon="16.3126533"><ele>427.79999999999995</ele><time>2026-05-03T11:04:40.885Z</time></trkpt><trkpt lat="39.821245" lon="16.3127367"><ele>429.0</ele><time>2026-05-03T11:04:41.885Z</time></trkpt><trkpt lat="39.8213567" lon="16.3128233"><ele>429.0</ele><time>2026-05-03T11:04:42.885Z</time></trkpt><trkpt lat="39.821455" lon="16.312915"><ele>429.0</ele><time>2026-05-03T11:04:43.884Z</time></trkpt><trkpt lat="39.821535" lon="16.31304"><ele>429.0</ele><time>2026-05-03T11:04:44.885Z</time></trkpt><trkpt lat="39.8215933" lon="16.3131917"><ele>429.0</ele><time>2026-05-03T11:04:45.884Z</time></trkpt><trkpt lat="39.82162" lon="16.31335"><ele>427.6</ele><time>2026-05-03T11:04:46.885Z</time></trkpt><trkpt lat="39.8216333" lon="16.313515"><ele>426.2</ele><time>2026-05-03T11:04:47.884Z</time></trkpt><trkpt lat="39.8216467" lon="16.3136517"><ele>424.8</ele><time>2026-05-03T11:04:48.885Z</time></trkpt><trkpt lat="39.821655" lon="16.3137733"><ele>423.40000000000003</ele><time>2026-05-03T11:04:49.885Z</time></trkpt><trkpt lat="39.82168" lon="16.3138883"><ele>422.0</ele><time>2026-05-03T11:04:50.884Z</time></trkpt><trkpt lat="39.8217183" lon="16.3140067"><ele>423.6</ele><time>2026-05-03T11:04:51.885Z</time></trkpt><trkpt lat="39.82178" lon="16.3141183"><ele>425.20000000000005</ele><time>2026-05-03T11:04:52.885Z</time></trkpt><trkpt lat="39.8218567" lon="16.3142033"><ele>426.8</ele><time>2026-05-03T11:04:53.885Z</time></trkpt><trkpt lat="39.82194" lon="16.31427"><ele>428.4</ele><time>2026-05-03T11:04:54.884Z</time></trkpt><trkpt lat="39.822035" lon="16.3143283"><ele>430.0</ele><time>2026-05-03T11:04:55.885Z</time></trkpt><trkpt lat="39.8221333" lon="16.3143883"><ele>430.0</ele><time>2026-05-03T11:04:56.884Z</time></trkpt><trkpt lat="39.82224" lon="16.314455"><ele>430.0</ele><time>2026-05-03T11:04:57.884Z</time></trkpt><trkpt lat="39.8223633" lon="16.31451"><ele>430.0</ele><time>2026-05-03T11:04:58.884Z</time></trkpt><trkpt lat="39.8224967" lon="16.31454"><ele>430.0</ele><time>2026-05-03T11:04:59.885Z</time></trkpt><trkpt lat="39.822625" lon="16.31455"><ele>427.8</ele><time>2026-05-03T11:05:00.885Z</time></trkpt><trkpt lat="39.8227517" lon="16.3145233"><ele>425.6</ele><time>2026-05-03T11:05:01.885Z</time></trkpt><trkpt lat="39.8228567" lon="16.3144867"><ele>423.4</ele><time>2026-05-03T11:05:02.885Z</time></trkpt><trkpt lat="39.8229567" lon="16.3144467"><ele>421.2</ele><time>2026-05-03T11:05:03.884Z</time></trkpt><trkpt lat="39.8230283" lon="16.3144233"><ele>419.0</ele><time>2026-05-03T11:05:04.885Z</time></trkpt><trkpt lat="39.8230933" lon="16.3143833"><ele>418.99999999999994</ele><time>2026-05-03T11:05:05.885Z</time></trkpt><trkpt lat="39.8231483" lon="16.3143383"><ele>419.0</ele><time>2026-05-03T11:05:06.885Z</time></trkpt><trkpt lat="39.8232067" lon="16.3142817"><ele>419.0</ele><time>2026-05-03T11:05:07.885Z</time></trkpt><trkpt lat="39.8232667" lon="16.31422"><ele>419.0</ele><time>2026-05-03T11:05:08.885Z</time></trkpt><trkpt lat="39.823335" lon="16.31415"><ele>418.99999999999994</ele><time>2026-05-03T11:05:09.885Z</time></trkpt><trkpt lat="39.8234067" lon="16.3140933"><ele>419.0</ele><time>2026-05-03T11:05:10.885Z</time></trkpt><trkpt lat="39.8234683" lon="16.314045"><ele>415.0</ele><time>2026-05-03T11:05:11.884Z</time></trkpt><trkpt lat="39.823525" lon="16.3139883"><ele>411.0</ele><time>2026-05-03T11:05:12.884Z</time></trkpt><trkpt lat="39.8236283" lon="16.3139033"><ele>407.0</ele><time>2026-05-03T11:05:14.885Z</time></trkpt><trkpt lat="39.8237283" lon="16.3137983"><ele>403.0</ele><time>2026-05-03T11:05:16.884Z</time></trkpt><trkpt lat="39.8237883" lon="16.3137533"><ele>399.0</ele><time>2026-05-03T11:05:17.884Z</time></trkpt><trkpt lat="39.823865" lon="16.31371"><ele>404.8333333333333</ele><time>2026-05-03T11:05:18.885Z</time></trkpt><trkpt lat="39.82395" lon="16.3136767"><ele>410.66666666666663</ele><time>2026-05-03T11:05:19.884Z</time></trkpt><trkpt lat="39.82403" lon="16.3136467"><ele>416.5</ele><time>2026-05-03T11:05:20.885Z</time></trkpt><trkpt lat="39.8241367" lon="16.3136233"><ele>422.3333333333333</ele><time>2026-05-03T11:05:21.885Z</time></trkpt><trkpt lat="39.8242217" lon="16.3136033"><ele>428.16666666666663</ele><time>2026-05-03T11:05:22.884Z</time></trkpt><trkpt lat="39.8243" lon="16.3135867"><ele>434.0</ele><time>2026-05-03T11:05:23.885Z</time></trkpt><trkpt lat="39.8243833" lon="16.3135733"><ele>434.0</ele><time>2026-05-03T11:05:24.885Z</time></trkpt><trkpt lat="39.8244667" lon="16.313545"><ele>434.0</ele><time>2026-05-03T11:05:25.884Z</time></trkpt><trkpt lat="39.8245483" lon="16.3135267"><ele>434.0</ele><time>2026-05-03T11:05:26.884Z</time></trkpt><trkpt lat="39.8246433" lon="16.3134983"><ele>434.0</ele><time>2026-05-03T11:05:27.885Z</time></trkpt><trkpt lat="39.82474" lon="16.3134617"><ele>434.0</ele><time>2026-05-03T11:05:28.884Z</time></trkpt><trkpt lat="39.82483" lon="16.3134317"><ele>434.0</ele><time>2026-05-03T11:05:29.885Z</time></trkpt><trkpt lat="39.8249117" lon="16.313405"><ele>434.0</ele><time>2026-05-03T11:05:30.885Z</time></trkpt><trkpt lat="39.82501" lon="16.3133733"><ele>434.0</ele><time>2026-05-03T11:05:31.885Z</time></trkpt><trkpt lat="39.825095" lon="16.313345"><ele>434.0</ele><time>2026-05-03T11:05:32.885Z</time></trkpt><trkpt lat="39.8251883" lon="16.3133133"><ele>434.0</ele><time>2026-05-03T11:05:33.885Z</time></trkpt><trkpt lat="39.8252817" lon="16.3132767"><ele>430.6</ele><time>2026-05-03T11:05:34.884Z</time></trkpt><trkpt lat="39.8253667" lon="16.3132483"><ele>427.2</ele><time>2026-05-03T11:05:35.885Z</time></trkpt><trkpt lat="39.8254483" lon="16.313225"><ele>423.8</ele><time>2026-05-03T11:05:36.885Z</time></trkpt><trkpt lat="39.8255383" lon="16.313195"><ele>420.40000000000003</ele><time>2026-05-03T11:05:37.885Z</time></trkpt><trkpt lat="39.82563" lon="16.31317"><ele>417.0</ele><time>2026-05-03T11:05:38.884Z</time></trkpt><trkpt lat="39.82572" lon="16.31314"><ele>417.0</ele><time>2026-05-03T11:05:39.885Z</time></trkpt><trkpt lat="39.8258033" lon="16.313115"><ele>417.0</ele><time>2026-05-03T11:05:40.885Z</time></trkpt><trkpt lat="39.82589" lon="16.3130983"><ele>417.0</ele><time>2026-05-03T11:05:41.885Z</time></trkpt><trkpt lat="39.8259633" lon="16.3130917"><ele>417.0</ele><time>2026-05-03T11:05:42.885Z</time></trkpt><trkpt lat="39.826035" lon="16.3130833"><ele>417.0</ele><time>2026-05-03T11:05:43.884Z</time></trkpt><trkpt lat="39.8261233" lon="16.3130817"><ele>417.0</ele><time>2026-05-03T11:05:45.885Z</time></trkpt><trkpt lat="39.82621" lon="16.3130783"><ele>417.0</ele><time>2026-05-03T11:05:47.885Z</time></trkpt><trkpt lat="39.826315" lon="16.3130733"><ele>417.0</ele><time>2026-05-03T11:05:49.885Z</time></trkpt><trkpt lat="39.8264183" lon="16.3130733"><ele>417.0</ele><time>2026-05-03T11:05:51.885Z</time></trkpt><trkpt lat="39.82652" lon="16.3130717"><ele>417.0</ele><time>2026-05-03T11:05:53.885Z</time></trkpt><trkpt lat="39.82659" lon="16.3130667"><ele>417.0</ele><time>2026-05-03T11:05:55.885Z</time></trkpt><trkpt lat="39.8266533" lon="16.3130717"><ele>417.0</ele><time>2026-05-03T11:05:58.885Z</time></trkpt><trkpt lat="39.82673" lon="16.31307"><ele>417.0</ele><time>2026-05-03T11:06:01.885Z</time></trkpt><trkpt lat="39.8268033" lon="16.3130767"><ele>417.0</ele><time>2026-05-03T11:06:04.885Z</time></trkpt><trkpt lat="39.8268667" lon="16.313075"><ele>417.0</ele><time>2026-05-03T11:06:07.885Z</time></trkpt><trkpt lat="39.82696" lon="16.31307"><ele>417.0</ele><time>2026-05-03T11:06:10.885Z</time></trkpt><trkpt lat="39.8270217" lon="16.3130533"><ele>417.0</ele><time>2026-05-03T11:06:12.885Z</time></trkpt><trkpt lat="39.8270767" lon="16.3130033"><ele>417.0</ele><time>2026-05-03T11:06:15.885Z</time></trkpt><trkpt lat="39.8271467" lon="16.31297"><ele>417.0</ele><time>2026-05-03T11:06:21.885Z</time></trkpt><trkpt lat="39.827225" lon="16.312965"><ele>418.0</ele><time>2026-05-03T11:06:24.884Z</time></trkpt><trkpt lat="39.8272967" lon="16.3130017"><ele>419.0</ele><time>2026-05-03T11:06:28.885Z</time></trkpt><trkpt lat="39.8273733" lon="16.3130283"><ele>420.0</ele><time>2026-05-03T11:06:32.885Z</time></trkpt><trkpt lat="39.82743" lon="16.31308"><ele>421.0</ele><time>2026-05-03T11:06:35.885Z</time></trkpt><trkpt lat="39.8275133" lon="16.31316"><ele>422.0</ele><time>2026-05-03T11:06:50.885Z</time></trkpt><trkpt lat="39.8275567" lon="16.31325"><ele>423.0</ele><time>2026-05-03T11:06:52.884Z</time></trkpt><trkpt lat="39.8276117" lon="16.3133883"><ele>423.0</ele><time>2026-05-03T11:07:02.885Z</time></trkpt><trkpt lat="39.8275583" lon="16.3134417"><ele>423.0</ele><time>2026-05-03T11:07:37.885Z</time></trkpt><trkpt lat="39.8275717" lon="16.3135317"><ele>423.0</ele><time>2026-05-03T11:07:43.885Z</time></trkpt><trkpt lat="39.8275283" lon="16.3136033"><ele>423.0</ele><time>2026-05-03T11:07:46.884Z</time></trkpt><trkpt lat="39.82746" lon="16.313685"><ele>423.0</ele><time>2026-05-03T11:07:49.884Z</time></trkpt><trkpt lat="39.8274117" lon="16.3137417"><ele>423.0</ele><time>2026-05-03T11:07:51.884Z</time></trkpt><trkpt lat="39.8273767" lon="16.313835"><ele>423.0</ele><time>2026-05-03T11:07:54.885Z</time></trkpt><trkpt lat="39.8273583" lon="16.3139367"><ele>423.0</ele><time>2026-05-03T11:07:57.885Z</time></trkpt><trkpt lat="39.827365" lon="16.3140733"><ele>423.0</ele><time>2026-05-03T11:11:04.885Z</time></trkpt><trkpt lat="39.827275" lon="16.314085"><ele>423.0</ele><time>2026-05-03T11:14:26.883Z</time></trkpt><trkpt lat="39.8274233" lon="16.31401"><ele>423.0</ele><time>2026-05-03T11:16:45.884Z</time></trkpt><trkpt lat="39.82748" lon="16.3139183"><ele>423.0</ele><time>2026-05-03T11:17:22.884Z</time></trkpt><trkpt lat="39.8275417" lon="16.3138183"><ele>423.0</ele><time>2026-05-03T11:17:35.884Z</time></trkpt><trkpt lat="39.8275667" lon="16.3137367"><ele>423.0</ele><time>2026-05-03T11:17:39.884Z</time></trkpt><trkpt lat="39.827645" lon="16.3135983"><ele>423.0</ele><time>2026-05-03T11:17:52.884Z</time></trkpt><trkpt lat="39.8276483" lon="16.3133867"><ele>423.0</ele><time>2026-05-03T11:18:10.884Z</time></trkpt><trkpt lat="39.8275717" lon="16.3132833"><ele>423.0</ele><time>2026-05-03T11:18:25.884Z</time></trkpt><trkpt lat="39.8274983" lon="16.3131317"><ele>423.0</ele><time>2026-05-03T11:18:42.884Z</time></trkpt><trkpt lat="39.827405" lon="16.313045"><ele>423.0</ele><time>2026-05-03T11:19:27.884Z</time></trkpt><trkpt lat="39.827295" lon="16.313035"><ele>423.0</ele><time>2026-05-03T11:20:21.883Z</time></trkpt><trkpt lat="39.8271983" lon="16.3129517"><ele>423.0</ele><time>2026-05-03T11:21:45.885Z</time></trkpt><trkpt lat="39.8273117" lon="16.3130833"><ele>423.0</ele><time>2026-05-03T11:21:46.885Z</time></trkpt><trkpt lat="39.8273333" lon="16.3131767"><ele>423.0</ele><time>2026-05-03T11:21:47.885Z</time></trkpt><trkpt lat="39.8273583" lon="16.3130733"><ele>423.0</ele><time>2026-05-03T11:22:31.885Z</time></trkpt><trkpt lat="39.8274433" lon="16.3131417"><ele>423.0</ele><time>2026-05-03T11:23:35.884Z</time></trkpt><trkpt lat="39.8274717" lon="16.3132283"><ele>423.0</ele><time>2026-05-03T11:23:38.884Z</time></trkpt><trkpt lat="39.8274017" lon="16.3131467"><ele>423.0</ele><time>2026-05-03T11:24:23.885Z</time></trkpt><trkpt lat="39.82733" lon="16.3131167"><ele>423.0</ele><time>2026-05-03T11:24:42.885Z</time></trkpt><trkpt lat="39.8273983" lon="16.3130967"><ele>423.0</ele><time>2026-05-03T11:25:07.885Z</time></trkpt><trkpt lat="39.8274917" lon="16.3131467"><ele>423.0</ele><time>2026-05-03T11:25:36.885Z</time></trkpt><trkpt lat="39.8274467" lon="16.3130883"><ele>423.0</ele><time>2026-05-03T11:25:51.884Z</time></trkpt><trkpt lat="39.8273483" lon="16.3131133"><ele>423.0</ele><time>2026-05-03T11:25:59.885Z</time></trkpt><trkpt lat="39.8274183" lon="16.31306"><ele>423.0</ele><time>2026-05-03T11:27:47.885Z</time></trkpt><trkpt lat="39.8275583" lon="16.31308"><ele>423.0</ele><time>2026-05-03T11:27:55.885Z</time></trkpt><trkpt lat="39.827505" lon="16.313125"><ele>423.0</ele><time>2026-05-03T11:28:39.885Z</time></trkpt><trkpt lat="39.8275263" lon="16.3132283"><ele>423.0</ele><time>2026-05-03T11:30:04.884Z</time></trkpt><trkpt lat="39.827593" lon="16.3133364"><ele>423.0</ele><time>2026-05-03T11:30:15.884Z</time></trkpt><trkpt lat="39.8276142" lon="16.313467"><ele>423.0</ele><time>2026-05-03T11:30:39.883Z</time></trkpt><trkpt lat="39.827594" lon="16.3135495"><ele>423.0</ele><time>2026-05-03T11:30:42.883Z</time></trkpt><trkpt lat="39.8275693" lon="16.313628"><ele>423.0</ele><time>2026-05-03T11:30:46.884Z</time></trkpt><trkpt lat="39.827515" lon="16.3137075"><ele>423.0</ele><time>2026-05-03T11:30:50.884Z</time></trkpt><trkpt lat="39.8274523" lon="16.3137583"><ele>423.0</ele><time>2026-05-03T11:30:55.883Z</time></trkpt><trkpt lat="39.8274112" lon="16.3138255"><ele>422.3333333333333</ele><time>2026-05-03T11:31:02.884Z</time></trkpt><trkpt lat="39.8273628" lon="16.3139152"><ele>421.66666666666663</ele><time>2026-05-03T11:31:21.884Z</time></trkpt><trkpt lat="39.8272989" lon="16.3140185"><ele>421.0</ele><time>2026-05-03T11:31:33.883Z</time></trkpt><trkpt lat="39.8272836" lon="16.3140987"><ele>420.3333333333333</ele><time>2026-05-03T11:31:38.884Z</time></trkpt><trkpt lat="39.8272778" lon="16.3142184"><ele>419.66666666666663</ele><time>2026-05-03T11:31:53.884Z</time></trkpt><trkpt lat="39.8272415" lon="16.3142977"><ele>419.0</ele><time>2026-05-03T11:32:05.087Z</time></trkpt><trkpt lat="39.8273009" lon="16.3142652"><ele>419.0</ele><time>2026-05-03T12:33:47.006Z</time></trkpt><trkpt lat="39.8272233" lon="16.314085"><ele>419.0</ele><time>2026-05-03T12:33:52.884Z</time></trkpt><trkpt lat="39.8272783" lon="16.314035"><ele>419.0</ele><time>2026-05-03T12:34:01.884Z</time></trkpt><trkpt lat="39.8273333" lon="16.3141533"><ele>419.0</ele><time>2026-05-03T12:38:13.883Z</time></trkpt><trkpt lat="39.82739" lon="16.3140583"><ele>419.0</ele><time>2026-05-03T12:38:17.884Z</time></trkpt><trkpt lat="39.8274433" lon="16.3139867"><ele>418.99999999999994</ele><time>2026-05-03T12:38:19.884Z</time></trkpt><trkpt lat="39.8275" lon="16.314035"><ele>419.0</ele><time>2026-05-03T12:38:22.884Z</time></trkpt><trkpt lat="39.8275717" lon="16.3140917"><ele>419.0</ele><time>2026-05-03T12:38:25.884Z</time></trkpt><trkpt lat="39.8276567" lon="16.31402"><ele>419.0</ele><time>2026-05-03T12:38:32.884Z</time></trkpt><trkpt lat="39.8277333" lon="16.3139233"><ele>418.99999999999994</ele><time>2026-05-03T12:38:34.884Z</time></trkpt><trkpt lat="39.8278167" lon="16.31388"><ele>419.0</ele><time>2026-05-03T12:38:36.884Z</time></trkpt><trkpt lat="39.82789" lon="16.3138683"><ele>417.99999999999994</ele><time>2026-05-03T12:38:38.883Z</time></trkpt><trkpt lat="39.82792" lon="16.3139867"><ele>417.0</ele><time>2026-05-03T12:38:43.883Z</time></trkpt><trkpt lat="39.8279433" lon="16.3141017"><ele>416.0</ele><time>2026-05-03T12:38:45.884Z</time></trkpt><trkpt lat="39.8279917" lon="16.3141633"><ele>415.0</ele><time>2026-05-03T12:38:47.884Z</time></trkpt><trkpt lat="39.82804" lon="16.3142283"><ele>413.99999999999994</ele><time>2026-05-03T12:38:49.884Z</time></trkpt><trkpt lat="39.8281017" lon="16.3142617"><ele>413.0</ele><time>2026-05-03T12:38:53.884Z</time></trkpt><trkpt lat="39.8281667" lon="16.31426"><ele>412.99999999999994</ele><time>2026-05-03T12:38:55.884Z</time></trkpt><trkpt lat="39.8282667" lon="16.31423"><ele>413.0</ele><time>2026-05-03T12:38:57.884Z</time></trkpt><trkpt lat="39.8283317" lon="16.3141983"><ele>413.0</ele><time>2026-05-03T12:38:58.883Z</time></trkpt><trkpt lat="39.8284" lon="16.31418"><ele>413.0</ele><time>2026-05-03T12:38:59.884Z</time></trkpt><trkpt lat="39.82847" lon="16.3141617"><ele>412.99999999999994</ele><time>2026-05-03T12:39:00.884Z</time></trkpt><trkpt lat="39.8285317" lon="16.31414"><ele>413.0</ele><time>2026-05-03T12:39:01.884Z</time></trkpt><trkpt lat="39.8286317" lon="16.3141"><ele>412.99999999999994</ele><time>2026-05-03T12:39:03.884Z</time></trkpt><trkpt lat="39.8287083" lon="16.3140533"><ele>413.0</ele><time>2026-05-03T12:39:05.883Z</time></trkpt><trkpt lat="39.8287883" lon="16.3140433"><ele>413.0</ele><time>2026-05-03T12:39:08.884Z</time></trkpt><trkpt lat="39.828845" lon="16.3139817"><ele>413.0</ele><time>2026-05-03T12:39:10.884Z</time></trkpt><trkpt lat="39.8289167" lon="16.3138467"><ele>412.99999999999994</ele><time>2026-05-03T12:39:12.883Z</time></trkpt><trkpt lat="39.8289433" lon="16.3137633"><ele>413.0</ele><time>2026-05-03T12:39:13.883Z</time></trkpt><trkpt lat="39.8289683" lon="16.3136583"><ele>412.99999999999994</ele><time>2026-05-03T12:39:14.883Z</time></trkpt><trkpt lat="39.82899" lon="16.31355"><ele>413.0</ele><time>2026-05-03T12:39:15.884Z</time></trkpt><trkpt lat="39.82901" lon="16.31344"><ele>413.0</ele><time>2026-05-03T12:39:16.884Z</time></trkpt><trkpt lat="39.829035" lon="16.31334"><ele>413.0</ele><time>2026-05-03T12:39:17.884Z</time></trkpt><trkpt lat="39.8290617" lon="16.31324"><ele>412.99999999999994</ele><time>2026-05-03T12:39:18.884Z</time></trkpt><trkpt lat="39.8290967" lon="16.3131567"><ele>413.0</ele><time>2026-05-03T12:39:19.884Z</time></trkpt><trkpt lat="39.8291633" lon="16.3130383"><ele>412.66666666666663</ele><time>2026-05-03T12:39:21.883Z</time></trkpt><trkpt lat="39.8292367" lon="16.3129667"><ele>412.3333333333333</ele><time>2026-05-03T12:39:23.884Z</time></trkpt><trkpt lat="39.8293483" lon="16.3129333"><ele>412.0</ele><time>2026-05-03T12:39:25.884Z</time></trkpt><trkpt lat="39.8294133" lon="16.3129417"><ele>411.66666666666663</ele><time>2026-05-03T12:39:26.884Z</time></trkpt><trkpt lat="39.829475" lon="16.312975"><ele>411.3333333333333</ele><time>2026-05-03T12:39:27.884Z</time></trkpt><trkpt lat="39.82953" lon="16.3130183"><ele>411.0</ele><time>2026-05-03T12:39:28.884Z</time></trkpt><trkpt lat="39.8295983" lon="16.3130967"><ele>411.0</ele><time>2026-05-03T12:39:30.884Z</time></trkpt><trkpt lat="39.8296383" lon="16.3131783"><ele>411.0</ele><time>2026-05-03T12:39:33.884Z</time></trkpt><trkpt lat="39.829605" lon="16.313305"><ele>411.0</ele><time>2026-05-03T12:39:36.883Z</time></trkpt><trkpt lat="39.8295833" lon="16.3134233"><ele>411.0</ele><time>2026-05-03T12:39:38.884Z</time></trkpt><trkpt lat="39.8295617" lon="16.313565"><ele>411.0</ele><time>2026-05-03T12:39:40.884Z</time></trkpt><trkpt lat="39.829535" lon="16.3137183"><ele>411.0</ele><time>2026-05-03T12:39:42.884Z</time></trkpt><trkpt lat="39.8294983" lon="16.3138683"><ele>411.0</ele><time>2026-05-03T12:39:44.883Z</time></trkpt><trkpt lat="39.8294783" lon="16.3139467"><ele>411.0</ele><time>2026-05-03T12:39:45.884Z</time></trkpt><trkpt lat="39.8294333" lon="16.3140867"><ele>411.0</ele><time>2026-05-03T12:39:47.884Z</time></trkpt><trkpt lat="39.82939" lon="16.314225"><ele>411.0</ele><time>2026-05-03T12:39:49.884Z</time></trkpt><trkpt lat="39.8293433" lon="16.3143583"><ele>408.0</ele><time>2026-05-03T12:39:51.884Z</time></trkpt><trkpt lat="39.8293217" lon="16.31449"><ele>405.0</ele><time>2026-05-03T12:39:53.884Z</time></trkpt><trkpt lat="39.8293217" lon="16.314615"><ele>402.0</ele><time>2026-05-03T12:39:55.883Z</time></trkpt><trkpt lat="39.8293217" lon="16.3147267"><ele>399.0</ele><time>2026-05-03T12:39:57.884Z</time></trkpt><trkpt lat="39.8293117" lon="16.3148533"><ele>396.0</ele><time>2026-05-03T12:39:59.884Z</time></trkpt><trkpt lat="39.82928" lon="16.3150017"><ele>392.4</ele><time>2026-05-03T12:40:01.884Z</time></trkpt><trkpt lat="39.8292383" lon="16.3151367"><ele>388.8</ele><time>2026-05-03T12:40:03.884Z</time></trkpt><trkpt lat="39.82922" lon="16.3152467"><ele>385.2</ele><time>2026-05-03T12:40:05.884Z</time></trkpt><trkpt lat="39.829295" lon="16.3153083"><ele>381.59999999999997</ele><time>2026-05-03T12:40:08.884Z</time></trkpt><trkpt lat="39.8293483" lon="16.3152467"><ele>378.0</ele><time>2026-05-03T12:40:10.884Z</time></trkpt><trkpt lat="39.8293967" lon="16.3151233"><ele>376.4</ele><time>2026-05-03T12:40:12.883Z</time></trkpt><trkpt lat="39.8294617" lon="16.3150117"><ele>374.79999999999995</ele><time>2026-05-03T12:40:14.884Z</time></trkpt><trkpt lat="39.8295417" lon="16.3150083"><ele>373.2</ele><time>2026-05-03T12:40:16.883Z</time></trkpt><trkpt lat="39.8296283" lon="16.3150983"><ele>371.6</ele><time>2026-05-03T12:40:18.883Z</time></trkpt><trkpt lat="39.82973" lon="16.3151833"><ele>370.0</ele><time>2026-05-03T12:40:20.884Z</time></trkpt><trkpt lat="39.8298117" lon="16.3152567"><ele>370.0</ele><time>2026-05-03T12:40:22.884Z</time></trkpt><trkpt lat="39.82988" lon="16.315325"><ele>370.0</ele><time>2026-05-03T12:40:24.884Z</time></trkpt><trkpt lat="39.8299083" lon="16.3154117"><ele>370.0</ele><time>2026-05-03T12:40:26.884Z</time></trkpt><trkpt lat="39.8298683" lon="16.315485"><ele>370.0</ele><time>2026-05-03T12:40:28.884Z</time></trkpt><trkpt lat="39.8297583" lon="16.3154917"><ele>370.0</ele><time>2026-05-03T12:40:30.884Z</time></trkpt><trkpt lat="39.8296933" lon="16.315495"><ele>370.0</ele><time>2026-05-03T12:40:31.884Z</time></trkpt><trkpt lat="39.829585" lon="16.315525"><ele>362.8</ele><time>2026-05-03T12:40:33.884Z</time></trkpt><trkpt lat="39.8295117" lon="16.315635"><ele>355.6</ele><time>2026-05-03T12:40:35.883Z</time></trkpt><trkpt lat="39.82947" lon="16.3156967"><ele>348.4</ele><time>2026-05-03T12:40:36.884Z</time></trkpt><trkpt lat="39.829395" lon="16.315805"><ele>341.2</ele><time>2026-05-03T12:40:38.884Z</time></trkpt><trkpt lat="39.8293483" lon="16.3159033"><ele>334.0</ele><time>2026-05-03T12:40:40.883Z</time></trkpt><trkpt lat="39.8293717" lon="16.3160117"><ele>334.0</ele><time>2026-05-03T12:40:42.884Z</time></trkpt><trkpt lat="39.8294067" lon="16.31608"><ele>334.0</ele><time>2026-05-03T12:40:43.884Z</time></trkpt><trkpt lat="39.8294433" lon="16.3161517"><ele>334.0</ele><time>2026-05-03T12:40:44.884Z</time></trkpt><trkpt lat="39.8295167" lon="16.316265"><ele>334.0</ele><time>2026-05-03T12:40:46.884Z</time></trkpt><trkpt lat="39.8295833" lon="16.31634"><ele>334.0</ele><time>2026-05-03T12:40:48.884Z</time></trkpt><trkpt lat="39.8295567" lon="16.3164267"><ele>334.0</ele><time>2026-05-03T12:40:51.884Z</time></trkpt><trkpt lat="39.8294633" lon="16.3164183"><ele>329.8</ele><time>2026-05-03T12:40:53.883Z</time></trkpt><trkpt lat="39.829355" lon="16.316425"><ele>325.59999999999997</ele><time>2026-05-03T12:40:55.883Z</time></trkpt><trkpt lat="39.829245" lon="16.31646"><ele>321.4</ele><time>2026-05-03T12:40:57.884Z</time></trkpt><trkpt lat="39.8291567" lon="16.3165083"><ele>317.2</ele><time>2026-05-03T12:40:59.884Z</time></trkpt><trkpt lat="39.8291167" lon="16.3165883"><ele>313.0</ele><time>2026-05-03T12:41:01.883Z</time></trkpt><trkpt lat="39.8291433" lon="16.3167"><ele>311.16666666666663</ele><time>2026-05-03T12:41:03.884Z</time></trkpt><trkpt lat="39.8291967" lon="16.31678"><ele>309.3333333333333</ele><time>2026-05-03T12:41:05.884Z</time></trkpt><trkpt lat="39.8292317" lon="16.3168517"><ele>307.5</ele><time>2026-05-03T12:41:07.883Z</time></trkpt><trkpt lat="39.8291433" lon="16.3168733"><ele>305.6666666666667</ele><time>2026-05-03T12:41:10.883Z</time></trkpt><trkpt lat="39.82908" lon="16.3168583"><ele>303.83333333333337</ele><time>2026-05-03T12:41:11.884Z</time></trkpt><trkpt lat="39.8290133" lon="16.31685"><ele>302.0</ele><time>2026-05-03T12:41:12.883Z</time></trkpt><trkpt lat="39.828915" lon="16.3168783"><ele>302.0</ele><time>2026-05-03T12:41:14.884Z</time></trkpt><trkpt lat="39.8288183" lon="16.316965"><ele>302.0</ele><time>2026-05-03T12:41:16.884Z</time></trkpt><trkpt lat="39.8287583" lon="16.3170083"><ele>302.0</ele><time>2026-05-03T12:41:17.884Z</time></trkpt><trkpt lat="39.8286967" lon="16.3170567"><ele>302.0</ele><time>2026-05-03T12:41:18.884Z</time></trkpt><trkpt lat="39.8286367" lon="16.3171083"><ele>302.0</ele><time>2026-05-03T12:41:19.884Z</time></trkpt><trkpt lat="39.82858" lon="16.31717"><ele>302.0</ele><time>2026-05-03T12:41:20.884Z</time></trkpt><trkpt lat="39.8285333" lon="16.317225"><ele>297.83333333333337</ele><time>2026-05-03T12:41:21.884Z</time></trkpt><trkpt lat="39.8284783" lon="16.3173183"><ele>293.6666666666667</ele><time>2026-05-03T12:41:23.884Z</time></trkpt><trkpt lat="39.8285417" lon="16.3174233"><ele>289.5</ele><time>2026-05-03T12:41:26.884Z</time></trkpt><trkpt lat="39.8286283" lon="16.3174667"><ele>285.3333333333333</ele><time>2026-05-03T12:41:28.884Z</time></trkpt><trkpt lat="39.8286983" lon="16.3174933"><ele>281.16666666666663</ele><time>2026-05-03T12:41:30.884Z</time></trkpt><trkpt lat="39.8287417" lon="16.3175567"><ele>277.0</ele><time>2026-05-03T12:41:32.884Z</time></trkpt><trkpt lat="39.8287533" lon="16.3176483"><ele>277.0</ele><time>2026-05-03T12:41:34.883Z</time></trkpt><trkpt lat="39.82873" lon="16.3177517"><ele>277.0</ele><time>2026-05-03T12:41:36.884Z</time></trkpt><trkpt lat="39.8287017" lon="16.3178633"><ele>277.0</ele><time>2026-05-03T12:41:38.884Z</time></trkpt><trkpt lat="39.8286817" lon="16.3179683"><ele>277.0</ele><time>2026-05-03T12:41:41.884Z</time></trkpt><trkpt lat="39.8286083" lon="16.31798"><ele>277.0</ele><time>2026-05-03T12:41:44.884Z</time></trkpt><trkpt lat="39.82852" lon="16.3178667"><ele>277.0</ele><time>2026-05-03T12:41:46.884Z</time></trkpt><trkpt lat="39.8284617" lon="16.3178133"><ele>277.0</ele><time>2026-05-03T12:41:47.884Z</time></trkpt><trkpt lat="39.8283767" lon="16.31775"><ele>277.0</ele><time>2026-05-03T12:41:49.884Z</time></trkpt><trkpt lat="39.8284633" lon="16.31781"><ele>277.0</ele><time>2026-05-03T12:42:18.883Z</time></trkpt><trkpt lat="39.8285133" lon="16.31786"><ele>277.0</ele><time>2026-05-03T12:42:19.884Z</time></trkpt><trkpt lat="39.8285883" lon="16.31795"><ele>277.0</ele><time>2026-05-03T12:42:21.884Z</time></trkpt><trkpt lat="39.82867" lon="16.3179783"><ele>277.0</ele><time>2026-05-03T12:42:23.884Z</time></trkpt><trkpt lat="39.8287333" lon="16.3179317"><ele>277.0</ele><time>2026-05-03T12:42:25.883Z</time></trkpt><trkpt lat="39.828785" lon="16.31787"><ele>277.0</ele><time>2026-05-03T12:42:39.884Z</time></trkpt><trkpt lat="39.828855" lon="16.3179"><ele>277.0</ele><time>2026-05-03T12:42:42.883Z</time></trkpt><trkpt lat="39.8289117" lon="16.3179517"><ele>277.0</ele><time>2026-05-03T12:42:44.884Z</time></trkpt><trkpt lat="39.8289483" lon="16.31802"><ele>277.0</ele><time>2026-05-03T12:42:46.884Z</time></trkpt><trkpt lat="39.8289883" lon="16.3180933"><ele>277.0</ele><time>2026-05-03T12:42:50.884Z</time></trkpt><trkpt lat="39.8290417" lon="16.3181933"><ele>274.3333333333333</ele><time>2026-05-03T12:42:53.884Z</time></trkpt><trkpt lat="39.82911" lon="16.318235"><ele>271.66666666666663</ele><time>2026-05-03T12:42:55.884Z</time></trkpt><trkpt lat="39.8291783" lon="16.3182267"><ele>269.0</ele><time>2026-05-03T12:42:57.884Z</time></trkpt><trkpt lat="39.82926" lon="16.3182967"><ele>266.3333333333333</ele><time>2026-05-03T12:47:41.884Z</time></trkpt><trkpt lat="39.829185" lon="16.3182633"><ele>263.6666666666667</ele><time>2026-05-03T12:47:44.883Z</time></trkpt><trkpt lat="39.8291067" lon="16.3182183"><ele>261.0</ele><time>2026-05-03T12:47:46.884Z</time></trkpt><trkpt lat="39.8290317" lon="16.31814"><ele>264.2</ele><time>2026-05-03T12:47:48.884Z</time></trkpt><trkpt lat="39.8289767" lon="16.3180233"><ele>267.40000000000003</ele><time>2026-05-03T12:47:50.884Z</time></trkpt><trkpt lat="39.8289133" lon="16.317905"><ele>270.6</ele><time>2026-05-03T12:47:52.884Z</time></trkpt><trkpt lat="39.828825" lon="16.3178567"><ele>273.8</ele><time>2026-05-03T12:47:54.883Z</time></trkpt><trkpt lat="39.8287617" lon="16.3178483"><ele>277.0</ele><time>2026-05-03T12:47:56.884Z</time></trkpt><trkpt lat="39.8287417" lon="16.3177333"><ele>277.0</ele><time>2026-05-03T12:48:14.884Z</time></trkpt><trkpt lat="39.8287467" lon="16.3176017"><ele>277.0</ele><time>2026-05-03T12:48:16.884Z</time></trkpt><trkpt lat="39.82871" lon="16.31747"><ele>277.0</ele><time>2026-05-03T12:48:18.884Z</time></trkpt><trkpt lat="39.8286033" lon="16.3174167"><ele>277.0</ele><time>2026-05-03T12:48:20.884Z</time></trkpt><trkpt lat="39.828515" lon="16.3173567"><ele>277.0</ele><time>2026-05-03T12:48:22.884Z</time></trkpt><trkpt lat="39.8284983" lon="16.3172683"><ele>281.16666666666663</ele><time>2026-05-03T12:48:24.884Z</time></trkpt><trkpt lat="39.8285683" lon="16.3171533"><ele>285.3333333333333</ele><time>2026-05-03T12:48:26.884Z</time></trkpt><trkpt lat="39.8286167" lon="16.3170933"><ele>289.5</ele><time>2026-05-03T12:48:27.884Z</time></trkpt><trkpt lat="39.82867" lon="16.3170233"><ele>293.6666666666667</ele><time>2026-05-03T12:48:28.883Z</time></trkpt><trkpt lat="39.8287333" lon="16.3169667"><ele>297.83333333333337</ele><time>2026-05-03T12:48:29.884Z</time></trkpt><trkpt lat="39.8288033" lon="16.31692"><ele>302.0</ele><time>2026-05-03T12:48:30.883Z</time></trkpt><trkpt lat="39.828875" lon="16.3168833"><ele>302.00000000000006</ele><time>2026-05-03T12:48:31.884Z</time></trkpt><trkpt lat="39.8289417" lon="16.3168467"><ele>302.0</ele><time>2026-05-03T12:48:32.884Z</time></trkpt><trkpt lat="39.8290033" lon="16.3168117"><ele>302.0</ele><time>2026-05-03T12:48:33.884Z</time></trkpt><trkpt lat="39.82907" lon="16.3167967"><ele>302.0</ele><time>2026-05-03T12:48:34.884Z</time></trkpt><trkpt lat="39.8291383" lon="16.3168067"><ele>302.0</ele><time>2026-05-03T12:48:35.883Z</time></trkpt><trkpt lat="39.8292" lon="16.3168267"><ele>302.00000000000006</ele><time>2026-05-03T12:48:36.883Z</time></trkpt><trkpt lat="39.8292833" lon="16.3168467"><ele>302.0</ele><time>2026-05-03T12:48:38.883Z</time></trkpt><trkpt lat="39.829235" lon="16.31674"><ele>302.0</ele><time>2026-05-03T12:48:41.883Z</time></trkpt><trkpt lat="39.8291867" lon="16.3166583"><ele>302.0</ele><time>2026-05-03T12:48:43.884Z</time></trkpt><trkpt lat="39.829185" lon="16.3165567"><ele>302.0</ele><time>2026-05-03T12:48:45.883Z</time></trkpt><trkpt lat="39.8292533" lon="16.3164633"><ele>302.0</ele><time>2026-05-03T12:48:47.884Z</time></trkpt><trkpt lat="39.8293067" lon="16.3164183"><ele>302.0</ele><time>2026-05-03T12:48:48.884Z</time></trkpt><trkpt lat="39.829365" lon="16.3163783"><ele>302.0</ele><time>2026-05-03T12:48:49.884Z</time></trkpt><trkpt lat="39.8294333" lon="16.3163567"><ele>308.4</ele><time>2026-05-03T12:48:50.884Z</time></trkpt><trkpt lat="39.8295017" lon="16.3163667"><ele>314.79999999999995</ele><time>2026-05-03T12:48:51.883Z</time></trkpt><trkpt lat="39.8296067" lon="16.31636"><ele>321.2</ele><time>2026-05-03T12:48:53.884Z</time></trkpt><trkpt lat="39.8295683" lon="16.3162367"><ele>327.59999999999997</ele><time>2026-05-03T12:48:56.884Z</time></trkpt><trkpt lat="39.8294667" lon="16.3161233"><ele>334.0</ele><time>2026-05-03T12:48:58.884Z</time></trkpt><trkpt lat="39.829415" lon="16.3160483"><ele>334.0</ele><time>2026-05-03T12:48:59.884Z</time></trkpt><trkpt lat="39.8293817" lon="16.3159767"><ele>334.0</ele><time>2026-05-03T12:49:00.884Z</time></trkpt><trkpt lat="39.829365" lon="16.315895"><ele>334.0</ele><time>2026-05-03T12:49:01.884Z</time></trkpt><trkpt lat="39.8294183" lon="16.3157717"><ele>334.0</ele><time>2026-05-03T12:49:03.883Z</time></trkpt><trkpt lat="39.8294717" lon="16.3157167"><ele>334.0</ele><time>2026-05-03T12:49:04.884Z</time></trkpt><trkpt lat="39.8295217" lon="16.3156467"><ele>334.0</ele><time>2026-05-03T12:49:05.884Z</time></trkpt><trkpt lat="39.82957" lon="16.3155733"><ele>341.2</ele><time>2026-05-03T12:49:06.883Z</time></trkpt><trkpt lat="39.8296533" lon="16.3154767"><ele>348.4</ele><time>2026-05-03T12:49:08.884Z</time></trkpt><trkpt lat="39.8297467" lon="16.3154533"><ele>355.6</ele><time>2026-05-03T12:49:10.884Z</time></trkpt><trkpt lat="39.82985" lon="16.3154567"><ele>362.8</ele><time>2026-05-03T12:49:12.884Z</time></trkpt><trkpt lat="39.8299167" lon="16.3153983"><ele>370.0</ele><time>2026-05-03T12:49:14.883Z</time></trkpt><trkpt lat="39.8299167" lon="16.3152967"><ele>370.0</ele><time>2026-05-03T12:49:16.884Z</time></trkpt><trkpt lat="39.82983" lon="16.315215"><ele>370.0</ele><time>2026-05-03T12:49:18.884Z</time></trkpt><trkpt lat="39.8297583" lon="16.315155"><ele>370.0</ele><time>2026-05-03T12:49:19.883Z</time></trkpt><trkpt lat="39.8296833" lon="16.315095"><ele>370.0</ele><time>2026-05-03T12:49:20.884Z</time></trkpt><trkpt lat="39.829605" lon="16.3150417"><ele>370.0</ele><time>2026-05-03T12:49:21.883Z</time></trkpt><trkpt lat="39.8295483" lon="16.3149967"><ele>370.0</ele><time>2026-05-03T12:49:22.884Z</time></trkpt><trkpt lat="39.8294567" lon="16.315005"><ele>370.0</ele><time>2026-05-03T12:49:24.883Z</time></trkpt><trkpt lat="39.829385" lon="16.3151117"><ele>370.0</ele><time>2026-05-03T12:49:26.884Z</time></trkpt><trkpt lat="39.829355" lon="16.3152067"><ele>370.0</ele><time>2026-05-03T12:49:27.884Z</time></trkpt><trkpt lat="39.82933" lon="16.315285"><ele>370.0</ele><time>2026-05-03T12:49:28.884Z</time></trkpt><trkpt lat="39.8292733" lon="16.3153367"><ele>370.0</ele><time>2026-05-03T12:49:30.884Z</time></trkpt><trkpt lat="39.8292367" lon="16.3152183"><ele>370.0</ele><time>2026-05-03T12:49:33.884Z</time></trkpt><trkpt lat="39.8292517" lon="16.3151317"><ele>369.99999999999994</ele><time>2026-05-03T12:49:34.883Z</time></trkpt><trkpt lat="39.8292717" lon="16.31503"><ele>370.0</ele><time>2026-05-03T12:49:35.883Z</time></trkpt><trkpt lat="39.82929" lon="16.3149283"><ele>370.0</ele><time>2026-05-03T12:49:36.884Z</time></trkpt><trkpt lat="39.8293067" lon="16.3148333"><ele>370.0</ele><time>2026-05-03T12:49:37.883Z</time></trkpt><trkpt lat="39.829325" lon="16.31474"><ele>370.0</ele><time>2026-05-03T12:49:38.883Z</time></trkpt><trkpt lat="39.8293317" lon="16.3146483"><ele>369.99999999999994</ele><time>2026-05-03T12:49:39.883Z</time></trkpt><trkpt lat="39.829335" lon="16.3145617"><ele>370.0</ele><time>2026-05-03T12:49:40.884Z</time></trkpt><trkpt lat="39.8293433" lon="16.3144717"><ele>375.2</ele><time>2026-05-03T12:49:41.883Z</time></trkpt><trkpt lat="39.8293633" lon="16.3143717"><ele>380.4</ele><time>2026-05-03T12:49:42.884Z</time></trkpt><trkpt lat="39.8294" lon="16.3142567"><ele>385.6</ele><time>2026-05-03T12:49:43.884Z</time></trkpt><trkpt lat="39.82943" lon="16.3141217"><ele>390.8</ele><time>2026-05-03T12:49:44.883Z</time></trkpt><trkpt lat="39.82946" lon="16.3139867"><ele>396.0</ele><time>2026-05-03T12:49:45.884Z</time></trkpt><trkpt lat="39.8294917" lon="16.3138567"><ele>399.0</ele><time>2026-05-03T12:49:46.884Z</time></trkpt><trkpt lat="39.8295183" lon="16.3137217"><ele>402.0</ele><time>2026-05-03T12:49:47.884Z</time></trkpt><trkpt lat="39.8295483" lon="16.3135983"><ele>405.0</ele><time>2026-05-03T12:49:48.884Z</time></trkpt><trkpt lat="39.8295717" lon="16.3134833"><ele>408.0</ele><time>2026-05-03T12:49:49.884Z</time></trkpt><trkpt lat="39.829595" lon="16.3133733"><ele>411.0</ele><time>2026-05-03T12:49:50.884Z</time></trkpt><trkpt lat="39.82962" lon="16.3132767"><ele>411.0</ele><time>2026-05-03T12:49:51.883Z</time></trkpt><trkpt lat="39.8296467" lon="16.313145"><ele>411.0</ele><time>2026-05-03T12:49:53.883Z</time></trkpt><trkpt lat="39.829625" lon="16.3130567"><ele>411.0</ele><time>2026-05-03T12:49:55.884Z</time></trkpt><trkpt lat="39.8295433" lon="16.3129767"><ele>411.0</ele><time>2026-05-03T12:49:57.884Z</time></trkpt><trkpt lat="39.8294133" lon="16.3129217"><ele>411.0</ele><time>2026-05-03T12:49:59.884Z</time></trkpt><trkpt lat="39.8293383" lon="16.3129017"><ele>414.6</ele><time>2026-05-03T12:50:00.884Z</time></trkpt><trkpt lat="39.8292583" lon="16.3129017"><ele>418.20000000000005</ele><time>2026-05-03T12:50:01.884Z</time></trkpt><trkpt lat="39.8291867" lon="16.3129067"><ele>421.79999999999995</ele><time>2026-05-03T12:50:02.883Z</time></trkpt><trkpt lat="39.8290733" lon="16.312935"><ele>425.4</ele><time>2026-05-03T12:50:04.883Z</time></trkpt><trkpt lat="39.82896" lon="16.312935"><ele>429.0</ele><time>2026-05-03T12:50:06.883Z</time></trkpt><trkpt lat="39.8288783" lon="16.31289"><ele>429.0</ele><time>2026-05-03T12:50:08.884Z</time></trkpt><trkpt lat="39.8288117" lon="16.312865"><ele>429.0</ele><time>2026-05-03T12:50:11.883Z</time></trkpt><trkpt lat="39.8287317" lon="16.3128683"><ele>429.0</ele><time>2026-05-03T12:50:13.884Z</time></trkpt><trkpt lat="39.8286583" lon="16.3128917"><ele>429.0</ele><time>2026-05-03T12:50:15.884Z</time></trkpt><trkpt lat="39.8285733" lon="16.3129617"><ele>429.0</ele><time>2026-05-03T12:50:17.884Z</time></trkpt><trkpt lat="39.828465" lon="16.3129967"><ele>429.0</ele><time>2026-05-03T12:50:19.883Z</time></trkpt><trkpt lat="39.8283767" lon="16.3129817"><ele>430.0</ele><time>2026-05-03T12:50:21.884Z</time></trkpt><trkpt lat="39.828305" lon="16.3129783"><ele>431.0</ele><time>2026-05-03T12:50:23.883Z</time></trkpt><trkpt lat="39.828255" lon="16.312875"><ele>432.0</ele><time>2026-05-03T12:50:28.884Z</time></trkpt><trkpt lat="39.8282183" lon="16.31276"><ele>433.0</ele><time>2026-05-03T12:50:30.884Z</time></trkpt><trkpt lat="39.828235" lon="16.3126717"><ele>434.0</ele><time>2026-05-03T12:50:31.884Z</time></trkpt><trkpt lat="39.8281433" lon="16.3126583"><ele>435.0</ele><time>2026-05-03T12:50:34.884Z</time></trkpt><trkpt lat="39.8280733" lon="16.3126783"><ele>435.0</ele><time>2026-05-03T12:50:36.884Z</time></trkpt><trkpt lat="39.8279833" lon="16.3127467"><ele>435.0</ele><time>2026-05-03T12:50:38.884Z</time></trkpt><trkpt lat="39.8279083" lon="16.3127933"><ele>435.0</ele><time>2026-05-03T12:50:40.884Z</time></trkpt><trkpt lat="39.8278333" lon="16.31281"><ele>435.0</ele><time>2026-05-03T12:50:42.884Z</time></trkpt><trkpt lat="39.8277683" lon="16.3128933"><ele>435.0</ele><time>2026-05-03T12:50:45.884Z</time></trkpt><trkpt lat="39.8276833" lon="16.31295"><ele>435.1666666666667</ele><time>2026-05-03T12:50:47.884Z</time></trkpt><trkpt lat="39.8276" lon="16.31301"><ele>435.33333333333337</ele><time>2026-05-03T12:50:49.884Z</time></trkpt><trkpt lat="39.8275567" lon="16.3130783"><ele>435.5</ele><time>2026-05-03T12:50:51.884Z</time></trkpt><trkpt lat="39.827525" lon="16.31316"><ele>435.6666666666667</ele><time>2026-05-03T12:50:53.884Z</time></trkpt><trkpt lat="39.827535" lon="16.3132667"><ele>435.83333333333337</ele><time>2026-05-03T12:50:56.884Z</time></trkpt><trkpt lat="39.8275983" lon="16.3133683"><ele>436.0</ele><time>2026-05-03T12:50:58.884Z</time></trkpt><trkpt lat="39.827655" lon="16.31342"><ele>434.33333333333337</ele><time>2026-05-03T12:51:00.884Z</time></trkpt><trkpt lat="39.8276967" lon="16.3134817"><ele>432.6666666666667</ele><time>2026-05-03T12:51:04.883Z</time></trkpt><trkpt lat="39.8277617" lon="16.31357"><ele>431.0</ele><time>2026-05-03T12:51:06.883Z</time></trkpt><trkpt lat="39.827845" lon="16.3136833"><ele>429.33333333333337</ele><time>2026-05-03T12:51:08.884Z</time></trkpt><trkpt lat="39.8278967" lon="16.3137733"><ele>427.6666666666667</ele><time>2026-05-03T12:51:10.884Z</time></trkpt><trkpt lat="39.8279" lon="16.3138633"><ele>426.0</ele><time>2026-05-03T12:51:14.884Z</time></trkpt><trkpt lat="39.8278983" lon="16.3139517"><ele>423.8333333333333</ele><time>2026-05-03T12:51:21.884Z</time></trkpt><trkpt lat="39.827915" lon="16.3140767"><ele>421.66666666666663</ele><time>2026-05-03T12:51:25.883Z</time></trkpt><trkpt lat="39.8279783" lon="16.3140717"><ele>419.5</ele><time>2026-05-03T12:51:31.883Z</time></trkpt><trkpt lat="39.8279817" lon="16.3139783"><ele>417.3333333333333</ele><time>2026-05-03T12:51:33.883Z</time></trkpt><trkpt lat="39.8279167" lon="16.31391"><ele>415.16666666666663</ele><time>2026-05-03T12:52:08.884Z</time></trkpt><trkpt lat="39.8278" lon="16.313945"><ele>413.0</ele><time>2026-05-03T12:52:10.884Z</time></trkpt><trkpt lat="39.8277367" lon="16.3139767"><ele>413.0</ele><time>2026-05-03T12:52:11.884Z</time></trkpt><trkpt lat="39.827655" lon="16.3140267"><ele>413.0</ele><time>2026-05-03T12:52:13.884Z</time></trkpt><trkpt lat="39.827575" lon="16.31405"><ele>413.0</ele><time>2026-05-03T12:52:16.884Z</time></trkpt><trkpt lat="39.82747" lon="16.3139533"><ele>413.0</ele><time>2026-05-03T12:52:54.884Z</time></trkpt><trkpt lat="39.8275367" lon="16.3139633"><ele>413.0</ele><time>2026-05-03T12:53:00.883Z</time></trkpt><trkpt lat="39.8276183" lon="16.314015"><ele>412.99999999999994</ele><time>2026-05-03T12:53:03.883Z</time></trkpt><trkpt lat="39.8277083" lon="16.3139517"><ele>413.0</ele><time>2026-05-03T12:53:05.884Z</time></trkpt><trkpt lat="39.82776" lon="16.313895"><ele>413.0</ele><time>2026-05-03T12:53:06.883Z</time></trkpt><trkpt lat="39.8278367" lon="16.313835"><ele>413.0</ele><time>2026-05-03T12:53:08.884Z</time></trkpt><trkpt lat="39.8278917" lon="16.31389"><ele>412.99999999999994</ele><time>2026-05-03T12:53:11.884Z</time></trkpt><trkpt lat="39.8279183" lon="16.3140217"><ele>413.0</ele><time>2026-05-03T12:53:13.884Z</time></trkpt><trkpt lat="39.8279783" lon="16.314145"><ele>412.99999999999994</ele><time>2026-05-03T12:53:15.884Z</time></trkpt><trkpt lat="39.8280667" lon="16.3142167"><ele>413.0</ele><time>2026-05-03T12:53:17.884Z</time></trkpt><trkpt lat="39.8281767" lon="16.314215"><ele>413.0</ele><time>2026-05-03T12:53:19.883Z</time></trkpt><trkpt lat="39.82824" lon="16.31421"><ele>413.0</ele><time>2026-05-03T12:53:20.884Z</time></trkpt><trkpt lat="39.828305" lon="16.3141833"><ele>412.99999999999994</ele><time>2026-05-03T12:53:21.884Z</time></trkpt><trkpt lat="39.8283783" lon="16.3141583"><ele>413.0</ele><time>2026-05-03T12:53:22.883Z</time></trkpt><trkpt lat="39.8284467" lon="16.3141267"><ele>412.99999999999994</ele><time>2026-05-03T12:53:23.884Z</time></trkpt><trkpt lat="39.8285217" lon="16.3140933"><ele>413.0</ele><time>2026-05-03T12:53:24.884Z</time></trkpt><trkpt lat="39.82859" lon="16.3140733"><ele>413.0</ele><time>2026-05-03T12:53:25.883Z</time></trkpt><trkpt lat="39.8286567" lon="16.3140517"><ele>413.0</ele><time>2026-05-03T12:53:26.884Z</time></trkpt><trkpt lat="39.8287183" lon="16.3140317"><ele>412.99999999999994</ele><time>2026-05-03T12:53:27.884Z</time></trkpt><trkpt lat="39.8287833" lon="16.3139867"><ele>413.0</ele><time>2026-05-03T12:53:28.884Z</time></trkpt><trkpt lat="39.8288933" lon="16.3138933"><ele>413.0</ele><time>2026-05-03T12:53:30.884Z</time></trkpt><trkpt lat="39.8289267" lon="16.3138217"><ele>413.0</ele><time>2026-05-03T12:53:31.883Z</time></trkpt><trkpt lat="39.82895" lon="16.3137367"><ele>413.0</ele><time>2026-05-03T12:53:32.884Z</time></trkpt><trkpt lat="39.8289683" lon="16.3136483"><ele>413.0</ele><time>2026-05-03T12:53:33.884Z</time></trkpt><trkpt lat="39.8289833" lon="16.313555"><ele>413.0</ele><time>2026-05-03T12:53:34.884Z</time></trkpt><trkpt lat="39.829" lon="16.3134533"><ele>413.0</ele><time>2026-05-03T12:53:35.884Z</time></trkpt><trkpt lat="39.829025" lon="16.3133517"><ele>413.0</ele><time>2026-05-03T12:53:36.884Z</time></trkpt><trkpt lat="39.829055" lon="16.3132417"><ele>412.99999999999994</ele><time>2026-05-03T12:53:37.884Z</time></trkpt><trkpt lat="39.8290983" lon="16.313145"><ele>413.0</ele><time>2026-05-03T12:53:38.884Z</time></trkpt><trkpt lat="39.8291467" lon="16.3130517"><ele>413.0</ele><time>2026-05-03T12:53:39.884Z</time></trkpt><trkpt lat="39.829205" lon="16.3129717"><ele>413.0</ele><time>2026-05-03T12:53:40.883Z</time></trkpt><trkpt lat="39.8292633" lon="16.31293"><ele>412.99999999999994</ele><time>2026-05-03T12:53:41.883Z</time></trkpt><trkpt lat="39.829365" lon="16.3128733"><ele>413.0</ele><time>2026-05-03T12:53:43.884Z</time></trkpt><trkpt lat="39.8294483" lon="16.3129167"><ele>412.59999999999997</ele><time>2026-05-03T12:53:45.884Z</time></trkpt><trkpt lat="39.82953" lon="16.312985"><ele>412.2</ele><time>2026-05-03T12:53:47.884Z</time></trkpt><trkpt lat="39.8295967" lon="16.31306"><ele>411.8</ele><time>2026-05-03T12:53:49.884Z</time></trkpt><trkpt lat="39.82964" lon="16.3131467"><ele>411.4</ele><time>2026-05-03T12:54:40.884Z</time></trkpt><trkpt lat="39.829625" lon="16.313275"><ele>411.0</ele><time>2026-05-03T12:54:42.884Z</time></trkpt><trkpt lat="39.8295933" lon="16.313405"><ele>411.0</ele><time>2026-05-03T12:54:44.884Z</time></trkpt><trkpt lat="39.8295533" lon="16.3135767"><ele>411.0</ele><time>2026-05-03T12:54:46.884Z</time></trkpt><trkpt lat="39.8295333" lon="16.31368"><ele>411.0</ele><time>2026-05-03T12:54:47.883Z</time></trkpt><trkpt lat="39.8295033" lon="16.3137783"><ele>411.0</ele><time>2026-05-03T12:54:48.884Z</time></trkpt><trkpt lat="39.8294733" lon="16.3138733"><ele>411.0</ele><time>2026-05-03T12:54:49.884Z</time></trkpt><trkpt lat="39.82945" lon="16.3139667"><ele>408.5</ele><time>2026-05-03T12:54:50.884Z</time></trkpt><trkpt lat="39.8294267" lon="16.3140617"><ele>406.0</ele><time>2026-05-03T12:54:51.884Z</time></trkpt><trkpt lat="39.82941" lon="16.3141533"><ele>403.5</ele><time>2026-05-03T12:54:52.884Z</time></trkpt><trkpt lat="39.8293917" lon="16.31424"><ele>401.0</ele><time>2026-05-03T12:54:53.884Z</time></trkpt><trkpt lat="39.8293667" lon="16.31432"><ele>398.5</ele><time>2026-05-03T12:54:54.883Z</time></trkpt><trkpt lat="39.82934" lon="16.314465"><ele>396.0</ele><time>2026-05-03T12:54:56.884Z</time></trkpt><trkpt lat="39.8293383" lon="16.3145767"><ele>396.0</ele><time>2026-05-03T12:54:58.884Z</time></trkpt><trkpt lat="39.8293383" lon="16.3146717"><ele>396.0</ele><time>2026-05-03T12:55:00.884Z</time></trkpt><trkpt lat="39.8293217" lon="16.3147883"><ele>396.0</ele><time>2026-05-03T12:55:02.884Z</time></trkpt><trkpt lat="39.8293033" lon="16.3148667"><ele>396.0</ele><time>2026-05-03T12:55:03.884Z</time></trkpt><trkpt lat="39.8292883" lon="16.3149483"><ele>396.0</ele><time>2026-05-03T12:55:04.884Z</time></trkpt><trkpt lat="39.829275" lon="16.315035"><ele>396.0</ele><time>2026-05-03T12:55:05.884Z</time></trkpt><trkpt lat="39.8292517" lon="16.3151733"><ele>393.0</ele><time>2026-05-03T12:55:07.884Z</time></trkpt><trkpt lat="39.8292367" lon="16.3152667"><ele>390.0</ele><time>2026-05-03T12:55:09.884Z</time></trkpt><trkpt lat="39.8293017" lon="16.3153283"><ele>387.0</ele><time>2026-05-03T12:55:12.884Z</time></trkpt><trkpt lat="39.8293433" lon="16.3152633"><ele>384.0</ele><time>2026-05-03T12:55:14.884Z</time></trkpt><trkpt lat="39.8293833" lon="16.3151517"><ele>381.0</ele><time>2026-05-03T12:55:16.883Z</time></trkpt><trkpt lat="39.829425" lon="16.315055"><ele>378.0</ele><time>2026-05-03T12:55:18.883Z</time></trkpt><trkpt lat="39.8294817" lon="16.3149917"><ele>376.4</ele><time>2026-05-03T12:55:21.883Z</time></trkpt><trkpt lat="39.8295767" lon="16.315045"><ele>374.79999999999995</ele><time>2026-05-03T12:55:24.884Z</time></trkpt><trkpt lat="39.8296267" lon="16.3150967"><ele>373.2</ele><time>2026-05-03T12:55:25.884Z</time></trkpt><trkpt lat="39.8296767" lon="16.3151467"><ele>371.6</ele><time>2026-05-03T12:55:26.883Z</time></trkpt><trkpt lat="39.8297717" lon="16.3152217"><ele>370.0</ele><time>2026-05-03T12:55:28.883Z</time></trkpt><trkpt lat="39.8298783" lon="16.315295"><ele>370.0</ele><time>2026-05-03T12:55:30.884Z</time></trkpt><trkpt lat="39.8299417" lon="16.31538"><ele>370.0</ele><time>2026-05-03T12:55:32.884Z</time></trkpt><trkpt lat="39.8298517" lon="16.3154583"><ele>370.0</ele><time>2026-05-03T12:55:35.884Z</time></trkpt><trkpt lat="39.8297867" lon="16.3154617"><ele>370.0</ele><time>2026-05-03T12:55:36.884Z</time></trkpt><trkpt lat="39.8297167" lon="16.31546"><ele>370.0</ele><time>2026-05-03T12:55:37.883Z</time></trkpt><trkpt lat="39.8296083" lon="16.31551"><ele>370.0</ele><time>2026-05-03T12:55:39.884Z</time></trkpt><trkpt lat="39.8295583" lon="16.3155683"><ele>364.0</ele><time>2026-05-03T12:55:40.884Z</time></trkpt><trkpt lat="39.8295133" lon="16.3156317"><ele>358.0</ele><time>2026-05-03T12:55:41.884Z</time></trkpt><trkpt lat="39.82947" lon="16.31571"><ele>352.0</ele><time>2026-05-03T12:55:42.883Z</time></trkpt><trkpt lat="39.829425" lon="16.3157717"><ele>346.0</ele><time>2026-05-03T12:55:43.884Z</time></trkpt><trkpt lat="39.82937" lon="16.3158783"><ele>340.0</ele><time>2026-05-03T12:55:45.884Z</time></trkpt><trkpt lat="39.8293767" lon="16.3159967"><ele>334.0</ele><time>2026-05-03T12:55:47.884Z</time></trkpt><trkpt lat="39.82944" lon="16.3161283"><ele>334.0</ele><time>2026-05-03T12:55:49.884Z</time></trkpt><trkpt lat="39.8295133" lon="16.316255"><ele>334.0</ele><time>2026-05-03T12:55:51.884Z</time></trkpt><trkpt lat="39.8295867" lon="16.3163317"><ele>334.0</ele><time>2026-05-03T12:55:53.883Z</time></trkpt><trkpt lat="39.8295767" lon="16.3164183"><ele>334.0</ele><time>2026-05-03T12:55:56.884Z</time></trkpt><trkpt lat="39.829475" lon="16.3164317"><ele>334.0</ele><time>2026-05-03T12:55:58.884Z</time></trkpt><trkpt lat="39.8294033" lon="16.31643"><ele>330.5</ele><time>2026-05-03T12:55:59.884Z</time></trkpt><trkpt lat="39.8293233" lon="16.316435"><ele>327.0</ele><time>2026-05-03T12:56:00.884Z</time></trkpt><trkpt lat="39.82925" lon="16.3164583"><ele>323.5</ele><time>2026-05-03T12:56:01.883Z</time></trkpt><trkpt lat="39.829185" lon="16.3165017"><ele>320.0</ele><time>2026-05-03T12:56:02.884Z</time></trkpt><trkpt lat="39.8291283" lon="16.3165933"><ele>316.5</ele><time>2026-05-03T12:56:04.884Z</time></trkpt><trkpt lat="39.8291383" lon="16.3166783"><ele>313.0</ele><time>2026-05-03T12:56:06.884Z</time></trkpt><trkpt lat="39.8291883" lon="16.3167483"><ele>311.16666666666663</ele><time>2026-05-03T12:56:08.884Z</time></trkpt><trkpt lat="39.8292467" lon="16.3168233"><ele>309.3333333333333</ele><time>2026-05-03T12:56:11.884Z</time></trkpt><trkpt lat="39.829165" lon="16.3168567"><ele>307.5</ele><time>2026-05-03T12:56:31.884Z</time></trkpt><trkpt lat="39.8290833" lon="16.316835"><ele>305.6666666666667</ele><time>2026-05-03T12:56:33.884Z</time></trkpt><trkpt lat="39.8289917" lon="16.3168433"><ele>303.83333333333337</ele><time>2026-05-03T12:56:35.884Z</time></trkpt><trkpt lat="39.8289067" lon="16.3168967"><ele>302.0</ele><time>2026-05-03T12:56:37.884Z</time></trkpt><trkpt lat="39.82883" lon="16.3169667"><ele>302.0</ele><time>2026-05-03T12:56:39.884Z</time></trkpt><trkpt lat="39.8287467" lon="16.3170417"><ele>302.0</ele><time>2026-05-03T12:56:41.884Z</time></trkpt><trkpt lat="39.8286567" lon="16.3171183"><ele>302.0</ele><time>2026-05-03T12:56:43.883Z</time></trkpt><trkpt lat="39.8285667" lon="16.3171917"><ele>302.0</ele><time>2026-05-03T12:56:45.884Z</time></trkpt><trkpt lat="39.82849" lon="16.3172533"><ele>302.0</ele><time>2026-05-03T12:56:47.884Z</time></trkpt><trkpt lat="39.8284933" lon="16.3173433"><ele>298.42857142857144</ele><time>2026-05-03T12:56:49.883Z</time></trkpt><trkpt lat="39.8285517" lon="16.3173967"><ele>294.8571428571429</ele><time>2026-05-03T12:56:51.883Z</time></trkpt><trkpt lat="39.8286233" lon="16.31743"><ele>291.2857142857143</ele><time>2026-05-03T12:56:53.884Z</time></trkpt><trkpt lat="39.828685" lon="16.3174567"><ele>287.7142857142857</ele><time>2026-05-03T12:56:55.884Z</time></trkpt><trkpt lat="39.8287317" lon="16.3174017"><ele>284.1428571428571</ele><time>2026-05-03T12:56:59.884Z</time></trkpt><trkpt lat="39.828755" lon="16.317485"><ele>280.57142857142856</ele><time>2026-05-03T12:57:56.883Z</time></trkpt><trkpt lat="39.82876" lon="16.3175933"><ele>277.0</ele><time>2026-05-03T12:58:42.883Z</time></trkpt><trkpt lat="39.8287433" lon="16.3176933"><ele>277.0</ele><time>2026-05-03T12:58:44.884Z</time></trkpt><trkpt lat="39.82873" lon="16.3177917"><ele>277.0</ele><time>2026-05-03T12:58:46.883Z</time></trkpt><trkpt lat="39.8287833" lon="16.3178583"><ele>277.0</ele><time>2026-05-03T12:58:51.884Z</time></trkpt><trkpt lat="39.8288717" lon="16.3178883"><ele>277.0</ele><time>2026-05-03T12:58:54.884Z</time></trkpt><trkpt lat="39.82893" lon="16.3179583"><ele>277.0</ele><time>2026-05-03T12:58:56.883Z</time></trkpt><trkpt lat="39.828975" lon="16.3180583"><ele>277.0</ele><time>2026-05-03T12:58:58.884Z</time></trkpt><trkpt lat="39.829015" lon="16.3181583"><ele>277.0</ele><time>2026-05-03T12:59:00.884Z</time></trkpt><trkpt lat="39.8290867" lon="16.3182083"><ele>277.0</ele><time>2026-05-03T12:59:02.884Z</time></trkpt><trkpt lat="39.8291517" lon="16.318195"><ele>277.0</ele><time>2026-05-03T12:59:04.883Z</time></trkpt><trkpt lat="39.8290917" lon="16.31817"><ele>277.0</ele><time>2026-05-03T13:15:23.884Z</time></trkpt><trkpt lat="39.8290283" lon="16.3181567"><ele>277.0</ele><time>2026-05-03T13:15:26.884Z</time></trkpt><trkpt lat="39.8289783" lon="16.3180683"><ele>277.0</ele><time>2026-05-03T13:15:29.884Z</time></trkpt><trkpt lat="39.8289483" lon="16.3179767"><ele>277.0</ele><time>2026-05-03T13:15:32.884Z</time></trkpt><trkpt lat="39.828905" lon="16.317905"><ele>277.0</ele><time>2026-05-03T13:15:35.883Z</time></trkpt><trkpt lat="39.8288383" lon="16.3178533"><ele>277.0</ele><time>2026-05-03T13:15:38.884Z</time></trkpt><trkpt lat="39.828765" lon="16.3178617"><ele>277.0</ele><time>2026-05-03T13:15:40.883Z</time></trkpt><trkpt lat="39.8287117" lon="16.317815"><ele>277.0</ele><time>2026-05-03T13:15:43.883Z</time></trkpt><trkpt lat="39.8287433" lon="16.31771"><ele>277.0</ele><time>2026-05-03T13:15:46.884Z</time></trkpt><trkpt lat="39.82878" lon="16.317595"><ele>277.0</ele><time>2026-05-03T13:15:49.883Z</time></trkpt><trkpt lat="39.8287617" lon="16.3175117"><ele>277.0</ele><time>2026-05-03T13:15:51.884Z</time></trkpt><trkpt lat="39.8287" lon="16.317485"><ele>277.0</ele><time>2026-05-03T13:15:54.883Z</time></trkpt><trkpt lat="39.8286267" lon="16.3174717"><ele>277.0</ele><time>2026-05-03T13:15:56.884Z</time></trkpt><trkpt lat="39.828555" lon="16.3174333"><ele>277.0</ele><time>2026-05-03T13:15:58.883Z</time></trkpt><trkpt lat="39.82853" lon="16.31734"><ele>277.0</ele><time>2026-05-03T13:16:00.884Z</time></trkpt><trkpt lat="39.8285617" lon="16.3172633"><ele>277.0</ele><time>2026-05-03T13:16:02.883Z</time></trkpt><trkpt lat="39.8286233" lon="16.3172217"><ele>277.0</ele><time>2026-05-03T13:16:04.884Z</time></trkpt><trkpt lat="39.8286783" lon="16.317155"><ele>280.57142857142856</ele><time>2026-05-03T13:16:06.884Z</time></trkpt><trkpt lat="39.8287333" lon="16.31708"><ele>284.1428571428571</ele><time>2026-05-03T13:16:08.884Z</time></trkpt><trkpt lat="39.8287883" lon="16.3170317"><ele>287.7142857142857</ele><time>2026-05-03T13:16:10.884Z</time></trkpt><trkpt lat="39.828855" lon="16.316975"><ele>291.2857142857143</ele><time>2026-05-03T13:16:12.883Z</time></trkpt><trkpt lat="39.828905" lon="16.31692"><ele>294.8571428571429</ele><time>2026-05-03T13:16:14.884Z</time></trkpt><trkpt lat="39.828965" lon="16.3168933"><ele>298.42857142857144</ele><time>2026-05-03T13:16:16.884Z</time></trkpt><trkpt lat="39.8290383" lon="16.316885"><ele>302.0</ele><time>2026-05-03T13:16:18.884Z</time></trkpt><trkpt lat="39.8291133" lon="16.3168833"><ele>302.0</ele><time>2026-05-03T13:16:20.884Z</time></trkpt><trkpt lat="39.8291833" lon="16.3168967"><ele>302.0</ele><time>2026-05-03T13:16:22.884Z</time></trkpt><trkpt lat="39.82926" lon="16.3168483"><ele>302.0</ele><time>2026-05-03T13:16:25.883Z</time></trkpt><trkpt lat="39.8292267" lon="16.316775"><ele>302.0</ele><time>2026-05-03T13:16:27.883Z</time></trkpt><trkpt lat="39.82918" lon="16.3167067"><ele>302.0</ele><time>2026-05-03T13:16:29.884Z</time></trkpt><trkpt lat="39.8291617" lon="16.31659"><ele>302.0</ele><time>2026-05-03T13:16:32.884Z</time></trkpt><trkpt lat="39.8292017" lon="16.316505"><ele>302.0</ele><time>2026-05-03T13:16:35.883Z</time></trkpt><trkpt lat="39.8292883" lon="16.31647"><ele>302.0</ele><time>2026-05-03T13:16:38.884Z</time></trkpt><trkpt lat="39.82936" lon="16.3164567"><ele>302.0</ele><time>2026-05-03T13:16:40.883Z</time></trkpt><trkpt lat="39.8294233" lon="16.31644"><ele>302.0</ele><time>2026-05-03T13:16:42.884Z</time></trkpt><trkpt lat="39.8295067" lon="16.3164183"><ele>302.0</ele><time>2026-05-03T13:16:44.884Z</time></trkpt><trkpt lat="39.8295867" lon="16.3163933"><ele>302.0</ele><time>2026-05-03T13:16:47.884Z</time></trkpt><trkpt lat="39.8295583" lon="16.31629"><ele>306.5714285714286</ele><time>2026-05-03T13:16:50.884Z</time></trkpt><trkpt lat="39.8295033" lon="16.3162333"><ele>311.14285714285717</ele><time>2026-05-03T13:16:52.883Z</time></trkpt><trkpt lat="39.8294683" lon="16.3161533"><ele>315.7142857142857</ele><time>2026-05-03T13:16:54.884Z</time></trkpt><trkpt lat="39.8294267" lon="16.3160767"><ele>320.28571428571433</ele><time>2026-05-03T13:16:56.884Z</time></trkpt><trkpt lat="39.8293783" lon="16.3159817"><ele>324.8571428571429</ele><time>2026-05-03T13:16:59.884Z</time></trkpt><trkpt lat="39.8293783" lon="16.3158983"><ele>329.42857142857144</ele><time>2026-05-03T13:17:01.884Z</time></trkpt><trkpt lat="39.8294267" lon="16.3158117"><ele>334.0</ele><time>2026-05-03T13:17:04.883Z</time></trkpt><trkpt lat="39.8294867" lon="16.3157217"><ele>334.0</ele><time>2026-05-03T13:17:07.884Z</time></trkpt><trkpt lat="39.8295367" lon="16.31564"><ele>334.0</ele><time>2026-05-03T13:17:09.883Z</time></trkpt><trkpt lat="39.8295917" lon="16.3155567"><ele>334.0</ele><time>2026-05-03T13:17:11.884Z</time></trkpt><trkpt lat="39.8296567" lon="16.3155017"><ele>334.0</ele><time>2026-05-03T13:17:13.884Z</time></trkpt><trkpt lat="39.829725" lon="16.3154867"><ele>334.0</ele><time>2026-05-03T13:17:15.884Z</time></trkpt><trkpt lat="39.829815" lon="16.31549"><ele>334.0</ele><time>2026-05-03T13:17:18.884Z</time></trkpt><trkpt lat="39.8298767" lon="16.31546"><ele>339.1428571428571</ele><time>2026-05-03T13:17:20.884Z</time></trkpt><trkpt lat="39.8299133" lon="16.315385"><ele>344.2857142857143</ele><time>2026-05-03T13:17:22.884Z</time></trkpt><trkpt lat="39.829885" lon="16.3153083"><ele>349.42857142857144</ele><time>2026-05-03T13:17:24.884Z</time></trkpt><trkpt lat="39.82979" lon="16.31525"><ele>354.57142857142856</ele><time>2026-05-03T13:17:26.884Z</time></trkpt><trkpt lat="39.829735" lon="16.3152017"><ele>359.7142857142857</ele><time>2026-05-03T13:17:27.884Z</time></trkpt><trkpt lat="39.8296867" lon="16.3151483"><ele>364.85714285714283</ele><time>2026-05-03T13:17:28.884Z</time></trkpt><trkpt lat="39.829635" lon="16.3150933"><ele>370.0</ele><time>2026-05-03T13:17:29.883Z</time></trkpt><trkpt lat="39.8295433" lon="16.315025"><ele>370.0</ele><time>2026-05-03T13:17:31.884Z</time></trkpt><trkpt lat="39.82945" lon="16.3150383"><ele>370.0</ele><time>2026-05-03T13:17:33.884Z</time></trkpt><trkpt lat="39.829395" lon="16.315145"><ele>370.0</ele><time>2026-05-03T13:17:35.884Z</time></trkpt><trkpt lat="39.8293583" lon="16.3152867"><ele>370.0</ele><time>2026-05-03T13:17:37.884Z</time></trkpt><trkpt lat="39.8293017" lon="16.31534"><ele>370.0</ele><time>2026-05-03T13:17:39.884Z</time></trkpt><trkpt lat="39.8292483" lon="16.3152833"><ele>370.0</ele><time>2026-05-03T13:17:41.884Z</time></trkpt><trkpt lat="39.8292433" lon="16.3151967"><ele>370.0</ele><time>2026-05-03T13:17:43.883Z</time></trkpt><trkpt lat="39.8292717" lon="16.3151067"><ele>370.0</ele><time>2026-05-03T13:17:45.884Z</time></trkpt><trkpt lat="39.8292917" lon="16.3150183"><ele>370.0</ele><time>2026-05-03T13:17:47.884Z</time></trkpt><trkpt lat="39.8293133" lon="16.3149217"><ele>370.0</ele><time>2026-05-03T13:17:49.884Z</time></trkpt><trkpt lat="39.829335" lon="16.31482"><ele>370.0</ele><time>2026-05-03T13:17:51.884Z</time></trkpt><trkpt lat="39.82934" lon="16.3147083"><ele>370.0</ele><time>2026-05-03T13:17:53.884Z</time></trkpt><trkpt lat="39.8293383" lon="16.31457"><ele>374.3333333333333</ele><time>2026-05-03T13:17:55.883Z</time></trkpt><trkpt lat="39.8293533" lon="16.3144183"><ele>378.66666666666663</ele><time>2026-05-03T13:17:57.884Z</time></trkpt><trkpt lat="39.8293817" lon="16.314335"><ele>383.0</ele><time>2026-05-03T13:17:58.884Z</time></trkpt><trkpt lat="39.8294117" lon="16.3142483"><ele>387.3333333333333</ele><time>2026-05-03T13:17:59.883Z</time></trkpt><trkpt lat="39.8294467" lon="16.3141633"><ele>391.6666666666667</ele><time>2026-05-03T13:18:00.884Z</time></trkpt><trkpt lat="39.8294683" lon="16.3140667"><ele>396.0</ele><time>2026-05-03T13:18:01.884Z</time></trkpt><trkpt lat="39.829485" lon="16.3139683"><ele>398.14285714285717</ele><time>2026-05-03T13:18:02.884Z</time></trkpt><trkpt lat="39.829505" lon="16.3138717"><ele>400.2857142857143</ele><time>2026-05-03T13:18:03.884Z</time></trkpt><trkpt lat="39.8295267" lon="16.3137767"><ele>402.42857142857144</ele><time>2026-05-03T13:18:04.884Z</time></trkpt><trkpt lat="39.829545" lon="16.3136883"><ele>404.57142857142856</ele><time>2026-05-03T13:18:05.884Z</time></trkpt><trkpt lat="39.8295633" lon="16.3136017"><ele>406.71428571428567</ele><time>2026-05-03T13:18:06.884Z</time></trkpt><trkpt lat="39.82958" lon="16.313515"><ele>408.85714285714283</ele><time>2026-05-03T13:18:07.884Z</time></trkpt><trkpt lat="39.8295967" lon="16.313435"><ele>411.0</ele><time>2026-05-03T13:18:08.884Z</time></trkpt><trkpt lat="39.829615" lon="16.31335"><ele>411.0</ele><time>2026-05-03T13:18:09.884Z</time></trkpt><trkpt lat="39.8296517" lon="16.3132033"><ele>411.0</ele><time>2026-05-03T13:18:11.883Z</time></trkpt><trkpt lat="39.8296467" lon="16.313085"><ele>411.0</ele><time>2026-05-03T13:18:14.883Z</time></trkpt><trkpt lat="39.829555" lon="16.3129967"><ele>411.0</ele><time>2026-05-03T13:18:16.884Z</time></trkpt><trkpt lat="39.8294833" lon="16.3129583"><ele>411.0</ele><time>2026-05-03T13:18:17.884Z</time></trkpt><trkpt lat="39.82941" lon="16.3129283"><ele>411.3333333333333</ele><time>2026-05-03T13:18:18.884Z</time></trkpt><trkpt lat="39.8293317" lon="16.3129133"><ele>411.66666666666663</ele><time>2026-05-03T13:18:19.884Z</time></trkpt><trkpt lat="39.829265" lon="16.31291"><ele>412.0</ele><time>2026-05-03T13:18:20.884Z</time></trkpt><trkpt lat="39.8292" lon="16.31292"><ele>412.3333333333333</ele><time>2026-05-03T13:18:21.884Z</time></trkpt><trkpt lat="39.8291067" lon="16.3130283"><ele>412.66666666666663</ele><time>2026-05-03T13:18:23.884Z</time></trkpt><trkpt lat="39.8290733" lon="16.3131167"><ele>413.0</ele><time>2026-05-03T13:18:24.884Z</time></trkpt><trkpt lat="39.8290483" lon="16.3132117"><ele>413.0</ele><time>2026-05-03T13:18:25.883Z</time></trkpt><trkpt lat="39.8290283" lon="16.3133"><ele>413.0</ele><time>2026-05-03T13:18:26.884Z</time></trkpt><trkpt lat="39.8290083" lon="16.3133883"><ele>413.0</ele><time>2026-05-03T13:18:27.883Z</time></trkpt><trkpt lat="39.8289917" lon="16.31348"><ele>413.0</ele><time>2026-05-03T13:18:28.883Z</time></trkpt><trkpt lat="39.8289717" lon="16.3135683"><ele>413.0</ele><time>2026-05-03T13:18:29.883Z</time></trkpt><trkpt lat="39.8289467" lon="16.3136517"><ele>413.0</ele><time>2026-05-03T13:18:30.884Z</time></trkpt><trkpt lat="39.8289183" lon="16.313735"><ele>413.0</ele><time>2026-05-03T13:18:31.884Z</time></trkpt><trkpt lat="39.8288833" lon="16.3138133"><ele>409.75</ele><time>2026-05-03T13:18:32.884Z</time></trkpt><trkpt lat="39.8288117" lon="16.3139383"><ele>406.5</ele><time>2026-05-03T13:18:34.884Z</time></trkpt><trkpt lat="39.8287267" lon="16.3140383"><ele>403.25</ele><time>2026-05-03T13:18:36.884Z</time></trkpt><trkpt lat="39.8286183" lon="16.314065"><ele>400.0</ele><time>2026-05-03T13:18:38.884Z</time></trkpt><trkpt lat="39.8285" lon="16.3141117"><ele>402.1666666666667</ele><time>2026-05-03T13:18:40.884Z</time></trkpt><trkpt lat="39.8284283" lon="16.3141367"><ele>404.33333333333337</ele><time>2026-05-03T13:18:41.883Z</time></trkpt><trkpt lat="39.828355" lon="16.314155"><ele>406.5</ele><time>2026-05-03T13:18:42.884Z</time></trkpt><trkpt lat="39.8282883" lon="16.3141717"><ele>408.66666666666663</ele><time>2026-05-03T13:18:43.884Z</time></trkpt><trkpt lat="39.8281783" lon="16.31422"><ele>410.8333333333333</ele><time>2026-05-03T13:18:45.883Z</time></trkpt><trkpt lat="39.8280833" lon="16.3142183"><ele>413.0</ele><time>2026-05-03T13:18:47.883Z</time></trkpt><trkpt lat="39.8280183" lon="16.3141633"><ele>412.99999999999994</ele><time>2026-05-03T13:18:49.884Z</time></trkpt><trkpt lat="39.8279533" lon="16.314085"><ele>413.0</ele><time>2026-05-03T13:18:51.884Z</time></trkpt><trkpt lat="39.8279383" lon="16.313985"><ele>413.0</ele><time>2026-05-03T13:18:53.884Z</time></trkpt><trkpt lat="39.8278783" lon="16.3139217"><ele>413.0</ele><time>2026-05-03T13:18:56.883Z</time></trkpt><trkpt lat="39.8277883" lon="16.3139183"><ele>412.99999999999994</ele><time>2026-05-03T13:18:58.883Z</time></trkpt><trkpt lat="39.82768" lon="16.3139517"><ele>413.0</ele><time>2026-05-03T13:19:00.884Z</time></trkpt><trkpt lat="39.8276" lon="16.31399"><ele>413.99999999999994</ele><time>2026-05-03T13:19:02.884Z</time></trkpt><trkpt lat="39.8275333" lon="16.3139567"><ele>415.0</ele><time>2026-05-03T13:19:04.883Z</time></trkpt><trkpt lat="39.8274833" lon="16.3138833"><ele>416.0</ele><time>2026-05-03T13:19:06.883Z</time></trkpt><trkpt lat="39.8274783" lon="16.3137917"><ele>417.0</ele><time>2026-05-03T13:19:09.884Z</time></trkpt><trkpt lat="39.82753" lon="16.3136933"><ele>417.99999999999994</ele><time>2026-05-03T13:19:11.884Z</time></trkpt><trkpt lat="39.8275967" lon="16.3135917"><ele>419.0</ele><time>2026-05-03T13:19:13.883Z</time></trkpt><trkpt lat="39.8276467" lon="16.313515"><ele>419.66666666666663</ele><time>2026-05-03T13:19:15.884Z</time></trkpt><trkpt lat="39.8276383" lon="16.313395"><ele>420.3333333333333</ele><time>2026-05-03T13:19:18.883Z</time></trkpt><trkpt lat="39.8275767" lon="16.3133067"><ele>421.0</ele><time>2026-05-03T13:19:20.883Z</time></trkpt><trkpt lat="39.827525" lon="16.3132317"><ele>421.66666666666663</ele><time>2026-05-03T13:19:22.883Z</time></trkpt><trkpt lat="39.827495" lon="16.3131517"><ele>422.3333333333333</ele><time>2026-05-03T13:19:24.884Z</time></trkpt><trkpt lat="39.8274283" lon="16.3131133"><ele>423.0</ele><time>2026-05-03T13:34:36.884Z</time></trkpt><trkpt lat="39.8273433" lon="16.313075"><ele>425.1666666666667</ele><time>2026-05-03T13:34:38.884Z</time></trkpt><trkpt lat="39.8272633" lon="16.3130467"><ele>427.33333333333337</ele><time>2026-05-03T13:34:40.884Z</time></trkpt><trkpt lat="39.8271667" lon="16.3130283"><ele>429.5</ele><time>2026-05-03T13:34:42.884Z</time></trkpt><trkpt lat="39.82707" lon="16.3129933"><ele>431.6666666666667</ele><time>2026-05-03T13:34:44.884Z</time></trkpt><trkpt lat="39.8269917" lon="16.3129717"><ele>433.83333333333337</ele><time>2026-05-03T13:34:46.884Z</time></trkpt><trkpt lat="39.826905" lon="16.31298"><ele>436.0</ele><time>2026-05-03T13:34:48.884Z</time></trkpt><trkpt lat="39.82679" lon="16.3129983"><ele>438.6</ele><time>2026-05-03T13:34:50.883Z</time></trkpt><trkpt lat="39.826675" lon="16.3129983"><ele>441.20000000000005</ele><time>2026-05-03T13:34:52.884Z</time></trkpt><trkpt lat="39.8265683" lon="16.3130117"><ele>443.79999999999995</ele><time>2026-05-03T13:34:54.884Z</time></trkpt><trkpt lat="39.8264933" lon="16.313015"><ele>446.4</ele><time>2026-05-03T13:34:56.884Z</time></trkpt><trkpt lat="39.82641" lon="16.313005"><ele>449.0</ele><time>2026-05-03T13:34:59.884Z</time></trkpt><trkpt lat="39.8263367" lon="16.3130017"><ele>449.0</ele><time>2026-05-03T13:35:01.884Z</time></trkpt><trkpt lat="39.826235" lon="16.3130267"><ele>449.0</ele><time>2026-05-03T13:35:03.884Z</time></trkpt><trkpt lat="39.8261683" lon="16.313045"><ele>449.0</ele><time>2026-05-03T13:35:04.884Z</time></trkpt><trkpt lat="39.8261033" lon="16.3130583"><ele>449.0</ele><time>2026-05-03T13:35:05.883Z</time></trkpt><trkpt lat="39.825995" lon="16.31307"><ele>449.0</ele><time>2026-05-03T13:35:07.884Z</time></trkpt><trkpt lat="39.8258583" lon="16.3130883"><ele>442.6</ele><time>2026-05-03T13:35:09.884Z</time></trkpt><trkpt lat="39.8257683" lon="16.313105"><ele>436.2</ele><time>2026-05-03T13:35:10.884Z</time></trkpt><trkpt lat="39.8256767" lon="16.3131183"><ele>429.8</ele><time>2026-05-03T13:35:11.884Z</time></trkpt><trkpt lat="39.8255917" lon="16.31315"><ele>423.40000000000003</ele><time>2026-05-03T13:35:12.884Z</time></trkpt><trkpt lat="39.8255017" lon="16.3131867"><ele>417.0</ele><time>2026-05-03T13:35:13.884Z</time></trkpt><trkpt lat="39.825415" lon="16.3132017"><ele>417.0</ele><time>2026-05-03T13:35:14.884Z</time></trkpt><trkpt lat="39.8253317" lon="16.3132383"><ele>417.0</ele><time>2026-05-03T13:35:15.884Z</time></trkpt><trkpt lat="39.8252467" lon="16.3132717"><ele>417.0</ele><time>2026-05-03T13:35:16.884Z</time></trkpt><trkpt lat="39.8251683" lon="16.3132967"><ele>417.0</ele><time>2026-05-03T13:35:17.883Z</time></trkpt><trkpt lat="39.82509" lon="16.3133117"><ele>417.0</ele><time>2026-05-03T13:35:18.884Z</time></trkpt><trkpt lat="39.8250117" lon="16.3133267"><ele>417.0</ele><time>2026-05-03T13:35:19.884Z</time></trkpt><trkpt lat="39.8249433" lon="16.313345"><ele>419.8333333333333</ele><time>2026-05-03T13:35:20.884Z</time></trkpt><trkpt lat="39.82487" lon="16.3133683"><ele>422.66666666666663</ele><time>2026-05-03T13:35:21.883Z</time></trkpt><trkpt lat="39.8247383" lon="16.3134017"><ele>425.5</ele><time>2026-05-03T13:35:23.884Z</time></trkpt><trkpt lat="39.8246667" lon="16.3134033"><ele>428.3333333333333</ele><time>2026-05-03T13:35:24.884Z</time></trkpt><trkpt lat="39.8245933" lon="16.3134017"><ele>431.16666666666663</ele><time>2026-05-03T13:35:25.884Z</time></trkpt><trkpt lat="39.8245233" lon="16.3134167"><ele>434.0</ele><time>2026-05-03T13:35:26.884Z</time></trkpt><trkpt lat="39.82446" lon="16.313445"><ele>434.0</ele><time>2026-05-03T13:35:27.884Z</time></trkpt><trkpt lat="39.8243167" lon="16.3134833"><ele>434.0</ele><time>2026-05-03T13:35:29.883Z</time></trkpt><trkpt lat="39.8242383" lon="16.3135133"><ele>434.0</ele><time>2026-05-03T13:35:30.884Z</time></trkpt><trkpt lat="39.8241617" lon="16.31354"><ele>434.0</ele><time>2026-05-03T13:35:31.884Z</time></trkpt><trkpt lat="39.8240867" lon="16.31357"><ele>434.0</ele><time>2026-05-03T13:35:32.884Z</time></trkpt><trkpt lat="39.8240083" lon="16.3136017"><ele>438.6</ele><time>2026-05-03T13:35:33.884Z</time></trkpt><trkpt lat="39.82393" lon="16.3136317"><ele>443.2</ele><time>2026-05-03T13:35:34.883Z</time></trkpt><trkpt lat="39.8238417" lon="16.3136533"><ele>447.80000000000007</ele><time>2026-05-03T13:35:35.884Z</time></trkpt><trkpt lat="39.8237417" lon="16.3136717"><ele>452.40000000000003</ele><time>2026-05-03T13:35:36.884Z</time></trkpt><trkpt lat="39.8236183" lon="16.3137067"><ele>457.0</ele><time>2026-05-03T13:35:37.884Z</time></trkpt><trkpt lat="39.8234867" lon="16.3137883"><ele>461.0</ele><time>2026-05-03T13:35:38.884Z</time></trkpt><trkpt lat="39.82335" lon="16.313905"><ele>465.0</ele><time>2026-05-03T13:35:39.883Z</time></trkpt><trkpt lat="39.8232267" lon="16.3140267"><ele>469.0</ele><time>2026-05-03T13:35:40.884Z</time></trkpt><trkpt lat="39.8231133" lon="16.3141317"><ele>459.25</ele><time>2026-05-03T13:35:41.884Z</time></trkpt><trkpt lat="39.8229867" lon="16.3142333"><ele>449.5</ele><time>2026-05-03T13:35:42.884Z</time></trkpt><trkpt lat="39.82286" lon="16.3143167"><ele>439.75</ele><time>2026-05-03T13:35:43.884Z</time></trkpt><trkpt lat="39.8227383" lon="16.3143817"><ele>430.0</ele><time>2026-05-03T13:35:44.884Z</time></trkpt><trkpt lat="39.822625" lon="16.31443"><ele>430.0</ele><time>2026-05-03T13:35:45.884Z</time></trkpt><trkpt lat="39.8225083" lon="16.3144533"><ele>430.0</ele><time>2026-05-03T13:35:46.884Z</time></trkpt><trkpt lat="39.8223967" lon="16.3144383"><ele>430.0</ele><time>2026-05-03T13:35:47.884Z</time></trkpt><trkpt lat="39.822295" lon="16.3144067"><ele>430.0</ele><time>2026-05-03T13:35:48.884Z</time></trkpt><trkpt lat="39.8222033" lon="16.314355"><ele>430.0</ele><time>2026-05-03T13:35:49.884Z</time></trkpt><trkpt lat="39.8221183" lon="16.3142983"><ele>430.00000000000006</ele><time>2026-05-03T13:35:50.884Z</time></trkpt><trkpt lat="39.8220333" lon="16.31425"><ele>430.0</ele><time>2026-05-03T13:35:51.884Z</time></trkpt><trkpt lat="39.8219567" lon="16.3142017"><ele>430.0</ele><time>2026-05-03T13:35:52.883Z</time></trkpt><trkpt lat="39.8218883" lon="16.3141417"><ele>430.0</ele><time>2026-05-03T13:35:53.884Z</time></trkpt><trkpt lat="39.82183" lon="16.3140717"><ele>430.00000000000006</ele><time>2026-05-03T13:35:54.884Z</time></trkpt><trkpt lat="39.8217717" lon="16.31399"><ele>430.0</ele><time>2026-05-03T13:35:55.884Z</time></trkpt><trkpt lat="39.82172" lon="16.3138867"><ele>428.4</ele><time>2026-05-03T13:35:56.884Z</time></trkpt><trkpt lat="39.8216867" lon="16.3137833"><ele>426.8</ele><time>2026-05-03T13:35:57.884Z</time></trkpt><trkpt lat="39.8216733" lon="16.3136767"><ele>425.20000000000005</ele><time>2026-05-03T13:35:58.883Z</time></trkpt><trkpt lat="39.8216617" lon="16.3135617"><ele>423.6</ele><time>2026-05-03T13:35:59.884Z</time></trkpt><trkpt lat="39.82165" lon="16.3134417"><ele>422.0</ele><time>2026-05-03T13:36:00.883Z</time></trkpt><trkpt lat="39.82163" lon="16.3133133"><ele>422.0</ele><time>2026-05-03T13:36:01.884Z</time></trkpt><trkpt lat="39.8216133" lon="16.3131833"><ele>422.0</ele><time>2026-05-03T13:36:02.884Z</time></trkpt><trkpt lat="39.82158" lon="16.3130633"><ele>422.0</ele><time>2026-05-03T13:36:03.884Z</time></trkpt><trkpt lat="39.8215267" lon="16.31295"><ele>422.0</ele><time>2026-05-03T13:36:04.883Z</time></trkpt><trkpt lat="39.8214517" lon="16.3128583"><ele>422.0</ele><time>2026-05-03T13:36:05.884Z</time></trkpt><trkpt lat="39.82137" lon="16.31278"><ele>423.40000000000003</ele><time>2026-05-03T13:36:06.883Z</time></trkpt><trkpt lat="39.8212867" lon="16.3127133"><ele>424.8</ele><time>2026-05-03T13:36:07.883Z</time></trkpt><trkpt lat="39.8212033" lon="16.3126483"><ele>426.2</ele><time>2026-05-03T13:36:08.883Z</time></trkpt><trkpt lat="39.8211167" lon="16.31258"><ele>427.6</ele><time>2026-05-03T13:36:09.884Z</time></trkpt><trkpt lat="39.8210217" lon="16.3125117"><ele>429.0</ele><time>2026-05-03T13:36:10.883Z</time></trkpt><trkpt lat="39.82092" lon="16.3124567"><ele>427.79999999999995</ele><time>2026-05-03T13:36:11.884Z</time></trkpt><trkpt lat="39.8208283" lon="16.31241"><ele>426.59999999999997</ele><time>2026-05-03T13:36:12.883Z</time></trkpt><trkpt lat="39.820755" lon="16.3123467"><ele>425.4</ele><time>2026-05-03T13:36:13.884Z</time></trkpt><trkpt lat="39.8206817" lon="16.3122733"><ele>424.2</ele><time>2026-05-03T13:36:14.883Z</time></trkpt><trkpt lat="39.8206233" lon="16.312175"><ele>423.0</ele><time>2026-05-03T13:36:15.884Z</time></trkpt><trkpt lat="39.8205783" lon="16.312065"><ele>423.0</ele><time>2026-05-03T13:36:16.883Z</time></trkpt><trkpt lat="39.8205383" lon="16.3119483"><ele>423.0</ele><time>2026-05-03T13:36:17.884Z</time></trkpt><trkpt lat="39.8204983" lon="16.31183"><ele>423.0</ele><time>2026-05-03T13:36:18.884Z</time></trkpt><trkpt lat="39.820455" lon="16.3117067"><ele>423.0</ele><time>2026-05-03T13:36:19.884Z</time></trkpt><trkpt lat="39.8204" lon="16.3115817"><ele>423.0</ele><time>2026-05-03T13:36:20.884Z</time></trkpt><trkpt lat="39.8203517" lon="16.3114517"><ele>426.75</ele><time>2026-05-03T13:36:21.883Z</time></trkpt><trkpt lat="39.8203033" lon="16.3113117"><ele>430.5</ele><time>2026-05-03T13:36:22.883Z</time></trkpt><trkpt lat="39.8202567" lon="16.3111667"><ele>434.25</ele><time>2026-05-03T13:36:23.884Z</time></trkpt><trkpt lat="39.8202133" lon="16.311005"><ele>438.0</ele><time>2026-05-03T13:36:24.883Z</time></trkpt><trkpt lat="39.8201617" lon="16.31085"><ele>432.25</ele><time>2026-05-03T13:36:25.884Z</time></trkpt><trkpt lat="39.82011" lon="16.3107"><ele>426.5</ele><time>2026-05-03T13:36:26.884Z</time></trkpt><trkpt lat="39.82005" lon="16.31055"><ele>420.75</ele><time>2026-05-03T13:36:27.884Z</time></trkpt><trkpt lat="39.8199833" lon="16.31042"><ele>415.0</ele><time>2026-05-03T13:36:28.884Z</time></trkpt><trkpt lat="39.8199" lon="16.3102983"><ele>415.0</ele><time>2026-05-03T13:36:29.883Z</time></trkpt><trkpt lat="39.8198067" lon="16.3102083"><ele>415.0</ele><time>2026-05-03T13:36:30.884Z</time></trkpt><trkpt lat="39.8197133" lon="16.31014"><ele>415.0</ele><time>2026-05-03T13:36:31.884Z</time></trkpt><trkpt lat="39.819625" lon="16.31006"><ele>415.0</ele><time>2026-05-03T13:36:32.883Z</time></trkpt><trkpt lat="39.8195567" lon="16.30995"><ele>415.0</ele><time>2026-05-03T13:36:33.884Z</time></trkpt><trkpt lat="39.81951" lon="16.309835"><ele>413.5</ele><time>2026-05-03T13:36:34.884Z</time></trkpt><trkpt lat="39.81948" lon="16.3097067"><ele>412.0</ele><time>2026-05-03T13:36:35.884Z</time></trkpt><trkpt lat="39.8194717" lon="16.3095583"><ele>410.5</ele><time>2026-05-03T13:36:36.883Z</time></trkpt><trkpt lat="39.8194717" lon="16.3094067"><ele>409.0</ele><time>2026-05-03T13:36:37.884Z</time></trkpt><trkpt lat="39.8194733" lon="16.309245"><ele>409.0</ele><time>2026-05-03T13:36:38.884Z</time></trkpt><trkpt lat="39.8194767" lon="16.3090817"><ele>409.0</ele><time>2026-05-03T13:36:39.883Z</time></trkpt><trkpt lat="39.8194733" lon="16.30891"><ele>409.0</ele><time>2026-05-03T13:36:40.884Z</time></trkpt><trkpt lat="39.8194733" lon="16.308745"><ele>409.0</ele><time>2026-05-03T13:36:41.884Z</time></trkpt><trkpt lat="39.8194733" lon="16.30858"><ele>407.75</ele><time>2026-05-03T13:36:42.884Z</time></trkpt><trkpt lat="39.8194783" lon="16.3084233"><ele>406.5</ele><time>2026-05-03T13:36:43.883Z</time></trkpt><trkpt lat="39.8194917" lon="16.3082683"><ele>405.25</ele><time>2026-05-03T13:36:44.883Z</time></trkpt><trkpt lat="39.819525" lon="16.3081267"><ele>404.0</ele><time>2026-05-03T13:36:45.883Z</time></trkpt><trkpt lat="39.8195833" lon="16.308005"><ele>401.79999999999995</ele><time>2026-05-03T13:36:46.884Z</time></trkpt><trkpt lat="39.8196583" lon="16.3078967"><ele>399.59999999999997</ele><time>2026-05-03T13:36:47.884Z</time></trkpt><trkpt lat="39.8197467" lon="16.3078017"><ele>397.4</ele><time>2026-05-03T13:36:48.884Z</time></trkpt><trkpt lat="39.81983" lon="16.3077233"><ele>395.2</ele><time>2026-05-03T13:36:49.884Z</time></trkpt><trkpt lat="39.819905" lon="16.3076567"><ele>393.0</ele><time>2026-05-03T13:36:50.884Z</time></trkpt><trkpt lat="39.8199667" lon="16.30759"><ele>393.0</ele><time>2026-05-03T13:36:51.884Z</time></trkpt><trkpt lat="39.8200233" lon="16.307515"><ele>393.0</ele><time>2026-05-03T13:36:52.883Z</time></trkpt><trkpt lat="39.8200867" lon="16.30744"><ele>393.0</ele><time>2026-05-03T13:36:53.884Z</time></trkpt><trkpt lat="39.820145" lon="16.3073583"><ele>393.0</ele><time>2026-05-03T13:36:54.884Z</time></trkpt><trkpt lat="39.8202083" lon="16.3072733"><ele>393.0</ele><time>2026-05-03T13:36:55.884Z</time></trkpt><trkpt lat="39.820265" lon="16.307175"><ele>393.0</ele><time>2026-05-03T13:36:56.884Z</time></trkpt><trkpt lat="39.82032" lon="16.3070867"><ele>395.59999999999997</ele><time>2026-05-03T13:36:57.884Z</time></trkpt><trkpt lat="39.82038" lon="16.3070033"><ele>398.2</ele><time>2026-05-03T13:36:58.884Z</time></trkpt><trkpt lat="39.82044" lon="16.30691"><ele>400.8</ele><time>2026-05-03T13:36:59.884Z</time></trkpt><trkpt lat="39.820505" lon="16.30681"><ele>403.4</ele><time>2026-05-03T13:37:00.884Z</time></trkpt><trkpt lat="39.820575" lon="16.30671"><ele>406.0</ele><time>2026-05-03T13:37:01.884Z</time></trkpt><trkpt lat="39.8206483" lon="16.3066033"><ele>406.0</ele><time>2026-05-03T13:37:02.883Z</time></trkpt><trkpt lat="39.8207183" lon="16.3064967"><ele>406.0</ele><time>2026-05-03T13:37:03.884Z</time></trkpt><trkpt lat="39.820785" lon="16.3063867"><ele>406.0</ele><time>2026-05-03T13:37:04.883Z</time></trkpt><trkpt lat="39.820845" lon="16.3062633"><ele>406.0</ele><time>2026-05-03T13:37:05.884Z</time></trkpt><trkpt lat="39.82088" lon="16.306125"><ele>406.0</ele><time>2026-05-03T13:37:06.884Z</time></trkpt><trkpt lat="39.8208983" lon="16.3059833"><ele>403.75</ele><time>2026-05-03T13:37:07.883Z</time></trkpt><trkpt lat="39.820895" lon="16.3058433"><ele>401.5</ele><time>2026-05-03T13:37:08.883Z</time></trkpt><trkpt lat="39.82087" lon="16.3056983"><ele>399.25</ele><time>2026-05-03T13:37:09.884Z</time></trkpt><trkpt lat="39.8208383" lon="16.3055567"><ele>397.0</ele><time>2026-05-03T13:37:10.883Z</time></trkpt><trkpt lat="39.8208" lon="16.305415"><ele>396.6</ele><time>2026-05-03T13:37:11.884Z</time></trkpt><trkpt lat="39.8207583" lon="16.3052717"><ele>396.20000000000005</ele><time>2026-05-03T13:37:12.884Z</time></trkpt><trkpt lat="39.820725" lon="16.305135"><ele>395.8</ele><time>2026-05-03T13:37:13.884Z</time></trkpt><trkpt lat="39.820705" lon="16.305005"><ele>395.4</ele><time>2026-05-03T13:37:14.884Z</time></trkpt><trkpt lat="39.8207" lon="16.3048733"><ele>395.0</ele><time>2026-05-03T13:37:15.884Z</time></trkpt><trkpt lat="39.8207183" lon="16.30475"><ele>394.2</ele><time>2026-05-03T13:37:16.884Z</time></trkpt><trkpt lat="39.8207617" lon="16.3046283"><ele>393.4</ele><time>2026-05-03T13:37:17.884Z</time></trkpt><trkpt lat="39.8208233" lon="16.304515"><ele>392.6</ele><time>2026-05-03T13:37:18.884Z</time></trkpt><trkpt lat="39.8208933" lon="16.3044117"><ele>391.8</ele><time>2026-05-03T13:37:19.884Z</time></trkpt><trkpt lat="39.8209667" lon="16.304315"><ele>391.0</ele><time>2026-05-03T13:37:20.883Z</time></trkpt><trkpt lat="39.82104" lon="16.304215"><ele>393.6</ele><time>2026-05-03T13:37:21.884Z</time></trkpt><trkpt lat="39.8211167" lon="16.304115"><ele>396.20000000000005</ele><time>2026-05-03T13:37:22.884Z</time></trkpt><trkpt lat="39.8211967" lon="16.30401"><ele>398.79999999999995</ele><time>2026-05-03T13:37:23.883Z</time></trkpt><trkpt lat="39.8212717" lon="16.3039017"><ele>401.4</ele><time>2026-05-03T13:37:24.884Z</time></trkpt><trkpt lat="39.8213517" lon="16.3037967"><ele>404.0</ele><time>2026-05-03T13:37:25.884Z</time></trkpt><trkpt lat="39.8214317" lon="16.3036917"><ele>404.0</ele><time>2026-05-03T13:37:26.884Z</time></trkpt><trkpt lat="39.821505" lon="16.30358"><ele>404.0</ele><time>2026-05-03T13:37:27.884Z</time></trkpt><trkpt lat="39.8215717" lon="16.30346"><ele>404.0</ele><time>2026-05-03T13:37:28.884Z</time></trkpt><trkpt lat="39.8216217" lon="16.3033233"><ele>404.0</ele><time>2026-05-03T13:37:29.884Z</time></trkpt><trkpt lat="39.821655" lon="16.3031683"><ele>403.25</ele><time>2026-05-03T13:37:30.883Z</time></trkpt><trkpt lat="39.821665" lon="16.3029983"><ele>402.5</ele><time>2026-05-03T13:37:31.883Z</time></trkpt><trkpt lat="39.8216683" lon="16.30281"><ele>401.75</ele><time>2026-05-03T13:37:32.883Z</time></trkpt><trkpt lat="39.8216767" lon="16.3026133"><ele>401.0</ele><time>2026-05-03T13:37:33.884Z</time></trkpt><trkpt lat="39.8216883" lon="16.3024217"><ele>402.0</ele><time>2026-05-03T13:37:34.884Z</time></trkpt><trkpt lat="39.8216983" lon="16.3022383"><ele>403.0</ele><time>2026-05-03T13:37:35.884Z</time></trkpt><trkpt lat="39.82168" lon="16.3020667"><ele>404.0</ele><time>2026-05-03T13:37:36.884Z</time></trkpt><trkpt lat="39.8216283" lon="16.30191"><ele>405.0</ele><time>2026-05-03T13:37:37.884Z</time></trkpt><trkpt lat="39.8215433" lon="16.3017717"><ele>405.0</ele><time>2026-05-03T13:37:38.884Z</time></trkpt><trkpt lat="39.8214433" lon="16.301645"><ele>405.0</ele><time>2026-05-03T13:37:39.884Z</time></trkpt><trkpt lat="39.82134" lon="16.3015217"><ele>405.0</ele><time>2026-05-03T13:37:40.884Z</time></trkpt><trkpt lat="39.8212367" lon="16.3014083"><ele>405.0</ele><time>2026-05-03T13:37:41.884Z</time></trkpt><trkpt lat="39.821135" lon="16.3012967"><ele>408.75</ele><time>2026-05-03T13:37:42.884Z</time></trkpt><trkpt lat="39.8210617" lon="16.3011717"><ele>412.5</ele><time>2026-05-03T13:37:43.884Z</time></trkpt><trkpt lat="39.8210117" lon="16.3010317"><ele>416.25</ele><time>2026-05-03T13:37:44.884Z</time></trkpt><trkpt lat="39.8209917" lon="16.3008883"><ele>420.0</ele><time>2026-05-03T13:37:45.884Z</time></trkpt><trkpt lat="39.820985" lon="16.30073"><ele>421.0</ele><time>2026-05-03T13:37:46.884Z</time></trkpt><trkpt lat="39.8209967" lon="16.3005717"><ele>422.0</ele><time>2026-05-03T13:37:47.884Z</time></trkpt><trkpt lat="39.8210167" lon="16.3004083"><ele>423.0</ele><time>2026-05-03T13:37:48.884Z</time></trkpt><trkpt lat="39.82105" lon="16.3002417"><ele>424.0</ele><time>2026-05-03T13:37:49.884Z</time></trkpt><trkpt lat="39.8210867" lon="16.30007"><ele>424.0</ele><time>2026-05-03T13:37:50.884Z</time></trkpt><trkpt lat="39.8211217" lon="16.29989"><ele>424.0</ele><time>2026-05-03T13:37:51.884Z</time></trkpt><trkpt lat="39.82116" lon="16.299705"><ele>424.0</ele><time>2026-05-03T13:37:52.884Z</time></trkpt><trkpt lat="39.8212033" lon="16.299525"><ele>424.0</ele><time>2026-05-03T13:37:53.884Z</time></trkpt><trkpt lat="39.8212433" lon="16.2993433"><ele>423.0</ele><time>2026-05-03T13:37:54.883Z</time></trkpt><trkpt lat="39.8212767" lon="16.2991667"><ele>422.0</ele><time>2026-05-03T13:37:55.884Z</time></trkpt><trkpt lat="39.8213083" lon="16.29899"><ele>421.0</ele><time>2026-05-03T13:37:56.883Z</time></trkpt><trkpt lat="39.8213333" lon="16.2988067"><ele>420.0</ele><time>2026-05-03T13:37:57.884Z</time></trkpt><trkpt lat="39.8213383" lon="16.29862"><ele>419.25</ele><time>2026-05-03T13:37:58.884Z</time></trkpt><trkpt lat="39.8213283" lon="16.298435"><ele>418.5</ele><time>2026-05-03T13:37:59.883Z</time></trkpt><trkpt lat="39.8213083" lon="16.298245"><ele>417.75</ele><time>2026-05-03T13:38:00.884Z</time></trkpt><trkpt lat="39.8212833" lon="16.2980483"><ele>417.0</ele><time>2026-05-03T13:38:01.883Z</time></trkpt><trkpt lat="39.821265" lon="16.29786"><ele>416.25</ele><time>2026-05-03T13:38:02.884Z</time></trkpt><trkpt lat="39.8212433" lon="16.2976617"><ele>415.5</ele><time>2026-05-03T13:38:03.884Z</time></trkpt><trkpt lat="39.8212217" lon="16.29747"><ele>414.75</ele><time>2026-05-03T13:38:04.884Z</time></trkpt><trkpt lat="39.8212" lon="16.2972867"><ele>414.0</ele><time>2026-05-03T13:38:05.884Z</time></trkpt><trkpt lat="39.8211833" lon="16.297105"><ele>413.75</ele><time>2026-05-03T13:38:06.884Z</time></trkpt><trkpt lat="39.8211767" lon="16.2969217"><ele>413.5</ele><time>2026-05-03T13:38:07.884Z</time></trkpt><trkpt lat="39.8211767" lon="16.2967367"><ele>413.25</ele><time>2026-05-03T13:38:08.884Z</time></trkpt><trkpt lat="39.821185" lon="16.2965467"><ele>413.0</ele><time>2026-05-03T13:38:09.884Z</time></trkpt><trkpt lat="39.8211933" lon="16.2963667"><ele>412.5</ele><time>2026-05-03T13:38:10.883Z</time></trkpt><trkpt lat="39.821205" lon="16.2961867"><ele>412.0</ele><time>2026-05-03T13:38:11.883Z</time></trkpt><trkpt lat="39.8212267" lon="16.2960117"><ele>411.5</ele><time>2026-05-03T13:38:12.884Z</time></trkpt><trkpt lat="39.821265" lon="16.29584"><ele>411.0</ele><time>2026-05-03T13:38:13.884Z</time></trkpt><trkpt lat="39.8213067" lon="16.2956633"><ele>410.25</ele><time>2026-05-03T13:38:14.884Z</time></trkpt><trkpt lat="39.8213333" lon="16.2954867"><ele>409.5</ele><time>2026-05-03T13:38:15.884Z</time></trkpt><trkpt lat="39.8213433" lon="16.2953133"><ele>408.75</ele><time>2026-05-03T13:38:16.884Z</time></trkpt><trkpt lat="39.82134" lon="16.2951517"><ele>408.0</ele><time>2026-05-03T13:38:17.884Z</time></trkpt><trkpt lat="39.8213367" lon="16.2949967"><ele>408.0</ele><time>2026-05-03T13:38:18.884Z</time></trkpt><trkpt lat="39.821335" lon="16.2948467"><ele>408.0</ele><time>2026-05-03T13:38:19.883Z</time></trkpt><trkpt lat="39.8213367" lon="16.2947017"><ele>408.0</ele><time>2026-05-03T13:38:20.883Z</time></trkpt><trkpt lat="39.8213567" lon="16.2945533"><ele>408.0</ele><time>2026-05-03T13:38:21.884Z</time></trkpt><trkpt lat="39.8213933" lon="16.294405"><ele>406.75</ele><time>2026-05-03T13:38:22.884Z</time></trkpt><trkpt lat="39.82144" lon="16.2942467"><ele>405.5</ele><time>2026-05-03T13:38:23.883Z</time></trkpt><trkpt lat="39.8214983" lon="16.2940867"><ele>404.25</ele><time>2026-05-03T13:38:24.884Z</time></trkpt><trkpt lat="39.821565" lon="16.2939267"><ele>403.0</ele><time>2026-05-03T13:38:25.884Z</time></trkpt><trkpt lat="39.8216333" lon="16.2937567"><ele>401.5</ele><time>2026-05-03T13:38:26.884Z</time></trkpt><trkpt lat="39.8216983" lon="16.293585"><ele>400.0</ele><time>2026-05-03T13:38:27.884Z</time></trkpt><trkpt lat="39.8217683" lon="16.29341"><ele>398.5</ele><time>2026-05-03T13:38:28.883Z</time></trkpt><trkpt lat="39.8218317" lon="16.2932383"><ele>397.0</ele><time>2026-05-03T13:38:29.884Z</time></trkpt><trkpt lat="39.8218967" lon="16.2930683"><ele>400.0</ele><time>2026-05-03T13:38:30.884Z</time></trkpt><trkpt lat="39.8219667" lon="16.2929"><ele>403.0</ele><time>2026-05-03T13:38:31.884Z</time></trkpt><trkpt lat="39.8220317" lon="16.2927333"><ele>406.0</ele><time>2026-05-03T13:38:32.884Z</time></trkpt><trkpt lat="39.8220917" lon="16.2925683"><ele>409.0</ele><time>2026-05-03T13:38:33.884Z</time></trkpt><trkpt lat="39.8221433" lon="16.2924033"><ele>408.75</ele><time>2026-05-03T13:38:34.883Z</time></trkpt><trkpt lat="39.8221833" lon="16.2922283"><ele>408.5</ele><time>2026-05-03T13:38:35.884Z</time></trkpt><trkpt lat="39.8221967" lon="16.2920417"><ele>408.25</ele><time>2026-05-03T13:38:36.884Z</time></trkpt><trkpt lat="39.822185" lon="16.2918583"><ele>408.0</ele><time>2026-05-03T13:38:37.884Z</time></trkpt><trkpt lat="39.8221667" lon="16.29169"><ele>408.0</ele><time>2026-05-03T13:38:38.883Z</time></trkpt><trkpt lat="39.8221467" lon="16.2915333"><ele>408.0</ele><time>2026-05-03T13:38:39.883Z</time></trkpt><trkpt lat="39.8221267" lon="16.2913917"><ele>408.0</ele><time>2026-05-03T13:38:40.884Z</time></trkpt><trkpt lat="39.8221267" lon="16.29126"><ele>408.0</ele><time>2026-05-03T13:38:41.884Z</time></trkpt><trkpt lat="39.822135" lon="16.2911317"><ele>408.0</ele><time>2026-05-03T13:38:42.884Z</time></trkpt><trkpt lat="39.8221583" lon="16.291005"><ele>407.75</ele><time>2026-05-03T13:38:43.884Z</time></trkpt><trkpt lat="39.8222167" lon="16.290885"><ele>407.5</ele><time>2026-05-03T13:38:44.884Z</time></trkpt><trkpt lat="39.8222983" lon="16.2907867"><ele>407.25</ele><time>2026-05-03T13:38:45.884Z</time></trkpt><trkpt lat="39.8223983" lon="16.2907017"><ele>407.0</ele><time>2026-05-03T13:38:46.884Z</time></trkpt><trkpt lat="39.8225017" lon="16.29063"><ele>405.25</ele><time>2026-05-03T13:38:47.884Z</time></trkpt><trkpt lat="39.8225983" lon="16.2905467"><ele>403.5</ele><time>2026-05-03T13:38:48.884Z</time></trkpt><trkpt lat="39.8226717" lon="16.290435"><ele>401.75</ele><time>2026-05-03T13:38:49.884Z</time></trkpt><trkpt lat="39.8227283" lon="16.2902917"><ele>400.0</ele><time>2026-05-03T13:38:50.884Z</time></trkpt><trkpt lat="39.8227633" lon="16.29013"><ele>404.0</ele><time>2026-05-03T13:38:51.884Z</time></trkpt><trkpt lat="39.8227683" lon="16.289965"><ele>408.0</ele><time>2026-05-03T13:38:52.884Z</time></trkpt><trkpt lat="39.82277" lon="16.2898"><ele>412.0</ele><time>2026-05-03T13:38:53.884Z</time></trkpt><trkpt lat="39.8227733" lon="16.289635"><ele>416.0</ele><time>2026-05-03T13:38:54.884Z</time></trkpt><trkpt lat="39.82278" lon="16.28947"><ele>416.0</ele><time>2026-05-03T13:38:55.884Z</time></trkpt><trkpt lat="39.8227867" lon="16.2893"><ele>416.0</ele><time>2026-05-03T13:38:56.884Z</time></trkpt><trkpt lat="39.82279" lon="16.2891283"><ele>416.0</ele><time>2026-05-03T13:38:57.884Z</time></trkpt><trkpt lat="39.8227917" lon="16.2889517"><ele>416.0</ele><time>2026-05-03T13:38:58.884Z</time></trkpt><trkpt lat="39.8227967" lon="16.288775"><ele>415.5</ele><time>2026-05-03T13:38:59.884Z</time></trkpt><trkpt lat="39.8228033" lon="16.2886017"><ele>415.0</ele><time>2026-05-03T13:39:00.884Z</time></trkpt><trkpt lat="39.8228083" lon="16.288435"><ele>414.5</ele><time>2026-05-03T13:39:01.883Z</time></trkpt><trkpt lat="39.8228117" lon="16.288275"><ele>414.0</ele><time>2026-05-03T13:39:02.884Z</time></trkpt><trkpt lat="39.8228233" lon="16.28811"><ele>413.0</ele><time>2026-05-03T13:39:03.884Z</time></trkpt><trkpt lat="39.8228483" lon="16.2879533"><ele>412.0</ele><time>2026-05-03T13:39:04.883Z</time></trkpt><trkpt lat="39.822895" lon="16.2877967"><ele>411.0</ele><time>2026-05-03T13:39:05.884Z</time></trkpt><trkpt lat="39.82296" lon="16.28764"><ele>410.0</ele><time>2026-05-03T13:39:06.884Z</time></trkpt><trkpt lat="39.8230317" lon="16.2874767"><ele>410.0</ele><time>2026-05-03T13:39:07.884Z</time></trkpt><trkpt lat="39.8231033" lon="16.2873183"><ele>410.0</ele><time>2026-05-03T13:39:08.884Z</time></trkpt><trkpt lat="39.8231733" lon="16.2871533"><ele>410.0</ele><time>2026-05-03T13:39:09.884Z</time></trkpt><trkpt lat="39.8232467" lon="16.286985"><ele>410.0</ele><time>2026-05-03T13:39:10.884Z</time></trkpt><trkpt lat="39.8233167" lon="16.28682"><ele>409.25</ele><time>2026-05-03T13:39:11.884Z</time></trkpt><trkpt lat="39.823385" lon="16.28666"><ele>408.5</ele><time>2026-05-03T13:39:12.884Z</time></trkpt><trkpt lat="39.823455" lon="16.2864867"><ele>407.75</ele><time>2026-05-03T13:39:13.883Z</time></trkpt><trkpt lat="39.8235283" lon="16.28632"><ele>407.0</ele><time>2026-05-03T13:39:14.884Z</time></trkpt><trkpt lat="39.823605" lon="16.2861517"><ele>409.75</ele><time>2026-05-03T13:39:15.884Z</time></trkpt><trkpt lat="39.8236783" lon="16.2859833"><ele>412.5</ele><time>2026-05-03T13:39:16.884Z</time></trkpt><trkpt lat="39.8237533" lon="16.2858133"><ele>415.25</ele><time>2026-05-03T13:39:17.884Z</time></trkpt><trkpt lat="39.8238267" lon="16.2856467"><ele>418.0</ele><time>2026-05-03T13:39:18.884Z</time></trkpt><trkpt lat="39.8239017" lon="16.2854733"><ele>418.0</ele><time>2026-05-03T13:39:19.884Z</time></trkpt><trkpt lat="39.8239817" lon="16.2853033"><ele>418.0</ele><time>2026-05-03T13:39:20.884Z</time></trkpt><trkpt lat="39.8240633" lon="16.28514"><ele>418.0</ele><time>2026-05-03T13:39:21.883Z</time></trkpt><trkpt lat="39.8241483" lon="16.284975"><ele>418.0</ele><time>2026-05-03T13:39:22.883Z</time></trkpt><trkpt lat="39.8242383" lon="16.2848167"><ele>418.0</ele><time>2026-05-03T13:39:23.884Z</time></trkpt><trkpt lat="39.8243367" lon="16.2846633"><ele>418.0</ele><time>2026-05-03T13:39:24.884Z</time></trkpt><trkpt lat="39.82444" lon="16.2844917"><ele>422.0</ele><time>2026-05-03T13:39:25.884Z</time></trkpt><trkpt lat="39.824545" lon="16.2843133"><ele>426.0</ele><time>2026-05-03T13:39:26.884Z</time></trkpt><trkpt lat="39.8246533" lon="16.2841417"><ele>430.0</ele><time>2026-05-03T13:39:27.884Z</time></trkpt><trkpt lat="39.8247633" lon="16.2839683"><ele>427.33333333333337</ele><time>2026-05-03T13:39:28.884Z</time></trkpt><trkpt lat="39.824865" lon="16.283805"><ele>424.66666666666663</ele><time>2026-05-03T13:39:29.884Z</time></trkpt><trkpt lat="39.82497" lon="16.28365"><ele>422.0</ele><time>2026-05-03T13:39:30.884Z</time></trkpt><trkpt lat="39.82507" lon="16.2834967"><ele>424.66666666666663</ele><time>2026-05-03T13:39:31.884Z</time></trkpt><trkpt lat="39.8251717" lon="16.283345"><ele>427.33333333333337</ele><time>2026-05-03T13:39:32.884Z</time></trkpt><trkpt lat="39.8252717" lon="16.2831917"><ele>430.0</ele><time>2026-05-03T13:39:33.883Z</time></trkpt><trkpt lat="39.8253733" lon="16.2830433"><ele>430.0</ele><time>2026-05-03T13:39:34.884Z</time></trkpt><trkpt lat="39.8254733" lon="16.282885"><ele>430.0</ele><time>2026-05-03T13:39:35.884Z</time></trkpt><trkpt lat="39.8255833" lon="16.2827317"><ele>430.0</ele><time>2026-05-03T13:39:36.884Z</time></trkpt><trkpt lat="39.8256983" lon="16.2825733"><ele>430.0</ele><time>2026-05-03T13:39:37.884Z</time></trkpt><trkpt lat="39.8258167" lon="16.28241"><ele>430.0</ele><time>2026-05-03T13:39:38.884Z</time></trkpt><trkpt lat="39.8259267" lon="16.2822567"><ele>430.0</ele><time>2026-05-03T13:39:39.884Z</time></trkpt><trkpt lat="39.8260283" lon="16.2821167"><ele>432.25</ele><time>2026-05-03T13:39:40.884Z</time></trkpt><trkpt lat="39.826125" lon="16.2819817"><ele>434.5</ele><time>2026-05-03T13:39:41.884Z</time></trkpt><trkpt lat="39.82622" lon="16.2818583"><ele>436.75</ele><time>2026-05-03T13:39:42.884Z</time></trkpt><trkpt lat="39.826315" lon="16.2817383"><ele>439.0</ele><time>2026-05-03T13:39:43.884Z</time></trkpt><trkpt lat="39.8264117" lon="16.28161"><ele>439.0</ele><time>2026-05-03T13:39:44.883Z</time></trkpt><trkpt lat="39.8265" lon="16.2814817"><ele>439.0</ele><time>2026-05-03T13:39:45.883Z</time></trkpt><trkpt lat="39.826585" lon="16.2813567"><ele>439.0</ele><time>2026-05-03T13:39:46.884Z</time></trkpt><trkpt lat="39.8266717" lon="16.2812233"><ele>439.0</ele><time>2026-05-03T13:39:47.884Z</time></trkpt><trkpt lat="39.82675" lon="16.28109"><ele>439.75</ele><time>2026-05-03T13:39:48.883Z</time></trkpt><trkpt lat="39.8268233" lon="16.2809483"><ele>440.5</ele><time>2026-05-03T13:39:49.884Z</time></trkpt><trkpt lat="39.8268833" lon="16.2807933"><ele>441.25</ele><time>2026-05-03T13:39:50.884Z</time></trkpt><trkpt lat="39.8269217" lon="16.2806283"><ele>442.0</ele><time>2026-05-03T13:39:51.884Z</time></trkpt><trkpt lat="39.8269733" lon="16.280485"><ele>442.0</ele><time>2026-05-03T13:39:52.884Z</time></trkpt><trkpt lat="39.8270333" lon="16.2803467"><ele>442.0</ele><time>2026-05-03T13:39:53.883Z</time></trkpt><trkpt lat="39.8270967" lon="16.28022"><ele>442.0</ele><time>2026-05-03T13:39:54.884Z</time></trkpt><trkpt lat="39.8271583" lon="16.2801017"><ele>442.0</ele><time>2026-05-03T13:39:55.884Z</time></trkpt><trkpt lat="39.82723" lon="16.2799783"><ele>442.0</ele><time>2026-05-03T13:39:56.884Z</time></trkpt><trkpt lat="39.827315" lon="16.2798617"><ele>442.0</ele><time>2026-05-03T13:39:57.884Z</time></trkpt><trkpt lat="39.8274117" lon="16.2797467"><ele>442.0</ele><time>2026-05-03T13:39:58.883Z</time></trkpt><trkpt lat="39.827515" lon="16.2796433"><ele>442.0</ele><time>2026-05-03T13:39:59.884Z</time></trkpt><trkpt lat="39.8276283" lon="16.2795567"><ele>442.0</ele><time>2026-05-03T13:40:00.883Z</time></trkpt><trkpt lat="39.827755" lon="16.2794833"><ele>442.0</ele><time>2026-05-03T13:40:01.883Z</time></trkpt><trkpt lat="39.8278917" lon="16.2794367"><ele>442.0</ele><time>2026-05-03T13:40:02.884Z</time></trkpt><trkpt lat="39.828035" lon="16.2793883"><ele>442.0</ele><time>2026-05-03T13:40:03.884Z</time></trkpt><trkpt lat="39.82818" lon="16.2793383"><ele>442.0</ele><time>2026-05-03T13:40:04.884Z</time></trkpt><trkpt lat="39.8283217" lon="16.2792833"><ele>442.0</ele><time>2026-05-03T13:40:05.884Z</time></trkpt><trkpt lat="39.8284567" lon="16.2792083"><ele>442.0</ele><time>2026-05-03T13:40:06.884Z</time></trkpt><trkpt lat="39.8285883" lon="16.27912"><ele>442.0</ele><time>2026-05-03T13:40:07.884Z</time></trkpt><trkpt lat="39.8287133" lon="16.2790167"><ele>441.25</ele><time>2026-05-03T13:40:08.883Z</time></trkpt><trkpt lat="39.8288367" lon="16.2789"><ele>440.5</ele><time>2026-05-03T13:40:09.883Z</time></trkpt><trkpt lat="39.8289467" lon="16.278785"><ele>439.75</ele><time>2026-05-03T13:40:10.884Z</time></trkpt><trkpt lat="39.8290467" lon="16.2786667"><ele>439.0</ele><time>2026-05-03T13:40:11.884Z</time></trkpt><trkpt lat="39.8291483" lon="16.2785567"><ele>439.0</ele><time>2026-05-03T13:40:12.884Z</time></trkpt><trkpt lat="39.829255" lon="16.2784517"><ele>439.0</ele><time>2026-05-03T13:40:13.884Z</time></trkpt><trkpt lat="39.8293667" lon="16.27833"><ele>439.0</ele><time>2026-05-03T13:40:14.884Z</time></trkpt><trkpt lat="39.8294833" lon="16.2782067"><ele>439.0</ele><time>2026-05-03T13:40:15.884Z</time></trkpt><trkpt lat="39.829605" lon="16.2780783"><ele>440.33333333333337</ele><time>2026-05-03T13:40:16.884Z</time></trkpt><trkpt lat="39.82972" lon="16.2779517"><ele>441.66666666666663</ele><time>2026-05-03T13:40:17.884Z</time></trkpt><trkpt lat="39.829835" lon="16.2778267"><ele>443.0</ele><time>2026-05-03T13:40:18.883Z</time></trkpt><trkpt lat="39.8299533" lon="16.2777017"><ele>443.0</ele><time>2026-05-03T13:40:19.884Z</time></trkpt><trkpt lat="39.830065" lon="16.2775783"><ele>443.0</ele><time>2026-05-03T13:40:20.883Z</time></trkpt><trkpt lat="39.8301783" lon="16.277455"><ele>443.0</ele><time>2026-05-03T13:40:21.884Z</time></trkpt><trkpt lat="39.8303" lon="16.2773317"><ele>443.0</ele><time>2026-05-03T13:40:22.883Z</time></trkpt><trkpt lat="39.8304267" lon="16.2772"><ele>442.3333333333333</ele><time>2026-05-03T13:40:23.883Z</time></trkpt><trkpt lat="39.83055" lon="16.2770633"><ele>441.66666666666663</ele><time>2026-05-03T13:40:24.883Z</time></trkpt><trkpt lat="39.8306717" lon="16.2769267"><ele>441.0</ele><time>2026-05-03T13:40:25.884Z</time></trkpt><trkpt lat="39.830795" lon="16.2767833"><ele>441.0</ele><time>2026-05-03T13:40:26.884Z</time></trkpt><trkpt lat="39.8309233" lon="16.276625"><ele>441.0</ele><time>2026-05-03T13:40:27.884Z</time></trkpt><trkpt lat="39.8310383" lon="16.27647"><ele>441.0</ele><time>2026-05-03T13:40:28.884Z</time></trkpt><trkpt lat="39.831145" lon="16.2763033"><ele>443.0</ele><time>2026-05-03T13:40:29.884Z</time></trkpt><trkpt lat="39.8312367" lon="16.276125"><ele>445.0</ele><time>2026-05-03T13:40:30.884Z</time></trkpt><trkpt lat="39.8313233" lon="16.275935"><ele>447.0</ele><time>2026-05-03T13:40:31.884Z</time></trkpt><trkpt lat="39.8314" lon="16.275735"><ele>444.33333333333337</ele><time>2026-05-03T13:40:32.884Z</time></trkpt><trkpt lat="39.831475" lon="16.275535"><ele>441.6666666666667</ele><time>2026-05-03T13:40:33.884Z</time></trkpt><trkpt lat="39.831545" lon="16.275325"><ele>439.0</ele><time>2026-05-03T13:40:34.884Z</time></trkpt><trkpt lat="39.8316133" lon="16.275115"><ele>439.0</ele><time>2026-05-03T13:40:35.884Z</time></trkpt><trkpt lat="39.8316817" lon="16.2749067"><ele>439.0</ele><time>2026-05-03T13:40:36.884Z</time></trkpt><trkpt lat="39.831755" lon="16.2747133"><ele>439.0</ele><time>2026-05-03T13:40:37.884Z</time></trkpt><trkpt lat="39.8318283" lon="16.2745167"><ele>443.6666666666667</ele><time>2026-05-03T13:40:38.883Z</time></trkpt><trkpt lat="39.8319017" lon="16.2743283"><ele>448.33333333333337</ele><time>2026-05-03T13:40:39.884Z</time></trkpt><trkpt lat="39.8319717" lon="16.27414"><ele>453.0</ele><time>2026-05-03T13:40:40.884Z</time></trkpt><trkpt lat="39.8320383" lon="16.2739533"><ele>451.66666666666663</ele><time>2026-05-03T13:40:41.884Z</time></trkpt><trkpt lat="39.832105" lon="16.273765"><ele>450.3333333333333</ele><time>2026-05-03T13:40:42.883Z</time></trkpt><trkpt lat="39.8321667" lon="16.273575"><ele>449.0</ele><time>2026-05-03T13:40:43.884Z</time></trkpt><trkpt lat="39.8322317" lon="16.273395"><ele>449.0</ele><time>2026-05-03T13:40:44.884Z</time></trkpt><trkpt lat="39.8323" lon="16.273215"><ele>449.0</ele><time>2026-05-03T13:40:45.884Z</time></trkpt><trkpt lat="39.8323633" lon="16.27304"><ele>449.0</ele><time>2026-05-03T13:40:46.884Z</time></trkpt><trkpt lat="39.8324217" lon="16.2728767"><ele>449.0</ele><time>2026-05-03T13:40:47.884Z</time></trkpt><trkpt lat="39.8324817" lon="16.27271"><ele>448.75</ele><time>2026-05-03T13:40:48.884Z</time></trkpt><trkpt lat="39.8325383" lon="16.2725433"><ele>448.5</ele><time>2026-05-03T13:40:49.884Z</time></trkpt><trkpt lat="39.8325983" lon="16.2723633"><ele>448.25</ele><time>2026-05-03T13:40:50.884Z</time></trkpt><trkpt lat="39.8326567" lon="16.2721833"><ele>448.0</ele><time>2026-05-03T13:40:51.884Z</time></trkpt><trkpt lat="39.8327217" lon="16.272"><ele>450.0</ele><time>2026-05-03T13:40:52.884Z</time></trkpt><trkpt lat="39.832795" lon="16.27181"><ele>452.0</ele><time>2026-05-03T13:40:53.884Z</time></trkpt><trkpt lat="39.8328717" lon="16.2716117"><ele>454.0</ele><time>2026-05-03T13:40:54.884Z</time></trkpt><trkpt lat="39.8329483" lon="16.27141"><ele>454.0</ele><time>2026-05-03T13:40:55.884Z</time></trkpt><trkpt lat="39.8330217" lon="16.27121"><ele>454.0</ele><time>2026-05-03T13:40:56.884Z</time></trkpt><trkpt lat="39.8330983" lon="16.2710067"><ele>454.0</ele><time>2026-05-03T13:40:57.884Z</time></trkpt><trkpt lat="39.83318" lon="16.2708083"><ele>452.0</ele><time>2026-05-03T13:40:58.884Z</time></trkpt><trkpt lat="39.8332567" lon="16.2706033"><ele>450.0</ele><time>2026-05-03T13:40:59.884Z</time></trkpt><trkpt lat="39.8333317" lon="16.27039"><ele>448.0</ele><time>2026-05-03T13:41:00.884Z</time></trkpt><trkpt lat="39.8334083" lon="16.2701783"><ele>448.0</ele><time>2026-05-03T13:41:01.884Z</time></trkpt><trkpt lat="39.8334867" lon="16.2699617"><ele>448.0</ele><time>2026-05-03T13:41:02.884Z</time></trkpt><trkpt lat="39.8335633" lon="16.2697433"><ele>448.0</ele><time>2026-05-03T13:41:03.884Z</time></trkpt><trkpt lat="39.833645" lon="16.26952"><ele>448.0</ele><time>2026-05-03T13:41:04.883Z</time></trkpt><trkpt lat="39.8337233" lon="16.2692983"><ele>448.0</ele><time>2026-05-03T13:41:05.883Z</time></trkpt><trkpt lat="39.833805" lon="16.2690833"><ele>448.0</ele><time>2026-05-03T13:41:06.884Z</time></trkpt><trkpt lat="39.833885" lon="16.2688683"><ele>447.0</ele><time>2026-05-03T13:41:07.884Z</time></trkpt><trkpt lat="39.8339617" lon="16.26865"><ele>446.0</ele><time>2026-05-03T13:41:08.884Z</time></trkpt><trkpt lat="39.8340317" lon="16.26843"><ele>445.0</ele><time>2026-05-03T13:41:09.884Z</time></trkpt><trkpt lat="39.8340917" lon="16.2682117"><ele>447.0</ele><time>2026-05-03T13:41:10.884Z</time></trkpt><trkpt lat="39.83413" lon="16.2679767"><ele>449.0</ele><time>2026-05-03T13:41:11.884Z</time></trkpt><trkpt lat="39.8341483" lon="16.2677433"><ele>451.0</ele><time>2026-05-03T13:41:12.884Z</time></trkpt><trkpt lat="39.8341483" lon="16.267515"><ele>451.0</ele><time>2026-05-03T13:41:13.884Z</time></trkpt><trkpt lat="39.8341317" lon="16.2672833"><ele>451.0</ele><time>2026-05-03T13:41:14.884Z</time></trkpt><trkpt lat="39.834095" lon="16.267055"><ele>451.0</ele><time>2026-05-03T13:41:15.884Z</time></trkpt><trkpt lat="39.8340417" lon="16.266835"><ele>452.6666666666667</ele><time>2026-05-03T13:41:16.883Z</time></trkpt><trkpt lat="39.833975" lon="16.2666233"><ele>454.33333333333337</ele><time>2026-05-03T13:41:17.884Z</time></trkpt><trkpt lat="39.8338967" lon="16.2664133"><ele>456.0</ele><time>2026-05-03T13:41:18.884Z</time></trkpt><trkpt lat="39.83381" lon="16.2662067"><ele>457.0</ele><time>2026-05-03T13:41:19.884Z</time></trkpt><trkpt lat="39.83372" lon="16.2659933"><ele>458.0</ele><time>2026-05-03T13:41:20.883Z</time></trkpt><trkpt lat="39.83363" lon="16.265775"><ele>459.0</ele><time>2026-05-03T13:41:21.884Z</time></trkpt><trkpt lat="39.8335433" lon="16.2655567"><ele>458.33333333333337</ele><time>2026-05-03T13:41:22.883Z</time></trkpt><trkpt lat="39.8334567" lon="16.26534"><ele>457.6666666666667</ele><time>2026-05-03T13:41:23.883Z</time></trkpt><trkpt lat="39.8333683" lon="16.2651167"><ele>457.0</ele><time>2026-05-03T13:41:24.884Z</time></trkpt><trkpt lat="39.8332767" lon="16.2648883"><ele>459.33333333333337</ele><time>2026-05-03T13:41:25.884Z</time></trkpt><trkpt lat="39.83318" lon="16.2646617"><ele>461.66666666666663</ele><time>2026-05-03T13:41:26.884Z</time></trkpt><trkpt lat="39.833085" lon="16.264435"><ele>464.0</ele><time>2026-05-03T13:41:27.884Z</time></trkpt><trkpt lat="39.83299" lon="16.264215"><ele>464.0</ele><time>2026-05-03T13:41:28.884Z</time></trkpt><trkpt lat="39.8329" lon="16.2639917"><ele>464.0</ele><time>2026-05-03T13:41:29.883Z</time></trkpt><trkpt lat="39.8328067" lon="16.2637633"><ele>464.0</ele><time>2026-05-03T13:41:30.883Z</time></trkpt><trkpt lat="39.832715" lon="16.26354"><ele>463.66666666666663</ele><time>2026-05-03T13:41:31.884Z</time></trkpt><trkpt lat="39.8326167" lon="16.2633183"><ele>463.33333333333337</ele><time>2026-05-03T13:41:32.884Z</time></trkpt><trkpt lat="39.832525" lon="16.2631"><ele>463.0</ele><time>2026-05-03T13:41:33.884Z</time></trkpt><trkpt lat="39.8324367" lon="16.2628817"><ele>464.6666666666667</ele><time>2026-05-03T13:41:34.884Z</time></trkpt><trkpt lat="39.8323567" lon="16.262675"><ele>466.33333333333337</ele><time>2026-05-03T13:41:35.884Z</time></trkpt><trkpt lat="39.83228" lon="16.2624717"><ele>468.0</ele><time>2026-05-03T13:41:36.883Z</time></trkpt><trkpt lat="39.8322167" lon="16.26227"><ele>469.33333333333337</ele><time>2026-05-03T13:41:37.883Z</time></trkpt><trkpt lat="39.83217" lon="16.2620617"><ele>470.6666666666667</ele><time>2026-05-03T13:41:38.884Z</time></trkpt><trkpt lat="39.8321317" lon="16.2618433"><ele>472.0</ele><time>2026-05-03T13:41:39.884Z</time></trkpt><trkpt lat="39.8321083" lon="16.2616317"><ele>472.0</ele><time>2026-05-03T13:41:40.884Z</time></trkpt><trkpt lat="39.8321083" lon="16.26144"><ele>472.0</ele><time>2026-05-03T13:41:41.884Z</time></trkpt><trkpt lat="39.8321183" lon="16.26126"><ele>472.0</ele><time>2026-05-03T13:41:42.884Z</time></trkpt><trkpt lat="39.8321333" lon="16.2610967"><ele>472.0</ele><time>2026-05-03T13:41:43.884Z</time></trkpt><trkpt lat="39.8321567" lon="16.26094"><ele>472.0</ele><time>2026-05-03T13:41:44.884Z</time></trkpt><trkpt lat="39.8321717" lon="16.2607817"><ele>472.0</ele><time>2026-05-03T13:41:45.884Z</time></trkpt><trkpt lat="39.8321833" lon="16.260605"><ele>472.0</ele><time>2026-05-03T13:41:46.884Z</time></trkpt><trkpt lat="39.8321917" lon="16.26042"><ele>472.0</ele><time>2026-05-03T13:41:47.884Z</time></trkpt><trkpt lat="39.8322017" lon="16.2602483"><ele>472.0</ele><time>2026-05-03T13:41:48.884Z</time></trkpt><trkpt lat="39.83222" lon="16.26009"><ele>472.00000000000006</ele><time>2026-05-03T13:41:49.884Z</time></trkpt><trkpt lat="39.8322333" lon="16.2599433"><ele>472.00000000000006</ele><time>2026-05-03T13:41:50.884Z</time></trkpt><trkpt lat="39.832245" lon="16.259805"><ele>472.0</ele><time>2026-05-03T13:41:51.884Z</time></trkpt><trkpt lat="39.83226" lon="16.259675"><ele>472.0</ele><time>2026-05-03T13:41:52.884Z</time></trkpt><trkpt lat="39.832275" lon="16.259545"><ele>472.0</ele><time>2026-05-03T13:41:53.883Z</time></trkpt><trkpt lat="39.8322867" lon="16.2594083"><ele>472.00000000000006</ele><time>2026-05-03T13:41:54.884Z</time></trkpt><trkpt lat="39.8323017" lon="16.2592717"><ele>472.00000000000006</ele><time>2026-05-03T13:41:55.884Z</time></trkpt><trkpt lat="39.8323183" lon="16.2591283"><ele>472.0</ele><time>2026-05-03T13:41:56.883Z</time></trkpt><trkpt lat="39.8323383" lon="16.2589833"><ele>472.0</ele><time>2026-05-03T13:41:57.883Z</time></trkpt><trkpt lat="39.8323533" lon="16.258845"><ele>472.0</ele><time>2026-05-03T13:41:58.884Z</time></trkpt><trkpt lat="39.8323633" lon="16.2587067"><ele>472.00000000000006</ele><time>2026-05-03T13:41:59.884Z</time></trkpt><trkpt lat="39.8323733" lon="16.25857"><ele>472.00000000000006</ele><time>2026-05-03T13:42:00.884Z</time></trkpt><trkpt lat="39.8323883" lon="16.258435"><ele>472.0</ele><time>2026-05-03T13:42:01.884Z</time></trkpt><trkpt lat="39.8324067" lon="16.2582983"><ele>472.0</ele><time>2026-05-03T13:42:02.884Z</time></trkpt><trkpt lat="39.8324233" lon="16.2581583"><ele>472.25</ele><time>2026-05-03T13:42:03.884Z</time></trkpt><trkpt lat="39.832435" lon="16.2580067"><ele>472.5</ele><time>2026-05-03T13:42:04.884Z</time></trkpt><trkpt lat="39.83245" lon="16.25785"><ele>472.75</ele><time>2026-05-03T13:42:05.884Z</time></trkpt><trkpt lat="39.832465" lon="16.2576967"><ele>473.0</ele><time>2026-05-03T13:42:06.884Z</time></trkpt><trkpt lat="39.8324767" lon="16.2575483"><ele>473.0</ele><time>2026-05-03T13:42:07.883Z</time></trkpt><trkpt lat="39.83249" lon="16.2574083"><ele>472.99999999999994</ele><time>2026-05-03T13:42:08.883Z</time></trkpt><trkpt lat="39.832505" lon="16.257275"><ele>472.99999999999994</ele><time>2026-05-03T13:42:09.883Z</time></trkpt><trkpt lat="39.8325133" lon="16.2571633"><ele>473.0</ele><time>2026-05-03T13:42:10.884Z</time></trkpt><trkpt lat="39.8325183" lon="16.2570417"><ele>473.0</ele><time>2026-05-03T13:42:11.884Z</time></trkpt><trkpt lat="39.8325183" lon="16.25692"><ele>472.79999999999995</ele><time>2026-05-03T13:42:12.883Z</time></trkpt><trkpt lat="39.8325133" lon="16.2567933"><ele>472.59999999999997</ele><time>2026-05-03T13:42:13.884Z</time></trkpt><trkpt lat="39.8325067" lon="16.2566667"><ele>472.40000000000003</ele><time>2026-05-03T13:42:14.884Z</time></trkpt><trkpt lat="39.832495" lon="16.2565433"><ele>472.20000000000005</ele><time>2026-05-03T13:42:15.884Z</time></trkpt><trkpt lat="39.8324717" lon="16.25642"><ele>472.0</ele><time>2026-05-03T13:42:16.884Z</time></trkpt><trkpt lat="39.83245" lon="16.2562883"><ele>472.0</ele><time>2026-05-03T13:42:17.884Z</time></trkpt><trkpt lat="39.8324217" lon="16.2561583"><ele>472.00000000000006</ele><time>2026-05-03T13:42:18.883Z</time></trkpt><trkpt lat="39.8323917" lon="16.256035"><ele>472.00000000000006</ele><time>2026-05-03T13:42:19.883Z</time></trkpt><trkpt lat="39.8323533" lon="16.2559117"><ele>472.0</ele><time>2026-05-03T13:42:20.884Z</time></trkpt><trkpt lat="39.8323117" lon="16.2557917"><ele>472.0</ele><time>2026-05-03T13:42:21.884Z</time></trkpt><trkpt lat="39.8322617" lon="16.25567"><ele>472.0</ele><time>2026-05-03T13:42:22.884Z</time></trkpt><trkpt lat="39.8322067" lon="16.2555533"><ele>472.00000000000006</ele><time>2026-05-03T13:42:23.884Z</time></trkpt><trkpt lat="39.8321483" lon="16.255435"><ele>472.00000000000006</ele><time>2026-05-03T13:42:24.884Z</time></trkpt><trkpt lat="39.8320833" lon="16.25532"><ele>472.0</ele><time>2026-05-03T13:42:25.884Z</time></trkpt><trkpt lat="39.83202" lon="16.25521"><ele>472.0</ele><time>2026-05-03T13:42:26.884Z</time></trkpt><trkpt lat="39.8319533" lon="16.255105"><ele>472.00000000000006</ele><time>2026-05-03T13:42:27.884Z</time></trkpt><trkpt lat="39.8318883" lon="16.2550083"><ele>472.0</ele><time>2026-05-03T13:42:28.884Z</time></trkpt><trkpt lat="39.831835" lon="16.2549133"><ele>472.0</ele><time>2026-05-03T13:42:29.883Z</time></trkpt><trkpt lat="39.83179" lon="16.2548133"><ele>472.0</ele><time>2026-05-03T13:42:30.884Z</time></trkpt><trkpt lat="39.8317433" lon="16.2547233"><ele>472.00000000000006</ele><time>2026-05-03T13:42:31.884Z</time></trkpt><trkpt lat="39.8317" lon="16.254645"><ele>472.0</ele><time>2026-05-03T13:42:32.884Z</time></trkpt><trkpt lat="39.83166" lon="16.25457"><ele>471.83333333333337</ele><time>2026-05-03T13:42:33.884Z</time></trkpt><trkpt lat="39.8316017" lon="16.2544567"><ele>471.6666666666667</ele><time>2026-05-03T13:42:35.884Z</time></trkpt><trkpt lat="39.8315683" lon="16.2543583"><ele>471.5</ele><time>2026-05-03T13:42:37.884Z</time></trkpt><trkpt lat="39.8315333" lon="16.2542883"><ele>471.33333333333337</ele><time>2026-05-03T13:42:39.884Z</time></trkpt><trkpt lat="39.83147" lon="16.25422"><ele>471.1666666666667</ele><time>2026-05-03T13:42:42.884Z</time></trkpt><trkpt lat="39.8314183" lon="16.2541333"><ele>471.0</ele><time>2026-05-03T13:42:45.884Z</time></trkpt><trkpt lat="39.8313683" lon="16.2540333"><ele>471.0</ele><time>2026-05-03T13:42:48.884Z</time></trkpt><trkpt lat="39.8313117" lon="16.25395"><ele>471.0</ele><time>2026-05-03T13:42:51.884Z</time></trkpt><trkpt lat="39.8312567" lon="16.25388"><ele>471.0</ele><time>2026-05-03T13:42:54.884Z</time></trkpt><trkpt lat="39.83119" lon="16.2538217"><ele>471.0</ele><time>2026-05-03T13:42:57.883Z</time></trkpt><trkpt lat="39.831175" lon="16.2539317"><ele>471.0</ele><time>2026-05-03T13:43:01.884Z</time></trkpt><trkpt lat="39.8312283" lon="16.2540117"><ele>471.0</ele><time>2026-05-03T13:43:03.884Z</time></trkpt><trkpt lat="39.83128" lon="16.2541083"><ele>471.0</ele><time>2026-05-03T13:43:05.884Z</time></trkpt><trkpt lat="39.8313567" lon="16.2542283"><ele>471.0</ele><time>2026-05-03T13:43:07.884Z</time></trkpt><trkpt lat="39.8313983" lon="16.2542967"><ele>471.0</ele><time>2026-05-03T13:43:08.884Z</time></trkpt><trkpt lat="39.8314433" lon="16.25437"><ele>471.0</ele><time>2026-05-03T13:43:09.884Z</time></trkpt><trkpt lat="39.8314917" lon="16.2544483"><ele>471.0</ele><time>2026-05-03T13:43:10.884Z</time></trkpt><trkpt lat="39.8315417" lon="16.2545317"><ele>471.0</ele><time>2026-05-03T13:43:11.884Z</time></trkpt><trkpt lat="39.8315883" lon="16.2546117"><ele>471.0</ele><time>2026-05-03T13:43:12.884Z</time></trkpt><trkpt lat="39.831635" lon="16.2546933"><ele>471.0</ele><time>2026-05-03T13:43:13.884Z</time></trkpt><trkpt lat="39.83168" lon="16.2547783"><ele>471.0</ele><time>2026-05-03T13:43:14.883Z</time></trkpt><trkpt lat="39.831735" lon="16.2548567"><ele>471.0</ele><time>2026-05-03T13:43:15.884Z</time></trkpt><trkpt lat="39.8317867" lon="16.2549417"><ele>471.0</ele><time>2026-05-03T13:43:16.885Z</time></trkpt><trkpt lat="39.831835" lon="16.25503"><ele>471.0</ele><time>2026-05-03T13:43:17.885Z</time></trkpt><trkpt lat="39.8318833" lon="16.2551217"><ele>471.1666666666667</ele><time>2026-05-03T13:43:18.885Z</time></trkpt><trkpt lat="39.83194" lon="16.25521"><ele>471.33333333333337</ele><time>2026-05-03T13:43:19.885Z</time></trkpt><trkpt lat="39.8319917" lon="16.25529"><ele>471.5</ele><time>2026-05-03T13:43:20.885Z</time></trkpt><trkpt lat="39.8320467" lon="16.255375"><ele>471.6666666666667</ele><time>2026-05-03T13:43:21.885Z</time></trkpt><trkpt lat="39.8321" lon="16.2554583"><ele>471.83333333333337</ele><time>2026-05-03T13:43:22.884Z</time></trkpt><trkpt lat="39.8321433" lon="16.2555483"><ele>472.0</ele><time>2026-05-03T13:43:23.885Z</time></trkpt><trkpt lat="39.8321883" lon="16.2556417"><ele>472.00000000000006</ele><time>2026-05-03T13:43:24.885Z</time></trkpt><trkpt lat="39.8322283" lon="16.2557383"><ele>472.0</ele><time>2026-05-03T13:43:25.885Z</time></trkpt><trkpt lat="39.8322633" lon="16.2558333"><ele>472.0</ele><time>2026-05-03T13:43:26.884Z</time></trkpt><trkpt lat="39.8322933" lon="16.2559317"><ele>472.0</ele><time>2026-05-03T13:43:27.885Z</time></trkpt><trkpt lat="39.8323167" lon="16.25603"><ele>472.00000000000006</ele><time>2026-05-03T13:43:28.885Z</time></trkpt><trkpt lat="39.8323383" lon="16.25613"><ele>472.0</ele><time>2026-05-03T13:43:29.885Z</time></trkpt><trkpt lat="39.8323683" lon="16.2562317"><ele>472.00000000000006</ele><time>2026-05-03T13:43:30.885Z</time></trkpt><trkpt lat="39.8323917" lon="16.2563333"><ele>472.0</ele><time>2026-05-03T13:43:31.885Z</time></trkpt><trkpt lat="39.832405" lon="16.2564367"><ele>472.0</ele><time>2026-05-03T13:43:32.885Z</time></trkpt><trkpt lat="39.8324183" lon="16.2565467"><ele>472.0</ele><time>2026-05-03T13:43:33.884Z</time></trkpt><trkpt lat="39.8324333" lon="16.2566617"><ele>472.00000000000006</ele><time>2026-05-03T13:43:34.885Z</time></trkpt><trkpt lat="39.8324333" lon="16.25678"><ele>472.0</ele><time>2026-05-03T13:43:35.885Z</time></trkpt><trkpt lat="39.8324383" lon="16.2569083"><ele>471.8</ele><time>2026-05-03T13:43:36.884Z</time></trkpt><trkpt lat="39.8324367" lon="16.2570433"><ele>471.6</ele><time>2026-05-03T13:43:37.884Z</time></trkpt><trkpt lat="39.8324317" lon="16.2571833"><ele>471.40000000000003</ele><time>2026-05-03T13:43:38.885Z</time></trkpt><trkpt lat="39.8324167" lon="16.25731"><ele>471.20000000000005</ele><time>2026-05-03T13:43:39.885Z</time></trkpt><trkpt lat="39.8324" lon="16.2574517"><ele>471.0</ele><time>2026-05-03T13:43:40.885Z</time></trkpt><trkpt lat="39.8323833" lon="16.257595"><ele>471.20000000000005</ele><time>2026-05-03T13:43:41.884Z</time></trkpt><trkpt lat="39.8323717" lon="16.257735"><ele>471.40000000000003</ele><time>2026-05-03T13:43:42.885Z</time></trkpt><trkpt lat="39.8323633" lon="16.2578667"><ele>471.6</ele><time>2026-05-03T13:43:43.885Z</time></trkpt><trkpt lat="39.83235" lon="16.2580033"><ele>471.8</ele><time>2026-05-03T13:43:44.885Z</time></trkpt><trkpt lat="39.83234" lon="16.25813"><ele>472.0</ele><time>2026-05-03T13:43:45.884Z</time></trkpt><trkpt lat="39.8323283" lon="16.2582483"><ele>472.00000000000006</ele><time>2026-05-03T13:43:46.885Z</time></trkpt><trkpt lat="39.83232" lon="16.2583617"><ele>472.0</ele><time>2026-05-03T13:43:47.884Z</time></trkpt><trkpt lat="39.8323083" lon="16.2584683"><ele>472.0</ele><time>2026-05-03T13:43:48.885Z</time></trkpt><trkpt lat="39.8323033" lon="16.258565"><ele>472.0</ele><time>2026-05-03T13:43:49.885Z</time></trkpt><trkpt lat="39.832295" lon="16.2586567"><ele>472.00000000000006</ele><time>2026-05-03T13:43:50.885Z</time></trkpt><trkpt lat="39.8322633" lon="16.2587767"><ele>472.0</ele><time>2026-05-03T13:43:52.885Z</time></trkpt><trkpt lat="39.8322" lon="16.2588517"><ele>472.0</ele><time>2026-05-03T13:43:54.885Z</time></trkpt><trkpt lat="39.8321383" lon="16.2589333"><ele>472.0</ele><time>2026-05-03T13:43:56.884Z</time></trkpt><trkpt lat="39.832115" lon="16.2590267"><ele>472.0</ele><time>2026-05-03T13:43:58.885Z</time></trkpt><trkpt lat="39.8321217" lon="16.25911"><ele>472.0</ele><time>2026-05-03T13:44:00.885Z</time></trkpt><trkpt lat="39.832195" lon="16.25911"><ele>472.0</ele><time>2026-05-03T13:44:03.885Z</time></trkpt><trkpt lat="39.8322267" lon="16.25902"><ele>472.0</ele><time>2026-05-03T13:44:06.885Z</time></trkpt><trkpt lat="39.83222" lon="16.2589367"><ele>472.0</ele><time>2026-05-03T13:44:09.885Z</time></trkpt><trkpt lat="39.8321883" lon="16.25886"><ele>472.00000000000006</ele><time>2026-05-03T13:44:13.885Z</time></trkpt><trkpt lat="39.8322367" lon="16.2587917"><ele>472.0</ele><time>2026-05-03T13:44:16.885Z</time></trkpt><trkpt lat="39.8322867" lon="16.2587033"><ele>472.0</ele><time>2026-05-03T13:44:20.885Z</time></trkpt><trkpt lat="39.8322917" lon="16.2586117"><ele>472.0</ele><time>2026-05-03T13:44:22.885Z</time></trkpt><trkpt lat="39.83231" lon="16.2584833"><ele>472.00000000000006</ele><time>2026-05-03T13:44:24.884Z</time></trkpt><trkpt lat="39.8323333" lon="16.25833"><ele>472.0</ele><time>2026-05-03T13:44:26.885Z</time></trkpt><trkpt lat="39.8323467" lon="16.2582367"><ele>472.0</ele><time>2026-05-03T13:44:27.884Z</time></trkpt><trkpt lat="39.8323633" lon="16.2581333"><ele>472.00000000000006</ele><time>2026-05-03T13:44:28.885Z</time></trkpt><trkpt lat="39.83238" lon="16.2580283"><ele>472.00000000000006</ele><time>2026-05-03T13:44:29.885Z</time></trkpt><trkpt lat="39.8324" lon="16.2579117"><ele>472.0</ele><time>2026-05-03T13:44:30.884Z</time></trkpt><trkpt lat="39.8324217" lon="16.25778"><ele>472.0</ele><time>2026-05-03T13:44:31.884Z</time></trkpt><trkpt lat="39.8324383" lon="16.2576317"><ele>472.25</ele><time>2026-05-03T13:44:32.885Z</time></trkpt><trkpt lat="39.8324533" lon="16.2574683"><ele>472.5</ele><time>2026-05-03T13:44:33.885Z</time></trkpt><trkpt lat="39.8324717" lon="16.2572983"><ele>472.75</ele><time>2026-05-03T13:44:34.885Z</time></trkpt><trkpt lat="39.8324867" lon="16.2571333"><ele>473.0</ele><time>2026-05-03T13:44:35.885Z</time></trkpt><trkpt lat="39.832495" lon="16.2569617"><ele>472.75</ele><time>2026-05-03T13:44:36.884Z</time></trkpt><trkpt lat="39.8324917" lon="16.2567967"><ele>472.5</ele><time>2026-05-03T13:44:37.884Z</time></trkpt><trkpt lat="39.8324817" lon="16.2566233"><ele>472.25</ele><time>2026-05-03T13:44:38.885Z</time></trkpt><trkpt lat="39.83246" lon="16.2564483"><ele>472.0</ele><time>2026-05-03T13:44:39.885Z</time></trkpt><trkpt lat="39.8324333" lon="16.25628"><ele>472.0</ele><time>2026-05-03T13:44:40.885Z</time></trkpt><trkpt lat="39.8323967" lon="16.2561283"><ele>472.0</ele><time>2026-05-03T13:44:41.884Z</time></trkpt><trkpt lat="39.83236" lon="16.2559917"><ele>472.0</ele><time>2026-05-03T13:44:42.884Z</time></trkpt><trkpt lat="39.83232" lon="16.2558633"><ele>472.0</ele><time>2026-05-03T13:44:43.885Z</time></trkpt><trkpt lat="39.8322683" lon="16.2557317"><ele>472.0</ele><time>2026-05-03T13:44:44.885Z</time></trkpt><trkpt lat="39.83221" lon="16.2555983"><ele>472.0</ele><time>2026-05-03T13:44:45.885Z</time></trkpt><trkpt lat="39.8321433" lon="16.2554517"><ele>472.0</ele><time>2026-05-03T13:44:46.885Z</time></trkpt><trkpt lat="39.8320667" lon="16.2553083"><ele>472.0</ele><time>2026-05-03T13:44:47.885Z</time></trkpt><trkpt lat="39.831985" lon="16.255175"><ele>472.0</ele><time>2026-05-03T13:44:48.885Z</time></trkpt><trkpt lat="39.8319083" lon="16.2550533"><ele>472.00000000000006</ele><time>2026-05-03T13:44:49.885Z</time></trkpt><trkpt lat="39.8318417" lon="16.2549433"><ele>472.00000000000006</ele><time>2026-05-03T13:44:50.884Z</time></trkpt><trkpt lat="39.8317933" lon="16.2548367"><ele>472.0</ele><time>2026-05-03T13:44:51.885Z</time></trkpt><trkpt lat="39.831735" lon="16.25474"><ele>472.0</ele><time>2026-05-03T13:44:52.885Z</time></trkpt><trkpt lat="39.8316833" lon="16.25465"><ele>471.83333333333337</ele><time>2026-05-03T13:44:53.885Z</time></trkpt><trkpt lat="39.8316383" lon="16.2545617"><ele>471.6666666666667</ele><time>2026-05-03T13:44:54.885Z</time></trkpt><trkpt lat="39.831605" lon="16.254465"><ele>471.5</ele><time>2026-05-03T13:44:55.885Z</time></trkpt><trkpt lat="39.8315833" lon="16.254365"><ele>471.33333333333337</ele><time>2026-05-03T13:44:56.885Z</time></trkpt><trkpt lat="39.83158" lon="16.2542533"><ele>471.1666666666667</ele><time>2026-05-03T13:44:57.885Z</time></trkpt><trkpt lat="39.8315933" lon="16.25414"><ele>471.0</ele><time>2026-05-03T13:44:58.885Z</time></trkpt><trkpt lat="39.8316167" lon="16.25404"><ele>471.0</ele><time>2026-05-03T13:44:59.885Z</time></trkpt><trkpt lat="39.8316683" lon="16.25395"><ele>471.0</ele><time>2026-05-03T13:45:00.884Z</time></trkpt><trkpt lat="39.8317333" lon="16.2538567"><ele>471.0</ele><time>2026-05-03T13:45:01.885Z</time></trkpt><trkpt lat="39.8318133" lon="16.2537833"><ele>471.0</ele><time>2026-05-03T13:45:02.885Z</time></trkpt><trkpt lat="39.831915" lon="16.253735"><ele>471.0</ele><time>2026-05-03T13:45:03.885Z</time></trkpt><trkpt lat="39.8320267" lon="16.2537183"><ele>471.0</ele><time>2026-05-03T13:45:04.885Z</time></trkpt><trkpt lat="39.832145" lon="16.2537033"><ele>471.0</ele><time>2026-05-03T13:45:05.885Z</time></trkpt><trkpt lat="39.83226" lon="16.25369"><ele>471.0</ele><time>2026-05-03T13:45:06.885Z</time></trkpt><trkpt lat="39.8323783" lon="16.25368"><ele>471.0</ele><time>2026-05-03T13:45:07.885Z</time></trkpt><trkpt lat="39.8325017" lon="16.2536733"><ele>471.0</ele><time>2026-05-03T13:45:08.885Z</time></trkpt><trkpt lat="39.83262" lon="16.253665"><ele>471.0</ele><time>2026-05-03T13:45:09.885Z</time></trkpt><trkpt lat="39.8327383" lon="16.253665"><ele>471.0</ele><time>2026-05-03T13:45:10.885Z</time></trkpt><trkpt lat="39.8328567" lon="16.253675"><ele>471.0</ele><time>2026-05-03T13:45:11.885Z</time></trkpt><trkpt lat="39.832975" lon="16.2536917"><ele>471.5</ele><time>2026-05-03T13:45:12.885Z</time></trkpt><trkpt lat="39.8330917" lon="16.2537167"><ele>472.0</ele><time>2026-05-03T13:45:13.885Z</time></trkpt><trkpt lat="39.8332133" lon="16.2537483"><ele>472.5</ele><time>2026-05-03T13:45:14.885Z</time></trkpt><trkpt lat="39.8333367" lon="16.253785"><ele>473.0</ele><time>2026-05-03T13:45:15.885Z</time></trkpt><trkpt lat="39.8334617" lon="16.253835"><ele>474.0</ele><time>2026-05-03T13:45:16.885Z</time></trkpt><trkpt lat="39.8335883" lon="16.2538917"><ele>475.0</ele><time>2026-05-03T13:45:17.885Z</time></trkpt><trkpt lat="39.83371" lon="16.253955"><ele>476.0</ele><time>2026-05-03T13:45:18.884Z</time></trkpt><trkpt lat="39.83383" lon="16.2540267"><ele>477.0</ele><time>2026-05-03T13:45:19.885Z</time></trkpt><trkpt lat="39.83394" lon="16.2541017"><ele>477.5</ele><time>2026-05-03T13:45:20.885Z</time></trkpt><trkpt lat="39.834045" lon="16.254185"><ele>478.0</ele><time>2026-05-03T13:45:21.885Z</time></trkpt><trkpt lat="39.8341533" lon="16.2542733"><ele>478.5</ele><time>2026-05-03T13:45:22.885Z</time></trkpt><trkpt lat="39.8342583" lon="16.254375"><ele>479.0</ele><time>2026-05-03T13:45:23.885Z</time></trkpt><trkpt lat="39.83436" lon="16.2544833"><ele>480.5</ele><time>2026-05-03T13:45:24.885Z</time></trkpt><trkpt lat="39.8344567" lon="16.2545967"><ele>482.0</ele><time>2026-05-03T13:45:25.885Z</time></trkpt><trkpt lat="39.8345417" lon="16.254715"><ele>483.5</ele><time>2026-05-03T13:45:26.885Z</time></trkpt><trkpt lat="39.8346117" lon="16.254845"><ele>485.0</ele><time>2026-05-03T13:45:27.884Z</time></trkpt><trkpt lat="39.8346683" lon="16.2549867"><ele>485.0</ele><time>2026-05-03T13:45:28.884Z</time></trkpt><trkpt lat="39.8347067" lon="16.2551433"><ele>485.0</ele><time>2026-05-03T13:45:29.885Z</time></trkpt><trkpt lat="39.834735" lon="16.2553117"><ele>485.0</ele><time>2026-05-03T13:45:30.885Z</time></trkpt><trkpt lat="39.834745" lon="16.2554883"><ele>485.0</ele><time>2026-05-03T13:45:31.885Z</time></trkpt><trkpt lat="39.8347233" lon="16.2556717"><ele>485.0</ele><time>2026-05-03T13:45:32.885Z</time></trkpt><trkpt lat="39.83468" lon="16.2558467"><ele>485.0</ele><time>2026-05-03T13:45:33.884Z</time></trkpt><trkpt lat="39.8346133" lon="16.2560133"><ele>485.0</ele><time>2026-05-03T13:45:34.885Z</time></trkpt><trkpt lat="39.8345233" lon="16.2561717"><ele>485.0</ele><time>2026-05-03T13:45:35.885Z</time></trkpt><trkpt lat="39.8344233" lon="16.2562967"><ele>485.0</ele><time>2026-05-03T13:45:36.885Z</time></trkpt><trkpt lat="39.8343183" lon="16.2563967"><ele>485.0</ele><time>2026-05-03T13:45:37.885Z</time></trkpt><trkpt lat="39.8341983" lon="16.2564783"><ele>485.0</ele><time>2026-05-03T13:45:38.884Z</time></trkpt><trkpt lat="39.834065" lon="16.256555"><ele>485.0</ele><time>2026-05-03T13:45:39.885Z</time></trkpt><trkpt lat="39.8339233" lon="16.2566267"><ele>484.0</ele><time>2026-05-03T13:45:40.885Z</time></trkpt><trkpt lat="39.8337767" lon="16.2567017"><ele>483.0</ele><time>2026-05-03T13:45:41.884Z</time></trkpt><trkpt lat="39.8336317" lon="16.25678"><ele>482.0</ele><time>2026-05-03T13:45:42.885Z</time></trkpt><trkpt lat="39.8334833" lon="16.2568517"><ele>480.3333333333333</ele><time>2026-05-03T13:45:43.884Z</time></trkpt><trkpt lat="39.8333283" lon="16.2569267"><ele>478.66666666666663</ele><time>2026-05-03T13:45:44.885Z</time></trkpt><trkpt lat="39.8331567" lon="16.257015"><ele>477.0</ele><time>2026-05-03T13:45:45.885Z</time></trkpt><trkpt lat="39.8329733" lon="16.2571117"><ele>477.0</ele><time>2026-05-03T13:45:46.885Z</time></trkpt><trkpt lat="39.8327817" lon="16.2572133"><ele>477.0</ele><time>2026-05-03T13:45:47.885Z</time></trkpt><trkpt lat="39.8325817" lon="16.2573133"><ele>477.0</ele><time>2026-05-03T13:45:48.885Z</time></trkpt><trkpt lat="39.8323767" lon="16.2574133"><ele>475.0</ele><time>2026-05-03T13:45:49.885Z</time></trkpt><trkpt lat="39.8321667" lon="16.2575183"><ele>473.0</ele><time>2026-05-03T13:45:50.885Z</time></trkpt><trkpt lat="39.8319533" lon="16.2576217"><ele>471.5</ele><time>2026-05-03T13:45:51.885Z</time></trkpt><trkpt lat="39.8317383" lon="16.25773"><ele>470.0</ele><time>2026-05-03T13:45:52.885Z</time></trkpt><trkpt lat="39.831525" lon="16.257845"><ele>470.0</ele><time>2026-05-03T13:45:53.884Z</time></trkpt><trkpt lat="39.831315" lon="16.257955"><ele>470.0</ele><time>2026-05-03T13:45:54.885Z</time></trkpt><trkpt lat="39.8311083" lon="16.2580517"><ele>470.0</ele><time>2026-05-03T13:45:55.885Z</time></trkpt><trkpt lat="39.8308917" lon="16.2581517"><ele>469.0</ele><time>2026-05-03T13:45:56.885Z</time></trkpt><trkpt lat="39.830675" lon="16.25825"><ele>468.0</ele><time>2026-05-03T13:45:57.885Z</time></trkpt><trkpt lat="39.830455" lon="16.2583533"><ele>468.0</ele><time>2026-05-03T13:45:58.885Z</time></trkpt><trkpt lat="39.83023" lon="16.2584683"><ele>468.0</ele><time>2026-05-03T13:45:59.885Z</time></trkpt><trkpt lat="39.830005" lon="16.2585783"><ele>467.0</ele><time>2026-05-03T13:46:00.885Z</time></trkpt><trkpt lat="39.8297833" lon="16.258685"><ele>466.0</ele><time>2026-05-03T13:46:01.884Z</time></trkpt><trkpt lat="39.8295667" lon="16.2587883"><ele>466.0</ele><time>2026-05-03T13:46:02.885Z</time></trkpt><trkpt lat="39.829355" lon="16.2588967"><ele>466.0</ele><time>2026-05-03T13:46:03.885Z</time></trkpt><trkpt lat="39.8291417" lon="16.2589983"><ele>466.5</ele><time>2026-05-03T13:46:04.884Z</time></trkpt><trkpt lat="39.8289267" lon="16.2591067"><ele>467.0</ele><time>2026-05-03T13:46:05.885Z</time></trkpt><trkpt lat="39.8287083" lon="16.2592033"><ele>467.0</ele><time>2026-05-03T13:46:06.885Z</time></trkpt><trkpt lat="39.8284883" lon="16.2592883"><ele>467.0</ele><time>2026-05-03T13:46:07.885Z</time></trkpt><trkpt lat="39.828265" lon="16.25936"><ele>466.66666666666663</ele><time>2026-05-03T13:46:08.884Z</time></trkpt><trkpt lat="39.82805" lon="16.259425"><ele>466.33333333333337</ele><time>2026-05-03T13:46:09.884Z</time></trkpt><trkpt lat="39.82784" lon="16.2594717"><ele>466.0</ele><time>2026-05-03T13:46:10.885Z</time></trkpt><trkpt lat="39.8276367" lon="16.2595133"><ele>465.6666666666667</ele><time>2026-05-03T13:46:11.884Z</time></trkpt><trkpt lat="39.8274283" lon="16.2595433"><ele>465.33333333333337</ele><time>2026-05-03T13:46:12.885Z</time></trkpt><trkpt lat="39.8272033" lon="16.2595633"><ele>465.0</ele><time>2026-05-03T13:46:13.885Z</time></trkpt><trkpt lat="39.8269733" lon="16.2595817"><ele>465.0</ele><time>2026-05-03T13:46:14.885Z</time></trkpt><trkpt lat="39.8267417" lon="16.2595883"><ele>465.0</ele><time>2026-05-03T13:46:15.885Z</time></trkpt><trkpt lat="39.82651" lon="16.2595833"><ele>465.0</ele><time>2026-05-03T13:46:16.884Z</time></trkpt><trkpt lat="39.82628" lon="16.2595617"><ele>465.0</ele><time>2026-05-03T13:46:17.885Z</time></trkpt><trkpt lat="39.826055" lon="16.2595367"><ele>463.5</ele><time>2026-05-03T13:46:18.884Z</time></trkpt><trkpt lat="39.82583" lon="16.259505"><ele>462.0</ele><time>2026-05-03T13:46:19.885Z</time></trkpt><trkpt lat="39.8256083" lon="16.25946"><ele>462.0</ele><time>2026-05-03T13:46:20.885Z</time></trkpt><trkpt lat="39.825385" lon="16.259405"><ele>462.0</ele><time>2026-05-03T13:46:21.885Z</time></trkpt><trkpt lat="39.8251617" lon="16.25934"><ele>461.33333333333337</ele><time>2026-05-03T13:46:22.885Z</time></trkpt><trkpt lat="39.8249483" lon="16.2592717"><ele>460.6666666666667</ele><time>2026-05-03T13:46:23.885Z</time></trkpt><trkpt lat="39.8247283" lon="16.2591933"><ele>460.0</ele><time>2026-05-03T13:46:24.885Z</time></trkpt><trkpt lat="39.82452" lon="16.2591017"><ele>460.0</ele><time>2026-05-03T13:46:25.885Z</time></trkpt><trkpt lat="39.824315" lon="16.259005"><ele>460.0</ele><time>2026-05-03T13:46:26.885Z</time></trkpt><trkpt lat="39.82411" lon="16.2588983"><ele>460.0</ele><time>2026-05-03T13:46:27.885Z</time></trkpt><trkpt lat="39.82391" lon="16.25878"><ele>459.5</ele><time>2026-05-03T13:46:28.885Z</time></trkpt><trkpt lat="39.8237083" lon="16.25865"><ele>459.0</ele><time>2026-05-03T13:46:29.885Z</time></trkpt><trkpt lat="39.8235033" lon="16.2585167"><ele>457.5</ele><time>2026-05-03T13:46:30.885Z</time></trkpt><trkpt lat="39.8233033" lon="16.258365"><ele>456.0</ele><time>2026-05-03T13:46:31.885Z</time></trkpt><trkpt lat="39.8231" lon="16.2582017"><ele>456.5</ele><time>2026-05-03T13:46:32.885Z</time></trkpt><trkpt lat="39.8229" lon="16.2580367"><ele>457.0</ele><time>2026-05-03T13:46:33.885Z</time></trkpt><trkpt lat="39.8226983" lon="16.25787"><ele>454.0</ele><time>2026-05-03T13:46:34.885Z</time></trkpt><trkpt lat="39.822495" lon="16.2577017"><ele>451.0</ele><time>2026-05-03T13:46:35.884Z</time></trkpt><trkpt lat="39.8222833" lon="16.2575383"><ele>451.0</ele><time>2026-05-03T13:46:36.885Z</time></trkpt><trkpt lat="39.822075" lon="16.2573717"><ele>451.0</ele><time>2026-05-03T13:46:37.885Z</time></trkpt><trkpt lat="39.8218633" lon="16.2572017"><ele>447.0</ele><time>2026-05-03T13:46:38.885Z</time></trkpt><trkpt lat="39.8216633" lon="16.2570333"><ele>443.0</ele><time>2026-05-03T13:46:39.884Z</time></trkpt><trkpt lat="39.8214567" lon="16.2568567"><ele>443.0</ele><time>2026-05-03T13:46:40.885Z</time></trkpt><trkpt lat="39.8212483" lon="16.2566917"><ele>443.0</ele><time>2026-05-03T13:46:41.885Z</time></trkpt><trkpt lat="39.8210367" lon="16.25652"><ele>439.0</ele><time>2026-05-03T13:46:42.884Z</time></trkpt><trkpt lat="39.8208233" lon="16.256355"><ele>435.0</ele><time>2026-05-03T13:46:43.885Z</time></trkpt><trkpt lat="39.8206117" lon="16.2562"><ele>435.0</ele><time>2026-05-03T13:46:44.884Z</time></trkpt><trkpt lat="39.820395" lon="16.2560533"><ele>435.0</ele><time>2026-05-03T13:46:45.885Z</time></trkpt><trkpt lat="39.8201783" lon="16.255905"><ele>431.5</ele><time>2026-05-03T13:46:46.885Z</time></trkpt><trkpt lat="39.8199567" lon="16.2557617"><ele>428.0</ele><time>2026-05-03T13:46:47.884Z</time></trkpt><trkpt lat="39.819735" lon="16.2556283"><ele>426.5</ele><time>2026-05-03T13:46:48.885Z</time></trkpt><trkpt lat="39.8195083" lon="16.2554967"><ele>425.0</ele><time>2026-05-03T13:46:49.885Z</time></trkpt><trkpt lat="39.8192783" lon="16.2553783"><ele>423.0</ele><time>2026-05-03T13:46:50.884Z</time></trkpt><trkpt lat="39.8190433" lon="16.255265"><ele>421.0</ele><time>2026-05-03T13:46:51.884Z</time></trkpt><trkpt lat="39.8188067" lon="16.255155"><ele>421.0</ele><time>2026-05-03T13:46:52.884Z</time></trkpt><trkpt lat="39.8185733" lon="16.2550517"><ele>421.0</ele><time>2026-05-03T13:46:53.885Z</time></trkpt><trkpt lat="39.8183367" lon="16.2549583"><ele>420.0</ele><time>2026-05-03T13:46:54.885Z</time></trkpt><trkpt lat="39.8181033" lon="16.2548683"><ele>419.0</ele><time>2026-05-03T13:46:55.885Z</time></trkpt><trkpt lat="39.8178683" lon="16.254785"><ele>417.5</ele><time>2026-05-03T13:46:56.884Z</time></trkpt><trkpt lat="39.8176317" lon="16.2547"><ele>416.0</ele><time>2026-05-03T13:46:57.885Z</time></trkpt><trkpt lat="39.817395" lon="16.254615"><ele>416.0</ele><time>2026-05-03T13:46:58.885Z</time></trkpt><trkpt lat="39.81716" lon="16.254525"><ele>416.0</ele><time>2026-05-03T13:46:59.885Z</time></trkpt><trkpt lat="39.8169283" lon="16.2544383"><ele>415.0</ele><time>2026-05-03T13:47:00.885Z</time></trkpt><trkpt lat="39.8166983" lon="16.254355"><ele>414.0</ele><time>2026-05-03T13:47:01.885Z</time></trkpt><trkpt lat="39.81646" lon="16.2542733"><ele>414.0</ele><time>2026-05-03T13:47:02.885Z</time></trkpt><trkpt lat="39.8162283" lon="16.2541833"><ele>414.0</ele><time>2026-05-03T13:47:03.885Z</time></trkpt><trkpt lat="39.815995" lon="16.2540917"><ele>413.5</ele><time>2026-05-03T13:47:04.885Z</time></trkpt><trkpt lat="39.8157617" lon="16.2540033"><ele>413.0</ele><time>2026-05-03T13:47:05.884Z</time></trkpt><trkpt lat="39.815525" lon="16.2539183"><ele>413.0</ele><time>2026-05-03T13:47:06.885Z</time></trkpt><trkpt lat="39.8152867" lon="16.2538317"><ele>413.0</ele><time>2026-05-03T13:47:07.885Z</time></trkpt><trkpt lat="39.8150467" lon="16.2537467"><ele>411.0</ele><time>2026-05-03T13:47:08.885Z</time></trkpt><trkpt lat="39.8148017" lon="16.2536517"><ele>409.0</ele><time>2026-05-03T13:47:09.885Z</time></trkpt><trkpt lat="39.814555" lon="16.2535633"><ele>406.5</ele><time>2026-05-03T13:47:10.885Z</time></trkpt><trkpt lat="39.8143083" lon="16.2534667"><ele>404.0</ele><time>2026-05-03T13:47:11.885Z</time></trkpt><trkpt lat="39.8140567" lon="16.2533733"><ele>404.0</ele><time>2026-05-03T13:47:12.885Z</time></trkpt><trkpt lat="39.8138033" lon="16.2532733"><ele>404.0</ele><time>2026-05-03T13:47:13.884Z</time></trkpt><trkpt lat="39.813555" lon="16.2531733"><ele>396.0</ele><time>2026-05-03T13:47:14.885Z</time></trkpt><trkpt lat="39.8133017" lon="16.2530883"><ele>388.0</ele><time>2026-05-03T13:47:15.885Z</time></trkpt><trkpt lat="39.8130467" lon="16.253"><ele>388.0</ele><time>2026-05-03T13:47:16.885Z</time></trkpt><trkpt lat="39.8127933" lon="16.2529117"><ele>388.0</ele><time>2026-05-03T13:47:17.885Z</time></trkpt><trkpt lat="39.8125367" lon="16.2528167"><ele>380.5</ele><time>2026-05-03T13:47:18.884Z</time></trkpt><trkpt lat="39.81228" lon="16.252725"><ele>373.0</ele><time>2026-05-03T13:47:19.884Z</time></trkpt><trkpt lat="39.8120267" lon="16.2526283"><ele>369.5</ele><time>2026-05-03T13:47:20.884Z</time></trkpt><trkpt lat="39.81178" lon="16.2525383"><ele>366.0</ele><time>2026-05-03T13:47:21.885Z</time></trkpt><trkpt lat="39.81153" lon="16.252445"><ele>366.0</ele><time>2026-05-03T13:47:22.884Z</time></trkpt><trkpt lat="39.81128" lon="16.252355"><ele>366.0</ele><time>2026-05-03T13:47:23.885Z</time></trkpt><trkpt lat="39.8110367" lon="16.2522683"><ele>366.0</ele><time>2026-05-03T13:47:24.885Z</time></trkpt><trkpt lat="39.8107967" lon="16.2521817"><ele>366.0</ele><time>2026-05-03T13:47:25.885Z</time></trkpt><trkpt lat="39.810555" lon="16.25208"><ele>366.0</ele><time>2026-05-03T13:47:26.884Z</time></trkpt><trkpt lat="39.8103167" lon="16.251955"><ele>366.0</ele><time>2026-05-03T13:47:27.885Z</time></trkpt><trkpt lat="39.81009" lon="16.2518167"><ele>371.5</ele><time>2026-05-03T13:47:28.884Z</time></trkpt><trkpt lat="39.8098683" lon="16.2516617"><ele>377.0</ele><time>2026-05-03T13:47:29.885Z</time></trkpt><trkpt lat="39.8096567" lon="16.2514867"><ele>377.0</ele><time>2026-05-03T13:47:30.885Z</time></trkpt><trkpt lat="39.8094467" lon="16.2512967"><ele>377.0</ele><time>2026-05-03T13:47:31.884Z</time></trkpt><trkpt lat="39.8092467" lon="16.2510967"><ele>381.0</ele><time>2026-05-03T13:47:32.884Z</time></trkpt><trkpt lat="39.8090467" lon="16.250885"><ele>385.0</ele><time>2026-05-03T13:47:33.884Z</time></trkpt><trkpt lat="39.8088583" lon="16.2506533"><ele>385.5</ele><time>2026-05-03T13:47:34.885Z</time></trkpt><trkpt lat="39.8086717" lon="16.25042"><ele>386.0</ele><time>2026-05-03T13:47:35.885Z</time></trkpt><trkpt lat="39.8084767" lon="16.2501783"><ele>386.5</ele><time>2026-05-03T13:47:36.885Z</time></trkpt><trkpt lat="39.808275" lon="16.2499517"><ele>387.0</ele><time>2026-05-03T13:47:37.885Z</time></trkpt><trkpt lat="39.8080783" lon="16.2497217"><ele>386.0</ele><time>2026-05-03T13:47:38.884Z</time></trkpt><trkpt lat="39.8078817" lon="16.2494917"><ele>385.0</ele><time>2026-05-03T13:47:39.885Z</time></trkpt><trkpt lat="39.8076883" lon="16.249255"><ele>383.0</ele><time>2026-05-03T13:47:40.885Z</time></trkpt><trkpt lat="39.8075033" lon="16.2490317"><ele>381.0</ele><time>2026-05-03T13:47:41.885Z</time></trkpt><trkpt lat="39.807315" lon="16.248805"><ele>378.0</ele><time>2026-05-03T13:47:42.885Z</time></trkpt><trkpt lat="39.8071233" lon="16.2485833"><ele>375.0</ele><time>2026-05-03T13:47:43.885Z</time></trkpt><trkpt lat="39.8069317" lon="16.2483567"><ele>376.0</ele><time>2026-05-03T13:47:44.885Z</time></trkpt><trkpt lat="39.8067433" lon="16.2481383"><ele>377.0</ele><time>2026-05-03T13:47:45.885Z</time></trkpt><trkpt lat="39.80656" lon="16.2479233"><ele>373.0</ele><time>2026-05-03T13:47:46.885Z</time></trkpt><trkpt lat="39.8063767" lon="16.2477067"><ele>369.0</ele><time>2026-05-03T13:47:47.885Z</time></trkpt><trkpt lat="39.8061917" lon="16.2474883"><ele>369.5</ele><time>2026-05-03T13:47:48.885Z</time></trkpt><trkpt lat="39.8060117" lon="16.247275"><ele>370.0</ele><time>2026-05-03T13:47:49.885Z</time></trkpt><trkpt lat="39.8058283" lon="16.2470583"><ele>370.0</ele><time>2026-05-03T13:47:50.885Z</time></trkpt><trkpt lat="39.8056467" lon="16.246845"><ele>370.0</ele><time>2026-05-03T13:47:51.885Z</time></trkpt><trkpt lat="39.80546" lon="16.2466217"><ele>369.0</ele><time>2026-05-03T13:47:52.885Z</time></trkpt><trkpt lat="39.805275" lon="16.2464017"><ele>368.0</ele><time>2026-05-03T13:47:53.885Z</time></trkpt><trkpt lat="39.80509" lon="16.24618"><ele>368.0</ele><time>2026-05-03T13:47:54.884Z</time></trkpt><trkpt lat="39.8049" lon="16.245955"><ele>368.0</ele><time>2026-05-03T13:47:55.884Z</time></trkpt><trkpt lat="39.80471" lon="16.2457283"><ele>365.5</ele><time>2026-05-03T13:47:56.885Z</time></trkpt><trkpt lat="39.804515" lon="16.2455"><ele>363.0</ele><time>2026-05-03T13:47:57.884Z</time></trkpt><trkpt lat="39.8043183" lon="16.2452667"><ele>363.0</ele><time>2026-05-03T13:47:58.885Z</time></trkpt><trkpt lat="39.8041217" lon="16.2450317"><ele>363.0</ele><time>2026-05-03T13:47:59.884Z</time></trkpt><trkpt lat="39.8039283" lon="16.2448"><ele>359.5</ele><time>2026-05-03T13:48:00.884Z</time></trkpt><trkpt lat="39.80373" lon="16.244565"><ele>356.0</ele><time>2026-05-03T13:48:01.884Z</time></trkpt><trkpt lat="39.8035317" lon="16.2443333"><ele>355.5</ele><time>2026-05-03T13:48:02.885Z</time></trkpt><trkpt lat="39.803335" lon="16.2441033"><ele>355.0</ele><time>2026-05-03T13:48:03.885Z</time></trkpt><trkpt lat="39.803145" lon="16.2438717"><ele>355.0</ele><time>2026-05-03T13:48:04.885Z</time></trkpt><trkpt lat="39.80295" lon="16.2436467"><ele>355.0</ele><time>2026-05-03T13:48:05.885Z</time></trkpt><trkpt lat="39.8027567" lon="16.2434183"><ele>355.0</ele><time>2026-05-03T13:48:06.884Z</time></trkpt><trkpt lat="39.8025667" lon="16.243195"><ele>355.0</ele><time>2026-05-03T13:48:07.885Z</time></trkpt><trkpt lat="39.80238" lon="16.2429733"><ele>355.0</ele><time>2026-05-03T13:48:08.885Z</time></trkpt><trkpt lat="39.8021883" lon="16.2427433"><ele>355.0</ele><time>2026-05-03T13:48:09.885Z</time></trkpt><trkpt lat="39.801995" lon="16.24251"><ele>355.0</ele><time>2026-05-03T13:48:10.884Z</time></trkpt><trkpt lat="39.801795" lon="16.242275"><ele>355.0</ele><time>2026-05-03T13:48:11.885Z</time></trkpt><trkpt lat="39.801595" lon="16.24203"><ele>355.0</ele><time>2026-05-03T13:48:12.885Z</time></trkpt><trkpt lat="39.8013917" lon="16.24179"><ele>355.0</ele><time>2026-05-03T13:48:13.885Z</time></trkpt><trkpt lat="39.8011833" lon="16.2415483"><ele>354.5</ele><time>2026-05-03T13:48:14.885Z</time></trkpt><trkpt lat="39.8009817" lon="16.2413033"><ele>354.0</ele><time>2026-05-03T13:48:15.885Z</time></trkpt><trkpt lat="39.80078" lon="16.2410517"><ele>354.0</ele><time>2026-05-03T13:48:16.885Z</time></trkpt><trkpt lat="39.8005683" lon="16.2408067"><ele>354.0</ele><time>2026-05-03T13:48:17.885Z</time></trkpt><trkpt lat="39.800345" lon="16.2405583"><ele>352.5</ele><time>2026-05-03T13:48:18.885Z</time></trkpt><trkpt lat="39.8001317" lon="16.240305"><ele>351.0</ele><time>2026-05-03T13:48:19.884Z</time></trkpt><trkpt lat="39.799915" lon="16.240055"><ele>351.0</ele><time>2026-05-03T13:48:20.885Z</time></trkpt><trkpt lat="39.7997017" lon="16.2398117"><ele>351.0</ele><time>2026-05-03T13:48:21.885Z</time></trkpt><trkpt lat="39.7995017" lon="16.239565"><ele>350.0</ele><time>2026-05-03T13:48:22.885Z</time></trkpt><trkpt lat="39.7993" lon="16.23932"><ele>349.0</ele><time>2026-05-03T13:48:23.885Z</time></trkpt><trkpt lat="39.799095" lon="16.2390783"><ele>347.0</ele><time>2026-05-03T13:48:24.885Z</time></trkpt><trkpt lat="39.7988933" lon="16.23883"><ele>345.0</ele><time>2026-05-03T13:48:25.884Z</time></trkpt><trkpt lat="39.798695" lon="16.23858"><ele>345.0</ele><time>2026-05-03T13:48:26.885Z</time></trkpt><trkpt lat="39.7985017" lon="16.2383167"><ele>345.0</ele><time>2026-05-03T13:48:27.884Z</time></trkpt><trkpt lat="39.7983167" lon="16.238055"><ele>348.0</ele><time>2026-05-03T13:48:28.885Z</time></trkpt><trkpt lat="39.7981467" lon="16.2377767"><ele>351.0</ele><time>2026-05-03T13:48:29.885Z</time></trkpt><trkpt lat="39.79799" lon="16.2374883"><ele>349.5</ele><time>2026-05-03T13:48:30.884Z</time></trkpt><trkpt lat="39.797845" lon="16.2371833"><ele>348.0</ele><time>2026-05-03T13:48:31.885Z</time></trkpt><trkpt lat="39.7977167" lon="16.2368733"><ele>349.0</ele><time>2026-05-03T13:48:32.884Z</time></trkpt><trkpt lat="39.7976" lon="16.2365533"><ele>350.0</ele><time>2026-05-03T13:48:33.885Z</time></trkpt><trkpt lat="39.7974883" lon="16.2362183"><ele>350.0</ele><time>2026-05-03T13:48:34.884Z</time></trkpt><trkpt lat="39.7973833" lon="16.2358733"><ele>350.0</ele><time>2026-05-03T13:48:35.884Z</time></trkpt><trkpt lat="39.7972833" lon="16.2355333"><ele>349.0</ele><time>2026-05-03T13:48:36.885Z</time></trkpt><trkpt lat="39.797185" lon="16.2351867"><ele>348.0</ele><time>2026-05-03T13:48:37.885Z</time></trkpt><trkpt lat="39.79708" lon="16.2348417"><ele>347.0</ele><time>2026-05-03T13:48:38.884Z</time></trkpt><trkpt lat="39.7969733" lon="16.2344883"><ele>346.0</ele><time>2026-05-03T13:48:39.885Z</time></trkpt><trkpt lat="39.7968633" lon="16.23413"><ele>350.0</ele><time>2026-05-03T13:48:40.884Z</time></trkpt><trkpt lat="39.7967483" lon="16.2337833"><ele>354.0</ele><time>2026-05-03T13:48:41.885Z</time></trkpt><trkpt lat="39.7966167" lon="16.2334383"><ele>352.5</ele><time>2026-05-03T13:48:42.885Z</time></trkpt><trkpt lat="39.79648" lon="16.2331017"><ele>351.0</ele><time>2026-05-03T13:48:43.885Z</time></trkpt><trkpt lat="39.79633" lon="16.2327767"><ele>351.0</ele><time>2026-05-03T13:48:44.884Z</time></trkpt><trkpt lat="39.796175" lon="16.232465"><ele>351.0</ele><time>2026-05-03T13:48:45.885Z</time></trkpt><trkpt lat="39.7960083" lon="16.232155"><ele>350.0</ele><time>2026-05-03T13:48:46.885Z</time></trkpt><trkpt lat="39.795835" lon="16.2318567"><ele>349.0</ele><time>2026-05-03T13:48:47.885Z</time></trkpt><trkpt lat="39.7956533" lon="16.231565"><ele>346.0</ele><time>2026-05-03T13:48:48.885Z</time></trkpt><trkpt lat="39.795465" lon="16.23127"><ele>343.0</ele><time>2026-05-03T13:48:49.885Z</time></trkpt><trkpt lat="39.7952783" lon="16.230995"><ele>341.5</ele><time>2026-05-03T13:48:50.885Z</time></trkpt><trkpt lat="39.7950767" lon="16.230725"><ele>340.0</ele><time>2026-05-03T13:48:51.885Z</time></trkpt><trkpt lat="39.7948667" lon="16.2304683"><ele>340.0</ele><time>2026-05-03T13:48:52.885Z</time></trkpt><trkpt lat="39.7946467" lon="16.2302167"><ele>340.0</ele><time>2026-05-03T13:48:53.884Z</time></trkpt><trkpt lat="39.79442" lon="16.2299717"><ele>338.0</ele><time>2026-05-03T13:48:54.885Z</time></trkpt><trkpt lat="39.7941883" lon="16.229735"><ele>336.0</ele><time>2026-05-03T13:48:55.884Z</time></trkpt><trkpt lat="39.7939433" lon="16.229505"><ele>336.0</ele><time>2026-05-03T13:48:56.884Z</time></trkpt><trkpt lat="39.7936917" lon="16.2292833"><ele>336.0</ele><time>2026-05-03T13:48:57.885Z</time></trkpt><trkpt lat="39.7934367" lon="16.22908"><ele>334.5</ele><time>2026-05-03T13:48:58.885Z</time></trkpt><trkpt lat="39.7931867" lon="16.228885"><ele>333.0</ele><time>2026-05-03T13:48:59.885Z</time></trkpt><trkpt lat="39.7929317" lon="16.2287017"><ele>333.0</ele><time>2026-05-03T13:49:00.885Z</time></trkpt><trkpt lat="39.7926733" lon="16.228535"><ele>333.0</ele><time>2026-05-03T13:49:01.885Z</time></trkpt><trkpt lat="39.7924167" lon="16.228375"><ele>333.5</ele><time>2026-05-03T13:49:02.885Z</time></trkpt><trkpt lat="39.792155" lon="16.2282233"><ele>334.0</ele><time>2026-05-03T13:49:03.885Z</time></trkpt><trkpt lat="39.791895" lon="16.228085"><ele>331.0</ele><time>2026-05-03T13:49:04.885Z</time></trkpt><trkpt lat="39.7916367" lon="16.2279617"><ele>328.0</ele><time>2026-05-03T13:49:05.884Z</time></trkpt><trkpt lat="39.7913717" lon="16.2278567"><ele>328.0</ele><time>2026-05-03T13:49:06.884Z</time></trkpt><trkpt lat="39.79111" lon="16.2277467"><ele>328.0</ele><time>2026-05-03T13:49:07.884Z</time></trkpt><trkpt lat="39.7908467" lon="16.227655"><ele>330.5</ele><time>2026-05-03T13:49:08.885Z</time></trkpt><trkpt lat="39.790585" lon="16.2275633"><ele>333.0</ele><time>2026-05-03T13:49:09.885Z</time></trkpt><trkpt lat="39.7903217" lon="16.227465"><ele>334.5</ele><time>2026-05-03T13:49:10.885Z</time></trkpt><trkpt lat="39.7900633" lon="16.227365"><ele>336.0</ele><time>2026-05-03T13:49:11.885Z</time></trkpt><trkpt lat="39.7897983" lon="16.2272617"><ele>334.5</ele><time>2026-05-03T13:49:12.885Z</time></trkpt><trkpt lat="39.7895383" lon="16.2271617"><ele>333.0</ele><time>2026-05-03T13:49:13.885Z</time></trkpt><trkpt lat="39.789275" lon="16.2270683"><ele>333.0</ele><time>2026-05-03T13:49:14.885Z</time></trkpt><trkpt lat="39.7890167" lon="16.22697"><ele>333.0</ele><time>2026-05-03T13:49:15.885Z</time></trkpt><trkpt lat="39.7887533" lon="16.226875"><ele>331.0</ele><time>2026-05-03T13:49:16.885Z</time></trkpt><trkpt lat="39.788495" lon="16.2267733"><ele>329.0</ele><time>2026-05-03T13:49:17.885Z</time></trkpt><trkpt lat="39.7882367" lon="16.226675"><ele>329.0</ele><time>2026-05-03T13:49:18.884Z</time></trkpt><trkpt lat="39.7879767" lon="16.22658"><ele>329.0</ele><time>2026-05-03T13:49:19.885Z</time></trkpt><trkpt lat="39.7877167" lon="16.226485"><ele>326.5</ele><time>2026-05-03T13:49:20.885Z</time></trkpt><trkpt lat="39.7874567" lon="16.22639"><ele>324.0</ele><time>2026-05-03T13:49:21.885Z</time></trkpt><trkpt lat="39.7871983" lon="16.22629"><ele>324.0</ele><time>2026-05-03T13:49:22.885Z</time></trkpt><trkpt lat="39.78694" lon="16.226195"><ele>324.0</ele><time>2026-05-03T13:49:23.884Z</time></trkpt><trkpt lat="39.7866767" lon="16.226105"><ele>321.0</ele><time>2026-05-03T13:49:24.885Z</time></trkpt><trkpt lat="39.7864167" lon="16.226005"><ele>318.0</ele><time>2026-05-03T13:49:25.885Z</time></trkpt><trkpt lat="39.7861583" lon="16.2259117"><ele>315.0</ele><time>2026-05-03T13:49:26.885Z</time></trkpt><trkpt lat="39.7858983" lon="16.2258217"><ele>312.0</ele><time>2026-05-03T13:49:27.885Z</time></trkpt><trkpt lat="39.78564" lon="16.2257167"><ele>311.0</ele><time>2026-05-03T13:49:28.885Z</time></trkpt><trkpt lat="39.7853833" lon="16.2256133"><ele>310.0</ele><time>2026-05-03T13:49:29.885Z</time></trkpt><trkpt lat="39.7851283" lon="16.2255217"><ele>310.0</ele><time>2026-05-03T13:49:30.885Z</time></trkpt><trkpt lat="39.7848717" lon="16.2254317"><ele>310.0</ele><time>2026-05-03T13:49:31.884Z</time></trkpt><trkpt lat="39.7846183" lon="16.2253417"><ele>310.0</ele><time>2026-05-03T13:49:32.885Z</time></trkpt><trkpt lat="39.7843633" lon="16.22525"><ele>310.0</ele><time>2026-05-03T13:49:33.885Z</time></trkpt><trkpt lat="39.7841167" lon="16.2251533"><ele>305.5</ele><time>2026-05-03T13:49:34.885Z</time></trkpt><trkpt lat="39.7838617" lon="16.2250617"><ele>301.0</ele><time>2026-05-03T13:49:35.885Z</time></trkpt><trkpt lat="39.7836067" lon="16.224965"><ele>283.5</ele><time>2026-05-03T13:49:36.885Z</time></trkpt><trkpt lat="39.7833517" lon="16.22487"><ele>266.0</ele><time>2026-05-03T13:49:37.885Z</time></trkpt><trkpt lat="39.7830917" lon="16.2247767"><ele>261.0</ele><time>2026-05-03T13:49:38.884Z</time></trkpt><trkpt lat="39.78284" lon="16.2246817"><ele>256.0</ele><time>2026-05-03T13:49:39.885Z</time></trkpt><trkpt lat="39.78259" lon="16.22457"><ele>234.5</ele><time>2026-05-03T13:49:40.885Z</time></trkpt><trkpt lat="39.78233" lon="16.2244767"><ele>213.0</ele><time>2026-05-03T13:49:41.884Z</time></trkpt><trkpt lat="39.7820717" lon="16.2243817"><ele>196.0</ele><time>2026-05-03T13:49:42.885Z</time></trkpt><trkpt lat="39.7818183" lon="16.2242933"><ele>179.0</ele><time>2026-05-03T13:49:43.884Z</time></trkpt><trkpt lat="39.7815667" lon="16.2242"><ele>179.0</ele><time>2026-05-03T13:49:44.885Z</time></trkpt><trkpt lat="39.7813133" lon="16.2241067"><ele>179.0</ele><time>2026-05-03T13:49:45.885Z</time></trkpt><trkpt lat="39.7810583" lon="16.2240117"><ele>184.0</ele><time>2026-05-03T13:49:46.884Z</time></trkpt><trkpt lat="39.7808033" lon="16.2239167"><ele>189.0</ele><time>2026-05-03T13:49:47.885Z</time></trkpt><trkpt lat="39.7805583" lon="16.2238217"><ele>189.0</ele><time>2026-05-03T13:49:48.885Z</time></trkpt><trkpt lat="39.78031" lon="16.2237233"><ele>189.0</ele><time>2026-05-03T13:49:49.885Z</time></trkpt><trkpt lat="39.7800633" lon="16.2236283"><ele>207.0</ele><time>2026-05-03T13:49:50.885Z</time></trkpt><trkpt lat="39.7798167" lon="16.2235417"><ele>225.0</ele><time>2026-05-03T13:49:51.885Z</time></trkpt><trkpt lat="39.7795667" lon="16.2234483"><ele>233.0</ele><time>2026-05-03T13:49:52.884Z</time></trkpt><trkpt lat="39.779315" lon="16.223355"><ele>241.0</ele><time>2026-05-03T13:49:53.885Z</time></trkpt><trkpt lat="39.7790583" lon="16.2232683"><ele>241.0</ele><time>2026-05-03T13:49:54.884Z</time></trkpt><trkpt lat="39.7788033" lon="16.2231717"><ele>241.0</ele><time>2026-05-03T13:49:55.885Z</time></trkpt><trkpt lat="39.7785433" lon="16.223085"><ele>255.5</ele><time>2026-05-03T13:49:56.885Z</time></trkpt><trkpt lat="39.77828" lon="16.223015"><ele>270.0</ele><time>2026-05-03T13:49:57.885Z</time></trkpt><trkpt lat="39.7780133" lon="16.222955"><ele>270.0</ele><time>2026-05-03T13:49:58.884Z</time></trkpt><trkpt lat="39.7777333" lon="16.222905"><ele>270.0</ele><time>2026-05-03T13:49:59.885Z</time></trkpt><trkpt lat="39.7774517" lon="16.2228683"><ele>271.0</ele><time>2026-05-03T13:50:00.885Z</time></trkpt><trkpt lat="39.7771633" lon="16.22285"><ele>272.0</ele><time>2026-05-03T13:50:01.884Z</time></trkpt><trkpt lat="39.776875" lon="16.2228467"><ele>271.0</ele><time>2026-05-03T13:50:02.884Z</time></trkpt><trkpt lat="39.7765917" lon="16.222865"><ele>270.0</ele><time>2026-05-03T13:50:03.885Z</time></trkpt><trkpt lat="39.776305" lon="16.2229033"><ele>271.0</ele><time>2026-05-03T13:50:04.885Z</time></trkpt><trkpt lat="39.7760183" lon="16.2229533"><ele>272.0</ele><time>2026-05-03T13:50:05.885Z</time></trkpt><trkpt lat="39.7757333" lon="16.2230183"><ele>272.0</ele><time>2026-05-03T13:50:06.885Z</time></trkpt><trkpt lat="39.77545" lon="16.2230983"><ele>272.0</ele><time>2026-05-03T13:50:07.885Z</time></trkpt><trkpt lat="39.7751783" lon="16.2231817"><ele>263.0</ele><time>2026-05-03T13:50:08.885Z</time></trkpt><trkpt lat="39.77491" lon="16.2232717"><ele>254.0</ele><time>2026-05-03T13:50:09.885Z</time></trkpt><trkpt lat="39.77464" lon="16.2233517"><ele>254.0</ele><time>2026-05-03T13:50:10.885Z</time></trkpt><trkpt lat="39.7743767" lon="16.22343"><ele>254.0</ele><time>2026-05-03T13:50:11.885Z</time></trkpt><trkpt lat="39.7741233" lon="16.2234983"><ele>260.5</ele><time>2026-05-03T13:50:12.885Z</time></trkpt><trkpt lat="39.7738617" lon="16.2235833"><ele>267.0</ele><time>2026-05-03T13:50:13.885Z</time></trkpt><trkpt lat="39.7736017" lon="16.22367"><ele>270.5</ele><time>2026-05-03T13:50:14.884Z</time></trkpt><trkpt lat="39.7733417" lon="16.22375"><ele>274.0</ele><time>2026-05-03T13:50:15.885Z</time></trkpt><trkpt lat="39.7730767" lon="16.22382"><ele>274.0</ele><time>2026-05-03T13:50:16.884Z</time></trkpt><trkpt lat="39.772815" lon="16.2238917"><ele>274.0</ele><time>2026-05-03T13:50:17.884Z</time></trkpt><trkpt lat="39.772545" lon="16.2239633"><ele>271.5</ele><time>2026-05-03T13:50:18.884Z</time></trkpt><trkpt lat="39.7722817" lon="16.22402"><ele>269.0</ele><time>2026-05-03T13:50:19.885Z</time></trkpt><trkpt lat="39.7720167" lon="16.2240583"><ele>268.0</ele><time>2026-05-03T13:50:20.885Z</time></trkpt><trkpt lat="39.7717517" lon="16.2240883"><ele>267.0</ele><time>2026-05-03T13:50:21.884Z</time></trkpt><trkpt lat="39.7714867" lon="16.2241167"><ele>267.0</ele><time>2026-05-03T13:50:22.885Z</time></trkpt><trkpt lat="39.7712117" lon="16.2241267"><ele>267.0</ele><time>2026-05-03T13:50:23.885Z</time></trkpt><trkpt lat="39.770935" lon="16.224125"><ele>266.0</ele><time>2026-05-03T13:50:24.885Z</time></trkpt><trkpt lat="39.770665" lon="16.2241167"><ele>265.0</ele><time>2026-05-03T13:50:25.885Z</time></trkpt><trkpt lat="39.770385" lon="16.2240933"><ele>264.0</ele><time>2026-05-03T13:50:26.885Z</time></trkpt><trkpt lat="39.7701117" lon="16.22406"><ele>263.0</ele><time>2026-05-03T13:50:27.885Z</time></trkpt><trkpt lat="39.7698383" lon="16.2240133"><ele>262.0</ele><time>2026-05-03T13:50:28.885Z</time></trkpt><trkpt lat="39.7695717" lon="16.2239583"><ele>261.0</ele><time>2026-05-03T13:50:29.885Z</time></trkpt><trkpt lat="39.7693083" lon="16.2239033"><ele>261.0</ele><time>2026-05-03T13:50:30.885Z</time></trkpt><trkpt lat="39.7690517" lon="16.22383"><ele>261.0</ele><time>2026-05-03T13:50:31.885Z</time></trkpt><trkpt lat="39.7687983" lon="16.2237533"><ele>261.0</ele><time>2026-05-03T13:50:32.885Z</time></trkpt><trkpt lat="39.768545" lon="16.2236633"><ele>261.0</ele><time>2026-05-03T13:50:33.885Z</time></trkpt><trkpt lat="39.7682933" lon="16.2235683"><ele>257.0</ele><time>2026-05-03T13:50:34.885Z</time></trkpt><trkpt lat="39.7680383" lon="16.2234567"><ele>253.0</ele><time>2026-05-03T13:50:35.884Z</time></trkpt><trkpt lat="39.767795" lon="16.223335"><ele>240.5</ele><time>2026-05-03T13:50:36.884Z</time></trkpt><trkpt lat="39.7675467" lon="16.2232133"><ele>228.0</ele><time>2026-05-03T13:50:37.885Z</time></trkpt><trkpt lat="39.7672967" lon="16.2230933"><ele>227.5</ele><time>2026-05-03T13:50:38.885Z</time></trkpt><trkpt lat="39.767045" lon="16.2229617"><ele>227.0</ele><time>2026-05-03T13:50:39.885Z</time></trkpt><trkpt lat="39.7668" lon="16.2228367"><ele>235.0</ele><time>2026-05-03T13:50:40.885Z</time></trkpt><trkpt lat="39.7665483" lon="16.22271"><ele>243.0</ele><time>2026-05-03T13:50:41.884Z</time></trkpt><trkpt lat="39.7663017" lon="16.22259"><ele>243.0</ele><time>2026-05-03T13:50:42.885Z</time></trkpt><trkpt lat="39.76605" lon="16.2224717"><ele>243.0</ele><time>2026-05-03T13:50:43.884Z</time></trkpt><trkpt lat="39.7658" lon="16.2223567"><ele>247.0</ele><time>2026-05-03T13:50:44.885Z</time></trkpt><trkpt lat="39.7655517" lon="16.222235"><ele>251.0</ele><time>2026-05-03T13:50:45.885Z</time></trkpt><trkpt lat="39.7653033" lon="16.2221083"><ele>251.0</ele><time>2026-05-03T13:50:46.884Z</time></trkpt><trkpt lat="39.7650517" lon="16.2219833"><ele>251.0</ele><time>2026-05-03T13:50:47.885Z</time></trkpt><trkpt lat="39.7647967" lon="16.221855"><ele>251.0</ele><time>2026-05-03T13:50:48.884Z</time></trkpt><trkpt lat="39.7645433" lon="16.22173"><ele>251.0</ele><time>2026-05-03T13:50:49.884Z</time></trkpt><trkpt lat="39.7642917" lon="16.221605"><ele>250.0</ele><time>2026-05-03T13:50:50.885Z</time></trkpt><trkpt lat="39.7640333" lon="16.2214783"><ele>249.0</ele><time>2026-05-03T13:50:51.885Z</time></trkpt><trkpt lat="39.7637733" lon="16.221345"><ele>241.5</ele><time>2026-05-03T13:50:52.884Z</time></trkpt><trkpt lat="39.7635133" lon="16.2212167"><ele>234.0</ele><time>2026-05-03T13:50:53.885Z</time></trkpt><trkpt lat="39.7632583" lon="16.2210967"><ele>234.0</ele><time>2026-05-03T13:50:54.884Z</time></trkpt><trkpt lat="39.7630017" lon="16.22097"><ele>234.0</ele><time>2026-05-03T13:50:55.885Z</time></trkpt><trkpt lat="39.7627617" lon="16.2208467"><ele>226.5</ele><time>2026-05-03T13:50:56.885Z</time></trkpt><trkpt lat="39.7625133" lon="16.2207283"><ele>219.0</ele><time>2026-05-03T13:50:57.885Z</time></trkpt><trkpt lat="39.7622633" lon="16.2206117"><ele>219.0</ele><time>2026-05-03T13:50:58.885Z</time></trkpt><trkpt lat="39.762015" lon="16.2205033"><ele>219.0</ele><time>2026-05-03T13:50:59.885Z</time></trkpt><trkpt lat="39.7617617" lon="16.220415"><ele>210.5</ele><time>2026-05-03T13:51:00.885Z</time></trkpt><trkpt lat="39.7615067" lon="16.2203567"><ele>202.0</ele><time>2026-05-03T13:51:01.884Z</time></trkpt><trkpt lat="39.76125" lon="16.2203233"><ele>192.5</ele><time>2026-05-03T13:51:02.885Z</time></trkpt><trkpt lat="39.760985" lon="16.2203117"><ele>183.0</ele><time>2026-05-03T13:51:03.885Z</time></trkpt><trkpt lat="39.76072" lon="16.2203217"><ele>183.0</ele><time>2026-05-03T13:51:04.885Z</time></trkpt><trkpt lat="39.7604567" lon="16.2203367"><ele>183.0</ele><time>2026-05-03T13:51:05.885Z</time></trkpt><trkpt lat="39.7602033" lon="16.2203467"><ele>170.5</ele><time>2026-05-03T13:51:06.884Z</time></trkpt><trkpt lat="39.759945" lon="16.2203633"><ele>158.0</ele><time>2026-05-03T13:51:07.885Z</time></trkpt><trkpt lat="39.7596833" lon="16.22038"><ele>158.0</ele><time>2026-05-03T13:51:08.885Z</time></trkpt><trkpt lat="39.7594267" lon="16.2203883"><ele>158.0</ele><time>2026-05-03T13:51:09.885Z</time></trkpt><trkpt lat="39.759165" lon="16.220405"><ele>150.5</ele><time>2026-05-03T13:51:10.884Z</time></trkpt><trkpt lat="39.7588983" lon="16.2204233"><ele>143.0</ele><time>2026-05-03T13:51:11.884Z</time></trkpt><trkpt lat="39.758635" lon="16.220445"><ele>143.0</ele><time>2026-05-03T13:51:12.885Z</time></trkpt><trkpt lat="39.7583667" lon="16.2204617"><ele>143.0</ele><time>2026-05-03T13:51:13.885Z</time></trkpt><trkpt lat="39.7580933" lon="16.2204717"><ele>143.0</ele><time>2026-05-03T13:51:14.885Z</time></trkpt><trkpt lat="39.757825" lon="16.2204867"><ele>143.0</ele><time>2026-05-03T13:51:15.885Z</time></trkpt><trkpt lat="39.7575617" lon="16.2205067"><ele>152.5</ele><time>2026-05-03T13:51:16.884Z</time></trkpt><trkpt lat="39.7573017" lon="16.22052"><ele>162.0</ele><time>2026-05-03T13:51:17.885Z</time></trkpt><trkpt lat="39.7570367" lon="16.2205367"><ele>176.5</ele><time>2026-05-03T13:51:18.885Z</time></trkpt><trkpt lat="39.7567733" lon="16.2205533"><ele>191.0</ele><time>2026-05-03T13:51:19.884Z</time></trkpt><trkpt lat="39.7565167" lon="16.2205817"><ele>191.0</ele><time>2026-05-03T13:51:20.885Z</time></trkpt><trkpt lat="39.7562567" lon="16.2206267"><ele>191.0</ele><time>2026-05-03T13:51:21.885Z</time></trkpt><trkpt lat="39.756" lon="16.2207033"><ele>198.0</ele><time>2026-05-03T13:51:22.885Z</time></trkpt><trkpt lat="39.755755" lon="16.2208133"><ele>205.0</ele><time>2026-05-03T13:51:23.885Z</time></trkpt><trkpt lat="39.7555133" lon="16.220935"><ele>205.0</ele><time>2026-05-03T13:51:24.885Z</time></trkpt><trkpt lat="39.7552767" lon="16.2210867"><ele>205.0</ele><time>2026-05-03T13:51:25.885Z</time></trkpt><trkpt lat="39.755055" lon="16.2212617"><ele>204.0</ele><time>2026-05-03T13:51:26.885Z</time></trkpt><trkpt lat="39.7548383" lon="16.22147"><ele>203.0</ele><time>2026-05-03T13:51:27.885Z</time></trkpt><trkpt lat="39.7546367" lon="16.221695"><ele>203.0</ele><time>2026-05-03T13:51:28.885Z</time></trkpt><trkpt lat="39.754445" lon="16.221945"><ele>203.0</ele><time>2026-05-03T13:51:29.884Z</time></trkpt><trkpt lat="39.75426" lon="16.22221"><ele>201.0</ele><time>2026-05-03T13:51:30.885Z</time></trkpt><trkpt lat="39.7540817" lon="16.2224717"><ele>199.0</ele><time>2026-05-03T13:51:31.884Z</time></trkpt><trkpt lat="39.7538967" lon="16.2227317"><ele>199.0</ele><time>2026-05-03T13:51:32.884Z</time></trkpt><trkpt lat="39.7536967" lon="16.2229783"><ele>199.0</ele><time>2026-05-03T13:51:33.885Z</time></trkpt><trkpt lat="39.753485" lon="16.2232083"><ele>196.5</ele><time>2026-05-03T13:51:34.885Z</time></trkpt><trkpt lat="39.75326" lon="16.22342"><ele>194.0</ele><time>2026-05-03T13:51:35.884Z</time></trkpt><trkpt lat="39.7530217" lon="16.2235883"><ele>194.0</ele><time>2026-05-03T13:51:36.885Z</time></trkpt><trkpt lat="39.75276" lon="16.2237483"><ele>194.0</ele><time>2026-05-03T13:51:37.885Z</time></trkpt><trkpt lat="39.75249" lon="16.22387"><ele>194.5</ele><time>2026-05-03T13:51:38.885Z</time></trkpt><trkpt lat="39.7522083" lon="16.2239767"><ele>195.0</ele><time>2026-05-03T13:51:39.885Z</time></trkpt><trkpt lat="39.7519233" lon="16.2240683"><ele>186.5</ele><time>2026-05-03T13:51:40.884Z</time></trkpt><trkpt lat="39.7516383" lon="16.2241417"><ele>178.0</ele><time>2026-05-03T13:51:41.885Z</time></trkpt><trkpt lat="39.7513533" lon="16.2242167"><ele>178.0</ele><time>2026-05-03T13:51:42.885Z</time></trkpt><trkpt lat="39.7510767" lon="16.22428"><ele>178.0</ele><time>2026-05-03T13:51:43.885Z</time></trkpt><trkpt lat="39.7508017" lon="16.224345"><ele>179.5</ele><time>2026-05-03T13:51:44.884Z</time></trkpt><trkpt lat="39.7505333" lon="16.2244167"><ele>181.0</ele><time>2026-05-03T13:51:45.885Z</time></trkpt><trkpt lat="39.7502683" lon="16.2244833"><ele>182.5</ele><time>2026-05-03T13:51:46.885Z</time></trkpt><trkpt lat="39.7500017" lon="16.2245533"><ele>184.0</ele><time>2026-05-03T13:51:47.884Z</time></trkpt><trkpt lat="39.7497433" lon="16.2246183"><ele>184.0</ele><time>2026-05-03T13:51:48.885Z</time></trkpt><trkpt lat="39.7494883" lon="16.2246783"><ele>184.0</ele><time>2026-05-03T13:51:49.885Z</time></trkpt><trkpt lat="39.7492383" lon="16.2247433"><ele>187.5</ele><time>2026-05-03T13:51:50.884Z</time></trkpt><trkpt lat="39.748985" lon="16.22481"><ele>191.0</ele><time>2026-05-03T13:51:51.885Z</time></trkpt><trkpt lat="39.7487283" lon="16.2248767"><ele>179.0</ele><time>2026-05-03T13:51:52.885Z</time></trkpt><trkpt lat="39.7484767" lon="16.2249467"><ele>167.0</ele><time>2026-05-03T13:51:53.885Z</time></trkpt><trkpt lat="39.748215" lon="16.2250183"><ele>167.0</ele><time>2026-05-03T13:51:54.885Z</time></trkpt><trkpt lat="39.7479483" lon="16.2250817"><ele>167.0</ele><time>2026-05-03T13:51:55.885Z</time></trkpt><trkpt lat="39.7476833" lon="16.2251483"><ele>164.5</ele><time>2026-05-03T13:51:56.885Z</time></trkpt><trkpt lat="39.7474183" lon="16.2252183"><ele>162.0</ele><time>2026-05-03T13:51:57.885Z</time></trkpt><trkpt lat="39.74716" lon="16.2252833"><ele>162.0</ele><time>2026-05-03T13:51:58.885Z</time></trkpt><trkpt lat="39.7469067" lon="16.2253483"><ele>162.0</ele><time>2026-05-03T13:51:59.885Z</time></trkpt><trkpt lat="39.74665" lon="16.2254117"><ele>157.5</ele><time>2026-05-03T13:52:00.885Z</time></trkpt><trkpt lat="39.7463933" lon="16.225485"><ele>153.0</ele><time>2026-05-03T13:52:01.885Z</time></trkpt><trkpt lat="39.746145" lon="16.22556"><ele>153.5</ele><time>2026-05-03T13:52:02.885Z</time></trkpt><trkpt lat="39.7458967" lon="16.2256517"><ele>154.0</ele><time>2026-05-03T13:52:03.884Z</time></trkpt><trkpt lat="39.74565" lon="16.22575"><ele>154.0</ele><time>2026-05-03T13:52:04.885Z</time></trkpt><trkpt lat="39.7454083" lon="16.2258583"><ele>154.0</ele><time>2026-05-03T13:52:05.884Z</time></trkpt><trkpt lat="39.7451617" lon="16.225975"><ele>152.0</ele><time>2026-05-03T13:52:06.885Z</time></trkpt><trkpt lat="39.7449183" lon="16.2260933"><ele>150.0</ele><time>2026-05-03T13:52:07.885Z</time></trkpt><trkpt lat="39.7446733" lon="16.2262333"><ele>150.0</ele><time>2026-05-03T13:52:08.885Z</time></trkpt><trkpt lat="39.7444267" lon="16.2263917"><ele>150.0</ele><time>2026-05-03T13:52:09.885Z</time></trkpt><trkpt lat="39.7441817" lon="16.226555"><ele>146.0</ele><time>2026-05-03T13:52:10.884Z</time></trkpt><trkpt lat="39.743935" lon="16.226725"><ele>142.0</ele><time>2026-05-03T13:52:11.884Z</time></trkpt><trkpt lat="39.7436917" lon="16.2269117"><ele>142.5</ele><time>2026-05-03T13:52:12.885Z</time></trkpt><trkpt lat="39.74345" lon="16.2271"><ele>143.0</ele><time>2026-05-03T13:52:13.884Z</time></trkpt><trkpt lat="39.7432167" lon="16.2273"><ele>138.5</ele><time>2026-05-03T13:52:14.885Z</time></trkpt><trkpt lat="39.7429917" lon="16.227505"><ele>134.0</ele><time>2026-05-03T13:52:15.884Z</time></trkpt><trkpt lat="39.742765" lon="16.2277017"><ele>132.0</ele><time>2026-05-03T13:52:16.885Z</time></trkpt><trkpt lat="39.7425433" lon="16.2278983"><ele>130.0</ele><time>2026-05-03T13:52:17.885Z</time></trkpt><trkpt lat="39.7423233" lon="16.2281"><ele>127.5</ele><time>2026-05-03T13:52:18.884Z</time></trkpt><trkpt lat="39.7421033" lon="16.228295"><ele>125.0</ele><time>2026-05-03T13:52:19.885Z</time></trkpt><trkpt lat="39.7418883" lon="16.22849"><ele>125.0</ele><time>2026-05-03T13:52:20.884Z</time></trkpt><trkpt lat="39.7416667" lon="16.228685"><ele>125.0</ele><time>2026-05-03T13:52:21.885Z</time></trkpt><trkpt lat="39.7414517" lon="16.2288783"><ele>122.5</ele><time>2026-05-03T13:52:22.885Z</time></trkpt><trkpt lat="39.74123" lon="16.2290767"><ele>120.0</ele><time>2026-05-03T13:52:23.885Z</time></trkpt><trkpt lat="39.7410083" lon="16.22927"><ele>125.0</ele><time>2026-05-03T13:52:24.884Z</time></trkpt><trkpt lat="39.740785" lon="16.2294667"><ele>130.0</ele><time>2026-05-03T13:52:25.885Z</time></trkpt><trkpt lat="39.7405667" lon="16.2296567"><ele>128.5</ele><time>2026-05-03T13:52:26.884Z</time></trkpt><trkpt lat="39.7403433" lon="16.229845"><ele>127.0</ele><time>2026-05-03T13:52:27.885Z</time></trkpt><trkpt lat="39.74012" lon="16.230035"><ele>127.0</ele><time>2026-05-03T13:52:28.885Z</time></trkpt><trkpt lat="39.7399" lon="16.2302217"><ele>127.0</ele><time>2026-05-03T13:52:29.885Z</time></trkpt><trkpt lat="39.7396733" lon="16.2304083"><ele>127.0</ele><time>2026-05-03T13:52:30.885Z</time></trkpt><trkpt lat="39.73944" lon="16.2305883"><ele>127.0</ele><time>2026-05-03T13:52:31.885Z</time></trkpt><trkpt lat="39.7392" lon="16.230765"><ele>124.0</ele><time>2026-05-03T13:52:32.885Z</time></trkpt><trkpt lat="39.7389517" lon="16.2309233"><ele>121.0</ele><time>2026-05-03T13:52:33.885Z</time></trkpt><trkpt lat="39.7387" lon="16.2310733"><ele>121.0</ele><time>2026-05-03T13:52:34.885Z</time></trkpt><trkpt lat="39.73844" lon="16.231215"><ele>121.0</ele><time>2026-05-03T13:52:35.885Z</time></trkpt><trkpt lat="39.73818" lon="16.2313467"><ele>121.0</ele><time>2026-05-03T13:52:36.885Z</time></trkpt><trkpt lat="39.7379183" lon="16.231465"><ele>121.0</ele><time>2026-05-03T13:52:37.885Z</time></trkpt><trkpt lat="39.7376567" lon="16.2315717"><ele>116.0</ele><time>2026-05-03T13:52:38.885Z</time></trkpt><trkpt lat="39.7373933" lon="16.2316617"><ele>111.0</ele><time>2026-05-03T13:52:39.885Z</time></trkpt><trkpt lat="39.7371283" lon="16.2317533"><ele>111.0</ele><time>2026-05-03T13:52:40.885Z</time></trkpt><trkpt lat="39.73686" lon="16.23183"><ele>111.0</ele><time>2026-05-03T13:52:41.884Z</time></trkpt><trkpt lat="39.7365983" lon="16.2318967"><ele>111.0</ele><time>2026-05-03T13:52:42.885Z</time></trkpt><trkpt lat="39.7363367" lon="16.2319633"><ele>111.0</ele><time>2026-05-03T13:52:43.885Z</time></trkpt><trkpt lat="39.736075" lon="16.2320283"><ele>111.5</ele><time>2026-05-03T13:52:44.885Z</time></trkpt><trkpt lat="39.7358117" lon="16.2320967"><ele>112.0</ele><time>2026-05-03T13:52:45.885Z</time></trkpt><trkpt lat="39.7355467" lon="16.2321617"><ele>112.0</ele><time>2026-05-03T13:52:46.885Z</time></trkpt><trkpt lat="39.7352833" lon="16.2322217"><ele>112.0</ele><time>2026-05-03T13:52:47.885Z</time></trkpt><trkpt lat="39.73502" lon="16.2322867"><ele>108.5</ele><time>2026-05-03T13:52:48.884Z</time></trkpt><trkpt lat="39.7347583" lon="16.2323517"><ele>105.0</ele><time>2026-05-03T13:52:49.884Z</time></trkpt><trkpt lat="39.734505" lon="16.23241"><ele>105.0</ele><time>2026-05-03T13:52:50.885Z</time></trkpt><trkpt lat="39.7342583" lon="16.232475"><ele>105.0</ele><time>2026-05-03T13:52:51.884Z</time></trkpt><trkpt lat="39.73401" lon="16.232555"><ele>105.0</ele><time>2026-05-03T13:52:52.885Z</time></trkpt><trkpt lat="39.733765" lon="16.2326367"><ele>105.0</ele><time>2026-05-03T13:52:53.885Z</time></trkpt><trkpt lat="39.7335233" lon="16.2327333"><ele>104.0</ele><time>2026-05-03T13:52:54.885Z</time></trkpt><trkpt lat="39.73328" lon="16.23284"><ele>103.0</ele><time>2026-05-03T13:52:55.884Z</time></trkpt><trkpt lat="39.73304" lon="16.23295"><ele>103.0</ele><time>2026-05-03T13:52:56.884Z</time></trkpt><trkpt lat="39.7328" lon="16.2330733"><ele>103.0</ele><time>2026-05-03T13:52:57.885Z</time></trkpt><trkpt lat="39.7325633" lon="16.2332033"><ele>102.0</ele><time>2026-05-03T13:52:58.885Z</time></trkpt><trkpt lat="39.7323217" lon="16.233335"><ele>101.0</ele><time>2026-05-03T13:52:59.885Z</time></trkpt><trkpt lat="39.7320783" lon="16.233465"><ele>101.0</ele><time>2026-05-03T13:53:00.885Z</time></trkpt><trkpt lat="39.7318333" lon="16.2335967"><ele>101.0</ele><time>2026-05-03T13:53:01.885Z</time></trkpt><trkpt lat="39.7315883" lon="16.2337317"><ele>101.0</ele><time>2026-05-03T13:53:02.885Z</time></trkpt><trkpt lat="39.731345" lon="16.23387"><ele>101.0</ele><time>2026-05-03T13:53:03.885Z</time></trkpt><trkpt lat="39.7310983" lon="16.2340033"><ele>99.5</ele><time>2026-05-03T13:53:04.884Z</time></trkpt><trkpt lat="39.73085" lon="16.2341367"><ele>98.0</ele><time>2026-05-03T13:53:05.885Z</time></trkpt><trkpt lat="39.7306" lon="16.2342783"><ele>98.0</ele><time>2026-05-03T13:53:06.885Z</time></trkpt><trkpt lat="39.7303517" lon="16.234415"><ele>98.0</ele><time>2026-05-03T13:53:07.885Z</time></trkpt><trkpt lat="39.7300967" lon="16.2345483"><ele>98.0</ele><time>2026-05-03T13:53:08.885Z</time></trkpt><trkpt lat="39.7298483" lon="16.234685"><ele>98.0</ele><time>2026-05-03T13:53:09.885Z</time></trkpt><trkpt lat="39.7296017" lon="16.2348133"><ele>100.0</ele><time>2026-05-03T13:53:10.885Z</time></trkpt><trkpt lat="39.7293567" lon="16.234945"><ele>102.0</ele><time>2026-05-03T13:53:11.885Z</time></trkpt><trkpt lat="39.7291067" lon="16.2350783"><ele>102.0</ele><time>2026-05-03T13:53:12.884Z</time></trkpt><trkpt lat="39.728855" lon="16.2352083"><ele>102.0</ele><time>2026-05-03T13:53:13.884Z</time></trkpt><trkpt lat="39.7286067" lon="16.2353383"><ele>102.0</ele><time>2026-05-03T13:53:14.884Z</time></trkpt><trkpt lat="39.72836" lon="16.2354717"><ele>102.0</ele><time>2026-05-03T13:53:15.885Z</time></trkpt><trkpt lat="39.72811" lon="16.2355983"><ele>102.0</ele><time>2026-05-03T13:53:16.885Z</time></trkpt><trkpt lat="39.727865" lon="16.235725"><ele>102.0</ele><time>2026-05-03T13:53:17.885Z</time></trkpt><trkpt lat="39.7276183" lon="16.2358533"><ele>102.0</ele><time>2026-05-03T13:53:18.885Z</time></trkpt><trkpt lat="39.727375" lon="16.2359783"><ele>102.0</ele><time>2026-05-03T13:53:19.885Z</time></trkpt><trkpt lat="39.7271333" lon="16.2361"><ele>104.0</ele><time>2026-05-03T13:53:20.885Z</time></trkpt><trkpt lat="39.7268917" lon="16.2362267"><ele>106.0</ele><time>2026-05-03T13:53:21.885Z</time></trkpt><trkpt lat="39.7266517" lon="16.2363583"><ele>104.0</ele><time>2026-05-03T13:53:22.884Z</time></trkpt><trkpt lat="39.72641" lon="16.23648"><ele>102.0</ele><time>2026-05-03T13:53:23.885Z</time></trkpt><trkpt lat="39.7261733" lon="16.2366033"><ele>103.0</ele><time>2026-05-03T13:53:24.885Z</time></trkpt><trkpt lat="39.7259367" lon="16.2367317"><ele>104.0</ele><time>2026-05-03T13:53:25.885Z</time></trkpt><trkpt lat="39.7256967" lon="16.2368567"><ele>104.0</ele><time>2026-05-03T13:53:26.885Z</time></trkpt><trkpt lat="39.7254633" lon="16.2369883"><ele>104.0</ele><time>2026-05-03T13:53:27.885Z</time></trkpt><trkpt lat="39.725225" lon="16.2371183"><ele>104.5</ele><time>2026-05-03T13:53:28.884Z</time></trkpt><trkpt lat="39.7249817" lon="16.2372467"><ele>105.0</ele><time>2026-05-03T13:53:29.885Z</time></trkpt><trkpt lat="39.7247333" lon="16.2373733"><ele>105.0</ele><time>2026-05-03T13:53:30.884Z</time></trkpt><trkpt lat="39.7244817" lon="16.237505"><ele>105.0</ele><time>2026-05-03T13:53:31.885Z</time></trkpt><trkpt lat="39.7242333" lon="16.23764"><ele>105.0</ele><time>2026-05-03T13:53:32.884Z</time></trkpt><trkpt lat="39.7239833" lon="16.2377717"><ele>105.0</ele><time>2026-05-03T13:53:33.885Z</time></trkpt><trkpt lat="39.72373" lon="16.2379083"><ele>106.0</ele><time>2026-05-03T13:53:34.885Z</time></trkpt><trkpt lat="39.723475" lon="16.238035"><ele>107.0</ele><time>2026-05-03T13:53:35.885Z</time></trkpt><trkpt lat="39.7232283" lon="16.2381683"><ele>107.0</ele><time>2026-05-03T13:53:36.885Z</time></trkpt><trkpt lat="39.72298" lon="16.238295"><ele>107.0</ele><time>2026-05-03T13:53:37.885Z</time></trkpt><trkpt lat="39.72273" lon="16.2384233"><ele>107.0</ele><time>2026-05-03T13:53:38.885Z</time></trkpt><trkpt lat="39.722485" lon="16.238555"><ele>107.0</ele><time>2026-05-03T13:53:39.884Z</time></trkpt><trkpt lat="39.7222367" lon="16.2386833"><ele>107.0</ele><time>2026-05-03T13:53:40.885Z</time></trkpt><trkpt lat="39.72199" lon="16.238805"><ele>107.0</ele><time>2026-05-03T13:53:41.885Z</time></trkpt><trkpt lat="39.7217467" lon="16.238935"><ele>107.0</ele><time>2026-05-03T13:53:42.885Z</time></trkpt><trkpt lat="39.7214967" lon="16.2390617"><ele>107.0</ele><time>2026-05-03T13:53:43.884Z</time></trkpt><trkpt lat="39.7212483" lon="16.2391917"><ele>108.0</ele><time>2026-05-03T13:53:44.884Z</time></trkpt><trkpt lat="39.7209967" lon="16.2393183"><ele>109.0</ele><time>2026-05-03T13:53:45.885Z</time></trkpt><trkpt lat="39.7207533" lon="16.2394433"><ele>109.0</ele><time>2026-05-03T13:53:46.885Z</time></trkpt><trkpt lat="39.72051" lon="16.2395733"><ele>109.0</ele><time>2026-05-03T13:53:47.885Z</time></trkpt><trkpt lat="39.7202683" lon="16.2397"><ele>108.5</ele><time>2026-05-03T13:53:48.885Z</time></trkpt><trkpt lat="39.7200267" lon="16.2398283"><ele>108.0</ele><time>2026-05-03T13:53:49.885Z</time></trkpt><trkpt lat="39.7197767" lon="16.2399567"><ele>108.0</ele><time>2026-05-03T13:53:50.885Z</time></trkpt><trkpt lat="39.71952" lon="16.2400917"><ele>108.0</ele><time>2026-05-03T13:53:51.885Z</time></trkpt><trkpt lat="39.719265" lon="16.240225"><ele>107.5</ele><time>2026-05-03T13:53:52.884Z</time></trkpt><trkpt lat="39.7190067" lon="16.2403617"><ele>107.0</ele><time>2026-05-03T13:53:53.885Z</time></trkpt><trkpt lat="39.7187517" lon="16.2404933"><ele>107.0</ele><time>2026-05-03T13:53:54.885Z</time></trkpt><trkpt lat="39.7184867" lon="16.2406317"><ele>107.0</ele><time>2026-05-03T13:53:55.884Z</time></trkpt><trkpt lat="39.7182183" lon="16.2407767"><ele>107.0</ele><time>2026-05-03T13:53:56.884Z</time></trkpt><trkpt lat="39.7179467" lon="16.2409133"><ele>107.0</ele><time>2026-05-03T13:53:57.885Z</time></trkpt><trkpt lat="39.71768" lon="16.2410517"><ele>109.0</ele><time>2026-05-03T13:53:58.884Z</time></trkpt><trkpt lat="39.7174167" lon="16.2411917"><ele>111.0</ele><time>2026-05-03T13:53:59.884Z</time></trkpt><trkpt lat="39.71715" lon="16.24133"><ele>110.5</ele><time>2026-05-03T13:54:00.885Z</time></trkpt><trkpt lat="39.7168867" lon="16.2414733"><ele>110.0</ele><time>2026-05-03T13:54:01.884Z</time></trkpt><trkpt lat="39.7166183" lon="16.241615"><ele>110.0</ele><time>2026-05-03T13:54:02.885Z</time></trkpt><trkpt lat="39.7163517" lon="16.24175"><ele>110.0</ele><time>2026-05-03T13:54:03.885Z</time></trkpt><trkpt lat="39.71608" lon="16.2418783"><ele>110.5</ele><time>2026-05-03T13:54:04.885Z</time></trkpt><trkpt lat="39.7158117" lon="16.2420183"><ele>111.0</ele><time>2026-05-03T13:54:05.885Z</time></trkpt><trkpt lat="39.7155483" lon="16.2421617"><ele>108.5</ele><time>2026-05-03T13:54:06.885Z</time></trkpt><trkpt lat="39.7152883" lon="16.2423017"><ele>106.0</ele><time>2026-05-03T13:54:07.885Z</time></trkpt><trkpt lat="39.71503" lon="16.24244"><ele>106.0</ele><time>2026-05-03T13:54:08.884Z</time></trkpt><trkpt lat="39.714775" lon="16.2425717"><ele>106.0</ele><time>2026-05-03T13:54:09.885Z</time></trkpt><trkpt lat="39.7145217" lon="16.2426983"><ele>103.5</ele><time>2026-05-03T13:54:10.884Z</time></trkpt><trkpt lat="39.714275" lon="16.2428267"><ele>101.0</ele><time>2026-05-03T13:54:11.884Z</time></trkpt><trkpt lat="39.7140217" lon="16.24295"><ele>101.0</ele><time>2026-05-03T13:54:12.885Z</time></trkpt><trkpt lat="39.7137617" lon="16.2430683"><ele>101.0</ele><time>2026-05-03T13:54:13.885Z</time></trkpt><trkpt lat="39.71351" lon="16.2431767"><ele>96.5</ele><time>2026-05-03T13:54:14.885Z</time></trkpt><trkpt lat="39.7132517" lon="16.24329"><ele>92.0</ele><time>2026-05-03T13:54:15.885Z</time></trkpt><trkpt lat="39.7129967" lon="16.2433917"><ele>92.0</ele><time>2026-05-03T13:54:16.885Z</time></trkpt><trkpt lat="39.71274" lon="16.2434883"><ele>92.0</ele><time>2026-05-03T13:54:17.884Z</time></trkpt><trkpt lat="39.7124717" lon="16.243575"><ele>90.0</ele><time>2026-05-03T13:54:18.885Z</time></trkpt><trkpt lat="39.7121967" lon="16.2436483"><ele>88.0</ele><time>2026-05-03T13:54:19.884Z</time></trkpt><trkpt lat="39.7119217" lon="16.2437183"><ele>94.5</ele><time>2026-05-03T13:54:20.885Z</time></trkpt><trkpt lat="39.7116417" lon="16.2437767"><ele>101.0</ele><time>2026-05-03T13:54:21.884Z</time></trkpt><trkpt lat="39.7113617" lon="16.2438233"><ele>101.0</ele><time>2026-05-03T13:54:22.885Z</time></trkpt><trkpt lat="39.7110817" lon="16.2438667"><ele>101.0</ele><time>2026-05-03T13:54:23.885Z</time></trkpt><trkpt lat="39.7108033" lon="16.2439133"><ele>106.5</ele><time>2026-05-03T13:54:24.885Z</time></trkpt><trkpt lat="39.7105233" lon="16.24394"><ele>112.0</ele><time>2026-05-03T13:54:25.885Z</time></trkpt><trkpt lat="39.71025" lon="16.2439617"><ele>96.0</ele><time>2026-05-03T13:54:26.885Z</time></trkpt><trkpt lat="39.7096983" lon="16.2439733"><ele>96.0</ele><time>2026-05-03T13:54:28.885Z</time></trkpt><trkpt lat="39.7094267" lon="16.2439667"><ele>96.0</ele><time>2026-05-03T13:54:29.885Z</time></trkpt><trkpt lat="39.7091433" lon="16.2439517"><ele>99.0</ele><time>2026-05-03T13:54:30.885Z</time></trkpt><trkpt lat="39.7088633" lon="16.243925"><ele>102.0</ele><time>2026-05-03T13:54:31.885Z</time></trkpt><trkpt lat="39.7085833" lon="16.2438867"><ele>103.5</ele><time>2026-05-03T13:54:32.885Z</time></trkpt><trkpt lat="39.7083033" lon="16.2438533"><ele>105.0</ele><time>2026-05-03T13:54:33.884Z</time></trkpt><trkpt lat="39.70803" lon="16.2438033"><ele>105.0</ele><time>2026-05-03T13:54:34.885Z</time></trkpt><trkpt lat="39.7077517" lon="16.2437483"><ele>105.0</ele><time>2026-05-03T13:54:35.885Z</time></trkpt><trkpt lat="39.7074833" lon="16.24368"><ele>102.5</ele><time>2026-05-03T13:54:36.885Z</time></trkpt><trkpt lat="39.7072267" lon="16.2436133"><ele>100.0</ele><time>2026-05-03T13:54:37.885Z</time></trkpt><trkpt lat="39.7069667" lon="16.2435283"><ele>99.0</ele><time>2026-05-03T13:54:38.885Z</time></trkpt><trkpt lat="39.706695" lon="16.243435"><ele>98.0</ele><time>2026-05-03T13:54:39.885Z</time></trkpt><trkpt lat="39.7064333" lon="16.2433433"><ele>98.0</ele><time>2026-05-03T13:54:40.885Z</time></trkpt><trkpt lat="39.706175" lon="16.24324"><ele>98.0</ele><time>2026-05-03T13:54:41.885Z</time></trkpt><trkpt lat="39.7059217" lon="16.243135"><ele>99.0</ele><time>2026-05-03T13:54:42.885Z</time></trkpt><trkpt lat="39.7056667" lon="16.2430133"><ele>100.0</ele><time>2026-05-03T13:54:43.884Z</time></trkpt><trkpt lat="39.7054133" lon="16.2428833"><ele>96.0</ele><time>2026-05-03T13:54:44.884Z</time></trkpt><trkpt lat="39.7051583" lon="16.24275"><ele>92.0</ele><time>2026-05-03T13:54:45.885Z</time></trkpt><trkpt lat="39.70491" lon="16.2426217"><ele>92.0</ele><time>2026-05-03T13:54:46.885Z</time></trkpt><trkpt lat="39.7046633" lon="16.2424917"><ele>92.0</ele><time>2026-05-03T13:54:47.884Z</time></trkpt><trkpt lat="39.7044233" lon="16.2423517"><ele>92.0</ele><time>2026-05-03T13:54:48.885Z</time></trkpt><trkpt lat="39.7041817" lon="16.2422083"><ele>92.0</ele><time>2026-05-03T13:54:49.885Z</time></trkpt><trkpt lat="39.7039367" lon="16.24207"><ele>92.0</ele><time>2026-05-03T13:54:50.885Z</time></trkpt><trkpt lat="39.7036933" lon="16.2419217"><ele>92.0</ele><time>2026-05-03T13:54:51.884Z</time></trkpt><trkpt lat="39.70345" lon="16.2417717"><ele>91.0</ele><time>2026-05-03T13:54:52.884Z</time></trkpt><trkpt lat="39.7031967" lon="16.2416267"><ele>90.0</ele><time>2026-05-03T13:54:53.885Z</time></trkpt><trkpt lat="39.70295" lon="16.2414733"><ele>90.0</ele><time>2026-05-03T13:54:54.885Z</time></trkpt><trkpt lat="39.7027033" lon="16.24133"><ele>90.0</ele><time>2026-05-03T13:54:55.884Z</time></trkpt><trkpt lat="39.7024567" lon="16.2411783"><ele>90.0</ele><time>2026-05-03T13:54:56.885Z</time></trkpt><trkpt lat="39.7022033" lon="16.24103"><ele>90.0</ele><time>2026-05-03T13:54:57.885Z</time></trkpt><trkpt lat="39.7019517" lon="16.2408783"><ele>89.5</ele><time>2026-05-03T13:54:58.884Z</time></trkpt><trkpt lat="39.7016983" lon="16.2407217"><ele>89.0</ele><time>2026-05-03T13:54:59.885Z</time></trkpt><trkpt lat="39.70144" lon="16.2405667"><ele>89.0</ele><time>2026-05-03T13:55:00.885Z</time></trkpt><trkpt lat="39.70119" lon="16.2404083"><ele>89.0</ele><time>2026-05-03T13:55:01.885Z</time></trkpt><trkpt lat="39.700935" lon="16.2402583"><ele>89.0</ele><time>2026-05-03T13:55:02.884Z</time></trkpt><trkpt lat="39.7006767" lon="16.2401083"><ele>89.0</ele><time>2026-05-03T13:55:03.885Z</time></trkpt><trkpt lat="39.7004233" lon="16.2399533"><ele>89.0</ele><time>2026-05-03T13:55:04.885Z</time></trkpt><trkpt lat="39.7001817" lon="16.2398033"><ele>89.0</ele><time>2026-05-03T13:55:05.885Z</time></trkpt><trkpt lat="39.6999283" lon="16.23966"><ele>89.0</ele><time>2026-05-03T13:55:06.884Z</time></trkpt><trkpt lat="39.6996767" lon="16.2395117"><ele>89.0</ele><time>2026-05-03T13:55:07.885Z</time></trkpt><trkpt lat="39.69942" lon="16.2393583"><ele>88.0</ele><time>2026-05-03T13:55:08.885Z</time></trkpt><trkpt lat="39.6991717" lon="16.2392033"><ele>87.0</ele><time>2026-05-03T13:55:09.885Z</time></trkpt><trkpt lat="39.6989233" lon="16.239045"><ele>87.5</ele><time>2026-05-03T13:55:10.885Z</time></trkpt><trkpt lat="39.698665" lon="16.2388917"><ele>88.0</ele><time>2026-05-03T13:55:11.885Z</time></trkpt><trkpt lat="39.6984183" lon="16.2387383"><ele>88.0</ele><time>2026-05-03T13:55:12.885Z</time></trkpt><trkpt lat="39.6981683" lon="16.2385833"><ele>88.0</ele><time>2026-05-03T13:55:13.885Z</time></trkpt><trkpt lat="39.6979217" lon="16.2384167"><ele>87.5</ele><time>2026-05-03T13:55:14.885Z</time></trkpt><trkpt lat="39.6976633" lon="16.2382533"><ele>87.0</ele><time>2026-05-03T13:55:15.884Z</time></trkpt><trkpt lat="39.697415" lon="16.238095"><ele>87.0</ele><time>2026-05-03T13:55:16.885Z</time></trkpt><trkpt lat="39.6971667" lon="16.2379333"><ele>87.0</ele><time>2026-05-03T13:55:17.885Z</time></trkpt><trkpt lat="39.6969133" lon="16.2377817"><ele>88.5</ele><time>2026-05-03T13:55:18.885Z</time></trkpt><trkpt lat="39.696665" lon="16.2376367"><ele>90.0</ele><time>2026-05-03T13:55:19.885Z</time></trkpt><trkpt lat="39.6964083" lon="16.2374867"><ele>90.0</ele><time>2026-05-03T13:55:20.885Z</time></trkpt><trkpt lat="39.6961483" lon="16.2373267"><ele>90.0</ele><time>2026-05-03T13:55:21.885Z</time></trkpt><trkpt lat="39.6958917" lon="16.23717"><ele>90.5</ele><time>2026-05-03T13:55:22.884Z</time></trkpt><trkpt lat="39.69564" lon="16.237005"><ele>91.0</ele><time>2026-05-03T13:55:23.885Z</time></trkpt><trkpt lat="39.6953933" lon="16.2368317"><ele>90.5</ele><time>2026-05-03T13:55:24.884Z</time></trkpt><trkpt lat="39.6951467" lon="16.236645"><ele>90.0</ele><time>2026-05-03T13:55:25.885Z</time></trkpt><trkpt lat="39.6948917" lon="16.23645"><ele>90.0</ele><time>2026-05-03T13:55:26.885Z</time></trkpt><trkpt lat="39.6946467" lon="16.2362467"><ele>90.0</ele><time>2026-05-03T13:55:27.885Z</time></trkpt><trkpt lat="39.6944" lon="16.236035"><ele>90.0</ele><time>2026-05-03T13:55:28.885Z</time></trkpt><trkpt lat="39.69417" lon="16.2358133"><ele>90.0</ele><time>2026-05-03T13:55:29.885Z</time></trkpt><trkpt lat="39.6939467" lon="16.2355917"><ele>90.0</ele><time>2026-05-03T13:55:30.885Z</time></trkpt><trkpt lat="39.69372" lon="16.2353583"><ele>90.0</ele><time>2026-05-03T13:55:31.885Z</time></trkpt><trkpt lat="39.69349" lon="16.2351183"><ele>90.5</ele><time>2026-05-03T13:55:32.885Z</time></trkpt><trkpt lat="39.6932667" lon="16.234875"><ele>91.0</ele><time>2026-05-03T13:55:33.885Z</time></trkpt><trkpt lat="39.6930483" lon="16.2346183"><ele>91.0</ele><time>2026-05-03T13:55:34.884Z</time></trkpt><trkpt lat="39.6928367" lon="16.2343433"><ele>91.0</ele><time>2026-05-03T13:55:35.884Z</time></trkpt><trkpt lat="39.6926283" lon="16.23407"><ele>91.5</ele><time>2026-05-03T13:55:36.884Z</time></trkpt><trkpt lat="39.6924217" lon="16.2337967"><ele>92.0</ele><time>2026-05-03T13:55:37.885Z</time></trkpt><trkpt lat="39.6922167" lon="16.2335233"><ele>92.0</ele><time>2026-05-03T13:55:38.885Z</time></trkpt><trkpt lat="39.69202" lon="16.233245"><ele>92.0</ele><time>2026-05-03T13:55:39.885Z</time></trkpt><trkpt lat="39.691825" lon="16.2329667"><ele>93.0</ele><time>2026-05-03T13:55:40.885Z</time></trkpt><trkpt lat="39.6916283" lon="16.232685"><ele>94.0</ele><time>2026-05-03T13:55:41.885Z</time></trkpt><trkpt lat="39.691435" lon="16.2324117"><ele>94.0</ele><time>2026-05-03T13:55:42.885Z</time></trkpt><trkpt lat="39.6912517" lon="16.2321417"><ele>94.0</ele><time>2026-05-03T13:55:43.885Z</time></trkpt><trkpt lat="39.6910533" lon="16.23187"><ele>95.5</ele><time>2026-05-03T13:55:44.884Z</time></trkpt><trkpt lat="39.6908567" lon="16.231595"><ele>97.0</ele><time>2026-05-03T13:55:45.884Z</time></trkpt><trkpt lat="39.690665" lon="16.23132"><ele>97.0</ele><time>2026-05-03T13:55:46.885Z</time></trkpt><trkpt lat="39.690475" lon="16.23105"><ele>97.0</ele><time>2026-05-03T13:55:47.885Z</time></trkpt><trkpt lat="39.690285" lon="16.230785"><ele>98.0</ele><time>2026-05-03T13:55:48.885Z</time></trkpt><trkpt lat="39.6900983" lon="16.23051"><ele>99.0</ele><time>2026-05-03T13:55:49.885Z</time></trkpt><trkpt lat="39.6899017" lon="16.2302417"><ele>99.0</ele><time>2026-05-03T13:55:50.885Z</time></trkpt><trkpt lat="39.6897117" lon="16.2299733"><ele>99.0</ele><time>2026-05-03T13:55:51.885Z</time></trkpt><trkpt lat="39.68952" lon="16.2297017"><ele>99.0</ele><time>2026-05-03T13:55:52.885Z</time></trkpt><trkpt lat="39.68933" lon="16.2294283"><ele>99.0</ele><time>2026-05-03T13:55:53.884Z</time></trkpt><trkpt lat="39.6891333" lon="16.229155"><ele>98.0</ele><time>2026-05-03T13:55:54.885Z</time></trkpt><trkpt lat="39.6889317" lon="16.228885"><ele>97.0</ele><time>2026-05-03T13:55:55.885Z</time></trkpt><trkpt lat="39.6887367" lon="16.2286167"><ele>97.0</ele><time>2026-05-03T13:55:56.885Z</time></trkpt><trkpt lat="39.68854" lon="16.2283483"><ele>97.0</ele><time>2026-05-03T13:55:57.884Z</time></trkpt><trkpt lat="39.6883367" lon="16.2280683"><ele>97.0</ele><time>2026-05-03T13:55:58.884Z</time></trkpt><trkpt lat="39.6881383" lon="16.22779"><ele>97.0</ele><time>2026-05-03T13:55:59.885Z</time></trkpt><trkpt lat="39.687945" lon="16.2275067"><ele>97.5</ele><time>2026-05-03T13:56:00.885Z</time></trkpt><trkpt lat="39.6877483" lon="16.2272317"><ele>98.0</ele><time>2026-05-03T13:56:01.885Z</time></trkpt><trkpt lat="39.687555" lon="16.2269567"><ele>98.0</ele><time>2026-05-03T13:56:02.885Z</time></trkpt><trkpt lat="39.6873533" lon="16.2266817"><ele>98.0</ele><time>2026-05-03T13:56:03.884Z</time></trkpt><trkpt lat="39.6871517" lon="16.2264167"><ele>96.5</ele><time>2026-05-03T13:56:04.885Z</time></trkpt><trkpt lat="39.6869467" lon="16.2261583"><ele>95.0</ele><time>2026-05-03T13:56:05.885Z</time></trkpt><trkpt lat="39.6867483" lon="16.2259083"><ele>95.0</ele><time>2026-05-03T13:56:06.884Z</time></trkpt><trkpt lat="39.6865483" lon="16.225655"><ele>95.0</ele><time>2026-05-03T13:56:07.884Z</time></trkpt><trkpt lat="39.686345" lon="16.2254033"><ele>94.0</ele><time>2026-05-03T13:56:08.885Z</time></trkpt><trkpt lat="39.68614" lon="16.2251483"><ele>93.0</ele><time>2026-05-03T13:56:09.885Z</time></trkpt><trkpt lat="39.68593" lon="16.2248883"><ele>92.0</ele><time>2026-05-03T13:56:10.885Z</time></trkpt><trkpt lat="39.6857267" lon="16.22464"><ele>91.0</ele><time>2026-05-03T13:56:11.885Z</time></trkpt><trkpt lat="39.6855183" lon="16.224385"><ele>91.0</ele><time>2026-05-03T13:56:12.885Z</time></trkpt><trkpt lat="39.6853067" lon="16.2241267"><ele>91.0</ele><time>2026-05-03T13:56:13.885Z</time></trkpt><trkpt lat="39.6850967" lon="16.2238717"><ele>90.5</ele><time>2026-05-03T13:56:14.885Z</time></trkpt><trkpt lat="39.6848883" lon="16.2236183"><ele>90.0</ele><time>2026-05-03T13:56:15.885Z</time></trkpt><trkpt lat="39.6846867" lon="16.223365"><ele>89.5</ele><time>2026-05-03T13:56:16.885Z</time></trkpt><trkpt lat="39.6844867" lon="16.22311"><ele>89.0</ele><time>2026-05-03T13:56:17.885Z</time></trkpt><trkpt lat="39.6842733" lon="16.2228467"><ele>89.0</ele><time>2026-05-03T13:56:18.885Z</time></trkpt><trkpt lat="39.684065" lon="16.2225933"><ele>89.0</ele><time>2026-05-03T13:56:19.885Z</time></trkpt><trkpt lat="39.6838467" lon="16.2223383"><ele>88.5</ele><time>2026-05-03T13:56:20.885Z</time></trkpt><trkpt lat="39.6836267" lon="16.2220883"><ele>88.0</ele><time>2026-05-03T13:56:21.884Z</time></trkpt><trkpt lat="39.68341" lon="16.2218483"><ele>88.5</ele><time>2026-05-03T13:56:22.884Z</time></trkpt><trkpt lat="39.68318" lon="16.2216"><ele>89.0</ele><time>2026-05-03T13:56:23.884Z</time></trkpt><trkpt lat="39.68295" lon="16.2213467"><ele>89.5</ele><time>2026-05-03T13:56:24.885Z</time></trkpt><trkpt lat="39.6827" lon="16.2211033"><ele>90.0</ele><time>2026-05-03T13:56:25.885Z</time></trkpt><trkpt lat="39.68245" lon="16.22087"><ele>89.0</ele><time>2026-05-03T13:56:26.885Z</time></trkpt><trkpt lat="39.6821967" lon="16.2206467"><ele>88.0</ele><time>2026-05-03T13:56:27.885Z</time></trkpt><trkpt lat="39.6819367" lon="16.2204317"><ele>89.0</ele><time>2026-05-03T13:56:28.884Z</time></trkpt><trkpt lat="39.681675" lon="16.2202283"><ele>90.0</ele><time>2026-05-03T13:56:29.885Z</time></trkpt><trkpt lat="39.6814117" lon="16.220025"><ele>90.0</ele><time>2026-05-03T13:56:30.885Z</time></trkpt><trkpt lat="39.681145" lon="16.219835"><ele>90.0</ele><time>2026-05-03T13:56:31.884Z</time></trkpt><trkpt lat="39.68087" lon="16.2196533"><ele>90.5</ele><time>2026-05-03T13:56:32.885Z</time></trkpt><trkpt lat="39.6805933" lon="16.2194783"><ele>91.0</ele><time>2026-05-03T13:56:33.885Z</time></trkpt><trkpt lat="39.680315" lon="16.219325"><ele>92.0</ele><time>2026-05-03T13:56:34.884Z</time></trkpt><trkpt lat="39.68004" lon="16.2191733"><ele>93.0</ele><time>2026-05-03T13:56:35.885Z</time></trkpt><trkpt lat="39.67976" lon="16.2190417"><ele>92.5</ele><time>2026-05-03T13:56:36.885Z</time></trkpt><trkpt lat="39.6794833" lon="16.218915"><ele>92.0</ele><time>2026-05-03T13:56:37.885Z</time></trkpt><trkpt lat="39.6792067" lon="16.2187967"><ele>92.0</ele><time>2026-05-03T13:56:38.885Z</time></trkpt><trkpt lat="39.6789217" lon="16.218685"><ele>92.0</ele><time>2026-05-03T13:56:39.885Z</time></trkpt><trkpt lat="39.67864" lon="16.2185833"><ele>92.5</ele><time>2026-05-03T13:56:40.885Z</time></trkpt><trkpt lat="39.678355" lon="16.2184833"><ele>93.0</ele><time>2026-05-03T13:56:41.885Z</time></trkpt><trkpt lat="39.6780683" lon="16.21839"><ele>93.0</ele><time>2026-05-03T13:56:42.885Z</time></trkpt><trkpt lat="39.677775" lon="16.218285"><ele>93.0</ele><time>2026-05-03T13:56:43.884Z</time></trkpt><trkpt lat="39.677475" lon="16.2181833"><ele>93.5</ele><time>2026-05-03T13:56:44.884Z</time></trkpt><trkpt lat="39.677175" lon="16.2180833"><ele>94.0</ele><time>2026-05-03T13:56:45.885Z</time></trkpt><trkpt lat="39.6768733" lon="16.21798"><ele>94.0</ele><time>2026-05-03T13:56:46.884Z</time></trkpt><trkpt lat="39.6765767" lon="16.2178783"><ele>94.0</ele><time>2026-05-03T13:56:47.885Z</time></trkpt><trkpt lat="39.6762717" lon="16.2177783"><ele>94.0</ele><time>2026-05-03T13:56:48.885Z</time></trkpt><trkpt lat="39.6759667" lon="16.21768"><ele>94.0</ele><time>2026-05-03T13:56:49.885Z</time></trkpt><trkpt lat="39.6756617" lon="16.217585"><ele>94.0</ele><time>2026-05-03T13:56:50.885Z</time></trkpt><trkpt lat="39.6753483" lon="16.217475"><ele>94.0</ele><time>2026-05-03T13:56:51.885Z</time></trkpt><trkpt lat="39.67503" lon="16.21737"><ele>93.0</ele><time>2026-05-03T13:56:52.884Z</time></trkpt><trkpt lat="39.6747117" lon="16.2172633"><ele>92.0</ele><time>2026-05-03T13:56:53.885Z</time></trkpt><trkpt lat="39.6743967" lon="16.21716"><ele>92.0</ele><time>2026-05-03T13:56:54.885Z</time></trkpt><trkpt lat="39.6740867" lon="16.2170517"><ele>92.0</ele><time>2026-05-03T13:56:55.885Z</time></trkpt><trkpt lat="39.6737717" lon="16.2169483"><ele>92.0</ele><time>2026-05-03T13:56:56.885Z</time></trkpt><trkpt lat="39.6734567" lon="16.21684"><ele>92.0</ele><time>2026-05-03T13:56:57.884Z</time></trkpt><trkpt lat="39.6731467" lon="16.21673"><ele>92.0</ele><time>2026-05-03T13:56:58.885Z</time></trkpt><trkpt lat="39.67284" lon="16.2166217"><ele>92.0</ele><time>2026-05-03T13:56:59.884Z</time></trkpt><trkpt lat="39.6725367" lon="16.21652"><ele>91.0</ele><time>2026-05-03T13:57:00.884Z</time></trkpt><trkpt lat="39.672235" lon="16.2164217"><ele>90.0</ele><time>2026-05-03T13:57:01.885Z</time></trkpt><trkpt lat="39.6719333" lon="16.2163267"><ele>90.0</ele><time>2026-05-03T13:57:02.884Z</time></trkpt><trkpt lat="39.6716317" lon="16.2162267"><ele>90.0</ele><time>2026-05-03T13:57:03.885Z</time></trkpt><trkpt lat="39.671335" lon="16.216125"><ele>89.0</ele><time>2026-05-03T13:57:04.885Z</time></trkpt><trkpt lat="39.6710417" lon="16.2160283"><ele>88.0</ele><time>2026-05-03T13:57:05.885Z</time></trkpt><trkpt lat="39.6707467" lon="16.2159283"><ele>88.0</ele><time>2026-05-03T13:57:06.884Z</time></trkpt><trkpt lat="39.6704417" lon="16.215825"><ele>88.0</ele><time>2026-05-03T13:57:07.885Z</time></trkpt><trkpt lat="39.6701383" lon="16.215715"><ele>87.0</ele><time>2026-05-03T13:57:08.885Z</time></trkpt><trkpt lat="39.6698367" lon="16.2156083"><ele>86.0</ele><time>2026-05-03T13:57:09.885Z</time></trkpt><trkpt lat="39.66953" lon="16.2155083"><ele>86.0</ele><time>2026-05-03T13:57:10.885Z</time></trkpt><trkpt lat="39.6692233" lon="16.2154033"><ele>86.0</ele><time>2026-05-03T13:57:11.885Z</time></trkpt><trkpt lat="39.6689217" lon="16.215295"><ele>86.0</ele><time>2026-05-03T13:57:12.885Z</time></trkpt><trkpt lat="39.6686217" lon="16.21519"><ele>86.0</ele><time>2026-05-03T13:57:13.884Z</time></trkpt><trkpt lat="39.6683233" lon="16.2150917"><ele>86.0</ele><time>2026-05-03T13:57:14.884Z</time></trkpt><trkpt lat="39.6680333" lon="16.2149967"><ele>86.0</ele><time>2026-05-03T13:57:15.885Z</time></trkpt><trkpt lat="39.667745" lon="16.2149017"><ele>86.5</ele><time>2026-05-03T13:57:16.885Z</time></trkpt><trkpt lat="39.6674483" lon="16.2148033"><ele>87.0</ele><time>2026-05-03T13:57:17.885Z</time></trkpt><trkpt lat="39.66714" lon="16.2147033"><ele>86.0</ele><time>2026-05-03T13:57:18.885Z</time></trkpt><trkpt lat="39.6668367" lon="16.21459"><ele>85.0</ele><time>2026-05-03T13:57:19.885Z</time></trkpt><trkpt lat="39.666525" lon="16.2144817"><ele>85.0</ele><time>2026-05-03T13:57:20.885Z</time></trkpt><trkpt lat="39.6662217" lon="16.21439"><ele>85.0</ele><time>2026-05-03T13:57:21.885Z</time></trkpt><trkpt lat="39.6659183" lon="16.214295"><ele>84.5</ele><time>2026-05-03T13:57:22.885Z</time></trkpt><trkpt lat="39.6656117" lon="16.214215"><ele>84.0</ele><time>2026-05-03T13:57:23.884Z</time></trkpt><trkpt lat="39.6653033" lon="16.214145"><ele>84.0</ele><time>2026-05-03T13:57:24.885Z</time></trkpt><trkpt lat="39.6649933" lon="16.214085"><ele>84.0</ele><time>2026-05-03T13:57:25.885Z</time></trkpt><trkpt lat="39.6646867" lon="16.2140333"><ele>84.0</ele><time>2026-05-03T13:57:26.885Z</time></trkpt><trkpt lat="39.66438" lon="16.213995"><ele>84.0</ele><time>2026-05-03T13:57:27.885Z</time></trkpt><trkpt lat="39.6640683" lon="16.2139617"><ele>83.5</ele><time>2026-05-03T13:57:28.885Z</time></trkpt><trkpt lat="39.6637467" lon="16.213935"><ele>83.0</ele><time>2026-05-03T13:57:29.884Z</time></trkpt><trkpt lat="39.66342" lon="16.213915"><ele>83.0</ele><time>2026-05-03T13:57:30.885Z</time></trkpt><trkpt lat="39.6630933" lon="16.2139067"><ele>83.0</ele><time>2026-05-03T13:57:31.884Z</time></trkpt><trkpt lat="39.6627667" lon="16.2139183"><ele>83.0</ele><time>2026-05-03T13:57:32.884Z</time></trkpt><trkpt lat="39.6624417" lon="16.213945"><ele>83.0</ele><time>2026-05-03T13:57:33.885Z</time></trkpt><trkpt lat="39.662115" lon="16.2139833"><ele>82.5</ele><time>2026-05-03T13:57:34.885Z</time></trkpt><trkpt lat="39.661785" lon="16.2140267"><ele>82.0</ele><time>2026-05-03T13:57:35.884Z</time></trkpt><trkpt lat="39.661455" lon="16.2140767"><ele>82.0</ele><time>2026-05-03T13:57:36.885Z</time></trkpt><trkpt lat="39.661125" lon="16.2141417"><ele>82.0</ele><time>2026-05-03T13:57:37.884Z</time></trkpt><trkpt lat="39.6608" lon="16.2142133"><ele>82.5</ele><time>2026-05-03T13:57:38.885Z</time></trkpt><trkpt lat="39.6604767" lon="16.2142817"><ele>83.0</ele><time>2026-05-03T13:57:39.884Z</time></trkpt><trkpt lat="39.6601567" lon="16.2143533"><ele>83.0</ele><time>2026-05-03T13:57:40.884Z</time></trkpt><trkpt lat="39.659845" lon="16.2144267"><ele>83.0</ele><time>2026-05-03T13:57:41.885Z</time></trkpt><trkpt lat="39.6595383" lon="16.2145033"><ele>82.5</ele><time>2026-05-03T13:57:42.884Z</time></trkpt><trkpt lat="39.6592333" lon="16.2145733"><ele>82.0</ele><time>2026-05-03T13:57:43.884Z</time></trkpt><trkpt lat="39.6589317" lon="16.2146383"><ele>82.0</ele><time>2026-05-03T13:57:44.884Z</time></trkpt><trkpt lat="39.6586333" lon="16.2147083"><ele>82.0</ele><time>2026-05-03T13:57:45.885Z</time></trkpt><trkpt lat="39.6583283" lon="16.2147733"><ele>81.5</ele><time>2026-05-03T13:57:46.885Z</time></trkpt><trkpt lat="39.6580233" lon="16.2148433"><ele>81.0</ele><time>2026-05-03T13:57:47.885Z</time></trkpt><trkpt lat="39.6577083" lon="16.21492"><ele>82.0</ele><time>2026-05-03T13:57:48.885Z</time></trkpt><trkpt lat="39.6573933" lon="16.2149917"><ele>83.0</ele><time>2026-05-03T13:57:49.885Z</time></trkpt><trkpt lat="39.6570833" lon="16.21506"><ele>83.0</ele><time>2026-05-03T13:57:50.884Z</time></trkpt><trkpt lat="39.6567717" lon="16.2151317"><ele>83.0</ele><time>2026-05-03T13:57:51.885Z</time></trkpt><trkpt lat="39.6564617" lon="16.215205"><ele>83.0</ele><time>2026-05-03T13:57:52.885Z</time></trkpt><trkpt lat="39.65615" lon="16.2152767"><ele>83.0</ele><time>2026-05-03T13:57:53.885Z</time></trkpt><trkpt lat="39.6558433" lon="16.2153417"><ele>83.0</ele><time>2026-05-03T13:57:54.884Z</time></trkpt><trkpt lat="39.6555383" lon="16.2154167"><ele>83.0</ele><time>2026-05-03T13:57:55.885Z</time></trkpt><trkpt lat="39.6552317" lon="16.21549"><ele>83.0</ele><time>2026-05-03T13:57:56.885Z</time></trkpt><trkpt lat="39.6549217" lon="16.2155583"><ele>83.0</ele><time>2026-05-03T13:57:57.885Z</time></trkpt><trkpt lat="39.654615" lon="16.2156217"><ele>83.5</ele><time>2026-05-03T13:57:58.885Z</time></trkpt><trkpt lat="39.65431" lon="16.2156933"><ele>84.0</ele><time>2026-05-03T13:57:59.885Z</time></trkpt><trkpt lat="39.654" lon="16.215765"><ele>84.0</ele><time>2026-05-03T13:58:00.884Z</time></trkpt><trkpt lat="39.65368" lon="16.2158383"><ele>84.0</ele><time>2026-05-03T13:58:01.885Z</time></trkpt><trkpt lat="39.65336" lon="16.2159117"><ele>84.0</ele><time>2026-05-03T13:58:02.885Z</time></trkpt><trkpt lat="39.653035" lon="16.2159883"><ele>84.0</ele><time>2026-05-03T13:58:03.884Z</time></trkpt><trkpt lat="39.65271" lon="16.216065"><ele>83.5</ele><time>2026-05-03T13:58:04.885Z</time></trkpt><trkpt lat="39.6523817" lon="16.2161417"><ele>83.0</ele><time>2026-05-03T13:58:05.885Z</time></trkpt><trkpt lat="39.652055" lon="16.2162233"><ele>83.5</ele><time>2026-05-03T13:58:06.885Z</time></trkpt><trkpt lat="39.6517317" lon="16.2163167"><ele>84.0</ele><time>2026-05-03T13:58:07.885Z</time></trkpt><trkpt lat="39.6514283" lon="16.216425"><ele>84.5</ele><time>2026-05-03T13:58:08.884Z</time></trkpt><trkpt lat="39.6511233" lon="16.2165533"><ele>85.0</ele><time>2026-05-03T13:58:09.885Z</time></trkpt><trkpt lat="39.6508317" lon="16.2166883"><ele>85.0</ele><time>2026-05-03T13:58:10.884Z</time></trkpt><trkpt lat="39.6505383" lon="16.21684"><ele>85.0</ele><time>2026-05-03T13:58:11.885Z</time></trkpt><trkpt lat="39.6502533" lon="16.2169967"><ele>89.0</ele><time>2026-05-03T13:58:12.885Z</time></trkpt><trkpt lat="39.6499717" lon="16.2171617"><ele>93.0</ele><time>2026-05-03T13:58:13.884Z</time></trkpt><trkpt lat="39.6496933" lon="16.2173433"><ele>92.0</ele><time>2026-05-03T13:58:14.885Z</time></trkpt><trkpt lat="39.64942" lon="16.2175417"><ele>91.0</ele><time>2026-05-03T13:58:15.885Z</time></trkpt><trkpt lat="39.64915" lon="16.2177567"><ele>91.0</ele><time>2026-05-03T13:58:16.884Z</time></trkpt><trkpt lat="39.6488883" lon="16.2179883"><ele>91.0</ele><time>2026-05-03T13:58:17.885Z</time></trkpt><trkpt lat="39.6486217" lon="16.218255"><ele>90.5</ele><time>2026-05-03T13:58:18.884Z</time></trkpt><trkpt lat="39.6483717" lon="16.2185367"><ele>90.0</ele><time>2026-05-03T13:58:19.885Z</time></trkpt><trkpt lat="39.6481267" lon="16.2188267"><ele>89.0</ele><time>2026-05-03T13:58:20.884Z</time></trkpt><trkpt lat="39.6478833" lon="16.2191233"><ele>88.0</ele><time>2026-05-03T13:58:21.885Z</time></trkpt><trkpt lat="39.6476483" lon="16.2194283"><ele>88.0</ele><time>2026-05-03T13:58:22.885Z</time></trkpt><trkpt lat="39.6474333" lon="16.2197483"><ele>88.0</ele><time>2026-05-03T13:58:23.885Z</time></trkpt><trkpt lat="39.6472317" lon="16.2200667"><ele>88.0</ele><time>2026-05-03T13:58:24.885Z</time></trkpt><trkpt lat="39.6470367" lon="16.22041"><ele>88.0</ele><time>2026-05-03T13:58:25.885Z</time></trkpt><trkpt lat="39.6468567" lon="16.2207533"><ele>92.5</ele><time>2026-05-03T13:58:26.884Z</time></trkpt><trkpt lat="39.6466867" lon="16.2210933"><ele>97.0</ele><time>2026-05-03T13:58:27.885Z</time></trkpt><trkpt lat="39.646525" lon="16.221435"><ele>96.0</ele><time>2026-05-03T13:58:28.885Z</time></trkpt><trkpt lat="39.6463783" lon="16.22178"><ele>95.0</ele><time>2026-05-03T13:58:29.884Z</time></trkpt><trkpt lat="39.646235" lon="16.2221267"><ele>103.5</ele><time>2026-05-03T13:58:30.885Z</time></trkpt><trkpt lat="39.6460967" lon="16.2224833"><ele>112.0</ele><time>2026-05-03T13:58:31.885Z</time></trkpt><trkpt lat="39.6459567" lon="16.2228333"><ele>107.0</ele><time>2026-05-03T13:58:32.885Z</time></trkpt><trkpt lat="39.6458167" lon="16.2231833"><ele>102.0</ele><time>2026-05-03T13:58:33.885Z</time></trkpt><trkpt lat="39.6456767" lon="16.2235333"><ele>102.0</ele><time>2026-05-03T13:58:34.885Z</time></trkpt><trkpt lat="39.6455433" lon="16.2238717"><ele>102.0</ele><time>2026-05-03T13:58:35.884Z</time></trkpt><trkpt lat="39.6454167" lon="16.2242033"><ele>100.0</ele><time>2026-05-03T13:58:36.885Z</time></trkpt><trkpt lat="39.645285" lon="16.2245367"><ele>98.0</ele><time>2026-05-03T13:58:37.885Z</time></trkpt><trkpt lat="39.6451517" lon="16.22486"><ele>92.0</ele><time>2026-05-03T13:58:38.885Z</time></trkpt><trkpt lat="39.6450067" lon="16.2251783"><ele>86.0</ele><time>2026-05-03T13:58:39.884Z</time></trkpt><trkpt lat="39.644855" lon="16.2255017"><ele>84.5</ele><time>2026-05-03T13:58:40.885Z</time></trkpt><trkpt lat="39.6446967" lon="16.22583"><ele>83.0</ele><time>2026-05-03T13:58:41.885Z</time></trkpt><trkpt lat="39.6445233" lon="16.22615"><ele>83.0</ele><time>2026-05-03T13:58:42.885Z</time></trkpt><trkpt lat="39.6443317" lon="16.2264783"><ele>83.0</ele><time>2026-05-03T13:58:43.885Z</time></trkpt><trkpt lat="39.6441333" lon="16.226795"><ele>83.0</ele><time>2026-05-03T13:58:44.885Z</time></trkpt><trkpt lat="39.643925" lon="16.2271033"><ele>83.0</ele><time>2026-05-03T13:58:45.885Z</time></trkpt><trkpt lat="39.6437" lon="16.2274"><ele>83.0</ele><time>2026-05-03T13:58:46.885Z</time></trkpt><trkpt lat="39.64348" lon="16.2276767"><ele>83.0</ele><time>2026-05-03T13:58:47.885Z</time></trkpt><trkpt lat="39.6432533" lon="16.22796"><ele>83.0</ele><time>2026-05-03T13:58:48.884Z</time></trkpt><trkpt lat="39.6430067" lon="16.2282383"><ele>83.0</ele><time>2026-05-03T13:58:49.885Z</time></trkpt><trkpt lat="39.642755" lon="16.2285017"><ele>82.5</ele><time>2026-05-03T13:58:50.884Z</time></trkpt><trkpt lat="39.6424817" lon="16.228745"><ele>82.0</ele><time>2026-05-03T13:58:51.885Z</time></trkpt><trkpt lat="39.6421967" lon="16.22898"><ele>81.5</ele><time>2026-05-03T13:58:52.885Z</time></trkpt><trkpt lat="39.6419183" lon="16.229185"><ele>81.0</ele><time>2026-05-03T13:58:53.885Z</time></trkpt><trkpt lat="39.6416383" lon="16.2293783"><ele>81.0</ele><time>2026-05-03T13:58:54.885Z</time></trkpt><trkpt lat="39.64135" lon="16.22956"><ele>81.0</ele><time>2026-05-03T13:58:55.885Z</time></trkpt><trkpt lat="39.641065" lon="16.2297183"><ele>81.0</ele><time>2026-05-03T13:58:56.885Z</time></trkpt><trkpt lat="39.64078" lon="16.22986"><ele>81.0</ele><time>2026-05-03T13:58:57.885Z</time></trkpt><trkpt lat="39.6404967" lon="16.2300017"><ele>82.5</ele><time>2026-05-03T13:58:58.885Z</time></trkpt><trkpt lat="39.6402183" lon="16.2301183"><ele>84.0</ele><time>2026-05-03T13:58:59.885Z</time></trkpt><trkpt lat="39.6399467" lon="16.2302183"><ele>84.0</ele><time>2026-05-03T13:59:00.885Z</time></trkpt><trkpt lat="39.6396633" lon="16.23033"><ele>84.0</ele><time>2026-05-03T13:59:01.885Z</time></trkpt><trkpt lat="39.6393817" lon="16.2304533"><ele>85.5</ele><time>2026-05-03T13:59:02.884Z</time></trkpt><trkpt lat="39.639115" lon="16.230565"><ele>87.0</ele><time>2026-05-03T13:59:03.884Z</time></trkpt><trkpt lat="39.6388417" lon="16.2306817"><ele>87.5</ele><time>2026-05-03T13:59:04.885Z</time></trkpt><trkpt lat="39.6385633" lon="16.230805"><ele>88.0</ele><time>2026-05-03T13:59:05.885Z</time></trkpt><trkpt lat="39.6382933" lon="16.2309183"><ele>88.0</ele><time>2026-05-03T13:59:06.885Z</time></trkpt><trkpt lat="39.6380217" lon="16.23103"><ele>88.0</ele><time>2026-05-03T13:59:07.885Z</time></trkpt><trkpt lat="39.6377483" lon="16.2311417"><ele>89.0</ele><time>2026-05-03T13:59:08.885Z</time></trkpt><trkpt lat="39.6374817" lon="16.2312467"><ele>90.0</ele><time>2026-05-03T13:59:09.885Z</time></trkpt><trkpt lat="39.6372167" lon="16.23135"><ele>91.0</ele><time>2026-05-03T13:59:10.885Z</time></trkpt><trkpt lat="39.63695" lon="16.2314367"><ele>92.0</ele><time>2026-05-03T13:59:11.885Z</time></trkpt><trkpt lat="39.6366817" lon="16.2315233"><ele>92.0</ele><time>2026-05-03T13:59:12.885Z</time></trkpt><trkpt lat="39.636405" lon="16.2316033"><ele>92.0</ele><time>2026-05-03T13:59:13.884Z</time></trkpt><trkpt lat="39.6361283" lon="16.231675"><ele>93.5</ele><time>2026-05-03T13:59:14.885Z</time></trkpt><trkpt lat="39.6358533" lon="16.2317367"><ele>95.0</ele><time>2026-05-03T13:59:15.885Z</time></trkpt><trkpt lat="39.6355783" lon="16.23178"><ele>97.5</ele><time>2026-05-03T13:59:16.885Z</time></trkpt><trkpt lat="39.635295" lon="16.2318067"><ele>100.0</ele><time>2026-05-03T13:59:17.884Z</time></trkpt><trkpt lat="39.6350083" lon="16.2318217"><ele>100.0</ele><time>2026-05-03T13:59:18.885Z</time></trkpt><trkpt lat="39.6347183" lon="16.23183"><ele>100.0</ele><time>2026-05-03T13:59:19.885Z</time></trkpt><trkpt lat="39.634435" lon="16.2318333"><ele>101.0</ele><time>2026-05-03T13:59:20.885Z</time></trkpt><trkpt lat="39.63415" lon="16.2318183"><ele>102.0</ele><time>2026-05-03T13:59:21.885Z</time></trkpt><trkpt lat="39.63386" lon="16.2317783"><ele>103.0</ele><time>2026-05-03T13:59:22.884Z</time></trkpt><trkpt lat="39.633575" lon="16.2317317"><ele>104.0</ele><time>2026-05-03T13:59:23.884Z</time></trkpt><trkpt lat="39.6332967" lon="16.2316667"><ele>104.0</ele><time>2026-05-03T13:59:24.884Z</time></trkpt><trkpt lat="39.6330217" lon="16.2315967"><ele>104.0</ele><time>2026-05-03T13:59:25.885Z</time></trkpt><trkpt lat="39.6327483" lon="16.23152"><ele>104.5</ele><time>2026-05-03T13:59:26.884Z</time></trkpt><trkpt lat="39.632475" lon="16.23143"><ele>105.0</ele><time>2026-05-03T13:59:27.885Z</time></trkpt><trkpt lat="39.63221" lon="16.2313233"><ele>107.5</ele><time>2026-05-03T13:59:28.885Z</time></trkpt><trkpt lat="39.6319467" lon="16.23121"><ele>110.0</ele><time>2026-05-03T13:59:29.884Z</time></trkpt><trkpt lat="39.631685" lon="16.2310817"><ele>110.0</ele><time>2026-05-03T13:59:30.885Z</time></trkpt><trkpt lat="39.6314317" lon="16.2309517"><ele>110.0</ele><time>2026-05-03T13:59:31.884Z</time></trkpt><trkpt lat="39.6311833" lon="16.230805"><ele>110.0</ele><time>2026-05-03T13:59:32.885Z</time></trkpt><trkpt lat="39.63093" lon="16.2306667"><ele>110.0</ele><time>2026-05-03T13:59:33.884Z</time></trkpt><trkpt lat="39.6306767" lon="16.2305317"><ele>110.0</ele><time>2026-05-03T13:59:34.885Z</time></trkpt><trkpt lat="39.6304217" lon="16.230395"><ele>110.0</ele><time>2026-05-03T13:59:35.885Z</time></trkpt><trkpt lat="39.6301617" lon="16.2302617"><ele>115.0</ele><time>2026-05-03T13:59:36.885Z</time></trkpt><trkpt lat="39.6298983" lon="16.2301283"><ele>120.0</ele><time>2026-05-03T13:59:37.885Z</time></trkpt><trkpt lat="39.62963" lon="16.2300017"><ele>122.0</ele><time>2026-05-03T13:59:38.885Z</time></trkpt><trkpt lat="39.6293567" lon="16.2298733"><ele>124.0</ele><time>2026-05-03T13:59:39.885Z</time></trkpt><trkpt lat="39.6290783" lon="16.22976"><ele>122.5</ele><time>2026-05-03T13:59:40.884Z</time></trkpt><trkpt lat="39.6288033" lon="16.2296567"><ele>121.0</ele><time>2026-05-03T13:59:41.884Z</time></trkpt><trkpt lat="39.6285183" lon="16.229565"><ele>121.0</ele><time>2026-05-03T13:59:42.884Z</time></trkpt><trkpt lat="39.6282367" lon="16.22947"><ele>121.0</ele><time>2026-05-03T13:59:43.885Z</time></trkpt><trkpt lat="39.62795" lon="16.2293833"><ele>122.0</ele><time>2026-05-03T13:59:44.885Z</time></trkpt><trkpt lat="39.6276667" lon="16.22931"><ele>123.0</ele><time>2026-05-03T13:59:45.885Z</time></trkpt><trkpt lat="39.627375" lon="16.2292233"><ele>123.0</ele><time>2026-05-03T13:59:46.885Z</time></trkpt><trkpt lat="39.6270917" lon="16.2291517"><ele>123.0</ele><time>2026-05-03T13:59:47.885Z</time></trkpt><trkpt lat="39.6268117" lon="16.22907"><ele>123.0</ele><time>2026-05-03T13:59:48.885Z</time></trkpt><trkpt lat="39.62653" lon="16.228995"><ele>123.0</ele><time>2026-05-03T13:59:49.885Z</time></trkpt><trkpt lat="39.6262467" lon="16.2289283"><ele>124.0</ele><time>2026-05-03T13:59:50.885Z</time></trkpt><trkpt lat="39.62596" lon="16.2288683"><ele>125.0</ele><time>2026-05-03T13:59:51.885Z</time></trkpt><trkpt lat="39.62567" lon="16.2288267"><ele>125.0</ele><time>2026-05-03T13:59:52.885Z</time></trkpt><trkpt lat="39.6253817" lon="16.2287967"><ele>125.0</ele><time>2026-05-03T13:59:53.884Z</time></trkpt><trkpt lat="39.6250967" lon="16.228785"><ele>126.5</ele><time>2026-05-03T13:59:54.885Z</time></trkpt><trkpt lat="39.6248067" lon="16.2287817"><ele>128.0</ele><time>2026-05-03T13:59:55.884Z</time></trkpt><trkpt lat="39.6245217" lon="16.2287917"><ele>128.5</ele><time>2026-05-03T13:59:56.885Z</time></trkpt><trkpt lat="39.62424" lon="16.2288"><ele>129.0</ele><time>2026-05-03T13:59:57.885Z</time></trkpt><trkpt lat="39.62396" lon="16.2288367"><ele>129.0</ele><time>2026-05-03T13:59:58.885Z</time></trkpt><trkpt lat="39.6236783" lon="16.2288917"><ele>129.0</ele><time>2026-05-03T13:59:59.885Z</time></trkpt><trkpt lat="39.6234" lon="16.228955"><ele>131.5</ele><time>2026-05-03T14:00:00.885Z</time></trkpt><trkpt lat="39.6231283" lon="16.2290167"><ele>134.0</ele><time>2026-05-03T14:00:01.885Z</time></trkpt><trkpt lat="39.6228583" lon="16.229085"><ele>136.5</ele><time>2026-05-03T14:00:02.885Z</time></trkpt><trkpt lat="39.6225917" lon="16.2291583"><ele>139.0</ele><time>2026-05-03T14:00:03.884Z</time></trkpt><trkpt lat="39.6223317" lon="16.22923"><ele>139.0</ele><time>2026-05-03T14:00:04.884Z</time></trkpt><trkpt lat="39.6220633" lon="16.2293017"><ele>139.0</ele><time>2026-05-03T14:00:05.884Z</time></trkpt><trkpt lat="39.6217933" lon="16.229375"><ele>142.0</ele><time>2026-05-03T14:00:06.885Z</time></trkpt><trkpt lat="39.6215183" lon="16.2294467"><ele>145.0</ele><time>2026-05-03T14:00:07.884Z</time></trkpt><trkpt lat="39.6212467" lon="16.22952"><ele>145.0</ele><time>2026-05-03T14:00:08.885Z</time></trkpt><trkpt lat="39.6209817" lon="16.2295867"><ele>145.0</ele><time>2026-05-03T14:00:09.884Z</time></trkpt><trkpt lat="39.6207117" lon="16.2296533"><ele>145.0</ele><time>2026-05-03T14:00:10.885Z</time></trkpt><trkpt lat="39.62045" lon="16.22973"><ele>145.0</ele><time>2026-05-03T14:00:11.885Z</time></trkpt><trkpt lat="39.62019" lon="16.2297967"><ele>148.0</ele><time>2026-05-03T14:00:12.885Z</time></trkpt><trkpt lat="39.6199283" lon="16.2298483"><ele>151.0</ele><time>2026-05-03T14:00:13.885Z</time></trkpt><trkpt lat="39.6196733" lon="16.2299033"><ele>150.0</ele><time>2026-05-03T14:00:14.885Z</time></trkpt><trkpt lat="39.619415" lon="16.229945"><ele>149.0</ele><time>2026-05-03T14:00:15.885Z</time></trkpt><trkpt lat="39.6191567" lon="16.2299833"><ele>149.0</ele><time>2026-05-03T14:00:16.885Z</time></trkpt><trkpt lat="39.6188867" lon="16.2300067"><ele>149.0</ele><time>2026-05-03T14:00:17.885Z</time></trkpt><trkpt lat="39.6186167" lon="16.2300217"><ele>150.5</ele><time>2026-05-03T14:00:18.884Z</time></trkpt><trkpt lat="39.6183517" lon="16.2300233"><ele>152.0</ele><time>2026-05-03T14:00:19.885Z</time></trkpt><trkpt lat="39.6180733" lon="16.230025"><ele>152.0</ele><time>2026-05-03T14:00:20.885Z</time></trkpt><trkpt lat="39.6178" lon="16.23001"><ele>152.0</ele><time>2026-05-03T14:00:21.885Z</time></trkpt><trkpt lat="39.61753" lon="16.2299783"><ele>152.0</ele><time>2026-05-03T14:00:22.885Z</time></trkpt><trkpt lat="39.61726" lon="16.22996"><ele>152.0</ele><time>2026-05-03T14:00:23.884Z</time></trkpt><trkpt lat="39.61699" lon="16.2299367"><ele>156.5</ele><time>2026-05-03T14:00:24.885Z</time></trkpt><trkpt lat="39.6167083" lon="16.2299217"><ele>161.0</ele><time>2026-05-03T14:00:25.885Z</time></trkpt><trkpt lat="39.6164417" lon="16.2299117"><ele>161.0</ele><time>2026-05-03T14:00:26.885Z</time></trkpt><trkpt lat="39.6161717" lon="16.229915"><ele>161.0</ele><time>2026-05-03T14:00:27.885Z</time></trkpt><trkpt lat="39.6158967" lon="16.22993"><ele>162.0</ele><time>2026-05-03T14:00:28.885Z</time></trkpt><trkpt lat="39.6156167" lon="16.2299533"><ele>163.0</ele><time>2026-05-03T14:00:29.885Z</time></trkpt><trkpt lat="39.615345" lon="16.2299933"><ele>161.5</ele><time>2026-05-03T14:00:30.884Z</time></trkpt><trkpt lat="39.6150667" lon="16.23004"><ele>160.0</ele><time>2026-05-03T14:00:31.885Z</time></trkpt><trkpt lat="39.6147917" lon="16.2300933"><ele>160.0</ele><time>2026-05-03T14:00:32.885Z</time></trkpt><trkpt lat="39.614515" lon="16.2301533"><ele>160.0</ele><time>2026-05-03T14:00:33.885Z</time></trkpt><trkpt lat="39.61424" lon="16.230225"><ele>161.0</ele><time>2026-05-03T14:00:34.885Z</time></trkpt><trkpt lat="39.6139583" lon="16.2303017"><ele>162.0</ele><time>2026-05-03T14:00:35.884Z</time></trkpt><trkpt lat="39.613675" lon="16.2303867"><ele>164.0</ele><time>2026-05-03T14:00:36.885Z</time></trkpt><trkpt lat="39.6133933" lon="16.230475"><ele>166.0</ele><time>2026-05-03T14:00:37.885Z</time></trkpt><trkpt lat="39.6131117" lon="16.23056"><ele>166.0</ele><time>2026-05-03T14:00:38.885Z</time></trkpt><trkpt lat="39.6128283" lon="16.2306383"><ele>166.0</ele><time>2026-05-03T14:00:39.884Z</time></trkpt><trkpt lat="39.6125517" lon="16.2307283"><ele>169.0</ele><time>2026-05-03T14:00:40.885Z</time></trkpt><trkpt lat="39.6122767" lon="16.2308117"><ele>172.0</ele><time>2026-05-03T14:00:41.885Z</time></trkpt><trkpt lat="39.6120033" lon="16.2309033"><ele>172.0</ele><time>2026-05-03T14:00:42.885Z</time></trkpt><trkpt lat="39.6117267" lon="16.230985"><ele>172.0</ele><time>2026-05-03T14:00:43.884Z</time></trkpt><trkpt lat="39.6114483" lon="16.2310717"><ele>172.0</ele><time>2026-05-03T14:00:44.885Z</time></trkpt><trkpt lat="39.6111683" lon="16.23116"><ele>172.0</ele><time>2026-05-03T14:00:45.884Z</time></trkpt><trkpt lat="39.6108867" lon="16.2312417"><ele>175.0</ele><time>2026-05-03T14:00:46.885Z</time></trkpt><trkpt lat="39.6106017" lon="16.231325"><ele>178.0</ele><time>2026-05-03T14:00:47.884Z</time></trkpt><trkpt lat="39.6103217" lon="16.2314117"><ele>185.5</ele><time>2026-05-03T14:00:48.885Z</time></trkpt><trkpt lat="39.61004" lon="16.2315"><ele>193.0</ele><time>2026-05-03T14:00:49.884Z</time></trkpt><trkpt lat="39.6097633" lon="16.231595"><ele>204.0</ele><time>2026-05-03T14:00:50.884Z</time></trkpt><trkpt lat="39.6094817" lon="16.2316833"><ele>215.0</ele><time>2026-05-03T14:00:51.885Z</time></trkpt><trkpt lat="39.6092033" lon="16.2317683"><ele>215.0</ele><time>2026-05-03T14:00:52.884Z</time></trkpt><trkpt lat="39.60893" lon="16.2318467"><ele>215.0</ele><time>2026-05-03T14:00:53.885Z</time></trkpt><trkpt lat="39.608655" lon="16.2319183"><ele>225.5</ele><time>2026-05-03T14:00:54.885Z</time></trkpt><trkpt lat="39.60838" lon="16.232"><ele>236.0</ele><time>2026-05-03T14:00:55.885Z</time></trkpt><trkpt lat="39.608105" lon="16.2320817"><ele>236.0</ele><time>2026-05-03T14:00:56.885Z</time></trkpt><trkpt lat="39.6078383" lon="16.2321483"><ele>236.0</ele><time>2026-05-03T14:00:57.885Z</time></trkpt><trkpt lat="39.6075717" lon="16.2322083"><ele>132.0</ele><time>2026-05-03T14:00:58.884Z</time></trkpt><trkpt lat="39.6011183" lon="16.2367667"><ele>132.0</ele><time>2026-05-03T14:01:22.883Z</time></trkpt><trkpt lat="39.6009133" lon="16.2370533"><ele>132.0</ele><time>2026-05-03T14:01:23.883Z</time></trkpt><trkpt lat="39.6007017" lon="16.2373583"><ele>135.5</ele><time>2026-05-03T14:01:24.882Z</time></trkpt><trkpt lat="39.6005083" lon="16.237655"><ele>139.0</ele><time>2026-05-03T14:01:25.883Z</time></trkpt><trkpt lat="39.6003217" lon="16.23796"><ele>133.5</ele><time>2026-05-03T14:01:26.883Z</time></trkpt><trkpt lat="39.600135" lon="16.23829"><ele>128.0</ele><time>2026-05-03T14:01:27.882Z</time></trkpt><trkpt lat="39.59995" lon="16.2386217"><ele>128.0</ele><time>2026-05-03T14:01:28.883Z</time></trkpt><trkpt lat="39.5997717" lon="16.2389633"><ele>128.0</ele><time>2026-05-03T14:01:29.883Z</time></trkpt><trkpt lat="39.59959" lon="16.2393"><ele>122.0</ele><time>2026-05-03T14:01:30.883Z</time></trkpt><trkpt lat="39.5994067" lon="16.2396567"><ele>116.0</ele><time>2026-05-03T14:01:31.883Z</time></trkpt><trkpt lat="39.5992133" lon="16.23999"><ele>116.0</ele><time>2026-05-03T14:01:32.882Z</time></trkpt><trkpt lat="39.5990217" lon="16.2403233"><ele>116.0</ele><time>2026-05-03T14:01:33.882Z</time></trkpt><trkpt lat="39.5988217" lon="16.2406617"><ele>112.0</ele><time>2026-05-03T14:01:34.882Z</time></trkpt><trkpt lat="39.5986233" lon="16.2409833"><ele>108.0</ele><time>2026-05-03T14:01:35.883Z</time></trkpt><trkpt lat="39.5984217" lon="16.2412917"><ele>108.5</ele><time>2026-05-03T14:01:36.883Z</time></trkpt><trkpt lat="39.59822" lon="16.2416017"><ele>109.0</ele><time>2026-05-03T14:01:37.883Z</time></trkpt><trkpt lat="39.5980133" lon="16.24189"><ele>109.0</ele><time>2026-05-03T14:01:38.883Z</time></trkpt><trkpt lat="39.5977983" lon="16.242175"><ele>109.0</ele><time>2026-05-03T14:01:39.883Z</time></trkpt><trkpt lat="39.5975817" lon="16.2424383"><ele>109.0</ele><time>2026-05-03T14:01:40.883Z</time></trkpt><trkpt lat="39.5973517" lon="16.2427"><ele>109.0</ele><time>2026-05-03T14:01:41.882Z</time></trkpt><trkpt lat="39.5971183" lon="16.2429567"><ele>108.5</ele><time>2026-05-03T14:01:42.883Z</time></trkpt><trkpt lat="39.5968867" lon="16.2431933"><ele>108.0</ele><time>2026-05-03T14:01:43.883Z</time></trkpt><trkpt lat="39.5966483" lon="16.24342"><ele>108.0</ele><time>2026-05-03T14:01:44.883Z</time></trkpt><trkpt lat="39.5964017" lon="16.2436417"><ele>108.0</ele><time>2026-05-03T14:01:45.883Z</time></trkpt><trkpt lat="39.59615" lon="16.243855"><ele>103.0</ele><time>2026-05-03T14:01:46.883Z</time></trkpt><trkpt lat="39.5958983" lon="16.244055"><ele>98.0</ele><time>2026-05-03T14:01:47.883Z</time></trkpt><trkpt lat="39.5956433" lon="16.244245"><ele>98.0</ele><time>2026-05-03T14:01:48.883Z</time></trkpt><trkpt lat="39.595385" lon="16.2444267"><ele>98.0</ele><time>2026-05-03T14:01:49.883Z</time></trkpt><trkpt lat="39.5951217" lon="16.2446033"><ele>98.0</ele><time>2026-05-03T14:01:50.882Z</time></trkpt><trkpt lat="39.5948517" lon="16.2447633"><ele>98.0</ele><time>2026-05-03T14:01:51.883Z</time></trkpt><trkpt lat="39.594575" lon="16.244915"><ele>92.0</ele><time>2026-05-03T14:01:52.882Z</time></trkpt><trkpt lat="39.594295" lon="16.2450617"><ele>86.0</ele><time>2026-05-03T14:01:53.883Z</time></trkpt><trkpt lat="39.5940067" lon="16.2451933"><ele>86.0</ele><time>2026-05-03T14:01:54.883Z</time></trkpt><trkpt lat="39.59371" lon="16.2453167"><ele>86.0</ele><time>2026-05-03T14:01:55.883Z</time></trkpt><trkpt lat="39.59342" lon="16.245435"><ele>81.0</ele><time>2026-05-03T14:01:56.883Z</time></trkpt><trkpt lat="39.59313" lon="16.2455217"><ele>76.0</ele><time>2026-05-03T14:01:57.883Z</time></trkpt><trkpt lat="39.5928367" lon="16.2456117"><ele>73.5</ele><time>2026-05-03T14:01:58.883Z</time></trkpt><trkpt lat="39.5925367" lon="16.2456717"><ele>71.0</ele><time>2026-05-03T14:01:59.883Z</time></trkpt><trkpt lat="39.5922383" lon="16.2457267"><ele>75.0</ele><time>2026-05-03T14:02:00.882Z</time></trkpt><trkpt lat="39.591945" lon="16.2457633"><ele>79.0</ele><time>2026-05-03T14:02:01.883Z</time></trkpt><trkpt lat="39.59164" lon="16.2457933"><ele>79.0</ele><time>2026-05-03T14:02:02.883Z</time></trkpt><trkpt lat="39.591325" lon="16.245815"><ele>79.0</ele><time>2026-05-03T14:02:03.882Z</time></trkpt><trkpt lat="39.591005" lon="16.245825"><ele>76.5</ele><time>2026-05-03T14:02:04.883Z</time></trkpt><trkpt lat="39.590675" lon="16.24584"><ele>74.0</ele><time>2026-05-03T14:02:05.882Z</time></trkpt><trkpt lat="39.5903467" lon="16.2458383"><ele>73.5</ele><time>2026-05-03T14:02:06.883Z</time></trkpt><trkpt lat="39.590025" lon="16.2458317"><ele>73.0</ele><time>2026-05-03T14:02:07.882Z</time></trkpt><trkpt lat="39.5897017" lon="16.2458167"><ele>71.0</ele><time>2026-05-03T14:02:08.883Z</time></trkpt><trkpt lat="39.5893867" lon="16.2457933"><ele>69.0</ele><time>2026-05-03T14:02:09.882Z</time></trkpt><trkpt lat="39.5890717" lon="16.2457767"><ele>69.0</ele><time>2026-05-03T14:02:10.883Z</time></trkpt><trkpt lat="39.5887567" lon="16.2457667"><ele>69.0</ele><time>2026-05-03T14:02:11.883Z</time></trkpt><trkpt lat="39.5884383" lon="16.2457533"><ele>66.5</ele><time>2026-05-03T14:02:12.882Z</time></trkpt><trkpt lat="39.58812" lon="16.245745"><ele>64.0</ele><time>2026-05-03T14:02:13.883Z</time></trkpt><trkpt lat="39.5878017" lon="16.2457483"><ele>62.5</ele><time>2026-05-03T14:02:14.883Z</time></trkpt><trkpt lat="39.5874967" lon="16.24574"><ele>61.0</ele><time>2026-05-03T14:02:15.883Z</time></trkpt><trkpt lat="39.5871833" lon="16.24573"><ele>60.5</ele><time>2026-05-03T14:02:16.882Z</time></trkpt><trkpt lat="39.5868767" lon="16.2457083"><ele>60.0</ele><time>2026-05-03T14:02:17.883Z</time></trkpt><trkpt lat="39.5865667" lon="16.2456967"><ele>60.0</ele><time>2026-05-03T14:02:18.883Z</time></trkpt><trkpt lat="39.58626" lon="16.24569"><ele>60.0</ele><time>2026-05-03T14:02:19.882Z</time></trkpt><trkpt lat="39.585955" lon="16.2456817"><ele>60.0</ele><time>2026-05-03T14:02:20.883Z</time></trkpt><trkpt lat="39.58565" lon="16.2456667"><ele>60.0</ele><time>2026-05-03T14:02:21.883Z</time></trkpt><trkpt lat="39.585355" lon="16.2456467"><ele>60.0</ele><time>2026-05-03T14:02:22.883Z</time></trkpt><trkpt lat="39.5850583" lon="16.2456267"><ele>60.0</ele><time>2026-05-03T14:02:23.883Z</time></trkpt><trkpt lat="39.5847667" lon="16.2455967"><ele>60.0</ele><time>2026-05-03T14:02:24.883Z</time></trkpt><trkpt lat="39.5844783" lon="16.24557"><ele>60.0</ele><time>2026-05-03T14:02:25.883Z</time></trkpt><trkpt lat="39.5841933" lon="16.2455417"><ele>60.0</ele><time>2026-05-03T14:02:26.883Z</time></trkpt><trkpt lat="39.5839083" lon="16.2455"><ele>60.0</ele><time>2026-05-03T14:02:27.883Z</time></trkpt><trkpt lat="39.58363" lon="16.24546"><ele>60.5</ele><time>2026-05-03T14:02:28.882Z</time></trkpt><trkpt lat="39.583345" lon="16.245415"><ele>61.0</ele><time>2026-05-03T14:02:29.883Z</time></trkpt><trkpt lat="39.5830567" lon="16.2453633"><ele>61.5</ele><time>2026-05-03T14:02:30.883Z</time></trkpt><trkpt lat="39.5827717" lon="16.2453"><ele>62.0</ele><time>2026-05-03T14:02:31.883Z</time></trkpt><trkpt lat="39.5824833" lon="16.24522"><ele>62.0</ele><time>2026-05-03T14:02:32.883Z</time></trkpt><trkpt lat="39.5821933" lon="16.2451283"><ele>62.0</ele><time>2026-05-03T14:02:33.883Z</time></trkpt><trkpt lat="39.5819083" lon="16.2450267"><ele>61.0</ele><time>2026-05-03T14:02:34.883Z</time></trkpt><trkpt lat="39.58162" lon="16.24492"><ele>60.0</ele><time>2026-05-03T14:02:35.882Z</time></trkpt><trkpt lat="39.5813283" lon="16.2448083"><ele>59.5</ele><time>2026-05-03T14:02:36.883Z</time></trkpt><trkpt lat="39.58104" lon="16.24469"><ele>59.0</ele><time>2026-05-03T14:02:37.883Z</time></trkpt><trkpt lat="39.58075" lon="16.2445583"><ele>59.0</ele><time>2026-05-03T14:02:38.883Z</time></trkpt><trkpt lat="39.5804583" lon="16.244415"><ele>59.0</ele><time>2026-05-03T14:02:39.882Z</time></trkpt><trkpt lat="39.5801717" lon="16.2442583"><ele>59.0</ele><time>2026-05-03T14:02:40.883Z</time></trkpt><trkpt lat="39.5798933" lon="16.2440933"><ele>59.0</ele><time>2026-05-03T14:02:41.883Z</time></trkpt><trkpt lat="39.579615" lon="16.243925"><ele>60.5</ele><time>2026-05-03T14:02:42.883Z</time></trkpt><trkpt lat="39.5793433" lon="16.24376"><ele>62.0</ele><time>2026-05-03T14:02:43.883Z</time></trkpt><trkpt lat="39.579075" lon="16.2435733"><ele>62.0</ele><time>2026-05-03T14:02:44.883Z</time></trkpt><trkpt lat="39.57882" lon="16.2434"><ele>62.0</ele><time>2026-05-03T14:02:45.882Z</time></trkpt><trkpt lat="39.5785633" lon="16.2432117"><ele>62.5</ele><time>2026-05-03T14:02:46.882Z</time></trkpt><trkpt lat="39.57831" lon="16.2430133"><ele>63.0</ele><time>2026-05-03T14:02:47.883Z</time></trkpt><trkpt lat="39.5780683" lon="16.24281"><ele>62.0</ele><time>2026-05-03T14:02:48.883Z</time></trkpt><trkpt lat="39.577825" lon="16.2425967"><ele>61.0</ele><time>2026-05-03T14:02:49.883Z</time></trkpt><trkpt lat="39.5775783" lon="16.24239"><ele>60.5</ele><time>2026-05-03T14:02:50.883Z</time></trkpt><trkpt lat="39.5773283" lon="16.242175"><ele>60.0</ele><time>2026-05-03T14:02:51.883Z</time></trkpt><trkpt lat="39.577085" lon="16.2419617"><ele>61.5</ele><time>2026-05-03T14:02:52.882Z</time></trkpt><trkpt lat="39.57684" lon="16.2417333"><ele>63.0</ele><time>2026-05-03T14:02:53.883Z</time></trkpt><trkpt lat="39.5765917" lon="16.241495"><ele>63.5</ele><time>2026-05-03T14:02:54.883Z</time></trkpt><trkpt lat="39.5763433" lon="16.2412567"><ele>64.0</ele><time>2026-05-03T14:02:55.883Z</time></trkpt><trkpt lat="39.5760967" lon="16.2410283"><ele>64.0</ele><time>2026-05-03T14:02:56.883Z</time></trkpt><trkpt lat="39.57586" lon="16.2408067"><ele>64.0</ele><time>2026-05-03T14:02:57.883Z</time></trkpt><trkpt lat="39.5756317" lon="16.2405917"><ele>63.5</ele><time>2026-05-03T14:02:58.883Z</time></trkpt><trkpt lat="39.575405" lon="16.24037"><ele>63.0</ele><time>2026-05-03T14:02:59.883Z</time></trkpt><trkpt lat="39.5751933" lon="16.2401667"><ele>63.0</ele><time>2026-05-03T14:03:00.883Z</time></trkpt><trkpt lat="39.574975" lon="16.2399767"><ele>63.0</ele><time>2026-05-03T14:03:01.882Z</time></trkpt><trkpt lat="39.5747583" lon="16.239785"><ele>63.0</ele><time>2026-05-03T14:03:02.882Z</time></trkpt><trkpt lat="39.5745317" lon="16.239615"><ele>63.0</ele><time>2026-05-03T14:03:03.882Z</time></trkpt><trkpt lat="39.57431" lon="16.2394383"><ele>63.0</ele><time>2026-05-03T14:03:04.883Z</time></trkpt><trkpt lat="39.5740933" lon="16.239265"><ele>63.0</ele><time>2026-05-03T14:03:05.882Z</time></trkpt><trkpt lat="39.573865" lon="16.239105"><ele>65.0</ele><time>2026-05-03T14:03:06.882Z</time></trkpt><trkpt lat="39.5736367" lon="16.23895"><ele>67.0</ele><time>2026-05-03T14:03:07.883Z</time></trkpt><trkpt lat="39.573405" lon="16.2388083"><ele>67.0</ele><time>2026-05-03T14:03:08.883Z</time></trkpt><trkpt lat="39.57318" lon="16.23868"><ele>67.0</ele><time>2026-05-03T14:03:09.883Z</time></trkpt><trkpt lat="39.5729533" lon="16.2385583"><ele>65.5</ele><time>2026-05-03T14:03:10.883Z</time></trkpt><trkpt lat="39.5727067" lon="16.23844"><ele>64.0</ele><time>2026-05-03T14:03:11.883Z</time></trkpt><trkpt lat="39.5724433" lon="16.2383183"><ele>64.0</ele><time>2026-05-03T14:03:12.882Z</time></trkpt><trkpt lat="39.5721617" lon="16.238195"><ele>64.0</ele><time>2026-05-03T14:03:13.883Z</time></trkpt><trkpt lat="39.5718633" lon="16.23808"><ele>65.0</ele><time>2026-05-03T14:03:14.883Z</time></trkpt><trkpt lat="39.57155" lon="16.2379717"><ele>66.0</ele><time>2026-05-03T14:03:15.882Z</time></trkpt><trkpt lat="39.57122" lon="16.2378667"><ele>65.5</ele><time>2026-05-03T14:03:16.883Z</time></trkpt><trkpt lat="39.5708783" lon="16.23776"><ele>65.0</ele><time>2026-05-03T14:03:17.883Z</time></trkpt><trkpt lat="39.5705167" lon="16.2376517"><ele>63.5</ele><time>2026-05-03T14:03:18.883Z</time></trkpt><trkpt lat="39.5701433" lon="16.2375383"><ele>62.0</ele><time>2026-05-03T14:03:19.883Z</time></trkpt><trkpt lat="39.5697667" lon="16.237425"><ele>62.5</ele><time>2026-05-03T14:03:20.883Z</time></trkpt><trkpt lat="39.569385" lon="16.2373167"><ele>63.0</ele><time>2026-05-03T14:03:21.883Z</time></trkpt><trkpt lat="39.5690033" lon="16.2372083"><ele>64.0</ele><time>2026-05-03T14:03:22.883Z</time></trkpt><trkpt lat="39.56863" lon="16.2371067"><ele>65.0</ele><time>2026-05-03T14:03:23.882Z</time></trkpt><trkpt lat="39.5682667" lon="16.237005"><ele>65.0</ele><time>2026-05-03T14:03:24.883Z</time></trkpt><trkpt lat="39.5679" lon="16.236905"><ele>65.0</ele><time>2026-05-03T14:03:25.883Z</time></trkpt><trkpt lat="39.567555" lon="16.2367983"><ele>64.0</ele><time>2026-05-03T14:03:26.883Z</time></trkpt><trkpt lat="39.5672283" lon="16.2367"><ele>63.0</ele><time>2026-05-03T14:03:27.883Z</time></trkpt><trkpt lat="39.5669133" lon="16.23661"><ele>63.0</ele><time>2026-05-03T14:03:28.883Z</time></trkpt><trkpt lat="39.56661" lon="16.23652"><ele>63.0</ele><time>2026-05-03T14:03:29.883Z</time></trkpt><trkpt lat="39.566315" lon="16.236435"><ele>64.0</ele><time>2026-05-03T14:03:30.882Z</time></trkpt><trkpt lat="39.56602" lon="16.2363417"><ele>65.0</ele><time>2026-05-03T14:03:31.882Z</time></trkpt><trkpt lat="39.565725" lon="16.2362617"><ele>65.0</ele><time>2026-05-03T14:03:32.883Z</time></trkpt><trkpt lat="39.5654317" lon="16.23618"><ele>65.0</ele><time>2026-05-03T14:03:33.883Z</time></trkpt><trkpt lat="39.5651467" lon="16.236095"><ele>65.0</ele><time>2026-05-03T14:03:34.882Z</time></trkpt><trkpt lat="39.5648633" lon="16.2360083"><ele>65.0</ele><time>2026-05-03T14:03:35.882Z</time></trkpt><trkpt lat="39.5645783" lon="16.2359233"><ele>64.5</ele><time>2026-05-03T14:03:36.882Z</time></trkpt><trkpt lat="39.5642883" lon="16.23584"><ele>64.0</ele><time>2026-05-03T14:03:37.882Z</time></trkpt><trkpt lat="39.5640033" lon="16.2357583"><ele>64.0</ele><time>2026-05-03T14:03:38.883Z</time></trkpt><trkpt lat="39.563715" lon="16.23568"><ele>64.0</ele><time>2026-05-03T14:03:39.883Z</time></trkpt><trkpt lat="39.5634283" lon="16.2355917"><ele>64.5</ele><time>2026-05-03T14:03:40.883Z</time></trkpt><trkpt lat="39.5631383" lon="16.23551"><ele>65.0</ele><time>2026-05-03T14:03:41.882Z</time></trkpt><trkpt lat="39.5628533" lon="16.2354183"><ele>65.0</ele><time>2026-05-03T14:03:42.882Z</time></trkpt><trkpt lat="39.5625633" lon="16.2353233"><ele>65.0</ele><time>2026-05-03T14:03:43.882Z</time></trkpt><trkpt lat="39.56228" lon="16.2352283"><ele>65.5</ele><time>2026-05-03T14:03:44.883Z</time></trkpt><trkpt lat="39.5619933" lon="16.2351317"><ele>66.0</ele><time>2026-05-03T14:03:45.883Z</time></trkpt><trkpt lat="39.5617133" lon="16.235025"><ele>66.0</ele><time>2026-05-03T14:03:46.883Z</time></trkpt><trkpt lat="39.5614333" lon="16.234915"><ele>66.0</ele><time>2026-05-03T14:03:47.883Z</time></trkpt><trkpt lat="39.5611467" lon="16.234795"><ele>67.0</ele><time>2026-05-03T14:03:48.883Z</time></trkpt><trkpt lat="39.5608567" lon="16.2346717"><ele>68.0</ele><time>2026-05-03T14:03:49.883Z</time></trkpt><trkpt lat="39.5605767" lon="16.234555"><ele>67.5</ele><time>2026-05-03T14:03:50.883Z</time></trkpt><trkpt lat="39.5602933" lon="16.2344333"><ele>67.0</ele><time>2026-05-03T14:03:51.882Z</time></trkpt><trkpt lat="39.560015" lon="16.2343067"><ele>67.0</ele><time>2026-05-03T14:03:52.883Z</time></trkpt><trkpt lat="39.559735" lon="16.2341833"><ele>67.0</ele><time>2026-05-03T14:03:53.882Z</time></trkpt><trkpt lat="39.5594483" lon="16.2340567"><ele>68.0</ele><time>2026-05-03T14:03:54.883Z</time></trkpt><trkpt lat="39.5591683" lon="16.2339283"><ele>69.0</ele><time>2026-05-03T14:03:55.883Z</time></trkpt><trkpt lat="39.558895" lon="16.2338017"><ele>69.5</ele><time>2026-05-03T14:03:56.883Z</time></trkpt><trkpt lat="39.5586133" lon="16.2336633"><ele>70.0</ele><time>2026-05-03T14:03:57.883Z</time></trkpt><trkpt lat="39.5583367" lon="16.23353"><ele>70.0</ele><time>2026-05-03T14:03:58.883Z</time></trkpt><trkpt lat="39.558065" lon="16.233395"><ele>70.0</ele><time>2026-05-03T14:03:59.882Z</time></trkpt><trkpt lat="39.55779" lon="16.2332683"><ele>69.5</ele><time>2026-05-03T14:04:00.882Z</time></trkpt><trkpt lat="39.5575133" lon="16.233135"><ele>69.0</ele><time>2026-05-03T14:04:01.883Z</time></trkpt><trkpt lat="39.55723" lon="16.233"><ele>69.0</ele><time>2026-05-03T14:04:02.883Z</time></trkpt><trkpt lat="39.5569433" lon="16.2328583"><ele>69.0</ele><time>2026-05-03T14:04:03.882Z</time></trkpt><trkpt lat="39.5566583" lon="16.2327183"><ele>69.0</ele><time>2026-05-03T14:04:04.882Z</time></trkpt><trkpt lat="39.5563783" lon="16.2325767"><ele>69.0</ele><time>2026-05-03T14:04:05.883Z</time></trkpt><trkpt lat="39.5560933" lon="16.2324417"><ele>70.5</ele><time>2026-05-03T14:04:06.883Z</time></trkpt><trkpt lat="39.5558133" lon="16.2322967"><ele>72.0</ele><time>2026-05-03T14:04:07.883Z</time></trkpt><trkpt lat="39.5555217" lon="16.23217"><ele>72.5</ele><time>2026-05-03T14:04:08.883Z</time></trkpt><trkpt lat="39.5552317" lon="16.2320367"><ele>73.0</ele><time>2026-05-03T14:04:09.883Z</time></trkpt><trkpt lat="39.5549517" lon="16.231905"><ele>73.0</ele><time>2026-05-03T14:04:10.883Z</time></trkpt><trkpt lat="39.554675" lon="16.23177"><ele>73.0</ele><time>2026-05-03T14:04:11.883Z</time></trkpt><trkpt lat="39.554395" lon="16.2316433"><ele>72.5</ele><time>2026-05-03T14:04:12.882Z</time></trkpt><trkpt lat="39.554115" lon="16.2315133"><ele>72.0</ele><time>2026-05-03T14:04:13.883Z</time></trkpt><trkpt lat="39.5538367" lon="16.2313817"><ele>72.0</ele><time>2026-05-03T14:04:14.883Z</time></trkpt><trkpt lat="39.5535567" lon="16.2312383"><ele>72.0</ele><time>2026-05-03T14:04:15.883Z</time></trkpt><trkpt lat="39.55327" lon="16.2311"><ele>72.0</ele><time>2026-05-03T14:04:16.883Z</time></trkpt><trkpt lat="39.5529917" lon="16.2309583"><ele>72.0</ele><time>2026-05-03T14:04:17.883Z</time></trkpt><trkpt lat="39.55271" lon="16.230825"><ele>72.0</ele><time>2026-05-03T14:04:18.883Z</time></trkpt><trkpt lat="39.55243" lon="16.2306883"><ele>72.0</ele><time>2026-05-03T14:04:19.883Z</time></trkpt><trkpt lat="39.552145" lon="16.2305517"><ele>72.5</ele><time>2026-05-03T14:04:20.883Z</time></trkpt><trkpt lat="39.5518583" lon="16.2304117"><ele>73.0</ele><time>2026-05-03T14:04:21.883Z</time></trkpt><trkpt lat="39.5515733" lon="16.2302783"><ele>73.0</ele><time>2026-05-03T14:04:22.882Z</time></trkpt><trkpt lat="39.5512833" lon="16.23014"><ele>73.0</ele><time>2026-05-03T14:04:23.883Z</time></trkpt><trkpt lat="39.5509967" lon="16.2299967"><ele>72.5</ele><time>2026-05-03T14:04:24.883Z</time></trkpt><trkpt lat="39.5507117" lon="16.2298483"><ele>72.0</ele><time>2026-05-03T14:04:25.883Z</time></trkpt><trkpt lat="39.550415" lon="16.2297117"><ele>72.0</ele><time>2026-05-03T14:04:26.883Z</time></trkpt><trkpt lat="39.550125" lon="16.229575"><ele>72.0</ele><time>2026-05-03T14:04:27.883Z</time></trkpt><trkpt lat="39.54984" lon="16.2294433"><ele>72.0</ele><time>2026-05-03T14:04:28.882Z</time></trkpt><trkpt lat="39.5495467" lon="16.22931"><ele>72.0</ele><time>2026-05-03T14:04:29.883Z</time></trkpt><trkpt lat="39.5492533" lon="16.22917"><ele>72.0</ele><time>2026-05-03T14:04:30.883Z</time></trkpt><trkpt lat="39.548965" lon="16.2290283"><ele>72.0</ele><time>2026-05-03T14:04:31.882Z</time></trkpt><trkpt lat="39.5486733" lon="16.2288867"><ele>71.5</ele><time>2026-05-03T14:04:32.883Z</time></trkpt><trkpt lat="39.548375" lon="16.2287433"><ele>71.0</ele><time>2026-05-03T14:04:33.882Z</time></trkpt><trkpt lat="39.548075" lon="16.2286033"><ele>71.0</ele><time>2026-05-03T14:04:34.883Z</time></trkpt><trkpt lat="39.54778" lon="16.22846"><ele>71.0</ele><time>2026-05-03T14:04:35.883Z</time></trkpt><trkpt lat="39.5474817" lon="16.2283133"><ele>71.0</ele><time>2026-05-03T14:04:36.883Z</time></trkpt><trkpt lat="39.5471833" lon="16.228175"><ele>71.0</ele><time>2026-05-03T14:04:37.882Z</time></trkpt><trkpt lat="39.5468917" lon="16.2280383"><ele>71.0</ele><time>2026-05-03T14:04:38.883Z</time></trkpt><trkpt lat="39.5465933" lon="16.227895"><ele>71.0</ele><time>2026-05-03T14:04:39.883Z</time></trkpt><trkpt lat="39.5463" lon="16.227755"><ele>70.5</ele><time>2026-05-03T14:04:40.883Z</time></trkpt><trkpt lat="39.5460067" lon="16.2276167"><ele>70.0</ele><time>2026-05-03T14:04:41.883Z</time></trkpt><trkpt lat="39.5457083" lon="16.22747"><ele>70.0</ele><time>2026-05-03T14:04:42.883Z</time></trkpt><trkpt lat="39.54542" lon="16.2273183"><ele>70.0</ele><time>2026-05-03T14:04:43.882Z</time></trkpt><trkpt lat="39.5451167" lon="16.22717"><ele>71.0</ele><time>2026-05-03T14:04:44.883Z</time></trkpt><trkpt lat="39.54481" lon="16.2270333"><ele>72.0</ele><time>2026-05-03T14:04:45.883Z</time></trkpt><trkpt lat="39.544495" lon="16.2268933"><ele>72.0</ele><time>2026-05-03T14:04:46.883Z</time></trkpt><trkpt lat="39.5441717" lon="16.2267467"><ele>72.0</ele><time>2026-05-03T14:04:47.883Z</time></trkpt><trkpt lat="39.543855" lon="16.2266"><ele>72.5</ele><time>2026-05-03T14:04:48.883Z</time></trkpt><trkpt lat="39.5435383" lon="16.226455"><ele>73.0</ele><time>2026-05-03T14:04:49.883Z</time></trkpt><trkpt lat="39.5432233" lon="16.22631"><ele>73.0</ele><time>2026-05-03T14:04:50.882Z</time></trkpt><trkpt lat="39.5429067" lon="16.22616"><ele>73.0</ele><time>2026-05-03T14:04:51.883Z</time></trkpt><trkpt lat="39.542595" lon="16.2260017"><ele>73.0</ele><time>2026-05-03T14:04:52.883Z</time></trkpt><trkpt lat="39.5422717" lon="16.2258583"><ele>73.0</ele><time>2026-05-03T14:04:53.883Z</time></trkpt><trkpt lat="39.5419567" lon="16.225715"><ele>73.5</ele><time>2026-05-03T14:04:54.883Z</time></trkpt><trkpt lat="39.5416517" lon="16.225565"><ele>74.0</ele><time>2026-05-03T14:04:55.883Z</time></trkpt><trkpt lat="39.5413467" lon="16.2254083"><ele>75.5</ele><time>2026-05-03T14:04:56.883Z</time></trkpt><trkpt lat="39.5410483" lon="16.2252533"><ele>77.0</ele><time>2026-05-03T14:04:57.882Z</time></trkpt><trkpt lat="39.5407517" lon="16.2251083"><ele>77.0</ele><time>2026-05-03T14:04:58.882Z</time></trkpt><trkpt lat="39.5404533" lon="16.224965"><ele>77.0</ele><time>2026-05-03T14:04:59.883Z</time></trkpt><trkpt lat="39.54016" lon="16.22482"><ele>77.5</ele><time>2026-05-03T14:05:00.883Z</time></trkpt><trkpt lat="39.5398617" lon="16.2246767"><ele>78.0</ele><time>2026-05-03T14:05:01.882Z</time></trkpt><trkpt lat="39.53957" lon="16.22454"><ele>76.5</ele><time>2026-05-03T14:05:02.882Z</time></trkpt><trkpt lat="39.53928" lon="16.2244033"><ele>75.0</ele><time>2026-05-03T14:05:03.882Z</time></trkpt><trkpt lat="39.539" lon="16.2242667"><ele>74.5</ele><time>2026-05-03T14:05:04.883Z</time></trkpt><trkpt lat="39.5387167" lon="16.22413"><ele>74.0</ele><time>2026-05-03T14:05:05.883Z</time></trkpt><trkpt lat="39.5384283" lon="16.2239983"><ele>74.0</ele><time>2026-05-03T14:05:06.882Z</time></trkpt><trkpt lat="39.5381483" lon="16.2238617"><ele>74.0</ele><time>2026-05-03T14:05:07.883Z</time></trkpt><trkpt lat="39.5378683" lon="16.223725"><ele>74.0</ele><time>2026-05-03T14:05:08.883Z</time></trkpt><trkpt lat="39.53759" lon="16.223595"><ele>74.0</ele><time>2026-05-03T14:05:09.883Z</time></trkpt><trkpt lat="39.5373133" lon="16.223465"><ele>75.0</ele><time>2026-05-03T14:05:10.882Z</time></trkpt><trkpt lat="39.5370383" lon="16.2233333"><ele>76.0</ele><time>2026-05-03T14:05:11.883Z</time></trkpt><trkpt lat="39.5367617" lon="16.2232033"><ele>76.5</ele><time>2026-05-03T14:05:12.882Z</time></trkpt><trkpt lat="39.5364833" lon="16.223065"><ele>77.0</ele><time>2026-05-03T14:05:13.883Z</time></trkpt><trkpt lat="39.5362083" lon="16.2229317"><ele>77.0</ele><time>2026-05-03T14:05:14.883Z</time></trkpt><trkpt lat="39.53593" lon="16.22279"><ele>77.0</ele><time>2026-05-03T14:05:15.883Z</time></trkpt><trkpt lat="39.5356567" lon="16.222645"><ele>77.0</ele><time>2026-05-03T14:05:16.883Z</time></trkpt><trkpt lat="39.5353917" lon="16.2224967"><ele>77.0</ele><time>2026-05-03T14:05:17.882Z</time></trkpt><trkpt lat="39.535125" lon="16.2223533"><ele>76.5</ele><time>2026-05-03T14:05:18.883Z</time></trkpt><trkpt lat="39.5348617" lon="16.222205"><ele>76.0</ele><time>2026-05-03T14:05:19.882Z</time></trkpt><trkpt lat="39.5346" lon="16.2220533"><ele>76.5</ele><time>2026-05-03T14:05:20.882Z</time></trkpt><trkpt lat="39.5343283" lon="16.2219"><ele>77.0</ele><time>2026-05-03T14:05:21.883Z</time></trkpt><trkpt lat="39.5340617" lon="16.2217483"><ele>77.0</ele><time>2026-05-03T14:05:22.882Z</time></trkpt><trkpt lat="39.533795" lon="16.221585"><ele>77.0</ele><time>2026-05-03T14:05:23.883Z</time></trkpt><trkpt lat="39.5335417" lon="16.2214367"><ele>77.5</ele><time>2026-05-03T14:05:24.883Z</time></trkpt><trkpt lat="39.5332783" lon="16.2212867"><ele>78.0</ele><time>2026-05-03T14:05:25.883Z</time></trkpt><trkpt lat="39.5330133" lon="16.2211367"><ele>79.5</ele><time>2026-05-03T14:05:26.882Z</time></trkpt><trkpt lat="39.53275" lon="16.220985"><ele>81.0</ele><time>2026-05-03T14:05:27.883Z</time></trkpt><trkpt lat="39.5324767" lon="16.2208267"><ele>81.0</ele><time>2026-05-03T14:05:28.883Z</time></trkpt><trkpt lat="39.532205" lon="16.2206667"><ele>81.0</ele><time>2026-05-03T14:05:29.882Z</time></trkpt><trkpt lat="39.5319317" lon="16.2205033"><ele>80.0</ele><time>2026-05-03T14:05:30.883Z</time></trkpt><trkpt lat="39.53166" lon="16.2203533"><ele>79.0</ele><time>2026-05-03T14:05:31.883Z</time></trkpt><trkpt lat="39.5313883" lon="16.220195"><ele>78.5</ele><time>2026-05-03T14:05:32.883Z</time></trkpt><trkpt lat="39.5311067" lon="16.2200383"><ele>78.0</ele><time>2026-05-03T14:05:33.882Z</time></trkpt><trkpt lat="39.5308333" lon="16.2198733"><ele>77.5</ele><time>2026-05-03T14:05:34.882Z</time></trkpt><trkpt lat="39.5305633" lon="16.219705"><ele>77.0</ele><time>2026-05-03T14:05:35.883Z</time></trkpt><trkpt lat="39.5302833" lon="16.2195383"><ele>77.0</ele><time>2026-05-03T14:05:36.882Z</time></trkpt><trkpt lat="39.5300117" lon="16.2193817"><ele>77.0</ele><time>2026-05-03T14:05:37.883Z</time></trkpt><trkpt lat="39.529735" lon="16.2192367"><ele>77.0</ele><time>2026-05-03T14:05:38.883Z</time></trkpt><trkpt lat="39.5294583" lon="16.21909"><ele>77.0</ele><time>2026-05-03T14:05:39.883Z</time></trkpt><trkpt lat="39.5291867" lon="16.2189367"><ele>77.5</ele><time>2026-05-03T14:05:40.882Z</time></trkpt><trkpt lat="39.5289083" lon="16.2187783"><ele>78.0</ele><time>2026-05-03T14:05:41.883Z</time></trkpt><trkpt lat="39.528625" lon="16.2186233"><ele>78.0</ele><time>2026-05-03T14:05:42.883Z</time></trkpt><trkpt lat="39.5283533" lon="16.21846"><ele>78.0</ele><time>2026-05-03T14:05:43.882Z</time></trkpt><trkpt lat="39.5280833" lon="16.2182917"><ele>77.5</ele><time>2026-05-03T14:05:44.882Z</time></trkpt><trkpt lat="39.5278183" lon="16.218125"><ele>77.0</ele><time>2026-05-03T14:05:45.883Z</time></trkpt><trkpt lat="39.5275533" lon="16.2179533"><ele>77.0</ele><time>2026-05-03T14:05:46.883Z</time></trkpt><trkpt lat="39.5272917" lon="16.2177683"><ele>77.0</ele><time>2026-05-03T14:05:47.882Z</time></trkpt><trkpt lat="39.5270383" lon="16.2175783"><ele>76.5</ele><time>2026-05-03T14:05:48.883Z</time></trkpt><trkpt lat="39.5267817" lon="16.2173783"><ele>76.0</ele><time>2026-05-03T14:05:49.883Z</time></trkpt><trkpt lat="39.526525" lon="16.2171667"><ele>76.0</ele><time>2026-05-03T14:05:50.883Z</time></trkpt><trkpt lat="39.526275" lon="16.2169533"><ele>76.0</ele><time>2026-05-03T14:05:51.883Z</time></trkpt><trkpt lat="39.5260267" lon="16.21674"><ele>76.5</ele><time>2026-05-03T14:05:52.883Z</time></trkpt><trkpt lat="39.5257767" lon="16.2165117"><ele>77.0</ele><time>2026-05-03T14:05:53.883Z</time></trkpt><trkpt lat="39.525525" lon="16.2162867"><ele>76.0</ele><time>2026-05-03T14:05:54.883Z</time></trkpt><trkpt lat="39.525275" lon="16.2160483"><ele>75.0</ele><time>2026-05-03T14:05:55.883Z</time></trkpt><trkpt lat="39.525025" lon="16.2158117"><ele>76.0</ele><time>2026-05-03T14:05:56.883Z</time></trkpt><trkpt lat="39.524775" lon="16.2155783"><ele>77.0</ele><time>2026-05-03T14:05:57.883Z</time></trkpt><trkpt lat="39.524525" lon="16.2153533"><ele>77.0</ele><time>2026-05-03T14:05:58.882Z</time></trkpt><trkpt lat="39.5242767" lon="16.21513"><ele>77.0</ele><time>2026-05-03T14:05:59.882Z</time></trkpt><trkpt lat="39.5240267" lon="16.21491"><ele>78.0</ele><time>2026-05-03T14:06:00.882Z</time></trkpt><trkpt lat="39.5237767" lon="16.21469"><ele>79.0</ele><time>2026-05-03T14:06:01.882Z</time></trkpt><trkpt lat="39.523525" lon="16.2144717"><ele>79.0</ele><time>2026-05-03T14:06:02.882Z</time></trkpt><trkpt lat="39.5232667" lon="16.214265"><ele>79.0</ele><time>2026-05-03T14:06:03.883Z</time></trkpt><trkpt lat="39.523005" lon="16.2140667"><ele>81.0</ele><time>2026-05-03T14:06:04.883Z</time></trkpt><trkpt lat="39.522745" lon="16.2138967"><ele>83.0</ele><time>2026-05-03T14:06:05.883Z</time></trkpt><trkpt lat="39.5224783" lon="16.2137333"><ele>83.0</ele><time>2026-05-03T14:06:06.883Z</time></trkpt><trkpt lat="39.5222133" lon="16.2135767"><ele>83.0</ele><time>2026-05-03T14:06:07.883Z</time></trkpt><trkpt lat="39.52195" lon="16.2134333"><ele>83.0</ele><time>2026-05-03T14:06:08.882Z</time></trkpt><trkpt lat="39.521675" lon="16.2132983"><ele>83.0</ele><time>2026-05-03T14:06:09.883Z</time></trkpt><trkpt lat="39.5214017" lon="16.2131783"><ele>83.5</ele><time>2026-05-03T14:06:10.883Z</time></trkpt><trkpt lat="39.521125" lon="16.213065"><ele>84.0</ele><time>2026-05-03T14:06:11.883Z</time></trkpt><trkpt lat="39.5208517" lon="16.212955"><ele>84.0</ele><time>2026-05-03T14:06:12.883Z</time></trkpt><trkpt lat="39.5205733" lon="16.2128517"><ele>84.0</ele><time>2026-05-03T14:06:13.883Z</time></trkpt><trkpt lat="39.5203033" lon="16.2127467"><ele>83.5</ele><time>2026-05-03T14:06:14.883Z</time></trkpt><trkpt lat="39.5200317" lon="16.21264"><ele>83.0</ele><time>2026-05-03T14:06:15.883Z</time></trkpt><trkpt lat="39.5197617" lon="16.2125283"><ele>83.5</ele><time>2026-05-03T14:06:16.883Z</time></trkpt><trkpt lat="39.51949" lon="16.2124167"><ele>84.0</ele><time>2026-05-03T14:06:17.883Z</time></trkpt><trkpt lat="39.5192167" lon="16.212315"><ele>84.0</ele><time>2026-05-03T14:06:18.882Z</time></trkpt><trkpt lat="39.5189417" lon="16.2122133"><ele>84.0</ele><time>2026-05-03T14:06:19.883Z</time></trkpt><trkpt lat="39.5186583" lon="16.2121117"><ele>85.0</ele><time>2026-05-03T14:06:20.883Z</time></trkpt><trkpt lat="39.5183667" lon="16.212"><ele>86.0</ele><time>2026-05-03T14:06:21.883Z</time></trkpt><trkpt lat="39.5180767" lon="16.211885"><ele>86.0</ele><time>2026-05-03T14:06:22.883Z</time></trkpt><trkpt lat="39.5177833" lon="16.2117683"><ele>86.0</ele><time>2026-05-03T14:06:23.883Z</time></trkpt><trkpt lat="39.517495" lon="16.211655"><ele>86.0</ele><time>2026-05-03T14:06:24.882Z</time></trkpt><trkpt lat="39.5172083" lon="16.2115367"><ele>86.0</ele><time>2026-05-03T14:06:25.883Z</time></trkpt><trkpt lat="39.5169167" lon="16.2114267"><ele>88.5</ele><time>2026-05-03T14:06:26.883Z</time></trkpt><trkpt lat="39.5166233" lon="16.2113283"><ele>91.0</ele><time>2026-05-03T14:06:27.882Z</time></trkpt><trkpt lat="39.516325" lon="16.21122"><ele>90.5</ele><time>2026-05-03T14:06:28.883Z</time></trkpt><trkpt lat="39.51603" lon="16.2110983"><ele>90.0</ele><time>2026-05-03T14:06:29.882Z</time></trkpt><trkpt lat="39.5157383" lon="16.2109783"><ele>90.0</ele><time>2026-05-03T14:06:30.883Z</time></trkpt><trkpt lat="39.5154383" lon="16.2108717"><ele>90.0</ele><time>2026-05-03T14:06:31.883Z</time></trkpt><trkpt lat="39.5151433" lon="16.2107633"><ele>90.0</ele><time>2026-05-03T14:06:32.883Z</time></trkpt><trkpt lat="39.5148533" lon="16.21065"><ele>90.0</ele><time>2026-05-03T14:06:33.883Z</time></trkpt><trkpt lat="39.5145683" lon="16.2105417"><ele>90.0</ele><time>2026-05-03T14:06:34.883Z</time></trkpt><trkpt lat="39.5142683" lon="16.2104283"><ele>90.0</ele><time>2026-05-03T14:06:35.882Z</time></trkpt><trkpt lat="39.5139667" lon="16.21033"><ele>90.0</ele><time>2026-05-03T14:06:36.882Z</time></trkpt><trkpt lat="39.51367" lon="16.2102333"><ele>90.0</ele><time>2026-05-03T14:06:37.883Z</time></trkpt><trkpt lat="39.5133717" lon="16.2101467"><ele>90.0</ele><time>2026-05-03T14:06:38.882Z</time></trkpt><trkpt lat="39.5130683" lon="16.2100717"><ele>90.0</ele><time>2026-05-03T14:06:39.882Z</time></trkpt><trkpt lat="39.5127683" lon="16.2100217"><ele>89.0</ele><time>2026-05-03T14:06:40.882Z</time></trkpt><trkpt lat="39.5124733" lon="16.2099817"><ele>88.0</ele><time>2026-05-03T14:06:41.883Z</time></trkpt><trkpt lat="39.5121733" lon="16.20996"><ele>89.5</ele><time>2026-05-03T14:06:42.883Z</time></trkpt><trkpt lat="39.51187" lon="16.2099333"><ele>91.0</ele><time>2026-05-03T14:06:43.882Z</time></trkpt><trkpt lat="39.51157" lon="16.20992"><ele>91.0</ele><time>2026-05-03T14:06:44.883Z</time></trkpt><trkpt lat="39.5112683" lon="16.20991"><ele>91.0</ele><time>2026-05-03T14:06:45.883Z</time></trkpt><trkpt lat="39.5109617" lon="16.2098967"><ele>91.0</ele><time>2026-05-03T14:06:46.883Z</time></trkpt><trkpt lat="39.5106567" lon="16.2098883"><ele>91.0</ele><time>2026-05-03T14:06:47.883Z</time></trkpt><trkpt lat="39.510355" lon="16.2098817"><ele>91.0</ele><time>2026-05-03T14:06:48.883Z</time></trkpt><trkpt lat="39.5100533" lon="16.2098667"><ele>91.0</ele><time>2026-05-03T14:06:49.883Z</time></trkpt><trkpt lat="39.5097467" lon="16.2098617"><ele>90.5</ele><time>2026-05-03T14:06:50.882Z</time></trkpt><trkpt lat="39.50945" lon="16.20986"><ele>90.0</ele><time>2026-05-03T14:06:51.883Z</time></trkpt><trkpt lat="39.5091517" lon="16.20986"><ele>90.0</ele><time>2026-05-03T14:06:52.882Z</time></trkpt><trkpt lat="39.50886" lon="16.2098517"><ele>90.0</ele><time>2026-05-03T14:06:53.883Z</time></trkpt><trkpt lat="39.508565" lon="16.2098367"><ele>89.5</ele><time>2026-05-03T14:06:54.883Z</time></trkpt><trkpt lat="39.508275" lon="16.2098283"><ele>89.0</ele><time>2026-05-03T14:06:55.883Z</time></trkpt><trkpt lat="39.5079833" lon="16.209825"><ele>87.0</ele><time>2026-05-03T14:06:56.883Z</time></trkpt><trkpt lat="39.507685" lon="16.20982"><ele>85.0</ele><time>2026-05-03T14:06:57.883Z</time></trkpt><trkpt lat="39.50738" lon="16.2098217"><ele>85.0</ele><time>2026-05-03T14:06:58.882Z</time></trkpt><trkpt lat="39.5070667" lon="16.2098233"><ele>85.0</ele><time>2026-05-03T14:06:59.882Z</time></trkpt><trkpt lat="39.506745" lon="16.2098217"><ele>85.0</ele><time>2026-05-03T14:07:00.882Z</time></trkpt><trkpt lat="39.50641" lon="16.2098167"><ele>85.0</ele><time>2026-05-03T14:07:01.883Z</time></trkpt><trkpt lat="39.506075" lon="16.2098067"><ele>84.0</ele><time>2026-05-03T14:07:02.882Z</time></trkpt><trkpt lat="39.50574" lon="16.209795"><ele>83.0</ele><time>2026-05-03T14:07:03.882Z</time></trkpt><trkpt lat="39.5054167" lon="16.2097883"><ele>83.0</ele><time>2026-05-03T14:07:04.883Z</time></trkpt><trkpt lat="39.505105" lon="16.209785"><ele>83.0</ele><time>2026-05-03T14:07:05.883Z</time></trkpt><trkpt lat="39.5047933" lon="16.2097733"><ele>82.0</ele><time>2026-05-03T14:07:06.883Z</time></trkpt><trkpt lat="39.5044817" lon="16.2097683"><ele>81.0</ele><time>2026-05-03T14:07:07.883Z</time></trkpt><trkpt lat="39.50417" lon="16.209765"><ele>81.0</ele><time>2026-05-03T14:07:08.883Z</time></trkpt><trkpt lat="39.5038633" lon="16.2097683"><ele>81.0</ele><time>2026-05-03T14:07:09.883Z</time></trkpt><trkpt lat="39.5035617" lon="16.2097783"><ele>81.5</ele><time>2026-05-03T14:07:10.883Z</time></trkpt><trkpt lat="39.5032583" lon="16.2097983"><ele>82.0</ele><time>2026-05-03T14:07:11.882Z</time></trkpt><trkpt lat="39.5029533" lon="16.209815"><ele>83.0</ele><time>2026-05-03T14:07:12.883Z</time></trkpt><trkpt lat="39.5026467" lon="16.209845"><ele>84.0</ele><time>2026-05-03T14:07:13.883Z</time></trkpt><trkpt lat="39.502345" lon="16.2098817"><ele>84.5</ele><time>2026-05-03T14:07:14.882Z</time></trkpt><trkpt lat="39.5020417" lon="16.2099283"><ele>85.0</ele><time>2026-05-03T14:07:15.883Z</time></trkpt><trkpt lat="39.5017417" lon="16.2099767"><ele>85.0</ele><time>2026-05-03T14:07:16.882Z</time></trkpt><trkpt lat="39.5014517" lon="16.21004"><ele>85.0</ele><time>2026-05-03T14:07:17.883Z</time></trkpt><trkpt lat="39.5011583" lon="16.2100983"><ele>85.0</ele><time>2026-05-03T14:07:18.883Z</time></trkpt><trkpt lat="39.5008667" lon="16.2101733"><ele>85.0</ele><time>2026-05-03T14:07:19.883Z</time></trkpt><trkpt lat="39.5005783" lon="16.210245"><ele>85.5</ele><time>2026-05-03T14:07:20.883Z</time></trkpt><trkpt lat="39.5002833" lon="16.2103167"><ele>86.0</ele><time>2026-05-03T14:07:21.882Z</time></trkpt><trkpt lat="39.4999933" lon="16.210395"><ele>86.0</ele><time>2026-05-03T14:07:22.883Z</time></trkpt><trkpt lat="39.499695" lon="16.2104683"><ele>86.0</ele><time>2026-05-03T14:07:23.883Z</time></trkpt><trkpt lat="39.4994017" lon="16.2105417"><ele>86.0</ele><time>2026-05-03T14:07:24.882Z</time></trkpt><trkpt lat="39.4991133" lon="16.21061"><ele>86.0</ele><time>2026-05-03T14:07:25.883Z</time></trkpt><trkpt lat="39.4988167" lon="16.2106883"><ele>87.5</ele><time>2026-05-03T14:07:26.883Z</time></trkpt><trkpt lat="39.4985283" lon="16.2107567"><ele>89.0</ele><time>2026-05-03T14:07:27.883Z</time></trkpt><trkpt lat="39.49823" lon="16.210835"><ele>89.0</ele><time>2026-05-03T14:07:28.882Z</time></trkpt><trkpt lat="39.49794" lon="16.2109183"><ele>89.0</ele><time>2026-05-03T14:07:29.882Z</time></trkpt><trkpt lat="39.4976533" lon="16.21099"><ele>89.0</ele><time>2026-05-03T14:07:30.882Z</time></trkpt><trkpt lat="39.497365" lon="16.21107"><ele>89.0</ele><time>2026-05-03T14:07:31.883Z</time></trkpt><trkpt lat="39.4970717" lon="16.2111333"><ele>89.0</ele><time>2026-05-03T14:07:32.882Z</time></trkpt><trkpt lat="39.4967767" lon="16.211205"><ele>89.0</ele><time>2026-05-03T14:07:33.883Z</time></trkpt><trkpt lat="39.4964817" lon="16.2112717"><ele>90.0</ele><time>2026-05-03T14:07:34.882Z</time></trkpt><trkpt lat="39.4961867" lon="16.2113367"><ele>91.0</ele><time>2026-05-03T14:07:35.883Z</time></trkpt><trkpt lat="39.49589" lon="16.211395"><ele>91.0</ele><time>2026-05-03T14:07:36.883Z</time></trkpt><trkpt lat="39.4955917" lon="16.2114583"><ele>91.0</ele><time>2026-05-03T14:07:37.883Z</time></trkpt><trkpt lat="39.4952917" lon="16.2115183"><ele>90.0</ele><time>2026-05-03T14:07:38.882Z</time></trkpt><trkpt lat="39.495" lon="16.2115767"><ele>89.0</ele><time>2026-05-03T14:07:39.883Z</time></trkpt><trkpt lat="39.4946983" lon="16.2116233"><ele>88.0</ele><time>2026-05-03T14:07:40.883Z</time></trkpt><trkpt lat="39.4943883" lon="16.2116667"><ele>87.0</ele><time>2026-05-03T14:07:41.883Z</time></trkpt><trkpt lat="39.4940717" lon="16.2117167"><ele>87.0</ele><time>2026-05-03T14:07:42.883Z</time></trkpt><trkpt lat="39.4937583" lon="16.2117683"><ele>87.0</ele><time>2026-05-03T14:07:43.883Z</time></trkpt><trkpt lat="39.4934467" lon="16.2118167"><ele>87.5</ele><time>2026-05-03T14:07:44.883Z</time></trkpt><trkpt lat="39.4931367" lon="16.2118733"><ele>88.0</ele><time>2026-05-03T14:07:45.883Z</time></trkpt><trkpt lat="39.4928333" lon="16.21194"><ele>88.5</ele><time>2026-05-03T14:07:46.882Z</time></trkpt><trkpt lat="39.4925267" lon="16.212"><ele>89.0</ele><time>2026-05-03T14:07:47.883Z</time></trkpt><trkpt lat="39.4922217" lon="16.2120783"><ele>89.0</ele><time>2026-05-03T14:07:48.883Z</time></trkpt><trkpt lat="39.4919183" lon="16.21215"><ele>89.0</ele><time>2026-05-03T14:07:49.883Z</time></trkpt><trkpt lat="39.4916167" lon="16.2122267"><ele>89.0</ele><time>2026-05-03T14:07:50.883Z</time></trkpt><trkpt lat="39.491315" lon="16.2123033"><ele>89.0</ele><time>2026-05-03T14:07:51.882Z</time></trkpt><trkpt lat="39.4910017" lon="16.2123833"><ele>89.0</ele><time>2026-05-03T14:07:52.883Z</time></trkpt><trkpt lat="39.4906717" lon="16.212465"><ele>89.0</ele><time>2026-05-03T14:07:53.883Z</time></trkpt><trkpt lat="39.4903283" lon="16.21256"><ele>89.5</ele><time>2026-05-03T14:07:54.883Z</time></trkpt><trkpt lat="39.4899817" lon="16.2126517"><ele>90.0</ele><time>2026-05-03T14:07:55.883Z</time></trkpt><trkpt lat="39.4896333" lon="16.2127483"><ele>89.5</ele><time>2026-05-03T14:07:56.883Z</time></trkpt><trkpt lat="39.4892983" lon="16.212835"><ele>89.0</ele><time>2026-05-03T14:07:57.883Z</time></trkpt><trkpt lat="39.4889683" lon="16.2129233"><ele>89.0</ele><time>2026-05-03T14:07:58.883Z</time></trkpt><trkpt lat="39.4886467" lon="16.213"><ele>89.0</ele><time>2026-05-03T14:07:59.882Z</time></trkpt><trkpt lat="39.4883183" lon="16.2130733"><ele>89.0</ele><time>2026-05-03T14:08:00.883Z</time></trkpt><trkpt lat="39.487995" lon="16.21315"><ele>89.0</ele><time>2026-05-03T14:08:01.883Z</time></trkpt><trkpt lat="39.4876783" lon="16.2132267"><ele>89.0</ele><time>2026-05-03T14:08:02.883Z</time></trkpt><trkpt lat="39.48736" lon="16.2133"><ele>89.0</ele><time>2026-05-03T14:08:03.883Z</time></trkpt><trkpt lat="39.4870467" lon="16.2133817"><ele>89.5</ele><time>2026-05-03T14:08:04.883Z</time></trkpt><trkpt lat="39.4867333" lon="16.213455"><ele>90.0</ele><time>2026-05-03T14:08:05.883Z</time></trkpt><trkpt lat="39.486425" lon="16.2135283"><ele>90.0</ele><time>2026-05-03T14:08:06.882Z</time></trkpt><trkpt lat="39.4861233" lon="16.213605"><ele>90.0</ele><time>2026-05-03T14:08:07.883Z</time></trkpt><trkpt lat="39.48582" lon="16.2136817"><ele>90.0</ele><time>2026-05-03T14:08:08.882Z</time></trkpt><trkpt lat="39.485515" lon="16.21376"><ele>90.0</ele><time>2026-05-03T14:08:09.883Z</time></trkpt><trkpt lat="39.485215" lon="16.2138267"><ele>90.5</ele><time>2026-05-03T14:08:10.883Z</time></trkpt><trkpt lat="39.48492" lon="16.2138967"><ele>91.0</ele><time>2026-05-03T14:08:11.883Z</time></trkpt><trkpt lat="39.4846217" lon="16.2139683"><ele>91.5</ele><time>2026-05-03T14:08:12.883Z</time></trkpt><trkpt lat="39.4843217" lon="16.2140433"><ele>92.0</ele><time>2026-05-03T14:08:13.883Z</time></trkpt><trkpt lat="39.4840167" lon="16.21412"><ele>92.5</ele><time>2026-05-03T14:08:14.883Z</time></trkpt><trkpt lat="39.4837167" lon="16.2141917"><ele>93.0</ele><time>2026-05-03T14:08:15.882Z</time></trkpt><trkpt lat="39.4834217" lon="16.2142633"><ele>93.0</ele><time>2026-05-03T14:08:16.882Z</time></trkpt><trkpt lat="39.4831283" lon="16.214335"><ele>93.0</ele><time>2026-05-03T14:08:17.882Z</time></trkpt><trkpt lat="39.4828367" lon="16.2144083"><ele>93.5</ele><time>2026-05-03T14:08:18.883Z</time></trkpt><trkpt lat="39.4825467" lon="16.2144817"><ele>94.0</ele><time>2026-05-03T14:08:19.883Z</time></trkpt><trkpt lat="39.4822517" lon="16.2145633"><ele>94.5</ele><time>2026-05-03T14:08:20.883Z</time></trkpt><trkpt lat="39.4819567" lon="16.21464"><ele>95.0</ele><time>2026-05-03T14:08:21.882Z</time></trkpt><trkpt lat="39.4816633" lon="16.2147167"><ele>95.0</ele><time>2026-05-03T14:08:22.882Z</time></trkpt><trkpt lat="39.4813767" lon="16.21479"><ele>95.0</ele><time>2026-05-03T14:08:23.883Z</time></trkpt><trkpt lat="39.4810867" lon="16.2148583"><ele>95.5</ele><time>2026-05-03T14:08:24.883Z</time></trkpt><trkpt lat="39.4807833" lon="16.21494"><ele>96.0</ele><time>2026-05-03T14:08:25.882Z</time></trkpt><trkpt lat="39.4804817" lon="16.215015"><ele>96.0</ele><time>2026-05-03T14:08:26.883Z</time></trkpt><trkpt lat="39.4801767" lon="16.21509"><ele>96.0</ele><time>2026-05-03T14:08:27.883Z</time></trkpt><trkpt lat="39.4798717" lon="16.21517"><ele>95.5</ele><time>2026-05-03T14:08:28.883Z</time></trkpt><trkpt lat="39.479565" lon="16.215245"><ele>95.0</ele><time>2026-05-03T14:08:29.882Z</time></trkpt><trkpt lat="39.479255" lon="16.21532"><ele>95.0</ele><time>2026-05-03T14:08:30.883Z</time></trkpt><trkpt lat="39.4789517" lon="16.2154"><ele>95.0</ele><time>2026-05-03T14:08:31.883Z</time></trkpt><trkpt lat="39.47864" lon="16.2154733"><ele>96.0</ele><time>2026-05-03T14:08:32.882Z</time></trkpt><trkpt lat="39.4783317" lon="16.2155533"><ele>97.0</ele><time>2026-05-03T14:08:33.883Z</time></trkpt><trkpt lat="39.4780267" lon="16.2156283"><ele>96.0</ele><time>2026-05-03T14:08:34.883Z</time></trkpt><trkpt lat="39.4777217" lon="16.2157117"><ele>95.0</ele><time>2026-05-03T14:08:35.883Z</time></trkpt><trkpt lat="39.47741" lon="16.2157883"><ele>94.0</ele><time>2026-05-03T14:08:36.882Z</time></trkpt><trkpt lat="39.4770967" lon="16.2158667"><ele>93.0</ele><time>2026-05-03T14:08:37.883Z</time></trkpt><trkpt lat="39.4767817" lon="16.2159483"><ele>93.0</ele><time>2026-05-03T14:08:38.883Z</time></trkpt><trkpt lat="39.476475" lon="16.216025"><ele>93.0</ele><time>2026-05-03T14:08:39.882Z</time></trkpt><trkpt lat="39.4761717" lon="16.2161117"><ele>93.0</ele><time>2026-05-03T14:08:40.883Z</time></trkpt><trkpt lat="39.4758717" lon="16.2162017"><ele>93.0</ele><time>2026-05-03T14:08:41.883Z</time></trkpt><trkpt lat="39.4755767" lon="16.2162967"><ele>92.5</ele><time>2026-05-03T14:08:42.883Z</time></trkpt><trkpt lat="39.4752817" lon="16.2164017"><ele>92.0</ele><time>2026-05-03T14:08:43.883Z</time></trkpt><trkpt lat="39.474985" lon="16.2165033"><ele>92.5</ele><time>2026-05-03T14:08:44.882Z</time></trkpt><trkpt lat="39.474695" lon="16.2166117"><ele>93.0</ele><time>2026-05-03T14:08:45.883Z</time></trkpt><trkpt lat="39.4744017" lon="16.216735"><ele>93.0</ele><time>2026-05-03T14:08:46.883Z</time></trkpt><trkpt lat="39.47411" lon="16.2168533"><ele>93.0</ele><time>2026-05-03T14:08:47.882Z</time></trkpt><trkpt lat="39.4738183" lon="16.2169767"><ele>93.0</ele><time>2026-05-03T14:08:48.883Z</time></trkpt><trkpt lat="39.47353" lon="16.2170867"><ele>93.0</ele><time>2026-05-03T14:08:49.883Z</time></trkpt><trkpt lat="39.47324" lon="16.21721"><ele>93.0</ele><time>2026-05-03T14:08:50.883Z</time></trkpt><trkpt lat="39.4729517" lon="16.2173283"><ele>93.0</ele><time>2026-05-03T14:08:51.883Z</time></trkpt><trkpt lat="39.4726633" lon="16.21745"><ele>93.0</ele><time>2026-05-03T14:08:52.883Z</time></trkpt><trkpt lat="39.4723783" lon="16.2175733"><ele>93.0</ele><time>2026-05-03T14:08:53.883Z</time></trkpt><trkpt lat="39.4720933" lon="16.2177033"><ele>93.0</ele><time>2026-05-03T14:08:54.883Z</time></trkpt><trkpt lat="39.4718083" lon="16.2178283"><ele>93.0</ele><time>2026-05-03T14:08:55.882Z</time></trkpt><trkpt lat="39.4715183" lon="16.2179533"><ele>94.0</ele><time>2026-05-03T14:08:56.883Z</time></trkpt><trkpt lat="39.4712317" lon="16.21808"><ele>95.0</ele><time>2026-05-03T14:08:57.883Z</time></trkpt><trkpt lat="39.4709433" lon="16.2182083"><ele>95.5</ele><time>2026-05-03T14:08:58.882Z</time></trkpt><trkpt lat="39.47066" lon="16.2183267"><ele>96.0</ele><time>2026-05-03T14:08:59.882Z</time></trkpt><trkpt lat="39.470375" lon="16.218445"><ele>96.0</ele><time>2026-05-03T14:09:00.883Z</time></trkpt><trkpt lat="39.47009" lon="16.21856"><ele>96.0</ele><time>2026-05-03T14:09:01.883Z</time></trkpt><trkpt lat="39.469805" lon="16.21868"><ele>96.0</ele><time>2026-05-03T14:09:02.883Z</time></trkpt><trkpt lat="39.469515" lon="16.21881"><ele>96.0</ele><time>2026-05-03T14:09:03.882Z</time></trkpt><trkpt lat="39.46922" lon="16.218935"><ele>96.5</ele><time>2026-05-03T14:09:04.883Z</time></trkpt><trkpt lat="39.4689167" lon="16.2190633"><ele>97.0</ele><time>2026-05-03T14:09:05.883Z</time></trkpt><trkpt lat="39.468605" lon="16.2191983"><ele>97.0</ele><time>2026-05-03T14:09:06.882Z</time></trkpt><trkpt lat="39.4682967" lon="16.2193433"><ele>97.0</ele><time>2026-05-03T14:09:07.882Z</time></trkpt><trkpt lat="39.4679883" lon="16.219485"><ele>96.5</ele><time>2026-05-03T14:09:08.883Z</time></trkpt><trkpt lat="39.4676817" lon="16.21962"><ele>96.0</ele><time>2026-05-03T14:09:09.883Z</time></trkpt><trkpt lat="39.4673767" lon="16.2197517"><ele>96.5</ele><time>2026-05-03T14:09:10.883Z</time></trkpt><trkpt lat="39.46707" lon="16.2198917"><ele>97.0</ele><time>2026-05-03T14:09:11.883Z</time></trkpt><trkpt lat="39.46677" lon="16.22003"><ele>97.0</ele><time>2026-05-03T14:09:12.883Z</time></trkpt><trkpt lat="39.466475" lon="16.220165"><ele>97.0</ele><time>2026-05-03T14:09:13.883Z</time></trkpt><trkpt lat="39.4661867" lon="16.2203067"><ele>97.5</ele><time>2026-05-03T14:09:14.883Z</time></trkpt><trkpt lat="39.4658983" lon="16.2204683"><ele>98.0</ele><time>2026-05-03T14:09:15.882Z</time></trkpt><trkpt lat="39.465615" lon="16.2206233"><ele>99.0</ele><time>2026-05-03T14:09:16.883Z</time></trkpt><trkpt lat="39.4653367" lon="16.2207867"><ele>100.0</ele><time>2026-05-03T14:09:17.883Z</time></trkpt><trkpt lat="39.4650667" lon="16.220955"><ele>100.0</ele><time>2026-05-03T14:09:18.883Z</time></trkpt><trkpt lat="39.4647933" lon="16.2211333"><ele>100.0</ele><time>2026-05-03T14:09:19.883Z</time></trkpt><trkpt lat="39.464525" lon="16.221315"><ele>98.5</ele><time>2026-05-03T14:09:20.883Z</time></trkpt><trkpt lat="39.464265" lon="16.2215017"><ele>97.0</ele><time>2026-05-03T14:09:21.883Z</time></trkpt><trkpt lat="39.4640033" lon="16.22169"><ele>97.5</ele><time>2026-05-03T14:09:22.882Z</time></trkpt><trkpt lat="39.4637467" lon="16.2218933"><ele>98.0</ele><time>2026-05-03T14:09:23.883Z</time></trkpt><trkpt lat="39.463485" lon="16.2221"><ele>98.0</ele><time>2026-05-03T14:09:24.883Z</time></trkpt><trkpt lat="39.4632183" lon="16.2223083"><ele>98.0</ele><time>2026-05-03T14:09:25.882Z</time></trkpt><trkpt lat="39.46296" lon="16.2225333"><ele>98.5</ele><time>2026-05-03T14:09:26.883Z</time></trkpt><trkpt lat="39.462705" lon="16.22277"><ele>99.0</ele><time>2026-05-03T14:09:27.883Z</time></trkpt><trkpt lat="39.4624567" lon="16.2230083"><ele>99.0</ele><time>2026-05-03T14:09:28.883Z</time></trkpt><trkpt lat="39.4622033" lon="16.2232583"><ele>99.0</ele><time>2026-05-03T14:09:29.883Z</time></trkpt><trkpt lat="39.4619583" lon="16.2235117"><ele>99.5</ele><time>2026-05-03T14:09:30.883Z</time></trkpt><trkpt lat="39.4617183" lon="16.223775"><ele>100.0</ele><time>2026-05-03T14:09:31.883Z</time></trkpt><trkpt lat="39.4614733" lon="16.22404"><ele>100.5</ele><time>2026-05-03T14:09:32.883Z</time></trkpt><trkpt lat="39.461245" lon="16.22431"><ele>101.0</ele><time>2026-05-03T14:09:33.883Z</time></trkpt><trkpt lat="39.4610067" lon="16.2245933"><ele>100.5</ele><time>2026-05-03T14:09:34.882Z</time></trkpt><trkpt lat="39.4607767" lon="16.224875"><ele>100.0</ele><time>2026-05-03T14:09:35.882Z</time></trkpt><trkpt lat="39.46056" lon="16.2251633"><ele>100.0</ele><time>2026-05-03T14:09:36.883Z</time></trkpt><trkpt lat="39.4603483" lon="16.225455"><ele>100.0</ele><time>2026-05-03T14:09:37.883Z</time></trkpt><trkpt lat="39.460145" lon="16.22574"><ele>100.0</ele><time>2026-05-03T14:09:38.883Z</time></trkpt><trkpt lat="39.4599417" lon="16.226035"><ele>100.0</ele><time>2026-05-03T14:09:39.883Z</time></trkpt><trkpt lat="39.4597317" lon="16.2263367"><ele>101.5</ele><time>2026-05-03T14:09:40.883Z</time></trkpt><trkpt lat="39.4595267" lon="16.22664"><ele>103.0</ele><time>2026-05-03T14:09:41.883Z</time></trkpt><trkpt lat="39.4593167" lon="16.2269467"><ele>103.0</ele><time>2026-05-03T14:09:42.883Z</time></trkpt><trkpt lat="39.4591067" lon="16.2272333"><ele>103.0</ele><time>2026-05-03T14:09:43.883Z</time></trkpt><trkpt lat="39.4588967" lon="16.2275367"><ele>103.5</ele><time>2026-05-03T14:09:44.883Z</time></trkpt><trkpt lat="39.4586867" lon="16.22783"><ele>104.0</ele><time>2026-05-03T14:09:45.882Z</time></trkpt><trkpt lat="39.4584733" lon="16.2281317"><ele>103.0</ele><time>2026-05-03T14:09:46.882Z</time></trkpt><trkpt lat="39.45826" lon="16.2284333"><ele>102.0</ele><time>2026-05-03T14:09:47.882Z</time></trkpt><trkpt lat="39.4580433" lon="16.2287383"><ele>102.5</ele><time>2026-05-03T14:09:48.882Z</time></trkpt><trkpt lat="39.4578283" lon="16.2290483"><ele>103.0</ele><time>2026-05-03T14:09:49.882Z</time></trkpt><trkpt lat="39.457615" lon="16.22935"><ele>103.0</ele><time>2026-05-03T14:09:50.882Z</time></trkpt><trkpt lat="39.4574" lon="16.2296617"><ele>103.0</ele><time>2026-05-03T14:09:51.882Z</time></trkpt><trkpt lat="39.45719" lon="16.2299683"><ele>102.5</ele><time>2026-05-03T14:09:52.883Z</time></trkpt><trkpt lat="39.45698" lon="16.2302667"><ele>102.0</ele><time>2026-05-03T14:09:53.883Z</time></trkpt><trkpt lat="39.4567717" lon="16.2305567"><ele>102.5</ele><time>2026-05-03T14:09:54.883Z</time></trkpt><trkpt lat="39.45657" lon="16.2308333"><ele>103.0</ele><time>2026-05-03T14:09:55.883Z</time></trkpt><trkpt lat="39.4563717" lon="16.2311217"><ele>102.5</ele><time>2026-05-03T14:09:56.882Z</time></trkpt><trkpt lat="39.4561733" lon="16.231395"><ele>102.0</ele><time>2026-05-03T14:09:57.882Z</time></trkpt><trkpt lat="39.4559783" lon="16.2316767"><ele>103.0</ele><time>2026-05-03T14:09:58.883Z</time></trkpt><trkpt lat="39.455785" lon="16.2319483"><ele>104.0</ele><time>2026-05-03T14:09:59.883Z</time></trkpt><trkpt lat="39.45559" lon="16.2322233"><ele>104.0</ele><time>2026-05-03T14:10:00.882Z</time></trkpt><trkpt lat="39.455395" lon="16.2324983"><ele>104.0</ele><time>2026-05-03T14:10:01.882Z</time></trkpt><trkpt lat="39.4552067" lon="16.23278"><ele>104.0</ele><time>2026-05-03T14:10:02.883Z</time></trkpt><trkpt lat="39.455015" lon="16.2330683"><ele>104.0</ele><time>2026-05-03T14:10:03.883Z</time></trkpt><trkpt lat="39.4548167" lon="16.233345"><ele>104.0</ele><time>2026-05-03T14:10:04.883Z</time></trkpt><trkpt lat="39.4546117" lon="16.2336367"><ele>104.0</ele><time>2026-05-03T14:10:05.883Z</time></trkpt><trkpt lat="39.4544017" lon="16.2339183"><ele>104.0</ele><time>2026-05-03T14:10:06.883Z</time></trkpt><trkpt lat="39.4541833" lon="16.2342017"><ele>104.0</ele><time>2026-05-03T14:10:07.883Z</time></trkpt><trkpt lat="39.45396" lon="16.2344633"><ele>104.0</ele><time>2026-05-03T14:10:08.883Z</time></trkpt><trkpt lat="39.4537333" lon="16.2347217"><ele>104.0</ele><time>2026-05-03T14:10:09.883Z</time></trkpt><trkpt lat="39.4534967" lon="16.234955"><ele>104.0</ele><time>2026-05-03T14:10:10.882Z</time></trkpt><trkpt lat="39.4532667" lon="16.2351833"><ele>104.0</ele><time>2026-05-03T14:10:11.883Z</time></trkpt><trkpt lat="39.4530333" lon="16.2353983"><ele>105.0</ele><time>2026-05-03T14:10:12.882Z</time></trkpt><trkpt lat="39.45279" lon="16.2356083"><ele>106.0</ele><time>2026-05-03T14:10:13.883Z</time></trkpt><trkpt lat="39.4525467" lon="16.2358167"><ele>106.0</ele><time>2026-05-03T14:10:14.883Z</time></trkpt><trkpt lat="39.4523" lon="16.236015"><ele>106.0</ele><time>2026-05-03T14:10:15.882Z</time></trkpt><trkpt lat="39.4520433" lon="16.2362"><ele>106.5</ele><time>2026-05-03T14:10:16.883Z</time></trkpt><trkpt lat="39.4517883" lon="16.2363817"><ele>107.0</ele><time>2026-05-03T14:10:17.883Z</time></trkpt><trkpt lat="39.4515233" lon="16.2365483"><ele>109.5</ele><time>2026-05-03T14:10:18.883Z</time></trkpt><trkpt lat="39.4512583" lon="16.2367017"><ele>112.0</ele><time>2026-05-03T14:10:19.883Z</time></trkpt><trkpt lat="39.4507217" lon="16.236975"><ele>111.5</ele><time>2026-05-03T14:10:21.883Z</time></trkpt><trkpt lat="39.4504567" lon="16.237095"><ele>111.0</ele><time>2026-05-03T14:10:22.883Z</time></trkpt><trkpt lat="39.4501867" lon="16.237215"><ele>111.5</ele><time>2026-05-03T14:10:23.883Z</time></trkpt><trkpt lat="39.449905" lon="16.2373217"><ele>112.0</ele><time>2026-05-03T14:10:24.883Z</time></trkpt><trkpt lat="39.4496133" lon="16.2374217"><ele>112.0</ele><time>2026-05-03T14:10:25.882Z</time></trkpt><trkpt lat="39.4493267" lon="16.2375183"><ele>112.0</ele><time>2026-05-03T14:10:26.883Z</time></trkpt><trkpt lat="39.4490333" lon="16.23761"><ele>113.0</ele><time>2026-05-03T14:10:27.883Z</time></trkpt><trkpt lat="39.4487383" lon="16.2376833"><ele>114.0</ele><time>2026-05-03T14:10:28.883Z</time></trkpt><trkpt lat="39.4484467" lon="16.2377367"><ele>114.0</ele><time>2026-05-03T14:10:29.883Z</time></trkpt><trkpt lat="39.4481517" lon="16.2377783"><ele>114.0</ele><time>2026-05-03T14:10:30.883Z</time></trkpt><trkpt lat="39.4478683" lon="16.2378117"><ele>116.5</ele><time>2026-05-03T14:10:31.883Z</time></trkpt><trkpt lat="39.44758" lon="16.23783"><ele>119.0</ele><time>2026-05-03T14:10:32.883Z</time></trkpt><trkpt lat="39.4472883" lon="16.2378433"><ele>120.5</ele><time>2026-05-03T14:10:33.883Z</time></trkpt><trkpt lat="39.447005" lon="16.23785"><ele>122.0</ele><time>2026-05-03T14:10:34.883Z</time></trkpt><trkpt lat="39.44672" lon="16.2378467"><ele>122.0</ele><time>2026-05-03T14:10:35.882Z</time></trkpt><trkpt lat="39.4464333" lon="16.23784"><ele>122.0</ele><time>2026-05-03T14:10:36.883Z</time></trkpt><trkpt lat="39.446155" lon="16.23784"><ele>122.5</ele><time>2026-05-03T14:10:37.883Z</time></trkpt><trkpt lat="39.4458717" lon="16.23782"><ele>123.0</ele><time>2026-05-03T14:10:38.883Z</time></trkpt><trkpt lat="39.44559" lon="16.2377983"><ele>123.5</ele><time>2026-05-03T14:10:39.883Z</time></trkpt><trkpt lat="39.4453083" lon="16.2377667"><ele>124.0</ele><time>2026-05-03T14:10:40.883Z</time></trkpt><trkpt lat="39.4450267" lon="16.2377367"><ele>124.0</ele><time>2026-05-03T14:10:41.882Z</time></trkpt><trkpt lat="39.4447433" lon="16.2377217"><ele>124.0</ele><time>2026-05-03T14:10:42.882Z</time></trkpt><trkpt lat="39.4444633" lon="16.2377183"><ele>123.5</ele><time>2026-05-03T14:10:43.882Z</time></trkpt><trkpt lat="39.4441783" lon="16.2377067"><ele>123.0</ele><time>2026-05-03T14:10:44.883Z</time></trkpt><trkpt lat="39.443895" lon="16.2377117"><ele>124.0</ele><time>2026-05-03T14:10:45.883Z</time></trkpt><trkpt lat="39.4436183" lon="16.2377233"><ele>125.0</ele><time>2026-05-03T14:10:46.883Z</time></trkpt><trkpt lat="39.4433333" lon="16.2377483"><ele>125.0</ele><time>2026-05-03T14:10:47.882Z</time></trkpt><trkpt lat="39.4430517" lon="16.2377733"><ele>125.0</ele><time>2026-05-03T14:10:48.883Z</time></trkpt><trkpt lat="39.4427617" lon="16.2378167"><ele>123.0</ele><time>2026-05-03T14:10:49.883Z</time></trkpt><trkpt lat="39.4424767" lon="16.2378783"><ele>121.0</ele><time>2026-05-03T14:10:50.883Z</time></trkpt><trkpt lat="39.4421917" lon="16.2379433"><ele>120.5</ele><time>2026-05-03T14:10:51.882Z</time></trkpt><trkpt lat="39.4419033" lon="16.2380283"><ele>120.0</ele><time>2026-05-03T14:10:52.883Z</time></trkpt><trkpt lat="39.4416167" lon="16.2381317"><ele>119.5</ele><time>2026-05-03T14:10:53.882Z</time></trkpt><trkpt lat="39.441335" lon="16.2382417"><ele>119.0</ele><time>2026-05-03T14:10:54.883Z</time></trkpt><trkpt lat="39.4410533" lon="16.23836"><ele>119.0</ele><time>2026-05-03T14:10:55.883Z</time></trkpt><trkpt lat="39.4407733" lon="16.2384867"><ele>119.0</ele><time>2026-05-03T14:10:56.883Z</time></trkpt><trkpt lat="39.4404983" lon="16.2386183"><ele>119.0</ele><time>2026-05-03T14:10:57.883Z</time></trkpt><trkpt lat="39.4402267" lon="16.2387567"><ele>119.0</ele><time>2026-05-03T14:10:58.882Z</time></trkpt><trkpt lat="39.43996" lon="16.2388967"><ele>118.5</ele><time>2026-05-03T14:10:59.883Z</time></trkpt><trkpt lat="39.4396933" lon="16.2390383"><ele>118.0</ele><time>2026-05-03T14:11:00.883Z</time></trkpt><trkpt lat="39.439425" lon="16.23917"><ele>120.5</ele><time>2026-05-03T14:11:01.883Z</time></trkpt><trkpt lat="39.4391617" lon="16.2392917"><ele>123.0</ele><time>2026-05-03T14:11:02.883Z</time></trkpt><trkpt lat="39.4388967" lon="16.23942"><ele>125.0</ele><time>2026-05-03T14:11:03.882Z</time></trkpt><trkpt lat="39.4386383" lon="16.2395417"><ele>127.0</ele><time>2026-05-03T14:11:04.882Z</time></trkpt><trkpt lat="39.4383733" lon="16.239675"><ele>127.0</ele><time>2026-05-03T14:11:05.882Z</time></trkpt><trkpt lat="39.4381217" lon="16.2397917"><ele>127.0</ele><time>2026-05-03T14:11:06.882Z</time></trkpt><trkpt lat="39.4378683" lon="16.2399167"><ele>126.5</ele><time>2026-05-03T14:11:07.883Z</time></trkpt><trkpt lat="39.43762" lon="16.240035"><ele>126.0</ele><time>2026-05-03T14:11:08.882Z</time></trkpt><trkpt lat="39.4373717" lon="16.2401483"><ele>126.5</ele><time>2026-05-03T14:11:09.882Z</time></trkpt><trkpt lat="39.4371283" lon="16.2402533"><ele>127.0</ele><time>2026-05-03T14:11:10.882Z</time></trkpt><trkpt lat="39.4368867" lon="16.2403567"><ele>127.0</ele><time>2026-05-03T14:11:11.883Z</time></trkpt><trkpt lat="39.4366383" lon="16.2404433"><ele>127.0</ele><time>2026-05-03T14:11:12.882Z</time></trkpt><trkpt lat="39.436385" lon="16.2405167"><ele>127.0</ele><time>2026-05-03T14:11:13.882Z</time></trkpt><trkpt lat="39.4361283" lon="16.2405967"><ele>127.0</ele><time>2026-05-03T14:11:14.883Z</time></trkpt><trkpt lat="39.4358717" lon="16.24067"><ele>127.0</ele><time>2026-05-03T14:11:15.883Z</time></trkpt><trkpt lat="39.4356167" lon="16.2407283"><ele>127.0</ele><time>2026-05-03T14:11:16.882Z</time></trkpt><trkpt lat="39.4353617" lon="16.2407683"><ele>127.0</ele><time>2026-05-03T14:11:17.883Z</time></trkpt><trkpt lat="39.4351033" lon="16.2408067"><ele>127.0</ele><time>2026-05-03T14:11:18.883Z</time></trkpt><trkpt lat="39.4348483" lon="16.2408283"><ele>128.0</ele><time>2026-05-03T14:11:19.883Z</time></trkpt><trkpt lat="39.4345917" lon="16.2408367"><ele>129.0</ele><time>2026-05-03T14:11:20.882Z</time></trkpt><trkpt lat="39.434335" lon="16.2408533"><ele>129.0</ele><time>2026-05-03T14:11:21.883Z</time></trkpt><trkpt lat="39.4340817" lon="16.2408667"><ele>129.0</ele><time>2026-05-03T14:11:22.882Z</time></trkpt><trkpt lat="39.43383" lon="16.2408717"><ele>129.5</ele><time>2026-05-03T14:11:23.883Z</time></trkpt><trkpt lat="39.4335683" lon="16.2408833"><ele>130.0</ele><time>2026-05-03T14:11:24.883Z</time></trkpt><trkpt lat="39.4333017" lon="16.2408917"><ele>130.0</ele><time>2026-05-03T14:11:25.883Z</time></trkpt><trkpt lat="39.4330317" lon="16.2409"><ele>130.0</ele><time>2026-05-03T14:11:26.883Z</time></trkpt><trkpt lat="39.4327667" lon="16.24091"><ele>131.0</ele><time>2026-05-03T14:11:27.883Z</time></trkpt><trkpt lat="39.4325" lon="16.240915"><ele>132.0</ele><time>2026-05-03T14:11:28.882Z</time></trkpt><trkpt lat="39.4322283" lon="16.2409117"><ele>132.0</ele><time>2026-05-03T14:11:29.883Z</time></trkpt><trkpt lat="39.43196" lon="16.2409133"><ele>132.0</ele><time>2026-05-03T14:11:30.883Z</time></trkpt><trkpt lat="39.4316867" lon="16.240915"><ele>132.0</ele><time>2026-05-03T14:11:31.883Z</time></trkpt><trkpt lat="39.431415" lon="16.2409217"><ele>132.0</ele><time>2026-05-03T14:11:32.882Z</time></trkpt><trkpt lat="39.4311467" lon="16.24093"><ele>132.5</ele><time>2026-05-03T14:11:33.883Z</time></trkpt><trkpt lat="39.4308783" lon="16.24094"><ele>133.0</ele><time>2026-05-03T14:11:34.883Z</time></trkpt><trkpt lat="39.4306167" lon="16.2409533"><ele>133.5</ele><time>2026-05-03T14:11:35.883Z</time></trkpt><trkpt lat="39.43035" lon="16.2409667"><ele>134.0</ele><time>2026-05-03T14:11:36.883Z</time></trkpt><trkpt lat="39.4300933" lon="16.2409767"><ele>134.0</ele><time>2026-05-03T14:11:37.883Z</time></trkpt><trkpt lat="39.4298267" lon="16.2410017"><ele>134.0</ele><time>2026-05-03T14:11:38.883Z</time></trkpt><trkpt lat="39.4295617" lon="16.2410267"><ele>134.5</ele><time>2026-05-03T14:11:39.883Z</time></trkpt><trkpt lat="39.4293017" lon="16.241055"><ele>135.0</ele><time>2026-05-03T14:11:40.882Z</time></trkpt><trkpt lat="39.4290433" lon="16.241095"><ele>138.0</ele><time>2026-05-03T14:11:41.883Z</time></trkpt><trkpt lat="39.4287883" lon="16.2411367"><ele>141.0</ele><time>2026-05-03T14:11:42.883Z</time></trkpt><trkpt lat="39.4285333" lon="16.2411867"><ele>141.0</ele><time>2026-05-03T14:11:43.882Z</time></trkpt><trkpt lat="39.42828" lon="16.2412283"><ele>141.0</ele><time>2026-05-03T14:11:44.882Z</time></trkpt><trkpt lat="39.4280267" lon="16.2412683"><ele>141.0</ele><time>2026-05-03T14:11:45.883Z</time></trkpt><trkpt lat="39.4277883" lon="16.2413033"><ele>141.0</ele><time>2026-05-03T14:11:46.883Z</time></trkpt><trkpt lat="39.4275533" lon="16.2413433"><ele>141.0</ele><time>2026-05-03T14:11:47.883Z</time></trkpt><trkpt lat="39.4273183" lon="16.2413767"><ele>141.0</ele><time>2026-05-03T14:11:48.883Z</time></trkpt><trkpt lat="39.4271" lon="16.2414067"><ele>140.66666666666666</ele><time>2026-05-03T14:11:49.883Z</time></trkpt><trkpt lat="39.4268883" lon="16.2414533"><ele>140.33333333333331</ele><time>2026-05-03T14:11:50.883Z</time></trkpt><trkpt lat="39.4266767" lon="16.241495"><ele>140.0</ele><time>2026-05-03T14:11:51.883Z</time></trkpt><trkpt lat="39.42647" lon="16.2415383"><ele>140.0</ele><time>2026-05-03T14:11:52.883Z</time></trkpt><trkpt lat="39.4262783" lon="16.241575"><ele>140.0</ele><time>2026-05-03T14:11:53.883Z</time></trkpt><trkpt lat="39.4260883" lon="16.2416133"><ele>140.0</ele><time>2026-05-03T14:11:54.883Z</time></trkpt><trkpt lat="39.4259033" lon="16.2416417"><ele>140.0</ele><time>2026-05-03T14:11:55.882Z</time></trkpt><trkpt lat="39.42572" lon="16.24167"><ele>140.0</ele><time>2026-05-03T14:11:56.883Z</time></trkpt><trkpt lat="39.425535" lon="16.2416867"><ele>140.0</ele><time>2026-05-03T14:11:57.882Z</time></trkpt><trkpt lat="39.4253483" lon="16.2416967"><ele>140.33333333333331</ele><time>2026-05-03T14:11:58.883Z</time></trkpt><trkpt lat="39.4251667" lon="16.241705"><ele>140.66666666666666</ele><time>2026-05-03T14:11:59.882Z</time></trkpt><trkpt lat="39.4249917" lon="16.24169"><ele>141.0</ele><time>2026-05-03T14:12:00.883Z</time></trkpt><trkpt lat="39.4248267" lon="16.2416567"><ele>141.0</ele><time>2026-05-03T14:12:01.883Z</time></trkpt><trkpt lat="39.42468" lon="16.241595"><ele>141.0</ele><time>2026-05-03T14:12:02.882Z</time></trkpt><trkpt lat="39.4245583" lon="16.2414983"><ele>141.0</ele><time>2026-05-03T14:12:03.883Z</time></trkpt><trkpt lat="39.4244483" lon="16.2413917"><ele>141.0</ele><time>2026-05-03T14:12:04.882Z</time></trkpt><trkpt lat="39.4243533" lon="16.24127"><ele>143.0</ele><time>2026-05-03T14:12:05.882Z</time></trkpt><trkpt lat="39.4242933" lon="16.24113"><ele>145.0</ele><time>2026-05-03T14:12:06.883Z</time></trkpt><trkpt lat="39.4242417" lon="16.2409817"><ele>147.0</ele><time>2026-05-03T14:12:07.883Z</time></trkpt><trkpt lat="39.42421" lon="16.2408367"><ele>149.0</ele><time>2026-05-03T14:12:08.883Z</time></trkpt><trkpt lat="39.4241833" lon="16.2406967"><ele>150.0</ele><time>2026-05-03T14:12:09.883Z</time></trkpt><trkpt lat="39.424165" lon="16.2405633"><ele>151.0</ele><time>2026-05-03T14:12:10.883Z</time></trkpt><trkpt lat="39.424155" lon="16.2404417"><ele>152.0</ele><time>2026-05-03T14:12:11.883Z</time></trkpt><trkpt lat="39.4241433" lon="16.2403267"><ele>153.0</ele><time>2026-05-03T14:12:12.883Z</time></trkpt><trkpt lat="39.4241367" lon="16.240215"><ele>154.0</ele><time>2026-05-03T14:12:13.883Z</time></trkpt><trkpt lat="39.4241333" lon="16.24012"><ele>155.0</ele><time>2026-05-03T14:12:14.883Z</time></trkpt><trkpt lat="39.4241333" lon="16.2399833"><ele>155.0</ele><time>2026-05-03T14:12:16.883Z</time></trkpt><trkpt lat="39.42413" lon="16.2399"><ele>155.0</ele><time>2026-05-03T14:12:18.883Z</time></trkpt><trkpt lat="39.42408" lon="16.2397933"><ele>155.0</ele><time>2026-05-03T14:12:47.883Z</time></trkpt><trkpt lat="39.4240117" lon="16.2397717"><ele>155.0</ele><time>2026-05-03T14:12:48.883Z</time></trkpt><trkpt lat="39.4238967" lon="16.2397617"><ele>155.0</ele><time>2026-05-03T14:12:49.882Z</time></trkpt><trkpt lat="39.4237383" lon="16.2397683"><ele>154.66666666666666</ele><time>2026-05-03T14:12:50.883Z</time></trkpt><trkpt lat="39.4235217" lon="16.23979"><ele>154.33333333333334</ele><time>2026-05-03T14:12:51.882Z</time></trkpt><trkpt lat="39.4233217" lon="16.2398083"><ele>154.0</ele><time>2026-05-03T14:12:52.882Z</time></trkpt><trkpt lat="39.4231533" lon="16.239825"><ele>154.0</ele><time>2026-05-03T14:12:53.882Z</time></trkpt><trkpt lat="39.4229917" lon="16.2398467"><ele>154.0</ele><time>2026-05-03T14:12:54.883Z</time></trkpt><trkpt lat="39.422835" lon="16.2398633"><ele>154.0</ele><time>2026-05-03T14:12:55.883Z</time></trkpt><trkpt lat="39.4226767" lon="16.2398683"><ele>154.33333333333334</ele><time>2026-05-03T14:12:56.883Z</time></trkpt><trkpt lat="39.4225217" lon="16.2398667"><ele>154.66666666666666</ele><time>2026-05-03T14:12:57.883Z</time></trkpt><trkpt lat="39.422375" lon="16.23986"><ele>155.0</ele><time>2026-05-03T14:12:58.883Z</time></trkpt><trkpt lat="39.422225" lon="16.239855"><ele>154.33333333333331</ele><time>2026-05-03T14:12:59.883Z</time></trkpt><trkpt lat="39.4220733" lon="16.2398383"><ele>153.66666666666666</ele><time>2026-05-03T14:13:00.883Z</time></trkpt><trkpt lat="39.421915" lon="16.2398167"><ele>153.0</ele><time>2026-05-03T14:13:01.882Z</time></trkpt><trkpt lat="39.4217617" lon="16.2397983"><ele>155.25</ele><time>2026-05-03T14:13:02.883Z</time></trkpt><trkpt lat="39.4216217" lon="16.2397717"><ele>157.5</ele><time>2026-05-03T14:13:03.882Z</time></trkpt><trkpt lat="39.4214883" lon="16.239745"><ele>159.75</ele><time>2026-05-03T14:13:04.882Z</time></trkpt><trkpt lat="39.4213583" lon="16.2397083"><ele>162.0</ele><time>2026-05-03T14:13:05.882Z</time></trkpt><trkpt lat="39.4212433" lon="16.23968"><ele>162.0</ele><time>2026-05-03T14:13:06.883Z</time></trkpt><trkpt lat="39.42113" lon="16.2396583"><ele>162.0</ele><time>2026-05-03T14:13:07.883Z</time></trkpt><trkpt lat="39.4210183" lon="16.2396483"><ele>162.0</ele><time>2026-05-03T14:13:08.883Z</time></trkpt><trkpt lat="39.42091" lon="16.2396333"><ele>162.0</ele><time>2026-05-03T14:13:09.883Z</time></trkpt><trkpt lat="39.4207933" lon="16.2396067"><ele>162.0</ele><time>2026-05-03T14:13:10.883Z</time></trkpt><trkpt lat="39.42068" lon="16.2395783"><ele>162.0</ele><time>2026-05-03T14:13:11.883Z</time></trkpt><trkpt lat="39.4205617" lon="16.23955"><ele>162.0</ele><time>2026-05-03T14:13:12.883Z</time></trkpt><trkpt lat="39.42044" lon="16.2395183"><ele>162.0</ele><time>2026-05-03T14:13:13.883Z</time></trkpt><trkpt lat="39.4203183" lon="16.23949"><ele>162.25</ele><time>2026-05-03T14:13:14.883Z</time></trkpt><trkpt lat="39.420195" lon="16.2394583"><ele>162.5</ele><time>2026-05-03T14:13:15.883Z</time></trkpt><trkpt lat="39.42007" lon="16.2394283"><ele>162.75</ele><time>2026-05-03T14:13:16.883Z</time></trkpt><trkpt lat="39.4199383" lon="16.239405"><ele>163.0</ele><time>2026-05-03T14:13:17.883Z</time></trkpt><trkpt lat="39.419805" lon="16.2393717"><ele>163.0</ele><time>2026-05-03T14:13:18.882Z</time></trkpt><trkpt lat="39.4196567" lon="16.23934"><ele>163.0</ele><time>2026-05-03T14:13:19.883Z</time></trkpt><trkpt lat="39.4195183" lon="16.239305"><ele>163.0</ele><time>2026-05-03T14:13:20.883Z</time></trkpt><trkpt lat="39.4193783" lon="16.2392683"><ele>163.0</ele><time>2026-05-03T14:13:21.883Z</time></trkpt><trkpt lat="39.41923" lon="16.2392417"><ele>161.5</ele><time>2026-05-03T14:13:22.883Z</time></trkpt><trkpt lat="39.41909" lon="16.2392117"><ele>160.0</ele><time>2026-05-03T14:13:23.883Z</time></trkpt><trkpt lat="39.4189517" lon="16.239185"><ele>158.5</ele><time>2026-05-03T14:13:24.883Z</time></trkpt><trkpt lat="39.4188167" lon="16.239155"><ele>157.0</ele><time>2026-05-03T14:13:25.882Z</time></trkpt><trkpt lat="39.4186883" lon="16.23914"><ele>156.0</ele><time>2026-05-03T14:13:26.883Z</time></trkpt><trkpt lat="39.4185667" lon="16.2391233"><ele>155.0</ele><time>2026-05-03T14:13:27.883Z</time></trkpt><trkpt lat="39.4184517" lon="16.239095"><ele>154.0</ele><time>2026-05-03T14:13:28.883Z</time></trkpt><trkpt lat="39.4183367" lon="16.2390617"><ele>153.0</ele><time>2026-05-03T14:13:29.883Z</time></trkpt><trkpt lat="39.418235" lon="16.2390433"><ele>153.0</ele><time>2026-05-03T14:13:30.883Z</time></trkpt><trkpt lat="39.418145" lon="16.2390283"><ele>153.0</ele><time>2026-05-03T14:13:31.882Z</time></trkpt><trkpt lat="39.4180683" lon="16.2390267"><ele>153.0</ele><time>2026-05-03T14:13:32.883Z</time></trkpt><trkpt lat="39.4180017" lon="16.239045"><ele>153.0</ele><time>2026-05-03T14:13:33.883Z</time></trkpt><trkpt lat="39.417945" lon="16.2390833"><ele>153.0</ele><time>2026-05-03T14:13:34.883Z</time></trkpt><trkpt lat="39.41786" lon="16.2391567"><ele>153.0</ele><time>2026-05-03T14:13:36.882Z</time></trkpt><trkpt lat="39.41779" lon="16.2392367"><ele>152.85714285714286</ele><time>2026-05-03T14:13:38.882Z</time></trkpt><trkpt lat="39.41772" lon="16.23927"><ele>152.71428571428572</ele><time>2026-05-03T14:13:40.882Z</time></trkpt><trkpt lat="39.41765" lon="16.2392383"><ele>152.57142857142856</ele><time>2026-05-03T14:13:42.883Z</time></trkpt><trkpt lat="39.417635" lon="16.2391567"><ele>152.42857142857144</ele><time>2026-05-03T14:13:44.883Z</time></trkpt><trkpt lat="39.4177017" lon="16.2391467"><ele>152.2857142857143</ele><time>2026-05-03T14:13:47.883Z</time></trkpt><trkpt lat="39.4177533" lon="16.2391"><ele>152.14285714285714</ele><time>2026-05-03T14:31:29.882Z</time></trkpt><trkpt lat="39.417815" lon="16.2391517"><ele>152.0</ele><time>2026-05-03T14:31:31.882Z</time></trkpt><trkpt lat="39.4178967" lon="16.2391433"><ele>152.2</ele><time>2026-05-03T14:31:33.882Z</time></trkpt><trkpt lat="39.4180083" lon="16.2390717"><ele>152.39999999999998</ele><time>2026-05-03T14:31:36.882Z</time></trkpt><trkpt lat="39.4180967" lon="16.239055"><ele>152.60000000000002</ele><time>2026-05-03T14:31:38.882Z</time></trkpt><trkpt lat="39.4182267" lon="16.2390567"><ele>152.8</ele><time>2026-05-03T14:31:40.882Z</time></trkpt><trkpt lat="39.4183083" lon="16.2390683"><ele>153.0</ele><time>2026-05-03T14:31:41.882Z</time></trkpt><trkpt lat="39.4183967" lon="16.2390833"><ele>153.0</ele><time>2026-05-03T14:31:42.881Z</time></trkpt><trkpt lat="39.41849" lon="16.2391033"><ele>153.0</ele><time>2026-05-03T14:31:43.882Z</time></trkpt><trkpt lat="39.4185833" lon="16.2391283"><ele>153.0</ele><time>2026-05-03T14:31:44.881Z</time></trkpt><trkpt lat="39.418685" lon="16.2391567"><ele>153.0</ele><time>2026-05-03T14:31:45.882Z</time></trkpt><trkpt lat="39.41879" lon="16.2391883"><ele>153.0</ele><time>2026-05-03T14:31:46.882Z</time></trkpt><trkpt lat="39.4188967" lon="16.2392167"><ele>153.8</ele><time>2026-05-03T14:31:47.882Z</time></trkpt><trkpt lat="39.4190083" lon="16.23924"><ele>154.60000000000002</ele><time>2026-05-03T14:31:48.881Z</time></trkpt><trkpt lat="39.419115" lon="16.23926"><ele>155.39999999999998</ele><time>2026-05-03T14:31:49.882Z</time></trkpt><trkpt lat="39.4192233" lon="16.239275"><ele>156.2</ele><time>2026-05-03T14:31:50.882Z</time></trkpt><trkpt lat="39.4193367" lon="16.2393017"><ele>157.0</ele><time>2026-05-03T14:31:51.882Z</time></trkpt><trkpt lat="39.4194567" lon="16.2393233"><ele>157.0</ele><time>2026-05-03T14:31:52.882Z</time></trkpt><trkpt lat="39.4195817" lon="16.2393433"><ele>157.0</ele><time>2026-05-03T14:31:53.881Z</time></trkpt><trkpt lat="39.4197033" lon="16.2393667"><ele>157.0</ele><time>2026-05-03T14:31:54.882Z</time></trkpt><trkpt lat="39.4198267" lon="16.239385"><ele>157.0</ele><time>2026-05-03T14:31:55.882Z</time></trkpt><trkpt lat="39.4199533" lon="16.2394133"><ele>158.2</ele><time>2026-05-03T14:31:56.882Z</time></trkpt><trkpt lat="39.4200817" lon="16.2394333"><ele>159.39999999999998</ele><time>2026-05-03T14:31:57.882Z</time></trkpt><trkpt lat="39.4201917" lon="16.23946"><ele>160.60000000000002</ele><time>2026-05-03T14:31:58.881Z</time></trkpt><trkpt lat="39.4202833" lon="16.23949"><ele>161.8</ele><time>2026-05-03T14:31:59.882Z</time></trkpt><trkpt lat="39.4203567" lon="16.2395333"><ele>163.0</ele><time>2026-05-03T14:32:00.881Z</time></trkpt><trkpt lat="39.4204117" lon="16.2395883"><ele>163.0</ele><time>2026-05-03T14:32:01.882Z</time></trkpt><trkpt lat="39.4204417" lon="16.2396667"><ele>163.0</ele><time>2026-05-03T14:32:02.882Z</time></trkpt><trkpt lat="39.4204533" lon="16.2397683"><ele>163.0</ele><time>2026-05-03T14:32:03.882Z</time></trkpt><trkpt lat="39.4204683" lon="16.23989"><ele>163.0</ele><time>2026-05-03T14:32:04.882Z</time></trkpt><trkpt lat="39.4205017" lon="16.24"><ele>163.0</ele><time>2026-05-03T14:32:05.882Z</time></trkpt><trkpt lat="39.4205567" lon="16.240075"><ele>163.0</ele><time>2026-05-03T14:32:06.882Z</time></trkpt><trkpt lat="39.4206283" lon="16.2401067"><ele>161.0</ele><time>2026-05-03T14:32:07.882Z</time></trkpt><trkpt lat="39.4207083" lon="16.2401"><ele>159.0</ele><time>2026-05-03T14:32:08.882Z</time></trkpt><trkpt lat="39.42079" lon="16.2400567"><ele>157.0</ele><time>2026-05-03T14:32:09.882Z</time></trkpt><trkpt lat="39.4208733" lon="16.23998"><ele>155.0</ele><time>2026-05-03T14:32:10.882Z</time></trkpt><trkpt lat="39.4209667" lon="16.2398917"><ele>153.0</ele><time>2026-05-03T14:32:11.882Z</time></trkpt><trkpt lat="39.4210717" lon="16.2398367"><ele>153.0</ele><time>2026-05-03T14:32:12.882Z</time></trkpt><trkpt lat="39.421195" lon="16.2398133"><ele>153.0</ele><time>2026-05-03T14:32:13.881Z</time></trkpt><trkpt lat="39.4213317" lon="16.2398067"><ele>153.0</ele><time>2026-05-03T14:32:14.882Z</time></trkpt><trkpt lat="39.4214767" lon="16.2398083"><ele>153.0</ele><time>2026-05-03T14:32:15.882Z</time></trkpt><trkpt lat="39.4216283" lon="16.23981"><ele>153.0</ele><time>2026-05-03T14:32:16.881Z</time></trkpt><trkpt lat="39.4217833" lon="16.23982"><ele>153.0</ele><time>2026-05-03T14:32:17.882Z</time></trkpt><trkpt lat="39.4219367" lon="16.239835"><ele>153.0</ele><time>2026-05-03T14:32:18.881Z</time></trkpt><trkpt lat="39.4220983" lon="16.2398433"><ele>153.66666666666666</ele><time>2026-05-03T14:32:19.882Z</time></trkpt><trkpt lat="39.422265" lon="16.2398533"><ele>154.33333333333331</ele><time>2026-05-03T14:32:20.882Z</time></trkpt><trkpt lat="39.4224367" lon="16.2398667"><ele>155.0</ele><time>2026-05-03T14:32:21.882Z</time></trkpt><trkpt lat="39.4226183" lon="16.23987"><ele>155.0</ele><time>2026-05-03T14:32:22.882Z</time></trkpt><trkpt lat="39.4227983" lon="16.2398683"><ele>155.0</ele><time>2026-05-03T14:32:23.882Z</time></trkpt><trkpt lat="39.422975" lon="16.2398633"><ele>155.0</ele><time>2026-05-03T14:32:24.882Z</time></trkpt><trkpt lat="39.4231517" lon="16.2398483"><ele>154.66666666666666</ele><time>2026-05-03T14:32:25.881Z</time></trkpt><trkpt lat="39.423325" lon="16.2398417"><ele>154.33333333333334</ele><time>2026-05-03T14:32:26.881Z</time></trkpt><trkpt lat="39.4234917" lon="16.23984"><ele>154.0</ele><time>2026-05-03T14:32:27.882Z</time></trkpt><trkpt lat="39.4236383" lon="16.2398267"><ele>154.0</ele><time>2026-05-03T14:32:28.882Z</time></trkpt><trkpt lat="39.4237617" lon="16.2398367"><ele>154.0</ele><time>2026-05-03T14:32:29.882Z</time></trkpt><trkpt lat="39.423865" lon="16.23987"><ele>154.0</ele><time>2026-05-03T14:32:30.881Z</time></trkpt><trkpt lat="39.423955" lon="16.2399217"><ele>154.0</ele><time>2026-05-03T14:32:31.882Z</time></trkpt><trkpt lat="39.4240233" lon="16.2400083"><ele>154.0</ele><time>2026-05-03T14:32:32.881Z</time></trkpt><trkpt lat="39.424075" lon="16.2401183"><ele>154.25</ele><time>2026-05-03T14:32:33.882Z</time></trkpt><trkpt lat="39.4241017" lon="16.2402683"><ele>154.5</ele><time>2026-05-03T14:32:34.881Z</time></trkpt><trkpt lat="39.4241117" lon="16.2404233"><ele>154.75</ele><time>2026-05-03T14:32:35.882Z</time></trkpt><trkpt lat="39.4241133" lon="16.2406"><ele>155.0</ele><time>2026-05-03T14:32:36.882Z</time></trkpt><trkpt lat="39.424115" lon="16.2407733"><ele>153.5</ele><time>2026-05-03T14:32:37.882Z</time></trkpt><trkpt lat="39.4241033" lon="16.2409467"><ele>152.0</ele><time>2026-05-03T14:32:38.881Z</time></trkpt><trkpt lat="39.4240733" lon="16.241125"><ele>150.5</ele><time>2026-05-03T14:32:39.882Z</time></trkpt><trkpt lat="39.4240167" lon="16.2412833"><ele>149.0</ele><time>2026-05-03T14:32:40.882Z</time></trkpt><trkpt lat="39.4239317" lon="16.24143"><ele>147.0</ele><time>2026-05-03T14:32:41.882Z</time></trkpt><trkpt lat="39.42383" lon="16.24158"><ele>145.0</ele><time>2026-05-03T14:32:42.881Z</time></trkpt><trkpt lat="39.4237083" lon="16.2417183"><ele>143.0</ele><time>2026-05-03T14:32:43.882Z</time></trkpt><trkpt lat="39.4235767" lon="16.2418433"><ele>142.66666666666666</ele><time>2026-05-03T14:32:44.882Z</time></trkpt><trkpt lat="39.4234233" lon="16.24196"><ele>142.33333333333334</ele><time>2026-05-03T14:32:45.882Z</time></trkpt><trkpt lat="39.4232633" lon="16.2420383"><ele>142.0</ele><time>2026-05-03T14:32:46.882Z</time></trkpt><trkpt lat="39.423095" lon="16.2420917"><ele>141.66666666666669</ele><time>2026-05-03T14:32:47.882Z</time></trkpt><trkpt lat="39.4229167" lon="16.24214"><ele>141.33333333333334</ele><time>2026-05-03T14:32:48.881Z</time></trkpt><trkpt lat="39.422725" lon="16.2421883"><ele>141.0</ele><time>2026-05-03T14:32:49.881Z</time></trkpt><trkpt lat="39.422535" lon="16.2422317"><ele>141.0</ele><time>2026-05-03T14:32:50.881Z</time></trkpt><trkpt lat="39.4223383" lon="16.2422683"><ele>141.0</ele><time>2026-05-03T14:32:51.882Z</time></trkpt><trkpt lat="39.42214" lon="16.2423017"><ele>141.0</ele><time>2026-05-03T14:32:52.882Z</time></trkpt><trkpt lat="39.4219317" lon="16.242345"><ele>141.66666666666666</ele><time>2026-05-03T14:32:53.882Z</time></trkpt><trkpt lat="39.4217267" lon="16.242385"><ele>142.33333333333331</ele><time>2026-05-03T14:32:54.882Z</time></trkpt><trkpt lat="39.4215167" lon="16.24243"><ele>143.0</ele><time>2026-05-03T14:32:55.881Z</time></trkpt><trkpt lat="39.4212917" lon="16.2424767"><ele>143.0</ele><time>2026-05-03T14:32:56.882Z</time></trkpt><trkpt lat="39.42106" lon="16.2425283"><ele>143.0</ele><time>2026-05-03T14:32:57.882Z</time></trkpt><trkpt lat="39.420825" lon="16.2425883"><ele>143.0</ele><time>2026-05-03T14:32:58.881Z</time></trkpt><trkpt lat="39.420595" lon="16.2426417"><ele>143.0</ele><time>2026-05-03T14:32:59.882Z</time></trkpt><trkpt lat="39.4203533" lon="16.242695"><ele>143.5</ele><time>2026-05-03T14:33:00.881Z</time></trkpt><trkpt lat="39.42011" lon="16.2427567"><ele>144.0</ele><time>2026-05-03T14:33:01.882Z</time></trkpt><trkpt lat="39.4198633" lon="16.2428117"><ele>143.5</ele><time>2026-05-03T14:33:02.881Z</time></trkpt><trkpt lat="39.4196117" lon="16.24287"><ele>143.0</ele><time>2026-05-03T14:33:03.882Z</time></trkpt><trkpt lat="39.41937" lon="16.2429367"><ele>143.0</ele><time>2026-05-03T14:33:04.881Z</time></trkpt><trkpt lat="39.4191183" lon="16.2430167"><ele>143.0</ele><time>2026-05-03T14:33:05.881Z</time></trkpt><trkpt lat="39.4188617" lon="16.2431033"><ele>142.5</ele><time>2026-05-03T14:33:06.882Z</time></trkpt><trkpt lat="39.418605" lon="16.2431883"><ele>142.0</ele><time>2026-05-03T14:33:07.881Z</time></trkpt><trkpt lat="39.4183517" lon="16.2432733"><ele>142.0</ele><time>2026-05-03T14:33:08.882Z</time></trkpt><trkpt lat="39.4180933" lon="16.2433667"><ele>142.0</ele><time>2026-05-03T14:33:09.881Z</time></trkpt><trkpt lat="39.4178417" lon="16.2434683"><ele>142.0</ele><time>2026-05-03T14:33:10.881Z</time></trkpt><trkpt lat="39.4175867" lon="16.24356"><ele>142.0</ele><time>2026-05-03T14:33:11.882Z</time></trkpt><trkpt lat="39.4173367" lon="16.243655"><ele>139.0</ele><time>2026-05-03T14:33:12.882Z</time></trkpt><trkpt lat="39.4170883" lon="16.2437583"><ele>136.0</ele><time>2026-05-03T14:33:13.882Z</time></trkpt><trkpt lat="39.416825" lon="16.24387"><ele>136.0</ele><time>2026-05-03T14:33:14.882Z</time></trkpt><trkpt lat="39.4165617" lon="16.2439617"><ele>136.0</ele><time>2026-05-03T14:33:15.882Z</time></trkpt><trkpt lat="39.4162933" lon="16.24406"><ele>133.5</ele><time>2026-05-03T14:33:16.881Z</time></trkpt><trkpt lat="39.41602" lon="16.24415"><ele>131.0</ele><time>2026-05-03T14:33:17.882Z</time></trkpt><trkpt lat="39.4157633" lon="16.2442383"><ele>131.0</ele><time>2026-05-03T14:33:18.882Z</time></trkpt><trkpt lat="39.41551" lon="16.24432"><ele>131.0</ele><time>2026-05-03T14:33:19.882Z</time></trkpt><trkpt lat="39.4152483" lon="16.2443833"><ele>133.5</ele><time>2026-05-03T14:33:20.882Z</time></trkpt><trkpt lat="39.4149867" lon="16.24446"><ele>136.0</ele><time>2026-05-03T14:33:21.882Z</time></trkpt><trkpt lat="39.4147267" lon="16.2445367"><ele>141.0</ele><time>2026-05-03T14:33:22.882Z</time></trkpt><trkpt lat="39.4144583" lon="16.2446133"><ele>146.0</ele><time>2026-05-03T14:33:23.882Z</time></trkpt><trkpt lat="39.4141933" lon="16.2446783"><ele>146.0</ele><time>2026-05-03T14:33:24.882Z</time></trkpt><trkpt lat="39.4139233" lon="16.2447283"><ele>146.0</ele><time>2026-05-03T14:33:25.882Z</time></trkpt><trkpt lat="39.41365" lon="16.2447683"><ele>142.0</ele><time>2026-05-03T14:33:26.882Z</time></trkpt><trkpt lat="39.41337" lon="16.2448"><ele>138.0</ele><time>2026-05-03T14:33:27.881Z</time></trkpt><trkpt lat="39.4130917" lon="16.2448167"><ele>140.0</ele><time>2026-05-03T14:33:28.882Z</time></trkpt><trkpt lat="39.412805" lon="16.24482"><ele>142.0</ele><time>2026-05-03T14:33:29.882Z</time></trkpt><trkpt lat="39.4125267" lon="16.2448083"><ele>143.5</ele><time>2026-05-03T14:33:30.882Z</time></trkpt><trkpt lat="39.4122433" lon="16.2447917"><ele>145.0</ele><time>2026-05-03T14:33:31.882Z</time></trkpt><trkpt lat="39.4119617" lon="16.2447733"><ele>145.5</ele><time>2026-05-03T14:33:32.882Z</time></trkpt><trkpt lat="39.4116733" lon="16.2447467"><ele>146.0</ele><time>2026-05-03T14:33:33.882Z</time></trkpt><trkpt lat="39.4113767" lon="16.24473"><ele>146.5</ele><time>2026-05-03T14:33:34.882Z</time></trkpt><trkpt lat="39.4110917" lon="16.2446917"><ele>147.0</ele><time>2026-05-03T14:33:35.882Z</time></trkpt><trkpt lat="39.4107933" lon="16.2446683"><ele>147.0</ele><time>2026-05-03T14:33:36.882Z</time></trkpt><trkpt lat="39.4105033" lon="16.2446267"><ele>147.0</ele><time>2026-05-03T14:33:37.882Z</time></trkpt><trkpt lat="39.41021" lon="16.2445883"><ele>147.5</ele><time>2026-05-03T14:33:38.882Z</time></trkpt><trkpt lat="39.4099133" lon="16.2445517"><ele>148.0</ele><time>2026-05-03T14:33:39.882Z</time></trkpt><trkpt lat="39.4096333" lon="16.2444917"><ele>148.5</ele><time>2026-05-03T14:33:40.881Z</time></trkpt><trkpt lat="39.4093433" lon="16.24446"><ele>149.0</ele><time>2026-05-03T14:33:41.881Z</time></trkpt><trkpt lat="39.409055" lon="16.2444283"><ele>149.5</ele><time>2026-05-03T14:33:42.882Z</time></trkpt><trkpt lat="39.4087583" lon="16.2444017"><ele>150.0</ele><time>2026-05-03T14:33:43.882Z</time></trkpt><trkpt lat="39.4084667" lon="16.2443667"><ele>150.0</ele><time>2026-05-03T14:33:44.881Z</time></trkpt><trkpt lat="39.4081767" lon="16.244325"><ele>150.0</ele><time>2026-05-03T14:33:45.882Z</time></trkpt><trkpt lat="39.407885" lon="16.2442867"><ele>149.0</ele><time>2026-05-03T14:33:46.881Z</time></trkpt><trkpt lat="39.4075867" lon="16.2442567"><ele>148.0</ele><time>2026-05-03T14:33:47.882Z</time></trkpt><trkpt lat="39.4072883" lon="16.2442167"><ele>149.5</ele><time>2026-05-03T14:33:48.882Z</time></trkpt><trkpt lat="39.406995" lon="16.24418"><ele>151.0</ele><time>2026-05-03T14:33:49.882Z</time></trkpt><trkpt lat="39.4067017" lon="16.2441417"><ele>151.0</ele><time>2026-05-03T14:33:50.882Z</time></trkpt><trkpt lat="39.4064067" lon="16.2441117"><ele>151.0</ele><time>2026-05-03T14:33:51.882Z</time></trkpt><trkpt lat="39.4061117" lon="16.24408"><ele>151.0</ele><time>2026-05-03T14:33:52.881Z</time></trkpt><trkpt lat="39.405815" lon="16.24404"><ele>151.0</ele><time>2026-05-03T14:33:53.882Z</time></trkpt><trkpt lat="39.4055167" lon="16.244005"><ele>150.5</ele><time>2026-05-03T14:33:54.882Z</time></trkpt><trkpt lat="39.4052183" lon="16.2439667"><ele>150.0</ele><time>2026-05-03T14:33:55.882Z</time></trkpt><trkpt lat="39.4049167" lon="16.2439333"><ele>151.0</ele><time>2026-05-03T14:33:56.882Z</time></trkpt><trkpt lat="39.4046267" lon="16.2438983"><ele>152.0</ele><time>2026-05-03T14:33:57.882Z</time></trkpt><trkpt lat="39.4043333" lon="16.2438583"><ele>152.0</ele><time>2026-05-03T14:33:58.882Z</time></trkpt><trkpt lat="39.4040383" lon="16.2438267"><ele>152.0</ele><time>2026-05-03T14:33:59.882Z</time></trkpt><trkpt lat="39.40374" lon="16.243795"><ele>150.0</ele><time>2026-05-03T14:34:00.882Z</time></trkpt><trkpt lat="39.4034483" lon="16.2437583"><ele>148.0</ele><time>2026-05-03T14:34:01.882Z</time></trkpt><trkpt lat="39.4031583" lon="16.243725"><ele>146.0</ele><time>2026-05-03T14:34:02.882Z</time></trkpt><trkpt lat="39.402865" lon="16.2436833"><ele>144.0</ele><time>2026-05-03T14:34:03.882Z</time></trkpt><trkpt lat="39.4025767" lon="16.2436433"><ele>144.0</ele><time>2026-05-03T14:34:04.882Z</time></trkpt><trkpt lat="39.4022867" lon="16.2436067"><ele>144.0</ele><time>2026-05-03T14:34:05.882Z</time></trkpt><trkpt lat="39.401995" lon="16.2435567"><ele>143.5</ele><time>2026-05-03T14:34:06.882Z</time></trkpt><trkpt lat="39.40171" lon="16.24351"><ele>143.0</ele><time>2026-05-03T14:34:07.881Z</time></trkpt><trkpt lat="39.4014067" lon="16.243475"><ele>144.0</ele><time>2026-05-03T14:34:08.882Z</time></trkpt><trkpt lat="39.40111" lon="16.2434433"><ele>145.0</ele><time>2026-05-03T14:34:09.882Z</time></trkpt><trkpt lat="39.4008083" lon="16.243405"><ele>145.0</ele><time>2026-05-03T14:34:10.882Z</time></trkpt><trkpt lat="39.4005117" lon="16.2433633"><ele>145.0</ele><time>2026-05-03T14:34:11.881Z</time></trkpt><trkpt lat="39.4002267" lon="16.24332"><ele>144.5</ele><time>2026-05-03T14:34:12.882Z</time></trkpt><trkpt lat="39.3999317" lon="16.2432933"><ele>144.0</ele><time>2026-05-03T14:34:13.882Z</time></trkpt><trkpt lat="39.3996433" lon="16.2432583"><ele>144.0</ele><time>2026-05-03T14:34:14.882Z</time></trkpt><trkpt lat="39.3993617" lon="16.2432333"><ele>144.0</ele><time>2026-05-03T14:34:15.882Z</time></trkpt><trkpt lat="39.3990833" lon="16.2432033"><ele>144.5</ele><time>2026-05-03T14:34:16.882Z</time></trkpt><trkpt lat="39.3988067" lon="16.243175"><ele>145.0</ele><time>2026-05-03T14:34:17.881Z</time></trkpt><trkpt lat="39.39852" lon="16.2431467"><ele>145.5</ele><time>2026-05-03T14:34:18.881Z</time></trkpt><trkpt lat="39.3982333" lon="16.2431067"><ele>146.0</ele><time>2026-05-03T14:34:19.882Z</time></trkpt><trkpt lat="39.397945" lon="16.2430717"><ele>146.0</ele><time>2026-05-03T14:34:20.882Z</time></trkpt><trkpt lat="39.3976517" lon="16.243035"><ele>146.0</ele><time>2026-05-03T14:34:21.882Z</time></trkpt><trkpt lat="39.39735" lon="16.2429933"><ele>147.0</ele><time>2026-05-03T14:34:22.881Z</time></trkpt><trkpt lat="39.39704" lon="16.2429583"><ele>148.0</ele><time>2026-05-03T14:34:23.881Z</time></trkpt><trkpt lat="39.3967283" lon="16.2429233"><ele>148.0</ele><time>2026-05-03T14:34:24.882Z</time></trkpt><trkpt lat="39.3964033" lon="16.2428867"><ele>148.0</ele><time>2026-05-03T14:34:25.882Z</time></trkpt><trkpt lat="39.3960883" lon="16.2428467"><ele>150.0</ele><time>2026-05-03T14:34:26.882Z</time></trkpt><trkpt lat="39.395775" lon="16.2428"><ele>152.0</ele><time>2026-05-03T14:34:27.882Z</time></trkpt><trkpt lat="39.3954583" lon="16.2427517"><ele>154.0</ele><time>2026-05-03T14:34:28.881Z</time></trkpt><trkpt lat="39.3951583" lon="16.2427067"><ele>156.0</ele><time>2026-05-03T14:34:29.881Z</time></trkpt><trkpt lat="39.3948483" lon="16.2426583"><ele>156.5</ele><time>2026-05-03T14:34:30.882Z</time></trkpt><trkpt lat="39.3945317" lon="16.2426183"><ele>157.0</ele><time>2026-05-03T14:34:31.882Z</time></trkpt><trkpt lat="39.3942217" lon="16.2425667"><ele>157.0</ele><time>2026-05-03T14:34:32.882Z</time></trkpt><trkpt lat="39.3939117" lon="16.2425183"><ele>157.0</ele><time>2026-05-03T14:34:33.881Z</time></trkpt><trkpt lat="39.39361" lon="16.242465"><ele>158.5</ele><time>2026-05-03T14:34:34.882Z</time></trkpt><trkpt lat="39.393305" lon="16.2424067"><ele>160.0</ele><time>2026-05-03T14:34:35.881Z</time></trkpt><trkpt lat="39.3930067" lon="16.2423367"><ele>162.0</ele><time>2026-05-03T14:34:36.882Z</time></trkpt><trkpt lat="39.3927117" lon="16.2422567"><ele>164.0</ele><time>2026-05-03T14:34:37.882Z</time></trkpt><trkpt lat="39.3924167" lon="16.2421617"><ele>164.0</ele><time>2026-05-03T14:34:38.881Z</time></trkpt><trkpt lat="39.3921317" lon="16.2420533"><ele>164.0</ele><time>2026-05-03T14:34:39.882Z</time></trkpt><trkpt lat="39.39185" lon="16.24193"><ele>164.0</ele><time>2026-05-03T14:34:40.881Z</time></trkpt><trkpt lat="39.391575" lon="16.2417983"><ele>164.0</ele><time>2026-05-03T14:34:41.882Z</time></trkpt><trkpt lat="39.3913083" lon="16.2416517"><ele>164.0</ele><time>2026-05-03T14:34:42.882Z</time></trkpt><trkpt lat="39.3910433" lon="16.2414983"><ele>164.0</ele><time>2026-05-03T14:34:43.882Z</time></trkpt><trkpt lat="39.3907817" lon="16.2413317"><ele>165.0</ele><time>2026-05-03T14:34:44.882Z</time></trkpt><trkpt lat="39.390515" lon="16.2411467"><ele>166.0</ele><time>2026-05-03T14:34:45.882Z</time></trkpt><trkpt lat="39.390255" lon="16.2409583"><ele>166.0</ele><time>2026-05-03T14:34:46.882Z</time></trkpt><trkpt lat="39.3899933" lon="16.2407583"><ele>166.0</ele><time>2026-05-03T14:34:47.882Z</time></trkpt><trkpt lat="39.3897233" lon="16.2405533"><ele>165.5</ele><time>2026-05-03T14:34:48.881Z</time></trkpt><trkpt lat="39.38947" lon="16.240335"><ele>165.0</ele><time>2026-05-03T14:34:49.882Z</time></trkpt><trkpt lat="39.3892183" lon="16.2400967"><ele>165.0</ele><time>2026-05-03T14:34:50.882Z</time></trkpt><trkpt lat="39.38897" lon="16.2398483"><ele>165.0</ele><time>2026-05-03T14:34:51.881Z</time></trkpt><trkpt lat="39.38873" lon="16.2396033"><ele>164.0</ele><time>2026-05-03T14:34:52.881Z</time></trkpt><trkpt lat="39.3884917" lon="16.2393583"><ele>163.0</ele><time>2026-05-03T14:34:53.882Z</time></trkpt><trkpt lat="39.3882483" lon="16.239105"><ele>161.5</ele><time>2026-05-03T14:34:54.882Z</time></trkpt><trkpt lat="39.3880083" lon="16.2388733"><ele>160.0</ele><time>2026-05-03T14:34:55.882Z</time></trkpt><trkpt lat="39.3877567" lon="16.2386417"><ele>160.0</ele><time>2026-05-03T14:34:56.882Z</time></trkpt><trkpt lat="39.38751" lon="16.23842"><ele>160.0</ele><time>2026-05-03T14:34:57.882Z</time></trkpt><trkpt lat="39.3872717" lon="16.23821"><ele>162.5</ele><time>2026-05-03T14:34:58.881Z</time></trkpt><trkpt lat="39.3870383" lon="16.23802"><ele>165.0</ele><time>2026-05-03T14:34:59.882Z</time></trkpt><trkpt lat="39.3868033" lon="16.2378433"><ele>165.0</ele><time>2026-05-03T14:35:00.882Z</time></trkpt><trkpt lat="39.386555" lon="16.2376783"><ele>165.0</ele><time>2026-05-03T14:35:01.881Z</time></trkpt><trkpt lat="39.386295" lon="16.2375233"><ele>166.0</ele><time>2026-05-03T14:35:02.881Z</time></trkpt><trkpt lat="39.3860367" lon="16.237355"><ele>167.0</ele><time>2026-05-03T14:35:03.882Z</time></trkpt><trkpt lat="39.385775" lon="16.23719"><ele>163.0</ele><time>2026-05-03T14:35:04.882Z</time></trkpt><trkpt lat="39.385505" lon="16.2370417"><ele>159.0</ele><time>2026-05-03T14:35:05.882Z</time></trkpt><trkpt lat="39.3852317" lon="16.236905"><ele>159.0</ele><time>2026-05-03T14:35:06.882Z</time></trkpt><trkpt lat="39.3849533" lon="16.236775"><ele>159.0</ele><time>2026-05-03T14:35:07.882Z</time></trkpt><trkpt lat="39.38466" lon="16.236675"><ele>159.0</ele><time>2026-05-03T14:35:08.882Z</time></trkpt><trkpt lat="39.384355" lon="16.236585"><ele>159.0</ele><time>2026-05-03T14:35:09.882Z</time></trkpt><trkpt lat="39.3840617" lon="16.2364917"><ele>159.5</ele><time>2026-05-03T14:35:10.881Z</time></trkpt><trkpt lat="39.3837533" lon="16.2364217"><ele>160.0</ele><time>2026-05-03T14:35:11.882Z</time></trkpt><trkpt lat="39.383445" lon="16.2363683"><ele>160.0</ele><time>2026-05-03T14:35:12.882Z</time></trkpt><trkpt lat="39.3831383" lon="16.2363333"><ele>160.0</ele><time>2026-05-03T14:35:13.881Z</time></trkpt><trkpt lat="39.382835" lon="16.236305"><ele>159.5</ele><time>2026-05-03T14:35:14.882Z</time></trkpt><trkpt lat="39.3825317" lon="16.2362767"><ele>159.0</ele><time>2026-05-03T14:35:15.882Z</time></trkpt><trkpt lat="39.3822267" lon="16.2362633"><ele>160.0</ele><time>2026-05-03T14:35:16.882Z</time></trkpt><trkpt lat="39.38193" lon="16.2362483"><ele>161.0</ele><time>2026-05-03T14:35:17.881Z</time></trkpt><trkpt lat="39.3816233" lon="16.2362467"><ele>161.0</ele><time>2026-05-03T14:35:18.882Z</time></trkpt><trkpt lat="39.3813183" lon="16.2362433"><ele>161.0</ele><time>2026-05-03T14:35:19.882Z</time></trkpt><trkpt lat="39.3810183" lon="16.2362483"><ele>161.0</ele><time>2026-05-03T14:35:20.881Z</time></trkpt><trkpt lat="39.3807183" lon="16.236245"><ele>161.0</ele><time>2026-05-03T14:35:21.882Z</time></trkpt><trkpt lat="39.38042" lon="16.2362467"><ele>161.5</ele><time>2026-05-03T14:35:22.881Z</time></trkpt><trkpt lat="39.3801233" lon="16.2362533"><ele>162.0</ele><time>2026-05-03T14:35:23.882Z</time></trkpt><trkpt lat="39.3798217" lon="16.2362633"><ele>163.0</ele><time>2026-05-03T14:35:24.882Z</time></trkpt><trkpt lat="39.3795167" lon="16.236265"><ele>164.0</ele><time>2026-05-03T14:35:25.881Z</time></trkpt><trkpt lat="39.3792167" lon="16.2362683"><ele>164.0</ele><time>2026-05-03T14:35:26.881Z</time></trkpt><trkpt lat="39.3789133" lon="16.236275"><ele>164.0</ele><time>2026-05-03T14:35:27.882Z</time></trkpt><trkpt lat="39.378615" lon="16.2362683"><ele>166.5</ele><time>2026-05-03T14:35:28.882Z</time></trkpt><trkpt lat="39.3783083" lon="16.2362767"><ele>169.0</ele><time>2026-05-03T14:35:29.882Z</time></trkpt><trkpt lat="39.378" lon="16.2362833"><ele>171.0</ele><time>2026-05-03T14:35:30.882Z</time></trkpt><trkpt lat="39.377685" lon="16.2362883"><ele>173.0</ele><time>2026-05-03T14:35:31.882Z</time></trkpt><trkpt lat="39.377375" lon="16.2362883"><ele>173.5</ele><time>2026-05-03T14:35:32.881Z</time></trkpt><trkpt lat="39.377045" lon="16.236305"><ele>174.0</ele><time>2026-05-03T14:35:33.882Z</time></trkpt><trkpt lat="39.3767233" lon="16.2363083"><ele>174.0</ele><time>2026-05-03T14:35:34.882Z</time></trkpt><trkpt lat="39.3764033" lon="16.2363133"><ele>174.0</ele><time>2026-05-03T14:35:35.881Z</time></trkpt><trkpt lat="39.3760783" lon="16.2363217"><ele>173.0</ele><time>2026-05-03T14:35:36.882Z</time></trkpt><trkpt lat="39.3757533" lon="16.23632"><ele>172.0</ele><time>2026-05-03T14:35:37.881Z</time></trkpt><trkpt lat="39.3754217" lon="16.2363283"><ele>171.0</ele><time>2026-05-03T14:35:38.882Z</time></trkpt><trkpt lat="39.3750883" lon="16.2363233"><ele>170.0</ele><time>2026-05-03T14:35:39.881Z</time></trkpt><trkpt lat="39.3747533" lon="16.2363183"><ele>171.0</ele><time>2026-05-03T14:35:40.881Z</time></trkpt><trkpt lat="39.374415" lon="16.23633"><ele>172.0</ele><time>2026-05-03T14:35:41.882Z</time></trkpt><trkpt lat="39.3740683" lon="16.2363317"><ele>175.5</ele><time>2026-05-03T14:35:42.882Z</time></trkpt><trkpt lat="39.3737317" lon="16.23633"><ele>179.0</ele><time>2026-05-03T14:35:43.881Z</time></trkpt><trkpt lat="39.3733933" lon="16.236335"><ele>179.0</ele><time>2026-05-03T14:35:44.882Z</time></trkpt><trkpt lat="39.3730517" lon="16.236345"><ele>179.0</ele><time>2026-05-03T14:35:45.882Z</time></trkpt><trkpt lat="39.3727067" lon="16.2363483"><ele>179.0</ele><time>2026-05-03T14:35:46.881Z</time></trkpt><trkpt lat="39.3723683" lon="16.2363517"><ele>179.0</ele><time>2026-05-03T14:35:47.882Z</time></trkpt><trkpt lat="39.37202" lon="16.236355"><ele>179.0</ele><time>2026-05-03T14:35:48.882Z</time></trkpt><trkpt lat="39.371675" lon="16.2363583"><ele>179.0</ele><time>2026-05-03T14:35:49.882Z</time></trkpt><trkpt lat="39.3713283" lon="16.2363667"><ele>176.5</ele><time>2026-05-03T14:35:50.882Z</time></trkpt><trkpt lat="39.3709867" lon="16.23637"><ele>174.0</ele><time>2026-05-03T14:35:51.882Z</time></trkpt><trkpt lat="39.370635" lon="16.2363817"><ele>174.0</ele><time>2026-05-03T14:35:52.882Z</time></trkpt><trkpt lat="39.3702883" lon="16.236385"><ele>174.0</ele><time>2026-05-03T14:35:53.882Z</time></trkpt><trkpt lat="39.3699367" lon="16.23639"><ele>174.5</ele><time>2026-05-03T14:35:54.882Z</time></trkpt><trkpt lat="39.36959" lon="16.2363883"><ele>175.0</ele><time>2026-05-03T14:35:55.882Z</time></trkpt><trkpt lat="39.3692333" lon="16.2363867"><ele>175.0</ele><time>2026-05-03T14:35:56.882Z</time></trkpt><trkpt lat="39.3688783" lon="16.2363783"><ele>175.0</ele><time>2026-05-03T14:35:57.882Z</time></trkpt><trkpt lat="39.3685217" lon="16.2363717"><ele>177.5</ele><time>2026-05-03T14:35:58.882Z</time></trkpt><trkpt lat="39.3681567" lon="16.2363583"><ele>180.0</ele><time>2026-05-03T14:35:59.882Z</time></trkpt><trkpt lat="39.3677817" lon="16.2363267"><ele>180.5</ele><time>2026-05-03T14:36:00.882Z</time></trkpt><trkpt lat="39.3673983" lon="16.2362683"><ele>181.0</ele><time>2026-05-03T14:36:01.882Z</time></trkpt><trkpt lat="39.3670167" lon="16.236185"><ele>181.0</ele><time>2026-05-03T14:36:02.881Z</time></trkpt><trkpt lat="39.3666367" lon="16.236065"><ele>181.0</ele><time>2026-05-03T14:36:03.882Z</time></trkpt><trkpt lat="39.3662667" lon="16.2359267"><ele>181.0</ele><time>2026-05-03T14:36:04.881Z</time></trkpt><trkpt lat="39.365895" lon="16.2357833"><ele>181.0</ele><time>2026-05-03T14:36:05.882Z</time></trkpt><trkpt lat="39.36553" lon="16.235645"><ele>183.5</ele><time>2026-05-03T14:36:06.882Z</time></trkpt><trkpt lat="39.3651617" lon="16.2354933"><ele>186.0</ele><time>2026-05-03T14:36:07.882Z</time></trkpt><trkpt lat="39.3647933" lon="16.2353417"><ele>183.0</ele><time>2026-05-03T14:36:08.882Z</time></trkpt><trkpt lat="39.3644283" lon="16.2351867"><ele>180.0</ele><time>2026-05-03T14:36:09.882Z</time></trkpt><trkpt lat="39.3640683" lon="16.2350333"><ele>180.5</ele><time>2026-05-03T14:36:10.882Z</time></trkpt><trkpt lat="39.3637067" lon="16.2348983"><ele>181.0</ele><time>2026-05-03T14:36:11.882Z</time></trkpt><trkpt lat="39.3633367" lon="16.2347533"><ele>182.5</ele><time>2026-05-03T14:36:12.881Z</time></trkpt><trkpt lat="39.3629583" lon="16.2346067"><ele>184.0</ele><time>2026-05-03T14:36:13.882Z</time></trkpt><trkpt lat="39.3625767" lon="16.23445"><ele>183.5</ele><time>2026-05-03T14:36:14.882Z</time></trkpt><trkpt lat="39.362195" lon="16.2342933"><ele>183.0</ele><time>2026-05-03T14:36:15.882Z</time></trkpt><trkpt lat="39.3617967" lon="16.234145"><ele>183.0</ele><time>2026-05-03T14:36:16.882Z</time></trkpt><trkpt lat="39.3614017" lon="16.2340083"><ele>183.0</ele><time>2026-05-03T14:36:17.881Z</time></trkpt><trkpt lat="39.360995" lon="16.2338783"><ele>185.0</ele><time>2026-05-03T14:36:18.882Z</time></trkpt><trkpt lat="39.3605883" lon="16.2337667"><ele>187.0</ele><time>2026-05-03T14:36:19.881Z</time></trkpt><trkpt lat="39.3601933" lon="16.2336833"><ele>187.0</ele><time>2026-05-03T14:36:20.881Z</time></trkpt><trkpt lat="39.3598067" lon="16.233615"><ele>187.0</ele><time>2026-05-03T14:36:21.881Z</time></trkpt><trkpt lat="39.3594233" lon="16.2335633"><ele>187.0</ele><time>2026-05-03T14:36:22.882Z</time></trkpt><trkpt lat="39.3590433" lon="16.2335367"><ele>187.0</ele><time>2026-05-03T14:36:23.881Z</time></trkpt><trkpt lat="39.3586633" lon="16.2335217"><ele>190.5</ele><time>2026-05-03T14:36:24.882Z</time></trkpt><trkpt lat="39.3582767" lon="16.2335083"><ele>194.0</ele><time>2026-05-03T14:36:25.881Z</time></trkpt><trkpt lat="39.3578867" lon="16.2335"><ele>195.5</ele><time>2026-05-03T14:36:26.881Z</time></trkpt><trkpt lat="39.3574983" lon="16.2335"><ele>197.0</ele><time>2026-05-03T14:36:27.881Z</time></trkpt><trkpt lat="39.357105" lon="16.2335083"><ele>199.0</ele><time>2026-05-03T14:36:28.881Z</time></trkpt><trkpt lat="39.3567117" lon="16.2335217"><ele>201.0</ele><time>2026-05-03T14:36:29.882Z</time></trkpt><trkpt lat="39.3563233" lon="16.2335267"><ele>201.0</ele><time>2026-05-03T14:36:30.881Z</time></trkpt><trkpt lat="39.3559383" lon="16.233535"><ele>201.0</ele><time>2026-05-03T14:36:31.882Z</time></trkpt><trkpt lat="39.35555" lon="16.23354"><ele>198.5</ele><time>2026-05-03T14:36:32.881Z</time></trkpt><trkpt lat="39.355155" lon="16.2335517"><ele>196.0</ele><time>2026-05-03T14:36:33.882Z</time></trkpt><trkpt lat="39.354755" lon="16.233555"><ele>196.0</ele><time>2026-05-03T14:36:34.882Z</time></trkpt><trkpt lat="39.35434" lon="16.2335783"><ele>196.0</ele><time>2026-05-03T14:36:35.882Z</time></trkpt><trkpt lat="39.3539283" lon="16.2336083"><ele>196.0</ele><time>2026-05-03T14:36:36.882Z</time></trkpt><trkpt lat="39.353525" lon="16.2336417"><ele>196.0</ele><time>2026-05-03T14:36:37.882Z</time></trkpt><trkpt lat="39.3531233" lon="16.2336883"><ele>196.0</ele><time>2026-05-03T14:36:38.882Z</time></trkpt><trkpt lat="39.35272" lon="16.2337383"><ele>196.0</ele><time>2026-05-03T14:36:39.882Z</time></trkpt><trkpt lat="39.3523233" lon="16.2337967"><ele>196.0</ele><time>2026-05-03T14:36:40.881Z</time></trkpt><trkpt lat="39.35193" lon="16.2338633"><ele>196.0</ele><time>2026-05-03T14:36:41.881Z</time></trkpt><trkpt lat="39.3515267" lon="16.2339533"><ele>196.0</ele><time>2026-05-03T14:36:42.882Z</time></trkpt><trkpt lat="39.3511233" lon="16.2340517"><ele>196.0</ele><time>2026-05-03T14:36:43.882Z</time></trkpt><trkpt lat="39.350725" lon="16.2341567"><ele>196.0</ele><time>2026-05-03T14:36:44.882Z</time></trkpt><trkpt lat="39.3503183" lon="16.23425"><ele>196.0</ele><time>2026-05-03T14:36:45.881Z</time></trkpt><trkpt lat="39.349915" lon="16.2343533"><ele>196.5</ele><time>2026-05-03T14:36:46.882Z</time></trkpt><trkpt lat="39.34952" lon="16.2344567"><ele>197.0</ele><time>2026-05-03T14:36:47.882Z</time></trkpt><trkpt lat="39.3491417" lon="16.2345567"><ele>197.0</ele><time>2026-05-03T14:36:48.881Z</time></trkpt><trkpt lat="39.3487583" lon="16.2346583"><ele>197.0</ele><time>2026-05-03T14:36:49.882Z</time></trkpt><trkpt lat="39.3483783" lon="16.2347517"><ele>196.0</ele><time>2026-05-03T14:36:50.882Z</time></trkpt><trkpt lat="39.3479883" lon="16.23485"><ele>195.0</ele><time>2026-05-03T14:36:51.882Z</time></trkpt><trkpt lat="39.3475933" lon="16.23494"><ele>194.0</ele><time>2026-05-03T14:36:52.882Z</time></trkpt><trkpt lat="39.3472067" lon="16.235015"><ele>193.0</ele><time>2026-05-03T14:36:53.882Z</time></trkpt><trkpt lat="39.3468117" lon="16.2350783"><ele>193.0</ele><time>2026-05-03T14:36:54.882Z</time></trkpt><trkpt lat="39.3464183" lon="16.2351233"><ele>193.0</ele><time>2026-05-03T14:36:55.881Z</time></trkpt><trkpt lat="39.34602" lon="16.235135"><ele>195.0</ele><time>2026-05-03T14:36:56.882Z</time></trkpt><trkpt lat="39.3456333" lon="16.2351167"><ele>197.0</ele><time>2026-05-03T14:36:57.882Z</time></trkpt><trkpt lat="39.34523" lon="16.23508"><ele>199.0</ele><time>2026-05-03T14:36:58.882Z</time></trkpt><trkpt lat="39.3448417" lon="16.2350267"><ele>201.0</ele><time>2026-05-03T14:36:59.882Z</time></trkpt><trkpt lat="39.3444467" lon="16.2349583"><ele>201.0</ele><time>2026-05-03T14:37:00.882Z</time></trkpt><trkpt lat="39.3440617" lon="16.2348967"><ele>201.0</ele><time>2026-05-03T14:37:01.881Z</time></trkpt><trkpt lat="39.343685" lon="16.2348167"><ele>201.5</ele><time>2026-05-03T14:37:02.882Z</time></trkpt><trkpt lat="39.3433117" lon="16.234745"><ele>202.0</ele><time>2026-05-03T14:37:03.882Z</time></trkpt><trkpt lat="39.34294" lon="16.2346683"><ele>202.0</ele><time>2026-05-03T14:37:04.882Z</time></trkpt><trkpt lat="39.3425767" lon="16.2346067"><ele>202.0</ele><time>2026-05-03T14:37:05.882Z</time></trkpt><trkpt lat="39.34221" lon="16.2345617"><ele>201.5</ele><time>2026-05-03T14:37:06.882Z</time></trkpt><trkpt lat="39.3418417" lon="16.23453"><ele>201.0</ele><time>2026-05-03T14:37:07.882Z</time></trkpt><trkpt lat="39.3414583" lon="16.234525"><ele>199.5</ele><time>2026-05-03T14:37:08.882Z</time></trkpt><trkpt lat="39.3410683" lon="16.23454"><ele>198.0</ele><time>2026-05-03T14:37:09.882Z</time></trkpt><trkpt lat="39.3406783" lon="16.2345817"><ele>197.5</ele><time>2026-05-03T14:37:10.882Z</time></trkpt><trkpt lat="39.3402917" lon="16.2346333"><ele>197.0</ele><time>2026-05-03T14:37:11.882Z</time></trkpt><trkpt lat="39.3399017" lon="16.2347167"><ele>195.0</ele><time>2026-05-03T14:37:12.882Z</time></trkpt><trkpt lat="39.3395017" lon="16.234815"><ele>193.0</ele><time>2026-05-03T14:37:13.882Z</time></trkpt><trkpt lat="39.3391017" lon="16.234945"><ele>192.5</ele><time>2026-05-03T14:37:14.882Z</time></trkpt><trkpt lat="39.3387033" lon="16.2350983"><ele>192.0</ele><time>2026-05-03T14:37:15.882Z</time></trkpt><trkpt lat="39.3382983" lon="16.235265"><ele>193.5</ele><time>2026-05-03T14:37:16.882Z</time></trkpt><trkpt lat="39.3378867" lon="16.2354333"><ele>195.0</ele><time>2026-05-03T14:37:17.882Z</time></trkpt><trkpt lat="39.3374733" lon="16.235615"><ele>194.5</ele><time>2026-05-03T14:37:18.882Z</time></trkpt><trkpt lat="39.3370483" lon="16.2357967"><ele>194.0</ele><time>2026-05-03T14:37:19.882Z</time></trkpt><trkpt lat="39.3366217" lon="16.2359817"><ele>197.0</ele><time>2026-05-03T14:37:20.882Z</time></trkpt><trkpt lat="39.336195" lon="16.2361667"><ele>197.0</ele><time>2026-05-03T14:37:21.881Z</time></trkpt><trkpt lat="39.335785" lon="16.2363367"><ele>197.0</ele><time>2026-05-03T14:37:22.881Z</time></trkpt><trkpt lat="39.3353817" lon="16.2365033"><ele>198.0</ele><time>2026-05-03T14:37:23.882Z</time></trkpt><trkpt lat="39.3349817" lon="16.236665"><ele>199.0</ele><time>2026-05-03T14:37:24.882Z</time></trkpt><trkpt lat="39.3345883" lon="16.2368233"><ele>200.0</ele><time>2026-05-03T14:37:25.882Z</time></trkpt><trkpt lat="39.3341967" lon="16.23698"><ele>201.0</ele><time>2026-05-03T14:37:26.882Z</time></trkpt><trkpt lat="39.3337917" lon="16.2371417"><ele>203.0</ele><time>2026-05-03T14:37:27.881Z</time></trkpt><trkpt lat="39.3333883" lon="16.2373183"><ele>205.0</ele><time>2026-05-03T14:37:28.882Z</time></trkpt><trkpt lat="39.33299" lon="16.2374867"><ele>206.0</ele><time>2026-05-03T14:37:29.882Z</time></trkpt><trkpt lat="39.3325783" lon="16.2376617"><ele>207.0</ele><time>2026-05-03T14:37:30.882Z</time></trkpt><trkpt lat="39.3321717" lon="16.2378283"><ele>208.5</ele><time>2026-05-03T14:37:31.882Z</time></trkpt><trkpt lat="39.331775" lon="16.2379883"><ele>210.0</ele><time>2026-05-03T14:37:32.882Z</time></trkpt><trkpt lat="39.3313883" lon="16.238145"><ele>211.5</ele><time>2026-05-03T14:37:33.882Z</time></trkpt><trkpt lat="39.3309983" lon="16.2383067"><ele>213.0</ele><time>2026-05-03T14:37:34.882Z</time></trkpt><trkpt lat="39.3306233" lon="16.2384617"><ele>214.0</ele><time>2026-05-03T14:37:35.882Z</time></trkpt><trkpt lat="39.33026" lon="16.238625"><ele>215.0</ele><time>2026-05-03T14:37:36.882Z</time></trkpt><trkpt lat="39.3298967" lon="16.2387767"><ele>215.5</ele><time>2026-05-03T14:37:37.882Z</time></trkpt><trkpt lat="39.3295333" lon="16.2389317"><ele>216.0</ele><time>2026-05-03T14:37:38.882Z</time></trkpt><trkpt lat="39.3291717" lon="16.239075"><ele>216.5</ele><time>2026-05-03T14:37:39.882Z</time></trkpt><trkpt lat="39.3288117" lon="16.2392067"><ele>217.0</ele><time>2026-05-03T14:37:40.881Z</time></trkpt><trkpt lat="39.32845" lon="16.23933"><ele>217.0</ele><time>2026-05-03T14:37:41.882Z</time></trkpt><trkpt lat="39.3281017" lon="16.2394233"><ele>217.0</ele><time>2026-05-03T14:37:42.882Z</time></trkpt><trkpt lat="39.3277467" lon="16.2395"><ele>218.0</ele><time>2026-05-03T14:37:43.881Z</time></trkpt><trkpt lat="39.3273983" lon="16.2395633"><ele>219.0</ele><time>2026-05-03T14:37:44.882Z</time></trkpt><trkpt lat="39.3270383" lon="16.2396017"><ele>220.5</ele><time>2026-05-03T14:37:45.882Z</time></trkpt><trkpt lat="39.3266917" lon="16.2396283"><ele>222.0</ele><time>2026-05-03T14:37:46.881Z</time></trkpt><trkpt lat="39.326345" lon="16.2396417"><ele>223.5</ele><time>2026-05-03T14:37:47.882Z</time></trkpt><trkpt lat="39.325995" lon="16.23965"><ele>225.0</ele><time>2026-05-03T14:37:48.882Z</time></trkpt><trkpt lat="39.32566" lon="16.2396433"><ele>224.0</ele><time>2026-05-03T14:37:49.881Z</time></trkpt><trkpt lat="39.3253117" lon="16.23963"><ele>223.0</ele><time>2026-05-03T14:37:50.882Z</time></trkpt><trkpt lat="39.324975" lon="16.2396217"><ele>223.5</ele><time>2026-05-03T14:37:51.882Z</time></trkpt><trkpt lat="39.3246383" lon="16.2396167"><ele>224.0</ele><time>2026-05-03T14:37:52.882Z</time></trkpt><trkpt lat="39.3243033" lon="16.2396133"><ele>224.0</ele><time>2026-05-03T14:37:53.882Z</time></trkpt><trkpt lat="39.32398" lon="16.2396233"><ele>224.0</ele><time>2026-05-03T14:37:54.882Z</time></trkpt><trkpt lat="39.3236483" lon="16.2396333"><ele>222.5</ele><time>2026-05-03T14:37:55.882Z</time></trkpt><trkpt lat="39.3233167" lon="16.239655"><ele>221.0</ele><time>2026-05-03T14:37:56.882Z</time></trkpt><trkpt lat="39.3229917" lon="16.239695"><ele>220.0</ele><time>2026-05-03T14:37:57.881Z</time></trkpt><trkpt lat="39.32267" lon="16.23974"><ele>219.0</ele><time>2026-05-03T14:37:58.882Z</time></trkpt><trkpt lat="39.3223533" lon="16.239795"><ele>217.0</ele><time>2026-05-03T14:37:59.882Z</time></trkpt><trkpt lat="39.3220367" lon="16.2398667"><ele>215.0</ele><time>2026-05-03T14:38:00.882Z</time></trkpt><trkpt lat="39.3217183" lon="16.2399533"><ele>215.0</ele><time>2026-05-03T14:38:01.881Z</time></trkpt><trkpt lat="39.321405" lon="16.2400633"><ele>215.0</ele><time>2026-05-03T14:38:02.882Z</time></trkpt><trkpt lat="39.3210917" lon="16.24018"><ele>214.0</ele><time>2026-05-03T14:38:03.882Z</time></trkpt><trkpt lat="39.3207833" lon="16.24029"><ele>213.0</ele><time>2026-05-03T14:38:04.882Z</time></trkpt><trkpt lat="39.3204717" lon="16.2404033"><ele>212.0</ele><time>2026-05-03T14:38:05.882Z</time></trkpt><trkpt lat="39.3201617" lon="16.2405167"><ele>211.0</ele><time>2026-05-03T14:38:06.882Z</time></trkpt><trkpt lat="39.3198467" lon="16.2406333"><ele>211.5</ele><time>2026-05-03T14:38:07.882Z</time></trkpt><trkpt lat="39.3195367" lon="16.2407483"><ele>212.0</ele><time>2026-05-03T14:38:08.882Z</time></trkpt><trkpt lat="39.319225" lon="16.2408633"><ele>212.0</ele><time>2026-05-03T14:38:09.882Z</time></trkpt><trkpt lat="39.31892" lon="16.2409733"><ele>212.0</ele><time>2026-05-03T14:38:10.882Z</time></trkpt><trkpt lat="39.3186183" lon="16.241075"><ele>211.0</ele><time>2026-05-03T14:38:11.881Z</time></trkpt><trkpt lat="39.31832" lon="16.2411633"><ele>210.0</ele><time>2026-05-03T14:38:12.881Z</time></trkpt><trkpt lat="39.318025" lon="16.241235"><ele>210.0</ele><time>2026-05-03T14:38:13.882Z</time></trkpt><trkpt lat="39.3177217" lon="16.2412983"><ele>210.0</ele><time>2026-05-03T14:38:14.882Z</time></trkpt><trkpt lat="39.3174183" lon="16.2413433"><ele>211.0</ele><time>2026-05-03T14:38:15.882Z</time></trkpt><trkpt lat="39.31711" lon="16.2413683"><ele>212.0</ele><time>2026-05-03T14:38:16.882Z</time></trkpt><trkpt lat="39.3168067" lon="16.2413783"><ele>212.0</ele><time>2026-05-03T14:38:17.882Z</time></trkpt><trkpt lat="39.3165033" lon="16.2413683"><ele>212.0</ele><time>2026-05-03T14:38:18.882Z</time></trkpt><trkpt lat="39.3161983" lon="16.241335"><ele>212.5</ele><time>2026-05-03T14:38:19.882Z</time></trkpt><trkpt lat="39.3158983" lon="16.241275"><ele>213.0</ele><time>2026-05-03T14:38:20.881Z</time></trkpt><trkpt lat="39.3155967" lon="16.2412"><ele>215.5</ele><time>2026-05-03T14:38:21.881Z</time></trkpt><trkpt lat="39.315295" lon="16.2411117"><ele>218.0</ele><time>2026-05-03T14:38:22.882Z</time></trkpt><trkpt lat="39.3149967" lon="16.241"><ele>224.5</ele><time>2026-05-03T14:38:23.881Z</time></trkpt><trkpt lat="39.3147" lon="16.2408717"><ele>231.0</ele><time>2026-05-03T14:38:24.882Z</time></trkpt><trkpt lat="39.3144117" lon="16.2407283"><ele>232.0</ele><time>2026-05-03T14:38:25.882Z</time></trkpt><trkpt lat="39.3141283" lon="16.2405717"><ele>233.0</ele><time>2026-05-03T14:38:26.882Z</time></trkpt><trkpt lat="39.3138567" lon="16.2404017"><ele>233.0</ele><time>2026-05-03T14:38:27.882Z</time></trkpt><trkpt lat="39.3135933" lon="16.24022"><ele>233.0</ele><time>2026-05-03T14:38:28.882Z</time></trkpt><trkpt lat="39.31332" lon="16.240035"><ele>232.5</ele><time>2026-05-03T14:38:29.881Z</time></trkpt><trkpt lat="39.3130483" lon="16.2398467"><ele>232.0</ele><time>2026-05-03T14:38:30.881Z</time></trkpt><trkpt lat="39.31278" lon="16.239655"><ele>232.0</ele><time>2026-05-03T14:38:31.882Z</time></trkpt><trkpt lat="39.3125117" lon="16.2394667"><ele>232.0</ele><time>2026-05-03T14:38:32.882Z</time></trkpt><trkpt lat="39.3122383" lon="16.2392783"><ele>233.5</ele><time>2026-05-03T14:38:33.882Z</time></trkpt><trkpt lat="39.3119617" lon="16.2391067"><ele>235.0</ele><time>2026-05-03T14:38:34.882Z</time></trkpt><trkpt lat="39.3116767" lon="16.23894"><ele>240.5</ele><time>2026-05-03T14:38:35.882Z</time></trkpt><trkpt lat="39.3113933" lon="16.2388017"><ele>246.0</ele><time>2026-05-03T14:38:36.881Z</time></trkpt><trkpt lat="39.3111" lon="16.2386767"><ele>246.0</ele><time>2026-05-03T14:38:37.882Z</time></trkpt><trkpt lat="39.310805" lon="16.2385583"><ele>246.0</ele><time>2026-05-03T14:38:38.882Z</time></trkpt><trkpt lat="39.31051" lon="16.2384517"><ele>251.0</ele><time>2026-05-03T14:38:39.882Z</time></trkpt><trkpt lat="39.3102133" lon="16.2383483"><ele>256.0</ele><time>2026-05-03T14:38:40.882Z</time></trkpt><trkpt lat="39.3099133" lon="16.2382517"><ele>258.0</ele><time>2026-05-03T14:38:41.882Z</time></trkpt><trkpt lat="39.3096267" lon="16.2381567"><ele>260.0</ele><time>2026-05-03T14:38:42.881Z</time></trkpt><trkpt lat="39.309325" lon="16.2380517"><ele>260.0</ele><time>2026-05-03T14:38:43.881Z</time></trkpt><trkpt lat="39.3090367" lon="16.2379567"><ele>260.0</ele><time>2026-05-03T14:38:44.882Z</time></trkpt><trkpt lat="39.308745" lon="16.2378467"><ele>267.0</ele><time>2026-05-03T14:38:45.882Z</time></trkpt><trkpt lat="39.3084583" lon="16.23775"><ele>274.0</ele><time>2026-05-03T14:38:46.882Z</time></trkpt><trkpt lat="39.30817" lon="16.2376483"><ele>281.0</ele><time>2026-05-03T14:38:47.881Z</time></trkpt><trkpt lat="39.307885" lon="16.2375467"><ele>288.0</ele><time>2026-05-03T14:38:48.881Z</time></trkpt><trkpt lat="39.3076" lon="16.237455"><ele>288.0</ele><time>2026-05-03T14:38:49.881Z</time></trkpt><trkpt lat="39.3073133" lon="16.2373633"><ele>288.0</ele><time>2026-05-03T14:38:50.881Z</time></trkpt><trkpt lat="39.30703" lon="16.2372667"><ele>295.0</ele><time>2026-05-03T14:38:51.881Z</time></trkpt><trkpt lat="39.3067483" lon="16.237165"><ele>302.0</ele><time>2026-05-03T14:38:52.882Z</time></trkpt><trkpt lat="39.30646" lon="16.2370433"><ele>307.5</ele><time>2026-05-03T14:38:53.881Z</time></trkpt><trkpt lat="39.3061733" lon="16.2369383"><ele>313.0</ele><time>2026-05-03T14:38:54.881Z</time></trkpt><trkpt lat="39.305885" lon="16.2368317"><ele>313.0</ele><time>2026-05-03T14:38:55.881Z</time></trkpt><trkpt lat="39.3055967" lon="16.2367233"><ele>313.0</ele><time>2026-05-03T14:38:56.882Z</time></trkpt><trkpt lat="39.3053083" lon="16.2366133"><ele>307.0</ele><time>2026-05-03T14:38:57.882Z</time></trkpt><trkpt lat="39.30502" lon="16.236505"><ele>301.0</ele><time>2026-05-03T14:38:58.882Z</time></trkpt><trkpt lat="39.3027733" lon="16.23591"><ele>288.5</ele><time>2026-05-03T14:39:06.883Z</time></trkpt><trkpt lat="39.3025283" lon="16.2358733"><ele>276.0</ele><time>2026-05-03T14:39:07.882Z</time></trkpt><trkpt lat="39.3022533" lon="16.2358333"><ele>273.0</ele><time>2026-05-03T14:39:08.883Z</time></trkpt><trkpt lat="39.3019733" lon="16.2357933"><ele>270.0</ele><time>2026-05-03T14:39:09.882Z</time></trkpt><trkpt lat="39.3016983" lon="16.23577"><ele>269.0</ele><time>2026-05-03T14:39:10.882Z</time></trkpt><trkpt lat="39.3014083" lon="16.2357717"><ele>268.0</ele><time>2026-05-03T14:39:11.882Z</time></trkpt><trkpt lat="39.301115" lon="16.23578"><ele>268.0</ele><time>2026-05-03T14:39:12.882Z</time></trkpt><trkpt lat="39.3008233" lon="16.235805"><ele>268.0</ele><time>2026-05-03T14:39:13.882Z</time></trkpt><trkpt lat="39.3005367" lon="16.2358467"><ele>269.0</ele><time>2026-05-03T14:39:14.883Z</time></trkpt><trkpt lat="39.300255" lon="16.2358933"><ele>270.0</ele><time>2026-05-03T14:39:15.883Z</time></trkpt><trkpt lat="39.299975" lon="16.2359517"><ele>273.5</ele><time>2026-05-03T14:39:16.883Z</time></trkpt><trkpt lat="39.2997083" lon="16.23601"><ele>277.0</ele><time>2026-05-03T14:39:17.883Z</time></trkpt><trkpt lat="39.299435" lon="16.2360967"><ele>277.0</ele><time>2026-05-03T14:39:18.882Z</time></trkpt><trkpt lat="39.2991683" lon="16.236175"><ele>277.0</ele><time>2026-05-03T14:39:19.882Z</time></trkpt><trkpt lat="39.2989" lon="16.2362583"><ele>279.5</ele><time>2026-05-03T14:39:20.883Z</time></trkpt><trkpt lat="39.2986317" lon="16.2363467"><ele>282.0</ele><time>2026-05-03T14:39:21.883Z</time></trkpt><trkpt lat="39.298355" lon="16.2364233"><ele>285.5</ele><time>2026-05-03T14:39:22.883Z</time></trkpt><trkpt lat="39.29808" lon="16.2365017"><ele>289.0</ele><time>2026-05-03T14:39:23.883Z</time></trkpt><trkpt lat="39.2977983" lon="16.2365933"><ele>289.0</ele><time>2026-05-03T14:39:24.883Z</time></trkpt><trkpt lat="39.2975167" lon="16.23667"><ele>289.0</ele><time>2026-05-03T14:39:25.883Z</time></trkpt><trkpt lat="39.2972367" lon="16.2367533"><ele>290.5</ele><time>2026-05-03T14:39:26.883Z</time></trkpt><trkpt lat="39.2969483" lon="16.2368383"><ele>292.0</ele><time>2026-05-03T14:39:27.883Z</time></trkpt><trkpt lat="39.29667" lon="16.2369233"><ele>297.0</ele><time>2026-05-03T14:39:28.883Z</time></trkpt><trkpt lat="39.2963817" lon="16.2370117"><ele>302.0</ele><time>2026-05-03T14:39:29.883Z</time></trkpt><trkpt lat="39.2960933" lon="16.237105"><ele>302.0</ele><time>2026-05-03T14:39:30.883Z</time></trkpt><trkpt lat="39.2958133" lon="16.2371917"><ele>302.0</ele><time>2026-05-03T14:39:31.882Z</time></trkpt><trkpt lat="39.29553" lon="16.2372817"><ele>313.0</ele><time>2026-05-03T14:39:32.883Z</time></trkpt><trkpt lat="39.2952267" lon="16.2373617"><ele>324.0</ele><time>2026-05-03T14:39:33.883Z</time></trkpt><trkpt lat="39.2949367" lon="16.2374417"><ele>335.0</ele><time>2026-05-03T14:39:34.883Z</time></trkpt><trkpt lat="39.2946483" lon="16.2375283"><ele>346.0</ele><time>2026-05-03T14:39:35.882Z</time></trkpt><trkpt lat="39.2943633" lon="16.2376133"><ele>346.0</ele><time>2026-05-03T14:39:36.882Z</time></trkpt><trkpt lat="39.294085" lon="16.2377033"><ele>346.0</ele><time>2026-05-03T14:39:37.883Z</time></trkpt><trkpt lat="39.2937933" lon="16.237795"><ele>348.0</ele><time>2026-05-03T14:39:38.883Z</time></trkpt><trkpt lat="39.2935067" lon="16.237885"><ele>350.0</ele><time>2026-05-03T14:39:39.882Z</time></trkpt><trkpt lat="39.29322" lon="16.2379733"><ele>318.0</ele><time>2026-05-03T14:39:40.883Z</time></trkpt><trkpt lat="39.292045" lon="16.2382867"><ele>318.0</ele><time>2026-05-03T14:39:44.884Z</time></trkpt><trkpt lat="39.2919117" lon="16.23833"><ele>318.0</ele><time>2026-05-03T14:39:45.884Z</time></trkpt><trkpt lat="39.2916467" lon="16.23843"><ele>318.0</ele><time>2026-05-03T14:39:46.883Z</time></trkpt><trkpt lat="39.2913383" lon="16.2385183"><ele>319.5</ele><time>2026-05-03T14:39:47.883Z</time></trkpt><trkpt lat="39.29105" lon="16.23861"><ele>321.0</ele><time>2026-05-03T14:39:48.884Z</time></trkpt><trkpt lat="39.2907767" lon="16.238685"><ele>326.5</ele><time>2026-05-03T14:39:49.884Z</time></trkpt><trkpt lat="39.290495" lon="16.2387817"><ele>332.0</ele><time>2026-05-03T14:39:50.884Z</time></trkpt><trkpt lat="39.2902117" lon="16.2388833"><ele>325.0</ele><time>2026-05-03T14:39:51.884Z</time></trkpt><trkpt lat="39.2899283" lon="16.2389783"><ele>318.0</ele><time>2026-05-03T14:39:52.884Z</time></trkpt><trkpt lat="39.2896533" lon="16.239055"><ele>309.0</ele><time>2026-05-03T14:39:53.884Z</time></trkpt><trkpt lat="39.2893667" lon="16.2391417"><ele>300.0</ele><time>2026-05-03T14:39:54.884Z</time></trkpt><trkpt lat="39.2890917" lon="16.2392317"><ele>285.5</ele><time>2026-05-03T14:39:55.884Z</time></trkpt><trkpt lat="39.2888083" lon="16.2393417"><ele>271.0</ele><time>2026-05-03T14:39:56.883Z</time></trkpt><trkpt lat="39.2885383" lon="16.239465"><ele>271.0</ele><time>2026-05-03T14:39:57.884Z</time></trkpt><trkpt lat="39.2882767" lon="16.2396083"><ele>271.0</ele><time>2026-05-03T14:39:58.884Z</time></trkpt><trkpt lat="39.288015" lon="16.2397633"><ele>276.0</ele><time>2026-05-03T14:39:59.884Z</time></trkpt><trkpt lat="39.287755" lon="16.2399267"><ele>281.0</ele><time>2026-05-03T14:40:00.884Z</time></trkpt><trkpt lat="39.2875117" lon="16.2401067"><ele>281.0</ele><time>2026-05-03T14:40:01.884Z</time></trkpt><trkpt lat="39.28727" lon="16.2403017"><ele>281.0</ele><time>2026-05-03T14:40:02.884Z</time></trkpt><trkpt lat="39.2870383" lon="16.240515"><ele>299.5</ele><time>2026-05-03T14:40:03.884Z</time></trkpt><trkpt lat="39.2868083" lon="16.240725"><ele>318.0</ele><time>2026-05-03T14:40:04.884Z</time></trkpt><trkpt lat="39.28658" lon="16.2409233"><ele>333.5</ele><time>2026-05-03T14:40:05.884Z</time></trkpt><trkpt lat="39.2863483" lon="16.2411467"><ele>349.0</ele><time>2026-05-03T14:40:06.884Z</time></trkpt><trkpt lat="39.2861133" lon="16.241365"><ele>346.5</ele><time>2026-05-03T14:40:07.884Z</time></trkpt><trkpt lat="39.2858867" lon="16.2415383"><ele>344.0</ele><time>2026-05-03T14:40:08.883Z</time></trkpt><trkpt lat="39.2856683" lon="16.2417783"><ele>352.0</ele><time>2026-05-03T14:40:09.884Z</time></trkpt><trkpt lat="39.2854483" lon="16.2420067"><ele>360.0</ele><time>2026-05-03T14:40:10.884Z</time></trkpt><trkpt lat="39.28522" lon="16.2422333"><ele>358.5</ele><time>2026-05-03T14:40:11.884Z</time></trkpt><trkpt lat="39.2849817" lon="16.2424533"><ele>357.0</ele><time>2026-05-03T14:40:12.884Z</time></trkpt><trkpt lat="39.2847433" lon="16.2426667"><ele>366.5</ele><time>2026-05-03T14:40:13.884Z</time></trkpt><trkpt lat="39.2845033" lon="16.2428717"><ele>376.0</ele><time>2026-05-03T14:40:14.884Z</time></trkpt><trkpt lat="39.2842533" lon="16.243065"><ele>368.5</ele><time>2026-05-03T14:40:15.883Z</time></trkpt><trkpt lat="39.2840133" lon="16.243275"><ele>361.0</ele><time>2026-05-03T14:40:16.884Z</time></trkpt><trkpt lat="39.28377" lon="16.243485"><ele>356.0</ele><time>2026-05-03T14:40:17.884Z</time></trkpt><trkpt lat="39.2835083" lon="16.2436667"><ele>351.0</ele><time>2026-05-03T14:40:18.883Z</time></trkpt><trkpt lat="39.28329" lon="16.2439"><ele>352.0</ele><time>2026-05-03T14:40:19.884Z</time></trkpt><trkpt lat="39.28307" lon="16.244145"><ele>353.0</ele><time>2026-05-03T14:40:20.884Z</time></trkpt><trkpt lat="39.2828617" lon="16.2444017"><ele>353.0</ele><time>2026-05-03T14:40:21.884Z</time></trkpt><trkpt lat="39.2826667" lon="16.244665"><ele>353.0</ele><time>2026-05-03T14:40:22.884Z</time></trkpt><trkpt lat="39.282475" lon="16.244925"><ele>355.5</ele><time>2026-05-03T14:40:23.884Z</time></trkpt><trkpt lat="39.2822867" lon="16.245195"><ele>358.0</ele><time>2026-05-03T14:40:24.883Z</time></trkpt><trkpt lat="39.2820983" lon="16.24546"><ele>345.5</ele><time>2026-05-03T14:40:25.883Z</time></trkpt><trkpt lat="39.2819117" lon="16.24572"><ele>333.0</ele><time>2026-05-03T14:40:26.884Z</time></trkpt><trkpt lat="39.2817283" lon="16.2459733"><ele>333.0</ele><time>2026-05-03T14:40:27.884Z</time></trkpt><trkpt lat="39.2815417" lon="16.24622"><ele>333.0</ele><time>2026-05-03T14:40:28.884Z</time></trkpt><trkpt lat="39.28136" lon="16.2464767"><ele>344.0</ele><time>2026-05-03T14:40:29.883Z</time></trkpt><trkpt lat="39.2811767" lon="16.24673"><ele>355.0</ele><time>2026-05-03T14:40:30.884Z</time></trkpt><trkpt lat="39.2809933" lon="16.2469867"><ele>355.0</ele><time>2026-05-03T14:40:31.884Z</time></trkpt><trkpt lat="39.2808067" lon="16.2472383"><ele>355.0</ele><time>2026-05-03T14:40:32.883Z</time></trkpt><trkpt lat="39.2806233" lon="16.2474933"><ele>359.0</ele><time>2026-05-03T14:40:33.884Z</time></trkpt><trkpt lat="39.2804383" lon="16.2477533"><ele>363.0</ele><time>2026-05-03T14:40:34.883Z</time></trkpt><trkpt lat="39.2802483" lon="16.2480033"><ele>351.0</ele><time>2026-05-03T14:40:35.884Z</time></trkpt><trkpt lat="39.28006" lon="16.2482517"><ele>339.0</ele><time>2026-05-03T14:40:36.884Z</time></trkpt><trkpt lat="39.27987" lon="16.248495"><ele>349.0</ele><time>2026-05-03T14:40:37.884Z</time></trkpt><trkpt lat="39.2796733" lon="16.2487133"><ele>359.0</ele><time>2026-05-03T14:40:38.884Z</time></trkpt><trkpt lat="39.2794633" lon="16.2489067"><ele>345.5</ele><time>2026-05-03T14:40:39.883Z</time></trkpt><trkpt lat="39.2792417" lon="16.249065"><ele>332.0</ele><time>2026-05-03T14:40:40.884Z</time></trkpt><trkpt lat="39.2790067" lon="16.24919"><ele>342.0</ele><time>2026-05-03T14:40:41.884Z</time></trkpt><trkpt lat="39.278755" lon="16.2492933"><ele>352.0</ele><time>2026-05-03T14:40:42.884Z</time></trkpt><trkpt lat="39.2785017" lon="16.2493717"><ele>352.0</ele><time>2026-05-03T14:40:43.884Z</time></trkpt><trkpt lat="39.2782483" lon="16.2494217"><ele>352.0</ele><time>2026-05-03T14:40:44.884Z</time></trkpt><trkpt lat="39.2779783" lon="16.2494267"><ele>351.0</ele><time>2026-05-03T14:40:45.884Z</time></trkpt><trkpt lat="39.2777183" lon="16.2494067"><ele>350.0</ele><time>2026-05-03T14:40:46.883Z</time></trkpt><trkpt lat="39.2774617" lon="16.2493433"><ele>337.5</ele><time>2026-05-03T14:40:47.884Z</time></trkpt><trkpt lat="39.277205" lon="16.249245"><ele>325.0</ele><time>2026-05-03T14:40:48.884Z</time></trkpt><trkpt lat="39.27695" lon="16.2491217"><ele>325.0</ele><time>2026-05-03T14:40:49.883Z</time></trkpt><trkpt lat="39.276705" lon="16.2489833"><ele>325.0</ele><time>2026-05-03T14:40:50.884Z</time></trkpt><trkpt lat="39.276485" lon="16.2488283"><ele>336.0</ele><time>2026-05-03T14:40:51.884Z</time></trkpt><trkpt lat="39.276265" lon="16.2486467"><ele>347.0</ele><time>2026-05-03T14:40:52.884Z</time></trkpt><trkpt lat="39.27603" lon="16.2484733"><ele>347.0</ele><time>2026-05-03T14:40:53.884Z</time></trkpt><trkpt lat="39.2757983" lon="16.2483133"><ele>347.0</ele><time>2026-05-03T14:40:54.884Z</time></trkpt><trkpt lat="39.275555" lon="16.248165"><ele>356.5</ele><time>2026-05-03T14:40:55.884Z</time></trkpt><trkpt lat="39.2753117" lon="16.2480283"><ele>366.0</ele><time>2026-05-03T14:40:56.883Z</time></trkpt><trkpt lat="39.275065" lon="16.2479067"><ele>366.0</ele><time>2026-05-03T14:40:57.884Z</time></trkpt><trkpt lat="39.2748167" lon="16.2478083"><ele>366.0</ele><time>2026-05-03T14:40:58.884Z</time></trkpt><trkpt lat="39.2745583" lon="16.24772"><ele>359.5</ele><time>2026-05-03T14:40:59.884Z</time></trkpt><trkpt lat="39.2742967" lon="16.2476317"><ele>353.0</ele><time>2026-05-03T14:41:00.884Z</time></trkpt><trkpt lat="39.2740367" lon="16.2475567"><ele>343.5</ele><time>2026-05-03T14:41:01.884Z</time></trkpt><trkpt lat="39.273785" lon="16.2474617"><ele>334.0</ele><time>2026-05-03T14:41:02.884Z</time></trkpt><trkpt lat="39.2735233" lon="16.24738"><ele>342.0</ele><time>2026-05-03T14:41:03.884Z</time></trkpt><trkpt lat="39.273265" lon="16.2472933"><ele>350.0</ele><time>2026-05-03T14:41:04.884Z</time></trkpt><trkpt lat="39.2730067" lon="16.2472133"><ele>350.0</ele><time>2026-05-03T14:41:05.883Z</time></trkpt><trkpt lat="39.2727533" lon="16.247135"><ele>350.0</ele><time>2026-05-03T14:41:06.884Z</time></trkpt><trkpt lat="39.2725017" lon="16.2470533"><ele>358.0</ele><time>2026-05-03T14:41:07.883Z</time></trkpt><trkpt lat="39.2722483" lon="16.2469783"><ele>366.0</ele><time>2026-05-03T14:41:08.883Z</time></trkpt><trkpt lat="39.272" lon="16.246885"><ele>366.0</ele><time>2026-05-03T14:41:09.883Z</time></trkpt><trkpt lat="39.2717467" lon="16.2468083"><ele>366.0</ele><time>2026-05-03T14:41:10.884Z</time></trkpt><trkpt lat="39.2714917" lon="16.24672"><ele>356.0</ele><time>2026-05-03T14:41:11.884Z</time></trkpt><trkpt lat="39.2712433" lon="16.2466267"><ele>346.0</ele><time>2026-05-03T14:41:12.884Z</time></trkpt><trkpt lat="39.2709867" lon="16.2465583"><ele>346.0</ele><time>2026-05-03T14:41:13.883Z</time></trkpt><trkpt lat="39.27072" lon="16.2465067"><ele>346.0</ele><time>2026-05-03T14:41:14.884Z</time></trkpt><trkpt lat="39.2704567" lon="16.24647"><ele>344.5</ele><time>2026-05-03T14:41:15.883Z</time></trkpt><trkpt lat="39.270195" lon="16.2464667"><ele>343.0</ele><time>2026-05-03T14:41:16.884Z</time></trkpt><trkpt lat="39.26993" lon="16.2464933"><ele>349.5</ele><time>2026-05-03T14:41:17.883Z</time></trkpt><trkpt lat="39.269665" lon="16.2465667"><ele>356.0</ele><time>2026-05-03T14:41:18.884Z</time></trkpt><trkpt lat="39.2694067" lon="16.246665"><ele>356.0</ele><time>2026-05-03T14:41:19.884Z</time></trkpt><trkpt lat="39.269145" lon="16.2467833"><ele>356.0</ele><time>2026-05-03T14:41:20.884Z</time></trkpt><trkpt lat="39.2689067" lon="16.24694"><ele>363.0</ele><time>2026-05-03T14:41:21.884Z</time></trkpt><trkpt lat="39.2686783" lon="16.24712"><ele>370.0</ele><time>2026-05-03T14:41:22.884Z</time></trkpt><trkpt lat="39.268455" lon="16.24732"><ele>370.0</ele><time>2026-05-03T14:41:23.883Z</time></trkpt><trkpt lat="39.2682367" lon="16.2475333"><ele>370.0</ele><time>2026-05-03T14:41:24.883Z</time></trkpt><trkpt lat="39.2680233" lon="16.24775"><ele>374.0</ele><time>2026-05-03T14:41:25.883Z</time></trkpt><trkpt lat="39.2678133" lon="16.2479717"><ele>378.0</ele><time>2026-05-03T14:41:26.884Z</time></trkpt><trkpt lat="39.267605" lon="16.248175"><ele>378.0</ele><time>2026-05-03T14:41:27.884Z</time></trkpt><trkpt lat="39.267405" lon="16.2483683"><ele>378.0</ele><time>2026-05-03T14:41:28.884Z</time></trkpt><trkpt lat="39.2671967" lon="16.2485383"><ele>394.5</ele><time>2026-05-03T14:41:29.884Z</time></trkpt><trkpt lat="39.26699" lon="16.2487"><ele>411.0</ele><time>2026-05-03T14:41:30.884Z</time></trkpt><trkpt lat="39.2667667" lon="16.2488483"><ele>391.5</ele><time>2026-05-03T14:41:31.884Z</time></trkpt><trkpt lat="39.2665483" lon="16.2489767"><ele>372.0</ele><time>2026-05-03T14:41:32.884Z</time></trkpt><trkpt lat="39.26632" lon="16.249105"><ele>372.0</ele><time>2026-05-03T14:41:33.884Z</time></trkpt><trkpt lat="39.2660833" lon="16.249215"><ele>372.0</ele><time>2026-05-03T14:41:34.884Z</time></trkpt><trkpt lat="39.2658383" lon="16.2493167"><ele>391.5</ele><time>2026-05-03T14:41:35.884Z</time></trkpt><trkpt lat="39.2655933" lon="16.2494133"><ele>411.0</ele><time>2026-05-03T14:41:36.884Z</time></trkpt><trkpt lat="39.265345" lon="16.2495083"><ele>411.0</ele><time>2026-05-03T14:41:37.884Z</time></trkpt><trkpt lat="39.2650883" lon="16.2496067"><ele>411.0</ele><time>2026-05-03T14:41:38.884Z</time></trkpt><trkpt lat="39.2648433" lon="16.2497033"><ele>406.0</ele><time>2026-05-03T14:41:39.884Z</time></trkpt><trkpt lat="39.2646" lon="16.2498033"><ele>401.0</ele><time>2026-05-03T14:41:40.884Z</time></trkpt><trkpt lat="39.264355" lon="16.2499133"><ele>401.0</ele><time>2026-05-03T14:41:41.883Z</time></trkpt><trkpt lat="39.26411" lon="16.250015"><ele>401.0</ele><time>2026-05-03T14:41:42.883Z</time></trkpt><trkpt lat="39.2638733" lon="16.250095"><ele>400.5</ele><time>2026-05-03T14:41:43.883Z</time></trkpt><trkpt lat="39.2636367" lon="16.2502083"><ele>400.0</ele><time>2026-05-03T14:41:44.884Z</time></trkpt><trkpt lat="39.26342" lon="16.2503183"><ele>400.0</ele><time>2026-05-03T14:41:45.884Z</time></trkpt><trkpt lat="39.26319" lon="16.2504267"><ele>400.0</ele><time>2026-05-03T14:41:46.883Z</time></trkpt><trkpt lat="39.26297" lon="16.250545"><ele>378.5</ele><time>2026-05-03T14:41:47.884Z</time></trkpt><trkpt lat="39.262745" lon="16.25067"><ele>357.0</ele><time>2026-05-03T14:41:48.884Z</time></trkpt><trkpt lat="39.2625133" lon="16.2508133"><ele>357.0</ele><time>2026-05-03T14:41:49.884Z</time></trkpt><trkpt lat="39.2622883" lon="16.2509633"><ele>357.0</ele><time>2026-05-03T14:41:50.884Z</time></trkpt><trkpt lat="39.2620667" lon="16.2511267"><ele>357.0</ele><time>2026-05-03T14:41:51.884Z</time></trkpt><trkpt lat="39.261855" lon="16.2513017"><ele>357.0</ele><time>2026-05-03T14:41:52.884Z</time></trkpt><trkpt lat="39.26163" lon="16.2514883"><ele>390.0</ele><time>2026-05-03T14:41:53.884Z</time></trkpt><trkpt lat="39.26141" lon="16.25168"><ele>423.0</ele><time>2026-05-03T14:41:54.884Z</time></trkpt><trkpt lat="39.2612067" lon="16.2518717"><ele>423.0</ele><time>2026-05-03T14:41:55.884Z</time></trkpt><trkpt lat="39.260995" lon="16.2520717"><ele>423.0</ele><time>2026-05-03T14:41:56.884Z</time></trkpt><trkpt lat="39.2607633" lon="16.2522883"><ele>436.5</ele><time>2026-05-03T14:41:57.884Z</time></trkpt><trkpt lat="39.2605467" lon="16.252495"><ele>450.0</ele><time>2026-05-03T14:41:58.884Z</time></trkpt><trkpt lat="39.2603383" lon="16.2527"><ele>450.0</ele><time>2026-05-03T14:41:59.884Z</time></trkpt><trkpt lat="39.26013" lon="16.2529083"><ele>450.0</ele><time>2026-05-03T14:42:00.884Z</time></trkpt><trkpt lat="39.2599433" lon="16.25313"><ele>445.5</ele><time>2026-05-03T14:42:01.884Z</time></trkpt><trkpt lat="39.2598" lon="16.2534017"><ele>441.0</ele><time>2026-05-03T14:42:02.883Z</time></trkpt><trkpt lat="39.259655" lon="16.2536733"><ele>441.0</ele><time>2026-05-03T14:42:03.884Z</time></trkpt><trkpt lat="39.25948" lon="16.2539217"><ele>441.0</ele><time>2026-05-03T14:42:04.884Z</time></trkpt><trkpt lat="39.2593" lon="16.2541867"><ele>422.5</ele><time>2026-05-03T14:42:05.884Z</time></trkpt><trkpt lat="39.259185" lon="16.2544933"><ele>404.0</ele><time>2026-05-03T14:42:06.884Z</time></trkpt><trkpt lat="39.259065" lon="16.25478"><ele>420.5</ele><time>2026-05-03T14:42:07.884Z</time></trkpt><trkpt lat="39.258935" lon="16.255065"><ele>437.0</ele><time>2026-05-03T14:42:08.884Z</time></trkpt><trkpt lat="39.25881" lon="16.2553333"><ele>437.0</ele><time>2026-05-03T14:42:09.884Z</time></trkpt><trkpt lat="39.258665" lon="16.255605"><ele>437.0</ele><time>2026-05-03T14:42:10.883Z</time></trkpt><trkpt lat="39.258535" lon="16.2558567"><ele>425.5</ele><time>2026-05-03T14:42:11.884Z</time></trkpt><trkpt lat="39.2584167" lon="16.256115"><ele>414.0</ele><time>2026-05-03T14:42:12.884Z</time></trkpt><trkpt lat="39.2583033" lon="16.2563667"><ele>421.5</ele><time>2026-05-03T14:42:13.884Z</time></trkpt><trkpt lat="39.2581717" lon="16.2565967"><ele>429.0</ele><time>2026-05-03T14:42:14.884Z</time></trkpt><trkpt lat="39.2580517" lon="16.2569033"><ele>429.0</ele><time>2026-05-03T14:42:15.884Z</time></trkpt><trkpt lat="39.2579083" lon="16.2572283"><ele>429.0</ele><time>2026-05-03T14:42:16.883Z</time></trkpt><trkpt lat="39.2577767" lon="16.25754"><ele>424.5</ele><time>2026-05-03T14:42:17.883Z</time></trkpt><trkpt lat="39.2576667" lon="16.25785"><ele>420.0</ele><time>2026-05-03T14:42:18.884Z</time></trkpt><trkpt lat="39.2575767" lon="16.2581717"><ele>414.0</ele><time>2026-05-03T14:42:19.883Z</time></trkpt><trkpt lat="39.25751" lon="16.2584983"><ele>408.0</ele><time>2026-05-03T14:42:20.883Z</time></trkpt><trkpt lat="39.2574467" lon="16.258825"><ele>406.0</ele><time>2026-05-03T14:42:21.884Z</time></trkpt><trkpt lat="39.2573983" lon="16.2591533"><ele>404.0</ele><time>2026-05-03T14:42:22.884Z</time></trkpt><trkpt lat="39.2573617" lon="16.2594933"><ele>400.0</ele><time>2026-05-03T14:42:23.884Z</time></trkpt><trkpt lat="39.25734" lon="16.2598267"><ele>396.0</ele><time>2026-05-03T14:42:24.883Z</time></trkpt><trkpt lat="39.2573267" lon="16.2601517"><ele>396.0</ele><time>2026-05-03T14:42:25.883Z</time></trkpt><trkpt lat="39.2573083" lon="16.2604867"><ele>396.0</ele><time>2026-05-03T14:42:26.884Z</time></trkpt><trkpt lat="39.257305" lon="16.2608183"><ele>385.5</ele><time>2026-05-03T14:42:27.884Z</time></trkpt><trkpt lat="39.2572933" lon="16.2611517"><ele>375.0</ele><time>2026-05-03T14:42:28.884Z</time></trkpt><trkpt lat="39.257275" lon="16.2614833"><ele>372.5</ele><time>2026-05-03T14:42:29.884Z</time></trkpt><trkpt lat="39.2572483" lon="16.2618017"><ele>370.0</ele><time>2026-05-03T14:42:30.884Z</time></trkpt><trkpt lat="39.2572267" lon="16.2621233"><ele>376.0</ele><time>2026-05-03T14:42:31.884Z</time></trkpt><trkpt lat="39.2572083" lon="16.26245"><ele>382.0</ele><time>2026-05-03T14:42:32.884Z</time></trkpt><trkpt lat="39.2571833" lon="16.2627733"><ele>382.0</ele><time>2026-05-03T14:42:33.884Z</time></trkpt><trkpt lat="39.25715" lon="16.263095"><ele>382.0</ele><time>2026-05-03T14:42:34.884Z</time></trkpt><trkpt lat="39.2571117" lon="16.2634167"><ele>402.5</ele><time>2026-05-03T14:42:35.883Z</time></trkpt><trkpt lat="39.2570733" lon="16.2637317"><ele>423.0</ele><time>2026-05-03T14:42:36.884Z</time></trkpt><trkpt lat="39.257035" lon="16.26405"><ele>435.5</ele><time>2026-05-03T14:42:37.883Z</time></trkpt><trkpt lat="39.2569867" lon="16.2643767"><ele>448.0</ele><time>2026-05-03T14:42:38.883Z</time></trkpt><trkpt lat="39.2569417" lon="16.2647017"><ele>443.5</ele><time>2026-05-03T14:42:39.884Z</time></trkpt><trkpt lat="39.256895" lon="16.2650233"><ele>439.0</ele><time>2026-05-03T14:42:40.884Z</time></trkpt><trkpt lat="39.2568367" lon="16.2653417"><ele>434.5</ele><time>2026-05-03T14:42:41.884Z</time></trkpt><trkpt lat="39.2567717" lon="16.26566"><ele>430.0</ele><time>2026-05-03T14:42:42.883Z</time></trkpt><trkpt lat="39.2566983" lon="16.2659783"><ele>430.0</ele><time>2026-05-03T14:42:43.884Z</time></trkpt><trkpt lat="39.2566233" lon="16.2662983"><ele>430.0</ele><time>2026-05-03T14:42:44.884Z</time></trkpt><trkpt lat="39.2565467" lon="16.266615"><ele>423.5</ele><time>2026-05-03T14:42:45.883Z</time></trkpt><trkpt lat="39.256465" lon="16.2669317"><ele>417.0</ele><time>2026-05-03T14:42:46.883Z</time></trkpt><trkpt lat="39.2563767" lon="16.26725"><ele>437.0</ele><time>2026-05-03T14:42:47.884Z</time></trkpt><trkpt lat="39.2562833" lon="16.26757"><ele>457.0</ele><time>2026-05-03T14:42:48.884Z</time></trkpt><trkpt lat="39.2561883" lon="16.2678817"><ele>448.5</ele><time>2026-05-03T14:42:49.883Z</time></trkpt><trkpt lat="39.2560967" lon="16.2681917"><ele>440.0</ele><time>2026-05-03T14:42:50.884Z</time></trkpt><trkpt lat="39.2560117" lon="16.268525"><ele>440.0</ele><time>2026-05-03T14:42:51.884Z</time></trkpt><trkpt lat="39.2559" lon="16.26886"><ele>440.0</ele><time>2026-05-03T14:42:52.883Z</time></trkpt><trkpt lat="39.2557833" lon="16.2691983"><ele>440.0</ele><time>2026-05-03T14:42:53.884Z</time></trkpt><trkpt lat="39.25567" lon="16.269515"><ele>440.0</ele><time>2026-05-03T14:42:54.884Z</time></trkpt><trkpt lat="39.2555567" lon="16.26984"><ele>440.0</ele><time>2026-05-03T14:42:55.884Z</time></trkpt><trkpt lat="39.2554433" lon="16.2701667"><ele>440.0</ele><time>2026-05-03T14:42:56.884Z</time></trkpt><trkpt lat="39.2553233" lon="16.2704867"><ele>435.5</ele><time>2026-05-03T14:42:57.883Z</time></trkpt><trkpt lat="39.2551967" lon="16.2707983"><ele>431.0</ele><time>2026-05-03T14:42:58.884Z</time></trkpt><trkpt lat="39.2550517" lon="16.271105"><ele>431.0</ele><time>2026-05-03T14:42:59.884Z</time></trkpt><trkpt lat="39.2548983" lon="16.2713933"><ele>431.0</ele><time>2026-05-03T14:43:00.884Z</time></trkpt><trkpt lat="39.2547433" lon="16.2716883"><ele>430.5</ele><time>2026-05-03T14:43:01.884Z</time></trkpt><trkpt lat="39.2545933" lon="16.2719833"><ele>430.0</ele><time>2026-05-03T14:43:02.884Z</time></trkpt><trkpt lat="39.25444" lon="16.272285"><ele>432.5</ele><time>2026-05-03T14:43:03.883Z</time></trkpt><trkpt lat="39.25429" lon="16.2725933"><ele>435.0</ele><time>2026-05-03T14:43:04.883Z</time></trkpt><trkpt lat="39.2541383" lon="16.27289"><ele>436.5</ele><time>2026-05-03T14:43:05.884Z</time></trkpt><trkpt lat="39.25399" lon="16.2731883"><ele>438.0</ele><time>2026-05-03T14:43:06.884Z</time></trkpt><trkpt lat="39.25385" lon="16.273485"><ele>451.5</ele><time>2026-05-03T14:43:07.884Z</time></trkpt><trkpt lat="39.25371" lon="16.273795"><ele>465.0</ele><time>2026-05-03T14:43:08.884Z</time></trkpt><trkpt lat="39.2535667" lon="16.2741017"><ele>465.0</ele><time>2026-05-03T14:43:09.884Z</time></trkpt><trkpt lat="39.2534233" lon="16.2744033"><ele>465.0</ele><time>2026-05-03T14:43:10.883Z</time></trkpt><trkpt lat="39.2532833" lon="16.274705"><ele>459.5</ele><time>2026-05-03T14:43:11.884Z</time></trkpt><trkpt lat="39.25314" lon="16.2750033"><ele>454.0</ele><time>2026-05-03T14:43:12.884Z</time></trkpt><trkpt lat="39.2529983" lon="16.2753"><ele>464.0</ele><time>2026-05-03T14:43:13.884Z</time></trkpt><trkpt lat="39.2528517" lon="16.2755917"><ele>474.0</ele><time>2026-05-03T14:43:14.884Z</time></trkpt><trkpt lat="39.2526883" lon="16.27587"><ele>474.0</ele><time>2026-05-03T14:43:15.884Z</time></trkpt><trkpt lat="39.25252" lon="16.276145"><ele>474.0</ele><time>2026-05-03T14:43:16.883Z</time></trkpt><trkpt lat="39.2523467" lon="16.2764117"><ele>477.5</ele><time>2026-05-03T14:43:17.884Z</time></trkpt><trkpt lat="39.2521617" lon="16.27669"><ele>481.0</ele><time>2026-05-03T14:43:18.884Z</time></trkpt><trkpt lat="39.251975" lon="16.2769467"><ele>481.0</ele><time>2026-05-03T14:43:19.884Z</time></trkpt><trkpt lat="39.2517767" lon="16.2772033"><ele>481.0</ele><time>2026-05-03T14:43:20.884Z</time></trkpt><trkpt lat="39.2515733" lon="16.2774517"><ele>482.0</ele><time>2026-05-03T14:43:21.884Z</time></trkpt><trkpt lat="39.2513667" lon="16.2776883"><ele>483.0</ele><time>2026-05-03T14:43:22.884Z</time></trkpt><trkpt lat="39.2511583" lon="16.2779233"><ele>477.0</ele><time>2026-05-03T14:43:23.884Z</time></trkpt><trkpt lat="39.2509433" lon="16.2781517"><ele>471.0</ele><time>2026-05-03T14:43:24.884Z</time></trkpt><trkpt lat="39.250725" lon="16.2783617"><ele>481.5</ele><time>2026-05-03T14:43:25.884Z</time></trkpt><trkpt lat="39.2505033" lon="16.2785567"><ele>492.0</ele><time>2026-05-03T14:43:26.884Z</time></trkpt><trkpt lat="39.2502783" lon="16.2787517"><ele>485.0</ele><time>2026-05-03T14:43:27.884Z</time></trkpt><trkpt lat="39.2500467" lon="16.2789367"><ele>478.0</ele><time>2026-05-03T14:43:28.884Z</time></trkpt><trkpt lat="39.2498067" lon="16.2791167"><ele>485.0</ele><time>2026-05-03T14:43:29.883Z</time></trkpt><trkpt lat="39.2495633" lon="16.279285"><ele>492.0</ele><time>2026-05-03T14:43:30.883Z</time></trkpt><trkpt lat="39.2493317" lon="16.279445"><ele>492.0</ele><time>2026-05-03T14:43:31.884Z</time></trkpt><trkpt lat="39.2490983" lon="16.2796183"><ele>492.0</ele><time>2026-05-03T14:43:32.884Z</time></trkpt><trkpt lat="39.2488583" lon="16.2797967"><ele>490.5</ele><time>2026-05-03T14:43:33.884Z</time></trkpt><trkpt lat="39.2486217" lon="16.2799867"><ele>489.0</ele><time>2026-05-03T14:43:34.883Z</time></trkpt><trkpt lat="39.2483833" lon="16.2801817"><ele>489.0</ele><time>2026-05-03T14:43:35.884Z</time></trkpt><trkpt lat="39.24816" lon="16.2803717"><ele>489.0</ele><time>2026-05-03T14:43:36.883Z</time></trkpt><trkpt lat="39.2479383" lon="16.2805717"><ele>493.5</ele><time>2026-05-03T14:43:37.883Z</time></trkpt><trkpt lat="39.2477233" lon="16.2807817"><ele>498.0</ele><time>2026-05-03T14:43:38.883Z</time></trkpt><trkpt lat="39.2475067" lon="16.2809983"><ele>507.0</ele><time>2026-05-03T14:43:39.884Z</time></trkpt><trkpt lat="39.2472933" lon="16.2812117"><ele>516.0</ele><time>2026-05-03T14:43:40.883Z</time></trkpt><trkpt lat="39.247065" lon="16.2814217"><ele>510.5</ele><time>2026-05-03T14:43:41.884Z</time></trkpt><trkpt lat="39.24684" lon="16.28163"><ele>505.0</ele><time>2026-05-03T14:43:42.884Z</time></trkpt><trkpt lat="39.2466067" lon="16.2818283"><ele>511.0</ele><time>2026-05-03T14:43:43.884Z</time></trkpt><trkpt lat="39.2463717" lon="16.2820183"><ele>517.0</ele><time>2026-05-03T14:43:44.884Z</time></trkpt><trkpt lat="39.2461517" lon="16.2822183"><ele>516.0</ele><time>2026-05-03T14:43:45.884Z</time></trkpt><trkpt lat="39.2459233" lon="16.2824333"><ele>515.0</ele><time>2026-05-03T14:43:46.884Z</time></trkpt><trkpt lat="39.2456917" lon="16.2826433"><ele>518.0</ele><time>2026-05-03T14:43:47.884Z</time></trkpt><trkpt lat="39.24547" lon="16.282845"><ele>521.0</ele><time>2026-05-03T14:43:48.884Z</time></trkpt><trkpt lat="39.245245" lon="16.283045"><ele>517.0</ele><time>2026-05-03T14:43:49.884Z</time></trkpt><trkpt lat="39.2450167" lon="16.2832483"><ele>513.0</ele><time>2026-05-03T14:43:50.884Z</time></trkpt><trkpt lat="39.2447967" lon="16.283445"><ele>519.5</ele><time>2026-05-03T14:43:51.884Z</time></trkpt><trkpt lat="39.24458" lon="16.2836467"><ele>526.0</ele><time>2026-05-03T14:43:52.884Z</time></trkpt><trkpt lat="39.2443683" lon="16.2838583"><ele>528.5</ele><time>2026-05-03T14:43:53.884Z</time></trkpt><trkpt lat="39.244165" lon="16.2840667"><ele>531.0</ele><time>2026-05-03T14:43:54.884Z</time></trkpt><trkpt lat="39.24396" lon="16.284275"><ele>531.0</ele><time>2026-05-03T14:43:55.884Z</time></trkpt><trkpt lat="39.2437467" lon="16.2844933"><ele>531.0</ele><time>2026-05-03T14:43:56.884Z</time></trkpt><trkpt lat="39.2435317" lon="16.2847133"><ele>529.5</ele><time>2026-05-03T14:43:57.884Z</time></trkpt><trkpt lat="39.24334" lon="16.2849617"><ele>528.0</ele><time>2026-05-03T14:43:58.884Z</time></trkpt><trkpt lat="39.2430833" lon="16.285195"><ele>528.0</ele><time>2026-05-03T14:43:59.884Z</time></trkpt><trkpt lat="39.2429383" lon="16.2854917"><ele>528.0</ele><time>2026-05-03T14:44:00.884Z</time></trkpt><trkpt lat="39.24277" lon="16.2857767"><ele>529.5</ele><time>2026-05-03T14:44:01.884Z</time></trkpt><trkpt lat="39.2426167" lon="16.2860783"><ele>531.0</ele><time>2026-05-03T14:44:02.884Z</time></trkpt><trkpt lat="39.2424467" lon="16.2863667"><ele>529.0</ele><time>2026-05-03T14:44:03.884Z</time></trkpt><trkpt lat="39.2422733" lon="16.2866517"><ele>527.0</ele><time>2026-05-03T14:44:04.884Z</time></trkpt><trkpt lat="39.2421" lon="16.2869333"><ele>527.0</ele><time>2026-05-03T14:44:05.884Z</time></trkpt><trkpt lat="39.24191" lon="16.2872033"><ele>527.0</ele><time>2026-05-03T14:44:06.883Z</time></trkpt><trkpt lat="39.2417333" lon="16.2874767"><ele>528.0</ele><time>2026-05-03T14:44:07.883Z</time></trkpt><trkpt lat="39.24156" lon="16.2877617"><ele>529.0</ele><time>2026-05-03T14:44:08.884Z</time></trkpt><trkpt lat="39.2413883" lon="16.2880467"><ele>533.5</ele><time>2026-05-03T14:44:09.883Z</time></trkpt><trkpt lat="39.24121" lon="16.28832"><ele>538.0</ele><time>2026-05-03T14:44:10.883Z</time></trkpt><trkpt lat="39.2410283" lon="16.2885867"><ele>538.0</ele><time>2026-05-03T14:44:11.884Z</time></trkpt><trkpt lat="39.2408367" lon="16.2888283"><ele>538.0</ele><time>2026-05-03T14:44:12.884Z</time></trkpt><trkpt lat="39.2406433" lon="16.2890667"><ele>533.5</ele><time>2026-05-03T14:44:13.883Z</time></trkpt><trkpt lat="39.2404333" lon="16.2892883"><ele>529.0</ele><time>2026-05-03T14:44:14.884Z</time></trkpt><trkpt lat="39.2402317" lon="16.289505"><ele>529.0</ele><time>2026-05-03T14:44:15.883Z</time></trkpt><trkpt lat="39.2400183" lon="16.2897217"><ele>529.0</ele><time>2026-05-03T14:44:16.883Z</time></trkpt><trkpt lat="39.2397967" lon="16.2899217"><ele>532.0</ele><time>2026-05-03T14:44:17.884Z</time></trkpt><trkpt lat="39.2395867" lon="16.290125"><ele>535.0</ele><time>2026-05-03T14:44:18.883Z</time></trkpt><trkpt lat="39.2393833" lon="16.29033"><ele>535.0</ele><time>2026-05-03T14:44:19.884Z</time></trkpt><trkpt lat="39.2391733" lon="16.29054"><ele>535.0</ele><time>2026-05-03T14:44:20.884Z</time></trkpt><trkpt lat="39.2389683" lon="16.29076"><ele>534.5</ele><time>2026-05-03T14:44:21.883Z</time></trkpt><trkpt lat="39.2387733" lon="16.2910017"><ele>534.0</ele><time>2026-05-03T14:44:22.884Z</time></trkpt><trkpt lat="39.23857" lon="16.2912433"><ele>541.5</ele><time>2026-05-03T14:44:23.884Z</time></trkpt><trkpt lat="39.23837" lon="16.2914933"><ele>549.0</ele><time>2026-05-03T14:44:24.884Z</time></trkpt><trkpt lat="39.2381733" lon="16.2917567"><ele>547.5</ele><time>2026-05-03T14:44:25.884Z</time></trkpt><trkpt lat="39.2379767" lon="16.292025"><ele>546.0</ele><time>2026-05-03T14:44:26.884Z</time></trkpt><trkpt lat="39.2377833" lon="16.2923017"><ele>546.0</ele><time>2026-05-03T14:44:27.884Z</time></trkpt><trkpt lat="39.2375833" lon="16.29258"><ele>546.0</ele><time>2026-05-03T14:44:28.884Z</time></trkpt><trkpt lat="39.2373767" lon="16.2928433"><ele>544.0</ele><time>2026-05-03T14:44:29.884Z</time></trkpt><trkpt lat="39.23717" lon="16.2931133"><ele>542.0</ele><time>2026-05-03T14:44:30.884Z</time></trkpt><trkpt lat="39.23697" lon="16.293385"><ele>542.0</ele><time>2026-05-03T14:44:31.884Z</time></trkpt><trkpt lat="39.236765" lon="16.29366"><ele>542.0</ele><time>2026-05-03T14:44:32.884Z</time></trkpt><trkpt lat="39.2365683" lon="16.2939383"><ele>542.0</ele><time>2026-05-03T14:44:33.883Z</time></trkpt><trkpt lat="39.2363683" lon="16.2942167"><ele>542.0</ele><time>2026-05-03T14:44:34.883Z</time></trkpt><trkpt lat="39.2361667" lon="16.29449"><ele>551.0</ele><time>2026-05-03T14:44:35.884Z</time></trkpt><trkpt lat="39.2359683" lon="16.294755"><ele>560.0</ele><time>2026-05-03T14:44:36.883Z</time></trkpt><trkpt lat="39.235775" lon="16.2950167"><ele>551.0</ele><time>2026-05-03T14:44:37.884Z</time></trkpt><trkpt lat="39.235585" lon="16.295285"><ele>542.0</ele><time>2026-05-03T14:44:38.883Z</time></trkpt><trkpt lat="39.2353983" lon="16.2955533"><ele>552.0</ele><time>2026-05-03T14:44:39.884Z</time></trkpt><trkpt lat="39.235205" lon="16.295825"><ele>562.0</ele><time>2026-05-03T14:44:40.884Z</time></trkpt><trkpt lat="39.235015" lon="16.2960867"><ele>562.0</ele><time>2026-05-03T14:44:41.884Z</time></trkpt><trkpt lat="39.234815" lon="16.29635"><ele>562.0</ele><time>2026-05-03T14:44:42.884Z</time></trkpt><trkpt lat="39.2346167" lon="16.2966133"><ele>561.5</ele><time>2026-05-03T14:44:43.884Z</time></trkpt><trkpt lat="39.2344167" lon="16.2968917"><ele>561.0</ele><time>2026-05-03T14:44:44.884Z</time></trkpt><trkpt lat="39.2342167" lon="16.29716"><ele>559.5</ele><time>2026-05-03T14:44:45.884Z</time></trkpt><trkpt lat="39.2340167" lon="16.2974483"><ele>558.0</ele><time>2026-05-03T14:44:46.884Z</time></trkpt><trkpt lat="39.2338167" lon="16.2977217"><ele>558.0</ele><time>2026-05-03T14:44:47.883Z</time></trkpt><trkpt lat="39.233615" lon="16.29799"><ele>558.0</ele><time>2026-05-03T14:44:48.884Z</time></trkpt><trkpt lat="39.2334117" lon="16.2982717"><ele>557.5</ele><time>2026-05-03T14:44:49.883Z</time></trkpt><trkpt lat="39.2332117" lon="16.2985483"><ele>557.0</ele><time>2026-05-03T14:44:50.884Z</time></trkpt><trkpt lat="39.2330067" lon="16.2988283"><ele>564.5</ele><time>2026-05-03T14:44:51.884Z</time></trkpt><trkpt lat="39.2328" lon="16.2991017"><ele>572.0</ele><time>2026-05-03T14:44:52.884Z</time></trkpt><trkpt lat="39.2326" lon="16.299375"><ele>572.0</ele><time>2026-05-03T14:44:53.884Z</time></trkpt><trkpt lat="39.2324033" lon="16.299655"><ele>572.0</ele><time>2026-05-03T14:44:54.884Z</time></trkpt><trkpt lat="39.2322033" lon="16.2999267"><ele>571.5</ele><time>2026-05-03T14:44:55.884Z</time></trkpt><trkpt lat="39.2320133" lon="16.3001983"><ele>571.0</ele><time>2026-05-03T14:44:56.884Z</time></trkpt><trkpt lat="39.2318167" lon="16.3004633"><ele>571.5</ele><time>2026-05-03T14:44:57.883Z</time></trkpt><trkpt lat="39.231625" lon="16.3007383"><ele>572.0</ele><time>2026-05-03T14:44:58.884Z</time></trkpt><trkpt lat="39.23143" lon="16.301005"><ele>572.0</ele><time>2026-05-03T14:44:59.884Z</time></trkpt><trkpt lat="39.231235" lon="16.3012683"><ele>572.0</ele><time>2026-05-03T14:45:00.884Z</time></trkpt><trkpt lat="39.2310467" lon="16.301535"><ele>577.0</ele><time>2026-05-03T14:45:01.884Z</time></trkpt><trkpt lat="39.230855" lon="16.301795"><ele>582.0</ele><time>2026-05-03T14:45:02.883Z</time></trkpt><trkpt lat="39.2306617" lon="16.30205"><ele>582.5</ele><time>2026-05-03T14:45:03.884Z</time></trkpt><trkpt lat="39.23046" lon="16.3023067"><ele>583.0</ele><time>2026-05-03T14:45:04.883Z</time></trkpt><trkpt lat="39.23025" lon="16.3025533"><ele>583.0</ele><time>2026-05-03T14:45:05.883Z</time></trkpt><trkpt lat="39.2300217" lon="16.3027717"><ele>583.0</ele><time>2026-05-03T14:45:06.884Z</time></trkpt><trkpt lat="39.2297933" lon="16.3029733"><ele>587.0</ele><time>2026-05-03T14:45:07.884Z</time></trkpt><trkpt lat="39.22956" lon="16.3031483"><ele>591.0</ele><time>2026-05-03T14:45:08.883Z</time></trkpt><trkpt lat="39.229325" lon="16.3033133"><ele>591.0</ele><time>2026-05-03T14:45:09.884Z</time></trkpt><trkpt lat="39.2290767" lon="16.3034533"><ele>591.0</ele><time>2026-05-03T14:45:10.884Z</time></trkpt><trkpt lat="39.22883" lon="16.3035667"><ele>589.5</ele><time>2026-05-03T14:45:11.884Z</time></trkpt><trkpt lat="39.2285867" lon="16.3036633"><ele>588.0</ele><time>2026-05-03T14:45:12.884Z</time></trkpt><trkpt lat="39.2283433" lon="16.303735"><ele>589.5</ele><time>2026-05-03T14:45:13.883Z</time></trkpt><trkpt lat="39.2281017" lon="16.3038"><ele>591.0</ele><time>2026-05-03T14:45:14.883Z</time></trkpt><trkpt lat="39.227865" lon="16.3038367"><ele>591.0</ele><time>2026-05-03T14:45:15.884Z</time></trkpt><trkpt lat="39.22763" lon="16.3038633"><ele>591.0</ele><time>2026-05-03T14:45:16.884Z</time></trkpt><trkpt lat="39.2274" lon="16.3038867"><ele>593.6666666666666</ele><time>2026-05-03T14:45:17.884Z</time></trkpt><trkpt lat="39.2271867" lon="16.3039083"><ele>596.3333333333333</ele><time>2026-05-03T14:45:18.884Z</time></trkpt><trkpt lat="39.2269817" lon="16.30394"><ele>599.0</ele><time>2026-05-03T14:45:19.884Z</time></trkpt><trkpt lat="39.226785" lon="16.3039683"><ele>601.0</ele><time>2026-05-03T14:45:20.883Z</time></trkpt><trkpt lat="39.22659" lon="16.3039933"><ele>603.0</ele><time>2026-05-03T14:45:21.883Z</time></trkpt><trkpt lat="39.2264033" lon="16.3040117"><ele>605.0</ele><time>2026-05-03T14:45:22.884Z</time></trkpt><trkpt lat="39.2262233" lon="16.3040383"><ele>606.3333333333333</ele><time>2026-05-03T14:45:23.884Z</time></trkpt><trkpt lat="39.2260433" lon="16.3040533"><ele>607.6666666666666</ele><time>2026-05-03T14:45:24.883Z</time></trkpt><trkpt lat="39.2258733" lon="16.3040717"><ele>609.0</ele><time>2026-05-03T14:45:25.884Z</time></trkpt><trkpt lat="39.225705" lon="16.3040883"><ele>610.3333333333334</ele><time>2026-05-03T14:45:26.883Z</time></trkpt><trkpt lat="39.22554" lon="16.3041083"><ele>611.6666666666667</ele><time>2026-05-03T14:45:27.884Z</time></trkpt><trkpt lat="39.2253817" lon="16.3041233"><ele>613.0</ele><time>2026-05-03T14:45:28.884Z</time></trkpt><trkpt lat="39.225225" lon="16.304135"><ele>613.0</ele><time>2026-05-03T14:45:29.883Z</time></trkpt><trkpt lat="39.2250683" lon="16.304155"><ele>613.0</ele><time>2026-05-03T14:45:30.884Z</time></trkpt><trkpt lat="39.2249033" lon="16.3041733"><ele>613.0</ele><time>2026-05-03T14:45:31.884Z</time></trkpt><trkpt lat="39.2247467" lon="16.3041983"><ele>615.0</ele><time>2026-05-03T14:45:32.884Z</time></trkpt><trkpt lat="39.224585" lon="16.3042183"><ele>617.0</ele><time>2026-05-03T14:45:33.884Z</time></trkpt><trkpt lat="39.2244283" lon="16.3042367"><ele>619.0</ele><time>2026-05-03T14:45:34.884Z</time></trkpt><trkpt lat="39.22426" lon="16.3042567"><ele>619.0</ele><time>2026-05-03T14:45:35.884Z</time></trkpt><trkpt lat="39.224095" lon="16.304285"><ele>619.0</ele><time>2026-05-03T14:45:36.884Z</time></trkpt><trkpt lat="39.223925" lon="16.3043033"><ele>619.0</ele><time>2026-05-03T14:45:37.884Z</time></trkpt><trkpt lat="39.2237533" lon="16.3043233"><ele>620.0</ele><time>2026-05-03T14:45:38.883Z</time></trkpt><trkpt lat="39.2235867" lon="16.304335"><ele>621.0</ele><time>2026-05-03T14:45:39.884Z</time></trkpt><trkpt lat="39.223405" lon="16.304355"><ele>622.0</ele><time>2026-05-03T14:45:40.883Z</time></trkpt><trkpt lat="39.2232167" lon="16.3043817"><ele>622.6666666666667</ele><time>2026-05-03T14:45:41.884Z</time></trkpt><trkpt lat="39.2230367" lon="16.3043933"><ele>623.3333333333334</ele><time>2026-05-03T14:45:42.884Z</time></trkpt><trkpt lat="39.222845" lon="16.3044183"><ele>624.0</ele><time>2026-05-03T14:45:43.883Z</time></trkpt><trkpt lat="39.22266" lon="16.3044383"><ele>624.0</ele><time>2026-05-03T14:45:44.884Z</time></trkpt><trkpt lat="39.222455" lon="16.304455"><ele>624.0</ele><time>2026-05-03T14:45:45.884Z</time></trkpt><trkpt lat="39.2222583" lon="16.3044833"><ele>624.0</ele><time>2026-05-03T14:45:46.884Z</time></trkpt><trkpt lat="39.22206" lon="16.3045033"><ele>623.6666666666666</ele><time>2026-05-03T14:45:47.884Z</time></trkpt><trkpt lat="39.2218633" lon="16.304525"><ele>623.3333333333333</ele><time>2026-05-03T14:45:48.883Z</time></trkpt><trkpt lat="39.2216683" lon="16.3045533"><ele>623.0</ele><time>2026-05-03T14:45:49.883Z</time></trkpt><trkpt lat="39.221285" lon="16.3046067"><ele>623.6666666666666</ele><time>2026-05-03T14:45:51.884Z</time></trkpt><trkpt lat="39.2210867" lon="16.3046367"><ele>624.3333333333334</ele><time>2026-05-03T14:45:52.884Z</time></trkpt><trkpt lat="39.220885" lon="16.30466"><ele>625.0</ele><time>2026-05-03T14:45:53.883Z</time></trkpt><trkpt lat="39.2206783" lon="16.3046883"><ele>624.6666666666667</ele><time>2026-05-03T14:45:54.883Z</time></trkpt><trkpt lat="39.2204783" lon="16.3047167"><ele>624.3333333333334</ele><time>2026-05-03T14:45:55.883Z</time></trkpt><trkpt lat="39.220275" lon="16.3047367"><ele>624.0</ele><time>2026-05-03T14:45:56.884Z</time></trkpt><trkpt lat="39.2200783" lon="16.3047583"><ele>625.0</ele><time>2026-05-03T14:45:57.884Z</time></trkpt><trkpt lat="39.21987" lon="16.3047883"><ele>626.0</ele><time>2026-05-03T14:45:58.884Z</time></trkpt><trkpt lat="39.219665" lon="16.3048133"><ele>627.0</ele><time>2026-05-03T14:45:59.884Z</time></trkpt><trkpt lat="39.2194583" lon="16.3048317"><ele>628.0</ele><time>2026-05-03T14:46:00.884Z</time></trkpt><trkpt lat="39.219245" lon="16.3048567"><ele>629.0</ele><time>2026-05-03T14:46:01.884Z</time></trkpt><trkpt lat="39.219025" lon="16.3048833"><ele>630.0</ele><time>2026-05-03T14:46:02.884Z</time></trkpt><trkpt lat="39.2188017" lon="16.304915"><ele>631.6666666666666</ele><time>2026-05-03T14:46:03.884Z</time></trkpt><trkpt lat="39.21858" lon="16.304945"><ele>633.3333333333333</ele><time>2026-05-03T14:46:04.883Z</time></trkpt><trkpt lat="39.2183617" lon="16.3049767"><ele>635.0</ele><time>2026-05-03T14:46:05.884Z</time></trkpt><trkpt lat="39.2181533" lon="16.3050117"><ele>636.0</ele><time>2026-05-03T14:46:06.884Z</time></trkpt><trkpt lat="39.2179483" lon="16.3050467"><ele>637.0</ele><time>2026-05-03T14:46:07.884Z</time></trkpt><trkpt lat="39.2177467" lon="16.30508"><ele>638.0</ele><time>2026-05-03T14:46:08.883Z</time></trkpt><trkpt lat="39.2175567" lon="16.30512"><ele>638.0</ele><time>2026-05-03T14:46:09.883Z</time></trkpt><trkpt lat="39.2173733" lon="16.30516"><ele>638.0</ele><time>2026-05-03T14:46:10.884Z</time></trkpt><trkpt lat="39.2171867" lon="16.3052083"><ele>638.0</ele><time>2026-05-03T14:46:11.883Z</time></trkpt><trkpt lat="39.2169967" lon="16.3052517"><ele>639.6666666666666</ele><time>2026-05-03T14:46:12.884Z</time></trkpt><trkpt lat="39.2168167" lon="16.3052917"><ele>641.3333333333334</ele><time>2026-05-03T14:46:13.884Z</time></trkpt><trkpt lat="39.2166383" lon="16.30534"><ele>643.0</ele><time>2026-05-03T14:46:14.883Z</time></trkpt><trkpt lat="39.2164633" lon="16.3053983"><ele>643.0</ele><time>2026-05-03T14:46:15.883Z</time></trkpt><trkpt lat="39.2162833" lon="16.3054583"><ele>643.0</ele><time>2026-05-03T14:46:16.883Z</time></trkpt><trkpt lat="39.21611" lon="16.30552"><ele>643.0</ele><time>2026-05-03T14:46:17.884Z</time></trkpt><trkpt lat="39.21594" lon="16.30558"><ele>642.0</ele><time>2026-05-03T14:46:18.883Z</time></trkpt><trkpt lat="39.2157667" lon="16.3056433"><ele>641.0</ele><time>2026-05-03T14:46:19.884Z</time></trkpt><trkpt lat="39.215595" lon="16.3056983"><ele>640.0</ele><time>2026-05-03T14:46:20.883Z</time></trkpt><trkpt lat="39.2154233" lon="16.3057583"><ele>638.6666666666667</ele><time>2026-05-03T14:46:21.883Z</time></trkpt><trkpt lat="39.2152567" lon="16.3058167"><ele>637.3333333333334</ele><time>2026-05-03T14:46:22.884Z</time></trkpt><trkpt lat="39.2150967" lon="16.3058883"><ele>636.0</ele><time>2026-05-03T14:46:23.884Z</time></trkpt><trkpt lat="39.2149267" lon="16.3059533"><ele>633.6666666666666</ele><time>2026-05-03T14:46:24.884Z</time></trkpt><trkpt lat="39.2147567" lon="16.30603"><ele>631.3333333333333</ele><time>2026-05-03T14:46:25.884Z</time></trkpt><trkpt lat="39.2145767" lon="16.30611"><ele>629.0</ele><time>2026-05-03T14:46:26.884Z</time></trkpt><trkpt lat="39.214395" lon="16.3061867"><ele>629.0</ele><time>2026-05-03T14:46:27.883Z</time></trkpt><trkpt lat="39.2142217" lon="16.306265"><ele>629.0</ele><time>2026-05-03T14:46:28.884Z</time></trkpt><trkpt lat="39.2140367" lon="16.306335"><ele>629.0</ele><time>2026-05-03T14:46:29.883Z</time></trkpt><trkpt lat="39.21385" lon="16.306405"><ele>629.6666666666666</ele><time>2026-05-03T14:46:30.884Z</time></trkpt><trkpt lat="39.21366" lon="16.30648"><ele>630.3333333333334</ele><time>2026-05-03T14:46:31.884Z</time></trkpt><trkpt lat="39.2134767" lon="16.3065533"><ele>631.0</ele><time>2026-05-03T14:46:32.883Z</time></trkpt><trkpt lat="39.213295" lon="16.3066267"><ele>632.6666666666667</ele><time>2026-05-03T14:46:33.884Z</time></trkpt><trkpt lat="39.2131033" lon="16.3067083"><ele>634.3333333333334</ele><time>2026-05-03T14:46:34.884Z</time></trkpt><trkpt lat="39.21291" lon="16.3067833"><ele>636.0</ele><time>2026-05-03T14:46:35.883Z</time></trkpt><trkpt lat="39.212715" lon="16.30686"><ele>636.0</ele><time>2026-05-03T14:46:36.884Z</time></trkpt><trkpt lat="39.2125167" lon="16.30694"><ele>636.0</ele><time>2026-05-03T14:46:37.884Z</time></trkpt><trkpt lat="39.2123117" lon="16.30703"><ele>636.0</ele><time>2026-05-03T14:46:38.884Z</time></trkpt><trkpt lat="39.2121017" lon="16.30712"><ele>636.0</ele><time>2026-05-03T14:46:39.883Z</time></trkpt><trkpt lat="39.211895" lon="16.3072033"><ele>636.0</ele><time>2026-05-03T14:46:40.883Z</time></trkpt><trkpt lat="39.21168" lon="16.3072883"><ele>636.0</ele><time>2026-05-03T14:46:41.884Z</time></trkpt><trkpt lat="39.21147" lon="16.30737"><ele>636.0</ele><time>2026-05-03T14:46:42.883Z</time></trkpt><trkpt lat="39.2112567" lon="16.3074533"><ele>636.0</ele><time>2026-05-03T14:46:43.884Z</time></trkpt><trkpt lat="39.2110433" lon="16.307535"><ele>636.0</ele><time>2026-05-03T14:46:44.883Z</time></trkpt><trkpt lat="39.2108383" lon="16.30762"><ele>636.0</ele><time>2026-05-03T14:46:45.883Z</time></trkpt><trkpt lat="39.2106183" lon="16.3077083"><ele>636.0</ele><time>2026-05-03T14:46:46.884Z</time></trkpt><trkpt lat="39.2103933" lon="16.3077933"><ele>636.0</ele><time>2026-05-03T14:46:47.884Z</time></trkpt><trkpt lat="39.2101683" lon="16.3079017"><ele>636.0</ele><time>2026-05-03T14:46:48.884Z</time></trkpt><trkpt lat="39.2099283" lon="16.308005"><ele>634.0</ele><time>2026-05-03T14:46:49.884Z</time></trkpt><trkpt lat="39.2096867" lon="16.3080967"><ele>632.0</ele><time>2026-05-03T14:46:50.883Z</time></trkpt><trkpt lat="39.2094317" lon="16.3081967"><ele>632.0</ele><time>2026-05-03T14:46:51.884Z</time></trkpt><trkpt lat="39.20917" lon="16.3083017"><ele>632.0</ele><time>2026-05-03T14:46:52.884Z</time></trkpt><trkpt lat="39.2089083" lon="16.308415"><ele>629.5</ele><time>2026-05-03T14:46:53.883Z</time></trkpt><trkpt lat="39.2086383" lon="16.3085217"><ele>627.0</ele><time>2026-05-03T14:46:54.884Z</time></trkpt><trkpt lat="39.2083617" lon="16.3086317"><ele>624.5</ele><time>2026-05-03T14:46:55.884Z</time></trkpt><trkpt lat="39.20808" lon="16.308745"><ele>622.0</ele><time>2026-05-03T14:46:56.883Z</time></trkpt><trkpt lat="39.2078067" lon="16.3088617"><ele>622.5</ele><time>2026-05-03T14:46:57.884Z</time></trkpt><trkpt lat="39.20753" lon="16.3089783"><ele>623.0</ele><time>2026-05-03T14:46:58.884Z</time></trkpt><trkpt lat="39.2072483" lon="16.3091"><ele>621.5</ele><time>2026-05-03T14:46:59.884Z</time></trkpt><trkpt lat="39.2069667" lon="16.3092117"><ele>620.0</ele><time>2026-05-03T14:47:00.884Z</time></trkpt><trkpt lat="39.2066883" lon="16.3093333"><ele>620.0</ele><time>2026-05-03T14:47:01.884Z</time></trkpt><trkpt lat="39.20641" lon="16.3094517"><ele>620.0</ele><time>2026-05-03T14:47:02.884Z</time></trkpt><trkpt lat="39.20613" lon="16.3095667"><ele>620.0</ele><time>2026-05-03T14:47:03.884Z</time></trkpt><trkpt lat="39.2058533" lon="16.30968"><ele>620.0</ele><time>2026-05-03T14:47:04.884Z</time></trkpt><trkpt lat="39.2055767" lon="16.3097967"><ele>620.5</ele><time>2026-05-03T14:47:05.884Z</time></trkpt><trkpt lat="39.205295" lon="16.3099167"><ele>621.0</ele><time>2026-05-03T14:47:06.884Z</time></trkpt><trkpt lat="39.2050133" lon="16.3100317"><ele>620.5</ele><time>2026-05-03T14:47:07.884Z</time></trkpt><trkpt lat="39.20473" lon="16.3101467"><ele>620.0</ele><time>2026-05-03T14:47:08.883Z</time></trkpt><trkpt lat="39.2044467" lon="16.3102667"><ele>620.0</ele><time>2026-05-03T14:47:09.884Z</time></trkpt><trkpt lat="39.2041583" lon="16.3103833"><ele>620.0</ele><time>2026-05-03T14:47:10.884Z</time></trkpt><trkpt lat="39.203875" lon="16.310495"><ele>620.5</ele><time>2026-05-03T14:47:11.883Z</time></trkpt><trkpt lat="39.2035867" lon="16.3106067"><ele>621.0</ele><time>2026-05-03T14:47:12.883Z</time></trkpt><trkpt lat="39.2032983" lon="16.3107183"><ele>620.0</ele><time>2026-05-03T14:47:13.884Z</time></trkpt><trkpt lat="39.2030133" lon="16.3108333"><ele>619.0</ele><time>2026-05-03T14:47:14.883Z</time></trkpt><trkpt lat="39.2027283" lon="16.3109467"><ele>619.0</ele><time>2026-05-03T14:47:15.884Z</time></trkpt><trkpt lat="39.20244" lon="16.3110633"><ele>619.0</ele><time>2026-05-03T14:47:16.884Z</time></trkpt><trkpt lat="39.2021517" lon="16.31118"><ele>618.5</ele><time>2026-05-03T14:47:17.884Z</time></trkpt><trkpt lat="39.2018717" lon="16.311295"><ele>618.0</ele><time>2026-05-03T14:47:18.884Z</time></trkpt><trkpt lat="39.2015933" lon="16.3114083"><ele>619.0</ele><time>2026-05-03T14:47:19.883Z</time></trkpt><trkpt lat="39.201315" lon="16.3115233"><ele>620.0</ele><time>2026-05-03T14:47:20.883Z</time></trkpt><trkpt lat="39.2010317" lon="16.3116367"><ele>620.0</ele><time>2026-05-03T14:47:21.883Z</time></trkpt><trkpt lat="39.2007567" lon="16.31175"><ele>620.0</ele><time>2026-05-03T14:47:22.884Z</time></trkpt><trkpt lat="39.20048" lon="16.3118533"><ele>620.5</ele><time>2026-05-03T14:47:23.883Z</time></trkpt><trkpt lat="39.2002017" lon="16.311975"><ele>621.0</ele><time>2026-05-03T14:47:24.884Z</time></trkpt><trkpt lat="39.1999233" lon="16.3120817"><ele>621.0</ele><time>2026-05-03T14:47:25.884Z</time></trkpt><trkpt lat="39.1996517" lon="16.31218"><ele>621.0</ele><time>2026-05-03T14:47:26.884Z</time></trkpt><trkpt lat="39.1993733" lon="16.3122867"><ele>621.0</ele><time>2026-05-03T14:47:27.884Z</time></trkpt><trkpt lat="39.1990933" lon="16.3123833"><ele>621.0</ele><time>2026-05-03T14:47:28.883Z</time></trkpt><trkpt lat="39.1988083" lon="16.312475"><ele>621.0</ele><time>2026-05-03T14:47:29.884Z</time></trkpt><trkpt lat="39.1985283" lon="16.3125433"><ele>621.0</ele><time>2026-05-03T14:47:30.883Z</time></trkpt><trkpt lat="39.19825" lon="16.3126117"><ele>619.0</ele><time>2026-05-03T14:47:31.884Z</time></trkpt><trkpt lat="39.19797" lon="16.3126667"><ele>617.0</ele><time>2026-05-03T14:47:32.884Z</time></trkpt><trkpt lat="39.19769" lon="16.3126933"><ele>617.0</ele><time>2026-05-03T14:47:33.884Z</time></trkpt><trkpt lat="39.197405" lon="16.312705"><ele>617.0</ele><time>2026-05-03T14:47:34.884Z</time></trkpt><trkpt lat="39.19711" lon="16.3127"><ele>613.5</ele><time>2026-05-03T14:47:35.884Z</time></trkpt><trkpt lat="39.1968217" lon="16.3126683"><ele>610.0</ele><time>2026-05-03T14:47:36.883Z</time></trkpt><trkpt lat="39.1965367" lon="16.3126133"><ele>606.5</ele><time>2026-05-03T14:47:37.884Z</time></trkpt><trkpt lat="39.1962567" lon="16.3125333"><ele>603.0</ele><time>2026-05-03T14:47:38.884Z</time></trkpt><trkpt lat="39.1959783" lon="16.3124383"><ele>603.0</ele><time>2026-05-03T14:47:39.883Z</time></trkpt><trkpt lat="39.19571" lon="16.3123183"><ele>603.0</ele><time>2026-05-03T14:47:40.884Z</time></trkpt><trkpt lat="39.1954383" lon="16.3121867"><ele>605.5</ele><time>2026-05-03T14:47:41.884Z</time></trkpt><trkpt lat="39.1951633" lon="16.3120467"><ele>608.0</ele><time>2026-05-03T14:47:42.884Z</time></trkpt><trkpt lat="39.19489" lon="16.3118933"><ele>605.0</ele><time>2026-05-03T14:47:43.884Z</time></trkpt><trkpt lat="39.19462" lon="16.3117283"><ele>602.0</ele><time>2026-05-03T14:47:44.884Z</time></trkpt><trkpt lat="39.1943583" lon="16.3115467"><ele>603.5</ele><time>2026-05-03T14:47:45.883Z</time></trkpt><trkpt lat="39.1941017" lon="16.3113633"><ele>605.0</ele><time>2026-05-03T14:47:46.883Z</time></trkpt><trkpt lat="39.1938483" lon="16.3111767"><ele>600.0</ele><time>2026-05-03T14:47:47.884Z</time></trkpt><trkpt lat="39.1935967" lon="16.3109883"><ele>595.0</ele><time>2026-05-03T14:47:48.883Z</time></trkpt><trkpt lat="39.1933433" lon="16.3107933"><ele>591.0</ele><time>2026-05-03T14:47:49.884Z</time></trkpt><trkpt lat="39.193085" lon="16.3105967"><ele>587.0</ele><time>2026-05-03T14:47:50.884Z</time></trkpt><trkpt lat="39.1928283" lon="16.31041"><ele>587.0</ele><time>2026-05-03T14:47:51.884Z</time></trkpt><trkpt lat="39.19259" lon="16.3102017"><ele>587.0</ele><time>2026-05-03T14:47:52.884Z</time></trkpt><trkpt lat="39.19234" lon="16.3100283"><ele>585.0</ele><time>2026-05-03T14:47:53.884Z</time></trkpt><trkpt lat="39.1920833" lon="16.30985"><ele>583.0</ele><time>2026-05-03T14:47:54.884Z</time></trkpt><trkpt lat="39.1918333" lon="16.30967"><ele>583.0</ele><time>2026-05-03T14:47:55.883Z</time></trkpt><trkpt lat="39.1915917" lon="16.3094917"><ele>583.0</ele><time>2026-05-03T14:47:56.884Z</time></trkpt><trkpt lat="39.1913383" lon="16.30931"><ele>584.5</ele><time>2026-05-03T14:47:57.884Z</time></trkpt><trkpt lat="39.1910883" lon="16.3091217"><ele>586.0</ele><time>2026-05-03T14:47:58.883Z</time></trkpt><trkpt lat="39.1908367" lon="16.30893"><ele>589.5</ele><time>2026-05-03T14:47:59.884Z</time></trkpt><trkpt lat="39.1905867" lon="16.3087417"><ele>593.0</ele><time>2026-05-03T14:48:00.884Z</time></trkpt><trkpt lat="39.1903333" lon="16.3085433"><ele>593.0</ele><time>2026-05-03T14:48:01.883Z</time></trkpt><trkpt lat="39.1900783" lon="16.3083517"><ele>593.0</ele><time>2026-05-03T14:48:02.883Z</time></trkpt><trkpt lat="39.1898133" lon="16.3081683"><ele>588.5</ele><time>2026-05-03T14:48:03.884Z</time></trkpt><trkpt lat="39.1895533" lon="16.3079667"><ele>584.0</ele><time>2026-05-03T14:48:04.884Z</time></trkpt><trkpt lat="39.1892967" lon="16.307775"><ele>584.0</ele><time>2026-05-03T14:48:05.884Z</time></trkpt><trkpt lat="39.189045" lon="16.3075783"><ele>584.0</ele><time>2026-05-03T14:48:06.883Z</time></trkpt><trkpt lat="39.18879" lon="16.3073833"><ele>582.5</ele><time>2026-05-03T14:48:07.884Z</time></trkpt><trkpt lat="39.1885283" lon="16.3072033"><ele>581.0</ele><time>2026-05-03T14:48:08.884Z</time></trkpt><trkpt lat="39.1882717" lon="16.3070183"><ele>579.0</ele><time>2026-05-03T14:48:09.884Z</time></trkpt><trkpt lat="39.1880133" lon="16.306835"><ele>577.0</ele><time>2026-05-03T14:48:10.883Z</time></trkpt><trkpt lat="39.187755" lon="16.3066467"><ele>577.0</ele><time>2026-05-03T14:48:11.883Z</time></trkpt><trkpt lat="39.1875067" lon="16.3064583"><ele>577.0</ele><time>2026-05-03T14:48:12.884Z</time></trkpt><trkpt lat="39.1872583" lon="16.3062633"><ele>574.0</ele><time>2026-05-03T14:48:13.883Z</time></trkpt><trkpt lat="39.187015" lon="16.3060683"><ele>571.0</ele><time>2026-05-03T14:48:14.884Z</time></trkpt><trkpt lat="39.186765" lon="16.30588"><ele>573.0</ele><time>2026-05-03T14:48:15.884Z</time></trkpt><trkpt lat="39.18651" lon="16.3056883"><ele>575.0</ele><time>2026-05-03T14:48:16.884Z</time></trkpt><trkpt lat="39.186255" lon="16.3055"><ele>575.0</ele><time>2026-05-03T14:48:17.884Z</time></trkpt><trkpt lat="39.1860017" lon="16.30531"><ele>575.0</ele><time>2026-05-03T14:48:18.884Z</time></trkpt><trkpt lat="39.1857483" lon="16.30513"><ele>572.0</ele><time>2026-05-03T14:48:19.884Z</time></trkpt><trkpt lat="39.1854917" lon="16.3049533"><ele>569.0</ele><time>2026-05-03T14:48:20.884Z</time></trkpt><trkpt lat="39.1852383" lon="16.30478"><ele>568.0</ele><time>2026-05-03T14:48:21.884Z</time></trkpt><trkpt lat="39.1849883" lon="16.3045967"><ele>567.0</ele><time>2026-05-03T14:48:22.884Z</time></trkpt><trkpt lat="39.1847383" lon="16.3044133"><ele>567.0</ele><time>2026-05-03T14:48:23.883Z</time></trkpt><trkpt lat="39.1844933" lon="16.30423"><ele>567.0</ele><time>2026-05-03T14:48:24.884Z</time></trkpt><trkpt lat="39.1842483" lon="16.304045"><ele>568.0</ele><time>2026-05-03T14:48:25.884Z</time></trkpt><trkpt lat="39.1839917" lon="16.30387"><ele>569.0</ele><time>2026-05-03T14:48:26.884Z</time></trkpt><trkpt lat="39.1837417" lon="16.3036767"><ele>569.0</ele><time>2026-05-03T14:48:27.884Z</time></trkpt><trkpt lat="39.1834883" lon="16.30349"><ele>569.0</ele><time>2026-05-03T14:48:28.884Z</time></trkpt><trkpt lat="39.1832383" lon="16.3033"><ele>566.0</ele><time>2026-05-03T14:48:29.884Z</time></trkpt><trkpt lat="39.18299" lon="16.303105"><ele>563.0</ele><time>2026-05-03T14:48:30.883Z</time></trkpt><trkpt lat="39.1827383" lon="16.3028983"><ele>563.0</ele><time>2026-05-03T14:48:31.884Z</time></trkpt><trkpt lat="39.1824883" lon="16.3026883"><ele>563.0</ele><time>2026-05-03T14:48:32.883Z</time></trkpt><trkpt lat="39.1822483" lon="16.30248"><ele>565.5</ele><time>2026-05-03T14:48:33.883Z</time></trkpt><trkpt lat="39.1820083" lon="16.3022583"><ele>568.0</ele><time>2026-05-03T14:48:34.884Z</time></trkpt><trkpt lat="39.18178" lon="16.30203"><ele>568.0</ele><time>2026-05-03T14:48:35.884Z</time></trkpt><trkpt lat="39.1815533" lon="16.3017967"><ele>568.0</ele><time>2026-05-03T14:48:36.884Z</time></trkpt><trkpt lat="39.18133" lon="16.3015717"><ele>564.0</ele><time>2026-05-03T14:48:37.884Z</time></trkpt><trkpt lat="39.1811067" lon="16.301335"><ele>560.0</ele><time>2026-05-03T14:48:38.884Z</time></trkpt><trkpt lat="39.18089" lon="16.3010917"><ele>543.5</ele><time>2026-05-03T14:48:39.884Z</time></trkpt><trkpt lat="39.1806783" lon="16.3008467"><ele>527.0</ele><time>2026-05-03T14:48:40.884Z</time></trkpt><trkpt lat="39.1804617" lon="16.3005933"><ele>539.0</ele><time>2026-05-03T14:48:41.884Z</time></trkpt><trkpt lat="39.180255" lon="16.3003383"><ele>551.0</ele><time>2026-05-03T14:48:42.884Z</time></trkpt><trkpt lat="39.1800483" lon="16.3000783"><ele>549.5</ele><time>2026-05-03T14:48:43.884Z</time></trkpt><trkpt lat="39.1798467" lon="16.2998183"><ele>548.0</ele><time>2026-05-03T14:48:44.883Z</time></trkpt><trkpt lat="39.1796517" lon="16.2995533"><ele>548.0</ele><time>2026-05-03T14:48:45.884Z</time></trkpt><trkpt lat="39.1794567" lon="16.2992917"><ele>548.0</ele><time>2026-05-03T14:48:46.884Z</time></trkpt><trkpt lat="39.1792583" lon="16.2990183"><ele>548.5</ele><time>2026-05-03T14:48:47.884Z</time></trkpt><trkpt lat="39.17906" lon="16.2987567"><ele>549.0</ele><time>2026-05-03T14:48:48.883Z</time></trkpt><trkpt lat="39.1788633" lon="16.2984883"><ele>549.0</ele><time>2026-05-03T14:48:49.884Z</time></trkpt><trkpt lat="39.1786683" lon="16.2982233"><ele>549.0</ele><time>2026-05-03T14:48:50.884Z</time></trkpt><trkpt lat="39.1784783" lon="16.29796"><ele>553.5</ele><time>2026-05-03T14:48:51.884Z</time></trkpt><trkpt lat="39.1782967" lon="16.2976983"><ele>558.0</ele><time>2026-05-03T14:48:52.884Z</time></trkpt><trkpt lat="39.1781367" lon="16.2974333"><ele>540.0</ele><time>2026-05-03T14:48:53.883Z</time></trkpt><trkpt lat="39.17799" lon="16.2971833"><ele>522.0</ele><time>2026-05-03T14:48:54.884Z</time></trkpt><trkpt lat="39.1778517" lon="16.2969383"><ele>522.0</ele><time>2026-05-03T14:48:55.883Z</time></trkpt><trkpt lat="39.1777217" lon="16.2967"><ele>522.0</ele><time>2026-05-03T14:48:56.884Z</time></trkpt><trkpt lat="39.1775917" lon="16.2964783"><ele>522.0</ele><time>2026-05-03T14:48:57.884Z</time></trkpt><trkpt lat="39.1774683" lon="16.2962617"><ele>524.0</ele><time>2026-05-03T14:48:58.884Z</time></trkpt><trkpt lat="39.1773467" lon="16.29606"><ele>526.0</ele><time>2026-05-03T14:48:59.883Z</time></trkpt><trkpt lat="39.1772267" lon="16.295865"><ele>528.0</ele><time>2026-05-03T14:49:00.884Z</time></trkpt><trkpt lat="39.1771217" lon="16.2956833"><ele>536.0</ele><time>2026-05-03T14:49:01.884Z</time></trkpt><trkpt lat="39.177015" lon="16.2954933"><ele>544.0</ele><time>2026-05-03T14:49:02.884Z</time></trkpt><trkpt lat="39.1769067" lon="16.295315"><ele>552.0</ele><time>2026-05-03T14:49:03.884Z</time></trkpt><trkpt lat="39.1767983" lon="16.29513"><ele>552.0</ele><time>2026-05-03T14:49:04.884Z</time></trkpt><trkpt lat="39.1766717" lon="16.29495"><ele>552.0</ele><time>2026-05-03T14:49:05.884Z</time></trkpt><trkpt lat="39.1765483" lon="16.29476"><ele>552.0</ele><time>2026-05-03T14:49:06.884Z</time></trkpt><trkpt lat="39.1764117" lon="16.2946"><ele>555.0</ele><time>2026-05-03T14:49:07.884Z</time></trkpt><trkpt lat="39.1762817" lon="16.2944067"><ele>558.0</ele><time>2026-05-03T14:49:08.884Z</time></trkpt><trkpt lat="39.1761383" lon="16.2942217"><ele>561.0</ele><time>2026-05-03T14:49:09.884Z</time></trkpt><trkpt lat="39.1759967" lon="16.2940383"><ele>561.3333333333334</ele><time>2026-05-03T14:49:10.883Z</time></trkpt><trkpt lat="39.1758517" lon="16.2938717"><ele>561.6666666666667</ele><time>2026-05-03T14:49:11.884Z</time></trkpt><trkpt lat="39.1756983" lon="16.2937283"><ele>562.0</ele><time>2026-05-03T14:49:12.883Z</time></trkpt><trkpt lat="39.1754933" lon="16.2936417"><ele>562.0</ele><time>2026-05-03T14:49:13.884Z</time></trkpt><trkpt lat="39.1753167" lon="16.2935667"><ele>562.0</ele><time>2026-05-03T14:49:14.884Z</time></trkpt><trkpt lat="39.17509" lon="16.29364"><ele>562.0</ele><time>2026-05-03T14:49:15.884Z</time></trkpt><trkpt lat="39.1748833" lon="16.29367"><ele>558.6666666666667</ele><time>2026-05-03T14:49:16.884Z</time></trkpt><trkpt lat="39.17469" lon="16.2936617"><ele>555.3333333333334</ele><time>2026-05-03T14:49:17.883Z</time></trkpt><trkpt lat="39.174495" lon="16.29365"><ele>552.0</ele><time>2026-05-03T14:49:18.883Z</time></trkpt><trkpt lat="39.1743067" lon="16.2936417"><ele>552.0</ele><time>2026-05-03T14:49:19.884Z</time></trkpt><trkpt lat="39.174125" lon="16.2936317"><ele>552.0</ele><time>2026-05-03T14:49:20.884Z</time></trkpt><trkpt lat="39.173935" lon="16.293625"><ele>552.0</ele><time>2026-05-03T14:49:21.884Z</time></trkpt><trkpt lat="39.1737417" lon="16.2936367"><ele>551.0</ele><time>2026-05-03T14:49:22.884Z</time></trkpt><trkpt lat="39.1735517" lon="16.2936367"><ele>550.0</ele><time>2026-05-03T14:49:23.884Z</time></trkpt><trkpt lat="39.1733567" lon="16.29363"><ele>549.0</ele><time>2026-05-03T14:49:24.883Z</time></trkpt><trkpt lat="39.1731567" lon="16.293595"><ele>549.0</ele><time>2026-05-03T14:49:25.884Z</time></trkpt><trkpt lat="39.172975" lon="16.2935533"><ele>549.0</ele><time>2026-05-03T14:49:26.884Z</time></trkpt><trkpt lat="39.17279" lon="16.293505"><ele>549.0</ele><time>2026-05-03T14:49:27.884Z</time></trkpt><trkpt lat="39.1726083" lon="16.2934683"><ele>549.0</ele><time>2026-05-03T14:49:28.884Z</time></trkpt><trkpt lat="39.1724217" lon="16.2934433"><ele>549.0</ele><time>2026-05-03T14:49:29.883Z</time></trkpt><trkpt lat="39.1722617" lon="16.2934"><ele>549.0</ele><time>2026-05-03T14:49:30.884Z</time></trkpt><trkpt lat="39.1721133" lon="16.29332"><ele>548.3333333333334</ele><time>2026-05-03T14:49:31.884Z</time></trkpt><trkpt lat="39.1719633" lon="16.2931467"><ele>547.6666666666667</ele><time>2026-05-03T14:49:32.884Z</time></trkpt><trkpt lat="39.1718" lon="16.29304"><ele>547.0</ele><time>2026-05-03T14:49:33.884Z</time></trkpt><trkpt lat="39.1716333" lon="16.292925"><ele>539.3333333333334</ele><time>2026-05-03T14:49:34.883Z</time></trkpt><trkpt lat="39.1714517" lon="16.2928267"><ele>531.6666666666666</ele><time>2026-05-03T14:49:35.884Z</time></trkpt><trkpt lat="39.1712817" lon="16.2927267"><ele>524.0</ele><time>2026-05-03T14:49:36.883Z</time></trkpt><trkpt lat="39.1711167" lon="16.2926117"><ele>524.0</ele><time>2026-05-03T14:49:37.884Z</time></trkpt><trkpt lat="39.1709417" lon="16.2925317"><ele>524.0</ele><time>2026-05-03T14:49:38.884Z</time></trkpt><trkpt lat="39.17077" lon="16.292445"><ele>524.0</ele><time>2026-05-03T14:49:39.884Z</time></trkpt><trkpt lat="39.1705933" lon="16.29238"><ele>523.3333333333333</ele><time>2026-05-03T14:49:40.884Z</time></trkpt><trkpt lat="39.1704067" lon="16.2923367"><ele>522.6666666666666</ele><time>2026-05-03T14:49:41.884Z</time></trkpt><trkpt lat="39.1702167" lon="16.2923117"><ele>522.0</ele><time>2026-05-03T14:49:42.884Z</time></trkpt><trkpt lat="39.1700267" lon="16.2923117"><ele>525.6666666666666</ele><time>2026-05-03T14:49:43.883Z</time></trkpt><trkpt lat="39.1698317" lon="16.2923383"><ele>529.3333333333333</ele><time>2026-05-03T14:49:44.883Z</time></trkpt><trkpt lat="39.1696367" lon="16.2923883"><ele>533.0</ele><time>2026-05-03T14:49:45.884Z</time></trkpt><trkpt lat="39.1694483" lon="16.2924617"><ele>533.0</ele><time>2026-05-03T14:49:46.883Z</time></trkpt><trkpt lat="39.16927" lon="16.2925533"><ele>533.0</ele><time>2026-05-03T14:49:47.884Z</time></trkpt><trkpt lat="39.1690833" lon="16.2926483"><ele>533.0</ele><time>2026-05-03T14:49:48.883Z</time></trkpt><trkpt lat="39.1688867" lon="16.2927567"><ele>535.3333333333333</ele><time>2026-05-03T14:49:49.884Z</time></trkpt><trkpt lat="39.16871" lon="16.2928617"><ele>537.6666666666666</ele><time>2026-05-03T14:49:50.884Z</time></trkpt><trkpt lat="39.1685283" lon="16.2929367"><ele>540.0</ele><time>2026-05-03T14:49:51.884Z</time></trkpt><trkpt lat="39.1683433" lon="16.2930183"><ele>537.0</ele><time>2026-05-03T14:49:52.883Z</time></trkpt><trkpt lat="39.1681583" lon="16.2930833"><ele>534.0</ele><time>2026-05-03T14:49:53.884Z</time></trkpt><trkpt lat="39.1679667" lon="16.2931383"><ele>531.0</ele><time>2026-05-03T14:49:54.883Z</time></trkpt><trkpt lat="39.1677833" lon="16.293175"><ele>523.0</ele><time>2026-05-03T14:49:55.883Z</time></trkpt><trkpt lat="39.1675933" lon="16.2931917"><ele>515.0</ele><time>2026-05-03T14:49:56.884Z</time></trkpt><trkpt lat="39.1674017" lon="16.2931983"><ele>507.0</ele><time>2026-05-03T14:49:57.884Z</time></trkpt><trkpt lat="39.1672167" lon="16.2932"><ele>504.66666666666663</ele><time>2026-05-03T14:49:58.884Z</time></trkpt><trkpt lat="39.1670317" lon="16.293165"><ele>502.3333333333333</ele><time>2026-05-03T14:49:59.884Z</time></trkpt><trkpt lat="39.16685" lon="16.29311"><ele>500.0</ele><time>2026-05-03T14:50:00.884Z</time></trkpt><trkpt lat="39.16667" lon="16.2930383"><ele>501.66666666666663</ele><time>2026-05-03T14:50:01.883Z</time></trkpt><trkpt lat="39.166495" lon="16.2929483"><ele>503.33333333333337</ele><time>2026-05-03T14:50:02.884Z</time></trkpt><trkpt lat="39.1663267" lon="16.2928483"><ele>505.0</ele><time>2026-05-03T14:50:03.884Z</time></trkpt><trkpt lat="39.166165" lon="16.2927267"><ele>505.0</ele><time>2026-05-03T14:50:04.884Z</time></trkpt><trkpt lat="39.1660033" lon="16.29259"><ele>505.0</ele><time>2026-05-03T14:50:05.884Z</time></trkpt><trkpt lat="39.1658533" lon="16.2924517"><ele>505.0</ele><time>2026-05-03T14:50:06.884Z</time></trkpt><trkpt lat="39.1657067" lon="16.2923017"><ele>504.0</ele><time>2026-05-03T14:50:07.884Z</time></trkpt><trkpt lat="39.1655683" lon="16.2921317"><ele>503.0</ele><time>2026-05-03T14:50:08.884Z</time></trkpt><trkpt lat="39.1654367" lon="16.2919517"><ele>502.0</ele><time>2026-05-03T14:50:09.884Z</time></trkpt><trkpt lat="39.1653117" lon="16.2917633"><ele>502.0</ele><time>2026-05-03T14:50:10.884Z</time></trkpt><trkpt lat="39.1651883" lon="16.2915783"><ele>502.0</ele><time>2026-05-03T14:50:11.883Z</time></trkpt><trkpt lat="39.1650567" lon="16.2913867"><ele>502.0</ele><time>2026-05-03T14:50:12.884Z</time></trkpt><trkpt lat="39.164935" lon="16.291185"><ele>506.33333333333337</ele><time>2026-05-03T14:50:13.884Z</time></trkpt><trkpt lat="39.164825" lon="16.2909883"><ele>510.66666666666663</ele><time>2026-05-03T14:50:14.884Z</time></trkpt><trkpt lat="39.1647017" lon="16.290805"><ele>515.0</ele><time>2026-05-03T14:50:15.884Z</time></trkpt><trkpt lat="39.1645817" lon="16.2906267"><ele>509.3333333333333</ele><time>2026-05-03T14:50:16.884Z</time></trkpt><trkpt lat="39.1644583" lon="16.29045"><ele>503.66666666666663</ele><time>2026-05-03T14:50:17.884Z</time></trkpt><trkpt lat="39.164335" lon="16.29028"><ele>498.0</ele><time>2026-05-03T14:50:18.883Z</time></trkpt><trkpt lat="39.1642117" lon="16.2901317"><ele>498.0</ele><time>2026-05-03T14:50:19.883Z</time></trkpt><trkpt lat="39.164125" lon="16.2899233"><ele>498.0</ele><time>2026-05-03T14:50:20.884Z</time></trkpt><trkpt lat="39.1640217" lon="16.28973"><ele>498.0</ele><time>2026-05-03T14:50:21.883Z</time></trkpt><trkpt lat="39.16392" lon="16.2895433"><ele>484.66666666666663</ele><time>2026-05-03T14:50:22.884Z</time></trkpt><trkpt lat="39.1638167" lon="16.2893333"><ele>471.3333333333333</ele><time>2026-05-03T14:50:23.884Z</time></trkpt><trkpt lat="39.1637233" lon="16.28913"><ele>458.0</ele><time>2026-05-03T14:50:24.883Z</time></trkpt><trkpt lat="39.16363" lon="16.2889367"><ele>465.0</ele><time>2026-05-03T14:50:25.884Z</time></trkpt><trkpt lat="39.163525" lon="16.2887467"><ele>472.0</ele><time>2026-05-03T14:50:26.883Z</time></trkpt><trkpt lat="39.1634083" lon="16.28856"><ele>479.0</ele><time>2026-05-03T14:50:27.884Z</time></trkpt><trkpt lat="39.1632833" lon="16.2883767"><ele>475.3333333333333</ele><time>2026-05-03T14:50:28.884Z</time></trkpt><trkpt lat="39.16316" lon="16.2881917"><ele>471.66666666666663</ele><time>2026-05-03T14:50:29.884Z</time></trkpt><trkpt lat="39.1630317" lon="16.2880183"><ele>468.0</ele><time>2026-05-03T14:50:30.884Z</time></trkpt><trkpt lat="39.1629017" lon="16.28785"><ele>475.66666666666663</ele><time>2026-05-03T14:50:31.884Z</time></trkpt><trkpt lat="39.162765" lon="16.28769"><ele>483.3333333333333</ele><time>2026-05-03T14:50:32.884Z</time></trkpt><trkpt lat="39.162615" lon="16.2875333"><ele>491.0</ele><time>2026-05-03T14:50:33.884Z</time></trkpt><trkpt lat="39.1624567" lon="16.2873933"><ele>494.3333333333333</ele><time>2026-05-03T14:50:34.884Z</time></trkpt><trkpt lat="39.1622817" lon="16.2872783"><ele>497.66666666666663</ele><time>2026-05-03T14:50:35.883Z</time></trkpt><trkpt lat="39.1620933" lon="16.2871583"><ele>501.0</ele><time>2026-05-03T14:50:36.883Z</time></trkpt><trkpt lat="39.161895" lon="16.2870633"><ele>501.0</ele><time>2026-05-03T14:50:37.883Z</time></trkpt><trkpt lat="39.1616817" lon="16.286985"><ele>501.0</ele><time>2026-05-03T14:50:38.884Z</time></trkpt><trkpt lat="39.1614683" lon="16.2869267"><ele>501.0</ele><time>2026-05-03T14:50:39.884Z</time></trkpt><trkpt lat="39.1612417" lon="16.2868717"><ele>495.0</ele><time>2026-05-03T14:50:40.883Z</time></trkpt><trkpt lat="39.1609917" lon="16.28683"><ele>489.0</ele><time>2026-05-03T14:50:41.884Z</time></trkpt><trkpt lat="39.1607367" lon="16.2867867"><ele>485.5</ele><time>2026-05-03T14:50:42.884Z</time></trkpt><trkpt lat="39.1604767" lon="16.2867267"><ele>482.0</ele><time>2026-05-03T14:50:43.883Z</time></trkpt><trkpt lat="39.1602167" lon="16.2866617"><ele>482.0</ele><time>2026-05-03T14:50:44.884Z</time></trkpt><trkpt lat="39.1599617" lon="16.2866083"><ele>482.0</ele><time>2026-05-03T14:50:45.884Z</time></trkpt><trkpt lat="39.1597017" lon="16.2865933"><ele>480.5</ele><time>2026-05-03T14:50:46.884Z</time></trkpt><trkpt lat="39.15944" lon="16.2866017"><ele>479.0</ele><time>2026-05-03T14:50:47.884Z</time></trkpt><trkpt lat="39.159185" lon="16.28663"><ele>480.5</ele><time>2026-05-03T14:50:48.884Z</time></trkpt><trkpt lat="39.1589383" lon="16.28668"><ele>482.0</ele><time>2026-05-03T14:50:49.884Z</time></trkpt><trkpt lat="39.1587017" lon="16.28676"><ele>482.0</ele><time>2026-05-03T14:50:50.884Z</time></trkpt><trkpt lat="39.1584667" lon="16.2868617"><ele>482.0</ele><time>2026-05-03T14:50:51.883Z</time></trkpt><trkpt lat="39.15823" lon="16.28697"><ele>498.0</ele><time>2026-05-03T14:50:52.884Z</time></trkpt><trkpt lat="39.1580033" lon="16.287105"><ele>514.0</ele><time>2026-05-03T14:50:53.884Z</time></trkpt><trkpt lat="39.157785" lon="16.2872517"><ele>506.5</ele><time>2026-05-03T14:50:54.884Z</time></trkpt><trkpt lat="39.1575717" lon="16.2874"><ele>499.0</ele><time>2026-05-03T14:50:55.884Z</time></trkpt><trkpt lat="39.157355" lon="16.28755"><ele>499.0</ele><time>2026-05-03T14:50:56.884Z</time></trkpt><trkpt lat="39.15714" lon="16.2876967"><ele>499.0</ele><time>2026-05-03T14:50:57.884Z</time></trkpt><trkpt lat="39.156915" lon="16.2878433"><ele>499.0</ele><time>2026-05-03T14:50:58.884Z</time></trkpt><trkpt lat="39.1566733" lon="16.287985"><ele>499.0</ele><time>2026-05-03T14:50:59.884Z</time></trkpt><trkpt lat="39.1564417" lon="16.2881283"><ele>490.0</ele><time>2026-05-03T14:51:00.884Z</time></trkpt><trkpt lat="39.1562117" lon="16.28827"><ele>481.0</ele><time>2026-05-03T14:51:01.884Z</time></trkpt><trkpt lat="39.1559817" lon="16.2884117"><ele>463.0</ele><time>2026-05-03T14:51:02.883Z</time></trkpt><trkpt lat="39.1549683" lon="16.28875"><ele>454.5</ele><time>2026-05-03T14:51:06.888Z</time></trkpt><trkpt lat="39.1547067" lon="16.2884183"><ele>446.0</ele><time>2026-05-03T14:51:07.889Z</time></trkpt><trkpt lat="39.1545333" lon="16.2880367"><ele>446.0</ele><time>2026-05-03T14:51:08.889Z</time></trkpt><trkpt lat="39.1543533" lon="16.2877433"><ele>446.0</ele><time>2026-05-03T14:51:09.888Z</time></trkpt><trkpt lat="39.1541633" lon="16.28753"><ele>441.0</ele><time>2026-05-03T14:51:10.889Z</time></trkpt><trkpt lat="39.1539783" lon="16.287325"><ele>436.0</ele><time>2026-05-03T14:51:11.888Z</time></trkpt><trkpt lat="39.1538083" lon="16.2871317"><ele>450.5</ele><time>2026-05-03T14:51:12.888Z</time></trkpt><trkpt lat="39.15365" lon="16.28693"><ele>465.0</ele><time>2026-05-03T14:51:13.889Z</time></trkpt><trkpt lat="39.1534967" lon="16.2867133"><ele>465.0</ele><time>2026-05-03T14:51:14.889Z</time></trkpt><trkpt lat="39.1533417" lon="16.2864733"><ele>465.0</ele><time>2026-05-03T14:51:15.889Z</time></trkpt><trkpt lat="39.1531883" lon="16.28626"><ele>459.0</ele><time>2026-05-03T14:51:16.888Z</time></trkpt><trkpt lat="39.1530317" lon="16.2860467"><ele>453.0</ele><time>2026-05-03T14:51:17.888Z</time></trkpt><trkpt lat="39.152875" lon="16.28583"><ele>453.0</ele><time>2026-05-03T14:51:18.889Z</time></trkpt><trkpt lat="39.15271" lon="16.285625"><ele>453.0</ele><time>2026-05-03T14:51:19.889Z</time></trkpt><trkpt lat="39.1525533" lon="16.2854217"><ele>449.5</ele><time>2026-05-03T14:51:20.889Z</time></trkpt><trkpt lat="39.1523883" lon="16.2852083"><ele>446.0</ele><time>2026-05-03T14:51:21.889Z</time></trkpt><trkpt lat="39.1522283" lon="16.285"><ele>430.5</ele><time>2026-05-03T14:51:22.888Z</time></trkpt><trkpt lat="39.1520667" lon="16.2847833"><ele>415.0</ele><time>2026-05-03T14:51:23.889Z</time></trkpt><trkpt lat="39.1518967" lon="16.2845783"><ele>415.0</ele><time>2026-05-03T14:51:24.889Z</time></trkpt><trkpt lat="39.15182" lon="16.2843217"><ele>415.0</ele><time>2026-05-03T14:51:25.889Z</time></trkpt><trkpt lat="39.1518283" lon="16.2839617"><ele>413.0</ele><time>2026-05-03T14:51:26.888Z</time></trkpt><trkpt lat="39.1517067" lon="16.28376"><ele>411.0</ele><time>2026-05-03T14:51:27.889Z</time></trkpt><trkpt lat="39.1515183" lon="16.2836083"><ele>409.0</ele><time>2026-05-03T14:51:28.888Z</time></trkpt><trkpt lat="39.15131" lon="16.2835033"><ele>388.5</ele><time>2026-05-03T14:51:29.889Z</time></trkpt><trkpt lat="39.151095" lon="16.2833983"><ele>368.0</ele><time>2026-05-03T14:51:30.888Z</time></trkpt><trkpt lat="39.15087" lon="16.2833"><ele>346.0</ele><time>2026-05-03T14:51:31.889Z</time></trkpt><trkpt lat="39.1506467" lon="16.2832167"><ele>324.0</ele><time>2026-05-03T14:51:32.889Z</time></trkpt><trkpt lat="39.1504183" lon="16.283115"><ele>314.0</ele><time>2026-05-03T14:51:33.889Z</time></trkpt><trkpt lat="39.150185" lon="16.283005"><ele>304.0</ele><time>2026-05-03T14:51:34.888Z</time></trkpt><trkpt lat="39.149955" lon="16.2828917"><ele>299.0</ele><time>2026-05-03T14:51:35.888Z</time></trkpt><trkpt lat="39.1497167" lon="16.2827833"><ele>294.0</ele><time>2026-05-03T14:51:36.889Z</time></trkpt><trkpt lat="39.1494833" lon="16.282665"><ele>294.0</ele><time>2026-05-03T14:51:37.889Z</time></trkpt><trkpt lat="39.14925" lon="16.2825567"><ele>294.0</ele><time>2026-05-03T14:51:38.889Z</time></trkpt><trkpt lat="39.14902" lon="16.282445"><ele>310.0</ele><time>2026-05-03T14:51:39.889Z</time></trkpt><trkpt lat="39.1487983" lon="16.2823367"><ele>326.0</ele><time>2026-05-03T14:51:40.888Z</time></trkpt><trkpt lat="39.1485783" lon="16.2822383"><ele>332.0</ele><time>2026-05-03T14:51:41.889Z</time></trkpt><trkpt lat="39.1483667" lon="16.2821267"><ele>338.0</ele><time>2026-05-03T14:51:42.889Z</time></trkpt><trkpt lat="39.1481667" lon="16.28202"><ele>344.0</ele><time>2026-05-03T14:51:43.889Z</time></trkpt><trkpt lat="39.1479733" lon="16.2819017"><ele>362.0</ele><time>2026-05-03T14:51:44.889Z</time></trkpt><trkpt lat="39.14779" lon="16.28176"><ele>380.0</ele><time>2026-05-03T14:51:45.889Z</time></trkpt><trkpt lat="39.1476133" lon="16.2816167"><ele>398.0</ele><time>2026-05-03T14:51:46.889Z</time></trkpt><trkpt lat="39.1474467" lon="16.2814567"><ele>401.0</ele><time>2026-05-03T14:51:47.889Z</time></trkpt><trkpt lat="39.1472867" lon="16.2812783"><ele>404.0</ele><time>2026-05-03T14:51:48.889Z</time></trkpt><trkpt lat="39.1471333" lon="16.2810833"><ele>407.0</ele><time>2026-05-03T14:51:49.889Z</time></trkpt><trkpt lat="39.146995" lon="16.2808733"><ele>407.0</ele><time>2026-05-03T14:51:50.889Z</time></trkpt><trkpt lat="39.1468717" lon="16.2806517"><ele>407.0</ele><time>2026-05-03T14:51:51.888Z</time></trkpt><trkpt lat="39.1467517" lon="16.2803983"><ele>407.0</ele><time>2026-05-03T14:51:52.889Z</time></trkpt><trkpt lat="39.1466367" lon="16.2801367"><ele>406.5</ele><time>2026-05-03T14:51:53.888Z</time></trkpt><trkpt lat="39.146525" lon="16.279865"><ele>406.0</ele><time>2026-05-03T14:51:54.889Z</time></trkpt><trkpt lat="39.1464" lon="16.2795883"><ele>406.0</ele><time>2026-05-03T14:51:55.889Z</time></trkpt><trkpt lat="39.1462717" lon="16.2793117"><ele>406.0</ele><time>2026-05-03T14:51:56.889Z</time></trkpt><trkpt lat="39.14614" lon="16.2790367"><ele>416.0</ele><time>2026-05-03T14:51:57.889Z</time></trkpt><trkpt lat="39.1460167" lon="16.27876"><ele>426.0</ele><time>2026-05-03T14:51:58.888Z</time></trkpt><trkpt lat="39.1459033" lon="16.2784933"><ele>426.0</ele><time>2026-05-03T14:51:59.889Z</time></trkpt><trkpt lat="39.145785" lon="16.2782183"><ele>426.0</ele><time>2026-05-03T14:52:00.889Z</time></trkpt><trkpt lat="39.145655" lon="16.277945"><ele>431.5</ele><time>2026-05-03T14:52:01.889Z</time></trkpt><trkpt lat="39.1455267" lon="16.2776667"><ele>437.0</ele><time>2026-05-03T14:52:02.889Z</time></trkpt><trkpt lat="39.1453967" lon="16.277385"><ele>461.5</ele><time>2026-05-03T14:52:03.889Z</time></trkpt><trkpt lat="39.1452683" lon="16.2770867"><ele>486.0</ele><time>2026-05-03T14:52:04.889Z</time></trkpt><trkpt lat="39.1451283" lon="16.2767633"><ele>501.0</ele><time>2026-05-03T14:52:05.889Z</time></trkpt><trkpt lat="39.1450317" lon="16.2764267"><ele>516.0</ele><time>2026-05-03T14:52:06.888Z</time></trkpt><trkpt lat="39.1449233" lon="16.2761017"><ele>478.0</ele><time>2026-05-03T14:52:07.889Z</time></trkpt><trkpt lat="39.144825" lon="16.2757817"><ele>440.0</ele><time>2026-05-03T14:52:08.889Z</time></trkpt><trkpt lat="39.1433583" lon="16.274695"><ele>417.5</ele><time>2026-05-03T14:52:13.883Z</time></trkpt><trkpt lat="39.143115" lon="16.2745767"><ele>395.0</ele><time>2026-05-03T14:52:14.884Z</time></trkpt><trkpt lat="39.1428517" lon="16.274465"><ele>395.0</ele><time>2026-05-03T14:52:15.884Z</time></trkpt><trkpt lat="39.1425833" lon="16.274385"><ele>395.0</ele><time>2026-05-03T14:52:16.884Z</time></trkpt><trkpt lat="39.1423" lon="16.274355"><ele>396.5</ele><time>2026-05-03T14:52:17.884Z</time></trkpt><trkpt lat="39.14201" lon="16.2743433"><ele>398.0</ele><time>2026-05-03T14:52:18.883Z</time></trkpt><trkpt lat="39.1417167" lon="16.2743617"><ele>406.5</ele><time>2026-05-03T14:52:19.884Z</time></trkpt><trkpt lat="39.141425" lon="16.2743933"><ele>415.0</ele><time>2026-05-03T14:52:20.884Z</time></trkpt><trkpt lat="39.14113" lon="16.2744567"><ele>415.0</ele><time>2026-05-03T14:52:21.884Z</time></trkpt><trkpt lat="39.140845" lon="16.2745017"><ele>415.0</ele><time>2026-05-03T14:52:22.884Z</time></trkpt><trkpt lat="39.1405633" lon="16.27455"><ele>412.0</ele><time>2026-05-03T14:52:23.883Z</time></trkpt><trkpt lat="39.1402867" lon="16.274575"><ele>409.0</ele><time>2026-05-03T14:52:24.883Z</time></trkpt><trkpt lat="39.1400017" lon="16.2745817"><ele>396.5</ele><time>2026-05-03T14:52:25.884Z</time></trkpt><trkpt lat="39.1397233" lon="16.2745583"><ele>384.0</ele><time>2026-05-03T14:52:26.884Z</time></trkpt><trkpt lat="39.13945" lon="16.274485"><ele>384.0</ele><time>2026-05-03T14:52:27.884Z</time></trkpt><trkpt lat="39.1391883" lon="16.2743817"><ele>384.0</ele><time>2026-05-03T14:52:28.884Z</time></trkpt><trkpt lat="39.138935" lon="16.2742583"><ele>375.0</ele><time>2026-05-03T14:52:29.884Z</time></trkpt><trkpt lat="39.13867" lon="16.274105"><ele>366.0</ele><time>2026-05-03T14:52:30.883Z</time></trkpt><trkpt lat="39.1384017" lon="16.2739467"><ele>368.5</ele><time>2026-05-03T14:52:31.884Z</time></trkpt><trkpt lat="39.1381267" lon="16.273785"><ele>371.0</ele><time>2026-05-03T14:52:32.884Z</time></trkpt><trkpt lat="39.1378567" lon="16.2736233"><ele>371.0</ele><time>2026-05-03T14:52:33.883Z</time></trkpt><trkpt lat="39.13759" lon="16.2734683"><ele>371.0</ele><time>2026-05-03T14:52:34.884Z</time></trkpt><trkpt lat="39.137325" lon="16.2733133"><ele>352.5</ele><time>2026-05-03T14:52:35.883Z</time></trkpt><trkpt lat="39.13705" lon="16.2731567"><ele>334.0</ele><time>2026-05-03T14:52:36.884Z</time></trkpt><trkpt lat="39.1367733" lon="16.2729983"><ele>343.5</ele><time>2026-05-03T14:52:37.883Z</time></trkpt><trkpt lat="39.1364967" lon="16.272835"><ele>353.0</ele><time>2026-05-03T14:52:38.883Z</time></trkpt><trkpt lat="39.13622" lon="16.272675"><ele>353.0</ele><time>2026-05-03T14:52:39.883Z</time></trkpt><trkpt lat="39.1359483" lon="16.2725133"><ele>353.0</ele><time>2026-05-03T14:52:40.884Z</time></trkpt><trkpt lat="39.135675" lon="16.27236"><ele>364.0</ele><time>2026-05-03T14:52:41.884Z</time></trkpt><trkpt lat="39.13541" lon="16.2722083"><ele>375.0</ele><time>2026-05-03T14:52:42.883Z</time></trkpt><trkpt lat="39.135145" lon="16.272045"><ele>375.0</ele><time>2026-05-03T14:52:43.883Z</time></trkpt><trkpt lat="39.1348917" lon="16.271865"><ele>375.0</ele><time>2026-05-03T14:52:44.883Z</time></trkpt><trkpt lat="39.1346483" lon="16.2716717"><ele>370.0</ele><time>2026-05-03T14:52:45.884Z</time></trkpt><trkpt lat="39.134415" lon="16.2714467"><ele>365.0</ele><time>2026-05-03T14:52:46.884Z</time></trkpt><trkpt lat="39.1341917" lon="16.2712017"><ele>350.0</ele><time>2026-05-03T14:52:47.884Z</time></trkpt><trkpt lat="39.1339833" lon="16.2709333"><ele>335.0</ele><time>2026-05-03T14:52:48.884Z</time></trkpt><trkpt lat="39.133785" lon="16.2706517"><ele>339.5</ele><time>2026-05-03T14:52:49.884Z</time></trkpt><trkpt lat="39.1335767" lon="16.2703733"><ele>344.0</ele><time>2026-05-03T14:52:50.884Z</time></trkpt><trkpt lat="39.1333667" lon="16.2701083"><ele>346.5</ele><time>2026-05-03T14:52:51.884Z</time></trkpt><trkpt lat="39.133145" lon="16.2698633"><ele>349.0</ele><time>2026-05-03T14:52:52.883Z</time></trkpt><trkpt lat="39.1329" lon="16.2696617"><ele>349.0</ele><time>2026-05-03T14:52:53.884Z</time></trkpt><trkpt lat="39.1326433" lon="16.2694883"><ele>349.0</ele><time>2026-05-03T14:52:54.884Z</time></trkpt><trkpt lat="39.132375" lon="16.269345"><ele>350.5</ele><time>2026-05-03T14:52:55.884Z</time></trkpt><trkpt lat="39.13211" lon="16.2692117"><ele>352.0</ele><time>2026-05-03T14:52:56.884Z</time></trkpt><trkpt lat="39.131845" lon="16.26905"><ele>349.5</ele><time>2026-05-03T14:52:57.884Z</time></trkpt><trkpt lat="39.131595" lon="16.26888"><ele>347.0</ele><time>2026-05-03T14:52:58.884Z</time></trkpt><trkpt lat="39.131365" lon="16.2686717"><ele>347.0</ele><time>2026-05-03T14:52:59.884Z</time></trkpt><trkpt lat="39.1311467" lon="16.2684367"><ele>347.0</ele><time>2026-05-03T14:53:00.884Z</time></trkpt><trkpt lat="39.1309517" lon="16.2681617"><ele>338.5</ele><time>2026-05-03T14:53:01.884Z</time></trkpt><trkpt lat="39.1307683" lon="16.267875"><ele>330.0</ele><time>2026-05-03T14:53:02.884Z</time></trkpt><trkpt lat="39.1305983" lon="16.2675783"><ele>340.0</ele><time>2026-05-03T14:53:03.883Z</time></trkpt><trkpt lat="39.1304233" lon="16.2672767"><ele>350.0</ele><time>2026-05-03T14:53:04.883Z</time></trkpt><trkpt lat="39.1302317" lon="16.2670017"><ele>350.0</ele><time>2026-05-03T14:53:05.884Z</time></trkpt><trkpt lat="39.1300267" lon="16.266745"><ele>350.0</ele><time>2026-05-03T14:53:06.884Z</time></trkpt><trkpt lat="39.1298" lon="16.2665233"><ele>357.0</ele><time>2026-05-03T14:53:07.884Z</time></trkpt><trkpt lat="39.12956" lon="16.2663233"><ele>364.0</ele><time>2026-05-03T14:53:08.884Z</time></trkpt><trkpt lat="39.1293133" lon="16.2661433"><ele>364.0</ele><time>2026-05-03T14:53:09.884Z</time></trkpt><trkpt lat="39.12906" lon="16.2660083"><ele>364.0</ele><time>2026-05-03T14:53:10.883Z</time></trkpt><trkpt lat="39.12879" lon="16.2658917"><ele>352.0</ele><time>2026-05-03T14:53:11.884Z</time></trkpt><trkpt lat="39.12851" lon="16.2657933"><ele>340.0</ele><time>2026-05-03T14:53:12.884Z</time></trkpt><trkpt lat="39.1282433" lon="16.2657"><ele>343.0</ele><time>2026-05-03T14:53:13.884Z</time></trkpt><trkpt lat="39.1279717" lon="16.2655767"><ele>346.0</ele><time>2026-05-03T14:53:14.884Z</time></trkpt><trkpt lat="39.1277033" lon="16.26544"><ele>346.0</ele><time>2026-05-03T14:53:15.884Z</time></trkpt><trkpt lat="39.1274383" lon="16.2652967"><ele>346.0</ele><time>2026-05-03T14:53:16.884Z</time></trkpt><trkpt lat="39.12718" lon="16.26512"><ele>340.0</ele><time>2026-05-03T14:53:17.883Z</time></trkpt><trkpt lat="39.1269417" lon="16.2649283"><ele>334.0</ele><time>2026-05-03T14:53:18.883Z</time></trkpt><trkpt lat="39.1267233" lon="16.26471"><ele>326.5</ele><time>2026-05-03T14:53:19.884Z</time></trkpt><trkpt lat="39.126525" lon="16.26445"><ele>319.0</ele><time>2026-05-03T14:53:20.884Z</time></trkpt><trkpt lat="39.12635" lon="16.2641633"><ele>323.0</ele><time>2026-05-03T14:53:21.884Z</time></trkpt><trkpt lat="39.1262117" lon="16.2638517"><ele>327.0</ele><time>2026-05-03T14:53:22.884Z</time></trkpt><trkpt lat="39.126095" lon="16.26351"><ele>327.0</ele><time>2026-05-03T14:53:23.884Z</time></trkpt><trkpt lat="39.1260117" lon="16.263155"><ele>327.0</ele><time>2026-05-03T14:53:24.883Z</time></trkpt><trkpt lat="39.125935" lon="16.2627967"><ele>334.5</ele><time>2026-05-03T14:53:25.883Z</time></trkpt><trkpt lat="39.1258583" lon="16.262445"><ele>342.0</ele><time>2026-05-03T14:53:26.884Z</time></trkpt><trkpt lat="39.125785" lon="16.2620883"><ele>327.0</ele><time>2026-05-03T14:53:27.884Z</time></trkpt><trkpt lat="39.125715" lon="16.261725"><ele>312.0</ele><time>2026-05-03T14:53:28.884Z</time></trkpt><trkpt lat="39.1256417" lon="16.2613683"><ele>309.0</ele><time>2026-05-03T14:53:29.884Z</time></trkpt><trkpt lat="39.1255633" lon="16.261015"><ele>306.0</ele><time>2026-05-03T14:53:30.884Z</time></trkpt><trkpt lat="39.1254167" lon="16.260695"><ele>308.0</ele><time>2026-05-03T14:53:31.884Z</time></trkpt><trkpt lat="39.1253333" lon="16.26035"><ele>310.0</ele><time>2026-05-03T14:53:32.884Z</time></trkpt><trkpt lat="39.1252017" lon="16.2600183"><ele>310.0</ele><time>2026-05-03T14:53:33.884Z</time></trkpt><trkpt lat="39.125045" lon="16.2596783"><ele>310.0</ele><time>2026-05-03T14:53:34.883Z</time></trkpt><trkpt lat="39.12488" lon="16.2593567"><ele>310.0</ele><time>2026-05-03T14:53:35.883Z</time></trkpt><trkpt lat="39.1247133" lon="16.2590467"><ele>310.0</ele><time>2026-05-03T14:53:36.884Z</time></trkpt><trkpt lat="39.1245533" lon="16.2587367"><ele>314.0</ele><time>2026-05-03T14:53:37.884Z</time></trkpt><trkpt lat="39.1243933" lon="16.2584267"><ele>318.0</ele><time>2026-05-03T14:53:38.884Z</time></trkpt><trkpt lat="39.1242383" lon="16.2581117"><ele>315.0</ele><time>2026-05-03T14:53:39.884Z</time></trkpt><trkpt lat="39.1240583" lon="16.2578183"><ele>312.0</ele><time>2026-05-03T14:53:40.883Z</time></trkpt><trkpt lat="39.1238617" lon="16.257535"><ele>315.0</ele><time>2026-05-03T14:53:41.884Z</time></trkpt><trkpt lat="39.1236483" lon="16.2572783"><ele>318.0</ele><time>2026-05-03T14:53:42.884Z</time></trkpt><trkpt lat="39.1234317" lon="16.257035"><ele>303.5</ele><time>2026-05-03T14:53:43.884Z</time></trkpt><trkpt lat="39.1232" lon="16.2568267"><ele>289.0</ele><time>2026-05-03T14:53:44.884Z</time></trkpt><trkpt lat="39.1229533" lon="16.25664"><ele>289.0</ele><time>2026-05-03T14:53:45.884Z</time></trkpt><trkpt lat="39.1227033" lon="16.256465"><ele>289.0</ele><time>2026-05-03T14:53:46.884Z</time></trkpt><trkpt lat="39.1224483" lon="16.256315"><ele>291.0</ele><time>2026-05-03T14:53:47.883Z</time></trkpt><trkpt lat="39.122195" lon="16.2562033"><ele>293.0</ele><time>2026-05-03T14:53:48.884Z</time></trkpt><trkpt lat="39.1219167" lon="16.2561167"><ele>293.0</ele><time>2026-05-03T14:53:49.883Z</time></trkpt><trkpt lat="39.121645" lon="16.2560267"><ele>293.0</ele><time>2026-05-03T14:53:50.883Z</time></trkpt><trkpt lat="39.1213633" lon="16.255975"><ele>299.5</ele><time>2026-05-03T14:53:51.883Z</time></trkpt><trkpt lat="39.1210767" lon="16.255955"><ele>306.0</ele><time>2026-05-03T14:53:52.883Z</time></trkpt><trkpt lat="39.1207883" lon="16.2559567"><ele>306.5</ele><time>2026-05-03T14:53:53.884Z</time></trkpt><trkpt lat="39.1205067" lon="16.2559617"><ele>307.0</ele><time>2026-05-03T14:53:54.884Z</time></trkpt><trkpt lat="39.12022" lon="16.255975"><ele>307.0</ele><time>2026-05-03T14:53:55.884Z</time></trkpt><trkpt lat="39.1199417" lon="16.2559883"><ele>307.0</ele><time>2026-05-03T14:53:56.883Z</time></trkpt><trkpt lat="39.1196617" lon="16.255985"><ele>304.0</ele><time>2026-05-03T14:53:57.883Z</time></trkpt><trkpt lat="39.1193767" lon="16.255955"><ele>301.0</ele><time>2026-05-03T14:53:58.884Z</time></trkpt><trkpt lat="39.119095" lon="16.2559"><ele>291.5</ele><time>2026-05-03T14:53:59.884Z</time></trkpt><trkpt lat="39.118815" lon="16.2558133"><ele>282.0</ele><time>2026-05-03T14:54:00.883Z</time></trkpt><trkpt lat="39.11854" lon="16.2556983"><ele>283.5</ele><time>2026-05-03T14:54:01.883Z</time></trkpt><trkpt lat="39.118275" lon="16.2555767"><ele>285.0</ele><time>2026-05-03T14:54:02.884Z</time></trkpt><trkpt lat="39.1180083" lon="16.25547"><ele>285.0</ele><time>2026-05-03T14:54:03.883Z</time></trkpt><trkpt lat="39.1177417" lon="16.255385"><ele>285.0</ele><time>2026-05-03T14:54:04.884Z</time></trkpt><trkpt lat="39.1174717" lon="16.25533"><ele>290.0</ele><time>2026-05-03T14:54:05.883Z</time></trkpt><trkpt lat="39.1171967" lon="16.2552983"><ele>295.0</ele><time>2026-05-03T14:54:06.883Z</time></trkpt><trkpt lat="39.116915" lon="16.25529"><ele>295.0</ele><time>2026-05-03T14:54:07.883Z</time></trkpt><trkpt lat="39.1166383" lon="16.2552983"><ele>295.0</ele><time>2026-05-03T14:54:08.884Z</time></trkpt><trkpt lat="39.11635" lon="16.2553033"><ele>295.0</ele><time>2026-05-03T14:54:09.884Z</time></trkpt><trkpt lat="39.116075" lon="16.2553017"><ele>295.0</ele><time>2026-05-03T14:54:10.884Z</time></trkpt><trkpt lat="39.1157917" lon="16.2553017"><ele>291.5</ele><time>2026-05-03T14:54:11.884Z</time></trkpt><trkpt lat="39.115515" lon="16.2552983"><ele>288.0</ele><time>2026-05-03T14:54:12.884Z</time></trkpt><trkpt lat="39.115245" lon="16.2552983"><ele>288.0</ele><time>2026-05-03T14:54:13.883Z</time></trkpt><trkpt lat="39.11497" lon="16.2552817"><ele>288.0</ele><time>2026-05-03T14:54:14.883Z</time></trkpt><trkpt lat="39.114695" lon="16.2552467"><ele>283.0</ele><time>2026-05-03T14:54:15.884Z</time></trkpt><trkpt lat="39.1144183" lon="16.2552017"><ele>278.0</ele><time>2026-05-03T14:54:16.884Z</time></trkpt><trkpt lat="39.1141417" lon="16.255135"><ele>266.0</ele><time>2026-05-03T14:54:17.884Z</time></trkpt><trkpt lat="39.1138733" lon="16.2550417"><ele>254.0</ele><time>2026-05-03T14:54:18.884Z</time></trkpt><trkpt lat="39.1136067" lon="16.2549233"><ele>254.0</ele><time>2026-05-03T14:54:19.883Z</time></trkpt><trkpt lat="39.1133567" lon="16.2548"><ele>254.0</ele><time>2026-05-03T14:54:20.884Z</time></trkpt><trkpt lat="39.113105" lon="16.2546483"><ele>256.5</ele><time>2026-05-03T14:54:21.883Z</time></trkpt><trkpt lat="39.1128567" lon="16.25446"><ele>259.0</ele><time>2026-05-03T14:54:22.883Z</time></trkpt><trkpt lat="39.1126133" lon="16.2542567"><ele>263.0</ele><time>2026-05-03T14:54:23.884Z</time></trkpt><trkpt lat="39.1123533" lon="16.2540783"><ele>267.0</ele><time>2026-05-03T14:54:24.883Z</time></trkpt><trkpt lat="39.1121033" lon="16.2538917"><ele>267.0</ele><time>2026-05-03T14:54:25.884Z</time></trkpt><trkpt lat="39.1118733" lon="16.2536917"><ele>267.0</ele><time>2026-05-03T14:54:26.883Z</time></trkpt><trkpt lat="39.1116467" lon="16.2534883"><ele>256.5</ele><time>2026-05-03T14:54:27.883Z</time></trkpt><trkpt lat="39.1114333" lon="16.2532683"><ele>246.0</ele><time>2026-05-03T14:54:28.884Z</time></trkpt><trkpt lat="39.1112367" lon="16.25302"><ele>246.0</ele><time>2026-05-03T14:54:29.884Z</time></trkpt><trkpt lat="39.11105" lon="16.25277"><ele>246.0</ele><time>2026-05-03T14:54:30.884Z</time></trkpt><trkpt lat="39.1108633" lon="16.2525083"><ele>239.5</ele><time>2026-05-03T14:54:31.884Z</time></trkpt><trkpt lat="39.1106833" lon="16.252245"><ele>233.0</ele><time>2026-05-03T14:54:32.884Z</time></trkpt><trkpt lat="39.1105" lon="16.251995"><ele>233.0</ele><time>2026-05-03T14:54:33.884Z</time></trkpt><trkpt lat="39.1103083" lon="16.25176"><ele>233.0</ele><time>2026-05-03T14:54:34.884Z</time></trkpt><trkpt lat="39.1101017" lon="16.2515417"><ele>241.0</ele><time>2026-05-03T14:54:35.884Z</time></trkpt><trkpt lat="39.10987" lon="16.251365"><ele>249.0</ele><time>2026-05-03T14:54:36.884Z</time></trkpt><trkpt lat="39.1096333" lon="16.2512117"><ele>249.0</ele><time>2026-05-03T14:54:37.884Z</time></trkpt><trkpt lat="39.1093933" lon="16.251065"><ele>249.0</ele><time>2026-05-03T14:54:38.883Z</time></trkpt><trkpt lat="39.1091383" lon="16.2509217"><ele>244.0</ele><time>2026-05-03T14:54:39.883Z</time></trkpt><trkpt lat="39.1088833" lon="16.250795"><ele>239.0</ele><time>2026-05-03T14:54:40.883Z</time></trkpt><trkpt lat="39.1086233" lon="16.2506733"><ele>240.0</ele><time>2026-05-03T14:54:41.884Z</time></trkpt><trkpt lat="39.108375" lon="16.2505583"><ele>241.0</ele><time>2026-05-03T14:54:42.884Z</time></trkpt><trkpt lat="39.10813" lon="16.2504317"><ele>241.0</ele><time>2026-05-03T14:54:43.884Z</time></trkpt><trkpt lat="39.107885" lon="16.2502983"><ele>241.0</ele><time>2026-05-03T14:54:44.884Z</time></trkpt><trkpt lat="39.10764" lon="16.2501733"><ele>235.5</ele><time>2026-05-03T14:54:45.884Z</time></trkpt><trkpt lat="39.1074017" lon="16.2500283"><ele>230.0</ele><time>2026-05-03T14:54:46.883Z</time></trkpt><trkpt lat="39.1071633" lon="16.2499183"><ele>233.0</ele><time>2026-05-03T14:54:47.884Z</time></trkpt><trkpt lat="39.106945" lon="16.249775"><ele>236.0</ele><time>2026-05-03T14:54:48.884Z</time></trkpt><trkpt lat="39.10672" lon="16.249615"><ele>230.5</ele><time>2026-05-03T14:54:49.884Z</time></trkpt><trkpt lat="39.1064917" lon="16.24945"><ele>225.0</ele><time>2026-05-03T14:54:50.884Z</time></trkpt><trkpt lat="39.10625" lon="16.2492733"><ele>225.0</ele><time>2026-05-03T14:54:51.884Z</time></trkpt><trkpt lat="39.1060267" lon="16.249075"><ele>225.0</ele><time>2026-05-03T14:54:52.883Z</time></trkpt><trkpt lat="39.1057983" lon="16.2488767"><ele>220.5</ele><time>2026-05-03T14:54:53.883Z</time></trkpt><trkpt lat="39.105585" lon="16.2486517"><ele>216.0</ele><time>2026-05-03T14:54:54.884Z</time></trkpt><trkpt lat="39.1053683" lon="16.2484317"><ele>216.0</ele><time>2026-05-03T14:54:55.884Z</time></trkpt><trkpt lat="39.105185" lon="16.2481917"><ele>216.0</ele><time>2026-05-03T14:54:56.884Z</time></trkpt><trkpt lat="39.1050067" lon="16.2479367"><ele>211.0</ele><time>2026-05-03T14:54:57.884Z</time></trkpt><trkpt lat="39.1048433" lon="16.2476617"><ele>206.0</ele><time>2026-05-03T14:54:58.884Z</time></trkpt><trkpt lat="39.1046783" lon="16.247375"><ele>202.0</ele><time>2026-05-03T14:54:59.884Z</time></trkpt><trkpt lat="39.1045217" lon="16.24708"><ele>198.0</ele><time>2026-05-03T14:55:00.884Z</time></trkpt><trkpt lat="39.1043633" lon="16.2467917"><ele>198.0</ele><time>2026-05-03T14:55:01.883Z</time></trkpt><trkpt lat="39.1042083" lon="16.24649"><ele>198.0</ele><time>2026-05-03T14:55:02.884Z</time></trkpt><trkpt lat="39.1040433" lon="16.24619"><ele>190.5</ele><time>2026-05-03T14:55:03.884Z</time></trkpt><trkpt lat="39.1038717" lon="16.245885"><ele>183.0</ele><time>2026-05-03T14:55:04.883Z</time></trkpt><trkpt lat="39.103695" lon="16.2455933"><ele>181.5</ele><time>2026-05-03T14:55:05.884Z</time></trkpt><trkpt lat="39.1035117" lon="16.245295"><ele>180.0</ele><time>2026-05-03T14:55:06.883Z</time></trkpt><trkpt lat="39.10332" lon="16.2450083"><ele>185.5</ele><time>2026-05-03T14:55:07.883Z</time></trkpt><trkpt lat="39.1031267" lon="16.2447317"><ele>191.0</ele><time>2026-05-03T14:55:08.884Z</time></trkpt><trkpt lat="39.1029283" lon="16.2444533"><ele>191.0</ele><time>2026-05-03T14:55:09.884Z</time></trkpt><trkpt lat="39.10273" lon="16.2441717"><ele>191.0</ele><time>2026-05-03T14:55:10.883Z</time></trkpt><trkpt lat="39.1025267" lon="16.2438967"><ele>199.5</ele><time>2026-05-03T14:55:11.884Z</time></trkpt><trkpt lat="39.1023317" lon="16.24362"><ele>208.0</ele><time>2026-05-03T14:55:12.884Z</time></trkpt><trkpt lat="39.10213" lon="16.2433517"><ele>219.0</ele><time>2026-05-03T14:55:13.884Z</time></trkpt><trkpt lat="39.1019333" lon="16.243075"><ele>230.0</ele><time>2026-05-03T14:55:14.884Z</time></trkpt><trkpt lat="39.1017133" lon="16.2428117"><ele>231.0</ele><time>2026-05-03T14:55:15.884Z</time></trkpt><trkpt lat="39.10148" lon="16.2425567"><ele>232.0</ele><time>2026-05-03T14:55:16.883Z</time></trkpt><trkpt lat="39.101275" lon="16.242275"><ele>232.0</ele><time>2026-05-03T14:55:17.883Z</time></trkpt><trkpt lat="39.101075" lon="16.241995"><ele>232.0</ele><time>2026-05-03T14:55:18.884Z</time></trkpt><trkpt lat="39.1008733" lon="16.24172"><ele>235.0</ele><time>2026-05-03T14:55:19.884Z</time></trkpt><trkpt lat="39.1006867" lon="16.241435"><ele>238.0</ele><time>2026-05-03T14:55:20.884Z</time></trkpt><trkpt lat="39.1005117" lon="16.2411367"><ele>172.0</ele><time>2026-05-03T14:55:21.883Z</time></trkpt><trkpt lat="39.0968317" lon="16.2366567"><ele>171.0</ele><time>2026-05-03T14:55:38.883Z</time></trkpt><trkpt lat="39.0965833" lon="16.236445"><ele>170.0</ele><time>2026-05-03T14:55:39.883Z</time></trkpt><trkpt lat="39.0963583" lon="16.23619"><ele>170.0</ele><time>2026-05-03T14:55:40.883Z</time></trkpt><trkpt lat="39.09615" lon="16.235935"><ele>170.0</ele><time>2026-05-03T14:55:41.882Z</time></trkpt><trkpt lat="39.09595" lon="16.23567"><ele>170.0</ele><time>2026-05-03T14:55:42.882Z</time></trkpt><trkpt lat="39.0957567" lon="16.2354083"><ele>170.0</ele><time>2026-05-03T14:55:43.883Z</time></trkpt><trkpt lat="39.0955633" lon="16.2351567"><ele>170.0</ele><time>2026-05-03T14:55:44.883Z</time></trkpt><trkpt lat="39.0953667" lon="16.23491"><ele>170.0</ele><time>2026-05-03T14:55:45.883Z</time></trkpt><trkpt lat="39.09517" lon="16.234675"><ele>170.0</ele><time>2026-05-03T14:55:46.883Z</time></trkpt><trkpt lat="39.0949683" lon="16.2344483"><ele>170.0</ele><time>2026-05-03T14:55:47.882Z</time></trkpt><trkpt lat="39.0947583" lon="16.234235"><ele>170.0</ele><time>2026-05-03T14:55:48.882Z</time></trkpt><trkpt lat="39.09454" lon="16.23403"><ele>170.0</ele><time>2026-05-03T14:55:49.883Z</time></trkpt><trkpt lat="39.0943183" lon="16.2338367"><ele>169.5</ele><time>2026-05-03T14:55:50.883Z</time></trkpt><trkpt lat="39.0940917" lon="16.2336583"><ele>169.0</ele><time>2026-05-03T14:55:51.882Z</time></trkpt><trkpt lat="39.0938683" lon="16.2334783"><ele>167.0</ele><time>2026-05-03T14:55:52.882Z</time></trkpt><trkpt lat="39.093635" lon="16.2333017"><ele>165.0</ele><time>2026-05-03T14:55:53.882Z</time></trkpt><trkpt lat="39.093405" lon="16.23312"><ele>162.0</ele><time>2026-05-03T14:55:54.883Z</time></trkpt><trkpt lat="39.0931683" lon="16.2329367"><ele>159.0</ele><time>2026-05-03T14:55:55.882Z</time></trkpt><trkpt lat="39.0929383" lon="16.2327283"><ele>159.0</ele><time>2026-05-03T14:55:56.883Z</time></trkpt><trkpt lat="39.092705" lon="16.232525"><ele>159.0</ele><time>2026-05-03T14:55:57.883Z</time></trkpt><trkpt lat="39.092465" lon="16.232315"><ele>159.5</ele><time>2026-05-03T14:55:58.882Z</time></trkpt><trkpt lat="39.0922333" lon="16.2320883"><ele>160.0</ele><time>2026-05-03T14:55:59.883Z</time></trkpt><trkpt lat="39.0920167" lon="16.2318533"><ele>160.0</ele><time>2026-05-03T14:56:00.882Z</time></trkpt><trkpt lat="39.09181" lon="16.231605"><ele>160.0</ele><time>2026-05-03T14:56:01.883Z</time></trkpt><trkpt lat="39.0916133" lon="16.2313417"><ele>158.0</ele><time>2026-05-03T14:56:02.883Z</time></trkpt><trkpt lat="39.09142" lon="16.2310733"><ele>156.0</ele><time>2026-05-03T14:56:03.882Z</time></trkpt><trkpt lat="39.091235" lon="16.2307883"><ele>155.5</ele><time>2026-05-03T14:56:04.883Z</time></trkpt><trkpt lat="39.09106" lon="16.230495"><ele>155.0</ele><time>2026-05-03T14:56:05.883Z</time></trkpt><trkpt lat="39.0908933" lon="16.2301967"><ele>156.0</ele><time>2026-05-03T14:56:06.882Z</time></trkpt><trkpt lat="39.0907267" lon="16.2298917"><ele>157.0</ele><time>2026-05-03T14:56:07.882Z</time></trkpt><trkpt lat="39.0905717" lon="16.2295783"><ele>157.0</ele><time>2026-05-03T14:56:08.882Z</time></trkpt><trkpt lat="39.0904367" lon="16.2292533"><ele>157.0</ele><time>2026-05-03T14:56:09.883Z</time></trkpt><trkpt lat="39.0903" lon="16.228915"><ele>157.5</ele><time>2026-05-03T14:56:10.883Z</time></trkpt><trkpt lat="39.090175" lon="16.2285683"><ele>158.0</ele><time>2026-05-03T14:56:11.883Z</time></trkpt><trkpt lat="39.0900683" lon="16.2282233"><ele>157.5</ele><time>2026-05-03T14:56:12.882Z</time></trkpt><trkpt lat="39.089965" lon="16.2278567"><ele>157.0</ele><time>2026-05-03T14:56:13.882Z</time></trkpt><trkpt lat="39.0898733" lon="16.22749"><ele>154.5</ele><time>2026-05-03T14:56:14.882Z</time></trkpt><trkpt lat="39.0897967" lon="16.22712"><ele>152.0</ele><time>2026-05-03T14:56:15.883Z</time></trkpt><trkpt lat="39.089715" lon="16.2267417"><ele>152.0</ele><time>2026-05-03T14:56:16.882Z</time></trkpt><trkpt lat="39.0896333" lon="16.226365"><ele>152.0</ele><time>2026-05-03T14:56:17.883Z</time></trkpt><trkpt lat="39.08955" lon="16.2259933"><ele>152.0</ele><time>2026-05-03T14:56:18.882Z</time></trkpt><trkpt lat="39.089465" lon="16.2256283"><ele>152.0</ele><time>2026-05-03T14:56:19.883Z</time></trkpt><trkpt lat="39.0893667" lon="16.2252733"><ele>152.0</ele><time>2026-05-03T14:56:20.883Z</time></trkpt><trkpt lat="39.089255" lon="16.2249233"><ele>152.0</ele><time>2026-05-03T14:56:21.883Z</time></trkpt><trkpt lat="39.0891267" lon="16.2245733"><ele>150.5</ele><time>2026-05-03T14:56:22.883Z</time></trkpt><trkpt lat="39.088985" lon="16.2242317"><ele>149.0</ele><time>2026-05-03T14:56:23.882Z</time></trkpt><trkpt lat="39.08883" lon="16.2239033"><ele>148.5</ele><time>2026-05-03T14:56:24.883Z</time></trkpt><trkpt lat="39.0886583" lon="16.2235867"><ele>148.0</ele><time>2026-05-03T14:56:25.882Z</time></trkpt><trkpt lat="39.08848" lon="16.2232817"><ele>147.0</ele><time>2026-05-03T14:56:26.883Z</time></trkpt><trkpt lat="39.0882883" lon="16.2229917"><ele>146.0</ele><time>2026-05-03T14:56:27.883Z</time></trkpt><trkpt lat="39.08809" lon="16.22271"><ele>146.0</ele><time>2026-05-03T14:56:28.883Z</time></trkpt><trkpt lat="39.0878883" lon="16.2224367"><ele>146.0</ele><time>2026-05-03T14:56:29.883Z</time></trkpt><trkpt lat="39.087675" lon="16.2221733"><ele>146.0</ele><time>2026-05-03T14:56:30.882Z</time></trkpt><trkpt lat="39.08746" lon="16.2219083"><ele>146.0</ele><time>2026-05-03T14:56:31.883Z</time></trkpt><trkpt lat="39.0872417" lon="16.2216533"><ele>147.5</ele><time>2026-05-03T14:56:32.883Z</time></trkpt><trkpt lat="39.08702" lon="16.2214017"><ele>149.0</ele><time>2026-05-03T14:56:33.883Z</time></trkpt><trkpt lat="39.0867983" lon="16.221145"><ele>147.5</ele><time>2026-05-03T14:56:34.883Z</time></trkpt><trkpt lat="39.0865817" lon="16.2208933"><ele>146.0</ele><time>2026-05-03T14:56:35.883Z</time></trkpt><trkpt lat="39.086365" lon="16.2206283"><ele>146.0</ele><time>2026-05-03T14:56:36.883Z</time></trkpt><trkpt lat="39.0861483" lon="16.2203667"><ele>146.0</ele><time>2026-05-03T14:56:37.882Z</time></trkpt><trkpt lat="39.0859233" lon="16.2201067"><ele>145.5</ele><time>2026-05-03T14:56:38.883Z</time></trkpt><trkpt lat="39.0857017" lon="16.219845"><ele>145.0</ele><time>2026-05-03T14:56:39.883Z</time></trkpt><trkpt lat="39.0854867" lon="16.2195933"><ele>144.5</ele><time>2026-05-03T14:56:40.883Z</time></trkpt><trkpt lat="39.08527" lon="16.2193383"><ele>144.0</ele><time>2026-05-03T14:56:41.882Z</time></trkpt><trkpt lat="39.08505" lon="16.2190783"><ele>143.5</ele><time>2026-05-03T14:56:42.883Z</time></trkpt><trkpt lat="39.084835" lon="16.2188167"><ele>143.0</ele><time>2026-05-03T14:56:43.883Z</time></trkpt><trkpt lat="39.084625" lon="16.218555"><ele>143.0</ele><time>2026-05-03T14:56:44.883Z</time></trkpt><trkpt lat="39.08442" lon="16.2182917"><ele>143.0</ele><time>2026-05-03T14:56:45.883Z</time></trkpt><trkpt lat="39.08422" lon="16.2180217"><ele>144.0</ele><time>2026-05-03T14:56:46.883Z</time></trkpt><trkpt lat="39.0840233" lon="16.2177483"><ele>145.0</ele><time>2026-05-03T14:56:47.882Z</time></trkpt><trkpt lat="39.08384" lon="16.217475"><ele>143.5</ele><time>2026-05-03T14:56:48.883Z</time></trkpt><trkpt lat="39.0836583" lon="16.2172017"><ele>142.0</ele><time>2026-05-03T14:56:49.883Z</time></trkpt><trkpt lat="39.0834817" lon="16.216925"><ele>142.0</ele><time>2026-05-03T14:56:50.882Z</time></trkpt><trkpt lat="39.0833083" lon="16.2166383"><ele>142.0</ele><time>2026-05-03T14:56:51.883Z</time></trkpt><trkpt lat="39.0831333" lon="16.2163467"><ele>149.5</ele><time>2026-05-03T14:56:52.882Z</time></trkpt><trkpt lat="39.08297" lon="16.2160567"><ele>157.0</ele><time>2026-05-03T14:56:53.882Z</time></trkpt><trkpt lat="39.082815" lon="16.2157517"><ele>151.5</ele><time>2026-05-03T14:56:54.883Z</time></trkpt><trkpt lat="39.0826533" lon="16.2154483"><ele>146.0</ele><time>2026-05-03T14:56:55.883Z</time></trkpt><trkpt lat="39.0824967" lon="16.215135"><ele>150.0</ele><time>2026-05-03T14:56:56.882Z</time></trkpt><trkpt lat="39.0823467" lon="16.2148183"><ele>154.0</ele><time>2026-05-03T14:56:57.882Z</time></trkpt><trkpt lat="39.0821983" lon="16.2145033"><ele>154.0</ele><time>2026-05-03T14:56:58.882Z</time></trkpt><trkpt lat="39.082055" lon="16.2141767"><ele>154.0</ele><time>2026-05-03T14:56:59.882Z</time></trkpt><trkpt lat="39.0819117" lon="16.2138417"><ele>150.0</ele><time>2026-05-03T14:57:00.882Z</time></trkpt><trkpt lat="39.0817817" lon="16.2135033"><ele>146.0</ele><time>2026-05-03T14:57:01.882Z</time></trkpt><trkpt lat="39.0816617" lon="16.21316"><ele>155.0</ele><time>2026-05-03T14:57:02.883Z</time></trkpt><trkpt lat="39.0815533" lon="16.2128133"><ele>164.0</ele><time>2026-05-03T14:57:03.883Z</time></trkpt><trkpt lat="39.0814467" lon="16.2124683"><ele>162.0</ele><time>2026-05-03T14:57:04.883Z</time></trkpt><trkpt lat="39.0813467" lon="16.2121133"><ele>160.0</ele><time>2026-05-03T14:57:05.883Z</time></trkpt><trkpt lat="39.0812567" lon="16.211755"><ele>156.5</ele><time>2026-05-03T14:57:06.883Z</time></trkpt><trkpt lat="39.0811717" lon="16.2113917"><ele>153.0</ele><time>2026-05-03T14:57:07.883Z</time></trkpt><trkpt lat="39.0810933" lon="16.21104"><ele>153.0</ele><time>2026-05-03T14:57:08.882Z</time></trkpt><trkpt lat="39.08102" lon="16.21069"><ele>153.0</ele><time>2026-05-03T14:57:09.883Z</time></trkpt><trkpt lat="39.0809383" lon="16.2103333"><ele>149.5</ele><time>2026-05-03T14:57:10.882Z</time></trkpt><trkpt lat="39.080865" lon="16.2099733"><ele>146.0</ele><time>2026-05-03T14:57:11.883Z</time></trkpt><trkpt lat="39.0807883" lon="16.209615"><ele>154.5</ele><time>2026-05-03T14:57:12.883Z</time></trkpt><trkpt lat="39.080715" lon="16.20926"><ele>163.0</ele><time>2026-05-03T14:57:13.883Z</time></trkpt><trkpt lat="39.0806417" lon="16.2089"><ele>163.0</ele><time>2026-05-03T14:57:14.883Z</time></trkpt><trkpt lat="39.0805667" lon="16.2085417"><ele>163.0</ele><time>2026-05-03T14:57:15.883Z</time></trkpt><trkpt lat="39.08049" lon="16.2081867"><ele>153.5</ele><time>2026-05-03T14:57:16.883Z</time></trkpt><trkpt lat="39.0804283" lon="16.2078267"><ele>144.0</ele><time>2026-05-03T14:57:17.883Z</time></trkpt><trkpt lat="39.0803583" lon="16.2074667"><ele>140.0</ele><time>2026-05-03T14:57:18.883Z</time></trkpt><trkpt lat="39.0803" lon="16.2071"><ele>136.0</ele><time>2026-05-03T14:57:19.883Z</time></trkpt><trkpt lat="39.0802467" lon="16.2067317"><ele>134.0</ele><time>2026-05-03T14:57:20.883Z</time></trkpt><trkpt lat="39.0802067" lon="16.2063567"><ele>132.0</ele><time>2026-05-03T14:57:21.883Z</time></trkpt><trkpt lat="39.0801733" lon="16.2059817"><ele>130.0</ele><time>2026-05-03T14:57:22.883Z</time></trkpt><trkpt lat="39.08015" lon="16.2056067"><ele>128.0</ele><time>2026-05-03T14:57:23.883Z</time></trkpt><trkpt lat="39.0801433" lon="16.2052317"><ele>128.0</ele><time>2026-05-03T14:57:24.882Z</time></trkpt><trkpt lat="39.0801433" lon="16.2048617"><ele>128.0</ele><time>2026-05-03T14:57:25.883Z</time></trkpt><trkpt lat="39.0801617" lon="16.2044917"><ele>128.5</ele><time>2026-05-03T14:57:26.883Z</time></trkpt><trkpt lat="39.08019" lon="16.204115"><ele>129.0</ele><time>2026-05-03T14:57:27.883Z</time></trkpt><trkpt lat="39.0802333" lon="16.203745"><ele>132.5</ele><time>2026-05-03T14:57:28.883Z</time></trkpt><trkpt lat="39.080295" lon="16.203385"><ele>136.0</ele><time>2026-05-03T14:57:29.883Z</time></trkpt><trkpt lat="39.0803583" lon="16.2030367"><ele>140.0</ele><time>2026-05-03T14:57:30.883Z</time></trkpt><trkpt lat="39.0804333" lon="16.2026933"><ele>144.0</ele><time>2026-05-03T14:57:31.883Z</time></trkpt><trkpt lat="39.080505" lon="16.2023383"><ele>144.5</ele><time>2026-05-03T14:57:32.883Z</time></trkpt><trkpt lat="39.08057" lon="16.2019883"><ele>145.0</ele><time>2026-05-03T14:57:33.882Z</time></trkpt><trkpt lat="39.0806283" lon="16.2016333"><ele>145.0</ele><time>2026-05-03T14:57:34.883Z</time></trkpt><trkpt lat="39.08068" lon="16.2012833"><ele>145.0</ele><time>2026-05-03T14:57:35.883Z</time></trkpt><trkpt lat="39.0807217" lon="16.20092"><ele>143.5</ele><time>2026-05-03T14:57:36.883Z</time></trkpt><trkpt lat="39.0807533" lon="16.200555"><ele>142.0</ele><time>2026-05-03T14:57:37.883Z</time></trkpt><trkpt lat="39.0807717" lon="16.2001883"><ele>142.0</ele><time>2026-05-03T14:57:38.883Z</time></trkpt><trkpt lat="39.0807733" lon="16.1998133"><ele>142.0</ele><time>2026-05-03T14:57:39.883Z</time></trkpt><trkpt lat="39.0807617" lon="16.1994367"><ele>142.0</ele><time>2026-05-03T14:57:40.883Z</time></trkpt><trkpt lat="39.0807367" lon="16.1990633"><ele>142.0</ele><time>2026-05-03T14:57:41.883Z</time></trkpt><trkpt lat="39.0807033" lon="16.198685"><ele>138.5</ele><time>2026-05-03T14:57:42.883Z</time></trkpt><trkpt lat="39.0806533" lon="16.1983117"><ele>135.0</ele><time>2026-05-03T14:57:43.883Z</time></trkpt><trkpt lat="39.0805883" lon="16.197955"><ele>131.0</ele><time>2026-05-03T14:57:44.882Z</time></trkpt><trkpt lat="39.0805167" lon="16.19759"><ele>127.0</ele><time>2026-05-03T14:57:45.882Z</time></trkpt><trkpt lat="39.0804233" lon="16.1972333"><ele>123.0</ele><time>2026-05-03T14:57:46.882Z</time></trkpt><trkpt lat="39.080315" lon="16.196885"><ele>119.0</ele><time>2026-05-03T14:57:47.883Z</time></trkpt><trkpt lat="39.0801983" lon="16.1965383"><ele>117.5</ele><time>2026-05-03T14:57:48.883Z</time></trkpt><trkpt lat="39.080075" lon="16.1962067"><ele>116.0</ele><time>2026-05-03T14:57:49.883Z</time></trkpt><trkpt lat="39.07994" lon="16.195875"><ele>119.0</ele><time>2026-05-03T14:57:50.882Z</time></trkpt><trkpt lat="39.07978" lon="16.1955583"><ele>122.0</ele><time>2026-05-03T14:57:51.883Z</time></trkpt><trkpt lat="39.079615" lon="16.195255"><ele>122.0</ele><time>2026-05-03T14:57:52.883Z</time></trkpt><trkpt lat="39.0794417" lon="16.194955"><ele>122.0</ele><time>2026-05-03T14:57:53.882Z</time></trkpt><trkpt lat="39.0792533" lon="16.1946783"><ele>119.0</ele><time>2026-05-03T14:57:54.883Z</time></trkpt><trkpt lat="39.0790683" lon="16.1943967"><ele>116.0</ele><time>2026-05-03T14:57:55.882Z</time></trkpt><trkpt lat="39.0788633" lon="16.1941283"><ele>112.5</ele><time>2026-05-03T14:57:56.883Z</time></trkpt><trkpt lat="39.0786483" lon="16.1938583"><ele>109.0</ele><time>2026-05-03T14:57:57.883Z</time></trkpt><trkpt lat="39.0784267" lon="16.1936117"><ele>110.0</ele><time>2026-05-03T14:57:58.883Z</time></trkpt><trkpt lat="39.0781983" lon="16.1933733"><ele>111.0</ele><time>2026-05-03T14:57:59.883Z</time></trkpt><trkpt lat="39.0779667" lon="16.1931467"><ele>111.0</ele><time>2026-05-03T14:58:00.883Z</time></trkpt><trkpt lat="39.07773" lon="16.1929267"><ele>111.0</ele><time>2026-05-03T14:58:01.882Z</time></trkpt><trkpt lat="39.0774867" lon="16.192705"><ele>111.5</ele><time>2026-05-03T14:58:02.882Z</time></trkpt><trkpt lat="39.0772417" lon="16.1924883"><ele>112.0</ele><time>2026-05-03T14:58:03.883Z</time></trkpt><trkpt lat="39.0770017" lon="16.1922767"><ele>112.0</ele><time>2026-05-03T14:58:04.883Z</time></trkpt><trkpt lat="39.0767633" lon="16.19206"><ele>112.0</ele><time>2026-05-03T14:58:05.882Z</time></trkpt><trkpt lat="39.0765267" lon="16.1918417"><ele>110.0</ele><time>2026-05-03T14:58:06.883Z</time></trkpt><trkpt lat="39.0762867" lon="16.1916317"><ele>108.0</ele><time>2026-05-03T14:58:07.883Z</time></trkpt><trkpt lat="39.076055" lon="16.19142"><ele>108.0</ele><time>2026-05-03T14:58:08.883Z</time></trkpt><trkpt lat="39.0758183" lon="16.191225"><ele>108.0</ele><time>2026-05-03T14:58:09.883Z</time></trkpt><trkpt lat="39.0755767" lon="16.1910317"><ele>108.0</ele><time>2026-05-03T14:58:10.883Z</time></trkpt><trkpt lat="39.0753367" lon="16.1908417"><ele>108.0</ele><time>2026-05-03T14:58:11.883Z</time></trkpt><trkpt lat="39.075095" lon="16.190665"><ele>109.0</ele><time>2026-05-03T14:58:12.883Z</time></trkpt><trkpt lat="39.074845" lon="16.1905"><ele>110.0</ele><time>2026-05-03T14:58:13.883Z</time></trkpt><trkpt lat="39.0745917" lon="16.1903383"><ele>110.0</ele><time>2026-05-03T14:58:14.883Z</time></trkpt><trkpt lat="39.07433" lon="16.1901817"><ele>110.0</ele><time>2026-05-03T14:58:15.883Z</time></trkpt><trkpt lat="39.0740667" lon="16.1900317"><ele>108.5</ele><time>2026-05-03T14:58:16.883Z</time></trkpt><trkpt lat="39.0738017" lon="16.1898717"><ele>107.0</ele><time>2026-05-03T14:58:17.883Z</time></trkpt><trkpt lat="39.0735517" lon="16.189685"><ele>107.0</ele><time>2026-05-03T14:58:18.883Z</time></trkpt><trkpt lat="39.0733217" lon="16.18946"><ele>107.0</ele><time>2026-05-03T14:58:19.883Z</time></trkpt><trkpt lat="39.0731083" lon="16.1891983"><ele>112.5</ele><time>2026-05-03T14:58:20.882Z</time></trkpt><trkpt lat="39.072905" lon="16.188915"><ele>118.0</ele><time>2026-05-03T14:58:21.883Z</time></trkpt><trkpt lat="39.0727333" lon="16.1886167"><ele>118.0</ele><time>2026-05-03T14:58:22.883Z</time></trkpt><trkpt lat="39.0725717" lon="16.18831"><ele>118.0</ele><time>2026-05-03T14:58:23.883Z</time></trkpt><trkpt lat="39.072405" lon="16.188015"><ele>129.0</ele><time>2026-05-03T14:58:24.883Z</time></trkpt><trkpt lat="39.072225" lon="16.1877267"><ele>140.0</ele><time>2026-05-03T14:58:25.883Z</time></trkpt><trkpt lat="39.0720283" lon="16.1874583"><ele>127.0</ele><time>2026-05-03T14:58:26.883Z</time></trkpt><trkpt lat="39.07183" lon="16.1871983"><ele>114.0</ele><time>2026-05-03T14:58:27.883Z</time></trkpt><trkpt lat="39.0716233" lon="16.1869433"><ele>118.5</ele><time>2026-05-03T14:58:28.883Z</time></trkpt><trkpt lat="39.0714233" lon="16.1866883"><ele>123.0</ele><time>2026-05-03T14:58:29.882Z</time></trkpt><trkpt lat="39.0712067" lon="16.186455"><ele>114.0</ele><time>2026-05-03T14:58:30.882Z</time></trkpt><trkpt lat="39.0710067" lon="16.18626"><ele>105.0</ele><time>2026-05-03T14:58:31.883Z</time></trkpt><trkpt lat="39.0706717" lon="16.1862267"><ele>105.0</ele><time>2026-05-03T14:58:32.883Z</time></trkpt><trkpt lat="39.0703467" lon="16.18624"><ele>105.0</ele><time>2026-05-03T14:58:33.883Z</time></trkpt><trkpt lat="39.0700517" lon="16.1862183"><ele>110.0</ele><time>2026-05-03T14:58:34.883Z</time></trkpt><trkpt lat="39.069755" lon="16.1861533"><ele>115.0</ele><time>2026-05-03T14:58:35.883Z</time></trkpt><trkpt lat="39.0694683" lon="16.1860483"><ele>115.0</ele><time>2026-05-03T14:58:36.882Z</time></trkpt><trkpt lat="39.0691983" lon="16.1858917"><ele>115.0</ele><time>2026-05-03T14:58:37.882Z</time></trkpt><trkpt lat="39.0689367" lon="16.185715"><ele>118.5</ele><time>2026-05-03T14:58:38.883Z</time></trkpt><trkpt lat="39.0687" lon="16.18549"><ele>122.0</ele><time>2026-05-03T14:58:39.883Z</time></trkpt><trkpt lat="39.0684967" lon="16.1852233"><ele>122.0</ele><time>2026-05-03T14:58:40.883Z</time></trkpt><trkpt lat="39.06832" lon="16.1849217"><ele>122.0</ele><time>2026-05-03T14:58:41.882Z</time></trkpt><trkpt lat="39.0681633" lon="16.1845983"><ele>126.5</ele><time>2026-05-03T14:58:42.883Z</time></trkpt><trkpt lat="39.0680383" lon="16.1842533"><ele>131.0</ele><time>2026-05-03T14:58:43.883Z</time></trkpt><trkpt lat="39.0679433" lon="16.18389"><ele>131.0</ele><time>2026-05-03T14:58:44.883Z</time></trkpt><trkpt lat="39.0678583" lon="16.1835183"><ele>131.0</ele><time>2026-05-03T14:58:45.883Z</time></trkpt><trkpt lat="39.0677767" lon="16.1831633"><ele>131.0</ele><time>2026-05-03T14:58:46.883Z</time></trkpt><trkpt lat="39.06768" lon="16.182815"><ele>131.0</ele><time>2026-05-03T14:58:47.882Z</time></trkpt><trkpt lat="39.0675633" lon="16.18247"><ele>129.5</ele><time>2026-05-03T14:58:48.883Z</time></trkpt><trkpt lat="39.0674367" lon="16.1821467"><ele>128.0</ele><time>2026-05-03T14:58:49.883Z</time></trkpt><trkpt lat="39.06728" lon="16.1818317"><ele>128.0</ele><time>2026-05-03T14:58:50.882Z</time></trkpt><trkpt lat="39.0671017" lon="16.181535"><ele>128.0</ele><time>2026-05-03T14:58:51.883Z</time></trkpt><trkpt lat="39.0669033" lon="16.1812633"><ele>126.0</ele><time>2026-05-03T14:58:52.883Z</time></trkpt><trkpt lat="39.0666967" lon="16.1810117"><ele>124.0</ele><time>2026-05-03T14:58:53.883Z</time></trkpt><trkpt lat="39.0664867" lon="16.180765"><ele>124.5</ele><time>2026-05-03T14:58:54.883Z</time></trkpt><trkpt lat="39.06628" lon="16.18052"><ele>125.0</ele><time>2026-05-03T14:58:55.882Z</time></trkpt><trkpt lat="39.0660683" lon="16.1802717"><ele>125.0</ele><time>2026-05-03T14:58:56.883Z</time></trkpt><trkpt lat="39.0658583" lon="16.18002"><ele>125.0</ele><time>2026-05-03T14:58:57.883Z</time></trkpt><trkpt lat="39.06565" lon="16.1797667"><ele>128.5</ele><time>2026-05-03T14:58:58.883Z</time></trkpt><trkpt lat="39.06545" lon="16.1795017"><ele>132.0</ele><time>2026-05-03T14:58:59.882Z</time></trkpt><trkpt lat="39.0652583" lon="16.1792233"><ele>130.0</ele><time>2026-05-03T14:59:00.883Z</time></trkpt><trkpt lat="39.065075" lon="16.1789317"><ele>128.0</ele><time>2026-05-03T14:59:01.883Z</time></trkpt><trkpt lat="39.0649017" lon="16.17864"><ele>133.0</ele><time>2026-05-03T14:59:02.883Z</time></trkpt><trkpt lat="39.0647433" lon="16.178325"><ele>138.0</ele><time>2026-05-03T14:59:03.883Z</time></trkpt><trkpt lat="39.0645967" lon="16.1780067"><ele>138.0</ele><time>2026-05-03T14:59:04.882Z</time></trkpt><trkpt lat="39.0644583" lon="16.17768"><ele>138.0</ele><time>2026-05-03T14:59:05.883Z</time></trkpt><trkpt lat="39.064325" lon="16.1773433"><ele>138.5</ele><time>2026-05-03T14:59:06.882Z</time></trkpt><trkpt lat="39.06421" lon="16.1770017"><ele>139.0</ele><time>2026-05-03T14:59:07.883Z</time></trkpt><trkpt lat="39.0641033" lon="16.17666"><ele>144.0</ele><time>2026-05-03T14:59:08.883Z</time></trkpt><trkpt lat="39.064005" lon="16.176315"><ele>149.0</ele><time>2026-05-03T14:59:09.883Z</time></trkpt><trkpt lat="39.063915" lon="16.1759617"><ele>148.0</ele><time>2026-05-03T14:59:10.883Z</time></trkpt><trkpt lat="39.0638217" lon="16.1756183"><ele>147.0</ele><time>2026-05-03T14:59:11.883Z</time></trkpt><trkpt lat="39.06372" lon="16.1752767"><ele>147.0</ele><time>2026-05-03T14:59:12.883Z</time></trkpt><trkpt lat="39.0636217" lon="16.1749317"><ele>147.0</ele><time>2026-05-03T14:59:13.883Z</time></trkpt><trkpt lat="39.0635067" lon="16.174605"><ele>146.0</ele><time>2026-05-03T14:59:14.882Z</time></trkpt><trkpt lat="39.06339" lon="16.1742717"><ele>145.0</ele><time>2026-05-03T14:59:15.883Z</time></trkpt><trkpt lat="39.0632683" lon="16.1739367"><ele>151.5</ele><time>2026-05-03T14:59:16.882Z</time></trkpt><trkpt lat="39.063135" lon="16.1736067"><ele>158.0</ele><time>2026-05-03T14:59:17.882Z</time></trkpt><trkpt lat="39.0630033" lon="16.1732633"><ele>155.0</ele><time>2026-05-03T14:59:18.883Z</time></trkpt><trkpt lat="39.0628767" lon="16.1729317"><ele>152.0</ele><time>2026-05-03T14:59:19.883Z</time></trkpt><trkpt lat="39.06275" lon="16.1725967"><ele>147.0</ele><time>2026-05-03T14:59:20.883Z</time></trkpt><trkpt lat="39.0626233" lon="16.17226"><ele>142.0</ele><time>2026-05-03T14:59:21.883Z</time></trkpt><trkpt lat="39.0625033" lon="16.171915"><ele>152.0</ele><time>2026-05-03T14:59:22.883Z</time></trkpt><trkpt lat="39.0623917" lon="16.171565"><ele>162.0</ele><time>2026-05-03T14:59:23.883Z</time></trkpt><trkpt lat="39.0622867" lon="16.17121"><ele>162.0</ele><time>2026-05-03T14:59:24.883Z</time></trkpt><trkpt lat="39.0622033" lon="16.170855"><ele>162.0</ele><time>2026-05-03T14:59:25.882Z</time></trkpt><trkpt lat="39.0621333" lon="16.1704983"><ele>162.0</ele><time>2026-05-03T14:59:26.883Z</time></trkpt><trkpt lat="39.0620767" lon="16.17013"><ele>162.0</ele><time>2026-05-03T14:59:27.883Z</time></trkpt><trkpt lat="39.0620233" lon="16.1697533"><ele>161.0</ele><time>2026-05-03T14:59:28.883Z</time></trkpt><trkpt lat="39.0619633" lon="16.1694"><ele>160.0</ele><time>2026-05-03T14:59:29.883Z</time></trkpt><trkpt lat="39.0619" lon="16.169045"><ele>158.0</ele><time>2026-05-03T14:59:30.883Z</time></trkpt><trkpt lat="39.0618267" lon="16.168685"><ele>156.0</ele><time>2026-05-03T14:59:31.883Z</time></trkpt><trkpt lat="39.061745" lon="16.1683233"><ele>152.0</ele><time>2026-05-03T14:59:32.883Z</time></trkpt><trkpt lat="39.0616533" lon="16.16797"><ele>148.0</ele><time>2026-05-03T14:59:33.883Z</time></trkpt><trkpt lat="39.06155" lon="16.167625"><ele>153.5</ele><time>2026-05-03T14:59:34.883Z</time></trkpt><trkpt lat="39.0614317" lon="16.16728"><ele>159.0</ele><time>2026-05-03T14:59:35.883Z</time></trkpt><trkpt lat="39.0613" lon="16.1669383"><ele>159.0</ele><time>2026-05-03T14:59:36.883Z</time></trkpt><trkpt lat="39.061165" lon="16.166605"><ele>159.0</ele><time>2026-05-03T14:59:37.883Z</time></trkpt><trkpt lat="39.061035" lon="16.1662783"><ele>160.5</ele><time>2026-05-03T14:59:38.882Z</time></trkpt><trkpt lat="39.0608933" lon="16.1659533"><ele>162.0</ele><time>2026-05-03T14:59:39.883Z</time></trkpt><trkpt lat="39.0607533" lon="16.165625"><ele>162.0</ele><time>2026-05-03T14:59:40.882Z</time></trkpt><trkpt lat="39.06062" lon="16.1653"><ele>162.0</ele><time>2026-05-03T14:59:41.882Z</time></trkpt><trkpt lat="39.0605017" lon="16.1649717"><ele>158.0</ele><time>2026-05-03T14:59:42.883Z</time></trkpt><trkpt lat="39.06039" lon="16.164635"><ele>154.0</ele><time>2026-05-03T14:59:43.882Z</time></trkpt><trkpt lat="39.06028" lon="16.1642967"><ele>152.5</ele><time>2026-05-03T14:59:44.882Z</time></trkpt><trkpt lat="39.060175" lon="16.1639483"><ele>151.0</ele><time>2026-05-03T14:59:45.883Z</time></trkpt><trkpt lat="39.0600717" lon="16.1636033"><ele>151.0</ele><time>2026-05-03T14:59:46.882Z</time></trkpt><trkpt lat="39.0599733" lon="16.1632617"><ele>151.0</ele><time>2026-05-03T14:59:47.882Z</time></trkpt><trkpt lat="39.0598683" lon="16.1629167"><ele>155.0</ele><time>2026-05-03T14:59:48.883Z</time></trkpt><trkpt lat="39.059765" lon="16.1625733"><ele>159.0</ele><time>2026-05-03T14:59:49.883Z</time></trkpt><trkpt lat="39.0596583" lon="16.1622233"><ele>159.0</ele><time>2026-05-03T14:59:50.883Z</time></trkpt><trkpt lat="39.0595483" lon="16.161875"><ele>159.0</ele><time>2026-05-03T14:59:51.882Z</time></trkpt><trkpt lat="39.0594433" lon="16.1615267"><ele>152.0</ele><time>2026-05-03T14:59:52.883Z</time></trkpt><trkpt lat="39.0593417" lon="16.1611833"><ele>145.0</ele><time>2026-05-03T14:59:53.882Z</time></trkpt><trkpt lat="39.0592383" lon="16.1608383"><ele>146.0</ele><time>2026-05-03T14:59:54.883Z</time></trkpt><trkpt lat="39.059135" lon="16.1604917"><ele>147.0</ele><time>2026-05-03T14:59:55.883Z</time></trkpt><trkpt lat="39.05903" lon="16.1601483"><ele>148.0</ele><time>2026-05-03T14:59:56.883Z</time></trkpt><trkpt lat="39.0589283" lon="16.1597983"><ele>149.0</ele><time>2026-05-03T14:59:57.882Z</time></trkpt><trkpt lat="39.058825" lon="16.1594533"><ele>149.0</ele><time>2026-05-03T14:59:58.883Z</time></trkpt><trkpt lat="39.0587183" lon="16.1591083"><ele>149.0</ele><time>2026-05-03T14:59:59.883Z</time></trkpt><trkpt lat="39.0586017" lon="16.1587667"><ele>148.5</ele><time>2026-05-03T15:00:00.883Z</time></trkpt><trkpt lat="39.0584783" lon="16.15843"><ele>148.0</ele><time>2026-05-03T15:00:01.883Z</time></trkpt><trkpt lat="39.0583483" lon="16.1580983"><ele>155.0</ele><time>2026-05-03T15:00:02.883Z</time></trkpt><trkpt lat="39.058205" lon="16.1577717"><ele>162.0</ele><time>2026-05-03T15:00:03.883Z</time></trkpt><trkpt lat="39.0580517" lon="16.1574517"><ele>155.0</ele><time>2026-05-03T15:00:04.883Z</time></trkpt><trkpt lat="39.0578867" lon="16.1571383"><ele>148.0</ele><time>2026-05-03T15:00:05.883Z</time></trkpt><trkpt lat="39.0577133" lon="16.15684"><ele>148.0</ele><time>2026-05-03T15:00:06.883Z</time></trkpt><trkpt lat="39.0575283" lon="16.1565517"><ele>148.0</ele><time>2026-05-03T15:00:07.883Z</time></trkpt><trkpt lat="39.0573267" lon="16.1562783"><ele>153.0</ele><time>2026-05-03T15:00:08.882Z</time></trkpt><trkpt lat="39.0571183" lon="16.1560167"><ele>158.0</ele><time>2026-05-03T15:00:09.883Z</time></trkpt><trkpt lat="39.0569" lon="16.15577"><ele>154.5</ele><time>2026-05-03T15:00:10.883Z</time></trkpt><trkpt lat="39.0566733" lon="16.1555367"><ele>151.0</ele><time>2026-05-03T15:00:11.883Z</time></trkpt><trkpt lat="39.0564433" lon="16.15531"><ele>150.5</ele><time>2026-05-03T15:00:12.882Z</time></trkpt><trkpt lat="39.0562067" lon="16.1550917"><ele>150.0</ele><time>2026-05-03T15:00:13.883Z</time></trkpt><trkpt lat="39.055965" lon="16.1548967"><ele>148.0</ele><time>2026-05-03T15:00:14.883Z</time></trkpt><trkpt lat="39.0557183" lon="16.154725"><ele>146.0</ele><time>2026-05-03T15:00:15.883Z</time></trkpt><trkpt lat="39.0554617" lon="16.154555"><ele>146.0</ele><time>2026-05-03T15:00:16.883Z</time></trkpt><trkpt lat="39.0552017" lon="16.154385"><ele>146.0</ele><time>2026-05-03T15:00:17.883Z</time></trkpt><trkpt lat="39.0549417" lon="16.1542217"><ele>144.0</ele><time>2026-05-03T15:00:18.882Z</time></trkpt><trkpt lat="39.0546783" lon="16.1540617"><ele>142.0</ele><time>2026-05-03T15:00:19.883Z</time></trkpt><trkpt lat="39.054415" lon="16.1539017"><ele>142.0</ele><time>2026-05-03T15:00:20.883Z</time></trkpt><trkpt lat="39.0541517" lon="16.1537483"><ele>142.0</ele><time>2026-05-03T15:00:21.882Z</time></trkpt><trkpt lat="39.0538967" lon="16.1535917"><ele>147.5</ele><time>2026-05-03T15:00:22.883Z</time></trkpt><trkpt lat="39.0536333" lon="16.15343"><ele>153.0</ele><time>2026-05-03T15:00:23.883Z</time></trkpt><trkpt lat="39.0533667" lon="16.1532717"><ele>149.5</ele><time>2026-05-03T15:00:24.883Z</time></trkpt><trkpt lat="39.0531033" lon="16.153115"><ele>146.0</ele><time>2026-05-03T15:00:25.883Z</time></trkpt><trkpt lat="39.05284" lon="16.15295"><ele>146.0</ele><time>2026-05-03T15:00:26.883Z</time></trkpt><trkpt lat="39.0525767" lon="16.1527917"><ele>146.0</ele><time>2026-05-03T15:00:27.883Z</time></trkpt><trkpt lat="39.0523117" lon="16.1526317"><ele>145.5</ele><time>2026-05-03T15:00:28.883Z</time></trkpt><trkpt lat="39.052055" lon="16.1524733"><ele>145.0</ele><time>2026-05-03T15:00:29.882Z</time></trkpt><trkpt lat="39.051805" lon="16.1523017"><ele>148.0</ele><time>2026-05-03T15:00:30.882Z</time></trkpt><trkpt lat="39.051555" lon="16.1521283"><ele>151.0</ele><time>2026-05-03T15:00:31.883Z</time></trkpt><trkpt lat="39.0512983" lon="16.1519417"><ele>151.0</ele><time>2026-05-03T15:00:32.883Z</time></trkpt><trkpt lat="39.0510467" lon="16.15175"><ele>151.0</ele><time>2026-05-03T15:00:33.882Z</time></trkpt><trkpt lat="39.0507967" lon="16.1515583"><ele>150.5</ele><time>2026-05-03T15:00:34.883Z</time></trkpt><trkpt lat="39.050555" lon="16.151355"><ele>150.0</ele><time>2026-05-03T15:00:35.882Z</time></trkpt><trkpt lat="39.0503217" lon="16.1511433"><ele>150.0</ele><time>2026-05-03T15:00:36.883Z</time></trkpt><trkpt lat="39.0500917" lon="16.1509183"><ele>150.0</ele><time>2026-05-03T15:00:37.883Z</time></trkpt><trkpt lat="39.0498667" lon="16.1506817"><ele>151.5</ele><time>2026-05-03T15:00:38.883Z</time></trkpt><trkpt lat="39.0496433" lon="16.1504367"><ele>153.0</ele><time>2026-05-03T15:00:39.882Z</time></trkpt><trkpt lat="39.0494167" lon="16.1502"><ele>153.0</ele><time>2026-05-03T15:00:40.883Z</time></trkpt><trkpt lat="39.0491917" lon="16.1499667"><ele>153.0</ele><time>2026-05-03T15:00:41.882Z</time></trkpt><trkpt lat="39.04897" lon="16.1497417"><ele>153.0</ele><time>2026-05-03T15:00:42.883Z</time></trkpt><trkpt lat="39.0487417" lon="16.1495067"><ele>153.0</ele><time>2026-05-03T15:00:43.883Z</time></trkpt><trkpt lat="39.0485133" lon="16.149275"><ele>152.5</ele><time>2026-05-03T15:00:44.883Z</time></trkpt><trkpt lat="39.0482917" lon="16.1490483"><ele>152.0</ele><time>2026-05-03T15:00:45.883Z</time></trkpt><trkpt lat="39.04807" lon="16.14882"><ele>152.0</ele><time>2026-05-03T15:00:46.883Z</time></trkpt><trkpt lat="39.0478433" lon="16.1485917"><ele>152.0</ele><time>2026-05-03T15:00:47.883Z</time></trkpt><trkpt lat="39.04762" lon="16.1483667"><ele>149.0</ele><time>2026-05-03T15:00:48.882Z</time></trkpt><trkpt lat="39.0473867" lon="16.14815"><ele>146.0</ele><time>2026-05-03T15:00:49.882Z</time></trkpt><trkpt lat="39.0471467" lon="16.1479433"><ele>146.0</ele><time>2026-05-03T15:00:50.883Z</time></trkpt><trkpt lat="39.0469067" lon="16.1477483"><ele>146.0</ele><time>2026-05-03T15:00:51.883Z</time></trkpt><trkpt lat="39.04666" lon="16.147565"><ele>147.5</ele><time>2026-05-03T15:00:52.883Z</time></trkpt><trkpt lat="39.0464083" lon="16.1474033"><ele>149.0</ele><time>2026-05-03T15:00:53.883Z</time></trkpt><trkpt lat="39.046145" lon="16.1472467"><ele>149.0</ele><time>2026-05-03T15:00:54.882Z</time></trkpt><trkpt lat="39.045875" lon="16.1471017"><ele>149.0</ele><time>2026-05-03T15:00:55.883Z</time></trkpt><trkpt lat="39.045605" lon="16.14695"><ele>151.5</ele><time>2026-05-03T15:00:56.883Z</time></trkpt><trkpt lat="39.0453367" lon="16.1468033"><ele>154.0</ele><time>2026-05-03T15:00:57.882Z</time></trkpt><trkpt lat="39.0450667" lon="16.146655"><ele>144.5</ele><time>2026-05-03T15:00:58.883Z</time></trkpt><trkpt lat="39.0448" lon="16.1464967"><ele>135.0</ele><time>2026-05-03T15:00:59.883Z</time></trkpt><trkpt lat="39.0445433" lon="16.1463267"><ele>135.0</ele><time>2026-05-03T15:01:00.883Z</time></trkpt><trkpt lat="39.04429" lon="16.1461417"><ele>135.0</ele><time>2026-05-03T15:01:01.883Z</time></trkpt><trkpt lat="39.0440433" lon="16.1459533"><ele>137.0</ele><time>2026-05-03T15:01:02.883Z</time></trkpt><trkpt lat="39.0438017" lon="16.1457433"><ele>139.0</ele><time>2026-05-03T15:01:03.883Z</time></trkpt><trkpt lat="39.0435683" lon="16.1455183"><ele>139.0</ele><time>2026-05-03T15:01:04.883Z</time></trkpt><trkpt lat="39.043345" lon="16.14528"><ele>139.0</ele><time>2026-05-03T15:01:05.883Z</time></trkpt><trkpt lat="39.0431283" lon="16.1450283"><ele>143.5</ele><time>2026-05-03T15:01:06.883Z</time></trkpt><trkpt lat="39.0429183" lon="16.1447633"><ele>148.0</ele><time>2026-05-03T15:01:07.883Z</time></trkpt><trkpt lat="39.0427233" lon="16.1444883"><ele>148.0</ele><time>2026-05-03T15:01:08.883Z</time></trkpt><trkpt lat="39.0425333" lon="16.1442083"><ele>148.0</ele><time>2026-05-03T15:01:09.883Z</time></trkpt><trkpt lat="39.0423533" lon="16.1439117"><ele>154.5</ele><time>2026-05-03T15:01:10.883Z</time></trkpt><trkpt lat="39.0421867" lon="16.14361"><ele>161.0</ele><time>2026-05-03T15:01:11.883Z</time></trkpt><trkpt lat="39.0420333" lon="16.1432983"><ele>152.5</ele><time>2026-05-03T15:01:12.883Z</time></trkpt><trkpt lat="39.0419" lon="16.1429817"><ele>144.0</ele><time>2026-05-03T15:01:13.882Z</time></trkpt><trkpt lat="39.04177" lon="16.1426517"><ele>140.0</ele><time>2026-05-03T15:01:14.883Z</time></trkpt><trkpt lat="39.041645" lon="16.14232"><ele>136.0</ele><time>2026-05-03T15:01:15.883Z</time></trkpt><trkpt lat="39.0415167" lon="16.1419783"><ele>145.5</ele><time>2026-05-03T15:01:16.883Z</time></trkpt><trkpt lat="39.041385" lon="16.1416433"><ele>155.0</ele><time>2026-05-03T15:01:17.883Z</time></trkpt><trkpt lat="39.041245" lon="16.14131"><ele>155.0</ele><time>2026-05-03T15:01:18.882Z</time></trkpt><trkpt lat="39.0411" lon="16.1409833"><ele>155.0</ele><time>2026-05-03T15:01:19.882Z</time></trkpt><trkpt lat="39.040945" lon="16.140665"><ele>151.5</ele><time>2026-05-03T15:01:20.882Z</time></trkpt><trkpt lat="39.0407767" lon="16.1403617"><ele>148.0</ele><time>2026-05-03T15:01:21.883Z</time></trkpt><trkpt lat="39.0406" lon="16.140065"><ele>137.0</ele><time>2026-05-03T15:01:22.882Z</time></trkpt><trkpt lat="39.0404117" lon="16.13978"><ele>126.0</ele><time>2026-05-03T15:01:23.882Z</time></trkpt><trkpt lat="39.04021" lon="16.1395033"><ele>126.0</ele><time>2026-05-03T15:01:24.882Z</time></trkpt><trkpt lat="39.0400017" lon="16.1392383"><ele>126.0</ele><time>2026-05-03T15:01:25.883Z</time></trkpt><trkpt lat="39.0397817" lon="16.138985"><ele>127.0</ele><time>2026-05-03T15:01:26.883Z</time></trkpt><trkpt lat="39.039565" lon="16.1387467"><ele>128.0</ele><time>2026-05-03T15:01:27.883Z</time></trkpt><trkpt lat="39.0393483" lon="16.138505"><ele>130.5</ele><time>2026-05-03T15:01:28.882Z</time></trkpt><trkpt lat="39.0391317" lon="16.138275"><ele>133.0</ele><time>2026-05-03T15:01:29.883Z</time></trkpt><trkpt lat="39.0389033" lon="16.13805"><ele>133.0</ele><time>2026-05-03T15:01:30.883Z</time></trkpt><trkpt lat="39.0386767" lon="16.1378217"><ele>133.0</ele><time>2026-05-03T15:01:31.883Z</time></trkpt><trkpt lat="39.0384467" lon="16.1375917"><ele>130.5</ele><time>2026-05-03T15:01:32.882Z</time></trkpt><trkpt lat="39.0382167" lon="16.137365"><ele>128.0</ele><time>2026-05-03T15:01:33.883Z</time></trkpt><trkpt lat="39.037985" lon="16.1371433"><ele>128.0</ele><time>2026-05-03T15:01:34.883Z</time></trkpt><trkpt lat="39.037745" lon="16.136935"><ele>128.0</ele><time>2026-05-03T15:01:35.883Z</time></trkpt><trkpt lat="39.0372617" lon="16.1365533"><ele>124.0</ele><time>2026-05-03T15:01:37.882Z</time></trkpt><trkpt lat="39.0370233" lon="16.1363517"><ele>120.0</ele><time>2026-05-03T15:01:38.883Z</time></trkpt><trkpt lat="39.0367633" lon="16.13618"><ele>105.5</ele><time>2026-05-03T15:01:39.883Z</time></trkpt><trkpt lat="39.0365033" lon="16.13602"><ele>91.0</ele><time>2026-05-03T15:01:40.883Z</time></trkpt><trkpt lat="39.0362433" lon="16.1358533"><ele>87.5</ele><time>2026-05-03T15:01:41.883Z</time></trkpt><trkpt lat="39.0359833" lon="16.135695"><ele>84.0</ele><time>2026-05-03T15:01:42.883Z</time></trkpt><trkpt lat="39.0357267" lon="16.135535"><ele>84.0</ele><time>2026-05-03T15:01:43.882Z</time></trkpt><trkpt lat="39.03547" lon="16.135375"><ele>84.0</ele><time>2026-05-03T15:01:44.883Z</time></trkpt><trkpt lat="39.0352117" lon="16.13521"><ele>97.5</ele><time>2026-05-03T15:01:45.883Z</time></trkpt><trkpt lat="39.0349517" lon="16.1350517"><ele>111.0</ele><time>2026-05-03T15:01:46.883Z</time></trkpt><trkpt lat="39.03469" lon="16.1348933"><ele>102.5</ele><time>2026-05-03T15:01:47.883Z</time></trkpt><trkpt lat="39.0344283" lon="16.134735"><ele>94.0</ele><time>2026-05-03T15:01:48.882Z</time></trkpt><trkpt lat="39.03417" lon="16.1345833"><ele>106.0</ele><time>2026-05-03T15:01:49.882Z</time></trkpt><trkpt lat="39.0339133" lon="16.1344217"><ele>118.0</ele><time>2026-05-03T15:01:50.882Z</time></trkpt><trkpt lat="39.0336567" lon="16.1342667"><ele>118.0</ele><time>2026-05-03T15:01:51.883Z</time></trkpt><trkpt lat="39.0334017" lon="16.134095"><ele>118.0</ele><time>2026-05-03T15:01:52.883Z</time></trkpt><trkpt lat="39.033145" lon="16.13392"><ele>114.0</ele><time>2026-05-03T15:01:53.883Z</time></trkpt><trkpt lat="39.032895" lon="16.1337217"><ele>110.0</ele><time>2026-05-03T15:01:54.883Z</time></trkpt><trkpt lat="39.0326617" lon="16.1335033"><ele>109.5</ele><time>2026-05-03T15:01:55.882Z</time></trkpt><trkpt lat="39.032435" lon="16.133275"><ele>109.0</ele><time>2026-05-03T15:01:56.883Z</time></trkpt><trkpt lat="39.0322183" lon="16.1330367"><ele>109.0</ele><time>2026-05-03T15:01:57.883Z</time></trkpt><trkpt lat="39.032005" lon="16.1327983"><ele>109.0</ele><time>2026-05-03T15:01:58.883Z</time></trkpt><trkpt lat="39.0317983" lon="16.13253"><ele>116.5</ele><time>2026-05-03T15:01:59.883Z</time></trkpt><trkpt lat="39.0316033" lon="16.13225"><ele>124.0</ele><time>2026-05-03T15:02:00.882Z</time></trkpt><trkpt lat="39.0314233" lon="16.1319433"><ele>124.0</ele><time>2026-05-03T15:02:01.883Z</time></trkpt><trkpt lat="39.0312583" lon="16.13164"><ele>124.0</ele><time>2026-05-03T15:02:02.883Z</time></trkpt><trkpt lat="39.0310967" lon="16.1313267"><ele>129.0</ele><time>2026-05-03T15:02:03.882Z</time></trkpt><trkpt lat="39.0309267" lon="16.1310283"><ele>134.0</ele><time>2026-05-03T15:02:04.882Z</time></trkpt><trkpt lat="39.0307667" lon="16.1307267"><ele>125.0</ele><time>2026-05-03T15:02:05.883Z</time></trkpt><trkpt lat="39.0306033" lon="16.13041"><ele>116.0</ele><time>2026-05-03T15:02:06.883Z</time></trkpt><trkpt lat="39.0304433" lon="16.1300967"><ele>109.0</ele><time>2026-05-03T15:02:07.882Z</time></trkpt><trkpt lat="39.0302783" lon="16.1297917"><ele>102.0</ele><time>2026-05-03T15:02:08.883Z</time></trkpt><trkpt lat="39.0301133" lon="16.12948"><ele>109.0</ele><time>2026-05-03T15:02:09.883Z</time></trkpt><trkpt lat="39.0299483" lon="16.1291767"><ele>116.0</ele><time>2026-05-03T15:02:10.883Z</time></trkpt><trkpt lat="39.0297883" lon="16.1288733"><ele>116.0</ele><time>2026-05-03T15:02:11.883Z</time></trkpt><trkpt lat="39.0296217" lon="16.1285767"><ele>116.0</ele><time>2026-05-03T15:02:12.883Z</time></trkpt><trkpt lat="39.0294483" lon="16.1282717"><ele>120.5</ele><time>2026-05-03T15:02:13.882Z</time></trkpt><trkpt lat="39.0292717" lon="16.12797"><ele>125.0</ele><time>2026-05-03T15:02:14.883Z</time></trkpt><trkpt lat="39.0290867" lon="16.12768"><ele>125.0</ele><time>2026-05-03T15:02:15.882Z</time></trkpt><trkpt lat="39.028895" lon="16.1274"><ele>125.0</ele><time>2026-05-03T15:02:16.882Z</time></trkpt><trkpt lat="39.02871" lon="16.12712"><ele>119.0</ele><time>2026-05-03T15:02:17.882Z</time></trkpt><trkpt lat="39.0285217" lon="16.126835"><ele>113.0</ele><time>2026-05-03T15:02:18.882Z</time></trkpt><trkpt lat="39.0283417" lon="16.1265417"><ele>124.5</ele><time>2026-05-03T15:02:19.883Z</time></trkpt><trkpt lat="39.0281683" lon="16.1262417"><ele>136.0</ele><time>2026-05-03T15:02:20.882Z</time></trkpt><trkpt lat="39.0279917" lon="16.12595"><ele>130.0</ele><time>2026-05-03T15:02:21.883Z</time></trkpt><trkpt lat="39.0278167" lon="16.12566"><ele>124.0</ele><time>2026-05-03T15:02:22.883Z</time></trkpt><trkpt lat="39.02251" lon="16.1224867"><ele>85.5</ele><time>2026-05-03T15:02:42.885Z</time></trkpt><trkpt lat="39.0222333" lon="16.1223467"><ele>47.0</ele><time>2026-05-03T15:02:43.885Z</time></trkpt><trkpt lat="39.0219717" lon="16.12222"><ele>47.0</ele><time>2026-05-03T15:02:44.885Z</time></trkpt><trkpt lat="39.0217" lon="16.1221067"><ele>47.0</ele><time>2026-05-03T15:02:45.885Z</time></trkpt><trkpt lat="39.02142" lon="16.1220067"><ele>51.0</ele><time>2026-05-03T15:02:46.885Z</time></trkpt><trkpt lat="39.0211433" lon="16.1219133"><ele>55.0</ele><time>2026-05-03T15:02:47.884Z</time></trkpt><trkpt lat="39.0208633" lon="16.1218367"><ele>55.5</ele><time>2026-05-03T15:02:48.885Z</time></trkpt><trkpt lat="39.0205817" lon="16.1217767"><ele>56.0</ele><time>2026-05-03T15:02:49.884Z</time></trkpt><trkpt lat="39.0203" lon="16.1217367"><ele>56.0</ele><time>2026-05-03T15:02:50.885Z</time></trkpt><trkpt lat="39.0200117" lon="16.1217067"><ele>56.0</ele><time>2026-05-03T15:02:51.885Z</time></trkpt><trkpt lat="39.01972" lon="16.1217017"><ele>56.0</ele><time>2026-05-03T15:02:52.885Z</time></trkpt><trkpt lat="39.0194283" lon="16.1217083"><ele>56.0</ele><time>2026-05-03T15:02:53.885Z</time></trkpt><trkpt lat="39.0191383" lon="16.12173"><ele>55.0</ele><time>2026-05-03T15:02:54.885Z</time></trkpt><trkpt lat="39.0188467" lon="16.121765"><ele>54.0</ele><time>2026-05-03T15:02:55.884Z</time></trkpt><trkpt lat="39.0185567" lon="16.1218167"><ele>48.5</ele><time>2026-05-03T15:02:56.884Z</time></trkpt><trkpt lat="39.0182717" lon="16.121885"><ele>43.0</ele><time>2026-05-03T15:02:57.885Z</time></trkpt><trkpt lat="39.0179917" lon="16.12197"><ele>43.0</ele><time>2026-05-03T15:02:58.885Z</time></trkpt><trkpt lat="39.0177083" lon="16.1220717"><ele>43.0</ele><time>2026-05-03T15:02:59.885Z</time></trkpt><trkpt lat="39.0174317" lon="16.12218"><ele>43.5</ele><time>2026-05-03T15:03:00.885Z</time></trkpt><trkpt lat="39.0171567" lon="16.1223067"><ele>44.0</ele><time>2026-05-03T15:03:01.885Z</time></trkpt><trkpt lat="39.01689" lon="16.12244"><ele>35.5</ele><time>2026-05-03T15:03:02.885Z</time></trkpt><trkpt lat="39.016625" lon="16.12259"><ele>27.0</ele><time>2026-05-03T15:03:03.884Z</time></trkpt><trkpt lat="39.0163667" lon="16.1227533"><ele>27.0</ele><time>2026-05-03T15:03:04.885Z</time></trkpt><trkpt lat="39.016105" lon="16.122925"><ele>27.0</ele><time>2026-05-03T15:03:05.885Z</time></trkpt><trkpt lat="39.01585" lon="16.1230967"><ele>32.0</ele><time>2026-05-03T15:03:06.885Z</time></trkpt><trkpt lat="39.0155933" lon="16.1232683"><ele>37.0</ele><time>2026-05-03T15:03:07.885Z</time></trkpt><trkpt lat="39.0153317" lon="16.1234317"><ele>37.0</ele><time>2026-05-03T15:03:08.885Z</time></trkpt><trkpt lat="39.015065" lon="16.1235767"><ele>37.0</ele><time>2026-05-03T15:03:09.885Z</time></trkpt><trkpt lat="39.0147967" lon="16.1237133"><ele>35.0</ele><time>2026-05-03T15:03:10.885Z</time></trkpt><trkpt lat="39.0145283" lon="16.1238383"><ele>33.0</ele><time>2026-05-03T15:03:11.885Z</time></trkpt><trkpt lat="39.0142583" lon="16.123955"><ele>29.5</ele><time>2026-05-03T15:03:12.885Z</time></trkpt><trkpt lat="39.0139867" lon="16.1240667"><ele>26.0</ele><time>2026-05-03T15:03:13.885Z</time></trkpt><trkpt lat="39.01372" lon="16.1241817"><ele>26.0</ele><time>2026-05-03T15:03:14.885Z</time></trkpt><trkpt lat="39.0134517" lon="16.1243083"><ele>26.0</ele><time>2026-05-03T15:03:15.885Z</time></trkpt><trkpt lat="39.0131833" lon="16.1244383"><ele>18.5</ele><time>2026-05-03T15:03:16.885Z</time></trkpt><trkpt lat="39.01292" lon="16.1245867"><ele>11.0</ele><time>2026-05-03T15:03:17.885Z</time></trkpt><trkpt lat="39.0126567" lon="16.1247533"><ele>12.5</ele><time>2026-05-03T15:03:18.884Z</time></trkpt><trkpt lat="39.0124033" lon="16.1249333"><ele>14.0</ele><time>2026-05-03T15:03:19.885Z</time></trkpt><trkpt lat="39.01216" lon="16.1251233"><ele>14.0</ele><time>2026-05-03T15:03:20.885Z</time></trkpt><trkpt lat="39.0119217" lon="16.1253283"><ele>14.0</ele><time>2026-05-03T15:03:21.885Z</time></trkpt><trkpt lat="39.01169" lon="16.1255433"><ele>13.0</ele><time>2026-05-03T15:03:22.885Z</time></trkpt><trkpt lat="39.01146" lon="16.1257783"><ele>12.0</ele><time>2026-05-03T15:03:23.885Z</time></trkpt><trkpt lat="39.011235" lon="16.1260117"><ele>12.0</ele><time>2026-05-03T15:03:24.885Z</time></trkpt><trkpt lat="39.01102" lon="16.1262483"><ele>12.0</ele><time>2026-05-03T15:03:25.885Z</time></trkpt><trkpt lat="39.010815" lon="16.12651"><ele>10.0</ele><time>2026-05-03T15:03:26.885Z</time></trkpt><trkpt lat="39.0106183" lon="16.1267717"><ele>8.0</ele><time>2026-05-03T15:03:27.885Z</time></trkpt><trkpt lat="39.0104283" lon="16.1270517"><ele>8.0</ele><time>2026-05-03T15:03:28.885Z</time></trkpt><trkpt lat="39.0102517" lon="16.127345"><ele>8.0</ele><time>2026-05-03T15:03:29.884Z</time></trkpt><trkpt lat="39.0100783" lon="16.1276517"><ele>8.5</ele><time>2026-05-03T15:03:30.885Z</time></trkpt><trkpt lat="39.00991" lon="16.1279767"><ele>9.0</ele><time>2026-05-03T15:03:31.885Z</time></trkpt><trkpt lat="39.0097483" lon="16.1283133"><ele>9.0</ele><time>2026-05-03T15:03:32.885Z</time></trkpt><trkpt lat="39.0095933" lon="16.128645"><ele>9.0</ele><time>2026-05-03T15:03:33.885Z</time></trkpt><trkpt lat="39.0094433" lon="16.129"><ele>6.5</ele><time>2026-05-03T15:03:34.884Z</time></trkpt><trkpt lat="39.0092917" lon="16.1293633"><ele>4.0</ele><time>2026-05-03T15:03:35.885Z</time></trkpt><trkpt lat="39.0091367" lon="16.1297217"><ele>4.5</ele><time>2026-05-03T15:03:36.885Z</time></trkpt><trkpt lat="39.0089783" lon="16.1300883"><ele>5.0</ele><time>2026-05-03T15:03:37.884Z</time></trkpt><trkpt lat="39.0088067" lon="16.1304567"><ele>7.0</ele><time>2026-05-03T15:03:38.885Z</time></trkpt><trkpt lat="39.0086233" lon="16.1308167"><ele>9.0</ele><time>2026-05-03T15:03:39.885Z</time></trkpt><trkpt lat="39.008415" lon="16.13117"><ele>9.0</ele><time>2026-05-03T15:03:40.885Z</time></trkpt><trkpt lat="39.0081883" lon="16.131515"><ele>9.0</ele><time>2026-05-03T15:03:41.885Z</time></trkpt><trkpt lat="39.007955" lon="16.1318383"><ele>9.0</ele><time>2026-05-03T15:03:42.885Z</time></trkpt><trkpt lat="39.0077183" lon="16.1321367"><ele>9.0</ele><time>2026-05-03T15:03:43.885Z</time></trkpt><trkpt lat="39.007475" lon="16.1324067"><ele>8.0</ele><time>2026-05-03T15:03:44.885Z</time></trkpt><trkpt lat="39.0072167" lon="16.132665"><ele>7.0</ele><time>2026-05-03T15:03:45.885Z</time></trkpt><trkpt lat="39.00695" lon="16.1328983"><ele>7.0</ele><time>2026-05-03T15:03:46.885Z</time></trkpt><trkpt lat="39.0066717" lon="16.1331117"><ele>7.0</ele><time>2026-05-03T15:03:47.885Z</time></trkpt><trkpt lat="39.006395" lon="16.1333133"><ele>7.0</ele><time>2026-05-03T15:03:48.885Z</time></trkpt><trkpt lat="39.006115" lon="16.1334933"><ele>7.0</ele><time>2026-05-03T15:03:49.884Z</time></trkpt><trkpt lat="39.00583" lon="16.1336567"><ele>6.0</ele><time>2026-05-03T15:03:50.885Z</time></trkpt><trkpt lat="39.00554" lon="16.1337983"><ele>5.0</ele><time>2026-05-03T15:03:51.885Z</time></trkpt><trkpt lat="39.0052517" lon="16.133915"><ele>4.5</ele><time>2026-05-03T15:03:52.884Z</time></trkpt><trkpt lat="39.0049567" lon="16.1340167"><ele>4.0</ele><time>2026-05-03T15:03:53.885Z</time></trkpt><trkpt lat="39.004665" lon="16.1340883"><ele>4.0</ele><time>2026-05-03T15:03:54.885Z</time></trkpt><trkpt lat="39.004375" lon="16.1341767"><ele>4.0</ele><time>2026-05-03T15:03:55.885Z</time></trkpt><trkpt lat="39.0040883" lon="16.1342517"><ele>4.0</ele><time>2026-05-03T15:03:56.885Z</time></trkpt><trkpt lat="39.0037983" lon="16.1343217"><ele>4.0</ele><time>2026-05-03T15:03:57.885Z</time></trkpt><trkpt lat="39.0035117" lon="16.1343917"><ele>4.5</ele><time>2026-05-03T15:03:58.885Z</time></trkpt><trkpt lat="39.0032217" lon="16.1344583"><ele>5.0</ele><time>2026-05-03T15:03:59.885Z</time></trkpt><trkpt lat="39.0029317" lon="16.134525"><ele>5.0</ele><time>2026-05-03T15:04:00.885Z</time></trkpt><trkpt lat="39.0026483" lon="16.1345917"><ele>5.0</ele><time>2026-05-03T15:04:01.885Z</time></trkpt><trkpt lat="39.00237" lon="16.1346567"><ele>5.0</ele><time>2026-05-03T15:04:02.885Z</time></trkpt><trkpt lat="39.0020917" lon="16.134725"><ele>5.0</ele><time>2026-05-03T15:04:03.885Z</time></trkpt><trkpt lat="39.00182" lon="16.1347917"><ele>4.5</ele><time>2026-05-03T15:04:04.885Z</time></trkpt><trkpt lat="39.0015467" lon="16.1348633"><ele>4.0</ele><time>2026-05-03T15:04:05.885Z</time></trkpt><trkpt lat="39.0012767" lon="16.1349117"><ele>4.0</ele><time>2026-05-03T15:04:06.885Z</time></trkpt><trkpt lat="39.0010033" lon="16.13499"><ele>4.0</ele><time>2026-05-03T15:04:07.885Z</time></trkpt><trkpt lat="39.0007317" lon="16.1350667"><ele>5.0</ele><time>2026-05-03T15:04:08.885Z</time></trkpt><trkpt lat="39.00046" lon="16.13514"><ele>6.0</ele><time>2026-05-03T15:04:09.885Z</time></trkpt><trkpt lat="39.00019" lon="16.135215"><ele>6.0</ele><time>2026-05-03T15:04:10.885Z</time></trkpt><trkpt lat="38.9999167" lon="16.1352833"><ele>6.0</ele><time>2026-05-03T15:04:11.885Z</time></trkpt><trkpt lat="38.9996433" lon="16.13536"><ele>6.0</ele><time>2026-05-03T15:04:12.885Z</time></trkpt><trkpt lat="38.99936" lon="16.1354383"><ele>6.0</ele><time>2026-05-03T15:04:13.885Z</time></trkpt><trkpt lat="38.9990867" lon="16.1354983"><ele>6.0</ele><time>2026-05-03T15:04:14.885Z</time></trkpt><trkpt lat="38.9988083" lon="16.1355617"><ele>6.0</ele><time>2026-05-03T15:04:15.884Z</time></trkpt><trkpt lat="38.998525" lon="16.13563"><ele>6.0</ele><time>2026-05-03T15:04:16.885Z</time></trkpt><trkpt lat="38.99824" lon="16.1357"><ele>6.0</ele><time>2026-05-03T15:04:17.885Z</time></trkpt><trkpt lat="38.9979583" lon="16.1357683"><ele>6.0</ele><time>2026-05-03T15:04:18.885Z</time></trkpt><trkpt lat="38.9976767" lon="16.1358367"><ele>6.0</ele><time>2026-05-03T15:04:19.885Z</time></trkpt><trkpt lat="38.9973917" lon="16.1359083"><ele>6.5</ele><time>2026-05-03T15:04:20.885Z</time></trkpt><trkpt lat="38.9971033" lon="16.13598"><ele>7.0</ele><time>2026-05-03T15:04:21.885Z</time></trkpt><trkpt lat="38.996815" lon="16.1360567"><ele>8.0</ele><time>2026-05-03T15:04:22.884Z</time></trkpt><trkpt lat="38.9965333" lon="16.1361283"><ele>9.0</ele><time>2026-05-03T15:04:23.884Z</time></trkpt><trkpt lat="38.9962467" lon="16.1362017"><ele>9.0</ele><time>2026-05-03T15:04:24.884Z</time></trkpt><trkpt lat="38.99596" lon="16.1362683"><ele>9.0</ele><time>2026-05-03T15:04:25.885Z</time></trkpt><trkpt lat="38.9956683" lon="16.1363483"><ele>10.5</ele><time>2026-05-03T15:04:26.885Z</time></trkpt><trkpt lat="38.9953833" lon="16.1364283"><ele>12.0</ele><time>2026-05-03T15:04:27.885Z</time></trkpt><trkpt lat="38.9951033" lon="16.1365217"><ele>16.5</ele><time>2026-05-03T15:04:28.884Z</time></trkpt><trkpt lat="38.9948317" lon="16.1366267"><ele>21.0</ele><time>2026-05-03T15:04:29.884Z</time></trkpt><trkpt lat="38.994565" lon="16.136745"><ele>21.0</ele><time>2026-05-03T15:04:30.885Z</time></trkpt><trkpt lat="38.9943017" lon="16.1368767"><ele>21.0</ele><time>2026-05-03T15:04:31.885Z</time></trkpt><trkpt lat="38.99404" lon="16.1370083"><ele>21.0</ele><time>2026-05-03T15:04:32.884Z</time></trkpt><trkpt lat="38.99378" lon="16.1371483"><ele>21.0</ele><time>2026-05-03T15:04:33.885Z</time></trkpt><trkpt lat="38.9935117" lon="16.1372767"><ele>19.0</ele><time>2026-05-03T15:04:34.884Z</time></trkpt><trkpt lat="38.9932483" lon="16.13741"><ele>17.0</ele><time>2026-05-03T15:04:35.884Z</time></trkpt><trkpt lat="38.992985" lon="16.13753"><ele>17.0</ele><time>2026-05-03T15:04:36.885Z</time></trkpt><trkpt lat="38.9927183" lon="16.1376717"><ele>17.0</ele><time>2026-05-03T15:04:37.884Z</time></trkpt><trkpt lat="38.99245" lon="16.137805"><ele>17.0</ele><time>2026-05-03T15:04:38.885Z</time></trkpt><trkpt lat="38.9921867" lon="16.1379383"><ele>17.0</ele><time>2026-05-03T15:04:39.885Z</time></trkpt><trkpt lat="38.9919217" lon="16.138065"><ele>17.5</ele><time>2026-05-03T15:04:40.885Z</time></trkpt><trkpt lat="38.99166" lon="16.1381917"><ele>18.0</ele><time>2026-05-03T15:04:41.885Z</time></trkpt><trkpt lat="38.9914033" lon="16.13832"><ele>18.0</ele><time>2026-05-03T15:04:42.885Z</time></trkpt><trkpt lat="38.99115" lon="16.1384483"><ele>18.0</ele><time>2026-05-03T15:04:43.885Z</time></trkpt><trkpt lat="38.9908917" lon="16.1385817"><ele>16.5</ele><time>2026-05-03T15:04:44.885Z</time></trkpt><trkpt lat="38.9906317" lon="16.13871"><ele>15.0</ele><time>2026-05-03T15:04:45.885Z</time></trkpt><trkpt lat="38.99037" lon="16.13884"><ele>15.0</ele><time>2026-05-03T15:04:46.884Z</time></trkpt><trkpt lat="38.9901117" lon="16.1389717"><ele>15.0</ele><time>2026-05-03T15:04:47.885Z</time></trkpt><trkpt lat="38.98986" lon="16.1391083"><ele>19.5</ele><time>2026-05-03T15:04:48.885Z</time></trkpt><trkpt lat="38.9896067" lon="16.1392533"><ele>24.0</ele><time>2026-05-03T15:04:49.885Z</time></trkpt><trkpt lat="38.98936" lon="16.1393967"><ele>22.5</ele><time>2026-05-03T15:04:50.884Z</time></trkpt><trkpt lat="38.9891133" lon="16.139545"><ele>21.0</ele><time>2026-05-03T15:04:51.884Z</time></trkpt><trkpt lat="38.988875" lon="16.1396983"><ele>21.0</ele><time>2026-05-03T15:04:52.885Z</time></trkpt><trkpt lat="38.9886383" lon="16.13986"><ele>21.0</ele><time>2026-05-03T15:04:53.885Z</time></trkpt><trkpt lat="38.9884067" lon="16.1400283"><ele>26.0</ele><time>2026-05-03T15:04:54.885Z</time></trkpt><trkpt lat="38.9881817" lon="16.1402117"><ele>31.0</ele><time>2026-05-03T15:04:55.885Z</time></trkpt><trkpt lat="38.9879633" lon="16.1404017"><ele>31.0</ele><time>2026-05-03T15:04:56.885Z</time></trkpt><trkpt lat="38.9877483" lon="16.1406033"><ele>31.0</ele><time>2026-05-03T15:04:57.885Z</time></trkpt><trkpt lat="38.9875417" lon="16.140805"><ele>34.0</ele><time>2026-05-03T15:04:58.885Z</time></trkpt><trkpt lat="38.9873333" lon="16.1410167"><ele>37.0</ele><time>2026-05-03T15:04:59.885Z</time></trkpt><trkpt lat="38.9871267" lon="16.14123"><ele>37.0</ele><time>2026-05-03T15:05:00.885Z</time></trkpt><trkpt lat="38.98692" lon="16.1414433"><ele>37.0</ele><time>2026-05-03T15:05:01.884Z</time></trkpt><trkpt lat="38.9867133" lon="16.141665"><ele>34.0</ele><time>2026-05-03T15:05:02.884Z</time></trkpt><trkpt lat="38.986505" lon="16.1418817"><ele>31.0</ele><time>2026-05-03T15:05:03.884Z</time></trkpt><trkpt lat="38.9862967" lon="16.1421017"><ele>31.0</ele><time>2026-05-03T15:05:04.885Z</time></trkpt><trkpt lat="38.9860833" lon="16.1423117"><ele>31.0</ele><time>2026-05-03T15:05:05.885Z</time></trkpt><trkpt lat="38.9858683" lon="16.1425167"><ele>30.5</ele><time>2026-05-03T15:05:06.885Z</time></trkpt><trkpt lat="38.9856483" lon="16.142715"><ele>30.0</ele><time>2026-05-03T15:05:07.885Z</time></trkpt><trkpt lat="38.9854183" lon="16.1429033"><ele>30.0</ele><time>2026-05-03T15:05:08.885Z</time></trkpt><trkpt lat="38.9851883" lon="16.1430783"><ele>30.0</ele><time>2026-05-03T15:05:09.885Z</time></trkpt><trkpt lat="38.9849517" lon="16.1432467"><ele>30.5</ele><time>2026-05-03T15:05:10.884Z</time></trkpt><trkpt lat="38.9847167" lon="16.143395"><ele>31.0</ele><time>2026-05-03T15:05:11.885Z</time></trkpt><trkpt lat="38.9844767" lon="16.1435417"><ele>31.0</ele><time>2026-05-03T15:05:12.885Z</time></trkpt><trkpt lat="38.9842333" lon="16.1436783"><ele>31.0</ele><time>2026-05-03T15:05:13.884Z</time></trkpt><trkpt lat="38.9839833" lon="16.1438033"><ele>30.0</ele><time>2026-05-03T15:05:14.885Z</time></trkpt><trkpt lat="38.9837333" lon="16.1439183"><ele>29.0</ele><time>2026-05-03T15:05:15.884Z</time></trkpt><trkpt lat="38.9834733" lon="16.1440217"><ele>29.0</ele><time>2026-05-03T15:05:16.885Z</time></trkpt><trkpt lat="38.9832133" lon="16.14411"><ele>29.0</ele><time>2026-05-03T15:05:17.885Z</time></trkpt><trkpt lat="38.98295" lon="16.1441933"><ele>29.0</ele><time>2026-05-03T15:05:18.885Z</time></trkpt><trkpt lat="38.9826817" lon="16.1442683"><ele>29.0</ele><time>2026-05-03T15:05:19.885Z</time></trkpt><trkpt lat="38.982415" lon="16.1443317"><ele>27.5</ele><time>2026-05-03T15:05:20.884Z</time></trkpt><trkpt lat="38.9821417" lon="16.1443833"><ele>26.0</ele><time>2026-05-03T15:05:21.885Z</time></trkpt><trkpt lat="38.9818683" lon="16.14442"><ele>23.5</ele><time>2026-05-03T15:05:22.884Z</time></trkpt><trkpt lat="38.9815983" lon="16.14445"><ele>21.0</ele><time>2026-05-03T15:05:23.885Z</time></trkpt><trkpt lat="38.9813333" lon="16.1444817"><ele>21.0</ele><time>2026-05-03T15:05:24.885Z</time></trkpt><trkpt lat="38.98107" lon="16.1445067"><ele>21.0</ele><time>2026-05-03T15:05:25.884Z</time></trkpt><trkpt lat="38.9808083" lon="16.1445317"><ele>20.5</ele><time>2026-05-03T15:05:26.884Z</time></trkpt><trkpt lat="38.980545" lon="16.144555"><ele>20.0</ele><time>2026-05-03T15:05:27.885Z</time></trkpt><trkpt lat="38.980285" lon="16.144585"><ele>20.0</ele><time>2026-05-03T15:05:28.884Z</time></trkpt><trkpt lat="38.9800283" lon="16.14462"><ele>20.0</ele><time>2026-05-03T15:05:29.885Z</time></trkpt><trkpt lat="38.979775" lon="16.1446633"><ele>19.0</ele><time>2026-05-03T15:05:30.885Z</time></trkpt><trkpt lat="38.979515" lon="16.14473"><ele>18.0</ele><time>2026-05-03T15:05:31.885Z</time></trkpt><trkpt lat="38.9792533" lon="16.1448133"><ele>23.5</ele><time>2026-05-03T15:05:32.885Z</time></trkpt><trkpt lat="38.978995" lon="16.1449183"><ele>29.0</ele><time>2026-05-03T15:05:33.885Z</time></trkpt><trkpt lat="38.97874" lon="16.1450367"><ele>29.0</ele><time>2026-05-03T15:05:34.885Z</time></trkpt><trkpt lat="38.97849" lon="16.1451683"><ele>29.0</ele><time>2026-05-03T15:05:35.885Z</time></trkpt><trkpt lat="38.978245" lon="16.1453217"><ele>28.5</ele><time>2026-05-03T15:05:36.885Z</time></trkpt><trkpt lat="38.9780017" lon="16.1454833"><ele>28.0</ele><time>2026-05-03T15:05:37.885Z</time></trkpt><trkpt lat="38.9777667" lon="16.1456517"><ele>28.5</ele><time>2026-05-03T15:05:38.884Z</time></trkpt><trkpt lat="38.9775333" lon="16.1458383"><ele>29.0</ele><time>2026-05-03T15:05:39.884Z</time></trkpt><trkpt lat="38.9773067" lon="16.1460433"><ele>29.0</ele><time>2026-05-03T15:05:40.885Z</time></trkpt><trkpt lat="38.9770867" lon="16.146265"><ele>29.0</ele><time>2026-05-03T15:05:41.885Z</time></trkpt><trkpt lat="38.9768717" lon="16.1464967"><ele>27.0</ele><time>2026-05-03T15:05:42.885Z</time></trkpt><trkpt lat="38.9766583" lon="16.1467317"><ele>25.0</ele><time>2026-05-03T15:05:43.885Z</time></trkpt><trkpt lat="38.97646" lon="16.146985"><ele>25.0</ele><time>2026-05-03T15:05:44.885Z</time></trkpt><trkpt lat="38.9762717" lon="16.147245"><ele>25.0</ele><time>2026-05-03T15:05:45.885Z</time></trkpt><trkpt lat="38.97609" lon="16.14752"><ele>27.0</ele><time>2026-05-03T15:05:46.885Z</time></trkpt><trkpt lat="38.97592" lon="16.1478133"><ele>29.0</ele><time>2026-05-03T15:05:47.885Z</time></trkpt><trkpt lat="38.97576" lon="16.1481067"><ele>30.5</ele><time>2026-05-03T15:05:48.885Z</time></trkpt><trkpt lat="38.9756067" lon="16.1484117"><ele>32.0</ele><time>2026-05-03T15:05:49.885Z</time></trkpt><trkpt lat="38.97546" lon="16.1487217"><ele>32.0</ele><time>2026-05-03T15:05:50.885Z</time></trkpt><trkpt lat="38.9753117" lon="16.1490283"><ele>32.0</ele><time>2026-05-03T15:05:51.884Z</time></trkpt><trkpt lat="38.9751583" lon="16.1493267"><ele>25.0</ele><time>2026-05-03T15:05:52.884Z</time></trkpt><trkpt lat="38.9750017" lon="16.1496233"><ele>18.0</ele><time>2026-05-03T15:05:53.885Z</time></trkpt><trkpt lat="38.9748417" lon="16.1499117"><ele>18.0</ele><time>2026-05-03T15:05:54.885Z</time></trkpt><trkpt lat="38.97467" lon="16.15019"><ele>18.0</ele><time>2026-05-03T15:05:55.885Z</time></trkpt><trkpt lat="38.97449" lon="16.1504667"><ele>18.5</ele><time>2026-05-03T15:05:56.885Z</time></trkpt><trkpt lat="38.9742967" lon="16.1507283"><ele>19.0</ele><time>2026-05-03T15:05:57.885Z</time></trkpt><trkpt lat="38.9740967" lon="16.150985"><ele>16.0</ele><time>2026-05-03T15:05:58.885Z</time></trkpt><trkpt lat="38.9738917" lon="16.1512333"><ele>13.0</ele><time>2026-05-03T15:05:59.885Z</time></trkpt><trkpt lat="38.9736767" lon="16.15146"><ele>13.5</ele><time>2026-05-03T15:06:00.885Z</time></trkpt><trkpt lat="38.973455" lon="16.1516833"><ele>14.0</ele><time>2026-05-03T15:06:01.884Z</time></trkpt><trkpt lat="38.97323" lon="16.1518933"><ele>14.0</ele><time>2026-05-03T15:06:02.885Z</time></trkpt><trkpt lat="38.973" lon="16.1520817"><ele>14.0</ele><time>2026-05-03T15:06:03.884Z</time></trkpt><trkpt lat="38.9727633" lon="16.1522617"><ele>15.0</ele><time>2026-05-03T15:06:04.885Z</time></trkpt><trkpt lat="38.9725217" lon="16.1524217"><ele>16.0</ele><time>2026-05-03T15:06:05.885Z</time></trkpt><trkpt lat="38.9722733" lon="16.15257"><ele>16.0</ele><time>2026-05-03T15:06:06.885Z</time></trkpt><trkpt lat="38.972025" lon="16.1526983"><ele>16.0</ele><time>2026-05-03T15:06:07.885Z</time></trkpt><trkpt lat="38.9717733" lon="16.1528233"><ele>14.5</ele><time>2026-05-03T15:06:08.884Z</time></trkpt><trkpt lat="38.9715183" lon="16.15293"><ele>13.0</ele><time>2026-05-03T15:06:09.885Z</time></trkpt><trkpt lat="38.9712567" lon="16.153035"><ele>13.0</ele><time>2026-05-03T15:06:10.885Z</time></trkpt><trkpt lat="38.97099" lon="16.153145"><ele>13.0</ele><time>2026-05-03T15:06:11.885Z</time></trkpt><trkpt lat="38.9707267" lon="16.1532517"><ele>14.5</ele><time>2026-05-03T15:06:12.884Z</time></trkpt><trkpt lat="38.9704633" lon="16.1533667"><ele>16.0</ele><time>2026-05-03T15:06:13.885Z</time></trkpt><trkpt lat="38.9702017" lon="16.153485"><ele>15.5</ele><time>2026-05-03T15:06:14.884Z</time></trkpt><trkpt lat="38.9699383" lon="16.1536017"><ele>15.0</ele><time>2026-05-03T15:06:15.885Z</time></trkpt><trkpt lat="38.9696733" lon="16.1537083"><ele>15.0</ele><time>2026-05-03T15:06:16.885Z</time></trkpt><trkpt lat="38.9694133" lon="16.1538133"><ele>15.0</ele><time>2026-05-03T15:06:17.884Z</time></trkpt><trkpt lat="38.9691533" lon="16.1539183"><ele>15.0</ele><time>2026-05-03T15:06:18.884Z</time></trkpt><trkpt lat="38.9688933" lon="16.1540283"><ele>15.0</ele><time>2026-05-03T15:06:19.885Z</time></trkpt><trkpt lat="38.9686333" lon="16.154135"><ele>15.0</ele><time>2026-05-03T15:06:20.884Z</time></trkpt><trkpt lat="38.96837" lon="16.154245"><ele>15.0</ele><time>2026-05-03T15:06:21.884Z</time></trkpt><trkpt lat="38.9681033" lon="16.1543467"><ele>13.5</ele><time>2026-05-03T15:06:22.884Z</time></trkpt><trkpt lat="38.9678433" lon="16.1544433"><ele>12.0</ele><time>2026-05-03T15:06:23.885Z</time></trkpt><trkpt lat="38.9675817" lon="16.1545433"><ele>11.0</ele><time>2026-05-03T15:06:24.885Z</time></trkpt><trkpt lat="38.9673133" lon="16.1546333"><ele>10.0</ele><time>2026-05-03T15:06:25.885Z</time></trkpt><trkpt lat="38.9670433" lon="16.154725"><ele>10.0</ele><time>2026-05-03T15:06:26.885Z</time></trkpt><trkpt lat="38.966775" lon="16.15481"><ele>10.0</ele><time>2026-05-03T15:06:27.885Z</time></trkpt><trkpt lat="38.9665033" lon="16.154885"><ele>14.0</ele><time>2026-05-03T15:06:28.885Z</time></trkpt><trkpt lat="38.9662333" lon="16.1549583"><ele>18.0</ele><time>2026-05-03T15:06:29.885Z</time></trkpt><trkpt lat="38.965965" lon="16.1550267"><ele>17.0</ele><time>2026-05-03T15:06:30.885Z</time></trkpt><trkpt lat="38.9657017" lon="16.1550883"><ele>16.0</ele><time>2026-05-03T15:06:31.885Z</time></trkpt><trkpt lat="38.9654317" lon="16.155145"><ele>16.0</ele><time>2026-05-03T15:06:32.884Z</time></trkpt><trkpt lat="38.9651617" lon="16.1551883"><ele>16.0</ele><time>2026-05-03T15:06:33.885Z</time></trkpt><trkpt lat="38.9648883" lon="16.155225"><ele>15.5</ele><time>2026-05-03T15:06:34.885Z</time></trkpt><trkpt lat="38.9646167" lon="16.15526"><ele>15.0</ele><time>2026-05-03T15:06:35.885Z</time></trkpt><trkpt lat="38.9643433" lon="16.1552867"><ele>15.0</ele><time>2026-05-03T15:06:36.885Z</time></trkpt><trkpt lat="38.964075" lon="16.1553083"><ele>15.0</ele><time>2026-05-03T15:06:37.885Z</time></trkpt><trkpt lat="38.9638033" lon="16.15532"><ele>15.0</ele><time>2026-05-03T15:06:38.885Z</time></trkpt><trkpt lat="38.96353" lon="16.155335"><ele>15.0</ele><time>2026-05-03T15:06:39.884Z</time></trkpt><trkpt lat="38.96326" lon="16.155335"><ele>16.0</ele><time>2026-05-03T15:06:40.885Z</time></trkpt><trkpt lat="38.96299" lon="16.1553433"><ele>17.0</ele><time>2026-05-03T15:06:41.885Z</time></trkpt><trkpt lat="38.9627167" lon="16.1553483"><ele>15.5</ele><time>2026-05-03T15:06:42.885Z</time></trkpt><trkpt lat="38.9624433" lon="16.1553517"><ele>14.0</ele><time>2026-05-03T15:06:43.885Z</time></trkpt><trkpt lat="38.96217" lon="16.1553533"><ele>14.0</ele><time>2026-05-03T15:06:44.885Z</time></trkpt><trkpt lat="38.961895" lon="16.155355"><ele>14.0</ele><time>2026-05-03T15:06:45.885Z</time></trkpt><trkpt lat="38.96162" lon="16.1553583"><ele>12.5</ele><time>2026-05-03T15:06:46.885Z</time></trkpt><trkpt lat="38.96135" lon="16.1553683"><ele>11.0</ele><time>2026-05-03T15:06:47.884Z</time></trkpt><trkpt lat="38.9610783" lon="16.155375"><ele>10.5</ele><time>2026-05-03T15:06:48.884Z</time></trkpt><trkpt lat="38.9608083" lon="16.15538"><ele>10.0</ele><time>2026-05-03T15:06:49.885Z</time></trkpt><trkpt lat="38.96054" lon="16.15539"><ele>10.0</ele><time>2026-05-03T15:06:50.885Z</time></trkpt><trkpt lat="38.9602733" lon="16.1554033"><ele>10.0</ele><time>2026-05-03T15:06:51.885Z</time></trkpt><trkpt lat="38.960005" lon="16.15542"><ele>9.5</ele><time>2026-05-03T15:06:52.885Z</time></trkpt><trkpt lat="38.9597367" lon="16.15544"><ele>9.0</ele><time>2026-05-03T15:06:53.885Z</time></trkpt><trkpt lat="38.9594633" lon="16.1554633"><ele>8.0</ele><time>2026-05-03T15:06:54.885Z</time></trkpt><trkpt lat="38.9591883" lon="16.15549"><ele>7.0</ele><time>2026-05-03T15:06:55.885Z</time></trkpt><trkpt lat="38.9589117" lon="16.1555217"><ele>7.0</ele><time>2026-05-03T15:06:56.885Z</time></trkpt><trkpt lat="38.95864" lon="16.1555633"><ele>7.0</ele><time>2026-05-03T15:06:57.885Z</time></trkpt><trkpt lat="38.95837" lon="16.15561"><ele>8.0</ele><time>2026-05-03T15:06:58.885Z</time></trkpt><trkpt lat="38.958095" lon="16.1556683"><ele>9.0</ele><time>2026-05-03T15:06:59.885Z</time></trkpt><trkpt lat="38.95782" lon="16.1557267"><ele>11.5</ele><time>2026-05-03T15:07:00.885Z</time></trkpt><trkpt lat="38.9575483" lon="16.1557983"><ele>14.0</ele><time>2026-05-03T15:07:01.885Z</time></trkpt><trkpt lat="38.957275" lon="16.1558817"><ele>14.0</ele><time>2026-05-03T15:07:02.885Z</time></trkpt><trkpt lat="38.9570017" lon="16.1559667"><ele>14.0</ele><time>2026-05-03T15:07:03.885Z</time></trkpt><trkpt lat="38.956725" lon="16.156065"><ele>15.5</ele><time>2026-05-03T15:07:04.884Z</time></trkpt><trkpt lat="38.956445" lon="16.156175"><ele>17.0</ele><time>2026-05-03T15:07:05.885Z</time></trkpt><trkpt lat="38.9561667" lon="16.1562983"><ele>17.0</ele><time>2026-05-03T15:07:06.885Z</time></trkpt><trkpt lat="38.955885" lon="16.1564367"><ele>17.0</ele><time>2026-05-03T15:07:07.885Z</time></trkpt><trkpt lat="38.9556033" lon="16.156585"><ele>22.5</ele><time>2026-05-03T15:07:08.884Z</time></trkpt><trkpt lat="38.955325" lon="16.1567367"><ele>28.0</ele><time>2026-05-03T15:07:09.885Z</time></trkpt><trkpt lat="38.95505" lon="16.1569"><ele>25.5</ele><time>2026-05-03T15:07:10.885Z</time></trkpt><trkpt lat="38.9547817" lon="16.1570683"><ele>23.0</ele><time>2026-05-03T15:07:11.885Z</time></trkpt><trkpt lat="38.9545233" lon="16.1572467"><ele>24.0</ele><time>2026-05-03T15:07:12.885Z</time></trkpt><trkpt lat="38.9542733" lon="16.1574317"><ele>25.0</ele><time>2026-05-03T15:07:13.885Z</time></trkpt><trkpt lat="38.954035" lon="16.1576233"><ele>25.0</ele><time>2026-05-03T15:07:14.884Z</time></trkpt><trkpt lat="38.9538033" lon="16.1578217"><ele>25.0</ele><time>2026-05-03T15:07:15.885Z</time></trkpt><trkpt lat="38.9535683" lon="16.1580283"><ele>29.0</ele><time>2026-05-03T15:07:16.885Z</time></trkpt><trkpt lat="38.953355" lon="16.1582483"><ele>33.0</ele><time>2026-05-03T15:07:17.885Z</time></trkpt><trkpt lat="38.9531467" lon="16.1584817"><ele>33.0</ele><time>2026-05-03T15:07:18.885Z</time></trkpt><trkpt lat="38.95294" lon="16.1587233"><ele>33.0</ele><time>2026-05-03T15:07:19.885Z</time></trkpt><trkpt lat="38.95274" lon="16.1589767"><ele>33.0</ele><time>2026-05-03T15:07:20.885Z</time></trkpt><trkpt lat="38.9525433" lon="16.15924"><ele>33.0</ele><time>2026-05-03T15:07:21.885Z</time></trkpt><trkpt lat="38.9523567" lon="16.1595267"><ele>33.0</ele><time>2026-05-03T15:07:22.885Z</time></trkpt><trkpt lat="38.9521817" lon="16.1598333"><ele>33.0</ele><time>2026-05-03T15:07:23.885Z</time></trkpt><trkpt lat="38.9520233" lon="16.1601467"><ele>35.5</ele><time>2026-05-03T15:07:24.885Z</time></trkpt><trkpt lat="38.951875" lon="16.160465"><ele>38.0</ele><time>2026-05-03T15:07:25.885Z</time></trkpt><trkpt lat="38.9517317" lon="16.1608017"><ele>36.0</ele><time>2026-05-03T15:07:26.885Z</time></trkpt><trkpt lat="38.9515967" lon="16.1611483"><ele>34.0</ele><time>2026-05-03T15:07:27.886Z</time></trkpt><trkpt lat="38.9514767" lon="16.1615083"><ele>35.5</ele><time>2026-05-03T15:07:28.886Z</time></trkpt><trkpt lat="38.9513717" lon="16.161875"><ele>37.0</ele><time>2026-05-03T15:07:29.886Z</time></trkpt><trkpt lat="38.95128" lon="16.1622483"><ele>37.0</ele><time>2026-05-03T15:07:30.886Z</time></trkpt><trkpt lat="38.9512" lon="16.1626283"><ele>37.0</ele><time>2026-05-03T15:07:31.886Z</time></trkpt><trkpt lat="38.95113" lon="16.1630117"><ele>36.0</ele><time>2026-05-03T15:07:32.886Z</time></trkpt><trkpt lat="38.9510733" lon="16.1634067"><ele>35.0</ele><time>2026-05-03T15:07:33.886Z</time></trkpt><trkpt lat="38.9510283" lon="16.1638067"><ele>36.0</ele><time>2026-05-03T15:07:34.886Z</time></trkpt><trkpt lat="38.9509933" lon="16.1642067"><ele>37.0</ele><time>2026-05-03T15:07:35.886Z</time></trkpt><trkpt lat="38.9509583" lon="16.1646117"><ele>36.0</ele><time>2026-05-03T15:07:36.886Z</time></trkpt><trkpt lat="38.9509267" lon="16.1650183"><ele>35.0</ele><time>2026-05-03T15:07:37.885Z</time></trkpt><trkpt lat="38.9508967" lon="16.16542"><ele>21.5</ele><time>2026-05-03T15:07:38.886Z</time></trkpt><trkpt lat="38.9508733" lon="16.1658183"><ele>8.0</ele><time>2026-05-03T15:07:39.886Z</time></trkpt><trkpt lat="38.9508517" lon="16.166215"><ele>7.0</ele><time>2026-05-03T15:07:40.886Z</time></trkpt><trkpt lat="38.95083" lon="16.166605"><ele>6.0</ele><time>2026-05-03T15:07:41.886Z</time></trkpt><trkpt lat="38.95081" lon="16.1669967"><ele>7.0</ele><time>2026-05-03T15:07:42.886Z</time></trkpt><trkpt lat="38.95079" lon="16.1673883"><ele>8.0</ele><time>2026-05-03T15:07:43.886Z</time></trkpt><trkpt lat="38.950775" lon="16.1677833"><ele>8.0</ele><time>2026-05-03T15:07:44.886Z</time></trkpt><trkpt lat="38.9507533" lon="16.1681733"><ele>8.0</ele><time>2026-05-03T15:07:45.885Z</time></trkpt><trkpt lat="38.9507317" lon="16.16856"><ele>7.5</ele><time>2026-05-03T15:07:46.886Z</time></trkpt><trkpt lat="38.95071" lon="16.1689467"><ele>7.0</ele><time>2026-05-03T15:07:47.886Z</time></trkpt><trkpt lat="38.9506917" lon="16.1693333"><ele>7.0</ele><time>2026-05-03T15:07:48.886Z</time></trkpt><trkpt lat="38.9506717" lon="16.1697183"><ele>7.0</ele><time>2026-05-03T15:07:49.886Z</time></trkpt><trkpt lat="38.9506533" lon="16.1701017"><ele>7.5</ele><time>2026-05-03T15:07:50.885Z</time></trkpt><trkpt lat="38.9506367" lon="16.1704833"><ele>8.0</ele><time>2026-05-03T15:07:51.886Z</time></trkpt><trkpt lat="38.9506183" lon="16.17086"><ele>8.0</ele><time>2026-05-03T15:07:52.886Z</time></trkpt><trkpt lat="38.9505983" lon="16.1712333"><ele>8.0</ele><time>2026-05-03T15:07:53.886Z</time></trkpt><trkpt lat="38.950575" lon="16.1716083"><ele>9.0</ele><time>2026-05-03T15:07:54.885Z</time></trkpt><trkpt lat="38.95056" lon="16.1719833"><ele>10.0</ele><time>2026-05-03T15:07:55.885Z</time></trkpt><trkpt lat="38.95054" lon="16.172355"><ele>11.5</ele><time>2026-05-03T15:07:56.886Z</time></trkpt><trkpt lat="38.9505233" lon="16.1727267"><ele>13.0</ele><time>2026-05-03T15:07:57.886Z</time></trkpt><trkpt lat="38.950505" lon="16.1730967"><ele>14.0</ele><time>2026-05-03T15:07:58.885Z</time></trkpt><trkpt lat="38.9504867" lon="16.1734783"><ele>15.0</ele><time>2026-05-03T15:07:59.885Z</time></trkpt><trkpt lat="38.95047" lon="16.1738633"><ele>15.0</ele><time>2026-05-03T15:08:00.886Z</time></trkpt><trkpt lat="38.9504517" lon="16.17425"><ele>15.0</ele><time>2026-05-03T15:08:01.886Z</time></trkpt><trkpt lat="38.95043" lon="16.1746333"><ele>16.5</ele><time>2026-05-03T15:08:02.886Z</time></trkpt><trkpt lat="38.9504117" lon="16.17502"><ele>18.0</ele><time>2026-05-03T15:08:03.885Z</time></trkpt><trkpt lat="38.95039" lon="16.17541"><ele>18.5</ele><time>2026-05-03T15:08:04.886Z</time></trkpt><trkpt lat="38.9503633" lon="16.1758"><ele>19.0</ele><time>2026-05-03T15:08:05.886Z</time></trkpt><trkpt lat="38.9503367" lon="16.17619"><ele>20.5</ele><time>2026-05-03T15:08:06.886Z</time></trkpt><trkpt lat="38.9503033" lon="16.1765833"><ele>22.0</ele><time>2026-05-03T15:08:07.886Z</time></trkpt><trkpt lat="38.9502667" lon="16.1769733"><ele>22.0</ele><time>2026-05-03T15:08:08.886Z</time></trkpt><trkpt lat="38.9502267" lon="16.1773617"><ele>22.0</ele><time>2026-05-03T15:08:09.886Z</time></trkpt><trkpt lat="38.9501833" lon="16.1777483"><ele>22.0</ele><time>2026-05-03T15:08:10.886Z</time></trkpt><trkpt lat="38.9501333" lon="16.1781317"><ele>22.0</ele><time>2026-05-03T15:08:11.886Z</time></trkpt><trkpt lat="38.9500717" lon="16.1785167"><ele>16.0</ele><time>2026-05-03T15:08:12.886Z</time></trkpt><trkpt lat="38.9500067" lon="16.1788983"><ele>10.0</ele><time>2026-05-03T15:08:13.886Z</time></trkpt><trkpt lat="38.9499367" lon="16.179275"><ele>10.0</ele><time>2026-05-03T15:08:14.886Z</time></trkpt><trkpt lat="38.949855" lon="16.1796483"><ele>10.0</ele><time>2026-05-03T15:08:15.886Z</time></trkpt><trkpt lat="38.9497717" lon="16.1800183"><ele>10.0</ele><time>2026-05-03T15:08:16.886Z</time></trkpt><trkpt lat="38.9496817" lon="16.180385"><ele>10.0</ele><time>2026-05-03T15:08:17.885Z</time></trkpt><trkpt lat="38.9495833" lon="16.1807433"><ele>10.0</ele><time>2026-05-03T15:08:18.886Z</time></trkpt><trkpt lat="38.9494817" lon="16.1810983"><ele>10.0</ele><time>2026-05-03T15:08:19.886Z</time></trkpt><trkpt lat="38.9493783" lon="16.1814467"><ele>9.0</ele><time>2026-05-03T15:08:20.886Z</time></trkpt><trkpt lat="38.9492667" lon="16.181785"><ele>8.0</ele><time>2026-05-03T15:08:21.885Z</time></trkpt><trkpt lat="38.9491533" lon="16.1821217"><ele>5.5</ele><time>2026-05-03T15:08:22.885Z</time></trkpt><trkpt lat="38.949035" lon="16.182445"><ele>3.0</ele><time>2026-05-03T15:08:23.885Z</time></trkpt><trkpt lat="38.9489133" lon="16.182765"><ele>3.0</ele><time>2026-05-03T15:08:24.885Z</time></trkpt><trkpt lat="38.9487933" lon="16.1830783"><ele>3.0</ele><time>2026-05-03T15:08:25.886Z</time></trkpt><trkpt lat="38.9486667" lon="16.1833767"><ele>3.0</ele><time>2026-05-03T15:08:26.886Z</time></trkpt><trkpt lat="38.94854" lon="16.1836683"><ele>3.0</ele><time>2026-05-03T15:08:27.886Z</time></trkpt><trkpt lat="38.94841" lon="16.1839517"><ele>2.5</ele><time>2026-05-03T15:08:28.886Z</time></trkpt><trkpt lat="38.9482733" lon="16.1842217"><ele>2.0</ele><time>2026-05-03T15:08:29.886Z</time></trkpt><trkpt lat="38.9481383" lon="16.1844917"><ele>2.0</ele><time>2026-05-03T15:08:30.885Z</time></trkpt><trkpt lat="38.9479967" lon="16.1847583"><ele>2.0</ele><time>2026-05-03T15:08:31.886Z</time></trkpt><trkpt lat="38.9478517" lon="16.1850267"><ele>2.0</ele><time>2026-05-03T15:08:32.885Z</time></trkpt><trkpt lat="38.9476933" lon="16.185285"><ele>2.0</ele><time>2026-05-03T15:08:33.885Z</time></trkpt><trkpt lat="38.947535" lon="16.1855467"><ele>2.0</ele><time>2026-05-03T15:08:34.886Z</time></trkpt><trkpt lat="38.94737" lon="16.1858017"><ele>2.0</ele><time>2026-05-03T15:08:35.886Z</time></trkpt><trkpt lat="38.947195" lon="16.186065"><ele>2.0</ele><time>2026-05-03T15:08:36.886Z</time></trkpt><trkpt lat="38.9470167" lon="16.1863167"><ele>2.0</ele><time>2026-05-03T15:08:37.886Z</time></trkpt><trkpt lat="38.94684" lon="16.18657"><ele>2.0</ele><time>2026-05-03T15:08:38.886Z</time></trkpt><trkpt lat="38.946665" lon="16.18682"><ele>2.0</ele><time>2026-05-03T15:08:39.885Z</time></trkpt><trkpt lat="38.9464867" lon="16.1870783"><ele>2.0</ele><time>2026-05-03T15:08:40.886Z</time></trkpt><trkpt lat="38.94631" lon="16.1873433"><ele>2.0</ele><time>2026-05-03T15:08:41.886Z</time></trkpt><trkpt lat="38.9461383" lon="16.187605"><ele>1.5</ele><time>2026-05-03T15:08:42.885Z</time></trkpt><trkpt lat="38.9459683" lon="16.18787"><ele>1.0</ele><time>2026-05-03T15:08:43.886Z</time></trkpt><trkpt lat="38.9457933" lon="16.1881367"><ele>1.5</ele><time>2026-05-03T15:08:44.886Z</time></trkpt><trkpt lat="38.9456133" lon="16.1884017"><ele>2.0</ele><time>2026-05-03T15:08:45.886Z</time></trkpt><trkpt lat="38.9454367" lon="16.188675"><ele>2.0</ele><time>2026-05-03T15:08:46.886Z</time></trkpt><trkpt lat="38.9452583" lon="16.1889517"><ele>2.0</ele><time>2026-05-03T15:08:47.886Z</time></trkpt><trkpt lat="38.945085" lon="16.1892283"><ele>1.5</ele><time>2026-05-03T15:08:48.886Z</time></trkpt><trkpt lat="38.944905" lon="16.1895033"><ele>1.0</ele><time>2026-05-03T15:08:49.886Z</time></trkpt><trkpt lat="38.944725" lon="16.189785"><ele>1.5</ele><time>2026-05-03T15:08:50.886Z</time></trkpt><trkpt lat="38.9445517" lon="16.1900683"><ele>2.0</ele><time>2026-05-03T15:08:51.885Z</time></trkpt><trkpt lat="38.94438" lon="16.1903517"><ele>2.0</ele><time>2026-05-03T15:08:52.886Z</time></trkpt><trkpt lat="38.9442117" lon="16.1906417"><ele>2.0</ele><time>2026-05-03T15:08:53.886Z</time></trkpt><trkpt lat="38.94405" lon="16.1909467"><ele>2.0</ele><time>2026-05-03T15:08:54.885Z</time></trkpt><trkpt lat="38.9438933" lon="16.1912483"><ele>2.0</ele><time>2026-05-03T15:08:55.886Z</time></trkpt><trkpt lat="38.9437467" lon="16.1915583"><ele>2.0</ele><time>2026-05-03T15:08:56.886Z</time></trkpt><trkpt lat="38.9436" lon="16.1918617"><ele>2.0</ele><time>2026-05-03T15:08:57.886Z</time></trkpt><trkpt lat="38.9434583" lon="16.1921717"><ele>1.5</ele><time>2026-05-03T15:08:58.886Z</time></trkpt><trkpt lat="38.9433183" lon="16.1924883"><ele>1.0</ele><time>2026-05-03T15:08:59.886Z</time></trkpt><trkpt lat="38.9431767" lon="16.1928083"><ele>1.0</ele><time>2026-05-03T15:09:00.886Z</time></trkpt><trkpt lat="38.9430367" lon="16.19313"><ele>1.0</ele><time>2026-05-03T15:09:01.886Z</time></trkpt><trkpt lat="38.942905" lon="16.1934533"><ele>1.0</ele><time>2026-05-03T15:09:02.885Z</time></trkpt><trkpt lat="38.9427783" lon="16.1937817"><ele>1.0</ele><time>2026-05-03T15:09:03.886Z</time></trkpt><trkpt lat="38.94266" lon="16.19411"><ele>1.5</ele><time>2026-05-03T15:09:04.886Z</time></trkpt><trkpt lat="38.942545" lon="16.194435"><ele>2.0</ele><time>2026-05-03T15:09:05.886Z</time></trkpt><trkpt lat="38.942435" lon="16.1947667"><ele>2.0</ele><time>2026-05-03T15:09:06.886Z</time></trkpt><trkpt lat="38.942325" lon="16.195095"><ele>2.0</ele><time>2026-05-03T15:09:07.886Z</time></trkpt><trkpt lat="38.9422217" lon="16.1954283"><ele>2.0</ele><time>2026-05-03T15:09:08.886Z</time></trkpt><trkpt lat="38.9421217" lon="16.1957717"><ele>2.0</ele><time>2026-05-03T15:09:09.886Z</time></trkpt><trkpt lat="38.942025" lon="16.1961167"><ele>2.0</ele><time>2026-05-03T15:09:10.885Z</time></trkpt><trkpt lat="38.94193" lon="16.1964633"><ele>2.0</ele><time>2026-05-03T15:09:11.886Z</time></trkpt><trkpt lat="38.9418333" lon="16.1968083"><ele>1.5</ele><time>2026-05-03T15:09:12.886Z</time></trkpt><trkpt lat="38.9417367" lon="16.1971483"><ele>1.0</ele><time>2026-05-03T15:09:13.886Z</time></trkpt><trkpt lat="38.9416417" lon="16.197485"><ele>2.0</ele><time>2026-05-03T15:09:14.886Z</time></trkpt><trkpt lat="38.9415433" lon="16.1978133"><ele>3.0</ele><time>2026-05-03T15:09:15.885Z</time></trkpt><trkpt lat="38.941455" lon="16.1981433"><ele>3.0</ele><time>2026-05-03T15:09:16.885Z</time></trkpt><trkpt lat="38.9413617" lon="16.1984683"><ele>3.0</ele><time>2026-05-03T15:09:17.886Z</time></trkpt><trkpt lat="38.9412733" lon="16.1987983"><ele>2.5</ele><time>2026-05-03T15:09:18.885Z</time></trkpt><trkpt lat="38.9411817" lon="16.1991133"><ele>2.0</ele><time>2026-05-03T15:09:19.885Z</time></trkpt><trkpt lat="38.9410967" lon="16.1994267"><ele>2.0</ele><time>2026-05-03T15:09:20.885Z</time></trkpt><trkpt lat="38.9410067" lon="16.1997383"><ele>2.0</ele><time>2026-05-03T15:09:21.886Z</time></trkpt><trkpt lat="38.9409183" lon="16.200055"><ele>2.0</ele><time>2026-05-03T15:09:22.886Z</time></trkpt><trkpt lat="38.9408233" lon="16.200375"><ele>2.0</ele><time>2026-05-03T15:09:23.885Z</time></trkpt><trkpt lat="38.94073" lon="16.2006933"><ele>2.5</ele><time>2026-05-03T15:09:24.886Z</time></trkpt><trkpt lat="38.9406367" lon="16.20102"><ele>3.0</ele><time>2026-05-03T15:09:25.886Z</time></trkpt><trkpt lat="38.9405383" lon="16.2013417"><ele>3.0</ele><time>2026-05-03T15:09:26.885Z</time></trkpt><trkpt lat="38.940435" lon="16.2016717"><ele>3.0</ele><time>2026-05-03T15:09:27.886Z</time></trkpt><trkpt lat="38.9403283" lon="16.2020067"><ele>3.0</ele><time>2026-05-03T15:09:28.886Z</time></trkpt><trkpt lat="38.9402167" lon="16.2023433"><ele>3.0</ele><time>2026-05-03T15:09:29.885Z</time></trkpt><trkpt lat="38.9401067" lon="16.2026833"><ele>3.0</ele><time>2026-05-03T15:09:30.886Z</time></trkpt><trkpt lat="38.9399917" lon="16.2030217"><ele>3.0</ele><time>2026-05-03T15:09:31.886Z</time></trkpt><trkpt lat="38.93988" lon="16.20337"><ele>3.5</ele><time>2026-05-03T15:09:32.885Z</time></trkpt><trkpt lat="38.9397617" lon="16.2037167"><ele>4.0</ele><time>2026-05-03T15:09:33.885Z</time></trkpt><trkpt lat="38.9396483" lon="16.20407"><ele>4.0</ele><time>2026-05-03T15:09:34.886Z</time></trkpt><trkpt lat="38.9395283" lon="16.2044167"><ele>4.0</ele><time>2026-05-03T15:09:35.886Z</time></trkpt><trkpt lat="38.9394067" lon="16.20476"><ele>4.0</ele><time>2026-05-03T15:09:36.886Z</time></trkpt><trkpt lat="38.939285" lon="16.2051067"><ele>4.0</ele><time>2026-05-03T15:09:37.886Z</time></trkpt><trkpt lat="38.9391633" lon="16.2054533"><ele>5.5</ele><time>2026-05-03T15:09:38.885Z</time></trkpt><trkpt lat="38.9390417" lon="16.2058017"><ele>7.0</ele><time>2026-05-03T15:09:39.885Z</time></trkpt><trkpt lat="38.938925" lon="16.206155"><ele>6.5</ele><time>2026-05-03T15:09:40.885Z</time></trkpt><trkpt lat="38.9388083" lon="16.2065117"><ele>6.0</ele><time>2026-05-03T15:09:41.886Z</time></trkpt><trkpt lat="38.9386883" lon="16.206875"><ele>6.0</ele><time>2026-05-03T15:09:42.885Z</time></trkpt><trkpt lat="38.938565" lon="16.2072417"><ele>6.0</ele><time>2026-05-03T15:09:43.886Z</time></trkpt><trkpt lat="38.9384367" lon="16.207605"><ele>6.5</ele><time>2026-05-03T15:09:44.886Z</time></trkpt><trkpt lat="38.9383083" lon="16.2079683"><ele>7.0</ele><time>2026-05-03T15:09:45.886Z</time></trkpt><trkpt lat="38.93818" lon="16.2083367"><ele>6.0</ele><time>2026-05-03T15:09:46.886Z</time></trkpt><trkpt lat="38.9380533" lon="16.2087033"><ele>5.0</ele><time>2026-05-03T15:09:47.886Z</time></trkpt><trkpt lat="38.9379283" lon="16.2090717"><ele>5.0</ele><time>2026-05-03T15:09:48.886Z</time></trkpt><trkpt lat="38.9378033" lon="16.2094417"><ele>5.0</ele><time>2026-05-03T15:09:49.886Z</time></trkpt><trkpt lat="38.93768" lon="16.20981"><ele>5.0</ele><time>2026-05-03T15:09:50.885Z</time></trkpt><trkpt lat="38.9375533" lon="16.2101717"><ele>5.0</ele><time>2026-05-03T15:09:51.885Z</time></trkpt><trkpt lat="38.93743" lon="16.21053"><ele>4.0</ele><time>2026-05-03T15:09:52.885Z</time></trkpt><trkpt lat="38.9373017" lon="16.2108817"><ele>3.0</ele><time>2026-05-03T15:09:53.886Z</time></trkpt><trkpt lat="38.93717" lon="16.21123"><ele>3.0</ele><time>2026-05-03T15:09:54.886Z</time></trkpt><trkpt lat="38.937045" lon="16.211575"><ele>3.0</ele><time>2026-05-03T15:09:55.886Z</time></trkpt><trkpt lat="38.9369267" lon="16.2119133"><ele>3.0</ele><time>2026-05-03T15:09:56.886Z</time></trkpt><trkpt lat="38.9368133" lon="16.2122517"><ele>3.0</ele><time>2026-05-03T15:09:57.886Z</time></trkpt><trkpt lat="38.9367033" lon="16.21259"><ele>2.0</ele><time>2026-05-03T15:09:58.886Z</time></trkpt><trkpt lat="38.93659" lon="16.2129233"><ele>1.0</ele><time>2026-05-03T15:09:59.886Z</time></trkpt><trkpt lat="38.9364783" lon="16.2132683"><ele>1.0</ele><time>2026-05-03T15:10:00.886Z</time></trkpt><trkpt lat="38.9363683" lon="16.2136167"><ele>1.0</ele><time>2026-05-03T15:10:01.885Z</time></trkpt><trkpt lat="38.9362517" lon="16.2139733"><ele>1.5</ele><time>2026-05-03T15:10:02.886Z</time></trkpt><trkpt lat="38.9361317" lon="16.2143283"><ele>2.0</ele><time>2026-05-03T15:10:03.885Z</time></trkpt><trkpt lat="38.9360117" lon="16.2146833"><ele>2.5</ele><time>2026-05-03T15:10:04.886Z</time></trkpt><trkpt lat="38.9358917" lon="16.2150333"><ele>3.0</ele><time>2026-05-03T15:10:05.886Z</time></trkpt><trkpt lat="38.9357733" lon="16.2153883"><ele>3.5</ele><time>2026-05-03T15:10:06.886Z</time></trkpt><trkpt lat="38.9356517" lon="16.2157483"><ele>4.0</ele><time>2026-05-03T15:10:07.885Z</time></trkpt><trkpt lat="38.93553" lon="16.216105"><ele>4.0</ele><time>2026-05-03T15:10:08.886Z</time></trkpt><trkpt lat="38.9354083" lon="16.2164567"><ele>4.0</ele><time>2026-05-03T15:10:09.886Z</time></trkpt><trkpt lat="38.9352867" lon="16.2168133"><ele>4.0</ele><time>2026-05-03T15:10:10.885Z</time></trkpt><trkpt lat="38.9351683" lon="16.2171683"><ele>4.0</ele><time>2026-05-03T15:10:11.886Z</time></trkpt><trkpt lat="38.93505" lon="16.2175233"><ele>4.0</ele><time>2026-05-03T15:10:12.886Z</time></trkpt><trkpt lat="38.9349317" lon="16.2178733"><ele>4.0</ele><time>2026-05-03T15:10:13.886Z</time></trkpt><trkpt lat="38.93481" lon="16.218225"><ele>4.0</ele><time>2026-05-03T15:10:14.886Z</time></trkpt><trkpt lat="38.9346867" lon="16.2185783"><ele>4.0</ele><time>2026-05-03T15:10:15.886Z</time></trkpt><trkpt lat="38.934565" lon="16.218925"><ele>4.5</ele><time>2026-05-03T15:10:16.886Z</time></trkpt><trkpt lat="38.93444" lon="16.2192767"><ele>5.0</ele><time>2026-05-03T15:10:17.886Z</time></trkpt><trkpt lat="38.9343233" lon="16.2196267"><ele>5.5</ele><time>2026-05-03T15:10:18.886Z</time></trkpt><trkpt lat="38.9342067" lon="16.2199783"><ele>6.0</ele><time>2026-05-03T15:10:19.886Z</time></trkpt><trkpt lat="38.9340883" lon="16.2203267"><ele>6.0</ele><time>2026-05-03T15:10:20.886Z</time></trkpt><trkpt lat="38.93397" lon="16.2206717"><ele>6.0</ele><time>2026-05-03T15:10:21.885Z</time></trkpt><trkpt lat="38.9338533" lon="16.221015"><ele>6.0</ele><time>2026-05-03T15:10:22.886Z</time></trkpt><trkpt lat="38.9337383" lon="16.2213567"><ele>6.0</ele><time>2026-05-03T15:10:23.885Z</time></trkpt><trkpt lat="38.9336183" lon="16.221695"><ele>6.0</ele><time>2026-05-03T15:10:24.886Z</time></trkpt><trkpt lat="38.9334983" lon="16.222035"><ele>6.0</ele><time>2026-05-03T15:10:25.885Z</time></trkpt><trkpt lat="38.9333833" lon="16.2223767"><ele>6.5</ele><time>2026-05-03T15:10:26.886Z</time></trkpt><trkpt lat="38.93327" lon="16.222715"><ele>7.0</ele><time>2026-05-03T15:10:27.886Z</time></trkpt><trkpt lat="38.9331567" lon="16.2230633"><ele>7.0</ele><time>2026-05-03T15:10:28.885Z</time></trkpt><trkpt lat="38.9330383" lon="16.2234117"><ele>7.0</ele><time>2026-05-03T15:10:29.886Z</time></trkpt><trkpt lat="38.932925" lon="16.223765"><ele>6.5</ele><time>2026-05-03T15:10:30.886Z</time></trkpt><trkpt lat="38.9328117" lon="16.2241167"><ele>6.0</ele><time>2026-05-03T15:10:31.886Z</time></trkpt><trkpt lat="38.9326983" lon="16.2244717"><ele>7.0</ele><time>2026-05-03T15:10:32.886Z</time></trkpt><trkpt lat="38.9325883" lon="16.22483"><ele>8.0</ele><time>2026-05-03T15:10:33.886Z</time></trkpt><trkpt lat="38.93248" lon="16.2251883"><ele>8.5</ele><time>2026-05-03T15:10:34.886Z</time></trkpt><trkpt lat="38.932375" lon="16.2255467"><ele>9.0</ele><time>2026-05-03T15:10:35.886Z</time></trkpt><trkpt lat="38.9322667" lon="16.2259117"><ele>10.0</ele><time>2026-05-03T15:10:36.885Z</time></trkpt><trkpt lat="38.9321667" lon="16.2262767"><ele>11.0</ele><time>2026-05-03T15:10:37.886Z</time></trkpt><trkpt lat="38.9320617" lon="16.2266383"><ele>11.0</ele><time>2026-05-03T15:10:38.886Z</time></trkpt><trkpt lat="38.9319583" lon="16.227"><ele>11.0</ele><time>2026-05-03T15:10:39.886Z</time></trkpt><trkpt lat="38.9318517" lon="16.2273533"><ele>11.5</ele><time>2026-05-03T15:10:40.886Z</time></trkpt><trkpt lat="38.9317567" lon="16.2277033"><ele>12.0</ele><time>2026-05-03T15:10:41.886Z</time></trkpt><trkpt lat="38.9316583" lon="16.2280567"><ele>12.5</ele><time>2026-05-03T15:10:42.886Z</time></trkpt><trkpt lat="38.9315617" lon="16.2284083"><ele>13.0</ele><time>2026-05-03T15:10:43.885Z</time></trkpt><trkpt lat="38.9314683" lon="16.2287667"><ele>13.5</ele><time>2026-05-03T15:10:44.886Z</time></trkpt><trkpt lat="38.9313783" lon="16.229125"><ele>14.0</ele><time>2026-05-03T15:10:45.885Z</time></trkpt><trkpt lat="38.93129" lon="16.2294883"><ele>15.0</ele><time>2026-05-03T15:10:46.886Z</time></trkpt><trkpt lat="38.9312017" lon="16.22986"><ele>16.0</ele><time>2026-05-03T15:10:47.886Z</time></trkpt><trkpt lat="38.9311133" lon="16.2302167"><ele>16.0</ele><time>2026-05-03T15:10:48.886Z</time></trkpt><trkpt lat="38.931025" lon="16.23059"><ele>16.0</ele><time>2026-05-03T15:10:49.886Z</time></trkpt><trkpt lat="38.930935" lon="16.2309617"><ele>15.5</ele><time>2026-05-03T15:10:50.886Z</time></trkpt><trkpt lat="38.9308483" lon="16.231335"><ele>15.0</ele><time>2026-05-03T15:10:51.886Z</time></trkpt><trkpt lat="38.9307617" lon="16.23171"><ele>16.0</ele><time>2026-05-03T15:10:52.886Z</time></trkpt><trkpt lat="38.9306817" lon="16.2320883"><ele>17.0</ele><time>2026-05-03T15:10:53.886Z</time></trkpt><trkpt lat="38.9305983" lon="16.2324667"><ele>17.5</ele><time>2026-05-03T15:10:54.885Z</time></trkpt><trkpt lat="38.9305183" lon="16.2328417"><ele>18.0</ele><time>2026-05-03T15:10:55.886Z</time></trkpt><trkpt lat="38.93044" lon="16.2332133"><ele>19.0</ele><time>2026-05-03T15:10:56.886Z</time></trkpt><trkpt lat="38.9303617" lon="16.233595"><ele>20.0</ele><time>2026-05-03T15:10:57.885Z</time></trkpt><trkpt lat="38.930285" lon="16.2339733"><ele>20.0</ele><time>2026-05-03T15:10:58.886Z</time></trkpt><trkpt lat="38.9302117" lon="16.2343567"><ele>20.0</ele><time>2026-05-03T15:10:59.886Z</time></trkpt><trkpt lat="38.9301333" lon="16.2347283"><ele>20.5</ele><time>2026-05-03T15:11:00.885Z</time></trkpt><trkpt lat="38.9300533" lon="16.2351"><ele>21.0</ele><time>2026-05-03T15:11:01.886Z</time></trkpt><trkpt lat="38.92998" lon="16.2354683"><ele>21.5</ele><time>2026-05-03T15:11:02.886Z</time></trkpt><trkpt lat="38.92991" lon="16.2358333"><ele>22.0</ele><time>2026-05-03T15:11:03.886Z</time></trkpt><trkpt lat="38.9298283" lon="16.2361933"><ele>23.5</ele><time>2026-05-03T15:11:04.886Z</time></trkpt><trkpt lat="38.92974" lon="16.23655"><ele>25.0</ele><time>2026-05-03T15:11:05.886Z</time></trkpt><trkpt lat="38.92966" lon="16.2369133"><ele>25.0</ele><time>2026-05-03T15:11:06.886Z</time></trkpt><trkpt lat="38.9295733" lon="16.2372767"><ele>25.0</ele><time>2026-05-03T15:11:07.886Z</time></trkpt><trkpt lat="38.9294883" lon="16.237635"><ele>25.0</ele><time>2026-05-03T15:11:08.886Z</time></trkpt><trkpt lat="38.929405" lon="16.2379933"><ele>25.0</ele><time>2026-05-03T15:11:09.886Z</time></trkpt><trkpt lat="38.929325" lon="16.2383467"><ele>24.5</ele><time>2026-05-03T15:11:10.886Z</time></trkpt><trkpt lat="38.9292433" lon="16.238695"><ele>24.0</ele><time>2026-05-03T15:11:11.886Z</time></trkpt><trkpt lat="38.92916" lon="16.2390417"><ele>25.0</ele><time>2026-05-03T15:11:12.886Z</time></trkpt><trkpt lat="38.929075" lon="16.23939"><ele>26.0</ele><time>2026-05-03T15:11:13.886Z</time></trkpt><trkpt lat="38.928985" lon="16.2397433"><ele>26.0</ele><time>2026-05-03T15:11:14.886Z</time></trkpt><trkpt lat="38.9289" lon="16.2400867"><ele>26.0</ele><time>2026-05-03T15:11:15.886Z</time></trkpt><trkpt lat="38.9288067" lon="16.2404433"><ele>27.0</ele><time>2026-05-03T15:11:16.886Z</time></trkpt><trkpt lat="38.92871" lon="16.2408017"><ele>28.0</ele><time>2026-05-03T15:11:17.886Z</time></trkpt><trkpt lat="38.9286133" lon="16.24116"><ele>29.0</ele><time>2026-05-03T15:11:18.886Z</time></trkpt><trkpt lat="38.9285117" lon="16.24152"><ele>30.0</ele><time>2026-05-03T15:11:19.886Z</time></trkpt><trkpt lat="38.928415" lon="16.24188"><ele>29.5</ele><time>2026-05-03T15:11:20.886Z</time></trkpt><trkpt lat="38.928315" lon="16.242245"><ele>29.0</ele><time>2026-05-03T15:11:21.886Z</time></trkpt><trkpt lat="38.9282133" lon="16.24262"><ele>29.0</ele><time>2026-05-03T15:11:22.886Z</time></trkpt><trkpt lat="38.9281033" lon="16.2429833"><ele>29.0</ele><time>2026-05-03T15:11:23.886Z</time></trkpt><trkpt lat="38.9279983" lon="16.2433517"><ele>29.5</ele><time>2026-05-03T15:11:24.886Z</time></trkpt><trkpt lat="38.9279" lon="16.2437183"><ele>30.0</ele><time>2026-05-03T15:11:25.886Z</time></trkpt><trkpt lat="38.9278" lon="16.2440767"><ele>30.5</ele><time>2026-05-03T15:11:26.886Z</time></trkpt><trkpt lat="38.9276933" lon="16.2444383"><ele>31.0</ele><time>2026-05-03T15:11:27.885Z</time></trkpt><trkpt lat="38.9275983" lon="16.2447967"><ele>30.5</ele><time>2026-05-03T15:11:28.886Z</time></trkpt><trkpt lat="38.9274933" lon="16.2451583"><ele>30.0</ele><time>2026-05-03T15:11:29.886Z</time></trkpt><trkpt lat="38.9273967" lon="16.2455217"><ele>29.5</ele><time>2026-05-03T15:11:30.886Z</time></trkpt><trkpt lat="38.9273" lon="16.24588"><ele>29.0</ele><time>2026-05-03T15:11:31.885Z</time></trkpt><trkpt lat="38.9272" lon="16.24624"><ele>29.0</ele><time>2026-05-03T15:11:32.886Z</time></trkpt><trkpt lat="38.9271017" lon="16.2465967"><ele>29.0</ele><time>2026-05-03T15:11:33.886Z</time></trkpt><trkpt lat="38.9269983" lon="16.2469583"><ele>29.5</ele><time>2026-05-03T15:11:34.886Z</time></trkpt><trkpt lat="38.9268983" lon="16.2473267"><ele>30.0</ele><time>2026-05-03T15:11:35.886Z</time></trkpt><trkpt lat="38.9267967" lon="16.247695"><ele>30.5</ele><time>2026-05-03T15:11:36.885Z</time></trkpt><trkpt lat="38.9266917" lon="16.24806"><ele>31.0</ele><time>2026-05-03T15:11:37.886Z</time></trkpt><trkpt lat="38.9265917" lon="16.2484233"><ele>31.0</ele><time>2026-05-03T15:11:38.885Z</time></trkpt><trkpt lat="38.9264833" lon="16.2487917"><ele>31.0</ele><time>2026-05-03T15:11:39.885Z</time></trkpt><trkpt lat="38.92638" lon="16.2491567"><ele>32.5</ele><time>2026-05-03T15:11:40.886Z</time></trkpt><trkpt lat="38.92628" lon="16.2495233"><ele>34.0</ele><time>2026-05-03T15:11:41.886Z</time></trkpt><trkpt lat="38.9261783" lon="16.2498867"><ele>35.0</ele><time>2026-05-03T15:11:42.886Z</time></trkpt><trkpt lat="38.9260733" lon="16.2502433"><ele>36.0</ele><time>2026-05-03T15:11:43.886Z</time></trkpt><trkpt lat="38.9259733" lon="16.2506017"><ele>36.5</ele><time>2026-05-03T15:11:44.885Z</time></trkpt><trkpt lat="38.9258733" lon="16.2509617"><ele>37.0</ele><time>2026-05-03T15:11:45.885Z</time></trkpt><trkpt lat="38.9257733" lon="16.251325"><ele>37.5</ele><time>2026-05-03T15:11:46.886Z</time></trkpt><trkpt lat="38.9256733" lon="16.251685"><ele>38.0</ele><time>2026-05-03T15:11:47.886Z</time></trkpt><trkpt lat="38.9255733" lon="16.2520483"><ele>37.5</ele><time>2026-05-03T15:11:48.885Z</time></trkpt><trkpt lat="38.9254683" lon="16.2524067"><ele>37.0</ele><time>2026-05-03T15:11:49.886Z</time></trkpt><trkpt lat="38.92536" lon="16.2527767"><ele>37.0</ele><time>2026-05-03T15:11:50.886Z</time></trkpt><trkpt lat="38.9252517" lon="16.2531533"><ele>37.0</ele><time>2026-05-03T15:11:51.886Z</time></trkpt><trkpt lat="38.92515" lon="16.253525"><ele>36.0</ele><time>2026-05-03T15:11:52.886Z</time></trkpt><trkpt lat="38.9250467" lon="16.2539"><ele>35.0</ele><time>2026-05-03T15:11:53.885Z</time></trkpt><trkpt lat="38.92494" lon="16.2542717"><ele>35.0</ele><time>2026-05-03T15:11:54.886Z</time></trkpt><trkpt lat="38.9248367" lon="16.2546483"><ele>35.0</ele><time>2026-05-03T15:11:55.886Z</time></trkpt><trkpt lat="38.9247267" lon="16.2550267"><ele>35.0</ele><time>2026-05-03T15:11:56.886Z</time></trkpt><trkpt lat="38.9246217" lon="16.2554017"><ele>35.0</ele><time>2026-05-03T15:11:57.886Z</time></trkpt><trkpt lat="38.9245167" lon="16.2557683"><ele>34.5</ele><time>2026-05-03T15:11:58.886Z</time></trkpt><trkpt lat="38.924415" lon="16.2561383"><ele>34.0</ele><time>2026-05-03T15:11:59.885Z</time></trkpt><trkpt lat="38.92431" lon="16.2565033"><ele>31.5</ele><time>2026-05-03T15:12:00.886Z</time></trkpt><trkpt lat="38.9242" lon="16.25687"><ele>29.0</ele><time>2026-05-03T15:12:01.886Z</time></trkpt><trkpt lat="38.92409" lon="16.257235"><ele>29.5</ele><time>2026-05-03T15:12:02.886Z</time></trkpt><trkpt lat="38.92398" lon="16.257595"><ele>30.0</ele><time>2026-05-03T15:12:03.886Z</time></trkpt><trkpt lat="38.9238617" lon="16.2579517"><ele>31.0</ele><time>2026-05-03T15:12:04.885Z</time></trkpt><trkpt lat="38.9237333" lon="16.2582933"><ele>32.0</ele><time>2026-05-03T15:12:05.886Z</time></trkpt><trkpt lat="38.9236" lon="16.2586333"><ele>32.0</ele><time>2026-05-03T15:12:06.886Z</time></trkpt><trkpt lat="38.923465" lon="16.2589633"><ele>32.0</ele><time>2026-05-03T15:12:07.885Z</time></trkpt><trkpt lat="38.923315" lon="16.2592883"><ele>31.5</ele><time>2026-05-03T15:12:08.885Z</time></trkpt><trkpt lat="38.9231517" lon="16.25961"><ele>31.0</ele><time>2026-05-03T15:12:09.886Z</time></trkpt><trkpt lat="38.9229967" lon="16.25992"><ele>32.0</ele><time>2026-05-03T15:12:10.886Z</time></trkpt><trkpt lat="38.9228283" lon="16.2602167"><ele>33.0</ele><time>2026-05-03T15:12:11.886Z</time></trkpt><trkpt lat="38.922645" lon="16.260505"><ele>31.0</ele><time>2026-05-03T15:12:12.885Z</time></trkpt><trkpt lat="38.9224533" lon="16.2607883"><ele>29.0</ele><time>2026-05-03T15:12:13.885Z</time></trkpt><trkpt lat="38.9222567" lon="16.26106"><ele>29.0</ele><time>2026-05-03T15:12:14.886Z</time></trkpt><trkpt lat="38.9220617" lon="16.2613183"><ele>29.0</ele><time>2026-05-03T15:12:15.886Z</time></trkpt><trkpt lat="38.9218567" lon="16.26157"><ele>29.5</ele><time>2026-05-03T15:12:16.885Z</time></trkpt><trkpt lat="38.9216467" lon="16.261815"><ele>30.0</ele><time>2026-05-03T15:12:17.885Z</time></trkpt><trkpt lat="38.921435" lon="16.2620483"><ele>29.5</ele><time>2026-05-03T15:12:18.886Z</time></trkpt><trkpt lat="38.921215" lon="16.2622883"><ele>29.0</ele><time>2026-05-03T15:12:19.885Z</time></trkpt><trkpt lat="38.9209933" lon="16.2625167"><ele>29.0</ele><time>2026-05-03T15:12:20.886Z</time></trkpt><trkpt lat="38.9207633" lon="16.2627433"><ele>29.0</ele><time>2026-05-03T15:12:21.886Z</time></trkpt><trkpt lat="38.9205267" lon="16.2629583"><ele>28.5</ele><time>2026-05-03T15:12:22.885Z</time></trkpt><trkpt lat="38.9202883" lon="16.2631717"><ele>28.0</ele><time>2026-05-03T15:12:23.885Z</time></trkpt><trkpt lat="38.92004" lon="16.26339"><ele>28.0</ele><time>2026-05-03T15:12:24.886Z</time></trkpt><trkpt lat="38.919795" lon="16.2636"><ele>28.0</ele><time>2026-05-03T15:12:25.886Z</time></trkpt><trkpt lat="38.9195567" lon="16.2637983"><ele>28.0</ele><time>2026-05-03T15:12:26.886Z</time></trkpt><trkpt lat="38.9193133" lon="16.264"><ele>28.0</ele><time>2026-05-03T15:12:27.885Z</time></trkpt><trkpt lat="38.9190683" lon="16.264205"><ele>28.0</ele><time>2026-05-03T15:12:28.886Z</time></trkpt><trkpt lat="38.9188267" lon="16.264405"><ele>28.0</ele><time>2026-05-03T15:12:29.886Z</time></trkpt><trkpt lat="38.9185817" lon="16.2646117"><ele>27.5</ele><time>2026-05-03T15:12:30.885Z</time></trkpt><trkpt lat="38.9183483" lon="16.26481"><ele>27.0</ele><time>2026-05-03T15:12:31.886Z</time></trkpt><trkpt lat="38.9181133" lon="16.26501"><ele>27.0</ele><time>2026-05-03T15:12:32.885Z</time></trkpt><trkpt lat="38.91788" lon="16.2652183"><ele>27.0</ele><time>2026-05-03T15:12:33.886Z</time></trkpt><trkpt lat="38.9176433" lon="16.2654283"><ele>28.0</ele><time>2026-05-03T15:12:34.886Z</time></trkpt><trkpt lat="38.9174033" lon="16.2656333"><ele>29.0</ele><time>2026-05-03T15:12:35.885Z</time></trkpt><trkpt lat="38.9171683" lon="16.2658367"><ele>29.0</ele><time>2026-05-03T15:12:36.886Z</time></trkpt><trkpt lat="38.9169283" lon="16.2660417"><ele>29.0</ele><time>2026-05-03T15:12:37.886Z</time></trkpt><trkpt lat="38.9166833" lon="16.2662583"><ele>29.5</ele><time>2026-05-03T15:12:38.885Z</time></trkpt><trkpt lat="38.9164367" lon="16.2664633"><ele>30.0</ele><time>2026-05-03T15:12:39.886Z</time></trkpt><trkpt lat="38.9161917" lon="16.26667"><ele>30.0</ele><time>2026-05-03T15:12:40.886Z</time></trkpt><trkpt lat="38.915945" lon="16.266885"><ele>30.0</ele><time>2026-05-03T15:12:41.886Z</time></trkpt><trkpt lat="38.9156967" lon="16.2671"><ele>29.0</ele><time>2026-05-03T15:12:42.886Z</time></trkpt><trkpt lat="38.9154533" lon="16.26731"><ele>28.0</ele><time>2026-05-03T15:12:43.886Z</time></trkpt><trkpt lat="38.915215" lon="16.2675217"><ele>27.0</ele><time>2026-05-03T15:12:44.886Z</time></trkpt><trkpt lat="38.9149833" lon="16.26773"><ele>26.0</ele><time>2026-05-03T15:12:45.886Z</time></trkpt><trkpt lat="38.91475" lon="16.2679367"><ele>26.5</ele><time>2026-05-03T15:12:46.886Z</time></trkpt><trkpt lat="38.9145283" lon="16.268135"><ele>27.0</ele><time>2026-05-03T15:12:47.885Z</time></trkpt><trkpt lat="38.9143033" lon="16.2683317"><ele>26.5</ele><time>2026-05-03T15:12:48.886Z</time></trkpt><trkpt lat="38.9140767" lon="16.2685333"><ele>26.0</ele><time>2026-05-03T15:12:49.885Z</time></trkpt><trkpt lat="38.9138467" lon="16.2687417"><ele>26.0</ele><time>2026-05-03T15:12:50.886Z</time></trkpt><trkpt lat="38.9136183" lon="16.2689467"><ele>26.0</ele><time>2026-05-03T15:12:51.886Z</time></trkpt><trkpt lat="38.9133867" lon="16.2691483"><ele>26.0</ele><time>2026-05-03T15:12:52.886Z</time></trkpt><trkpt lat="38.9131417" lon="16.2693533"><ele>26.0</ele><time>2026-05-03T15:12:53.886Z</time></trkpt><trkpt lat="38.9128967" lon="16.2695683"><ele>26.0</ele><time>2026-05-03T15:12:54.886Z</time></trkpt><trkpt lat="38.9126583" lon="16.2697783"><ele>26.0</ele><time>2026-05-03T15:12:55.886Z</time></trkpt><trkpt lat="38.9124117" lon="16.2699933"><ele>25.0</ele><time>2026-05-03T15:12:56.885Z</time></trkpt><trkpt lat="38.91216" lon="16.2702067"><ele>24.0</ele><time>2026-05-03T15:12:57.886Z</time></trkpt><trkpt lat="38.9119067" lon="16.270435"><ele>24.5</ele><time>2026-05-03T15:12:58.886Z</time></trkpt><trkpt lat="38.9116533" lon="16.2706533"><ele>25.0</ele><time>2026-05-03T15:12:59.886Z</time></trkpt><trkpt lat="38.9114" lon="16.2708733"><ele>25.0</ele><time>2026-05-03T15:13:00.886Z</time></trkpt><trkpt lat="38.9111467" lon="16.27109"><ele>25.0</ele><time>2026-05-03T15:13:01.885Z</time></trkpt><trkpt lat="38.9108983" lon="16.271305"><ele>25.0</ele><time>2026-05-03T15:13:02.885Z</time></trkpt><trkpt lat="38.9106467" lon="16.2715183"><ele>25.0</ele><time>2026-05-03T15:13:03.886Z</time></trkpt><trkpt lat="38.910405" lon="16.2717317"><ele>25.0</ele><time>2026-05-03T15:13:04.886Z</time></trkpt><trkpt lat="38.9101667" lon="16.2719417"><ele>25.0</ele><time>2026-05-03T15:13:05.886Z</time></trkpt><trkpt lat="38.909925" lon="16.2721567"><ele>25.0</ele><time>2026-05-03T15:13:06.886Z</time></trkpt><trkpt lat="38.9096883" lon="16.272375"><ele>25.0</ele><time>2026-05-03T15:13:07.886Z</time></trkpt><trkpt lat="38.9094417" lon="16.272585"><ele>25.5</ele><time>2026-05-03T15:13:08.886Z</time></trkpt><trkpt lat="38.9092" lon="16.2727833"><ele>26.0</ele><time>2026-05-03T15:13:09.886Z</time></trkpt><trkpt lat="38.908955" lon="16.2729883"><ele>26.0</ele><time>2026-05-03T15:13:10.886Z</time></trkpt><trkpt lat="38.9087117" lon="16.2732017"><ele>26.0</ele><time>2026-05-03T15:13:11.886Z</time></trkpt><trkpt lat="38.9084733" lon="16.27341"><ele>25.5</ele><time>2026-05-03T15:13:12.886Z</time></trkpt><trkpt lat="38.90824" lon="16.2736133"><ele>25.0</ele><time>2026-05-03T15:13:13.886Z</time></trkpt><trkpt lat="38.9080033" lon="16.2738167"><ele>25.5</ele><time>2026-05-03T15:13:14.886Z</time></trkpt><trkpt lat="38.9077667" lon="16.2740333"><ele>26.0</ele><time>2026-05-03T15:13:15.886Z</time></trkpt><trkpt lat="38.9075317" lon="16.27423"><ele>26.0</ele><time>2026-05-03T15:13:16.885Z</time></trkpt><trkpt lat="38.9073067" lon="16.2744383"><ele>26.0</ele><time>2026-05-03T15:13:17.886Z</time></trkpt><trkpt lat="38.9070783" lon="16.2746333"><ele>26.5</ele><time>2026-05-03T15:13:18.886Z</time></trkpt><trkpt lat="38.9068517" lon="16.27483"><ele>27.0</ele><time>2026-05-03T15:13:19.886Z</time></trkpt><trkpt lat="38.9066217" lon="16.2750267"><ele>25.0</ele><time>2026-05-03T15:13:20.885Z</time></trkpt><trkpt lat="38.9064017" lon="16.275215"><ele>23.0</ele><time>2026-05-03T15:13:21.886Z</time></trkpt><trkpt lat="38.9061867" lon="16.2754033"><ele>23.0</ele><time>2026-05-03T15:13:22.885Z</time></trkpt><trkpt lat="38.90597" lon="16.275595"><ele>23.0</ele><time>2026-05-03T15:13:23.886Z</time></trkpt><trkpt lat="38.9057483" lon="16.2757767"><ele>22.0</ele><time>2026-05-03T15:13:24.886Z</time></trkpt><trkpt lat="38.905525" lon="16.275965"><ele>21.0</ele><time>2026-05-03T15:13:25.886Z</time></trkpt><trkpt lat="38.9052967" lon="16.27616"><ele>21.0</ele><time>2026-05-03T15:13:26.886Z</time></trkpt><trkpt lat="38.90507" lon="16.2763517"><ele>21.0</ele><time>2026-05-03T15:13:27.886Z</time></trkpt><trkpt lat="38.9048383" lon="16.27654"><ele>21.0</ele><time>2026-05-03T15:13:28.886Z</time></trkpt><trkpt lat="38.9046" lon="16.2767233"><ele>21.0</ele><time>2026-05-03T15:13:29.886Z</time></trkpt><trkpt lat="38.90436" lon="16.2768967"><ele>21.0</ele><time>2026-05-03T15:13:30.886Z</time></trkpt><trkpt lat="38.9041183" lon="16.2770533"><ele>21.0</ele><time>2026-05-03T15:13:31.885Z</time></trkpt><trkpt lat="38.9038767" lon="16.2772"><ele>20.0</ele><time>2026-05-03T15:13:32.886Z</time></trkpt><trkpt lat="38.90364" lon="16.2773467"><ele>19.0</ele><time>2026-05-03T15:13:33.886Z</time></trkpt><trkpt lat="38.9033983" lon="16.2774717"><ele>19.0</ele><time>2026-05-03T15:13:34.885Z</time></trkpt><trkpt lat="38.9031417" lon="16.2775833"><ele>19.0</ele><time>2026-05-03T15:13:35.886Z</time></trkpt><trkpt lat="38.9028817" lon="16.2776917"><ele>19.0</ele><time>2026-05-03T15:13:36.886Z</time></trkpt><trkpt lat="38.9026067" lon="16.2777933"><ele>19.0</ele><time>2026-05-03T15:13:37.886Z</time></trkpt><trkpt lat="38.9023283" lon="16.277885"><ele>19.0</ele><time>2026-05-03T15:13:38.885Z</time></trkpt><trkpt lat="38.902045" lon="16.2779717"><ele>19.0</ele><time>2026-05-03T15:13:39.886Z</time></trkpt><trkpt lat="38.901755" lon="16.2780433"><ele>19.0</ele><time>2026-05-03T15:13:40.885Z</time></trkpt><trkpt lat="38.90146" lon="16.27811"><ele>19.0</ele><time>2026-05-03T15:13:41.886Z</time></trkpt><trkpt lat="38.9011633" lon="16.2781633"><ele>19.5</ele><time>2026-05-03T15:13:42.886Z</time></trkpt><trkpt lat="38.9008683" lon="16.278215"><ele>20.0</ele><time>2026-05-03T15:13:43.885Z</time></trkpt><trkpt lat="38.9005717" lon="16.2782617"><ele>20.0</ele><time>2026-05-03T15:13:44.886Z</time></trkpt><trkpt lat="38.9002733" lon="16.278305"><ele>20.0</ele><time>2026-05-03T15:13:45.885Z</time></trkpt><trkpt lat="38.8999683" lon="16.2783467"><ele>19.5</ele><time>2026-05-03T15:13:46.886Z</time></trkpt><trkpt lat="38.8996683" lon="16.2783967"><ele>19.0</ele><time>2026-05-03T15:13:47.885Z</time></trkpt><trkpt lat="38.8993717" lon="16.2784383"><ele>18.5</ele><time>2026-05-03T15:13:48.886Z</time></trkpt><trkpt lat="38.89908" lon="16.2784833"><ele>18.0</ele><time>2026-05-03T15:13:49.886Z</time></trkpt><trkpt lat="38.8987833" lon="16.2785283"><ele>18.0</ele><time>2026-05-03T15:13:50.886Z</time></trkpt><trkpt lat="38.8984917" lon="16.27857"><ele>18.0</ele><time>2026-05-03T15:13:51.886Z</time></trkpt><trkpt lat="38.898205" lon="16.2786133"><ele>19.0</ele><time>2026-05-03T15:13:52.886Z</time></trkpt><trkpt lat="38.897915" lon="16.2786583"><ele>20.0</ele><time>2026-05-03T15:13:53.886Z</time></trkpt><trkpt lat="38.8976217" lon="16.2787083"><ele>19.5</ele><time>2026-05-03T15:13:54.886Z</time></trkpt><trkpt lat="38.8973267" lon="16.2787567"><ele>19.0</ele><time>2026-05-03T15:13:55.885Z</time></trkpt><trkpt lat="38.8970333" lon="16.2788"><ele>18.5</ele><time>2026-05-03T15:13:56.886Z</time></trkpt><trkpt lat="38.8967367" lon="16.27885"><ele>18.0</ele><time>2026-05-03T15:13:57.886Z</time></trkpt><trkpt lat="38.8964433" lon="16.278895"><ele>17.5</ele><time>2026-05-03T15:13:58.885Z</time></trkpt><trkpt lat="38.896145" lon="16.2789417"><ele>17.0</ele><time>2026-05-03T15:13:59.886Z</time></trkpt><trkpt lat="38.89585" lon="16.2789817"><ele>18.0</ele><time>2026-05-03T15:14:00.886Z</time></trkpt><trkpt lat="38.89556" lon="16.2790317"><ele>19.0</ele><time>2026-05-03T15:14:01.886Z</time></trkpt><trkpt lat="38.89527" lon="16.2790783"><ele>18.5</ele><time>2026-05-03T15:14:02.886Z</time></trkpt><trkpt lat="38.8949683" lon="16.2791233"><ele>18.0</ele><time>2026-05-03T15:14:03.886Z</time></trkpt><trkpt lat="38.89467" lon="16.2791667"><ele>18.0</ele><time>2026-05-03T15:14:04.886Z</time></trkpt><trkpt lat="38.89437" lon="16.2792033"><ele>18.0</ele><time>2026-05-03T15:14:05.886Z</time></trkpt><trkpt lat="38.8940717" lon="16.279245"><ele>18.5</ele><time>2026-05-03T15:14:06.886Z</time></trkpt><trkpt lat="38.893775" lon="16.2792917"><ele>19.0</ele><time>2026-05-03T15:14:07.886Z</time></trkpt><trkpt lat="38.89347" lon="16.2793383"><ele>19.5</ele><time>2026-05-03T15:14:08.886Z</time></trkpt><trkpt lat="38.893165" lon="16.279385"><ele>20.0</ele><time>2026-05-03T15:14:09.886Z</time></trkpt><trkpt lat="38.8928633" lon="16.2794367"><ele>20.0</ele><time>2026-05-03T15:14:10.886Z</time></trkpt><trkpt lat="38.892565" lon="16.2794883"><ele>20.0</ele><time>2026-05-03T15:14:11.885Z</time></trkpt><trkpt lat="38.8922617" lon="16.2795367"><ele>20.0</ele><time>2026-05-03T15:14:12.886Z</time></trkpt><trkpt lat="38.891955" lon="16.2795817"><ele>20.0</ele><time>2026-05-03T15:14:13.886Z</time></trkpt><trkpt lat="38.8916533" lon="16.2796283"><ele>20.0</ele><time>2026-05-03T15:14:14.886Z</time></trkpt><trkpt lat="38.891355" lon="16.27967"><ele>20.0</ele><time>2026-05-03T15:14:15.886Z</time></trkpt><trkpt lat="38.89106" lon="16.2797083"><ele>19.5</ele><time>2026-05-03T15:14:16.885Z</time></trkpt><trkpt lat="38.8907567" lon="16.2797567"><ele>19.0</ele><time>2026-05-03T15:14:17.886Z</time></trkpt><trkpt lat="38.8904583" lon="16.2798033"><ele>19.0</ele><time>2026-05-03T15:14:18.886Z</time></trkpt><trkpt lat="38.89016" lon="16.27985"><ele>19.0</ele><time>2026-05-03T15:14:19.885Z</time></trkpt><trkpt lat="38.8898567" lon="16.279895"><ele>19.0</ele><time>2026-05-03T15:14:20.885Z</time></trkpt><trkpt lat="38.88955" lon="16.2799417"><ele>19.0</ele><time>2026-05-03T15:14:21.886Z</time></trkpt><trkpt lat="38.8892417" lon="16.2799967"><ele>19.5</ele><time>2026-05-03T15:14:22.886Z</time></trkpt><trkpt lat="38.8889283" lon="16.28004"><ele>20.0</ele><time>2026-05-03T15:14:23.886Z</time></trkpt><trkpt lat="38.8886183" lon="16.2800867"><ele>20.0</ele><time>2026-05-03T15:14:24.886Z</time></trkpt><trkpt lat="38.8883083" lon="16.280135"><ele>20.0</ele><time>2026-05-03T15:14:25.886Z</time></trkpt><trkpt lat="38.8879967" lon="16.280175"><ele>20.0</ele><time>2026-05-03T15:14:26.885Z</time></trkpt><trkpt lat="38.8876883" lon="16.2802167"><ele>20.0</ele><time>2026-05-03T15:14:27.886Z</time></trkpt><trkpt lat="38.8873867" lon="16.2802567"><ele>19.5</ele><time>2026-05-03T15:14:28.886Z</time></trkpt><trkpt lat="38.887085" lon="16.2802917"><ele>19.0</ele><time>2026-05-03T15:14:29.886Z</time></trkpt><trkpt lat="38.8867867" lon="16.2803267"><ele>20.0</ele><time>2026-05-03T15:14:30.886Z</time></trkpt><trkpt lat="38.8864967" lon="16.2803683"><ele>21.0</ele><time>2026-05-03T15:14:31.886Z</time></trkpt><trkpt lat="38.8862117" lon="16.280415"><ele>20.0</ele><time>2026-05-03T15:14:32.885Z</time></trkpt><trkpt lat="38.8859267" lon="16.28046"><ele>19.0</ele><time>2026-05-03T15:14:33.886Z</time></trkpt><trkpt lat="38.8856367" lon="16.2805067"><ele>19.0</ele><time>2026-05-03T15:14:34.885Z</time></trkpt><trkpt lat="38.8853517" lon="16.28055"><ele>19.0</ele><time>2026-05-03T15:14:35.885Z</time></trkpt><trkpt lat="38.88507" lon="16.2805933"><ele>19.0</ele><time>2026-05-03T15:14:36.886Z</time></trkpt><trkpt lat="38.8847833" lon="16.280635"><ele>19.0</ele><time>2026-05-03T15:14:37.885Z</time></trkpt><trkpt lat="38.8844983" lon="16.28068"><ele>18.5</ele><time>2026-05-03T15:14:38.886Z</time></trkpt><trkpt lat="38.8842083" lon="16.280725"><ele>18.0</ele><time>2026-05-03T15:14:39.885Z</time></trkpt><trkpt lat="38.88392" lon="16.2807683"><ele>18.0</ele><time>2026-05-03T15:14:40.885Z</time></trkpt><trkpt lat="38.8836233" lon="16.2808117"><ele>18.0</ele><time>2026-05-03T15:14:41.886Z</time></trkpt><trkpt lat="38.8833267" lon="16.2808567"><ele>19.0</ele><time>2026-05-03T15:14:42.886Z</time></trkpt><trkpt lat="38.8830317" lon="16.280905"><ele>20.0</ele><time>2026-05-03T15:14:43.885Z</time></trkpt><trkpt lat="38.8827383" lon="16.2809517"><ele>19.5</ele><time>2026-05-03T15:14:44.886Z</time></trkpt><trkpt lat="38.8824383" lon="16.280995"><ele>19.0</ele><time>2026-05-03T15:14:45.886Z</time></trkpt><trkpt lat="38.8821417" lon="16.2810333"><ele>19.0</ele><time>2026-05-03T15:14:46.886Z</time></trkpt><trkpt lat="38.8818417" lon="16.2810833"><ele>19.0</ele><time>2026-05-03T15:14:47.885Z</time></trkpt><trkpt lat="38.88154" lon="16.2811333"><ele>19.5</ele><time>2026-05-03T15:14:48.886Z</time></trkpt><trkpt lat="38.8812433" lon="16.2811817"><ele>20.0</ele><time>2026-05-03T15:14:49.885Z</time></trkpt><trkpt lat="38.8809517" lon="16.2812267"><ele>19.5</ele><time>2026-05-03T15:14:50.885Z</time></trkpt><trkpt lat="38.88065" lon="16.281265"><ele>19.0</ele><time>2026-05-03T15:14:51.886Z</time></trkpt><trkpt lat="38.8803467" lon="16.2813017"><ele>19.0</ele><time>2026-05-03T15:14:52.885Z</time></trkpt><trkpt lat="38.8800467" lon="16.2813233"><ele>19.0</ele><time>2026-05-03T15:14:53.886Z</time></trkpt><trkpt lat="38.8797483" lon="16.28134"><ele>19.0</ele><time>2026-05-03T15:14:54.886Z</time></trkpt><trkpt lat="38.8794467" lon="16.2813517"><ele>19.0</ele><time>2026-05-03T15:14:55.886Z</time></trkpt><trkpt lat="38.8791567" lon="16.2813567"><ele>19.5</ele><time>2026-05-03T15:14:56.885Z</time></trkpt><trkpt lat="38.8788633" lon="16.281355"><ele>20.0</ele><time>2026-05-03T15:14:57.886Z</time></trkpt><trkpt lat="38.8785767" lon="16.2813467"><ele>20.0</ele><time>2026-05-03T15:14:58.886Z</time></trkpt><trkpt lat="38.8782933" lon="16.2813483"><ele>20.0</ele><time>2026-05-03T15:14:59.885Z</time></trkpt><trkpt lat="38.8780117" lon="16.2813517"><ele>20.0</ele><time>2026-05-03T15:15:00.886Z</time></trkpt><trkpt lat="38.877725" lon="16.2813583"><ele>20.0</ele><time>2026-05-03T15:15:01.886Z</time></trkpt><trkpt lat="38.87744" lon="16.2813667"><ele>20.0</ele><time>2026-05-03T15:15:02.886Z</time></trkpt><trkpt lat="38.877155" lon="16.28137"><ele>20.0</ele><time>2026-05-03T15:15:03.886Z</time></trkpt><trkpt lat="38.87687" lon="16.2813717"><ele>19.5</ele><time>2026-05-03T15:15:04.885Z</time></trkpt><trkpt lat="38.87658" lon="16.2813817"><ele>19.0</ele><time>2026-05-03T15:15:05.886Z</time></trkpt><trkpt lat="38.87629" lon="16.2813867"><ele>19.0</ele><time>2026-05-03T15:15:06.885Z</time></trkpt><trkpt lat="38.876" lon="16.281395"><ele>19.0</ele><time>2026-05-03T15:15:07.886Z</time></trkpt><trkpt lat="38.87571" lon="16.281405"><ele>19.0</ele><time>2026-05-03T15:15:08.886Z</time></trkpt><trkpt lat="38.8754267" lon="16.2814083"><ele>19.0</ele><time>2026-05-03T15:15:09.886Z</time></trkpt><trkpt lat="38.875145" lon="16.2814133"><ele>21.0</ele><time>2026-05-03T15:15:10.886Z</time></trkpt><trkpt lat="38.8748617" lon="16.2814183"><ele>23.0</ele><time>2026-05-03T15:15:11.885Z</time></trkpt><trkpt lat="38.8745767" lon="16.2814183"><ele>23.0</ele><time>2026-05-03T15:15:12.886Z</time></trkpt><trkpt lat="38.8742983" lon="16.2814233"><ele>23.0</ele><time>2026-05-03T15:15:13.885Z</time></trkpt><trkpt lat="38.8740117" lon="16.2814367"><ele>25.0</ele><time>2026-05-03T15:15:14.885Z</time></trkpt><trkpt lat="38.8737183" lon="16.28145"><ele>27.0</ele><time>2026-05-03T15:15:15.886Z</time></trkpt><trkpt lat="38.8734267" lon="16.2814567"><ele>27.0</ele><time>2026-05-03T15:15:16.886Z</time></trkpt><trkpt lat="38.8731317" lon="16.2814667"><ele>27.0</ele><time>2026-05-03T15:15:17.886Z</time></trkpt><trkpt lat="38.8728383" lon="16.28147"><ele>28.0</ele><time>2026-05-03T15:15:18.886Z</time></trkpt><trkpt lat="38.872545" lon="16.2814817"><ele>29.0</ele><time>2026-05-03T15:15:19.886Z</time></trkpt><trkpt lat="38.8722517" lon="16.2814883"><ele>29.0</ele><time>2026-05-03T15:15:20.886Z</time></trkpt><trkpt lat="38.8719567" lon="16.2814883"><ele>29.0</ele><time>2026-05-03T15:15:21.885Z</time></trkpt><trkpt lat="38.8716583" lon="16.2814967"><ele>29.5</ele><time>2026-05-03T15:15:22.886Z</time></trkpt><trkpt lat="38.871365" lon="16.2815"><ele>30.0</ele><time>2026-05-03T15:15:23.886Z</time></trkpt><trkpt lat="38.8710683" lon="16.2814967"><ele>31.5</ele><time>2026-05-03T15:15:24.885Z</time></trkpt><trkpt lat="38.8707783" lon="16.281495"><ele>33.0</ele><time>2026-05-03T15:15:25.886Z</time></trkpt><trkpt lat="38.8704833" lon="16.2814733"><ele>33.0</ele><time>2026-05-03T15:15:26.885Z</time></trkpt><trkpt lat="38.8701967" lon="16.2814483"><ele>33.0</ele><time>2026-05-03T15:15:27.886Z</time></trkpt><trkpt lat="38.869905" lon="16.28141"><ele>32.5</ele><time>2026-05-03T15:15:28.886Z</time></trkpt><trkpt lat="38.8696133" lon="16.2813567"><ele>32.0</ele><time>2026-05-03T15:15:29.886Z</time></trkpt><trkpt lat="38.86932" lon="16.28128"><ele>31.5</ele><time>2026-05-03T15:15:30.886Z</time></trkpt><trkpt lat="38.8690317" lon="16.2811767"><ele>31.0</ele><time>2026-05-03T15:15:31.886Z</time></trkpt><trkpt lat="38.8687417" lon="16.2810633"><ele>31.0</ele><time>2026-05-03T15:15:32.886Z</time></trkpt><trkpt lat="38.868455" lon="16.2809317"><ele>31.0</ele><time>2026-05-03T15:15:33.886Z</time></trkpt><trkpt lat="38.86817" lon="16.28078"><ele>31.0</ele><time>2026-05-03T15:15:34.886Z</time></trkpt><trkpt lat="38.8678883" lon="16.28061"><ele>31.0</ele><time>2026-05-03T15:15:35.886Z</time></trkpt><trkpt lat="38.8676217" lon="16.2804283"><ele>30.5</ele><time>2026-05-03T15:15:36.886Z</time></trkpt><trkpt lat="38.8673833" lon="16.280235"><ele>30.0</ele><time>2026-05-03T15:15:37.886Z</time></trkpt><trkpt lat="38.8671317" lon="16.2800283"><ele>30.0</ele><time>2026-05-03T15:15:38.886Z</time></trkpt><trkpt lat="38.866895" lon="16.279815"><ele>30.0</ele><time>2026-05-03T15:15:39.886Z</time></trkpt><trkpt lat="38.866665" lon="16.279595"><ele>30.5</ele><time>2026-05-03T15:15:40.886Z</time></trkpt><trkpt lat="38.8664417" lon="16.2793717"><ele>31.0</ele><time>2026-05-03T15:15:41.886Z</time></trkpt><trkpt lat="38.86621" lon="16.2791433"><ele>30.5</ele><time>2026-05-03T15:15:42.886Z</time></trkpt><trkpt lat="38.8659817" lon="16.2789133"><ele>30.0</ele><time>2026-05-03T15:15:43.885Z</time></trkpt><trkpt lat="38.86576" lon="16.2786817"><ele>30.0</ele><time>2026-05-03T15:15:44.885Z</time></trkpt><trkpt lat="38.8655317" lon="16.2784517"><ele>30.0</ele><time>2026-05-03T15:15:45.886Z</time></trkpt><trkpt lat="38.865305" lon="16.2782133"><ele>29.5</ele><time>2026-05-03T15:15:46.885Z</time></trkpt><trkpt lat="38.865075" lon="16.2779833"><ele>29.0</ele><time>2026-05-03T15:15:47.885Z</time></trkpt><trkpt lat="38.864845" lon="16.2777617"><ele>29.0</ele><time>2026-05-03T15:15:48.886Z</time></trkpt><trkpt lat="38.8646183" lon="16.2775417"><ele>29.0</ele><time>2026-05-03T15:15:49.886Z</time></trkpt><trkpt lat="38.8643933" lon="16.277335"><ele>27.5</ele><time>2026-05-03T15:15:50.885Z</time></trkpt><trkpt lat="38.8641583" lon="16.2771317"><ele>26.0</ele><time>2026-05-03T15:15:51.885Z</time></trkpt><trkpt lat="38.8639267" lon="16.2769317"><ele>26.0</ele><time>2026-05-03T15:15:52.886Z</time></trkpt><trkpt lat="38.8636867" lon="16.2767383"><ele>26.0</ele><time>2026-05-03T15:15:53.886Z</time></trkpt><trkpt lat="38.8634433" lon="16.27656"><ele>25.0</ele><time>2026-05-03T15:15:54.886Z</time></trkpt><trkpt lat="38.863195" lon="16.2763933"><ele>24.0</ele><time>2026-05-03T15:15:55.886Z</time></trkpt><trkpt lat="38.8629433" lon="16.2762317"><ele>24.0</ele><time>2026-05-03T15:15:56.886Z</time></trkpt><trkpt lat="38.8626817" lon="16.2760867"><ele>24.0</ele><time>2026-05-03T15:15:57.886Z</time></trkpt><trkpt lat="38.862415" lon="16.27595"><ele>22.5</ele><time>2026-05-03T15:15:58.886Z</time></trkpt><trkpt lat="38.8621483" lon="16.275825"><ele>21.0</ele><time>2026-05-03T15:15:59.886Z</time></trkpt><trkpt lat="38.8618767" lon="16.2757083"><ele>18.5</ele><time>2026-05-03T15:16:00.886Z</time></trkpt><trkpt lat="38.8616067" lon="16.2756033"><ele>16.0</ele><time>2026-05-03T15:16:01.886Z</time></trkpt><trkpt lat="38.8613417" lon="16.2755183"><ele>16.0</ele><time>2026-05-03T15:16:02.886Z</time></trkpt><trkpt lat="38.8610667" lon="16.275435"><ele>16.0</ele><time>2026-05-03T15:16:03.886Z</time></trkpt><trkpt lat="38.860795" lon="16.275365"><ele>16.5</ele><time>2026-05-03T15:16:04.886Z</time></trkpt><trkpt lat="38.8605233" lon="16.2752917"><ele>17.0</ele><time>2026-05-03T15:16:05.886Z</time></trkpt><trkpt lat="38.860255" lon="16.275215"><ele>18.0</ele><time>2026-05-03T15:16:06.886Z</time></trkpt><trkpt lat="38.8599817" lon="16.275145"><ele>19.0</ele><time>2026-05-03T15:16:07.886Z</time></trkpt><trkpt lat="38.8597083" lon="16.2750767"><ele>19.0</ele><time>2026-05-03T15:16:08.886Z</time></trkpt><trkpt lat="38.8594333" lon="16.2750017"><ele>19.0</ele><time>2026-05-03T15:16:09.886Z</time></trkpt><trkpt lat="38.8591583" lon="16.2749217"><ele>18.0</ele><time>2026-05-03T15:16:10.886Z</time></trkpt><trkpt lat="38.85889" lon="16.2748367"><ele>17.0</ele><time>2026-05-03T15:16:11.885Z</time></trkpt><trkpt lat="38.858615" lon="16.2747517"><ele>17.0</ele><time>2026-05-03T15:16:12.886Z</time></trkpt><trkpt lat="38.8583433" lon="16.2746567"><ele>17.0</ele><time>2026-05-03T15:16:13.886Z</time></trkpt><trkpt lat="38.8580767" lon="16.27455"><ele>17.0</ele><time>2026-05-03T15:16:14.886Z</time></trkpt><trkpt lat="38.85781" lon="16.274435"><ele>17.0</ele><time>2026-05-03T15:16:15.886Z</time></trkpt><trkpt lat="38.8575517" lon="16.27431"><ele>16.5</ele><time>2026-05-03T15:16:16.886Z</time></trkpt><trkpt lat="38.8572967" lon="16.2741767"><ele>16.0</ele><time>2026-05-03T15:16:17.886Z</time></trkpt><trkpt lat="38.8570417" lon="16.27403"><ele>15.5</ele><time>2026-05-03T15:16:18.886Z</time></trkpt><trkpt lat="38.8567883" lon="16.2738733"><ele>15.0</ele><time>2026-05-03T15:16:19.885Z</time></trkpt><trkpt lat="38.8565367" lon="16.2736967"><ele>16.0</ele><time>2026-05-03T15:16:20.886Z</time></trkpt><trkpt lat="38.85628" lon="16.2735083"><ele>17.0</ele><time>2026-05-03T15:16:21.886Z</time></trkpt><trkpt lat="38.856025" lon="16.273315"><ele>18.0</ele><time>2026-05-03T15:16:22.886Z</time></trkpt><trkpt lat="38.85577" lon="16.27312"><ele>19.0</ele><time>2026-05-03T15:16:23.885Z</time></trkpt><trkpt lat="38.855515" lon="16.2729133"><ele>19.5</ele><time>2026-05-03T15:16:24.886Z</time></trkpt><trkpt lat="38.8552617" lon="16.2727117"><ele>20.0</ele><time>2026-05-03T15:16:25.886Z</time></trkpt><trkpt lat="38.8550033" lon="16.2725017"><ele>20.5</ele><time>2026-05-03T15:16:26.886Z</time></trkpt><trkpt lat="38.854755" lon="16.2723"><ele>21.0</ele><time>2026-05-03T15:16:27.886Z</time></trkpt><trkpt lat="38.8545033" lon="16.27209"><ele>21.0</ele><time>2026-05-03T15:16:28.886Z</time></trkpt><trkpt lat="38.8542517" lon="16.2718817"><ele>21.0</ele><time>2026-05-03T15:16:29.885Z</time></trkpt><trkpt lat="38.8540033" lon="16.2716683"><ele>21.0</ele><time>2026-05-03T15:16:30.885Z</time></trkpt><trkpt lat="38.8537433" lon="16.271465"><ele>21.0</ele><time>2026-05-03T15:16:31.886Z</time></trkpt><trkpt lat="38.8534867" lon="16.2712567"><ele>21.0</ele><time>2026-05-03T15:16:32.886Z</time></trkpt><trkpt lat="38.8532267" lon="16.2710467"><ele>21.0</ele><time>2026-05-03T15:16:33.886Z</time></trkpt><trkpt lat="38.8529633" lon="16.2708317"><ele>21.0</ele><time>2026-05-03T15:16:34.886Z</time></trkpt><trkpt lat="38.8527017" lon="16.2706233"><ele>21.0</ele><time>2026-05-03T15:16:35.886Z</time></trkpt><trkpt lat="38.85244" lon="16.2704167"><ele>22.0</ele><time>2026-05-03T15:16:36.886Z</time></trkpt><trkpt lat="38.852175" lon="16.2701983"><ele>23.0</ele><time>2026-05-03T15:16:37.886Z</time></trkpt><trkpt lat="38.8519133" lon="16.2699833"><ele>21.5</ele><time>2026-05-03T15:16:38.886Z</time></trkpt><trkpt lat="38.8516483" lon="16.2697717"><ele>20.0</ele><time>2026-05-03T15:16:39.886Z</time></trkpt><trkpt lat="38.8513867" lon="16.26957"><ele>20.0</ele><time>2026-05-03T15:16:40.886Z</time></trkpt><trkpt lat="38.8511283" lon="16.2693567"><ele>20.0</ele><time>2026-05-03T15:16:41.886Z</time></trkpt><trkpt lat="38.85088" lon="16.2691367"><ele>20.5</ele><time>2026-05-03T15:16:42.886Z</time></trkpt><trkpt lat="38.8506183" lon="16.2689233"><ele>21.0</ele><time>2026-05-03T15:16:43.886Z</time></trkpt><trkpt lat="38.85037" lon="16.2687067"><ele>23.0</ele><time>2026-05-03T15:16:44.886Z</time></trkpt><trkpt lat="38.8501183" lon="16.268485"><ele>25.0</ele><time>2026-05-03T15:16:45.885Z</time></trkpt><trkpt lat="38.849865" lon="16.268275"><ele>23.5</ele><time>2026-05-03T15:16:46.886Z</time></trkpt><trkpt lat="38.849615" lon="16.2680733"><ele>22.0</ele><time>2026-05-03T15:16:47.885Z</time></trkpt><trkpt lat="38.84936" lon="16.2678717"><ele>23.0</ele><time>2026-05-03T15:16:48.886Z</time></trkpt><trkpt lat="38.8491083" lon="16.2676617"><ele>24.0</ele><time>2026-05-03T15:16:49.886Z</time></trkpt><trkpt lat="38.848855" lon="16.26746"><ele>23.5</ele><time>2026-05-03T15:16:50.886Z</time></trkpt><trkpt lat="38.8486083" lon="16.2672583"><ele>23.0</ele><time>2026-05-03T15:16:51.886Z</time></trkpt><trkpt lat="38.848365" lon="16.2670533"><ele>24.0</ele><time>2026-05-03T15:16:52.886Z</time></trkpt><trkpt lat="38.8481233" lon="16.26685"><ele>25.0</ele><time>2026-05-03T15:16:53.886Z</time></trkpt><trkpt lat="38.8478817" lon="16.266655"><ele>25.0</ele><time>2026-05-03T15:16:54.886Z</time></trkpt><trkpt lat="38.8476417" lon="16.26646"><ele>25.0</ele><time>2026-05-03T15:16:55.886Z</time></trkpt><trkpt lat="38.8473983" lon="16.2662717"><ele>25.5</ele><time>2026-05-03T15:16:56.886Z</time></trkpt><trkpt lat="38.84716" lon="16.2660783"><ele>26.0</ele><time>2026-05-03T15:16:57.886Z</time></trkpt><trkpt lat="38.8469267" lon="16.2658883"><ele>26.5</ele><time>2026-05-03T15:16:58.885Z</time></trkpt><trkpt lat="38.8466867" lon="16.265705"><ele>27.0</ele><time>2026-05-03T15:16:59.885Z</time></trkpt><trkpt lat="38.8464533" lon="16.2655233"><ele>27.5</ele><time>2026-05-03T15:17:00.885Z</time></trkpt><trkpt lat="38.846215" lon="16.265345"><ele>28.0</ele><time>2026-05-03T15:17:01.886Z</time></trkpt><trkpt lat="38.84597" lon="16.2651683"><ele>27.5</ele><time>2026-05-03T15:17:02.886Z</time></trkpt><trkpt lat="38.8457117" lon="16.264995"><ele>27.0</ele><time>2026-05-03T15:17:03.885Z</time></trkpt><trkpt lat="38.8454567" lon="16.264825"><ele>27.0</ele><time>2026-05-03T15:17:04.886Z</time></trkpt><trkpt lat="38.8451917" lon="16.2646633"><ele>27.0</ele><time>2026-05-03T15:17:05.885Z</time></trkpt><trkpt lat="38.84493" lon="16.2645067"><ele>28.0</ele><time>2026-05-03T15:17:06.886Z</time></trkpt><trkpt lat="38.8446583" lon="16.2643533"><ele>29.0</ele><time>2026-05-03T15:17:07.886Z</time></trkpt><trkpt lat="38.844385" lon="16.264205"><ele>28.5</ele><time>2026-05-03T15:17:08.885Z</time></trkpt><trkpt lat="38.844115" lon="16.2640483"><ele>28.0</ele><time>2026-05-03T15:17:09.885Z</time></trkpt><trkpt lat="38.8438433" lon="16.2638967"><ele>27.5</ele><time>2026-05-03T15:17:10.886Z</time></trkpt><trkpt lat="38.84357" lon="16.26376"><ele>27.0</ele><time>2026-05-03T15:17:11.885Z</time></trkpt><trkpt lat="38.8432917" lon="16.2636183"><ele>28.0</ele><time>2026-05-03T15:17:12.886Z</time></trkpt><trkpt lat="38.8430133" lon="16.2634817"><ele>29.0</ele><time>2026-05-03T15:17:13.885Z</time></trkpt><trkpt lat="38.8427317" lon="16.2633417"><ele>29.5</ele><time>2026-05-03T15:17:14.885Z</time></trkpt><trkpt lat="38.8424533" lon="16.2632"><ele>30.0</ele><time>2026-05-03T15:17:15.885Z</time></trkpt><trkpt lat="38.8421717" lon="16.263055"><ele>30.0</ele><time>2026-05-03T15:17:16.886Z</time></trkpt><trkpt lat="38.8419" lon="16.2629067"><ele>30.0</ele><time>2026-05-03T15:17:17.886Z</time></trkpt><trkpt lat="38.84163" lon="16.2627583"><ele>31.0</ele><time>2026-05-03T15:17:18.886Z</time></trkpt><trkpt lat="38.8413533" lon="16.26261"><ele>32.0</ele><time>2026-05-03T15:17:19.886Z</time></trkpt><trkpt lat="38.8410833" lon="16.2624683"><ele>32.0</ele><time>2026-05-03T15:17:20.886Z</time></trkpt><trkpt lat="38.84082" lon="16.26232"><ele>32.0</ele><time>2026-05-03T15:17:21.886Z</time></trkpt><trkpt lat="38.84055" lon="16.2621633"><ele>31.0</ele><time>2026-05-03T15:17:22.885Z</time></trkpt><trkpt lat="38.840285" lon="16.2619983"><ele>30.0</ele><time>2026-05-03T15:17:23.885Z</time></trkpt><trkpt lat="38.8400217" lon="16.261825"><ele>33.0</ele><time>2026-05-03T15:17:24.886Z</time></trkpt><trkpt lat="38.8397533" lon="16.26165"><ele>36.0</ele><time>2026-05-03T15:17:25.886Z</time></trkpt><trkpt lat="38.8394917" lon="16.2614667"><ele>34.0</ele><time>2026-05-03T15:17:26.886Z</time></trkpt><trkpt lat="38.8392317" lon="16.2612833"><ele>32.0</ele><time>2026-05-03T15:17:27.886Z</time></trkpt><trkpt lat="38.8389717" lon="16.2610933"><ele>32.0</ele><time>2026-05-03T15:17:28.885Z</time></trkpt><trkpt lat="38.8387133" lon="16.2608967"><ele>32.0</ele><time>2026-05-03T15:17:29.885Z</time></trkpt><trkpt lat="38.8384667" lon="16.2606917"><ele>31.0</ele><time>2026-05-03T15:17:30.885Z</time></trkpt><trkpt lat="38.838215" lon="16.26049"><ele>30.0</ele><time>2026-05-03T15:17:31.886Z</time></trkpt><trkpt lat="38.837965" lon="16.260275"><ele>30.0</ele><time>2026-05-03T15:17:32.886Z</time></trkpt><trkpt lat="38.83772" lon="16.2600683"><ele>30.0</ele><time>2026-05-03T15:17:33.886Z</time></trkpt><trkpt lat="38.83748" lon="16.2598583"><ele>28.5</ele><time>2026-05-03T15:17:34.886Z</time></trkpt><trkpt lat="38.8372417" lon="16.25966"><ele>27.0</ele><time>2026-05-03T15:17:35.886Z</time></trkpt><trkpt lat="38.8369967" lon="16.2594583"><ele>28.0</ele><time>2026-05-03T15:17:36.886Z</time></trkpt><trkpt lat="38.83676" lon="16.2592667"><ele>29.0</ele><time>2026-05-03T15:17:37.886Z</time></trkpt><trkpt lat="38.8365167" lon="16.259065"><ele>28.5</ele><time>2026-05-03T15:17:38.886Z</time></trkpt><trkpt lat="38.8362717" lon="16.258865"><ele>28.0</ele><time>2026-05-03T15:17:39.885Z</time></trkpt><trkpt lat="38.8360233" lon="16.25867"><ele>28.5</ele><time>2026-05-03T15:17:40.886Z</time></trkpt><trkpt lat="38.8357733" lon="16.2584817"><ele>29.0</ele><time>2026-05-03T15:17:41.886Z</time></trkpt><trkpt lat="38.835515" lon="16.2582933"><ele>29.0</ele><time>2026-05-03T15:17:42.886Z</time></trkpt><trkpt lat="38.835255" lon="16.2581083"><ele>29.0</ele><time>2026-05-03T15:17:43.885Z</time></trkpt><trkpt lat="38.8349933" lon="16.257925"><ele>29.0</ele><time>2026-05-03T15:17:44.885Z</time></trkpt><trkpt lat="38.83473" lon="16.2577417"><ele>29.0</ele><time>2026-05-03T15:17:45.886Z</time></trkpt><trkpt lat="38.8344633" lon="16.2575583"><ele>29.0</ele><time>2026-05-03T15:17:46.885Z</time></trkpt><trkpt lat="38.8341933" lon="16.2573767"><ele>29.0</ele><time>2026-05-03T15:17:47.885Z</time></trkpt><trkpt lat="38.8339317" lon="16.2571983"><ele>28.5</ele><time>2026-05-03T15:17:48.886Z</time></trkpt><trkpt lat="38.8336667" lon="16.2570217"><ele>28.0</ele><time>2026-05-03T15:17:49.886Z</time></trkpt><trkpt lat="38.8334067" lon="16.2568483"><ele>27.0</ele><time>2026-05-03T15:17:50.886Z</time></trkpt><trkpt lat="38.8331533" lon="16.256675"><ele>26.0</ele><time>2026-05-03T15:17:51.886Z</time></trkpt><trkpt lat="38.8328967" lon="16.2565033"><ele>26.0</ele><time>2026-05-03T15:17:52.885Z</time></trkpt><trkpt lat="38.8326283" lon="16.2563283"><ele>26.0</ele><time>2026-05-03T15:17:53.885Z</time></trkpt><trkpt lat="38.8323667" lon="16.2561517"><ele>26.0</ele><time>2026-05-03T15:17:54.886Z</time></trkpt><trkpt lat="38.8321067" lon="16.2559717"><ele>26.0</ele><time>2026-05-03T15:17:55.886Z</time></trkpt><trkpt lat="38.8318383" lon="16.255795"><ele>25.5</ele><time>2026-05-03T15:17:56.886Z</time></trkpt><trkpt lat="38.831575" lon="16.255615"><ele>25.0</ele><time>2026-05-03T15:17:57.886Z</time></trkpt><trkpt lat="38.8313133" lon="16.25544"><ele>25.0</ele><time>2026-05-03T15:17:58.886Z</time></trkpt><trkpt lat="38.8310483" lon="16.2552633"><ele>25.0</ele><time>2026-05-03T15:17:59.886Z</time></trkpt><trkpt lat="38.8307883" lon="16.2550883"><ele>25.0</ele><time>2026-05-03T15:18:00.885Z</time></trkpt><trkpt lat="38.8305267" lon="16.254915"><ele>25.0</ele><time>2026-05-03T15:18:01.886Z</time></trkpt><trkpt lat="38.83027" lon="16.254735"><ele>25.0</ele><time>2026-05-03T15:18:02.886Z</time></trkpt><trkpt lat="38.8300067" lon="16.254555"><ele>25.0</ele><time>2026-05-03T15:18:03.885Z</time></trkpt><trkpt lat="38.8297417" lon="16.25437"><ele>25.0</ele><time>2026-05-03T15:18:04.885Z</time></trkpt><trkpt lat="38.829475" lon="16.2541883"><ele>25.0</ele><time>2026-05-03T15:18:05.886Z</time></trkpt><trkpt lat="38.829215" lon="16.2540017"><ele>23.5</ele><time>2026-05-03T15:18:06.886Z</time></trkpt><trkpt lat="38.82896" lon="16.2538133"><ele>22.0</ele><time>2026-05-03T15:18:07.886Z</time></trkpt><trkpt lat="38.8286983" lon="16.25363"><ele>22.5</ele><time>2026-05-03T15:18:08.885Z</time></trkpt><trkpt lat="38.8284483" lon="16.25344"><ele>23.0</ele><time>2026-05-03T15:18:09.886Z</time></trkpt><trkpt lat="38.82819" lon="16.2532533"><ele>22.0</ele><time>2026-05-03T15:18:10.885Z</time></trkpt><trkpt lat="38.82793" lon="16.2530583"><ele>21.0</ele><time>2026-05-03T15:18:11.886Z</time></trkpt><trkpt lat="38.827675" lon="16.2528617"><ele>23.0</ele><time>2026-05-03T15:18:12.886Z</time></trkpt><trkpt lat="38.8274217" lon="16.2526567"><ele>25.0</ele><time>2026-05-03T15:18:13.886Z</time></trkpt><trkpt lat="38.8271733" lon="16.2524417"><ele>23.0</ele><time>2026-05-03T15:18:14.886Z</time></trkpt><trkpt lat="38.8269233" lon="16.2522117"><ele>21.0</ele><time>2026-05-03T15:18:15.885Z</time></trkpt><trkpt lat="38.8266833" lon="16.2519867"><ele>21.0</ele><time>2026-05-03T15:18:16.886Z</time></trkpt><trkpt lat="38.826445" lon="16.25175"><ele>21.0</ele><time>2026-05-03T15:18:17.886Z</time></trkpt><trkpt lat="38.826205" lon="16.2515167"><ele>20.0</ele><time>2026-05-03T15:18:18.886Z</time></trkpt><trkpt lat="38.8259683" lon="16.25127"><ele>19.0</ele><time>2026-05-03T15:18:19.886Z</time></trkpt><trkpt lat="38.825735" lon="16.2510167"><ele>19.0</ele><time>2026-05-03T15:18:20.885Z</time></trkpt><trkpt lat="38.8255067" lon="16.25075"><ele>19.0</ele><time>2026-05-03T15:18:21.886Z</time></trkpt><trkpt lat="38.8252833" lon="16.25048"><ele>19.0</ele><time>2026-05-03T15:18:22.885Z</time></trkpt><trkpt lat="38.825065" lon="16.2502117"><ele>19.0</ele><time>2026-05-03T15:18:23.886Z</time></trkpt><trkpt lat="38.8248533" lon="16.249935"><ele>18.5</ele><time>2026-05-03T15:18:24.885Z</time></trkpt><trkpt lat="38.8246483" lon="16.2496483"><ele>18.0</ele><time>2026-05-03T15:18:25.885Z</time></trkpt><trkpt lat="38.8244517" lon="16.2493517"><ele>17.5</ele><time>2026-05-03T15:18:26.886Z</time></trkpt><trkpt lat="38.8242567" lon="16.249045"><ele>17.0</ele><time>2026-05-03T15:18:27.886Z</time></trkpt><trkpt lat="38.8240733" lon="16.248725"><ele>17.0</ele><time>2026-05-03T15:18:28.885Z</time></trkpt><trkpt lat="38.8238967" lon="16.2484017"><ele>17.0</ele><time>2026-05-03T15:18:29.886Z</time></trkpt><trkpt lat="38.82372" lon="16.24807"><ele>17.0</ele><time>2026-05-03T15:18:30.886Z</time></trkpt><trkpt lat="38.8235533" lon="16.247735"><ele>17.0</ele><time>2026-05-03T15:18:31.886Z</time></trkpt><trkpt lat="38.8233867" lon="16.247405"><ele>18.5</ele><time>2026-05-03T15:18:32.886Z</time></trkpt><trkpt lat="38.8232267" lon="16.2470617"><ele>20.0</ele><time>2026-05-03T15:18:33.885Z</time></trkpt><trkpt lat="38.82307" lon="16.2467167"><ele>20.5</ele><time>2026-05-03T15:18:34.885Z</time></trkpt><trkpt lat="38.82292" lon="16.24637"><ele>21.0</ele><time>2026-05-03T15:18:35.885Z</time></trkpt><trkpt lat="38.8227733" lon="16.24602"><ele>20.5</ele><time>2026-05-03T15:18:36.886Z</time></trkpt><trkpt lat="38.8226283" lon="16.245675"><ele>20.0</ele><time>2026-05-03T15:18:37.886Z</time></trkpt><trkpt lat="38.8224883" lon="16.2453333"><ele>20.0</ele><time>2026-05-03T15:18:38.886Z</time></trkpt><trkpt lat="38.8223433" lon="16.2449867"><ele>20.0</ele><time>2026-05-03T15:18:39.886Z</time></trkpt><trkpt lat="38.8222" lon="16.244635"><ele>20.0</ele><time>2026-05-03T15:18:40.886Z</time></trkpt><trkpt lat="38.8220667" lon="16.2442833"><ele>20.0</ele><time>2026-05-03T15:18:41.886Z</time></trkpt><trkpt lat="38.8219283" lon="16.2439367"><ele>21.0</ele><time>2026-05-03T15:18:42.886Z</time></trkpt><trkpt lat="38.8217833" lon="16.24359"><ele>22.0</ele><time>2026-05-03T15:18:43.886Z</time></trkpt><trkpt lat="38.8216383" lon="16.2432433"><ele>22.0</ele><time>2026-05-03T15:18:44.885Z</time></trkpt><trkpt lat="38.8214917" lon="16.2428917"><ele>22.0</ele><time>2026-05-03T15:18:45.885Z</time></trkpt><trkpt lat="38.8213367" lon="16.242545"><ele>21.0</ele><time>2026-05-03T15:18:46.886Z</time></trkpt><trkpt lat="38.821175" lon="16.2421983"><ele>20.0</ele><time>2026-05-03T15:18:47.886Z</time></trkpt><trkpt lat="38.8210083" lon="16.2418533"><ele>20.0</ele><time>2026-05-03T15:18:48.885Z</time></trkpt><trkpt lat="38.8208417" lon="16.2415117"><ele>20.0</ele><time>2026-05-03T15:18:49.886Z</time></trkpt><trkpt lat="38.8206733" lon="16.2411817"><ele>19.5</ele><time>2026-05-03T15:18:50.885Z</time></trkpt><trkpt lat="38.8205033" lon="16.2408633"><ele>19.0</ele><time>2026-05-03T15:18:51.886Z</time></trkpt><trkpt lat="38.8203233" lon="16.2405517"><ele>17.5</ele><time>2026-05-03T15:18:52.886Z</time></trkpt><trkpt lat="38.82013" lon="16.240255"><ele>16.0</ele><time>2026-05-03T15:18:53.886Z</time></trkpt><trkpt lat="38.819935" lon="16.2399567"><ele>15.5</ele><time>2026-05-03T15:18:54.886Z</time></trkpt><trkpt lat="38.8197333" lon="16.2396633"><ele>15.0</ele><time>2026-05-03T15:18:55.886Z</time></trkpt><trkpt lat="38.8195217" lon="16.2393733"><ele>14.5</ele><time>2026-05-03T15:18:56.886Z</time></trkpt><trkpt lat="38.8193083" lon="16.23908"><ele>14.0</ele><time>2026-05-03T15:18:57.886Z</time></trkpt><trkpt lat="38.8190867" lon="16.2387967"><ele>14.0</ele><time>2026-05-03T15:18:58.886Z</time></trkpt><trkpt lat="38.8188583" lon="16.2385283"><ele>14.0</ele><time>2026-05-03T15:18:59.886Z</time></trkpt><trkpt lat="38.818625" lon="16.2382667"><ele>15.5</ele><time>2026-05-03T15:19:00.885Z</time></trkpt><trkpt lat="38.818385" lon="16.238015"><ele>17.0</ele><time>2026-05-03T15:19:01.886Z</time></trkpt><trkpt lat="38.8181383" lon="16.237775"><ele>17.0</ele><time>2026-05-03T15:19:02.886Z</time></trkpt><trkpt lat="38.817895" lon="16.2375417"><ele>17.0</ele><time>2026-05-03T15:19:03.886Z</time></trkpt><trkpt lat="38.8176367" lon="16.2373133"><ele>17.5</ele><time>2026-05-03T15:19:04.885Z</time></trkpt><trkpt lat="38.8173767" lon="16.2370967"><ele>18.0</ele><time>2026-05-03T15:19:05.886Z</time></trkpt><trkpt lat="38.81712" lon="16.2368867"><ele>18.0</ele><time>2026-05-03T15:19:06.886Z</time></trkpt><trkpt lat="38.8168517" lon="16.2366917"><ele>18.0</ele><time>2026-05-03T15:19:07.886Z</time></trkpt><trkpt lat="38.8165917" lon="16.2365017"><ele>16.0</ele><time>2026-05-03T15:19:08.886Z</time></trkpt><trkpt lat="38.8163217" lon="16.2363217"><ele>14.0</ele><time>2026-05-03T15:19:09.885Z</time></trkpt><trkpt lat="38.8160517" lon="16.2361533"><ele>16.5</ele><time>2026-05-03T15:19:10.885Z</time></trkpt><trkpt lat="38.815785" lon="16.236"><ele>19.0</ele><time>2026-05-03T15:19:11.886Z</time></trkpt><trkpt lat="38.8155117" lon="16.2358467"><ele>19.0</ele><time>2026-05-03T15:19:12.886Z</time></trkpt><trkpt lat="38.8152367" lon="16.2356967"><ele>19.0</ele><time>2026-05-03T15:19:13.886Z</time></trkpt><trkpt lat="38.81496" lon="16.2355533"><ele>16.5</ele><time>2026-05-03T15:19:14.886Z</time></trkpt><trkpt lat="38.8146817" lon="16.235415"><ele>14.0</ele><time>2026-05-03T15:19:15.885Z</time></trkpt><trkpt lat="38.814395" lon="16.2352767"><ele>16.0</ele><time>2026-05-03T15:19:16.886Z</time></trkpt><trkpt lat="38.8141067" lon="16.23514"><ele>18.0</ele><time>2026-05-03T15:19:17.885Z</time></trkpt><trkpt lat="38.8138267" lon="16.2350067"><ele>18.0</ele><time>2026-05-03T15:19:18.886Z</time></trkpt><trkpt lat="38.8135417" lon="16.2348767"><ele>18.0</ele><time>2026-05-03T15:19:19.886Z</time></trkpt><trkpt lat="38.81326" lon="16.2347433"><ele>14.5</ele><time>2026-05-03T15:19:20.885Z</time></trkpt><trkpt lat="38.8129783" lon="16.234615"><ele>11.0</ele><time>2026-05-03T15:19:21.885Z</time></trkpt><trkpt lat="38.8126983" lon="16.2344883"><ele>12.0</ele><time>2026-05-03T15:19:22.886Z</time></trkpt><trkpt lat="38.812425" lon="16.2343617"><ele>13.0</ele><time>2026-05-03T15:19:23.885Z</time></trkpt><trkpt lat="38.8121517" lon="16.2342417"><ele>13.0</ele><time>2026-05-03T15:19:24.886Z</time></trkpt><trkpt lat="38.81188" lon="16.2341167"><ele>13.0</ele><time>2026-05-03T15:19:25.886Z</time></trkpt><trkpt lat="38.8116067" lon="16.2339967"><ele>12.5</ele><time>2026-05-03T15:19:26.885Z</time></trkpt><trkpt lat="38.8113317" lon="16.23387"><ele>12.0</ele><time>2026-05-03T15:19:27.886Z</time></trkpt><trkpt lat="38.8110567" lon="16.2337483"><ele>14.0</ele><time>2026-05-03T15:19:28.885Z</time></trkpt><trkpt lat="38.8107733" lon="16.2336233"><ele>16.0</ele><time>2026-05-03T15:19:29.886Z</time></trkpt><trkpt lat="38.810495" lon="16.233495"><ele>16.0</ele><time>2026-05-03T15:19:30.886Z</time></trkpt><trkpt lat="38.8102167" lon="16.233365"><ele>16.0</ele><time>2026-05-03T15:19:31.886Z</time></trkpt><trkpt lat="38.80994" lon="16.2332433"><ele>14.5</ele><time>2026-05-03T15:19:32.886Z</time></trkpt><trkpt lat="38.8096717" lon="16.2331117"><ele>13.0</ele><time>2026-05-03T15:19:33.886Z</time></trkpt><trkpt lat="38.8093967" lon="16.2329883"><ele>13.0</ele><time>2026-05-03T15:19:34.886Z</time></trkpt><trkpt lat="38.8091217" lon="16.232865"><ele>13.0</ele><time>2026-05-03T15:19:35.886Z</time></trkpt><trkpt lat="38.8088467" lon="16.2327367"><ele>13.0</ele><time>2026-05-03T15:19:36.886Z</time></trkpt><trkpt lat="38.80857" lon="16.2326167"><ele>13.0</ele><time>2026-05-03T15:19:37.886Z</time></trkpt><trkpt lat="38.8082917" lon="16.23249"><ele>12.0</ele><time>2026-05-03T15:19:38.886Z</time></trkpt><trkpt lat="38.8080183" lon="16.2323683"><ele>11.0</ele><time>2026-05-03T15:19:39.886Z</time></trkpt><trkpt lat="38.8077417" lon="16.232245"><ele>12.5</ele><time>2026-05-03T15:19:40.886Z</time></trkpt><trkpt lat="38.8074667" lon="16.2321117"><ele>14.0</ele><time>2026-05-03T15:19:41.886Z</time></trkpt><trkpt lat="38.8071917" lon="16.2319867"><ele>14.0</ele><time>2026-05-03T15:19:42.886Z</time></trkpt><trkpt lat="38.8069183" lon="16.23186"><ele>14.0</ele><time>2026-05-03T15:19:43.886Z</time></trkpt><trkpt lat="38.8066383" lon="16.23173"><ele>12.5</ele><time>2026-05-03T15:19:44.885Z</time></trkpt><trkpt lat="38.8063567" lon="16.2316"><ele>11.0</ele><time>2026-05-03T15:19:45.886Z</time></trkpt><trkpt lat="38.80607" lon="16.2314667"><ele>13.5</ele><time>2026-05-03T15:19:46.886Z</time></trkpt><trkpt lat="38.805785" lon="16.231345"><ele>16.0</ele><time>2026-05-03T15:19:47.886Z</time></trkpt><trkpt lat="38.8054983" lon="16.2312133"><ele>16.0</ele><time>2026-05-03T15:19:48.886Z</time></trkpt><trkpt lat="38.8052083" lon="16.2310867"><ele>16.0</ele><time>2026-05-03T15:19:49.886Z</time></trkpt><trkpt lat="38.804925" lon="16.23096"><ele>17.0</ele><time>2026-05-03T15:19:50.886Z</time></trkpt><trkpt lat="38.8046467" lon="16.230835"><ele>18.0</ele><time>2026-05-03T15:19:51.885Z</time></trkpt><trkpt lat="38.804365" lon="16.2307083"><ele>16.0</ele><time>2026-05-03T15:19:52.885Z</time></trkpt><trkpt lat="38.804085" lon="16.2305783"><ele>14.0</ele><time>2026-05-03T15:19:53.886Z</time></trkpt><trkpt lat="38.8038" lon="16.23045"><ele>14.0</ele><time>2026-05-03T15:19:54.886Z</time></trkpt><trkpt lat="38.803515" lon="16.23032"><ele>14.0</ele><time>2026-05-03T15:19:55.886Z</time></trkpt><trkpt lat="38.80323" lon="16.2301883"><ele>15.0</ele><time>2026-05-03T15:19:56.885Z</time></trkpt><trkpt lat="38.8029433" lon="16.2300567"><ele>16.0</ele><time>2026-05-03T15:19:57.885Z</time></trkpt><trkpt lat="38.8026617" lon="16.2299217"><ele>15.0</ele><time>2026-05-03T15:19:58.886Z</time></trkpt><trkpt lat="38.8023767" lon="16.229785"><ele>14.0</ele><time>2026-05-03T15:19:59.886Z</time></trkpt><trkpt lat="38.8020883" lon="16.2296567"><ele>15.5</ele><time>2026-05-03T15:20:00.886Z</time></trkpt><trkpt lat="38.8018033" lon="16.2295233"><ele>17.0</ele><time>2026-05-03T15:20:01.886Z</time></trkpt><trkpt lat="38.801525" lon="16.229385"><ele>17.0</ele><time>2026-05-03T15:20:02.886Z</time></trkpt><trkpt lat="38.8012467" lon="16.2292467"><ele>17.0</ele><time>2026-05-03T15:20:03.886Z</time></trkpt><trkpt lat="38.8009733" lon="16.2290917"><ele>14.0</ele><time>2026-05-03T15:20:04.886Z</time></trkpt><trkpt lat="38.8006983" lon="16.2289333"><ele>11.0</ele><time>2026-05-03T15:20:05.886Z</time></trkpt><trkpt lat="38.8004283" lon="16.2287733"><ele>14.5</ele><time>2026-05-03T15:20:06.886Z</time></trkpt><trkpt lat="38.8001567" lon="16.2286217"><ele>18.0</ele><time>2026-05-03T15:20:07.886Z</time></trkpt><trkpt lat="38.79989" lon="16.228445"><ele>18.0</ele><time>2026-05-03T15:20:08.885Z</time></trkpt><trkpt lat="38.7996283" lon="16.2282317"><ele>18.0</ele><time>2026-05-03T15:20:09.885Z</time></trkpt><trkpt lat="38.7993883" lon="16.228"><ele>15.5</ele><time>2026-05-03T15:20:10.885Z</time></trkpt><trkpt lat="38.7991467" lon="16.2277817"><ele>13.0</ele><time>2026-05-03T15:20:11.886Z</time></trkpt><trkpt lat="38.7989083" lon="16.2275617"><ele>13.0</ele><time>2026-05-03T15:20:12.885Z</time></trkpt><trkpt lat="38.798665" lon="16.227345"><ele>13.0</ele><time>2026-05-03T15:20:13.886Z</time></trkpt><trkpt lat="38.7984183" lon="16.227125"><ele>13.0</ele><time>2026-05-03T15:20:14.885Z</time></trkpt><trkpt lat="38.7981733" lon="16.226895"><ele>13.0</ele><time>2026-05-03T15:20:15.885Z</time></trkpt><trkpt lat="38.7979283" lon="16.2266667"><ele>13.0</ele><time>2026-05-03T15:20:16.886Z</time></trkpt><trkpt lat="38.797685" lon="16.226445"><ele>13.0</ele><time>2026-05-03T15:20:17.886Z</time></trkpt><trkpt lat="38.797435" lon="16.2262233"><ele>13.0</ele><time>2026-05-03T15:20:18.885Z</time></trkpt><trkpt lat="38.79718" lon="16.2260083"><ele>13.0</ele><time>2026-05-03T15:20:19.886Z</time></trkpt><trkpt lat="38.79693" lon="16.2258"><ele>12.5</ele><time>2026-05-03T15:20:20.886Z</time></trkpt><trkpt lat="38.79668" lon="16.2256033"><ele>12.0</ele><time>2026-05-03T15:20:21.885Z</time></trkpt><trkpt lat="38.796415" lon="16.22543"><ele>12.0</ele><time>2026-05-03T15:20:22.886Z</time></trkpt><trkpt lat="38.7961533" lon="16.2252617"><ele>12.0</ele><time>2026-05-03T15:20:23.886Z</time></trkpt><trkpt lat="38.795895" lon="16.2250983"><ele>12.5</ele><time>2026-05-03T15:20:24.886Z</time></trkpt><trkpt lat="38.7956267" lon="16.2249467"><ele>13.0</ele><time>2026-05-03T15:20:25.885Z</time></trkpt><trkpt lat="38.795345" lon="16.2248083"><ele>13.0</ele><time>2026-05-03T15:20:26.886Z</time></trkpt><trkpt lat="38.7950533" lon="16.2246767"><ele>13.0</ele><time>2026-05-03T15:20:27.885Z</time></trkpt><trkpt lat="38.7947617" lon="16.22456"><ele>13.0</ele><time>2026-05-03T15:20:28.886Z</time></trkpt><trkpt lat="38.7944733" lon="16.22445"><ele>13.0</ele><time>2026-05-03T15:20:29.886Z</time></trkpt><trkpt lat="38.7941717" lon="16.2243517"><ele>13.0</ele><time>2026-05-03T15:20:30.886Z</time></trkpt><trkpt lat="38.7938733" lon="16.2242583"><ele>13.0</ele><time>2026-05-03T15:20:31.886Z</time></trkpt><trkpt lat="38.7935667" lon="16.224175"><ele>13.5</ele><time>2026-05-03T15:20:32.885Z</time></trkpt><trkpt lat="38.793265" lon="16.2240917"><ele>14.0</ele><time>2026-05-03T15:20:33.885Z</time></trkpt><trkpt lat="38.792965" lon="16.2240117"><ele>12.0</ele><time>2026-05-03T15:20:34.886Z</time></trkpt><trkpt lat="38.7926633" lon="16.2239283"><ele>10.0</ele><time>2026-05-03T15:20:35.885Z</time></trkpt><trkpt lat="38.7923667" lon="16.2238417"><ele>10.0</ele><time>2026-05-03T15:20:36.886Z</time></trkpt><trkpt lat="38.7920667" lon="16.2237533"><ele>10.0</ele><time>2026-05-03T15:20:37.886Z</time></trkpt><trkpt lat="38.7917683" lon="16.22366"><ele>10.5</ele><time>2026-05-03T15:20:38.886Z</time></trkpt><trkpt lat="38.791475" lon="16.2235383"><ele>11.0</ele><time>2026-05-03T15:20:39.885Z</time></trkpt><trkpt lat="38.7911783" lon="16.22341"><ele>10.0</ele><time>2026-05-03T15:20:40.886Z</time></trkpt><trkpt lat="38.7908883" lon="16.2232767"><ele>9.0</ele><time>2026-05-03T15:20:41.886Z</time></trkpt><trkpt lat="38.7906033" lon="16.22312"><ele>9.0</ele><time>2026-05-03T15:20:42.885Z</time></trkpt><trkpt lat="38.7903217" lon="16.2229517"><ele>9.0</ele><time>2026-05-03T15:20:43.886Z</time></trkpt><trkpt lat="38.790045" lon="16.22277"><ele>10.0</ele><time>2026-05-03T15:20:44.886Z</time></trkpt><trkpt lat="38.7897767" lon="16.2225783"><ele>11.0</ele><time>2026-05-03T15:20:45.886Z</time></trkpt><trkpt lat="38.7895117" lon="16.2223733"><ele>11.0</ele><time>2026-05-03T15:20:46.886Z</time></trkpt><trkpt lat="38.7892483" lon="16.2221583"><ele>11.0</ele><time>2026-05-03T15:20:47.886Z</time></trkpt><trkpt lat="38.78899" lon="16.2219433"><ele>11.0</ele><time>2026-05-03T15:20:48.886Z</time></trkpt><trkpt lat="38.7887317" lon="16.22173"><ele>11.0</ele><time>2026-05-03T15:20:49.886Z</time></trkpt><trkpt lat="38.7884683" lon="16.2215033"><ele>9.5</ele><time>2026-05-03T15:20:50.886Z</time></trkpt><trkpt lat="38.78821" lon="16.2212817"><ele>8.0</ele><time>2026-05-03T15:20:51.886Z</time></trkpt><trkpt lat="38.7879517" lon="16.2210583"><ele>8.0</ele><time>2026-05-03T15:20:52.886Z</time></trkpt><trkpt lat="38.787695" lon="16.2208383"><ele>8.0</ele><time>2026-05-03T15:20:53.886Z</time></trkpt><trkpt lat="38.7874433" lon="16.2206183"><ele>8.0</ele><time>2026-05-03T15:20:54.886Z</time></trkpt><trkpt lat="38.78719" lon="16.2203933"><ele>8.0</ele><time>2026-05-03T15:20:55.885Z</time></trkpt><trkpt lat="38.786935" lon="16.220185"><ele>8.0</ele><time>2026-05-03T15:20:56.886Z</time></trkpt><trkpt lat="38.7866717" lon="16.219975"><ele>8.0</ele><time>2026-05-03T15:20:57.886Z</time></trkpt><trkpt lat="38.786415" lon="16.21978"><ele>8.0</ele><time>2026-05-03T15:20:58.886Z</time></trkpt><trkpt lat="38.786155" lon="16.21959"><ele>8.0</ele><time>2026-05-03T15:20:59.886Z</time></trkpt><trkpt lat="38.78589" lon="16.219405"><ele>9.5</ele><time>2026-05-03T15:21:00.886Z</time></trkpt><trkpt lat="38.7856183" lon="16.21924"><ele>11.0</ele><time>2026-05-03T15:21:01.886Z</time></trkpt><trkpt lat="38.785335" lon="16.2190833"><ele>8.0</ele><time>2026-05-03T15:21:02.886Z</time></trkpt><trkpt lat="38.785045" lon="16.2189433"><ele>5.0</ele><time>2026-05-03T15:21:03.886Z</time></trkpt><trkpt lat="38.7847517" lon="16.2187983"><ele>5.0</ele><time>2026-05-03T15:21:04.886Z</time></trkpt><trkpt lat="38.7844517" lon="16.2186583"><ele>5.0</ele><time>2026-05-03T15:21:05.886Z</time></trkpt><trkpt lat="38.7841567" lon="16.2185217"><ele>6.0</ele><time>2026-05-03T15:21:06.886Z</time></trkpt><trkpt lat="38.78386" lon="16.218395"><ele>7.0</ele><time>2026-05-03T15:21:07.886Z</time></trkpt><trkpt lat="38.7835667" lon="16.21828"><ele>7.5</ele><time>2026-05-03T15:21:08.886Z</time></trkpt><trkpt lat="38.7832717" lon="16.2181733"><ele>8.0</ele><time>2026-05-03T15:21:09.886Z</time></trkpt><trkpt lat="38.7829817" lon="16.21806"><ele>8.0</ele><time>2026-05-03T15:21:10.886Z</time></trkpt><trkpt lat="38.7826883" lon="16.2179467"><ele>8.0</ele><time>2026-05-03T15:21:11.886Z</time></trkpt><trkpt lat="38.782395" lon="16.2178283"><ele>8.0</ele><time>2026-05-03T15:21:12.886Z</time></trkpt><trkpt lat="38.782095" lon="16.21772"><ele>8.0</ele><time>2026-05-03T15:21:13.886Z</time></trkpt><trkpt lat="38.7817967" lon="16.2176033"><ele>7.5</ele><time>2026-05-03T15:21:14.886Z</time></trkpt><trkpt lat="38.7814917" lon="16.2174817"><ele>7.0</ele><time>2026-05-03T15:21:15.886Z</time></trkpt><trkpt lat="38.7811867" lon="16.2173633"><ele>6.5</ele><time>2026-05-03T15:21:16.886Z</time></trkpt><trkpt lat="38.7808833" lon="16.217245"><ele>6.0</ele><time>2026-05-03T15:21:17.886Z</time></trkpt><trkpt lat="38.78058" lon="16.21713"><ele>6.0</ele><time>2026-05-03T15:21:18.886Z</time></trkpt><trkpt lat="38.78028" lon="16.2170133"><ele>6.0</ele><time>2026-05-03T15:21:19.886Z</time></trkpt><trkpt lat="38.7799833" lon="16.21689"><ele>6.0</ele><time>2026-05-03T15:21:20.885Z</time></trkpt><trkpt lat="38.77969" lon="16.2167767"><ele>6.0</ele><time>2026-05-03T15:21:21.885Z</time></trkpt><trkpt lat="38.7793983" lon="16.2166717"><ele>6.5</ele><time>2026-05-03T15:21:22.885Z</time></trkpt><trkpt lat="38.77911" lon="16.2165567"><ele>7.0</ele><time>2026-05-03T15:21:23.886Z</time></trkpt><trkpt lat="38.77882" lon="16.216445"><ele>7.0</ele><time>2026-05-03T15:21:24.886Z</time></trkpt><trkpt lat="38.7785317" lon="16.2163283"><ele>7.0</ele><time>2026-05-03T15:21:25.886Z</time></trkpt><trkpt lat="38.7782483" lon="16.216205"><ele>7.0</ele><time>2026-05-03T15:21:26.885Z</time></trkpt><trkpt lat="38.7779633" lon="16.2160867"><ele>7.0</ele><time>2026-05-03T15:21:27.886Z</time></trkpt><trkpt lat="38.7776683" lon="16.2159617"><ele>6.5</ele><time>2026-05-03T15:21:28.885Z</time></trkpt><trkpt lat="38.7773767" lon="16.215845"><ele>6.0</ele><time>2026-05-03T15:21:29.886Z</time></trkpt><trkpt lat="38.7770833" lon="16.21573"><ele>5.5</ele><time>2026-05-03T15:21:30.886Z</time></trkpt><trkpt lat="38.7767967" lon="16.2156217"><ele>5.0</ele><time>2026-05-03T15:21:31.886Z</time></trkpt><trkpt lat="38.7765083" lon="16.21551"><ele>5.0</ele><time>2026-05-03T15:21:32.886Z</time></trkpt><trkpt lat="38.7762183" lon="16.2154"><ele>5.0</ele><time>2026-05-03T15:21:33.885Z</time></trkpt><trkpt lat="38.7759333" lon="16.2152883"><ele>5.0</ele><time>2026-05-03T15:21:34.886Z</time></trkpt><trkpt lat="38.7756483" lon="16.2151717"><ele>5.0</ele><time>2026-05-03T15:21:35.886Z</time></trkpt><trkpt lat="38.7753633" lon="16.2150583"><ele>5.0</ele><time>2026-05-03T15:21:36.886Z</time></trkpt><trkpt lat="38.7750767" lon="16.2149467"><ele>5.0</ele><time>2026-05-03T15:21:37.886Z</time></trkpt><trkpt lat="38.7747867" lon="16.2148333"><ele>5.0</ele><time>2026-05-03T15:21:38.886Z</time></trkpt><trkpt lat="38.774495" lon="16.2147183"><ele>5.0</ele><time>2026-05-03T15:21:39.885Z</time></trkpt><trkpt lat="38.7742083" lon="16.2145983"><ele>6.5</ele><time>2026-05-03T15:21:40.886Z</time></trkpt><trkpt lat="38.7739183" lon="16.214485"><ele>8.0</ele><time>2026-05-03T15:21:41.886Z</time></trkpt><trkpt lat="38.7736317" lon="16.2143767"><ele>9.0</ele><time>2026-05-03T15:21:42.885Z</time></trkpt><trkpt lat="38.7733483" lon="16.2142533"><ele>10.0</ele><time>2026-05-03T15:21:43.885Z</time></trkpt><trkpt lat="38.77307" lon="16.214125"><ele>9.5</ele><time>2026-05-03T15:21:44.886Z</time></trkpt><trkpt lat="38.7727967" lon="16.2139733"><ele>9.0</ele><time>2026-05-03T15:21:45.886Z</time></trkpt><trkpt lat="38.7725417" lon="16.2137933"><ele>8.5</ele><time>2026-05-03T15:21:46.885Z</time></trkpt><trkpt lat="38.7722983" lon="16.2135883"><ele>8.0</ele><time>2026-05-03T15:21:47.885Z</time></trkpt><trkpt lat="38.7720633" lon="16.213365"><ele>8.0</ele><time>2026-05-03T15:21:48.886Z</time></trkpt><trkpt lat="38.7718417" lon="16.2131233"><ele>8.0</ele><time>2026-05-03T15:21:49.885Z</time></trkpt><trkpt lat="38.77164" lon="16.212855"><ele>8.0</ele><time>2026-05-03T15:21:50.886Z</time></trkpt><trkpt lat="38.7714583" lon="16.2125767"><ele>8.0</ele><time>2026-05-03T15:21:51.885Z</time></trkpt><trkpt lat="38.7712883" lon="16.2122917"><ele>8.0</ele><time>2026-05-03T15:21:52.886Z</time></trkpt><trkpt lat="38.77113" lon="16.2119917"><ele>8.0</ele><time>2026-05-03T15:21:53.885Z</time></trkpt><trkpt lat="38.7709767" lon="16.2116917"><ele>8.5</ele><time>2026-05-03T15:21:54.886Z</time></trkpt><trkpt lat="38.7708167" lon="16.2113817"><ele>9.0</ele><time>2026-05-03T15:21:55.886Z</time></trkpt><trkpt lat="38.7706517" lon="16.2110817"><ele>9.0</ele><time>2026-05-03T15:21:56.885Z</time></trkpt><trkpt lat="38.7704933" lon="16.2107817"><ele>9.0</ele><time>2026-05-03T15:21:57.886Z</time></trkpt><trkpt lat="38.7703383" lon="16.2104817"><ele>10.5</ele><time>2026-05-03T15:21:58.886Z</time></trkpt><trkpt lat="38.7701783" lon="16.2101767"><ele>12.0</ele><time>2026-05-03T15:21:59.886Z</time></trkpt><trkpt lat="38.770015" lon="16.2098733"><ele>11.5</ele><time>2026-05-03T15:22:00.885Z</time></trkpt><trkpt lat="38.7698483" lon="16.2095783"><ele>11.0</ele><time>2026-05-03T15:22:01.886Z</time></trkpt><trkpt lat="38.7696783" lon="16.20928"><ele>11.0</ele><time>2026-05-03T15:22:02.886Z</time></trkpt><trkpt lat="38.7694983" lon="16.2089967"><ele>11.0</ele><time>2026-05-03T15:22:03.886Z</time></trkpt><trkpt lat="38.7693017" lon="16.208725"><ele>14.0</ele><time>2026-05-03T15:22:04.886Z</time></trkpt><trkpt lat="38.7691033" lon="16.2084683"><ele>17.0</ele><time>2026-05-03T15:22:05.885Z</time></trkpt><trkpt lat="38.7689017" lon="16.20821"><ele>20.0</ele><time>2026-05-03T15:22:06.886Z</time></trkpt><trkpt lat="38.76871" lon="16.2079533"><ele>23.0</ele><time>2026-05-03T15:22:07.886Z</time></trkpt><trkpt lat="38.7685117" lon="16.20771"><ele>23.0</ele><time>2026-05-03T15:22:08.885Z</time></trkpt><trkpt lat="38.76831" lon="16.2074683"><ele>23.0</ele><time>2026-05-03T15:22:09.886Z</time></trkpt><trkpt lat="38.7681" lon="16.20726"><ele>26.5</ele><time>2026-05-03T15:22:10.885Z</time></trkpt><trkpt lat="38.7678933" lon="16.2070683"><ele>30.0</ele><time>2026-05-03T15:22:11.886Z</time></trkpt><trkpt lat="38.7676817" lon="16.20689"><ele>30.0</ele><time>2026-05-03T15:22:12.886Z</time></trkpt><trkpt lat="38.7674717" lon="16.20673"><ele>30.0</ele><time>2026-05-03T15:22:13.886Z</time></trkpt><trkpt lat="38.76727" lon="16.2065717"><ele>19.0</ele><time>2026-05-03T15:22:14.885Z</time></trkpt><trkpt lat="38.76707" lon="16.2064183"><ele>8.0</ele><time>2026-05-03T15:22:15.886Z</time></trkpt><trkpt lat="38.76687" lon="16.20626"><ele>17.5</ele><time>2026-05-03T15:22:16.885Z</time></trkpt><trkpt lat="38.7666667" lon="16.2060917"><ele>27.0</ele><time>2026-05-03T15:22:17.886Z</time></trkpt><trkpt lat="38.766455" lon="16.2059233"><ele>27.0</ele><time>2026-05-03T15:22:18.886Z</time></trkpt><trkpt lat="38.7662267" lon="16.205745"><ele>27.0</ele><time>2026-05-03T15:22:19.886Z</time></trkpt><trkpt lat="38.7659917" lon="16.2055767"><ele>26.5</ele><time>2026-05-03T15:22:20.885Z</time></trkpt><trkpt lat="38.7657517" lon="16.2054133"><ele>26.0</ele><time>2026-05-03T15:22:21.886Z</time></trkpt><trkpt lat="38.7655117" lon="16.2052617"><ele>26.0</ele><time>2026-05-03T15:22:22.885Z</time></trkpt><trkpt lat="38.7652617" lon="16.2051167"><ele>26.0</ele><time>2026-05-03T15:22:23.886Z</time></trkpt><trkpt lat="38.765005" lon="16.20497"><ele>22.5</ele><time>2026-05-03T15:22:24.885Z</time></trkpt><trkpt lat="38.764745" lon="16.204825"><ele>19.0</ele><time>2026-05-03T15:22:25.886Z</time></trkpt><trkpt lat="38.7644833" lon="16.20469"><ele>29.5</ele><time>2026-05-03T15:22:26.886Z</time></trkpt><trkpt lat="38.76422" lon="16.2045517"><ele>40.0</ele><time>2026-05-03T15:22:27.885Z</time></trkpt><trkpt lat="38.76396" lon="16.2043967"><ele>40.0</ele><time>2026-05-03T15:22:28.886Z</time></trkpt><trkpt lat="38.7637033" lon="16.204225"><ele>40.0</ele><time>2026-05-03T15:22:29.886Z</time></trkpt><trkpt lat="38.7634667" lon="16.2040267"><ele>39.0</ele><time>2026-05-03T15:22:30.886Z</time></trkpt><trkpt lat="38.763235" lon="16.203815"><ele>38.0</ele><time>2026-05-03T15:22:31.886Z</time></trkpt><trkpt lat="38.76301" lon="16.20359"><ele>38.0</ele><time>2026-05-03T15:22:32.885Z</time></trkpt><trkpt lat="38.7627817" lon="16.2033733"><ele>38.0</ele><time>2026-05-03T15:22:33.886Z</time></trkpt><trkpt lat="38.76255" lon="16.203165"><ele>34.5</ele><time>2026-05-03T15:22:34.886Z</time></trkpt><trkpt lat="38.7623067" lon="16.2029917"><ele>31.0</ele><time>2026-05-03T15:22:35.886Z</time></trkpt><trkpt lat="38.7620517" lon="16.2028467"><ele>42.5</ele><time>2026-05-03T15:22:36.886Z</time></trkpt><trkpt lat="38.7617867" lon="16.2027283"><ele>54.0</ele><time>2026-05-03T15:22:37.886Z</time></trkpt><trkpt lat="38.7615083" lon="16.2026267"><ele>54.0</ele><time>2026-05-03T15:22:38.886Z</time></trkpt><trkpt lat="38.7612267" lon="16.2025317"><ele>54.0</ele><time>2026-05-03T15:22:39.886Z</time></trkpt><trkpt lat="38.76095" lon="16.2024417"><ele>47.0</ele><time>2026-05-03T15:22:40.886Z</time></trkpt><trkpt lat="38.7606767" lon="16.20235"><ele>40.0</ele><time>2026-05-03T15:22:41.886Z</time></trkpt><trkpt lat="38.7604117" lon="16.20226"><ele>44.0</ele><time>2026-05-03T15:22:42.886Z</time></trkpt><trkpt lat="38.7601383" lon="16.2021617"><ele>48.0</ele><time>2026-05-03T15:22:43.886Z</time></trkpt><trkpt lat="38.7598733" lon="16.2020633"><ele>48.0</ele><time>2026-05-03T15:22:44.886Z</time></trkpt><trkpt lat="38.7596117" lon="16.20195"><ele>48.0</ele><time>2026-05-03T15:22:45.886Z</time></trkpt><trkpt lat="38.7593467" lon="16.201825"><ele>59.5</ele><time>2026-05-03T15:22:46.886Z</time></trkpt><trkpt lat="38.7590983" lon="16.20168"><ele>71.0</ele><time>2026-05-03T15:22:47.886Z</time></trkpt><trkpt lat="38.75884" lon="16.2015567"><ele>70.0</ele><time>2026-05-03T15:22:48.886Z</time></trkpt><trkpt lat="38.7585867" lon="16.2014117"><ele>69.0</ele><time>2026-05-03T15:22:49.886Z</time></trkpt><trkpt lat="38.7583483" lon="16.2012367"><ele>69.0</ele><time>2026-05-03T15:22:50.886Z</time></trkpt><trkpt lat="38.75811" lon="16.2010317"><ele>69.0</ele><time>2026-05-03T15:22:51.886Z</time></trkpt><trkpt lat="38.7578717" lon="16.2008367"><ele>69.0</ele><time>2026-05-03T15:22:52.886Z</time></trkpt><trkpt lat="38.75764" lon="16.200645"><ele>69.0</ele><time>2026-05-03T15:22:53.886Z</time></trkpt><trkpt lat="38.7574117" lon="16.20045"><ele>69.0</ele><time>2026-05-03T15:22:54.885Z</time></trkpt><trkpt lat="38.757185" lon="16.2002633"><ele>69.0</ele><time>2026-05-03T15:22:55.886Z</time></trkpt><trkpt lat="38.7569483" lon="16.2000667"><ele>69.0</ele><time>2026-05-03T15:22:56.885Z</time></trkpt><trkpt lat="38.7567167" lon="16.1998833"><ele>69.0</ele><time>2026-05-03T15:22:57.886Z</time></trkpt><trkpt lat="38.7564783" lon="16.1997217"><ele>69.0</ele><time>2026-05-03T15:22:58.886Z</time></trkpt><trkpt lat="38.75624" lon="16.1995617"><ele>69.0</ele><time>2026-05-03T15:22:59.886Z</time></trkpt><trkpt lat="38.7559967" lon="16.199395"><ele>77.5</ele><time>2026-05-03T15:23:00.886Z</time></trkpt><trkpt lat="38.755765" lon="16.1992233"><ele>86.0</ele><time>2026-05-03T15:23:01.885Z</time></trkpt><trkpt lat="38.7555333" lon="16.1990467"><ele>86.5</ele><time>2026-05-03T15:23:02.885Z</time></trkpt><trkpt lat="38.7553167" lon="16.1988517"><ele>87.0</ele><time>2026-05-03T15:23:03.886Z</time></trkpt><trkpt lat="38.7551067" lon="16.19862"><ele>87.0</ele><time>2026-05-03T15:23:04.886Z</time></trkpt><trkpt lat="38.7549083" lon="16.198375"><ele>87.0</ele><time>2026-05-03T15:23:05.886Z</time></trkpt><trkpt lat="38.7547233" lon="16.198115"><ele>81.5</ele><time>2026-05-03T15:23:06.885Z</time></trkpt><trkpt lat="38.7545517" lon="16.1978467"><ele>76.0</ele><time>2026-05-03T15:23:07.886Z</time></trkpt><trkpt lat="38.7544017" lon="16.19756"><ele>87.5</ele><time>2026-05-03T15:23:08.886Z</time></trkpt><trkpt lat="38.7542783" lon="16.1972683"><ele>99.0</ele><time>2026-05-03T15:23:09.886Z</time></trkpt><trkpt lat="38.7541633" lon="16.1969667"><ele>99.0</ele><time>2026-05-03T15:23:10.886Z</time></trkpt><trkpt lat="38.7540533" lon="16.1966817"><ele>99.0</ele><time>2026-05-03T15:23:11.886Z</time></trkpt><trkpt lat="38.7539533" lon="16.1964"><ele>92.5</ele><time>2026-05-03T15:23:12.885Z</time></trkpt><trkpt lat="38.7538467" lon="16.196135"><ele>86.0</ele><time>2026-05-03T15:23:13.886Z</time></trkpt><trkpt lat="38.75374" lon="16.1958733"><ele>95.5</ele><time>2026-05-03T15:23:14.886Z</time></trkpt><trkpt lat="38.753635" lon="16.1956017"><ele>105.0</ele><time>2026-05-03T15:23:15.886Z</time></trkpt><trkpt lat="38.7535233" lon="16.1953383"><ele>105.0</ele><time>2026-05-03T15:23:16.886Z</time></trkpt><trkpt lat="38.7534033" lon="16.1950583"><ele>105.0</ele><time>2026-05-03T15:23:17.885Z</time></trkpt><trkpt lat="38.75328" lon="16.1947817"><ele>99.5</ele><time>2026-05-03T15:23:18.886Z</time></trkpt><trkpt lat="38.7531467" lon="16.194505"><ele>94.0</ele><time>2026-05-03T15:23:19.886Z</time></trkpt><trkpt lat="38.7529983" lon="16.1942583"><ele>94.0</ele><time>2026-05-03T15:23:20.885Z</time></trkpt><trkpt lat="38.75285" lon="16.1940483"><ele>94.0</ele><time>2026-05-03T15:23:21.886Z</time></trkpt><trkpt lat="38.7527017" lon="16.1938683"><ele>94.0</ele><time>2026-05-03T15:23:22.886Z</time></trkpt><trkpt lat="38.752555" lon="16.1937133"><ele>100.0</ele><time>2026-05-03T15:23:23.886Z</time></trkpt><trkpt lat="38.7524117" lon="16.19358"><ele>106.0</ele><time>2026-05-03T15:23:24.886Z</time></trkpt><trkpt lat="38.752275" lon="16.19347"><ele>112.0</ele><time>2026-05-03T15:23:25.886Z</time></trkpt><trkpt lat="38.752145" lon="16.1933683"><ele>112.0</ele><time>2026-05-03T15:23:26.885Z</time></trkpt><trkpt lat="38.7520183" lon="16.1932833"><ele>112.0</ele><time>2026-05-03T15:23:27.886Z</time></trkpt><trkpt lat="38.7518933" lon="16.1932"><ele>112.0</ele><time>2026-05-03T15:23:28.886Z</time></trkpt><trkpt lat="38.7517667" lon="16.1931183"><ele>112.0</ele><time>2026-05-03T15:23:29.886Z</time></trkpt><trkpt lat="38.7516333" lon="16.1930383"><ele>110.66666666666667</ele><time>2026-05-03T15:23:30.885Z</time></trkpt><trkpt lat="38.7514917" lon="16.1929667"><ele>109.33333333333334</ele><time>2026-05-03T15:23:31.885Z</time></trkpt><trkpt lat="38.7513567" lon="16.1928867"><ele>108.0</ele><time>2026-05-03T15:23:32.886Z</time></trkpt><trkpt lat="38.7512183" lon="16.192805"><ele>108.0</ele><time>2026-05-03T15:23:33.886Z</time></trkpt><trkpt lat="38.7510767" lon="16.1927217"><ele>108.0</ele><time>2026-05-03T15:23:34.885Z</time></trkpt><trkpt lat="38.7509367" lon="16.1926417"><ele>108.0</ele><time>2026-05-03T15:23:35.886Z</time></trkpt><trkpt lat="38.7507983" lon="16.1925567"><ele>109.33333333333334</ele><time>2026-05-03T15:23:36.885Z</time></trkpt><trkpt lat="38.7506617" lon="16.19246"><ele>110.66666666666667</ele><time>2026-05-03T15:23:37.885Z</time></trkpt><trkpt lat="38.75052" lon="16.1923517"><ele>112.0</ele><time>2026-05-03T15:23:38.885Z</time></trkpt><trkpt lat="38.75037" lon="16.19222"><ele>112.0</ele><time>2026-05-03T15:23:39.886Z</time></trkpt><trkpt lat="38.7502283" lon="16.19209"><ele>112.0</ele><time>2026-05-03T15:23:40.886Z</time></trkpt><trkpt lat="38.7500917" lon="16.19194"><ele>112.0</ele><time>2026-05-03T15:23:41.886Z</time></trkpt><trkpt lat="38.7499583" lon="16.1917867"><ele>112.66666666666667</ele><time>2026-05-03T15:23:42.886Z</time></trkpt><trkpt lat="38.7498217" lon="16.19163"><ele>113.33333333333334</ele><time>2026-05-03T15:23:43.886Z</time></trkpt><trkpt lat="38.749695" lon="16.1914667"><ele>114.0</ele><time>2026-05-03T15:23:44.886Z</time></trkpt><trkpt lat="38.7495617" lon="16.191305"><ele>114.0</ele><time>2026-05-03T15:23:45.885Z</time></trkpt><trkpt lat="38.7494267" lon="16.191145"><ele>114.0</ele><time>2026-05-03T15:23:46.886Z</time></trkpt><trkpt lat="38.7492917" lon="16.1909883"><ele>114.0</ele><time>2026-05-03T15:23:47.886Z</time></trkpt><trkpt lat="38.7491517" lon="16.1908333"><ele>116.0</ele><time>2026-05-03T15:23:48.886Z</time></trkpt><trkpt lat="38.7490183" lon="16.1906783"><ele>118.0</ele><time>2026-05-03T15:23:49.885Z</time></trkpt><trkpt lat="38.7488767" lon="16.1905333"><ele>120.0</ele><time>2026-05-03T15:23:50.886Z</time></trkpt><trkpt lat="38.7487233" lon="16.1903967"><ele>120.0</ele><time>2026-05-03T15:23:51.886Z</time></trkpt><trkpt lat="38.7485633" lon="16.1902667"><ele>120.0</ele><time>2026-05-03T15:23:52.885Z</time></trkpt><trkpt lat="38.7484" lon="16.1901467"><ele>120.0</ele><time>2026-05-03T15:23:53.886Z</time></trkpt><trkpt lat="38.7482283" lon="16.1900483"><ele>122.66666666666666</ele><time>2026-05-03T15:23:54.885Z</time></trkpt><trkpt lat="38.7480467" lon="16.18995"><ele>125.33333333333333</ele><time>2026-05-03T15:23:55.885Z</time></trkpt><trkpt lat="38.7478633" lon="16.1898633"><ele>128.0</ele><time>2026-05-03T15:23:56.886Z</time></trkpt><trkpt lat="38.7476683" lon="16.1897883"><ele>128.66666666666666</ele><time>2026-05-03T15:23:57.886Z</time></trkpt><trkpt lat="38.7474733" lon="16.1897117"><ele>129.33333333333334</ele><time>2026-05-03T15:23:58.885Z</time></trkpt><trkpt lat="38.7472683" lon="16.1896417"><ele>130.0</ele><time>2026-05-03T15:23:59.886Z</time></trkpt><trkpt lat="38.7470583" lon="16.1895683"><ele>133.5</ele><time>2026-05-03T15:24:00.886Z</time></trkpt><trkpt lat="38.7468483" lon="16.1894967"><ele>137.0</ele><time>2026-05-03T15:24:01.886Z</time></trkpt><trkpt lat="38.7466233" lon="16.1894167"><ele>137.0</ele><time>2026-05-03T15:24:02.886Z</time></trkpt><trkpt lat="38.7463933" lon="16.189335"><ele>137.0</ele><time>2026-05-03T15:24:03.885Z</time></trkpt><trkpt lat="38.74617" lon="16.18925"><ele>141.5</ele><time>2026-05-03T15:24:04.886Z</time></trkpt><trkpt lat="38.7459467" lon="16.189155"><ele>146.0</ele><time>2026-05-03T15:24:05.885Z</time></trkpt><trkpt lat="38.7457183" lon="16.1890633"><ele>141.5</ele><time>2026-05-03T15:24:06.886Z</time></trkpt><trkpt lat="38.7454867" lon="16.1889617"><ele>137.0</ele><time>2026-05-03T15:24:07.885Z</time></trkpt><trkpt lat="38.7452483" lon="16.1888433"><ele>138.0</ele><time>2026-05-03T15:24:08.886Z</time></trkpt><trkpt lat="38.745" lon="16.1887317"><ele>139.0</ele><time>2026-05-03T15:24:09.886Z</time></trkpt><trkpt lat="38.7447533" lon="16.188615"><ele>139.0</ele><time>2026-05-03T15:24:10.885Z</time></trkpt><trkpt lat="38.7445033" lon="16.188485"><ele>139.0</ele><time>2026-05-03T15:24:11.885Z</time></trkpt><trkpt lat="38.7442533" lon="16.188355"><ele>137.5</ele><time>2026-05-03T15:24:12.886Z</time></trkpt><trkpt lat="38.744" lon="16.18821"><ele>136.0</ele><time>2026-05-03T15:24:13.885Z</time></trkpt><trkpt lat="38.74374" lon="16.1880533"><ele>141.5</ele><time>2026-05-03T15:24:14.886Z</time></trkpt><trkpt lat="38.7434767" lon="16.187895"><ele>147.0</ele><time>2026-05-03T15:24:15.886Z</time></trkpt><trkpt lat="38.7432067" lon="16.1877233"><ele>147.0</ele><time>2026-05-03T15:24:16.886Z</time></trkpt><trkpt lat="38.7429383" lon="16.1875467"><ele>147.0</ele><time>2026-05-03T15:24:17.886Z</time></trkpt><trkpt lat="38.742685" lon="16.1873617"><ele>145.5</ele><time>2026-05-03T15:24:18.886Z</time></trkpt><trkpt lat="38.7424267" lon="16.1871683"><ele>144.0</ele><time>2026-05-03T15:24:19.886Z</time></trkpt><trkpt lat="38.7421717" lon="16.186975"><ele>144.0</ele><time>2026-05-03T15:24:20.886Z</time></trkpt><trkpt lat="38.7419183" lon="16.186785"><ele>144.0</ele><time>2026-05-03T15:24:21.886Z</time></trkpt><trkpt lat="38.741665" lon="16.1865983"><ele>145.0</ele><time>2026-05-03T15:24:22.886Z</time></trkpt><trkpt lat="38.7414083" lon="16.186405"><ele>146.0</ele><time>2026-05-03T15:24:23.886Z</time></trkpt><trkpt lat="38.7411533" lon="16.186225"><ele>154.0</ele><time>2026-05-03T15:24:24.886Z</time></trkpt><trkpt lat="38.7409" lon="16.186035"><ele>162.0</ele><time>2026-05-03T15:24:25.886Z</time></trkpt><trkpt lat="38.740655" lon="16.185845"><ele>165.5</ele><time>2026-05-03T15:24:26.886Z</time></trkpt><trkpt lat="38.740415" lon="16.1856367"><ele>169.0</ele><time>2026-05-03T15:24:27.886Z</time></trkpt><trkpt lat="38.7401883" lon="16.1854067"><ele>169.0</ele><time>2026-05-03T15:24:28.885Z</time></trkpt><trkpt lat="38.73998" lon="16.1851483"><ele>169.0</ele><time>2026-05-03T15:24:29.885Z</time></trkpt><trkpt lat="38.7397967" lon="16.184875"><ele>162.5</ele><time>2026-05-03T15:24:30.886Z</time></trkpt><trkpt lat="38.7396233" lon="16.1845917"><ele>156.0</ele><time>2026-05-03T15:24:31.886Z</time></trkpt><trkpt lat="38.73947" lon="16.1842833"><ele>164.5</ele><time>2026-05-03T15:24:32.885Z</time></trkpt><trkpt lat="38.7393267" lon="16.1839783"><ele>173.0</ele><time>2026-05-03T15:24:33.885Z</time></trkpt><trkpt lat="38.7391933" lon="16.1836583"><ele>173.0</ele><time>2026-05-03T15:24:34.886Z</time></trkpt><trkpt lat="38.7390617" lon="16.183325"><ele>173.0</ele><time>2026-05-03T15:24:35.886Z</time></trkpt><trkpt lat="38.7389217" lon="16.183"><ele>167.0</ele><time>2026-05-03T15:24:36.886Z</time></trkpt><trkpt lat="38.7387783" lon="16.1826967"><ele>161.0</ele><time>2026-05-03T15:24:37.886Z</time></trkpt><trkpt lat="38.7386067" lon="16.1824083"><ele>166.5</ele><time>2026-05-03T15:24:38.885Z</time></trkpt><trkpt lat="38.73842" lon="16.1821433"><ele>172.0</ele><time>2026-05-03T15:24:39.885Z</time></trkpt><trkpt lat="38.7382283" lon="16.1819"><ele>172.0</ele><time>2026-05-03T15:24:40.886Z</time></trkpt><trkpt lat="38.7380133" lon="16.1816717"><ele>172.0</ele><time>2026-05-03T15:24:41.886Z</time></trkpt><trkpt lat="38.737795" lon="16.18146"><ele>174.0</ele><time>2026-05-03T15:24:42.886Z</time></trkpt><trkpt lat="38.7375667" lon="16.181245"><ele>176.0</ele><time>2026-05-03T15:24:43.885Z</time></trkpt><trkpt lat="38.7373417" lon="16.1810267"><ele>176.0</ele><time>2026-05-03T15:24:44.885Z</time></trkpt><trkpt lat="38.7371233" lon="16.1807933"><ele>176.0</ele><time>2026-05-03T15:24:45.885Z</time></trkpt><trkpt lat="38.736915" lon="16.180545"><ele>179.5</ele><time>2026-05-03T15:24:46.885Z</time></trkpt><trkpt lat="38.736705" lon="16.1802817"><ele>183.0</ele><time>2026-05-03T15:24:47.885Z</time></trkpt><trkpt lat="38.7364983" lon="16.1800133"><ele>177.5</ele><time>2026-05-03T15:24:48.885Z</time></trkpt><trkpt lat="38.736305" lon="16.179735"><ele>172.0</ele><time>2026-05-03T15:24:49.886Z</time></trkpt><trkpt lat="38.7361167" lon="16.17943"><ele>179.5</ele><time>2026-05-03T15:24:50.886Z</time></trkpt><trkpt lat="38.7359333" lon="16.1791317"><ele>187.0</ele><time>2026-05-03T15:24:51.886Z</time></trkpt><trkpt lat="38.7357617" lon="16.17882"><ele>187.0</ele><time>2026-05-03T15:24:52.886Z</time></trkpt><trkpt lat="38.7356" lon="16.1785067"><ele>187.0</ele><time>2026-05-03T15:24:53.886Z</time></trkpt><trkpt lat="38.7354517" lon="16.1781817"><ele>181.5</ele><time>2026-05-03T15:24:54.885Z</time></trkpt><trkpt lat="38.7353167" lon="16.1778517"><ele>176.0</ele><time>2026-05-03T15:24:55.885Z</time></trkpt><trkpt lat="38.735195" lon="16.1775083"><ele>187.5</ele><time>2026-05-03T15:24:56.886Z</time></trkpt><trkpt lat="38.7350767" lon="16.1771617"><ele>199.0</ele><time>2026-05-03T15:24:57.886Z</time></trkpt><trkpt lat="38.7349733" lon="16.17681"><ele>191.0</ele><time>2026-05-03T15:24:58.886Z</time></trkpt><trkpt lat="38.7348733" lon="16.17645"><ele>183.0</ele><time>2026-05-03T15:24:59.886Z</time></trkpt><trkpt lat="38.7347817" lon="16.1760883"><ele>183.0</ele><time>2026-05-03T15:25:00.886Z</time></trkpt><trkpt lat="38.73469" lon="16.1757217"><ele>183.0</ele><time>2026-05-03T15:25:01.885Z</time></trkpt><trkpt lat="38.73461" lon="16.1753583"><ele>174.5</ele><time>2026-05-03T15:25:02.886Z</time></trkpt><trkpt lat="38.7345317" lon="16.1750017"><ele>166.0</ele><time>2026-05-03T15:25:03.885Z</time></trkpt><trkpt lat="38.7344467" lon="16.1746483"><ele>176.5</ele><time>2026-05-03T15:25:04.885Z</time></trkpt><trkpt lat="38.7343683" lon="16.1742967"><ele>187.0</ele><time>2026-05-03T15:25:05.886Z</time></trkpt><trkpt lat="38.7342883" lon="16.17395"><ele>187.0</ele><time>2026-05-03T15:25:06.886Z</time></trkpt><trkpt lat="38.7342017" lon="16.1735983"><ele>187.0</ele><time>2026-05-03T15:25:07.885Z</time></trkpt><trkpt lat="38.73412" lon="16.1732483"><ele>181.5</ele><time>2026-05-03T15:25:08.886Z</time></trkpt><trkpt lat="38.734035" lon="16.1729017"><ele>176.0</ele><time>2026-05-03T15:25:09.886Z</time></trkpt><trkpt lat="38.733945" lon="16.1725667"><ele>170.0</ele><time>2026-05-03T15:25:10.885Z</time></trkpt><trkpt lat="38.73386" lon="16.1722383"><ele>164.0</ele><time>2026-05-03T15:25:11.885Z</time></trkpt><trkpt lat="38.7337633" lon="16.171915"><ele>164.0</ele><time>2026-05-03T15:25:12.886Z</time></trkpt><trkpt lat="38.73366" lon="16.1715983"><ele>164.0</ele><time>2026-05-03T15:25:13.886Z</time></trkpt><trkpt lat="38.7335467" lon="16.1712867"><ele>164.5</ele><time>2026-05-03T15:25:14.886Z</time></trkpt><trkpt lat="38.7334283" lon="16.1709783"><ele>165.0</ele><time>2026-05-03T15:25:15.885Z</time></trkpt><trkpt lat="38.7333" lon="16.1706783"><ele>165.0</ele><time>2026-05-03T15:25:16.886Z</time></trkpt><trkpt lat="38.733165" lon="16.1703883"><ele>165.0</ele><time>2026-05-03T15:25:17.885Z</time></trkpt><trkpt lat="38.7330267" lon="16.1701033"><ele>160.5</ele><time>2026-05-03T15:25:18.886Z</time></trkpt><trkpt lat="38.73288" lon="16.1698167"><ele>156.0</ele><time>2026-05-03T15:25:19.886Z</time></trkpt><trkpt lat="38.7327217" lon="16.1695483"><ele>173.0</ele><time>2026-05-03T15:25:20.885Z</time></trkpt><trkpt lat="38.7325533" lon="16.16928"><ele>190.0</ele><time>2026-05-03T15:25:21.886Z</time></trkpt><trkpt lat="38.7323867" lon="16.16903"><ele>179.0</ele><time>2026-05-03T15:25:22.886Z</time></trkpt><trkpt lat="38.73221" lon="16.168785"><ele>168.0</ele><time>2026-05-03T15:25:23.886Z</time></trkpt><trkpt lat="38.7320183" lon="16.1685383"><ele>177.5</ele><time>2026-05-03T15:25:24.885Z</time></trkpt><trkpt lat="38.7318183" lon="16.1682983"><ele>187.0</ele><time>2026-05-03T15:25:25.886Z</time></trkpt><trkpt lat="38.7316183" lon="16.1680583"><ele>187.0</ele><time>2026-05-03T15:25:26.886Z</time></trkpt><trkpt lat="38.73141" lon="16.1678333"><ele>187.0</ele><time>2026-05-03T15:25:27.885Z</time></trkpt><trkpt lat="38.73119" lon="16.1676217"><ele>197.5</ele><time>2026-05-03T15:25:28.886Z</time></trkpt><trkpt lat="38.7309717" lon="16.1674117"><ele>208.0</ele><time>2026-05-03T15:25:29.886Z</time></trkpt><trkpt lat="38.7307533" lon="16.1672"><ele>208.0</ele><time>2026-05-03T15:25:30.886Z</time></trkpt><trkpt lat="38.7305283" lon="16.1669983"><ele>208.0</ele><time>2026-05-03T15:25:31.886Z</time></trkpt><trkpt lat="38.7303" lon="16.166785"><ele>212.0</ele><time>2026-05-03T15:25:32.886Z</time></trkpt><trkpt lat="38.730075" lon="16.16658"><ele>216.0</ele><time>2026-05-03T15:25:33.885Z</time></trkpt><trkpt lat="38.7298583" lon="16.1663783"><ele>216.0</ele><time>2026-05-03T15:25:34.886Z</time></trkpt><trkpt lat="38.7296367" lon="16.1661617"><ele>216.0</ele><time>2026-05-03T15:25:35.885Z</time></trkpt><trkpt lat="38.7294167" lon="16.1659567"><ele>219.0</ele><time>2026-05-03T15:25:36.885Z</time></trkpt><trkpt lat="38.729195" lon="16.1657433"><ele>222.0</ele><time>2026-05-03T15:25:37.886Z</time></trkpt><trkpt lat="38.728965" lon="16.1655383"><ele>222.0</ele><time>2026-05-03T15:25:38.886Z</time></trkpt><trkpt lat="38.7287417" lon="16.1653233"><ele>222.0</ele><time>2026-05-03T15:25:39.885Z</time></trkpt><trkpt lat="38.7285117" lon="16.1651167"><ele>225.0</ele><time>2026-05-03T15:25:40.886Z</time></trkpt><trkpt lat="38.72828" lon="16.1648967"><ele>228.0</ele><time>2026-05-03T15:25:41.886Z</time></trkpt><trkpt lat="38.7280467" lon="16.1646867"><ele>228.0</ele><time>2026-05-03T15:25:42.886Z</time></trkpt><trkpt lat="38.7278217" lon="16.1644667"><ele>228.0</ele><time>2026-05-03T15:25:43.886Z</time></trkpt><trkpt lat="38.7275917" lon="16.164255"><ele>229.5</ele><time>2026-05-03T15:25:44.886Z</time></trkpt><trkpt lat="38.7273567" lon="16.1640483"><ele>231.0</ele><time>2026-05-03T15:25:45.886Z</time></trkpt><trkpt lat="38.72712" lon="16.1638283"><ele>241.5</ele><time>2026-05-03T15:25:46.885Z</time></trkpt><trkpt lat="38.7268933" lon="16.163615"><ele>252.0</ele><time>2026-05-03T15:25:47.886Z</time></trkpt><trkpt lat="38.7266633" lon="16.1634"><ele>240.0</ele><time>2026-05-03T15:25:48.885Z</time></trkpt><trkpt lat="38.72643" lon="16.1631783"><ele>228.0</ele><time>2026-05-03T15:25:49.886Z</time></trkpt><trkpt lat="38.726205" lon="16.1629617"><ele>242.5</ele><time>2026-05-03T15:25:50.886Z</time></trkpt><trkpt lat="38.7259783" lon="16.16275"><ele>257.0</ele><time>2026-05-03T15:25:51.886Z</time></trkpt><trkpt lat="38.7257517" lon="16.16253"><ele>242.5</ele><time>2026-05-03T15:25:52.886Z</time></trkpt><trkpt lat="38.7255267" lon="16.1623167"><ele>228.0</ele><time>2026-05-03T15:25:53.886Z</time></trkpt><trkpt lat="38.725305" lon="16.1620983"><ele>246.5</ele><time>2026-05-03T15:25:54.886Z</time></trkpt><trkpt lat="38.7250883" lon="16.1618817"><ele>265.0</ele><time>2026-05-03T15:25:55.886Z</time></trkpt><trkpt lat="38.7248667" lon="16.1616783"><ele>250.5</ele><time>2026-05-03T15:25:56.886Z</time></trkpt><trkpt lat="38.72464" lon="16.16148"><ele>236.0</ele><time>2026-05-03T15:25:57.886Z</time></trkpt><trkpt lat="38.7244167" lon="16.161275"><ele>254.0</ele><time>2026-05-03T15:25:58.886Z</time></trkpt><trkpt lat="38.7242033" lon="16.1610667"><ele>272.0</ele><time>2026-05-03T15:25:59.886Z</time></trkpt><trkpt lat="38.7239867" lon="16.1608667"><ele>273.5</ele><time>2026-05-03T15:26:00.886Z</time></trkpt><trkpt lat="38.7237683" lon="16.160675"><ele>275.0</ele><time>2026-05-03T15:26:01.886Z</time></trkpt><trkpt lat="38.7235433" lon="16.1604833"><ele>275.0</ele><time>2026-05-03T15:26:02.886Z</time></trkpt><trkpt lat="38.7233217" lon="16.1602933"><ele>275.0</ele><time>2026-05-03T15:26:03.885Z</time></trkpt><trkpt lat="38.723105" lon="16.1600967"><ele>275.0</ele><time>2026-05-03T15:26:04.885Z</time></trkpt><trkpt lat="38.72289" lon="16.159905"><ele>275.0</ele><time>2026-05-03T15:26:05.886Z</time></trkpt><trkpt lat="38.72268" lon="16.1597067"><ele>276.0</ele><time>2026-05-03T15:26:06.886Z</time></trkpt><trkpt lat="38.722465" lon="16.1595"><ele>277.0</ele><time>2026-05-03T15:26:07.886Z</time></trkpt><trkpt lat="38.7222467" lon="16.1592967"><ele>277.0</ele><time>2026-05-03T15:26:08.886Z</time></trkpt><trkpt lat="38.7220367" lon="16.159075"><ele>277.0</ele><time>2026-05-03T15:26:09.885Z</time></trkpt><trkpt lat="38.721825" lon="16.15884"><ele>281.0</ele><time>2026-05-03T15:26:10.886Z</time></trkpt><trkpt lat="38.7216233" lon="16.158605"><ele>285.0</ele><time>2026-05-03T15:26:11.886Z</time></trkpt><trkpt lat="38.7214267" lon="16.1583617"><ele>291.5</ele><time>2026-05-03T15:26:12.886Z</time></trkpt><trkpt lat="38.7212333" lon="16.15811"><ele>298.0</ele><time>2026-05-03T15:26:13.886Z</time></trkpt><trkpt lat="38.7210333" lon="16.15786"><ele>298.0</ele><time>2026-05-03T15:26:14.885Z</time></trkpt><trkpt lat="38.720835" lon="16.1576067"><ele>298.0</ele><time>2026-05-03T15:26:15.886Z</time></trkpt><trkpt lat="38.7206283" lon="16.1573583"><ele>285.0</ele><time>2026-05-03T15:26:16.886Z</time></trkpt><trkpt lat="38.720435" lon="16.1571"><ele>272.0</ele><time>2026-05-03T15:26:17.886Z</time></trkpt><trkpt lat="38.72024" lon="16.1568467"><ele>284.0</ele><time>2026-05-03T15:26:18.886Z</time></trkpt><trkpt lat="38.720045" lon="16.1565883"><ele>296.0</ele><time>2026-05-03T15:26:19.886Z</time></trkpt><trkpt lat="38.7198483" lon="16.1563367"><ele>296.0</ele><time>2026-05-03T15:26:20.886Z</time></trkpt><trkpt lat="38.71965" lon="16.1560883"><ele>296.0</ele><time>2026-05-03T15:26:21.885Z</time></trkpt><trkpt lat="38.7194583" lon="16.15585"><ele>294.0</ele><time>2026-05-03T15:26:22.885Z</time></trkpt><trkpt lat="38.7192517" lon="16.1556367"><ele>292.0</ele><time>2026-05-03T15:26:23.886Z</time></trkpt><trkpt lat="38.7190317" lon="16.15544"><ele>292.0</ele><time>2026-05-03T15:26:24.886Z</time></trkpt><trkpt lat="38.7187833" lon="16.1552733"><ele>292.0</ele><time>2026-05-03T15:26:25.886Z</time></trkpt><trkpt lat="38.7185317" lon="16.15512"><ele>301.0</ele><time>2026-05-03T15:26:26.886Z</time></trkpt><trkpt lat="38.7182717" lon="16.1549883"><ele>310.0</ele><time>2026-05-03T15:26:27.886Z</time></trkpt><trkpt lat="38.7180117" lon="16.1548767"><ele>300.0</ele><time>2026-05-03T15:26:28.886Z</time></trkpt><trkpt lat="38.7177433" lon="16.15479"><ele>290.0</ele><time>2026-05-03T15:26:29.886Z</time></trkpt><trkpt lat="38.7174717" lon="16.1547233"><ele>290.0</ele><time>2026-05-03T15:26:30.886Z</time></trkpt><trkpt lat="38.7171983" lon="16.1546667"><ele>290.0</ele><time>2026-05-03T15:26:31.886Z</time></trkpt><trkpt lat="38.7169233" lon="16.1546133"><ele>298.0</ele><time>2026-05-03T15:26:32.886Z</time></trkpt><trkpt lat="38.7166467" lon="16.1545583"><ele>306.0</ele><time>2026-05-03T15:26:33.885Z</time></trkpt><trkpt lat="38.7163733" lon="16.1544983"><ele>306.0</ele><time>2026-05-03T15:26:34.886Z</time></trkpt><trkpt lat="38.7160983" lon="16.1544383"><ele>306.0</ele><time>2026-05-03T15:26:35.886Z</time></trkpt><trkpt lat="38.71583" lon="16.1543783"><ele>312.5</ele><time>2026-05-03T15:26:36.886Z</time></trkpt><trkpt lat="38.7155633" lon="16.1543217"><ele>319.0</ele><time>2026-05-03T15:26:37.885Z</time></trkpt><trkpt lat="38.715305" lon="16.1542517"><ele>323.5</ele><time>2026-05-03T15:26:38.886Z</time></trkpt><trkpt lat="38.7150417" lon="16.15418"><ele>328.0</ele><time>2026-05-03T15:26:39.886Z</time></trkpt><trkpt lat="38.71478" lon="16.1541183"><ele>328.0</ele><time>2026-05-03T15:26:40.886Z</time></trkpt><trkpt lat="38.7145167" lon="16.1540583"><ele>328.0</ele><time>2026-05-03T15:26:41.886Z</time></trkpt><trkpt lat="38.7142533" lon="16.1540083"><ele>326.0</ele><time>2026-05-03T15:26:42.886Z</time></trkpt><trkpt lat="38.7139867" lon="16.1539617"><ele>324.0</ele><time>2026-05-03T15:26:43.886Z</time></trkpt><trkpt lat="38.713715" lon="16.1539133"><ele>328.0</ele><time>2026-05-03T15:26:44.886Z</time></trkpt><trkpt lat="38.7134433" lon="16.1538783"><ele>332.0</ele><time>2026-05-03T15:26:45.886Z</time></trkpt><trkpt lat="38.7131783" lon="16.1538433"><ele>332.0</ele><time>2026-05-03T15:26:46.886Z</time></trkpt><trkpt lat="38.7129033" lon="16.1538283"><ele>332.0</ele><time>2026-05-03T15:26:47.885Z</time></trkpt><trkpt lat="38.71263" lon="16.153795"><ele>337.0</ele><time>2026-05-03T15:26:48.886Z</time></trkpt><trkpt lat="38.7123483" lon="16.15378"><ele>342.0</ele><time>2026-05-03T15:26:49.886Z</time></trkpt><trkpt lat="38.712065" lon="16.1537583"><ele>351.5</ele><time>2026-05-03T15:26:50.886Z</time></trkpt><trkpt lat="38.7117833" lon="16.1537467"><ele>361.0</ele><time>2026-05-03T15:26:51.886Z</time></trkpt><trkpt lat="38.7114967" lon="16.153735"><ele>361.0</ele><time>2026-05-03T15:26:52.885Z</time></trkpt><trkpt lat="38.711205" lon="16.1537383"><ele>361.0</ele><time>2026-05-03T15:26:53.886Z</time></trkpt><trkpt lat="38.71091" lon="16.1537367"><ele>363.5</ele><time>2026-05-03T15:26:54.885Z</time></trkpt><trkpt lat="38.71062" lon="16.1537433"><ele>366.0</ele><time>2026-05-03T15:26:55.886Z</time></trkpt><trkpt lat="38.7103283" lon="16.1537517"><ele>364.0</ele><time>2026-05-03T15:26:56.886Z</time></trkpt><trkpt lat="38.7100383" lon="16.1537567"><ele>362.0</ele><time>2026-05-03T15:26:57.886Z</time></trkpt><trkpt lat="38.7097517" lon="16.1537583"><ele>362.0</ele><time>2026-05-03T15:26:58.886Z</time></trkpt><trkpt lat="38.7094617" lon="16.1537583"><ele>362.0</ele><time>2026-05-03T15:26:59.886Z</time></trkpt><trkpt lat="38.7091683" lon="16.1537617"><ele>362.5</ele><time>2026-05-03T15:27:00.886Z</time></trkpt><trkpt lat="38.70888" lon="16.153755"><ele>363.0</ele><time>2026-05-03T15:27:01.886Z</time></trkpt><trkpt lat="38.7085833" lon="16.1537617"><ele>364.5</ele><time>2026-05-03T15:27:02.886Z</time></trkpt><trkpt lat="38.7082833" lon="16.1537633"><ele>366.0</ele><time>2026-05-03T15:27:03.886Z</time></trkpt><trkpt lat="38.7079883" lon="16.153765"><ele>371.0</ele><time>2026-05-03T15:27:04.886Z</time></trkpt><trkpt lat="38.7077" lon="16.1537733"><ele>376.0</ele><time>2026-05-03T15:27:05.885Z</time></trkpt><trkpt lat="38.7074117" lon="16.1537683"><ele>376.0</ele><time>2026-05-03T15:27:06.885Z</time></trkpt><trkpt lat="38.7071183" lon="16.1537733"><ele>376.0</ele><time>2026-05-03T15:27:07.885Z</time></trkpt><trkpt lat="38.7068217" lon="16.1537783"><ele>376.0</ele><time>2026-05-03T15:27:08.885Z</time></trkpt><trkpt lat="38.7065333" lon="16.1537817"><ele>376.0</ele><time>2026-05-03T15:27:09.886Z</time></trkpt><trkpt lat="38.70624" lon="16.15379"><ele>374.0</ele><time>2026-05-03T15:27:10.886Z</time></trkpt><trkpt lat="38.705945" lon="16.1537933"><ele>372.0</ele><time>2026-05-03T15:27:11.886Z</time></trkpt><trkpt lat="38.705655" lon="16.1538017"><ele>372.0</ele><time>2026-05-03T15:27:12.885Z</time></trkpt><trkpt lat="38.7053717" lon="16.1538183"><ele>372.0</ele><time>2026-05-03T15:27:13.886Z</time></trkpt><trkpt lat="38.70508" lon="16.1538283"><ele>369.5</ele><time>2026-05-03T15:27:14.886Z</time></trkpt><trkpt lat="38.7047867" lon="16.1538617"><ele>367.0</ele><time>2026-05-03T15:27:15.886Z</time></trkpt><trkpt lat="38.7044917" lon="16.1539067"><ele>368.0</ele><time>2026-05-03T15:27:16.886Z</time></trkpt><trkpt lat="38.7042" lon="16.1539717"><ele>369.0</ele><time>2026-05-03T15:27:17.885Z</time></trkpt><trkpt lat="38.7039083" lon="16.15406"><ele>365.5</ele><time>2026-05-03T15:27:18.885Z</time></trkpt><trkpt lat="38.7036217" lon="16.15417"><ele>362.0</ele><time>2026-05-03T15:27:19.885Z</time></trkpt><trkpt lat="38.7033417" lon="16.1542983"><ele>360.0</ele><time>2026-05-03T15:27:20.886Z</time></trkpt><trkpt lat="38.703065" lon="16.15444"><ele>358.0</ele><time>2026-05-03T15:27:21.886Z</time></trkpt><trkpt lat="38.7027967" lon="16.15458"><ele>356.0</ele><time>2026-05-03T15:27:22.886Z</time></trkpt><trkpt lat="38.702545" lon="16.1547417"><ele>354.0</ele><time>2026-05-03T15:27:23.886Z</time></trkpt><trkpt lat="38.702305" lon="16.1548983"><ele>349.5</ele><time>2026-05-03T15:27:24.886Z</time></trkpt><trkpt lat="38.70207" lon="16.155045"><ele>345.0</ele><time>2026-05-03T15:27:25.885Z</time></trkpt><trkpt lat="38.70183" lon="16.1551817"><ele>343.5</ele><time>2026-05-03T15:27:26.886Z</time></trkpt><trkpt lat="38.70158" lon="16.15529"><ele>342.0</ele><time>2026-05-03T15:27:27.886Z</time></trkpt><trkpt lat="38.7013267" lon="16.1553883"><ele>344.5</ele><time>2026-05-03T15:27:28.886Z</time></trkpt><trkpt lat="38.7010767" lon="16.1554617"><ele>347.0</ele><time>2026-05-03T15:27:29.885Z</time></trkpt><trkpt lat="38.7008217" lon="16.1555133"><ele>347.0</ele><time>2026-05-03T15:27:30.886Z</time></trkpt><trkpt lat="38.7005417" lon="16.15556"><ele>347.0</ele><time>2026-05-03T15:27:31.886Z</time></trkpt><trkpt lat="38.70026" lon="16.15559"><ele>344.5</ele><time>2026-05-03T15:27:32.886Z</time></trkpt><trkpt lat="38.6999767" lon="16.1555917"><ele>342.0</ele><time>2026-05-03T15:27:33.886Z</time></trkpt><trkpt lat="38.6997" lon="16.1555667"><ele>342.0</ele><time>2026-05-03T15:27:34.886Z</time></trkpt><trkpt lat="38.69942" lon="16.1555267"><ele>342.0</ele><time>2026-05-03T15:27:35.886Z</time></trkpt><trkpt lat="38.6991417" lon="16.15547"><ele>339.5</ele><time>2026-05-03T15:27:36.886Z</time></trkpt><trkpt lat="38.6988667" lon="16.1554167"><ele>337.0</ele><time>2026-05-03T15:27:37.886Z</time></trkpt><trkpt lat="38.698585" lon="16.1553733"><ele>334.5</ele><time>2026-05-03T15:27:38.886Z</time></trkpt><trkpt lat="38.69831" lon="16.1553533"><ele>332.0</ele><time>2026-05-03T15:27:39.885Z</time></trkpt><trkpt lat="38.69804" lon="16.1553567"><ele>332.0</ele><time>2026-05-03T15:27:40.885Z</time></trkpt><trkpt lat="38.69777" lon="16.155385"><ele>332.0</ele><time>2026-05-03T15:27:41.886Z</time></trkpt><trkpt lat="38.6974917" lon="16.1554217"><ele>329.5</ele><time>2026-05-03T15:27:42.886Z</time></trkpt><trkpt lat="38.69722" lon="16.1554717"><ele>327.0</ele><time>2026-05-03T15:27:43.885Z</time></trkpt><trkpt lat="38.6969367" lon="16.1555367"><ele>327.5</ele><time>2026-05-03T15:27:44.886Z</time></trkpt><trkpt lat="38.69665" lon="16.1556133"><ele>328.0</ele><time>2026-05-03T15:27:45.886Z</time></trkpt><trkpt lat="38.696345" lon="16.1556883"><ele>326.5</ele><time>2026-05-03T15:27:46.886Z</time></trkpt><trkpt lat="38.696055" lon="16.1557733"><ele>325.0</ele><time>2026-05-03T15:27:47.886Z</time></trkpt><trkpt lat="38.69576" lon="16.15585"><ele>325.0</ele><time>2026-05-03T15:27:48.886Z</time></trkpt><trkpt lat="38.695455" lon="16.1559333"><ele>325.0</ele><time>2026-05-03T15:27:49.886Z</time></trkpt><trkpt lat="38.6951483" lon="16.156015"><ele>324.0</ele><time>2026-05-03T15:27:50.886Z</time></trkpt><trkpt lat="38.6948417" lon="16.1561"><ele>323.0</ele><time>2026-05-03T15:27:51.886Z</time></trkpt><trkpt lat="38.694535" lon="16.15619"><ele>322.5</ele><time>2026-05-03T15:27:52.886Z</time></trkpt><trkpt lat="38.69423" lon="16.1562733"><ele>322.0</ele><time>2026-05-03T15:27:53.885Z</time></trkpt><trkpt lat="38.6939217" lon="16.1563583"><ele>322.0</ele><time>2026-05-03T15:27:54.886Z</time></trkpt><trkpt lat="38.69361" lon="16.1564467"><ele>322.0</ele><time>2026-05-03T15:27:55.886Z</time></trkpt><trkpt lat="38.6932967" lon="16.1565283"><ele>318.0</ele><time>2026-05-03T15:27:56.886Z</time></trkpt><trkpt lat="38.6929867" lon="16.1566083"><ele>314.0</ele><time>2026-05-03T15:27:57.886Z</time></trkpt><trkpt lat="38.6926717" lon="16.1566917"><ele>311.5</ele><time>2026-05-03T15:27:58.886Z</time></trkpt><trkpt lat="38.6923517" lon="16.15678"><ele>309.0</ele><time>2026-05-03T15:27:59.885Z</time></trkpt><trkpt lat="38.6920333" lon="16.1568817"><ele>308.0</ele><time>2026-05-03T15:28:00.886Z</time></trkpt><trkpt lat="38.6917033" lon="16.1569817"><ele>307.0</ele><time>2026-05-03T15:28:01.885Z</time></trkpt><trkpt lat="38.691385" lon="16.1570983"><ele>306.0</ele><time>2026-05-03T15:28:02.886Z</time></trkpt><trkpt lat="38.6910617" lon="16.1572317"><ele>305.0</ele><time>2026-05-03T15:28:03.886Z</time></trkpt><trkpt lat="38.6907533" lon="16.15737"><ele>305.0</ele><time>2026-05-03T15:28:04.886Z</time></trkpt><trkpt lat="38.69045" lon="16.1575183"><ele>305.0</ele><time>2026-05-03T15:28:05.886Z</time></trkpt><trkpt lat="38.69016" lon="16.1576817"><ele>307.5</ele><time>2026-05-03T15:28:06.886Z</time></trkpt><trkpt lat="38.6898733" lon="16.15786"><ele>310.0</ele><time>2026-05-03T15:28:07.886Z</time></trkpt><trkpt lat="38.6895933" lon="16.158055"><ele>303.5</ele><time>2026-05-03T15:28:08.886Z</time></trkpt><trkpt lat="38.6893183" lon="16.1582583"><ele>297.0</ele><time>2026-05-03T15:28:09.886Z</time></trkpt><trkpt lat="38.6890483" lon="16.158475"><ele>297.0</ele><time>2026-05-03T15:28:10.886Z</time></trkpt><trkpt lat="38.6887767" lon="16.1587033"><ele>297.0</ele><time>2026-05-03T15:28:11.886Z</time></trkpt><trkpt lat="38.6885067" lon="16.1589367"><ele>295.5</ele><time>2026-05-03T15:28:12.886Z</time></trkpt><trkpt lat="38.688245" lon="16.159185"><ele>294.0</ele><time>2026-05-03T15:28:13.886Z</time></trkpt><trkpt lat="38.68798" lon="16.159435"><ele>293.0</ele><time>2026-05-03T15:28:14.886Z</time></trkpt><trkpt lat="38.6877267" lon="16.1596917"><ele>292.0</ele><time>2026-05-03T15:28:15.886Z</time></trkpt><trkpt lat="38.6874733" lon="16.1599483"><ele>292.0</ele><time>2026-05-03T15:28:16.886Z</time></trkpt><trkpt lat="38.6872167" lon="16.160205"><ele>292.0</ele><time>2026-05-03T15:28:17.886Z</time></trkpt><trkpt lat="38.6869567" lon="16.160465"><ele>284.5</ele><time>2026-05-03T15:28:18.886Z</time></trkpt><trkpt lat="38.6867017" lon="16.1607317"><ele>277.0</ele><time>2026-05-03T15:28:19.886Z</time></trkpt><trkpt lat="38.68645" lon="16.1609917"><ele>277.0</ele><time>2026-05-03T15:28:20.886Z</time></trkpt><trkpt lat="38.686195" lon="16.16125"><ele>277.0</ele><time>2026-05-03T15:28:21.885Z</time></trkpt><trkpt lat="38.6859367" lon="16.1615117"><ele>273.5</ele><time>2026-05-03T15:28:22.886Z</time></trkpt><trkpt lat="38.685675" lon="16.161765"><ele>270.0</ele><time>2026-05-03T15:28:23.885Z</time></trkpt><trkpt lat="38.6854167" lon="16.1620183"><ele>274.5</ele><time>2026-05-03T15:28:24.886Z</time></trkpt><trkpt lat="38.6851583" lon="16.16227"><ele>279.0</ele><time>2026-05-03T15:28:25.886Z</time></trkpt><trkpt lat="38.6849033" lon="16.16253"><ele>279.0</ele><time>2026-05-03T15:28:26.886Z</time></trkpt><trkpt lat="38.6846483" lon="16.1628033"><ele>279.0</ele><time>2026-05-03T15:28:27.886Z</time></trkpt><trkpt lat="38.6844067" lon="16.1630917"><ele>276.5</ele><time>2026-05-03T15:28:28.886Z</time></trkpt><trkpt lat="38.6841783" lon="16.1633717"><ele>274.0</ele><time>2026-05-03T15:28:29.886Z</time></trkpt><trkpt lat="38.683965" lon="16.1636817"><ele>274.0</ele><time>2026-05-03T15:28:30.886Z</time></trkpt><trkpt lat="38.683765" lon="16.1639983"><ele>274.0</ele><time>2026-05-03T15:28:31.886Z</time></trkpt><trkpt lat="38.683565" lon="16.16433"><ele>265.5</ele><time>2026-05-03T15:28:32.885Z</time></trkpt><trkpt lat="38.6833833" lon="16.1646583"><ele>257.0</ele><time>2026-05-03T15:28:33.885Z</time></trkpt><trkpt lat="38.6832183" lon="16.1649917"><ele>256.0</ele><time>2026-05-03T15:28:34.886Z</time></trkpt><trkpt lat="38.6830567" lon="16.16534"><ele>255.0</ele><time>2026-05-03T15:28:35.885Z</time></trkpt><trkpt lat="38.6829117" lon="16.1656983"><ele>252.5</ele><time>2026-05-03T15:28:36.885Z</time></trkpt><trkpt lat="38.682775" lon="16.16606"><ele>250.0</ele><time>2026-05-03T15:28:37.886Z</time></trkpt><trkpt lat="38.6826367" lon="16.1664167"><ele>254.0</ele><time>2026-05-03T15:28:38.886Z</time></trkpt><trkpt lat="38.6824933" lon="16.166775"><ele>258.0</ele><time>2026-05-03T15:28:39.886Z</time></trkpt><trkpt lat="38.6823583" lon="16.1671417"><ele>254.0</ele><time>2026-05-03T15:28:40.886Z</time></trkpt><trkpt lat="38.6822183" lon="16.1675"><ele>250.0</ele><time>2026-05-03T15:28:41.886Z</time></trkpt><trkpt lat="38.682075" lon="16.1678583"><ele>253.0</ele><time>2026-05-03T15:28:42.886Z</time></trkpt><trkpt lat="38.6819267" lon="16.1682233"><ele>256.0</ele><time>2026-05-03T15:28:43.886Z</time></trkpt><trkpt lat="38.6817817" lon="16.168585"><ele>256.0</ele><time>2026-05-03T15:28:44.886Z</time></trkpt><trkpt lat="38.681635" lon="16.1689467"><ele>256.0</ele><time>2026-05-03T15:28:45.886Z</time></trkpt><trkpt lat="38.6814833" lon="16.1693017"><ele>251.0</ele><time>2026-05-03T15:28:46.886Z</time></trkpt><trkpt lat="38.6813267" lon="16.1696617"><ele>246.0</ele><time>2026-05-03T15:28:47.886Z</time></trkpt><trkpt lat="38.6811583" lon="16.17001"><ele>239.5</ele><time>2026-05-03T15:28:48.885Z</time></trkpt><trkpt lat="38.6809883" lon="16.1703483"><ele>233.0</ele><time>2026-05-03T15:28:49.886Z</time></trkpt><trkpt lat="38.680815" lon="16.1706817"><ele>230.5</ele><time>2026-05-03T15:28:50.885Z</time></trkpt><trkpt lat="38.680635" lon="16.17101"><ele>228.0</ele><time>2026-05-03T15:28:51.886Z</time></trkpt><trkpt lat="38.6804533" lon="16.17133"><ele>227.0</ele><time>2026-05-03T15:28:52.885Z</time></trkpt><trkpt lat="38.680275" lon="16.1716417"><ele>226.0</ele><time>2026-05-03T15:28:53.886Z</time></trkpt><trkpt lat="38.68009" lon="16.1719433"><ele>227.0</ele><time>2026-05-03T15:28:54.885Z</time></trkpt><trkpt lat="38.6799" lon="16.1722533"><ele>228.0</ele><time>2026-05-03T15:28:55.886Z</time></trkpt><trkpt lat="38.6797017" lon="16.17256"><ele>228.0</ele><time>2026-05-03T15:28:56.886Z</time></trkpt><trkpt lat="38.6794983" lon="16.17286"><ele>228.0</ele><time>2026-05-03T15:28:57.886Z</time></trkpt><trkpt lat="38.679295" lon="16.1731533"><ele>214.0</ele><time>2026-05-03T15:28:58.886Z</time></trkpt><trkpt lat="38.679085" lon="16.1734417"><ele>200.0</ele><time>2026-05-03T15:28:59.886Z</time></trkpt><trkpt lat="38.6788717" lon="16.1737317"><ele>200.0</ele><time>2026-05-03T15:29:00.886Z</time></trkpt><trkpt lat="38.6786533" lon="16.1740183"><ele>200.0</ele><time>2026-05-03T15:29:01.886Z</time></trkpt><trkpt lat="38.6784333" lon="16.174295"><ele>199.0</ele><time>2026-05-03T15:29:02.886Z</time></trkpt><trkpt lat="38.6782133" lon="16.1745717"><ele>198.0</ele><time>2026-05-03T15:29:03.886Z</time></trkpt><trkpt lat="38.677985" lon="16.1748533"><ele>207.0</ele><time>2026-05-03T15:29:04.886Z</time></trkpt><trkpt lat="38.677745" lon="16.1751417"><ele>216.0</ele><time>2026-05-03T15:29:05.886Z</time></trkpt><trkpt lat="38.6775067" lon="16.1754167"><ele>214.5</ele><time>2026-05-03T15:29:06.885Z</time></trkpt><trkpt lat="38.6772667" lon="16.1756967"><ele>213.0</ele><time>2026-05-03T15:29:07.886Z</time></trkpt><trkpt lat="38.67702" lon="16.1759717"><ele>222.0</ele><time>2026-05-03T15:29:08.886Z</time></trkpt><trkpt lat="38.67677" lon="16.1762433"><ele>231.0</ele><time>2026-05-03T15:29:09.886Z</time></trkpt><trkpt lat="38.6765217" lon="16.176505"><ele>227.0</ele><time>2026-05-03T15:29:10.886Z</time></trkpt><trkpt lat="38.6762683" lon="16.1767583"><ele>223.0</ele><time>2026-05-03T15:29:11.885Z</time></trkpt><trkpt lat="38.6760117" lon="16.1770083"><ele>223.0</ele><time>2026-05-03T15:29:12.886Z</time></trkpt><trkpt lat="38.67575" lon="16.17725"><ele>223.0</ele><time>2026-05-03T15:29:13.886Z</time></trkpt><trkpt lat="38.6754917" lon="16.1774933"><ele>220.0</ele><time>2026-05-03T15:29:14.885Z</time></trkpt><trkpt lat="38.6752267" lon="16.1777317"><ele>217.0</ele><time>2026-05-03T15:29:15.886Z</time></trkpt><trkpt lat="38.6749617" lon="16.177975"><ele>213.0</ele><time>2026-05-03T15:29:16.886Z</time></trkpt><trkpt lat="38.6747017" lon="16.1782167"><ele>209.0</ele><time>2026-05-03T15:29:17.886Z</time></trkpt><trkpt lat="38.6744383" lon="16.1784583"><ele>213.5</ele><time>2026-05-03T15:29:18.885Z</time></trkpt><trkpt lat="38.67417" lon="16.1787033"><ele>218.0</ele><time>2026-05-03T15:29:19.886Z</time></trkpt><trkpt lat="38.6739067" lon="16.1789467"><ele>211.0</ele><time>2026-05-03T15:29:20.886Z</time></trkpt><trkpt lat="38.6736383" lon="16.1791867"><ele>204.0</ele><time>2026-05-03T15:29:21.886Z</time></trkpt><trkpt lat="38.6733717" lon="16.1794217"><ele>204.0</ele><time>2026-05-03T15:29:22.886Z</time></trkpt><trkpt lat="38.6730983" lon="16.1796633"><ele>204.0</ele><time>2026-05-03T15:29:23.885Z</time></trkpt><trkpt lat="38.6728283" lon="16.1799117"><ele>197.5</ele><time>2026-05-03T15:29:24.886Z</time></trkpt><trkpt lat="38.6725567" lon="16.180145"><ele>191.0</ele><time>2026-05-03T15:29:25.886Z</time></trkpt><trkpt lat="38.6722833" lon="16.180385"><ele>191.0</ele><time>2026-05-03T15:29:26.886Z</time></trkpt><trkpt lat="38.672015" lon="16.180635"><ele>191.0</ele><time>2026-05-03T15:29:27.885Z</time></trkpt><trkpt lat="38.67175" lon="16.1808767"><ele>195.5</ele><time>2026-05-03T15:29:28.885Z</time></trkpt><trkpt lat="38.671485" lon="16.1811167"><ele>200.0</ele><time>2026-05-03T15:29:29.885Z</time></trkpt><trkpt lat="38.6712267" lon="16.18136"><ele>198.5</ele><time>2026-05-03T15:29:30.886Z</time></trkpt><trkpt lat="38.670965" lon="16.1816183"><ele>197.0</ele><time>2026-05-03T15:29:31.885Z</time></trkpt><trkpt lat="38.6707017" lon="16.1818683"><ele>197.0</ele><time>2026-05-03T15:29:32.886Z</time></trkpt><trkpt lat="38.6704333" lon="16.18211"><ele>197.0</ele><time>2026-05-03T15:29:33.886Z</time></trkpt><trkpt lat="38.670165" lon="16.182355"><ele>196.5</ele><time>2026-05-03T15:29:34.886Z</time></trkpt><trkpt lat="38.6699017" lon="16.1825917"><ele>196.0</ele><time>2026-05-03T15:29:35.886Z</time></trkpt><trkpt lat="38.66964" lon="16.1828333"><ele>198.0</ele><time>2026-05-03T15:29:36.886Z</time></trkpt><trkpt lat="38.6693783" lon="16.183075"><ele>200.0</ele><time>2026-05-03T15:29:37.886Z</time></trkpt><trkpt lat="38.6691133" lon="16.1833067"><ele>197.5</ele><time>2026-05-03T15:29:38.886Z</time></trkpt><trkpt lat="38.66885" lon="16.1835383"><ele>195.0</ele><time>2026-05-03T15:29:39.886Z</time></trkpt><trkpt lat="38.6685867" lon="16.1837583"><ele>195.0</ele><time>2026-05-03T15:29:40.886Z</time></trkpt><trkpt lat="38.6683233" lon="16.18398"><ele>195.0</ele><time>2026-05-03T15:29:41.886Z</time></trkpt><trkpt lat="38.6680517" lon="16.1841917"><ele>189.0</ele><time>2026-05-03T15:29:42.886Z</time></trkpt><trkpt lat="38.66777" lon="16.184385"><ele>183.0</ele><time>2026-05-03T15:29:43.885Z</time></trkpt><trkpt lat="38.6674883" lon="16.1845767"><ele>183.0</ele><time>2026-05-03T15:29:44.886Z</time></trkpt><trkpt lat="38.667205" lon="16.184755"><ele>183.0</ele><time>2026-05-03T15:29:45.885Z</time></trkpt><trkpt lat="38.666915" lon="16.18493"><ele>176.0</ele><time>2026-05-03T15:29:46.885Z</time></trkpt><trkpt lat="38.6666183" lon="16.1850967"><ele>169.0</ele><time>2026-05-03T15:29:47.886Z</time></trkpt><trkpt lat="38.6663233" lon="16.185255"><ele>167.0</ele><time>2026-05-03T15:29:48.886Z</time></trkpt><trkpt lat="38.6660317" lon="16.185405"><ele>165.0</ele><time>2026-05-03T15:29:49.886Z</time></trkpt><trkpt lat="38.66573" lon="16.1855517"><ele>163.5</ele><time>2026-05-03T15:29:50.886Z</time></trkpt><trkpt lat="38.66542" lon="16.1856983"><ele>162.0</ele><time>2026-05-03T15:29:51.885Z</time></trkpt><trkpt lat="38.6651033" lon="16.1858383"><ele>165.5</ele><time>2026-05-03T15:29:52.886Z</time></trkpt><trkpt lat="38.6647933" lon="16.1859817"><ele>169.0</ele><time>2026-05-03T15:29:53.885Z</time></trkpt><trkpt lat="38.6644883" lon="16.1861283"><ele>176.0</ele><time>2026-05-03T15:29:54.885Z</time></trkpt><trkpt lat="38.6641867" lon="16.1862717"><ele>183.0</ele><time>2026-05-03T15:29:55.885Z</time></trkpt><trkpt lat="38.6638817" lon="16.186415"><ele>180.5</ele><time>2026-05-03T15:29:56.886Z</time></trkpt><trkpt lat="38.6635833" lon="16.186565"><ele>178.0</ele><time>2026-05-03T15:29:57.886Z</time></trkpt><trkpt lat="38.6632767" lon="16.1867167"><ele>178.0</ele><time>2026-05-03T15:29:58.885Z</time></trkpt><trkpt lat="38.6629767" lon="16.1868633"><ele>178.0</ele><time>2026-05-03T15:29:59.885Z</time></trkpt><trkpt lat="38.6626717" lon="16.187005"><ele>177.5</ele><time>2026-05-03T15:30:00.886Z</time></trkpt><trkpt lat="38.6623583" lon="16.1871667"><ele>177.0</ele><time>2026-05-03T15:30:01.886Z</time></trkpt><trkpt lat="38.6621017" lon="16.1873883"><ele>176.0</ele><time>2026-05-03T15:30:02.886Z</time></trkpt><trkpt lat="38.66177" lon="16.1875183"><ele>175.0</ele><time>2026-05-03T15:30:03.886Z</time></trkpt><trkpt lat="38.6614567" lon="16.1875833"><ele>175.0</ele><time>2026-05-03T15:30:04.886Z</time></trkpt><trkpt lat="38.6611383" lon="16.1876867"><ele>175.0</ele><time>2026-05-03T15:30:05.886Z</time></trkpt><trkpt lat="38.6608383" lon="16.1878167"><ele>175.0</ele><time>2026-05-03T15:30:06.886Z</time></trkpt><trkpt lat="38.6605383" lon="16.1879483"><ele>175.0</ele><time>2026-05-03T15:30:07.886Z</time></trkpt><trkpt lat="38.6602417" lon="16.18807"><ele>168.5</ele><time>2026-05-03T15:30:08.886Z</time></trkpt><trkpt lat="38.65994" lon="16.1881867"><ele>162.0</ele><time>2026-05-03T15:30:09.885Z</time></trkpt><trkpt lat="38.6596333" lon="16.1883033"><ele>163.0</ele><time>2026-05-03T15:30:10.886Z</time></trkpt><trkpt lat="38.6593133" lon="16.188415"><ele>164.0</ele><time>2026-05-03T15:30:11.886Z</time></trkpt><trkpt lat="38.658995" lon="16.1885233"><ele>164.0</ele><time>2026-05-03T15:30:12.886Z</time></trkpt><trkpt lat="38.6586683" lon="16.1886217"><ele>164.0</ele><time>2026-05-03T15:30:13.886Z</time></trkpt><trkpt lat="38.658345" lon="16.188705"><ele>163.5</ele><time>2026-05-03T15:30:14.886Z</time></trkpt><trkpt lat="38.658025" lon="16.188785"><ele>163.0</ele><time>2026-05-03T15:30:15.885Z</time></trkpt><trkpt lat="38.65771" lon="16.1888533"><ele>169.0</ele><time>2026-05-03T15:30:16.886Z</time></trkpt><trkpt lat="38.657395" lon="16.1889"><ele>175.0</ele><time>2026-05-03T15:30:17.886Z</time></trkpt><trkpt lat="38.6570833" lon="16.1889383"><ele>179.5</ele><time>2026-05-03T15:30:18.885Z</time></trkpt><trkpt lat="38.6567683" lon="16.1889667"><ele>184.0</ele><time>2026-05-03T15:30:19.886Z</time></trkpt><trkpt lat="38.65646" lon="16.188965"><ele>184.0</ele><time>2026-05-03T15:30:20.886Z</time></trkpt><trkpt lat="38.65615" lon="16.1889717"><ele>184.0</ele><time>2026-05-03T15:30:21.885Z</time></trkpt><trkpt lat="38.6558417" lon="16.1889667"><ele>194.0</ele><time>2026-05-03T15:30:22.885Z</time></trkpt><trkpt lat="38.6555083" lon="16.1889667"><ele>204.0</ele><time>2026-05-03T15:30:23.886Z</time></trkpt><trkpt lat="38.6551967" lon="16.1889733"><ele>220.5</ele><time>2026-05-03T15:30:24.885Z</time></trkpt><trkpt lat="38.6548833" lon="16.188975"><ele>237.0</ele><time>2026-05-03T15:30:25.886Z</time></trkpt><trkpt lat="38.65457" lon="16.1889767"><ele>148.0</ele><time>2026-05-03T15:30:26.886Z</time></trkpt><trkpt lat="38.65098" lon="16.1875967"><ele>148.0</ele><time>2026-05-03T15:30:38.881Z</time></trkpt><trkpt lat="38.6506667" lon="16.1874917"><ele>148.0</ele><time>2026-05-03T15:30:39.881Z</time></trkpt><trkpt lat="38.6503767" lon="16.187325"><ele>147.5</ele><time>2026-05-03T15:30:40.882Z</time></trkpt><trkpt lat="38.65009" lon="16.18711"><ele>147.0</ele><time>2026-05-03T15:30:41.882Z</time></trkpt><trkpt lat="38.6498133" lon="16.1869217"><ele>147.0</ele><time>2026-05-03T15:30:42.882Z</time></trkpt><trkpt lat="38.64953" lon="16.1867267"><ele>147.0</ele><time>2026-05-03T15:30:43.882Z</time></trkpt><trkpt lat="38.6492433" lon="16.1865383"><ele>147.0</ele><time>2026-05-03T15:30:44.882Z</time></trkpt><trkpt lat="38.6489633" lon="16.1863417"><ele>147.0</ele><time>2026-05-03T15:30:45.882Z</time></trkpt><trkpt lat="38.6486717" lon="16.1861533"><ele>145.5</ele><time>2026-05-03T15:30:46.882Z</time></trkpt><trkpt lat="38.6483867" lon="16.1859517"><ele>144.0</ele><time>2026-05-03T15:30:47.881Z</time></trkpt><trkpt lat="38.6481" lon="16.1857583"><ele>144.0</ele><time>2026-05-03T15:30:48.882Z</time></trkpt><trkpt lat="38.6478133" lon="16.1855583"><ele>144.0</ele><time>2026-05-03T15:30:49.881Z</time></trkpt><trkpt lat="38.6475283" lon="16.1853667"><ele>144.0</ele><time>2026-05-03T15:30:50.882Z</time></trkpt><trkpt lat="38.64725" lon="16.18517"><ele>144.0</ele><time>2026-05-03T15:30:51.882Z</time></trkpt><trkpt lat="38.646965" lon="16.1849783"><ele>143.0</ele><time>2026-05-03T15:30:52.881Z</time></trkpt><trkpt lat="38.6466767" lon="16.1847867"><ele>142.0</ele><time>2026-05-03T15:30:53.881Z</time></trkpt><trkpt lat="38.6464" lon="16.1845883"><ele>141.5</ele><time>2026-05-03T15:30:54.882Z</time></trkpt><trkpt lat="38.6461183" lon="16.1843933"><ele>141.0</ele><time>2026-05-03T15:30:55.882Z</time></trkpt><trkpt lat="38.6458383" lon="16.1842"><ele>141.0</ele><time>2026-05-03T15:30:56.882Z</time></trkpt><trkpt lat="38.6455617" lon="16.1840217"><ele>141.0</ele><time>2026-05-03T15:30:57.882Z</time></trkpt><trkpt lat="38.6453" lon="16.183845"><ele>141.0</ele><time>2026-05-03T15:30:58.881Z</time></trkpt><trkpt lat="38.6450517" lon="16.18367"><ele>141.0</ele><time>2026-05-03T15:30:59.882Z</time></trkpt><trkpt lat="38.6448133" lon="16.18351"><ele>141.0</ele><time>2026-05-03T15:31:00.882Z</time></trkpt><trkpt lat="38.6445833" lon="16.1833517"><ele>141.0</ele><time>2026-05-03T15:31:01.882Z</time></trkpt><trkpt lat="38.6443583" lon="16.1831933"><ele>141.0</ele><time>2026-05-03T15:31:02.882Z</time></trkpt><trkpt lat="38.6441333" lon="16.1830367"><ele>141.0</ele><time>2026-05-03T15:31:03.881Z</time></trkpt><trkpt lat="38.6438967" lon="16.1828833"><ele>141.0</ele><time>2026-05-03T15:31:04.881Z</time></trkpt><trkpt lat="38.643655" lon="16.1827217"><ele>141.0</ele><time>2026-05-03T15:31:05.882Z</time></trkpt><trkpt lat="38.64341" lon="16.1825333"><ele>141.0</ele><time>2026-05-03T15:31:06.881Z</time></trkpt><trkpt lat="38.6431467" lon="16.18234"><ele>141.0</ele><time>2026-05-03T15:31:07.882Z</time></trkpt><trkpt lat="38.6428733" lon="16.1821433"><ele>140.0</ele><time>2026-05-03T15:31:08.882Z</time></trkpt><trkpt lat="38.6426017" lon="16.1819417"><ele>139.0</ele><time>2026-05-03T15:31:09.882Z</time></trkpt><trkpt lat="38.642335" lon="16.181725"><ele>138.5</ele><time>2026-05-03T15:31:10.881Z</time></trkpt><trkpt lat="38.6420717" lon="16.1815033"><ele>138.0</ele><time>2026-05-03T15:31:11.882Z</time></trkpt><trkpt lat="38.641805" lon="16.1812817"><ele>138.0</ele><time>2026-05-03T15:31:12.882Z</time></trkpt><trkpt lat="38.6415433" lon="16.1810517"><ele>138.0</ele><time>2026-05-03T15:31:13.882Z</time></trkpt><trkpt lat="38.6412833" lon="16.1808167"><ele>138.0</ele><time>2026-05-03T15:31:14.882Z</time></trkpt><trkpt lat="38.6410217" lon="16.1805783"><ele>138.0</ele><time>2026-05-03T15:31:15.882Z</time></trkpt><trkpt lat="38.640755" lon="16.180325"><ele>138.0</ele><time>2026-05-03T15:31:16.882Z</time></trkpt><trkpt lat="38.6404917" lon="16.1800783"><ele>138.0</ele><time>2026-05-03T15:31:17.882Z</time></trkpt><trkpt lat="38.6402333" lon="16.1798267"><ele>137.5</ele><time>2026-05-03T15:31:18.882Z</time></trkpt><trkpt lat="38.6399767" lon="16.17957"><ele>137.0</ele><time>2026-05-03T15:31:19.882Z</time></trkpt><trkpt lat="38.6397183" lon="16.1793117"><ele>137.5</ele><time>2026-05-03T15:31:20.882Z</time></trkpt><trkpt lat="38.6394617" lon="16.1790417"><ele>138.0</ele><time>2026-05-03T15:31:21.881Z</time></trkpt><trkpt lat="38.6392133" lon="16.1787667"><ele>137.0</ele><time>2026-05-03T15:31:22.882Z</time></trkpt><trkpt lat="38.638955" lon="16.1784933"><ele>136.0</ele><time>2026-05-03T15:31:23.882Z</time></trkpt><trkpt lat="38.638695" lon="16.1782183"><ele>135.5</ele><time>2026-05-03T15:31:24.881Z</time></trkpt><trkpt lat="38.6384433" lon="16.1779233"><ele>135.0</ele><time>2026-05-03T15:31:25.882Z</time></trkpt><trkpt lat="38.6381933" lon="16.1776283"><ele>135.0</ele><time>2026-05-03T15:31:26.882Z</time></trkpt><trkpt lat="38.63795" lon="16.1773367"><ele>135.0</ele><time>2026-05-03T15:31:27.881Z</time></trkpt><trkpt lat="38.6377033" lon="16.1770433"><ele>134.5</ele><time>2026-05-03T15:31:28.882Z</time></trkpt><trkpt lat="38.637455" lon="16.176745"><ele>134.0</ele><time>2026-05-03T15:31:29.882Z</time></trkpt><trkpt lat="38.63721" lon="16.1764433"><ele>133.0</ele><time>2026-05-03T15:31:30.882Z</time></trkpt><trkpt lat="38.6369783" lon="16.1761317"><ele>132.0</ele><time>2026-05-03T15:31:31.882Z</time></trkpt><trkpt lat="38.636745" lon="16.175825"><ele>132.0</ele><time>2026-05-03T15:31:32.881Z</time></trkpt><trkpt lat="38.6365133" lon="16.1755133"><ele>132.0</ele><time>2026-05-03T15:31:33.882Z</time></trkpt><trkpt lat="38.636285" lon="16.1752033"><ele>132.0</ele><time>2026-05-03T15:31:34.881Z</time></trkpt><trkpt lat="38.6360633" lon="16.174885"><ele>132.0</ele><time>2026-05-03T15:31:35.882Z</time></trkpt><trkpt lat="38.6358317" lon="16.174555"><ele>132.0</ele><time>2026-05-03T15:31:36.881Z</time></trkpt><trkpt lat="38.6355983" lon="16.1742117"><ele>132.0</ele><time>2026-05-03T15:31:37.882Z</time></trkpt><trkpt lat="38.6353533" lon="16.1738517"><ele>131.5</ele><time>2026-05-03T15:31:38.882Z</time></trkpt><trkpt lat="38.635105" lon="16.173485"><ele>131.0</ele><time>2026-05-03T15:31:39.881Z</time></trkpt><trkpt lat="38.634875" lon="16.1731283"><ele>131.0</ele><time>2026-05-03T15:31:40.881Z</time></trkpt><trkpt lat="38.6346683" lon="16.17279"><ele>131.0</ele><time>2026-05-03T15:31:41.882Z</time></trkpt><trkpt lat="38.6344683" lon="16.1724433"><ele>131.5</ele><time>2026-05-03T15:31:42.882Z</time></trkpt><trkpt lat="38.63427" lon="16.1720967"><ele>132.0</ele><time>2026-05-03T15:31:43.882Z</time></trkpt><trkpt lat="38.6340833" lon="16.17175"><ele>132.0</ele><time>2026-05-03T15:31:44.882Z</time></trkpt><trkpt lat="38.6339" lon="16.1713967"><ele>132.0</ele><time>2026-05-03T15:31:45.882Z</time></trkpt><trkpt lat="38.6337117" lon="16.1710433"><ele>130.5</ele><time>2026-05-03T15:31:46.882Z</time></trkpt><trkpt lat="38.6335233" lon="16.1706883"><ele>129.0</ele><time>2026-05-03T15:31:47.882Z</time></trkpt><trkpt lat="38.6333317" lon="16.1703317"><ele>129.0</ele><time>2026-05-03T15:31:48.881Z</time></trkpt><trkpt lat="38.6331433" lon="16.1699717"><ele>129.0</ele><time>2026-05-03T15:31:49.882Z</time></trkpt><trkpt lat="38.632955" lon="16.16961"><ele>129.0</ele><time>2026-05-03T15:31:50.882Z</time></trkpt><trkpt lat="38.6327617" lon="16.1692433"><ele>129.0</ele><time>2026-05-03T15:31:51.882Z</time></trkpt><trkpt lat="38.6325683" lon="16.168875"><ele>129.0</ele><time>2026-05-03T15:31:52.882Z</time></trkpt><trkpt lat="38.6323717" lon="16.168505"><ele>129.0</ele><time>2026-05-03T15:31:53.882Z</time></trkpt><trkpt lat="38.632175" lon="16.1681517"><ele>132.5</ele><time>2026-05-03T15:31:54.882Z</time></trkpt><trkpt lat="38.63197" lon="16.1677983"><ele>136.0</ele><time>2026-05-03T15:31:55.882Z</time></trkpt><trkpt lat="38.6317633" lon="16.167445"><ele>132.5</ele><time>2026-05-03T15:31:56.882Z</time></trkpt><trkpt lat="38.6315567" lon="16.1671017"><ele>129.0</ele><time>2026-05-03T15:31:57.882Z</time></trkpt><trkpt lat="38.6313383" lon="16.16676"><ele>129.5</ele><time>2026-05-03T15:31:58.882Z</time></trkpt><trkpt lat="38.631105" lon="16.1664183"><ele>130.0</ele><time>2026-05-03T15:31:59.882Z</time></trkpt><trkpt lat="38.630865" lon="16.16608"><ele>130.0</ele><time>2026-05-03T15:32:00.882Z</time></trkpt><trkpt lat="38.6306233" lon="16.1657467"><ele>130.0</ele><time>2026-05-03T15:32:01.882Z</time></trkpt><trkpt lat="38.63038" lon="16.1654233"><ele>129.0</ele><time>2026-05-03T15:32:02.881Z</time></trkpt><trkpt lat="38.6301383" lon="16.1651083"><ele>128.0</ele><time>2026-05-03T15:32:03.882Z</time></trkpt><trkpt lat="38.62988" lon="16.1647933"><ele>127.0</ele><time>2026-05-03T15:32:04.882Z</time></trkpt><trkpt lat="38.629615" lon="16.1644917"><ele>126.0</ele><time>2026-05-03T15:32:05.882Z</time></trkpt><trkpt lat="38.6293433" lon="16.1641867"><ele>125.0</ele><time>2026-05-03T15:32:06.882Z</time></trkpt><trkpt lat="38.6290633" lon="16.1638883"><ele>124.0</ele><time>2026-05-03T15:32:07.881Z</time></trkpt><trkpt lat="38.6287883" lon="16.1635983"><ele>124.0</ele><time>2026-05-03T15:32:08.882Z</time></trkpt><trkpt lat="38.6284967" lon="16.1633217"><ele>124.0</ele><time>2026-05-03T15:32:09.882Z</time></trkpt><trkpt lat="38.6282067" lon="16.16306"><ele>123.5</ele><time>2026-05-03T15:32:10.882Z</time></trkpt><trkpt lat="38.6279083" lon="16.1628083"><ele>123.0</ele><time>2026-05-03T15:32:11.881Z</time></trkpt><trkpt lat="38.6276067" lon="16.162555"><ele>122.5</ele><time>2026-05-03T15:32:12.882Z</time></trkpt><trkpt lat="38.6273017" lon="16.1623083"><ele>122.0</ele><time>2026-05-03T15:32:13.882Z</time></trkpt><trkpt lat="38.6269767" lon="16.1620883"><ele>122.0</ele><time>2026-05-03T15:32:14.881Z</time></trkpt><trkpt lat="38.62667" lon="16.1618817"><ele>122.0</ele><time>2026-05-03T15:32:15.882Z</time></trkpt><trkpt lat="38.6263533" lon="16.16168"><ele>121.0</ele><time>2026-05-03T15:32:16.882Z</time></trkpt><trkpt lat="38.6260367" lon="16.1614883"><ele>120.0</ele><time>2026-05-03T15:32:17.881Z</time></trkpt><trkpt lat="38.6257283" lon="16.161305"><ele>120.0</ele><time>2026-05-03T15:32:18.881Z</time></trkpt><trkpt lat="38.6254233" lon="16.16114"><ele>120.0</ele><time>2026-05-03T15:32:19.882Z</time></trkpt><trkpt lat="38.6251183" lon="16.1609867"><ele>121.5</ele><time>2026-05-03T15:32:20.881Z</time></trkpt><trkpt lat="38.62483" lon="16.1608417"><ele>123.0</ele><time>2026-05-03T15:32:21.882Z</time></trkpt><trkpt lat="38.624525" lon="16.1607"><ele>121.5</ele><time>2026-05-03T15:32:22.882Z</time></trkpt><trkpt lat="38.624225" lon="16.1605733"><ele>120.0</ele><time>2026-05-03T15:32:23.882Z</time></trkpt><trkpt lat="38.6239167" lon="16.16044"><ele>122.0</ele><time>2026-05-03T15:32:24.882Z</time></trkpt><trkpt lat="38.6236167" lon="16.16032"><ele>124.0</ele><time>2026-05-03T15:32:25.881Z</time></trkpt><trkpt lat="38.62331" lon="16.1602117"><ele>124.0</ele><time>2026-05-03T15:32:26.882Z</time></trkpt><trkpt lat="38.6230133" lon="16.160105"><ele>124.0</ele><time>2026-05-03T15:32:27.882Z</time></trkpt><trkpt lat="38.6227133" lon="16.159995"><ele>124.5</ele><time>2026-05-03T15:32:28.882Z</time></trkpt><trkpt lat="38.6224083" lon="16.1598817"><ele>125.0</ele><time>2026-05-03T15:32:29.882Z</time></trkpt><trkpt lat="38.6220967" lon="16.1597667"><ele>119.5</ele><time>2026-05-03T15:32:30.882Z</time></trkpt><trkpt lat="38.621785" lon="16.1596517"><ele>114.0</ele><time>2026-05-03T15:32:31.881Z</time></trkpt><trkpt lat="38.62147" lon="16.1595367"><ele>114.0</ele><time>2026-05-03T15:32:32.882Z</time></trkpt><trkpt lat="38.621155" lon="16.1594167"><ele>114.0</ele><time>2026-05-03T15:32:33.882Z</time></trkpt><trkpt lat="38.6208483" lon="16.1592833"><ele>115.0</ele><time>2026-05-03T15:32:34.881Z</time></trkpt><trkpt lat="38.6205417" lon="16.1591467"><ele>116.0</ele><time>2026-05-03T15:32:35.882Z</time></trkpt><trkpt lat="38.6202433" lon="16.1590017"><ele>116.0</ele><time>2026-05-03T15:32:36.882Z</time></trkpt><trkpt lat="38.61994" lon="16.15885"><ele>116.0</ele><time>2026-05-03T15:32:37.881Z</time></trkpt><trkpt lat="38.6196317" lon="16.1586917"><ele>116.5</ele><time>2026-05-03T15:32:38.882Z</time></trkpt><trkpt lat="38.6193117" lon="16.1585183"><ele>117.0</ele><time>2026-05-03T15:32:39.881Z</time></trkpt><trkpt lat="38.6190033" lon="16.1583367"><ele>116.0</ele><time>2026-05-03T15:32:40.882Z</time></trkpt><trkpt lat="38.618705" lon="16.15815"><ele>115.0</ele><time>2026-05-03T15:32:41.882Z</time></trkpt><trkpt lat="38.6184133" lon="16.1579567"><ele>115.0</ele><time>2026-05-03T15:32:42.881Z</time></trkpt><trkpt lat="38.618125" lon="16.157755"><ele>115.0</ele><time>2026-05-03T15:32:43.882Z</time></trkpt><trkpt lat="38.617845" lon="16.1575417"><ele>115.5</ele><time>2026-05-03T15:32:44.881Z</time></trkpt><trkpt lat="38.617565" lon="16.15732"><ele>116.0</ele><time>2026-05-03T15:32:45.881Z</time></trkpt><trkpt lat="38.61729" lon="16.1570833"><ele>116.0</ele><time>2026-05-03T15:32:46.881Z</time></trkpt><trkpt lat="38.617015" lon="16.1568433"><ele>116.0</ele><time>2026-05-03T15:32:47.882Z</time></trkpt><trkpt lat="38.6167417" lon="16.1565917"><ele>115.0</ele><time>2026-05-03T15:32:48.882Z</time></trkpt><trkpt lat="38.6164717" lon="16.1563333"><ele>114.0</ele><time>2026-05-03T15:32:49.882Z</time></trkpt><trkpt lat="38.6161983" lon="16.1560733"><ele>114.0</ele><time>2026-05-03T15:32:50.882Z</time></trkpt><trkpt lat="38.6159283" lon="16.155805"><ele>114.0</ele><time>2026-05-03T15:32:51.881Z</time></trkpt><trkpt lat="38.615665" lon="16.1555317"><ele>114.0</ele><time>2026-05-03T15:32:52.882Z</time></trkpt><trkpt lat="38.6154017" lon="16.1552583"><ele>114.0</ele><time>2026-05-03T15:32:53.882Z</time></trkpt><trkpt lat="38.6151483" lon="16.15498"><ele>115.0</ele><time>2026-05-03T15:32:54.882Z</time></trkpt><trkpt lat="38.614895" lon="16.1547017"><ele>116.0</ele><time>2026-05-03T15:32:55.882Z</time></trkpt><trkpt lat="38.6146417" lon="16.1544233"><ele>116.0</ele><time>2026-05-03T15:32:56.881Z</time></trkpt><trkpt lat="38.614395" lon="16.1541483"><ele>116.0</ele><time>2026-05-03T15:32:57.882Z</time></trkpt><trkpt lat="38.6141433" lon="16.15387"><ele>116.0</ele><time>2026-05-03T15:32:58.881Z</time></trkpt><trkpt lat="38.61389" lon="16.1535967"><ele>116.0</ele><time>2026-05-03T15:32:59.882Z</time></trkpt><trkpt lat="38.613635" lon="16.1533233"><ele>115.0</ele><time>2026-05-03T15:33:00.882Z</time></trkpt><trkpt lat="38.613385" lon="16.153055"><ele>114.0</ele><time>2026-05-03T15:33:01.882Z</time></trkpt><trkpt lat="38.6131283" lon="16.1527867"><ele>114.0</ele><time>2026-05-03T15:33:02.882Z</time></trkpt><trkpt lat="38.6128717" lon="16.15253"><ele>114.0</ele><time>2026-05-03T15:33:03.882Z</time></trkpt><trkpt lat="38.6126217" lon="16.1522733"><ele>113.0</ele><time>2026-05-03T15:33:04.881Z</time></trkpt><trkpt lat="38.6123767" lon="16.15203"><ele>112.0</ele><time>2026-05-03T15:33:05.882Z</time></trkpt><trkpt lat="38.61212" lon="16.1517917"><ele>112.5</ele><time>2026-05-03T15:33:06.882Z</time></trkpt><trkpt lat="38.6118583" lon="16.151555"><ele>113.0</ele><time>2026-05-03T15:33:07.881Z</time></trkpt><trkpt lat="38.611595" lon="16.1513183"><ele>111.5</ele><time>2026-05-03T15:33:08.882Z</time></trkpt><trkpt lat="38.6113217" lon="16.1510767"><ele>110.0</ele><time>2026-05-03T15:33:09.882Z</time></trkpt><trkpt lat="38.611045" lon="16.150835"><ele>111.0</ele><time>2026-05-03T15:33:10.882Z</time></trkpt><trkpt lat="38.61075" lon="16.1505967"><ele>112.0</ele><time>2026-05-03T15:33:11.882Z</time></trkpt><trkpt lat="38.610445" lon="16.15035"><ele>111.5</ele><time>2026-05-03T15:33:12.882Z</time></trkpt><trkpt lat="38.6101317" lon="16.1501"><ele>111.0</ele><time>2026-05-03T15:33:13.882Z</time></trkpt><trkpt lat="38.6098183" lon="16.1498567"><ele>112.0</ele><time>2026-05-03T15:33:14.882Z</time></trkpt><trkpt lat="38.6095167" lon="16.1496283"><ele>113.0</ele><time>2026-05-03T15:33:15.882Z</time></trkpt><trkpt lat="38.6092167" lon="16.1494083"><ele>113.0</ele><time>2026-05-03T15:33:16.882Z</time></trkpt><trkpt lat="38.6089167" lon="16.1491933"><ele>113.0</ele><time>2026-05-03T15:33:17.882Z</time></trkpt><trkpt lat="38.6086167" lon="16.1489783"><ele>115.0</ele><time>2026-05-03T15:33:18.881Z</time></trkpt><trkpt lat="38.6083183" lon="16.1487533"><ele>117.0</ele><time>2026-05-03T15:33:19.882Z</time></trkpt><trkpt lat="38.608015" lon="16.14853"><ele>114.5</ele><time>2026-05-03T15:33:20.882Z</time></trkpt><trkpt lat="38.6077133" lon="16.1483017"><ele>112.0</ele><time>2026-05-03T15:33:21.882Z</time></trkpt><trkpt lat="38.6074167" lon="16.1480717"><ele>112.0</ele><time>2026-05-03T15:33:22.881Z</time></trkpt><trkpt lat="38.607125" lon="16.147845"><ele>112.0</ele><time>2026-05-03T15:33:23.881Z</time></trkpt><trkpt lat="38.6068267" lon="16.1476233"><ele>112.0</ele><time>2026-05-03T15:33:24.882Z</time></trkpt><trkpt lat="38.6065317" lon="16.1474033"><ele>112.0</ele><time>2026-05-03T15:33:25.882Z</time></trkpt><trkpt lat="38.60624" lon="16.147185"><ele>114.5</ele><time>2026-05-03T15:33:26.882Z</time></trkpt><trkpt lat="38.60594" lon="16.1469667"><ele>117.0</ele><time>2026-05-03T15:33:27.882Z</time></trkpt><trkpt lat="38.6056467" lon="16.14674"><ele>116.5</ele><time>2026-05-03T15:33:28.882Z</time></trkpt><trkpt lat="38.6053583" lon="16.1465067"><ele>116.0</ele><time>2026-05-03T15:33:29.881Z</time></trkpt><trkpt lat="38.6050767" lon="16.1462567"><ele>116.0</ele><time>2026-05-03T15:33:30.882Z</time></trkpt><trkpt lat="38.6047967" lon="16.1459967"><ele>116.0</ele><time>2026-05-03T15:33:31.882Z</time></trkpt><trkpt lat="38.6045183" lon="16.1457283"><ele>113.0</ele><time>2026-05-03T15:33:32.882Z</time></trkpt><trkpt lat="38.6042517" lon="16.145445"><ele>110.0</ele><time>2026-05-03T15:33:33.882Z</time></trkpt><trkpt lat="38.60399" lon="16.14515"><ele>110.5</ele><time>2026-05-03T15:33:34.882Z</time></trkpt><trkpt lat="38.60372" lon="16.1448567"><ele>111.0</ele><time>2026-05-03T15:33:35.881Z</time></trkpt><trkpt lat="38.603445" lon="16.144565"><ele>111.0</ele><time>2026-05-03T15:33:36.881Z</time></trkpt><trkpt lat="38.6031783" lon="16.1442667"><ele>111.0</ele><time>2026-05-03T15:33:37.881Z</time></trkpt><trkpt lat="38.6029033" lon="16.14397"><ele>109.5</ele><time>2026-05-03T15:33:38.882Z</time></trkpt><trkpt lat="38.602625" lon="16.1436817"><ele>108.0</ele><time>2026-05-03T15:33:39.882Z</time></trkpt><trkpt lat="38.60235" lon="16.1434067"><ele>108.0</ele><time>2026-05-03T15:33:40.882Z</time></trkpt><trkpt lat="38.6020767" lon="16.1431367"><ele>108.0</ele><time>2026-05-03T15:33:41.881Z</time></trkpt><trkpt lat="38.6017983" lon="16.142875"><ele>107.5</ele><time>2026-05-03T15:33:42.882Z</time></trkpt><trkpt lat="38.6015183" lon="16.1426233"><ele>107.0</ele><time>2026-05-03T15:33:43.882Z</time></trkpt><trkpt lat="38.6012367" lon="16.1423817"><ele>107.5</ele><time>2026-05-03T15:33:44.882Z</time></trkpt><trkpt lat="38.600955" lon="16.1421433"><ele>108.0</ele><time>2026-05-03T15:33:45.882Z</time></trkpt><trkpt lat="38.6006767" lon="16.1419067"><ele>108.0</ele><time>2026-05-03T15:33:46.882Z</time></trkpt><trkpt lat="38.6003917" lon="16.1416817"><ele>108.0</ele><time>2026-05-03T15:33:47.882Z</time></trkpt><trkpt lat="38.600105" lon="16.1414517"><ele>114.0</ele><time>2026-05-03T15:33:48.882Z</time></trkpt><trkpt lat="38.5998217" lon="16.1412233"><ele>120.0</ele><time>2026-05-03T15:33:49.882Z</time></trkpt><trkpt lat="38.599535" lon="16.1409917"><ele>121.0</ele><time>2026-05-03T15:33:50.882Z</time></trkpt><trkpt lat="38.5992583" lon="16.1407583"><ele>122.0</ele><time>2026-05-03T15:33:51.881Z</time></trkpt><trkpt lat="38.59898" lon="16.1405367"><ele>122.0</ele><time>2026-05-03T15:33:52.882Z</time></trkpt><trkpt lat="38.5986983" lon="16.1403133"><ele>122.0</ele><time>2026-05-03T15:33:53.882Z</time></trkpt><trkpt lat="38.5984233" lon="16.1400983"><ele>121.5</ele><time>2026-05-03T15:33:54.882Z</time></trkpt><trkpt lat="38.598145" lon="16.13988"><ele>121.0</ele><time>2026-05-03T15:33:55.882Z</time></trkpt><trkpt lat="38.59786" lon="16.139665"><ele>117.0</ele><time>2026-05-03T15:33:56.882Z</time></trkpt><trkpt lat="38.5975817" lon="16.1394483"><ele>113.0</ele><time>2026-05-03T15:33:57.882Z</time></trkpt><trkpt lat="38.5973083" lon="16.1392283"><ele>110.5</ele><time>2026-05-03T15:33:58.882Z</time></trkpt><trkpt lat="38.59704" lon="16.1390083"><ele>108.0</ele><time>2026-05-03T15:33:59.882Z</time></trkpt><trkpt lat="38.596765" lon="16.1387933"><ele>108.0</ele><time>2026-05-03T15:34:00.882Z</time></trkpt><trkpt lat="38.596485" lon="16.1385833"><ele>108.0</ele><time>2026-05-03T15:34:01.882Z</time></trkpt><trkpt lat="38.5961967" lon="16.1383783"><ele>109.0</ele><time>2026-05-03T15:34:02.882Z</time></trkpt><trkpt lat="38.5959" lon="16.13819"><ele>110.0</ele><time>2026-05-03T15:34:03.881Z</time></trkpt><trkpt lat="38.5955967" lon="16.138005"><ele>106.5</ele><time>2026-05-03T15:34:04.881Z</time></trkpt><trkpt lat="38.5952917" lon="16.137835"><ele>103.0</ele><time>2026-05-03T15:34:05.882Z</time></trkpt><trkpt lat="38.5949817" lon="16.137675"><ele>103.0</ele><time>2026-05-03T15:34:06.882Z</time></trkpt><trkpt lat="38.59467" lon="16.1375267"><ele>103.0</ele><time>2026-05-03T15:34:07.882Z</time></trkpt><trkpt lat="38.5943517" lon="16.1373917"><ele>103.0</ele><time>2026-05-03T15:34:08.882Z</time></trkpt><trkpt lat="38.5940367" lon="16.1372583"><ele>103.0</ele><time>2026-05-03T15:34:09.882Z</time></trkpt><trkpt lat="38.593715" lon="16.13714"><ele>105.0</ele><time>2026-05-03T15:34:10.882Z</time></trkpt><trkpt lat="38.5933917" lon="16.1370367"><ele>107.0</ele><time>2026-05-03T15:34:11.882Z</time></trkpt><trkpt lat="38.5930667" lon="16.13695"><ele>106.0</ele><time>2026-05-03T15:34:12.881Z</time></trkpt><trkpt lat="38.5927383" lon="16.1368733"><ele>105.0</ele><time>2026-05-03T15:34:13.881Z</time></trkpt><trkpt lat="38.59241" lon="16.1368017"><ele>105.0</ele><time>2026-05-03T15:34:14.881Z</time></trkpt><trkpt lat="38.592075" lon="16.136745"><ele>105.0</ele><time>2026-05-03T15:34:15.882Z</time></trkpt><trkpt lat="38.5917367" lon="16.1366833"><ele>104.0</ele><time>2026-05-03T15:34:16.881Z</time></trkpt><trkpt lat="38.5913917" lon="16.1366283"><ele>103.0</ele><time>2026-05-03T15:34:17.882Z</time></trkpt><trkpt lat="38.5910417" lon="16.1365717"><ele>110.5</ele><time>2026-05-03T15:34:18.881Z</time></trkpt><trkpt lat="38.5906967" lon="16.1365117"><ele>118.0</ele><time>2026-05-03T15:34:19.881Z</time></trkpt><trkpt lat="38.5903533" lon="16.1364467"><ele>118.0</ele><time>2026-05-03T15:34:20.882Z</time></trkpt><trkpt lat="38.59001" lon="16.136385"><ele>118.0</ele><time>2026-05-03T15:34:21.881Z</time></trkpt><trkpt lat="38.58967" lon="16.1363067"><ele>113.0</ele><time>2026-05-03T15:34:22.881Z</time></trkpt><trkpt lat="38.5893383" lon="16.1362233"><ele>108.0</ele><time>2026-05-03T15:34:23.882Z</time></trkpt><trkpt lat="38.5889983" lon="16.1361367"><ele>106.0</ele><time>2026-05-03T15:34:24.881Z</time></trkpt><trkpt lat="38.5886617" lon="16.1360467"><ele>104.0</ele><time>2026-05-03T15:34:25.882Z</time></trkpt><trkpt lat="38.5883267" lon="16.1359417"><ele>104.0</ele><time>2026-05-03T15:34:26.882Z</time></trkpt><trkpt lat="38.5879917" lon="16.1358283"><ele>104.0</ele><time>2026-05-03T15:34:27.881Z</time></trkpt><trkpt lat="38.5876633" lon="16.1357083"><ele>107.5</ele><time>2026-05-03T15:34:28.882Z</time></trkpt><trkpt lat="38.58733" lon="16.1355783"><ele>111.0</ele><time>2026-05-03T15:34:29.882Z</time></trkpt><trkpt lat="38.587" lon="16.135435"><ele>111.0</ele><time>2026-05-03T15:34:30.882Z</time></trkpt><trkpt lat="38.5866783" lon="16.1352783"><ele>111.0</ele><time>2026-05-03T15:34:31.882Z</time></trkpt><trkpt lat="38.58636" lon="16.1351133"><ele>113.0</ele><time>2026-05-03T15:34:32.882Z</time></trkpt><trkpt lat="38.5860433" lon="16.134935"><ele>115.0</ele><time>2026-05-03T15:34:33.882Z</time></trkpt><trkpt lat="38.585725" lon="16.1347383"><ele>115.0</ele><time>2026-05-03T15:34:34.881Z</time></trkpt><trkpt lat="38.58541" lon="16.1345317"><ele>115.0</ele><time>2026-05-03T15:34:35.881Z</time></trkpt><trkpt lat="38.5851033" lon="16.1343083"><ele>109.5</ele><time>2026-05-03T15:34:36.882Z</time></trkpt><trkpt lat="38.5847967" lon="16.1340833"><ele>104.0</ele><time>2026-05-03T15:34:37.882Z</time></trkpt><trkpt lat="38.5845033" lon="16.13385"><ele>103.0</ele><time>2026-05-03T15:34:38.882Z</time></trkpt><trkpt lat="38.5842133" lon="16.13361"><ele>102.0</ele><time>2026-05-03T15:34:39.882Z</time></trkpt><trkpt lat="38.58393" lon="16.1333533"><ele>99.5</ele><time>2026-05-03T15:34:40.882Z</time></trkpt><trkpt lat="38.583655" lon="16.133075"><ele>97.0</ele><time>2026-05-03T15:34:41.881Z</time></trkpt><trkpt lat="38.5833867" lon="16.132795"><ele>97.0</ele><time>2026-05-03T15:34:42.881Z</time></trkpt><trkpt lat="38.583125" lon="16.1325083"><ele>97.0</ele><time>2026-05-03T15:34:43.882Z</time></trkpt><trkpt lat="38.5828683" lon="16.1322167"><ele>97.0</ele><time>2026-05-03T15:34:44.882Z</time></trkpt><trkpt lat="38.5826183" lon="16.1319167"><ele>97.0</ele><time>2026-05-03T15:34:45.882Z</time></trkpt><trkpt lat="38.5823733" lon="16.1316017"><ele>97.0</ele><time>2026-05-03T15:34:46.881Z</time></trkpt><trkpt lat="38.5821367" lon="16.1312783"><ele>97.0</ele><time>2026-05-03T15:34:47.881Z</time></trkpt><trkpt lat="38.5819117" lon="16.1309433"><ele>96.5</ele><time>2026-05-03T15:34:48.881Z</time></trkpt><trkpt lat="38.5816933" lon="16.1305983"><ele>96.0</ele><time>2026-05-03T15:34:49.881Z</time></trkpt><trkpt lat="38.5814767" lon="16.1302467"><ele>100.0</ele><time>2026-05-03T15:34:50.882Z</time></trkpt><trkpt lat="38.5812617" lon="16.1298767"><ele>104.0</ele><time>2026-05-03T15:34:51.882Z</time></trkpt><trkpt lat="38.5810633" lon="16.129495"><ele>104.0</ele><time>2026-05-03T15:34:52.882Z</time></trkpt><trkpt lat="38.5808767" lon="16.1291033"><ele>104.0</ele><time>2026-05-03T15:34:53.882Z</time></trkpt><trkpt lat="38.5806967" lon="16.1287167"><ele>106.5</ele><time>2026-05-03T15:34:54.881Z</time></trkpt><trkpt lat="38.580515" lon="16.1283267"><ele>109.0</ele><time>2026-05-03T15:34:55.882Z</time></trkpt><trkpt lat="38.5803367" lon="16.1279367"><ele>109.0</ele><time>2026-05-03T15:34:56.882Z</time></trkpt><trkpt lat="38.5801567" lon="16.1275433"><ele>109.0</ele><time>2026-05-03T15:34:57.882Z</time></trkpt><trkpt lat="38.5799783" lon="16.12716"><ele>109.0</ele><time>2026-05-03T15:34:58.882Z</time></trkpt><trkpt lat="38.57981" lon="16.12678"><ele>109.0</ele><time>2026-05-03T15:34:59.882Z</time></trkpt><trkpt lat="38.5796533" lon="16.1264017"><ele>105.5</ele><time>2026-05-03T15:35:00.881Z</time></trkpt><trkpt lat="38.5794883" lon="16.12603"><ele>102.0</ele><time>2026-05-03T15:35:01.882Z</time></trkpt><trkpt lat="38.5793367" lon="16.1256717"><ele>102.0</ele><time>2026-05-03T15:35:02.882Z</time></trkpt><trkpt lat="38.579185" lon="16.1253183"><ele>102.0</ele><time>2026-05-03T15:35:03.882Z</time></trkpt><trkpt lat="38.579035" lon="16.1249717"><ele>106.5</ele><time>2026-05-03T15:35:04.882Z</time></trkpt><trkpt lat="38.5788883" lon="16.1246333"><ele>111.0</ele><time>2026-05-03T15:35:05.882Z</time></trkpt><trkpt lat="38.5787433" lon="16.1243"><ele>109.5</ele><time>2026-05-03T15:35:06.882Z</time></trkpt><trkpt lat="38.5786" lon="16.1239683"><ele>108.0</ele><time>2026-05-03T15:35:07.882Z</time></trkpt><trkpt lat="38.5784567" lon="16.1236317"><ele>108.0</ele><time>2026-05-03T15:35:08.881Z</time></trkpt><trkpt lat="38.57831" lon="16.1233"><ele>108.0</ele><time>2026-05-03T15:35:09.882Z</time></trkpt><trkpt lat="38.5781667" lon="16.1229633"><ele>111.0</ele><time>2026-05-03T15:35:10.882Z</time></trkpt><trkpt lat="38.5780233" lon="16.1226317"><ele>114.0</ele><time>2026-05-03T15:35:11.882Z</time></trkpt><trkpt lat="38.5778833" lon="16.1223"><ele>113.5</ele><time>2026-05-03T15:35:12.882Z</time></trkpt><trkpt lat="38.5777467" lon="16.1219717"><ele>113.0</ele><time>2026-05-03T15:35:13.882Z</time></trkpt><trkpt lat="38.577605" lon="16.1216333"><ele>115.0</ele><time>2026-05-03T15:35:14.881Z</time></trkpt><trkpt lat="38.577465" lon="16.12129"><ele>117.0</ele><time>2026-05-03T15:35:15.882Z</time></trkpt><trkpt lat="38.577325" lon="16.1209483"><ele>121.0</ele><time>2026-05-03T15:35:16.881Z</time></trkpt><trkpt lat="38.5771783" lon="16.1206117"><ele>125.0</ele><time>2026-05-03T15:35:17.881Z</time></trkpt><trkpt lat="38.5770367" lon="16.1202783"><ele>124.5</ele><time>2026-05-03T15:35:18.882Z</time></trkpt><trkpt lat="38.576885" lon="16.11995"><ele>124.0</ele><time>2026-05-03T15:35:19.882Z</time></trkpt><trkpt lat="38.5767383" lon="16.1196183"><ele>95.0</ele><time>2026-05-03T15:35:20.882Z</time></trkpt><trkpt lat="38.5747883" lon="16.1104083"><ele>95.0</ele><time>2026-05-03T15:35:40.882Z</time></trkpt><trkpt lat="38.5747117" lon="16.109945"><ele>95.0</ele><time>2026-05-03T15:35:41.881Z</time></trkpt><trkpt lat="38.5746617" lon="16.10949"><ele>101.5</ele><time>2026-05-03T15:35:42.882Z</time></trkpt><trkpt lat="38.5746117" lon="16.1090483"><ele>108.0</ele><time>2026-05-03T15:35:43.881Z</time></trkpt><trkpt lat="38.5745583" lon="16.1086033"><ele>98.0</ele><time>2026-05-03T15:35:44.882Z</time></trkpt><trkpt lat="38.574515" lon="16.1081617"><ele>88.0</ele><time>2026-05-03T15:35:45.882Z</time></trkpt><trkpt lat="38.574455" lon="16.10773"><ele>88.5</ele><time>2026-05-03T15:35:46.882Z</time></trkpt><trkpt lat="38.5744183" lon="16.1073033"><ele>89.0</ele><time>2026-05-03T15:35:47.882Z</time></trkpt><trkpt lat="38.5743933" lon="16.1068783"><ele>92.0</ele><time>2026-05-03T15:35:48.881Z</time></trkpt><trkpt lat="38.57437" lon="16.106465"><ele>95.0</ele><time>2026-05-03T15:35:49.882Z</time></trkpt><trkpt lat="38.5743417" lon="16.10605"><ele>93.5</ele><time>2026-05-03T15:35:50.882Z</time></trkpt><trkpt lat="38.5743083" lon="16.105635"><ele>92.0</ele><time>2026-05-03T15:35:51.882Z</time></trkpt><trkpt lat="38.5742733" lon="16.1052217"><ele>90.5</ele><time>2026-05-03T15:35:52.882Z</time></trkpt><trkpt lat="38.5742333" lon="16.1048217"><ele>89.0</ele><time>2026-05-03T15:35:53.882Z</time></trkpt><trkpt lat="38.5741967" lon="16.1044383"><ele>88.0</ele><time>2026-05-03T15:35:54.882Z</time></trkpt><trkpt lat="38.5741633" lon="16.104045"><ele>87.0</ele><time>2026-05-03T15:35:55.882Z</time></trkpt><trkpt lat="38.574135" lon="16.103655"><ele>87.0</ele><time>2026-05-03T15:35:56.882Z</time></trkpt><trkpt lat="38.5740967" lon="16.1032583"><ele>87.0</ele><time>2026-05-03T15:35:57.882Z</time></trkpt><trkpt lat="38.5740583" lon="16.10286"><ele>86.5</ele><time>2026-05-03T15:35:58.881Z</time></trkpt><trkpt lat="38.57402" lon="16.10246"><ele>86.0</ele><time>2026-05-03T15:35:59.882Z</time></trkpt><trkpt lat="38.5739767" lon="16.10206"><ele>86.0</ele><time>2026-05-03T15:36:00.882Z</time></trkpt><trkpt lat="38.5739383" lon="16.1016517"><ele>86.0</ele><time>2026-05-03T15:36:01.882Z</time></trkpt><trkpt lat="38.5739067" lon="16.1012417"><ele>94.0</ele><time>2026-05-03T15:36:02.882Z</time></trkpt><trkpt lat="38.5738683" lon="16.1008167"><ele>102.0</ele><time>2026-05-03T15:36:03.882Z</time></trkpt><trkpt lat="38.5738283" lon="16.10039"><ele>101.0</ele><time>2026-05-03T15:36:04.881Z</time></trkpt><trkpt lat="38.5737883" lon="16.0999667"><ele>100.0</ele><time>2026-05-03T15:36:05.881Z</time></trkpt><trkpt lat="38.5737517" lon="16.0995517"><ele>100.0</ele><time>2026-05-03T15:36:06.882Z</time></trkpt><trkpt lat="38.57372" lon="16.0991333"><ele>100.0</ele><time>2026-05-03T15:36:07.882Z</time></trkpt><trkpt lat="38.5736833" lon="16.0987117"><ele>92.5</ele><time>2026-05-03T15:36:08.882Z</time></trkpt><trkpt lat="38.5736517" lon="16.0983183"><ele>85.0</ele><time>2026-05-03T15:36:09.882Z</time></trkpt><trkpt lat="38.57361" lon="16.0979133"><ele>85.0</ele><time>2026-05-03T15:36:10.882Z</time></trkpt><trkpt lat="38.5735583" lon="16.0974917"><ele>85.0</ele><time>2026-05-03T15:36:11.881Z</time></trkpt><trkpt lat="38.5735117" lon="16.0970783"><ele>86.0</ele><time>2026-05-03T15:36:12.881Z</time></trkpt><trkpt lat="38.5734567" lon="16.0966717"><ele>87.0</ele><time>2026-05-03T15:36:13.882Z</time></trkpt><trkpt lat="38.57339" lon="16.096275"><ele>88.5</ele><time>2026-05-03T15:36:14.882Z</time></trkpt><trkpt lat="38.5733133" lon="16.0958783"><ele>90.0</ele><time>2026-05-03T15:36:15.882Z</time></trkpt><trkpt lat="38.5732317" lon="16.0954783"><ele>93.0</ele><time>2026-05-03T15:36:16.882Z</time></trkpt><trkpt lat="38.5731383" lon="16.0950917"><ele>96.0</ele><time>2026-05-03T15:36:17.881Z</time></trkpt><trkpt lat="38.57304" lon="16.094705"><ele>97.0</ele><time>2026-05-03T15:36:18.881Z</time></trkpt><trkpt lat="38.5729233" lon="16.0943283"><ele>98.0</ele><time>2026-05-03T15:36:19.882Z</time></trkpt><trkpt lat="38.5728" lon="16.09396"><ele>98.0</ele><time>2026-05-03T15:36:20.882Z</time></trkpt><trkpt lat="38.5726833" lon="16.0935933"><ele>98.0</ele><time>2026-05-03T15:36:21.882Z</time></trkpt><trkpt lat="38.5725517" lon="16.0932333"><ele>103.0</ele><time>2026-05-03T15:36:22.882Z</time></trkpt><trkpt lat="38.57241" lon="16.0928717"><ele>108.0</ele><time>2026-05-03T15:36:23.882Z</time></trkpt><trkpt lat="38.5722717" lon="16.0925217"><ele>109.5</ele><time>2026-05-03T15:36:24.881Z</time></trkpt><trkpt lat="38.572135" lon="16.09218"><ele>111.0</ele><time>2026-05-03T15:36:25.882Z</time></trkpt><trkpt lat="38.572" lon="16.0918383"><ele>86.0</ele><time>2026-05-03T15:36:26.882Z</time></trkpt><trkpt lat="38.5715583" lon="16.0911467"><ele>86.0</ele><time>2026-05-03T15:36:28.883Z</time></trkpt><trkpt lat="38.5713083" lon="16.0908"><ele>86.0</ele><time>2026-05-03T15:36:29.883Z</time></trkpt><trkpt lat="38.571075" lon="16.09048"><ele>89.0</ele><time>2026-05-03T15:36:30.883Z</time></trkpt><trkpt lat="38.57083" lon="16.09016"><ele>92.0</ele><time>2026-05-03T15:36:31.883Z</time></trkpt><trkpt lat="38.5705833" lon="16.08985"><ele>88.5</ele><time>2026-05-03T15:36:32.883Z</time></trkpt><trkpt lat="38.57034" lon="16.089545"><ele>85.0</ele><time>2026-05-03T15:36:33.883Z</time></trkpt><trkpt lat="38.5700733" lon="16.089255"><ele>85.5</ele><time>2026-05-03T15:36:34.882Z</time></trkpt><trkpt lat="38.5698033" lon="16.0889733"><ele>86.0</ele><time>2026-05-03T15:36:35.882Z</time></trkpt><trkpt lat="38.5695283" lon="16.0887"><ele>86.5</ele><time>2026-05-03T15:36:36.883Z</time></trkpt><trkpt lat="38.569255" lon="16.0884267"><ele>87.0</ele><time>2026-05-03T15:36:37.883Z</time></trkpt><trkpt lat="38.5689883" lon="16.08815"><ele>87.0</ele><time>2026-05-03T15:36:38.883Z</time></trkpt><trkpt lat="38.5687217" lon="16.0878633"><ele>87.0</ele><time>2026-05-03T15:36:39.883Z</time></trkpt><trkpt lat="38.56845" lon="16.0875883"><ele>89.0</ele><time>2026-05-03T15:36:40.883Z</time></trkpt><trkpt lat="38.5681783" lon="16.0873167"><ele>91.0</ele><time>2026-05-03T15:36:41.883Z</time></trkpt><trkpt lat="38.567915" lon="16.0870283"><ele>92.0</ele><time>2026-05-03T15:36:42.883Z</time></trkpt><trkpt lat="38.5676567" lon="16.0867233"><ele>93.0</ele><time>2026-05-03T15:36:43.883Z</time></trkpt><trkpt lat="38.5674083" lon="16.08641"><ele>93.0</ele><time>2026-05-03T15:36:44.883Z</time></trkpt><trkpt lat="38.5671667" lon="16.0860917"><ele>93.0</ele><time>2026-05-03T15:36:45.883Z</time></trkpt><trkpt lat="38.5669333" lon="16.0857633"><ele>88.5</ele><time>2026-05-03T15:36:46.882Z</time></trkpt><trkpt lat="38.5667067" lon="16.0854233"><ele>84.0</ele><time>2026-05-03T15:36:47.883Z</time></trkpt><trkpt lat="38.5664917" lon="16.08508"><ele>86.0</ele><time>2026-05-03T15:36:48.882Z</time></trkpt><trkpt lat="38.5662817" lon="16.084725"><ele>88.0</ele><time>2026-05-03T15:36:49.883Z</time></trkpt><trkpt lat="38.566085" lon="16.0843583"><ele>84.0</ele><time>2026-05-03T15:36:50.883Z</time></trkpt><trkpt lat="38.5658983" lon="16.0839833"><ele>80.0</ele><time>2026-05-03T15:36:51.882Z</time></trkpt><trkpt lat="38.5657233" lon="16.0836033"><ele>85.5</ele><time>2026-05-03T15:36:52.883Z</time></trkpt><trkpt lat="38.565555" lon="16.0832267"><ele>91.0</ele><time>2026-05-03T15:36:53.883Z</time></trkpt><trkpt lat="38.5653917" lon="16.0828383"><ele>87.0</ele><time>2026-05-03T15:36:54.883Z</time></trkpt><trkpt lat="38.565225" lon="16.0824567"><ele>83.0</ele><time>2026-05-03T15:36:55.882Z</time></trkpt><trkpt lat="38.5650617" lon="16.0820817"><ele>82.0</ele><time>2026-05-03T15:36:56.882Z</time></trkpt><trkpt lat="38.564905" lon="16.0817067"><ele>81.0</ele><time>2026-05-03T15:36:57.883Z</time></trkpt><trkpt lat="38.5647483" lon="16.08134"><ele>78.5</ele><time>2026-05-03T15:36:58.882Z</time></trkpt><trkpt lat="38.5645917" lon="16.0809883"><ele>76.0</ele><time>2026-05-03T15:36:59.882Z</time></trkpt><trkpt lat="38.5644467" lon="16.0806233"><ele>76.0</ele><time>2026-05-03T15:37:00.883Z</time></trkpt><trkpt lat="38.5642983" lon="16.0802567"><ele>76.0</ele><time>2026-05-03T15:37:01.883Z</time></trkpt><trkpt lat="38.5641533" lon="16.079885"><ele>77.0</ele><time>2026-05-03T15:37:02.883Z</time></trkpt><trkpt lat="38.5640133" lon="16.0795"><ele>78.0</ele><time>2026-05-03T15:37:03.882Z</time></trkpt><trkpt lat="38.5638733" lon="16.0791233"><ele>75.5</ele><time>2026-05-03T15:37:04.883Z</time></trkpt><trkpt lat="38.5637467" lon="16.078745"><ele>73.0</ele><time>2026-05-03T15:37:05.883Z</time></trkpt><trkpt lat="38.5636167" lon="16.0783617"><ele>76.5</ele><time>2026-05-03T15:37:06.883Z</time></trkpt><trkpt lat="38.5634933" lon="16.0779767"><ele>80.0</ele><time>2026-05-03T15:37:07.883Z</time></trkpt><trkpt lat="38.563375" lon="16.0776"><ele>82.0</ele><time>2026-05-03T15:37:08.882Z</time></trkpt><trkpt lat="38.5632417" lon="16.0772283"><ele>84.0</ele><time>2026-05-03T15:37:09.882Z</time></trkpt><trkpt lat="38.5631" lon="16.0768567"><ele>83.5</ele><time>2026-05-03T15:37:10.883Z</time></trkpt><trkpt lat="38.562955" lon="16.0764767"><ele>83.0</ele><time>2026-05-03T15:37:11.883Z</time></trkpt><trkpt lat="38.5627983" lon="16.07611"><ele>82.5</ele><time>2026-05-03T15:37:12.882Z</time></trkpt><trkpt lat="38.5626433" lon="16.075745"><ele>82.0</ele><time>2026-05-03T15:37:13.883Z</time></trkpt><trkpt lat="38.5624767" lon="16.0753833"><ele>82.0</ele><time>2026-05-03T15:37:14.883Z</time></trkpt><trkpt lat="38.5622917" lon="16.0750167"><ele>82.0</ele><time>2026-05-03T15:37:15.883Z</time></trkpt><trkpt lat="38.5620883" lon="16.0746633"><ele>83.5</ele><time>2026-05-03T15:37:16.883Z</time></trkpt><trkpt lat="38.5618667" lon="16.074305"><ele>85.0</ele><time>2026-05-03T15:37:17.883Z</time></trkpt><trkpt lat="38.56163" lon="16.0739483"><ele>85.0</ele><time>2026-05-03T15:37:18.883Z</time></trkpt><trkpt lat="38.5613867" lon="16.0735967"><ele>85.0</ele><time>2026-05-03T15:37:19.883Z</time></trkpt><trkpt lat="38.5611333" lon="16.07325"><ele>85.5</ele><time>2026-05-03T15:37:20.883Z</time></trkpt><trkpt lat="38.56087" lon="16.07293"><ele>86.0</ele><time>2026-05-03T15:37:21.883Z</time></trkpt><trkpt lat="38.5605983" lon="16.0726233"><ele>83.0</ele><time>2026-05-03T15:37:22.882Z</time></trkpt><trkpt lat="38.5603083" lon="16.0723367"><ele>80.0</ele><time>2026-05-03T15:37:23.883Z</time></trkpt><trkpt lat="38.5600133" lon="16.07207"><ele>80.0</ele><time>2026-05-03T15:37:24.883Z</time></trkpt><trkpt lat="38.55971" lon="16.0718183"><ele>80.0</ele><time>2026-05-03T15:37:25.882Z</time></trkpt><trkpt lat="38.5593967" lon="16.071595"><ele>81.5</ele><time>2026-05-03T15:37:26.883Z</time></trkpt><trkpt lat="38.5590833" lon="16.0713817"><ele>83.0</ele><time>2026-05-03T15:37:27.883Z</time></trkpt><trkpt lat="38.55876" lon="16.07118"><ele>77.5</ele><time>2026-05-03T15:37:28.883Z</time></trkpt><trkpt lat="38.5584267" lon="16.070995"><ele>72.0</ele><time>2026-05-03T15:37:29.882Z</time></trkpt><trkpt lat="38.5581" lon="16.0708217"><ele>71.0</ele><time>2026-05-03T15:37:30.883Z</time></trkpt><trkpt lat="38.5577733" lon="16.07067"><ele>70.0</ele><time>2026-05-03T15:37:31.883Z</time></trkpt><trkpt lat="38.5574283" lon="16.0705433"><ele>70.0</ele><time>2026-05-03T15:37:32.883Z</time></trkpt><trkpt lat="38.5570817" lon="16.0704317"><ele>70.0</ele><time>2026-05-03T15:37:33.883Z</time></trkpt><trkpt lat="38.5567367" lon="16.0703333"><ele>69.5</ele><time>2026-05-03T15:37:34.883Z</time></trkpt><trkpt lat="38.5563867" lon="16.0702483"><ele>69.0</ele><time>2026-05-03T15:37:35.882Z</time></trkpt><trkpt lat="38.5560367" lon="16.07018"><ele>69.0</ele><time>2026-05-03T15:37:36.883Z</time></trkpt><trkpt lat="38.5556917" lon="16.0701217"><ele>69.0</ele><time>2026-05-03T15:37:37.883Z</time></trkpt><trkpt lat="38.55535" lon="16.0700733"><ele>69.5</ele><time>2026-05-03T15:37:38.883Z</time></trkpt><trkpt lat="38.5550083" lon="16.07004"><ele>70.0</ele><time>2026-05-03T15:37:39.883Z</time></trkpt><trkpt lat="38.554665" lon="16.0700033"><ele>70.0</ele><time>2026-05-03T15:37:40.883Z</time></trkpt><trkpt lat="38.55432" lon="16.0699633"><ele>70.0</ele><time>2026-05-03T15:37:41.883Z</time></trkpt><trkpt lat="38.5539733" lon="16.0699283"><ele>81.5</ele><time>2026-05-03T15:37:42.882Z</time></trkpt><trkpt lat="38.5536217" lon="16.0698917"><ele>93.0</ele><time>2026-05-03T15:37:43.883Z</time></trkpt><trkpt lat="38.55327" lon="16.0698333"><ele>93.0</ele><time>2026-05-03T15:37:44.883Z</time></trkpt><trkpt lat="38.5529217" lon="16.069755"><ele>93.0</ele><time>2026-05-03T15:37:45.883Z</time></trkpt><trkpt lat="38.5525833" lon="16.0696567"><ele>94.5</ele><time>2026-05-03T15:37:46.883Z</time></trkpt><trkpt lat="38.5522417" lon="16.069545"><ele>96.0</ele><time>2026-05-03T15:37:47.883Z</time></trkpt><trkpt lat="38.5518967" lon="16.0694133"><ele>93.0</ele><time>2026-05-03T15:37:48.883Z</time></trkpt><trkpt lat="38.5515533" lon="16.069275"><ele>90.0</ele><time>2026-05-03T15:37:49.882Z</time></trkpt><trkpt lat="38.5512217" lon="16.0691067"><ele>91.0</ele><time>2026-05-03T15:37:50.883Z</time></trkpt><trkpt lat="38.5508933" lon="16.0689317"><ele>92.0</ele><time>2026-05-03T15:37:51.882Z</time></trkpt><trkpt lat="38.55056" lon="16.068745"><ele>84.0</ele><time>2026-05-03T15:37:52.883Z</time></trkpt><trkpt lat="38.55022" lon="16.0685533"><ele>76.0</ele><time>2026-05-03T15:37:53.882Z</time></trkpt><trkpt lat="38.5498867" lon="16.0683517"><ele>79.5</ele><time>2026-05-03T15:37:54.883Z</time></trkpt><trkpt lat="38.5495567" lon="16.0681467"><ele>83.0</ele><time>2026-05-03T15:37:55.882Z</time></trkpt><trkpt lat="38.5492333" lon="16.067935"><ele>85.5</ele><time>2026-05-03T15:37:56.883Z</time></trkpt><trkpt lat="38.5489217" lon="16.0677283"><ele>88.0</ele><time>2026-05-03T15:37:57.883Z</time></trkpt><trkpt lat="38.5486083" lon="16.0675267"><ele>87.0</ele><time>2026-05-03T15:37:58.882Z</time></trkpt><trkpt lat="38.5482967" lon="16.067325"><ele>86.0</ele><time>2026-05-03T15:37:59.882Z</time></trkpt><trkpt lat="38.5479733" lon="16.0671217"><ele>83.0</ele><time>2026-05-03T15:38:00.882Z</time></trkpt><trkpt lat="38.54765" lon="16.0669217"><ele>80.0</ele><time>2026-05-03T15:38:01.883Z</time></trkpt><trkpt lat="38.5473267" lon="16.0667217"><ele>80.0</ele><time>2026-05-03T15:38:02.883Z</time></trkpt><trkpt lat="38.5470067" lon="16.066525"><ele>80.0</ele><time>2026-05-03T15:38:03.883Z</time></trkpt><trkpt lat="38.5466833" lon="16.0663283"><ele>80.0</ele><time>2026-05-03T15:38:04.883Z</time></trkpt><trkpt lat="38.5463667" lon="16.0661317"><ele>80.0</ele><time>2026-05-03T15:38:05.882Z</time></trkpt><trkpt lat="38.5460567" lon="16.0659267"><ele>71.0</ele><time>2026-05-03T15:38:06.882Z</time></trkpt><trkpt lat="38.54575" lon="16.0657267"><ele>62.0</ele><time>2026-05-03T15:38:07.883Z</time></trkpt><trkpt lat="38.545445" lon="16.065525"><ele>63.0</ele><time>2026-05-03T15:38:08.883Z</time></trkpt><trkpt lat="38.5451467" lon="16.06531"><ele>64.0</ele><time>2026-05-03T15:38:09.883Z</time></trkpt><trkpt lat="38.544845" lon="16.0651017"><ele>63.0</ele><time>2026-05-03T15:38:10.882Z</time></trkpt><trkpt lat="38.5445567" lon="16.064885"><ele>62.0</ele><time>2026-05-03T15:38:11.883Z</time></trkpt><trkpt lat="38.5442717" lon="16.0646667"><ele>62.0</ele><time>2026-05-03T15:38:12.882Z</time></trkpt><trkpt lat="38.544" lon="16.06444"><ele>62.0</ele><time>2026-05-03T15:38:13.882Z</time></trkpt><trkpt lat="38.543735" lon="16.06421"><ele>63.0</ele><time>2026-05-03T15:38:14.883Z</time></trkpt><trkpt lat="38.5434717" lon="16.0639783"><ele>64.0</ele><time>2026-05-03T15:38:15.882Z</time></trkpt><trkpt lat="38.5432017" lon="16.0637383"><ele>64.0</ele><time>2026-05-03T15:38:16.883Z</time></trkpt><trkpt lat="38.5429317" lon="16.0634933"><ele>64.0</ele><time>2026-05-03T15:38:17.883Z</time></trkpt><trkpt lat="38.5426617" lon="16.06324"><ele>62.5</ele><time>2026-05-03T15:38:18.883Z</time></trkpt><trkpt lat="38.5423933" lon="16.0629833"><ele>61.0</ele><time>2026-05-03T15:38:19.883Z</time></trkpt><trkpt lat="38.5421233" lon="16.0627233"><ele>60.5</ele><time>2026-05-03T15:38:20.883Z</time></trkpt><trkpt lat="38.5418417" lon="16.0624533"><ele>60.0</ele><time>2026-05-03T15:38:21.882Z</time></trkpt><trkpt lat="38.5415567" lon="16.062175"><ele>60.0</ele><time>2026-05-03T15:38:22.883Z</time></trkpt><trkpt lat="38.5412767" lon="16.0618917"><ele>60.0</ele><time>2026-05-03T15:38:23.882Z</time></trkpt><trkpt lat="38.5409983" lon="16.06161"><ele>59.5</ele><time>2026-05-03T15:38:24.882Z</time></trkpt><trkpt lat="38.5407233" lon="16.06133"><ele>59.0</ele><time>2026-05-03T15:38:25.883Z</time></trkpt><trkpt lat="38.54044" lon="16.06105"><ele>58.5</ele><time>2026-05-03T15:38:26.883Z</time></trkpt><trkpt lat="38.54015" lon="16.060765"><ele>58.0</ele><time>2026-05-03T15:38:27.883Z</time></trkpt><trkpt lat="38.5398583" lon="16.0604767"><ele>58.0</ele><time>2026-05-03T15:38:28.882Z</time></trkpt><trkpt lat="38.5395617" lon="16.0601917"><ele>58.0</ele><time>2026-05-03T15:38:29.883Z</time></trkpt><trkpt lat="38.5392683" lon="16.0599017"><ele>58.5</ele><time>2026-05-03T15:38:30.883Z</time></trkpt><trkpt lat="38.538975" lon="16.05961"><ele>59.0</ele><time>2026-05-03T15:38:31.883Z</time></trkpt><trkpt lat="38.5386783" lon="16.0593217"><ele>59.0</ele><time>2026-05-03T15:38:32.882Z</time></trkpt><trkpt lat="38.5383833" lon="16.0590417"><ele>59.0</ele><time>2026-05-03T15:38:33.883Z</time></trkpt><trkpt lat="38.53809" lon="16.05876"><ele>58.0</ele><time>2026-05-03T15:38:34.882Z</time></trkpt><trkpt lat="38.5377917" lon="16.0584783"><ele>57.0</ele><time>2026-05-03T15:38:35.882Z</time></trkpt><trkpt lat="38.5375017" lon="16.0581917"><ele>57.0</ele><time>2026-05-03T15:38:36.883Z</time></trkpt><trkpt lat="38.5372133" lon="16.057905"><ele>57.0</ele><time>2026-05-03T15:38:37.883Z</time></trkpt><trkpt lat="38.5369217" lon="16.0576233"><ele>56.5</ele><time>2026-05-03T15:38:38.882Z</time></trkpt><trkpt lat="38.536635" lon="16.0573367"><ele>56.0</ele><time>2026-05-03T15:38:39.883Z</time></trkpt><trkpt lat="38.536355" lon="16.05705"><ele>56.0</ele><time>2026-05-03T15:38:40.883Z</time></trkpt><trkpt lat="38.5360783" lon="16.05676"><ele>56.0</ele><time>2026-05-03T15:38:41.882Z</time></trkpt><trkpt lat="38.535795" lon="16.0564617"><ele>56.0</ele><time>2026-05-03T15:38:42.883Z</time></trkpt><trkpt lat="38.5355117" lon="16.05615"><ele>56.0</ele><time>2026-05-03T15:38:43.883Z</time></trkpt><trkpt lat="38.5352283" lon="16.0558417"><ele>57.0</ele><time>2026-05-03T15:38:44.883Z</time></trkpt><trkpt lat="38.5349567" lon="16.0555383"><ele>58.0</ele><time>2026-05-03T15:38:45.883Z</time></trkpt><trkpt lat="38.534685" lon="16.0552383"><ele>60.5</ele><time>2026-05-03T15:38:46.882Z</time></trkpt><trkpt lat="38.5344133" lon="16.0549417"><ele>63.0</ele><time>2026-05-03T15:38:47.883Z</time></trkpt><trkpt lat="38.53413" lon="16.0546517"><ele>63.0</ele><time>2026-05-03T15:38:48.883Z</time></trkpt><trkpt lat="38.533845" lon="16.0543783"><ele>63.0</ele><time>2026-05-03T15:38:49.882Z</time></trkpt><trkpt lat="38.5335483" lon="16.0541167"><ele>62.5</ele><time>2026-05-03T15:38:50.882Z</time></trkpt><trkpt lat="38.5332467" lon="16.0538683"><ele>62.0</ele><time>2026-05-03T15:38:51.883Z</time></trkpt><trkpt lat="38.53294" lon="16.0536317"><ele>65.0</ele><time>2026-05-03T15:38:52.883Z</time></trkpt><trkpt lat="38.5326233" lon="16.0534183"><ele>68.0</ele><time>2026-05-03T15:38:53.883Z</time></trkpt><trkpt lat="38.5323067" lon="16.0532183"><ele>62.0</ele><time>2026-05-03T15:38:54.883Z</time></trkpt><trkpt lat="38.5319833" lon="16.0530333"><ele>56.0</ele><time>2026-05-03T15:38:55.883Z</time></trkpt><trkpt lat="38.5316517" lon="16.0528717"><ele>56.0</ele><time>2026-05-03T15:38:56.883Z</time></trkpt><trkpt lat="38.5313117" lon="16.0527217"><ele>56.0</ele><time>2026-05-03T15:38:57.883Z</time></trkpt><trkpt lat="38.5309667" lon="16.05259"><ele>55.0</ele><time>2026-05-03T15:38:58.883Z</time></trkpt><trkpt lat="38.5306333" lon="16.0524717"><ele>54.0</ele><time>2026-05-03T15:38:59.883Z</time></trkpt><trkpt lat="38.5303" lon="16.0523783"><ele>54.0</ele><time>2026-05-03T15:39:00.883Z</time></trkpt><trkpt lat="38.5299667" lon="16.0522967"><ele>54.0</ele><time>2026-05-03T15:39:01.882Z</time></trkpt><trkpt lat="38.5296267" lon="16.0522383"><ele>53.5</ele><time>2026-05-03T15:39:02.882Z</time></trkpt><trkpt lat="38.52929" lon="16.0521983"><ele>53.0</ele><time>2026-05-03T15:39:03.882Z</time></trkpt><trkpt lat="38.5289417" lon="16.05218"><ele>51.5</ele><time>2026-05-03T15:39:04.883Z</time></trkpt><trkpt lat="38.5285917" lon="16.0521817"><ele>50.0</ele><time>2026-05-03T15:39:05.883Z</time></trkpt><trkpt lat="38.5282533" lon="16.0521933"><ele>50.0</ele><time>2026-05-03T15:39:06.883Z</time></trkpt><trkpt lat="38.5279183" lon="16.0522183"><ele>50.0</ele><time>2026-05-03T15:39:07.883Z</time></trkpt><trkpt lat="38.527585" lon="16.0522533"><ele>52.0</ele><time>2026-05-03T15:39:08.883Z</time></trkpt><trkpt lat="38.5272517" lon="16.0522967"><ele>54.0</ele><time>2026-05-03T15:39:09.883Z</time></trkpt><trkpt lat="38.526915" lon="16.05235"><ele>54.0</ele><time>2026-05-03T15:39:10.883Z</time></trkpt><trkpt lat="38.5265833" lon="16.0524133"><ele>54.0</ele><time>2026-05-03T15:39:11.882Z</time></trkpt><trkpt lat="38.5262483" lon="16.05248"><ele>53.5</ele><time>2026-05-03T15:39:12.882Z</time></trkpt><trkpt lat="38.5259133" lon="16.052545"><ele>53.0</ele><time>2026-05-03T15:39:13.883Z</time></trkpt><trkpt lat="38.52558" lon="16.0526117"><ele>52.5</ele><time>2026-05-03T15:39:14.882Z</time></trkpt><trkpt lat="38.5252517" lon="16.0526767"><ele>52.0</ele><time>2026-05-03T15:39:15.883Z</time></trkpt><trkpt lat="38.52491" lon="16.052735"><ele>52.0</ele><time>2026-05-03T15:39:16.882Z</time></trkpt><trkpt lat="38.5245767" lon="16.0527783"><ele>52.0</ele><time>2026-05-03T15:39:17.883Z</time></trkpt><trkpt lat="38.5242433" lon="16.0528183"><ele>53.5</ele><time>2026-05-03T15:39:18.882Z</time></trkpt><trkpt lat="38.5239067" lon="16.052845"><ele>55.0</ele><time>2026-05-03T15:39:19.883Z</time></trkpt><trkpt lat="38.5235683" lon="16.0528683"><ele>59.5</ele><time>2026-05-03T15:39:20.883Z</time></trkpt><trkpt lat="38.523225" lon="16.052885"><ele>64.0</ele><time>2026-05-03T15:39:21.882Z</time></trkpt><trkpt lat="38.5228933" lon="16.0528833"><ele>67.0</ele><time>2026-05-03T15:39:22.883Z</time></trkpt><trkpt lat="38.5225517" lon="16.052865"><ele>70.0</ele><time>2026-05-03T15:39:23.882Z</time></trkpt><trkpt lat="38.5222117" lon="16.05284"><ele>63.5</ele><time>2026-05-03T15:39:24.883Z</time></trkpt><trkpt lat="38.5218667" lon="16.0527867"><ele>57.0</ele><time>2026-05-03T15:39:25.883Z</time></trkpt><trkpt lat="38.5215183" lon="16.0527167"><ele>54.0</ele><time>2026-05-03T15:39:26.883Z</time></trkpt><trkpt lat="38.5211733" lon="16.0526317"><ele>51.0</ele><time>2026-05-03T15:39:27.882Z</time></trkpt><trkpt lat="38.5208367" lon="16.0525367"><ele>53.0</ele><time>2026-05-03T15:39:28.883Z</time></trkpt><trkpt lat="38.5205067" lon="16.052435"><ele>55.0</ele><time>2026-05-03T15:39:29.883Z</time></trkpt><trkpt lat="38.5201717" lon="16.0523183"><ele>55.5</ele><time>2026-05-03T15:39:30.882Z</time></trkpt><trkpt lat="38.51984" lon="16.0521967"><ele>56.0</ele><time>2026-05-03T15:39:31.883Z</time></trkpt><trkpt lat="38.5195133" lon="16.0520567"><ele>53.5</ele><time>2026-05-03T15:39:32.882Z</time></trkpt><trkpt lat="38.5191917" lon="16.051915"><ele>51.0</ele><time>2026-05-03T15:39:33.883Z</time></trkpt><trkpt lat="38.5188733" lon="16.0517717"><ele>60.5</ele><time>2026-05-03T15:39:34.883Z</time></trkpt><trkpt lat="38.51856" lon="16.0516233"><ele>70.0</ele><time>2026-05-03T15:39:35.882Z</time></trkpt><trkpt lat="38.51824" lon="16.051465"><ele>70.0</ele><time>2026-05-03T15:39:36.883Z</time></trkpt><trkpt lat="38.517925" lon="16.0513067"><ele>70.0</ele><time>2026-05-03T15:39:37.883Z</time></trkpt><trkpt lat="38.5176167" lon="16.051145"><ele>65.5</ele><time>2026-05-03T15:39:38.882Z</time></trkpt><trkpt lat="38.517305" lon="16.0509833"><ele>61.0</ele><time>2026-05-03T15:39:39.882Z</time></trkpt><trkpt lat="38.5170033" lon="16.0508133"><ele>62.0</ele><time>2026-05-03T15:39:40.882Z</time></trkpt><trkpt lat="38.5166983" lon="16.050645"><ele>63.0</ele><time>2026-05-03T15:39:41.882Z</time></trkpt><trkpt lat="38.5163917" lon="16.05047"><ele>58.0</ele><time>2026-05-03T15:39:42.883Z</time></trkpt><trkpt lat="38.5160917" lon="16.05029"><ele>53.0</ele><time>2026-05-03T15:39:43.882Z</time></trkpt><trkpt lat="38.5157883" lon="16.0501033"><ele>53.0</ele><time>2026-05-03T15:39:44.882Z</time></trkpt><trkpt lat="38.515485" lon="16.0499133"><ele>53.0</ele><time>2026-05-03T15:39:45.883Z</time></trkpt><trkpt lat="38.51518" lon="16.0497217"><ele>51.0</ele><time>2026-05-03T15:39:46.882Z</time></trkpt><trkpt lat="38.5148667" lon="16.049515"><ele>49.0</ele><time>2026-05-03T15:39:47.883Z</time></trkpt><trkpt lat="38.5145583" lon="16.0492983"><ele>48.0</ele><time>2026-05-03T15:39:48.883Z</time></trkpt><trkpt lat="38.514255" lon="16.0490767"><ele>47.0</ele><time>2026-05-03T15:39:49.883Z</time></trkpt><trkpt lat="38.51396" lon="16.0488533"><ele>46.5</ele><time>2026-05-03T15:39:50.883Z</time></trkpt><trkpt lat="38.5136667" lon="16.0486217"><ele>46.0</ele><time>2026-05-03T15:39:51.883Z</time></trkpt><trkpt lat="38.513375" lon="16.0483733"><ele>46.0</ele><time>2026-05-03T15:39:52.883Z</time></trkpt><trkpt lat="38.5130867" lon="16.048115"><ele>46.0</ele><time>2026-05-03T15:39:53.882Z</time></trkpt><trkpt lat="38.5128033" lon="16.04785"><ele>46.0</ele><time>2026-05-03T15:39:54.883Z</time></trkpt><trkpt lat="38.5125283" lon="16.0475733"><ele>46.0</ele><time>2026-05-03T15:39:55.883Z</time></trkpt><trkpt lat="38.5122533" lon="16.0472917"><ele>46.0</ele><time>2026-05-03T15:39:56.882Z</time></trkpt><trkpt lat="38.5119867" lon="16.047005"><ele>46.0</ele><time>2026-05-03T15:39:57.883Z</time></trkpt><trkpt lat="38.5117283" lon="16.04672"><ele>45.5</ele><time>2026-05-03T15:39:58.883Z</time></trkpt><trkpt lat="38.5114733" lon="16.0464283"><ele>45.0</ele><time>2026-05-03T15:39:59.883Z</time></trkpt><trkpt lat="38.5112233" lon="16.0461333"><ele>45.0</ele><time>2026-05-03T15:40:00.883Z</time></trkpt><trkpt lat="38.5109767" lon="16.0458333"><ele>45.0</ele><time>2026-05-03T15:40:01.883Z</time></trkpt><trkpt lat="38.5107317" lon="16.0455283"><ele>45.0</ele><time>2026-05-03T15:40:02.883Z</time></trkpt><trkpt lat="38.5104817" lon="16.0452233"><ele>45.0</ele><time>2026-05-03T15:40:03.882Z</time></trkpt><trkpt lat="38.51023" lon="16.0449133"><ele>45.0</ele><time>2026-05-03T15:40:04.883Z</time></trkpt><trkpt lat="38.5099817" lon="16.0445967"><ele>45.0</ele><time>2026-05-03T15:40:05.882Z</time></trkpt><trkpt lat="38.5097383" lon="16.04427"><ele>44.5</ele><time>2026-05-03T15:40:06.883Z</time></trkpt><trkpt lat="38.5094967" lon="16.0439383"><ele>44.0</ele><time>2026-05-03T15:40:07.883Z</time></trkpt><trkpt lat="38.5092567" lon="16.0436"><ele>43.5</ele><time>2026-05-03T15:40:08.883Z</time></trkpt><trkpt lat="38.509015" lon="16.0432583"><ele>43.0</ele><time>2026-05-03T15:40:09.883Z</time></trkpt><trkpt lat="38.5087733" lon="16.0429083"><ele>43.0</ele><time>2026-05-03T15:40:10.883Z</time></trkpt><trkpt lat="38.5085233" lon="16.0425417"><ele>43.0</ele><time>2026-05-03T15:40:11.883Z</time></trkpt><trkpt lat="38.50827" lon="16.042165"><ele>43.0</ele><time>2026-05-03T15:40:12.883Z</time></trkpt><trkpt lat="38.5080183" lon="16.0417783"><ele>43.0</ele><time>2026-05-03T15:40:13.883Z</time></trkpt><trkpt lat="38.5077683" lon="16.04139"><ele>42.5</ele><time>2026-05-03T15:40:14.883Z</time></trkpt><trkpt lat="38.507515" lon="16.0410017"><ele>42.0</ele><time>2026-05-03T15:40:15.883Z</time></trkpt><trkpt lat="38.5072633" lon="16.0406017"><ele>41.5</ele><time>2026-05-03T15:40:16.882Z</time></trkpt><trkpt lat="38.50702" lon="16.0402"><ele>41.0</ele><time>2026-05-03T15:40:17.883Z</time></trkpt><trkpt lat="38.5067783" lon="16.0397967"><ele>40.5</ele><time>2026-05-03T15:40:18.883Z</time></trkpt><trkpt lat="38.50653" lon="16.0393883"><ele>40.0</ele><time>2026-05-03T15:40:19.883Z</time></trkpt><trkpt lat="38.506285" lon="16.0389817"><ele>40.0</ele><time>2026-05-03T15:40:20.883Z</time></trkpt><trkpt lat="38.5060467" lon="16.038585"><ele>40.0</ele><time>2026-05-03T15:40:21.883Z</time></trkpt><trkpt lat="38.5058133" lon="16.0381983"><ele>40.0</ele><time>2026-05-03T15:40:22.883Z</time></trkpt><trkpt lat="38.5055883" lon="16.0378267"><ele>40.0</ele><time>2026-05-03T15:40:23.883Z</time></trkpt><trkpt lat="38.5053667" lon="16.0374683"><ele>40.0</ele><time>2026-05-03T15:40:24.883Z</time></trkpt><trkpt lat="38.5051533" lon="16.0371167"><ele>40.0</ele><time>2026-05-03T15:40:25.882Z</time></trkpt><trkpt lat="38.50494" lon="16.0367717"><ele>40.5</ele><time>2026-05-03T15:40:26.882Z</time></trkpt><trkpt lat="38.5047333" lon="16.0364183"><ele>41.0</ele><time>2026-05-03T15:40:27.882Z</time></trkpt><trkpt lat="38.504525" lon="16.0360683"><ele>40.0</ele><time>2026-05-03T15:40:28.883Z</time></trkpt><trkpt lat="38.5043183" lon="16.035725"><ele>39.0</ele><time>2026-05-03T15:40:29.883Z</time></trkpt><trkpt lat="38.5041067" lon="16.0353683"><ele>39.0</ele><time>2026-05-03T15:40:30.883Z</time></trkpt><trkpt lat="38.5038983" lon="16.0350133"><ele>39.0</ele><time>2026-05-03T15:40:31.883Z</time></trkpt><trkpt lat="38.5036867" lon="16.034665"><ele>39.0</ele><time>2026-05-03T15:40:32.883Z</time></trkpt><trkpt lat="38.5034733" lon="16.03432"><ele>39.0</ele><time>2026-05-03T15:40:33.883Z</time></trkpt><trkpt lat="38.50326" lon="16.0339717"><ele>39.0</ele><time>2026-05-03T15:40:34.883Z</time></trkpt><trkpt lat="38.503055" lon="16.0336267"><ele>39.0</ele><time>2026-05-03T15:40:35.883Z</time></trkpt><trkpt lat="38.50285" lon="16.0332833"><ele>40.0</ele><time>2026-05-03T15:40:36.883Z</time></trkpt><trkpt lat="38.5026433" lon="16.0329367"><ele>41.0</ele><time>2026-05-03T15:40:37.883Z</time></trkpt><trkpt lat="38.5024383" lon="16.0325867"><ele>40.0</ele><time>2026-05-03T15:40:38.882Z</time></trkpt><trkpt lat="38.5022367" lon="16.032225"><ele>39.0</ele><time>2026-05-03T15:40:39.883Z</time></trkpt><trkpt lat="38.5020383" lon="16.0318567"><ele>39.0</ele><time>2026-05-03T15:40:40.883Z</time></trkpt><trkpt lat="38.5018483" lon="16.0314767"><ele>39.0</ele><time>2026-05-03T15:40:41.882Z</time></trkpt><trkpt lat="38.5016667" lon="16.0310933"><ele>40.0</ele><time>2026-05-03T15:40:42.883Z</time></trkpt><trkpt lat="38.5014933" lon="16.0307067"><ele>41.0</ele><time>2026-05-03T15:40:43.883Z</time></trkpt><trkpt lat="38.501325" lon="16.030305"><ele>38.5</ele><time>2026-05-03T15:40:44.883Z</time></trkpt><trkpt lat="38.5011667" lon="16.0298883"><ele>36.0</ele><time>2026-05-03T15:40:45.883Z</time></trkpt><trkpt lat="38.5010117" lon="16.0294633"><ele>37.0</ele><time>2026-05-03T15:40:46.883Z</time></trkpt><trkpt lat="38.5008733" lon="16.0290267"><ele>38.0</ele><time>2026-05-03T15:40:47.883Z</time></trkpt><trkpt lat="38.5007467" lon="16.028585"><ele>37.5</ele><time>2026-05-03T15:40:48.883Z</time></trkpt><trkpt lat="38.5006283" lon="16.0281383"><ele>37.0</ele><time>2026-05-03T15:40:49.883Z</time></trkpt><trkpt lat="38.5005183" lon="16.02769"><ele>37.0</ele><time>2026-05-03T15:40:50.882Z</time></trkpt><trkpt lat="38.5004267" lon="16.0272367"><ele>37.0</ele><time>2026-05-03T15:40:51.883Z</time></trkpt><trkpt lat="38.50033" lon="16.02678"><ele>36.5</ele><time>2026-05-03T15:40:52.883Z</time></trkpt><trkpt lat="38.5002367" lon="16.0263167"><ele>36.0</ele><time>2026-05-03T15:40:53.883Z</time></trkpt><trkpt lat="38.5001467" lon="16.02586"><ele>35.5</ele><time>2026-05-03T15:40:54.883Z</time></trkpt><trkpt lat="38.50006" lon="16.0254033"><ele>35.0</ele><time>2026-05-03T15:40:55.883Z</time></trkpt><trkpt lat="38.499975" lon="16.02494"><ele>35.0</ele><time>2026-05-03T15:40:56.883Z</time></trkpt><trkpt lat="38.4998967" lon="16.0244833"><ele>35.0</ele><time>2026-05-03T15:40:57.883Z</time></trkpt><trkpt lat="38.49982" lon="16.0240333"><ele>35.5</ele><time>2026-05-03T15:40:58.882Z</time></trkpt><trkpt lat="38.49974" lon="16.023605"><ele>36.0</ele><time>2026-05-03T15:40:59.882Z</time></trkpt><trkpt lat="38.4996567" lon="16.02318"><ele>35.0</ele><time>2026-05-03T15:41:00.883Z</time></trkpt><trkpt lat="38.4995767" lon="16.022765"><ele>34.0</ele><time>2026-05-03T15:41:01.883Z</time></trkpt><trkpt lat="38.499485" lon="16.02234"><ele>34.0</ele><time>2026-05-03T15:41:02.883Z</time></trkpt><trkpt lat="38.499385" lon="16.02191"><ele>34.0</ele><time>2026-05-03T15:41:03.883Z</time></trkpt><trkpt lat="38.4992733" lon="16.0214683"><ele>34.0</ele><time>2026-05-03T15:41:04.883Z</time></trkpt><trkpt lat="38.4991517" lon="16.0210217"><ele>34.0</ele><time>2026-05-03T15:41:05.883Z</time></trkpt><trkpt lat="38.4990217" lon="16.020555"><ele>34.0</ele><time>2026-05-03T15:41:06.883Z</time></trkpt><trkpt lat="38.4988783" lon="16.0200683"><ele>34.0</ele><time>2026-05-03T15:41:07.883Z</time></trkpt><trkpt lat="38.49873" lon="16.0195783"><ele>32.5</ele><time>2026-05-03T15:41:08.882Z</time></trkpt><trkpt lat="38.4985717" lon="16.0190933"><ele>31.0</ele><time>2026-05-03T15:41:09.882Z</time></trkpt><trkpt lat="38.4984" lon="16.01861"><ele>30.5</ele><time>2026-05-03T15:41:10.883Z</time></trkpt><trkpt lat="38.4982267" lon="16.0181367"><ele>30.0</ele><time>2026-05-03T15:41:11.883Z</time></trkpt><trkpt lat="38.4980467" lon="16.0176817"><ele>32.0</ele><time>2026-05-03T15:41:12.883Z</time></trkpt><trkpt lat="38.497855" lon="16.0172333"><ele>34.0</ele><time>2026-05-03T15:41:13.883Z</time></trkpt><trkpt lat="38.4976617" lon="16.016785"><ele>33.5</ele><time>2026-05-03T15:41:14.882Z</time></trkpt><trkpt lat="38.497455" lon="16.01634"><ele>33.0</ele><time>2026-05-03T15:41:15.884Z</time></trkpt><trkpt lat="38.4972417" lon="16.0159017"><ele>37.5</ele><time>2026-05-03T15:41:16.883Z</time></trkpt><trkpt lat="38.497015" lon="16.0154733"><ele>42.0</ele><time>2026-05-03T15:41:17.884Z</time></trkpt><trkpt lat="38.4967817" lon="16.015055"><ele>39.5</ele><time>2026-05-03T15:41:18.884Z</time></trkpt><trkpt lat="38.496545" lon="16.0146517"><ele>37.0</ele><time>2026-05-03T15:41:19.884Z</time></trkpt><trkpt lat="38.4962967" lon="16.0142667"><ele>39.0</ele><time>2026-05-03T15:41:20.883Z</time></trkpt><trkpt lat="38.496025" lon="16.0138933"><ele>41.0</ele><time>2026-05-03T15:41:21.884Z</time></trkpt><trkpt lat="38.4957583" lon="16.0135283"><ele>43.0</ele><time>2026-05-03T15:41:22.884Z</time></trkpt><trkpt lat="38.4954817" lon="16.0131767"><ele>45.0</ele><time>2026-05-03T15:41:23.884Z</time></trkpt><trkpt lat="38.4951867" lon="16.0128367"><ele>45.0</ele><time>2026-05-03T15:41:24.884Z</time></trkpt><trkpt lat="38.49488" lon="16.0125117"><ele>45.0</ele><time>2026-05-03T15:41:25.884Z</time></trkpt><trkpt lat="38.4945683" lon="16.0122133"><ele>44.5</ele><time>2026-05-03T15:41:26.884Z</time></trkpt><trkpt lat="38.49425" lon="16.0119333"><ele>44.0</ele><time>2026-05-03T15:41:27.884Z</time></trkpt><trkpt lat="38.4939233" lon="16.0116683"><ele>40.0</ele><time>2026-05-03T15:41:28.883Z</time></trkpt><trkpt lat="38.49359" lon="16.0114067"><ele>36.0</ele><time>2026-05-03T15:41:29.884Z</time></trkpt><trkpt lat="38.49325" lon="16.01116"><ele>35.0</ele><time>2026-05-03T15:41:30.884Z</time></trkpt><trkpt lat="38.492905" lon="16.0109217"><ele>34.0</ele><time>2026-05-03T15:41:31.884Z</time></trkpt><trkpt lat="38.49256" lon="16.010695"><ele>34.0</ele><time>2026-05-03T15:41:32.884Z</time></trkpt><trkpt lat="38.4922167" lon="16.010475"><ele>34.0</ele><time>2026-05-03T15:41:33.884Z</time></trkpt><trkpt lat="38.491865" lon="16.0102567"><ele>33.0</ele><time>2026-05-03T15:41:34.884Z</time></trkpt><trkpt lat="38.49151" lon="16.0100417"><ele>32.0</ele><time>2026-05-03T15:41:35.883Z</time></trkpt><trkpt lat="38.4911583" lon="16.0098233"><ele>31.5</ele><time>2026-05-03T15:41:36.883Z</time></trkpt><trkpt lat="38.490805" lon="16.009605"><ele>31.0</ele><time>2026-05-03T15:41:37.883Z</time></trkpt><trkpt lat="38.490455" lon="16.009375"><ele>32.0</ele><time>2026-05-03T15:41:38.884Z</time></trkpt><trkpt lat="38.4901033" lon="16.0091383"><ele>33.0</ele><time>2026-05-03T15:41:39.883Z</time></trkpt><trkpt lat="38.4897583" lon="16.0088817"><ele>32.5</ele><time>2026-05-03T15:41:40.884Z</time></trkpt><trkpt lat="38.4894333" lon="16.008605"><ele>32.0</ele><time>2026-05-03T15:41:41.883Z</time></trkpt><trkpt lat="38.489115" lon="16.0083083"><ele>31.5</ele><time>2026-05-03T15:41:42.883Z</time></trkpt><trkpt lat="38.4888083" lon="16.0079917"><ele>31.0</ele><time>2026-05-03T15:41:43.884Z</time></trkpt><trkpt lat="38.488505" lon="16.0076567"><ele>30.5</ele><time>2026-05-03T15:41:44.884Z</time></trkpt><trkpt lat="38.4881967" lon="16.0072983"><ele>30.0</ele><time>2026-05-03T15:41:45.884Z</time></trkpt><trkpt lat="38.4878933" lon="16.0069233"><ele>30.5</ele><time>2026-05-03T15:41:46.883Z</time></trkpt><trkpt lat="38.487605" lon="16.00653"><ele>31.0</ele><time>2026-05-03T15:41:47.884Z</time></trkpt><trkpt lat="38.4873217" lon="16.0061217"><ele>31.0</ele><time>2026-05-03T15:41:48.884Z</time></trkpt><trkpt lat="38.487045" lon="16.0057"><ele>31.0</ele><time>2026-05-03T15:41:49.884Z</time></trkpt><trkpt lat="38.4867583" lon="16.0052733"><ele>31.0</ele><time>2026-05-03T15:41:50.884Z</time></trkpt><trkpt lat="38.4864717" lon="16.004855"><ele>31.0</ele><time>2026-05-03T15:41:51.883Z</time></trkpt><trkpt lat="38.486165" lon="16.0044567"><ele>31.0</ele><time>2026-05-03T15:41:52.884Z</time></trkpt><trkpt lat="38.4858417" lon="16.0040733"><ele>31.0</ele><time>2026-05-03T15:41:53.884Z</time></trkpt><trkpt lat="38.4855017" lon="16.0037117"><ele>31.5</ele><time>2026-05-03T15:41:54.884Z</time></trkpt><trkpt lat="38.485145" lon="16.0033717"><ele>32.0</ele><time>2026-05-03T15:41:55.884Z</time></trkpt><trkpt lat="38.4847683" lon="16.003055"><ele>35.5</ele><time>2026-05-03T15:41:56.884Z</time></trkpt><trkpt lat="38.484385" lon="16.002755"><ele>39.0</ele><time>2026-05-03T15:41:57.884Z</time></trkpt><trkpt lat="38.4839833" lon="16.00249"><ele>44.0</ele><time>2026-05-03T15:41:58.884Z</time></trkpt><trkpt lat="38.483575" lon="16.0022517"><ele>49.0</ele><time>2026-05-03T15:41:59.884Z</time></trkpt><trkpt lat="38.4831583" lon="16.0020333"><ele>51.0</ele><time>2026-05-03T15:42:00.884Z</time></trkpt><trkpt lat="38.4827233" lon="16.0018483"><ele>51.0</ele><time>2026-05-03T15:42:01.884Z</time></trkpt><trkpt lat="38.4822833" lon="16.0016767"><ele>53.0</ele><time>2026-05-03T15:42:02.883Z</time></trkpt><trkpt lat="38.48183" lon="16.0015117"><ele>53.0</ele><time>2026-05-03T15:42:03.884Z</time></trkpt><trkpt lat="38.4813867" lon="16.0013717"><ele>46.0</ele><time>2026-05-03T15:42:04.884Z</time></trkpt><trkpt lat="38.4809367" lon="16.0012367"><ele>46.0</ele><time>2026-05-03T15:42:05.884Z</time></trkpt><trkpt lat="38.4804883" lon="16.0010883"><ele>38.0</ele><time>2026-05-03T15:42:06.884Z</time></trkpt><trkpt lat="38.480035" lon="16.0009383"><ele>32.0</ele><time>2026-05-03T15:42:07.883Z</time></trkpt><trkpt lat="38.479585" lon="16.0007783"><ele>32.0</ele><time>2026-05-03T15:42:08.884Z</time></trkpt><trkpt lat="38.4791333" lon="16.000605"><ele>35.0</ele><time>2026-05-03T15:42:09.884Z</time></trkpt><trkpt lat="38.4786817" lon="16.0004267"><ele>35.0</ele><time>2026-05-03T15:42:10.884Z</time></trkpt><trkpt lat="38.4782333" lon="16.0002367"><ele>34.0</ele><time>2026-05-03T15:42:11.883Z</time></trkpt><trkpt lat="38.47779" lon="16.00003"><ele>34.0</ele><time>2026-05-03T15:42:12.884Z</time></trkpt><trkpt lat="38.4773467" lon="15.9998033"><ele>36.0</ele><time>2026-05-03T15:42:13.884Z</time></trkpt><trkpt lat="38.4769167" lon="15.9995483"><ele>36.0</ele><time>2026-05-03T15:42:14.884Z</time></trkpt><trkpt lat="38.47649" lon="15.999275"><ele>33.0</ele><time>2026-05-03T15:42:15.884Z</time></trkpt><trkpt lat="38.47607" lon="15.9989917"><ele>33.0</ele><time>2026-05-03T15:42:16.884Z</time></trkpt><trkpt lat="38.4756633" lon="15.9986933"><ele>35.0</ele><time>2026-05-03T15:42:17.884Z</time></trkpt><trkpt lat="38.4752567" lon="15.998385"><ele>36.0</ele><time>2026-05-03T15:42:18.884Z</time></trkpt><trkpt lat="38.4748617" lon="15.9980867"><ele>34.0</ele><time>2026-05-03T15:42:19.884Z</time></trkpt><trkpt lat="38.474465" lon="15.997775"><ele>34.0</ele><time>2026-05-03T15:42:20.884Z</time></trkpt><trkpt lat="38.47408" lon="15.9974717"><ele>34.5</ele><time>2026-05-03T15:42:21.884Z</time></trkpt><trkpt lat="38.4737133" lon="15.9971833"><ele>35.0</ele><time>2026-05-03T15:42:22.884Z</time></trkpt><trkpt lat="38.4733633" lon="15.9969033"><ele>35.5</ele><time>2026-05-03T15:42:23.884Z</time></trkpt><trkpt lat="38.4730383" lon="15.9966383"><ele>36.0</ele><time>2026-05-03T15:42:24.884Z</time></trkpt><trkpt lat="38.4727283" lon="15.996365"><ele>36.0</ele><time>2026-05-03T15:42:25.883Z</time></trkpt><trkpt lat="38.472435" lon="15.9960883"><ele>36.0</ele><time>2026-05-03T15:42:26.884Z</time></trkpt><trkpt lat="38.4721517" lon="15.995805"><ele>35.0</ele><time>2026-05-03T15:42:27.884Z</time></trkpt><trkpt lat="38.4718867" lon="15.9955133"><ele>34.0</ele><time>2026-05-03T15:42:28.884Z</time></trkpt><trkpt lat="38.4716317" lon="15.99521"><ele>34.0</ele><time>2026-05-03T15:42:29.884Z</time></trkpt><trkpt lat="38.4713967" lon="15.9949"><ele>34.0</ele><time>2026-05-03T15:42:30.884Z</time></trkpt><trkpt lat="38.4711633" lon="15.9945733"><ele>33.5</ele><time>2026-05-03T15:42:31.884Z</time></trkpt><trkpt lat="38.4709367" lon="15.994225"><ele>33.0</ele><time>2026-05-03T15:42:32.883Z</time></trkpt><trkpt lat="38.47072" lon="15.993855"><ele>33.0</ele><time>2026-05-03T15:42:33.884Z</time></trkpt><trkpt lat="38.4705017" lon="15.9934683"><ele>33.0</ele><time>2026-05-03T15:42:34.884Z</time></trkpt><trkpt lat="38.470285" lon="15.9930683"><ele>33.0</ele><time>2026-05-03T15:42:35.884Z</time></trkpt><trkpt lat="38.470065" lon="15.9926567"><ele>33.0</ele><time>2026-05-03T15:42:36.884Z</time></trkpt><trkpt lat="38.4698317" lon="15.9922367"><ele>42.5</ele><time>2026-05-03T15:42:37.884Z</time></trkpt><trkpt lat="38.4696" lon="15.9918133"><ele>52.0</ele><time>2026-05-03T15:42:38.884Z</time></trkpt><trkpt lat="38.46937" lon="15.9913767"><ele>55.0</ele><time>2026-05-03T15:42:39.883Z</time></trkpt><trkpt lat="38.4691383" lon="15.99095"><ele>58.0</ele><time>2026-05-03T15:42:40.884Z</time></trkpt><trkpt lat="38.4689083" lon="15.9905217"><ele>59.5</ele><time>2026-05-03T15:42:41.884Z</time></trkpt><trkpt lat="38.4686767" lon="15.99008"><ele>61.0</ele><time>2026-05-03T15:42:42.884Z</time></trkpt><trkpt lat="38.4684283" lon="15.98963"><ele>59.0</ele><time>2026-05-03T15:42:43.884Z</time></trkpt><trkpt lat="38.4681667" lon="15.9891533"><ele>54.0</ele><time>2026-05-03T15:42:44.884Z</time></trkpt><trkpt lat="38.467915" lon="15.9886733"><ele>54.5</ele><time>2026-05-03T15:42:45.884Z</time></trkpt><trkpt lat="38.4676733" lon="15.9882"><ele>55.0</ele><time>2026-05-03T15:42:46.884Z</time></trkpt><trkpt lat="38.4674267" lon="15.98774"><ele>55.5</ele><time>2026-05-03T15:42:47.884Z</time></trkpt><trkpt lat="38.4671833" lon="15.987285"><ele>56.0</ele><time>2026-05-03T15:42:48.884Z</time></trkpt><trkpt lat="38.466935" lon="15.98683"><ele>56.5</ele><time>2026-05-03T15:42:49.884Z</time></trkpt><trkpt lat="38.466685" lon="15.9863733"><ele>57.0</ele><time>2026-05-03T15:42:50.884Z</time></trkpt><trkpt lat="38.46643" lon="15.9859217"><ele>59.0</ele><time>2026-05-03T15:42:51.883Z</time></trkpt><trkpt lat="38.4661767" lon="15.98547"><ele>61.0</ele><time>2026-05-03T15:42:52.884Z</time></trkpt><trkpt lat="38.4659167" lon="15.9850167"><ele>60.0</ele><time>2026-05-03T15:42:53.884Z</time></trkpt><trkpt lat="38.4656583" lon="15.9845583"><ele>59.0</ele><time>2026-05-03T15:42:54.884Z</time></trkpt><trkpt lat="38.4654017" lon="15.9840967"><ele>60.0</ele><time>2026-05-03T15:42:55.884Z</time></trkpt><trkpt lat="38.4651417" lon="15.9836333"><ele>61.0</ele><time>2026-05-03T15:42:56.884Z</time></trkpt><trkpt lat="38.4648733" lon="15.983175"><ele>62.0</ele><time>2026-05-03T15:42:57.884Z</time></trkpt><trkpt lat="38.4646033" lon="15.9827233"><ele>63.0</ele><time>2026-05-03T15:42:58.884Z</time></trkpt><trkpt lat="38.464325" lon="15.9822833"><ele>63.0</ele><time>2026-05-03T15:42:59.884Z</time></trkpt><trkpt lat="38.4640217" lon="15.9818533"><ele>67.0</ele><time>2026-05-03T15:43:00.884Z</time></trkpt><trkpt lat="38.463705" lon="15.9814283"><ele>67.0</ele><time>2026-05-03T15:43:01.884Z</time></trkpt><trkpt lat="38.4633833" lon="15.9810267"><ele>64.0</ele><time>2026-05-03T15:43:02.884Z</time></trkpt><trkpt lat="38.463055" lon="15.9806333"><ele>65.0</ele><time>2026-05-03T15:43:03.883Z</time></trkpt><trkpt lat="38.46272" lon="15.9802633"><ele>66.0</ele><time>2026-05-03T15:43:04.884Z</time></trkpt><trkpt lat="38.4623867" lon="15.979905"><ele>65.0</ele><time>2026-05-03T15:43:05.884Z</time></trkpt><trkpt lat="38.46206" lon="15.97956"><ele>64.0</ele><time>2026-05-03T15:43:06.883Z</time></trkpt><trkpt lat="38.4617417" lon="15.9792217"><ele>65.0</ele><time>2026-05-03T15:43:07.884Z</time></trkpt><trkpt lat="38.4614317" lon="15.9788983"><ele>66.0</ele><time>2026-05-03T15:43:08.883Z</time></trkpt><trkpt lat="38.4611383" lon="15.9785917"><ele>66.0</ele><time>2026-05-03T15:43:09.883Z</time></trkpt><trkpt lat="38.4608417" lon="15.9782817"><ele>66.0</ele><time>2026-05-03T15:43:10.884Z</time></trkpt><trkpt lat="38.460535" lon="15.9779683"><ele>68.0</ele><time>2026-05-03T15:43:11.884Z</time></trkpt><trkpt lat="38.460225" lon="15.9776467"><ele>70.0</ele><time>2026-05-03T15:43:12.884Z</time></trkpt><trkpt lat="38.459925" lon="15.9773267"><ele>70.0</ele><time>2026-05-03T15:43:13.884Z</time></trkpt><trkpt lat="38.4596233" lon="15.9770067"><ele>70.0</ele><time>2026-05-03T15:43:14.884Z</time></trkpt><trkpt lat="38.4593183" lon="15.97669"><ele>72.0</ele><time>2026-05-03T15:43:15.884Z</time></trkpt><trkpt lat="38.4590117" lon="15.9763667"><ele>74.0</ele><time>2026-05-03T15:43:16.884Z</time></trkpt><trkpt lat="38.458705" lon="15.9760467"><ele>74.5</ele><time>2026-05-03T15:43:17.883Z</time></trkpt><trkpt lat="38.4584017" lon="15.97573"><ele>75.0</ele><time>2026-05-03T15:43:18.883Z</time></trkpt><trkpt lat="38.458095" lon="15.9754067"><ele>75.5</ele><time>2026-05-03T15:43:19.884Z</time></trkpt><trkpt lat="38.4577933" lon="15.97509"><ele>76.0</ele><time>2026-05-03T15:43:20.884Z</time></trkpt><trkpt lat="38.45749" lon="15.9747733"><ele>75.0</ele><time>2026-05-03T15:43:21.884Z</time></trkpt><trkpt lat="38.4571917" lon="15.9744533"><ele>74.0</ele><time>2026-05-03T15:43:22.884Z</time></trkpt><trkpt lat="38.4568883" lon="15.9741333"><ele>73.5</ele><time>2026-05-03T15:43:23.884Z</time></trkpt><trkpt lat="38.4565767" lon="15.9738133"><ele>73.0</ele><time>2026-05-03T15:43:24.883Z</time></trkpt><trkpt lat="38.4562617" lon="15.9734867"><ele>73.0</ele><time>2026-05-03T15:43:25.884Z</time></trkpt><trkpt lat="38.4559433" lon="15.9731533"><ele>73.0</ele><time>2026-05-03T15:43:26.884Z</time></trkpt><trkpt lat="38.455625" lon="15.9728133"><ele>72.5</ele><time>2026-05-03T15:43:27.883Z</time></trkpt><trkpt lat="38.4553033" lon="15.97246"><ele>72.0</ele><time>2026-05-03T15:43:28.883Z</time></trkpt><trkpt lat="38.45497" lon="15.9721067"><ele>72.0</ele><time>2026-05-03T15:43:29.884Z</time></trkpt><trkpt lat="38.4546417" lon="15.9717583"><ele>72.0</ele><time>2026-05-03T15:43:30.884Z</time></trkpt><trkpt lat="38.4543133" lon="15.9714033"><ele>70.0</ele><time>2026-05-03T15:43:31.883Z</time></trkpt><trkpt lat="38.4540033" lon="15.9710517"><ele>68.0</ele><time>2026-05-03T15:43:32.884Z</time></trkpt><trkpt lat="38.453705" lon="15.9706967"><ele>68.0</ele><time>2026-05-03T15:43:33.884Z</time></trkpt><trkpt lat="38.4534083" lon="15.97034"><ele>68.0</ele><time>2026-05-03T15:43:34.884Z</time></trkpt><trkpt lat="38.45313" lon="15.9699833"><ele>69.0</ele><time>2026-05-03T15:43:35.884Z</time></trkpt><trkpt lat="38.452865" lon="15.969625"><ele>70.0</ele><time>2026-05-03T15:43:36.884Z</time></trkpt><trkpt lat="38.4526017" lon="15.9692583"><ele>70.0</ele><time>2026-05-03T15:43:37.884Z</time></trkpt><trkpt lat="38.45235" lon="15.9688917"><ele>70.0</ele><time>2026-05-03T15:43:38.884Z</time></trkpt><trkpt lat="38.4521017" lon="15.96852"><ele>68.5</ele><time>2026-05-03T15:43:39.884Z</time></trkpt><trkpt lat="38.45186" lon="15.9681433"><ele>67.0</ele><time>2026-05-03T15:43:40.883Z</time></trkpt><trkpt lat="38.4516233" lon="15.9677633"><ele>66.5</ele><time>2026-05-03T15:43:41.884Z</time></trkpt><trkpt lat="38.45139" lon="15.96738"><ele>66.0</ele><time>2026-05-03T15:43:42.884Z</time></trkpt><trkpt lat="38.451165" lon="15.96699"><ele>66.5</ele><time>2026-05-03T15:43:43.883Z</time></trkpt><trkpt lat="38.45094" lon="15.9665983"><ele>67.0</ele><time>2026-05-03T15:43:44.884Z</time></trkpt><trkpt lat="38.4507217" lon="15.9662"><ele>67.0</ele><time>2026-05-03T15:43:45.884Z</time></trkpt><trkpt lat="38.4505083" lon="15.965795"><ele>67.0</ele><time>2026-05-03T15:43:46.884Z</time></trkpt><trkpt lat="38.4503" lon="15.96538"><ele>68.5</ele><time>2026-05-03T15:43:47.884Z</time></trkpt><trkpt lat="38.450095" lon="15.964955"><ele>70.0</ele><time>2026-05-03T15:43:48.884Z</time></trkpt><trkpt lat="38.449895" lon="15.9645283"><ele>70.0</ele><time>2026-05-03T15:43:49.883Z</time></trkpt><trkpt lat="38.4497067" lon="15.9641067"><ele>70.0</ele><time>2026-05-03T15:43:50.884Z</time></trkpt><trkpt lat="38.4495183" lon="15.963675"><ele>70.5</ele><time>2026-05-03T15:43:51.884Z</time></trkpt><trkpt lat="38.4493383" lon="15.9632367"><ele>71.0</ele><time>2026-05-03T15:43:52.884Z</time></trkpt><trkpt lat="38.4491633" lon="15.96279"><ele>71.0</ele><time>2026-05-03T15:43:53.883Z</time></trkpt><trkpt lat="38.4489933" lon="15.96234"><ele>71.0</ele><time>2026-05-03T15:43:54.884Z</time></trkpt><trkpt lat="38.4488267" lon="15.96189"><ele>69.5</ele><time>2026-05-03T15:43:55.884Z</time></trkpt><trkpt lat="38.448665" lon="15.9614333"><ele>68.0</ele><time>2026-05-03T15:43:56.884Z</time></trkpt><trkpt lat="38.4485217" lon="15.9609717"><ele>68.0</ele><time>2026-05-03T15:43:57.884Z</time></trkpt><trkpt lat="38.4483817" lon="15.960505"><ele>68.0</ele><time>2026-05-03T15:43:58.884Z</time></trkpt><trkpt lat="38.4482517" lon="15.960045"><ele>68.0</ele><time>2026-05-03T15:43:59.884Z</time></trkpt><trkpt lat="38.4481267" lon="15.9595817"><ele>68.0</ele><time>2026-05-03T15:44:00.884Z</time></trkpt><trkpt lat="38.4480083" lon="15.9591233"><ele>68.5</ele><time>2026-05-03T15:44:01.883Z</time></trkpt><trkpt lat="38.44788" lon="15.958635"><ele>69.0</ele><time>2026-05-03T15:44:02.884Z</time></trkpt><trkpt lat="38.4477517" lon="15.9581467"><ele>67.5</ele><time>2026-05-03T15:44:03.884Z</time></trkpt><trkpt lat="38.4476183" lon="15.9576383"><ele>66.0</ele><time>2026-05-03T15:44:04.884Z</time></trkpt><trkpt lat="38.4474933" lon="15.9571367"><ele>66.0</ele><time>2026-05-03T15:44:05.884Z</time></trkpt><trkpt lat="38.447335" lon="15.9566283"><ele>66.0</ele><time>2026-05-03T15:44:06.884Z</time></trkpt><trkpt lat="38.4471867" lon="15.9561367"><ele>66.5</ele><time>2026-05-03T15:44:07.884Z</time></trkpt><trkpt lat="38.4470017" lon="15.9556217"><ele>67.0</ele><time>2026-05-03T15:44:08.883Z</time></trkpt><trkpt lat="38.4468117" lon="15.9551267"><ele>65.0</ele><time>2026-05-03T15:44:09.884Z</time></trkpt><trkpt lat="38.4466183" lon="15.9546483"><ele>63.0</ele><time>2026-05-03T15:44:10.883Z</time></trkpt><trkpt lat="38.446415" lon="15.9541933"><ele>64.0</ele><time>2026-05-03T15:44:11.884Z</time></trkpt><trkpt lat="38.4461883" lon="15.9537567"><ele>65.0</ele><time>2026-05-03T15:44:12.883Z</time></trkpt><trkpt lat="38.445945" lon="15.953325"><ele>65.0</ele><time>2026-05-03T15:44:13.884Z</time></trkpt><trkpt lat="38.4456867" lon="15.9528867"><ele>65.0</ele><time>2026-05-03T15:44:14.884Z</time></trkpt><trkpt lat="38.4454117" lon="15.952455"><ele>64.0</ele><time>2026-05-03T15:44:15.884Z</time></trkpt><trkpt lat="38.4451383" lon="15.9520483"><ele>63.0</ele><time>2026-05-03T15:44:16.884Z</time></trkpt><trkpt lat="38.4448667" lon="15.9516617"><ele>64.0</ele><time>2026-05-03T15:44:17.883Z</time></trkpt><trkpt lat="38.444595" lon="15.9512917"><ele>65.0</ele><time>2026-05-03T15:44:18.883Z</time></trkpt><trkpt lat="38.44432" lon="15.9509317"><ele>65.0</ele><time>2026-05-03T15:44:19.884Z</time></trkpt><trkpt lat="38.44405" lon="15.95058"><ele>65.0</ele><time>2026-05-03T15:44:20.884Z</time></trkpt><trkpt lat="38.4437833" lon="15.9502283"><ele>64.0</ele><time>2026-05-03T15:44:21.884Z</time></trkpt><trkpt lat="38.4435183" lon="15.9498867"><ele>63.0</ele><time>2026-05-03T15:44:22.884Z</time></trkpt><trkpt lat="38.4432567" lon="15.9495467"><ele>62.5</ele><time>2026-05-03T15:44:23.883Z</time></trkpt><trkpt lat="38.443" lon="15.9491983"><ele>62.0</ele><time>2026-05-03T15:44:24.883Z</time></trkpt><trkpt lat="38.442755" lon="15.948855"><ele>62.0</ele><time>2026-05-03T15:44:25.883Z</time></trkpt><trkpt lat="38.442535" lon="15.9485117"><ele>62.0</ele><time>2026-05-03T15:44:26.884Z</time></trkpt><trkpt lat="38.4423217" lon="15.9481733"><ele>62.0</ele><time>2026-05-03T15:44:27.884Z</time></trkpt><trkpt lat="38.4421183" lon="15.9478433"><ele>62.0</ele><time>2026-05-03T15:44:28.883Z</time></trkpt><trkpt lat="38.4419367" lon="15.9475267"><ele>60.5</ele><time>2026-05-03T15:44:29.884Z</time></trkpt><trkpt lat="38.4417683" lon="15.9472017"><ele>59.0</ele><time>2026-05-03T15:44:30.883Z</time></trkpt><trkpt lat="38.4416017" lon="15.9468767"><ele>58.5</ele><time>2026-05-03T15:44:31.884Z</time></trkpt><trkpt lat="38.4414417" lon="15.9465517"><ele>58.0</ele><time>2026-05-03T15:44:32.884Z</time></trkpt><trkpt lat="38.4412917" lon="15.94623"><ele>59.5</ele><time>2026-05-03T15:44:33.884Z</time></trkpt><trkpt lat="38.44116" lon="15.9459133"><ele>61.0</ele><time>2026-05-03T15:44:34.884Z</time></trkpt><trkpt lat="38.4410483" lon="15.945605"><ele>61.0</ele><time>2026-05-03T15:44:35.884Z</time></trkpt><trkpt lat="38.44094" lon="15.9453083"><ele>61.0</ele><time>2026-05-03T15:44:36.883Z</time></trkpt><trkpt lat="38.4408283" lon="15.9450217"><ele>60.666666666666664</ele><time>2026-05-03T15:44:37.884Z</time></trkpt><trkpt lat="38.4407317" lon="15.9447617"><ele>60.33333333333333</ele><time>2026-05-03T15:44:38.884Z</time></trkpt><trkpt lat="38.4406383" lon="15.9445183"><ele>60.0</ele><time>2026-05-03T15:44:39.884Z</time></trkpt><trkpt lat="38.4405567" lon="15.9443"><ele>59.33333333333333</ele><time>2026-05-03T15:44:40.883Z</time></trkpt><trkpt lat="38.440485" lon="15.94409"><ele>58.666666666666664</ele><time>2026-05-03T15:44:41.884Z</time></trkpt><trkpt lat="38.4404217" lon="15.943885"><ele>58.0</ele><time>2026-05-03T15:44:42.884Z</time></trkpt><trkpt lat="38.44038" lon="15.9436933"><ele>58.0</ele><time>2026-05-03T15:44:43.883Z</time></trkpt><trkpt lat="38.4403633" lon="15.94352"><ele>58.0</ele><time>2026-05-03T15:44:44.884Z</time></trkpt><trkpt lat="38.4403633" lon="15.9433383"><ele>58.0</ele><time>2026-05-03T15:44:45.884Z</time></trkpt><trkpt lat="38.440365" lon="15.9431733"><ele>58.0</ele><time>2026-05-03T15:44:46.884Z</time></trkpt><trkpt lat="38.4403633" lon="15.9430283"><ele>57.49999999999999</ele><time>2026-05-03T15:44:47.883Z</time></trkpt><trkpt lat="38.44035" lon="15.9429"><ele>57.0</ele><time>2026-05-03T15:44:48.883Z</time></trkpt><trkpt lat="38.4403317" lon="15.9427917"><ele>56.5</ele><time>2026-05-03T15:44:49.884Z</time></trkpt><trkpt lat="38.4402983" lon="15.9426933"><ele>56.0</ele><time>2026-05-03T15:44:50.884Z</time></trkpt><trkpt lat="38.44027" lon="15.9426033"><ele>55.49999999999999</ele><time>2026-05-03T15:44:51.884Z</time></trkpt><trkpt lat="38.440235" lon="15.94253"><ele>55.0</ele><time>2026-05-03T15:44:52.883Z</time></trkpt><trkpt lat="38.4401817" lon="15.9424117"><ele>54.857142857142854</ele><time>2026-05-03T15:44:54.883Z</time></trkpt><trkpt lat="38.4401417" lon="15.9423367"><ele>54.714285714285715</ele><time>2026-05-03T15:44:56.884Z</time></trkpt><trkpt lat="38.4400933" lon="15.942265"><ele>54.57142857142857</ele><time>2026-05-03T15:44:59.884Z</time></trkpt><trkpt lat="38.44004" lon="15.9422217"><ele>54.42857142857143</ele><time>2026-05-03T15:45:03.884Z</time></trkpt><trkpt lat="38.44011" lon="15.9421833"><ele>54.285714285714285</ele><time>2026-05-03T15:45:14.884Z</time></trkpt><trkpt lat="38.4400667" lon="15.9421117"><ele>54.14285714285714</ele><time>2026-05-03T16:21:19.887Z</time></trkpt><trkpt lat="38.4400267" lon="15.9420433"><ele>54.0</ele><time>2026-05-03T16:21:21.887Z</time></trkpt><trkpt lat="38.4399967" lon="15.9419533"><ele>54.0</ele><time>2026-05-03T16:21:23.887Z</time></trkpt><trkpt lat="38.4399433" lon="15.941885"><ele>54.0</ele><time>2026-05-03T16:21:25.887Z</time></trkpt><trkpt lat="38.4398867" lon="15.941845"><ele>54.0</ele><time>2026-05-03T16:21:27.886Z</time></trkpt><trkpt lat="38.4398217" lon="15.9417867"><ele>54.0</ele><time>2026-05-03T16:21:30.887Z</time></trkpt><trkpt lat="38.4397633" lon="15.9417267"><ele>54.0</ele><time>2026-05-03T16:21:33.887Z</time></trkpt><trkpt lat="38.4397033" lon="15.9416683"><ele>54.0</ele><time>2026-05-03T16:21:36.887Z</time></trkpt><trkpt lat="38.4396433" lon="15.941595"><ele>54.0</ele><time>2026-05-03T16:21:38.887Z</time></trkpt><trkpt lat="38.4395717" lon="15.9415017"><ele>54.00000000000001</ele><time>2026-05-03T16:21:40.887Z</time></trkpt><trkpt lat="38.4394933" lon="15.9414033"><ele>54.00000000000001</ele><time>2026-05-03T16:21:42.887Z</time></trkpt><trkpt lat="38.4394167" lon="15.9412717"><ele>54.0</ele><time>2026-05-03T16:21:44.887Z</time></trkpt><trkpt lat="38.4393833" lon="15.9411833"><ele>54.0</ele><time>2026-05-03T16:21:45.886Z</time></trkpt><trkpt lat="38.4393517" lon="15.941085"><ele>54.0</ele><time>2026-05-03T16:21:46.887Z</time></trkpt><trkpt lat="38.4393183" lon="15.9409883"><ele>54.00000000000001</ele><time>2026-05-03T16:21:47.887Z</time></trkpt><trkpt lat="38.4392783" lon="15.94088"><ele>54.00000000000001</ele><time>2026-05-03T16:21:48.887Z</time></trkpt><trkpt lat="38.439225" lon="15.9407583"><ele>54.0</ele><time>2026-05-03T16:21:49.887Z</time></trkpt><trkpt lat="38.4391717" lon="15.940635"><ele>54.0</ele><time>2026-05-03T16:21:50.886Z</time></trkpt><trkpt lat="38.4391183" lon="15.9404967"><ele>53.75</ele><time>2026-05-03T16:21:51.886Z</time></trkpt><trkpt lat="38.4390583" lon="15.9403533"><ele>53.5</ele><time>2026-05-03T16:21:52.886Z</time></trkpt><trkpt lat="38.4389933" lon="15.9402033"><ele>53.25</ele><time>2026-05-03T16:21:53.887Z</time></trkpt><trkpt lat="38.4389267" lon="15.9400583"><ele>53.0</ele><time>2026-05-03T16:21:54.887Z</time></trkpt><trkpt lat="38.4388567" lon="15.9398933"><ele>54.0</ele><time>2026-05-03T16:21:55.886Z</time></trkpt><trkpt lat="38.43879" lon="15.9397317"><ele>55.0</ele><time>2026-05-03T16:21:56.886Z</time></trkpt><trkpt lat="38.4387067" lon="15.93957"><ele>56.0</ele><time>2026-05-03T16:21:57.887Z</time></trkpt><trkpt lat="38.4386233" lon="15.9393967"><ele>56.0</ele><time>2026-05-03T16:21:58.887Z</time></trkpt><trkpt lat="38.4385383" lon="15.9392217"><ele>56.0</ele><time>2026-05-03T16:21:59.887Z</time></trkpt><trkpt lat="38.438445" lon="15.9390383"><ele>56.0</ele><time>2026-05-03T16:22:00.887Z</time></trkpt><trkpt lat="38.4383517" lon="15.9388467"><ele>55.333333333333336</ele><time>2026-05-03T16:22:01.887Z</time></trkpt><trkpt lat="38.438255" lon="15.9386567"><ele>54.66666666666667</ele><time>2026-05-03T16:22:02.887Z</time></trkpt><trkpt lat="38.438155" lon="15.938465"><ele>54.0</ele><time>2026-05-03T16:22:03.887Z</time></trkpt><trkpt lat="38.438055" lon="15.9382667"><ele>54.66666666666667</ele><time>2026-05-03T16:22:04.887Z</time></trkpt><trkpt lat="38.4379433" lon="15.9380633"><ele>55.333333333333336</ele><time>2026-05-03T16:22:05.886Z</time></trkpt><trkpt lat="38.4378217" lon="15.9378533"><ele>56.0</ele><time>2026-05-03T16:22:06.887Z</time></trkpt><trkpt lat="38.4376967" lon="15.9376283"><ele>54.5</ele><time>2026-05-03T16:22:07.887Z</time></trkpt><trkpt lat="38.4375617" lon="15.9373967"><ele>53.0</ele><time>2026-05-03T16:22:08.886Z</time></trkpt><trkpt lat="38.4374183" lon="15.9371617"><ele>53.0</ele><time>2026-05-03T16:22:09.887Z</time></trkpt><trkpt lat="38.4372717" lon="15.9369333"><ele>53.0</ele><time>2026-05-03T16:22:10.886Z</time></trkpt><trkpt lat="38.4371333" lon="15.9367017"><ele>51.5</ele><time>2026-05-03T16:22:11.887Z</time></trkpt><trkpt lat="38.436975" lon="15.9364767"><ele>50.0</ele><time>2026-05-03T16:22:12.886Z</time></trkpt><trkpt lat="38.4368133" lon="15.936245"><ele>50.0</ele><time>2026-05-03T16:22:13.887Z</time></trkpt><trkpt lat="38.4366417" lon="15.9360117"><ele>50.0</ele><time>2026-05-03T16:22:14.887Z</time></trkpt><trkpt lat="38.4364617" lon="15.93577"><ele>49.0</ele><time>2026-05-03T16:22:15.887Z</time></trkpt><trkpt lat="38.4362817" lon="15.9355317"><ele>48.0</ele><time>2026-05-03T16:22:16.887Z</time></trkpt><trkpt lat="38.4360967" lon="15.9352917"><ele>48.5</ele><time>2026-05-03T16:22:17.887Z</time></trkpt><trkpt lat="38.4359083" lon="15.9350483"><ele>49.0</ele><time>2026-05-03T16:22:18.886Z</time></trkpt><trkpt lat="38.43552" lon="15.9345633"><ele>44.0</ele><time>2026-05-03T16:22:20.887Z</time></trkpt><trkpt lat="38.435315" lon="15.9343183"><ele>39.0</ele><time>2026-05-03T16:22:21.887Z</time></trkpt><trkpt lat="38.4351167" lon="15.9340767"><ele>39.0</ele><time>2026-05-03T16:22:22.887Z</time></trkpt><trkpt lat="38.434915" lon="15.933835"><ele>39.0</ele><time>2026-05-03T16:22:23.887Z</time></trkpt><trkpt lat="38.4347017" lon="15.93359"><ele>35.5</ele><time>2026-05-03T16:22:24.886Z</time></trkpt><trkpt lat="38.4344783" lon="15.93334"><ele>32.0</ele><time>2026-05-03T16:22:25.887Z</time></trkpt><trkpt lat="38.43426" lon="15.9330783"><ele>32.0</ele><time>2026-05-03T16:22:26.887Z</time></trkpt><trkpt lat="38.4340383" lon="15.93282"><ele>32.0</ele><time>2026-05-03T16:22:27.887Z</time></trkpt><trkpt lat="38.4338167" lon="15.9325617"><ele>30.5</ele><time>2026-05-03T16:22:28.886Z</time></trkpt><trkpt lat="38.43359" lon="15.9322917"><ele>29.0</ele><time>2026-05-03T16:22:29.886Z</time></trkpt><trkpt lat="38.4333583" lon="15.9320117"><ele>29.0</ele><time>2026-05-03T16:22:30.887Z</time></trkpt><trkpt lat="38.4331317" lon="15.9317383"><ele>29.0</ele><time>2026-05-03T16:22:31.887Z</time></trkpt><trkpt lat="38.432905" lon="15.9314667"><ele>27.0</ele><time>2026-05-03T16:22:32.886Z</time></trkpt><trkpt lat="38.43268" lon="15.9311867"><ele>25.0</ele><time>2026-05-03T16:22:33.887Z</time></trkpt><trkpt lat="38.43245" lon="15.9309133"><ele>27.0</ele><time>2026-05-03T16:22:34.887Z</time></trkpt><trkpt lat="38.432215" lon="15.93065"><ele>29.0</ele><time>2026-05-03T16:22:35.886Z</time></trkpt><trkpt lat="38.4319917" lon="15.9303767"><ele>29.0</ele><time>2026-05-03T16:22:36.887Z</time></trkpt><trkpt lat="38.431765" lon="15.930095"><ele>29.0</ele><time>2026-05-03T16:22:37.887Z</time></trkpt><trkpt lat="38.431535" lon="15.9298117"><ele>23.5</ele><time>2026-05-03T16:22:38.886Z</time></trkpt><trkpt lat="38.431305" lon="15.9295333"><ele>18.0</ele><time>2026-05-03T16:22:39.887Z</time></trkpt><trkpt lat="38.4310767" lon="15.92926"><ele>20.0</ele><time>2026-05-03T16:22:40.887Z</time></trkpt><trkpt lat="38.4308483" lon="15.928975"><ele>22.0</ele><time>2026-05-03T16:22:41.886Z</time></trkpt><trkpt lat="38.4306083" lon="15.9286933"><ele>21.0</ele><time>2026-05-03T16:22:42.887Z</time></trkpt><trkpt lat="38.4303583" lon="15.928415"><ele>20.0</ele><time>2026-05-03T16:22:43.887Z</time></trkpt><trkpt lat="38.4301133" lon="15.9281333"><ele>20.0</ele><time>2026-05-03T16:22:44.887Z</time></trkpt><trkpt lat="38.4298633" lon="15.927865"><ele>20.0</ele><time>2026-05-03T16:22:45.887Z</time></trkpt><trkpt lat="38.4296083" lon="15.9275983"><ele>18.5</ele><time>2026-05-03T16:22:46.887Z</time></trkpt><trkpt lat="38.42935" lon="15.92733"><ele>17.0</ele><time>2026-05-03T16:22:47.887Z</time></trkpt><trkpt lat="38.429085" lon="15.92707"><ele>17.0</ele><time>2026-05-03T16:22:48.886Z</time></trkpt><trkpt lat="38.4288117" lon="15.9268117"><ele>17.0</ele><time>2026-05-03T16:22:49.887Z</time></trkpt><trkpt lat="38.428535" lon="15.9265617"><ele>17.0</ele><time>2026-05-03T16:22:50.887Z</time></trkpt><trkpt lat="38.4282517" lon="15.9263117"><ele>17.0</ele><time>2026-05-03T16:22:51.887Z</time></trkpt><trkpt lat="38.427965" lon="15.9260667"><ele>18.5</ele><time>2026-05-03T16:22:52.887Z</time></trkpt><trkpt lat="38.4276667" lon="15.92583"><ele>20.0</ele><time>2026-05-03T16:22:53.887Z</time></trkpt><trkpt lat="38.4273567" lon="15.9255983"><ele>22.5</ele><time>2026-05-03T16:22:54.886Z</time></trkpt><trkpt lat="38.4270417" lon="15.9253667"><ele>25.0</ele><time>2026-05-03T16:22:55.887Z</time></trkpt><trkpt lat="38.4267183" lon="15.92514"><ele>24.0</ele><time>2026-05-03T16:22:56.887Z</time></trkpt><trkpt lat="38.4263917" lon="15.9249167"><ele>23.0</ele><time>2026-05-03T16:22:57.886Z</time></trkpt><trkpt lat="38.4260733" lon="15.92471"><ele>29.0</ele><time>2026-05-03T16:22:58.886Z</time></trkpt><trkpt lat="38.425755" lon="15.92451"><ele>35.0</ele><time>2026-05-03T16:22:59.887Z</time></trkpt><trkpt lat="38.4254383" lon="15.92432"><ele>34.5</ele><time>2026-05-03T16:23:00.886Z</time></trkpt><trkpt lat="38.42512" lon="15.9241483"><ele>34.0</ele><time>2026-05-03T16:23:01.886Z</time></trkpt><trkpt lat="38.4248033" lon="15.923985"><ele>40.0</ele><time>2026-05-03T16:23:02.887Z</time></trkpt><trkpt lat="38.4244833" lon="15.9238283"><ele>46.0</ele><time>2026-05-03T16:23:03.887Z</time></trkpt><trkpt lat="38.42416" lon="15.9236883"><ele>46.0</ele><time>2026-05-03T16:23:04.887Z</time></trkpt><trkpt lat="38.4238317" lon="15.9235583"><ele>46.0</ele><time>2026-05-03T16:23:05.887Z</time></trkpt><trkpt lat="38.4235" lon="15.9234317"><ele>48.5</ele><time>2026-05-03T16:23:06.887Z</time></trkpt><trkpt lat="38.4231683" lon="15.9233067"><ele>51.0</ele><time>2026-05-03T16:23:07.887Z</time></trkpt><trkpt lat="38.422835" lon="15.92318"><ele>51.0</ele><time>2026-05-03T16:23:08.887Z</time></trkpt><trkpt lat="38.4225067" lon="15.9230533"><ele>51.0</ele><time>2026-05-03T16:23:09.887Z</time></trkpt><trkpt lat="38.4221817" lon="15.9229283"><ele>54.5</ele><time>2026-05-03T16:23:10.887Z</time></trkpt><trkpt lat="38.42186" lon="15.9228083"><ele>58.0</ele><time>2026-05-03T16:23:11.887Z</time></trkpt><trkpt lat="38.421535" lon="15.9226817"><ele>57.5</ele><time>2026-05-03T16:23:12.886Z</time></trkpt><trkpt lat="38.42121" lon="15.92256"><ele>57.0</ele><time>2026-05-03T16:23:13.887Z</time></trkpt><trkpt lat="38.420885" lon="15.9224317"><ele>57.0</ele><time>2026-05-03T16:23:14.887Z</time></trkpt><trkpt lat="38.42056" lon="15.9223017"><ele>57.0</ele><time>2026-05-03T16:23:15.887Z</time></trkpt><trkpt lat="38.420245" lon="15.9221767"><ele>58.0</ele><time>2026-05-03T16:23:16.887Z</time></trkpt><trkpt lat="38.4199267" lon="15.9220533"><ele>59.0</ele><time>2026-05-03T16:23:17.887Z</time></trkpt><trkpt lat="38.4196067" lon="15.9219317"><ele>59.5</ele><time>2026-05-03T16:23:18.887Z</time></trkpt><trkpt lat="38.4192917" lon="15.9218117"><ele>60.0</ele><time>2026-05-03T16:23:19.887Z</time></trkpt><trkpt lat="38.4189817" lon="15.9216867"><ele>60.0</ele><time>2026-05-03T16:23:20.887Z</time></trkpt><trkpt lat="38.4186667" lon="15.9215683"><ele>60.0</ele><time>2026-05-03T16:23:21.887Z</time></trkpt><trkpt lat="38.4183467" lon="15.9214483"><ele>60.0</ele><time>2026-05-03T16:23:22.887Z</time></trkpt><trkpt lat="38.4180267" lon="15.9213333"><ele>60.0</ele><time>2026-05-03T16:23:23.886Z</time></trkpt><trkpt lat="38.4177133" lon="15.9212133"><ele>60.0</ele><time>2026-05-03T16:23:24.886Z</time></trkpt><trkpt lat="38.4174067" lon="15.9210933"><ele>60.0</ele><time>2026-05-03T16:23:25.887Z</time></trkpt><trkpt lat="38.417105" lon="15.92097"><ele>60.5</ele><time>2026-05-03T16:23:26.886Z</time></trkpt><trkpt lat="38.416795" lon="15.9208433"><ele>61.0</ele><time>2026-05-03T16:23:27.888Z</time></trkpt><trkpt lat="38.41648" lon="15.9207233"><ele>62.0</ele><time>2026-05-03T16:23:28.887Z</time></trkpt><trkpt lat="38.4161617" lon="15.9205967"><ele>63.0</ele><time>2026-05-03T16:23:29.887Z</time></trkpt><trkpt lat="38.4158467" lon="15.920475"><ele>63.0</ele><time>2026-05-03T16:23:30.888Z</time></trkpt><trkpt lat="38.415535" lon="15.9203417"><ele>63.0</ele><time>2026-05-03T16:23:31.888Z</time></trkpt><trkpt lat="38.41522" lon="15.9202067"><ele>63.0</ele><time>2026-05-03T16:23:32.888Z</time></trkpt><trkpt lat="38.4149017" lon="15.92007"><ele>63.0</ele><time>2026-05-03T16:23:33.887Z</time></trkpt><trkpt lat="38.4145917" lon="15.919925"><ele>63.0</ele><time>2026-05-03T16:23:34.887Z</time></trkpt><trkpt lat="38.4142833" lon="15.9197683"><ele>63.0</ele><time>2026-05-03T16:23:35.888Z</time></trkpt><trkpt lat="38.4139733" lon="15.9196067"><ele>63.5</ele><time>2026-05-03T16:23:36.888Z</time></trkpt><trkpt lat="38.41367" lon="15.9194317"><ele>64.0</ele><time>2026-05-03T16:23:37.887Z</time></trkpt><trkpt lat="38.413375" lon="15.9192383"><ele>63.0</ele><time>2026-05-03T16:23:38.888Z</time></trkpt><trkpt lat="38.4130767" lon="15.919035"><ele>62.0</ele><time>2026-05-03T16:23:39.888Z</time></trkpt><trkpt lat="38.41278" lon="15.9188317"><ele>62.0</ele><time>2026-05-03T16:23:40.888Z</time></trkpt><trkpt lat="38.41249" lon="15.9186183"><ele>62.0</ele><time>2026-05-03T16:23:41.888Z</time></trkpt><trkpt lat="38.4122067" lon="15.9183933"><ele>61.5</ele><time>2026-05-03T16:23:42.887Z</time></trkpt><trkpt lat="38.4119283" lon="15.9181517"><ele>61.0</ele><time>2026-05-03T16:23:43.888Z</time></trkpt><trkpt lat="38.4116583" lon="15.9178983"><ele>61.0</ele><time>2026-05-03T16:23:44.887Z</time></trkpt><trkpt lat="38.4113917" lon="15.9176433"><ele>61.0</ele><time>2026-05-03T16:23:45.888Z</time></trkpt><trkpt lat="38.4111267" lon="15.9173783"><ele>61.5</ele><time>2026-05-03T16:23:46.887Z</time></trkpt><trkpt lat="38.4108683" lon="15.91711"><ele>62.0</ele><time>2026-05-03T16:23:47.887Z</time></trkpt><trkpt lat="38.4106167" lon="15.9168317"><ele>62.5</ele><time>2026-05-03T16:23:48.888Z</time></trkpt><trkpt lat="38.41037" lon="15.9165483"><ele>63.0</ele><time>2026-05-03T16:23:49.888Z</time></trkpt><trkpt lat="38.410125" lon="15.916255"><ele>63.0</ele><time>2026-05-03T16:23:50.888Z</time></trkpt><trkpt lat="38.409885" lon="15.91595"><ele>63.0</ele><time>2026-05-03T16:23:51.887Z</time></trkpt><trkpt lat="38.4096467" lon="15.91565"><ele>62.5</ele><time>2026-05-03T16:23:52.887Z</time></trkpt><trkpt lat="38.4094033" lon="15.9153417"><ele>62.0</ele><time>2026-05-03T16:23:53.888Z</time></trkpt><trkpt lat="38.4091683" lon="15.9150333"><ele>62.0</ele><time>2026-05-03T16:23:54.888Z</time></trkpt><trkpt lat="38.4089317" lon="15.9147283"><ele>62.0</ele><time>2026-05-03T16:23:55.888Z</time></trkpt><trkpt lat="38.4086933" lon="15.914425"><ele>61.0</ele><time>2026-05-03T16:23:56.888Z</time></trkpt><trkpt lat="38.4084517" lon="15.9141283"><ele>60.0</ele><time>2026-05-03T16:23:57.888Z</time></trkpt><trkpt lat="38.4082167" lon="15.9138283"><ele>60.5</ele><time>2026-05-03T16:23:58.887Z</time></trkpt><trkpt lat="38.407975" lon="15.9135317"><ele>61.0</ele><time>2026-05-03T16:23:59.888Z</time></trkpt><trkpt lat="38.40772" lon="15.9132383"><ele>57.0</ele><time>2026-05-03T16:24:00.888Z</time></trkpt><trkpt lat="38.40747" lon="15.91295"><ele>53.0</ele><time>2026-05-03T16:24:01.888Z</time></trkpt><trkpt lat="38.4072017" lon="15.9126767"><ele>49.5</ele><time>2026-05-03T16:24:02.888Z</time></trkpt><trkpt lat="38.40694" lon="15.912415"><ele>46.0</ele><time>2026-05-03T16:24:03.887Z</time></trkpt><trkpt lat="38.4066617" lon="15.912155"><ele>46.0</ele><time>2026-05-03T16:24:04.887Z</time></trkpt><trkpt lat="38.4063783" lon="15.9119"><ele>46.0</ele><time>2026-05-03T16:24:05.887Z</time></trkpt><trkpt lat="38.4060883" lon="15.91165"><ele>43.0</ele><time>2026-05-03T16:24:06.888Z</time></trkpt><trkpt lat="38.4058033" lon="15.9113917"><ele>40.0</ele><time>2026-05-03T16:24:07.888Z</time></trkpt><trkpt lat="38.4055167" lon="15.9111383"><ele>37.5</ele><time>2026-05-03T16:24:08.887Z</time></trkpt><trkpt lat="38.4052333" lon="15.9108833"><ele>35.0</ele><time>2026-05-03T16:24:09.887Z</time></trkpt><trkpt lat="38.4049483" lon="15.9106367"><ele>35.0</ele><time>2026-05-03T16:24:10.887Z</time></trkpt><trkpt lat="38.4046667" lon="15.9103867"><ele>35.0</ele><time>2026-05-03T16:24:11.888Z</time></trkpt><trkpt lat="38.4043883" lon="15.9101333"><ele>30.0</ele><time>2026-05-03T16:24:12.887Z</time></trkpt><trkpt lat="38.404115" lon="15.9098867"><ele>25.0</ele><time>2026-05-03T16:24:13.887Z</time></trkpt><trkpt lat="38.4038367" lon="15.9096433"><ele>24.0</ele><time>2026-05-03T16:24:14.888Z</time></trkpt><trkpt lat="38.40356" lon="15.9094"><ele>23.0</ele><time>2026-05-03T16:24:15.887Z</time></trkpt><trkpt lat="38.4032833" lon="15.90916"><ele>23.0</ele><time>2026-05-03T16:24:16.888Z</time></trkpt><trkpt lat="38.403005" lon="15.908915"><ele>23.0</ele><time>2026-05-03T16:24:17.887Z</time></trkpt><trkpt lat="38.40273" lon="15.9086683"><ele>23.0</ele><time>2026-05-03T16:24:18.888Z</time></trkpt><trkpt lat="38.4024583" lon="15.9084267"><ele>23.0</ele><time>2026-05-03T16:24:19.887Z</time></trkpt><trkpt lat="38.40219" lon="15.9081883"><ele>22.5</ele><time>2026-05-03T16:24:20.887Z</time></trkpt><trkpt lat="38.4019233" lon="15.907955"><ele>22.0</ele><time>2026-05-03T16:24:21.888Z</time></trkpt><trkpt lat="38.401665" lon="15.9077417"><ele>24.0</ele><time>2026-05-03T16:24:22.888Z</time></trkpt><trkpt lat="38.401395" lon="15.9075367"><ele>26.0</ele><time>2026-05-03T16:24:23.888Z</time></trkpt><trkpt lat="38.40112" lon="15.90735"><ele>29.0</ele><time>2026-05-03T16:24:24.888Z</time></trkpt><trkpt lat="38.4008317" lon="15.907175"><ele>32.0</ele><time>2026-05-03T16:24:25.888Z</time></trkpt><trkpt lat="38.40054" lon="15.907025"><ele>31.0</ele><time>2026-05-03T16:24:26.888Z</time></trkpt><trkpt lat="38.4002317" lon="15.90689"><ele>30.0</ele><time>2026-05-03T16:24:27.888Z</time></trkpt><trkpt lat="38.3999267" lon="15.90678"><ele>38.5</ele><time>2026-05-03T16:24:28.888Z</time></trkpt><trkpt lat="38.3996167" lon="15.9066833"><ele>47.0</ele><time>2026-05-03T16:24:29.888Z</time></trkpt><trkpt lat="38.399305" lon="15.9066167"><ele>47.0</ele><time>2026-05-03T16:24:30.888Z</time></trkpt><trkpt lat="38.398985" lon="15.906555"><ele>47.0</ele><time>2026-05-03T16:24:31.888Z</time></trkpt><trkpt lat="38.3986583" lon="15.906525"><ele>49.0</ele><time>2026-05-03T16:24:32.887Z</time></trkpt><trkpt lat="38.3983333" lon="15.9065033"><ele>51.0</ele><time>2026-05-03T16:24:33.888Z</time></trkpt><trkpt lat="38.3980067" lon="15.90649"><ele>54.5</ele><time>2026-05-03T16:24:34.888Z</time></trkpt><trkpt lat="38.3976783" lon="15.9064783"><ele>58.0</ele><time>2026-05-03T16:24:35.887Z</time></trkpt><trkpt lat="38.3973483" lon="15.9064617"><ele>54.5</ele><time>2026-05-03T16:24:36.887Z</time></trkpt><trkpt lat="38.3970233" lon="15.906435"><ele>51.0</ele><time>2026-05-03T16:24:37.888Z</time></trkpt><trkpt lat="38.3966967" lon="15.906395"><ele>51.0</ele><time>2026-05-03T16:24:38.888Z</time></trkpt><trkpt lat="38.396375" lon="15.9063317"><ele>51.0</ele><time>2026-05-03T16:24:39.887Z</time></trkpt><trkpt lat="38.3960533" lon="15.9062433"><ele>47.0</ele><time>2026-05-03T16:24:40.887Z</time></trkpt><trkpt lat="38.39574" lon="15.9061433"><ele>43.0</ele><time>2026-05-03T16:24:41.888Z</time></trkpt><trkpt lat="38.395435" lon="15.90602"><ele>50.5</ele><time>2026-05-03T16:24:42.888Z</time></trkpt><trkpt lat="38.395135" lon="15.9058767"><ele>58.0</ele><time>2026-05-03T16:24:43.887Z</time></trkpt><trkpt lat="38.39484" lon="15.9057283"><ele>54.5</ele><time>2026-05-03T16:24:44.888Z</time></trkpt><trkpt lat="38.39454" lon="15.90558"><ele>51.0</ele><time>2026-05-03T16:24:45.888Z</time></trkpt><trkpt lat="38.394245" lon="15.90541"><ele>51.0</ele><time>2026-05-03T16:24:46.888Z</time></trkpt><trkpt lat="38.3939517" lon="15.9052417"><ele>51.0</ele><time>2026-05-03T16:24:47.887Z</time></trkpt><trkpt lat="38.3936633" lon="15.90507"><ele>58.5</ele><time>2026-05-03T16:24:48.888Z</time></trkpt><trkpt lat="38.3933867" lon="15.9049"><ele>66.0</ele><time>2026-05-03T16:24:49.888Z</time></trkpt><trkpt lat="38.3931017" lon="15.9047217"><ele>61.0</ele><time>2026-05-03T16:24:50.887Z</time></trkpt><trkpt lat="38.39282" lon="15.9045383"><ele>56.0</ele><time>2026-05-03T16:24:51.888Z</time></trkpt><trkpt lat="38.3925517" lon="15.90434"><ele>63.5</ele><time>2026-05-03T16:24:52.887Z</time></trkpt><trkpt lat="38.3922883" lon="15.9041217"><ele>71.0</ele><time>2026-05-03T16:24:53.888Z</time></trkpt><trkpt lat="38.3920267" lon="15.903905"><ele>71.0</ele><time>2026-05-03T16:24:54.888Z</time></trkpt><trkpt lat="38.39178" lon="15.903675"><ele>71.0</ele><time>2026-05-03T16:24:55.887Z</time></trkpt><trkpt lat="38.3915467" lon="15.9034283"><ele>77.0</ele><time>2026-05-03T16:24:56.888Z</time></trkpt><trkpt lat="38.391315" lon="15.9031783"><ele>83.0</ele><time>2026-05-03T16:24:57.887Z</time></trkpt><trkpt lat="38.39109" lon="15.9029317"><ele>83.0</ele><time>2026-05-03T16:24:58.888Z</time></trkpt><trkpt lat="38.39088" lon="15.9026833"><ele>83.0</ele><time>2026-05-03T16:24:59.888Z</time></trkpt><trkpt lat="38.3906783" lon="15.90244"><ele>85.5</ele><time>2026-05-03T16:25:00.888Z</time></trkpt><trkpt lat="38.39048" lon="15.9022067"><ele>88.0</ele><time>2026-05-03T16:25:01.887Z</time></trkpt><trkpt lat="38.3902883" lon="15.9019683"><ele>92.5</ele><time>2026-05-03T16:25:02.888Z</time></trkpt><trkpt lat="38.390095" lon="15.9017317"><ele>97.0</ele><time>2026-05-03T16:25:03.888Z</time></trkpt><trkpt lat="38.3899083" lon="15.9014983"><ele>97.0</ele><time>2026-05-03T16:25:04.888Z</time></trkpt><trkpt lat="38.38972" lon="15.901265"><ele>97.0</ele><time>2026-05-03T16:25:05.888Z</time></trkpt><trkpt lat="38.3895317" lon="15.901035"><ele>89.5</ele><time>2026-05-03T16:25:06.888Z</time></trkpt><trkpt lat="38.3893517" lon="15.90081"><ele>82.0</ele><time>2026-05-03T16:25:07.888Z</time></trkpt><trkpt lat="38.3891667" lon="15.90058"><ele>82.0</ele><time>2026-05-03T16:25:08.888Z</time></trkpt><trkpt lat="38.3889817" lon="15.900355"><ele>82.0</ele><time>2026-05-03T16:25:09.888Z</time></trkpt><trkpt lat="38.3888033" lon="15.9001317"><ele>82.0</ele><time>2026-05-03T16:25:10.887Z</time></trkpt><trkpt lat="38.3886283" lon="15.8999067"><ele>82.0</ele><time>2026-05-03T16:25:11.888Z</time></trkpt><trkpt lat="38.3884467" lon="15.8996783"><ele>82.0</ele><time>2026-05-03T16:25:12.888Z</time></trkpt><trkpt lat="38.3882633" lon="15.89945"><ele>82.0</ele><time>2026-05-03T16:25:13.888Z</time></trkpt><trkpt lat="38.3880817" lon="15.8992183"><ele>86.5</ele><time>2026-05-03T16:25:14.888Z</time></trkpt><trkpt lat="38.3878967" lon="15.8989867"><ele>91.0</ele><time>2026-05-03T16:25:15.887Z</time></trkpt><trkpt lat="38.3877083" lon="15.8987617"><ele>91.0</ele><time>2026-05-03T16:25:16.887Z</time></trkpt><trkpt lat="38.3875117" lon="15.898525"><ele>91.0</ele><time>2026-05-03T16:25:17.888Z</time></trkpt><trkpt lat="38.3873117" lon="15.8982817"><ele>91.0</ele><time>2026-05-03T16:25:18.888Z</time></trkpt><trkpt lat="38.387095" lon="15.8980267"><ele>91.0</ele><time>2026-05-03T16:25:19.888Z</time></trkpt><trkpt lat="38.3868783" lon="15.897765"><ele>97.5</ele><time>2026-05-03T16:25:20.888Z</time></trkpt><trkpt lat="38.3866583" lon="15.89749"><ele>104.0</ele><time>2026-05-03T16:25:21.887Z</time></trkpt><trkpt lat="38.3864283" lon="15.8972117"><ele>104.0</ele><time>2026-05-03T16:25:22.888Z</time></trkpt><trkpt lat="38.38621" lon="15.89693"><ele>104.0</ele><time>2026-05-03T16:25:23.888Z</time></trkpt><trkpt lat="38.3860033" lon="15.8966417"><ele>104.0</ele><time>2026-05-03T16:25:24.888Z</time></trkpt><trkpt lat="38.385805" lon="15.89634"><ele>104.0</ele><time>2026-05-03T16:25:25.887Z</time></trkpt><trkpt lat="38.3856183" lon="15.8960267"><ele>107.5</ele><time>2026-05-03T16:25:26.888Z</time></trkpt><trkpt lat="38.3854433" lon="15.895705"><ele>111.0</ele><time>2026-05-03T16:25:27.888Z</time></trkpt><trkpt lat="38.3852733" lon="15.895385"><ele>114.5</ele><time>2026-05-03T16:25:28.888Z</time></trkpt><trkpt lat="38.385115" lon="15.8950483"><ele>118.0</ele><time>2026-05-03T16:25:29.888Z</time></trkpt><trkpt lat="38.3849683" lon="15.8946967"><ele>118.0</ele><time>2026-05-03T16:25:30.888Z</time></trkpt><trkpt lat="38.38483" lon="15.89434"><ele>118.0</ele><time>2026-05-03T16:25:31.888Z</time></trkpt><trkpt lat="38.3847067" lon="15.89397"><ele>118.0</ele><time>2026-05-03T16:25:32.887Z</time></trkpt><trkpt lat="38.3845883" lon="15.8935967"><ele>118.0</ele><time>2026-05-03T16:25:33.887Z</time></trkpt><trkpt lat="38.3844733" lon="15.893215"><ele>120.0</ele><time>2026-05-03T16:25:34.888Z</time></trkpt><trkpt lat="38.3843617" lon="15.8928267"><ele>122.0</ele><time>2026-05-03T16:25:35.887Z</time></trkpt><trkpt lat="38.3842567" lon="15.8924333"><ele>122.5</ele><time>2026-05-03T16:25:36.888Z</time></trkpt><trkpt lat="38.38415" lon="15.8920433"><ele>123.0</ele><time>2026-05-03T16:25:37.888Z</time></trkpt><trkpt lat="38.384045" lon="15.89166"><ele>126.5</ele><time>2026-05-03T16:25:38.887Z</time></trkpt><trkpt lat="38.383935" lon="15.8912883"><ele>130.0</ele><time>2026-05-03T16:25:39.888Z</time></trkpt><trkpt lat="38.383835" lon="15.8909083"><ele>130.0</ele><time>2026-05-03T16:25:40.887Z</time></trkpt><trkpt lat="38.383735" lon="15.89053"><ele>130.0</ele><time>2026-05-03T16:25:41.888Z</time></trkpt><trkpt lat="38.3836383" lon="15.89016"><ele>132.5</ele><time>2026-05-03T16:25:42.888Z</time></trkpt><trkpt lat="38.3835483" lon="15.8897933"><ele>135.0</ele><time>2026-05-03T16:25:43.888Z</time></trkpt><trkpt lat="38.3834683" lon="15.8894183"><ele>136.5</ele><time>2026-05-03T16:25:44.888Z</time></trkpt><trkpt lat="38.3833983" lon="15.88904"><ele>138.0</ele><time>2026-05-03T16:25:45.888Z</time></trkpt><trkpt lat="38.3833333" lon="15.888665"><ele>138.5</ele><time>2026-05-03T16:25:46.888Z</time></trkpt><trkpt lat="38.3832817" lon="15.8882833"><ele>139.0</ele><time>2026-05-03T16:25:47.888Z</time></trkpt><trkpt lat="38.3832267" lon="15.88791"><ele>141.0</ele><time>2026-05-03T16:25:48.888Z</time></trkpt><trkpt lat="38.3831817" lon="15.8875433"><ele>143.0</ele><time>2026-05-03T16:25:49.888Z</time></trkpt><trkpt lat="38.3831367" lon="15.8871817"><ele>143.0</ele><time>2026-05-03T16:25:50.888Z</time></trkpt><trkpt lat="38.3831017" lon="15.8868133"><ele>143.0</ele><time>2026-05-03T16:25:51.887Z</time></trkpt><trkpt lat="38.3830633" lon="15.8864517"><ele>144.0</ele><time>2026-05-03T16:25:52.888Z</time></trkpt><trkpt lat="38.383035" lon="15.88608"><ele>145.0</ele><time>2026-05-03T16:25:53.888Z</time></trkpt><trkpt lat="38.3830017" lon="15.88572"><ele>145.0</ele><time>2026-05-03T16:25:54.888Z</time></trkpt><trkpt lat="38.3829783" lon="15.8853483"><ele>145.0</ele><time>2026-05-03T16:25:55.888Z</time></trkpt><trkpt lat="38.3829467" lon="15.8849733"><ele>147.0</ele><time>2026-05-03T16:25:56.888Z</time></trkpt><trkpt lat="38.382915" lon="15.88461"><ele>149.0</ele><time>2026-05-03T16:25:57.888Z</time></trkpt><trkpt lat="38.38288" lon="15.8842333"><ele>151.0</ele><time>2026-05-03T16:25:58.888Z</time></trkpt><trkpt lat="38.3828367" lon="15.883855"><ele>153.0</ele><time>2026-05-03T16:25:59.888Z</time></trkpt><trkpt lat="38.382795" lon="15.8834817"><ele>155.0</ele><time>2026-05-03T16:26:00.887Z</time></trkpt><trkpt lat="38.38275" lon="15.8831083"><ele>157.0</ele><time>2026-05-03T16:26:01.887Z</time></trkpt><trkpt lat="38.3827" lon="15.8827317"><ele>160.0</ele><time>2026-05-03T16:26:02.887Z</time></trkpt><trkpt lat="38.3826517" lon="15.88235"><ele>163.0</ele><time>2026-05-03T16:26:03.888Z</time></trkpt><trkpt lat="38.38259" lon="15.8819717"><ele>167.5</ele><time>2026-05-03T16:26:04.888Z</time></trkpt><trkpt lat="38.3825267" lon="15.8815867"><ele>172.0</ele><time>2026-05-03T16:26:05.888Z</time></trkpt><trkpt lat="38.3824683" lon="15.881205"><ele>179.5</ele><time>2026-05-03T16:26:06.888Z</time></trkpt><trkpt lat="38.3824067" lon="15.8808233"><ele>187.0</ele><time>2026-05-03T16:26:07.887Z</time></trkpt><trkpt lat="38.3823467" lon="15.88044"><ele>196.5</ele><time>2026-05-03T16:26:08.888Z</time></trkpt><trkpt lat="38.3822867" lon="15.8800617"><ele>206.0</ele><time>2026-05-03T16:26:09.887Z</time></trkpt><trkpt lat="38.3822317" lon="15.879695"><ele>207.5</ele><time>2026-05-03T16:26:10.887Z</time></trkpt><trkpt lat="38.3821767" lon="15.879345"><ele>209.0</ele><time>2026-05-03T16:26:11.888Z</time></trkpt><trkpt lat="38.38212" lon="15.8789633"><ele>209.0</ele><time>2026-05-03T16:26:12.888Z</time></trkpt><trkpt lat="38.3820667" lon="15.8786017"><ele>209.0</ele><time>2026-05-03T16:26:13.887Z</time></trkpt><trkpt lat="38.3820117" lon="15.8782333"><ele>213.5</ele><time>2026-05-03T16:26:14.888Z</time></trkpt><trkpt lat="38.3819583" lon="15.877875"><ele>218.0</ele><time>2026-05-03T16:26:15.888Z</time></trkpt><trkpt lat="38.3819033" lon="15.87751"><ele>222.0</ele><time>2026-05-03T16:26:16.888Z</time></trkpt><trkpt lat="38.38185" lon="15.8771417"><ele>226.0</ele><time>2026-05-03T16:26:17.888Z</time></trkpt><trkpt lat="38.3817983" lon="15.87677"><ele>214.0</ele><time>2026-05-03T16:26:18.887Z</time></trkpt><trkpt lat="38.3758083" lon="15.870465"><ele>211.5</ele><time>2026-05-03T16:26:43.883Z</time></trkpt><trkpt lat="38.37551" lon="15.8701967"><ele>209.0</ele><time>2026-05-03T16:26:44.883Z</time></trkpt><trkpt lat="38.3752583" lon="15.86996"><ele>215.5</ele><time>2026-05-03T16:26:45.883Z</time></trkpt><trkpt lat="38.37501" lon="15.8697383"><ele>222.0</ele><time>2026-05-03T16:26:46.882Z</time></trkpt><trkpt lat="38.3747683" lon="15.8695267"><ele>222.0</ele><time>2026-05-03T16:26:47.883Z</time></trkpt><trkpt lat="38.3745267" lon="15.8693167"><ele>222.0</ele><time>2026-05-03T16:26:48.883Z</time></trkpt><trkpt lat="38.3742817" lon="15.8691033"><ele>222.0</ele><time>2026-05-03T16:26:49.883Z</time></trkpt><trkpt lat="38.3740267" lon="15.868885"><ele>222.0</ele><time>2026-05-03T16:26:50.883Z</time></trkpt><trkpt lat="38.3737783" lon="15.8686617"><ele>229.0</ele><time>2026-05-03T16:26:51.882Z</time></trkpt><trkpt lat="38.3735267" lon="15.86844"><ele>236.0</ele><time>2026-05-03T16:26:52.882Z</time></trkpt><trkpt lat="38.3732767" lon="15.8682167"><ele>236.0</ele><time>2026-05-03T16:26:53.883Z</time></trkpt><trkpt lat="38.373025" lon="15.867995"><ele>236.0</ele><time>2026-05-03T16:26:54.882Z</time></trkpt><trkpt lat="38.372775" lon="15.8677683"><ele>238.0</ele><time>2026-05-03T16:26:55.883Z</time></trkpt><trkpt lat="38.37253" lon="15.8675483"><ele>240.0</ele><time>2026-05-03T16:26:56.882Z</time></trkpt><trkpt lat="38.3722933" lon="15.867315"><ele>238.0</ele><time>2026-05-03T16:26:57.882Z</time></trkpt><trkpt lat="38.3720533" lon="15.867095"><ele>236.0</ele><time>2026-05-03T16:26:58.883Z</time></trkpt><trkpt lat="38.371815" lon="15.8668883"><ele>241.0</ele><time>2026-05-03T16:26:59.883Z</time></trkpt><trkpt lat="38.3715717" lon="15.8666967"><ele>246.0</ele><time>2026-05-03T16:27:00.883Z</time></trkpt><trkpt lat="38.3713217" lon="15.8665117"><ele>246.0</ele><time>2026-05-03T16:27:01.883Z</time></trkpt><trkpt lat="38.3710683" lon="15.8663533"><ele>246.0</ele><time>2026-05-03T16:27:02.883Z</time></trkpt><trkpt lat="38.3708167" lon="15.86621"><ele>246.0</ele><time>2026-05-03T16:27:03.883Z</time></trkpt><trkpt lat="38.370555" lon="15.866075"><ele>246.0</ele><time>2026-05-03T16:27:04.882Z</time></trkpt><trkpt lat="38.370295" lon="15.8659483"><ele>244.0</ele><time>2026-05-03T16:27:05.883Z</time></trkpt><trkpt lat="38.3700333" lon="15.8658267"><ele>242.0</ele><time>2026-05-03T16:27:06.883Z</time></trkpt><trkpt lat="38.3697633" lon="15.8657167"><ele>245.0</ele><time>2026-05-03T16:27:07.883Z</time></trkpt><trkpt lat="38.3694883" lon="15.86562"><ele>248.0</ele><time>2026-05-03T16:27:08.883Z</time></trkpt><trkpt lat="38.3692117" lon="15.8655317"><ele>248.0</ele><time>2026-05-03T16:27:09.883Z</time></trkpt><trkpt lat="38.3689233" lon="15.8654583"><ele>248.0</ele><time>2026-05-03T16:27:10.883Z</time></trkpt><trkpt lat="38.36863" lon="15.8654017"><ele>249.0</ele><time>2026-05-03T16:27:11.883Z</time></trkpt><trkpt lat="38.36833" lon="15.8653567"><ele>250.0</ele><time>2026-05-03T16:27:12.883Z</time></trkpt><trkpt lat="38.3680267" lon="15.865325"><ele>250.5</ele><time>2026-05-03T16:27:13.883Z</time></trkpt><trkpt lat="38.3677167" lon="15.8652967"><ele>251.0</ele><time>2026-05-03T16:27:14.883Z</time></trkpt><trkpt lat="38.367405" lon="15.86528"><ele>252.5</ele><time>2026-05-03T16:27:15.882Z</time></trkpt><trkpt lat="38.367095" lon="15.8652717"><ele>254.0</ele><time>2026-05-03T16:27:16.882Z</time></trkpt><trkpt lat="38.3667833" lon="15.8652583"><ele>254.0</ele><time>2026-05-03T16:27:17.882Z</time></trkpt><trkpt lat="38.3664783" lon="15.8652433"><ele>254.0</ele><time>2026-05-03T16:27:18.883Z</time></trkpt><trkpt lat="38.3661817" lon="15.8652283"><ele>254.0</ele><time>2026-05-03T16:27:19.882Z</time></trkpt><trkpt lat="38.3658867" lon="15.865215"><ele>254.0</ele><time>2026-05-03T16:27:20.883Z</time></trkpt><trkpt lat="38.36559" lon="15.8652033"><ele>256.5</ele><time>2026-05-03T16:27:21.883Z</time></trkpt><trkpt lat="38.3652967" lon="15.86519"><ele>259.0</ele><time>2026-05-03T16:27:22.883Z</time></trkpt><trkpt lat="38.3650017" lon="15.8651733"><ele>259.0</ele><time>2026-05-03T16:27:23.882Z</time></trkpt><trkpt lat="38.3646967" lon="15.8651583"><ele>259.0</ele><time>2026-05-03T16:27:24.883Z</time></trkpt><trkpt lat="38.364395" lon="15.8651417"><ele>260.5</ele><time>2026-05-03T16:27:25.883Z</time></trkpt><trkpt lat="38.3640933" lon="15.8651233"><ele>262.0</ele><time>2026-05-03T16:27:26.883Z</time></trkpt><trkpt lat="38.3637967" lon="15.8651083"><ele>266.5</ele><time>2026-05-03T16:27:27.883Z</time></trkpt><trkpt lat="38.3635017" lon="15.86509"><ele>271.0</ele><time>2026-05-03T16:27:28.883Z</time></trkpt><trkpt lat="38.3632" lon="15.8650733"><ele>274.5</ele><time>2026-05-03T16:27:29.883Z</time></trkpt><trkpt lat="38.3629" lon="15.865055"><ele>278.0</ele><time>2026-05-03T16:27:30.883Z</time></trkpt><trkpt lat="38.3626033" lon="15.86503"><ele>278.0</ele><time>2026-05-03T16:27:31.882Z</time></trkpt><trkpt lat="38.362305" lon="15.86501"><ele>278.0</ele><time>2026-05-03T16:27:32.882Z</time></trkpt><trkpt lat="38.36201" lon="15.8649917"><ele>282.5</ele><time>2026-05-03T16:27:33.882Z</time></trkpt><trkpt lat="38.3617133" lon="15.86497"><ele>287.0</ele><time>2026-05-03T16:27:34.882Z</time></trkpt><trkpt lat="38.3614183" lon="15.864955"><ele>289.0</ele><time>2026-05-03T16:27:35.882Z</time></trkpt><trkpt lat="38.361125" lon="15.8649433"><ele>291.0</ele><time>2026-05-03T16:27:36.882Z</time></trkpt><trkpt lat="38.3608267" lon="15.8649417"><ele>291.0</ele><time>2026-05-03T16:27:37.882Z</time></trkpt><trkpt lat="38.3605333" lon="15.86495"><ele>291.0</ele><time>2026-05-03T16:27:38.881Z</time></trkpt><trkpt lat="38.3602367" lon="15.86497"><ele>293.5</ele><time>2026-05-03T16:27:39.882Z</time></trkpt><trkpt lat="38.3599417" lon="15.8649967"><ele>296.0</ele><time>2026-05-03T16:27:40.882Z</time></trkpt><trkpt lat="38.3596483" lon="15.8650283"><ele>292.5</ele><time>2026-05-03T16:27:41.882Z</time></trkpt><trkpt lat="38.359355" lon="15.86507"><ele>289.0</ele><time>2026-05-03T16:27:42.882Z</time></trkpt><trkpt lat="38.35906" lon="15.8651217"><ele>291.0</ele><time>2026-05-03T16:27:43.882Z</time></trkpt><trkpt lat="38.35877" lon="15.865175"><ele>293.0</ele><time>2026-05-03T16:27:44.881Z</time></trkpt><trkpt lat="38.358475" lon="15.86524"><ele>293.0</ele><time>2026-05-03T16:27:45.882Z</time></trkpt><trkpt lat="38.3581867" lon="15.86533"><ele>293.0</ele><time>2026-05-03T16:27:46.881Z</time></trkpt><trkpt lat="38.3579117" lon="15.8654167"><ele>295.5</ele><time>2026-05-03T16:27:47.882Z</time></trkpt><trkpt lat="38.3576183" lon="15.8655383"><ele>298.0</ele><time>2026-05-03T16:27:48.882Z</time></trkpt><trkpt lat="38.3573167" lon="15.8656783"><ele>299.0</ele><time>2026-05-03T16:27:49.881Z</time></trkpt><trkpt lat="38.35702" lon="15.865835"><ele>300.0</ele><time>2026-05-03T16:27:50.882Z</time></trkpt><trkpt lat="38.356725" lon="15.8660033"><ele>298.0</ele><time>2026-05-03T16:27:51.882Z</time></trkpt><trkpt lat="38.3564333" lon="15.8661783"><ele>296.0</ele><time>2026-05-03T16:27:52.881Z</time></trkpt><trkpt lat="38.3561517" lon="15.8663617"><ele>296.0</ele><time>2026-05-03T16:27:53.882Z</time></trkpt><trkpt lat="38.3558783" lon="15.8665517"><ele>296.0</ele><time>2026-05-03T16:27:54.882Z</time></trkpt><trkpt lat="38.3556083" lon="15.8667483"><ele>299.0</ele><time>2026-05-03T16:27:55.882Z</time></trkpt><trkpt lat="38.355345" lon="15.866945"><ele>302.0</ele><time>2026-05-03T16:27:56.882Z</time></trkpt><trkpt lat="38.3550833" lon="15.8671483"><ele>302.0</ele><time>2026-05-03T16:27:57.882Z</time></trkpt><trkpt lat="38.354825" lon="15.8673583"><ele>302.0</ele><time>2026-05-03T16:27:58.882Z</time></trkpt><trkpt lat="38.354565" lon="15.8675583"><ele>302.0</ele><time>2026-05-03T16:27:59.882Z</time></trkpt><trkpt lat="38.35431" lon="15.867755"><ele>302.0</ele><time>2026-05-03T16:28:00.882Z</time></trkpt><trkpt lat="38.3540667" lon="15.867945"><ele>312.0</ele><time>2026-05-03T16:28:01.882Z</time></trkpt><trkpt lat="38.35382" lon="15.86813"><ele>322.0</ele><time>2026-05-03T16:28:02.881Z</time></trkpt><trkpt lat="38.3535683" lon="15.868305"><ele>324.5</ele><time>2026-05-03T16:28:03.881Z</time></trkpt><trkpt lat="38.353305" lon="15.8684983"><ele>327.0</ele><time>2026-05-03T16:28:04.882Z</time></trkpt><trkpt lat="38.353035" lon="15.8686767"><ele>347.0</ele><time>2026-05-03T16:28:05.882Z</time></trkpt><trkpt lat="38.35278" lon="15.86885"><ele>367.0</ele><time>2026-05-03T16:28:06.882Z</time></trkpt><trkpt lat="38.3525217" lon="15.869025"><ele>367.0</ele><time>2026-05-03T16:28:07.882Z</time></trkpt><trkpt lat="38.3522633" lon="15.8691983"><ele>367.0</ele><time>2026-05-03T16:28:08.881Z</time></trkpt><trkpt lat="38.3441467" lon="15.86844"><ele>355.5</ele><time>2026-05-03T16:28:35.887Z</time></trkpt><trkpt lat="38.3438983" lon="15.8682217"><ele>344.0</ele><time>2026-05-03T16:28:36.887Z</time></trkpt><trkpt lat="38.343665" lon="15.868"><ele>333.0</ele><time>2026-05-03T16:28:37.887Z</time></trkpt><trkpt lat="38.3434033" lon="15.8678067"><ele>322.0</ele><time>2026-05-03T16:28:38.887Z</time></trkpt><trkpt lat="38.3431467" lon="15.8676133"><ele>328.0</ele><time>2026-05-03T16:28:39.886Z</time></trkpt><trkpt lat="38.3428867" lon="15.8674167"><ele>334.0</ele><time>2026-05-03T16:28:40.886Z</time></trkpt><trkpt lat="38.3426283" lon="15.867225"><ele>334.0</ele><time>2026-05-03T16:28:41.887Z</time></trkpt><trkpt lat="38.3423683" lon="15.8670267"><ele>334.0</ele><time>2026-05-03T16:28:42.887Z</time></trkpt><trkpt lat="38.3421133" lon="15.86683"><ele>341.0</ele><time>2026-05-03T16:28:43.886Z</time></trkpt><trkpt lat="38.3418533" lon="15.8666283"><ele>348.0</ele><time>2026-05-03T16:28:44.887Z</time></trkpt><trkpt lat="38.341605" lon="15.8664267"><ele>341.0</ele><time>2026-05-03T16:28:45.887Z</time></trkpt><trkpt lat="38.34135" lon="15.8662167"><ele>334.0</ele><time>2026-05-03T16:28:46.887Z</time></trkpt><trkpt lat="38.3410983" lon="15.8660117"><ele>347.0</ele><time>2026-05-03T16:28:47.887Z</time></trkpt><trkpt lat="38.3408567" lon="15.865795"><ele>360.0</ele><time>2026-05-03T16:28:48.887Z</time></trkpt><trkpt lat="38.340615" lon="15.8655867"><ele>352.0</ele><time>2026-05-03T16:28:49.886Z</time></trkpt><trkpt lat="38.340365" lon="15.8653783"><ele>344.0</ele><time>2026-05-03T16:28:50.887Z</time></trkpt><trkpt lat="38.3401083" lon="15.8651667"><ele>341.0</ele><time>2026-05-03T16:28:51.887Z</time></trkpt><trkpt lat="38.339855" lon="15.86496"><ele>338.0</ele><time>2026-05-03T16:28:52.887Z</time></trkpt><trkpt lat="38.3395983" lon="15.8647483"><ele>338.0</ele><time>2026-05-03T16:28:53.886Z</time></trkpt><trkpt lat="38.339345" lon="15.8645417"><ele>338.0</ele><time>2026-05-03T16:28:54.887Z</time></trkpt><trkpt lat="38.3390917" lon="15.8643317"><ele>336.5</ele><time>2026-05-03T16:28:55.887Z</time></trkpt><trkpt lat="38.3388333" lon="15.8641317"><ele>335.0</ele><time>2026-05-03T16:28:56.887Z</time></trkpt><trkpt lat="38.338575" lon="15.86392"><ele>335.0</ele><time>2026-05-03T16:28:57.887Z</time></trkpt><trkpt lat="38.33832" lon="15.8637"><ele>335.0</ele><time>2026-05-03T16:28:58.887Z</time></trkpt><trkpt lat="38.338065" lon="15.86349"><ele>340.5</ele><time>2026-05-03T16:28:59.887Z</time></trkpt><trkpt lat="38.3378033" lon="15.86327"><ele>346.0</ele><time>2026-05-03T16:29:00.887Z</time></trkpt><trkpt lat="38.3375467" lon="15.86305"><ele>346.0</ele><time>2026-05-03T16:29:01.886Z</time></trkpt><trkpt lat="38.337295" lon="15.8628317"><ele>346.0</ele><time>2026-05-03T16:29:02.887Z</time></trkpt><trkpt lat="38.3370367" lon="15.8626183"><ele>353.0</ele><time>2026-05-03T16:29:03.887Z</time></trkpt><trkpt lat="38.336775" lon="15.862405"><ele>360.0</ele><time>2026-05-03T16:29:04.887Z</time></trkpt><trkpt lat="38.33652" lon="15.86219"><ele>360.5</ele><time>2026-05-03T16:29:05.887Z</time></trkpt><trkpt lat="38.3362617" lon="15.8619783"><ele>361.0</ele><time>2026-05-03T16:29:06.887Z</time></trkpt><trkpt lat="38.33601" lon="15.86176"><ele>365.0</ele><time>2026-05-03T16:29:07.887Z</time></trkpt><trkpt lat="38.3357567" lon="15.8615317"><ele>369.0</ele><time>2026-05-03T16:29:08.886Z</time></trkpt><trkpt lat="38.3355067" lon="15.8613"><ele>369.0</ele><time>2026-05-03T16:29:09.887Z</time></trkpt><trkpt lat="38.335255" lon="15.8610683"><ele>369.0</ele><time>2026-05-03T16:29:10.887Z</time></trkpt><trkpt lat="38.335005" lon="15.86083"><ele>370.0</ele><time>2026-05-03T16:29:11.887Z</time></trkpt><trkpt lat="38.3347683" lon="15.86058"><ele>371.0</ele><time>2026-05-03T16:29:12.887Z</time></trkpt><trkpt lat="38.3345383" lon="15.86032"><ele>377.0</ele><time>2026-05-03T16:29:13.886Z</time></trkpt><trkpt lat="38.3343167" lon="15.86006"><ele>383.0</ele><time>2026-05-03T16:29:14.887Z</time></trkpt><trkpt lat="38.3341033" lon="15.8597967"><ele>383.0</ele><time>2026-05-03T16:29:15.886Z</time></trkpt><trkpt lat="38.3338983" lon="15.859535"><ele>383.0</ele><time>2026-05-03T16:29:16.886Z</time></trkpt><trkpt lat="38.3337017" lon="15.8592683"><ele>383.5</ele><time>2026-05-03T16:29:17.887Z</time></trkpt><trkpt lat="38.3335167" lon="15.8589967"><ele>384.0</ele><time>2026-05-03T16:29:18.886Z</time></trkpt><trkpt lat="38.333335" lon="15.85872"><ele>387.5</ele><time>2026-05-03T16:29:19.886Z</time></trkpt><trkpt lat="38.3331567" lon="15.85844"><ele>391.0</ele><time>2026-05-03T16:29:20.886Z</time></trkpt><trkpt lat="38.3329767" lon="15.85816"><ele>391.0</ele><time>2026-05-03T16:29:21.887Z</time></trkpt><trkpt lat="38.332805" lon="15.8578667"><ele>391.0</ele><time>2026-05-03T16:29:22.887Z</time></trkpt><trkpt lat="38.3326317" lon="15.8575683"><ele>399.5</ele><time>2026-05-03T16:29:23.887Z</time></trkpt><trkpt lat="38.3324583" lon="15.8572667"><ele>408.0</ele><time>2026-05-03T16:29:24.887Z</time></trkpt><trkpt lat="38.33227" lon="15.8569583"><ele>412.5</ele><time>2026-05-03T16:29:25.887Z</time></trkpt><trkpt lat="38.3320833" lon="15.85667"><ele>417.0</ele><time>2026-05-03T16:29:26.887Z</time></trkpt><trkpt lat="38.3319017" lon="15.8563783"><ele>417.0</ele><time>2026-05-03T16:29:27.887Z</time></trkpt><trkpt lat="38.33172" lon="15.856085"><ele>417.0</ele><time>2026-05-03T16:29:28.886Z</time></trkpt><trkpt lat="38.31453" lon="15.8424333"><ele>450.0</ele><time>2026-05-03T16:30:35.883Z</time></trkpt><trkpt lat="38.3142233" lon="15.8425183"><ele>483.0</ele><time>2026-05-03T16:30:36.883Z</time></trkpt><trkpt lat="38.31393" lon="15.8426433"><ele>482.5</ele><time>2026-05-03T16:30:37.883Z</time></trkpt><trkpt lat="38.3136233" lon="15.8427783"><ele>482.0</ele><time>2026-05-03T16:30:38.883Z</time></trkpt><trkpt lat="38.31332" lon="15.842895"><ele>480.5</ele><time>2026-05-03T16:30:39.883Z</time></trkpt><trkpt lat="38.3130183" lon="15.843015"><ele>479.0</ele><time>2026-05-03T16:30:40.883Z</time></trkpt><trkpt lat="38.312715" lon="15.8431233"><ele>479.0</ele><time>2026-05-03T16:30:41.883Z</time></trkpt><trkpt lat="38.3124117" lon="15.8432267"><ele>479.0</ele><time>2026-05-03T16:30:42.883Z</time></trkpt><trkpt lat="38.3121067" lon="15.843325"><ele>477.5</ele><time>2026-05-03T16:30:43.883Z</time></trkpt><trkpt lat="38.3118017" lon="15.8434217"><ele>476.0</ele><time>2026-05-03T16:30:44.883Z</time></trkpt><trkpt lat="38.3114967" lon="15.8435283"><ele>477.0</ele><time>2026-05-03T16:30:45.883Z</time></trkpt><trkpt lat="38.3111933" lon="15.8436217"><ele>478.0</ele><time>2026-05-03T16:30:46.882Z</time></trkpt><trkpt lat="38.3108817" lon="15.8437083"><ele>478.0</ele><time>2026-05-03T16:30:47.883Z</time></trkpt><trkpt lat="38.3105783" lon="15.843785"><ele>478.0</ele><time>2026-05-03T16:30:48.883Z</time></trkpt><trkpt lat="38.3102733" lon="15.843855"><ele>479.0</ele><time>2026-05-03T16:30:49.883Z</time></trkpt><trkpt lat="38.309975" lon="15.8439167"><ele>480.0</ele><time>2026-05-03T16:30:50.883Z</time></trkpt><trkpt lat="38.30967" lon="15.8439683"><ele>480.5</ele><time>2026-05-03T16:30:51.883Z</time></trkpt><trkpt lat="38.3093717" lon="15.84401"><ele>481.0</ele><time>2026-05-03T16:30:52.883Z</time></trkpt><trkpt lat="38.309065" lon="15.8440433"><ele>481.0</ele><time>2026-05-03T16:30:53.883Z</time></trkpt><trkpt lat="38.3087517" lon="15.8440767"><ele>481.0</ele><time>2026-05-03T16:30:54.883Z</time></trkpt><trkpt lat="38.3084433" lon="15.8441067"><ele>481.0</ele><time>2026-05-03T16:30:55.882Z</time></trkpt><trkpt lat="38.3081267" lon="15.8441283"><ele>481.0</ele><time>2026-05-03T16:30:56.883Z</time></trkpt><trkpt lat="38.3078117" lon="15.844145"><ele>482.0</ele><time>2026-05-03T16:30:57.883Z</time></trkpt><trkpt lat="38.3074933" lon="15.8441583"><ele>483.0</ele><time>2026-05-03T16:30:58.882Z</time></trkpt><trkpt lat="38.307175" lon="15.84416"><ele>484.5</ele><time>2026-05-03T16:30:59.883Z</time></trkpt><trkpt lat="38.3068583" lon="15.844155"><ele>486.0</ele><time>2026-05-03T16:31:00.883Z</time></trkpt><trkpt lat="38.3065467" lon="15.8441433"><ele>487.0</ele><time>2026-05-03T16:31:01.883Z</time></trkpt><trkpt lat="38.306235" lon="15.8441267"><ele>488.0</ele><time>2026-05-03T16:31:02.883Z</time></trkpt><trkpt lat="38.30592" lon="15.8441017"><ele>488.0</ele><time>2026-05-03T16:31:03.882Z</time></trkpt><trkpt lat="38.3056" lon="15.84407"><ele>488.0</ele><time>2026-05-03T16:31:04.883Z</time></trkpt><trkpt lat="38.3052767" lon="15.8440383"><ele>488.5</ele><time>2026-05-03T16:31:05.883Z</time></trkpt><trkpt lat="38.3049483" lon="15.8440033"><ele>489.0</ele><time>2026-05-03T16:31:06.883Z</time></trkpt><trkpt lat="38.3046167" lon="15.843955"><ele>490.5</ele><time>2026-05-03T16:31:07.883Z</time></trkpt><trkpt lat="38.30428" lon="15.8439033"><ele>492.0</ele><time>2026-05-03T16:31:08.883Z</time></trkpt><trkpt lat="38.303945" lon="15.8438517"><ele>495.0</ele><time>2026-05-03T16:31:09.883Z</time></trkpt><trkpt lat="38.30362" lon="15.84379"><ele>498.0</ele><time>2026-05-03T16:31:10.883Z</time></trkpt><trkpt lat="38.3032933" lon="15.8437333"><ele>499.5</ele><time>2026-05-03T16:31:11.883Z</time></trkpt><trkpt lat="38.302965" lon="15.8436733"><ele>501.0</ele><time>2026-05-03T16:31:12.882Z</time></trkpt><trkpt lat="38.3026417" lon="15.8436133"><ele>501.0</ele><time>2026-05-03T16:31:13.882Z</time></trkpt><trkpt lat="38.302325" lon="15.8435483"><ele>501.0</ele><time>2026-05-03T16:31:14.883Z</time></trkpt><trkpt lat="38.3020017" lon="15.84349"><ele>500.0</ele><time>2026-05-03T16:31:15.883Z</time></trkpt><trkpt lat="38.3016833" lon="15.843425"><ele>499.0</ele><time>2026-05-03T16:31:16.883Z</time></trkpt><trkpt lat="38.3013667" lon="15.84336"><ele>499.0</ele><time>2026-05-03T16:31:17.883Z</time></trkpt><trkpt lat="38.3010483" lon="15.8432817"><ele>499.0</ele><time>2026-05-03T16:31:18.882Z</time></trkpt><trkpt lat="38.3007317" lon="15.84321"><ele>510.0</ele><time>2026-05-03T16:31:19.883Z</time></trkpt><trkpt lat="38.3004133" lon="15.8431367"><ele>521.0</ele><time>2026-05-03T16:31:20.883Z</time></trkpt><trkpt lat="38.3000967" lon="15.8430633"><ele>492.0</ele><time>2026-05-03T16:31:21.882Z</time></trkpt><trkpt lat="38.29445" lon="15.8398483"><ele>492.0</ele><time>2026-05-03T16:31:40.882Z</time></trkpt><trkpt lat="38.2941883" lon="15.839575"><ele>492.0</ele><time>2026-05-03T16:31:41.883Z</time></trkpt><trkpt lat="38.293945" lon="15.8392833"><ele>483.5</ele><time>2026-05-03T16:31:42.883Z</time></trkpt><trkpt lat="38.293715" lon="15.8389717"><ele>475.0</ele><time>2026-05-03T16:31:43.883Z</time></trkpt><trkpt lat="38.2934867" lon="15.8386567"><ele>481.5</ele><time>2026-05-03T16:31:44.883Z</time></trkpt><trkpt lat="38.2932683" lon="15.838335"><ele>488.0</ele><time>2026-05-03T16:31:45.883Z</time></trkpt><trkpt lat="38.2930483" lon="15.8380083"><ele>496.0</ele><time>2026-05-03T16:31:46.882Z</time></trkpt><trkpt lat="38.2928267" lon="15.8376833"><ele>504.0</ele><time>2026-05-03T16:31:47.883Z</time></trkpt><trkpt lat="38.2926017" lon="15.8373517"><ele>504.0</ele><time>2026-05-03T16:31:48.883Z</time></trkpt><trkpt lat="38.2923733" lon="15.8370217"><ele>504.0</ele><time>2026-05-03T16:31:49.883Z</time></trkpt><trkpt lat="38.2921417" lon="15.836695"><ele>500.0</ele><time>2026-05-03T16:31:50.883Z</time></trkpt><trkpt lat="38.2917367" lon="15.8360683"><ele>495.5</ele><time>2026-05-03T16:31:52.883Z</time></trkpt><trkpt lat="38.291615" lon="15.8357233"><ele>491.0</ele><time>2026-05-03T16:31:53.882Z</time></trkpt><trkpt lat="38.291525" lon="15.8353417"><ele>496.0</ele><time>2026-05-03T16:31:54.883Z</time></trkpt><trkpt lat="38.2913767" lon="15.835005"><ele>501.0</ele><time>2026-05-03T16:31:55.883Z</time></trkpt><trkpt lat="38.291205" lon="15.8346867"><ele>501.0</ele><time>2026-05-03T16:31:56.883Z</time></trkpt><trkpt lat="38.291035" lon="15.83436"><ele>501.0</ele><time>2026-05-03T16:31:57.883Z</time></trkpt><trkpt lat="38.290865" lon="15.8340367"><ele>503.0</ele><time>2026-05-03T16:31:58.883Z</time></trkpt><trkpt lat="38.290695" lon="15.8337117"><ele>505.0</ele><time>2026-05-03T16:31:59.883Z</time></trkpt><trkpt lat="38.2905283" lon="15.833385"><ele>478.0</ele><time>2026-05-03T16:32:00.882Z</time></trkpt><trkpt lat="38.2844017" lon="15.8215"><ele>478.0</ele><time>2026-05-03T16:32:37.882Z</time></trkpt><trkpt lat="38.2842167" lon="15.82112"><ele>478.0</ele><time>2026-05-03T16:32:38.883Z</time></trkpt><trkpt lat="38.2840433" lon="15.82079"><ele>500.0</ele><time>2026-05-03T16:32:39.883Z</time></trkpt><trkpt lat="38.2838717" lon="15.8204583"><ele>522.0</ele><time>2026-05-03T16:32:40.883Z</time></trkpt><trkpt lat="38.2837" lon="15.8201283"><ele>530.0</ele><time>2026-05-03T16:32:41.883Z</time></trkpt><trkpt lat="38.2835283" lon="15.8198067"><ele>538.0</ele><time>2026-05-03T16:32:42.883Z</time></trkpt><trkpt lat="38.2833533" lon="15.81948"><ele>540.0</ele><time>2026-05-03T16:32:43.883Z</time></trkpt><trkpt lat="38.283175" lon="15.8191467"><ele>542.0</ele><time>2026-05-03T16:32:44.882Z</time></trkpt><trkpt lat="38.2829983" lon="15.8188167"><ele>548.0</ele><time>2026-05-03T16:32:45.883Z</time></trkpt><trkpt lat="38.2828217" lon="15.8184867"><ele>554.0</ele><time>2026-05-03T16:32:46.883Z</time></trkpt><trkpt lat="38.28156" lon="15.8166967"><ele>509.5</ele><time>2026-05-03T16:32:52.883Z</time></trkpt><trkpt lat="38.2812917" lon="15.8164083"><ele>465.0</ele><time>2026-05-03T16:32:53.882Z</time></trkpt><trkpt lat="38.281015" lon="15.8161017"><ele>462.0</ele><time>2026-05-03T16:32:54.882Z</time></trkpt><trkpt lat="38.2807433" lon="15.815795"><ele>459.0</ele><time>2026-05-03T16:32:55.883Z</time></trkpt><trkpt lat="38.280455" lon="15.8154967"><ele>478.5</ele><time>2026-05-03T16:32:56.883Z</time></trkpt><trkpt lat="38.28016" lon="15.8151933"><ele>498.0</ele><time>2026-05-03T16:32:57.883Z</time></trkpt><trkpt lat="38.2798667" lon="15.8148933"><ele>498.0</ele><time>2026-05-03T16:32:58.882Z</time></trkpt><trkpt lat="38.279575" lon="15.8145917"><ele>498.0</ele><time>2026-05-03T16:32:59.883Z</time></trkpt><trkpt lat="38.2792833" lon="15.81429"><ele>350.0</ele><time>2026-05-03T16:33:00.882Z</time></trkpt><trkpt lat="38.2721217" lon="15.8062033"><ele>334.5</ele><time>2026-05-03T16:33:31.884Z</time></trkpt><trkpt lat="38.2719933" lon="15.8058267"><ele>319.0</ele><time>2026-05-03T16:33:32.884Z</time></trkpt><trkpt lat="38.2718817" lon="15.8054367"><ele>304.0</ele><time>2026-05-03T16:33:33.884Z</time></trkpt><trkpt lat="38.27176" lon="15.8050467"><ele>289.0</ele><time>2026-05-03T16:33:34.883Z</time></trkpt><trkpt lat="38.2716433" lon="15.8046617"><ele>266.5</ele><time>2026-05-03T16:33:35.883Z</time></trkpt><trkpt lat="38.2715283" lon="15.8042783"><ele>244.0</ele><time>2026-05-03T16:33:36.884Z</time></trkpt><trkpt lat="38.2714183" lon="15.8039067"><ele>235.0</ele><time>2026-05-03T16:33:37.884Z</time></trkpt><trkpt lat="38.2713117" lon="15.8035333"><ele>226.0</ele><time>2026-05-03T16:33:38.884Z</time></trkpt><trkpt lat="38.27121" lon="15.8031567"><ele>213.0</ele><time>2026-05-03T16:33:39.884Z</time></trkpt><trkpt lat="38.2711067" lon="15.8027883"><ele>200.0</ele><time>2026-05-03T16:33:40.883Z</time></trkpt><trkpt lat="38.2709983" lon="15.8024367"><ele>200.0</ele><time>2026-05-03T16:33:41.884Z</time></trkpt><trkpt lat="38.2708883" lon="15.8020767"><ele>200.0</ele><time>2026-05-03T16:33:42.884Z</time></trkpt><trkpt lat="38.27077" lon="15.8017167"><ele>220.0</ele><time>2026-05-03T16:33:43.884Z</time></trkpt><trkpt lat="38.2706567" lon="15.8013467"><ele>240.0</ele><time>2026-05-03T16:33:44.884Z</time></trkpt><trkpt lat="38.2705517" lon="15.80098"><ele>260.5</ele><time>2026-05-03T16:33:45.884Z</time></trkpt><trkpt lat="38.270445" lon="15.8006117"><ele>281.0</ele><time>2026-05-03T16:33:46.884Z</time></trkpt><trkpt lat="38.2703317" lon="15.8002433"><ele>330.0</ele><time>2026-05-03T16:33:47.884Z</time></trkpt><trkpt lat="38.27023" lon="15.7998667"><ele>379.0</ele><time>2026-05-03T16:33:48.884Z</time></trkpt><trkpt lat="38.27012" lon="15.7994883"><ele>394.0</ele><time>2026-05-03T16:33:49.883Z</time></trkpt><trkpt lat="38.2700233" lon="15.7991133"><ele>409.0</ele><time>2026-05-03T16:33:50.884Z</time></trkpt><trkpt lat="38.2699467" lon="15.798735"><ele>426.5</ele><time>2026-05-03T16:33:51.884Z</time></trkpt><trkpt lat="38.269855" lon="15.79835"><ele>444.0</ele><time>2026-05-03T16:33:52.884Z</time></trkpt><trkpt lat="38.26978" lon="15.7979683"><ele>476.0</ele><time>2026-05-03T16:33:53.884Z</time></trkpt><trkpt lat="38.26969" lon="15.7975883"><ele>508.0</ele><time>2026-05-03T16:33:54.883Z</time></trkpt><trkpt lat="38.2696083" lon="15.797195"><ele>518.0</ele><time>2026-05-03T16:33:55.884Z</time></trkpt><trkpt lat="38.2695183" lon="15.7967917"><ele>528.0</ele><time>2026-05-03T16:33:56.884Z</time></trkpt><trkpt lat="38.2694317" lon="15.7964033"><ele>528.0</ele><time>2026-05-03T16:33:57.884Z</time></trkpt><trkpt lat="38.2693433" lon="15.7960233"><ele>528.0</ele><time>2026-05-03T16:33:58.884Z</time></trkpt><trkpt lat="38.265435" lon="15.7851567"><ele>451.5</ele><time>2026-05-03T16:34:28.883Z</time></trkpt><trkpt lat="38.26528" lon="15.7848167"><ele>375.0</ele><time>2026-05-03T16:34:29.883Z</time></trkpt><trkpt lat="38.265115" lon="15.7844933"><ele>380.5</ele><time>2026-05-03T16:34:30.883Z</time></trkpt><trkpt lat="38.264935" lon="15.784155"><ele>386.0</ele><time>2026-05-03T16:34:31.882Z</time></trkpt><trkpt lat="38.2647483" lon="15.783815"><ele>429.0</ele><time>2026-05-03T16:34:32.883Z</time></trkpt><trkpt lat="38.2645617" lon="15.7834717"><ele>472.0</ele><time>2026-05-03T16:34:33.883Z</time></trkpt><trkpt lat="38.2643767" lon="15.7831267"><ele>341.0</ele><time>2026-05-03T16:34:34.882Z</time></trkpt><trkpt lat="38.2621783" lon="15.7789333"><ele>341.0</ele><time>2026-05-03T16:34:46.882Z</time></trkpt><trkpt lat="38.2619767" lon="15.7785517"><ele>341.0</ele><time>2026-05-03T16:34:47.883Z</time></trkpt><trkpt lat="38.2617883" lon="15.7782483"><ele>343.0</ele><time>2026-05-03T16:34:48.882Z</time></trkpt><trkpt lat="38.2615883" lon="15.7779167"><ele>345.0</ele><time>2026-05-03T16:34:49.883Z</time></trkpt><trkpt lat="38.26139" lon="15.777575"><ele>237.0</ele><time>2026-05-03T16:34:50.883Z</time></trkpt><trkpt lat="38.2554433" lon="15.7690567"><ele>237.0</ele><time>2026-05-03T16:35:17.886Z</time></trkpt><trkpt lat="38.255285" lon="15.768735"><ele>237.0</ele><time>2026-05-03T16:35:18.887Z</time></trkpt><trkpt lat="38.255135" lon="15.7683733"><ele>226.5</ele><time>2026-05-03T16:35:19.887Z</time></trkpt><trkpt lat="38.254985" lon="15.7680217"><ele>216.0</ele><time>2026-05-03T16:35:20.887Z</time></trkpt><trkpt lat="38.2548333" lon="15.7676667"><ele>204.5</ele><time>2026-05-03T16:35:21.886Z</time></trkpt><trkpt lat="38.254685" lon="15.76731"><ele>193.0</ele><time>2026-05-03T16:35:22.886Z</time></trkpt><trkpt lat="38.254545" lon="15.7669433"><ele>211.0</ele><time>2026-05-03T16:35:23.887Z</time></trkpt><trkpt lat="38.2544133" lon="15.7665783"><ele>229.0</ele><time>2026-05-03T16:35:24.886Z</time></trkpt><trkpt lat="38.2543" lon="15.7662167"><ele>242.0</ele><time>2026-05-03T16:35:25.886Z</time></trkpt><trkpt lat="38.2541867" lon="15.7658383"><ele>255.0</ele><time>2026-05-03T16:35:26.887Z</time></trkpt><trkpt lat="38.2540683" lon="15.7654533"><ele>265.0</ele><time>2026-05-03T16:35:27.886Z</time></trkpt><trkpt lat="38.25396" lon="15.7650683"><ele>275.0</ele><time>2026-05-03T16:35:28.887Z</time></trkpt><trkpt lat="38.2538533" lon="15.7646733"><ele>314.5</ele><time>2026-05-03T16:35:29.887Z</time></trkpt><trkpt lat="38.2537517" lon="15.76429"><ele>354.0</ele><time>2026-05-03T16:35:30.887Z</time></trkpt><trkpt lat="38.25365" lon="15.7639067"><ele>360.0</ele><time>2026-05-03T16:35:31.886Z</time></trkpt><trkpt lat="38.25355" lon="15.7635233"><ele>366.0</ele><time>2026-05-03T16:35:32.887Z</time></trkpt><trkpt lat="38.25345" lon="15.76314"><ele>366.0</ele><time>2026-05-03T16:35:33.886Z</time></trkpt><trkpt lat="38.2533483" lon="15.7627567"><ele>366.0</ele><time>2026-05-03T16:35:34.887Z</time></trkpt><trkpt lat="38.2532467" lon="15.7623733"><ele>178.0</ele><time>2026-05-03T16:35:35.886Z</time></trkpt><trkpt lat="38.25079" lon="15.744695"><ele>174.0</ele><time>2026-05-03T16:36:19.882Z</time></trkpt><trkpt lat="38.2507183" lon="15.7442683"><ele>170.0</ele><time>2026-05-03T16:36:20.883Z</time></trkpt><trkpt lat="38.2506533" lon="15.7438617"><ele>184.5</ele><time>2026-05-03T16:36:21.883Z</time></trkpt><trkpt lat="38.2505883" lon="15.7434683"><ele>199.0</ele><time>2026-05-03T16:36:22.882Z</time></trkpt><trkpt lat="38.2505117" lon="15.7430733"><ele>233.0</ele><time>2026-05-03T16:36:23.882Z</time></trkpt><trkpt lat="38.2504433" lon="15.7426667"><ele>267.0</ele><time>2026-05-03T16:36:24.883Z</time></trkpt><trkpt lat="38.250365" lon="15.7422633"><ele>291.0</ele><time>2026-05-03T16:36:25.883Z</time></trkpt><trkpt lat="38.2502867" lon="15.74186"><ele>315.0</ele><time>2026-05-03T16:36:26.883Z</time></trkpt><trkpt lat="38.2502083" lon="15.7414583"><ele>315.0</ele><time>2026-05-03T16:36:27.883Z</time></trkpt><trkpt lat="38.25013" lon="15.741055"><ele>315.0</ele><time>2026-05-03T16:36:28.883Z</time></trkpt><trkpt lat="38.2487817" lon="15.73169"><ele>241.0</ele><time>2026-05-03T16:36:52.882Z</time></trkpt><trkpt lat="38.2487333" lon="15.7312983"><ele>167.0</ele><time>2026-05-03T16:36:53.883Z</time></trkpt><trkpt lat="38.2487083" lon="15.7309167"><ele>167.0</ele><time>2026-05-03T16:36:54.883Z</time></trkpt><trkpt lat="38.2486817" lon="15.7305433"><ele>167.0</ele><time>2026-05-03T16:36:55.882Z</time></trkpt><trkpt lat="38.24867" lon="15.7301617"><ele>170.0</ele><time>2026-05-03T16:36:56.882Z</time></trkpt><trkpt lat="38.2486567" lon="15.72978"><ele>173.0</ele><time>2026-05-03T16:36:57.883Z</time></trkpt><trkpt lat="38.2486467" lon="15.7294017"><ele>169.0</ele><time>2026-05-03T16:36:58.882Z</time></trkpt><trkpt lat="38.2486383" lon="15.7290233"><ele>165.0</ele><time>2026-05-03T16:36:59.883Z</time></trkpt><trkpt lat="38.24863" lon="15.728645"><ele>161.5</ele><time>2026-05-03T16:37:00.883Z</time></trkpt><trkpt lat="38.2486233" lon="15.7282633"><ele>158.0</ele><time>2026-05-03T16:37:01.883Z</time></trkpt><trkpt lat="38.24862" lon="15.7278783"><ele>149.5</ele><time>2026-05-03T16:37:02.883Z</time></trkpt><trkpt lat="38.2486083" lon="15.7274983"><ele>141.0</ele><time>2026-05-03T16:37:03.883Z</time></trkpt><trkpt lat="38.248605" lon="15.7271183"><ele>138.0</ele><time>2026-05-03T16:37:04.883Z</time></trkpt><trkpt lat="38.2485967" lon="15.726755"><ele>135.0</ele><time>2026-05-03T16:37:05.883Z</time></trkpt><trkpt lat="38.2485833" lon="15.7263883"><ele>144.5</ele><time>2026-05-03T16:37:06.883Z</time></trkpt><trkpt lat="38.2485767" lon="15.7260167"><ele>154.0</ele><time>2026-05-03T16:37:07.883Z</time></trkpt><trkpt lat="38.2485717" lon="15.7256417"><ele>154.0</ele><time>2026-05-03T16:37:08.883Z</time></trkpt><trkpt lat="38.24856" lon="15.725275"><ele>154.0</ele><time>2026-05-03T16:37:09.883Z</time></trkpt><trkpt lat="38.24856" lon="15.7249067"><ele>155.0</ele><time>2026-05-03T16:37:10.882Z</time></trkpt><trkpt lat="38.2485583" lon="15.7245383"><ele>156.0</ele><time>2026-05-03T16:37:11.883Z</time></trkpt><trkpt lat="38.24855" lon="15.724165"><ele>153.0</ele><time>2026-05-03T16:37:12.883Z</time></trkpt><trkpt lat="38.2485517" lon="15.7237933"><ele>150.0</ele><time>2026-05-03T16:37:13.883Z</time></trkpt><trkpt lat="38.24856" lon="15.723425"><ele>149.5</ele><time>2026-05-03T16:37:14.883Z</time></trkpt><trkpt lat="38.2485683" lon="15.7230483"><ele>149.0</ele><time>2026-05-03T16:37:15.883Z</time></trkpt><trkpt lat="38.2485867" lon="15.722675"><ele>145.0</ele><time>2026-05-03T16:37:16.883Z</time></trkpt><trkpt lat="38.2486" lon="15.72231"><ele>141.0</ele><time>2026-05-03T16:37:17.883Z</time></trkpt><trkpt lat="38.2486133" lon="15.7219283"><ele>141.5</ele><time>2026-05-03T16:37:18.882Z</time></trkpt><trkpt lat="38.24862" lon="15.72155"><ele>142.0</ele><time>2026-05-03T16:37:19.883Z</time></trkpt><trkpt lat="38.2486317" lon="15.72117"><ele>145.5</ele><time>2026-05-03T16:37:20.883Z</time></trkpt><trkpt lat="38.248645" lon="15.7207917"><ele>149.0</ele><time>2026-05-03T16:37:21.883Z</time></trkpt><trkpt lat="38.2486483" lon="15.7204067"><ele>148.0</ele><time>2026-05-03T16:37:22.883Z</time></trkpt><trkpt lat="38.248655" lon="15.720025"><ele>147.0</ele><time>2026-05-03T16:37:23.882Z</time></trkpt><trkpt lat="38.2486633" lon="15.7196533"><ele>148.5</ele><time>2026-05-03T16:37:24.883Z</time></trkpt><trkpt lat="38.2486783" lon="15.7192767"><ele>150.0</ele><time>2026-05-03T16:37:25.883Z</time></trkpt><trkpt lat="38.24868" lon="15.718895"><ele>152.0</ele><time>2026-05-03T16:37:26.883Z</time></trkpt><trkpt lat="38.2486867" lon="15.7185133"><ele>154.0</ele><time>2026-05-03T16:37:27.883Z</time></trkpt><trkpt lat="38.2486917" lon="15.7181283"><ele>154.0</ele><time>2026-05-03T16:37:28.883Z</time></trkpt><trkpt lat="38.2486917" lon="15.7177433"><ele>154.0</ele><time>2026-05-03T16:37:29.882Z</time></trkpt><trkpt lat="38.2486933" lon="15.7173533"><ele>154.5</ele><time>2026-05-03T16:37:30.883Z</time></trkpt><trkpt lat="38.2486833" lon="15.716965"><ele>155.0</ele><time>2026-05-03T16:37:31.882Z</time></trkpt><trkpt lat="38.2486517" lon="15.7165767"><ele>155.0</ele><time>2026-05-03T16:37:32.883Z</time></trkpt><trkpt lat="38.248605" lon="15.7161917"><ele>155.0</ele><time>2026-05-03T16:37:33.882Z</time></trkpt><trkpt lat="38.2485683" lon="15.7158067"><ele>143.0</ele><time>2026-05-03T16:37:34.883Z</time></trkpt><trkpt lat="38.24853" lon="15.71542"><ele>131.0</ele><time>2026-05-03T16:37:35.883Z</time></trkpt><trkpt lat="38.2484833" lon="15.7150317"><ele>122.0</ele><time>2026-05-03T16:37:36.883Z</time></trkpt><trkpt lat="38.2484283" lon="15.7146433"><ele>113.0</ele><time>2026-05-03T16:37:37.883Z</time></trkpt><trkpt lat="38.2483783" lon="15.714265"><ele>113.0</ele><time>2026-05-03T16:37:38.883Z</time></trkpt><trkpt lat="38.2483283" lon="15.7138817"><ele>113.0</ele><time>2026-05-03T16:37:39.883Z</time></trkpt><trkpt lat="38.2482733" lon="15.7135033"><ele>125.0</ele><time>2026-05-03T16:37:40.883Z</time></trkpt><trkpt lat="38.2482267" lon="15.7131367"><ele>137.0</ele><time>2026-05-03T16:37:41.883Z</time></trkpt><trkpt lat="38.24817" lon="15.7127717"><ele>165.0</ele><time>2026-05-03T16:37:42.883Z</time></trkpt><trkpt lat="38.2481083" lon="15.712395"><ele>193.0</ele><time>2026-05-03T16:37:43.882Z</time></trkpt><trkpt lat="38.2480417" lon="15.7120167"><ele>201.5</ele><time>2026-05-03T16:37:44.883Z</time></trkpt><trkpt lat="38.2479683" lon="15.7116417"><ele>210.0</ele><time>2026-05-03T16:37:45.882Z</time></trkpt><trkpt lat="38.2478967" lon="15.7112633"><ele>166.0</ele><time>2026-05-03T16:37:46.883Z</time></trkpt><trkpt lat="38.2476683" lon="15.7097617"><ele>166.0</ele><time>2026-05-03T16:37:50.883Z</time></trkpt><trkpt lat="38.2476617" lon="15.7094333"><ele>166.0</ele><time>2026-05-03T16:37:51.884Z</time></trkpt><trkpt lat="38.2476283" lon="15.7090517"><ele>170.5</ele><time>2026-05-03T16:37:52.884Z</time></trkpt><trkpt lat="38.247595" lon="15.70867"><ele>175.0</ele><time>2026-05-03T16:37:53.884Z</time></trkpt><trkpt lat="38.2475583" lon="15.70829"><ele>197.0</ele><time>2026-05-03T16:37:54.884Z</time></trkpt><trkpt lat="38.2475267" lon="15.7079033"><ele>219.0</ele><time>2026-05-03T16:37:55.884Z</time></trkpt><trkpt lat="38.2474917" lon="15.7075217"><ele>235.0</ele><time>2026-05-03T16:37:56.883Z</time></trkpt><trkpt lat="38.2474583" lon="15.70714"><ele>251.0</ele><time>2026-05-03T16:37:57.884Z</time></trkpt><trkpt lat="38.2474233" lon="15.7067567"><ele>128.0</ele><time>2026-05-03T16:37:58.884Z</time></trkpt><trkpt lat="38.244895" lon="15.6894533"><ele>128.5</ele><time>2026-05-03T16:38:44.883Z</time></trkpt><trkpt lat="38.244715" lon="15.6890417"><ele>129.0</ele><time>2026-05-03T16:38:45.884Z</time></trkpt><trkpt lat="38.244565" lon="15.68867"><ele>139.0</ele><time>2026-05-03T16:38:46.884Z</time></trkpt><trkpt lat="38.2444233" lon="15.6883017"><ele>149.0</ele><time>2026-05-03T16:38:47.884Z</time></trkpt><trkpt lat="38.2442867" lon="15.687935"><ele>153.5</ele><time>2026-05-03T16:38:48.884Z</time></trkpt><trkpt lat="38.24414" lon="15.6875783"><ele>158.0</ele><time>2026-05-03T16:38:49.884Z</time></trkpt><trkpt lat="38.2439983" lon="15.6872283"><ele>175.0</ele><time>2026-05-03T16:38:50.884Z</time></trkpt><trkpt lat="38.2438567" lon="15.6868783"><ele>192.0</ele><time>2026-05-03T16:38:51.884Z</time></trkpt><trkpt lat="38.2437117" lon="15.6865183"><ele>144.0</ele><time>2026-05-03T16:38:52.884Z</time></trkpt><trkpt lat="38.2404867" lon="15.68124"><ele>133.5</ele><time>2026-05-03T16:39:10.883Z</time></trkpt><trkpt lat="38.2402383" lon="15.681015"><ele>123.0</ele><time>2026-05-03T16:39:11.883Z</time></trkpt><trkpt lat="38.2399883" lon="15.6807967"><ele>119.5</ele><time>2026-05-03T16:39:12.883Z</time></trkpt><trkpt lat="38.239735" lon="15.6805833"><ele>116.0</ele><time>2026-05-03T16:39:13.882Z</time></trkpt><trkpt lat="38.239475" lon="15.6803733"><ele>111.0</ele><time>2026-05-03T16:39:14.883Z</time></trkpt><trkpt lat="38.2392183" lon="15.6801633"><ele>106.0</ele><time>2026-05-03T16:39:15.883Z</time></trkpt><trkpt lat="38.2389483" lon="15.6799483"><ele>106.0</ele><time>2026-05-03T16:39:16.883Z</time></trkpt><trkpt lat="38.2386967" lon="15.679715"><ele>106.0</ele><time>2026-05-03T16:39:17.883Z</time></trkpt><trkpt lat="38.2384467" lon="15.67948"><ele>104.5</ele><time>2026-05-03T16:39:18.883Z</time></trkpt><trkpt lat="38.2381967" lon="15.679235"><ele>103.0</ele><time>2026-05-03T16:39:19.883Z</time></trkpt><trkpt lat="38.2379583" lon="15.6789733"><ele>111.0</ele><time>2026-05-03T16:39:20.883Z</time></trkpt><trkpt lat="38.2377367" lon="15.6787"><ele>119.0</ele><time>2026-05-03T16:39:21.882Z</time></trkpt><trkpt lat="38.237525" lon="15.67841"><ele>119.0</ele><time>2026-05-03T16:39:22.883Z</time></trkpt><trkpt lat="38.2373183" lon="15.6781217"><ele>119.0</ele><time>2026-05-03T16:39:23.883Z</time></trkpt><trkpt lat="38.2371333" lon="15.6778217"><ele>121.0</ele><time>2026-05-03T16:39:24.882Z</time></trkpt><trkpt lat="38.2369517" lon="15.6775167"><ele>123.0</ele><time>2026-05-03T16:39:25.883Z</time></trkpt><trkpt lat="38.2367783" lon="15.677205"><ele>117.5</ele><time>2026-05-03T16:39:26.883Z</time></trkpt><trkpt lat="38.2366183" lon="15.676885"><ele>112.0</ele><time>2026-05-03T16:39:27.883Z</time></trkpt><trkpt lat="38.2364717" lon="15.6765617"><ele>117.5</ele><time>2026-05-03T16:39:28.883Z</time></trkpt><trkpt lat="38.2363283" lon="15.6762217"><ele>123.0</ele><time>2026-05-03T16:39:29.883Z</time></trkpt><trkpt lat="38.23619" lon="15.675885"><ele>114.5</ele><time>2026-05-03T16:39:30.883Z</time></trkpt><trkpt lat="38.2360517" lon="15.6755717"><ele>106.0</ele><time>2026-05-03T16:39:31.883Z</time></trkpt><trkpt lat="38.235915" lon="15.6752667"><ele>106.0</ele><time>2026-05-03T16:39:32.883Z</time></trkpt><trkpt lat="38.2357767" lon="15.6749667"><ele>106.0</ele><time>2026-05-03T16:39:33.883Z</time></trkpt><trkpt lat="38.235645" lon="15.6746617"><ele>114.0</ele><time>2026-05-03T16:39:34.883Z</time></trkpt><trkpt lat="38.2355083" lon="15.67437"><ele>122.0</ele><time>2026-05-03T16:39:35.882Z</time></trkpt><trkpt lat="38.2353717" lon="15.674065"><ele>122.0</ele><time>2026-05-03T16:39:36.882Z</time></trkpt><trkpt lat="38.235225" lon="15.673765"><ele>122.0</ele><time>2026-05-03T16:39:37.883Z</time></trkpt><trkpt lat="38.235085" lon="15.6734567"><ele>128.5</ele><time>2026-05-03T16:39:38.883Z</time></trkpt><trkpt lat="38.23494" lon="15.6731417"><ele>135.0</ele><time>2026-05-03T16:39:39.883Z</time></trkpt><trkpt lat="38.2347917" lon="15.672825"><ele>130.5</ele><time>2026-05-03T16:39:40.882Z</time></trkpt><trkpt lat="38.234645" lon="15.6725067"><ele>126.0</ele><time>2026-05-03T16:39:41.883Z</time></trkpt><trkpt lat="38.2345017" lon="15.672175"><ele>121.5</ele><time>2026-05-03T16:39:42.883Z</time></trkpt><trkpt lat="38.2343617" lon="15.67184"><ele>117.0</ele><time>2026-05-03T16:39:43.883Z</time></trkpt><trkpt lat="38.2342217" lon="15.6715067"><ele>117.0</ele><time>2026-05-03T16:39:44.883Z</time></trkpt><trkpt lat="38.2340817" lon="15.671155"><ele>117.0</ele><time>2026-05-03T16:39:45.883Z</time></trkpt><trkpt lat="38.2339433" lon="15.6707983"><ele>115.0</ele><time>2026-05-03T16:39:46.883Z</time></trkpt><trkpt lat="38.23381" lon="15.67044"><ele>113.0</ele><time>2026-05-03T16:39:47.883Z</time></trkpt><trkpt lat="38.23368" lon="15.670065"><ele>113.0</ele><time>2026-05-03T16:39:48.883Z</time></trkpt><trkpt lat="38.2335517" lon="15.66969"><ele>113.0</ele><time>2026-05-03T16:39:49.883Z</time></trkpt><trkpt lat="38.233425" lon="15.669315"><ele>109.5</ele><time>2026-05-03T16:39:50.882Z</time></trkpt><trkpt lat="38.2333033" lon="15.66894"><ele>106.0</ele><time>2026-05-03T16:39:51.882Z</time></trkpt><trkpt lat="38.2331817" lon="15.6685683"><ele>107.5</ele><time>2026-05-03T16:39:52.883Z</time></trkpt><trkpt lat="38.233055" lon="15.668205"><ele>109.0</ele><time>2026-05-03T16:39:53.883Z</time></trkpt><trkpt lat="38.232925" lon="15.6678433"><ele>108.0</ele><time>2026-05-03T16:39:54.883Z</time></trkpt><trkpt lat="38.2328033" lon="15.6674667"><ele>107.0</ele><time>2026-05-03T16:39:55.883Z</time></trkpt><trkpt lat="38.2326783" lon="15.6671067"><ele>105.0</ele><time>2026-05-03T16:39:56.883Z</time></trkpt><trkpt lat="38.2325633" lon="15.6667467"><ele>103.0</ele><time>2026-05-03T16:39:57.883Z</time></trkpt><trkpt lat="38.232445" lon="15.6663883"><ele>105.5</ele><time>2026-05-03T16:39:58.882Z</time></trkpt><trkpt lat="38.2323233" lon="15.6660333"><ele>108.0</ele><time>2026-05-03T16:39:59.882Z</time></trkpt><trkpt lat="38.23221" lon="15.6656733"><ele>108.0</ele><time>2026-05-03T16:40:00.883Z</time></trkpt><trkpt lat="38.2320983" lon="15.6653117"><ele>108.0</ele><time>2026-05-03T16:40:01.883Z</time></trkpt><trkpt lat="38.23198" lon="15.6649567"><ele>103.0</ele><time>2026-05-03T16:40:02.883Z</time></trkpt><trkpt lat="38.2318683" lon="15.6646"><ele>98.0</ele><time>2026-05-03T16:40:03.883Z</time></trkpt><trkpt lat="38.23176" lon="15.6642417"><ele>95.0</ele><time>2026-05-03T16:40:04.883Z</time></trkpt><trkpt lat="38.2316533" lon="15.6638817"><ele>92.0</ele><time>2026-05-03T16:40:05.883Z</time></trkpt><trkpt lat="38.2315517" lon="15.6635167"><ele>103.0</ele><time>2026-05-03T16:40:06.882Z</time></trkpt><trkpt lat="38.2314417" lon="15.6631483"><ele>114.0</ele><time>2026-05-03T16:40:07.883Z</time></trkpt><trkpt lat="38.2313283" lon="15.6627867"><ele>110.5</ele><time>2026-05-03T16:40:08.883Z</time></trkpt><trkpt lat="38.231225" lon="15.6624283"><ele>107.0</ele><time>2026-05-03T16:40:09.883Z</time></trkpt><trkpt lat="38.2311233" lon="15.66207"><ele>102.0</ele><time>2026-05-03T16:40:10.882Z</time></trkpt><trkpt lat="38.23102" lon="15.66171"><ele>97.0</ele><time>2026-05-03T16:40:11.883Z</time></trkpt><trkpt lat="38.23092" lon="15.66134"><ele>94.5</ele><time>2026-05-03T16:40:12.883Z</time></trkpt><trkpt lat="38.2308117" lon="15.6609833"><ele>92.0</ele><time>2026-05-03T16:40:13.882Z</time></trkpt><trkpt lat="38.23071" lon="15.6606167"><ele>98.5</ele><time>2026-05-03T16:40:14.883Z</time></trkpt><trkpt lat="38.23061" lon="15.6602517"><ele>105.0</ele><time>2026-05-03T16:40:15.883Z</time></trkpt><trkpt lat="38.2305083" lon="15.6598917"><ele>105.0</ele><time>2026-05-03T16:40:16.882Z</time></trkpt><trkpt lat="38.230405" lon="15.659535"><ele>105.0</ele><time>2026-05-03T16:40:17.883Z</time></trkpt><trkpt lat="38.230295" lon="15.6591733"><ele>102.0</ele><time>2026-05-03T16:40:18.882Z</time></trkpt><trkpt lat="38.2301767" lon="15.6588183"><ele>99.0</ele><time>2026-05-03T16:40:19.882Z</time></trkpt><trkpt lat="38.23006" lon="15.65846"><ele>97.0</ele><time>2026-05-03T16:40:20.883Z</time></trkpt><trkpt lat="38.229945" lon="15.658095"><ele>95.0</ele><time>2026-05-03T16:40:21.883Z</time></trkpt><trkpt lat="38.2298217" lon="15.6577383"><ele>106.5</ele><time>2026-05-03T16:40:22.883Z</time></trkpt><trkpt lat="38.2297033" lon="15.65738"><ele>118.0</ele><time>2026-05-03T16:40:23.883Z</time></trkpt><trkpt lat="38.2295883" lon="15.6570317"><ele>114.0</ele><time>2026-05-03T16:40:24.882Z</time></trkpt><trkpt lat="38.2294783" lon="15.65667"><ele>110.0</ele><time>2026-05-03T16:40:25.883Z</time></trkpt><trkpt lat="38.2293767" lon="15.6563183"><ele>107.5</ele><time>2026-05-03T16:40:26.882Z</time></trkpt><trkpt lat="38.229275" lon="15.655965"><ele>105.0</ele><time>2026-05-03T16:40:27.882Z</time></trkpt><trkpt lat="38.229165" lon="15.655625"><ele>100.5</ele><time>2026-05-03T16:40:28.882Z</time></trkpt><trkpt lat="38.2290533" lon="15.6552867"><ele>96.0</ele><time>2026-05-03T16:40:29.882Z</time></trkpt><trkpt lat="38.2289333" lon="15.654955"><ele>106.5</ele><time>2026-05-03T16:40:30.883Z</time></trkpt><trkpt lat="38.2288017" lon="15.6546333"><ele>117.0</ele><time>2026-05-03T16:40:31.883Z</time></trkpt><trkpt lat="38.22867" lon="15.65432"><ele>117.0</ele><time>2026-05-03T16:40:32.882Z</time></trkpt><trkpt lat="38.2285233" lon="15.654015"><ele>117.0</ele><time>2026-05-03T16:40:33.883Z</time></trkpt><trkpt lat="38.228375" lon="15.653715"><ele>114.0</ele><time>2026-05-03T16:40:34.882Z</time></trkpt><trkpt lat="38.2282233" lon="15.6534233"><ele>111.0</ele><time>2026-05-03T16:40:35.883Z</time></trkpt><trkpt lat="38.228075" lon="15.653135"><ele>125.5</ele><time>2026-05-03T16:40:36.882Z</time></trkpt><trkpt lat="38.227925" lon="15.652845"><ele>140.0</ele><time>2026-05-03T16:40:37.883Z</time></trkpt><trkpt lat="38.2277833" lon="15.65256"><ele>140.0</ele><time>2026-05-03T16:40:38.882Z</time></trkpt><trkpt lat="38.2276383" lon="15.6522667"><ele>140.0</ele><time>2026-05-03T16:40:39.883Z</time></trkpt><trkpt lat="38.22749" lon="15.651975"><ele>95.0</ele><time>2026-05-03T16:40:40.883Z</time></trkpt><trkpt lat="38.2208817" lon="15.6478533"><ele>91.0</ele><time>2026-05-03T16:41:04.883Z</time></trkpt><trkpt lat="38.2205417" lon="15.64782"><ele>87.0</ele><time>2026-05-03T16:41:05.882Z</time></trkpt><trkpt lat="38.2202217" lon="15.6477983"><ele>87.0</ele><time>2026-05-03T16:41:06.883Z</time></trkpt><trkpt lat="38.2198983" lon="15.6477983"><ele>87.0</ele><time>2026-05-03T16:41:07.883Z</time></trkpt><trkpt lat="38.21957" lon="15.6478133"><ele>97.0</ele><time>2026-05-03T16:41:08.883Z</time></trkpt><trkpt lat="38.2192533" lon="15.64783"><ele>107.0</ele><time>2026-05-03T16:41:09.883Z</time></trkpt><trkpt lat="38.2189417" lon="15.647845"><ele>110.0</ele><time>2026-05-03T16:41:10.882Z</time></trkpt><trkpt lat="38.2186367" lon="15.64786"><ele>113.0</ele><time>2026-05-03T16:41:11.882Z</time></trkpt><trkpt lat="38.2183467" lon="15.6478917"><ele>113.0</ele><time>2026-05-03T16:41:12.883Z</time></trkpt><trkpt lat="38.2180417" lon="15.6479167"><ele>113.0</ele><time>2026-05-03T16:41:13.883Z</time></trkpt><trkpt lat="38.2177467" lon="15.6479267"><ele>113.0</ele><time>2026-05-03T16:41:14.883Z</time></trkpt><trkpt lat="38.21745" lon="15.6479417"><ele>113.0</ele><time>2026-05-03T16:41:15.882Z</time></trkpt><trkpt lat="38.217155" lon="15.64794"><ele>111.5</ele><time>2026-05-03T16:41:16.883Z</time></trkpt><trkpt lat="38.216865" lon="15.6479417"><ele>110.0</ele><time>2026-05-03T16:41:17.883Z</time></trkpt><trkpt lat="38.2165783" lon="15.6479133"><ele>111.5</ele><time>2026-05-03T16:41:18.882Z</time></trkpt><trkpt lat="38.2162917" lon="15.6478717"><ele>113.0</ele><time>2026-05-03T16:41:19.883Z</time></trkpt><trkpt lat="38.216005" lon="15.6478083"><ele>108.5</ele><time>2026-05-03T16:41:20.883Z</time></trkpt><trkpt lat="38.215715" lon="15.6477333"><ele>104.0</ele><time>2026-05-03T16:41:21.883Z</time></trkpt><trkpt lat="38.2154283" lon="15.64765"><ele>103.0</ele><time>2026-05-03T16:41:22.882Z</time></trkpt><trkpt lat="38.2151417" lon="15.6475517"><ele>102.0</ele><time>2026-05-03T16:41:23.883Z</time></trkpt><trkpt lat="38.2148533" lon="15.6474517"><ele>101.0</ele><time>2026-05-03T16:41:24.882Z</time></trkpt><trkpt lat="38.2145683" lon="15.6473283"><ele>100.0</ele><time>2026-05-03T16:41:25.883Z</time></trkpt><trkpt lat="38.2142933" lon="15.6471883"><ele>100.0</ele><time>2026-05-03T16:41:26.883Z</time></trkpt><trkpt lat="38.2140217" lon="15.6470317"><ele>100.0</ele><time>2026-05-03T16:41:27.883Z</time></trkpt><trkpt lat="38.2137517" lon="15.6468617"><ele>89.5</ele><time>2026-05-03T16:41:28.882Z</time></trkpt><trkpt lat="38.2134833" lon="15.6466733"><ele>79.0</ele><time>2026-05-03T16:41:29.883Z</time></trkpt><trkpt lat="38.2132183" lon="15.6464833"><ele>80.0</ele><time>2026-05-03T16:41:30.883Z</time></trkpt><trkpt lat="38.21296" lon="15.6462733"><ele>81.0</ele><time>2026-05-03T16:41:31.882Z</time></trkpt><trkpt lat="38.2127033" lon="15.64605"><ele>81.0</ele><time>2026-05-03T16:41:32.882Z</time></trkpt><trkpt lat="38.2124583" lon="15.6458233"><ele>81.0</ele><time>2026-05-03T16:41:33.883Z</time></trkpt><trkpt lat="38.2122167" lon="15.64558"><ele>82.0</ele><time>2026-05-03T16:41:34.883Z</time></trkpt><trkpt lat="38.211975" lon="15.6453317"><ele>83.0</ele><time>2026-05-03T16:41:35.882Z</time></trkpt><trkpt lat="38.2117383" lon="15.64507"><ele>83.0</ele><time>2026-05-03T16:41:36.883Z</time></trkpt><trkpt lat="38.2114983" lon="15.64481"><ele>83.0</ele><time>2026-05-03T16:41:37.883Z</time></trkpt><trkpt lat="38.211265" lon="15.6445467"><ele>82.5</ele><time>2026-05-03T16:41:38.883Z</time></trkpt><trkpt lat="38.21103" lon="15.644285"><ele>82.0</ele><time>2026-05-03T16:41:39.882Z</time></trkpt><trkpt lat="38.2107933" lon="15.6440333"><ele>83.0</ele><time>2026-05-03T16:41:40.883Z</time></trkpt><trkpt lat="38.2105583" lon="15.6437783"><ele>84.0</ele><time>2026-05-03T16:41:41.883Z</time></trkpt><trkpt lat="38.2103267" lon="15.6435183"><ele>79.0</ele><time>2026-05-03T16:41:42.882Z</time></trkpt><trkpt lat="38.2100883" lon="15.643275"><ele>74.0</ele><time>2026-05-03T16:41:43.883Z</time></trkpt><trkpt lat="38.2098467" lon="15.6430333"><ele>73.0</ele><time>2026-05-03T16:41:44.883Z</time></trkpt><trkpt lat="38.2095983" lon="15.6428033"><ele>72.0</ele><time>2026-05-03T16:41:45.883Z</time></trkpt><trkpt lat="38.2093417" lon="15.6425883"><ele>68.5</ele><time>2026-05-03T16:41:46.883Z</time></trkpt><trkpt lat="38.2090767" lon="15.642385"><ele>65.0</ele><time>2026-05-03T16:41:47.883Z</time></trkpt><trkpt lat="38.2088083" lon="15.6421867"><ele>63.0</ele><time>2026-05-03T16:41:48.882Z</time></trkpt><trkpt lat="38.2085333" lon="15.6419983"><ele>61.0</ele><time>2026-05-03T16:41:49.883Z</time></trkpt><trkpt lat="38.208255" lon="15.6418233"><ele>58.0</ele><time>2026-05-03T16:41:50.882Z</time></trkpt><trkpt lat="38.2079617" lon="15.6416567"><ele>55.0</ele><time>2026-05-03T16:41:51.883Z</time></trkpt><trkpt lat="38.20766" lon="15.6415033"><ele>55.0</ele><time>2026-05-03T16:41:52.883Z</time></trkpt><trkpt lat="38.207365" lon="15.6413567"><ele>55.0</ele><time>2026-05-03T16:41:53.883Z</time></trkpt><trkpt lat="38.2070683" lon="15.6412267"><ele>54.0</ele><time>2026-05-03T16:41:54.883Z</time></trkpt><trkpt lat="38.206765" lon="15.6411167"><ele>53.0</ele><time>2026-05-03T16:41:55.883Z</time></trkpt><trkpt lat="38.2064583" lon="15.64102"><ele>55.0</ele><time>2026-05-03T16:41:56.882Z</time></trkpt><trkpt lat="38.20615" lon="15.640935"><ele>57.0</ele><time>2026-05-03T16:41:57.883Z</time></trkpt><trkpt lat="38.2058367" lon="15.64087"><ele>55.0</ele><time>2026-05-03T16:41:58.883Z</time></trkpt><trkpt lat="38.20552" lon="15.6408117"><ele>53.0</ele><time>2026-05-03T16:41:59.883Z</time></trkpt><trkpt lat="38.2052033" lon="15.6407683"><ele>53.0</ele><time>2026-05-03T16:42:00.883Z</time></trkpt><trkpt lat="38.2048883" lon="15.64073"><ele>53.0</ele><time>2026-05-03T16:42:01.883Z</time></trkpt><trkpt lat="38.2045817" lon="15.640705"><ele>53.0</ele><time>2026-05-03T16:42:02.883Z</time></trkpt><trkpt lat="38.20426" lon="15.640685"><ele>53.0</ele><time>2026-05-03T16:42:03.883Z</time></trkpt><trkpt lat="38.2039467" lon="15.6406717"><ele>54.5</ele><time>2026-05-03T16:42:04.883Z</time></trkpt><trkpt lat="38.2036317" lon="15.640665"><ele>56.0</ele><time>2026-05-03T16:42:05.883Z</time></trkpt><trkpt lat="38.20332" lon="15.640645"><ele>58.0</ele><time>2026-05-03T16:42:06.883Z</time></trkpt><trkpt lat="38.2030167" lon="15.6406283"><ele>60.0</ele><time>2026-05-03T16:42:07.883Z</time></trkpt><trkpt lat="38.2027183" lon="15.6406167"><ele>60.0</ele><time>2026-05-03T16:42:08.883Z</time></trkpt><trkpt lat="38.2024117" lon="15.64062"><ele>60.0</ele><time>2026-05-03T16:42:09.883Z</time></trkpt><trkpt lat="38.2021083" lon="15.640635"><ele>58.5</ele><time>2026-05-03T16:42:10.882Z</time></trkpt><trkpt lat="38.2018083" lon="15.6406583"><ele>57.0</ele><time>2026-05-03T16:42:11.882Z</time></trkpt><trkpt lat="38.2015067" lon="15.6406917"><ele>56.0</ele><time>2026-05-03T16:42:12.883Z</time></trkpt><trkpt lat="38.2012033" lon="15.6407433"><ele>55.0</ele><time>2026-05-03T16:42:13.882Z</time></trkpt><trkpt lat="38.200895" lon="15.6408"><ele>56.0</ele><time>2026-05-03T16:42:14.883Z</time></trkpt><trkpt lat="38.2005867" lon="15.6408583"><ele>57.0</ele><time>2026-05-03T16:42:15.882Z</time></trkpt><trkpt lat="38.2002833" lon="15.6409367"><ele>57.0</ele><time>2026-05-03T16:42:16.883Z</time></trkpt><trkpt lat="38.1999867" lon="15.6410283"><ele>57.0</ele><time>2026-05-03T16:42:17.882Z</time></trkpt><trkpt lat="38.199695" lon="15.6411317"><ele>58.0</ele><time>2026-05-03T16:42:18.883Z</time></trkpt><trkpt lat="38.1994067" lon="15.6412483"><ele>59.0</ele><time>2026-05-03T16:42:19.883Z</time></trkpt><trkpt lat="38.199125" lon="15.6413733"><ele>57.0</ele><time>2026-05-03T16:42:20.883Z</time></trkpt><trkpt lat="38.1988483" lon="15.6415167"><ele>55.0</ele><time>2026-05-03T16:42:21.883Z</time></trkpt><trkpt lat="38.198575" lon="15.64167"><ele>55.0</ele><time>2026-05-03T16:42:22.883Z</time></trkpt><trkpt lat="38.1983017" lon="15.64183"><ele>55.0</ele><time>2026-05-03T16:42:23.883Z</time></trkpt><trkpt lat="38.198035" lon="15.642005"><ele>55.0</ele><time>2026-05-03T16:42:24.882Z</time></trkpt><trkpt lat="38.197775" lon="15.6421833"><ele>55.0</ele><time>2026-05-03T16:42:25.883Z</time></trkpt><trkpt lat="38.1975183" lon="15.64238"><ele>56.0</ele><time>2026-05-03T16:42:26.882Z</time></trkpt><trkpt lat="38.1972717" lon="15.642585"><ele>57.0</ele><time>2026-05-03T16:42:27.883Z</time></trkpt><trkpt lat="38.1970283" lon="15.6427983"><ele>55.0</ele><time>2026-05-03T16:42:28.883Z</time></trkpt><trkpt lat="38.1967783" lon="15.6430333"><ele>53.0</ele><time>2026-05-03T16:42:29.882Z</time></trkpt><trkpt lat="38.19653" lon="15.6432617"><ele>48.0</ele><time>2026-05-03T16:42:30.883Z</time></trkpt><trkpt lat="38.196285" lon="15.6435017"><ele>43.0</ele><time>2026-05-03T16:42:31.883Z</time></trkpt><trkpt lat="38.1960433" lon="15.643755"><ele>41.0</ele><time>2026-05-03T16:42:32.882Z</time></trkpt><trkpt lat="38.1958033" lon="15.644"><ele>39.0</ele><time>2026-05-03T16:42:33.882Z</time></trkpt><trkpt lat="38.1955633" lon="15.6442533"><ele>36.5</ele><time>2026-05-03T16:42:34.883Z</time></trkpt><trkpt lat="38.19533" lon="15.644495"><ele>34.0</ele><time>2026-05-03T16:42:35.883Z</time></trkpt><trkpt lat="38.1951033" lon="15.6447367"><ele>34.0</ele><time>2026-05-03T16:42:36.883Z</time></trkpt><trkpt lat="38.1948817" lon="15.6449717"><ele>34.0</ele><time>2026-05-03T16:42:37.883Z</time></trkpt><trkpt lat="38.1946583" lon="15.6452"><ele>34.5</ele><time>2026-05-03T16:42:38.882Z</time></trkpt><trkpt lat="38.1944317" lon="15.6454333"><ele>35.0</ele><time>2026-05-03T16:42:39.883Z</time></trkpt><trkpt lat="38.1942067" lon="15.6456633"><ele>34.5</ele><time>2026-05-03T16:42:40.883Z</time></trkpt><trkpt lat="38.193985" lon="15.6458967"><ele>34.0</ele><time>2026-05-03T16:42:41.883Z</time></trkpt><trkpt lat="38.1937617" lon="15.6461317"><ele>35.0</ele><time>2026-05-03T16:42:42.883Z</time></trkpt><trkpt lat="38.1935383" lon="15.6463683"><ele>36.0</ele><time>2026-05-03T16:42:43.883Z</time></trkpt><trkpt lat="38.1933083" lon="15.6466117"><ele>34.5</ele><time>2026-05-03T16:42:44.883Z</time></trkpt><trkpt lat="38.193075" lon="15.6468483"><ele>33.0</ele><time>2026-05-03T16:42:45.882Z</time></trkpt><trkpt lat="38.1928417" lon="15.6470933"><ele>33.0</ele><time>2026-05-03T16:42:46.883Z</time></trkpt><trkpt lat="38.192605" lon="15.6473383"><ele>33.0</ele><time>2026-05-03T16:42:47.883Z</time></trkpt><trkpt lat="38.19237" lon="15.64757"><ele>32.5</ele><time>2026-05-03T16:42:48.883Z</time></trkpt><trkpt lat="38.1921317" lon="15.6477883"><ele>32.0</ele><time>2026-05-03T16:42:49.882Z</time></trkpt><trkpt lat="38.1918783" lon="15.647995"><ele>32.0</ele><time>2026-05-03T16:42:50.883Z</time></trkpt><trkpt lat="38.1916167" lon="15.6481783"><ele>32.0</ele><time>2026-05-03T16:42:51.883Z</time></trkpt><trkpt lat="38.1913517" lon="15.6483417"><ele>31.0</ele><time>2026-05-03T16:42:52.883Z</time></trkpt><trkpt lat="38.1910733" lon="15.6484767"><ele>30.0</ele><time>2026-05-03T16:42:53.883Z</time></trkpt><trkpt lat="38.190795" lon="15.6485883"><ele>29.0</ele><time>2026-05-03T16:42:54.883Z</time></trkpt><trkpt lat="38.1905117" lon="15.6486733"><ele>28.0</ele><time>2026-05-03T16:42:55.882Z</time></trkpt><trkpt lat="38.1902167" lon="15.6487317"><ele>28.0</ele><time>2026-05-03T16:42:56.882Z</time></trkpt><trkpt lat="38.189925" lon="15.6487617"><ele>28.0</ele><time>2026-05-03T16:42:57.883Z</time></trkpt><trkpt lat="38.1896317" lon="15.6487633"><ele>28.0</ele><time>2026-05-03T16:42:58.883Z</time></trkpt><trkpt lat="38.189335" lon="15.6487333"><ele>28.0</ele><time>2026-05-03T16:42:59.883Z</time></trkpt><trkpt lat="38.1890483" lon="15.648685"><ele>28.5</ele><time>2026-05-03T16:43:00.882Z</time></trkpt><trkpt lat="38.1887633" lon="15.6486033"><ele>29.0</ele><time>2026-05-03T16:43:01.883Z</time></trkpt><trkpt lat="38.1884783" lon="15.6485017"><ele>29.0</ele><time>2026-05-03T16:43:02.883Z</time></trkpt><trkpt lat="38.1881983" lon="15.6484017"><ele>29.0</ele><time>2026-05-03T16:43:03.883Z</time></trkpt><trkpt lat="38.1879217" lon="15.6482883"><ele>29.5</ele><time>2026-05-03T16:43:04.883Z</time></trkpt><trkpt lat="38.1876267" lon="15.6481883"><ele>30.0</ele><time>2026-05-03T16:43:05.882Z</time></trkpt><trkpt lat="38.1873267" lon="15.6481"><ele>30.0</ele><time>2026-05-03T16:43:06.883Z</time></trkpt><trkpt lat="38.18702" lon="15.6480283"><ele>30.0</ele><time>2026-05-03T16:43:07.883Z</time></trkpt><trkpt lat="38.1867183" lon="15.6479717"><ele>33.5</ele><time>2026-05-03T16:43:08.882Z</time></trkpt><trkpt lat="38.1864133" lon="15.64794"><ele>37.0</ele><time>2026-05-03T16:43:09.883Z</time></trkpt><trkpt lat="38.1860983" lon="15.6479383"><ele>37.0</ele><time>2026-05-03T16:43:10.883Z</time></trkpt><trkpt lat="38.1857883" lon="15.64796"><ele>37.0</ele><time>2026-05-03T16:43:11.882Z</time></trkpt><trkpt lat="38.185485" lon="15.6480033"><ele>38.0</ele><time>2026-05-03T16:43:12.882Z</time></trkpt><trkpt lat="38.18518" lon="15.6480683"><ele>39.0</ele><time>2026-05-03T16:43:13.882Z</time></trkpt><trkpt lat="38.1848833" lon="15.6481583"><ele>37.5</ele><time>2026-05-03T16:43:14.883Z</time></trkpt><trkpt lat="38.184595" lon="15.6482583"><ele>36.0</ele><time>2026-05-03T16:43:15.883Z</time></trkpt><trkpt lat="38.184305" lon="15.6483733"><ele>36.0</ele><time>2026-05-03T16:43:16.883Z</time></trkpt><trkpt lat="38.18402" lon="15.648505"><ele>36.0</ele><time>2026-05-03T16:43:17.883Z</time></trkpt><trkpt lat="38.1837417" lon="15.6486533"><ele>38.0</ele><time>2026-05-03T16:43:18.883Z</time></trkpt><trkpt lat="38.18347" lon="15.6488283"><ele>40.0</ele><time>2026-05-03T16:43:19.883Z</time></trkpt><trkpt lat="38.1831983" lon="15.6490183"><ele>41.0</ele><time>2026-05-03T16:43:20.883Z</time></trkpt><trkpt lat="38.1829333" lon="15.6492083"><ele>42.0</ele><time>2026-05-03T16:43:21.883Z</time></trkpt><trkpt lat="38.1826717" lon="15.6494"><ele>41.0</ele><time>2026-05-03T16:43:22.883Z</time></trkpt><trkpt lat="38.1824033" lon="15.6495983"><ele>40.0</ele><time>2026-05-03T16:43:23.882Z</time></trkpt><trkpt lat="38.1821367" lon="15.6497967"><ele>40.0</ele><time>2026-05-03T16:43:24.883Z</time></trkpt><trkpt lat="38.1818717" lon="15.6499733"><ele>40.0</ele><time>2026-05-03T16:43:25.883Z</time></trkpt><trkpt lat="38.181605" lon="15.6501517"><ele>41.5</ele><time>2026-05-03T16:43:26.883Z</time></trkpt><trkpt lat="38.1813367" lon="15.6503317"><ele>43.0</ele><time>2026-05-03T16:43:27.882Z</time></trkpt><trkpt lat="38.181065" lon="15.6505083"><ele>43.0</ele><time>2026-05-03T16:43:28.883Z</time></trkpt><trkpt lat="38.1807917" lon="15.6506767"><ele>43.0</ele><time>2026-05-03T16:43:29.883Z</time></trkpt><trkpt lat="38.1805017" lon="15.650845"><ele>44.0</ele><time>2026-05-03T16:43:30.882Z</time></trkpt><trkpt lat="38.1802017" lon="15.650995"><ele>45.0</ele><time>2026-05-03T16:43:31.883Z</time></trkpt><trkpt lat="38.17989" lon="15.6511383"><ele>48.5</ele><time>2026-05-03T16:43:32.882Z</time></trkpt><trkpt lat="38.1796" lon="15.6512633"><ele>52.0</ele><time>2026-05-03T16:43:33.883Z</time></trkpt><trkpt lat="38.17932" lon="15.6513867"><ele>52.0</ele><time>2026-05-03T16:43:34.883Z</time></trkpt><trkpt lat="38.1790617" lon="15.651505"><ele>52.0</ele><time>2026-05-03T16:43:35.883Z</time></trkpt><trkpt lat="38.178805" lon="15.6516183"><ele>49.0</ele><time>2026-05-03T16:43:36.883Z</time></trkpt><trkpt lat="38.17854" lon="15.6517367"><ele>46.0</ele><time>2026-05-03T16:43:37.883Z</time></trkpt><trkpt lat="38.1782767" lon="15.651855"><ele>48.0</ele><time>2026-05-03T16:43:38.883Z</time></trkpt><trkpt lat="38.1780217" lon="15.6519717"><ele>50.0</ele><time>2026-05-03T16:43:39.883Z</time></trkpt><trkpt lat="38.1777883" lon="15.652075"><ele>50.0</ele><time>2026-05-03T16:43:40.883Z</time></trkpt><trkpt lat="38.1775733" lon="15.6521683"><ele>50.0</ele><time>2026-05-03T16:43:41.883Z</time></trkpt><trkpt lat="38.1773717" lon="15.6522567"><ele>50.0</ele><time>2026-05-03T16:43:42.883Z</time></trkpt><trkpt lat="38.17718" lon="15.6523417"><ele>49.66666666666667</ele><time>2026-05-03T16:43:43.883Z</time></trkpt><trkpt lat="38.1769833" lon="15.65243"><ele>49.33333333333333</ele><time>2026-05-03T16:43:44.882Z</time></trkpt><trkpt lat="38.176785" lon="15.6525117"><ele>49.0</ele><time>2026-05-03T16:43:45.883Z</time></trkpt><trkpt lat="38.17658" lon="15.6525967"><ele>46.666666666666664</ele><time>2026-05-03T16:43:46.883Z</time></trkpt><trkpt lat="38.17638" lon="15.6526883"><ele>44.33333333333333</ele><time>2026-05-03T16:43:47.883Z</time></trkpt><trkpt lat="38.1761833" lon="15.6527683"><ele>42.0</ele><time>2026-05-03T16:43:48.883Z</time></trkpt><trkpt lat="38.1759833" lon="15.6528467"><ele>41.666666666666664</ele><time>2026-05-03T16:43:49.883Z</time></trkpt><trkpt lat="38.1757833" lon="15.6529317"><ele>41.33333333333333</ele><time>2026-05-03T16:43:50.882Z</time></trkpt><trkpt lat="38.1755783" lon="15.6530183"><ele>41.0</ele><time>2026-05-03T16:43:51.883Z</time></trkpt><trkpt lat="38.1753767" lon="15.653105"><ele>39.666666666666664</ele><time>2026-05-03T16:43:52.883Z</time></trkpt><trkpt lat="38.175175" lon="15.6531883"><ele>38.333333333333336</ele><time>2026-05-03T16:43:53.883Z</time></trkpt><trkpt lat="38.1749717" lon="15.653275"><ele>37.0</ele><time>2026-05-03T16:43:54.882Z</time></trkpt><trkpt lat="38.174775" lon="15.6533533"><ele>36.333333333333336</ele><time>2026-05-03T16:43:55.882Z</time></trkpt><trkpt lat="38.1745733" lon="15.65344"><ele>35.666666666666664</ele><time>2026-05-03T16:43:56.883Z</time></trkpt><trkpt lat="38.1743733" lon="15.6535233"><ele>35.0</ele><time>2026-05-03T16:43:57.883Z</time></trkpt><trkpt lat="38.1741717" lon="15.6536133"><ele>34.666666666666664</ele><time>2026-05-03T16:43:58.883Z</time></trkpt><trkpt lat="38.17397" lon="15.6537017"><ele>34.333333333333336</ele><time>2026-05-03T16:43:59.882Z</time></trkpt><trkpt lat="38.1737783" lon="15.6537833"><ele>34.0</ele><time>2026-05-03T16:44:00.882Z</time></trkpt><trkpt lat="38.1735933" lon="15.6538567"><ele>34.0</ele><time>2026-05-03T16:44:01.882Z</time></trkpt><trkpt lat="38.17342" lon="15.6539233"><ele>34.0</ele><time>2026-05-03T16:44:02.883Z</time></trkpt><trkpt lat="38.1732517" lon="15.6539883"><ele>34.0</ele><time>2026-05-03T16:44:03.883Z</time></trkpt><trkpt lat="38.1730967" lon="15.6540583"><ele>33.75</ele><time>2026-05-03T16:44:04.883Z</time></trkpt><trkpt lat="38.1729517" lon="15.65412"><ele>33.5</ele><time>2026-05-03T16:44:05.883Z</time></trkpt><trkpt lat="38.1728133" lon="15.6541667"><ele>33.25</ele><time>2026-05-03T16:44:06.882Z</time></trkpt><trkpt lat="38.172675" lon="15.654195"><ele>33.0</ele><time>2026-05-03T16:44:07.883Z</time></trkpt><trkpt lat="38.1725467" lon="15.6541933"><ele>33.0</ele><time>2026-05-03T16:44:08.883Z</time></trkpt><trkpt lat="38.1724233" lon="15.65415"><ele>33.0</ele><time>2026-05-03T16:44:09.883Z</time></trkpt><trkpt lat="38.1723217" lon="15.65408"><ele>33.0</ele><time>2026-05-03T16:44:10.883Z</time></trkpt><trkpt lat="38.1722317" lon="15.6539883"><ele>33.0</ele><time>2026-05-03T16:44:11.883Z</time></trkpt><trkpt lat="38.17215" lon="15.6538783"><ele>32.25</ele><time>2026-05-03T16:44:12.883Z</time></trkpt><trkpt lat="38.1720817" lon="15.6537617"><ele>31.5</ele><time>2026-05-03T16:44:13.883Z</time></trkpt><trkpt lat="38.172025" lon="15.6536333"><ele>30.75</ele><time>2026-05-03T16:44:14.882Z</time></trkpt><trkpt lat="38.171975" lon="15.653505"><ele>30.0</ele><time>2026-05-03T16:44:15.883Z</time></trkpt><trkpt lat="38.171935" lon="15.6533733"><ele>29.833333333333332</ele><time>2026-05-03T16:44:16.883Z</time></trkpt><trkpt lat="38.1719033" lon="15.6532683"><ele>29.666666666666664</ele><time>2026-05-03T16:44:17.882Z</time></trkpt><trkpt lat="38.17188" lon="15.6531917"><ele>29.5</ele><time>2026-05-03T16:44:18.883Z</time></trkpt><trkpt lat="38.1718667" lon="15.6531083"><ele>29.333333333333332</ele><time>2026-05-03T16:44:21.883Z</time></trkpt><trkpt lat="38.1718467" lon="15.653025"><ele>29.166666666666664</ele><time>2026-05-03T16:44:23.883Z</time></trkpt><trkpt lat="38.1718183" lon="15.6529167"><ele>29.0</ele><time>2026-05-03T16:44:24.883Z</time></trkpt><trkpt lat="38.1717733" lon="15.65275"><ele>28.666666666666664</ele><time>2026-05-03T16:44:25.883Z</time></trkpt><trkpt lat="38.1717133" lon="15.652565"><ele>28.333333333333336</ele><time>2026-05-03T16:44:26.883Z</time></trkpt><trkpt lat="38.1716383" lon="15.6523717"><ele>28.0</ele><time>2026-05-03T16:44:27.883Z</time></trkpt><trkpt lat="38.1715417" lon="15.6521867"><ele>27.333333333333336</ele><time>2026-05-03T16:44:28.883Z</time></trkpt><trkpt lat="38.17144" lon="15.6520067"><ele>26.666666666666664</ele><time>2026-05-03T16:44:29.883Z</time></trkpt><trkpt lat="38.171335" lon="15.6518533"><ele>26.0</ele><time>2026-05-03T16:44:30.883Z</time></trkpt><trkpt lat="38.1712517" lon="15.651725"><ele>25.8</ele><time>2026-05-03T16:44:31.883Z</time></trkpt><trkpt lat="38.17119" lon="15.6516383"><ele>25.6</ele><time>2026-05-03T16:44:32.882Z</time></trkpt><trkpt lat="38.1711333" lon="15.6515533"><ele>25.4</ele><time>2026-05-03T16:44:34.882Z</time></trkpt><trkpt lat="38.1710517" lon="15.6514517"><ele>25.2</ele><time>2026-05-03T16:44:36.882Z</time></trkpt><trkpt lat="38.1709833" lon="15.6513567"><ele>25.0</ele><time>2026-05-03T16:44:37.883Z</time></trkpt><trkpt lat="38.1708867" lon="15.6512817"><ele>25.000000000000004</ele><time>2026-05-03T16:44:38.882Z</time></trkpt><trkpt lat="38.1707933" lon="15.65125"><ele>25.0</ele><time>2026-05-03T16:44:39.883Z</time></trkpt><trkpt lat="38.17071" lon="15.6512517"><ele>25.0</ele><time>2026-05-03T16:44:40.883Z</time></trkpt><trkpt lat="38.1706333" lon="15.6512733"><ele>25.0</ele><time>2026-05-03T16:44:41.883Z</time></trkpt><trkpt lat="38.1705633" lon="15.6513017"><ele>25.000000000000004</ele><time>2026-05-03T16:44:42.883Z</time></trkpt><trkpt lat="38.1705067" lon="15.6513383"><ele>25.0</ele><time>2026-05-03T16:44:43.882Z</time></trkpt><trkpt lat="38.170465" lon="15.6513983"><ele>24.666666666666668</ele><time>2026-05-03T16:44:44.883Z</time></trkpt><trkpt lat="38.170445" lon="15.651475"><ele>24.333333333333336</ele><time>2026-05-03T16:44:45.883Z</time></trkpt><trkpt lat="38.1704517" lon="15.6515817"><ele>24.0</ele><time>2026-05-03T16:44:46.882Z</time></trkpt><trkpt lat="38.1704833" lon="15.6517033"><ele>23.666666666666668</ele><time>2026-05-03T16:44:47.883Z</time></trkpt><trkpt lat="38.1705283" lon="15.6517983"><ele>23.333333333333336</ele><time>2026-05-03T16:44:48.882Z</time></trkpt><trkpt lat="38.17059" lon="15.6518683"><ele>23.0</ele><time>2026-05-03T16:44:49.883Z</time></trkpt><trkpt lat="38.17067" lon="15.6519133"><ele>23.4</ele><time>2026-05-03T16:44:50.883Z</time></trkpt><trkpt lat="38.170745" lon="15.6519283"><ele>23.799999999999997</ele><time>2026-05-03T16:44:51.883Z</time></trkpt><trkpt lat="38.1708333" lon="15.6518983"><ele>24.2</ele><time>2026-05-03T16:44:52.883Z</time></trkpt><trkpt lat="38.1709133" lon="15.6518283"><ele>24.6</ele><time>2026-05-03T16:44:53.882Z</time></trkpt><trkpt lat="38.1709817" lon="15.65174"><ele>25.0</ele><time>2026-05-03T16:44:54.883Z</time></trkpt><trkpt lat="38.17102" lon="15.6516317"><ele>25.000000000000004</ele><time>2026-05-03T16:44:55.882Z</time></trkpt><trkpt lat="38.1710233" lon="15.6515233"><ele>25.0</ele><time>2026-05-03T16:44:56.882Z</time></trkpt><trkpt lat="38.17099" lon="15.6514117"><ele>25.0</ele><time>2026-05-03T16:44:57.882Z</time></trkpt><trkpt lat="38.1709417" lon="15.6513117"><ele>25.0</ele><time>2026-05-03T16:44:58.883Z</time></trkpt><trkpt lat="38.1708667" lon="15.6512533"><ele>25.000000000000004</ele><time>2026-05-03T16:44:59.883Z</time></trkpt><trkpt lat="38.170785" lon="15.651225"><ele>25.0</ele><time>2026-05-03T16:45:00.882Z</time></trkpt><trkpt lat="38.1706917" lon="15.6512317"><ele>24.6</ele><time>2026-05-03T16:45:01.883Z</time></trkpt><trkpt lat="38.1705933" lon="15.6512667"><ele>24.2</ele><time>2026-05-03T16:45:02.883Z</time></trkpt><trkpt lat="38.170505" lon="15.651305"><ele>23.799999999999997</ele><time>2026-05-03T16:45:03.883Z</time></trkpt><trkpt lat="38.170425" lon="15.651345"><ele>23.4</ele><time>2026-05-03T16:45:04.883Z</time></trkpt><trkpt lat="38.1703467" lon="15.65139"><ele>23.0</ele><time>2026-05-03T16:45:05.883Z</time></trkpt><trkpt lat="38.1702633" lon="15.651445"><ele>23.0</ele><time>2026-05-03T16:45:06.883Z</time></trkpt><trkpt lat="38.1701683" lon="15.6515"><ele>23.0</ele><time>2026-05-03T16:45:07.883Z</time></trkpt><trkpt lat="38.1700783" lon="15.6515517"><ele>23.0</ele><time>2026-05-03T16:45:08.883Z</time></trkpt><trkpt lat="38.1699933" lon="15.6515983"><ele>23.0</ele><time>2026-05-03T16:45:09.882Z</time></trkpt><trkpt lat="38.1699283" lon="15.651635"><ele>23.0</ele><time>2026-05-03T16:45:10.883Z</time></trkpt><trkpt lat="38.16984" lon="15.65168"><ele>23.2</ele><time>2026-05-03T16:45:12.883Z</time></trkpt><trkpt lat="38.169745" lon="15.6517267"><ele>23.4</ele><time>2026-05-03T16:45:14.882Z</time></trkpt><trkpt lat="38.16967" lon="15.65175"><ele>23.599999999999998</ele><time>2026-05-03T16:45:15.883Z</time></trkpt><trkpt lat="38.1695783" lon="15.6517867"><ele>23.799999999999997</ele><time>2026-05-03T16:45:16.883Z</time></trkpt><trkpt lat="38.16946" lon="15.6518517"><ele>24.0</ele><time>2026-05-03T16:45:17.882Z</time></trkpt><trkpt lat="38.1693383" lon="15.6519283"><ele>24.0</ele><time>2026-05-03T16:45:18.883Z</time></trkpt><trkpt lat="38.1692167" lon="15.6520117"><ele>24.0</ele><time>2026-05-03T16:45:19.883Z</time></trkpt><trkpt lat="38.1691217" lon="15.652085"><ele>24.0</ele><time>2026-05-03T16:45:20.883Z</time></trkpt><trkpt lat="38.1690517" lon="15.6521317"><ele>24.0</ele><time>2026-05-03T16:45:21.883Z</time></trkpt><trkpt lat="38.1689983" lon="15.6521767"><ele>24.0</ele><time>2026-05-03T16:45:22.882Z</time></trkpt><trkpt lat="38.168905" lon="15.6522683"><ele>24.0</ele><time>2026-05-03T16:45:24.882Z</time></trkpt><trkpt lat="38.1688483" lon="15.652315"><ele>24.0</ele><time>2026-05-03T16:45:25.883Z</time></trkpt><trkpt lat="38.16875" lon="15.6523633"><ele>24.0</ele><time>2026-05-03T16:45:27.883Z</time></trkpt><trkpt lat="38.1686883" lon="15.65242"><ele>24.0</ele><time>2026-05-03T16:45:32.882Z</time></trkpt><trkpt lat="38.168625" lon="15.6525033"><ele>24.0</ele><time>2026-05-03T16:45:35.882Z</time></trkpt><trkpt lat="38.1685583" lon="15.65253"><ele>24.0</ele><time>2026-05-03T16:45:37.883Z</time></trkpt><trkpt lat="38.1684917" lon="15.6524467"><ele>24.0</ele><time>2026-05-03T16:45:39.882Z</time></trkpt><trkpt lat="38.1684517" lon="15.6523733"><ele>24.0</ele><time>2026-05-03T16:45:40.883Z</time></trkpt><trkpt lat="38.168415" lon="15.6522667"><ele>24.0</ele><time>2026-05-03T16:45:41.883Z</time></trkpt><trkpt lat="38.168365" lon="15.6521133"><ele>24.0</ele><time>2026-05-03T16:45:42.882Z</time></trkpt><trkpt lat="38.1682883" lon="15.6519333"><ele>23.5</ele><time>2026-05-03T16:45:43.883Z</time></trkpt><trkpt lat="38.16823" lon="15.65174"><ele>23.0</ele><time>2026-05-03T16:45:44.883Z</time></trkpt><trkpt lat="38.1681867" lon="15.6515833"><ele>22.5</ele><time>2026-05-03T16:45:45.882Z</time></trkpt><trkpt lat="38.1681317" lon="15.6514567"><ele>22.0</ele><time>2026-05-03T16:45:46.883Z</time></trkpt><trkpt lat="38.1680817" lon="15.6513483"><ele>21.8</ele><time>2026-05-03T16:45:47.883Z</time></trkpt><trkpt lat="38.16804" lon="15.65124"><ele>21.6</ele><time>2026-05-03T16:45:48.882Z</time></trkpt><trkpt lat="38.1679983" lon="15.6511367"><ele>21.400000000000002</ele><time>2026-05-03T16:45:49.882Z</time></trkpt><trkpt lat="38.1679567" lon="15.65102"><ele>21.200000000000003</ele><time>2026-05-03T16:45:50.883Z</time></trkpt><trkpt lat="38.167915" lon="15.6508867"><ele>21.0</ele><time>2026-05-03T16:45:51.883Z</time></trkpt><trkpt lat="38.1678633" lon="15.6507317"><ele>20.0</ele><time>2026-05-03T16:45:52.883Z</time></trkpt><trkpt lat="38.16781" lon="15.6505633"><ele>19.0</ele><time>2026-05-03T16:45:53.883Z</time></trkpt><trkpt lat="38.1677417" lon="15.65037"><ele>18.0</ele><time>2026-05-03T16:45:54.883Z</time></trkpt><trkpt lat="38.16767" lon="15.6501683"><ele>18.0</ele><time>2026-05-03T16:45:55.883Z</time></trkpt><trkpt lat="38.1676067" lon="15.649975"><ele>18.0</ele><time>2026-05-03T16:45:56.883Z</time></trkpt><trkpt lat="38.16755" lon="15.6498033"><ele>18.0</ele><time>2026-05-03T16:45:57.883Z</time></trkpt><trkpt lat="38.1674983" lon="15.649625"><ele>18.0</ele><time>2026-05-03T16:45:58.883Z</time></trkpt><trkpt lat="38.1674383" lon="15.6494683"><ele>18.0</ele><time>2026-05-03T16:45:59.883Z</time></trkpt><trkpt lat="38.1673667" lon="15.6493517"><ele>18.0</ele><time>2026-05-03T16:46:00.882Z</time></trkpt><trkpt lat="38.167315" lon="15.6492367"><ele>18.0</ele><time>2026-05-03T16:46:01.883Z</time></trkpt><trkpt lat="38.16728" lon="15.6491367"><ele>18.0</ele><time>2026-05-03T16:46:02.882Z</time></trkpt><trkpt lat="38.1672483" lon="15.64903"><ele>17.5</ele><time>2026-05-03T16:46:03.882Z</time></trkpt><trkpt lat="38.1672117" lon="15.6489433"><ele>17.0</ele><time>2026-05-03T16:46:04.882Z</time></trkpt><trkpt lat="38.1671867" lon="15.648865"><ele>16.5</ele><time>2026-05-03T16:46:05.882Z</time></trkpt><trkpt lat="38.1671267" lon="15.6487367"><ele>16.0</ele><time>2026-05-03T16:46:07.882Z</time></trkpt><trkpt lat="38.16707" lon="15.6486967"><ele>15.5</ele><time>2026-05-03T16:46:09.883Z</time></trkpt><trkpt lat="38.167015" lon="15.6487617"><ele>15.0</ele><time>2026-05-03T16:46:11.883Z</time></trkpt><trkpt lat="38.1669683" lon="15.6488167"><ele>15.0</ele><time>2026-05-03T16:46:12.883Z</time></trkpt><trkpt lat="38.1669083" lon="15.6488667"><ele>15.0</ele><time>2026-05-03T16:46:13.883Z</time></trkpt><trkpt lat="38.16684" lon="15.6489267"><ele>15.0</ele><time>2026-05-03T16:46:14.883Z</time></trkpt><trkpt lat="38.1667817" lon="15.6489833"><ele>15.0</ele><time>2026-05-03T16:46:15.883Z</time></trkpt><trkpt lat="38.166715" lon="15.6490183"><ele>15.0</ele><time>2026-05-03T16:46:17.882Z</time></trkpt><trkpt lat="38.1666667" lon="15.6491067"><ele>15.0</ele><time>2026-05-03T16:46:22.883Z</time></trkpt><trkpt lat="38.166595" lon="15.6491667"><ele>15.0</ele><time>2026-05-03T16:46:24.882Z</time></trkpt><trkpt lat="38.1666567" lon="15.6491283"><ele>15.0</ele><time>2026-05-03T16:46:29.883Z</time></trkpt><trkpt lat="38.1667133" lon="15.6490733"><ele>15.0</ele><time>2026-05-03T16:46:31.882Z</time></trkpt><trkpt lat="38.1667833" lon="15.6490267"><ele>15.0</ele><time>2026-05-03T16:47:26.883Z</time></trkpt><trkpt lat="38.166865" lon="15.6489633"><ele>15.0</ele><time>2026-05-03T16:47:29.883Z</time></trkpt><trkpt lat="38.1669367" lon="15.6489"><ele>15.0</ele><time>2026-05-03T16:47:31.883Z</time></trkpt><trkpt lat="38.1670167" lon="15.6488133"><ele>15.0</ele><time>2026-05-03T16:47:33.883Z</time></trkpt><trkpt lat="38.1670667" lon="15.6487583"><ele>15.0</ele><time>2026-05-03T16:47:35.882Z</time></trkpt><trkpt lat="38.1671367" lon="15.648765"><ele>15.0</ele><time>2026-05-03T16:47:40.883Z</time></trkpt><trkpt lat="38.1671733" lon="15.6488367"><ele>15.0</ele><time>2026-05-03T16:47:42.882Z</time></trkpt><trkpt lat="38.1672117" lon="15.648975"><ele>15.0</ele><time>2026-05-03T16:47:44.883Z</time></trkpt><trkpt lat="38.1672617" lon="15.6491083"><ele>15.0</ele><time>2026-05-03T16:47:46.882Z</time></trkpt><trkpt lat="38.167305" lon="15.649245"><ele>15.0</ele><time>2026-05-03T16:47:48.882Z</time></trkpt><trkpt lat="38.16735" lon="15.6493817"><ele>15.0</ele><time>2026-05-03T16:47:50.883Z</time></trkpt><trkpt lat="38.1674017" lon="15.649525"><ele>15.0</ele><time>2026-05-03T16:47:52.883Z</time></trkpt><trkpt lat="38.1674317" lon="15.6496"><ele>15.0</ele><time>2026-05-03T16:47:53.883Z</time></trkpt><trkpt lat="38.16746" lon="15.649675"><ele>15.0</ele><time>2026-05-03T16:47:54.882Z</time></trkpt><trkpt lat="38.1674917" lon="15.64976"><ele>15.0</ele><time>2026-05-03T16:47:55.882Z</time></trkpt><trkpt lat="38.1675183" lon="15.6498333"><ele>15.6</ele><time>2026-05-03T16:47:56.883Z</time></trkpt><trkpt lat="38.1675717" lon="15.6499567"><ele>16.2</ele><time>2026-05-03T16:47:58.883Z</time></trkpt><trkpt lat="38.1676083" lon="15.6500833"><ele>16.8</ele><time>2026-05-03T16:48:00.883Z</time></trkpt><trkpt lat="38.1676483" lon="15.65021"><ele>17.4</ele><time>2026-05-03T16:48:02.882Z</time></trkpt><trkpt lat="38.1677033" lon="15.650345"><ele>18.0</ele><time>2026-05-03T16:48:04.883Z</time></trkpt><trkpt lat="38.1677583" lon="15.6504833"><ele>18.0</ele><time>2026-05-03T16:48:06.883Z</time></trkpt><trkpt lat="38.167805" lon="15.650625"><ele>18.0</ele><time>2026-05-03T16:48:08.882Z</time></trkpt><trkpt lat="38.1678333" lon="15.6507017"><ele>18.0</ele><time>2026-05-03T16:48:09.883Z</time></trkpt><trkpt lat="38.1678633" lon="15.650775"><ele>18.0</ele><time>2026-05-03T16:48:10.882Z</time></trkpt><trkpt lat="38.167905" lon="15.65091"><ele>18.0</ele><time>2026-05-03T16:48:12.882Z</time></trkpt><trkpt lat="38.1679317" lon="15.6509833"><ele>18.0</ele><time>2026-05-03T16:48:13.883Z</time></trkpt><trkpt lat="38.1679667" lon="15.6510567"><ele>18.6</ele><time>2026-05-03T16:48:14.883Z</time></trkpt><trkpt lat="38.1680317" lon="15.6511717"><ele>19.200000000000003</ele><time>2026-05-03T16:48:16.883Z</time></trkpt><trkpt lat="38.1680683" lon="15.6512867"><ele>19.8</ele><time>2026-05-03T16:48:18.883Z</time></trkpt><trkpt lat="38.1681167" lon="15.65143"><ele>20.400000000000002</ele><time>2026-05-03T16:48:20.882Z</time></trkpt><trkpt lat="38.1681417" lon="15.651505"><ele>21.0</ele><time>2026-05-03T16:48:21.882Z</time></trkpt><trkpt lat="38.1681667" lon="15.65158"><ele>21.142857142857142</ele><time>2026-05-03T16:48:22.883Z</time></trkpt><trkpt lat="38.1681933" lon="15.65167"><ele>21.285714285714285</ele><time>2026-05-03T16:48:23.883Z</time></trkpt><trkpt lat="38.1682217" lon="15.6517533"><ele>21.42857142857143</ele><time>2026-05-03T16:48:24.883Z</time></trkpt><trkpt lat="38.168255" lon="15.65183"><ele>21.57142857142857</ele><time>2026-05-03T16:48:25.883Z</time></trkpt><trkpt lat="38.1682817" lon="15.6519117"><ele>21.714285714285715</ele><time>2026-05-03T16:48:26.883Z</time></trkpt><trkpt lat="38.1683167" lon="15.6519933"><ele>21.857142857142858</ele><time>2026-05-03T16:48:27.883Z</time></trkpt><trkpt lat="38.168355" lon="15.65207"><ele>22.0</ele><time>2026-05-03T16:48:28.883Z</time></trkpt><trkpt lat="38.168385" lon="15.6521483"><ele>22.333333333333332</ele><time>2026-05-03T16:48:29.883Z</time></trkpt><trkpt lat="38.16844" lon="15.6522817"><ele>22.666666666666664</ele><time>2026-05-03T16:48:31.883Z</time></trkpt><trkpt lat="38.1684867" lon="15.6524"><ele>23.0</ele><time>2026-05-03T16:48:33.883Z</time></trkpt><trkpt lat="38.1685167" lon="15.6525083"><ele>23.333333333333332</ele><time>2026-05-03T16:48:35.882Z</time></trkpt><trkpt lat="38.1685183" lon="15.65259"><ele>23.666666666666668</ele><time>2026-05-03T16:48:38.883Z</time></trkpt><trkpt lat="38.1685117" lon="15.65267"><ele>24.0</ele><time>2026-05-03T16:49:15.883Z</time></trkpt><trkpt lat="38.168505" lon="15.6527533"><ele>24.333333333333332</ele><time>2026-05-03T16:49:18.883Z</time></trkpt><trkpt lat="38.1685317" lon="15.6528733"><ele>24.666666666666664</ele><time>2026-05-03T16:49:21.883Z</time></trkpt><trkpt lat="38.16858" lon="15.652985"><ele>25.0</ele><time>2026-05-03T16:49:23.883Z</time></trkpt><trkpt lat="38.1686183" lon="15.6530917"><ele>25.333333333333332</ele><time>2026-05-03T16:49:25.883Z</time></trkpt><trkpt lat="38.168635" lon="15.6531917"><ele>25.666666666666664</ele><time>2026-05-03T16:49:27.883Z</time></trkpt><trkpt lat="38.1686667" lon="15.65328"><ele>26.0</ele><time>2026-05-03T16:49:29.883Z</time></trkpt><trkpt lat="38.1686967" lon="15.6533717"><ele>25.999999999999996</ele><time>2026-05-03T16:49:31.882Z</time></trkpt><trkpt lat="38.16873" lon="15.6534733"><ele>26.0</ele><time>2026-05-03T16:49:33.883Z</time></trkpt><trkpt lat="38.1687717" lon="15.6535567"><ele>26.0</ele><time>2026-05-03T16:49:35.883Z</time></trkpt><trkpt lat="38.1688217" lon="15.6536367"><ele>26.0</ele><time>2026-05-03T16:49:37.882Z</time></trkpt><trkpt lat="38.1688517" lon="15.6537367"><ele>25.999999999999996</ele><time>2026-05-03T16:49:39.883Z</time></trkpt><trkpt lat="38.16887" lon="15.6538483"><ele>26.0</ele><time>2026-05-03T16:49:41.883Z</time></trkpt><trkpt lat="38.168895" lon="15.6539417"><ele>26.0</ele><time>2026-05-03T16:49:43.882Z</time></trkpt><trkpt lat="38.1689283" lon="15.6540567"><ele>26.0</ele><time>2026-05-03T16:49:45.882Z</time></trkpt><trkpt lat="38.16898" lon="15.6541417"><ele>26.0</ele><time>2026-05-03T16:49:47.883Z</time></trkpt><trkpt lat="38.1690367" lon="15.6542317"><ele>26.0</ele><time>2026-05-03T16:49:49.882Z</time></trkpt><trkpt lat="38.1690933" lon="15.6543333"><ele>26.0</ele><time>2026-05-03T16:49:51.882Z</time></trkpt><trkpt lat="38.1691467" lon="15.6544617"><ele>26.8</ele><time>2026-05-03T16:49:53.883Z</time></trkpt><trkpt lat="38.1692" lon="15.654585"><ele>27.6</ele><time>2026-05-03T16:49:55.883Z</time></trkpt><trkpt lat="38.169255" lon="15.65469"><ele>28.4</ele><time>2026-05-03T16:49:57.882Z</time></trkpt><trkpt lat="38.1692967" lon="15.6548033"><ele>29.2</ele><time>2026-05-03T16:49:59.883Z</time></trkpt><trkpt lat="38.1693433" lon="15.6549017"><ele>30.0</ele><time>2026-05-03T16:50:01.882Z</time></trkpt><trkpt lat="38.1693917" lon="15.6550117"><ele>30.0</ele><time>2026-05-03T16:50:03.883Z</time></trkpt><trkpt lat="38.16942" lon="15.65511"><ele>30.0</ele><time>2026-05-03T16:50:05.883Z</time></trkpt><trkpt lat="38.1694517" lon="15.6552267"><ele>30.0</ele><time>2026-05-03T16:50:07.883Z</time></trkpt><trkpt lat="38.1694867" lon="15.6553417"><ele>30.0</ele><time>2026-05-03T16:50:09.883Z</time></trkpt><trkpt lat="38.169535" lon="15.65546"><ele>30.0</ele><time>2026-05-03T16:50:11.883Z</time></trkpt><trkpt lat="38.1695633" lon="15.6555817"><ele>30.2</ele><time>2026-05-03T16:50:13.883Z</time></trkpt><trkpt lat="38.1695933" lon="15.6556917"><ele>30.4</ele><time>2026-05-03T16:50:15.883Z</time></trkpt><trkpt lat="38.169645" lon="15.655815"><ele>30.6</ele><time>2026-05-03T16:50:17.882Z</time></trkpt><trkpt lat="38.1696967" lon="15.65593"><ele>30.8</ele><time>2026-05-03T16:50:19.883Z</time></trkpt><trkpt lat="38.1697433" lon="15.6560517"><ele>31.0</ele><time>2026-05-03T16:50:21.883Z</time></trkpt><trkpt lat="38.1697667" lon="15.65617"><ele>31.6</ele><time>2026-05-03T16:50:23.883Z</time></trkpt><trkpt lat="38.16981" lon="15.6562783"><ele>32.2</ele><time>2026-05-03T16:50:25.882Z</time></trkpt><trkpt lat="38.1698617" lon="15.65638"><ele>32.8</ele><time>2026-05-03T16:50:27.883Z</time></trkpt><trkpt lat="38.1699033" lon="15.6564767"><ele>33.4</ele><time>2026-05-03T16:50:29.883Z</time></trkpt><trkpt lat="38.1699533" lon="15.6565733"><ele>34.0</ele><time>2026-05-03T16:50:31.883Z</time></trkpt><trkpt lat="38.1699967" lon="15.6566733"><ele>34.5</ele><time>2026-05-03T16:50:33.883Z</time></trkpt><trkpt lat="38.170045" lon="15.6567817"><ele>35.0</ele><time>2026-05-03T16:50:35.882Z</time></trkpt><trkpt lat="38.170085" lon="15.656895"><ele>35.5</ele><time>2026-05-03T16:50:37.882Z</time></trkpt><trkpt lat="38.1701217" lon="15.6569883"><ele>36.0</ele><time>2026-05-03T16:50:39.883Z</time></trkpt><trkpt lat="38.1701467" lon="15.657085"><ele>36.5</ele><time>2026-05-03T16:50:41.882Z</time></trkpt><trkpt lat="38.1701517" lon="15.6571833"><ele>37.0</ele><time>2026-05-03T16:50:43.883Z</time></trkpt><trkpt lat="38.1701417" lon="15.6572917"><ele>37.4</ele><time>2026-05-03T16:50:45.883Z</time></trkpt><trkpt lat="38.170125" lon="15.6574267"><ele>37.800000000000004</ele><time>2026-05-03T16:50:47.883Z</time></trkpt><trkpt lat="38.1701233" lon="15.657545"><ele>38.2</ele><time>2026-05-03T16:50:49.883Z</time></trkpt><trkpt lat="38.1701133" lon="15.657665"><ele>38.6</ele><time>2026-05-03T16:50:51.882Z</time></trkpt><trkpt lat="38.17009" lon="15.6578067"><ele>39.0</ele><time>2026-05-03T16:50:53.882Z</time></trkpt><trkpt lat="38.1700867" lon="15.657975"><ele>39.2</ele><time>2026-05-03T16:50:55.883Z</time></trkpt><trkpt lat="38.1700933" lon="15.658065"><ele>39.4</ele><time>2026-05-03T16:50:56.882Z</time></trkpt><trkpt lat="38.17011" lon="15.658145"><ele>39.6</ele><time>2026-05-03T16:50:57.883Z</time></trkpt><trkpt lat="38.1701633" lon="15.6582833"><ele>39.8</ele><time>2026-05-03T16:50:59.883Z</time></trkpt><trkpt lat="38.17023" lon="15.6584117"><ele>40.0</ele><time>2026-05-03T16:51:01.883Z</time></trkpt><trkpt lat="38.170285" lon="15.658515"><ele>40.0</ele><time>2026-05-03T16:51:03.883Z</time></trkpt><trkpt lat="38.17034" lon="15.658615"><ele>40.0</ele><time>2026-05-03T16:51:05.882Z</time></trkpt><trkpt lat="38.1703967" lon="15.658725"><ele>40.0</ele><time>2026-05-03T16:51:07.883Z</time></trkpt><trkpt lat="38.1704517" lon="15.6588167"><ele>40.0</ele><time>2026-05-03T16:51:09.883Z</time></trkpt><trkpt lat="38.1705067" lon="15.658905"><ele>40.0</ele><time>2026-05-03T16:51:11.882Z</time></trkpt><trkpt lat="38.1705433" lon="15.6590117"><ele>40.8</ele><time>2026-05-03T16:51:13.883Z</time></trkpt><trkpt lat="38.1705867" lon="15.65911"><ele>41.6</ele><time>2026-05-03T16:51:15.883Z</time></trkpt><trkpt lat="38.17063" lon="15.6592067"><ele>42.400000000000006</ele><time>2026-05-03T16:51:17.883Z</time></trkpt><trkpt lat="38.1706867" lon="15.6592983"><ele>43.2</ele><time>2026-05-03T16:51:19.883Z</time></trkpt><trkpt lat="38.170725" lon="15.6593983"><ele>44.0</ele><time>2026-05-03T16:51:21.882Z</time></trkpt><trkpt lat="38.1707467" lon="15.6595233"><ele>45.6</ele><time>2026-05-03T16:51:23.882Z</time></trkpt><trkpt lat="38.1707833" lon="15.65966"><ele>47.2</ele><time>2026-05-03T16:51:25.883Z</time></trkpt><trkpt lat="38.1708283" lon="15.65978"><ele>48.800000000000004</ele><time>2026-05-03T16:51:27.883Z</time></trkpt><trkpt lat="38.1708783" lon="15.65988"><ele>50.400000000000006</ele><time>2026-05-03T16:51:29.883Z</time></trkpt><trkpt lat="38.1709233" lon="15.659995"><ele>52.0</ele><time>2026-05-03T16:51:31.883Z</time></trkpt><trkpt lat="38.170955" lon="15.6601"><ele>51.99999999999999</ele><time>2026-05-03T16:51:33.882Z</time></trkpt><trkpt lat="38.1709733" lon="15.6602117"><ele>52.0</ele><time>2026-05-03T16:51:35.883Z</time></trkpt><trkpt lat="38.1709967" lon="15.66032"><ele>52.0</ele><time>2026-05-03T16:51:37.883Z</time></trkpt><trkpt lat="38.1710217" lon="15.66042"><ele>52.0</ele><time>2026-05-03T16:51:39.883Z</time></trkpt><trkpt lat="38.1710467" lon="15.6605117"><ele>51.99999999999999</ele><time>2026-05-03T16:51:41.882Z</time></trkpt><trkpt lat="38.1710767" lon="15.6606083"><ele>52.0</ele><time>2026-05-03T16:51:43.882Z</time></trkpt><trkpt lat="38.1711033" lon="15.66071"><ele>52.8</ele><time>2026-05-03T16:51:45.882Z</time></trkpt><trkpt lat="38.1711317" lon="15.6608217"><ele>53.6</ele><time>2026-05-03T16:51:47.883Z</time></trkpt><trkpt lat="38.1711617" lon="15.6609317"><ele>54.39999999999999</ele><time>2026-05-03T16:51:49.883Z</time></trkpt><trkpt lat="38.1711983" lon="15.66104"><ele>55.199999999999996</ele><time>2026-05-03T16:51:51.883Z</time></trkpt><trkpt lat="38.1712233" lon="15.66114"><ele>56.0</ele><time>2026-05-03T16:51:53.882Z</time></trkpt><trkpt lat="38.1712567" lon="15.6612483"><ele>56.0</ele><time>2026-05-03T16:51:55.882Z</time></trkpt><trkpt lat="38.171285" lon="15.6613533"><ele>55.99999999999999</ele><time>2026-05-03T16:51:57.883Z</time></trkpt><trkpt lat="38.1713017" lon="15.6614667"><ele>55.99999999999999</ele><time>2026-05-03T16:51:59.883Z</time></trkpt><trkpt lat="38.1713233" lon="15.66158"><ele>56.0</ele><time>2026-05-03T16:52:01.882Z</time></trkpt><trkpt lat="38.1713417" lon="15.661695"><ele>56.0</ele><time>2026-05-03T16:52:03.882Z</time></trkpt><trkpt lat="38.1713467" lon="15.6618183"><ele>56.00000000000001</ele><time>2026-05-03T16:52:05.882Z</time></trkpt><trkpt lat="38.1713517" lon="15.6619333"><ele>56.0</ele><time>2026-05-03T16:52:07.881Z</time></trkpt><trkpt lat="38.1713483" lon="15.6620333"><ele>56.0</ele><time>2026-05-03T16:52:09.881Z</time></trkpt><trkpt lat="38.1713483" lon="15.66214"><ele>56.0</ele><time>2026-05-03T16:52:11.881Z</time></trkpt><trkpt lat="38.17135" lon="15.662255"><ele>56.00000000000001</ele><time>2026-05-03T16:52:13.881Z</time></trkpt><trkpt lat="38.171355" lon="15.6623717"><ele>56.0</ele><time>2026-05-03T16:52:15.881Z</time></trkpt><trkpt lat="38.1713667" lon="15.662495"><ele>56.599999999999994</ele><time>2026-05-03T16:52:17.882Z</time></trkpt><trkpt lat="38.1713717" lon="15.662625"><ele>57.199999999999996</ele><time>2026-05-03T16:52:19.882Z</time></trkpt><trkpt lat="38.1713967" lon="15.6627533"><ele>57.800000000000004</ele><time>2026-05-03T16:52:21.882Z</time></trkpt><trkpt lat="38.1714333" lon="15.6628767"><ele>58.400000000000006</ele><time>2026-05-03T16:52:23.882Z</time></trkpt><trkpt lat="38.1714767" lon="15.66299"><ele>59.0</ele><time>2026-05-03T16:52:25.882Z</time></trkpt><trkpt lat="38.1714967" lon="15.6630717"><ele>59.50000000000001</ele><time>2026-05-03T16:52:27.881Z</time></trkpt><trkpt lat="38.1715167" lon="15.6631517"><ele>60.0</ele><time>2026-05-03T16:52:29.882Z</time></trkpt><trkpt lat="38.1715567" lon="15.6632333"><ele>60.5</ele><time>2026-05-03T16:52:31.882Z</time></trkpt><trkpt lat="38.1716067" lon="15.6633233"><ele>61.0</ele><time>2026-05-03T16:52:33.882Z</time></trkpt><trkpt lat="38.17166" lon="15.6634183"><ele>61.50000000000001</ele><time>2026-05-03T16:52:35.881Z</time></trkpt><trkpt lat="38.171705" lon="15.6635133"><ele>62.0</ele><time>2026-05-03T16:52:37.882Z</time></trkpt><trkpt lat="38.171765" lon="15.6636"><ele>63.00000000000001</ele><time>2026-05-03T16:52:40.881Z</time></trkpt><trkpt lat="38.1718167" lon="15.6636533"><ele>64.0</ele><time>2026-05-03T16:52:42.882Z</time></trkpt><trkpt lat="38.1718633" lon="15.66372"><ele>65.0</ele><time>2026-05-03T16:52:44.881Z</time></trkpt><trkpt lat="38.17191" lon="15.6638"><ele>66.0</ele><time>2026-05-03T16:52:46.882Z</time></trkpt><trkpt lat="38.1719667" lon="15.6639067"><ele>67.0</ele><time>2026-05-03T16:52:48.882Z</time></trkpt><trkpt lat="38.17203" lon="15.663995"><ele>68.0</ele><time>2026-05-03T16:52:50.881Z</time></trkpt><trkpt lat="38.1721067" lon="15.6640617"><ele>68.0</ele><time>2026-05-03T16:52:52.882Z</time></trkpt><trkpt lat="38.17217" lon="15.664145"><ele>68.0</ele><time>2026-05-03T16:52:54.882Z</time></trkpt><trkpt lat="38.1722583" lon="15.66423"><ele>68.0</ele><time>2026-05-03T16:52:56.881Z</time></trkpt><trkpt lat="38.1723717" lon="15.66435"><ele>68.0</ele><time>2026-05-03T16:52:58.882Z</time></trkpt><trkpt lat="38.1724483" lon="15.664435"><ele>68.75</ele><time>2026-05-03T16:52:59.882Z</time></trkpt><trkpt lat="38.1725433" lon="15.66454"><ele>69.5</ele><time>2026-05-03T16:53:00.882Z</time></trkpt><trkpt lat="38.172665" lon="15.6646433"><ele>70.25</ele><time>2026-05-03T16:53:01.882Z</time></trkpt><trkpt lat="38.1727817" lon="15.66475"><ele>71.0</ele><time>2026-05-03T16:53:02.882Z</time></trkpt><trkpt lat="38.17288" lon="15.6648383"><ele>71.0</ele><time>2026-05-03T16:53:03.882Z</time></trkpt><trkpt lat="38.1729333" lon="15.6648917"><ele>71.0</ele><time>2026-05-03T16:53:04.882Z</time></trkpt><trkpt lat="38.172945" lon="15.66502"><ele>71.0</ele><time>2026-05-03T16:53:06.882Z</time></trkpt><trkpt lat="38.1728967" lon="15.66516"><ele>71.0</ele><time>2026-05-03T16:53:08.882Z</time></trkpt><trkpt lat="38.1729333" lon="15.6652733"><ele>71.0</ele><time>2026-05-03T16:53:10.882Z</time></trkpt><trkpt lat="38.173005" lon="15.66536"><ele>71.8</ele><time>2026-05-03T16:53:11.882Z</time></trkpt><trkpt lat="38.1730833" lon="15.66545"><ele>72.6</ele><time>2026-05-03T16:53:12.881Z</time></trkpt><trkpt lat="38.17313" lon="15.6655317"><ele>73.4</ele><time>2026-05-03T16:53:13.882Z</time></trkpt><trkpt lat="38.173095" lon="15.6656883"><ele>74.2</ele><time>2026-05-03T16:53:15.882Z</time></trkpt><trkpt lat="38.173005" lon="15.6658"><ele>75.0</ele><time>2026-05-03T16:53:16.882Z</time></trkpt><trkpt lat="38.1729033" lon="15.66594"><ele>76.0</ele><time>2026-05-03T16:53:17.882Z</time></trkpt><trkpt lat="38.1728433" lon="15.6661183"><ele>77.0</ele><time>2026-05-03T16:53:18.881Z</time></trkpt><trkpt lat="38.1728267" lon="15.6663267"><ele>78.0</ele><time>2026-05-03T16:53:19.881Z</time></trkpt><trkpt lat="38.17281" lon="15.66656"><ele>78.0</ele><time>2026-05-03T16:53:20.881Z</time></trkpt><trkpt lat="38.172815" lon="15.6667867"><ele>78.0</ele><time>2026-05-03T16:53:21.882Z</time></trkpt><trkpt lat="38.1728" lon="15.6669817"><ele>78.0</ele><time>2026-05-03T16:53:22.881Z</time></trkpt><trkpt lat="38.1727883" lon="15.667155"><ele>78.33333333333333</ele><time>2026-05-03T16:53:23.882Z</time></trkpt><trkpt lat="38.1727917" lon="15.6673117"><ele>78.66666666666667</ele><time>2026-05-03T16:53:24.882Z</time></trkpt><trkpt lat="38.172785" lon="15.667435"><ele>79.0</ele><time>2026-05-03T16:53:25.882Z</time></trkpt><trkpt lat="38.172785" lon="15.6675233"><ele>79.33333333333334</ele><time>2026-05-03T16:53:26.882Z</time></trkpt><trkpt lat="38.1728017" lon="15.6676167"><ele>79.66666666666667</ele><time>2026-05-03T16:53:27.882Z</time></trkpt><trkpt lat="38.1728417" lon="15.66768"><ele>80.0</ele><time>2026-05-03T16:53:28.882Z</time></trkpt><trkpt lat="38.1729083" lon="15.6677133"><ele>80.0</ele><time>2026-05-03T16:53:29.882Z</time></trkpt><trkpt lat="38.173" lon="15.6677267"><ele>80.0</ele><time>2026-05-03T16:53:30.881Z</time></trkpt><trkpt lat="38.17311" lon="15.6677383"><ele>80.0</ele><time>2026-05-03T16:53:31.882Z</time></trkpt><trkpt lat="38.1732367" lon="15.6677533"><ele>80.0</ele><time>2026-05-03T16:53:32.882Z</time></trkpt><trkpt lat="38.1733633" lon="15.6677767"><ele>81.5</ele><time>2026-05-03T16:53:33.882Z</time></trkpt><trkpt lat="38.1734917" lon="15.667805"><ele>83.0</ele><time>2026-05-03T16:53:34.882Z</time></trkpt><trkpt lat="38.173625" lon="15.6678483"><ele>84.5</ele><time>2026-05-03T16:53:35.882Z</time></trkpt><trkpt lat="38.1737283" lon="15.6678883"><ele>86.0</ele><time>2026-05-03T16:53:36.882Z</time></trkpt><trkpt lat="38.1738017" lon="15.6679317"><ele>86.0</ele><time>2026-05-03T16:53:37.881Z</time></trkpt><trkpt lat="38.1738833" lon="15.6680417"><ele>86.0</ele><time>2026-05-03T16:53:39.882Z</time></trkpt><trkpt lat="38.173885" lon="15.668135"><ele>86.0</ele><time>2026-05-03T16:53:40.882Z</time></trkpt><trkpt lat="38.17388" lon="15.6682533"><ele>86.0</ele><time>2026-05-03T16:53:41.882Z</time></trkpt><trkpt lat="38.1738633" lon="15.6683983"><ele>86.0</ele><time>2026-05-03T16:53:42.882Z</time></trkpt><trkpt lat="38.1738417" lon="15.6685583"><ele>87.0</ele><time>2026-05-03T16:53:43.881Z</time></trkpt><trkpt lat="38.173825" lon="15.6687083"><ele>88.0</ele><time>2026-05-03T16:53:44.882Z</time></trkpt><trkpt lat="38.1738" lon="15.668855"><ele>89.0</ele><time>2026-05-03T16:53:45.882Z</time></trkpt><trkpt lat="38.1737833" lon="15.66899"><ele>90.0</ele><time>2026-05-03T16:53:46.882Z</time></trkpt><trkpt lat="38.173755" lon="15.669105"><ele>91.0</ele><time>2026-05-03T16:53:47.881Z</time></trkpt><trkpt lat="38.1737417" lon="15.669215"><ele>91.0</ele><time>2026-05-03T16:53:48.882Z</time></trkpt><trkpt lat="38.17376" lon="15.66931"><ele>91.0</ele><time>2026-05-03T16:53:49.882Z</time></trkpt><trkpt lat="38.1738183" lon="15.6693833"><ele>91.0</ele><time>2026-05-03T16:53:50.882Z</time></trkpt><trkpt lat="38.1739" lon="15.66943"><ele>91.0</ele><time>2026-05-03T16:53:51.882Z</time></trkpt><trkpt lat="38.1739867" lon="15.6694517"><ele>91.0</ele><time>2026-05-03T16:53:52.882Z</time></trkpt><trkpt lat="38.1740417" lon="15.6694967"><ele>91.0</ele><time>2026-05-03T16:53:53.882Z</time></trkpt><trkpt lat="38.17408" lon="15.6696633"><ele>91.66666666666666</ele><time>2026-05-03T16:53:55.882Z</time></trkpt><trkpt lat="38.1740733" lon="15.66978"><ele>92.33333333333333</ele><time>2026-05-03T16:53:56.882Z</time></trkpt><trkpt lat="38.1740617" lon="15.6698917"><ele>93.0</ele><time>2026-05-03T16:53:57.881Z</time></trkpt><trkpt lat="38.1740483" lon="15.6699917"><ele>93.66666666666667</ele><time>2026-05-03T16:53:58.882Z</time></trkpt><trkpt lat="38.174025" lon="15.6700767"><ele>94.33333333333334</ele><time>2026-05-03T16:53:59.882Z</time></trkpt><trkpt lat="38.1740017" lon="15.6702017"><ele>95.0</ele><time>2026-05-03T16:54:01.882Z</time></trkpt><trkpt lat="38.1739483" lon="15.6702917"><ele>96.2</ele><time>2026-05-03T16:54:03.882Z</time></trkpt><trkpt lat="38.17389" lon="15.6703883"><ele>97.4</ele><time>2026-05-03T16:54:05.882Z</time></trkpt><trkpt lat="38.1738433" lon="15.6705133"><ele>98.6</ele><time>2026-05-03T16:54:07.881Z</time></trkpt><trkpt lat="38.173825" lon="15.6706333"><ele>99.8</ele><time>2026-05-03T16:54:09.882Z</time></trkpt><trkpt lat="38.1738817" lon="15.670695"><ele>101.0</ele><time>2026-05-03T16:59:32.882Z</time></trkpt><trkpt lat="38.173975" lon="15.6707317"><ele>101.33333333333333</ele><time>2026-05-03T16:59:34.883Z</time></trkpt><trkpt lat="38.174065" lon="15.6707533"><ele>101.66666666666666</ele><time>2026-05-03T16:59:36.883Z</time></trkpt><trkpt lat="38.1741333" lon="15.670775"><ele>102.0</ele><time>2026-05-03T16:59:39.882Z</time></trkpt><trkpt lat="38.1742033" lon="15.6708183"><ele>102.33333333333334</ele><time>2026-05-03T16:59:42.883Z</time></trkpt><trkpt lat="38.1741967" lon="15.6709483"><ele>102.66666666666667</ele><time>2026-05-03T17:07:26.882Z</time></trkpt><trkpt lat="38.1742583" lon="15.671035"><ele>103.0</ele><time>2026-05-03T17:10:16.883Z</time></trkpt><trkpt lat="38.1741767" lon="15.6709467"><ele>103.00000000000001</ele><time>2026-05-03T17:19:34.883Z</time></trkpt><trkpt lat="38.174115" lon="15.6708633"><ele>103.0</ele><time>2026-05-03T17:19:37.882Z</time></trkpt><trkpt lat="38.17406" lon="15.670795"><ele>103.0</ele><time>2026-05-03T17:19:39.882Z</time></trkpt><trkpt lat="38.174005" lon="15.6707183"><ele>103.0</ele><time>2026-05-03T17:19:41.883Z</time></trkpt><trkpt lat="38.1739183" lon="15.6706133"><ele>103.00000000000001</ele><time>2026-05-03T17:19:46.886Z</time></trkpt><trkpt lat="38.1739433" lon="15.67071"><ele>103.0</ele><time>2026-05-03T17:20:01.886Z</time></trkpt><trkpt lat="38.1739383" lon="15.670805"><ele>103.0</ele><time>2026-05-03T17:20:09.886Z</time></trkpt><trkpt lat="38.1739717" lon="15.6709233"><ele>103.0</ele><time>2026-05-03T17:20:11.886Z</time></trkpt><trkpt lat="38.1740083" lon="15.6710233"><ele>103.0</ele><time>2026-05-03T17:20:14.886Z</time></trkpt><trkpt lat="38.1743087" lon="15.6707024"><ele>103.0</ele><time>2026-05-03T17:20:23.677Z</time></trkpt><trkpt lat="38.174265" lon="15.6712067"><ele>103.0</ele><time>2026-05-03T17:20:31.885Z</time></trkpt><trkpt lat="38.1742617" lon="15.6710417"><ele>103.00000000000001</ele><time>2026-05-03T17:20:36.886Z</time></trkpt><trkpt lat="38.1742433" lon="15.6709483"><ele>103.0</ele><time>2026-05-03T17:21:03.886Z</time></trkpt><trkpt lat="38.1742517" lon="15.670865"><ele>103.0</ele><time>2026-05-03T17:21:59.885Z</time></trkpt><trkpt lat="38.1742717" lon="15.67078"><ele>103.0</ele><time>2026-05-03T17:22:07.886Z</time></trkpt><trkpt lat="38.1742733" lon="15.67065"><ele>103.00000000000001</ele><time>2026-05-03T17:22:09.886Z</time></trkpt><trkpt lat="38.174275" lon="15.670545"><ele>103.0</ele><time>2026-05-03T17:22:12.886Z</time></trkpt><trkpt lat="38.1742733" lon="15.6707167"><ele>103.0</ele><time>2026-05-03T17:22:23.886Z</time></trkpt><trkpt lat="38.1742667" lon="15.6707983"><ele>103.0</ele><time>2026-05-03T17:22:35.886Z</time></trkpt><trkpt lat="38.1742367" lon="15.6709933"><ele>103.0</ele><time>2026-05-03T17:23:31.885Z</time></trkpt><trkpt lat="38.174165" lon="15.670985"><ele>103.0</ele><time>2026-05-03T17:23:36.886Z</time></trkpt><trkpt lat="38.1741517" lon="15.6709"><ele>103.0</ele><time>2026-05-03T17:24:25.886Z</time></trkpt><trkpt lat="38.1741967" lon="15.6707983"><ele>103.0</ele><time>2026-05-03T17:24:26.886Z</time></trkpt><trkpt lat="38.17413" lon="15.6707617"><ele>103.0</ele><time>2026-05-03T17:24:30.886Z</time></trkpt></trkseg></trk></gpx>